<?xml version="1.0" encoding="UTF-8"?>
<gpx version="1.1" creator="https://www.youtrack.es" xsi:schemaLocation="http://www.topografix.com/GPX/1/1 http://www.topografix.com/GPX/1/1/gpx.xsd http://www.garmin.com/xmlschemas/GpxExtensions/v3 http://www.garmin.com/xmlschemas/GpxExtensionsv3.xsd http://www.garmin.com/xmlschemas/TrackPointExtension/v1 http://www.garmin.com/xmlschemas/TrackPointExtensionv1.xsd" xmlns:gpxtpx="http://www.garmin.com/xmlschemas/TrackPointExtension/v1" xmlns:gpxx="http://www.garmin.com/xmlschemas/GpxExtensions/v3" xmlns:xsi="http://www.w3.org/2001/XMLSchema-instance">
  <metadata>
    <author>
      <name>JUAN MIGUEL MARTINEZ CEREZO</name>
      <email id="juanmcerezo2" domain="gmail.com"/>
    </author>
    <link href="https://www.youtrack.es">
      <text>YouTrack.es</text>
    </link>
    <time>2026-05-08T01:07:11Z</time>
  </metadata>
  <trk>
    <src>https://www.youtrack.es</src>
    <link href="https://www.youtrack.es/ruta/31986-tres-taifas-mayo">
      <text>YouTrack.es</text>
    </link>
    <trkseg>
      <trkpt lat="41.33326730690896511077880859375" lon="-1.65955572389066219329833984375">
        <ele>535.79998779296875</ele>
        <time>2022-05-02T09:07:37.000Z</time>
      </trkpt>
      <trkpt lat="41.333267726004123687744140625" lon="-1.65955706499516963958740234375">
        <ele>535.79998779296875</ele>
        <time>2022-05-02T09:07:38.000Z</time>
      </trkpt>
      <trkpt lat="41.33328088559210300445556640625" lon="-1.65961322374641895294189453125">
        <ele>535.5999755859375</ele>
        <time>2022-05-02T09:07:43.000Z</time>
      </trkpt>
      <trkpt lat="41.3332799635827541351318359375" lon="-1.65964432060718536376953125">
        <ele>535.4000244140625</ele>
        <time>2022-05-02T09:07:44.000Z</time>
      </trkpt>
      <trkpt lat="41.3332611881196498870849609375" lon="-1.65970089845359325408935546875">
        <ele>535.20001220703125</ele>
        <time>2022-05-02T09:07:46.000Z</time>
      </trkpt>
      <trkpt lat="41.33322036825120449066162109375" lon="-1.65975152514874935150146484375">
        <ele>535</ele>
        <time>2022-05-02T09:07:48.000Z</time>
      </trkpt>
      <trkpt lat="41.33319555781781673431396484375" lon="-1.65977365337312221527099609375">
        <ele>535</ele>
        <time>2022-05-02T09:07:49.000Z</time>
      </trkpt>
      <trkpt lat="41.33316823281347751617431640625" lon="-1.65979578159749507904052734375">
        <ele>534.79998779296875</ele>
        <time>2022-05-02T09:07:50.000Z</time>
      </trkpt>
      <trkpt lat="41.33311140350997447967529296875" lon="-1.65984414517879486083984375">
        <ele>534.79998779296875</ele>
        <time>2022-05-02T09:07:52.000Z</time>
      </trkpt>
      <trkpt lat="41.33305440656840801239013671875" lon="-1.6598971188068389892578125">
        <ele>534.5999755859375</ele>
        <time>2022-05-02T09:07:54.000Z</time>
      </trkpt>
      <trkpt lat="41.33299170993268489837646484375" lon="-1.6599583066999912261962890625">
        <ele>534.4000244140625</ele>
        <time>2022-05-02T09:07:56.000Z</time>
      </trkpt>
      <trkpt lat="41.33292733691632747650146484375" lon="-1.66002108715474605560302734375">
        <ele>534</ele>
        <time>2022-05-02T09:07:58.000Z</time>
      </trkpt>
      <trkpt lat="41.33286304771900177001953125" lon="-1.6600835323333740234375">
        <ele>534</ele>
        <time>2022-05-02T09:08:00.000Z</time>
      </trkpt>
      <trkpt lat="41.3327968306839466094970703125" lon="-1.6601420380175113677978515625">
        <ele>534</ele>
        <time>2022-05-02T09:08:02.000Z</time>
      </trkpt>
      <trkpt lat="41.33273270912468433380126953125" lon="-1.66020490229129791259765625">
        <ele>534</ele>
        <time>2022-05-02T09:08:04.000Z</time>
      </trkpt>
      <trkpt lat="41.33270069025456905364990234375" lon="-1.6602359153330326080322265625">
        <ele>534</ele>
        <time>2022-05-02T09:08:05.000Z</time>
      </trkpt>
      <trkpt lat="41.33266724646091461181640625" lon="-1.660264916718006134033203125">
        <ele>534</ele>
        <time>2022-05-02T09:08:06.000Z</time>
      </trkpt>
      <trkpt lat="41.33260144852101802825927734375" lon="-1.66032535023987293243408203125">
        <ele>534</ele>
        <time>2022-05-02T09:08:08.000Z</time>
      </trkpt>
      <trkpt lat="41.332541517913341522216796875" lon="-1.6603877954185009002685546875">
        <ele>534</ele>
        <time>2022-05-02T09:08:10.000Z</time>
      </trkpt>
      <trkpt lat="41.33248024620115756988525390625" lon="-1.66045174933969974517822265625">
        <ele>534</ele>
        <time>2022-05-02T09:08:12.000Z</time>
      </trkpt>
      <trkpt lat="41.33244789205491542816162109375" lon="-1.6604816727340221405029296875">
        <ele>534</ele>
        <time>2022-05-02T09:08:13.000Z</time>
      </trkpt>
      <trkpt lat="41.33241570554673671722412109375" lon="-1.660512350499629974365234375">
        <ele>534</ele>
        <time>2022-05-02T09:08:14.000Z</time>
      </trkpt>
      <trkpt lat="41.33234865032136440277099609375" lon="-1.660571359097957611083984375">
        <ele>534</ele>
        <time>2022-05-02T09:08:16.000Z</time>
      </trkpt>
      <trkpt lat="41.33228260092437267303466796875" lon="-1.6606362350285053253173828125">
        <ele>534</ele>
        <time>2022-05-02T09:08:18.000Z</time>
      </trkpt>
      <trkpt lat="41.33221437223255634307861328125" lon="-1.6607002727687358856201171875">
        <ele>534</ele>
        <time>2022-05-02T09:08:20.000Z</time>
      </trkpt>
      <trkpt lat="41.33214497007429599761962890625" lon="-1.66076590307056903839111328125">
        <ele>534</ele>
        <time>2022-05-02T09:08:22.000Z</time>
      </trkpt>
      <trkpt lat="41.3320736400783061981201171875" lon="-1.6608367301523685455322265625">
        <ele>534</ele>
        <time>2022-05-02T09:08:24.000Z</time>
      </trkpt>
      <trkpt lat="41.3320069201290607452392578125" lon="-1.66090856306254863739013671875">
        <ele>533.79998779296875</ele>
        <time>2022-05-02T09:08:26.000Z</time>
      </trkpt>
      <trkpt lat="41.331939361989498138427734375" lon="-1.6609795577824115753173828125">
        <ele>533.20001220703125</ele>
        <time>2022-05-02T09:08:28.000Z</time>
      </trkpt>
      <trkpt lat="41.331868283450603485107421875" lon="-1.66104845702648162841796875">
        <ele>533</ele>
        <time>2022-05-02T09:08:30.000Z</time>
      </trkpt>
      <trkpt lat="41.3317963667213916778564453125" lon="-1.6611086390912532806396484375">
        <ele>533.4000244140625</ele>
        <time>2022-05-02T09:08:32.000Z</time>
      </trkpt>
      <trkpt lat="41.33173073641955852508544921875" lon="-1.661170162260532379150390625">
        <ele>533.79998779296875</ele>
        <time>2022-05-02T09:08:34.000Z</time>
      </trkpt>
      <trkpt lat="41.331669129431247711181640625" lon="-1.6612300090491771697998046875">
        <ele>534.79998779296875</ele>
        <time>2022-05-02T09:08:36.000Z</time>
      </trkpt>
      <trkpt lat="41.33163786493241786956787109375" lon="-1.66125901043415069580078125">
        <ele>535.20001220703125</ele>
        <time>2022-05-02T09:08:37.000Z</time>
      </trkpt>
      <trkpt lat="41.3316052593290805816650390625" lon="-1.66128851473331451416015625">
        <ele>535.5999755859375</ele>
        <time>2022-05-02T09:08:38.000Z</time>
      </trkpt>
      <trkpt lat="41.331574581563472747802734375" lon="-1.66131709702312946319580078125">
        <ele>536</ele>
        <time>2022-05-02T09:08:39.000Z</time>
      </trkpt>
      <trkpt lat="41.3315432332456111907958984375" lon="-1.66134291328489780426025390625">
        <ele>536.20001220703125</ele>
        <time>2022-05-02T09:08:40.000Z</time>
      </trkpt>
      <trkpt lat="41.3314755074679851531982421875" lon="-1.66139320470392704010009765625">
        <ele>536.79998779296875</ele>
        <time>2022-05-02T09:08:42.000Z</time>
      </trkpt>
      <trkpt lat="41.33144080638885498046875" lon="-1.661416254937648773193359375">
        <ele>537.20001220703125</ele>
        <time>2022-05-02T09:08:43.000Z</time>
      </trkpt>
      <trkpt lat="41.33140568621456623077392578125" lon="-1.66144005954265594482421875">
        <ele>537.5999755859375</ele>
        <time>2022-05-02T09:08:44.000Z</time>
      </trkpt>
      <trkpt lat="41.33133041672408580780029296875" lon="-1.66146629489958286285400390625">
        <ele>538</ele>
        <time>2022-05-02T09:08:46.000Z</time>
      </trkpt>
      <trkpt lat="41.33125464431941509246826171875" lon="-1.6614693962037563323974609375">
        <ele>537.79998779296875</ele>
        <time>2022-05-02T09:08:48.000Z</time>
      </trkpt>
      <trkpt lat="41.33117434568703174591064453125" lon="-1.6614700667560100555419921875">
        <ele>537.79998779296875</ele>
        <time>2022-05-02T09:08:50.000Z</time>
      </trkpt>
      <trkpt lat="41.33113436400890350341796875" lon="-1.66147626936435699462890625">
        <ele>537.79998779296875</ele>
        <time>2022-05-02T09:08:51.000Z</time>
      </trkpt>
      <trkpt lat="41.33109622634947299957275390625" lon="-1.66147853247821331024169921875">
        <ele>537.79998779296875</ele>
        <time>2022-05-02T09:08:52.000Z</time>
      </trkpt>
      <trkpt lat="41.33102196268737316131591796875" lon="-1.661471910774707794189453125">
        <ele>537.79998779296875</ele>
        <time>2022-05-02T09:08:54.000Z</time>
      </trkpt>
      <trkpt lat="41.33094484917819499969482421875" lon="-1.6614784486591815948486328125">
        <ele>537.79998779296875</ele>
        <time>2022-05-02T09:08:56.000Z</time>
      </trkpt>
      <trkpt lat="41.33086488582193851470947265625" lon="-1.6614864952862262725830078125">
        <ele>537.79998779296875</ele>
        <time>2022-05-02T09:08:58.000Z</time>
      </trkpt>
      <trkpt lat="41.3307848386466503143310546875" lon="-1.66148255579173564910888671875">
        <ele>537.79998779296875</ele>
        <time>2022-05-02T09:09:00.000Z</time>
      </trkpt>
      <trkpt lat="41.33070244453847408294677734375" lon="-1.6614750958979129791259765625">
        <ele>538.20001220703125</ele>
        <time>2022-05-02T09:09:02.000Z</time>
      </trkpt>
      <trkpt lat="41.3306252472102642059326171875" lon="-1.6614814661443233489990234375">
        <ele>538.20001220703125</ele>
        <time>2022-05-02T09:09:04.000Z</time>
      </trkpt>
      <trkpt lat="41.330547295510768890380859375" lon="-1.661480627954006195068359375">
        <ele>538.20001220703125</ele>
        <time>2022-05-02T09:09:06.000Z</time>
      </trkpt>
      <trkpt lat="41.3304743729531764984130859375" lon="-1.661471910774707794189453125">
        <ele>538.20001220703125</ele>
        <time>2022-05-02T09:09:08.000Z</time>
      </trkpt>
      <trkpt lat="41.330394744873046875" lon="-1.66146411560475826263427734375">
        <ele>538.5999755859375</ele>
        <time>2022-05-02T09:09:10.000Z</time>
      </trkpt>
      <trkpt lat="41.33032257668673992156982421875" lon="-1.6614501178264617919921875">
        <ele>538.79998779296875</ele>
        <time>2022-05-02T09:09:12.000Z</time>
      </trkpt>
      <trkpt lat="41.33024412207305431365966796875" lon="-1.661423631012439727783203125">
        <ele>539</ele>
        <time>2022-05-02T09:09:14.000Z</time>
      </trkpt>
      <trkpt lat="41.3301682658493518829345703125" lon="-1.66139714419841766357421875">
        <ele>539.20001220703125</ele>
        <time>2022-05-02T09:09:16.000Z</time>
      </trkpt>
      <trkpt lat="41.330127529799938201904296875" lon="-1.66138683445751667022705078125">
        <ele>539.4000244140625</ele>
        <time>2022-05-02T09:09:17.000Z</time>
      </trkpt>
      <trkpt lat="41.33008721284568309783935546875" lon="-1.66137442924082279205322265625">
        <ele>539.5999755859375</ele>
        <time>2022-05-02T09:09:18.000Z</time>
      </trkpt>
      <trkpt lat="41.33000959642231464385986328125" lon="-1.661346517503261566162109375">
        <ele>540</ele>
        <time>2022-05-02T09:09:20.000Z</time>
      </trkpt>
      <trkpt lat="41.32993415929377079010009765625" lon="-1.66131910867989063262939453125">
        <ele>540.79998779296875</ele>
        <time>2022-05-02T09:09:22.000Z</time>
      </trkpt>
      <trkpt lat="41.3298521004617214202880859375" lon="-1.6613014228641986846923828125">
        <ele>541.20001220703125</ele>
        <time>2022-05-02T09:09:24.000Z</time>
      </trkpt>
      <trkpt lat="41.32976551540195941925048828125" lon="-1.6612803004682064056396484375">
        <ele>542</ele>
        <time>2022-05-02T09:09:26.000Z</time>
      </trkpt>
      <trkpt lat="41.3296834565699100494384765625" lon="-1.66125607676804065704345703125">
        <ele>543</ele>
        <time>2022-05-02T09:09:28.000Z</time>
      </trkpt>
      <trkpt lat="41.32961246185004711151123046875" lon="-1.66122992523014545440673828125">
        <ele>542.79998779296875</ele>
        <time>2022-05-02T09:09:30.000Z</time>
      </trkpt>
      <trkpt lat="41.3295350968837738037109375" lon="-1.6611924581229686737060546875">
        <ele>542.4000244140625</ele>
        <time>2022-05-02T09:09:32.000Z</time>
      </trkpt>
      <trkpt lat="41.32945320568978786468505859375" lon="-1.66115515865385532379150390625">
        <ele>542.20001220703125</ele>
        <time>2022-05-02T09:09:34.000Z</time>
      </trkpt>
      <trkpt lat="41.3293676264584064483642578125" lon="-1.66111509315669536590576171875">
        <ele>542</ele>
        <time>2022-05-02T09:09:36.000Z</time>
      </trkpt>
      <trkpt lat="41.32927919737994670867919921875" lon="-1.6610771231353282928466796875">
        <ele>542</ele>
        <time>2022-05-02T09:09:38.000Z</time>
      </trkpt>
      <trkpt lat="41.32919068448245525360107421875" lon="-1.661034040153026580810546875">
        <ele>541.79998779296875</ele>
        <time>2022-05-02T09:09:40.000Z</time>
      </trkpt>
      <trkpt lat="41.32910837419331073760986328125" lon="-1.6609973274171352386474609375">
        <ele>541.4000244140625</ele>
        <time>2022-05-02T09:09:42.000Z</time>
      </trkpt>
      <trkpt lat="41.3290273211896419525146484375" lon="-1.66095784865319728851318359375">
        <ele>541.5999755859375</ele>
        <time>2022-05-02T09:09:44.000Z</time>
      </trkpt>
      <trkpt lat="41.3289864175021648406982421875" lon="-1.66092901490628719329833984375">
        <ele>541.5999755859375</ele>
        <time>2022-05-02T09:09:45.000Z</time>
      </trkpt>
      <trkpt lat="41.3289448432624340057373046875" lon="-1.66090051643550395965576171875">
        <ele>541.79998779296875</ele>
        <time>2022-05-02T09:09:46.000Z</time>
      </trkpt>
      <trkpt lat="41.32885943166911602020263671875" lon="-1.6608477942645549774169921875">
        <ele>541.79998779296875</ele>
        <time>2022-05-02T09:09:48.000Z</time>
      </trkpt>
      <trkpt lat="41.3287738524377346038818359375" lon="-1.66079909540712833404541015625">
        <ele>541.79998779296875</ele>
        <time>2022-05-02T09:09:50.000Z</time>
      </trkpt>
      <trkpt lat="41.32873185910284519195556640625" lon="-1.660771183669567108154296875">
        <ele>541.5999755859375</ele>
        <time>2022-05-02T09:09:51.000Z</time>
      </trkpt>
      <trkpt lat="41.32868978194892406463623046875" lon="-1.66074075736105442047119140625">
        <ele>541.5999755859375</ele>
        <time>2022-05-02T09:09:52.000Z</time>
      </trkpt>
      <trkpt lat="41.32864770479500293731689453125" lon="-1.660709492862224578857421875">
        <ele>541.4000244140625</ele>
        <time>2022-05-02T09:09:53.000Z</time>
      </trkpt>
      <trkpt lat="41.32860512472689151763916015625" lon="-1.66067889891564846038818359375">
        <ele>541.20001220703125</ele>
        <time>2022-05-02T09:09:54.000Z</time>
      </trkpt>
      <trkpt lat="41.32851921021938323974609375" lon="-1.66061528027057647705078125">
        <ele>541</ele>
        <time>2022-05-02T09:09:56.000Z</time>
      </trkpt>
      <trkpt lat="41.3284353911876678466796875" lon="-1.660555265843868255615234375">
        <ele>541</ele>
        <time>2022-05-02T09:09:58.000Z</time>
      </trkpt>
      <trkpt lat="41.32835559546947479248046875" lon="-1.6605001129209995269775390625">
        <ele>541</ele>
        <time>2022-05-02T09:10:00.000Z</time>
      </trkpt>
      <trkpt lat="41.328317038714885711669921875" lon="-1.66046918369829654693603515625">
        <ele>541</ele>
        <time>2022-05-02T09:10:01.000Z</time>
      </trkpt>
      <trkpt lat="41.328277476131916046142578125" lon="-1.66043833829462528228759765625">
        <ele>541</ele>
        <time>2022-05-02T09:10:02.000Z</time>
      </trkpt>
      <trkpt lat="41.32819466292858123779296875" lon="-1.66038184426724910736083984375">
        <ele>540.5999755859375</ele>
        <time>2022-05-02T09:10:04.000Z</time>
      </trkpt>
      <trkpt lat="41.32810975424945354461669921875" lon="-1.6603284515440464019775390625">
        <ele>540.4000244140625</ele>
        <time>2022-05-02T09:10:06.000Z</time>
      </trkpt>
      <trkpt lat="41.328026689589023590087890625" lon="-1.66027371771633625030517578125">
        <ele>540</ele>
        <time>2022-05-02T09:10:08.000Z</time>
      </trkpt>
      <trkpt lat="41.32794831879436969757080078125" lon="-1.66021722368896007537841796875">
        <ele>539.79998779296875</ele>
        <time>2022-05-02T09:10:10.000Z</time>
      </trkpt>
      <trkpt lat="41.32786684669554233551025390625" lon="-1.66015662252902984619140625">
        <ele>539.4000244140625</ele>
        <time>2022-05-02T09:10:12.000Z</time>
      </trkpt>
      <trkpt lat="41.32782560773193836212158203125" lon="-1.66012653149664402008056640625">
        <ele>539.4000244140625</ele>
        <time>2022-05-02T09:10:13.000Z</time>
      </trkpt>
      <trkpt lat="41.32778403349220752716064453125" lon="-1.6600957699120044708251953125">
        <ele>539.20001220703125</ele>
        <time>2022-05-02T09:10:14.000Z</time>
      </trkpt>
      <trkpt lat="41.3276966102421283721923828125" lon="-1.66003231890499591827392578125">
        <ele>538.79998779296875</ele>
        <time>2022-05-02T09:10:16.000Z</time>
      </trkpt>
      <trkpt lat="41.32760885171592235565185546875" lon="-1.65996509604156017303466796875">
        <ele>538.5999755859375</ele>
        <time>2022-05-02T09:10:18.000Z</time>
      </trkpt>
      <trkpt lat="41.3275242783129215240478515625" lon="-1.65990340523421764373779296875">
        <ele>538.5999755859375</ele>
        <time>2022-05-02T09:10:20.000Z</time>
      </trkpt>
      <trkpt lat="41.32748379372060298919677734375" lon="-1.6598697938024997711181640625">
        <ele>538.5999755859375</ele>
        <time>2022-05-02T09:10:21.000Z</time>
      </trkpt>
      <trkpt lat="41.32744272239506244659423828125" lon="-1.6598379425704479217529296875">
        <ele>538.79998779296875</ele>
        <time>2022-05-02T09:10:22.000Z</time>
      </trkpt>
      <trkpt lat="41.3273569755256175994873046875" lon="-1.659780107438564300537109375">
        <ele>538.5999755859375</ele>
        <time>2022-05-02T09:10:24.000Z</time>
      </trkpt>
      <trkpt lat="41.3272687979042530059814453125" lon="-1.65971833281219005584716796875">
        <ele>538.20001220703125</ele>
        <time>2022-05-02T09:10:26.000Z</time>
      </trkpt>
      <trkpt lat="41.32718137465417385101318359375" lon="-1.659661419689655303955078125">
        <ele>538</ele>
        <time>2022-05-02T09:10:28.000Z</time>
      </trkpt>
      <trkpt lat="41.32709219120442867279052734375" lon="-1.6596029140055179595947265625">
        <ele>538.20001220703125</ele>
        <time>2022-05-02T09:10:30.000Z</time>
      </trkpt>
      <trkpt lat="41.3270039297640323638916015625" lon="-1.6595455817878246307373046875">
        <ele>538.5999755859375</ele>
        <time>2022-05-02T09:10:32.000Z</time>
      </trkpt>
      <trkpt lat="41.32691550068557262420654296875" lon="-1.65948581881821155548095703125">
        <ele>539</ele>
        <time>2022-05-02T09:10:34.000Z</time>
      </trkpt>
      <trkpt lat="41.3268238864839076995849609375" lon="-1.659426055848598480224609375">
        <ele>539.20001220703125</ele>
        <time>2022-05-02T09:10:36.000Z</time>
      </trkpt>
      <trkpt lat="41.32673243992030620574951171875" lon="-1.65936428122222423553466796875">
        <ele>539.5999755859375</ele>
        <time>2022-05-02T09:10:38.000Z</time>
      </trkpt>
      <trkpt lat="41.32664225064218044281005859375" lon="-1.659305356442928314208984375">
        <ele>539.4000244140625</ele>
        <time>2022-05-02T09:10:40.000Z</time>
      </trkpt>
      <trkpt lat="41.3265516422688961029052734375" lon="-1.65924333035945892333984375">
        <ele>539.4000244140625</ele>
        <time>2022-05-02T09:10:42.000Z</time>
      </trkpt>
      <trkpt lat="41.32646237500011920928955078125" lon="-1.6591740958392620086669921875">
        <ele>539.5999755859375</ele>
        <time>2022-05-02T09:10:44.000Z</time>
      </trkpt>
      <trkpt lat="41.32637419737875461578369140625" lon="-1.65910226292908191680908203125">
        <ele>539.5999755859375</ele>
        <time>2022-05-02T09:10:46.000Z</time>
      </trkpt>
      <trkpt lat="41.32628669030964374542236328125" lon="-1.6590279154479503631591796875">
        <ele>539.79998779296875</ele>
        <time>2022-05-02T09:10:48.000Z</time>
      </trkpt>
      <trkpt lat="41.32620044052600860595703125" lon="-1.65896295569837093353271484375">
        <ele>539.79998779296875</ele>
        <time>2022-05-02T09:10:50.000Z</time>
      </trkpt>
      <trkpt lat="41.3261120952665805816650390625" lon="-1.65890000760555267333984375">
        <ele>539.79998779296875</ele>
        <time>2022-05-02T09:10:52.000Z</time>
      </trkpt>
      <trkpt lat="41.32602517493069171905517578125" lon="-1.65884074755012989044189453125">
        <ele>539.79998779296875</ele>
        <time>2022-05-02T09:10:54.000Z</time>
      </trkpt>
      <trkpt lat="41.32594001479446887969970703125" lon="-1.658781655132770538330078125">
        <ele>539.79998779296875</ele>
        <time>2022-05-02T09:10:56.000Z</time>
      </trkpt>
      <trkpt lat="41.32585518993437290191650390625" lon="-1.65873228572309017181396484375">
        <ele>540</ele>
        <time>2022-05-02T09:10:58.000Z</time>
      </trkpt>
      <trkpt lat="41.325771622359752655029296875" lon="-1.65869657881557941436767578125">
        <ele>540.20001220703125</ele>
        <time>2022-05-02T09:11:00.000Z</time>
      </trkpt>
      <trkpt lat="41.32569191046059131622314453125" lon="-1.65866640396416187286376953125">
        <ele>540.4000244140625</ele>
        <time>2022-05-02T09:11:02.000Z</time>
      </trkpt>
      <trkpt lat="41.32560876198112964630126953125" lon="-1.65861275978386402130126953125">
        <ele>540.4000244140625</ele>
        <time>2022-05-02T09:11:04.000Z</time>
      </trkpt>
      <trkpt lat="41.3255260325968265533447265625" lon="-1.65854184888303279876708984375">
        <ele>540.5999755859375</ele>
        <time>2022-05-02T09:11:06.000Z</time>
      </trkpt>
      <trkpt lat="41.325485296547412872314453125" lon="-1.65850396268069744110107421875">
        <ele>540.5999755859375</ele>
        <time>2022-05-02T09:11:07.000Z</time>
      </trkpt>
      <trkpt lat="41.32544548250734806060791015625" lon="-1.65846691466867923736572265625">
        <ele>540.79998779296875</ele>
        <time>2022-05-02T09:11:08.000Z</time>
      </trkpt>
      <trkpt lat="41.32536434568464756011962890625" lon="-1.65839248336851596832275390625">
        <ele>541.5999755859375</ele>
        <time>2022-05-02T09:11:10.000Z</time>
      </trkpt>
      <trkpt lat="41.32527968846261501312255859375" lon="-1.6583228297531604766845703125">
        <ele>542.4000244140625</ele>
        <time>2022-05-02T09:11:12.000Z</time>
      </trkpt>
      <trkpt lat="41.325196288526058197021484375" lon="-1.6582530923187732696533203125">
        <ele>542.5999755859375</ele>
        <time>2022-05-02T09:11:14.000Z</time>
      </trkpt>
      <trkpt lat="41.32511573843657970428466796875" lon="-1.65818377397954463958740234375">
        <ele>542.4000244140625</ele>
        <time>2022-05-02T09:11:16.000Z</time>
      </trkpt>
      <trkpt lat="41.32507718168199062347412109375" lon="-1.65815007872879505157470703125">
        <ele>542.20001220703125</ele>
        <time>2022-05-02T09:11:17.000Z</time>
      </trkpt>
      <trkpt lat="41.32503879256546497344970703125" lon="-1.65811604820191860198974609375">
        <ele>542</ele>
        <time>2022-05-02T09:11:18.000Z</time>
      </trkpt>
      <trkpt lat="41.3249607570469379425048828125" lon="-1.658050082623958587646484375">
        <ele>541.79998779296875</ele>
        <time>2022-05-02T09:11:20.000Z</time>
      </trkpt>
      <trkpt lat="41.324880123138427734375" lon="-1.65799685753881931304931640625">
        <ele>541.79998779296875</ele>
        <time>2022-05-02T09:11:22.000Z</time>
      </trkpt>
      <trkpt lat="41.32479605264961719512939453125" lon="-1.65794807486236095428466796875">
        <ele>542</ele>
        <time>2022-05-02T09:11:24.000Z</time>
      </trkpt>
      <trkpt lat="41.32470904849469661712646484375" lon="-1.6578987054526805877685546875">
        <ele>542.20001220703125</ele>
        <time>2022-05-02T09:11:26.000Z</time>
      </trkpt>
      <trkpt lat="41.324617601931095123291015625" lon="-1.65783994831144809722900390625">
        <ele>542.20001220703125</ele>
        <time>2022-05-02T09:11:28.000Z</time>
      </trkpt>
      <trkpt lat="41.32453269325196743011474609375" lon="-1.65777524001896381378173828125">
        <ele>542.5999755859375</ele>
        <time>2022-05-02T09:11:30.000Z</time>
      </trkpt>
      <trkpt lat="41.324491202831268310546875" lon="-1.65774087421596050262451171875">
        <ele>542.5999755859375</ele>
        <time>2022-05-02T09:11:31.000Z</time>
      </trkpt>
      <trkpt lat="41.324449963867664337158203125" lon="-1.6577065922319889068603515625">
        <ele>542.79998779296875</ele>
        <time>2022-05-02T09:11:32.000Z</time>
      </trkpt>
      <trkpt lat="41.32436580955982208251953125" lon="-1.65764112956821918487548828125">
        <ele>543</ele>
        <time>2022-05-02T09:11:34.000Z</time>
      </trkpt>
      <trkpt lat="41.32428023032844066619873046875" lon="-1.6575771756470203399658203125">
        <ele>542.79998779296875</ele>
        <time>2022-05-02T09:11:36.000Z</time>
      </trkpt>
      <trkpt lat="41.32419255562126636505126953125" lon="-1.65751640684902667999267578125">
        <ele>542.20001220703125</ele>
        <time>2022-05-02T09:11:38.000Z</time>
      </trkpt>
      <trkpt lat="41.32410387508571147918701171875" lon="-1.657464019954204559326171875">
        <ele>542</ele>
        <time>2022-05-02T09:11:40.000Z</time>
      </trkpt>
      <trkpt lat="41.32401905022561550140380859375" lon="-1.65740945376455783843994140625">
        <ele>542.4000244140625</ele>
        <time>2022-05-02T09:11:42.000Z</time>
      </trkpt>
      <trkpt lat="41.32393556647002696990966796875" lon="-1.657351367175579071044921875">
        <ele>542.4000244140625</ele>
        <time>2022-05-02T09:11:44.000Z</time>
      </trkpt>
      <trkpt lat="41.323853172361850738525390625" lon="-1.65729261003434658050537109375">
        <ele>542</ele>
        <time>2022-05-02T09:11:46.000Z</time>
      </trkpt>
      <trkpt lat="41.3237752206623554229736328125" lon="-1.65723192505538463592529296875">
        <ele>542.4000244140625</ele>
        <time>2022-05-02T09:11:48.000Z</time>
      </trkpt>
      <trkpt lat="41.3237400166690349578857421875" lon="-1.6571959666907787322998046875">
        <ele>542.79998779296875</ele>
        <time>2022-05-02T09:11:49.000Z</time>
      </trkpt>
      <trkpt lat="41.323705650866031646728515625" lon="-1.6571580804884433746337890625">
        <ele>543</ele>
        <time>2022-05-02T09:11:50.000Z</time>
      </trkpt>
      <trkpt lat="41.32366818375885486602783203125" lon="-1.65712480433285236358642578125">
        <ele>543.20001220703125</ele>
        <time>2022-05-02T09:11:51.000Z</time>
      </trkpt>
      <trkpt lat="41.3236276991665363311767578125" lon="-1.65709680877625942230224609375">
        <ele>543.20001220703125</ele>
        <time>2022-05-02T09:11:52.000Z</time>
      </trkpt>
      <trkpt lat="41.32358604110777378082275390625" lon="-1.657072417438030242919921875">
        <ele>543.20001220703125</ele>
        <time>2022-05-02T09:11:53.000Z</time>
      </trkpt>
      <trkpt lat="41.32354371249675750732421875" lon="-1.6570481099188327789306640625">
        <ele>543.20001220703125</ele>
        <time>2022-05-02T09:11:54.000Z</time>
      </trkpt>
      <trkpt lat="41.323457546532154083251953125" lon="-1.6570001654326915740966796875">
        <ele>543</ele>
        <time>2022-05-02T09:11:56.000Z</time>
      </trkpt>
      <trkpt lat="41.32341605611145496368408203125" lon="-1.65697418153285980224609375">
        <ele>543</ele>
        <time>2022-05-02T09:11:57.000Z</time>
      </trkpt>
      <trkpt lat="41.323375403881072998046875" lon="-1.656948029994964599609375">
        <ele>542.79998779296875</ele>
        <time>2022-05-02T09:11:58.000Z</time>
      </trkpt>
      <trkpt lat="41.3232957758009433746337890625" lon="-1.65689237415790557861328125">
        <ele>543</ele>
        <time>2022-05-02T09:12:00.000Z</time>
      </trkpt>
      <trkpt lat="41.32321421988308429718017578125" lon="-1.6568352095782756805419921875">
        <ele>543</ele>
        <time>2022-05-02T09:12:02.000Z</time>
      </trkpt>
      <trkpt lat="41.32312989793717861175537109375" lon="-1.65677703917026519775390625">
        <ele>543</ele>
        <time>2022-05-02T09:12:04.000Z</time>
      </trkpt>
      <trkpt lat="41.323085390031337738037109375" lon="-1.6567473672330379486083984375">
        <ele>543</ele>
        <time>2022-05-02T09:12:05.000Z</time>
      </trkpt>
      <trkpt lat="41.3230419717729091644287109375" lon="-1.6567195393145084381103515625">
        <ele>543</ele>
        <time>2022-05-02T09:12:06.000Z</time>
      </trkpt>
      <trkpt lat="41.322955973446369171142578125" lon="-1.6566615365445613861083984375">
        <ele>543</ele>
        <time>2022-05-02T09:12:08.000Z</time>
      </trkpt>
      <trkpt lat="41.32291314192116260528564453125" lon="-1.656631194055080413818359375">
        <ele>543</ele>
        <time>2022-05-02T09:12:09.000Z</time>
      </trkpt>
      <trkpt lat="41.32287089712917804718017578125" lon="-1.65660026483237743377685546875">
        <ele>543</ele>
        <time>2022-05-02T09:12:10.000Z</time>
      </trkpt>
      <trkpt lat="41.322786323726177215576171875" lon="-1.656536646187305450439453125">
        <ele>543.5999755859375</ele>
        <time>2022-05-02T09:12:12.000Z</time>
      </trkpt>
      <trkpt lat="41.32270376197993755340576171875" lon="-1.656481660902500152587890625">
        <ele>544</ele>
        <time>2022-05-02T09:12:14.000Z</time>
      </trkpt>
      <trkpt lat="41.3226195238530635833740234375" lon="-1.656423993408679962158203125">
        <ele>544.4000244140625</ele>
        <time>2022-05-02T09:12:16.000Z</time>
      </trkpt>
      <trkpt lat="41.32257417775690555572509765625" lon="-1.65639122016727924346923828125">
        <ele>544.5999755859375</ele>
        <time>2022-05-02T09:12:17.000Z</time>
      </trkpt>
      <trkpt lat="41.322528161108493804931640625" lon="-1.656357608735561370849609375">
        <ele>544.79998779296875</ele>
        <time>2022-05-02T09:12:18.000Z</time>
      </trkpt>
      <trkpt lat="41.3224334456026554107666015625" lon="-1.6562907211482524871826171875">
        <ele>545</ele>
        <time>2022-05-02T09:12:20.000Z</time>
      </trkpt>
      <trkpt lat="41.32233696989715099334716796875" lon="-1.65622592903673648834228515625">
        <ele>545.20001220703125</ele>
        <time>2022-05-02T09:12:22.000Z</time>
      </trkpt>
      <trkpt lat="41.3222443498671054840087890625" lon="-1.6561619751155376434326171875">
        <ele>545</ele>
        <time>2022-05-02T09:12:24.000Z</time>
      </trkpt>
      <trkpt lat="41.3221534900367259979248046875" lon="-1.6561019606888294219970703125">
        <ele>544.79998779296875</ele>
        <time>2022-05-02T09:12:26.000Z</time>
      </trkpt>
      <trkpt lat="41.32206221111118793487548828125" lon="-1.65604169480502605438232421875">
        <ele>544.5999755859375</ele>
        <time>2022-05-02T09:12:28.000Z</time>
      </trkpt>
      <trkpt lat="41.321973614394664764404296875" lon="-1.65598042309284210205078125">
        <ele>544.4000244140625</ele>
        <time>2022-05-02T09:12:30.000Z</time>
      </trkpt>
      <trkpt lat="41.32188744843006134033203125" lon="-1.655921079218387603759765625">
        <ele>544.20001220703125</ele>
        <time>2022-05-02T09:12:32.000Z</time>
      </trkpt>
      <trkpt lat="41.32180790416896343231201171875" lon="-1.6558625735342502593994140625">
        <ele>544</ele>
        <time>2022-05-02T09:12:34.000Z</time>
      </trkpt>
      <trkpt lat="41.3217320479452610015869140625" lon="-1.65580247528851032257080078125">
        <ele>543.79998779296875</ele>
        <time>2022-05-02T09:12:36.000Z</time>
      </trkpt>
      <trkpt lat="41.3216628134250640869140625" lon="-1.65574111975729465484619140625">
        <ele>543.5999755859375</ele>
        <time>2022-05-02T09:12:38.000Z</time>
      </trkpt>
      <trkpt lat="41.32159332744777202606201171875" lon="-1.6556860506534576416015625">
        <ele>543.4000244140625</ele>
        <time>2022-05-02T09:12:40.000Z</time>
      </trkpt>
      <trkpt lat="41.3215570338070392608642578125" lon="-1.6556583903729915618896484375">
        <ele>543.20001220703125</ele>
        <time>2022-05-02T09:12:41.000Z</time>
      </trkpt>
      <trkpt lat="41.3215201534330844879150390625" lon="-1.65563316084444522857666015625">
        <ele>543.20001220703125</ele>
        <time>2022-05-02T09:12:42.000Z</time>
      </trkpt>
      <trkpt lat="41.321445889770984649658203125" lon="-1.65557943284511566162109375">
        <ele>543</ele>
        <time>2022-05-02T09:12:44.000Z</time>
      </trkpt>
      <trkpt lat="41.3213696144521236419677734375" lon="-1.655524782836437225341796875">
        <ele>542.79998779296875</ele>
        <time>2022-05-02T09:12:46.000Z</time>
      </trkpt>
      <trkpt lat="41.32129744626581668853759765625" lon="-1.65547172538936138153076171875">
        <ele>543.20001220703125</ele>
        <time>2022-05-02T09:12:48.000Z</time>
      </trkpt>
      <trkpt lat="41.3212261162698268890380859375" lon="-1.65541908703744411468505859375">
        <ele>543.4000244140625</ele>
        <time>2022-05-02T09:12:50.000Z</time>
      </trkpt>
      <trkpt lat="41.32115730084478855133056640625" lon="-1.655370891094207763671875">
        <ele>543.5999755859375</ele>
        <time>2022-05-02T09:12:52.000Z</time>
      </trkpt>
      <trkpt lat="41.32109007798135280609130859375" lon="-1.65532336570322513580322265625">
        <ele>543.79998779296875</ele>
        <time>2022-05-02T09:12:54.000Z</time>
      </trkpt>
      <trkpt lat="41.32102469913661479949951171875" lon="-1.65527692995965480804443359375">
        <ele>544</ele>
        <time>2022-05-02T09:12:56.000Z</time>
      </trkpt>
      <trkpt lat="41.320964433252811431884765625" lon="-1.65523434989154338836669921875">
        <ele>544</ele>
        <time>2022-05-02T09:12:58.000Z</time>
      </trkpt>
      <trkpt lat="41.32093618623912334442138671875" lon="-1.65521272458136081695556640625">
        <ele>544</ele>
        <time>2022-05-02T09:12:59.000Z</time>
      </trkpt>
      <trkpt lat="41.3209112919867038726806640625" lon="-1.6551933623850345611572265625">
        <ele>544</ele>
        <time>2022-05-02T09:13:00.000Z</time>
      </trkpt>
      <trkpt lat="41.32087265141308307647705078125" lon="-1.6551655344665050506591796875">
        <ele>544.20001220703125</ele>
        <time>2022-05-02T09:13:02.000Z</time>
      </trkpt>
      <trkpt lat="41.32084809243679046630859375" lon="-1.65514667518436908721923828125">
        <ele>544.20001220703125</ele>
        <time>2022-05-02T09:13:04.000Z</time>
      </trkpt>
      <trkpt lat="41.3208408840000629425048828125" lon="-1.6551442444324493408203125">
        <ele>544.20001220703125</ele>
        <time>2022-05-02T09:13:06.000Z</time>
      </trkpt>
      <trkpt lat="41.3207785226404666900634765625" lon="-1.65512052364647388458251953125">
        <ele>544.20001220703125</ele>
        <time>2022-05-02T09:15:31.000Z</time>
      </trkpt>
      <trkpt lat="41.32075631059706211090087890625" lon="-1.65511029772460460662841796875">
        <ele>544.4000244140625</ele>
        <time>2022-05-02T09:15:32.000Z</time>
      </trkpt>
      <trkpt lat="41.3207091204822063446044921875" lon="-1.65508548729121685028076171875">
        <ele>544.4000244140625</ele>
        <time>2022-05-02T09:15:34.000Z</time>
      </trkpt>
      <trkpt lat="41.3206594996154308319091796875" lon="-1.65504743345081806182861328125">
        <ele>544.4000244140625</ele>
        <time>2022-05-02T09:15:36.000Z</time>
      </trkpt>
      <trkpt lat="41.32060929201543331146240234375" lon="-1.65501155890524387359619140625">
        <ele>544.5999755859375</ele>
        <time>2022-05-02T09:15:38.000Z</time>
      </trkpt>
      <trkpt lat="41.32055413909256458282470703125" lon="-1.65497593581676483154296875">
        <ele>544.79998779296875</ele>
        <time>2022-05-02T09:15:40.000Z</time>
      </trkpt>
      <trkpt lat="41.3204915262758731842041015625" lon="-1.65493972599506378173828125">
        <ele>544.5999755859375</ele>
        <time>2022-05-02T09:15:42.000Z</time>
      </trkpt>
      <trkpt lat="41.320425309240818023681640625" lon="-1.65489287115633487701416015625">
        <ele>544.79998779296875</ele>
        <time>2022-05-02T09:15:44.000Z</time>
      </trkpt>
      <trkpt lat="41.32038784213364124298095703125" lon="-1.65487132966518402099609375">
        <ele>544.79998779296875</ele>
        <time>2022-05-02T09:15:45.000Z</time>
      </trkpt>
      <trkpt lat="41.32034651935100555419921875" lon="-1.6548492014408111572265625">
        <ele>545.20001220703125</ele>
        <time>2022-05-02T09:15:46.000Z</time>
      </trkpt>
      <trkpt lat="41.3202611915767192840576171875" lon="-1.6547982394695281982421875">
        <ele>545.79998779296875</ele>
        <time>2022-05-02T09:15:48.000Z</time>
      </trkpt>
      <trkpt lat="41.32017527706921100616455078125" lon="-1.65473277680575847625732421875">
        <ele>545.79998779296875</ele>
        <time>2022-05-02T09:15:50.000Z</time>
      </trkpt>
      <trkpt lat="41.3201317749917507171630859375" lon="-1.65469891391694545745849609375">
        <ele>545.5999755859375</ele>
        <time>2022-05-02T09:15:51.000Z</time>
      </trkpt>
      <trkpt lat="41.32008810527622699737548828125" lon="-1.6546622850000858306884765625">
        <ele>545.20001220703125</ele>
        <time>2022-05-02T09:15:52.000Z</time>
      </trkpt>
      <trkpt lat="41.3199956528842449188232421875" lon="-1.65458709932863712310791015625">
        <ele>545.5999755859375</ele>
        <time>2022-05-02T09:15:54.000Z</time>
      </trkpt>
      <trkpt lat="41.3199480436742305755615234375" lon="-1.6545543260872364044189453125">
        <ele>546</ele>
        <time>2022-05-02T09:15:55.000Z</time>
      </trkpt>
      <trkpt lat="41.31990035064518451690673828125" lon="-1.654523648321628570556640625">
        <ele>546</ele>
        <time>2022-05-02T09:15:56.000Z</time>
      </trkpt>
      <trkpt lat="41.31980714388191699981689453125" lon="-1.6544581018388271331787109375">
        <ele>545.79998779296875</ele>
        <time>2022-05-02T09:15:58.000Z</time>
      </trkpt>
      <trkpt lat="41.31971393711864948272705078125" lon="-1.65439766831696033477783203125">
        <ele>545.5999755859375</ele>
        <time>2022-05-02T09:16:00.000Z</time>
      </trkpt>
      <trkpt lat="41.31967035122215747833251953125" lon="-1.65436883457005023956298828125">
        <ele>546</ele>
        <time>2022-05-02T09:16:01.000Z</time>
      </trkpt>
      <trkpt lat="41.31962693296372890472412109375" lon="-1.6543367318809032440185546875">
        <ele>546</ele>
        <time>2022-05-02T09:16:02.000Z</time>
      </trkpt>
      <trkpt lat="41.31954428739845752716064453125" lon="-1.65427126921713352203369140625">
        <ele>546</ele>
        <time>2022-05-02T09:16:04.000Z</time>
      </trkpt>
      <trkpt lat="41.31946415640413761138916015625" lon="-1.65420589037239551544189453125">
        <ele>546</ele>
        <time>2022-05-02T09:16:06.000Z</time>
      </trkpt>
      <trkpt lat="41.31938721053302288055419921875" lon="-1.65414302609860897064208984375">
        <ele>546</ele>
        <time>2022-05-02T09:16:08.000Z</time>
      </trkpt>
      <trkpt lat="41.3193096779286861419677734375" lon="-1.65408519096672534942626953125">
        <ele>545.4000244140625</ele>
        <time>2022-05-02T09:16:10.000Z</time>
      </trkpt>
      <trkpt lat="41.3192332349717617034912109375" lon="-1.654026769101619720458984375">
        <ele>545</ele>
        <time>2022-05-02T09:16:12.000Z</time>
      </trkpt>
      <trkpt lat="41.31915251724421977996826171875" lon="-1.65396700613200664520263671875">
        <ele>545</ele>
        <time>2022-05-02T09:16:14.000Z</time>
      </trkpt>
      <trkpt lat="41.31907070986926555633544921875" lon="-1.65391243994235992431640625">
        <ele>545.20001220703125</ele>
        <time>2022-05-02T09:16:16.000Z</time>
      </trkpt>
      <trkpt lat="41.31899074651300907135009765625" lon="-1.6538559459149837493896484375">
        <ele>545.79998779296875</ele>
        <time>2022-05-02T09:16:18.000Z</time>
      </trkpt>
      <trkpt lat="41.3189083524048328399658203125" lon="-1.65379718877375125885009765625">
        <ele>546</ele>
        <time>2022-05-02T09:16:20.000Z</time>
      </trkpt>
      <trkpt lat="41.3188262097537517547607421875" lon="-1.65373868308961391448974609375">
        <ele>546</ele>
        <time>2022-05-02T09:16:22.000Z</time>
      </trkpt>
      <trkpt lat="41.31878606043756008148193359375" lon="-1.65370859205722808837890625">
        <ele>546.20001220703125</ele>
        <time>2022-05-02T09:16:23.000Z</time>
      </trkpt>
      <trkpt lat="41.31874658167362213134765625" lon="-1.65367699228227138519287109375">
        <ele>546.4000244140625</ele>
        <time>2022-05-02T09:16:24.000Z</time>
      </trkpt>
      <trkpt lat="41.3186699710786342620849609375" lon="-1.6536145471036434173583984375">
        <ele>546.5999755859375</ele>
        <time>2022-05-02T09:16:26.000Z</time>
      </trkpt>
      <trkpt lat="41.3185955397784709930419921875" lon="-1.65355629287660121917724609375">
        <ele>546.5999755859375</ele>
        <time>2022-05-02T09:16:28.000Z</time>
      </trkpt>
      <trkpt lat="41.318524293601512908935546875" lon="-1.6534988768398761749267578125">
        <ele>546.5999755859375</ele>
        <time>2022-05-02T09:16:30.000Z</time>
      </trkpt>
      <trkpt lat="41.3184872455894947052001953125" lon="-1.65347163565456867218017578125">
        <ele>546.5999755859375</ele>
        <time>2022-05-02T09:16:31.000Z</time>
      </trkpt>
      <trkpt lat="41.31844977848231792449951171875" lon="-1.65344464592635631561279296875">
        <ele>546.5999755859375</ele>
        <time>2022-05-02T09:16:32.000Z</time>
      </trkpt>
      <trkpt lat="41.3184114731848239898681640625" lon="-1.65341631509363651275634765625">
        <ele>546.5999755859375</ele>
        <time>2022-05-02T09:16:33.000Z</time>
      </trkpt>
      <trkpt lat="41.3183739222586154937744140625" lon="-1.6533887386322021484375">
        <ele>546.79998779296875</ele>
        <time>2022-05-02T09:16:34.000Z</time>
      </trkpt>
      <trkpt lat="41.31829890422523021697998046875" lon="-1.65332411415874958038330078125">
        <ele>547</ele>
        <time>2022-05-02T09:16:36.000Z</time>
      </trkpt>
      <trkpt lat="41.3182217068970203399658203125" lon="-1.65326309390366077423095703125">
        <ele>547</ele>
        <time>2022-05-02T09:16:38.000Z</time>
      </trkpt>
      <trkpt lat="41.31818340159952640533447265625" lon="-1.6532316617667675018310546875">
        <ele>547</ele>
        <time>2022-05-02T09:16:39.000Z</time>
      </trkpt>
      <trkpt lat="41.31814568303525447845458984375" lon="-1.6531977988779544830322265625">
        <ele>547</ele>
        <time>2022-05-02T09:16:40.000Z</time>
      </trkpt>
      <trkpt lat="41.3180681504309177398681640625" lon="-1.65312831290066242218017578125">
        <ele>547</ele>
        <time>2022-05-02T09:16:42.000Z</time>
      </trkpt>
      <trkpt lat="41.31798692978918552398681640625" lon="-1.65305924601852893829345703125">
        <ele>547.20001220703125</ele>
        <time>2022-05-02T09:16:44.000Z</time>
      </trkpt>
      <trkpt lat="41.31790529005229473114013671875" lon="-1.652997471392154693603515625">
        <ele>547.79998779296875</ele>
        <time>2022-05-02T09:16:46.000Z</time>
      </trkpt>
      <trkpt lat="41.317822225391864776611328125" lon="-1.652935780584812164306640625">
        <ele>548</ele>
        <time>2022-05-02T09:16:48.000Z</time>
      </trkpt>
      <trkpt lat="41.3177791424095630645751953125" lon="-1.65290770120918750762939453125">
        <ele>548.20001220703125</ele>
        <time>2022-05-02T09:16:49.000Z</time>
      </trkpt>
      <trkpt lat="41.31773765198886394500732421875" lon="-1.6528809629380702972412109375">
        <ele>548.20001220703125</ele>
        <time>2022-05-02T09:16:50.000Z</time>
      </trkpt>
      <trkpt lat="41.3176956586539745330810546875" lon="-1.65285824798047542572021484375">
        <ele>548.20001220703125</ele>
        <time>2022-05-02T09:16:51.000Z</time>
      </trkpt>
      <trkpt lat="41.317652575671672821044921875" lon="-1.6528346948325634002685546875">
        <ele>548.20001220703125</ele>
        <time>2022-05-02T09:16:52.000Z</time>
      </trkpt>
      <trkpt lat="41.3175638951361179351806640625" lon="-1.65279018692672252655029296875">
        <ele>548.4000244140625</ele>
        <time>2022-05-02T09:16:54.000Z</time>
      </trkpt>
      <trkpt lat="41.31751871667802333831787109375" lon="-1.652767471969127655029296875">
        <ele>548.4000244140625</ele>
        <time>2022-05-02T09:16:55.000Z</time>
      </trkpt>
      <trkpt lat="41.31747462786734104156494140625" lon="-1.652740649878978729248046875">
        <ele>548.4000244140625</ele>
        <time>2022-05-02T09:16:56.000Z</time>
      </trkpt>
      <trkpt lat="41.317389048635959625244140625" lon="-1.65267954580485820770263671875">
        <ele>548</ele>
        <time>2022-05-02T09:16:58.000Z</time>
      </trkpt>
      <trkpt lat="41.31730447523295879364013671875" lon="-1.6526171006262302398681640625">
        <ele>547.79998779296875</ele>
        <time>2022-05-02T09:17:00.000Z</time>
      </trkpt>
      <trkpt lat="41.31722317077219486236572265625" lon="-1.65254543535411357879638671875">
        <ele>547.79998779296875</ele>
        <time>2022-05-02T09:17:02.000Z</time>
      </trkpt>
      <trkpt lat="41.3171806745231151580810546875" lon="-1.65251241065561771392822265625">
        <ele>547.79998779296875</ele>
        <time>2022-05-02T09:17:03.000Z</time>
      </trkpt>
      <trkpt lat="41.31713700480759143829345703125" lon="-1.652479134500026702880859375">
        <ele>547.79998779296875</ele>
        <time>2022-05-02T09:17:04.000Z</time>
      </trkpt>
      <trkpt lat="41.3170479051768779754638671875" lon="-1.65241568349301815032958984375">
        <ele>547.5999755859375</ele>
        <time>2022-05-02T09:17:06.000Z</time>
      </trkpt>
      <trkpt lat="41.31695360876619815826416015625" lon="-1.65235809981822967529296875">
        <ele>547.4000244140625</ele>
        <time>2022-05-02T09:17:08.000Z</time>
      </trkpt>
      <trkpt lat="41.3169067539274692535400390625" lon="-1.6523254103958606719970703125">
        <ele>547.20001220703125</ele>
        <time>2022-05-02T09:17:09.000Z</time>
      </trkpt>
      <trkpt lat="41.31686023436486721038818359375" lon="-1.6522885300219058990478515625">
        <ele>547.20001220703125</ele>
        <time>2022-05-02T09:17:10.000Z</time>
      </trkpt>
      <trkpt lat="41.3168142177164554595947265625" lon="-1.6522513143718242645263671875">
        <ele>547.4000244140625</ele>
        <time>2022-05-02T09:17:11.000Z</time>
      </trkpt>
      <trkpt lat="41.31676920689642429351806640625" lon="-1.6522164456546306610107421875">
        <ele>547.5999755859375</ele>
        <time>2022-05-02T09:17:12.000Z</time>
      </trkpt>
      <trkpt lat="41.31672310642898082733154296875" lon="-1.65218509733676910400390625">
        <ele>547.79998779296875</ele>
        <time>2022-05-02T09:17:13.000Z</time>
      </trkpt>
      <trkpt lat="41.31667650304734706878662109375" lon="-1.6521581076085567474365234375">
        <ele>548</ele>
        <time>2022-05-02T09:17:14.000Z</time>
      </trkpt>
      <trkpt lat="41.31658430211246013641357421875" lon="-1.65210102684795856475830078125">
        <ele>548</ele>
        <time>2022-05-02T09:17:16.000Z</time>
      </trkpt>
      <trkpt lat="41.316493861377239227294921875" lon="-1.65204050950706005096435546875">
        <ele>548</ele>
        <time>2022-05-02T09:17:18.000Z</time>
      </trkpt>
      <trkpt lat="41.31640157662332057952880859375" lon="-1.65197630412876605987548828125">
        <ele>548</ele>
        <time>2022-05-02T09:17:20.000Z</time>
      </trkpt>
      <trkpt lat="41.31631205789744853973388671875" lon="-1.65191419422626495361328125">
        <ele>547.79998779296875</ele>
        <time>2022-05-02T09:17:22.000Z</time>
      </trkpt>
      <trkpt lat="41.31621751002967357635498046875" lon="-1.6518426127731800079345703125">
        <ele>547.4000244140625</ele>
        <time>2022-05-02T09:17:24.000Z</time>
      </trkpt>
      <trkpt lat="41.31612095050513744354248046875" lon="-1.6517551057040691375732421875">
        <ele>547.20001220703125</ele>
        <time>2022-05-02T09:17:26.000Z</time>
      </trkpt>
      <trkpt lat="41.31602279841899871826171875" lon="-1.65165209211409091949462890625">
        <ele>547.20001220703125</ele>
        <time>2022-05-02T09:17:28.000Z</time>
      </trkpt>
      <trkpt lat="41.315929256379604339599609375" lon="-1.65156475268304347991943359375">
        <ele>547.4000244140625</ele>
        <time>2022-05-02T09:17:30.000Z</time>
      </trkpt>
      <trkpt lat="41.31588399410247802734375" lon="-1.65152988396584987640380859375">
        <ele>547.4000244140625</ele>
        <time>2022-05-02T09:17:31.000Z</time>
      </trkpt>
      <trkpt lat="41.31583982147276401519775390625" lon="-1.65149417705833911895751953125">
        <ele>547.20001220703125</ele>
        <time>2022-05-02T09:17:32.000Z</time>
      </trkpt>
      <trkpt lat="41.31574862636625766754150390625" lon="-1.65141153149306774139404296875">
        <ele>547.4000244140625</ele>
        <time>2022-05-02T09:17:34.000Z</time>
      </trkpt>
      <trkpt lat="41.31566229276359081268310546875" lon="-1.65132251568138599395751953125">
        <ele>548.20001220703125</ele>
        <time>2022-05-02T09:17:36.000Z</time>
      </trkpt>
      <trkpt lat="41.31561753340065479278564453125" lon="-1.65128027088940143585205078125">
        <ele>548.4000244140625</ele>
        <time>2022-05-02T09:17:37.000Z</time>
      </trkpt>
      <trkpt lat="41.3155736960470676422119140625" lon="-1.651239953935146331787109375">
        <ele>548.4000244140625</ele>
        <time>2022-05-02T09:17:38.000Z</time>
      </trkpt>
      <trkpt lat="41.31552885286509990692138671875" lon="-1.65120483376085758209228515625">
        <ele>548.20001220703125</ele>
        <time>2022-05-02T09:17:39.000Z</time>
      </trkpt>
      <trkpt lat="41.31548191420733928680419921875" lon="-1.6511764191091060638427734375">
        <ele>548</ele>
        <time>2022-05-02T09:17:40.000Z</time>
      </trkpt>
      <trkpt lat="41.31539826281368732452392578125" lon="-1.65111699141561985015869140625">
        <ele>548.4000244140625</ele>
        <time>2022-05-02T09:17:42.000Z</time>
      </trkpt>
      <trkpt lat="41.31531477905809879302978515625" lon="-1.6510409675538539886474609375">
        <ele>548.5999755859375</ele>
        <time>2022-05-02T09:17:44.000Z</time>
      </trkpt>
      <trkpt lat="41.3152300380170345306396484375" lon="-1.65095991455018520355224609375">
        <ele>548.4000244140625</ele>
        <time>2022-05-02T09:17:46.000Z</time>
      </trkpt>
      <trkpt lat="41.3151428662240505218505859375" lon="-1.65087643079459667205810546875">
        <ele>548</ele>
        <time>2022-05-02T09:17:48.000Z</time>
      </trkpt>
      <trkpt lat="41.315101794898509979248046875" lon="-1.65083334781229496002197265625">
        <ele>547.79998779296875</ele>
        <time>2022-05-02T09:17:49.000Z</time>
      </trkpt>
      <trkpt lat="41.3150590471923351287841796875" lon="-1.65078439749777317047119140625">
        <ele>547.5999755859375</ele>
        <time>2022-05-02T09:17:50.000Z</time>
      </trkpt>
      <trkpt lat="41.31497162394225597381591796875" lon="-1.650693453848361968994140625">
        <ele>548</ele>
        <time>2022-05-02T09:17:52.000Z</time>
      </trkpt>
      <trkpt lat="41.314880847930908203125" lon="-1.65061541832983493804931640625">
        <ele>548.20001220703125</ele>
        <time>2022-05-02T09:17:54.000Z</time>
      </trkpt>
      <trkpt lat="41.31483550183475017547607421875" lon="-1.65057711303234100341796875">
        <ele>548.4000244140625</ele>
        <time>2022-05-02T09:17:55.000Z</time>
      </trkpt>
      <trkpt lat="41.3147945143282413482666015625" lon="-1.6505414061248302459716796875">
        <ele>548.5999755859375</ele>
        <time>2022-05-02T09:17:56.000Z</time>
      </trkpt>
      <trkpt lat="41.31475134752690792083740234375" lon="-1.65050603449344635009765625">
        <ele>548.79998779296875</ele>
        <time>2022-05-02T09:17:57.000Z</time>
      </trkpt>
      <trkpt lat="41.3147093541920185089111328125" lon="-1.65047384798526763916015625">
        <ele>548.79998779296875</ele>
        <time>2022-05-02T09:17:58.000Z</time>
      </trkpt>
      <trkpt lat="41.31462712772190570831298828125" lon="-1.65040268562734127044677734375">
        <ele>549</ele>
        <time>2022-05-02T09:18:00.000Z</time>
      </trkpt>
      <trkpt lat="41.31458404473960399627685546875" lon="-1.6503632068634033203125">
        <ele>549.20001220703125</ele>
        <time>2022-05-02T09:18:01.000Z</time>
      </trkpt>
      <trkpt lat="41.31454297341406345367431640625" lon="-1.65032372809946537017822265625">
        <ele>549.4000244140625</ele>
        <time>2022-05-02T09:18:02.000Z</time>
      </trkpt>
      <trkpt lat="41.31445705890655517578125" lon="-1.65024544112384319305419921875">
        <ele>549.79998779296875</ele>
        <time>2022-05-02T09:18:04.000Z</time>
      </trkpt>
      <trkpt lat="41.314380951225757598876953125" lon="-1.6501675732433795928955078125">
        <ele>550.5999755859375</ele>
        <time>2022-05-02T09:18:06.000Z</time>
      </trkpt>
      <trkpt lat="41.31432923488318920135498046875" lon="-1.65011418052017688751220703125">
        <ele>550.79998779296875</ele>
        <time>2022-05-02T09:18:08.000Z</time>
      </trkpt>
      <trkpt lat="41.314282715320587158203125" lon="-1.65007285773754119873046875">
        <ele>550.79998779296875</ele>
        <time>2022-05-02T09:18:10.000Z</time>
      </trkpt>
      <trkpt lat="41.31422437727451324462890625" lon="-1.6500180400907993316650390625">
        <ele>551</ele>
        <time>2022-05-02T09:18:12.000Z</time>
      </trkpt>
      <trkpt lat="41.3141879998147487640380859375" lon="-1.64998627267777919769287109375">
        <ele>550.79998779296875</ele>
        <time>2022-05-02T09:18:13.000Z</time>
      </trkpt>
      <trkpt lat="41.3141457550227642059326171875" lon="-1.64995123632252216339111328125">
        <ele>550.79998779296875</ele>
        <time>2022-05-02T09:18:14.000Z</time>
      </trkpt>
      <trkpt lat="41.31405615247786045074462890625" lon="-1.649878062307834625244140625">
        <ele>551.20001220703125</ele>
        <time>2022-05-02T09:18:16.000Z</time>
      </trkpt>
      <trkpt lat="41.31397685967385768890380859375" lon="-1.64980321191251277923583984375">
        <ele>551.20001220703125</ele>
        <time>2022-05-02T09:18:18.000Z</time>
      </trkpt>
      <trkpt lat="41.31393679417669773101806640625" lon="-1.64976230822503566741943359375">
        <ele>551</ele>
        <time>2022-05-02T09:18:19.000Z</time>
      </trkpt>
      <trkpt lat="41.31389538757503032684326171875" lon="-1.6497152857482433319091796875">
        <ele>550.79998779296875</ele>
        <time>2022-05-02T09:18:20.000Z</time>
      </trkpt>
      <trkpt lat="41.3138071261346340179443359375" lon="-1.64961931295692920684814453125">
        <ele>550.4000244140625</ele>
        <time>2022-05-02T09:18:22.000Z</time>
      </trkpt>
      <trkpt lat="41.3137370534241199493408203125" lon="-1.6495318897068500518798828125">
        <ele>550</ele>
        <time>2022-05-02T09:18:24.000Z</time>
      </trkpt>
      <trkpt lat="41.31366019137203693389892578125" lon="-1.64944253861904144287109375">
        <ele>550</ele>
        <time>2022-05-02T09:18:26.000Z</time>
      </trkpt>
      <trkpt lat="41.313579976558685302734375" lon="-1.649355031549930572509765625">
        <ele>550</ele>
        <time>2022-05-02T09:18:28.000Z</time>
      </trkpt>
      <trkpt lat="41.313502527773380279541015625" lon="-1.6492703743278980255126953125">
        <ele>550</ele>
        <time>2022-05-02T09:18:30.000Z</time>
      </trkpt>
      <trkpt lat="41.31342248059809207916259765625" lon="-1.64918898604810237884521484375">
        <ele>550</ele>
        <time>2022-05-02T09:18:32.000Z</time>
      </trkpt>
      <trkpt lat="41.31338057108223438262939453125" lon="-1.649148501455783843994140625">
        <ele>550</ele>
        <time>2022-05-02T09:18:33.000Z</time>
      </trkpt>
      <trkpt lat="41.313338577747344970703125" lon="-1.64910919032990932464599609375">
        <ele>550.20001220703125</ele>
        <time>2022-05-02T09:18:34.000Z</time>
      </trkpt>
      <trkpt lat="41.313250064849853515625" lon="-1.64902956224977970123291015625">
        <ele>550.5999755859375</ele>
        <time>2022-05-02T09:18:36.000Z</time>
      </trkpt>
      <trkpt lat="41.31315979175269603729248046875" lon="-1.64894591085612773895263671875">
        <ele>551</ele>
        <time>2022-05-02T09:18:38.000Z</time>
      </trkpt>
      <trkpt lat="41.3130742125213146209716796875" lon="-1.64886653423309326171875">
        <ele>551</ele>
        <time>2022-05-02T09:18:40.000Z</time>
      </trkpt>
      <trkpt lat="41.31299248896539211273193359375" lon="-1.648787744343280792236328125">
        <ele>551.5999755859375</ele>
        <time>2022-05-02T09:18:42.000Z</time>
      </trkpt>
      <trkpt lat="41.31295125000178813934326171875" lon="-1.64874960668385028839111328125">
        <ele>551.5999755859375</ele>
        <time>2022-05-02T09:18:43.000Z</time>
      </trkpt>
      <trkpt lat="41.31291051395237445831298828125" lon="-1.64871138520538806915283203125">
        <ele>551.79998779296875</ele>
        <time>2022-05-02T09:18:44.000Z</time>
      </trkpt>
      <trkpt lat="41.31282652728259563446044921875" lon="-1.648630835115909576416015625">
        <ele>552</ele>
        <time>2022-05-02T09:18:46.000Z</time>
      </trkpt>
      <trkpt lat="41.31274857558310031890869140625" lon="-1.64854760281741619110107421875">
        <ele>552.20001220703125</ele>
        <time>2022-05-02T09:18:48.000Z</time>
      </trkpt>
      <trkpt lat="41.31267095915973186492919921875" lon="-1.6484643705189228057861328125">
        <ele>553</ele>
        <time>2022-05-02T09:18:50.000Z</time>
      </trkpt>
      <trkpt lat="41.312632150948047637939453125" lon="-1.6484268195927143096923828125">
        <ele>553.20001220703125</ele>
        <time>2022-05-02T09:18:51.000Z</time>
      </trkpt>
      <trkpt lat="41.3125974498689174652099609375" lon="-1.64839153178036212921142578125">
        <ele>553</ele>
        <time>2022-05-02T09:18:52.000Z</time>
      </trkpt>
      <trkpt lat="41.31253081373870372772216796875" lon="-1.64832833223044872283935546875">
        <ele>552.5999755859375</ele>
        <time>2022-05-02T09:18:54.000Z</time>
      </trkpt>
      <trkpt lat="41.3124708831310272216796875" lon="-1.64826043881475925445556640625">
        <ele>552.4000244140625</ele>
        <time>2022-05-02T09:18:56.000Z</time>
      </trkpt>
      <trkpt lat="41.31244204938411712646484375" lon="-1.64822372607886791229248046875">
        <ele>552.4000244140625</ele>
        <time>2022-05-02T09:18:57.000Z</time>
      </trkpt>
      <trkpt lat="41.3124103657901287078857421875" lon="-1.6481877677142620086669921875">
        <ele>552.4000244140625</ele>
        <time>2022-05-02T09:18:58.000Z</time>
      </trkpt>
      <trkpt lat="41.31234280765056610107421875" lon="-1.64811811409890651702880859375">
        <ele>552.4000244140625</ele>
        <time>2022-05-02T09:19:00.000Z</time>
      </trkpt>
      <trkpt lat="41.312264017760753631591796875" lon="-1.6480516456067562103271484375">
        <ele>552.4000244140625</ele>
        <time>2022-05-02T09:19:02.000Z</time>
      </trkpt>
      <trkpt lat="41.3121853955090045928955078125" lon="-1.6479815728962421417236328125">
        <ele>552.79998779296875</ele>
        <time>2022-05-02T09:19:04.000Z</time>
      </trkpt>
      <trkpt lat="41.312107108533382415771484375" lon="-1.64790705777704715728759765625">
        <ele>553.4000244140625</ele>
        <time>2022-05-02T09:19:06.000Z</time>
      </trkpt>
      <trkpt lat="41.31202622316777706146240234375" lon="-1.64783095009624958038330078125">
        <ele>553.5999755859375</ele>
        <time>2022-05-02T09:19:08.000Z</time>
      </trkpt>
      <trkpt lat="41.31194726563990116119384765625" lon="-1.64775618351995944976806640625">
        <ele>553.5999755859375</ele>
        <time>2022-05-02T09:19:10.000Z</time>
      </trkpt>
      <trkpt lat="41.3118658773601055145263671875" lon="-1.64768309332430362701416015625">
        <ele>554.20001220703125</ele>
        <time>2022-05-02T09:19:12.000Z</time>
      </trkpt>
      <trkpt lat="41.3117869198322296142578125" lon="-1.6476117633283138275146484375">
        <ele>554.5999755859375</ele>
        <time>2022-05-02T09:19:14.000Z</time>
      </trkpt>
      <trkpt lat="41.31171106360852718353271484375" lon="-1.647539176046848297119140625">
        <ele>554</ele>
        <time>2022-05-02T09:19:16.000Z</time>
      </trkpt>
      <trkpt lat="41.3116395659744739532470703125" lon="-1.647466085851192474365234375">
        <ele>553.5999755859375</ele>
        <time>2022-05-02T09:19:18.000Z</time>
      </trkpt>
      <trkpt lat="41.31156572140753269195556640625" lon="-1.647392995655536651611328125">
        <ele>553.5999755859375</ele>
        <time>2022-05-02T09:19:20.000Z</time>
      </trkpt>
      <trkpt lat="41.31152808666229248046875" lon="-1.64735686965286731719970703125">
        <ele>553.5999755859375</ele>
        <time>2022-05-02T09:19:21.000Z</time>
      </trkpt>
      <trkpt lat="41.31149045191705226898193359375" lon="-1.64732032455503940582275390625">
        <ele>553.5999755859375</ele>
        <time>2022-05-02T09:19:22.000Z</time>
      </trkpt>
      <trkpt lat="41.31141342222690582275390625" lon="-1.64725192822515964508056640625">
        <ele>553.79998779296875</ele>
        <time>2022-05-02T09:19:24.000Z</time>
      </trkpt>
      <trkpt lat="41.3113354705274105072021484375" lon="-1.6471876390278339385986328125">
        <ele>554</ele>
        <time>2022-05-02T09:19:26.000Z</time>
      </trkpt>
      <trkpt lat="41.311249472200870513916015625" lon="-1.64711832068860530853271484375">
        <ele>554</ele>
        <time>2022-05-02T09:19:28.000Z</time>
      </trkpt>
      <trkpt lat="41.31120798178017139434814453125" lon="-1.64708160795271396636962890625">
        <ele>554</ele>
        <time>2022-05-02T09:19:29.000Z</time>
      </trkpt>
      <trkpt lat="41.31116774864494800567626953125" lon="-1.64704556576907634735107421875">
        <ele>554</ele>
        <time>2022-05-02T09:19:30.000Z</time>
      </trkpt>
      <trkpt lat="41.31109180860221385955810546875" lon="-1.646973229944705963134765625">
        <ele>554</ele>
        <time>2022-05-02T09:19:32.000Z</time>
      </trkpt>
      <trkpt lat="41.31102609448134899139404296875" lon="-1.646903492510318756103515625">
        <ele>554</ele>
        <time>2022-05-02T09:19:34.000Z</time>
      </trkpt>
      <trkpt lat="41.3109727017581462860107421875" lon="-1.64684507064521312713623046875">
        <ele>554</ele>
        <time>2022-05-02T09:19:36.000Z</time>
      </trkpt>
      <trkpt lat="41.310913525521755218505859375" lon="-1.64678606204688549041748046875">
        <ele>554</ele>
        <time>2022-05-02T09:19:38.000Z</time>
      </trkpt>
      <trkpt lat="41.3108509965240955352783203125" lon="-1.646729148924350738525390625">
        <ele>554</ele>
        <time>2022-05-02T09:19:40.000Z</time>
      </trkpt>
      <trkpt lat="41.31078201346099376678466796875" lon="-1.64667047560214996337890625">
        <ele>554</ele>
        <time>2022-05-02T09:19:42.000Z</time>
      </trkpt>
      <trkpt lat="41.310711018741130828857421875" lon="-1.6466049291193485260009765625">
        <ele>554</ele>
        <time>2022-05-02T09:19:44.000Z</time>
      </trkpt>
      <trkpt lat="41.310637928545475006103515625" lon="-1.6465388797223567962646484375">
        <ele>554.20001220703125</ele>
        <time>2022-05-02T09:19:46.000Z</time>
      </trkpt>
      <trkpt lat="41.3105676881968975067138671875" lon="-1.64646956138312816619873046875">
        <ele>554.5999755859375</ele>
        <time>2022-05-02T09:19:48.000Z</time>
      </trkpt>
      <trkpt lat="41.310495771467685699462890625" lon="-1.64640032686293125152587890625">
        <ele>555</ele>
        <time>2022-05-02T09:19:50.000Z</time>
      </trkpt>
      <trkpt lat="41.31042662076652050018310546875" lon="-1.64633260108530521392822265625">
        <ele>555</ele>
        <time>2022-05-02T09:19:52.000Z</time>
      </trkpt>
      <trkpt lat="41.310357637703418731689453125" lon="-1.64626722224056720733642578125">
        <ele>555</ele>
        <time>2022-05-02T09:19:54.000Z</time>
      </trkpt>
      <trkpt lat="41.3102981261909008026123046875" lon="-1.64622648619115352630615234375">
        <ele>555</ele>
        <time>2022-05-02T09:19:56.000Z</time>
      </trkpt>
      <trkpt lat="41.31025068461894989013671875" lon="-1.64621408097445964813232421875">
        <ele>555</ele>
        <time>2022-05-02T09:19:58.000Z</time>
      </trkpt>
      <trkpt lat="41.31020701490342617034912109375" lon="-1.64620972238481044769287109375">
        <ele>555</ele>
        <time>2022-05-02T09:20:00.000Z</time>
      </trkpt>
      <trkpt lat="41.31015487946569919586181640625" lon="-1.64618432521820068359375">
        <ele>555</ele>
        <time>2022-05-02T09:20:02.000Z</time>
      </trkpt>
      <trkpt lat="41.3101321645081043243408203125" lon="-1.6461570002138614654541015625">
        <ele>555</ele>
        <time>2022-05-02T09:20:03.000Z</time>
      </trkpt>
      <trkpt lat="41.3101167418062686920166015625" lon="-1.64612439461052417755126953125">
        <ele>555</ele>
        <time>2022-05-02T09:20:04.000Z</time>
      </trkpt>
      <trkpt lat="41.3100872375071048736572265625" lon="-1.64605499245226383209228515625">
        <ele>555</ele>
        <time>2022-05-02T09:20:06.000Z</time>
      </trkpt>
      <trkpt lat="41.31003451533615589141845703125" lon="-1.64598642848432064056396484375">
        <ele>555</ele>
        <time>2022-05-02T09:20:08.000Z</time>
      </trkpt>
      <trkpt lat="41.30996075458824634552001953125" lon="-1.64591937325894832611083984375">
        <ele>555</ele>
        <time>2022-05-02T09:20:10.000Z</time>
      </trkpt>
      <trkpt lat="41.30987794138491153717041015625" lon="-1.64584225974977016448974609375">
        <ele>555</ele>
        <time>2022-05-02T09:20:12.000Z</time>
      </trkpt>
      <trkpt lat="41.30979361943900585174560546875" lon="-1.64575777016580104827880859375">
        <ele>555</ele>
        <time>2022-05-02T09:20:14.000Z</time>
      </trkpt>
      <trkpt lat="41.30970695056021213531494140625" lon="-1.64567512460052967071533203125">
        <ele>555</ele>
        <time>2022-05-02T09:20:16.000Z</time>
      </trkpt>
      <trkpt lat="41.30961877293884754180908203125" lon="-1.6455967538058757781982421875">
        <ele>555.20001220703125</ele>
        <time>2022-05-02T09:20:18.000Z</time>
      </trkpt>
      <trkpt lat="41.309534870088100433349609375" lon="-1.6455253399908542633056640625">
        <ele>555.4000244140625</ele>
        <time>2022-05-02T09:20:20.000Z</time>
      </trkpt>
      <trkpt lat="41.30945364944636821746826171875" lon="-1.64546105079352855682373046875">
        <ele>555.79998779296875</ele>
        <time>2022-05-02T09:20:22.000Z</time>
      </trkpt>
      <trkpt lat="41.3093704171478748321533203125" lon="-1.6453929059207439422607421875">
        <ele>556</ele>
        <time>2022-05-02T09:20:24.000Z</time>
      </trkpt>
      <trkpt lat="41.3092855922877788543701171875" lon="-1.6453228332102298736572265625">
        <ele>556.4000244140625</ele>
        <time>2022-05-02T09:20:26.000Z</time>
      </trkpt>
      <trkpt lat="41.3092441856861114501953125" lon="-1.64528905414044857025146484375">
        <ele>556.5999755859375</ele>
        <time>2022-05-02T09:20:27.000Z</time>
      </trkpt>
      <trkpt lat="41.30920303054153919219970703125" lon="-1.6452541016042232513427734375">
        <ele>556.5999755859375</ele>
        <time>2022-05-02T09:20:28.000Z</time>
      </trkpt>
      <trkpt lat="41.3091236539185047149658203125" lon="-1.64518277160823345184326171875">
        <ele>557</ele>
        <time>2022-05-02T09:20:30.000Z</time>
      </trkpt>
      <trkpt lat="41.30908266641199588775634765625" lon="-1.6451468132436275482177734375">
        <ele>557</ele>
        <time>2022-05-02T09:20:31.000Z</time>
      </trkpt>
      <trkpt lat="41.3090408407151699066162109375" lon="-1.645110435783863067626953125">
        <ele>557</ele>
        <time>2022-05-02T09:20:32.000Z</time>
      </trkpt>
      <trkpt lat="41.30895911715924739837646484375" lon="-1.6450349986553192138671875">
        <ele>557</ele>
        <time>2022-05-02T09:20:34.000Z</time>
      </trkpt>
      <trkpt lat="41.30887546576559543609619140625" lon="-1.64496048353612422943115234375">
        <ele>557</ele>
        <time>2022-05-02T09:20:36.000Z</time>
      </trkpt>
      <trkpt lat="41.30879013799130916595458984375" lon="-1.64488621987402439117431640625">
        <ele>556.79998779296875</ele>
        <time>2022-05-02T09:20:38.000Z</time>
      </trkpt>
      <trkpt lat="41.308703720569610595703125" lon="-1.6448056697845458984375">
        <ele>556.5999755859375</ele>
        <time>2022-05-02T09:20:40.000Z</time>
      </trkpt>
      <trkpt lat="41.30866013467311859130859375" lon="-1.6447642631828784942626953125">
        <ele>556.4000244140625</ele>
        <time>2022-05-02T09:20:41.000Z</time>
      </trkpt>
      <trkpt lat="41.30861713550984859466552734375" lon="-1.64472260512411594390869140625">
        <ele>556.20001220703125</ele>
        <time>2022-05-02T09:20:42.000Z</time>
      </trkpt>
      <trkpt lat="41.30853398703038692474365234375" lon="-1.64463912136852741241455078125">
        <ele>556</ele>
        <time>2022-05-02T09:20:44.000Z</time>
      </trkpt>
      <trkpt lat="41.30845167674124240875244140625" lon="-1.64455429650843143463134765625">
        <ele>555.5999755859375</ele>
        <time>2022-05-02T09:20:46.000Z</time>
      </trkpt>
      <trkpt lat="41.308367438614368438720703125" lon="-1.64447232149541378021240234375">
        <ele>555.4000244140625</ele>
        <time>2022-05-02T09:20:48.000Z</time>
      </trkpt>
      <trkpt lat="41.30828420631587505340576171875" lon="-1.64438867010176181793212890625">
        <ele>555</ele>
        <time>2022-05-02T09:20:50.000Z</time>
      </trkpt>
      <trkpt lat="41.30820256657898426055908203125" lon="-1.64431021548807621002197265625">
        <ele>555</ele>
        <time>2022-05-02T09:20:52.000Z</time>
      </trkpt>
      <trkpt lat="41.30812168121337890625" lon="-1.64423293434083461761474609375">
        <ele>555.4000244140625</ele>
        <time>2022-05-02T09:20:54.000Z</time>
      </trkpt>
      <trkpt lat="41.3080452382564544677734375" lon="-1.644154898822307586669921875">
        <ele>555.79998779296875</ele>
        <time>2022-05-02T09:20:56.000Z</time>
      </trkpt>
      <trkpt lat="41.3079676218330860137939453125" lon="-1.6440801322460174560546875">
        <ele>556</ele>
        <time>2022-05-02T09:20:58.000Z</time>
      </trkpt>
      <trkpt lat="41.307928562164306640625" lon="-1.644042246043682098388671875">
        <ele>556</ele>
        <time>2022-05-02T09:20:59.000Z</time>
      </trkpt>
      <trkpt lat="41.30788925103843212127685546875" lon="-1.64400410838425159454345703125">
        <ele>555.79998779296875</ele>
        <time>2022-05-02T09:21:00.000Z</time>
      </trkpt>
      <trkpt lat="41.30780878476798534393310546875" lon="-1.6439270786941051483154296875">
        <ele>555.20001220703125</ele>
        <time>2022-05-02T09:21:02.000Z</time>
      </trkpt>
      <trkpt lat="41.3077258877456188201904296875" lon="-1.643850803375244140625">
        <ele>554.79998779296875</ele>
        <time>2022-05-02T09:21:04.000Z</time>
      </trkpt>
      <trkpt lat="41.30764399655163288116455078125" lon="-1.6437716782093048095703125">
        <ele>554.20001220703125</ele>
        <time>2022-05-02T09:21:06.000Z</time>
      </trkpt>
      <trkpt lat="41.30756235681474208831787109375" lon="-1.6436930559575557708740234375">
        <ele>553.5999755859375</ele>
        <time>2022-05-02T09:21:08.000Z</time>
      </trkpt>
      <trkpt lat="41.30747971124947071075439453125" lon="-1.64361502043902873992919921875">
        <ele>552.79998779296875</ele>
        <time>2022-05-02T09:21:10.000Z</time>
      </trkpt>
      <trkpt lat="41.30739807151257991790771484375" lon="-1.64353606291115283966064453125">
        <ele>553</ele>
        <time>2022-05-02T09:21:12.000Z</time>
      </trkpt>
      <trkpt lat="41.307315342128276824951171875" lon="-1.643456853926181793212890625">
        <ele>553.20001220703125</ele>
        <time>2022-05-02T09:21:14.000Z</time>
      </trkpt>
      <trkpt lat="41.3072310201823711395263671875" lon="-1.64337546564638614654541015625">
        <ele>553.79998779296875</ele>
        <time>2022-05-02T09:21:16.000Z</time>
      </trkpt>
      <trkpt lat="41.30714560858905315399169921875" lon="-1.6432920657098293304443359375">
        <ele>554.4000244140625</ele>
        <time>2022-05-02T09:21:18.000Z</time>
      </trkpt>
      <trkpt lat="41.3070593588054180145263671875" lon="-1.64320749230682849884033203125">
        <ele>555</ele>
        <time>2022-05-02T09:21:20.000Z</time>
      </trkpt>
      <trkpt lat="41.30701585672795772552490234375" lon="-1.643164493143558502197265625">
        <ele>555</ele>
        <time>2022-05-02T09:21:21.000Z</time>
      </trkpt>
      <trkpt lat="41.3069723546504974365234375" lon="-1.64312216453254222869873046875">
        <ele>555</ele>
        <time>2022-05-02T09:21:22.000Z</time>
      </trkpt>
      <trkpt lat="41.3068850152194499969482421875" lon="-1.64304153062403202056884765625">
        <ele>555</ele>
        <time>2022-05-02T09:21:24.000Z</time>
      </trkpt>
      <trkpt lat="41.30679943598806858062744140625" lon="-1.64296039380133152008056640625">
        <ele>555</ele>
        <time>2022-05-02T09:21:26.000Z</time>
      </trkpt>
      <trkpt lat="41.30671410821378231048583984375" lon="-1.6428813524544239044189453125">
        <ele>555</ele>
        <time>2022-05-02T09:21:28.000Z</time>
      </trkpt>
      <trkpt lat="41.30663246847689151763916015625" lon="-1.64280180819332599639892578125">
        <ele>555</ele>
        <time>2022-05-02T09:21:30.000Z</time>
      </trkpt>
      <trkpt lat="41.306551583111286163330078125" lon="-1.64272896945476531982421875">
        <ele>555</ele>
        <time>2022-05-02T09:21:32.000Z</time>
      </trkpt>
      <trkpt lat="41.30646298639476299285888671875" lon="-1.64265562780201435089111328125">
        <ele>554.79998779296875</ele>
        <time>2022-05-02T09:21:34.000Z</time>
      </trkpt>
      <trkpt lat="41.30637330003082752227783203125" lon="-1.6425789333879947662353515625">
        <ele>554.20001220703125</ele>
        <time>2022-05-02T09:21:36.000Z</time>
      </trkpt>
      <trkpt lat="41.3062848709523677825927734375" lon="-1.642506681382656097412109375">
        <ele>554.20001220703125</ele>
        <time>2022-05-02T09:21:38.000Z</time>
      </trkpt>
      <trkpt lat="41.3061966933310031890869140625" lon="-1.64243535138666629791259765625">
        <ele>554.79998779296875</ele>
        <time>2022-05-02T09:21:40.000Z</time>
      </trkpt>
      <trkpt lat="41.3061091862618923187255859375" lon="-1.6423703916370868682861328125">
        <ele>555</ele>
        <time>2022-05-02T09:21:42.000Z</time>
      </trkpt>
      <trkpt lat="41.30601991899311542510986328125" lon="-1.6423053480684757232666015625">
        <ele>555.20001220703125</ele>
        <time>2022-05-02T09:21:44.000Z</time>
      </trkpt>
      <trkpt lat="41.30592972971498966217041015625" lon="-1.642243154346942901611328125">
        <ele>556</ele>
        <time>2022-05-02T09:21:46.000Z</time>
      </trkpt>
      <trkpt lat="41.30588413216173648834228515625" lon="-1.6422118060290813446044921875">
        <ele>556.20001220703125</ele>
        <time>2022-05-02T09:21:47.000Z</time>
      </trkpt>
      <trkpt lat="41.3058382831513881683349609375" lon="-1.64218389429152011871337890625">
        <ele>556.5999755859375</ele>
        <time>2022-05-02T09:21:48.000Z</time>
      </trkpt>
      <trkpt lat="41.305746249854564666748046875" lon="-1.64212874136865139007568359375">
        <ele>556.5999755859375</ele>
        <time>2022-05-02T09:21:50.000Z</time>
      </trkpt>
      <trkpt lat="41.305655054748058319091796875" lon="-1.64207291789352893829345703125">
        <ele>556.4000244140625</ele>
        <time>2022-05-02T09:21:52.000Z</time>
      </trkpt>
      <trkpt lat="41.3055646978318691253662109375" lon="-1.64201357401907444000244140625">
        <ele>556.20001220703125</ele>
        <time>2022-05-02T09:21:54.000Z</time>
      </trkpt>
      <trkpt lat="41.30547392182052135467529296875" lon="-1.641954816877841949462890625">
        <ele>555.79998779296875</ele>
        <time>2022-05-02T09:21:56.000Z</time>
      </trkpt>
      <trkpt lat="41.3054285757243633270263671875" lon="-1.641925312578678131103515625">
        <ele>555.79998779296875</ele>
        <time>2022-05-02T09:21:57.000Z</time>
      </trkpt>
      <trkpt lat="41.3053836487233638763427734375" lon="-1.64189639501273632049560546875">
        <ele>555.5999755859375</ele>
        <time>2022-05-02T09:21:58.000Z</time>
      </trkpt>
      <trkpt lat="41.30533964373171329498291015625" lon="-1.64186663925647735595703125">
        <ele>555.5999755859375</ele>
        <time>2022-05-02T09:21:59.000Z</time>
      </trkpt>
      <trkpt lat="41.3052954711019992828369140625" lon="-1.6418366320431232452392578125">
        <ele>555.79998779296875</ele>
        <time>2022-05-02T09:22:00.000Z</time>
      </trkpt>
      <trkpt lat="41.30520880222320556640625" lon="-1.64177150465548038482666015625">
        <ele>556</ele>
        <time>2022-05-02T09:22:02.000Z</time>
      </trkpt>
      <trkpt lat="41.30517284385859966278076171875" lon="-1.64173512719571590423583984375">
        <ele>555.79998779296875</ele>
        <time>2022-05-02T09:22:03.000Z</time>
      </trkpt>
      <trkpt lat="41.30514216609299182891845703125" lon="-1.64169556461274623870849609375">
        <ele>556</ele>
        <time>2022-05-02T09:22:04.000Z</time>
      </trkpt>
      <trkpt lat="41.30508265458047389984130859375" lon="-1.641620211303234100341796875">
        <ele>556</ele>
        <time>2022-05-02T09:22:06.000Z</time>
      </trkpt>
      <trkpt lat="41.30504845641553401947021484375" lon="-1.6415870189666748046875">
        <ele>556</ele>
        <time>2022-05-02T09:22:07.000Z</time>
      </trkpt>
      <trkpt lat="41.30501140840351581573486328125" lon="-1.64155877195298671722412109375">
        <ele>556</ele>
        <time>2022-05-02T09:22:08.000Z</time>
      </trkpt>
      <trkpt lat="41.304932534694671630859375" lon="-1.6415070556104183197021484375">
        <ele>556</ele>
        <time>2022-05-02T09:22:10.000Z</time>
      </trkpt>
      <trkpt lat="41.30485215224325656890869140625" lon="-1.6414569318294525146484375">
        <ele>555.79998779296875</ele>
        <time>2022-05-02T09:22:12.000Z</time>
      </trkpt>
      <trkpt lat="41.3047717697918415069580078125" lon="-1.64139951579272747039794921875">
        <ele>556</ele>
        <time>2022-05-02T09:22:14.000Z</time>
      </trkpt>
      <trkpt lat="41.3046926446259021759033203125" lon="-1.64134033955633640289306640625">
        <ele>556</ele>
        <time>2022-05-02T09:22:16.000Z</time>
      </trkpt>
      <trkpt lat="41.3046094961464405059814453125" lon="-1.6412904672324657440185546875">
        <ele>555.79998779296875</ele>
        <time>2022-05-02T09:22:18.000Z</time>
      </trkpt>
      <trkpt lat="41.30452676676213741302490234375" lon="-1.64123439230024814605712890625">
        <ele>555.5999755859375</ele>
        <time>2022-05-02T09:22:20.000Z</time>
      </trkpt>
      <trkpt lat="41.3044435344636440277099609375" lon="-1.6411801613867282867431640625">
        <ele>555.79998779296875</ele>
        <time>2022-05-02T09:22:22.000Z</time>
      </trkpt>
      <trkpt lat="41.30436382256448268890380859375" lon="-1.641128025949001312255859375">
        <ele>555.79998779296875</ele>
        <time>2022-05-02T09:22:24.000Z</time>
      </trkpt>
      <trkpt lat="41.30428536795079708099365234375" lon="-1.641075722873210906982421875">
        <ele>555.20001220703125</ele>
        <time>2022-05-02T09:22:26.000Z</time>
      </trkpt>
      <trkpt lat="41.3042075000703334808349609375" lon="-1.64101948030292987823486328125">
        <ele>554.5999755859375</ele>
        <time>2022-05-02T09:22:28.000Z</time>
      </trkpt>
      <trkpt lat="41.30412795580923557281494140625" lon="-1.64096332155168056488037109375">
        <ele>554.20001220703125</ele>
        <time>2022-05-02T09:22:30.000Z</time>
      </trkpt>
      <trkpt lat="41.3040487468242645263671875" lon="-1.640905402600765228271484375">
        <ele>554.20001220703125</ele>
        <time>2022-05-02T09:22:32.000Z</time>
      </trkpt>
      <trkpt lat="41.30396903492510318756103515625" lon="-1.6408505849540233612060546875">
        <ele>554.5999755859375</ele>
        <time>2022-05-02T09:22:34.000Z</time>
      </trkpt>
      <trkpt lat="41.3038869760930538177490234375" lon="-1.64080037735402584075927734375">
        <ele>555</ele>
        <time>2022-05-02T09:22:36.000Z</time>
      </trkpt>
      <trkpt lat="41.30380759947001934051513671875" lon="-1.64074824191629886627197265625">
        <ele>555</ele>
        <time>2022-05-02T09:22:38.000Z</time>
      </trkpt>
      <trkpt lat="41.30376921035349369049072265625" lon="-1.64072276093065738677978515625">
        <ele>555.20001220703125</ele>
        <time>2022-05-02T09:22:39.000Z</time>
      </trkpt>
      <trkpt lat="41.30373149178922176361083984375" lon="-1.640696190297603607177734375">
        <ele>555.4000244140625</ele>
        <time>2022-05-02T09:22:40.000Z</time>
      </trkpt>
      <trkpt lat="41.30365488119423389434814453125" lon="-1.6406477428972721099853515625">
        <ele>556.20001220703125</ele>
        <time>2022-05-02T09:22:42.000Z</time>
      </trkpt>
      <trkpt lat="41.3035744987428188323974609375" lon="-1.64060105569660663604736328125">
        <ele>556.79998779296875</ele>
        <time>2022-05-02T09:22:44.000Z</time>
      </trkpt>
      <trkpt lat="41.30349210463464260101318359375" lon="-1.6405548714101314544677734375">
        <ele>557.20001220703125</ele>
        <time>2022-05-02T09:22:46.000Z</time>
      </trkpt>
      <trkpt lat="41.30345036275684833526611328125" lon="-1.6405300609767436981201171875">
        <ele>557.4000244140625</ele>
        <time>2022-05-02T09:22:47.000Z</time>
      </trkpt>
      <trkpt lat="41.30340845324099063873291015625" lon="-1.640502400696277618408203125">
        <ele>557.5999755859375</ele>
        <time>2022-05-02T09:22:48.000Z</time>
      </trkpt>
      <trkpt lat="41.303323544561862945556640625" lon="-1.640447080135345458984375">
        <ele>557.79998779296875</ele>
        <time>2022-05-02T09:22:50.000Z</time>
      </trkpt>
      <trkpt lat="41.3032382167875766754150390625" lon="-1.6403902508318424224853515625">
        <ele>558</ele>
        <time>2022-05-02T09:22:52.000Z</time>
      </trkpt>
      <trkpt lat="41.30315381102263927459716796875" lon="-1.6403342597186565399169921875">
        <ele>558.4000244140625</ele>
        <time>2022-05-02T09:22:54.000Z</time>
      </trkpt>
      <trkpt lat="41.3031121529638767242431640625" lon="-1.64030517451465129852294921875">
        <ele>558.5999755859375</ele>
        <time>2022-05-02T09:22:55.000Z</time>
      </trkpt>
      <trkpt lat="41.3030715845525264739990234375" lon="-1.64027634076774120330810546875">
        <ele>558.79998779296875</ele>
        <time>2022-05-02T09:22:56.000Z</time>
      </trkpt>
      <trkpt lat="41.30302942357957363128662109375" lon="-1.64024767465889453887939453125">
        <ele>558.79998779296875</ele>
        <time>2022-05-02T09:22:57.000Z</time>
      </trkpt>
      <trkpt lat="41.30298751406371593475341796875" lon="-1.6402199305593967437744140625">
        <ele>558.5999755859375</ele>
        <time>2022-05-02T09:22:58.000Z</time>
      </trkpt>
      <trkpt lat="41.302903108298778533935546875" lon="-1.64016544818878173828125">
        <ele>558.20001220703125</ele>
        <time>2022-05-02T09:23:00.000Z</time>
      </trkpt>
      <trkpt lat="41.30281903780996799468994140625" lon="-1.64011381566524505615234375">
        <ele>558</ele>
        <time>2022-05-02T09:23:02.000Z</time>
      </trkpt>
      <trkpt lat="41.3027359731495380401611328125" lon="-1.64006411097943782806396484375">
        <ele>558</ele>
        <time>2022-05-02T09:23:04.000Z</time>
      </trkpt>
      <trkpt lat="41.3026957400143146514892578125" lon="-1.64003795944154262542724609375">
        <ele>557.79998779296875</ele>
        <time>2022-05-02T09:23:05.000Z</time>
      </trkpt>
      <trkpt lat="41.30265642888844013214111328125" lon="-1.640014238655567169189453125">
        <ele>557.5999755859375</ele>
        <time>2022-05-02T09:23:06.000Z</time>
      </trkpt>
      <trkpt lat="41.3025760464370250701904296875" lon="-1.63996704854071140289306640625">
        <ele>557.20001220703125</ele>
        <time>2022-05-02T09:23:08.000Z</time>
      </trkpt>
      <trkpt lat="41.30249918438494205474853515625" lon="-1.63991273380815982818603515625">
        <ele>557.20001220703125</ele>
        <time>2022-05-02T09:23:10.000Z</time>
      </trkpt>
      <trkpt lat="41.3024245016276836395263671875" lon="-1.63985204882919788360595703125">
        <ele>557.79998779296875</ele>
        <time>2022-05-02T09:23:12.000Z</time>
      </trkpt>
      <trkpt lat="41.302387453615665435791015625" lon="-1.63982053287327289581298828125">
        <ele>558.4000244140625</ele>
        <time>2022-05-02T09:23:13.000Z</time>
      </trkpt>
      <trkpt lat="41.3023500703275203704833984375" lon="-1.63978968746960163116455078125">
        <ele>558.5999755859375</ele>
        <time>2022-05-02T09:23:14.000Z</time>
      </trkpt>
      <trkpt lat="41.30227421410381793975830078125" lon="-1.63973369635641574859619140625">
        <ele>559.4000244140625</ele>
        <time>2022-05-02T09:23:16.000Z</time>
      </trkpt>
      <trkpt lat="41.30219374783337116241455078125" lon="-1.63968759588897228240966796875">
        <ele>560.20001220703125</ele>
        <time>2022-05-02T09:23:18.000Z</time>
      </trkpt>
      <trkpt lat="41.3021120242774486541748046875" lon="-1.63964174687862396240234375">
        <ele>560.20001220703125</ele>
        <time>2022-05-02T09:23:20.000Z</time>
      </trkpt>
      <trkpt lat="41.30207237787544727325439453125" lon="-1.63961769081652164459228515625">
        <ele>560.20001220703125</ele>
        <time>2022-05-02T09:23:21.000Z</time>
      </trkpt>
      <trkpt lat="41.3020322285592555999755859375" lon="-1.63959388621151447296142578125">
        <ele>560.20001220703125</ele>
        <time>2022-05-02T09:23:22.000Z</time>
      </trkpt>
      <trkpt lat="41.30195058882236480712890625" lon="-1.63954761810600757598876953125">
        <ele>560</ele>
        <time>2022-05-02T09:23:24.000Z</time>
      </trkpt>
      <trkpt lat="41.301869787275791168212890625" lon="-1.63949430920183658599853515625">
        <ele>560</ele>
        <time>2022-05-02T09:23:26.000Z</time>
      </trkpt>
      <trkpt lat="41.3017921708524227142333984375" lon="-1.639440916478633880615234375">
        <ele>559.5999755859375</ele>
        <time>2022-05-02T09:23:28.000Z</time>
      </trkpt>
      <trkpt lat="41.30175453610718250274658203125" lon="-1.63941551931202411651611328125">
        <ele>559.5999755859375</ele>
        <time>2022-05-02T09:23:29.000Z</time>
      </trkpt>
      <trkpt lat="41.30171681754291057586669921875" lon="-1.6393887810409069061279296875">
        <ele>559.4000244140625</ele>
        <time>2022-05-02T09:23:30.000Z</time>
      </trkpt>
      <trkpt lat="41.3016409613192081451416015625" lon="-1.63933731615543365478515625">
        <ele>559.5999755859375</ele>
        <time>2022-05-02T09:23:32.000Z</time>
      </trkpt>
      <trkpt lat="41.3015650212764739990234375" lon="-1.639286018908023834228515625">
        <ele>559.79998779296875</ele>
        <time>2022-05-02T09:23:34.000Z</time>
      </trkpt>
      <trkpt lat="41.301488578319549560546875" lon="-1.639237739145755767822265625">
        <ele>560.4000244140625</ele>
        <time>2022-05-02T09:23:36.000Z</time>
      </trkpt>
      <trkpt lat="41.30141238681972026824951171875" lon="-1.639187447726726531982421875">
        <ele>560.79998779296875</ele>
        <time>2022-05-02T09:23:38.000Z</time>
      </trkpt>
      <trkpt lat="41.3013358600437641143798828125" lon="-1.63913338445127010345458984375">
        <ele>561.20001220703125</ele>
        <time>2022-05-02T09:23:40.000Z</time>
      </trkpt>
      <trkpt lat="41.3012619316577911376953125" lon="-1.6390806622803211212158203125">
        <ele>561.20001220703125</ele>
        <time>2022-05-02T09:23:42.000Z</time>
      </trkpt>
      <trkpt lat="41.30118615925312042236328125" lon="-1.63903179578483104705810546875">
        <ele>561</ele>
        <time>2022-05-02T09:23:44.000Z</time>
      </trkpt>
      <trkpt lat="41.30111080594360828399658203125" lon="-1.63898636586964130401611328125">
        <ele>560.4000244140625</ele>
        <time>2022-05-02T09:23:46.000Z</time>
      </trkpt>
      <trkpt lat="41.301034949719905853271484375" lon="-1.63895501755177974700927734375">
        <ele>560</ele>
        <time>2022-05-02T09:23:48.000Z</time>
      </trkpt>
      <trkpt lat="41.3009548187255859375" lon="-1.6389425285160541534423828125">
        <ele>559.5999755859375</ele>
        <time>2022-05-02T09:23:50.000Z</time>
      </trkpt>
      <trkpt lat="41.30091391503810882568359375" lon="-1.6389421932399272918701171875">
        <ele>559.4000244140625</ele>
        <time>2022-05-02T09:23:51.000Z</time>
      </trkpt>
      <trkpt lat="41.30087359808385372161865234375" lon="-1.63893858902156352996826171875">
        <ele>559.4000244140625</ele>
        <time>2022-05-02T09:23:52.000Z</time>
      </trkpt>
      <trkpt lat="41.30079631693661212921142578125" lon="-1.638911850750446319580078125">
        <ele>559</ele>
        <time>2022-05-02T09:23:54.000Z</time>
      </trkpt>
      <trkpt lat="41.30072590894997119903564453125" lon="-1.63887136615812778472900390625">
        <ele>559.4000244140625</ele>
        <time>2022-05-02T09:23:56.000Z</time>
      </trkpt>
      <trkpt lat="41.30069104023277759552001953125" lon="-1.638850159943103790283203125">
        <ele>559.5999755859375</ele>
        <time>2022-05-02T09:23:57.000Z</time>
      </trkpt>
      <trkpt lat="41.3006555847823619842529296875" lon="-1.6388278640806674957275390625">
        <ele>559.79998779296875</ele>
        <time>2022-05-02T09:23:58.000Z</time>
      </trkpt>
      <trkpt lat="41.30058132112026214599609375" lon="-1.63878134451806545257568359375">
        <ele>560.20001220703125</ele>
        <time>2022-05-02T09:24:00.000Z</time>
      </trkpt>
      <trkpt lat="41.3005047105252742767333984375" lon="-1.63873624987900257110595703125">
        <ele>560.20001220703125</ele>
        <time>2022-05-02T09:24:02.000Z</time>
      </trkpt>
      <trkpt lat="41.300464309751987457275390625" lon="-1.6387175582349300384521484375">
        <ele>560.5999755859375</ele>
        <time>2022-05-02T09:24:03.000Z</time>
      </trkpt>
      <trkpt lat="41.3004242442548274993896484375" lon="-1.638700962066650390625">
        <ele>560.79998779296875</ele>
        <time>2022-05-02T09:24:04.000Z</time>
      </trkpt>
      <trkpt lat="41.30034419707953929901123046875" lon="-1.63866047747433185577392578125">
        <ele>561.5999755859375</ele>
        <time>2022-05-02T09:24:06.000Z</time>
      </trkpt>
      <trkpt lat="41.30026171915233135223388671875" lon="-1.6386164724826812744140625">
        <ele>562.4000244140625</ele>
        <time>2022-05-02T09:24:08.000Z</time>
      </trkpt>
      <trkpt lat="41.30017957650125026702880859375" lon="-1.63857850246131420135498046875">
        <ele>562.79998779296875</ele>
        <time>2022-05-02T09:24:10.000Z</time>
      </trkpt>
      <trkpt lat="41.3000965118408203125" lon="-1.63854229263961315155029296875">
        <ele>563</ele>
        <time>2022-05-02T09:24:12.000Z</time>
      </trkpt>
      <trkpt lat="41.30005485378205776214599609375" lon="-1.63852603174746036529541015625">
        <ele>563.20001220703125</ele>
        <time>2022-05-02T09:24:13.000Z</time>
      </trkpt>
      <trkpt lat="41.30001311190426349639892578125" lon="-1.63851614110171794891357421875">
        <ele>563.5999755859375</ele>
        <time>2022-05-02T09:24:14.000Z</time>
      </trkpt>
      <trkpt lat="41.29997321404516696929931640625" lon="-1.63851278834044933319091796875">
        <ele>563.79998779296875</ele>
        <time>2022-05-02T09:24:15.000Z</time>
      </trkpt>
      <trkpt lat="41.299936585128307342529296875" lon="-1.6385147161781787872314453125">
        <ele>564</ele>
        <time>2022-05-02T09:24:16.000Z</time>
      </trkpt>
      <trkpt lat="41.29990272223949432373046875" lon="-1.6385190747678279876708984375">
        <ele>563.5999755859375</ele>
        <time>2022-05-02T09:24:17.000Z</time>
      </trkpt>
      <trkpt lat="41.299875564873218536376953125" lon="-1.638519577682018280029296875">
        <ele>563.5999755859375</ele>
        <time>2022-05-02T09:24:18.000Z</time>
      </trkpt>
      <trkpt lat="41.299852095544338226318359375" lon="-1.6385080106556415557861328125">
        <ele>563.4000244140625</ele>
        <time>2022-05-02T09:24:19.000Z</time>
      </trkpt>
      <trkpt lat="41.299831308424472808837890625" lon="-1.6384768299758434295654296875">
        <ele>563.20001220703125</ele>
        <time>2022-05-02T09:24:20.000Z</time>
      </trkpt>
      <trkpt lat="41.2997905723750591278076171875" lon="-1.63838353939354419708251953125">
        <ele>562.79998779296875</ele>
        <time>2022-05-02T09:24:22.000Z</time>
      </trkpt>
      <trkpt lat="41.2997654266655445098876953125" lon="-1.63833240978419780731201171875">
        <ele>562.5999755859375</ele>
        <time>2022-05-02T09:24:23.000Z</time>
      </trkpt>
      <trkpt lat="41.2997345812618732452392578125" lon="-1.63828429765999317169189453125">
        <ele>562.20001220703125</ele>
        <time>2022-05-02T09:24:24.000Z</time>
      </trkpt>
      <trkpt lat="41.29965922795236110687255859375" lon="-1.6381988860666751861572265625">
        <ele>562</ele>
        <time>2022-05-02T09:24:26.000Z</time>
      </trkpt>
      <trkpt lat="41.29962100647389888763427734375" lon="-1.63816343061625957489013671875">
        <ele>562</ele>
        <time>2022-05-02T09:24:27.000Z</time>
      </trkpt>
      <trkpt lat="41.29958345554769039154052734375" lon="-1.63812940008938312530517578125">
        <ele>562</ele>
        <time>2022-05-02T09:24:28.000Z</time>
      </trkpt>
      <trkpt lat="41.29951438866555690765380859375" lon="-1.63805681280791759490966796875">
        <ele>561.79998779296875</ele>
        <time>2022-05-02T09:24:30.000Z</time>
      </trkpt>
      <trkpt lat="41.29944364540278911590576171875" lon="-1.6379682160913944244384765625">
        <ele>561.5999755859375</ele>
        <time>2022-05-02T09:24:32.000Z</time>
      </trkpt>
      <trkpt lat="41.2994053401052951812744140625" lon="-1.63792245090007781982421875">
        <ele>561.4000244140625</ele>
        <time>2022-05-02T09:24:33.000Z</time>
      </trkpt>
      <trkpt lat="41.2993634305894374847412109375" lon="-1.63788196630775928497314453125">
        <ele>561.4000244140625</ele>
        <time>2022-05-02T09:24:34.000Z</time>
      </trkpt>
      <trkpt lat="41.29927231930196285247802734375" lon="-1.63781239651143550872802734375">
        <ele>561.79998779296875</ele>
        <time>2022-05-02T09:24:36.000Z</time>
      </trkpt>
      <trkpt lat="41.29917852580547332763671875" lon="-1.6377526335418224334716796875">
        <ele>562.5999755859375</ele>
        <time>2022-05-02T09:24:38.000Z</time>
      </trkpt>
      <trkpt lat="41.29909210838377475738525390625" lon="-1.63769873790442943572998046875">
        <ele>562.5999755859375</ele>
        <time>2022-05-02T09:24:40.000Z</time>
      </trkpt>
      <trkpt lat="41.2990087084472179412841796875" lon="-1.63765062578022480010986328125">
        <ele>562.4000244140625</ele>
        <time>2022-05-02T09:24:42.000Z</time>
      </trkpt>
      <trkpt lat="41.2989255599677562713623046875" lon="-1.6376114822924137115478515625">
        <ele>562.20001220703125</ele>
        <time>2022-05-02T09:24:44.000Z</time>
      </trkpt>
      <trkpt lat="41.29888390190899372100830078125" lon="-1.63758985698223114013671875">
        <ele>562.20001220703125</ele>
        <time>2022-05-02T09:24:45.000Z</time>
      </trkpt>
      <trkpt lat="41.2988430820405483245849609375" lon="-1.63756295107305049896240234375">
        <ele>562</ele>
        <time>2022-05-02T09:24:46.000Z</time>
      </trkpt>
      <trkpt lat="41.29876077175140380859375" lon="-1.63750511594116687774658203125">
        <ele>561.79998779296875</ele>
        <time>2022-05-02T09:24:48.000Z</time>
      </trkpt>
      <trkpt lat="41.298718862235546112060546875" lon="-1.637472845613956451416015625">
        <ele>561.79998779296875</ele>
        <time>2022-05-02T09:24:49.000Z</time>
      </trkpt>
      <trkpt lat="41.29867837764322757720947265625" lon="-1.63744359277188777923583984375">
        <ele>561.5999755859375</ele>
        <time>2022-05-02T09:24:50.000Z</time>
      </trkpt>
      <trkpt lat="41.29859514534473419189453125" lon="-1.63739196024835109710693359375">
        <ele>561.4000244140625</ele>
        <time>2022-05-02T09:24:52.000Z</time>
      </trkpt>
      <trkpt lat="41.29851333796977996826171875" lon="-1.63733395747840404510498046875">
        <ele>561.4000244140625</ele>
        <time>2022-05-02T09:24:54.000Z</time>
      </trkpt>
      <trkpt lat="41.29843194968998432159423828125" lon="-1.63727796636521816253662109375">
        <ele>560.79998779296875</ele>
        <time>2022-05-02T09:24:56.000Z</time>
      </trkpt>
      <trkpt lat="41.29834528081119060516357421875" lon="-1.6372282616794109344482421875">
        <ele>560.20001220703125</ele>
        <time>2022-05-02T09:24:58.000Z</time>
      </trkpt>
      <trkpt lat="41.2982605397701263427734375" lon="-1.63717470131814479827880859375">
        <ele>559.5999755859375</ele>
        <time>2022-05-02T09:25:00.000Z</time>
      </trkpt>
      <trkpt lat="41.2981842644512653350830078125" lon="-1.63712139241397380828857421875">
        <ele>559.4000244140625</ele>
        <time>2022-05-02T09:25:02.000Z</time>
      </trkpt>
      <trkpt lat="41.29810723476111888885498046875" lon="-1.63706657476723194122314453125">
        <ele>559.4000244140625</ele>
        <time>2022-05-02T09:25:04.000Z</time>
      </trkpt>
      <trkpt lat="41.29806800745427608489990234375" lon="-1.6370418481528759002685546875">
        <ele>559.20001220703125</ele>
        <time>2022-05-02T09:25:05.000Z</time>
      </trkpt>
      <trkpt lat="41.29803045652806758880615234375" lon="-1.63701594807207584381103515625">
        <ele>559.20001220703125</ele>
        <time>2022-05-02T09:25:06.000Z</time>
      </trkpt>
      <trkpt lat="41.2979542650282382965087890625" lon="-1.636970937252044677734375">
        <ele>559.4000244140625</ele>
        <time>2022-05-02T09:25:08.000Z</time>
      </trkpt>
      <trkpt lat="41.29787304438650608062744140625" lon="-1.63693883456289768218994140625">
        <ele>560</ele>
        <time>2022-05-02T09:25:10.000Z</time>
      </trkpt>
      <trkpt lat="41.29778419621288776397705078125" lon="-1.63690983317792415618896484375">
        <ele>560.79998779296875</ele>
        <time>2022-05-02T09:25:12.000Z</time>
      </trkpt>
      <trkpt lat="41.29769585095345973968505859375" lon="-1.636870019137859344482421875">
        <ele>561.4000244140625</ele>
        <time>2022-05-02T09:25:14.000Z</time>
      </trkpt>
      <trkpt lat="41.29760800860822200775146484375" lon="-1.63682165555655956268310546875">
        <ele>562</ele>
        <time>2022-05-02T09:25:16.000Z</time>
      </trkpt>
      <trkpt lat="41.29751949571073055267333984375" lon="-1.636766754090785980224609375">
        <ele>562.5999755859375</ele>
        <time>2022-05-02T09:25:18.000Z</time>
      </trkpt>
      <trkpt lat="41.297474987804889678955078125" lon="-1.636740267276763916015625">
        <ele>562.79998779296875</ele>
        <time>2022-05-02T09:25:19.000Z</time>
      </trkpt>
      <trkpt lat="41.29743249155580997467041015625" lon="-1.63670875132083892822265625">
        <ele>563</ele>
        <time>2022-05-02T09:25:20.000Z</time>
      </trkpt>
      <trkpt lat="41.29735152237117290496826171875" lon="-1.6366411931812763214111328125">
        <ele>563.4000244140625</ele>
        <time>2022-05-02T09:25:22.000Z</time>
      </trkpt>
      <trkpt lat="41.29731212742626667022705078125" lon="-1.6366116888821125030517578125">
        <ele>563.5999755859375</ele>
        <time>2022-05-02T09:25:23.000Z</time>
      </trkpt>
      <trkpt lat="41.2972708046436309814453125" lon="-1.63658712990581989288330078125">
        <ele>563.79998779296875</ele>
        <time>2022-05-02T09:25:24.000Z</time>
      </trkpt>
      <trkpt lat="41.297228895127773284912109375" lon="-1.63656198419630527496337890625">
        <ele>563.79998779296875</ele>
        <time>2022-05-02T09:25:25.000Z</time>
      </trkpt>
      <trkpt lat="41.2971874885261058807373046875" lon="-1.636536754667758941650390625">
        <ele>563.5999755859375</ele>
        <time>2022-05-02T09:25:26.000Z</time>
      </trkpt>
      <trkpt lat="41.2971040047705173492431640625" lon="-1.63648269139230251312255859375">
        <ele>563.79998779296875</ele>
        <time>2022-05-02T09:25:28.000Z</time>
      </trkpt>
      <trkpt lat="41.2970211915671825408935546875" lon="-1.63642904721200466156005859375">
        <ele>563.4000244140625</ele>
        <time>2022-05-02T09:25:30.000Z</time>
      </trkpt>
      <trkpt lat="41.29697986878454685211181640625" lon="-1.636403314769268035888671875">
        <ele>563.4000244140625</ele>
        <time>2022-05-02T09:25:31.000Z</time>
      </trkpt>
      <trkpt lat="41.29693762399256229400634765625" lon="-1.6363759897649288177490234375">
        <ele>563.20001220703125</ele>
        <time>2022-05-02T09:25:32.000Z</time>
      </trkpt>
      <trkpt lat="41.2968545593321323394775390625" lon="-1.636322848498821258544921875">
        <ele>563</ele>
        <time>2022-05-02T09:25:34.000Z</time>
      </trkpt>
      <trkpt lat="41.2967717461287975311279296875" lon="-1.63626886904239654541015625">
        <ele>563</ele>
        <time>2022-05-02T09:25:36.000Z</time>
      </trkpt>
      <trkpt lat="41.2966914474964141845703125" lon="-1.63621388375759124755859375">
        <ele>563.4000244140625</ele>
        <time>2022-05-02T09:25:38.000Z</time>
      </trkpt>
      <trkpt lat="41.29661500453948974609375" lon="-1.63616292178630828857421875">
        <ele>564</ele>
        <time>2022-05-02T09:25:40.000Z</time>
      </trkpt>
      <trkpt lat="41.2965430878102779388427734375" lon="-1.636114977300167083740234375">
        <ele>564</ele>
        <time>2022-05-02T09:25:42.000Z</time>
      </trkpt>
      <trkpt lat="41.29647159017622470855712890625" lon="-1.63606862537562847137451171875">
        <ele>564</ele>
        <time>2022-05-02T09:25:44.000Z</time>
      </trkpt>
      <trkpt lat="41.29640168510377407073974609375" lon="-1.63602218963205814361572265625">
        <ele>564</ele>
        <time>2022-05-02T09:25:46.000Z</time>
      </trkpt>
      <trkpt lat="41.29632960073649883270263671875" lon="-1.635978184640407562255859375">
        <ele>564</ele>
        <time>2022-05-02T09:25:48.000Z</time>
      </trkpt>
      <trkpt lat="41.296258606016635894775390625" lon="-1.63595764897763729095458984375">
        <ele>564</ele>
        <time>2022-05-02T09:25:50.000Z</time>
      </trkpt>
      <trkpt lat="41.29622633568942546844482421875" lon="-1.635966114699840545654296875">
        <ele>564</ele>
        <time>2022-05-02T09:25:51.000Z</time>
      </trkpt>
      <trkpt lat="41.2961997650563716888427734375" lon="-1.63599318824708461761474609375">
        <ele>564</ele>
        <time>2022-05-02T09:25:52.000Z</time>
      </trkpt>
      <trkpt lat="41.29614385776221752166748046875" lon="-1.63607038557529449462890625">
        <ele>564</ele>
        <time>2022-05-02T09:25:54.000Z</time>
      </trkpt>
      <trkpt lat="41.29611535929143428802490234375" lon="-1.63611598312854766845703125">
        <ele>564</ele>
        <time>2022-05-02T09:25:55.000Z</time>
      </trkpt>
      <trkpt lat="41.2960884533822536468505859375" lon="-1.63616292178630828857421875">
        <ele>564</ele>
        <time>2022-05-02T09:25:56.000Z</time>
      </trkpt>
      <trkpt lat="41.29603765904903411865234375" lon="-1.63624732755124568939208984375">
        <ele>564</ele>
        <time>2022-05-02T09:25:58.000Z</time>
      </trkpt>
      <trkpt lat="41.2959945760667324066162109375" lon="-1.6363163106143474578857421875">
        <ele>564.20001220703125</ele>
        <time>2022-05-02T09:26:00.000Z</time>
      </trkpt>
      <trkpt lat="41.29597538150846958160400390625" lon="-1.63634598255157470703125">
        <ele>564.20001220703125</ele>
        <time>2022-05-02T09:26:01.000Z</time>
      </trkpt>
      <trkpt lat="41.295955516397953033447265625" lon="-1.63637154735624790191650390625">
        <ele>564.4000244140625</ele>
        <time>2022-05-02T09:26:02.000Z</time>
      </trkpt>
      <trkpt lat="41.2959162890911102294921875" lon="-1.6363954357802867889404296875">
        <ele>564.4000244140625</ele>
        <time>2022-05-02T09:26:04.000Z</time>
      </trkpt>
      <trkpt lat="41.2958953343331813812255859375" lon="-1.63639099337160587310791015625">
        <ele>564.5999755859375</ele>
        <time>2022-05-02T09:26:05.000Z</time>
      </trkpt>
      <trkpt lat="41.2958711944520473480224609375" lon="-1.63636735640466213226318359375">
        <ele>564.5999755859375</ele>
        <time>2022-05-02T09:26:06.000Z</time>
      </trkpt>
      <trkpt lat="41.295839846134185791015625" lon="-1.63629032671451568603515625">
        <ele>564.5999755859375</ele>
        <time>2022-05-02T09:26:08.000Z</time>
      </trkpt>
      <trkpt lat="41.29581294022500514984130859375" lon="-1.63619183935225009918212890625">
        <ele>564.20001220703125</ele>
        <time>2022-05-02T09:26:10.000Z</time>
      </trkpt>
      <trkpt lat="41.29579299129545688629150390625" lon="-1.636142469942569732666015625">
        <ele>564</ele>
        <time>2022-05-02T09:26:11.000Z</time>
      </trkpt>
      <trkpt lat="41.29576700739562511444091796875" lon="-1.63609712384641170501708984375">
        <ele>564</ele>
        <time>2022-05-02T09:26:12.000Z</time>
      </trkpt>
      <trkpt lat="41.29573523998260498046875" lon="-1.6360576450824737548828125">
        <ele>564</ele>
        <time>2022-05-02T09:26:13.000Z</time>
      </trkpt>
      <trkpt lat="41.29569944925606250762939453125" lon="-1.636022441089153289794921875">
        <ele>564</ele>
        <time>2022-05-02T09:26:14.000Z</time>
      </trkpt>
      <trkpt lat="41.2956308014690876007080078125" lon="-1.63595446385443210601806640625">
        <ele>564</ele>
        <time>2022-05-02T09:26:16.000Z</time>
      </trkpt>
      <trkpt lat="41.29558947868645191192626953125" lon="-1.6358618438243865966796875">
        <ele>564</ele>
        <time>2022-05-02T09:26:18.000Z</time>
      </trkpt>
      <trkpt lat="41.295573301613330841064453125" lon="-1.635764949023723602294921875">
        <ele>564</ele>
        <time>2022-05-02T09:26:20.000Z</time>
      </trkpt>
      <trkpt lat="41.29556022584438323974609375" lon="-1.635695882141590118408203125">
        <ele>564</ele>
        <time>2022-05-02T09:26:22.000Z</time>
      </trkpt>
      <trkpt lat="41.295553855597972869873046875" lon="-1.635673753917217254638671875">
        <ele>564</ele>
        <time>2022-05-02T09:26:23.000Z</time>
      </trkpt>
      <trkpt lat="41.29555025137960910797119140625" lon="-1.63565841503441333770751953125">
        <ele>564</ele>
        <time>2022-05-02T09:26:24.000Z</time>
      </trkpt>
      <trkpt lat="41.29554337821900844573974609375" lon="-1.635653972625732421875">
        <ele>564</ele>
        <time>2022-05-02T09:26:26.000Z</time>
      </trkpt>
      <trkpt lat="41.29554471932351589202880859375" lon="-1.63565330207347869873046875">
        <ele>564</ele>
        <time>2022-05-02T09:26:27.000Z</time>
      </trkpt>
      <trkpt lat="41.295501552522182464599609375" lon="-1.63560728542506694793701171875">
        <ele>564</ele>
        <time>2022-05-02T09:28:34.000Z</time>
      </trkpt>
      <trkpt lat="41.2954759038984775543212890625" lon="-1.63559471257030963897705078125">
        <ele>564</ele>
        <time>2022-05-02T09:28:36.000Z</time>
      </trkpt>
      <trkpt lat="41.2954356707632541656494140625" lon="-1.6355669684708118438720703125">
        <ele>564.20001220703125</ele>
        <time>2022-05-02T09:28:38.000Z</time>
      </trkpt>
      <trkpt lat="41.2954356707632541656494140625" lon="-1.6355669684708118438720703125">
        <ele>564.20001220703125</ele>
        <time>2022-05-02T09:28:39.000Z</time>
      </trkpt>
      <trkpt lat="41.29542603157460689544677734375" lon="-1.63554928265511989593505859375">
        <ele>564.20001220703125</ele>
        <time>2022-05-02T09:28:40.000Z</time>
      </trkpt>
      <trkpt lat="41.29541362635791301727294921875" lon="-1.63553251884877681732177734375">
        <ele>564.4000244140625</ele>
        <time>2022-05-02T09:28:41.000Z</time>
      </trkpt>
      <trkpt lat="41.29539065994322299957275390625" lon="-1.63550117053091526031494140625">
        <ele>564.4000244140625</ele>
        <time>2022-05-02T09:28:42.000Z</time>
      </trkpt>
      <trkpt lat="41.295382864773273468017578125" lon="-1.6354824788868427276611328125">
        <ele>564.4000244140625</ele>
        <time>2022-05-02T09:28:44.000Z</time>
      </trkpt>
      <trkpt lat="41.2953552044928073883056640625" lon="-1.63544249720871448516845703125">
        <ele>564.5999755859375</ele>
        <time>2022-05-02T09:28:46.000Z</time>
      </trkpt>
      <trkpt lat="41.2953552044928073883056640625" lon="-1.63544249720871448516845703125">
        <ele>564.5999755859375</ele>
        <time>2022-05-02T09:28:47.000Z</time>
      </trkpt>
      <trkpt lat="41.2953422963619232177734375" lon="-1.6354291699826717376708984375">
        <ele>564.5999755859375</ele>
        <time>2022-05-02T09:28:48.000Z</time>
      </trkpt>
      <trkpt lat="41.29531203769147396087646484375" lon="-1.6353983245790004730224609375">
        <ele>564.5999755859375</ele>
        <time>2022-05-02T09:28:50.000Z</time>
      </trkpt>
      <trkpt lat="41.29526509903371334075927734375" lon="-1.63533939979970455169677734375">
        <ele>564.79998779296875</ele>
        <time>2022-05-02T09:28:52.000Z</time>
      </trkpt>
      <trkpt lat="41.29523157142102718353271484375" lon="-1.63529564626514911651611328125">
        <ele>564.79998779296875</ele>
        <time>2022-05-02T09:28:54.000Z</time>
      </trkpt>
      <trkpt lat="41.29523157142102718353271484375" lon="-1.63529564626514911651611328125">
        <ele>564.79998779296875</ele>
        <time>2022-05-02T09:28:55.000Z</time>
      </trkpt>
      <trkpt lat="41.29519586451351642608642578125" lon="-1.63525725714862346649169921875">
        <ele>564.79998779296875</ele>
        <time>2022-05-02T09:28:56.000Z</time>
      </trkpt>
      <trkpt lat="41.2951607443392276763916015625" lon="-1.6352253220975399017333984375">
        <ele>564.79998779296875</ele>
        <time>2022-05-02T09:28:58.000Z</time>
      </trkpt>
      <trkpt lat="41.29511363804340362548828125" lon="-1.6351931355893611907958984375">
        <ele>565</ele>
        <time>2022-05-02T09:29:00.000Z</time>
      </trkpt>
      <trkpt lat="41.29508673213422298431396484375" lon="-1.6351787187159061431884765625">
        <ele>565</ele>
        <time>2022-05-02T09:29:02.000Z</time>
      </trkpt>
      <trkpt lat="41.29501598887145519256591796875" lon="-1.6351215541362762451171875">
        <ele>564.5999755859375</ele>
        <time>2022-05-02T09:29:04.000Z</time>
      </trkpt>
      <trkpt lat="41.29499117843806743621826171875" lon="-1.6351029463112354278564453125">
        <ele>564.4000244140625</ele>
        <time>2022-05-02T09:29:06.000Z</time>
      </trkpt>
      <trkpt lat="41.2949050962924957275390625" lon="-1.6350489668548107147216796875">
        <ele>564.20001220703125</ele>
        <time>2022-05-02T09:29:08.000Z</time>
      </trkpt>
      <trkpt lat="41.29484474658966064453125" lon="-1.63501091301441192626953125">
        <ele>564.20001220703125</ele>
        <time>2022-05-02T09:29:10.000Z</time>
      </trkpt>
      <trkpt lat="41.29478330723941326141357421875" lon="-1.63497294299304485321044921875">
        <ele>564.4000244140625</ele>
        <time>2022-05-02T09:29:12.000Z</time>
      </trkpt>
      <trkpt lat="41.29472211934626102447509765625" lon="-1.63493421860039234161376953125">
        <ele>564.4000244140625</ele>
        <time>2022-05-02T09:29:14.000Z</time>
      </trkpt>
      <trkpt lat="41.2946601770818233489990234375" lon="-1.634894907474517822265625">
        <ele>564.4000244140625</ele>
        <time>2022-05-02T09:29:16.000Z</time>
      </trkpt>
      <trkpt lat="41.29459999501705169677734375" lon="-1.6348568536341190338134765625">
        <ele>564.20001220703125</ele>
        <time>2022-05-02T09:29:18.000Z</time>
      </trkpt>
      <trkpt lat="41.2945414893329143524169921875" lon="-1.6348172910511493682861328125">
        <ele>564</ele>
        <time>2022-05-02T09:29:20.000Z</time>
      </trkpt>
      <trkpt lat="41.29448289982974529266357421875" lon="-1.63477898575365543365478515625">
        <ele>564</ele>
        <time>2022-05-02T09:29:22.000Z</time>
      </trkpt>
      <trkpt lat="41.29445490427315235137939453125" lon="-1.634759120643138885498046875">
        <ele>564</ele>
        <time>2022-05-02T09:29:24.000Z</time>
      </trkpt>
      <trkpt lat="41.29439874552190303802490234375" lon="-1.63472400046885013580322265625">
        <ele>564.20001220703125</ele>
        <time>2022-05-02T09:29:26.000Z</time>
      </trkpt>
      <trkpt lat="41.29434191621840000152587890625" lon="-1.63468611426651477813720703125">
        <ele>564.5999755859375</ele>
        <time>2022-05-02T09:29:28.000Z</time>
      </trkpt>
      <trkpt lat="41.29431425593793392181396484375" lon="-1.63466700352728366851806640625">
        <ele>565</ele>
        <time>2022-05-02T09:29:29.000Z</time>
      </trkpt>
      <trkpt lat="41.29425709135830402374267578125" lon="-1.6346298716962337493896484375">
        <ele>565.4000244140625</ele>
        <time>2022-05-02T09:29:30.000Z</time>
      </trkpt>
      <trkpt lat="41.294199340045452117919921875" lon="-1.634591482579708099365234375">
        <ele>565.5999755859375</ele>
        <time>2022-05-02T09:29:32.000Z</time>
      </trkpt>
      <trkpt lat="41.29414058290421962738037109375" lon="-1.6345507465302944183349609375">
        <ele>565.79998779296875</ele>
        <time>2022-05-02T09:29:34.000Z</time>
      </trkpt>
      <trkpt lat="41.294080652296543121337890625" lon="-1.63450858555734157562255859375">
        <ele>566</ele>
        <time>2022-05-02T09:29:36.000Z</time>
      </trkpt>
      <trkpt lat="41.29401787184178829193115234375" lon="-1.6344702802598476409912109375">
        <ele>566.4000244140625</ele>
        <time>2022-05-02T09:29:38.000Z</time>
      </trkpt>
      <trkpt lat="41.293952576816082000732421875" lon="-1.63442946039140224456787109375">
        <ele>566.79998779296875</ele>
        <time>2022-05-02T09:29:40.000Z</time>
      </trkpt>
      <trkpt lat="41.293952576816082000732421875" lon="-1.63442946039140224456787109375">
        <ele>566.79998779296875</ele>
        <time>2022-05-02T09:29:41.000Z</time>
      </trkpt>
      <trkpt lat="41.29388409666717052459716796875" lon="-1.63438637740910053253173828125">
        <ele>567</ele>
        <time>2022-05-02T09:29:42.000Z</time>
      </trkpt>
      <trkpt lat="41.29381184466183185577392578125" lon="-1.63434547372162342071533203125">
        <ele>567</ele>
        <time>2022-05-02T09:29:44.000Z</time>
      </trkpt>
      <trkpt lat="41.29373691044747829437255859375" lon="-1.63430389948189258575439453125">
        <ele>567.4000244140625</ele>
        <time>2022-05-02T09:29:46.000Z</time>
      </trkpt>
      <trkpt lat="41.29366382025182247161865234375" lon="-1.63425964303314685821533203125">
        <ele>567.20001220703125</ele>
        <time>2022-05-02T09:29:48.000Z</time>
      </trkpt>
      <trkpt lat="41.29362693987786769866943359375" lon="-1.6342352516949176788330078125">
        <ele>567.20001220703125</ele>
        <time>2022-05-02T09:29:50.000Z</time>
      </trkpt>
      <trkpt lat="41.29351546056568622589111328125" lon="-1.6341635026037693023681640625">
        <ele>566.79998779296875</ele>
        <time>2022-05-02T09:29:52.000Z</time>
      </trkpt>
      <trkpt lat="41.29344069398939609527587890625" lon="-1.63411832414567470550537109375">
        <ele>566.5999755859375</ele>
        <time>2022-05-02T09:29:54.000Z</time>
      </trkpt>
      <trkpt lat="41.293367184698581695556640625" lon="-1.63407674990594387054443359375">
        <ele>566.5999755859375</ele>
        <time>2022-05-02T09:29:56.000Z</time>
      </trkpt>
      <trkpt lat="41.29330038093030452728271484375" lon="-1.63402712903916835784912109375">
        <ele>567</ele>
        <time>2022-05-02T09:29:58.000Z</time>
      </trkpt>
      <trkpt lat="41.29330038093030452728271484375" lon="-1.63402712903916835784912109375">
        <ele>567</ele>
        <time>2022-05-02T09:29:59.000Z</time>
      </trkpt>
      <trkpt lat="41.29324036650359630584716796875" lon="-1.6339848004281520843505859375">
        <ele>567</ele>
        <time>2022-05-02T09:30:00.000Z</time>
      </trkpt>
      <trkpt lat="41.2931869737803936004638671875" lon="-1.63394599221646785736083984375">
        <ele>567.20001220703125</ele>
        <time>2022-05-02T09:30:02.000Z</time>
      </trkpt>
      <trkpt lat="41.2931360118091106414794921875" lon="-1.6339100338518619537353515625">
        <ele>567.5999755859375</ele>
        <time>2022-05-02T09:30:04.000Z</time>
      </trkpt>
      <trkpt lat="41.29308278672397136688232421875" lon="-1.63387239910662174224853515625">
        <ele>567.5999755859375</ele>
        <time>2022-05-02T09:30:06.000Z</time>
      </trkpt>
      <trkpt lat="41.29302528686821460723876953125" lon="-1.6338325850665569305419921875">
        <ele>567.5999755859375</ele>
        <time>2022-05-02T09:30:08.000Z</time>
      </trkpt>
      <trkpt lat="41.29296644590795040130615234375" lon="-1.63379562087357044219970703125">
        <ele>567.5999755859375</ele>
        <time>2022-05-02T09:30:10.000Z</time>
      </trkpt>
      <trkpt lat="41.29293694160878658294677734375" lon="-1.6337789408862590789794921875">
        <ele>567.4000244140625</ele>
        <time>2022-05-02T09:30:12.000Z</time>
      </trkpt>
      <trkpt lat="41.2928453274071216583251953125" lon="-1.63372186012566089630126953125">
        <ele>567.5999755859375</ele>
        <time>2022-05-02T09:30:14.000Z</time>
      </trkpt>
      <trkpt lat="41.29278279840946197509765625" lon="-1.63368414156138896942138671875">
        <ele>567.79998779296875</ele>
        <time>2022-05-02T09:30:16.000Z</time>
      </trkpt>
      <trkpt lat="41.29272244870662689208984375" lon="-1.6336528770625591278076171875">
        <ele>568</ele>
        <time>2022-05-02T09:30:18.000Z</time>
      </trkpt>
      <trkpt lat="41.2926609255373477935791015625" lon="-1.63361239247024059295654296875">
        <ele>568.4000244140625</ele>
        <time>2022-05-02T09:30:20.000Z</time>
      </trkpt>
      <trkpt lat="41.29259848035871982574462890625" lon="-1.63357056677341461181640625">
        <ele>568.79998779296875</ele>
        <time>2022-05-02T09:30:22.000Z</time>
      </trkpt>
      <trkpt lat="41.29253611899912357330322265625" lon="-1.63352572359144687652587890625">
        <ele>569.20001220703125</ele>
        <time>2022-05-02T09:30:24.000Z</time>
      </trkpt>
      <trkpt lat="41.2924745120108127593994140625" lon="-1.63348079659044742584228515625">
        <ele>569.20001220703125</ele>
        <time>2022-05-02T09:30:26.000Z</time>
      </trkpt>
      <trkpt lat="41.2924745120108127593994140625" lon="-1.63348079659044742584228515625">
        <ele>569.20001220703125</ele>
        <time>2022-05-02T09:30:27.000Z</time>
      </trkpt>
      <trkpt lat="41.2924114800989627838134765625" lon="-1.63343754597008228302001953125">
        <ele>569.20001220703125</ele>
        <time>2022-05-02T09:30:28.000Z</time>
      </trkpt>
      <trkpt lat="41.2923467718064785003662109375" lon="-1.6333937086164951324462890625">
        <ele>569.4000244140625</ele>
        <time>2022-05-02T09:30:30.000Z</time>
      </trkpt>
      <trkpt lat="41.29228122532367706298828125" lon="-1.6333514638245105743408203125">
        <ele>569.5999755859375</ele>
        <time>2022-05-02T09:30:32.000Z</time>
      </trkpt>
      <trkpt lat="41.29224828444421291351318359375" lon="-1.6333303414285182952880859375">
        <ele>569.5999755859375</ele>
        <time>2022-05-02T09:30:34.000Z</time>
      </trkpt>
      <trkpt lat="41.2922153435647487640380859375" lon="-1.6333095543086528778076171875">
        <ele>569.5999755859375</ele>
        <time>2022-05-02T09:30:35.000Z</time>
      </trkpt>
      <trkpt lat="41.2921496294438838958740234375" lon="-1.63326881825923919677734375">
        <ele>569.5999755859375</ele>
        <time>2022-05-02T09:30:36.000Z</time>
      </trkpt>
      <trkpt lat="41.29208047874271869659423828125" lon="-1.63322749547660350799560546875">
        <ele>569.4000244140625</ele>
        <time>2022-05-02T09:30:38.000Z</time>
      </trkpt>
      <trkpt lat="41.29201157949864864349365234375" lon="-1.63318273611366748809814453125">
        <ele>569.5999755859375</ele>
        <time>2022-05-02T09:30:40.000Z</time>
      </trkpt>
      <trkpt lat="41.29194217734038829803466796875" lon="-1.6331342048943042755126953125">
        <ele>569.79998779296875</ele>
        <time>2022-05-02T09:30:42.000Z</time>
      </trkpt>
      <trkpt lat="41.29187026061117649078369140625" lon="-1.63308508694171905517578125">
        <ele>570</ele>
        <time>2022-05-02T09:30:44.000Z</time>
      </trkpt>
      <trkpt lat="41.29187026061117649078369140625" lon="-1.63308508694171905517578125">
        <ele>570</ele>
        <time>2022-05-02T09:30:45.000Z</time>
      </trkpt>
      <trkpt lat="41.29179708659648895263671875" lon="-1.633036471903324127197265625">
        <ele>569.79998779296875</ele>
        <time>2022-05-02T09:30:46.000Z</time>
      </trkpt>
      <trkpt lat="41.2917258404195308685302734375" lon="-1.6329840011894702911376953125">
        <ele>569.5999755859375</ele>
        <time>2022-05-02T09:30:48.000Z</time>
      </trkpt>
      <trkpt lat="41.2916569411754608154296875" lon="-1.63293798454105854034423828125">
        <ele>569.4000244140625</ele>
        <time>2022-05-02T09:30:50.000Z</time>
      </trkpt>
      <trkpt lat="41.2915887124836444854736328125" lon="-1.63289305754005908966064453125">
        <ele>569.20001220703125</ele>
        <time>2022-05-02T09:30:52.000Z</time>
      </trkpt>
      <trkpt lat="41.29152190871536731719970703125" lon="-1.63284846581518650054931640625">
        <ele>569.4000244140625</ele>
        <time>2022-05-02T09:30:54.000Z</time>
      </trkpt>
      <trkpt lat="41.2914881296455860137939453125" lon="-1.6328270919620990753173828125">
        <ele>569.4000244140625</ele>
        <time>2022-05-02T09:30:55.000Z</time>
      </trkpt>
      <trkpt lat="41.2914881296455860137939453125" lon="-1.6328270919620990753173828125">
        <ele>569.4000244140625</ele>
        <time>2022-05-02T09:30:56.000Z</time>
      </trkpt>
      <trkpt lat="41.29138863645493984222412109375" lon="-1.63275777362287044525146484375">
        <ele>569.5999755859375</ele>
        <time>2022-05-02T09:30:58.000Z</time>
      </trkpt>
      <trkpt lat="41.29138863645493984222412109375" lon="-1.63275777362287044525146484375">
        <ele>569.5999755859375</ele>
        <time>2022-05-02T09:30:59.000Z</time>
      </trkpt>
      <trkpt lat="41.2913238443434238433837890625" lon="-1.6327141039073467254638671875">
        <ele>569.5999755859375</ele>
        <time>2022-05-02T09:31:00.000Z</time>
      </trkpt>
      <trkpt lat="41.2912588007748126983642578125" lon="-1.63267068564891815185546875">
        <ele>569.4000244140625</ele>
        <time>2022-05-02T09:31:02.000Z</time>
      </trkpt>
      <trkpt lat="41.29119333811104297637939453125" lon="-1.63262349553406238555908203125">
        <ele>569.4000244140625</ele>
        <time>2022-05-02T09:31:04.000Z</time>
      </trkpt>
      <trkpt lat="41.2911253608763217926025390625" lon="-1.63258217275142669677734375">
        <ele>569.79998779296875</ele>
        <time>2022-05-02T09:31:06.000Z</time>
      </trkpt>
      <trkpt lat="41.2911253608763217926025390625" lon="-1.63258217275142669677734375">
        <ele>569.79998779296875</ele>
        <time>2022-05-02T09:31:07.000Z</time>
      </trkpt>
      <trkpt lat="41.2910599820315837860107421875" lon="-1.632535569369792938232421875">
        <ele>570</ele>
        <time>2022-05-02T09:31:08.000Z</time>
      </trkpt>
      <trkpt lat="41.29099376499652862548828125" lon="-1.63248921744525432586669921875">
        <ele>570.20001220703125</ele>
        <time>2022-05-02T09:31:10.000Z</time>
      </trkpt>
      <trkpt lat="41.2909273803234100341796875" lon="-1.6324425302445888519287109375">
        <ele>570.4000244140625</ele>
        <time>2022-05-02T09:31:12.000Z</time>
      </trkpt>
      <trkpt lat="41.290859989821910858154296875" lon="-1.63239249028265476226806640625">
        <ele>571</ele>
        <time>2022-05-02T09:31:14.000Z</time>
      </trkpt>
      <trkpt lat="41.2907951138913631439208984375" lon="-1.63234136067330837249755859375">
        <ele>571.5999755859375</ele>
        <time>2022-05-02T09:31:16.000Z</time>
      </trkpt>
      <trkpt lat="41.29076334647834300994873046875" lon="-1.63231638260185718536376953125">
        <ele>571.79998779296875</ele>
        <time>2022-05-02T09:31:18.000Z</time>
      </trkpt>
      <trkpt lat="41.29069964401423931121826171875" lon="-1.63226491771638393402099609375">
        <ele>572.5999755859375</ele>
        <time>2022-05-02T09:31:19.000Z</time>
      </trkpt>
      <trkpt lat="41.29066863097250461578369140625" lon="-1.63223926909267902374267578125">
        <ele>572.79998779296875</ele>
        <time>2022-05-02T09:31:20.000Z</time>
      </trkpt>
      <trkpt lat="41.29060643725097179412841796875" lon="-1.63218663074076175689697265625">
        <ele>573.20001220703125</ele>
        <time>2022-05-02T09:31:22.000Z</time>
      </trkpt>
      <trkpt lat="41.29054491408169269561767578125" lon="-1.63213248364627361297607421875">
        <ele>574.20001220703125</ele>
        <time>2022-05-02T09:31:24.000Z</time>
      </trkpt>
      <trkpt lat="41.290483810007572174072265625" lon="-1.63207766599953174591064453125">
        <ele>575.4000244140625</ele>
        <time>2022-05-02T09:31:26.000Z</time>
      </trkpt>
      <trkpt lat="41.290483810007572174072265625" lon="-1.63207766599953174591064453125">
        <ele>575.4000244140625</ele>
        <time>2022-05-02T09:31:27.000Z</time>
      </trkpt>
      <trkpt lat="41.2904306687414646148681640625" lon="-1.6320254467427730560302734375">
        <ele>575.79998779296875</ele>
        <time>2022-05-02T09:31:28.000Z</time>
      </trkpt>
      <trkpt lat="41.29037576727569103240966796875" lon="-1.6319805197417736053466796875">
        <ele>576</ele>
        <time>2022-05-02T09:31:30.000Z</time>
      </trkpt>
      <trkpt lat="41.29031994380056858062744140625" lon="-1.63193299435079097747802734375">
        <ele>575.79998779296875</ele>
        <time>2022-05-02T09:31:32.000Z</time>
      </trkpt>
      <trkpt lat="41.290263198316097259521484375" lon="-1.6318799369037151336669921875">
        <ele>575.5999755859375</ele>
        <time>2022-05-02T09:31:34.000Z</time>
      </trkpt>
      <trkpt lat="41.29020041786134243011474609375" lon="-1.6318269632756710052490234375">
        <ele>575.20001220703125</ele>
        <time>2022-05-02T09:31:36.000Z</time>
      </trkpt>
      <trkpt lat="41.29013436846435070037841796875" lon="-1.6317719779908657073974609375">
        <ele>574.4000244140625</ele>
        <time>2022-05-02T09:31:38.000Z</time>
      </trkpt>
      <trkpt lat="41.29010100848972797393798828125" lon="-1.6317444853484630584716796875">
        <ele>574.4000244140625</ele>
        <time>2022-05-02T09:31:40.000Z</time>
      </trkpt>
      <trkpt lat="41.29000260494649410247802734375" lon="-1.63166024722158908843994140625">
        <ele>574.20001220703125</ele>
        <time>2022-05-02T09:31:42.000Z</time>
      </trkpt>
      <trkpt lat="41.2899415008723735809326171875" lon="-1.63159570656716823577880859375">
        <ele>574</ele>
        <time>2022-05-02T09:31:44.000Z</time>
      </trkpt>
      <trkpt lat="41.2899415008723735809326171875" lon="-1.63159570656716823577880859375">
        <ele>574</ele>
        <time>2022-05-02T09:31:45.000Z</time>
      </trkpt>
      <trkpt lat="41.28987729549407958984375" lon="-1.63153468631207942962646484375">
        <ele>573.79998779296875</ele>
        <time>2022-05-02T09:31:46.000Z</time>
      </trkpt>
      <trkpt lat="41.28981417976319789886474609375" lon="-1.63146913982927799224853515625">
        <ele>573.79998779296875</ele>
        <time>2022-05-02T09:31:48.000Z</time>
      </trkpt>
      <trkpt lat="41.289750225841999053955078125" lon="-1.63140065968036651611328125">
        <ele>574</ele>
        <time>2022-05-02T09:31:50.000Z</time>
      </trkpt>
      <trkpt lat="41.28968409262597560882568359375" lon="-1.6313327662646770477294921875">
        <ele>574</ele>
        <time>2022-05-02T09:31:52.000Z</time>
      </trkpt>
      <trkpt lat="41.289617121219635009765625" lon="-1.63126730360090732574462890625">
        <ele>574</ele>
        <time>2022-05-02T09:31:54.000Z</time>
      </trkpt>
      <trkpt lat="41.28955249674618244171142578125" lon="-1.6312020085752010345458984375">
        <ele>574.20001220703125</ele>
        <time>2022-05-02T09:31:56.000Z</time>
      </trkpt>
      <trkpt lat="41.28955249674618244171142578125" lon="-1.6312020085752010345458984375">
        <ele>574.20001220703125</ele>
        <time>2022-05-02T09:31:57.000Z</time>
      </trkpt>
      <trkpt lat="41.2894897162914276123046875" lon="-1.63113587535917758941650390625">
        <ele>574.5999755859375</ele>
        <time>2022-05-02T09:31:58.000Z</time>
      </trkpt>
      <trkpt lat="41.289424002170562744140625" lon="-1.6310709156095981597900390625">
        <ele>574.79998779296875</ele>
        <time>2022-05-02T09:32:00.000Z</time>
      </trkpt>
      <trkpt lat="41.289355941116809844970703125" lon="-1.6310055367648601531982421875">
        <ele>575.20001220703125</ele>
        <time>2022-05-02T09:32:02.000Z</time>
      </trkpt>
      <trkpt lat="41.2892914004623889923095703125" lon="-1.6309378109872341156005859375">
        <ele>575.4000244140625</ele>
        <time>2022-05-02T09:32:04.000Z</time>
      </trkpt>
      <trkpt lat="41.2892317213118076324462890625" lon="-1.63087704218924045562744140625">
        <ele>576</ele>
        <time>2022-05-02T09:32:06.000Z</time>
      </trkpt>
      <trkpt lat="41.28920146264135837554931640625" lon="-1.63084737025201320648193359375">
        <ele>576.4000244140625</ele>
        <time>2022-05-02T09:32:07.000Z</time>
      </trkpt>
      <trkpt lat="41.289170868694782257080078125" lon="-1.63081769831478595733642578125">
        <ele>576.5999755859375</ele>
        <time>2022-05-02T09:32:08.000Z</time>
      </trkpt>
      <trkpt lat="41.289107501506805419921875" lon="-1.630755923688411712646484375">
        <ele>576.5999755859375</ele>
        <time>2022-05-02T09:32:10.000Z</time>
      </trkpt>
      <trkpt lat="41.2890412844717502593994140625" lon="-1.63069121539592742919921875">
        <ele>576.4000244140625</ele>
        <time>2022-05-02T09:32:12.000Z</time>
      </trkpt>
      <trkpt lat="41.288971714675426483154296875" lon="-1.6306234896183013916015625">
        <ele>576.20001220703125</ele>
        <time>2022-05-02T09:32:14.000Z</time>
      </trkpt>
      <trkpt lat="41.2889018096029758453369140625" lon="-1.63055048324167728424072265625">
        <ele>575.79998779296875</ele>
        <time>2022-05-02T09:32:16.000Z</time>
      </trkpt>
      <trkpt lat="41.2889018096029758453369140625" lon="-1.63055048324167728424072265625">
        <ele>575.79998779296875</ele>
        <time>2022-05-02T09:32:17.000Z</time>
      </trkpt>
      <trkpt lat="41.28883433528244495391845703125" lon="-1.630478985607624053955078125">
        <ele>576</ele>
        <time>2022-05-02T09:32:18.000Z</time>
      </trkpt>
      <trkpt lat="41.28880047239363193511962890625" lon="-1.63044487126171588897705078125">
        <ele>576</ele>
        <time>2022-05-02T09:32:19.000Z</time>
      </trkpt>
      <trkpt lat="41.28876560367643833160400390625" lon="-1.63041067309677600860595703125">
        <ele>576</ele>
        <time>2022-05-02T09:32:20.000Z</time>
      </trkpt>
      <trkpt lat="41.28869351930916309356689453125" lon="-1.6303433664143085479736328125">
        <ele>576.4000244140625</ele>
        <time>2022-05-02T09:32:22.000Z</time>
      </trkpt>
      <trkpt lat="41.28862160257995128631591796875" lon="-1.63027170114219188690185546875">
        <ele>576.79998779296875</ele>
        <time>2022-05-02T09:32:24.000Z</time>
      </trkpt>
      <trkpt lat="41.288551948964595794677734375" lon="-1.63019693456590175628662109375">
        <ele>577.4000244140625</ele>
        <time>2022-05-02T09:32:26.000Z</time>
      </trkpt>
      <trkpt lat="41.288551948964595794677734375" lon="-1.63019693456590175628662109375">
        <ele>577.4000244140625</ele>
        <time>2022-05-02T09:32:27.000Z</time>
      </trkpt>
      <trkpt lat="41.288481540977954864501953125" lon="-1.63012392818927764892578125">
        <ele>578</ele>
        <time>2022-05-02T09:32:28.000Z</time>
      </trkpt>
      <trkpt lat="41.28841490484774112701416015625" lon="-1.63005896843969821929931640625">
        <ele>578</ele>
        <time>2022-05-02T09:32:30.000Z</time>
      </trkpt>
      <trkpt lat="41.2883496098220348358154296875" lon="-1.62999962456524372100830078125">
        <ele>577.79998779296875</ele>
        <time>2022-05-02T09:32:32.000Z</time>
      </trkpt>
      <trkpt lat="41.28828884102404117584228515625" lon="-1.6299383528530597686767578125">
        <ele>578.20001220703125</ele>
        <time>2022-05-02T09:32:34.000Z</time>
      </trkpt>
      <trkpt lat="41.28828884102404117584228515625" lon="-1.6299383528530597686767578125">
        <ele>578.20001220703125</ele>
        <time>2022-05-02T09:32:35.000Z</time>
      </trkpt>
      <trkpt lat="41.2882245518267154693603515625" lon="-1.629884541034698486328125">
        <ele>578.5999755859375</ele>
        <time>2022-05-02T09:32:36.000Z</time>
      </trkpt>
      <trkpt lat="41.28816143609583377838134765625" lon="-1.62982125766575336456298828125">
        <ele>578.5999755859375</ele>
        <time>2022-05-02T09:32:38.000Z</time>
      </trkpt>
      <trkpt lat="41.2880958057940006256103515625" lon="-1.62975235842168331146240234375">
        <ele>578.4000244140625</ele>
        <time>2022-05-02T09:32:40.000Z</time>
      </trkpt>
      <trkpt lat="41.28803051076829433441162109375" lon="-1.6296855546534061431884765625">
        <ele>577.79998779296875</ele>
        <time>2022-05-02T09:32:42.000Z</time>
      </trkpt>
      <trkpt lat="41.28796446137130260467529296875" lon="-1.629617325961589813232421875">
        <ele>577.4000244140625</ele>
        <time>2022-05-02T09:32:44.000Z</time>
      </trkpt>
      <trkpt lat="41.2879311852157115936279296875" lon="-1.62958212196826934814453125">
        <ele>577.20001220703125</ele>
        <time>2022-05-02T09:32:46.000Z</time>
      </trkpt>
      <trkpt lat="41.28783320076763629913330078125" lon="-1.6294803656637668609619140625">
        <ele>576.4000244140625</ele>
        <time>2022-05-02T09:32:48.000Z</time>
      </trkpt>
      <trkpt lat="41.28776832483708858489990234375" lon="-1.62941473536193370819091796875">
        <ele>576</ele>
        <time>2022-05-02T09:32:50.000Z</time>
      </trkpt>
      <trkpt lat="41.28776832483708858489990234375" lon="-1.62941473536193370819091796875">
        <ele>576</ele>
        <time>2022-05-02T09:32:51.000Z</time>
      </trkpt>
      <trkpt lat="41.28769355826079845428466796875" lon="-1.629373915493488311767578125">
        <ele>575.5999755859375</ele>
        <time>2022-05-02T09:32:52.000Z</time>
      </trkpt>
      <trkpt lat="41.28761476837098598480224609375" lon="-1.6293583251535892486572265625">
        <ele>575.5999755859375</ele>
        <time>2022-05-02T09:32:54.000Z</time>
      </trkpt>
      <trkpt lat="41.28758090548217296600341796875" lon="-1.62934365682303905487060546875">
        <ele>575.5999755859375</ele>
        <time>2022-05-02T09:32:55.000Z</time>
      </trkpt>
      <trkpt lat="41.28755517303943634033203125" lon="-1.62931901402771472930908203125">
        <ele>575.5999755859375</ele>
        <time>2022-05-02T09:32:56.000Z</time>
      </trkpt>
      <trkpt lat="41.28755517303943634033203125" lon="-1.62931901402771472930908203125">
        <ele>575.5999755859375</ele>
        <time>2022-05-02T09:32:57.000Z</time>
      </trkpt>
      <trkpt lat="41.28751116804778575897216796875" lon="-1.629243828356266021728515625">
        <ele>575.79998779296875</ele>
        <time>2022-05-02T09:32:58.000Z</time>
      </trkpt>
      <trkpt lat="41.28751116804778575897216796875" lon="-1.629243828356266021728515625">
        <ele>575.79998779296875</ele>
        <time>2022-05-02T09:32:59.000Z</time>
      </trkpt>
      <trkpt lat="41.2874554283916950225830078125" lon="-1.62917132489383220672607421875">
        <ele>575.79998779296875</ele>
        <time>2022-05-02T09:33:00.000Z</time>
      </trkpt>
      <trkpt lat="41.2873949110507965087890625" lon="-1.6291095502674579620361328125">
        <ele>576</ele>
        <time>2022-05-02T09:33:02.000Z</time>
      </trkpt>
      <trkpt lat="41.28733682446181774139404296875" lon="-1.6290557384490966796875">
        <ele>576.20001220703125</ele>
        <time>2022-05-02T09:33:04.000Z</time>
      </trkpt>
      <trkpt lat="41.28733682446181774139404296875" lon="-1.6290557384490966796875">
        <ele>576.20001220703125</ele>
        <time>2022-05-02T09:33:05.000Z</time>
      </trkpt>
      <trkpt lat="41.28727446310222148895263671875" lon="-1.62899949587881565093994140625">
        <ele>576.79998779296875</ele>
        <time>2022-05-02T09:33:06.000Z</time>
      </trkpt>
      <trkpt lat="41.2872116826474666595458984375" lon="-1.62893596105277538299560546875">
        <ele>577.4000244140625</ele>
        <time>2022-05-02T09:33:08.000Z</time>
      </trkpt>
      <trkpt lat="41.28714881837368011474609375" lon="-1.628871001303195953369140625">
        <ele>578.20001220703125</ele>
        <time>2022-05-02T09:33:10.000Z</time>
      </trkpt>
      <trkpt lat="41.287083439528942108154296875" lon="-1.6288074664771556854248046875">
        <ele>578.5999755859375</ele>
        <time>2022-05-02T09:33:12.000Z</time>
      </trkpt>
      <trkpt lat="41.28705033101141452789306640625" lon="-1.628774106502532958984375">
        <ele>578.79998779296875</ele>
        <time>2022-05-02T09:33:13.000Z</time>
      </trkpt>
      <trkpt lat="41.2870185635983943939208984375" lon="-1.62874066270887851715087890625">
        <ele>579</ele>
        <time>2022-05-02T09:33:14.000Z</time>
      </trkpt>
      <trkpt lat="41.28695435822010040283203125" lon="-1.62867293693125247955322265625">
        <ele>579.5999755859375</ele>
        <time>2022-05-02T09:33:16.000Z</time>
      </trkpt>
      <trkpt lat="41.2868874706327915191650390625" lon="-1.6286073066294193267822265625">
        <ele>579.79998779296875</ele>
        <time>2022-05-02T09:33:18.000Z</time>
      </trkpt>
      <trkpt lat="41.286823935806751251220703125" lon="-1.62854083813726902008056640625">
        <ele>579.4000244140625</ele>
        <time>2022-05-02T09:33:20.000Z</time>
      </trkpt>
      <trkpt lat="41.28676283173263072967529296875" lon="-1.62847462110221385955810546875">
        <ele>579</ele>
        <time>2022-05-02T09:33:22.000Z</time>
      </trkpt>
      <trkpt lat="41.28669627942144870758056640625" lon="-1.62841108627617359161376953125">
        <ele>578.4000244140625</ele>
        <time>2022-05-02T09:33:24.000Z</time>
      </trkpt>
      <trkpt lat="41.2866611592471599578857421875" lon="-1.62838242016732692718505859375">
        <ele>578.20001220703125</ele>
        <time>2022-05-02T09:33:25.000Z</time>
      </trkpt>
      <trkpt lat="41.286626793444156646728515625" lon="-1.62835693918168544769287109375">
        <ele>578</ele>
        <time>2022-05-02T09:33:26.000Z</time>
      </trkpt>
      <trkpt lat="41.28655462525784969329833984375" lon="-1.62831502966582775115966796875">
        <ele>578</ele>
        <time>2022-05-02T09:33:28.000Z</time>
      </trkpt>
      <trkpt lat="41.28651984035968780517578125" lon="-1.6282954998314380645751953125">
        <ele>578</ele>
        <time>2022-05-02T09:33:30.000Z</time>
      </trkpt>
      <trkpt lat="41.28646125085651874542236328125" lon="-1.6282472200691699981689453125">
        <ele>578</ele>
        <time>2022-05-02T09:33:31.000Z</time>
      </trkpt>
      <trkpt lat="41.286442391574382781982421875" lon="-1.6282175481319427490234375">
        <ele>578.20001220703125</ele>
        <time>2022-05-02T09:33:32.000Z</time>
      </trkpt>
      <trkpt lat="41.28642688505351543426513671875" lon="-1.6281566955149173736572265625">
        <ele>578.4000244140625</ele>
        <time>2022-05-02T09:33:34.000Z</time>
      </trkpt>
      <trkpt lat="41.28642336465418338775634765625" lon="-1.62810078822076320648193359375">
        <ele>578.5999755859375</ele>
        <time>2022-05-02T09:33:36.000Z</time>
      </trkpt>
      <trkpt lat="41.2864244543015956878662109375" lon="-1.628069020807743072509765625">
        <ele>578.5999755859375</ele>
        <time>2022-05-02T09:33:37.000Z</time>
      </trkpt>
      <trkpt lat="41.28642705269157886505126953125" lon="-1.62804177962243556976318359375">
        <ele>578.5999755859375</ele>
        <time>2022-05-02T09:33:38.000Z</time>
      </trkpt>
      <trkpt lat="41.2864328362047672271728515625" lon="-1.6280043125152587890625">
        <ele>578.5999755859375</ele>
        <time>2022-05-02T09:33:40.000Z</time>
      </trkpt>
      <trkpt lat="41.28643526695668697357177734375" lon="-1.627980172634124755859375">
        <ele>578.5999755859375</ele>
        <time>2022-05-02T09:33:42.000Z</time>
      </trkpt>
      <trkpt lat="41.286434344947338104248046875" lon="-1.62797606550157070159912109375">
        <ele>578.5999755859375</ele>
        <time>2022-05-02T09:33:43.000Z</time>
      </trkpt>
      <trkpt lat="41.28643476404249668121337890625" lon="-1.6279756464064121246337890625">
        <ele>578.5999755859375</ele>
        <time>2022-05-02T09:33:44.000Z</time>
      </trkpt>
      <trkpt lat="41.2864311598241329193115234375" lon="-1.62793600000441074371337890625">
        <ele>578.5999755859375</ele>
        <time>2022-05-02T09:33:50.000Z</time>
      </trkpt>
      <trkpt lat="41.2864311598241329193115234375" lon="-1.62793600000441074371337890625">
        <ele>578.5999755859375</ele>
        <time>2022-05-02T09:33:51.000Z</time>
      </trkpt>
      <trkpt lat="41.28640852868556976318359375" lon="-1.6278998740017414093017578125">
        <ele>578.79998779296875</ele>
        <time>2022-05-02T09:33:52.000Z</time>
      </trkpt>
      <trkpt lat="41.286379359662532806396484375" lon="-1.6278639994561672210693359375">
        <ele>578.79998779296875</ele>
        <time>2022-05-02T09:33:54.000Z</time>
      </trkpt>
      <trkpt lat="41.286343820393085479736328125" lon="-1.62782988511025905609130859375">
        <ele>579</ele>
        <time>2022-05-02T09:33:56.000Z</time>
      </trkpt>
      <trkpt lat="41.286343820393085479736328125" lon="-1.62782988511025905609130859375">
        <ele>579</ele>
        <time>2022-05-02T09:33:57.000Z</time>
      </trkpt>
      <trkpt lat="41.286306269466876983642578125" lon="-1.6277982853353023529052734375">
        <ele>579</ele>
        <time>2022-05-02T09:33:58.000Z</time>
      </trkpt>
      <trkpt lat="41.28626746125519275665283203125" lon="-1.62777238525450229644775390625">
        <ele>579</ele>
        <time>2022-05-02T09:34:00.000Z</time>
      </trkpt>
      <trkpt lat="41.2862266413867473602294921875" lon="-1.6277473233640193939208984375">
        <ele>579</ele>
        <time>2022-05-02T09:34:02.000Z</time>
      </trkpt>
      <trkpt lat="41.2861911021173000335693359375" lon="-1.62770616821944713592529296875">
        <ele>579</ele>
        <time>2022-05-02T09:34:04.000Z</time>
      </trkpt>
      <trkpt lat="41.2861911021173000335693359375" lon="-1.62770616821944713592529296875">
        <ele>579</ele>
        <time>2022-05-02T09:34:05.000Z</time>
      </trkpt>
      <trkpt lat="41.2861585803329944610595703125" lon="-1.627650596201419830322265625">
        <ele>578.79998779296875</ele>
        <time>2022-05-02T09:34:06.000Z</time>
      </trkpt>
      <trkpt lat="41.28612379543483257293701171875" lon="-1.627591587603092193603515625">
        <ele>578.4000244140625</ele>
        <time>2022-05-02T09:34:08.000Z</time>
      </trkpt>
      <trkpt lat="41.286087334156036376953125" lon="-1.62753081880509853363037109375">
        <ele>578.20001220703125</ele>
        <time>2022-05-02T09:34:10.000Z</time>
      </trkpt>
      <trkpt lat="41.286087334156036376953125" lon="-1.62753081880509853363037109375">
        <ele>578.20001220703125</ele>
        <time>2022-05-02T09:34:11.000Z</time>
      </trkpt>
      <trkpt lat="41.28604752011597156524658203125" lon="-1.62747658789157867431640625">
        <ele>577.79998779296875</ele>
        <time>2022-05-02T09:34:12.000Z</time>
      </trkpt>
      <trkpt lat="41.2860013358294963836669921875" lon="-1.62742084823548793792724609375">
        <ele>577.4000244140625</ele>
        <time>2022-05-02T09:34:14.000Z</time>
      </trkpt>
      <trkpt lat="41.285946182906627655029296875" lon="-1.62736988626420497894287109375">
        <ele>577</ele>
        <time>2022-05-02T09:34:16.000Z</time>
      </trkpt>
      <trkpt lat="41.285883486270904541015625" lon="-1.6273258812725543975830078125">
        <ele>577</ele>
        <time>2022-05-02T09:34:18.000Z</time>
      </trkpt>
      <trkpt lat="41.28581668250262737274169921875" lon="-1.62727969698607921600341796875">
        <ele>577</ele>
        <time>2022-05-02T09:34:20.000Z</time>
      </trkpt>
      <trkpt lat="41.28575063310563564300537109375" lon="-1.627218760550022125244140625">
        <ele>577.20001220703125</ele>
        <time>2022-05-02T09:34:22.000Z</time>
      </trkpt>
      <trkpt lat="41.28568458370864391326904296875" lon="-1.62715204060077667236328125">
        <ele>577.5999755859375</ele>
        <time>2022-05-02T09:34:24.000Z</time>
      </trkpt>
      <trkpt lat="41.28565239720046520233154296875" lon="-1.627118177711963653564453125">
        <ele>577.79998779296875</ele>
        <time>2022-05-02T09:34:25.000Z</time>
      </trkpt>
      <trkpt lat="41.285619623959064483642578125" lon="-1.6270844824612140655517578125">
        <ele>578.20001220703125</ele>
        <time>2022-05-02T09:34:26.000Z</time>
      </trkpt>
      <trkpt lat="41.28555617295205593109130859375" lon="-1.6270231269299983978271484375">
        <ele>578.5999755859375</ele>
        <time>2022-05-02T09:34:28.000Z</time>
      </trkpt>
      <trkpt lat="41.285490207374095916748046875" lon="-1.62697694264352321624755859375">
        <ele>579</ele>
        <time>2022-05-02T09:34:30.000Z</time>
      </trkpt>
      <trkpt lat="41.2854216434061527252197265625" lon="-1.6269228793680667877197265625">
        <ele>579.5999755859375</ele>
        <time>2022-05-02T09:34:32.000Z</time>
      </trkpt>
      <trkpt lat="41.2854216434061527252197265625" lon="-1.6269228793680667877197265625">
        <ele>579.5999755859375</ele>
        <time>2022-05-02T09:34:33.000Z</time>
      </trkpt>
      <trkpt lat="41.28535299561917781829833984375" lon="-1.62685657851397991180419921875">
        <ele>580</ele>
        <time>2022-05-02T09:34:34.000Z</time>
      </trkpt>
      <trkpt lat="41.285282671451568603515625" lon="-1.62679337896406650543212890625">
        <ele>580.5999755859375</ele>
        <time>2022-05-02T09:34:36.000Z</time>
      </trkpt>
      <trkpt lat="41.28521134145557880401611328125" lon="-1.62672598846256732940673828125">
        <ele>581</ele>
        <time>2022-05-02T09:34:38.000Z</time>
      </trkpt>
      <trkpt lat="41.2851416878402233123779296875" lon="-1.626655496656894683837890625">
        <ele>581</ele>
        <time>2022-05-02T09:34:40.000Z</time>
      </trkpt>
      <trkpt lat="41.2850742973387241363525390625" lon="-1.6265842504799365997314453125">
        <ele>581</ele>
        <time>2022-05-02T09:34:42.000Z</time>
      </trkpt>
      <trkpt lat="41.2850404344499111175537109375" lon="-1.62654661573469638824462890625">
        <ele>581</ele>
        <time>2022-05-02T09:34:43.000Z</time>
      </trkpt>
      <trkpt lat="41.28500682301819324493408203125" lon="-1.6265091486275196075439453125">
        <ele>581</ele>
        <time>2022-05-02T09:34:44.000Z</time>
      </trkpt>
      <trkpt lat="41.284935660660266876220703125" lon="-1.62643597461283206939697265625">
        <ele>581</ele>
        <time>2022-05-02T09:34:46.000Z</time>
      </trkpt>
      <trkpt lat="41.2848620675504207611083984375" lon="-1.62636456079781055450439453125">
        <ele>581.20001220703125</ele>
        <time>2022-05-02T09:34:48.000Z</time>
      </trkpt>
      <trkpt lat="41.2847879715263843536376953125" lon="-1.62629482336342334747314453125">
        <ele>581.5999755859375</ele>
        <time>2022-05-02T09:34:50.000Z</time>
      </trkpt>
      <trkpt lat="41.28471496514976024627685546875" lon="-1.62622424773871898651123046875">
        <ele>581.79998779296875</ele>
        <time>2022-05-02T09:34:52.000Z</time>
      </trkpt>
      <trkpt lat="41.28464506007730960845947265625" lon="-1.62616155110299587249755859375">
        <ele>582</ele>
        <time>2022-05-02T09:34:54.000Z</time>
      </trkpt>
      <trkpt lat="41.284578256309032440185546875" lon="-1.6261074878275394439697265625">
        <ele>582.20001220703125</ele>
        <time>2022-05-02T09:34:56.000Z</time>
      </trkpt>
      <trkpt lat="41.2845147214829921722412109375" lon="-1.626057364046573638916015625">
        <ele>582.20001220703125</ele>
        <time>2022-05-02T09:34:58.000Z</time>
      </trkpt>
      <trkpt lat="41.28445814363658428192138671875" lon="-1.62599961273372173309326171875">
        <ele>582.20001220703125</ele>
        <time>2022-05-02T09:35:00.000Z</time>
      </trkpt>
      <trkpt lat="41.28440047614276409149169921875" lon="-1.6259311325848102569580078125">
        <ele>582.20001220703125</ele>
        <time>2022-05-02T09:35:02.000Z</time>
      </trkpt>
      <trkpt lat="41.2843383662402629852294921875" lon="-1.6258603893220424652099609375">
        <ele>581.5999755859375</ele>
        <time>2022-05-02T09:35:04.000Z</time>
      </trkpt>
      <trkpt lat="41.28427483141422271728515625" lon="-1.62578838877379894256591796875">
        <ele>580.4000244140625</ele>
        <time>2022-05-02T09:35:06.000Z</time>
      </trkpt>
      <trkpt lat="41.28420769236981868743896484375" lon="-1.62572099827229976654052734375">
        <ele>579.4000244140625</ele>
        <time>2022-05-02T09:35:08.000Z</time>
      </trkpt>
      <trkpt lat="41.28414533101022243499755859375" lon="-1.62565813399851322174072265625">
        <ele>579.20001220703125</ele>
        <time>2022-05-02T09:35:10.000Z</time>
      </trkpt>
      <trkpt lat="41.284084059298038482666015625" lon="-1.6255992092192173004150390625">
        <ele>578.79998779296875</ele>
        <time>2022-05-02T09:35:12.000Z</time>
      </trkpt>
      <trkpt lat="41.28402194939553737640380859375" lon="-1.62554631941020488739013671875">
        <ele>578</ele>
        <time>2022-05-02T09:35:14.000Z</time>
      </trkpt>
      <trkpt lat="41.28395774401724338531494140625" lon="-1.62549569271504878997802734375">
        <ele>577.20001220703125</ele>
        <time>2022-05-02T09:35:16.000Z</time>
      </trkpt>
      <trkpt lat="41.2838968075811862945556640625" lon="-1.625439114868640899658203125">
        <ele>577</ele>
        <time>2022-05-02T09:35:18.000Z</time>
      </trkpt>
      <trkpt lat="41.28387107513844966888427734375" lon="-1.62540382705628871917724609375">
        <ele>577</ele>
        <time>2022-05-02T09:35:19.000Z</time>
      </trkpt>
      <trkpt lat="41.283842660486698150634765625" lon="-1.62536434829235076904296875">
        <ele>577</ele>
        <time>2022-05-02T09:35:20.000Z</time>
      </trkpt>
      <trkpt lat="41.28377065993845462799072265625" lon="-1.62528312765061855316162109375">
        <ele>577</ele>
        <time>2022-05-02T09:35:22.000Z</time>
      </trkpt>
      <trkpt lat="41.28369371406733989715576171875" lon="-1.6252092830836772918701171875">
        <ele>577</ele>
        <time>2022-05-02T09:35:24.000Z</time>
      </trkpt>
      <trkpt lat="41.28361475653946399688720703125" lon="-1.625136025249958038330078125">
        <ele>577</ele>
        <time>2022-05-02T09:35:26.000Z</time>
      </trkpt>
      <trkpt lat="41.2835330329835414886474609375" lon="-1.6250574029982089996337890625">
        <ele>577</ele>
        <time>2022-05-02T09:35:28.000Z</time>
      </trkpt>
      <trkpt lat="41.28345566801726818084716796875" lon="-1.624975763261318206787109375">
        <ele>577</ele>
        <time>2022-05-02T09:35:30.000Z</time>
      </trkpt>
      <trkpt lat="41.28338140435516834259033203125" lon="-1.6248981468379497528076171875">
        <ele>577</ele>
        <time>2022-05-02T09:35:32.000Z</time>
      </trkpt>
      <trkpt lat="41.28338140435516834259033203125" lon="-1.6248981468379497528076171875">
        <ele>577</ele>
        <time>2022-05-02T09:35:33.000Z</time>
      </trkpt>
      <trkpt lat="41.28330697305500507354736328125" lon="-1.62482514046132564544677734375">
        <ele>577</ele>
        <time>2022-05-02T09:35:34.000Z</time>
      </trkpt>
      <trkpt lat="41.283233799040317535400390625" lon="-1.62475137971341609954833984375">
        <ele>577.20001220703125</ele>
        <time>2022-05-02T09:35:36.000Z</time>
      </trkpt>
      <trkpt lat="41.28315576352179050445556640625" lon="-1.6246771998703479766845703125">
        <ele>577.79998779296875</ele>
        <time>2022-05-02T09:35:38.000Z</time>
      </trkpt>
      <trkpt lat="41.2830797396600246429443359375" lon="-1.62460302002727985382080078125">
        <ele>578.4000244140625</ele>
        <time>2022-05-02T09:35:40.000Z</time>
      </trkpt>
      <trkpt lat="41.283004470169544219970703125" lon="-1.62452749907970428466796875">
        <ele>579</ele>
        <time>2022-05-02T09:35:42.000Z</time>
      </trkpt>
      <trkpt lat="41.2829258479177951812744140625" lon="-1.6244508884847164154052734375">
        <ele>578.5999755859375</ele>
        <time>2022-05-02T09:35:44.000Z</time>
      </trkpt>
      <trkpt lat="41.28284454345703125" lon="-1.6243734396994113922119140625">
        <ele>578</ele>
        <time>2022-05-02T09:35:46.000Z</time>
      </trkpt>
      <trkpt lat="41.2827573716640472412109375" lon="-1.624297834932804107666015625">
        <ele>578</ele>
        <time>2022-05-02T09:35:48.000Z</time>
      </trkpt>
      <trkpt lat="41.282672882080078125" lon="-1.6242232359945774078369140625">
        <ele>578</ele>
        <time>2022-05-02T09:35:50.000Z</time>
      </trkpt>
      <trkpt lat="41.282672882080078125" lon="-1.6242232359945774078369140625">
        <ele>578</ele>
        <time>2022-05-02T09:35:51.000Z</time>
      </trkpt>
      <trkpt lat="41.282591409981250762939453125" lon="-1.6241451166570186614990234375">
        <ele>578</ele>
        <time>2022-05-02T09:35:52.000Z</time>
      </trkpt>
      <trkpt lat="41.2825119495391845703125" lon="-1.624065823853015899658203125">
        <ele>578.20001220703125</ele>
        <time>2022-05-02T09:35:54.000Z</time>
      </trkpt>
      <trkpt lat="41.28243483603000640869140625" lon="-1.62398795597255229949951171875">
        <ele>578.79998779296875</ele>
        <time>2022-05-02T09:35:56.000Z</time>
      </trkpt>
      <trkpt lat="41.28243483603000640869140625" lon="-1.62398795597255229949951171875">
        <ele>578.79998779296875</ele>
        <time>2022-05-02T09:35:57.000Z</time>
      </trkpt>
      <trkpt lat="41.2823585607111454010009765625" lon="-1.6239120997488498687744140625">
        <ele>579</ele>
        <time>2022-05-02T09:35:58.000Z</time>
      </trkpt>
      <trkpt lat="41.28228236921131610870361328125" lon="-1.62383942864835262298583984375">
        <ele>579.4000244140625</ele>
        <time>2022-05-02T09:36:00.000Z</time>
      </trkpt>
      <trkpt lat="41.28220760263502597808837890625" lon="-1.62376801483333110809326171875">
        <ele>579.5999755859375</ele>
        <time>2022-05-02T09:36:02.000Z</time>
      </trkpt>
      <trkpt lat="41.282135434448719024658203125" lon="-1.62369274534285068511962890625">
        <ele>579.79998779296875</ele>
        <time>2022-05-02T09:36:04.000Z</time>
      </trkpt>
      <trkpt lat="41.28206276334822177886962890625" lon="-1.623619906604290008544921875">
        <ele>579.4000244140625</ele>
        <time>2022-05-02T09:36:06.000Z</time>
      </trkpt>
      <trkpt lat="41.28202873282134532928466796875" lon="-1.623583026230335235595703125">
        <ele>579.20001220703125</ele>
        <time>2022-05-02T09:36:07.000Z</time>
      </trkpt>
      <trkpt lat="41.28199839033186435699462890625" lon="-1.62354572676122188568115234375">
        <ele>579.20001220703125</ele>
        <time>2022-05-02T09:36:08.000Z</time>
      </trkpt>
      <trkpt lat="41.2819404713809490203857421875" lon="-1.6234826110303401947021484375">
        <ele>579</ele>
        <time>2022-05-02T09:36:10.000Z</time>
      </trkpt>
      <trkpt lat="41.2818955443799495697021484375" lon="-1.62344112060964107513427734375">
        <ele>578.79998779296875</ele>
        <time>2022-05-02T09:36:12.000Z</time>
      </trkpt>
      <trkpt lat="41.281879954040050506591796875" lon="-1.6234306432306766510009765625">
        <ele>578.79998779296875</ele>
        <time>2022-05-02T09:36:14.000Z</time>
      </trkpt>
      <trkpt lat="41.281879954040050506591796875" lon="-1.6234306432306766510009765625">
        <ele>578.79998779296875</ele>
        <time>2022-05-02T09:36:15.000Z</time>
      </trkpt>
      <trkpt lat="41.281861849129199981689453125" lon="-1.62341463379561901092529296875">
        <ele>578.5999755859375</ele>
        <time>2022-05-02T09:37:37.000Z</time>
      </trkpt>
      <trkpt lat="41.28184701316058635711669921875" lon="-1.6234031505882740020751953125">
        <ele>578.5999755859375</ele>
        <time>2022-05-02T09:37:38.000Z</time>
      </trkpt>
      <trkpt lat="41.28181390464305877685546875" lon="-1.62336836569011211395263671875">
        <ele>578.79998779296875</ele>
        <time>2022-05-02T09:37:40.000Z</time>
      </trkpt>
      <trkpt lat="41.281778030097484588623046875" lon="-1.62332863546907901763916015625">
        <ele>578.79998779296875</ele>
        <time>2022-05-02T09:37:42.000Z</time>
      </trkpt>
      <trkpt lat="41.2817339412868022918701171875" lon="-1.623283959925174713134765625">
        <ele>578.79998779296875</ele>
        <time>2022-05-02T09:37:44.000Z</time>
      </trkpt>
      <trkpt lat="41.28168624825775623321533203125" lon="-1.623231656849384307861328125">
        <ele>578.79998779296875</ele>
        <time>2022-05-02T09:37:46.000Z</time>
      </trkpt>
      <trkpt lat="41.281636543571949005126953125" lon="-1.62317926995456218719482421875">
        <ele>578.79998779296875</ele>
        <time>2022-05-02T09:37:48.000Z</time>
      </trkpt>
      <trkpt lat="41.281585581600666046142578125" lon="-1.62312562577426433563232421875">
        <ele>578.79998779296875</ele>
        <time>2022-05-02T09:37:50.000Z</time>
      </trkpt>
      <trkpt lat="41.281535290181636810302734375" lon="-1.6230690479278564453125">
        <ele>579</ele>
        <time>2022-05-02T09:37:52.000Z</time>
      </trkpt>
      <trkpt lat="41.28148357383906841278076171875" lon="-1.62300995551049709320068359375">
        <ele>579.20001220703125</ele>
        <time>2022-05-02T09:37:54.000Z</time>
      </trkpt>
      <trkpt lat="41.28145658411085605621337890625" lon="-1.6229813732206821441650390625">
        <ele>579.4000244140625</ele>
        <time>2022-05-02T09:37:55.000Z</time>
      </trkpt>
      <trkpt lat="41.28142842091619968414306640625" lon="-1.622953377664089202880859375">
        <ele>579.4000244140625</ele>
        <time>2022-05-02T09:37:56.000Z</time>
      </trkpt>
      <trkpt lat="41.28137108869850635528564453125" lon="-1.6228935308754444122314453125">
        <ele>579.79998779296875</ele>
        <time>2022-05-02T09:37:58.000Z</time>
      </trkpt>
      <trkpt lat="41.2813138402998447418212890625" lon="-1.6228328458964824676513671875">
        <ele>580</ele>
        <time>2022-05-02T09:38:00.000Z</time>
      </trkpt>
      <trkpt lat="41.28126262687146663665771484375" lon="-1.62277610041201114654541015625">
        <ele>580.20001220703125</ele>
        <time>2022-05-02T09:38:02.000Z</time>
      </trkpt>
      <trkpt lat="41.28126262687146663665771484375" lon="-1.62277610041201114654541015625">
        <ele>580.20001220703125</ele>
        <time>2022-05-02T09:38:03.000Z</time>
      </trkpt>
      <trkpt lat="41.281212083995342254638671875" lon="-1.622718684375286102294921875">
        <ele>580.4000244140625</ele>
        <time>2022-05-02T09:38:04.000Z</time>
      </trkpt>
      <trkpt lat="41.28116120584309101104736328125" lon="-1.62266395054757595062255859375">
        <ele>580.4000244140625</ele>
        <time>2022-05-02T09:38:06.000Z</time>
      </trkpt>
      <trkpt lat="41.2811086513102054595947265625" lon="-1.6226085461676120758056640625">
        <ele>580.20001220703125</ele>
        <time>2022-05-02T09:38:08.000Z</time>
      </trkpt>
      <trkpt lat="41.28105291165411472320556640625" lon="-1.62255079485476016998291015625">
        <ele>580</ele>
        <time>2022-05-02T09:38:10.000Z</time>
      </trkpt>
      <trkpt lat="41.2809973396360874176025390625" lon="-1.6224910318851470947265625">
        <ele>579.79998779296875</ele>
        <time>2022-05-02T09:38:12.000Z</time>
      </trkpt>
      <trkpt lat="41.28094444982707500457763671875" lon="-1.622436046600341796875">
        <ele>579.5999755859375</ele>
        <time>2022-05-02T09:38:14.000Z</time>
      </trkpt>
      <trkpt lat="41.28089214675128459930419921875" lon="-1.62238131277263164520263671875">
        <ele>579.4000244140625</ele>
        <time>2022-05-02T09:38:16.000Z</time>
      </trkpt>
      <trkpt lat="41.2808394245803356170654296875" lon="-1.62232766859233379364013671875">
        <ele>579.20001220703125</ele>
        <time>2022-05-02T09:38:18.000Z</time>
      </trkpt>
      <trkpt lat="41.28078469075262546539306640625" lon="-1.62227352149784564971923828125">
        <ele>579</ele>
        <time>2022-05-02T09:38:20.000Z</time>
      </trkpt>
      <trkpt lat="41.28072836436331272125244140625" lon="-1.622224487364292144775390625">
        <ele>578.79998779296875</ele>
        <time>2022-05-02T09:38:22.000Z</time>
      </trkpt>
      <trkpt lat="41.28067170269787311553955078125" lon="-1.62217427976429462432861328125">
        <ele>578.79998779296875</ele>
        <time>2022-05-02T09:38:24.000Z</time>
      </trkpt>
      <trkpt lat="41.28061772324144840240478515625" lon="-1.6221190430223941802978515625">
        <ele>578.5999755859375</ele>
        <time>2022-05-02T09:38:26.000Z</time>
      </trkpt>
      <trkpt lat="41.280562318861484527587890625" lon="-1.62206296809017658233642578125">
        <ele>578.79998779296875</ele>
        <time>2022-05-02T09:38:28.000Z</time>
      </trkpt>
      <trkpt lat="41.28050859086215496063232421875" lon="-1.62200890481472015380859375">
        <ele>579</ele>
        <time>2022-05-02T09:38:30.000Z</time>
      </trkpt>
      <trkpt lat="41.2804533541202545166015625" lon="-1.62195500917732715606689453125">
        <ele>579.4000244140625</ele>
        <time>2022-05-02T09:38:32.000Z</time>
      </trkpt>
      <trkpt lat="41.280396692454814910888671875" lon="-1.621897257864475250244140625">
        <ele>580</ele>
        <time>2022-05-02T09:38:34.000Z</time>
      </trkpt>
      <trkpt lat="41.280336342751979827880859375" lon="-1.62183380685746669769287109375">
        <ele>580.5999755859375</ele>
        <time>2022-05-02T09:38:36.000Z</time>
      </trkpt>
      <trkpt lat="41.2803039886057376861572265625" lon="-1.6218022070825099945068359375">
        <ele>581</ele>
        <time>2022-05-02T09:38:37.000Z</time>
      </trkpt>
      <trkpt lat="41.2802714668214321136474609375" lon="-1.62177060730755329132080078125">
        <ele>581.4000244140625</ele>
        <time>2022-05-02T09:38:38.000Z</time>
      </trkpt>
      <trkpt lat="41.2802084349095821380615234375" lon="-1.621707491576671600341796875">
        <ele>582</ele>
        <time>2022-05-02T09:38:40.000Z</time>
      </trkpt>
      <trkpt lat="41.28015621565282344818115234375" lon="-1.6216546855866909027099609375">
        <ele>582.4000244140625</ele>
        <time>2022-05-02T09:38:42.000Z</time>
      </trkpt>
      <trkpt lat="41.28012436442077159881591796875" lon="-1.621618978679180145263671875">
        <ele>582.5999755859375</ele>
        <time>2022-05-02T09:38:44.000Z</time>
      </trkpt>
      <trkpt lat="41.2801118753850460052490234375" lon="-1.6216005384922027587890625">
        <ele>582.79998779296875</ele>
        <time>2022-05-02T09:38:46.000Z</time>
      </trkpt>
      <trkpt lat="41.2801118753850460052490234375" lon="-1.6216005384922027587890625">
        <ele>582.79998779296875</ele>
        <time>2022-05-02T09:38:47.000Z</time>
      </trkpt>
      <trkpt lat="41.28010533750057220458984375" lon="-1.62156642414629459381103515625">
        <ele>582.79998779296875</ele>
        <time>2022-05-02T09:38:53.000Z</time>
      </trkpt>
      <trkpt lat="41.2801199220120906829833984375" lon="-1.621512360870838165283203125">
        <ele>583</ele>
        <time>2022-05-02T09:38:54.000Z</time>
      </trkpt>
      <trkpt lat="41.2801410444080829620361328125" lon="-1.62148210220038890838623046875">
        <ele>583.20001220703125</ele>
        <time>2022-05-02T09:38:55.000Z</time>
      </trkpt>
      <trkpt lat="41.2801671959459781646728515625" lon="-1.62145427428185939788818359375">
        <ele>583.20001220703125</ele>
        <time>2022-05-02T09:38:56.000Z</time>
      </trkpt>
      <trkpt lat="41.28022293560206890106201171875" lon="-1.62139375694096088409423828125">
        <ele>583</ele>
        <time>2022-05-02T09:38:58.000Z</time>
      </trkpt>
      <trkpt lat="41.28028571605682373046875" lon="-1.62132904864847660064697265625">
        <ele>582.79998779296875</ele>
        <time>2022-05-02T09:39:00.000Z</time>
      </trkpt>
      <trkpt lat="41.2803567945957183837890625" lon="-1.62126517854630947113037109375">
        <ele>582.4000244140625</ele>
        <time>2022-05-02T09:39:02.000Z</time>
      </trkpt>
      <trkpt lat="41.2804327346384525299072265625" lon="-1.62119694985449314117431640625">
        <ele>582.20001220703125</ele>
        <time>2022-05-02T09:39:04.000Z</time>
      </trkpt>
      <trkpt lat="41.28050641156733036041259765625" lon="-1.62111841142177581787109375">
        <ele>582</ele>
        <time>2022-05-02T09:39:06.000Z</time>
      </trkpt>
      <trkpt lat="41.2805742211639881134033203125" lon="-1.62102595902979373931884765625">
        <ele>582.4000244140625</ele>
        <time>2022-05-02T09:39:08.000Z</time>
      </trkpt>
      <trkpt lat="41.2805742211639881134033203125" lon="-1.62102595902979373931884765625">
        <ele>582.4000244140625</ele>
        <time>2022-05-02T09:39:09.000Z</time>
      </trkpt>
      <trkpt lat="41.2806412763893604278564453125" lon="-1.6209211014211177825927734375">
        <ele>582.79998779296875</ele>
        <time>2022-05-02T09:39:10.000Z</time>
      </trkpt>
      <trkpt lat="41.28071528859436511993408203125" lon="-1.6208119690418243408203125">
        <ele>583.20001220703125</ele>
        <time>2022-05-02T09:39:12.000Z</time>
      </trkpt>
      <trkpt lat="41.28079491667449474334716796875" lon="-1.6207046806812286376953125">
        <ele>583.4000244140625</ele>
        <time>2022-05-02T09:39:14.000Z</time>
      </trkpt>
      <trkpt lat="41.28088326193392276763916015625" lon="-1.62060678005218505859375">
        <ele>583.20001220703125</ele>
        <time>2022-05-02T09:39:16.000Z</time>
      </trkpt>
      <trkpt lat="41.28097646869719028472900390625" lon="-1.62051315419375896453857421875">
        <ele>582.5999755859375</ele>
        <time>2022-05-02T09:39:18.000Z</time>
      </trkpt>
      <trkpt lat="41.28106682561337947845458984375" lon="-1.6204165108501911163330078125">
        <ele>582</ele>
        <time>2022-05-02T09:39:20.000Z</time>
      </trkpt>
      <trkpt lat="41.281151734292507171630859375" lon="-1.62031567655503749847412109375">
        <ele>581.5999755859375</ele>
        <time>2022-05-02T09:39:22.000Z</time>
      </trkpt>
      <trkpt lat="41.28123228438198566436767578125" lon="-1.62021744064986705780029296875">
        <ele>581</ele>
        <time>2022-05-02T09:39:24.000Z</time>
      </trkpt>
      <trkpt lat="41.28127343952655792236328125" lon="-1.62017318420112133026123046875">
        <ele>580.79998779296875</ele>
        <time>2022-05-02T09:39:25.000Z</time>
      </trkpt>
      <trkpt lat="41.28131459467113018035888671875" lon="-1.62013278342783451080322265625">
        <ele>580.4000244140625</ele>
        <time>2022-05-02T09:39:26.000Z</time>
      </trkpt>
      <trkpt lat="41.2813760340213775634765625" lon="-1.6200554184615612030029296875">
        <ele>580</ele>
        <time>2022-05-02T09:39:28.000Z</time>
      </trkpt>
      <trkpt lat="41.2813760340213775634765625" lon="-1.6200554184615612030029296875">
        <ele>580</ele>
        <time>2022-05-02T09:39:29.000Z</time>
      </trkpt>
      <trkpt lat="41.2813765369355678558349609375" lon="-1.6199779696762561798095703125">
        <ele>579.79998779296875</ele>
        <time>2022-05-02T09:39:30.000Z</time>
      </trkpt>
      <trkpt lat="41.281354241073131561279296875" lon="-1.61995223723351955413818359375">
        <ele>580</ele>
        <time>2022-05-02T09:39:31.000Z</time>
      </trkpt>
      <trkpt lat="41.28132163546979427337646484375" lon="-1.61993547342717647552490234375">
        <ele>580</ele>
        <time>2022-05-02T09:39:32.000Z</time>
      </trkpt>
      <trkpt lat="41.28124795854091644287109375" lon="-1.61990781314671039581298828125">
        <ele>580.5999755859375</ele>
        <time>2022-05-02T09:39:34.000Z</time>
      </trkpt>
      <trkpt lat="41.2811748683452606201171875" lon="-1.6198649816215038299560546875">
        <ele>581</ele>
        <time>2022-05-02T09:39:36.000Z</time>
      </trkpt>
      <trkpt lat="41.28110320307314395904541015625" lon="-1.61980873905122280120849609375">
        <ele>581</ele>
        <time>2022-05-02T09:39:38.000Z</time>
      </trkpt>
      <trkpt lat="41.2810301966965198516845703125" lon="-1.61974134854972362518310546875">
        <ele>581</ele>
        <time>2022-05-02T09:39:40.000Z</time>
      </trkpt>
      <trkpt lat="41.280953921377658843994140625" lon="-1.61967563442885875701904296875">
        <ele>580.79998779296875</ele>
        <time>2022-05-02T09:39:42.000Z</time>
      </trkpt>
      <trkpt lat="41.2808739580214023590087890625" lon="-1.61961562000215053558349609375">
        <ele>580.4000244140625</ele>
        <time>2022-05-02T09:39:44.000Z</time>
      </trkpt>
      <trkpt lat="41.28079374320805072784423828125" lon="-1.61955024115741252899169921875">
        <ele>580.20001220703125</ele>
        <time>2022-05-02T09:39:46.000Z</time>
      </trkpt>
      <trkpt lat="41.2807147018611431121826171875" lon="-1.619482599198818206787109375">
        <ele>580</ele>
        <time>2022-05-02T09:39:48.000Z</time>
      </trkpt>
      <trkpt lat="41.28063515760004520416259765625" lon="-1.61941361613571643829345703125">
        <ele>579.79998779296875</ele>
        <time>2022-05-02T09:39:50.000Z</time>
      </trkpt>
      <trkpt lat="41.28055469132959842681884765625" lon="-1.61934505216777324676513671875">
        <ele>579.5999755859375</ele>
        <time>2022-05-02T09:39:52.000Z</time>
      </trkpt>
      <trkpt lat="41.28055469132959842681884765625" lon="-1.61934505216777324676513671875">
        <ele>579.5999755859375</ele>
        <time>2022-05-02T09:39:53.000Z</time>
      </trkpt>
      <trkpt lat="41.2804733030498027801513671875" lon="-1.61927464418113231658935546875">
        <ele>579.4000244140625</ele>
        <time>2022-05-02T09:39:54.000Z</time>
      </trkpt>
      <trkpt lat="41.28043332137167453765869140625" lon="-1.61923826672136783599853515625">
        <ele>579.4000244140625</ele>
        <time>2022-05-02T09:39:55.000Z</time>
      </trkpt>
      <trkpt lat="41.2803925015032291412353515625" lon="-1.619203649461269378662109375">
        <ele>579.4000244140625</ele>
        <time>2022-05-02T09:39:56.000Z</time>
      </trkpt>
      <trkpt lat="41.280310191214084625244140625" lon="-1.61913894116878509521484375">
        <ele>579.5999755859375</ele>
        <time>2022-05-02T09:39:58.000Z</time>
      </trkpt>
      <trkpt lat="41.280232407152652740478515625" lon="-1.61907213740050792694091796875">
        <ele>580</ele>
        <time>2022-05-02T09:40:00.000Z</time>
      </trkpt>
      <trkpt lat="41.28015386871993541717529296875" lon="-1.61900357343256473541259765625">
        <ele>580.5999755859375</ele>
        <time>2022-05-02T09:40:02.000Z</time>
      </trkpt>
      <trkpt lat="41.280073821544647216796875" lon="-1.61893199197947978973388671875">
        <ele>580.5999755859375</ele>
        <time>2022-05-02T09:40:04.000Z</time>
      </trkpt>
      <trkpt lat="41.280073821544647216796875" lon="-1.61893199197947978973388671875">
        <ele>580.5999755859375</ele>
        <time>2022-05-02T09:40:05.000Z</time>
      </trkpt>
      <trkpt lat="41.2799968756735324859619140625" lon="-1.61885756067931652069091796875">
        <ele>580.79998779296875</ele>
        <time>2022-05-02T09:40:06.000Z</time>
      </trkpt>
      <trkpt lat="41.279918588697910308837890625" lon="-1.6187806986272335052490234375">
        <ele>581</ele>
        <time>2022-05-02T09:40:08.000Z</time>
      </trkpt>
      <trkpt lat="41.279918588697910308837890625" lon="-1.6187806986272335052490234375">
        <ele>581</ele>
        <time>2022-05-02T09:40:09.000Z</time>
      </trkpt>
      <trkpt lat="41.27984239719808101654052734375" lon="-1.6187055967748165130615234375">
        <ele>581.4000244140625</ele>
        <time>2022-05-02T09:40:10.000Z</time>
      </trkpt>
      <trkpt lat="41.279771067202091217041015625" lon="-1.6186408884823322296142578125">
        <ele>581.5999755859375</ele>
        <time>2022-05-02T09:40:12.000Z</time>
      </trkpt>
      <trkpt lat="41.27973393537104129791259765625" lon="-1.618607528507709503173828125">
        <ele>581.5999755859375</ele>
        <time>2022-05-02T09:40:13.000Z</time>
      </trkpt>
      <trkpt lat="41.27969990484416484832763671875" lon="-1.61857928149402141571044921875">
        <ele>581.5999755859375</ele>
        <time>2022-05-02T09:40:14.000Z</time>
      </trkpt>
      <trkpt lat="41.2796272337436676025390625" lon="-1.61851624958217144012451171875">
        <ele>581.5999755859375</ele>
        <time>2022-05-02T09:40:16.000Z</time>
      </trkpt>
      <trkpt lat="41.27955020405352115631103515625" lon="-1.61844684742391109466552734375">
        <ele>581.4000244140625</ele>
        <time>2022-05-02T09:40:18.000Z</time>
      </trkpt>
      <trkpt lat="41.27951013855636119842529296875" lon="-1.61841030232608318328857421875">
        <ele>581.5999755859375</ele>
        <time>2022-05-02T09:40:19.000Z</time>
      </trkpt>
      <trkpt lat="41.2794694863259792327880859375" lon="-1.61837409250438213348388671875">
        <ele>581.5999755859375</ele>
        <time>2022-05-02T09:40:20.000Z</time>
      </trkpt>
      <trkpt lat="41.27938491292297840118408203125" lon="-1.61829932592809200286865234375">
        <ele>582</ele>
        <time>2022-05-02T09:40:22.000Z</time>
      </trkpt>
      <trkpt lat="41.27930042333900928497314453125" lon="-1.61822020076215267181396484375">
        <ele>582.5999755859375</ele>
        <time>2022-05-02T09:40:24.000Z</time>
      </trkpt>
      <trkpt lat="41.27921761013567447662353515625" lon="-1.61814275197684764862060546875">
        <ele>583.20001220703125</ele>
        <time>2022-05-02T09:40:26.000Z</time>
      </trkpt>
      <trkpt lat="41.27921761013567447662353515625" lon="-1.61814275197684764862060546875">
        <ele>583.20001220703125</ele>
        <time>2022-05-02T09:40:27.000Z</time>
      </trkpt>
      <trkpt lat="41.27913613803684711456298828125" lon="-1.61806597374379634857177734375">
        <ele>583.5999755859375</ele>
        <time>2022-05-02T09:40:28.000Z</time>
      </trkpt>
      <trkpt lat="41.2790520675480365753173828125" lon="-1.61799238063395023345947265625">
        <ele>583.79998779296875</ele>
        <time>2022-05-02T09:40:30.000Z</time>
      </trkpt>
      <trkpt lat="41.278971098363399505615234375" lon="-1.61792113445699214935302734375">
        <ele>583.79998779296875</ele>
        <time>2022-05-02T09:40:32.000Z</time>
      </trkpt>
      <trkpt lat="41.27888761460781097412109375" lon="-1.6178561747074127197265625">
        <ele>584</ele>
        <time>2022-05-02T09:40:34.000Z</time>
      </trkpt>
      <trkpt lat="41.27888761460781097412109375" lon="-1.6178561747074127197265625">
        <ele>584</ele>
        <time>2022-05-02T09:40:35.000Z</time>
      </trkpt>
      <trkpt lat="41.278806142508983612060546875" lon="-1.61778702400624752044677734375">
        <ele>584</ele>
        <time>2022-05-02T09:40:36.000Z</time>
      </trkpt>
      <trkpt lat="41.27872257493436336517333984375" lon="-1.61772516556084156036376953125">
        <ele>583.5999755859375</ele>
        <time>2022-05-02T09:40:38.000Z</time>
      </trkpt>
      <trkpt lat="41.27863909117877483367919921875" lon="-1.6176612116396427154541015625">
        <ele>583.20001220703125</ele>
        <time>2022-05-02T09:40:40.000Z</time>
      </trkpt>
      <trkpt lat="41.27863909117877483367919921875" lon="-1.6176612116396427154541015625">
        <ele>583.20001220703125</ele>
        <time>2022-05-02T09:40:41.000Z</time>
      </trkpt>
      <trkpt lat="41.27855862490832805633544921875" lon="-1.6175965033471584320068359375">
        <ele>582.4000244140625</ele>
        <time>2022-05-02T09:40:42.000Z</time>
      </trkpt>
      <trkpt lat="41.2784827686846256256103515625" lon="-1.6175274364650249481201171875">
        <ele>582.20001220703125</ele>
        <time>2022-05-02T09:40:44.000Z</time>
      </trkpt>
      <trkpt lat="41.2784069962799549102783203125" lon="-1.61746130324900150299072265625">
        <ele>582.5999755859375</ele>
        <time>2022-05-02T09:40:46.000Z</time>
      </trkpt>
      <trkpt lat="41.27833164297044277191162109375" lon="-1.617397852241992950439453125">
        <ele>582.79998779296875</ele>
        <time>2022-05-02T09:40:48.000Z</time>
      </trkpt>
      <trkpt lat="41.2782534398138523101806640625" lon="-1.61734052002429962158203125">
        <ele>583.20001220703125</ele>
        <time>2022-05-02T09:40:50.000Z</time>
      </trkpt>
      <trkpt lat="41.27817255444824695587158203125" lon="-1.61729819141328334808349609375">
        <ele>583.5999755859375</ele>
        <time>2022-05-02T09:40:52.000Z</time>
      </trkpt>
      <trkpt lat="41.27808789722621440887451171875" lon="-1.61726684309542179107666015625">
        <ele>583.79998779296875</ele>
        <time>2022-05-02T09:40:54.000Z</time>
      </trkpt>
      <trkpt lat="41.278002150356769561767578125" lon="-1.6172390989959239959716796875">
        <ele>584</ele>
        <time>2022-05-02T09:40:56.000Z</time>
      </trkpt>
      <trkpt lat="41.27791489474475383758544921875" lon="-1.61720716394484043121337890625">
        <ele>584.5999755859375</ele>
        <time>2022-05-02T09:40:58.000Z</time>
      </trkpt>
      <trkpt lat="41.27782587893307209014892578125" lon="-1.6171775758266448974609375">
        <ele>585.20001220703125</ele>
        <time>2022-05-02T09:41:00.000Z</time>
      </trkpt>
      <trkpt lat="41.27773820422589778900146484375" lon="-1.617149747908115386962890625">
        <ele>585.79998779296875</ele>
        <time>2022-05-02T09:41:02.000Z</time>
      </trkpt>
      <trkpt lat="41.27765304408967494964599609375" lon="-1.6171220876276493072509765625">
        <ele>586.20001220703125</ele>
        <time>2022-05-02T09:41:04.000Z</time>
      </trkpt>
      <trkpt lat="41.27765304408967494964599609375" lon="-1.6171220876276493072509765625">
        <ele>586.20001220703125</ele>
        <time>2022-05-02T09:41:05.000Z</time>
      </trkpt>
      <trkpt lat="41.2775704823434352874755859375" lon="-1.617093421518802642822265625">
        <ele>586.5999755859375</ele>
        <time>2022-05-02T09:41:06.000Z</time>
      </trkpt>
      <trkpt lat="41.27748942933976650238037109375" lon="-1.6170637495815753936767578125">
        <ele>586.79998779296875</ele>
        <time>2022-05-02T09:41:08.000Z</time>
      </trkpt>
      <trkpt lat="41.27740745432674884796142578125" lon="-1.6170352511107921600341796875">
        <ele>587</ele>
        <time>2022-05-02T09:41:10.000Z</time>
      </trkpt>
      <trkpt lat="41.27732522785663604736328125" lon="-1.61699811927974224090576171875">
        <ele>587</ele>
        <time>2022-05-02T09:41:12.000Z</time>
      </trkpt>
      <trkpt lat="41.277244426310062408447265625" lon="-1.6169624961912631988525390625">
        <ele>587</ele>
        <time>2022-05-02T09:41:14.000Z</time>
      </trkpt>
      <trkpt lat="41.277244426310062408447265625" lon="-1.6169624961912631988525390625">
        <ele>587</ele>
        <time>2022-05-02T09:41:15.000Z</time>
      </trkpt>
      <trkpt lat="41.27716052345931529998779296875" lon="-1.6169296391308307647705078125">
        <ele>587</ele>
        <time>2022-05-02T09:41:16.000Z</time>
      </trkpt>
      <trkpt lat="41.27716052345931529998779296875" lon="-1.6169296391308307647705078125">
        <ele>587</ele>
        <time>2022-05-02T09:41:17.000Z</time>
      </trkpt>
      <trkpt lat="41.2770739383995532989501953125" lon="-1.61689837463200092315673828125">
        <ele>587</ele>
        <time>2022-05-02T09:41:18.000Z</time>
      </trkpt>
      <trkpt lat="41.27698802389204502105712890625" lon="-1.61687624640762805938720703125">
        <ele>587</ele>
        <time>2022-05-02T09:41:20.000Z</time>
      </trkpt>
      <trkpt lat="41.27690454013645648956298828125" lon="-1.61685814149677753448486328125">
        <ele>587.4000244140625</ele>
        <time>2022-05-02T09:41:22.000Z</time>
      </trkpt>
      <trkpt lat="41.2768238224089145660400390625" lon="-1.616843640804290771484375">
        <ele>588</ele>
        <time>2022-05-02T09:41:24.000Z</time>
      </trkpt>
      <trkpt lat="41.27674846909940242767333984375" lon="-1.6168371029198169708251953125">
        <ele>588.4000244140625</ele>
        <time>2022-05-02T09:41:26.000Z</time>
      </trkpt>
      <trkpt lat="41.27668359316885471343994140625" lon="-1.61683098413050174713134765625">
        <ele>588.79998779296875</ele>
        <time>2022-05-02T09:41:28.000Z</time>
      </trkpt>
      <trkpt lat="41.2766330502927303314208984375" lon="-1.616784632205963134765625">
        <ele>588.79998779296875</ele>
        <time>2022-05-02T09:41:30.000Z</time>
      </trkpt>
      <trkpt lat="41.2766048870980739593505859375" lon="-1.61669989116489887237548828125">
        <ele>589</ele>
        <time>2022-05-02T09:41:32.000Z</time>
      </trkpt>
      <trkpt lat="41.2766048870980739593505859375" lon="-1.61669989116489887237548828125">
        <ele>589</ele>
        <time>2022-05-02T09:41:33.000Z</time>
      </trkpt>
      <trkpt lat="41.27659474499523639678955078125" lon="-1.61660919897258281707763671875">
        <ele>589</ele>
        <time>2022-05-02T09:41:34.000Z</time>
      </trkpt>
      <trkpt lat="41.2765797413885593414306640625" lon="-1.616522781550884246826171875">
        <ele>589</ele>
        <time>2022-05-02T09:41:36.000Z</time>
      </trkpt>
      <trkpt lat="41.27654881216585636138916015625" lon="-1.61643393337726593017578125">
        <ele>589</ele>
        <time>2022-05-02T09:41:38.000Z</time>
      </trkpt>
      <trkpt lat="41.27650623209774494171142578125" lon="-1.616342402994632720947265625">
        <ele>588.79998779296875</ele>
        <time>2022-05-02T09:41:40.000Z</time>
      </trkpt>
      <trkpt lat="41.27645510248839855194091796875" lon="-1.61624978296458721160888671875">
        <ele>588.4000244140625</ele>
        <time>2022-05-02T09:41:42.000Z</time>
      </trkpt>
      <trkpt lat="41.27639827318489551544189453125" lon="-1.6161585040390491485595703125">
        <ele>588</ele>
        <time>2022-05-02T09:41:44.000Z</time>
      </trkpt>
      <trkpt lat="41.27639827318489551544189453125" lon="-1.6161585040390491485595703125">
        <ele>588</ele>
        <time>2022-05-02T09:41:45.000Z</time>
      </trkpt>
      <trkpt lat="41.27633951604366302490234375" lon="-1.61606169305741786956787109375">
        <ele>587.79998779296875</ele>
        <time>2022-05-02T09:41:46.000Z</time>
      </trkpt>
      <trkpt lat="41.2762786634266376495361328125" lon="-1.61596345715224742889404296875">
        <ele>587.5999755859375</ele>
        <time>2022-05-02T09:41:48.000Z</time>
      </trkpt>
      <trkpt lat="41.276219151914119720458984375" lon="-1.615862287580966949462890625">
        <ele>587.79998779296875</ele>
        <time>2022-05-02T09:41:50.000Z</time>
      </trkpt>
      <trkpt lat="41.27615788020193576812744140625" lon="-1.61576212383806705474853515625">
        <ele>588.5999755859375</ele>
        <time>2022-05-02T09:41:52.000Z</time>
      </trkpt>
      <trkpt lat="41.27609753049910068511962890625" lon="-1.61566891707479953765869140625">
        <ele>588.79998779296875</ele>
        <time>2022-05-02T09:41:54.000Z</time>
      </trkpt>
      <trkpt lat="41.27604447305202484130859375" lon="-1.615580655634403228759765625">
        <ele>589</ele>
        <time>2022-05-02T09:41:56.000Z</time>
      </trkpt>
      <trkpt lat="41.27604447305202484130859375" lon="-1.615580655634403228759765625">
        <ele>589</ele>
        <time>2022-05-02T09:41:57.000Z</time>
      </trkpt>
      <trkpt lat="41.2759977020323276519775390625" lon="-1.6155027039349079132080078125">
        <ele>589.20001220703125</ele>
        <time>2022-05-02T09:41:58.000Z</time>
      </trkpt>
      <trkpt lat="41.2759490869939327239990234375" lon="-1.61543455906212329864501953125">
        <ele>589.4000244140625</ele>
        <time>2022-05-02T09:42:00.000Z</time>
      </trkpt>
      <trkpt lat="41.27588731236755847930908203125" lon="-1.61536934785544872283935546875">
        <ele>589.5999755859375</ele>
        <time>2022-05-02T09:42:02.000Z</time>
      </trkpt>
      <trkpt lat="41.27588731236755847930908203125" lon="-1.61536934785544872283935546875">
        <ele>589.5999755859375</ele>
        <time>2022-05-02T09:42:03.000Z</time>
      </trkpt>
      <trkpt lat="41.27582176588475704193115234375" lon="-1.61530815996229648590087890625">
        <ele>589.79998779296875</ele>
        <time>2022-05-02T09:42:04.000Z</time>
      </trkpt>
      <trkpt lat="41.27582176588475704193115234375" lon="-1.61530815996229648590087890625">
        <ele>589.79998779296875</ele>
        <time>2022-05-02T09:42:05.000Z</time>
      </trkpt>
      <trkpt lat="41.2757539562880992889404296875" lon="-1.61524571478366851806640625">
        <ele>590.20001220703125</ele>
        <time>2022-05-02T09:42:06.000Z</time>
      </trkpt>
      <trkpt lat="41.2756915949285030364990234375" lon="-1.61517756991088390350341796875">
        <ele>590.5999755859375</ele>
        <time>2022-05-02T09:42:08.000Z</time>
      </trkpt>
      <trkpt lat="41.275635771453380584716796875" lon="-1.61510213278234004974365234375">
        <ele>590.79998779296875</ele>
        <time>2022-05-02T09:42:10.000Z</time>
      </trkpt>
      <trkpt lat="41.275635771453380584716796875" lon="-1.61510213278234004974365234375">
        <ele>590.79998779296875</ele>
        <time>2022-05-02T09:42:11.000Z</time>
      </trkpt>
      <trkpt lat="41.275580115616321563720703125" lon="-1.615009345114231109619140625">
        <ele>590.5999755859375</ele>
        <time>2022-05-02T09:42:12.000Z</time>
      </trkpt>
      <trkpt lat="41.27552814781665802001953125" lon="-1.614906750619411468505859375">
        <ele>590.4000244140625</ele>
        <time>2022-05-02T09:42:14.000Z</time>
      </trkpt>
      <trkpt lat="41.27547743730247020721435546875" lon="-1.6147946007549762725830078125">
        <ele>590.20001220703125</ele>
        <time>2022-05-02T09:42:16.000Z</time>
      </trkpt>
      <trkpt lat="41.27547743730247020721435546875" lon="-1.6147946007549762725830078125">
        <ele>590.20001220703125</ele>
        <time>2022-05-02T09:42:17.000Z</time>
      </trkpt>
      <trkpt lat="41.27542044036090373992919921875" lon="-1.61468270234763622283935546875">
        <ele>590.5999755859375</ele>
        <time>2022-05-02T09:42:18.000Z</time>
      </trkpt>
      <trkpt lat="41.27536159940063953399658203125" lon="-1.61458178423345088958740234375">
        <ele>590.79998779296875</ele>
        <time>2022-05-02T09:42:20.000Z</time>
      </trkpt>
      <trkpt lat="41.27530342899262905120849609375" lon="-1.61447701044380664825439453125">
        <ele>590.5999755859375</ele>
        <time>2022-05-02T09:42:22.000Z</time>
      </trkpt>
      <trkpt lat="41.275241486728191375732421875" lon="-1.6143795289099216461181640625">
        <ele>591</ele>
        <time>2022-05-02T09:42:24.000Z</time>
      </trkpt>
      <trkpt lat="41.27518340013921260833740234375" lon="-1.61428087390959262847900390625">
        <ele>591.20001220703125</ele>
        <time>2022-05-02T09:42:26.000Z</time>
      </trkpt>
      <trkpt lat="41.27512070350348949432373046875" lon="-1.614179201424121856689453125">
        <ele>591.4000244140625</ele>
        <time>2022-05-02T09:42:28.000Z</time>
      </trkpt>
      <trkpt lat="41.27506412565708160400390625" lon="-1.614080630242824554443359375">
        <ele>591.5999755859375</ele>
        <time>2022-05-02T09:42:30.000Z</time>
      </trkpt>
      <trkpt lat="41.2750039435923099517822265625" lon="-1.6139842383563518524169921875">
        <ele>591.79998779296875</ele>
        <time>2022-05-02T09:42:32.000Z</time>
      </trkpt>
      <trkpt lat="41.2749466113746166229248046875" lon="-1.61389111541211605072021484375">
        <ele>592</ele>
        <time>2022-05-02T09:42:34.000Z</time>
      </trkpt>
      <trkpt lat="41.27488936297595500946044921875" lon="-1.61380059085786342620849609375">
        <ele>592.20001220703125</ele>
        <time>2022-05-02T09:42:36.000Z</time>
      </trkpt>
      <trkpt lat="41.2748597748577594757080078125" lon="-1.6137542389333248138427734375">
        <ele>592.20001220703125</ele>
        <time>2022-05-02T09:42:37.000Z</time>
      </trkpt>
      <trkpt lat="41.2748301029205322265625" lon="-1.6137076355516910552978515625">
        <ele>592.20001220703125</ele>
        <time>2022-05-02T09:42:38.000Z</time>
      </trkpt>
      <trkpt lat="41.27476983703672885894775390625" lon="-1.61361434496939182281494140625">
        <ele>591.79998779296875</ele>
        <time>2022-05-02T09:42:40.000Z</time>
      </trkpt>
      <trkpt lat="41.27470529638230800628662109375" lon="-1.613522730767726898193359375">
        <ele>591.4000244140625</ele>
        <time>2022-05-02T09:42:42.000Z</time>
      </trkpt>
      <trkpt lat="41.2746317870914936065673828125" lon="-1.61343664862215518951416015625">
        <ele>590.4000244140625</ele>
        <time>2022-05-02T09:42:44.000Z</time>
      </trkpt>
      <trkpt lat="41.2745519913733005523681640625" lon="-1.61335609853267669677734375">
        <ele>590.4000244140625</ele>
        <time>2022-05-02T09:42:46.000Z</time>
      </trkpt>
      <trkpt lat="41.27447026781737804412841796875" lon="-1.61328040994703769683837890625">
        <ele>590.5999755859375</ele>
        <time>2022-05-02T09:42:48.000Z</time>
      </trkpt>
      <trkpt lat="41.27438955008983612060546875" lon="-1.61319994367659091949462890625">
        <ele>591</ele>
        <time>2022-05-02T09:42:50.000Z</time>
      </trkpt>
      <trkpt lat="41.274308748543262481689453125" lon="-1.61311729811131954193115234375">
        <ele>591</ele>
        <time>2022-05-02T09:42:52.000Z</time>
      </trkpt>
      <trkpt lat="41.27423071302473545074462890625" lon="-1.61303331144154071807861328125">
        <ele>590.79998779296875</ele>
        <time>2022-05-02T09:42:54.000Z</time>
      </trkpt>
      <trkpt lat="41.27415527589619159698486328125" lon="-1.61295016296207904815673828125">
        <ele>590.79998779296875</ele>
        <time>2022-05-02T09:42:56.000Z</time>
      </trkpt>
      <trkpt lat="41.27415527589619159698486328125" lon="-1.61295016296207904815673828125">
        <ele>590.79998779296875</ele>
        <time>2022-05-02T09:42:57.000Z</time>
      </trkpt>
      <trkpt lat="41.274079419672489166259765625" lon="-1.61286919377744197845458984375">
        <ele>591</ele>
        <time>2022-05-02T09:42:58.000Z</time>
      </trkpt>
      <trkpt lat="41.27400331199169158935546875" lon="-1.61279493011534214019775390625">
        <ele>591.4000244140625</ele>
        <time>2022-05-02T09:43:00.000Z</time>
      </trkpt>
      <trkpt lat="41.27393248490989208221435546875" lon="-1.6127296350896358489990234375">
        <ele>591.5999755859375</ele>
        <time>2022-05-02T09:43:02.000Z</time>
      </trkpt>
      <trkpt lat="41.27385872416198253631591796875" lon="-1.61266677081584930419921875">
        <ele>591.79998779296875</ele>
        <time>2022-05-02T09:43:04.000Z</time>
      </trkpt>
      <trkpt lat="41.2737853825092315673828125" lon="-1.61260030232369899749755859375">
        <ele>591.79998779296875</ele>
        <time>2022-05-02T09:43:06.000Z</time>
      </trkpt>
      <trkpt lat="41.27374741248786449432373046875" lon="-1.61256325431168079376220703125">
        <ele>591.79998779296875</ele>
        <time>2022-05-02T09:43:07.000Z</time>
      </trkpt>
      <trkpt lat="41.27370617352426052093505859375" lon="-1.61252168007194995880126953125">
        <ele>591.5999755859375</ele>
        <time>2022-05-02T09:43:08.000Z</time>
      </trkpt>
      <trkpt lat="41.2736236117780208587646484375" lon="-1.61244305782020092010498046875">
        <ele>591</ele>
        <time>2022-05-02T09:43:10.000Z</time>
      </trkpt>
      <trkpt lat="41.27353920601308345794677734375" lon="-1.61236770451068878173828125">
        <ele>590.4000244140625</ele>
        <time>2022-05-02T09:43:12.000Z</time>
      </trkpt>
      <trkpt lat="41.27345941029489040374755859375" lon="-1.61228732205927371978759765625">
        <ele>590.20001220703125</ele>
        <time>2022-05-02T09:43:14.000Z</time>
      </trkpt>
      <trkpt lat="41.27338506281375885009765625" lon="-1.61220543086528778076171875">
        <ele>589.79998779296875</ele>
        <time>2022-05-02T09:43:16.000Z</time>
      </trkpt>
      <trkpt lat="41.2733121402561664581298828125" lon="-1.6121311672031879425048828125">
        <ele>589.79998779296875</ele>
        <time>2022-05-02T09:43:18.000Z</time>
      </trkpt>
      <trkpt lat="41.2732380442321300506591796875" lon="-1.61205782555043697357177734375">
        <ele>590.20001220703125</ele>
        <time>2022-05-02T09:43:20.000Z</time>
      </trkpt>
      <trkpt lat="41.27316285856068134307861328125" lon="-1.611987836658954620361328125">
        <ele>590</ele>
        <time>2022-05-02T09:43:22.000Z</time>
      </trkpt>
      <trkpt lat="41.27308775670826435089111328125" lon="-1.611918099224567413330078125">
        <ele>589.79998779296875</ele>
        <time>2022-05-02T09:43:24.000Z</time>
      </trkpt>
      <trkpt lat="41.2730164267122745513916015625" lon="-1.61184760741889476776123046875">
        <ele>590</ele>
        <time>2022-05-02T09:43:26.000Z</time>
      </trkpt>
      <trkpt lat="41.2729460187256336212158203125" lon="-1.6117801330983638763427734375">
        <ele>590.20001220703125</ele>
        <time>2022-05-02T09:43:28.000Z</time>
      </trkpt>
      <trkpt lat="41.27287317998707294464111328125" lon="-1.61171735264360904693603515625">
        <ele>590.4000244140625</ele>
        <time>2022-05-02T09:43:30.000Z</time>
      </trkpt>
      <trkpt lat="41.27280570566654205322265625" lon="-1.61165331490337848663330078125">
        <ele>590.79998779296875</ele>
        <time>2022-05-02T09:43:32.000Z</time>
      </trkpt>
      <trkpt lat="41.27276279032230377197265625" lon="-1.61154652945697307586669921875">
        <ele>591</ele>
        <time>2022-05-02T09:43:34.000Z</time>
      </trkpt>
      <trkpt lat="41.2727528996765613555908203125" lon="-1.61140370182693004608154296875">
        <ele>591</ele>
        <time>2022-05-02T09:43:36.000Z</time>
      </trkpt>
      <trkpt lat="41.272762455046176910400390625" lon="-1.6112540848553180694580078125">
        <ele>591.20001220703125</ele>
        <time>2022-05-02T09:43:38.000Z</time>
      </trkpt>
      <trkpt lat="41.27277343533933162689208984375" lon="-1.611112765967845916748046875">
        <ele>591.5999755859375</ele>
        <time>2022-05-02T09:43:40.000Z</time>
      </trkpt>
      <trkpt lat="41.27278198488056659698486328125" lon="-1.6109808348119258880615234375">
        <ele>591.5999755859375</ele>
        <time>2022-05-02T09:43:42.000Z</time>
      </trkpt>
      <trkpt lat="41.27279137261211872100830078125" lon="-1.61085334606468677520751953125">
        <ele>591.4000244140625</ele>
        <time>2022-05-02T09:43:44.000Z</time>
      </trkpt>
      <trkpt lat="41.27279137261211872100830078125" lon="-1.61085334606468677520751953125">
        <ele>591.4000244140625</ele>
        <time>2022-05-02T09:43:45.000Z</time>
      </trkpt>
      <trkpt lat="41.27280302345752716064453125" lon="-1.6107226721942424774169921875">
        <ele>591.20001220703125</ele>
        <time>2022-05-02T09:43:46.000Z</time>
      </trkpt>
      <trkpt lat="41.27280302345752716064453125" lon="-1.6107226721942424774169921875">
        <ele>591.20001220703125</ele>
        <time>2022-05-02T09:43:47.000Z</time>
      </trkpt>
      <trkpt lat="41.272823810577392578125" lon="-1.61058194003999233245849609375">
        <ele>590.5999755859375</ele>
        <time>2022-05-02T09:43:48.000Z</time>
      </trkpt>
      <trkpt lat="41.27285088412463665008544921875" lon="-1.6104282997548580169677734375">
        <ele>590</ele>
        <time>2022-05-02T09:43:50.000Z</time>
      </trkpt>
      <trkpt lat="41.27285088412463665008544921875" lon="-1.6104282997548580169677734375">
        <ele>590</ele>
        <time>2022-05-02T09:43:51.000Z</time>
      </trkpt>
      <trkpt lat="41.27287141978740692138671875" lon="-1.61026795394718647003173828125">
        <ele>589.4000244140625</ele>
        <time>2022-05-02T09:43:52.000Z</time>
      </trkpt>
      <trkpt lat="41.272883154451847076416015625" lon="-1.61011154763400554656982421875">
        <ele>589.20001220703125</ele>
        <time>2022-05-02T09:43:54.000Z</time>
      </trkpt>
      <trkpt lat="41.27289547584950923919677734375" lon="-1.60996310412883758544921875">
        <ele>589</ele>
        <time>2022-05-02T09:43:56.000Z</time>
      </trkpt>
      <trkpt lat="41.27289547584950923919677734375" lon="-1.60996310412883758544921875">
        <ele>589</ele>
        <time>2022-05-02T09:43:57.000Z</time>
      </trkpt>
      <trkpt lat="41.27291609533131122589111328125" lon="-1.609815917909145355224609375">
        <ele>589</ele>
        <time>2022-05-02T09:43:58.000Z</time>
      </trkpt>
      <trkpt lat="41.27291609533131122589111328125" lon="-1.609815917909145355224609375">
        <ele>589</ele>
        <time>2022-05-02T09:43:59.000Z</time>
      </trkpt>
      <trkpt lat="41.2729324400424957275390625" lon="-1.60966403782367706298828125">
        <ele>588.5999755859375</ele>
        <time>2022-05-02T09:44:00.000Z</time>
      </trkpt>
      <trkpt lat="41.2729520536959171295166015625" lon="-1.60951274447143077850341796875">
        <ele>588.20001220703125</ele>
        <time>2022-05-02T09:44:02.000Z</time>
      </trkpt>
      <trkpt lat="41.27297426573932170867919921875" lon="-1.60936304368078708648681640625">
        <ele>588</ele>
        <time>2022-05-02T09:44:04.000Z</time>
      </trkpt>
      <trkpt lat="41.27297426573932170867919921875" lon="-1.60936304368078708648681640625">
        <ele>588</ele>
        <time>2022-05-02T09:44:05.000Z</time>
      </trkpt>
      <trkpt lat="41.27299756743013858795166015625" lon="-1.60921317525207996368408203125">
        <ele>588</ele>
        <time>2022-05-02T09:44:06.000Z</time>
      </trkpt>
      <trkpt lat="41.27302103675901889801025390625" lon="-1.60906548611819744110107421875">
        <ele>587.5999755859375</ele>
        <time>2022-05-02T09:44:08.000Z</time>
      </trkpt>
      <trkpt lat="41.27302103675901889801025390625" lon="-1.60906548611819744110107421875">
        <ele>587.5999755859375</ele>
        <time>2022-05-02T09:44:09.000Z</time>
      </trkpt>
      <trkpt lat="41.27304886467754840850830078125" lon="-1.60892265848815441131591796875">
        <ele>587</ele>
        <time>2022-05-02T09:44:10.000Z</time>
      </trkpt>
      <trkpt lat="41.2730784527957439422607421875" lon="-1.608786620199680328369140625">
        <ele>587</ele>
        <time>2022-05-02T09:44:12.000Z</time>
      </trkpt>
      <trkpt lat="41.273109130561351776123046875" lon="-1.608657538890838623046875">
        <ele>587</ele>
        <time>2022-05-02T09:44:14.000Z</time>
      </trkpt>
      <trkpt lat="41.27313704229891300201416015625" lon="-1.60853390581905841827392578125">
        <ele>587</ele>
        <time>2022-05-02T09:44:16.000Z</time>
      </trkpt>
      <trkpt lat="41.2731673009693622589111328125" lon="-1.6084132902324199676513671875">
        <ele>587</ele>
        <time>2022-05-02T09:44:18.000Z</time>
      </trkpt>
      <trkpt lat="41.27319387160241603851318359375" lon="-1.608303487300872802734375">
        <ele>587.4000244140625</ele>
        <time>2022-05-02T09:44:20.000Z</time>
      </trkpt>
      <trkpt lat="41.27321415580809116363525390625" lon="-1.60820198245346546173095703125">
        <ele>588.20001220703125</ele>
        <time>2022-05-02T09:44:22.000Z</time>
      </trkpt>
      <trkpt lat="41.273220442235469818115234375" lon="-1.60809704102575778961181640625">
        <ele>588.5999755859375</ele>
        <time>2022-05-02T09:44:24.000Z</time>
      </trkpt>
      <trkpt lat="41.2732095457613468170166015625" lon="-1.60804666578769683837890625">
        <ele>588.4000244140625</ele>
        <time>2022-05-02T09:44:25.000Z</time>
      </trkpt>
      <trkpt lat="41.27318783663213253021240234375" lon="-1.60800618119537830352783203125">
        <ele>588.20001220703125</ele>
        <time>2022-05-02T09:44:26.000Z</time>
      </trkpt>
      <trkpt lat="41.27318783663213253021240234375" lon="-1.60800618119537830352783203125">
        <ele>588.20001220703125</ele>
        <time>2022-05-02T09:44:27.000Z</time>
      </trkpt>
      <trkpt lat="41.273124217987060546875" lon="-1.6079801134765148162841796875">
        <ele>587.5999755859375</ele>
        <time>2022-05-02T09:44:28.000Z</time>
      </trkpt>
      <trkpt lat="41.2730409018695354461669921875" lon="-1.6079962067306041717529296875">
        <ele>587.20001220703125</ele>
        <time>2022-05-02T09:44:30.000Z</time>
      </trkpt>
      <trkpt lat="41.2729487009346485137939453125" lon="-1.6080290637910366058349609375">
        <ele>586.79998779296875</ele>
        <time>2022-05-02T09:44:32.000Z</time>
      </trkpt>
      <trkpt lat="41.27285188995301723480224609375" lon="-1.6080635972321033477783203125">
        <ele>586.4000244140625</ele>
        <time>2022-05-02T09:44:34.000Z</time>
      </trkpt>
      <trkpt lat="41.27275616861879825592041015625" lon="-1.60809896886348724365234375">
        <ele>586.20001220703125</ele>
        <time>2022-05-02T09:44:36.000Z</time>
      </trkpt>
      <trkpt lat="41.272664554417133331298828125" lon="-1.608137190341949462890625">
        <ele>586</ele>
        <time>2022-05-02T09:44:38.000Z</time>
      </trkpt>
      <trkpt lat="41.27258241176605224609375" lon="-1.60817298106849193572998046875">
        <ele>586</ele>
        <time>2022-05-02T09:44:40.000Z</time>
      </trkpt>
      <trkpt lat="41.27250370569527149200439453125" lon="-1.60820466466248035430908203125">
        <ele>586</ele>
        <time>2022-05-02T09:44:42.000Z</time>
      </trkpt>
      <trkpt lat="41.2724263407289981842041015625" lon="-1.60823400132358074188232421875">
        <ele>586</ele>
        <time>2022-05-02T09:44:44.000Z</time>
      </trkpt>
      <trkpt lat="41.27235132269561290740966796875" lon="-1.60826233215630054473876953125">
        <ele>586.4000244140625</ele>
        <time>2022-05-02T09:44:46.000Z</time>
      </trkpt>
      <trkpt lat="41.27235132269561290740966796875" lon="-1.60826233215630054473876953125">
        <ele>586.4000244140625</ele>
        <time>2022-05-02T09:44:47.000Z</time>
      </trkpt>
      <trkpt lat="41.27227387391030788421630859375" lon="-1.608291082084178924560546875">
        <ele>586.5999755859375</ele>
        <time>2022-05-02T09:44:48.000Z</time>
      </trkpt>
      <trkpt lat="41.27219139598309993743896484375" lon="-1.6083204187452793121337890625">
        <ele>586.79998779296875</ele>
        <time>2022-05-02T09:44:50.000Z</time>
      </trkpt>
      <trkpt lat="41.2721007876098155975341796875" lon="-1.60834648646414279937744140625">
        <ele>587.20001220703125</ele>
        <time>2022-05-02T09:44:52.000Z</time>
      </trkpt>
      <trkpt lat="41.272006072103977203369140625" lon="-1.60837590694427490234375">
        <ele>587.5999755859375</ele>
        <time>2022-05-02T09:44:54.000Z</time>
      </trkpt>
      <trkpt lat="41.27196039073169231414794921875" lon="-1.6083906590938568115234375">
        <ele>587.79998779296875</ele>
        <time>2022-05-02T09:44:55.000Z</time>
      </trkpt>
      <trkpt lat="41.27191596664488315582275390625" lon="-1.6084055788815021514892578125">
        <ele>587.79998779296875</ele>
        <time>2022-05-02T09:44:56.000Z</time>
      </trkpt>
      <trkpt lat="41.27183130942285060882568359375" lon="-1.6084362566471099853515625">
        <ele>588.20001220703125</ele>
        <time>2022-05-02T09:44:58.000Z</time>
      </trkpt>
      <trkpt lat="41.27174782566726207733154296875" lon="-1.6084657609462738037109375">
        <ele>588.4000244140625</ele>
        <time>2022-05-02T09:45:00.000Z</time>
      </trkpt>
      <trkpt lat="41.27166216261684894561767578125" lon="-1.60849199630320072174072265625">
        <ele>588.79998779296875</ele>
        <time>2022-05-02T09:45:02.000Z</time>
      </trkpt>
      <trkpt lat="41.27157582901418209075927734375" lon="-1.60850892774760723114013671875">
        <ele>588.79998779296875</ele>
        <time>2022-05-02T09:45:04.000Z</time>
      </trkpt>
      <trkpt lat="41.2714882381260395050048828125" lon="-1.6085113584995269775390625">
        <ele>588.20001220703125</ele>
        <time>2022-05-02T09:45:06.000Z</time>
      </trkpt>
      <trkpt lat="41.27139863558113574981689453125" lon="-1.6084954328835010528564453125">
        <ele>587.79998779296875</ele>
        <time>2022-05-02T09:45:08.000Z</time>
      </trkpt>
      <trkpt lat="41.27131381072103977203369140625" lon="-1.60845260135829448699951171875">
        <ele>587.5999755859375</ele>
        <time>2022-05-02T09:45:10.000Z</time>
      </trkpt>
      <trkpt lat="41.27123954705893993377685546875" lon="-1.60838454030454158782958984375">
        <ele>587.5999755859375</ele>
        <time>2022-05-02T09:45:12.000Z</time>
      </trkpt>
      <trkpt lat="41.2711734138429164886474609375" lon="-1.60830893553793430328369140625">
        <ele>587.20001220703125</ele>
        <time>2022-05-02T09:45:14.000Z</time>
      </trkpt>
      <trkpt lat="41.27110828645527362823486328125" lon="-1.60823115147650241851806640625">
        <ele>587</ele>
        <time>2022-05-02T09:45:16.000Z</time>
      </trkpt>
      <trkpt lat="41.27104215323925018310546875" lon="-1.608154289424419403076171875">
        <ele>587</ele>
        <time>2022-05-02T09:45:18.000Z</time>
      </trkpt>
      <trkpt lat="41.2709729187190532684326171875" lon="-1.60807440988719463348388671875">
        <ele>587.20001220703125</ele>
        <time>2022-05-02T09:45:20.000Z</time>
      </trkpt>
      <trkpt lat="41.27090527676045894622802734375" lon="-1.6079931892454624176025390625">
        <ele>587.5999755859375</ele>
        <time>2022-05-02T09:45:22.000Z</time>
      </trkpt>
      <trkpt lat="41.270833946764469146728515625" lon="-1.60791213624179363250732421875">
        <ele>587.4000244140625</ele>
        <time>2022-05-02T09:45:24.000Z</time>
      </trkpt>
      <trkpt lat="41.27076462842524051666259765625" lon="-1.60782798193395137786865234375">
        <ele>587</ele>
        <time>2022-05-02T09:45:26.000Z</time>
      </trkpt>
      <trkpt lat="41.27069413661956787109375" lon="-1.60774357616901397705078125">
        <ele>587.5999755859375</ele>
        <time>2022-05-02T09:45:28.000Z</time>
      </trkpt>
      <trkpt lat="41.27069413661956787109375" lon="-1.60774357616901397705078125">
        <ele>587.5999755859375</ele>
        <time>2022-05-02T09:45:29.000Z</time>
      </trkpt>
      <trkpt lat="41.2706225551664829254150390625" lon="-1.60766218788921833038330078125">
        <ele>588</ele>
        <time>2022-05-02T09:45:30.000Z</time>
      </trkpt>
      <trkpt lat="41.270551644265651702880859375" lon="-1.60758088342845439910888671875">
        <ele>588</ele>
        <time>2022-05-02T09:45:32.000Z</time>
      </trkpt>
      <trkpt lat="41.2704814039170742034912109375" lon="-1.60750041715800762176513671875">
        <ele>587.79998779296875</ele>
        <time>2022-05-02T09:45:34.000Z</time>
      </trkpt>
      <trkpt lat="41.2704126723110675811767578125" lon="-1.6074198670685291290283203125">
        <ele>587.5999755859375</ele>
        <time>2022-05-02T09:45:36.000Z</time>
      </trkpt>
      <trkpt lat="41.27034234814345836639404296875" lon="-1.60733881406486034393310546875">
        <ele>587.5999755859375</ele>
        <time>2022-05-02T09:45:38.000Z</time>
      </trkpt>
      <trkpt lat="41.27027328126132488250732421875" lon="-1.60726019181311130523681640625">
        <ele>587.79998779296875</ele>
        <time>2022-05-02T09:45:40.000Z</time>
      </trkpt>
      <trkpt lat="41.27020119689404964447021484375" lon="-1.60718240775167942047119140625">
        <ele>588</ele>
        <time>2022-05-02T09:45:42.000Z</time>
      </trkpt>
      <trkpt lat="41.27012961544096469879150390625" lon="-1.60710026510059833526611328125">
        <ele>588</ele>
        <time>2022-05-02T09:45:44.000Z</time>
      </trkpt>
      <trkpt lat="41.2700606323778629302978515625" lon="-1.6070242412388324737548828125">
        <ele>588</ele>
        <time>2022-05-02T09:45:46.000Z</time>
      </trkpt>
      <trkpt lat="41.26999617554247379302978515625" lon="-1.6069427691400051116943359375">
        <ele>588</ele>
        <time>2022-05-02T09:45:48.000Z</time>
      </trkpt>
      <trkpt lat="41.26993716694414615631103515625" lon="-1.6068644821643829345703125">
        <ele>588.4000244140625</ele>
        <time>2022-05-02T09:45:50.000Z</time>
      </trkpt>
      <trkpt lat="41.26988000236451625823974609375" lon="-1.60679273307323455810546875">
        <ele>588.79998779296875</ele>
        <time>2022-05-02T09:45:52.000Z</time>
      </trkpt>
      <trkpt lat="41.26982334069907665252685546875" lon="-1.60671637393534183502197265625">
        <ele>589</ele>
        <time>2022-05-02T09:45:54.000Z</time>
      </trkpt>
      <trkpt lat="41.269758045673370361328125" lon="-1.6066373325884342193603515625">
        <ele>589</ele>
        <time>2022-05-02T09:45:56.000Z</time>
      </trkpt>
      <trkpt lat="41.26968420110642910003662109375" lon="-1.6065587103366851806640625">
        <ele>589</ele>
        <time>2022-05-02T09:45:58.000Z</time>
      </trkpt>
      <trkpt lat="41.26960809342563152313232421875" lon="-1.60647489130496978759765625">
        <ele>588.79998779296875</ele>
        <time>2022-05-02T09:46:00.000Z</time>
      </trkpt>
      <trkpt lat="41.26953181810677051544189453125" lon="-1.6063909046351909637451171875">
        <ele>588</ele>
        <time>2022-05-02T09:46:02.000Z</time>
      </trkpt>
      <trkpt lat="41.2694568000733852386474609375" lon="-1.606304906308650970458984375">
        <ele>587.20001220703125</ele>
        <time>2022-05-02T09:46:04.000Z</time>
      </trkpt>
      <trkpt lat="41.2693840451538562774658203125" lon="-1.6062125377357006072998046875">
        <ele>586.20001220703125</ele>
        <time>2022-05-02T09:46:06.000Z</time>
      </trkpt>
      <trkpt lat="41.26930466853082180023193359375" lon="-1.60612025298178195953369140625">
        <ele>586</ele>
        <time>2022-05-02T09:46:08.000Z</time>
      </trkpt>
      <trkpt lat="41.269218586385250091552734375" lon="-1.60602771677076816558837890625">
        <ele>586.4000244140625</ele>
        <time>2022-05-02T09:46:10.000Z</time>
      </trkpt>
      <trkpt lat="41.26912797801196575164794921875" lon="-1.6059372760355472564697265625">
        <ele>586.79998779296875</ele>
        <time>2022-05-02T09:46:12.000Z</time>
      </trkpt>
      <trkpt lat="41.26905639655888080596923828125" lon="-1.60585706122219562530517578125">
        <ele>586.79998779296875</ele>
        <time>2022-05-02T09:46:14.000Z</time>
      </trkpt>
      <trkpt lat="41.26899755559861660003662109375" lon="-1.6057796962559223175048828125">
        <ele>586.5999755859375</ele>
        <time>2022-05-02T09:46:16.000Z</time>
      </trkpt>
      <trkpt lat="41.26899755559861660003662109375" lon="-1.6057796962559223175048828125">
        <ele>586.5999755859375</ele>
        <time>2022-05-02T09:46:17.000Z</time>
      </trkpt>
      <trkpt lat="41.26892865635454654693603515625" lon="-1.60570518113672733306884765625">
        <ele>586.4000244140625</ele>
        <time>2022-05-02T09:46:18.000Z</time>
      </trkpt>
      <trkpt lat="41.26886151731014251708984375" lon="-1.60562957637012004852294921875">
        <ele>586.20001220703125</ele>
        <time>2022-05-02T09:46:20.000Z</time>
      </trkpt>
      <trkpt lat="41.268796809017658233642578125" lon="-1.6055463440716266632080078125">
        <ele>586</ele>
        <time>2022-05-02T09:46:22.000Z</time>
      </trkpt>
      <trkpt lat="41.26873235218226909637451171875" lon="-1.60546244122087955474853515625">
        <ele>586</ele>
        <time>2022-05-02T09:46:24.000Z</time>
      </trkpt>
      <trkpt lat="41.2686722539365291595458984375" lon="-1.6053857468068599700927734375">
        <ele>586.20001220703125</ele>
        <time>2022-05-02T09:46:26.000Z</time>
      </trkpt>
      <trkpt lat="41.26861517317593097686767578125" lon="-1.60530536435544490814208984375">
        <ele>586.79998779296875</ele>
        <time>2022-05-02T09:46:28.000Z</time>
      </trkpt>
      <trkpt lat="41.26861517317593097686767578125" lon="-1.60530536435544490814208984375">
        <ele>586.79998779296875</ele>
        <time>2022-05-02T09:46:29.000Z</time>
      </trkpt>
      <trkpt lat="41.268552727997303009033203125" lon="-1.6052268259227275848388671875">
        <ele>587.20001220703125</ele>
        <time>2022-05-02T09:46:30.000Z</time>
      </trkpt>
      <trkpt lat="41.26848944462835788726806640625" lon="-1.60514644347131252288818359375">
        <ele>587.5999755859375</ele>
        <time>2022-05-02T09:46:32.000Z</time>
      </trkpt>
      <trkpt lat="41.26848944462835788726806640625" lon="-1.60514644347131252288818359375">
        <ele>587.5999755859375</ele>
        <time>2022-05-02T09:46:33.000Z</time>
      </trkpt>
      <trkpt lat="41.268421970307826995849609375" lon="-1.6050628758966922760009765625">
        <ele>587.79998779296875</ele>
        <time>2022-05-02T09:46:34.000Z</time>
      </trkpt>
      <trkpt lat="41.26835055649280548095703125" lon="-1.60498014651238918304443359375">
        <ele>588.4000244140625</ele>
        <time>2022-05-02T09:46:36.000Z</time>
      </trkpt>
      <trkpt lat="41.268275119364261627197265625" lon="-1.60488710738718509674072265625">
        <ele>588.5999755859375</ele>
        <time>2022-05-02T09:46:38.000Z</time>
      </trkpt>
      <trkpt lat="41.26820630393922328948974609375" lon="-1.60480999387800693511962890625">
        <ele>588.79998779296875</ele>
        <time>2022-05-02T09:46:40.000Z</time>
      </trkpt>
      <trkpt lat="41.26820630393922328948974609375" lon="-1.60480999387800693511962890625">
        <ele>588.79998779296875</ele>
        <time>2022-05-02T09:46:41.000Z</time>
      </trkpt>
      <trkpt lat="41.268149055540561676025390625" lon="-1.6047416813671588897705078125">
        <ele>588.20001220703125</ele>
        <time>2022-05-02T09:46:42.000Z</time>
      </trkpt>
      <trkpt lat="41.26811728812754154205322265625" lon="-1.60470538772642612457275390625">
        <ele>587.79998779296875</ele>
        <time>2022-05-02T09:46:43.000Z</time>
      </trkpt>
      <trkpt lat="41.2680856883525848388671875" lon="-1.60466616041958332061767578125">
        <ele>587.4000244140625</ele>
        <time>2022-05-02T09:46:44.000Z</time>
      </trkpt>
      <trkpt lat="41.26802626065909862518310546875" lon="-1.60458954982459545135498046875">
        <ele>587.20001220703125</ele>
        <time>2022-05-02T09:46:46.000Z</time>
      </trkpt>
      <trkpt lat="41.26802626065909862518310546875" lon="-1.60458954982459545135498046875">
        <ele>587.20001220703125</ele>
        <time>2022-05-02T09:46:47.000Z</time>
      </trkpt>
      <trkpt lat="41.26796029508113861083984375" lon="-1.60451629199087619781494140625">
        <ele>587.20001220703125</ele>
        <time>2022-05-02T09:46:48.000Z</time>
      </trkpt>
      <trkpt lat="41.26789064146578311920166015625" lon="-1.604432053864002227783203125">
        <ele>587.5999755859375</ele>
        <time>2022-05-02T09:46:50.000Z</time>
      </trkpt>
      <trkpt lat="41.26781503669917583465576171875" lon="-1.604344546794891357421875">
        <ele>588</ele>
        <time>2022-05-02T09:46:52.000Z</time>
      </trkpt>
      <trkpt lat="41.26773775555193424224853515625" lon="-1.6042545251548290252685546875">
        <ele>588</ele>
        <time>2022-05-02T09:46:54.000Z</time>
      </trkpt>
      <trkpt lat="41.2676620669662952423095703125" lon="-1.60416743718087673187255859375">
        <ele>588.20001220703125</ele>
        <time>2022-05-02T09:46:56.000Z</time>
      </trkpt>
      <trkpt lat="41.267587132751941680908203125" lon="-1.60407925955951213836669921875">
        <ele>588.79998779296875</ele>
        <time>2022-05-02T09:46:58.000Z</time>
      </trkpt>
      <trkpt lat="41.26751462928950786590576171875" lon="-1.60399493761360645294189453125">
        <ele>589</ele>
        <time>2022-05-02T09:47:00.000Z</time>
      </trkpt>
      <trkpt lat="41.267479173839092254638671875" lon="-1.60395269282162189483642578125">
        <ele>589</ele>
        <time>2022-05-02T09:47:01.000Z</time>
      </trkpt>
      <trkpt lat="41.2674458138644695281982421875" lon="-1.60391262732446193695068359375">
        <ele>589</ele>
        <time>2022-05-02T09:47:02.000Z</time>
      </trkpt>
      <trkpt lat="41.267383284866809844970703125" lon="-1.6038357652723789215087890625">
        <ele>589.4000244140625</ele>
        <time>2022-05-02T09:47:04.000Z</time>
      </trkpt>
      <trkpt lat="41.26731882803142070770263671875" lon="-1.6037576459348201751708984375">
        <ele>590</ele>
        <time>2022-05-02T09:47:06.000Z</time>
      </trkpt>
      <trkpt lat="41.26725663430988788604736328125" lon="-1.603679023683071136474609375">
        <ele>590</ele>
        <time>2022-05-02T09:47:08.000Z</time>
      </trkpt>
      <trkpt lat="41.26718756742775440216064453125" lon="-1.6036081127822399139404296875">
        <ele>590.20001220703125</ele>
        <time>2022-05-02T09:47:10.000Z</time>
      </trkpt>
      <trkpt lat="41.26710693351924419403076171875" lon="-1.603536866605281829833984375">
        <ele>590.4000244140625</ele>
        <time>2022-05-02T09:47:12.000Z</time>
      </trkpt>
      <trkpt lat="41.2670250423252582550048828125" lon="-1.60347484052181243896484375">
        <ele>590.5999755859375</ele>
        <time>2022-05-02T09:47:14.000Z</time>
      </trkpt>
      <trkpt lat="41.2669418938457965850830078125" lon="-1.60342329181730747222900390625">
        <ele>590.79998779296875</ele>
        <time>2022-05-02T09:47:16.000Z</time>
      </trkpt>
      <trkpt lat="41.26686167903244495391845703125" lon="-1.60337023437023162841796875">
        <ele>591</ele>
        <time>2022-05-02T09:47:18.000Z</time>
      </trkpt>
      <trkpt lat="41.2667819671332836151123046875" lon="-1.603319942951202392578125">
        <ele>590.5999755859375</ele>
        <time>2022-05-02T09:47:20.000Z</time>
      </trkpt>
      <trkpt lat="41.26670191995799541473388671875" lon="-1.60327526740729808807373046875">
        <ele>590.4000244140625</ele>
        <time>2022-05-02T09:47:22.000Z</time>
      </trkpt>
      <trkpt lat="41.2666230462491512298583984375" lon="-1.60322715528309345245361328125">
        <ele>590</ele>
        <time>2022-05-02T09:47:24.000Z</time>
      </trkpt>
      <trkpt lat="41.2665412388741970062255859375" lon="-1.60318088717758655548095703125">
        <ele>590</ele>
        <time>2022-05-02T09:47:26.000Z</time>
      </trkpt>
      <trkpt lat="41.2664575874805450439453125" lon="-1.60313394851982593536376953125">
        <ele>590</ele>
        <time>2022-05-02T09:47:28.000Z</time>
      </trkpt>
      <trkpt lat="41.2664575874805450439453125" lon="-1.60313394851982593536376953125">
        <ele>590</ele>
        <time>2022-05-02T09:47:29.000Z</time>
      </trkpt>
      <trkpt lat="41.2663722597062587738037109375" lon="-1.60309723578393459320068359375">
        <ele>590</ele>
        <time>2022-05-02T09:47:30.000Z</time>
      </trkpt>
      <trkpt lat="41.26629154197871685028076171875" lon="-1.6030584275722503662109375">
        <ele>590</ele>
        <time>2022-05-02T09:47:32.000Z</time>
      </trkpt>
      <trkpt lat="41.2662176974117755889892578125" lon="-1.60301375202834606170654296875">
        <ele>590</ele>
        <time>2022-05-02T09:47:34.000Z</time>
      </trkpt>
      <trkpt lat="41.266144104301929473876953125" lon="-1.6029725968837738037109375">
        <ele>590</ele>
        <time>2022-05-02T09:47:36.000Z</time>
      </trkpt>
      <trkpt lat="41.2661053799092769622802734375" lon="-1.6029499657452106475830078125">
        <ele>590.20001220703125</ele>
        <time>2022-05-02T09:47:37.000Z</time>
      </trkpt>
      <trkpt lat="41.26606573350727558135986328125" lon="-1.6029288433492183685302734375">
        <ele>590.4000244140625</ele>
        <time>2022-05-02T09:47:38.000Z</time>
      </trkpt>
      <trkpt lat="41.2659860216081142425537109375" lon="-1.6028899513185024261474609375">
        <ele>591</ele>
        <time>2022-05-02T09:47:40.000Z</time>
      </trkpt>
      <trkpt lat="41.26590907573699951171875" lon="-1.60284946672618389129638671875">
        <ele>591</ele>
        <time>2022-05-02T09:47:42.000Z</time>
      </trkpt>
      <trkpt lat="41.26583087258040904998779296875" lon="-1.60281459800899028778076171875">
        <ele>591</ele>
        <time>2022-05-02T09:47:44.000Z</time>
      </trkpt>
      <trkpt lat="41.2657523341476917266845703125" lon="-1.602784506976604461669921875">
        <ele>591</ele>
        <time>2022-05-02T09:47:46.000Z</time>
      </trkpt>
      <trkpt lat="41.26567161642014980316162109375" lon="-1.60274838097393512725830078125">
        <ele>591.4000244140625</ele>
        <time>2022-05-02T09:47:48.000Z</time>
      </trkpt>
      <trkpt lat="41.2655903957784175872802734375" lon="-1.6027070581912994384765625">
        <ele>591.5999755859375</ele>
        <time>2022-05-02T09:47:50.000Z</time>
      </trkpt>
      <trkpt lat="41.26551018096506595611572265625" lon="-1.6026599518954753875732421875">
        <ele>591.4000244140625</ele>
        <time>2022-05-02T09:47:52.000Z</time>
      </trkpt>
      <trkpt lat="41.26551018096506595611572265625" lon="-1.6026599518954753875732421875">
        <ele>591.4000244140625</ele>
        <time>2022-05-02T09:47:53.000Z</time>
      </trkpt>
      <trkpt lat="41.2654274515807628631591796875" lon="-1.60262818448245525360107421875">
        <ele>591.5999755859375</ele>
        <time>2022-05-02T09:47:54.000Z</time>
      </trkpt>
      <trkpt lat="41.26534472219645977020263671875" lon="-1.602611839771270751953125">
        <ele>591.79998779296875</ele>
        <time>2022-05-02T09:47:56.000Z</time>
      </trkpt>
      <trkpt lat="41.26526408828794956207275390625" lon="-1.6025831736624240875244140625">
        <ele>592</ele>
        <time>2022-05-02T09:47:58.000Z</time>
      </trkpt>
      <trkpt lat="41.2651900760829448699951171875" lon="-1.602535732090473175048828125">
        <ele>592</ele>
        <time>2022-05-02T09:48:00.000Z</time>
      </trkpt>
      <trkpt lat="41.26515093259513378143310546875" lon="-1.60251419059932231903076171875">
        <ele>592.20001220703125</ele>
        <time>2022-05-02T09:48:01.000Z</time>
      </trkpt>
      <trkpt lat="41.26511036418378353118896484375" lon="-1.60249851644039154052734375">
        <ele>592.4000244140625</ele>
        <time>2022-05-02T09:48:02.000Z</time>
      </trkpt>
      <trkpt lat="41.26502855680882930755615234375" lon="-1.6024789027869701385498046875">
        <ele>592.5999755859375</ele>
        <time>2022-05-02T09:48:04.000Z</time>
      </trkpt>
      <trkpt lat="41.264938451349735260009765625" lon="-1.60247839987277984619140625">
        <ele>592.79998779296875</ele>
        <time>2022-05-02T09:48:06.000Z</time>
      </trkpt>
      <trkpt lat="41.26489126123487949371337890625" lon="-1.602476052939891815185546875">
        <ele>592.79998779296875</ele>
        <time>2022-05-02T09:48:07.000Z</time>
      </trkpt>
      <trkpt lat="41.2648447416722774505615234375" lon="-1.6024708561599254608154296875">
        <ele>592.79998779296875</ele>
        <time>2022-05-02T09:48:08.000Z</time>
      </trkpt>
      <trkpt lat="41.26475279219448566436767578125" lon="-1.60245819948613643646240234375">
        <ele>592.79998779296875</ele>
        <time>2022-05-02T09:48:10.000Z</time>
      </trkpt>
      <trkpt lat="41.26475279219448566436767578125" lon="-1.60245819948613643646240234375">
        <ele>592.79998779296875</ele>
        <time>2022-05-02T09:48:11.000Z</time>
      </trkpt>
      <trkpt lat="41.2646631896495819091796875" lon="-1.6024467162787914276123046875">
        <ele>593</ele>
        <time>2022-05-02T09:48:12.000Z</time>
      </trkpt>
      <trkpt lat="41.264577694237232208251953125" lon="-1.602440178394317626953125">
        <ele>593</ele>
        <time>2022-05-02T09:48:14.000Z</time>
      </trkpt>
      <trkpt lat="41.2644910253584384918212890625" lon="-1.6024306230247020721435546875">
        <ele>593</ele>
        <time>2022-05-02T09:48:16.000Z</time>
      </trkpt>
      <trkpt lat="41.26439563930034637451171875" lon="-1.60241796635091304779052734375">
        <ele>593</ele>
        <time>2022-05-02T09:48:18.000Z</time>
      </trkpt>
      <trkpt lat="41.264344342052936553955078125" lon="-1.60241000354290008544921875">
        <ele>593.20001220703125</ele>
        <time>2022-05-02T09:48:19.000Z</time>
      </trkpt>
      <trkpt lat="41.2642905302345752716064453125" lon="-1.6023987717926502227783203125">
        <ele>593.4000244140625</ele>
        <time>2022-05-02T09:48:20.000Z</time>
      </trkpt>
      <trkpt lat="41.26418399624526500701904296875" lon="-1.60237974487245082855224609375">
        <ele>593.79998779296875</ele>
        <time>2022-05-02T09:48:22.000Z</time>
      </trkpt>
      <trkpt lat="41.26408576034009456634521484375" lon="-1.6023612208664417266845703125">
        <ele>594</ele>
        <time>2022-05-02T09:48:24.000Z</time>
      </trkpt>
      <trkpt lat="41.2640005163848400115966796875" lon="-1.60233892500400543212890625">
        <ele>594</ele>
        <time>2022-05-02T09:48:26.000Z</time>
      </trkpt>
      <trkpt lat="41.2640005163848400115966796875" lon="-1.60233892500400543212890625">
        <ele>594</ele>
        <time>2022-05-02T09:48:27.000Z</time>
      </trkpt>
      <trkpt lat="41.2639210559427738189697265625" lon="-1.60231201909482479095458984375">
        <ele>594</ele>
        <time>2022-05-02T09:48:28.000Z</time>
      </trkpt>
      <trkpt lat="41.26384176313877105712890625" lon="-1.60228502936661243438720703125">
        <ele>594</ele>
        <time>2022-05-02T09:48:30.000Z</time>
      </trkpt>
      <trkpt lat="41.2637581117451190948486328125" lon="-1.6022670082747936248779296875">
        <ele>593.79998779296875</ele>
        <time>2022-05-02T09:48:32.000Z</time>
      </trkpt>
      <trkpt lat="41.26367152668535709381103515625" lon="-1.60226893611252307891845703125">
        <ele>593.4000244140625</ele>
        <time>2022-05-02T09:48:34.000Z</time>
      </trkpt>
      <trkpt lat="41.26358619891107082366943359375" lon="-1.60229424946010112762451171875">
        <ele>593.20001220703125</ele>
        <time>2022-05-02T09:48:36.000Z</time>
      </trkpt>
      <trkpt lat="41.26350640319287776947021484375" lon="-1.6023357398808002471923828125">
        <ele>593.20001220703125</ele>
        <time>2022-05-02T09:48:38.000Z</time>
      </trkpt>
      <trkpt lat="41.26350640319287776947021484375" lon="-1.6023357398808002471923828125">
        <ele>593.20001220703125</ele>
        <time>2022-05-02T09:48:39.000Z</time>
      </trkpt>
      <trkpt lat="41.26343046315014362335205078125" lon="-1.60237781703472137451171875">
        <ele>593.4000244140625</ele>
        <time>2022-05-02T09:48:40.000Z</time>
      </trkpt>
      <trkpt lat="41.26335636712610721588134765625" lon="-1.6024128533899784088134765625">
        <ele>593.5999755859375</ele>
        <time>2022-05-02T09:48:42.000Z</time>
      </trkpt>
      <trkpt lat="41.263283193111419677734375" lon="-1.6024436987936496734619140625">
        <ele>594</ele>
        <time>2022-05-02T09:48:44.000Z</time>
      </trkpt>
      <trkpt lat="41.26321353949606418609619140625" lon="-1.602477729320526123046875">
        <ele>594.4000244140625</ele>
        <time>2022-05-02T09:48:46.000Z</time>
      </trkpt>
      <trkpt lat="41.26314966939389705657958984375" lon="-1.6025174595415592193603515625">
        <ele>594.79998779296875</ele>
        <time>2022-05-02T09:48:48.000Z</time>
      </trkpt>
      <trkpt lat="41.263105832040309906005859375" lon="-1.60254503600299358367919921875">
        <ele>595.20001220703125</ele>
        <time>2022-05-02T09:48:50.000Z</time>
      </trkpt>
      <trkpt lat="41.2630664370954036712646484375" lon="-1.60255216062068939208984375">
        <ele>595.5999755859375</ele>
        <time>2022-05-02T09:48:52.000Z</time>
      </trkpt>
      <trkpt lat="41.2630664370954036712646484375" lon="-1.60255216062068939208984375">
        <ele>595.5999755859375</ele>
        <time>2022-05-02T09:48:53.000Z</time>
      </trkpt>
      <trkpt lat="41.26302813179790973663330078125" lon="-1.6025238297879695892333984375">
        <ele>595.79998779296875</ele>
        <time>2022-05-02T09:48:54.000Z</time>
      </trkpt>
      <trkpt lat="41.26300315372645854949951171875" lon="-1.60247194580733776092529296875">
        <ele>595.79998779296875</ele>
        <time>2022-05-02T09:48:56.000Z</time>
      </trkpt>
      <trkpt lat="41.26300315372645854949951171875" lon="-1.60247194580733776092529296875">
        <ele>595.79998779296875</ele>
        <time>2022-05-02T09:48:57.000Z</time>
      </trkpt>
      <trkpt lat="41.2629923410713672637939453125" lon="-1.60241712816059589385986328125">
        <ele>595.5999755859375</ele>
        <time>2022-05-02T09:48:58.000Z</time>
      </trkpt>
      <trkpt lat="41.2629943527281284332275390625" lon="-1.60234697163105010986328125">
        <ele>595.4000244140625</ele>
        <time>2022-05-02T09:49:00.000Z</time>
      </trkpt>
      <trkpt lat="41.26299879513680934906005859375" lon="-1.6022535972297191619873046875">
        <ele>595</ele>
        <time>2022-05-02T09:49:02.000Z</time>
      </trkpt>
      <trkpt lat="41.26299695111811161041259765625" lon="-1.60215117037296295166015625">
        <ele>595</ele>
        <time>2022-05-02T09:49:04.000Z</time>
      </trkpt>
      <trkpt lat="41.2629886530339717864990234375" lon="-1.602101884782314300537109375">
        <ele>595</ele>
        <time>2022-05-02T09:49:06.000Z</time>
      </trkpt>
      <trkpt lat="41.26298571936786174774169921875" lon="-1.60209442488849163055419921875">
        <ele>595</ele>
        <time>2022-05-02T09:49:07.000Z</time>
      </trkpt>
      <trkpt lat="41.26298588700592517852783203125" lon="-1.60209442488849163055419921875">
        <ele>595</ele>
        <time>2022-05-02T09:49:08.000Z</time>
      </trkpt>
      <trkpt lat="41.26299158670008182525634765625" lon="-1.60214840434491634368896484375">
        <ele>595</ele>
        <time>2022-05-02T09:49:23.000Z</time>
      </trkpt>
      <trkpt lat="41.26299644820392131805419921875" lon="-1.60219408571720123291015625">
        <ele>595</ele>
        <time>2022-05-02T09:49:24.000Z</time>
      </trkpt>
      <trkpt lat="41.26299686729907989501953125" lon="-1.6022183932363986968994140625">
        <ele>595</ele>
        <time>2022-05-02T09:49:25.000Z</time>
      </trkpt>
      <trkpt lat="41.26299795694649219512939453125" lon="-1.6022475622594356536865234375">
        <ele>595</ele>
        <time>2022-05-02T09:49:26.000Z</time>
      </trkpt>
      <trkpt lat="41.26300315372645854949951171875" lon="-1.602311432361602783203125">
        <ele>595.20001220703125</ele>
        <time>2022-05-02T09:49:28.000Z</time>
      </trkpt>
      <trkpt lat="41.26298622228205204010009765625" lon="-1.60236046649515628814697265625">
        <ele>595.4000244140625</ele>
        <time>2022-05-02T09:49:30.000Z</time>
      </trkpt>
      <trkpt lat="41.26296996138989925384521484375" lon="-1.602372117340564727783203125">
        <ele>595.5999755859375</ele>
        <time>2022-05-02T09:49:31.000Z</time>
      </trkpt>
      <trkpt lat="41.26295185647904872894287109375" lon="-1.6023763082921504974365234375">
        <ele>595.5999755859375</ele>
        <time>2022-05-02T09:49:32.000Z</time>
      </trkpt>
      <trkpt lat="41.2629132159054279327392578125" lon="-1.6023649089038372039794921875">
        <ele>595.5999755859375</ele>
        <time>2022-05-02T09:49:34.000Z</time>
      </trkpt>
      <trkpt lat="41.26287491060793399810791015625" lon="-1.6023374162614345550537109375">
        <ele>595.79998779296875</ele>
        <time>2022-05-02T09:49:36.000Z</time>
      </trkpt>
      <trkpt lat="41.262859404087066650390625" lon="-1.60232626833021640777587890625">
        <ele>595.79998779296875</ele>
        <time>2022-05-02T09:49:37.000Z</time>
      </trkpt>
      <trkpt lat="41.2628485076129436492919921875" lon="-1.60231788642704486846923828125">
        <ele>595.79998779296875</ele>
        <time>2022-05-02T09:49:38.000Z</time>
      </trkpt>
      <trkpt lat="41.26283995807170867919921875" lon="-1.60230514593422412872314453125">
        <ele>595.79998779296875</ele>
        <time>2022-05-02T09:49:40.000Z</time>
      </trkpt>
      <trkpt lat="41.26283995807170867919921875" lon="-1.60230514593422412872314453125">
        <ele>595.79998779296875</ele>
        <time>2022-05-02T09:49:41.000Z</time>
      </trkpt>
      <trkpt lat="41.2627978809177875518798828125" lon="-1.6022334806621074676513671875">
        <ele>595.5999755859375</ele>
        <time>2022-05-02T09:49:47.000Z</time>
      </trkpt>
      <trkpt lat="41.26276611350476741790771484375" lon="-1.6021855361759662628173828125">
        <ele>595.79998779296875</ele>
        <time>2022-05-02T09:49:48.000Z</time>
      </trkpt>
      <trkpt lat="41.26272906549274921417236328125" lon="-1.60213164053857326507568359375">
        <ele>596</ele>
        <time>2022-05-02T09:49:50.000Z</time>
      </trkpt>
      <trkpt lat="41.262687407433986663818359375" lon="-1.60207062028348445892333984375">
        <ele>596.20001220703125</ele>
        <time>2022-05-02T09:49:52.000Z</time>
      </trkpt>
      <trkpt lat="41.262642480432987213134765625" lon="-1.6020034812390804290771484375">
        <ele>596.4000244140625</ele>
        <time>2022-05-02T09:49:54.000Z</time>
      </trkpt>
      <trkpt lat="41.26259411685168743133544921875" lon="-1.60193500109016895294189453125">
        <ele>596.79998779296875</ele>
        <time>2022-05-02T09:49:56.000Z</time>
      </trkpt>
      <trkpt lat="41.26254533417522907257080078125" lon="-1.60186911933124065399169921875">
        <ele>597.20001220703125</ele>
        <time>2022-05-02T09:49:58.000Z</time>
      </trkpt>
      <trkpt lat="41.26254533417522907257080078125" lon="-1.60186911933124065399169921875">
        <ele>597.20001220703125</ele>
        <time>2022-05-02T09:49:59.000Z</time>
      </trkpt>
      <trkpt lat="41.262496300041675567626953125" lon="-1.6018029861152172088623046875">
        <ele>596.79998779296875</ele>
        <time>2022-05-02T09:50:00.000Z</time>
      </trkpt>
      <trkpt lat="41.2624476850032806396484375" lon="-1.60173618234694004058837890625">
        <ele>596.20001220703125</ele>
        <time>2022-05-02T09:50:02.000Z</time>
      </trkpt>
      <trkpt lat="41.26240049488842487335205078125" lon="-1.60167063586413860321044921875">
        <ele>596.20001220703125</ele>
        <time>2022-05-02T09:50:04.000Z</time>
      </trkpt>
      <trkpt lat="41.26235447824001312255859375" lon="-1.60160575993359088897705078125">
        <ele>596.20001220703125</ele>
        <time>2022-05-02T09:50:06.000Z</time>
      </trkpt>
      <trkpt lat="41.26233209855854511260986328125" lon="-1.60157374106347560882568359375">
        <ele>596.4000244140625</ele>
        <time>2022-05-02T09:50:07.000Z</time>
      </trkpt>
      <trkpt lat="41.2623107247054576873779296875" lon="-1.60154105164110660552978515625">
        <ele>596.4000244140625</ele>
        <time>2022-05-02T09:50:08.000Z</time>
      </trkpt>
      <trkpt lat="41.262265630066394805908203125" lon="-1.60148019902408123016357421875">
        <ele>595.79998779296875</ele>
        <time>2022-05-02T09:50:10.000Z</time>
      </trkpt>
      <trkpt lat="41.26221961341798305511474609375" lon="-1.60141951404511928558349609375">
        <ele>595.20001220703125</ele>
        <time>2022-05-02T09:50:12.000Z</time>
      </trkpt>
      <trkpt lat="41.2621689029037952423095703125" lon="-1.60135447047650814056396484375">
        <ele>595</ele>
        <time>2022-05-02T09:50:14.000Z</time>
      </trkpt>
      <trkpt lat="41.2621179409325122833251953125" lon="-1.60128691233694553375244140625">
        <ele>595.4000244140625</ele>
        <time>2022-05-02T09:50:16.000Z</time>
      </trkpt>
      <trkpt lat="41.2621179409325122833251953125" lon="-1.60128691233694553375244140625">
        <ele>595.4000244140625</ele>
        <time>2022-05-02T09:50:17.000Z</time>
      </trkpt>
      <trkpt lat="41.26207527704536914825439453125" lon="-1.60122773610055446624755859375">
        <ele>595.79998779296875</ele>
        <time>2022-05-02T09:50:18.000Z</time>
      </trkpt>
      <trkpt lat="41.2620344571769237518310546875" lon="-1.60115347243845462799072265625">
        <ele>595.5999755859375</ele>
        <time>2022-05-02T09:50:20.000Z</time>
      </trkpt>
      <trkpt lat="41.2619863450527191162109375" lon="-1.60108407028019428253173828125">
        <ele>595.5999755859375</ele>
        <time>2022-05-02T09:50:22.000Z</time>
      </trkpt>
      <trkpt lat="41.2619863450527191162109375" lon="-1.60108407028019428253173828125">
        <ele>595.5999755859375</ele>
        <time>2022-05-02T09:50:23.000Z</time>
      </trkpt>
      <trkpt lat="41.261950470507144927978515625" lon="-1.6010375507175922393798828125">
        <ele>595.79998779296875</ele>
        <time>2022-05-02T09:50:24.000Z</time>
      </trkpt>
      <trkpt lat="41.261923648416996002197265625" lon="-1.60099756903946399688720703125">
        <ele>595.79998779296875</ele>
        <time>2022-05-02T09:50:26.000Z</time>
      </trkpt>
      <trkpt lat="41.261923648416996002197265625" lon="-1.60099756903946399688720703125">
        <ele>595.79998779296875</ele>
        <time>2022-05-02T09:50:27.000Z</time>
      </trkpt>
      <trkpt lat="41.26190076582133769989013671875" lon="-1.60095599479973316192626953125">
        <ele>596</ele>
        <time>2022-05-02T09:50:28.000Z</time>
      </trkpt>
      <trkpt lat="41.26188349910080432891845703125" lon="-1.60091190598905086517333984375">
        <ele>596</ele>
        <time>2022-05-02T09:50:30.000Z</time>
      </trkpt>
      <trkpt lat="41.26187168061733245849609375" lon="-1.60087385214865207672119140625">
        <ele>596</ele>
        <time>2022-05-02T09:50:32.000Z</time>
      </trkpt>
      <trkpt lat="41.26186371780931949615478515625" lon="-1.60085826180875301361083984375">
        <ele>596</ele>
        <time>2022-05-02T09:50:34.000Z</time>
      </trkpt>
      <trkpt lat="41.26186371780931949615478515625" lon="-1.60085826180875301361083984375">
        <ele>596</ele>
        <time>2022-05-02T09:50:35.000Z</time>
      </trkpt>
      <trkpt lat="41.26185885630548000335693359375" lon="-1.6008360497653484344482421875">
        <ele>596</ele>
        <time>2022-05-02T09:51:21.000Z</time>
      </trkpt>
      <trkpt lat="41.2618460319936275482177734375" lon="-1.60079070366919040679931640625">
        <ele>595.79998779296875</ele>
        <time>2022-05-02T09:51:22.000Z</time>
      </trkpt>
      <trkpt lat="41.2618336267769336700439453125" lon="-1.60073102451860904693603515625">
        <ele>595.5999755859375</ele>
        <time>2022-05-02T09:51:24.000Z</time>
      </trkpt>
      <trkpt lat="41.26182331703603267669677734375" lon="-1.60066044889390468597412109375">
        <ele>595.4000244140625</ele>
        <time>2022-05-02T09:51:26.000Z</time>
      </trkpt>
      <trkpt lat="41.26180705614387989044189453125" lon="-1.600584089756011962890625">
        <ele>595.20001220703125</ele>
        <time>2022-05-02T09:51:28.000Z</time>
      </trkpt>
      <trkpt lat="41.26180705614387989044189453125" lon="-1.600584089756011962890625">
        <ele>595.20001220703125</ele>
        <time>2022-05-02T09:51:29.000Z</time>
      </trkpt>
      <trkpt lat="41.26178861595690250396728515625" lon="-1.600511334836483001708984375">
        <ele>595</ele>
        <time>2022-05-02T09:51:30.000Z</time>
      </trkpt>
      <trkpt lat="41.26176766119897365570068359375" lon="-1.60043732263147830963134765625">
        <ele>594.79998779296875</ele>
        <time>2022-05-02T09:51:32.000Z</time>
      </trkpt>
      <trkpt lat="41.261738575994968414306640625" lon="-1.60037060268223285675048828125">
        <ele>594.79998779296875</ele>
        <time>2022-05-02T09:51:34.000Z</time>
      </trkpt>
      <trkpt lat="41.26170630566775798797607421875" lon="-1.6003173775970935821533203125">
        <ele>594.5999755859375</ele>
        <time>2022-05-02T09:51:36.000Z</time>
      </trkpt>
      <trkpt lat="41.261666826903820037841796875" lon="-1.60026582889258861541748046875">
        <ele>594.5999755859375</ele>
        <time>2022-05-02T09:51:38.000Z</time>
      </trkpt>
      <trkpt lat="41.26163187436759471893310546875" lon="-1.60022056661546230316162109375">
        <ele>594.4000244140625</ele>
        <time>2022-05-02T09:51:40.000Z</time>
      </trkpt>
      <trkpt lat="41.26162449829280376434326171875" lon="-1.600211597979068756103515625">
        <ele>594.4000244140625</ele>
        <time>2022-05-02T09:51:42.000Z</time>
      </trkpt>
      <trkpt lat="41.261623911559581756591796875" lon="-1.60021193325519561767578125">
        <ele>594.4000244140625</ele>
        <time>2022-05-02T09:51:43.000Z</time>
      </trkpt>
      <trkpt lat="41.26166640780866146087646484375" lon="-1.60027303732931613922119140625">
        <ele>594.5999755859375</ele>
        <time>2022-05-02T09:52:11.000Z</time>
      </trkpt>
      <trkpt lat="41.26169943250715732574462890625" lon="-1.60031243227422237396240234375">
        <ele>594.5999755859375</ele>
        <time>2022-05-02T09:52:12.000Z</time>
      </trkpt>
      <trkpt lat="41.2617320381104946136474609375" lon="-1.6003663279116153717041015625">
        <ele>594.79998779296875</ele>
        <time>2022-05-02T09:52:14.000Z</time>
      </trkpt>
      <trkpt lat="41.26176313497126102447509765625" lon="-1.60042977891862392425537109375">
        <ele>594.79998779296875</ele>
        <time>2022-05-02T09:52:16.000Z</time>
      </trkpt>
      <trkpt lat="41.26176313497126102447509765625" lon="-1.60042977891862392425537109375">
        <ele>594.79998779296875</ele>
        <time>2022-05-02T09:52:17.000Z</time>
      </trkpt>
      <trkpt lat="41.261785514652729034423828125" lon="-1.6005024500191211700439453125">
        <ele>595</ele>
        <time>2022-05-02T09:52:18.000Z</time>
      </trkpt>
      <trkpt lat="41.2618041224777698516845703125" lon="-1.6005772165954113006591796875">
        <ele>595.20001220703125</ele>
        <time>2022-05-02T09:52:20.000Z</time>
      </trkpt>
      <trkpt lat="41.26181946136057376861572265625" lon="-1.6006586886942386627197265625">
        <ele>595.4000244140625</ele>
        <time>2022-05-02T09:52:22.000Z</time>
      </trkpt>
      <trkpt lat="41.26183337531983852386474609375" lon="-1.600741334259510040283203125">
        <ele>595.79998779296875</ele>
        <time>2022-05-02T09:52:24.000Z</time>
      </trkpt>
      <trkpt lat="41.2618550844490528106689453125" lon="-1.60082272253930568695068359375">
        <ele>596</ele>
        <time>2022-05-02T09:52:26.000Z</time>
      </trkpt>
      <trkpt lat="41.261884756386280059814453125" lon="-1.60090302117168903350830078125">
        <ele>596</ele>
        <time>2022-05-02T09:52:28.000Z</time>
      </trkpt>
      <trkpt lat="41.2619166076183319091796875" lon="-1.60098046995699405670166015625">
        <ele>595.79998779296875</ele>
        <time>2022-05-02T09:52:30.000Z</time>
      </trkpt>
      <trkpt lat="41.2619362212717533111572265625" lon="-1.60101550631225109100341796875">
        <ele>595.79998779296875</ele>
        <time>2022-05-02T09:52:31.000Z</time>
      </trkpt>
      <trkpt lat="41.26195977441966533660888671875" lon="-1.6010496206581592559814453125">
        <ele>595.79998779296875</ele>
        <time>2022-05-02T09:52:32.000Z</time>
      </trkpt>
      <trkpt lat="41.26195977441966533660888671875" lon="-1.6010496206581592559814453125">
        <ele>595.79998779296875</ele>
        <time>2022-05-02T09:52:33.000Z</time>
      </trkpt>
      <trkpt lat="41.26200981438159942626953125" lon="-1.60111944191157817840576171875">
        <ele>595.5999755859375</ele>
        <time>2022-05-02T09:52:34.000Z</time>
      </trkpt>
      <trkpt lat="41.26206337474286556243896484375" lon="-1.60119538195431232452392578125">
        <ele>595.79998779296875</ele>
        <time>2022-05-02T09:52:36.000Z</time>
      </trkpt>
      <trkpt lat="41.26211986877024173736572265625" lon="-1.60127333365380764007568359375">
        <ele>595.4000244140625</ele>
        <time>2022-05-02T09:52:38.000Z</time>
      </trkpt>
      <trkpt lat="41.26211986877024173736572265625" lon="-1.60127333365380764007568359375">
        <ele>595.4000244140625</ele>
        <time>2022-05-02T09:52:39.000Z</time>
      </trkpt>
      <trkpt lat="41.2621789611876010894775390625" lon="-1.60135078243911266326904296875">
        <ele>595</ele>
        <time>2022-05-02T09:52:40.000Z</time>
      </trkpt>
      <trkpt lat="41.2622352875769138336181640625" lon="-1.60142697393894195556640625">
        <ele>595.4000244140625</ele>
        <time>2022-05-02T09:52:42.000Z</time>
      </trkpt>
      <trkpt lat="41.262270323932170867919921875" lon="-1.601473577320575714111328125">
        <ele>595.79998779296875</ele>
        <time>2022-05-02T09:52:44.000Z</time>
      </trkpt>
      <trkpt lat="41.262270323932170867919921875" lon="-1.601473577320575714111328125">
        <ele>595.79998779296875</ele>
        <time>2022-05-02T09:52:45.000Z</time>
      </trkpt>
      <trkpt lat="41.2622735090553760528564453125" lon="-1.6014784388244152069091796875">
        <ele>595.79998779296875</ele>
        <time>2022-05-02T09:52:46.000Z</time>
      </trkpt>
      <trkpt lat="41.26227292232215404510498046875" lon="-1.6014777682721614837646484375">
        <ele>595.79998779296875</ele>
        <time>2022-05-02T09:52:47.000Z</time>
      </trkpt>
      <trkpt lat="41.26231298781931400299072265625" lon="-1.60154138691723346710205078125">
        <ele>596.4000244140625</ele>
        <time>2022-05-02T09:52:59.000Z</time>
      </trkpt>
      <trkpt lat="41.26232975162565708160400390625" lon="-1.6015649400651454925537109375">
        <ele>596.4000244140625</ele>
        <time>2022-05-02T09:53:00.000Z</time>
      </trkpt>
      <trkpt lat="41.26237149350345134735107421875" lon="-1.60162269137799739837646484375">
        <ele>596.20001220703125</ele>
        <time>2022-05-02T09:53:02.000Z</time>
      </trkpt>
      <trkpt lat="41.26242245547473430633544921875" lon="-1.60169259645044803619384765625">
        <ele>596</ele>
        <time>2022-05-02T09:53:04.000Z</time>
      </trkpt>
      <trkpt lat="41.26247911714017391204833984375" lon="-1.60177138634026050567626953125">
        <ele>596.5999755859375</ele>
        <time>2022-05-02T09:53:06.000Z</time>
      </trkpt>
      <trkpt lat="41.26253896392881870269775390625" lon="-1.60185218788683414459228515625">
        <ele>597.20001220703125</ele>
        <time>2022-05-02T09:53:08.000Z</time>
      </trkpt>
      <trkpt lat="41.2625983916223049163818359375" lon="-1.60193391144275665283203125">
        <ele>596.79998779296875</ele>
        <time>2022-05-02T09:53:10.000Z</time>
      </trkpt>
      <trkpt lat="41.26265848986804485321044921875" lon="-1.60201647318899631500244140625">
        <ele>596.4000244140625</ele>
        <time>2022-05-02T09:53:12.000Z</time>
      </trkpt>
      <trkpt lat="41.2627159059047698974609375" lon="-1.60210330970585346221923828125">
        <ele>596</ele>
        <time>2022-05-02T09:53:14.000Z</time>
      </trkpt>
      <trkpt lat="41.2627700529992580413818359375" lon="-1.6021838597953319549560546875">
        <ele>595.79998779296875</ele>
        <time>2022-05-02T09:53:16.000Z</time>
      </trkpt>
      <trkpt lat="41.2627935223281383514404296875" lon="-1.60221881233155727386474609375">
        <ele>595.79998779296875</ele>
        <time>2022-05-02T09:53:17.000Z</time>
      </trkpt>
      <trkpt lat="41.2628124654293060302734375" lon="-1.6022472269833087921142578125">
        <ele>595.5999755859375</ele>
        <time>2022-05-02T09:53:18.000Z</time>
      </trkpt>
      <trkpt lat="41.262829564511775970458984375" lon="-1.60227178595960140228271484375">
        <ele>595.5999755859375</ele>
        <time>2022-05-02T09:53:20.000Z</time>
      </trkpt>
      <trkpt lat="41.262829564511775970458984375" lon="-1.60227178595960140228271484375">
        <ele>595.5999755859375</ele>
        <time>2022-05-02T09:53:21.000Z</time>
      </trkpt>
      <trkpt lat="41.26284859143197536468505859375" lon="-1.60232341848313808441162109375">
        <ele>595.79998779296875</ele>
        <time>2022-05-02T09:54:11.000Z</time>
      </trkpt>
      <trkpt lat="41.2628585658967494964599609375" lon="-1.6023360751569271087646484375">
        <ele>595.79998779296875</ele>
        <time>2022-05-02T09:54:12.000Z</time>
      </trkpt>
      <trkpt lat="41.2628595717251300811767578125" lon="-1.602338589727878570556640625">
        <ele>595.79998779296875</ele>
        <time>2022-05-02T09:54:13.000Z</time>
      </trkpt>
      <trkpt lat="41.26279813237488269805908203125" lon="-1.60231604240834712982177734375">
        <ele>596</ele>
        <time>2022-05-02T09:54:21.000Z</time>
      </trkpt>
      <trkpt lat="41.26277231611311435699462890625" lon="-1.6022988595068454742431640625">
        <ele>596</ele>
        <time>2022-05-02T09:54:22.000Z</time>
      </trkpt>
      <trkpt lat="41.2627583183348178863525390625" lon="-1.6022867895662784576416015625">
        <ele>596</ele>
        <time>2022-05-02T09:54:23.000Z</time>
      </trkpt>
      <trkpt lat="41.2627422250807285308837890625" lon="-1.60227145068347454071044921875">
        <ele>596</ele>
        <time>2022-05-02T09:54:24.000Z</time>
      </trkpt>
      <trkpt lat="41.26270744018256664276123046875" lon="-1.60223155282437801361083984375">
        <ele>596</ele>
        <time>2022-05-02T09:54:26.000Z</time>
      </trkpt>
      <trkpt lat="41.2626731581985950469970703125" lon="-1.60218461416661739349365234375">
        <ele>596.20001220703125</ele>
        <time>2022-05-02T09:54:28.000Z</time>
      </trkpt>
      <trkpt lat="41.262655220925807952880859375" lon="-1.6021597199141979217529296875">
        <ele>596.4000244140625</ele>
        <time>2022-05-02T09:54:29.000Z</time>
      </trkpt>
      <trkpt lat="41.2626372836530208587646484375" lon="-1.6021322272717952728271484375">
        <ele>596.5999755859375</ele>
        <time>2022-05-02T09:54:30.000Z</time>
      </trkpt>
      <trkpt lat="41.2625960446894168853759765625" lon="-1.60207296721637248992919921875">
        <ele>596.79998779296875</ele>
        <time>2022-05-02T09:54:32.000Z</time>
      </trkpt>
      <trkpt lat="41.2625487707555294036865234375" lon="-1.6020123660564422607421875">
        <ele>597.20001220703125</ele>
        <time>2022-05-02T09:54:34.000Z</time>
      </trkpt>
      <trkpt lat="41.26250334084033966064453125" lon="-1.60194640047848224639892578125">
        <ele>597.5999755859375</ele>
        <time>2022-05-02T09:54:36.000Z</time>
      </trkpt>
      <trkpt lat="41.26248213462531566619873046875" lon="-1.60191287286579608917236328125">
        <ele>597.5999755859375</ele>
        <time>2022-05-02T09:54:37.000Z</time>
      </trkpt>
      <trkpt lat="41.26245916821062564849853515625" lon="-1.6018821112811565399169921875">
        <ele>597.4000244140625</ele>
        <time>2022-05-02T09:54:38.000Z</time>
      </trkpt>
      <trkpt lat="41.262411139905452728271484375" lon="-1.60182117484509944915771484375">
        <ele>597</ele>
        <time>2022-05-02T09:54:40.000Z</time>
      </trkpt>
      <trkpt lat="41.2623647041618824005126953125" lon="-1.60175998695194721221923828125">
        <ele>596.79998779296875</ele>
        <time>2022-05-02T09:54:42.000Z</time>
      </trkpt>
      <trkpt lat="41.26231885515153408050537109375" lon="-1.60169946961104869842529296875">
        <ele>596.4000244140625</ele>
        <time>2022-05-02T09:54:44.000Z</time>
      </trkpt>
      <trkpt lat="41.26227208413183689117431640625" lon="-1.601637862622737884521484375">
        <ele>596.5999755859375</ele>
        <time>2022-05-02T09:54:46.000Z</time>
      </trkpt>
      <trkpt lat="41.2622262351214885711669921875" lon="-1.60156804136931896209716796875">
        <ele>596.4000244140625</ele>
        <time>2022-05-02T09:54:48.000Z</time>
      </trkpt>
      <trkpt lat="41.2621794641017913818359375" lon="-1.60149914212524890899658203125">
        <ele>595.5999755859375</ele>
        <time>2022-05-02T09:54:50.000Z</time>
      </trkpt>
      <trkpt lat="41.262129507958889007568359375" lon="-1.601429320871829986572265625">
        <ele>595.4000244140625</ele>
        <time>2022-05-02T09:54:52.000Z</time>
      </trkpt>
      <trkpt lat="41.26207846216857433319091796875" lon="-1.60136100836098194122314453125">
        <ele>595.79998779296875</ele>
        <time>2022-05-02T09:54:54.000Z</time>
      </trkpt>
      <trkpt lat="41.2620307691395282745361328125" lon="-1.601291857659816741943359375">
        <ele>596.4000244140625</ele>
        <time>2022-05-02T09:54:56.000Z</time>
      </trkpt>
      <trkpt lat="41.2619821541011333465576171875" lon="-1.60122237168252468109130859375">
        <ele>596.20001220703125</ele>
        <time>2022-05-02T09:54:58.000Z</time>
      </trkpt>
      <trkpt lat="41.26193261705338954925537109375" lon="-1.60115514881908893585205078125">
        <ele>596</ele>
        <time>2022-05-02T09:55:00.000Z</time>
      </trkpt>
      <trkpt lat="41.26188517548143863677978515625" lon="-1.6010901890695095062255859375">
        <ele>596</ele>
        <time>2022-05-02T09:55:02.000Z</time>
      </trkpt>
      <trkpt lat="41.2618346326053142547607421875" lon="-1.601022966206073760986328125">
        <ele>596.4000244140625</ele>
        <time>2022-05-02T09:55:04.000Z</time>
      </trkpt>
      <trkpt lat="41.2617843411862850189208984375" lon="-1.60095549188554286956787109375">
        <ele>597</ele>
        <time>2022-05-02T09:55:06.000Z</time>
      </trkpt>
      <trkpt lat="41.2617313675582408905029296875" lon="-1.6008880175650119781494140625">
        <ele>596.79998779296875</ele>
        <time>2022-05-02T09:55:08.000Z</time>
      </trkpt>
      <trkpt lat="41.2616765499114990234375" lon="-1.60082037560641765594482421875">
        <ele>596.5999755859375</ele>
        <time>2022-05-02T09:55:10.000Z</time>
      </trkpt>
      <trkpt lat="41.26165115274488925933837890625" lon="-1.60078701563179492950439453125">
        <ele>596.5999755859375</ele>
        <time>2022-05-02T09:55:11.000Z</time>
      </trkpt>
      <trkpt lat="41.26162600703537464141845703125" lon="-1.60075315274298191070556640625">
        <ele>596.5999755859375</ele>
        <time>2022-05-02T09:55:12.000Z</time>
      </trkpt>
      <trkpt lat="41.2615768052637577056884765625" lon="-1.60068559460341930389404296875">
        <ele>596.5999755859375</ele>
        <time>2022-05-02T09:55:14.000Z</time>
      </trkpt>
      <trkpt lat="41.26152995042502880096435546875" lon="-1.6006154380738735198974609375">
        <ele>596.79998779296875</ele>
        <time>2022-05-02T09:55:16.000Z</time>
      </trkpt>
      <trkpt lat="41.26148267649114131927490234375" lon="-1.6005436889827251434326171875">
        <ele>597.20001220703125</ele>
        <time>2022-05-02T09:55:18.000Z</time>
      </trkpt>
      <trkpt lat="41.2614594586193561553955078125" lon="-1.60050722770392894744873046875">
        <ele>597.20001220703125</ele>
        <time>2022-05-02T09:55:19.000Z</time>
      </trkpt>
      <trkpt lat="41.26143305562436580657958984375" lon="-1.6004719398915767669677734375">
        <ele>597.4000244140625</ele>
        <time>2022-05-02T09:55:20.000Z</time>
      </trkpt>
      <trkpt lat="41.2613846920430660247802734375" lon="-1.6003988496959209442138671875">
        <ele>597.20001220703125</ele>
        <time>2022-05-02T09:55:22.000Z</time>
      </trkpt>
      <trkpt lat="41.26133549027144908905029296875" lon="-1.60032450221478939056396484375">
        <ele>597</ele>
        <time>2022-05-02T09:55:24.000Z</time>
      </trkpt>
      <trkpt lat="41.26128503121435642242431640625" lon="-1.60024990327656269073486328125">
        <ele>596.79998779296875</ele>
        <time>2022-05-02T09:55:26.000Z</time>
      </trkpt>
      <trkpt lat="41.2612338177859783172607421875" lon="-1.60018150694668292999267578125">
        <ele>596.79998779296875</ele>
        <time>2022-05-02T09:55:28.000Z</time>
      </trkpt>
      <trkpt lat="41.261186040937900543212890625" lon="-1.60011260770261287689208984375">
        <ele>596.5999755859375</ele>
        <time>2022-05-02T09:55:30.000Z</time>
      </trkpt>
      <trkpt lat="41.261139102280139923095703125" lon="-1.6000441275537014007568359375">
        <ele>596.4000244140625</ele>
        <time>2022-05-02T09:55:32.000Z</time>
      </trkpt>
      <trkpt lat="41.26109476201236248016357421875" lon="-1.599975563585758209228515625">
        <ele>596.4000244140625</ele>
        <time>2022-05-02T09:55:34.000Z</time>
      </trkpt>
      <trkpt lat="41.26106944866478443145751953125" lon="-1.59994262270629405975341796875">
        <ele>596.5999755859375</ele>
        <time>2022-05-02T09:55:35.000Z</time>
      </trkpt>
      <trkpt lat="41.26104664988815784454345703125" lon="-1.5999121963977813720703125">
        <ele>596.5999755859375</ele>
        <time>2022-05-02T09:55:36.000Z</time>
      </trkpt>
      <trkpt lat="41.26100063323974609375" lon="-1.5998479910194873809814453125">
        <ele>597</ele>
        <time>2022-05-02T09:55:38.000Z</time>
      </trkpt>
      <trkpt lat="41.26095729880034923553466796875" lon="-1.59978504292666912078857421875">
        <ele>597.4000244140625</ele>
        <time>2022-05-02T09:55:40.000Z</time>
      </trkpt>
      <trkpt lat="41.26095729880034923553466796875" lon="-1.59978504292666912078857421875">
        <ele>597.4000244140625</ele>
        <time>2022-05-02T09:55:41.000Z</time>
      </trkpt>
      <trkpt lat="41.26090650446712970733642578125" lon="-1.5997185744345188140869140625">
        <ele>597.79998779296875</ele>
        <time>2022-05-02T09:55:42.000Z</time>
      </trkpt>
      <trkpt lat="41.26085872761905193328857421875" lon="-1.59965428523719310760498046875">
        <ele>598.4000244140625</ele>
        <time>2022-05-02T09:55:44.000Z</time>
      </trkpt>
      <trkpt lat="41.260816566646099090576171875" lon="-1.59959091804921627044677734375">
        <ele>598.4000244140625</ele>
        <time>2022-05-02T09:55:46.000Z</time>
      </trkpt>
      <trkpt lat="41.26079552806913852691650390625" lon="-1.59955923445522785186767578125">
        <ele>598.4000244140625</ele>
        <time>2022-05-02T09:55:47.000Z</time>
      </trkpt>
      <trkpt lat="41.260772980749607086181640625" lon="-1.59952570684254169464111328125">
        <ele>598.4000244140625</ele>
        <time>2022-05-02T09:55:48.000Z</time>
      </trkpt>
      <trkpt lat="41.26071271486580371856689453125" lon="-1.5994493477046489715576171875">
        <ele>598.79998779296875</ele>
        <time>2022-05-02T09:55:50.000Z</time>
      </trkpt>
      <trkpt lat="41.26064616255462169647216796875" lon="-1.59937265329062938690185546875">
        <ele>599.79998779296875</ele>
        <time>2022-05-02T09:55:52.000Z</time>
      </trkpt>
      <trkpt lat="41.26061582006514072418212890625" lon="-1.59933610819280147552490234375">
        <ele>600.20001220703125</ele>
        <time>2022-05-02T09:55:53.000Z</time>
      </trkpt>
      <trkpt lat="41.2605793587863445281982421875" lon="-1.599290929734706878662109375">
        <ele>600</ele>
        <time>2022-05-02T09:55:54.000Z</time>
      </trkpt>
      <trkpt lat="41.2605164945125579833984375" lon="-1.59920535050332546234130859375">
        <ele>599.79998779296875</ele>
        <time>2022-05-02T09:55:56.000Z</time>
      </trkpt>
      <trkpt lat="41.26044969074428081512451171875" lon="-1.599123962223529815673828125">
        <ele>600.20001220703125</ele>
        <time>2022-05-02T09:55:58.000Z</time>
      </trkpt>
      <trkpt lat="41.2604160793125629425048828125" lon="-1.5990825556218624114990234375">
        <ele>600.5999755859375</ele>
        <time>2022-05-02T09:55:59.000Z</time>
      </trkpt>
      <trkpt lat="41.26038246788084506988525390625" lon="-1.59904005937278270721435546875">
        <ele>600.79998779296875</ele>
        <time>2022-05-02T09:56:00.000Z</time>
      </trkpt>
      <trkpt lat="41.26031759195029735565185546875" lon="-1.598961353302001953125">
        <ele>600.4000244140625</ele>
        <time>2022-05-02T09:56:02.000Z</time>
      </trkpt>
      <trkpt lat="41.26031759195029735565185546875" lon="-1.598961353302001953125">
        <ele>600.4000244140625</ele>
        <time>2022-05-02T09:56:03.000Z</time>
      </trkpt>
      <trkpt lat="41.260257661342620849609375" lon="-1.59888315014541149139404296875">
        <ele>600</ele>
        <time>2022-05-02T09:56:04.000Z</time>
      </trkpt>
      <trkpt lat="41.26019856892526149749755859375" lon="-1.5988039411604404449462890625">
        <ele>599.79998779296875</ele>
        <time>2022-05-02T09:56:06.000Z</time>
      </trkpt>
      <trkpt lat="41.26014324836432933807373046875" lon="-1.59872355870902538299560546875">
        <ele>600.5999755859375</ele>
        <time>2022-05-02T09:56:08.000Z</time>
      </trkpt>
      <trkpt lat="41.2600915320217609405517578125" lon="-1.59864543937146663665771484375">
        <ele>600.4000244140625</ele>
        <time>2022-05-02T09:56:10.000Z</time>
      </trkpt>
      <trkpt lat="41.26003914512693881988525390625" lon="-1.59855860285460948944091796875">
        <ele>601.20001220703125</ele>
        <time>2022-05-02T09:56:12.000Z</time>
      </trkpt>
      <trkpt lat="41.25997829250991344451904296875" lon="-1.59848182462155818939208984375">
        <ele>601.5999755859375</ele>
        <time>2022-05-02T09:56:14.000Z</time>
      </trkpt>
      <trkpt lat="41.2599208764731884002685546875" lon="-1.5984046272933483123779296875">
        <ele>602.20001220703125</ele>
        <time>2022-05-02T09:56:16.000Z</time>
      </trkpt>
      <trkpt lat="41.259865052998065948486328125" lon="-1.5983258374035358428955078125">
        <ele>602.79998779296875</ele>
        <time>2022-05-02T09:56:18.000Z</time>
      </trkpt>
      <trkpt lat="41.259810067713260650634765625" lon="-1.59824864007532596588134765625">
        <ele>603.4000244140625</ele>
        <time>2022-05-02T09:56:20.000Z</time>
      </trkpt>
      <trkpt lat="41.259757764637470245361328125" lon="-1.5981769748032093048095703125">
        <ele>603.5999755859375</ele>
        <time>2022-05-02T09:56:22.000Z</time>
      </trkpt>
      <trkpt lat="41.25970588065683841705322265625" lon="-1.598102711141109466552734375">
        <ele>603.79998779296875</ele>
        <time>2022-05-02T09:56:24.000Z</time>
      </trkpt>
      <trkpt lat="41.25965290702879428863525390625" lon="-1.5980250947177410125732421875">
        <ele>603.79998779296875</ele>
        <time>2022-05-02T09:56:26.000Z</time>
      </trkpt>
      <trkpt lat="41.259592808783054351806640625" lon="-1.59795041196048259735107421875">
        <ele>603.79998779296875</ele>
        <time>2022-05-02T09:56:28.000Z</time>
      </trkpt>
      <trkpt lat="41.25956523232161998748779296875" lon="-1.59791403450071811676025390625">
        <ele>603.79998779296875</ele>
        <time>2022-05-02T09:56:29.000Z</time>
      </trkpt>
      <trkpt lat="41.25953673385083675384521484375" lon="-1.59787866286933422088623046875">
        <ele>603.5999755859375</ele>
        <time>2022-05-02T09:56:30.000Z</time>
      </trkpt>
      <trkpt lat="41.25948325730860233306884765625" lon="-1.59781194292008876800537109375">
        <ele>603</ele>
        <time>2022-05-02T09:56:32.000Z</time>
      </trkpt>
      <trkpt lat="41.25945760868489742279052734375" lon="-1.59776307642459869384765625">
        <ele>603</ele>
        <time>2022-05-02T09:56:34.000Z</time>
      </trkpt>
      <trkpt lat="41.25944587402045726776123046875" lon="-1.59773717634379863739013671875">
        <ele>603</ele>
        <time>2022-05-02T09:56:35.000Z</time>
      </trkpt>
      <trkpt lat="41.25942952930927276611328125" lon="-1.59771219827234745025634765625">
        <ele>602.79998779296875</ele>
        <time>2022-05-02T09:56:36.000Z</time>
      </trkpt>
      <trkpt lat="41.25937856733798980712890625" lon="-1.5976619906723499298095703125">
        <ele>602.4000244140625</ele>
        <time>2022-05-02T09:56:38.000Z</time>
      </trkpt>
      <trkpt lat="41.2593485601246356964111328125" lon="-1.59763139672577381134033203125">
        <ele>602.79998779296875</ele>
        <time>2022-05-02T09:56:39.000Z</time>
      </trkpt>
      <trkpt lat="41.25931612215936183929443359375" lon="-1.59759183414280414581298828125">
        <ele>603.20001220703125</ele>
        <time>2022-05-02T09:56:40.000Z</time>
      </trkpt>
      <trkpt lat="41.25924621708691120147705078125" lon="-1.59750348888337612152099609375">
        <ele>603.4000244140625</ele>
        <time>2022-05-02T09:56:42.000Z</time>
      </trkpt>
      <trkpt lat="41.25918217934668064117431640625" lon="-1.5974043309688568115234375">
        <ele>604.20001220703125</ele>
        <time>2022-05-02T09:56:44.000Z</time>
      </trkpt>
      <trkpt lat="41.259119398891925811767578125" lon="-1.597308777272701263427734375">
        <ele>604.79998779296875</ele>
        <time>2022-05-02T09:56:46.000Z</time>
      </trkpt>
      <trkpt lat="41.25905527733266353607177734375" lon="-1.59722034819424152374267578125">
        <ele>605.4000244140625</ele>
        <time>2022-05-02T09:56:48.000Z</time>
      </trkpt>
      <trkpt lat="41.2589945085346698760986328125" lon="-1.59713803790509700775146484375">
        <ele>605.79998779296875</ele>
        <time>2022-05-02T09:56:50.000Z</time>
      </trkpt>
      <trkpt lat="41.25896550714969635009765625" lon="-1.59709897823631763458251953125">
        <ele>606</ele>
        <time>2022-05-02T09:56:51.000Z</time>
      </trkpt>
      <trkpt lat="41.2589393556118011474609375" lon="-1.597060002386569976806640625">
        <ele>606</ele>
        <time>2022-05-02T09:56:52.000Z</time>
      </trkpt>
      <trkpt lat="41.2588868848979473114013671875" lon="-1.59698716364800930023193359375">
        <ele>606.4000244140625</ele>
        <time>2022-05-02T09:56:54.000Z</time>
      </trkpt>
      <trkpt lat="41.2588293850421905517578125" lon="-1.59691927023231983184814453125">
        <ele>606.5999755859375</ele>
        <time>2022-05-02T09:56:56.000Z</time>
      </trkpt>
      <trkpt lat="41.258802898228168487548828125" lon="-1.5968854911625385284423828125">
        <ele>606.5999755859375</ele>
        <time>2022-05-02T09:56:57.000Z</time>
      </trkpt>
      <trkpt lat="41.25877439975738525390625" lon="-1.596852801740169525146484375">
        <ele>606.4000244140625</ele>
        <time>2022-05-02T09:56:58.000Z</time>
      </trkpt>
      <trkpt lat="41.25874414108693599700927734375" lon="-1.59682556055486202239990234375">
        <ele>606.5999755859375</ele>
        <time>2022-05-02T09:56:59.000Z</time>
      </trkpt>
      <trkpt lat="41.25871262513101100921630859375" lon="-1.59680225886404514312744140625">
        <ele>606.5999755859375</ele>
        <time>2022-05-02T09:57:00.000Z</time>
      </trkpt>
      <trkpt lat="41.25865059904754161834716796875" lon="-1.59675590693950653076171875">
        <ele>606.5999755859375</ele>
        <time>2022-05-02T09:57:02.000Z</time>
      </trkpt>
      <trkpt lat="41.25861874781548976898193359375" lon="-1.5967332758009433746337890625">
        <ele>606.79998779296875</ele>
        <time>2022-05-02T09:57:03.000Z</time>
      </trkpt>
      <trkpt lat="41.2585866451263427734375" lon="-1.59671240486204624176025390625">
        <ele>606.79998779296875</ele>
        <time>2022-05-02T09:57:04.000Z</time>
      </trkpt>
      <trkpt lat="41.25852587632834911346435546875" lon="-1.59668256528675556182861328125">
        <ele>607.20001220703125</ele>
        <time>2022-05-02T09:57:06.000Z</time>
      </trkpt>
      <trkpt lat="41.258495785295963287353515625" lon="-1.5966692380607128143310546875">
        <ele>607.4000244140625</ele>
        <time>2022-05-02T09:57:07.000Z</time>
      </trkpt>
      <trkpt lat="41.2584677897393703460693359375" lon="-1.5966524742543697357177734375">
        <ele>607.5999755859375</ele>
        <time>2022-05-02T09:57:08.000Z</time>
      </trkpt>
      <trkpt lat="41.2584677897393703460693359375" lon="-1.5966524742543697357177734375">
        <ele>607.5999755859375</ele>
        <time>2022-05-02T09:57:09.000Z</time>
      </trkpt>
      <trkpt lat="41.25841272063553333282470703125" lon="-1.5966139174997806549072265625">
        <ele>608.20001220703125</ele>
        <time>2022-05-02T09:57:10.000Z</time>
      </trkpt>
      <trkpt lat="41.25838506035506725311279296875" lon="-1.59659673459827899932861328125">
        <ele>608.4000244140625</ele>
        <time>2022-05-02T09:57:11.000Z</time>
      </trkpt>
      <trkpt lat="41.25835689716041088104248046875" lon="-1.59657754004001617431640625">
        <ele>608.5999755859375</ele>
        <time>2022-05-02T09:57:12.000Z</time>
      </trkpt>
      <trkpt lat="41.2582971341907978057861328125" lon="-1.59653789363801479339599609375">
        <ele>608.5999755859375</ele>
        <time>2022-05-02T09:57:14.000Z</time>
      </trkpt>
      <trkpt lat="41.2582656182348728179931640625" lon="-1.596522890031337738037109375">
        <ele>608.79998779296875</ele>
        <time>2022-05-02T09:57:15.000Z</time>
      </trkpt>
      <trkpt lat="41.25823267735540866851806640625" lon="-1.59651576541364192962646484375">
        <ele>609</ele>
        <time>2022-05-02T09:57:16.000Z</time>
      </trkpt>
      <trkpt lat="41.25817266292870044708251953125" lon="-1.59651543013751506805419921875">
        <ele>609.4000244140625</ele>
        <time>2022-05-02T09:57:18.000Z</time>
      </trkpt>
      <trkpt lat="41.25811767764389514923095703125" lon="-1.596533954143524169921875">
        <ele>610</ele>
        <time>2022-05-02T09:57:20.000Z</time>
      </trkpt>
      <trkpt lat="41.25806503929197788238525390625" lon="-1.59656840376555919647216796875">
        <ele>610.5999755859375</ele>
        <time>2022-05-02T09:57:22.000Z</time>
      </trkpt>
      <trkpt lat="41.258008293807506561279296875" lon="-1.59661014564335346221923828125">
        <ele>611.20001220703125</ele>
        <time>2022-05-02T09:57:24.000Z</time>
      </trkpt>
      <trkpt lat="41.25798591412603855133056640625" lon="-1.596638225018978118896484375">
        <ele>611.5999755859375</ele>
        <time>2022-05-02T09:57:25.000Z</time>
      </trkpt>
      <trkpt lat="41.25795967876911163330078125" lon="-1.59666580148041248321533203125">
        <ele>611.5999755859375</ele>
        <time>2022-05-02T09:57:26.000Z</time>
      </trkpt>
      <trkpt lat="41.257896982133388519287109375" lon="-1.5967203676700592041015625">
        <ele>611.79998779296875</ele>
        <time>2022-05-02T09:57:28.000Z</time>
      </trkpt>
      <trkpt lat="41.2578351236879825592041015625" lon="-1.596775688230991363525390625">
        <ele>611.79998779296875</ele>
        <time>2022-05-02T09:57:30.000Z</time>
      </trkpt>
      <trkpt lat="41.257776282727718353271484375" lon="-1.59683234989643096923828125">
        <ele>611.79998779296875</ele>
        <time>2022-05-02T09:57:32.000Z</time>
      </trkpt>
      <trkpt lat="41.25772054307162761688232421875" lon="-1.5968958847224712371826171875">
        <ele>611.79998779296875</ele>
        <time>2022-05-02T09:57:34.000Z</time>
      </trkpt>
      <trkpt lat="41.2576808966696262359619140625" lon="-1.596971489489078521728515625">
        <ele>611.79998779296875</ele>
        <time>2022-05-02T09:57:36.000Z</time>
      </trkpt>
      <trkpt lat="41.2576653063297271728515625" lon="-1.59701147116720676422119140625">
        <ele>611.79998779296875</ele>
        <time>2022-05-02T09:57:37.000Z</time>
      </trkpt>
      <trkpt lat="41.25765097327530384063720703125" lon="-1.59705153666436672210693359375">
        <ele>611.79998779296875</ele>
        <time>2022-05-02T09:57:38.000Z</time>
      </trkpt>
      <trkpt lat="41.25762415118515491485595703125" lon="-1.59713468514382839202880859375">
        <ele>612</ele>
        <time>2022-05-02T09:57:40.000Z</time>
      </trkpt>
      <trkpt lat="41.2575943954288959503173828125" lon="-1.5972123853862285614013671875">
        <ele>612</ele>
        <time>2022-05-02T09:57:42.000Z</time>
      </trkpt>
      <trkpt lat="41.2575660645961761474609375" lon="-1.59726393409073352813720703125">
        <ele>612</ele>
        <time>2022-05-02T09:57:44.000Z</time>
      </trkpt>
      <trkpt lat="41.2575660645961761474609375" lon="-1.59726393409073352813720703125">
        <ele>612</ele>
        <time>2022-05-02T09:57:45.000Z</time>
      </trkpt>
      <trkpt lat="41.2575135938823223114013671875" lon="-1.5972874872386455535888671875">
        <ele>611.79998779296875</ele>
        <time>2022-05-02T09:57:46.000Z</time>
      </trkpt>
      <trkpt lat="41.25744335353374481201171875" lon="-1.59725605510175228118896484375">
        <ele>611.20001220703125</ele>
        <time>2022-05-02T09:57:48.000Z</time>
      </trkpt>
      <trkpt lat="41.25738945789635181427001953125" lon="-1.5971902571618556976318359375">
        <ele>611</ele>
        <time>2022-05-02T09:57:50.000Z</time>
      </trkpt>
      <trkpt lat="41.25734855420887470245361328125" lon="-1.59712605178356170654296875">
        <ele>610.79998779296875</ele>
        <time>2022-05-02T09:57:52.000Z</time>
      </trkpt>
      <trkpt lat="41.25734855420887470245361328125" lon="-1.59712605178356170654296875">
        <ele>610.79998779296875</ele>
        <time>2022-05-02T09:57:53.000Z</time>
      </trkpt>
      <trkpt lat="41.257308907806873321533203125" lon="-1.59706545062363147735595703125">
        <ele>610.79998779296875</ele>
        <time>2022-05-02T09:57:54.000Z</time>
      </trkpt>
      <trkpt lat="41.257269680500030517578125" lon="-1.59701465629041194915771484375">
        <ele>610.79998779296875</ele>
        <time>2022-05-02T09:57:56.000Z</time>
      </trkpt>
      <trkpt lat="41.25722785480320453643798828125" lon="-1.5969632752239704132080078125">
        <ele>610.79998779296875</ele>
        <time>2022-05-02T09:57:58.000Z</time>
      </trkpt>
      <trkpt lat="41.25722785480320453643798828125" lon="-1.5969632752239704132080078125">
        <ele>610.79998779296875</ele>
        <time>2022-05-02T09:57:59.000Z</time>
      </trkpt>
      <trkpt lat="41.257180161774158477783203125" lon="-1.59689806401729583740234375">
        <ele>610.79998779296875</ele>
        <time>2022-05-02T09:58:00.000Z</time>
      </trkpt>
      <trkpt lat="41.2571323849260807037353515625" lon="-1.59682095050811767578125">
        <ele>610.5999755859375</ele>
        <time>2022-05-02T09:58:02.000Z</time>
      </trkpt>
      <trkpt lat="41.25708553008735179901123046875" lon="-1.59672900103032588958740234375">
        <ele>610.5999755859375</ele>
        <time>2022-05-02T09:58:04.000Z</time>
      </trkpt>
      <trkpt lat="41.2570629827678203582763671875" lon="-1.59663126803934574127197265625">
        <ele>610.5999755859375</ele>
        <time>2022-05-02T09:58:06.000Z</time>
      </trkpt>
      <trkpt lat="41.2570559419691562652587890625" lon="-1.596526913344860076904296875">
        <ele>610.79998779296875</ele>
        <time>2022-05-02T09:58:08.000Z</time>
      </trkpt>
      <trkpt lat="41.2570559419691562652587890625" lon="-1.596526913344860076904296875">
        <ele>610.79998779296875</ele>
        <time>2022-05-02T09:58:09.000Z</time>
      </trkpt>
      <trkpt lat="41.25705636106431484222412109375" lon="-1.59641702659428119659423828125">
        <ele>610</ele>
        <time>2022-05-02T09:58:10.000Z</time>
      </trkpt>
      <trkpt lat="41.25705418176949024200439453125" lon="-1.59631468355655670166015625">
        <ele>609.5999755859375</ele>
        <time>2022-05-02T09:58:12.000Z</time>
      </trkpt>
      <trkpt lat="41.2570418603718280792236328125" lon="-1.59621653147041797637939453125">
        <ele>609.20001220703125</ele>
        <time>2022-05-02T09:58:14.000Z</time>
      </trkpt>
      <trkpt lat="41.2570485658943653106689453125" lon="-1.59612424671649932861328125">
        <ele>609</ele>
        <time>2022-05-02T09:58:16.000Z</time>
      </trkpt>
      <trkpt lat="41.25707865692675113677978515625" lon="-1.59603866748511791229248046875">
        <ele>608.5999755859375</ele>
        <time>2022-05-02T09:58:18.000Z</time>
      </trkpt>
      <trkpt lat="41.2570918165147304534912109375" lon="-1.5959933213889598846435546875">
        <ele>608.4000244140625</ele>
        <time>2022-05-02T09:58:19.000Z</time>
      </trkpt>
      <trkpt lat="41.25710380263626575469970703125" lon="-1.59594629891216754913330078125">
        <ele>608.4000244140625</ele>
        <time>2022-05-02T09:58:20.000Z</time>
      </trkpt>
      <trkpt lat="41.25711210072040557861328125" lon="-1.59584420733153820037841796875">
        <ele>608</ele>
        <time>2022-05-02T09:58:22.000Z</time>
      </trkpt>
      <trkpt lat="41.25709659419953823089599609375" lon="-1.5957428701221942901611328125">
        <ele>608</ele>
        <time>2022-05-02T09:58:24.000Z</time>
      </trkpt>
      <trkpt lat="41.25707513652741909027099609375" lon="-1.59569500945508480072021484375">
        <ele>608</ele>
        <time>2022-05-02T09:58:25.000Z</time>
      </trkpt>
      <trkpt lat="41.25704504549503326416015625" lon="-1.5956513397395610809326171875">
        <ele>608</ele>
        <time>2022-05-02T09:58:26.000Z</time>
      </trkpt>
      <trkpt lat="41.2569878809154033660888671875" lon="-1.5955688618123531341552734375">
        <ele>608</ele>
        <time>2022-05-02T09:58:28.000Z</time>
      </trkpt>
      <trkpt lat="41.25696323812007904052734375" lon="-1.5955249406397342681884765625">
        <ele>607.5999755859375</ele>
        <time>2022-05-02T09:58:29.000Z</time>
      </trkpt>
      <trkpt lat="41.25694043934345245361328125" lon="-1.59547783434391021728515625">
        <ele>607.5999755859375</ele>
        <time>2022-05-02T09:58:30.000Z</time>
      </trkpt>
      <trkpt lat="41.2568909861147403717041015625" lon="-1.5953908301889896392822265625">
        <ele>607.79998779296875</ele>
        <time>2022-05-02T09:58:32.000Z</time>
      </trkpt>
      <trkpt lat="41.2568909861147403717041015625" lon="-1.5953908301889896392822265625">
        <ele>607.79998779296875</ele>
        <time>2022-05-02T09:58:33.000Z</time>
      </trkpt>
      <trkpt lat="41.2568336538970470428466796875" lon="-1.59535135142505168914794921875">
        <ele>608.20001220703125</ele>
        <time>2022-05-02T09:58:34.000Z</time>
      </trkpt>
      <trkpt lat="41.2567736394703388214111328125" lon="-1.5953368507325649261474609375">
        <ele>608.5999755859375</ele>
        <time>2022-05-02T09:58:36.000Z</time>
      </trkpt>
      <trkpt lat="41.2566983699798583984375" lon="-1.5953106991946697235107421875">
        <ele>609.20001220703125</ele>
        <time>2022-05-02T09:58:38.000Z</time>
      </trkpt>
      <trkpt lat="41.25661580823361873626708984375" lon="-1.59527474083006381988525390625">
        <ele>610</ele>
        <time>2022-05-02T09:58:40.000Z</time>
      </trkpt>
      <trkpt lat="41.2565754912793636322021484375" lon="-1.59525613300502300262451171875">
        <ele>610.20001220703125</ele>
        <time>2022-05-02T09:58:41.000Z</time>
      </trkpt>
      <trkpt lat="41.25653919763863086700439453125" lon="-1.595242135226726531982421875">
        <ele>610.4000244140625</ele>
        <time>2022-05-02T09:58:42.000Z</time>
      </trkpt>
      <trkpt lat="41.25646895729005336761474609375" lon="-1.5952060930430889129638671875">
        <ele>611</ele>
        <time>2022-05-02T09:58:44.000Z</time>
      </trkpt>
      <trkpt lat="41.25640508718788623809814453125" lon="-1.59515328705310821533203125">
        <ele>611</ele>
        <time>2022-05-02T09:58:46.000Z</time>
      </trkpt>
      <trkpt lat="41.25635705888271331787109375" lon="-1.5950806997716426849365234375">
        <ele>610.4000244140625</ele>
        <time>2022-05-02T09:58:48.000Z</time>
      </trkpt>
      <trkpt lat="41.25633702613413333892822265625" lon="-1.5950059331953525543212890625">
        <ele>609.79998779296875</ele>
        <time>2022-05-02T09:58:50.000Z</time>
      </trkpt>
      <trkpt lat="41.256315149366855621337890625" lon="-1.594926305115222930908203125">
        <ele>609.79998779296875</ele>
        <time>2022-05-02T09:58:52.000Z</time>
      </trkpt>
      <trkpt lat="41.25627986155450344085693359375" lon="-1.594851203262805938720703125">
        <ele>609.79998779296875</ele>
        <time>2022-05-02T09:58:54.000Z</time>
      </trkpt>
      <trkpt lat="41.256262175738811492919921875" lon="-1.5948158316314220428466796875">
        <ele>609.79998779296875</ele>
        <time>2022-05-02T09:58:55.000Z</time>
      </trkpt>
      <trkpt lat="41.2562437355518341064453125" lon="-1.59477375447750091552734375">
        <ele>610</ele>
        <time>2022-05-02T09:58:56.000Z</time>
      </trkpt>
      <trkpt lat="41.2562140636146068572998046875" lon="-1.59466872923076152801513671875">
        <ele>609.5999755859375</ele>
        <time>2022-05-02T09:58:58.000Z</time>
      </trkpt>
      <trkpt lat="41.25616469420492649078369140625" lon="-1.59458222799003124237060546875">
        <ele>609.4000244140625</ele>
        <time>2022-05-02T09:59:00.000Z</time>
      </trkpt>
      <trkpt lat="41.25610015355050563812255859375" lon="-1.594544090330600738525390625">
        <ele>610</ele>
        <time>2022-05-02T09:59:02.000Z</time>
      </trkpt>
      <trkpt lat="41.2560326792299747467041015625" lon="-1.594509892165660858154296875">
        <ele>610.4000244140625</ele>
        <time>2022-05-02T09:59:04.000Z</time>
      </trkpt>
      <trkpt lat="41.2560326792299747467041015625" lon="-1.594509892165660858154296875">
        <ele>610.4000244140625</ele>
        <time>2022-05-02T09:59:05.000Z</time>
      </trkpt>
      <trkpt lat="41.25595816411077976226806640625" lon="-1.594476364552974700927734375">
        <ele>610.4000244140625</ele>
        <time>2022-05-02T09:59:06.000Z</time>
      </trkpt>
      <trkpt lat="41.25588071532547473907470703125" lon="-1.59443688578903675079345703125">
        <ele>610.20001220703125</ele>
        <time>2022-05-02T09:59:08.000Z</time>
      </trkpt>
      <trkpt lat="41.25580376945436000823974609375" lon="-1.59440092742443084716796875">
        <ele>610.20001220703125</ele>
        <time>2022-05-02T09:59:10.000Z</time>
      </trkpt>
      <trkpt lat="41.25572095625102519989013671875" lon="-1.59436203539371490478515625">
        <ele>610.4000244140625</ele>
        <time>2022-05-02T09:59:12.000Z</time>
      </trkpt>
      <trkpt lat="41.255681477487087249755859375" lon="-1.5943434275686740875244140625">
        <ele>610.4000244140625</ele>
        <time>2022-05-02T09:59:13.000Z</time>
      </trkpt>
      <trkpt lat="41.255643926560878753662109375" lon="-1.594323478639125823974609375">
        <ele>610.4000244140625</ele>
        <time>2022-05-02T09:59:14.000Z</time>
      </trkpt>
      <trkpt lat="41.2555699981749057769775390625" lon="-1.5942840836942195892333984375">
        <ele>610</ele>
        <time>2022-05-02T09:59:16.000Z</time>
      </trkpt>
      <trkpt lat="41.255499422550201416015625" lon="-1.59424426965415477752685546875">
        <ele>609.5999755859375</ele>
        <time>2022-05-02T09:59:18.000Z</time>
      </trkpt>
      <trkpt lat="41.25542893074452877044677734375" lon="-1.5942002646625041961669921875">
        <ele>609.5999755859375</ele>
        <time>2022-05-02T09:59:20.000Z</time>
      </trkpt>
      <trkpt lat="41.2553587742149829864501953125" lon="-1.594147793948650360107421875">
        <ele>609.4000244140625</ele>
        <time>2022-05-02T09:59:22.000Z</time>
      </trkpt>
      <trkpt lat="41.25528794713318347930908203125" lon="-1.59408870153129100799560546875">
        <ele>609.4000244140625</ele>
        <time>2022-05-02T09:59:24.000Z</time>
      </trkpt>
      <trkpt lat="41.25521468929946422576904296875" lon="-1.59402449615299701690673828125">
        <ele>609.79998779296875</ele>
        <time>2022-05-02T09:59:26.000Z</time>
      </trkpt>
      <trkpt lat="41.2551415152847766876220703125" lon="-1.59395693801343441009521484375">
        <ele>610.5999755859375</ele>
        <time>2022-05-02T09:59:28.000Z</time>
      </trkpt>
      <trkpt lat="41.255064904689788818359375" lon="-1.5938887931406497955322265625">
        <ele>611.5999755859375</ele>
        <time>2022-05-02T09:59:30.000Z</time>
      </trkpt>
      <trkpt lat="41.25498653389513492584228515625" lon="-1.59382081590592861175537109375">
        <ele>612.4000244140625</ele>
        <time>2022-05-02T09:59:32.000Z</time>
      </trkpt>
      <trkpt lat="41.25490087084472179412841796875" lon="-1.5937592089176177978515625">
        <ele>612.5999755859375</ele>
        <time>2022-05-02T09:59:34.000Z</time>
      </trkpt>
      <trkpt lat="41.25480665825307369232177734375" lon="-1.59369793720543384552001953125">
        <ele>612.5999755859375</ele>
        <time>2022-05-02T09:59:36.000Z</time>
      </trkpt>
      <trkpt lat="41.25471160747110843658447265625" lon="-1.5936386771500110626220703125">
        <ele>612.5999755859375</ele>
        <time>2022-05-02T09:59:38.000Z</time>
      </trkpt>
      <trkpt lat="41.25462141819298267364501953125" lon="-1.59358017146587371826171875">
        <ele>612.4000244140625</ele>
        <time>2022-05-02T09:59:40.000Z</time>
      </trkpt>
      <trkpt lat="41.25453759916126728057861328125" lon="-1.5935250185430049896240234375">
        <ele>611.79998779296875</ele>
        <time>2022-05-02T09:59:42.000Z</time>
      </trkpt>
      <trkpt lat="41.25445545651018619537353515625" lon="-1.5934696979820728302001953125">
        <ele>611.20001220703125</ele>
        <time>2022-05-02T09:59:44.000Z</time>
      </trkpt>
      <trkpt lat="41.25437063165009021759033203125" lon="-1.59340582787990570068359375">
        <ele>610.5999755859375</ele>
        <time>2022-05-02T09:59:46.000Z</time>
      </trkpt>
      <trkpt lat="41.25432654283940792083740234375" lon="-1.59337976016104221343994140625">
        <ele>610.5999755859375</ele>
        <time>2022-05-02T09:59:47.000Z</time>
      </trkpt>
      <trkpt lat="41.25428161583840847015380859375" lon="-1.59335754811763763427734375">
        <ele>610.4000244140625</ele>
        <time>2022-05-02T09:59:48.000Z</time>
      </trkpt>
      <trkpt lat="41.25418715178966522216796875" lon="-1.59332041628658771514892578125">
        <ele>610.4000244140625</ele>
        <time>2022-05-02T09:59:50.000Z</time>
      </trkpt>
      <trkpt lat="41.25408547930419445037841796875" lon="-1.59329007379710674285888671875">
        <ele>610.4000244140625</ele>
        <time>2022-05-02T09:59:52.000Z</time>
      </trkpt>
      <trkpt lat="41.25397684983909130096435546875" lon="-1.59324330277740955352783203125">
        <ele>611</ele>
        <time>2022-05-02T09:59:54.000Z</time>
      </trkpt>
      <trkpt lat="41.25386939384043216705322265625" lon="-1.593175828456878662109375">
        <ele>611</ele>
        <time>2022-05-02T09:59:56.000Z</time>
      </trkpt>
      <trkpt lat="41.2538185156881809234619140625" lon="-1.59314095973968505859375">
        <ele>610.79998779296875</ele>
        <time>2022-05-02T09:59:57.000Z</time>
      </trkpt>
      <trkpt lat="41.25376713462173938751220703125" lon="-1.5931102819740772247314453125">
        <ele>610.4000244140625</ele>
        <time>2022-05-02T09:59:58.000Z</time>
      </trkpt>
      <trkpt lat="41.25366269610822200775146484375" lon="-1.59305605106055736541748046875">
        <ele>609.79998779296875</ele>
        <time>2022-05-02T10:00:00.000Z</time>
      </trkpt>
      <trkpt lat="41.25356127507984638214111328125" lon="-1.59299637190997600555419921875">
        <ele>609.5999755859375</ele>
        <time>2022-05-02T10:00:02.000Z</time>
      </trkpt>
      <trkpt lat="41.25346505083143711090087890625" lon="-1.59293233416974544525146484375">
        <ele>609.79998779296875</ele>
        <time>2022-05-02T10:00:04.000Z</time>
      </trkpt>
      <trkpt lat="41.2533684074878692626953125" lon="-1.59286578185856342315673828125">
        <ele>609.79998779296875</ele>
        <time>2022-05-02T10:00:06.000Z</time>
      </trkpt>
      <trkpt lat="41.2533216364681720733642578125" lon="-1.5928293205797672271728515625">
        <ele>609.79998779296875</ele>
        <time>2022-05-02T10:00:07.000Z</time>
      </trkpt>
      <trkpt lat="41.2532745301723480224609375" lon="-1.59279537387192249298095703125">
        <ele>610</ele>
        <time>2022-05-02T10:00:08.000Z</time>
      </trkpt>
      <trkpt lat="41.25322734005749225616455078125" lon="-1.59276788122951984405517578125">
        <ele>610.20001220703125</ele>
        <time>2022-05-02T10:00:09.000Z</time>
      </trkpt>
      <trkpt lat="41.25318241305649280548095703125" lon="-1.59274424426257610321044921875">
        <ele>610.20001220703125</ele>
        <time>2022-05-02T10:00:10.000Z</time>
      </trkpt>
      <trkpt lat="41.25310177914798259735107421875" lon="-1.59269747324287891387939453125">
        <ele>610.5999755859375</ele>
        <time>2022-05-02T10:00:12.000Z</time>
      </trkpt>
      <trkpt lat="41.25302307307720184326171875" lon="-1.59264164976775646209716796875">
        <ele>610.79998779296875</ele>
        <time>2022-05-02T10:00:14.000Z</time>
      </trkpt>
      <trkpt lat="41.2529558502137660980224609375" lon="-1.59256520681083202362060546875">
        <ele>611.20001220703125</ele>
        <time>2022-05-02T10:00:16.000Z</time>
      </trkpt>
      <trkpt lat="41.25292559154331684112548828125" lon="-1.59251843579113483428955078125">
        <ele>611.4000244140625</ele>
        <time>2022-05-02T10:00:17.000Z</time>
      </trkpt>
      <trkpt lat="41.2528965063393115997314453125" lon="-1.5924665518105030059814453125">
        <ele>611.5999755859375</ele>
        <time>2022-05-02T10:00:18.000Z</time>
      </trkpt>
      <trkpt lat="41.25283489935100078582763671875" lon="-1.59235800616443157196044921875">
        <ele>612</ele>
        <time>2022-05-02T10:00:20.000Z</time>
      </trkpt>
      <trkpt lat="41.25276180915534496307373046875" lon="-1.5922580100595951080322265625">
        <ele>612.5999755859375</ele>
        <time>2022-05-02T10:00:22.000Z</time>
      </trkpt>
      <trkpt lat="41.2526755593717098236083984375" lon="-1.59217561595141887664794921875">
        <ele>613</ele>
        <time>2022-05-02T10:00:24.000Z</time>
      </trkpt>
      <trkpt lat="41.25258428044617176055908203125" lon="-1.59210688434541225433349609375">
        <ele>613.4000244140625</ele>
        <time>2022-05-02T10:00:26.000Z</time>
      </trkpt>
      <trkpt lat="41.25258428044617176055908203125" lon="-1.59210688434541225433349609375">
        <ele>613.4000244140625</ele>
        <time>2022-05-02T10:00:27.000Z</time>
      </trkpt>
      <trkpt lat="41.2525025568902492523193359375" lon="-1.59203530289232730865478515625">
        <ele>613.79998779296875</ele>
        <time>2022-05-02T10:00:28.000Z</time>
      </trkpt>
      <trkpt lat="41.252432651817798614501953125" lon="-1.59196279942989349365234375">
        <ele>614</ele>
        <time>2022-05-02T10:00:30.000Z</time>
      </trkpt>
      <trkpt lat="41.25236417166888713836669921875" lon="-1.591902114450931549072265625">
        <ele>613.20001220703125</ele>
        <time>2022-05-02T10:00:32.000Z</time>
      </trkpt>
      <trkpt lat="41.25229795463383197784423828125" lon="-1.591846458613872528076171875">
        <ele>612.5999755859375</ele>
        <time>2022-05-02T10:00:34.000Z</time>
      </trkpt>
      <trkpt lat="41.2522319890558719635009765625" lon="-1.59179306589066982269287109375">
        <ele>612</ele>
        <time>2022-05-02T10:00:36.000Z</time>
      </trkpt>
      <trkpt lat="41.25216635875403881072998046875" lon="-1.59174562431871891021728515625">
        <ele>611.5999755859375</ele>
        <time>2022-05-02T10:00:38.000Z</time>
      </trkpt>
      <trkpt lat="41.25213014893233776092529296875" lon="-1.5917259268462657928466796875">
        <ele>611.4000244140625</ele>
        <time>2022-05-02T10:00:39.000Z</time>
      </trkpt>
      <trkpt lat="41.2520898319780826568603515625" lon="-1.5917100012302398681640625">
        <ele>611</ele>
        <time>2022-05-02T10:00:40.000Z</time>
      </trkpt>
      <trkpt lat="41.2520003132522106170654296875" lon="-1.59168921411037445068359375">
        <ele>610.4000244140625</ele>
        <time>2022-05-02T10:00:42.000Z</time>
      </trkpt>
      <trkpt lat="41.25190702266991138458251953125" lon="-1.59167312085628509521484375">
        <ele>609.79998779296875</ele>
        <time>2022-05-02T10:00:44.000Z</time>
      </trkpt>
      <trkpt lat="41.25181180424988269805908203125" lon="-1.5916444547474384307861328125">
        <ele>609.4000244140625</ele>
        <time>2022-05-02T10:00:46.000Z</time>
      </trkpt>
      <trkpt lat="41.25176603905856609344482421875" lon="-1.59162425436079502105712890625">
        <ele>609.20001220703125</ele>
        <time>2022-05-02T10:00:47.000Z</time>
      </trkpt>
      <trkpt lat="41.25172161497175693511962890625" lon="-1.59159910865128040313720703125">
        <ele>609</ele>
        <time>2022-05-02T10:00:48.000Z</time>
      </trkpt>
      <trkpt lat="41.25163544900715351104736328125" lon="-1.59153959713876247406005859375">
        <ele>608.79998779296875</ele>
        <time>2022-05-02T10:00:50.000Z</time>
      </trkpt>
      <trkpt lat="41.25155950896441936492919921875" lon="-1.591470949351787567138671875">
        <ele>608.79998779296875</ele>
        <time>2022-05-02T10:00:52.000Z</time>
      </trkpt>
      <trkpt lat="41.2515218742191791534423828125" lon="-1.59143884666264057159423828125">
        <ele>609</ele>
        <time>2022-05-02T10:00:53.000Z</time>
      </trkpt>
      <trkpt lat="41.25148541294038295745849609375" lon="-1.59141034819185733795166015625">
        <ele>609.20001220703125</ele>
        <time>2022-05-02T10:00:54.000Z</time>
      </trkpt>
      <trkpt lat="41.25141601078212261199951171875" lon="-1.5913614816963672637939453125">
        <ele>609.79998779296875</ele>
        <time>2022-05-02T10:00:56.000Z</time>
      </trkpt>
      <trkpt lat="41.251355744898319244384765625" lon="-1.59132820554077625274658203125">
        <ele>610.20001220703125</ele>
        <time>2022-05-02T10:00:58.000Z</time>
      </trkpt>
      <trkpt lat="41.2513257376849651336669921875" lon="-1.59131613560020923614501953125">
        <ele>610.20001220703125</ele>
        <time>2022-05-02T10:00:59.000Z</time>
      </trkpt>
      <trkpt lat="41.2512928806245326995849609375" lon="-1.5913095138967037200927734375">
        <ele>610.4000244140625</ele>
        <time>2022-05-02T10:01:00.000Z</time>
      </trkpt>
      <trkpt lat="41.2512172758579254150390625" lon="-1.5913172252476215362548828125">
        <ele>611</ele>
        <time>2022-05-02T10:01:02.000Z</time>
      </trkpt>
      <trkpt lat="41.2511785514652729034423828125" lon="-1.59133273176848888397216796875">
        <ele>611.4000244140625</ele>
        <time>2022-05-02T10:01:03.000Z</time>
      </trkpt>
      <trkpt lat="41.2511373125016689300537109375" lon="-1.59135251305997371673583984375">
        <ele>611.79998779296875</ele>
        <time>2022-05-02T10:01:04.000Z</time>
      </trkpt>
      <trkpt lat="41.251052320003509521484375" lon="-1.59139794297516345977783203125">
        <ele>612.79998779296875</ele>
        <time>2022-05-02T10:01:06.000Z</time>
      </trkpt>
      <trkpt lat="41.25096271745860576629638671875" lon="-1.59145762212574481964111328125">
        <ele>613.4000244140625</ele>
        <time>2022-05-02T10:01:08.000Z</time>
      </trkpt>
      <trkpt lat="41.25096271745860576629638671875" lon="-1.59145762212574481964111328125">
        <ele>613.4000244140625</ele>
        <time>2022-05-02T10:01:09.000Z</time>
      </trkpt>
      <trkpt lat="41.25087537802755832672119140625" lon="-1.5915281139314174652099609375">
        <ele>614.20001220703125</ele>
        <time>2022-05-02T10:01:10.000Z</time>
      </trkpt>
      <trkpt lat="41.25078476965427398681640625" lon="-1.59158318303525447845458984375">
        <ele>614.79998779296875</ele>
        <time>2022-05-02T10:01:12.000Z</time>
      </trkpt>
      <trkpt lat="41.250734142959117889404296875" lon="-1.59159667789936065673828125">
        <ele>614.79998779296875</ele>
        <time>2022-05-02T10:01:13.000Z</time>
      </trkpt>
      <trkpt lat="41.25068142078816890716552734375" lon="-1.5915924869477748870849609375">
        <ele>614.5999755859375</ele>
        <time>2022-05-02T10:01:14.000Z</time>
      </trkpt>
      <trkpt lat="41.25068142078816890716552734375" lon="-1.5915924869477748870849609375">
        <ele>614.5999755859375</ele>
        <time>2022-05-02T10:01:15.000Z</time>
      </trkpt>
      <trkpt lat="41.25058494508266448974609375" lon="-1.59153766930103302001953125">
        <ele>613.79998779296875</ele>
        <time>2022-05-02T10:01:16.000Z</time>
      </trkpt>
      <trkpt lat="41.25054898671805858612060546875" lon="-1.591493077576160430908203125">
        <ele>613.5999755859375</ele>
        <time>2022-05-02T10:01:17.000Z</time>
      </trkpt>
      <trkpt lat="41.25052451156079769134521484375" lon="-1.5914369188249111175537109375">
        <ele>613.20001220703125</ele>
        <time>2022-05-02T10:01:18.000Z</time>
      </trkpt>
      <trkpt lat="41.250504143536090850830078125" lon="-1.59130557440221309661865234375">
        <ele>612</ele>
        <time>2022-05-02T10:01:20.000Z</time>
      </trkpt>
      <trkpt lat="41.250504143536090850830078125" lon="-1.59130557440221309661865234375">
        <ele>612</ele>
        <time>2022-05-02T10:01:21.000Z</time>
      </trkpt>
      <trkpt lat="41.25050456263124942779541015625" lon="-1.59116894938051700592041015625">
        <ele>611.20001220703125</ele>
        <time>2022-05-02T10:01:22.000Z</time>
      </trkpt>
      <trkpt lat="41.2505200691521167755126953125" lon="-1.5910376049578189849853515625">
        <ele>610.5999755859375</ele>
        <time>2022-05-02T10:01:24.000Z</time>
      </trkpt>
      <trkpt lat="41.250529624521732330322265625" lon="-1.590972058475017547607421875">
        <ele>610.4000244140625</ele>
        <time>2022-05-02T10:01:25.000Z</time>
      </trkpt>
      <trkpt lat="41.2505348213016986846923828125" lon="-1.59091095440089702606201171875">
        <ele>610.4000244140625</ele>
        <time>2022-05-02T10:01:26.000Z</time>
      </trkpt>
      <trkpt lat="41.250530965626239776611328125" lon="-1.59081372432410717010498046875">
        <ele>610.4000244140625</ele>
        <time>2022-05-02T10:01:28.000Z</time>
      </trkpt>
      <trkpt lat="41.25051445327699184417724609375" lon="-1.5907844714820384979248046875">
        <ele>610.4000244140625</ele>
        <time>2022-05-02T10:01:29.000Z</time>
      </trkpt>
      <trkpt lat="41.25047857873141765594482421875" lon="-1.59076008014380931854248046875">
        <ele>610.79998779296875</ele>
        <time>2022-05-02T10:01:30.000Z</time>
      </trkpt>
      <trkpt lat="41.25041571445763111114501953125" lon="-1.59072722308337688446044921875">
        <ele>611.5999755859375</ele>
        <time>2022-05-02T10:01:32.000Z</time>
      </trkpt>
      <trkpt lat="41.25041571445763111114501953125" lon="-1.59072722308337688446044921875">
        <ele>611.5999755859375</ele>
        <time>2022-05-02T10:01:33.000Z</time>
      </trkpt>
      <trkpt lat="41.2503683567047119140625" lon="-1.590715236961841583251953125">
        <ele>612.20001220703125</ele>
        <time>2022-05-02T10:01:34.000Z</time>
      </trkpt>
      <trkpt lat="41.2503286264836788177490234375" lon="-1.59071364440023899078369140625">
        <ele>612.79998779296875</ele>
        <time>2022-05-02T10:01:36.000Z</time>
      </trkpt>
      <trkpt lat="41.2503106892108917236328125" lon="-1.59072085283696651458740234375">
        <ele>613</ele>
        <time>2022-05-02T10:01:37.000Z</time>
      </trkpt>
      <trkpt lat="41.2502934224903583526611328125" lon="-1.5907309949398040771484375">
        <ele>613.4000244140625</ele>
        <time>2022-05-02T10:01:38.000Z</time>
      </trkpt>
      <trkpt lat="41.25025746412575244903564453125" lon="-1.59074842929840087890625">
        <ele>613.79998779296875</ele>
        <time>2022-05-02T10:01:40.000Z</time>
      </trkpt>
      <trkpt lat="41.2502179853618144989013671875" lon="-1.5907656960189342498779296875">
        <ele>614.5999755859375</ele>
        <time>2022-05-02T10:01:42.000Z</time>
      </trkpt>
      <trkpt lat="41.25019728206098079681396484375" lon="-1.5907737426459789276123046875">
        <ele>614.79998779296875</ele>
        <time>2022-05-02T10:01:43.000Z</time>
      </trkpt>
      <trkpt lat="41.2501760758459568023681640625" lon="-1.590780280530452728271484375">
        <ele>615</ele>
        <time>2022-05-02T10:01:44.000Z</time>
      </trkpt>
      <trkpt lat="41.2501760758459568023681640625" lon="-1.590780280530452728271484375">
        <ele>615</ele>
        <time>2022-05-02T10:01:45.000Z</time>
      </trkpt>
      <trkpt lat="41.25013810582458972930908203125" lon="-1.590791009366512298583984375">
        <ele>615.20001220703125</ele>
        <time>2022-05-02T10:01:46.000Z</time>
      </trkpt>
      <trkpt lat="41.2500961124897003173828125" lon="-1.59078857861459255218505859375">
        <ele>615.5999755859375</ele>
        <time>2022-05-02T10:01:48.000Z</time>
      </trkpt>
      <trkpt lat="41.250051520764827728271484375" lon="-1.59078287892043590545654296875">
        <ele>615.79998779296875</ele>
        <time>2022-05-02T10:01:50.000Z</time>
      </trkpt>
      <trkpt lat="41.2500258721411228179931640625" lon="-1.5907770954072475433349609375">
        <ele>616</ele>
        <time>2022-05-02T10:01:51.000Z</time>
      </trkpt>
      <trkpt lat="41.25000114552676677703857421875" lon="-1.590772569179534912109375">
        <ele>616</ele>
        <time>2022-05-02T10:01:52.000Z</time>
      </trkpt>
      <trkpt lat="41.24997675418853759765625" lon="-1.5907677076756954193115234375">
        <ele>616</ele>
        <time>2022-05-02T10:01:53.000Z</time>
      </trkpt>
      <trkpt lat="41.24995135702192783355712890625" lon="-1.5907616727054119110107421875">
        <ele>616</ele>
        <time>2022-05-02T10:01:54.000Z</time>
      </trkpt>
      <trkpt lat="41.24989486299455165863037109375" lon="-1.59075002186000347137451171875">
        <ele>616</ele>
        <time>2022-05-02T10:01:56.000Z</time>
      </trkpt>
      <trkpt lat="41.24983065761625766754150390625" lon="-1.59073568880558013916015625">
        <ele>616</ele>
        <time>2022-05-02T10:01:58.000Z</time>
      </trkpt>
      <trkpt lat="41.249760501086711883544921875" lon="-1.59071699716150760650634765625">
        <ele>616.20001220703125</ele>
        <time>2022-05-02T10:02:00.000Z</time>
      </trkpt>
      <trkpt lat="41.249690763652324676513671875" lon="-1.59069419838488101959228515625">
        <ele>616.5999755859375</ele>
        <time>2022-05-02T10:02:02.000Z</time>
      </trkpt>
      <trkpt lat="41.249617673456668853759765625" lon="-1.59067559055984020233154296875">
        <ele>617</ele>
        <time>2022-05-02T10:02:04.000Z</time>
      </trkpt>
      <trkpt lat="41.249582134187221527099609375" lon="-1.5906661190092563629150390625">
        <ele>617.20001220703125</ele>
        <time>2022-05-02T10:02:05.000Z</time>
      </trkpt>
      <trkpt lat="41.24954869039356708526611328125" lon="-1.5906574018299579620361328125">
        <ele>617.4000244140625</ele>
        <time>2022-05-02T10:02:06.000Z</time>
      </trkpt>
      <trkpt lat="41.2494872510433197021484375" lon="-1.59063619561493396759033203125">
        <ele>617.5999755859375</ele>
        <time>2022-05-02T10:02:08.000Z</time>
      </trkpt>
      <trkpt lat="41.2494267337024211883544921875" lon="-1.59060032106935977935791015625">
        <ele>617.79998779296875</ele>
        <time>2022-05-02T10:02:10.000Z</time>
      </trkpt>
      <trkpt lat="41.24939739704132080078125" lon="-1.59056796692311763763427734375">
        <ele>617.79998779296875</ele>
        <time>2022-05-02T10:02:11.000Z</time>
      </trkpt>
      <trkpt lat="41.24936948530375957489013671875" lon="-1.5905299969017505645751953125">
        <ele>617.79998779296875</ele>
        <time>2022-05-02T10:02:12.000Z</time>
      </trkpt>
      <trkpt lat="41.24933109618723392486572265625" lon="-1.590442992746829986572265625">
        <ele>618</ele>
        <time>2022-05-02T10:02:14.000Z</time>
      </trkpt>
      <trkpt lat="41.2493040226399898529052734375" lon="-1.59035188145935535430908203125">
        <ele>618</ele>
        <time>2022-05-02T10:02:16.000Z</time>
      </trkpt>
      <trkpt lat="41.249274350702762603759765625" lon="-1.59024844877421855926513671875">
        <ele>618</ele>
        <time>2022-05-02T10:02:18.000Z</time>
      </trkpt>
      <trkpt lat="41.2492560781538486480712890625" lon="-1.590198241174221038818359375">
        <ele>618.20001220703125</ele>
        <time>2022-05-02T10:02:19.000Z</time>
      </trkpt>
      <trkpt lat="41.24924057163298130035400390625" lon="-1.59014828503131866455078125">
        <ele>618.4000244140625</ele>
        <time>2022-05-02T10:02:20.000Z</time>
      </trkpt>
      <trkpt lat="41.24924057163298130035400390625" lon="-1.59014828503131866455078125">
        <ele>618.4000244140625</ele>
        <time>2022-05-02T10:02:21.000Z</time>
      </trkpt>
      <trkpt lat="41.2492124922573566436767578125" lon="-1.59005105495452880859375">
        <ele>618.79998779296875</ele>
        <time>2022-05-02T10:02:22.000Z</time>
      </trkpt>
      <trkpt lat="41.24919061549007892608642578125" lon="-1.5899573452770709991455078125">
        <ele>619</ele>
        <time>2022-05-02T10:02:24.000Z</time>
      </trkpt>
      <trkpt lat="41.24917720444500446319580078125" lon="-1.589865647256374359130859375">
        <ele>619.20001220703125</ele>
        <time>2022-05-02T10:02:26.000Z</time>
      </trkpt>
      <trkpt lat="41.24917720444500446319580078125" lon="-1.589865647256374359130859375">
        <ele>619.20001220703125</ele>
        <time>2022-05-02T10:02:27.000Z</time>
      </trkpt>
      <trkpt lat="41.24916211701929569244384765625" lon="-1.589769087731838226318359375">
        <ele>619.20001220703125</ele>
        <time>2022-05-02T10:02:28.000Z</time>
      </trkpt>
      <trkpt lat="41.249187849462032318115234375" lon="-1.5896582789719104766845703125">
        <ele>619</ele>
        <time>2022-05-02T10:02:30.000Z</time>
      </trkpt>
      <trkpt lat="41.24920620582997798919677734375" lon="-1.58955476246774196624755859375">
        <ele>618.79998779296875</ele>
        <time>2022-05-02T10:02:32.000Z</time>
      </trkpt>
      <trkpt lat="41.24920620582997798919677734375" lon="-1.58955476246774196624755859375">
        <ele>618.79998779296875</ele>
        <time>2022-05-02T10:02:33.000Z</time>
      </trkpt>
      <trkpt lat="41.24922431074082851409912109375" lon="-1.5894561074674129486083984375">
        <ele>618.5999755859375</ele>
        <time>2022-05-02T10:02:34.000Z</time>
      </trkpt>
      <trkpt lat="41.2492404878139495849609375" lon="-1.5893625654280185699462890625">
        <ele>618</ele>
        <time>2022-05-02T10:02:36.000Z</time>
      </trkpt>
      <trkpt lat="41.2492507137358188629150390625" lon="-1.5892691910266876220703125">
        <ele>618</ele>
        <time>2022-05-02T10:02:38.000Z</time>
      </trkpt>
      <trkpt lat="41.2492507137358188629150390625" lon="-1.5892691910266876220703125">
        <ele>618</ele>
        <time>2022-05-02T10:02:39.000Z</time>
      </trkpt>
      <trkpt lat="41.2492557428777217864990234375" lon="-1.58918160013854503631591796875">
        <ele>618.20001220703125</ele>
        <time>2022-05-02T10:02:40.000Z</time>
      </trkpt>
      <trkpt lat="41.2492565810680389404296875" lon="-1.5891392715275287628173828125">
        <ele>618.20001220703125</ele>
        <time>2022-05-02T10:02:41.000Z</time>
      </trkpt>
      <trkpt lat="41.24925632961094379425048828125" lon="-1.58909685909748077392578125">
        <ele>618.20001220703125</ele>
        <time>2022-05-02T10:02:42.000Z</time>
      </trkpt>
      <trkpt lat="41.249252893030643463134765625" lon="-1.58901245333254337310791015625">
        <ele>618</ele>
        <time>2022-05-02T10:02:44.000Z</time>
      </trkpt>
      <trkpt lat="41.2492440082132816314697265625" lon="-1.58892964012920856475830078125">
        <ele>617.5999755859375</ele>
        <time>2022-05-02T10:02:46.000Z</time>
      </trkpt>
      <trkpt lat="41.24923554249107837677001953125" lon="-1.58885437063872814178466796875">
        <ele>617</ele>
        <time>2022-05-02T10:02:48.000Z</time>
      </trkpt>
      <trkpt lat="41.2492285855114459991455078125" lon="-1.58881430514156818389892578125">
        <ele>616.79998779296875</ele>
        <time>2022-05-02T10:02:49.000Z</time>
      </trkpt>
      <trkpt lat="41.24922028742730617523193359375" lon="-1.58877365291118621826171875">
        <ele>617</ele>
        <time>2022-05-02T10:02:50.000Z</time>
      </trkpt>
      <trkpt lat="41.24920352362096309661865234375" lon="-1.58870232291519641876220703125">
        <ele>617.79998779296875</ele>
        <time>2022-05-02T10:02:52.000Z</time>
      </trkpt>
      <trkpt lat="41.24918106012046337127685546875" lon="-1.58863174729049205780029296875">
        <ele>618.79998779296875</ele>
        <time>2022-05-02T10:02:54.000Z</time>
      </trkpt>
      <trkpt lat="41.24917049892246723175048828125" lon="-1.58859620802104473114013671875">
        <ele>619.20001220703125</ele>
        <time>2022-05-02T10:02:55.000Z</time>
      </trkpt>
      <trkpt lat="41.249164044857025146484375" lon="-1.58856284804642200469970703125">
        <ele>619.20001220703125</ele>
        <time>2022-05-02T10:02:56.000Z</time>
      </trkpt>
      <trkpt lat="41.249150969088077545166015625" lon="-1.5884955413639545440673828125">
        <ele>619.4000244140625</ele>
        <time>2022-05-02T10:02:58.000Z</time>
      </trkpt>
      <trkpt lat="41.2491331994533538818359375" lon="-1.58843494020402431488037109375">
        <ele>619.4000244140625</ele>
        <time>2022-05-02T10:03:00.000Z</time>
      </trkpt>
      <trkpt lat="41.24910327605903148651123046875" lon="-1.58837542869150638580322265625">
        <ele>620</ele>
        <time>2022-05-02T10:03:02.000Z</time>
      </trkpt>
      <trkpt lat="41.24910327605903148651123046875" lon="-1.58837542869150638580322265625">
        <ele>620</ele>
        <time>2022-05-02T10:03:03.000Z</time>
      </trkpt>
      <trkpt lat="41.249059773981571197509765625" lon="-1.58831524662673473358154296875">
        <ele>621.20001220703125</ele>
        <time>2022-05-02T10:03:04.000Z</time>
      </trkpt>
      <trkpt lat="41.2490287609398365020751953125" lon="-1.58825925551354885101318359375">
        <ele>622.20001220703125</ele>
        <time>2022-05-02T10:03:06.000Z</time>
      </trkpt>
      <trkpt lat="41.24901182949542999267578125" lon="-1.588229835033416748046875">
        <ele>622.79998779296875</ele>
        <time>2022-05-02T10:03:07.000Z</time>
      </trkpt>
      <trkpt lat="41.248994730412960052490234375" lon="-1.5882008336484432220458984375">
        <ele>623.4000244140625</ele>
        <time>2022-05-02T10:03:08.000Z</time>
      </trkpt>
      <trkpt lat="41.24894150532782077789306640625" lon="-1.58814392052590847015380859375">
        <ele>625</ele>
        <time>2022-05-02T10:03:10.000Z</time>
      </trkpt>
      <trkpt lat="41.24888702295720577239990234375" lon="-1.5880905278027057647705078125">
        <ele>626.79998779296875</ele>
        <time>2022-05-02T10:03:12.000Z</time>
      </trkpt>
      <trkpt lat="41.24883404932916164398193359375" lon="-1.58804015256464481353759765625">
        <ele>628.4000244140625</ele>
        <time>2022-05-02T10:03:14.000Z</time>
      </trkpt>
      <trkpt lat="41.24876900576055049896240234375" lon="-1.587995477020740509033203125">
        <ele>629.20001220703125</ele>
        <time>2022-05-02T10:03:16.000Z</time>
      </trkpt>
      <trkpt lat="41.24873648397624492645263671875" lon="-1.5879790484905242919921875">
        <ele>629.5999755859375</ele>
        <time>2022-05-02T10:03:17.000Z</time>
      </trkpt>
      <trkpt lat="41.24870731495320796966552734375" lon="-1.58796287141740322113037109375">
        <ele>629.79998779296875</ele>
        <time>2022-05-02T10:03:18.000Z</time>
      </trkpt>
      <trkpt lat="41.248654089868068695068359375" lon="-1.587930433452129364013671875">
        <ele>630.20001220703125</ele>
        <time>2022-05-02T10:03:20.000Z</time>
      </trkpt>
      <trkpt lat="41.2486177124083042144775390625" lon="-1.58789254724979400634765625">
        <ele>630.5999755859375</ele>
        <time>2022-05-02T10:03:22.000Z</time>
      </trkpt>
      <trkpt lat="41.24859583564102649688720703125" lon="-1.5878702513873577117919921875">
        <ele>630.5999755859375</ele>
        <time>2022-05-02T10:03:23.000Z</time>
      </trkpt>
      <trkpt lat="41.24857169575989246368408203125" lon="-1.58784552477300167083740234375">
        <ele>630.79998779296875</ele>
        <time>2022-05-02T10:03:24.000Z</time>
      </trkpt>
      <trkpt lat="41.2485162913799285888671875" lon="-1.587798334658145904541015625">
        <ele>631</ele>
        <time>2022-05-02T10:03:26.000Z</time>
      </trkpt>
      <trkpt lat="41.24844856560230255126953125" lon="-1.5877646394073963165283203125">
        <ele>630.79998779296875</ele>
        <time>2022-05-02T10:03:28.000Z</time>
      </trkpt>
      <trkpt lat="41.24841461889445781707763671875" lon="-1.58773555420339107513427734375">
        <ele>630.5999755859375</ele>
        <time>2022-05-02T10:03:29.000Z</time>
      </trkpt>
      <trkpt lat="41.248377822339534759521484375" lon="-1.58770353533327579498291015625">
        <ele>630.20001220703125</ele>
        <time>2022-05-02T10:03:30.000Z</time>
      </trkpt>
      <trkpt lat="41.24830196611583232879638671875" lon="-1.587615944445133209228515625">
        <ele>628.5999755859375</ele>
        <time>2022-05-02T10:03:32.000Z</time>
      </trkpt>
      <trkpt lat="41.24826726503670215606689453125" lon="-1.5875713527202606201171875">
        <ele>627.79998779296875</ele>
        <time>2022-05-02T10:03:33.000Z</time>
      </trkpt>
      <trkpt lat="41.24823155812919139862060546875" lon="-1.587526760995388031005859375">
        <ele>627</ele>
        <time>2022-05-02T10:03:34.000Z</time>
      </trkpt>
      <trkpt lat="41.24819719232618808746337890625" lon="-1.5874856896698474884033203125">
        <ele>626.79998779296875</ele>
        <time>2022-05-02T10:03:35.000Z</time>
      </trkpt>
      <trkpt lat="41.248166598379611968994140625" lon="-1.5874479711055755615234375">
        <ele>626.4000244140625</ele>
        <time>2022-05-02T10:03:36.000Z</time>
      </trkpt>
      <trkpt lat="41.24813952483236789703369140625" lon="-1.5874156169593334197998046875">
        <ele>626.20001220703125</ele>
        <time>2022-05-02T10:03:37.000Z</time>
      </trkpt>
      <trkpt lat="41.24811102636158466339111328125" lon="-1.58738695085048675537109375">
        <ele>626</ele>
        <time>2022-05-02T10:03:38.000Z</time>
      </trkpt>
      <trkpt lat="41.24805469997227191925048828125" lon="-1.58730271272361278533935546875">
        <ele>625.4000244140625</ele>
        <time>2022-05-02T10:03:40.000Z</time>
      </trkpt>
      <trkpt lat="41.247994266450405120849609375" lon="-1.5872530080378055572509765625">
        <ele>625</ele>
        <time>2022-05-02T10:03:42.000Z</time>
      </trkpt>
      <trkpt lat="41.24794020317494869232177734375" lon="-1.58723230473697185516357421875">
        <ele>625</ele>
        <time>2022-05-02T10:03:44.000Z</time>
      </trkpt>
      <trkpt lat="41.24794020317494869232177734375" lon="-1.58723230473697185516357421875">
        <ele>625</ele>
        <time>2022-05-02T10:03:45.000Z</time>
      </trkpt>
      <trkpt lat="41.2478888221085071563720703125" lon="-1.58720984123647212982177734375">
        <ele>624.79998779296875</ele>
        <time>2022-05-02T10:03:46.000Z</time>
      </trkpt>
      <trkpt lat="41.24787784181535243988037109375" lon="-1.5871996991336345672607421875">
        <ele>624.79998779296875</ele>
        <time>2022-05-02T10:03:48.000Z</time>
      </trkpt>
      <trkpt lat="41.247876584529876708984375" lon="-1.5871996991336345672607421875">
        <ele>624.79998779296875</ele>
        <time>2022-05-02T10:03:49.000Z</time>
      </trkpt>
      <trkpt lat="41.2478371895849704742431640625" lon="-1.587092578411102294921875">
        <ele>624.4000244140625</ele>
        <time>2022-05-02T10:04:05.000Z</time>
      </trkpt>
      <trkpt lat="41.24782050959765911102294921875" lon="-1.5870686061680316925048828125">
        <ele>624.4000244140625</ele>
        <time>2022-05-02T10:04:06.000Z</time>
      </trkpt>
      <trkpt lat="41.24780642800033092498779296875" lon="-1.58704538829624652862548828125">
        <ele>624.20001220703125</ele>
        <time>2022-05-02T10:04:07.000Z</time>
      </trkpt>
      <trkpt lat="41.24778966419398784637451171875" lon="-1.587019823491573333740234375">
        <ele>624.20001220703125</ele>
        <time>2022-05-02T10:04:08.000Z</time>
      </trkpt>
      <trkpt lat="41.24774741940200328826904296875" lon="-1.5869733877480030059814453125">
        <ele>624</ele>
        <time>2022-05-02T10:04:10.000Z</time>
      </trkpt>
      <trkpt lat="41.24770768918097019195556640625" lon="-1.586937010288238525390625">
        <ele>623.79998779296875</ele>
        <time>2022-05-02T10:04:12.000Z</time>
      </trkpt>
      <trkpt lat="41.247672736644744873046875" lon="-1.58688671886920928955078125">
        <ele>623.79998779296875</ele>
        <time>2022-05-02T10:04:14.000Z</time>
      </trkpt>
      <trkpt lat="41.2476499378681182861328125" lon="-1.5868298895657062530517578125">
        <ele>623.79998779296875</ele>
        <time>2022-05-02T10:04:16.000Z</time>
      </trkpt>
      <trkpt lat="41.247619427740573883056640625" lon="-1.58680667169392108917236328125">
        <ele>623.79998779296875</ele>
        <time>2022-05-02T10:04:17.000Z</time>
      </trkpt>
      <trkpt lat="41.2475800327956676483154296875" lon="-1.58678605221211910247802734375">
        <ele>623.79998779296875</ele>
        <time>2022-05-02T10:04:18.000Z</time>
      </trkpt>
      <trkpt lat="41.24750300310552120208740234375" lon="-1.58674330450594425201416015625">
        <ele>624</ele>
        <time>2022-05-02T10:04:20.000Z</time>
      </trkpt>
      <trkpt lat="41.2474221177399158477783203125" lon="-1.58671237528324127197265625">
        <ele>624.20001220703125</ele>
        <time>2022-05-02T10:04:22.000Z</time>
      </trkpt>
      <trkpt lat="41.24734123237431049346923828125" lon="-1.58666971139609813690185546875">
        <ele>624.5999755859375</ele>
        <time>2022-05-02T10:04:24.000Z</time>
      </trkpt>
      <trkpt lat="41.247251965105533599853515625" lon="-1.58663316629827022552490234375">
        <ele>625</ele>
        <time>2022-05-02T10:04:26.000Z</time>
      </trkpt>
      <trkpt lat="41.24716035090386867523193359375" lon="-1.58659863285720348358154296875">
        <ele>625.4000244140625</ele>
        <time>2022-05-02T10:04:28.000Z</time>
      </trkpt>
      <trkpt lat="41.24716035090386867523193359375" lon="-1.58659863285720348358154296875">
        <ele>625.4000244140625</ele>
        <time>2022-05-02T10:04:29.000Z</time>
      </trkpt>
      <trkpt lat="41.24709581024944782257080078125" lon="-1.5865522809326648712158203125">
        <ele>625.4000244140625</ele>
        <time>2022-05-02T10:04:30.000Z</time>
      </trkpt>
      <trkpt lat="41.247035376727581024169921875" lon="-1.58650944940745830535888671875">
        <ele>625.5999755859375</ele>
        <time>2022-05-02T10:04:32.000Z</time>
      </trkpt>
      <trkpt lat="41.24699371866881847381591796875" lon="-1.5864842198789119720458984375">
        <ele>625.5999755859375</ele>
        <time>2022-05-02T10:04:33.000Z</time>
      </trkpt>
      <trkpt lat="41.24695616774260997772216796875" lon="-1.58646133728325366973876953125">
        <ele>625.79998779296875</ele>
        <time>2022-05-02T10:04:34.000Z</time>
      </trkpt>
      <trkpt lat="41.246893219649791717529296875" lon="-1.586419679224491119384765625">
        <ele>626</ele>
        <time>2022-05-02T10:04:36.000Z</time>
      </trkpt>
      <trkpt lat="41.24686061404645442962646484375" lon="-1.58638070337474346160888671875">
        <ele>626</ele>
        <time>2022-05-02T10:04:38.000Z</time>
      </trkpt>
      <trkpt lat="41.246885173022747039794921875" lon="-1.58633284270763397216796875">
        <ele>625.5999755859375</ele>
        <time>2022-05-02T10:04:40.000Z</time>
      </trkpt>
      <trkpt lat="41.24690973199903964996337890625" lon="-1.58631264232099056243896484375">
        <ele>625.20001220703125</ele>
        <time>2022-05-02T10:04:41.000Z</time>
      </trkpt>
      <trkpt lat="41.2469403259456157684326171875" lon="-1.58628456294536590576171875">
        <ele>624.79998779296875</ele>
        <time>2022-05-02T10:04:42.000Z</time>
      </trkpt>
      <trkpt lat="41.2469979934394359588623046875" lon="-1.58623234368860721588134765625">
        <ele>624</ele>
        <time>2022-05-02T10:04:44.000Z</time>
      </trkpt>
      <trkpt lat="41.2470410764217376708984375" lon="-1.58617668785154819488525390625">
        <ele>623.4000244140625</ele>
        <time>2022-05-02T10:04:46.000Z</time>
      </trkpt>
      <trkpt lat="41.24706546775996685028076171875" lon="-1.58613293431699275970458984375">
        <ele>623</ele>
        <time>2022-05-02T10:04:48.000Z</time>
      </trkpt>
      <trkpt lat="41.2470784597098827362060546875" lon="-1.5860979817807674407958984375">
        <ele>622.5999755859375</ele>
        <time>2022-05-02T10:04:50.000Z</time>
      </trkpt>
      <trkpt lat="41.24709228985011577606201171875" lon="-1.5860765241086483001708984375">
        <ele>622.20001220703125</ele>
        <time>2022-05-02T10:04:52.000Z</time>
      </trkpt>
      <trkpt lat="41.24709044583141803741455078125" lon="-1.58606789074838161468505859375">
        <ele>622.20001220703125</ele>
        <time>2022-05-02T10:04:54.000Z</time>
      </trkpt>
      <trkpt lat="41.24709195457398891448974609375" lon="-1.5859709121286869049072265625">
        <ele>621.4000244140625</ele>
        <time>2022-05-02T10:06:18.000Z</time>
      </trkpt>
      <trkpt lat="41.2470804713666439056396484375" lon="-1.5859347023069858551025390625">
        <ele>621.4000244140625</ele>
        <time>2022-05-02T10:06:20.000Z</time>
      </trkpt>
      <trkpt lat="41.24707183800637722015380859375" lon="-1.5858869254589080810546875">
        <ele>621</ele>
        <time>2022-05-02T10:06:22.000Z</time>
      </trkpt>
      <trkpt lat="41.24704778194427490234375" lon="-1.5858305990695953369140625">
        <ele>621.20001220703125</ele>
        <time>2022-05-02T10:06:24.000Z</time>
      </trkpt>
      <trkpt lat="41.24701618216931819915771484375" lon="-1.58577360212802886962890625">
        <ele>621.4000244140625</ele>
        <time>2022-05-02T10:06:26.000Z</time>
      </trkpt>
      <trkpt lat="41.247002184391021728515625" lon="-1.5857358835637569427490234375">
        <ele>621.5999755859375</ele>
        <time>2022-05-02T10:06:27.000Z</time>
      </trkpt>
      <trkpt lat="41.24699019826948642730712890625" lon="-1.58569187857210636138916015625">
        <ele>621.79998779296875</ele>
        <time>2022-05-02T10:06:28.000Z</time>
      </trkpt>
      <trkpt lat="41.24699019826948642730712890625" lon="-1.58569187857210636138916015625">
        <ele>621.79998779296875</ele>
        <time>2022-05-02T10:06:29.000Z</time>
      </trkpt>
      <trkpt lat="41.246953904628753662109375" lon="-1.5855890326201915740966796875">
        <ele>622.20001220703125</ele>
        <time>2022-05-02T10:06:30.000Z</time>
      </trkpt>
      <trkpt lat="41.24692331068217754364013671875" lon="-1.5854961611330509185791015625">
        <ele>622.5999755859375</ele>
        <time>2022-05-02T10:06:32.000Z</time>
      </trkpt>
      <trkpt lat="41.2469067983329296112060546875" lon="-1.58545601181685924530029296875">
        <ele>622.79998779296875</ele>
        <time>2022-05-02T10:06:33.000Z</time>
      </trkpt>
      <trkpt lat="41.2468890286982059478759765625" lon="-1.58541862852871417999267578125">
        <ele>622.79998779296875</ele>
        <time>2022-05-02T10:06:34.000Z</time>
      </trkpt>
      <trkpt lat="41.24684921465814113616943359375" lon="-1.58534402959048748016357421875">
        <ele>623.4000244140625</ele>
        <time>2022-05-02T10:06:36.000Z</time>
      </trkpt>
      <trkpt lat="41.2468077242374420166015625" lon="-1.5852621383965015411376953125">
        <ele>623.5999755859375</ele>
        <time>2022-05-02T10:06:38.000Z</time>
      </trkpt>
      <trkpt lat="41.2467887811362743377685546875" lon="-1.585224084556102752685546875">
        <ele>623.5999755859375</ele>
        <time>2022-05-02T10:06:39.000Z</time>
      </trkpt>
      <trkpt lat="41.2467701733112335205078125" lon="-1.5851833485066890716552734375">
        <ele>623.5999755859375</ele>
        <time>2022-05-02T10:06:40.000Z</time>
      </trkpt>
      <trkpt lat="41.24673840589821338653564453125" lon="-1.58510950393974781036376953125">
        <ele>623.5999755859375</ele>
        <time>2022-05-02T10:06:42.000Z</time>
      </trkpt>
      <trkpt lat="41.24669465236365795135498046875" lon="-1.58505208790302276611328125">
        <ele>623.4000244140625</ele>
        <time>2022-05-02T10:06:44.000Z</time>
      </trkpt>
      <trkpt lat="41.2466700933873653411865234375" lon="-1.5850261040031909942626953125">
        <ele>623.4000244140625</ele>
        <time>2022-05-02T10:06:45.000Z</time>
      </trkpt>
      <trkpt lat="41.2466456182301044464111328125" lon="-1.58500188030302524566650390625">
        <ele>623.4000244140625</ele>
        <time>2022-05-02T10:06:46.000Z</time>
      </trkpt>
      <trkpt lat="41.24659842811524868011474609375" lon="-1.58495410345494747161865234375">
        <ele>623</ele>
        <time>2022-05-02T10:06:48.000Z</time>
      </trkpt>
      <trkpt lat="41.24654964543879032135009765625" lon="-1.58491102047264575958251953125">
        <ele>623.20001220703125</ele>
        <time>2022-05-02T10:06:50.000Z</time>
      </trkpt>
      <trkpt lat="41.24650371260941028594970703125" lon="-1.58486693166196346282958984375">
        <ele>623.4000244140625</ele>
        <time>2022-05-02T10:06:52.000Z</time>
      </trkpt>
      <trkpt lat="41.24646046198904514312744140625" lon="-1.58482133410871028900146484375">
        <ele>623</ele>
        <time>2022-05-02T10:06:54.000Z</time>
      </trkpt>
      <trkpt lat="41.2464156188070774078369140625" lon="-1.58478118479251861572265625">
        <ele>622.79998779296875</ele>
        <time>2022-05-02T10:06:56.000Z</time>
      </trkpt>
      <trkpt lat="41.24637396074831485748291015625" lon="-1.5847320668399333953857421875">
        <ele>622.20001220703125</ele>
        <time>2022-05-02T10:06:58.000Z</time>
      </trkpt>
      <trkpt lat="41.2463525868952274322509765625" lon="-1.58470516093075275421142578125">
        <ele>622</ele>
        <time>2022-05-02T10:06:59.000Z</time>
      </trkpt>
      <trkpt lat="41.24633288942277431488037109375" lon="-1.58467297442257404327392578125">
        <ele>621.79998779296875</ele>
        <time>2022-05-02T10:07:00.000Z</time>
      </trkpt>
      <trkpt lat="41.24629299156367778778076171875" lon="-1.584602482616901397705078125">
        <ele>622.20001220703125</ele>
        <time>2022-05-02T10:07:02.000Z</time>
      </trkpt>
      <trkpt lat="41.246254853904247283935546875" lon="-1.5845029056072235107421875">
        <ele>622.5999755859375</ele>
        <time>2022-05-02T10:07:04.000Z</time>
      </trkpt>
      <trkpt lat="41.2462191469967365264892578125" lon="-1.58439268358051776885986328125">
        <ele>623.20001220703125</ele>
        <time>2022-05-02T10:07:06.000Z</time>
      </trkpt>
      <trkpt lat="41.2461842782795429229736328125" lon="-1.58428774215281009674072265625">
        <ele>623.79998779296875</ele>
        <time>2022-05-02T10:07:08.000Z</time>
      </trkpt>
      <trkpt lat="41.24613289721310138702392578125" lon="-1.5841877460479736328125">
        <ele>624.4000244140625</ele>
        <time>2022-05-02T10:07:10.000Z</time>
      </trkpt>
      <trkpt lat="41.2461021356284618377685546875" lon="-1.58413787372410297393798828125">
        <ele>625.20001220703125</ele>
        <time>2022-05-02T10:07:11.000Z</time>
      </trkpt>
      <trkpt lat="41.24606953002512454986572265625" lon="-1.58409160561859607696533203125">
        <ele>624.79998779296875</ele>
        <time>2022-05-02T10:07:12.000Z</time>
      </trkpt>
      <trkpt lat="41.2459951825439929962158203125" lon="-1.58401013351976871490478515625">
        <ele>624.4000244140625</ele>
        <time>2022-05-02T10:07:14.000Z</time>
      </trkpt>
      <trkpt lat="41.24595277011394500732421875" lon="-1.5839797072112560272216796875">
        <ele>624.5999755859375</ele>
        <time>2022-05-02T10:07:15.000Z</time>
      </trkpt>
      <trkpt lat="41.24590876512229442596435546875" lon="-1.583956740796566009521484375">
        <ele>625</ele>
        <time>2022-05-02T10:07:16.000Z</time>
      </trkpt>
      <trkpt lat="41.2458201684057712554931640625" lon="-1.5839210338890552520751953125">
        <ele>626</ele>
        <time>2022-05-02T10:07:18.000Z</time>
      </trkpt>
      <trkpt lat="41.2457777559757232666015625" lon="-1.583899743854999542236328125">
        <ele>626.4000244140625</ele>
        <time>2022-05-02T10:07:19.000Z</time>
      </trkpt>
      <trkpt lat="41.2457370199263095855712890625" lon="-1.58387250266969203948974609375">
        <ele>626.20001220703125</ele>
        <time>2022-05-02T10:07:20.000Z</time>
      </trkpt>
      <trkpt lat="41.2456612475216388702392578125" lon="-1.58381081186234951019287109375">
        <ele>625.5999755859375</ele>
        <time>2022-05-02T10:07:22.000Z</time>
      </trkpt>
      <trkpt lat="41.24558606185019016265869140625" lon="-1.583737470209598541259765625">
        <ele>625</ele>
        <time>2022-05-02T10:07:24.000Z</time>
      </trkpt>
      <trkpt lat="41.2455147318542003631591796875" lon="-1.58365189097821712493896484375">
        <ele>624.79998779296875</ele>
        <time>2022-05-02T10:07:26.000Z</time>
      </trkpt>
      <trkpt lat="41.2454805336892604827880859375" lon="-1.583603359758853912353515625">
        <ele>624.79998779296875</ele>
        <time>2022-05-02T10:07:27.000Z</time>
      </trkpt>
      <trkpt lat="41.24544993974268436431884765625" lon="-1.58355365507304668426513671875">
        <ele>625.20001220703125</ele>
        <time>2022-05-02T10:07:28.000Z</time>
      </trkpt>
      <trkpt lat="41.245395876467227935791015625" lon="-1.58344502560794353485107421875">
        <ele>625.79998779296875</ele>
        <time>2022-05-02T10:07:30.000Z</time>
      </trkpt>
      <trkpt lat="41.24535053037106990814208984375" lon="-1.58333354629576206207275390625">
        <ele>625.4000244140625</ele>
        <time>2022-05-02T10:07:32.000Z</time>
      </trkpt>
      <trkpt lat="41.24533074907958507537841796875" lon="-1.58327554352581501007080078125">
        <ele>625.5999755859375</ele>
        <time>2022-05-02T10:07:33.000Z</time>
      </trkpt>
      <trkpt lat="41.24530845321714878082275390625" lon="-1.58321737311780452728271484375">
        <ele>625.79998779296875</ele>
        <time>2022-05-02T10:07:34.000Z</time>
      </trkpt>
      <trkpt lat="41.24525816179811954498291015625" lon="-1.58309265039861202239990234375">
        <ele>626</ele>
        <time>2022-05-02T10:07:36.000Z</time>
      </trkpt>
      <trkpt lat="41.24520334415137767791748046875" lon="-1.5829685144126415252685546875">
        <ele>626.79998779296875</ele>
        <time>2022-05-02T10:07:38.000Z</time>
      </trkpt>
      <trkpt lat="41.24517886899411678314208984375" lon="-1.58290774561464786529541015625">
        <ele>627.4000244140625</ele>
        <time>2022-05-02T10:07:39.000Z</time>
      </trkpt>
      <trkpt lat="41.2451516278088092803955078125" lon="-1.58284789882600307464599609375">
        <ele>628.20001220703125</ele>
        <time>2022-05-02T10:07:40.000Z</time>
      </trkpt>
      <trkpt lat="41.2451060302555561065673828125" lon="-1.58272770233452320098876953125">
        <ele>628.79998779296875</ele>
        <time>2022-05-02T10:07:42.000Z</time>
      </trkpt>
      <trkpt lat="41.24506789259612560272216796875" lon="-1.58261186443269252777099609375">
        <ele>629.20001220703125</ele>
        <time>2022-05-02T10:07:44.000Z</time>
      </trkpt>
      <trkpt lat="41.24504844658076763153076171875" lon="-1.5825537778437137603759765625">
        <ele>629.4000244140625</ele>
        <time>2022-05-02T10:07:45.000Z</time>
      </trkpt>
      <trkpt lat="41.24502833001315593719482421875" lon="-1.58249569125473499298095703125">
        <ele>629.4000244140625</ele>
        <time>2022-05-02T10:07:46.000Z</time>
      </trkpt>
      <trkpt lat="41.24499119818210601806640625" lon="-1.582381613552570343017578125">
        <ele>629.20001220703125</ele>
        <time>2022-05-02T10:07:48.000Z</time>
      </trkpt>
      <trkpt lat="41.24495322816073894500732421875" lon="-1.58227256499230861663818359375">
        <ele>628.79998779296875</ele>
        <time>2022-05-02T10:07:50.000Z</time>
      </trkpt>
      <trkpt lat="41.2449206225574016571044921875" lon="-1.58216142095625400543212890625">
        <ele>628.20001220703125</ele>
        <time>2022-05-02T10:07:52.000Z</time>
      </trkpt>
      <trkpt lat="41.24489061534404754638671875" lon="-1.58204189501702785491943359375">
        <ele>627.5999755859375</ele>
        <time>2022-05-02T10:07:54.000Z</time>
      </trkpt>
      <trkpt lat="41.2448663078248500823974609375" lon="-1.5819013305008411407470703125">
        <ele>626</ele>
        <time>2022-05-02T10:07:56.000Z</time>
      </trkpt>
      <trkpt lat="41.2448569200932979583740234375" lon="-1.58183016814291477203369140625">
        <ele>625.4000244140625</ele>
        <time>2022-05-02T10:07:57.000Z</time>
      </trkpt>
      <trkpt lat="41.244849376380443572998046875" lon="-1.58175741322338581085205078125">
        <ele>624.5999755859375</ele>
        <time>2022-05-02T10:07:58.000Z</time>
      </trkpt>
      <trkpt lat="41.2448384799063205718994140625" lon="-1.581612490117549896240234375">
        <ele>624.20001220703125</ele>
        <time>2022-05-02T10:08:00.000Z</time>
      </trkpt>
      <trkpt lat="41.24483487568795680999755859375" lon="-1.58146329224109649658203125">
        <ele>624</ele>
        <time>2022-05-02T10:08:02.000Z</time>
      </trkpt>
      <trkpt lat="41.244825907051563262939453125" lon="-1.5813896991312503814697265625">
        <ele>623.5999755859375</ele>
        <time>2022-05-02T10:08:03.000Z</time>
      </trkpt>
      <trkpt lat="41.244803108274936676025390625" lon="-1.58132004551589488983154296875">
        <ele>624.20001220703125</ele>
        <time>2022-05-02T10:08:04.000Z</time>
      </trkpt>
      <trkpt lat="41.244725324213504791259765625" lon="-1.5811982564628124237060546875">
        <ele>624.5999755859375</ele>
        <time>2022-05-02T10:08:06.000Z</time>
      </trkpt>
      <trkpt lat="41.24467511661350727081298828125" lon="-1.58115475438535213470458984375">
        <ele>624.79998779296875</ele>
        <time>2022-05-02T10:08:07.000Z</time>
      </trkpt>
      <trkpt lat="41.24462105333805084228515625" lon="-1.58112089149653911590576171875">
        <ele>625.20001220703125</ele>
        <time>2022-05-02T10:08:08.000Z</time>
      </trkpt>
      <trkpt lat="41.2445095740258693695068359375" lon="-1.58107378520071506500244140625">
        <ele>625.5999755859375</ele>
        <time>2022-05-02T10:08:10.000Z</time>
      </trkpt>
      <trkpt lat="41.244453079998493194580078125" lon="-1.58105836249887943267822265625">
        <ele>625.79998779296875</ele>
        <time>2022-05-02T10:08:11.000Z</time>
      </trkpt>
      <trkpt lat="41.2443999387323856353759765625" lon="-1.58104545436799526214599609375">
        <ele>626</ele>
        <time>2022-05-02T10:08:12.000Z</time>
      </trkpt>
      <trkpt lat="41.2443493120372295379638671875" lon="-1.5810374915599822998046875">
        <ele>626</ele>
        <time>2022-05-02T10:08:13.000Z</time>
      </trkpt>
      <trkpt lat="41.2443013675510883331298828125" lon="-1.5810343064367771148681640625">
        <ele>626</ele>
        <time>2022-05-02T10:08:14.000Z</time>
      </trkpt>
      <trkpt lat="41.24421201646327972412109375" lon="-1.5810306183993816375732421875">
        <ele>625.79998779296875</ele>
        <time>2022-05-02T10:08:16.000Z</time>
      </trkpt>
      <trkpt lat="41.244170106947422027587890625" lon="-1.5810286067426204681396484375">
        <ele>626</ele>
        <time>2022-05-02T10:08:17.000Z</time>
      </trkpt>
      <trkpt lat="41.24413146637380123138427734375" lon="-1.58102818764746189117431640625">
        <ele>626.4000244140625</ele>
        <time>2022-05-02T10:08:18.000Z</time>
      </trkpt>
      <trkpt lat="41.2440629862248897552490234375" lon="-1.58101963810622692108154296875">
        <ele>626.79998779296875</ele>
        <time>2022-05-02T10:08:20.000Z</time>
      </trkpt>
      <trkpt lat="41.24399417079985141754150390625" lon="-1.5809910558164119720458984375">
        <ele>626.79998779296875</ele>
        <time>2022-05-02T10:08:22.000Z</time>
      </trkpt>
      <trkpt lat="41.24392124824225902557373046875" lon="-1.5809555165469646453857421875">
        <ele>627</ele>
        <time>2022-05-02T10:08:24.000Z</time>
      </trkpt>
      <trkpt lat="41.24384321272373199462890625" lon="-1.58092743717133998870849609375">
        <ele>627.20001220703125</ele>
        <time>2022-05-02T10:08:26.000Z</time>
      </trkpt>
      <trkpt lat="41.24375528655946254730224609375" lon="-1.5809065662324428558349609375">
        <ele>627.5999755859375</ele>
        <time>2022-05-02T10:08:28.000Z</time>
      </trkpt>
      <trkpt lat="41.243710778653621673583984375" lon="-1.58089826814830303192138671875">
        <ele>627.5999755859375</ele>
        <time>2022-05-02T10:08:29.000Z</time>
      </trkpt>
      <trkpt lat="41.24366258271038532257080078125" lon="-1.58089323900640010833740234375">
        <ele>627.79998779296875</ele>
        <time>2022-05-02T10:08:30.000Z</time>
      </trkpt>
      <trkpt lat="41.24356317333877086639404296875" lon="-1.58089525066316127777099609375">
        <ele>628.20001220703125</ele>
        <time>2022-05-02T10:08:32.000Z</time>
      </trkpt>
      <trkpt lat="41.2435131333768367767333984375" lon="-1.5809015370905399322509765625">
        <ele>628.5999755859375</ele>
        <time>2022-05-02T10:08:33.000Z</time>
      </trkpt>
      <trkpt lat="41.24346393160521984100341796875" lon="-1.580905728042125701904296875">
        <ele>628.79998779296875</ele>
        <time>2022-05-02T10:08:34.000Z</time>
      </trkpt>
      <trkpt lat="41.2434147298336029052734375" lon="-1.5809062309563159942626953125">
        <ele>629</ele>
        <time>2022-05-02T10:08:35.000Z</time>
      </trkpt>
      <trkpt lat="41.2433659471571445465087890625" lon="-1.5809058956801891326904296875">
        <ele>629.20001220703125</ele>
        <time>2022-05-02T10:08:36.000Z</time>
      </trkpt>
      <trkpt lat="41.24327014200389385223388671875" lon="-1.58091486431658267974853515625">
        <ele>629.5999755859375</ele>
        <time>2022-05-02T10:08:38.000Z</time>
      </trkpt>
      <trkpt lat="41.24322630465030670166015625" lon="-1.5809156186878681182861328125">
        <ele>629.5999755859375</ele>
        <time>2022-05-02T10:08:39.000Z</time>
      </trkpt>
      <trkpt lat="41.2431835569441318511962890625" lon="-1.58090530894696712493896484375">
        <ele>629.4000244140625</ele>
        <time>2022-05-02T10:08:40.000Z</time>
      </trkpt>
      <trkpt lat="41.2431423179805278778076171875" lon="-1.58088536001741886138916015625">
        <ele>628.5999755859375</ele>
        <time>2022-05-02T10:08:41.000Z</time>
      </trkpt>
      <trkpt lat="41.24310200102627277374267578125" lon="-1.58085853792726993560791015625">
        <ele>627.79998779296875</ele>
        <time>2022-05-02T10:08:42.000Z</time>
      </trkpt>
      <trkpt lat="41.24302958138287067413330078125" lon="-1.58078829757869243621826171875">
        <ele>626.79998779296875</ele>
        <time>2022-05-02T10:08:44.000Z</time>
      </trkpt>
      <trkpt lat="41.2429679743945598602294921875" lon="-1.58070649020373821258544921875">
        <ele>625.79998779296875</ele>
        <time>2022-05-02T10:08:46.000Z</time>
      </trkpt>
      <trkpt lat="41.24290854670107364654541015625" lon="-1.580628789961338043212890625">
        <ele>625.20001220703125</ele>
        <time>2022-05-02T10:08:48.000Z</time>
      </trkpt>
      <trkpt lat="41.2428529746830463409423828125" lon="-1.58054823987185955047607421875">
        <ele>625</ele>
        <time>2022-05-02T10:08:50.000Z</time>
      </trkpt>
      <trkpt lat="41.24282958917319774627685546875" lon="-1.5805079229176044464111328125">
        <ele>625</ele>
        <time>2022-05-02T10:08:51.000Z</time>
      </trkpt>
      <trkpt lat="41.24280796386301517486572265625" lon="-1.58046693541109561920166015625">
        <ele>625</ele>
        <time>2022-05-02T10:08:52.000Z</time>
      </trkpt>
      <trkpt lat="41.2427683174610137939453125" lon="-1.5803821943700313568115234375">
        <ele>625</ele>
        <time>2022-05-02T10:08:54.000Z</time>
      </trkpt>
      <trkpt lat="41.24273235909640789031982421875" lon="-1.58029225654900074005126953125">
        <ele>625</ele>
        <time>2022-05-02T10:08:56.000Z</time>
      </trkpt>
      <trkpt lat="41.24271190725266933441162109375" lon="-1.5801961161196231842041015625">
        <ele>625</ele>
        <time>2022-05-02T10:08:58.000Z</time>
      </trkpt>
      <trkpt lat="41.24271291308104991912841796875" lon="-1.58008555881679058074951171875">
        <ele>625</ele>
        <time>2022-05-02T10:09:00.000Z</time>
      </trkpt>
      <trkpt lat="41.24271727167069911956787109375" lon="-1.58002638258039951324462890625">
        <ele>625</ele>
        <time>2022-05-02T10:09:01.000Z</time>
      </trkpt>
      <trkpt lat="41.24272431246936321258544921875" lon="-1.5799671225249767303466796875">
        <ele>625.20001220703125</ele>
        <time>2022-05-02T10:09:02.000Z</time>
      </trkpt>
      <trkpt lat="41.24273336492478847503662109375" lon="-1.57990568317472934722900390625">
        <ele>625.4000244140625</ele>
        <time>2022-05-02T10:09:03.000Z</time>
      </trkpt>
      <trkpt lat="41.242742836475372314453125" lon="-1.579845584928989410400390625">
        <ele>625.5999755859375</ele>
        <time>2022-05-02T10:09:04.000Z</time>
      </trkpt>
      <trkpt lat="41.24276270158588886260986328125" lon="-1.57972547225654125213623046875">
        <ele>625.79998779296875</ele>
        <time>2022-05-02T10:09:06.000Z</time>
      </trkpt>
      <trkpt lat="41.24278717674314975738525390625" lon="-1.579606868326663970947265625">
        <ele>626.20001220703125</ele>
        <time>2022-05-02T10:09:08.000Z</time>
      </trkpt>
      <trkpt lat="41.24280679039657115936279296875" lon="-1.5794860012829303741455078125">
        <ele>626.79998779296875</ele>
        <time>2022-05-02T10:09:10.000Z</time>
      </trkpt>
      <trkpt lat="41.242824308574199676513671875" lon="-1.5793733485043048858642578125">
        <ele>626.79998779296875</ele>
        <time>2022-05-02T10:09:12.000Z</time>
      </trkpt>
      <trkpt lat="41.2428311817348003387451171875" lon="-1.57932029105722904205322265625">
        <ele>626.5999755859375</ele>
        <time>2022-05-02T10:09:13.000Z</time>
      </trkpt>
      <trkpt lat="41.24283629469573497772216796875" lon="-1.5792697481811046600341796875">
        <ele>626.5999755859375</ele>
        <time>2022-05-02T10:09:14.000Z</time>
      </trkpt>
      <trkpt lat="41.2428395636379718780517578125" lon="-1.579173691570758819580078125">
        <ele>626.5999755859375</ele>
        <time>2022-05-02T10:09:16.000Z</time>
      </trkpt>
      <trkpt lat="41.2428372167050838470458984375" lon="-1.5791265852749347686767578125">
        <ele>626.79998779296875</ele>
        <time>2022-05-02T10:09:17.000Z</time>
      </trkpt>
      <trkpt lat="41.24283336102962493896484375" lon="-1.5790803171694278717041015625">
        <ele>627</ele>
        <time>2022-05-02T10:09:18.000Z</time>
      </trkpt>
      <trkpt lat="41.24282087199389934539794921875" lon="-1.5789936482906341552734375">
        <ele>627.20001220703125</ele>
        <time>2022-05-02T10:09:20.000Z</time>
      </trkpt>
      <trkpt lat="41.24280025251209735870361328125" lon="-1.57889817841351032257080078125">
        <ele>627.4000244140625</ele>
        <time>2022-05-02T10:09:22.000Z</time>
      </trkpt>
      <trkpt lat="41.24278767965734004974365234375" lon="-1.578851826488971710205078125">
        <ele>627.5999755859375</ele>
        <time>2022-05-02T10:09:23.000Z</time>
      </trkpt>
      <trkpt lat="41.24277695082128047943115234375" lon="-1.5788057260215282440185546875">
        <ele>627.79998779296875</ele>
        <time>2022-05-02T10:09:24.000Z</time>
      </trkpt>
      <trkpt lat="41.242757253348827362060546875" lon="-1.57871427945792675018310546875">
        <ele>627.79998779296875</ele>
        <time>2022-05-02T10:09:26.000Z</time>
      </trkpt>
      <trkpt lat="41.24273906461894512176513671875" lon="-1.57861612737178802490234375">
        <ele>627.79998779296875</ele>
        <time>2022-05-02T10:09:28.000Z</time>
      </trkpt>
      <trkpt lat="41.2427282519638538360595703125" lon="-1.57856692560017108917236328125">
        <ele>628</ele>
        <time>2022-05-02T10:09:29.000Z</time>
      </trkpt>
      <trkpt lat="41.24271693639457225799560546875" lon="-1.5785170532763004302978515625">
        <ele>628</ele>
        <time>2022-05-02T10:09:30.000Z</time>
      </trkpt>
      <trkpt lat="41.242691539227962493896484375" lon="-1.578419320285320281982421875">
        <ele>628.4000244140625</ele>
        <time>2022-05-02T10:09:32.000Z</time>
      </trkpt>
      <trkpt lat="41.242675445973873138427734375" lon="-1.57836559228599071502685546875">
        <ele>628.5999755859375</ele>
        <time>2022-05-02T10:09:33.000Z</time>
      </trkpt>
      <trkpt lat="41.24265910126268863677978515625" lon="-1.57831161282956600189208984375">
        <ele>629</ele>
        <time>2022-05-02T10:09:34.000Z</time>
      </trkpt>
      <trkpt lat="41.24262507073581218719482421875" lon="-1.5782050788402557373046875">
        <ele>630</ele>
        <time>2022-05-02T10:09:36.000Z</time>
      </trkpt>
      <trkpt lat="41.24259271658957004547119140625" lon="-1.5780959464609622955322265625">
        <ele>630.5999755859375</ele>
        <time>2022-05-02T10:09:38.000Z</time>
      </trkpt>
      <trkpt lat="41.24256120063364505767822265625" lon="-1.577982790768146514892578125">
        <ele>630.79998779296875</ele>
        <time>2022-05-02T10:09:40.000Z</time>
      </trkpt>
      <trkpt lat="41.242525577545166015625" lon="-1.57786536030471324920654296875">
        <ele>630.79998779296875</ele>
        <time>2022-05-02T10:09:42.000Z</time>
      </trkpt>
      <trkpt lat="41.24249263666570186614990234375" lon="-1.57774952240288257598876953125">
        <ele>630.79998779296875</ele>
        <time>2022-05-02T10:09:44.000Z</time>
      </trkpt>
      <trkpt lat="41.242458857595920562744140625" lon="-1.577637456357479095458984375">
        <ele>630</ele>
        <time>2022-05-02T10:09:46.000Z</time>
      </trkpt>
      <trkpt lat="41.24244050122797489166259765625" lon="-1.5775812976062297821044921875">
        <ele>629.5999755859375</ele>
        <time>2022-05-02T10:09:47.000Z</time>
      </trkpt>
      <trkpt lat="41.2424191273748874664306640625" lon="-1.5775232948362827301025390625">
        <ele>629.20001220703125</ele>
        <time>2022-05-02T10:09:48.000Z</time>
      </trkpt>
      <trkpt lat="41.24236472882330417633056640625" lon="-1.57740653492510318756103515625">
        <ele>629</ele>
        <time>2022-05-02T10:09:50.000Z</time>
      </trkpt>
      <trkpt lat="41.24230454675853252410888671875" lon="-1.5772798843681812286376953125">
        <ele>628.4000244140625</ele>
        <time>2022-05-02T10:09:52.000Z</time>
      </trkpt>
      <trkpt lat="41.2422457896173000335693359375" lon="-1.577151305973529815673828125">
        <ele>628.5999755859375</ele>
        <time>2022-05-02T10:09:54.000Z</time>
      </trkpt>
      <trkpt lat="41.24220094643533229827880859375" lon="-1.57702398486435413360595703125">
        <ele>629.20001220703125</ele>
        <time>2022-05-02T10:09:56.000Z</time>
      </trkpt>
      <trkpt lat="41.242167167365550994873046875" lon="-1.57689054496586322784423828125">
        <ele>629.79998779296875</ele>
        <time>2022-05-02T10:09:58.000Z</time>
      </trkpt>
      <trkpt lat="41.242135651409626007080078125" lon="-1.57675811089575290679931640625">
        <ele>630.20001220703125</ele>
        <time>2022-05-02T10:10:00.000Z</time>
      </trkpt>
      <trkpt lat="41.24210472218692302703857421875" lon="-1.57662190496921539306640625">
        <ele>630.4000244140625</ele>
        <time>2022-05-02T10:10:02.000Z</time>
      </trkpt>
      <trkpt lat="41.242074631154537200927734375" lon="-1.57648385502398014068603515625">
        <ele>630.4000244140625</ele>
        <time>2022-05-02T10:10:04.000Z</time>
      </trkpt>
      <trkpt lat="41.242035739123821258544921875" lon="-1.57633633352816104888916015625">
        <ele>630</ele>
        <time>2022-05-02T10:10:06.000Z</time>
      </trkpt>
      <trkpt lat="41.24199089594185352325439453125" lon="-1.57618939876556396484375">
        <ele>629.20001220703125</ele>
        <time>2022-05-02T10:10:08.000Z</time>
      </trkpt>
      <trkpt lat="41.24193616211414337158203125" lon="-1.57604212872684001922607421875">
        <ele>628.4000244140625</ele>
        <time>2022-05-02T10:10:10.000Z</time>
      </trkpt>
      <trkpt lat="41.24190405942499637603759765625" lon="-1.57597121782600879669189453125">
        <ele>628.4000244140625</ele>
        <time>2022-05-02T10:10:11.000Z</time>
      </trkpt>
      <trkpt lat="41.2418722920119762420654296875" lon="-1.5759029053151607513427734375">
        <ele>628.20001220703125</ele>
        <time>2022-05-02T10:10:12.000Z</time>
      </trkpt>
      <trkpt lat="41.24181655235588550567626953125" lon="-1.5757681243121623992919921875">
        <ele>628</ele>
        <time>2022-05-02T10:10:14.000Z</time>
      </trkpt>
      <trkpt lat="41.2417616508901119232177734375" lon="-1.5756316669285297393798828125">
        <ele>628.20001220703125</ele>
        <time>2022-05-02T10:10:16.000Z</time>
      </trkpt>
      <trkpt lat="41.24170549213886260986328125" lon="-1.57549671828746795654296875">
        <ele>629</ele>
        <time>2022-05-02T10:10:18.000Z</time>
      </trkpt>
      <trkpt lat="41.24164740554988384246826171875" lon="-1.575364284217357635498046875">
        <ele>629.5999755859375</ele>
        <time>2022-05-02T10:10:20.000Z</time>
      </trkpt>
      <trkpt lat="41.24159107916057109832763671875" lon="-1.57523327507078647613525390625">
        <ele>629.79998779296875</ele>
        <time>2022-05-02T10:10:22.000Z</time>
      </trkpt>
      <trkpt lat="41.24153039418160915374755859375" lon="-1.5751042775809764862060546875">
        <ele>629.5999755859375</ele>
        <time>2022-05-02T10:10:24.000Z</time>
      </trkpt>
      <trkpt lat="41.2414709664881229400634765625" lon="-1.57498181797564029693603515625">
        <ele>629.79998779296875</ele>
        <time>2022-05-02T10:10:26.000Z</time>
      </trkpt>
      <trkpt lat="41.2414428032934665679931640625" lon="-1.574920713901519775390625">
        <ele>629.79998779296875</ele>
        <time>2022-05-02T10:10:27.000Z</time>
      </trkpt>
      <trkpt lat="41.241416819393634796142578125" lon="-1.574861705303192138671875">
        <ele>629.4000244140625</ele>
        <time>2022-05-02T10:10:28.000Z</time>
      </trkpt>
      <trkpt lat="41.24136753380298614501953125" lon="-1.5747441910207271575927734375">
        <ele>628.79998779296875</ele>
        <time>2022-05-02T10:10:30.000Z</time>
      </trkpt>
      <trkpt lat="41.24132285825908184051513671875" lon="-1.57463162206113338470458984375">
        <ele>628.5999755859375</ele>
        <time>2022-05-02T10:10:32.000Z</time>
      </trkpt>
      <trkpt lat="41.241278685629367828369140625" lon="-1.57452131621539592742919921875">
        <ele>628.79998779296875</ele>
        <time>2022-05-02T10:10:34.000Z</time>
      </trkpt>
      <trkpt lat="41.241233758628368377685546875" lon="-1.5744246728718280792236328125">
        <ele>629.20001220703125</ele>
        <time>2022-05-02T10:10:36.000Z</time>
      </trkpt>
      <trkpt lat="41.2411911785602569580078125" lon="-1.57433020882308483123779296875">
        <ele>629.79998779296875</ele>
        <time>2022-05-02T10:10:38.000Z</time>
      </trkpt>
      <trkpt lat="41.24115421436727046966552734375" lon="-1.5742349065840244293212890625">
        <ele>630.4000244140625</ele>
        <time>2022-05-02T10:10:40.000Z</time>
      </trkpt>
      <trkpt lat="41.241118423640727996826171875" lon="-1.57413692213594913482666015625">
        <ele>631</ele>
        <time>2022-05-02T10:10:42.000Z</time>
      </trkpt>
      <trkpt lat="41.24108414165675640106201171875" lon="-1.57403868623077869415283203125">
        <ele>631.5999755859375</ele>
        <time>2022-05-02T10:10:44.000Z</time>
      </trkpt>
      <trkpt lat="41.24104893766343593597412109375" lon="-1.57394011504948139190673828125">
        <ele>631.79998779296875</ele>
        <time>2022-05-02T10:10:46.000Z</time>
      </trkpt>
      <trkpt lat="41.24101188965141773223876953125" lon="-1.5738330781459808349609375">
        <ele>632</ele>
        <time>2022-05-02T10:10:48.000Z</time>
      </trkpt>
      <trkpt lat="41.24097601510584354400634765625" lon="-1.57371732406318187713623046875">
        <ele>632.20001220703125</ele>
        <time>2022-05-02T10:10:50.000Z</time>
      </trkpt>
      <trkpt lat="41.2409355305135250091552734375" lon="-1.57359310425817966461181640625">
        <ele>632.20001220703125</ele>
        <time>2022-05-02T10:10:52.000Z</time>
      </trkpt>
      <trkpt lat="41.24089353717863559722900390625" lon="-1.57346402294933795928955078125">
        <ele>632</ele>
        <time>2022-05-02T10:10:54.000Z</time>
      </trkpt>
      <trkpt lat="41.24085146002471446990966796875" lon="-1.573335193097591400146484375">
        <ele>632.4000244140625</ele>
        <time>2022-05-02T10:10:56.000Z</time>
      </trkpt>
      <trkpt lat="41.24080837704241275787353515625" lon="-1.57321440987288951873779296875">
        <ele>632.5999755859375</ele>
        <time>2022-05-02T10:10:58.000Z</time>
      </trkpt>
      <trkpt lat="41.24076806008815765380859375" lon="-1.5731033496558666229248046875">
        <ele>633</ele>
        <time>2022-05-02T10:11:00.000Z</time>
      </trkpt>
      <trkpt lat="41.2407244741916656494140625" lon="-1.57298541627824306488037109375">
        <ele>633.4000244140625</ele>
        <time>2022-05-02T10:11:02.000Z</time>
      </trkpt>
      <trkpt lat="41.24070393852889537811279296875" lon="-1.5729253180325031280517578125">
        <ele>633.5999755859375</ele>
        <time>2022-05-02T10:11:03.000Z</time>
      </trkpt>
      <trkpt lat="41.240690611302852630615234375" lon="-1.57287024892866611480712890625">
        <ele>633.79998779296875</ele>
        <time>2022-05-02T10:11:04.000Z</time>
      </trkpt>
      <trkpt lat="41.24067007564008235931396484375" lon="-1.57276966609060764312744140625">
        <ele>633.5999755859375</ele>
        <time>2022-05-02T10:11:06.000Z</time>
      </trkpt>
      <trkpt lat="41.24066035263240337371826171875" lon="-1.57271669246256351470947265625">
        <ele>633.79998779296875</ele>
        <time>2022-05-02T10:11:07.000Z</time>
      </trkpt>
      <trkpt lat="41.240651719272136688232421875" lon="-1.5726611204445362091064453125">
        <ele>633.79998779296875</ele>
        <time>2022-05-02T10:11:08.000Z</time>
      </trkpt>
      <trkpt lat="41.24063453637063503265380859375" lon="-1.572544611990451812744140625">
        <ele>633.5999755859375</ele>
        <time>2022-05-02T10:11:10.000Z</time>
      </trkpt>
      <trkpt lat="41.24060846865177154541015625" lon="-1.5724301151931285858154296875">
        <ele>633.5999755859375</ele>
        <time>2022-05-02T10:11:12.000Z</time>
      </trkpt>
      <trkpt lat="41.2405935488641262054443359375" lon="-1.57237353734672069549560546875">
        <ele>633.4000244140625</ele>
        <time>2022-05-02T10:11:13.000Z</time>
      </trkpt>
      <trkpt lat="41.24057519249618053436279296875" lon="-1.5723161213099956512451171875">
        <ele>632.79998779296875</ele>
        <time>2022-05-02T10:11:14.000Z</time>
      </trkpt>
      <trkpt lat="41.24055214226245880126953125" lon="-1.57226004637777805328369140625">
        <ele>632.4000244140625</ele>
        <time>2022-05-02T10:11:15.000Z</time>
      </trkpt>
      <trkpt lat="41.2405261583626270294189453125" lon="-1.57220640219748020172119140625">
        <ele>632</ele>
        <time>2022-05-02T10:11:16.000Z</time>
      </trkpt>
      <trkpt lat="41.2404674850404262542724609375" lon="-1.57210296951234340667724609375">
        <ele>632</ele>
        <time>2022-05-02T10:11:18.000Z</time>
      </trkpt>
      <trkpt lat="41.2404334545135498046875" lon="-1.5720529295504093170166015625">
        <ele>632</ele>
        <time>2022-05-02T10:11:19.000Z</time>
      </trkpt>
      <trkpt lat="41.240397579967975616455078125" lon="-1.572003476321697235107421875">
        <ele>631.79998779296875</ele>
        <time>2022-05-02T10:11:20.000Z</time>
      </trkpt>
      <trkpt lat="41.2403229810297489166259765625" lon="-1.57190599478781223297119140625">
        <ele>631.20001220703125</ele>
        <time>2022-05-02T10:11:22.000Z</time>
      </trkpt>
      <trkpt lat="41.24024729244410991668701171875" lon="-1.5718071721494197845458984375">
        <ele>631</ele>
        <time>2022-05-02T10:11:24.000Z</time>
      </trkpt>
      <trkpt lat="41.2401912175118923187255859375" lon="-1.571688987314701080322265625">
        <ele>631</ele>
        <time>2022-05-02T10:11:26.000Z</time>
      </trkpt>
      <trkpt lat="41.240146793425083160400390625" lon="-1.5715604089200496673583984375">
        <ele>631.20001220703125</ele>
        <time>2022-05-02T10:11:28.000Z</time>
      </trkpt>
      <trkpt lat="41.24010412953794002532958984375" lon="-1.5714325010776519775390625">
        <ele>631</ele>
        <time>2022-05-02T10:11:30.000Z</time>
      </trkpt>
      <trkpt lat="41.240076385438442230224609375" lon="-1.57137282192707061767578125">
        <ele>630.79998779296875</ele>
        <time>2022-05-02T10:11:31.000Z</time>
      </trkpt>
      <trkpt lat="41.2400493957102298736572265625" lon="-1.5713159926235675811767578125">
        <ele>630.4000244140625</ele>
        <time>2022-05-02T10:11:32.000Z</time>
      </trkpt>
      <trkpt lat="41.2399944104254245758056640625" lon="-1.5712019987404346466064453125">
        <ele>630</ele>
        <time>2022-05-02T10:11:34.000Z</time>
      </trkpt>
      <trkpt lat="41.2399439513683319091796875" lon="-1.57108716666698455810546875">
        <ele>629.79998779296875</ele>
        <time>2022-05-02T10:11:36.000Z</time>
      </trkpt>
      <trkpt lat="41.23989357613027095794677734375" lon="-1.5709800459444522857666015625">
        <ele>630.20001220703125</ele>
        <time>2022-05-02T10:11:38.000Z</time>
      </trkpt>
      <trkpt lat="41.23982082121074199676513671875" lon="-1.5709005855023860931396484375">
        <ele>630.5999755859375</ele>
        <time>2022-05-02T10:11:40.000Z</time>
      </trkpt>
      <trkpt lat="41.239727027714252471923828125" lon="-1.57086848281323909759521484375">
        <ele>630.79998779296875</ele>
        <time>2022-05-02T10:11:42.000Z</time>
      </trkpt>
      <trkpt lat="41.23968067578971385955810546875" lon="-1.570863537490367889404296875">
        <ele>631</ele>
        <time>2022-05-02T10:11:43.000Z</time>
      </trkpt>
      <trkpt lat="41.23963675461709499359130859375" lon="-1.570857502520084381103515625">
        <ele>631.20001220703125</ele>
        <time>2022-05-02T10:11:44.000Z</time>
      </trkpt>
      <trkpt lat="41.23959450982511043548583984375" lon="-1.57084853388369083404541015625">
        <ele>631.4000244140625</ele>
        <time>2022-05-02T10:11:45.000Z</time>
      </trkpt>
      <trkpt lat="41.23955746181309223175048828125" lon="-1.57083495520055294036865234375">
        <ele>631.5999755859375</ele>
        <time>2022-05-02T10:11:46.000Z</time>
      </trkpt>
      <trkpt lat="41.23950608074665069580078125" lon="-1.570788435637950897216796875">
        <ele>631.79998779296875</ele>
        <time>2022-05-02T10:11:48.000Z</time>
      </trkpt>
      <trkpt lat="41.23946878127753734588623046875" lon="-1.57071459107100963592529296875">
        <ele>631.79998779296875</ele>
        <time>2022-05-02T10:11:50.000Z</time>
      </trkpt>
      <trkpt lat="41.23942888341844081878662109375" lon="-1.57062926329672336578369140625">
        <ele>631.79998779296875</ele>
        <time>2022-05-02T10:11:52.000Z</time>
      </trkpt>
      <trkpt lat="41.2394075095653533935546875" lon="-1.5705849230289459228515625">
        <ele>631.79998779296875</ele>
        <time>2022-05-02T10:11:53.000Z</time>
      </trkpt>
      <trkpt lat="41.2393865548074245452880859375" lon="-1.5705431811511516571044921875">
        <ele>631.79998779296875</ele>
        <time>2022-05-02T10:11:54.000Z</time>
      </trkpt>
      <trkpt lat="41.23934925533831119537353515625" lon="-1.5704697556793689727783203125">
        <ele>632.20001220703125</ele>
        <time>2022-05-02T10:11:56.000Z</time>
      </trkpt>
      <trkpt lat="41.239311285316944122314453125" lon="-1.5704006887972354888916015625">
        <ele>632.4000244140625</ele>
        <time>2022-05-02T10:11:58.000Z</time>
      </trkpt>
      <trkpt lat="41.23927331529557704925537109375" lon="-1.5703306160867214202880859375">
        <ele>632.4000244140625</ele>
        <time>2022-05-02T10:12:00.000Z</time>
      </trkpt>
      <trkpt lat="41.23925051651895046234130859375" lon="-1.570291556417942047119140625">
        <ele>632.4000244140625</ele>
        <time>2022-05-02T10:12:01.000Z</time>
      </trkpt>
      <trkpt lat="41.23922587372362613677978515625" lon="-1.57025107182562351226806640625">
        <ele>632.5999755859375</ele>
        <time>2022-05-02T10:12:02.000Z</time>
      </trkpt>
      <trkpt lat="41.23917541466653347015380859375" lon="-1.570162475109100341796875">
        <ele>633</ele>
        <time>2022-05-02T10:12:04.000Z</time>
      </trkpt>
      <trkpt lat="41.2391500174999237060546875" lon="-1.57011645846068859100341796875">
        <ele>633</ele>
        <time>2022-05-02T10:12:05.000Z</time>
      </trkpt>
      <trkpt lat="41.2391240336000919342041015625" lon="-1.570070274174213409423828125">
        <ele>633</ele>
        <time>2022-05-02T10:12:06.000Z</time>
      </trkpt>
      <trkpt lat="41.2390747480094432830810546875" lon="-1.56997346319258213043212890625">
        <ele>632.79998779296875</ele>
        <time>2022-05-02T10:12:08.000Z</time>
      </trkpt>
      <trkpt lat="41.2390345148742198944091796875" lon="-1.56987137161195278167724609375">
        <ele>632.4000244140625</ele>
        <time>2022-05-02T10:12:10.000Z</time>
      </trkpt>
      <trkpt lat="41.23900559730827808380126953125" lon="-1.569763831794261932373046875">
        <ele>632.4000244140625</ele>
        <time>2022-05-02T10:12:12.000Z</time>
      </trkpt>
      <trkpt lat="41.23898548074066638946533203125" lon="-1.569649837911128997802734375">
        <ele>632</ele>
        <time>2022-05-02T10:12:14.000Z</time>
      </trkpt>
      <trkpt lat="41.23898095451295375823974609375" lon="-1.56959376297891139984130859375">
        <ele>631.79998779296875</ele>
        <time>2022-05-02T10:12:15.000Z</time>
      </trkpt>
      <trkpt lat="41.2389785237610340118408203125" lon="-1.56953752040863037109375">
        <ele>631.5999755859375</ele>
        <time>2022-05-02T10:12:16.000Z</time>
      </trkpt>
      <trkpt lat="41.23897592537105083465576171875" lon="-1.5694236941635608673095703125">
        <ele>631.20001220703125</ele>
        <time>2022-05-02T10:12:18.000Z</time>
      </trkpt>
      <trkpt lat="41.23896561563014984130859375" lon="-1.569309867918491363525390625">
        <ele>631</ele>
        <time>2022-05-02T10:12:20.000Z</time>
      </trkpt>
      <trkpt lat="41.23895396478474140167236328125" lon="-1.56925111077725887298583984375">
        <ele>631</ele>
        <time>2022-05-02T10:12:21.000Z</time>
      </trkpt>
      <trkpt lat="41.23894256539642810821533203125" lon="-1.56919495202600955963134765625">
        <ele>631</ele>
        <time>2022-05-02T10:12:22.000Z</time>
      </trkpt>
      <trkpt lat="41.23891540803015232086181640625" lon="-1.56908623874187469482421875">
        <ele>631.20001220703125</ele>
        <time>2022-05-02T10:12:24.000Z</time>
      </trkpt>
      <trkpt lat="41.23888389207422733306884765625" lon="-1.56897786073386669158935546875">
        <ele>631.5999755859375</ele>
        <time>2022-05-02T10:12:26.000Z</time>
      </trkpt>
      <trkpt lat="41.2388564832508563995361328125" lon="-1.56887107528746128082275390625">
        <ele>631.79998779296875</ele>
        <time>2022-05-02T10:12:28.000Z</time>
      </trkpt>
      <trkpt lat="41.2388306669890880584716796875" lon="-1.56876747496426105499267578125">
        <ele>632</ele>
        <time>2022-05-02T10:12:30.000Z</time>
      </trkpt>
      <trkpt lat="41.238805688917636871337890625" lon="-1.5686644613742828369140625">
        <ele>632</ele>
        <time>2022-05-02T10:12:32.000Z</time>
      </trkpt>
      <trkpt lat="41.2387746758759021759033203125" lon="-1.56856195069849491119384765625">
        <ele>632.5999755859375</ele>
        <time>2022-05-02T10:12:34.000Z</time>
      </trkpt>
      <trkpt lat="41.2387434951961040496826171875" lon="-1.56845994293689727783203125">
        <ele>633.20001220703125</ele>
        <time>2022-05-02T10:12:36.000Z</time>
      </trkpt>
      <trkpt lat="41.238727234303951263427734375" lon="-1.568405963480472564697265625">
        <ele>633.20001220703125</ele>
        <time>2022-05-02T10:12:37.000Z</time>
      </trkpt>
      <trkpt lat="41.23871021904051303863525390625" lon="-1.56835223548114299774169921875">
        <ele>633</ele>
        <time>2022-05-02T10:12:38.000Z</time>
      </trkpt>
      <trkpt lat="41.23867451213300228118896484375" lon="-1.5682431869208812713623046875">
        <ele>633</ele>
        <time>2022-05-02T10:12:40.000Z</time>
      </trkpt>
      <trkpt lat="41.2386392243206501007080078125" lon="-1.5681305341422557830810546875">
        <ele>633</ele>
        <time>2022-05-02T10:12:42.000Z</time>
      </trkpt>
      <trkpt lat="41.23860293067991733551025390625" lon="-1.56801494769752025604248046875">
        <ele>632.79998779296875</ele>
        <time>2022-05-02T10:12:44.000Z</time>
      </trkpt>
      <trkpt lat="41.2385621108114719390869140625" lon="-1.56789693050086498260498046875">
        <ele>632.4000244140625</ele>
        <time>2022-05-02T10:12:46.000Z</time>
      </trkpt>
      <trkpt lat="41.2385403178632259368896484375" lon="-1.56783591024577617645263671875">
        <ele>632.20001220703125</ele>
        <time>2022-05-02T10:12:47.000Z</time>
      </trkpt>
      <trkpt lat="41.23851768672466278076171875" lon="-1.56777354888617992401123046875">
        <ele>632</ele>
        <time>2022-05-02T10:12:48.000Z</time>
      </trkpt>
      <trkpt lat="41.23846814967691898345947265625" lon="-1.56764647923409938812255859375">
        <ele>632.20001220703125</ele>
        <time>2022-05-02T10:12:50.000Z</time>
      </trkpt>
      <trkpt lat="41.2384172715246677398681640625" lon="-1.56752292998135089874267578125">
        <ele>632.79998779296875</ele>
        <time>2022-05-02T10:12:52.000Z</time>
      </trkpt>
      <trkpt lat="41.23836002312600612640380859375" lon="-1.5674145519733428955078125">
        <ele>633.20001220703125</ele>
        <time>2022-05-02T10:12:54.000Z</time>
      </trkpt>
      <trkpt lat="41.238328255712985992431640625" lon="-1.56736216507852077484130859375">
        <ele>633.5999755859375</ele>
        <time>2022-05-02T10:12:55.000Z</time>
      </trkpt>
      <trkpt lat="41.23829481191933155059814453125" lon="-1.56730927526950836181640625">
        <ele>633.79998779296875</ele>
        <time>2022-05-02T10:12:56.000Z</time>
      </trkpt>
      <trkpt lat="41.23823211528360843658447265625" lon="-1.56720676459372043609619140625">
        <ele>634.20001220703125</ele>
        <time>2022-05-02T10:12:58.000Z</time>
      </trkpt>
      <trkpt lat="41.23817226849496364593505859375" lon="-1.56710936687886714935302734375">
        <ele>634.5999755859375</ele>
        <time>2022-05-02T10:13:00.000Z</time>
      </trkpt>
      <trkpt lat="41.238113678991794586181640625" lon="-1.56701833941042423248291015625">
        <ele>634.79998779296875</ele>
        <time>2022-05-02T10:13:02.000Z</time>
      </trkpt>
      <trkpt lat="41.2380531616508960723876953125" lon="-1.56693778932094573974609375">
        <ele>634.5999755859375</ele>
        <time>2022-05-02T10:13:04.000Z</time>
      </trkpt>
      <trkpt lat="41.23798451386392116546630859375" lon="-1.56685606576502323150634765625">
        <ele>634.20001220703125</ele>
        <time>2022-05-02T10:13:06.000Z</time>
      </trkpt>
      <trkpt lat="41.23791209422051906585693359375" lon="-1.56676621176302433013916015625">
        <ele>633.4000244140625</ele>
        <time>2022-05-02T10:13:08.000Z</time>
      </trkpt>
      <trkpt lat="41.23784068040549755096435546875" lon="-1.56667669303715229034423828125">
        <ele>632.4000244140625</ele>
        <time>2022-05-02T10:13:10.000Z</time>
      </trkpt>
      <trkpt lat="41.237811259925365447998046875" lon="-1.5666340291500091552734375">
        <ele>632.20001220703125</ele>
        <time>2022-05-02T10:13:11.000Z</time>
      </trkpt>
      <trkpt lat="41.23778368346393108367919921875" lon="-1.56659304164350032806396484375">
        <ele>632</ele>
        <time>2022-05-02T10:13:12.000Z</time>
      </trkpt>
      <trkpt lat="41.23773188330233097076416015625" lon="-1.5665168501436710357666015625">
        <ele>631</ele>
        <time>2022-05-02T10:13:14.000Z</time>
      </trkpt>
      <trkpt lat="41.23769969679415225982666015625" lon="-1.566434539854526519775390625">
        <ele>630.20001220703125</ele>
        <time>2022-05-02T10:13:16.000Z</time>
      </trkpt>
      <trkpt lat="41.23768578283488750457763671875" lon="-1.56632515601813793182373046875">
        <ele>630</ele>
        <time>2022-05-02T10:13:18.000Z</time>
      </trkpt>
      <trkpt lat="41.23769097961485385894775390625" lon="-1.5662033669650554656982421875">
        <ele>630</ele>
        <time>2022-05-02T10:13:20.000Z</time>
      </trkpt>
      <trkpt lat="41.23769466765224933624267578125" lon="-1.56613740138709545135498046875">
        <ele>630</ele>
        <time>2022-05-02T10:13:21.000Z</time>
      </trkpt>
      <trkpt lat="41.23769399709999561309814453125" lon="-1.56606883741915225982666015625">
        <ele>630.4000244140625</ele>
        <time>2022-05-02T10:13:22.000Z</time>
      </trkpt>
      <trkpt lat="41.23767673037946224212646484375" lon="-1.56593003310263156890869140625">
        <ele>631.5999755859375</ele>
        <time>2022-05-02T10:13:24.000Z</time>
      </trkpt>
      <trkpt lat="41.23764018528163433074951171875" lon="-1.56579944305121898651123046875">
        <ele>632.4000244140625</ele>
        <time>2022-05-02T10:13:26.000Z</time>
      </trkpt>
      <trkpt lat="41.2376022152602672576904296875" lon="-1.56567522324621677398681640625">
        <ele>633</ele>
        <time>2022-05-02T10:13:28.000Z</time>
      </trkpt>
      <trkpt lat="41.2375653348863124847412109375" lon="-1.56554966233670711517333984375">
        <ele>634</ele>
        <time>2022-05-02T10:13:30.000Z</time>
      </trkpt>
      <trkpt lat="41.237532310187816619873046875" lon="-1.5654238499701023101806640625">
        <ele>634.5999755859375</ele>
        <time>2022-05-02T10:13:32.000Z</time>
      </trkpt>
      <trkpt lat="41.2375150434672832489013671875" lon="-1.56535872258245944976806640625">
        <ele>634.5999755859375</ele>
        <time>2022-05-02T10:13:33.000Z</time>
      </trkpt>
      <trkpt lat="41.23749710619449615478515625" lon="-1.56529351137578487396240234375">
        <ele>634.79998779296875</ele>
        <time>2022-05-02T10:13:34.000Z</time>
      </trkpt>
      <trkpt lat="41.23745880089700222015380859375" lon="-1.56516593880951404571533203125">
        <ele>634.4000244140625</ele>
        <time>2022-05-02T10:13:36.000Z</time>
      </trkpt>
      <trkpt lat="41.23742661438882350921630859375" lon="-1.5650449879467487335205078125">
        <ele>634</ele>
        <time>2022-05-02T10:13:38.000Z</time>
      </trkpt>
      <trkpt lat="41.23739928938448429107666015625" lon="-1.5649239532649517059326171875">
        <ele>633.5999755859375</ele>
        <time>2022-05-02T10:13:40.000Z</time>
      </trkpt>
      <trkpt lat="41.2373851239681243896484375" lon="-1.5648612566292285919189453125">
        <ele>633.20001220703125</ele>
        <time>2022-05-02T10:13:41.000Z</time>
      </trkpt>
      <trkpt lat="41.23737313784658908843994140625" lon="-1.5647982247173786163330078125">
        <ele>633</ele>
        <time>2022-05-02T10:13:42.000Z</time>
      </trkpt>
      <trkpt lat="41.237353943288326263427734375" lon="-1.56467534601688385009765625">
        <ele>633.20001220703125</ele>
        <time>2022-05-02T10:13:44.000Z</time>
      </trkpt>
      <trkpt lat="41.23733994551002979278564453125" lon="-1.5645494498312473297119140625">
        <ele>633.5999755859375</ele>
        <time>2022-05-02T10:13:46.000Z</time>
      </trkpt>
      <trkpt lat="41.2373202480375766754150390625" lon="-1.56442321836948394775390625">
        <ele>633.5999755859375</ele>
        <time>2022-05-02T10:13:48.000Z</time>
      </trkpt>
      <trkpt lat="41.23729870654642581939697265625" lon="-1.56429371796548366546630859375">
        <ele>633.5999755859375</ele>
        <time>2022-05-02T10:13:50.000Z</time>
      </trkpt>
      <trkpt lat="41.23728160746395587921142578125" lon="-1.564174778759479522705078125">
        <ele>634</ele>
        <time>2022-05-02T10:13:52.000Z</time>
      </trkpt>
      <trkpt lat="41.237262748181819915771484375" lon="-1.564057432115077972412109375">
        <ele>633.5999755859375</ele>
        <time>2022-05-02T10:13:54.000Z</time>
      </trkpt>
      <trkpt lat="41.2372313998639583587646484375" lon="-1.56393639743328094482421875">
        <ele>633.20001220703125</ele>
        <time>2022-05-02T10:13:56.000Z</time>
      </trkpt>
      <trkpt lat="41.2371958605945110321044921875" lon="-1.56382516957819461822509765625">
        <ele>632.5999755859375</ele>
        <time>2022-05-02T10:13:58.000Z</time>
      </trkpt>
      <trkpt lat="41.23715671710669994354248046875" lon="-1.56371419318020343780517578125">
        <ele>632.20001220703125</ele>
        <time>2022-05-02T10:14:00.000Z</time>
      </trkpt>
      <trkpt lat="41.237115561962127685546875" lon="-1.56359978020191192626953125">
        <ele>631.79998779296875</ele>
        <time>2022-05-02T10:14:02.000Z</time>
      </trkpt>
      <trkpt lat="41.2370708025991916656494140625" lon="-1.56347832642495632171630859375">
        <ele>631.4000244140625</ele>
        <time>2022-05-02T10:14:04.000Z</time>
      </trkpt>
      <trkpt lat="41.237035430967807769775390625" lon="-1.56335779465734958648681640625">
        <ele>631</ele>
        <time>2022-05-02T10:14:06.000Z</time>
      </trkpt>
      <trkpt lat="41.23701590113341808319091796875" lon="-1.5633018873631954193115234375">
        <ele>631</ele>
        <time>2022-05-02T10:14:07.000Z</time>
      </trkpt>
      <trkpt lat="41.23699729330837726593017578125" lon="-1.5632458962500095367431640625">
        <ele>631</ele>
        <time>2022-05-02T10:14:08.000Z</time>
      </trkpt>
      <trkpt lat="41.236956305801868438720703125" lon="-1.56313248910009860992431640625">
        <ele>631.4000244140625</ele>
        <time>2022-05-02T10:14:10.000Z</time>
      </trkpt>
      <trkpt lat="41.23691632412374019622802734375" lon="-1.5630192495882511138916015625">
        <ele>631.79998779296875</ele>
        <time>2022-05-02T10:14:12.000Z</time>
      </trkpt>
      <trkpt lat="41.23687659390270709991455078125" lon="-1.5629116259515285491943359375">
        <ele>632.5999755859375</ele>
        <time>2022-05-02T10:14:14.000Z</time>
      </trkpt>
      <trkpt lat="41.236859746277332305908203125" lon="-1.5628569759428501129150390625">
        <ele>632.79998779296875</ele>
        <time>2022-05-02T10:14:15.000Z</time>
      </trkpt>
      <trkpt lat="41.2368438206613063812255859375" lon="-1.56280274502933025360107421875">
        <ele>633</ele>
        <time>2022-05-02T10:14:16.000Z</time>
      </trkpt>
      <trkpt lat="41.2368069402873516082763671875" lon="-1.56269897706806659698486328125">
        <ele>632.5999755859375</ele>
        <time>2022-05-02T10:14:18.000Z</time>
      </trkpt>
      <trkpt lat="41.23676360584795475006103515625" lon="-1.56259403564035892486572265625">
        <ele>632.4000244140625</ele>
        <time>2022-05-02T10:14:20.000Z</time>
      </trkpt>
      <trkpt lat="41.23672136105597019195556640625" lon="-1.56248389743268489837646484375">
        <ele>633</ele>
        <time>2022-05-02T10:14:22.000Z</time>
      </trkpt>
      <trkpt lat="41.23670342378318309783935546875" lon="-1.5624278225004673004150390625">
        <ele>633.20001220703125</ele>
        <time>2022-05-02T10:14:23.000Z</time>
      </trkpt>
      <trkpt lat="41.23668347485363483428955078125" lon="-1.56236588023602962493896484375">
        <ele>633.5999755859375</ele>
        <time>2022-05-02T10:14:24.000Z</time>
      </trkpt>
      <trkpt lat="41.236646510660648345947265625" lon="-1.5622454322874546051025390625">
        <ele>634.4000244140625</ele>
        <time>2022-05-02T10:14:26.000Z</time>
      </trkpt>
      <trkpt lat="41.23660485260188579559326171875" lon="-1.56211039982736110687255859375">
        <ele>635.4000244140625</ele>
        <time>2022-05-02T10:14:28.000Z</time>
      </trkpt>
      <trkpt lat="41.23657601885497570037841796875" lon="-1.561988107860088348388671875">
        <ele>636</ele>
        <time>2022-05-02T10:14:30.000Z</time>
      </trkpt>
      <trkpt lat="41.23655053786933422088623046875" lon="-1.56191744841635227203369140625">
        <ele>635.79998779296875</ele>
        <time>2022-05-02T10:14:31.000Z</time>
      </trkpt>
      <trkpt lat="41.2365429103374481201171875" lon="-1.5618575178086757659912109375">
        <ele>635.5999755859375</ele>
        <time>2022-05-02T10:14:32.000Z</time>
      </trkpt>
      <trkpt lat="41.236507706344127655029296875" lon="-1.56172550283372402191162109375">
        <ele>635.20001220703125</ele>
        <time>2022-05-02T10:14:34.000Z</time>
      </trkpt>
      <trkpt lat="41.2364937923848628997802734375" lon="-1.5616074018180370330810546875">
        <ele>634.79998779296875</ele>
        <time>2022-05-02T10:14:36.000Z</time>
      </trkpt>
      <trkpt lat="41.236473508179187774658203125" lon="-1.56149013899266719818115234375">
        <ele>634.20001220703125</ele>
        <time>2022-05-02T10:14:38.000Z</time>
      </trkpt>
      <trkpt lat="41.236458756029605865478515625" lon="-1.56142995692789554595947265625">
        <ele>633.5999755859375</ele>
        <time>2022-05-02T10:14:39.000Z</time>
      </trkpt>
      <trkpt lat="41.236441992223262786865234375" lon="-1.561368517577648162841796875">
        <ele>633.4000244140625</ele>
        <time>2022-05-02T10:14:40.000Z</time>
      </trkpt>
      <trkpt lat="41.23641240410506725311279296875" lon="-1.561258547008037567138671875">
        <ele>632.79998779296875</ele>
        <time>2022-05-02T10:14:42.000Z</time>
      </trkpt>
      <trkpt lat="41.23638424091041088104248046875" lon="-1.5611577965319156646728515625">
        <ele>632.4000244140625</ele>
        <time>2022-05-02T10:14:44.000Z</time>
      </trkpt>
      <trkpt lat="41.2363690696656703948974609375" lon="-1.5611051581799983978271484375">
        <ele>632.20001220703125</ele>
        <time>2022-05-02T10:14:45.000Z</time>
      </trkpt>
      <trkpt lat="41.23635448515415191650390625" lon="-1.56105226837098598480224609375">
        <ele>632.20001220703125</ele>
        <time>2022-05-02T10:14:46.000Z</time>
      </trkpt>
      <trkpt lat="41.2363365478813648223876953125" lon="-1.5609998814761638641357421875">
        <ele>632.4000244140625</ele>
        <time>2022-05-02T10:14:47.000Z</time>
      </trkpt>
      <trkpt lat="41.23631936497986316680908203125" lon="-1.56094841659069061279296875">
        <ele>632.5999755859375</ele>
        <time>2022-05-02T10:14:48.000Z</time>
      </trkpt>
      <trkpt lat="41.2362896092236042022705078125" lon="-1.56084649264812469482421875">
        <ele>633.20001220703125</ele>
        <time>2022-05-02T10:14:50.000Z</time>
      </trkpt>
      <trkpt lat="41.2362597696483135223388671875" lon="-1.560747586190700531005859375">
        <ele>633.79998779296875</ele>
        <time>2022-05-02T10:14:52.000Z</time>
      </trkpt>
      <trkpt lat="41.2362443469464778900146484375" lon="-1.56069972552359104156494140625">
        <ele>634</ele>
        <time>2022-05-02T10:14:53.000Z</time>
      </trkpt>
      <trkpt lat="41.2362299300730228424072265625" lon="-1.5606552176177501678466796875">
        <ele>634.4000244140625</ele>
        <time>2022-05-02T10:14:54.000Z</time>
      </trkpt>
      <trkpt lat="41.236200593411922454833984375" lon="-1.56056620180606842041015625">
        <ele>634.79998779296875</ele>
        <time>2022-05-02T10:14:56.000Z</time>
      </trkpt>
      <trkpt lat="41.236171759665012359619140625" lon="-1.56047643162310123443603515625">
        <ele>634.4000244140625</ele>
        <time>2022-05-02T10:14:58.000Z</time>
      </trkpt>
      <trkpt lat="41.23614200390875339508056640625" lon="-1.56038649380207061767578125">
        <ele>634.20001220703125</ele>
        <time>2022-05-02T10:15:00.000Z</time>
      </trkpt>
      <trkpt lat="41.23611040413379669189453125" lon="-1.560294628143310546875">
        <ele>634.20001220703125</ele>
        <time>2022-05-02T10:15:02.000Z</time>
      </trkpt>
      <trkpt lat="41.2360639683902263641357421875" lon="-1.56018625013530254364013671875">
        <ele>634</ele>
        <time>2022-05-02T10:15:04.000Z</time>
      </trkpt>
      <trkpt lat="41.236010491847991943359375" lon="-1.56006907112896442413330078125">
        <ele>633.5999755859375</ele>
        <time>2022-05-02T10:15:06.000Z</time>
      </trkpt>
      <trkpt lat="41.2359892018139362335205078125" lon="-1.56002313829958438873291015625">
        <ele>633.5999755859375</ele>
        <time>2022-05-02T10:15:07.000Z</time>
      </trkpt>
      <trkpt lat="41.23596958816051483154296875" lon="-1.5599839948117733001708984375">
        <ele>633.5999755859375</ele>
        <time>2022-05-02T10:15:08.000Z</time>
      </trkpt>
      <trkpt lat="41.23593715019524097442626953125" lon="-1.559911072254180908203125">
        <ele>633.79998779296875</ele>
        <time>2022-05-02T10:15:10.000Z</time>
      </trkpt>
      <trkpt lat="41.23590328730642795562744140625" lon="-1.55982800759375095367431640625">
        <ele>633.5999755859375</ele>
        <time>2022-05-02T10:15:12.000Z</time>
      </trkpt>
      <trkpt lat="41.2358839251101016998291015625" lon="-1.5597828291356563568115234375">
        <ele>633.4000244140625</ele>
        <time>2022-05-02T10:15:13.000Z</time>
      </trkpt>
      <trkpt lat="41.23586556874215602874755859375" lon="-1.559737734496593475341796875">
        <ele>633.20001220703125</ele>
        <time>2022-05-02T10:15:14.000Z</time>
      </trkpt>
      <trkpt lat="41.2358282692730426788330078125" lon="-1.55964360572397708892822265625">
        <ele>633.4000244140625</ele>
        <time>2022-05-02T10:15:16.000Z</time>
      </trkpt>
      <trkpt lat="41.23579616658389568328857421875" lon="-1.5595508180558681488037109375">
        <ele>632.5999755859375</ele>
        <time>2022-05-02T10:15:18.000Z</time>
      </trkpt>
      <trkpt lat="41.23577370308339595794677734375" lon="-1.55945283360779285430908203125">
        <ele>632</ele>
        <time>2022-05-02T10:15:20.000Z</time>
      </trkpt>
      <trkpt lat="41.23576364479959011077880859375" lon="-1.559405140578746795654296875">
        <ele>632.4000244140625</ele>
        <time>2022-05-02T10:15:21.000Z</time>
      </trkpt>
      <trkpt lat="41.235752999782562255859375" lon="-1.55935610644519329071044921875">
        <ele>632.79998779296875</ele>
        <time>2022-05-02T10:15:22.000Z</time>
      </trkpt>
      <trkpt lat="41.23573891818523406982421875" lon="-1.55925334431231021881103515625">
        <ele>633.79998779296875</ele>
        <time>2022-05-02T10:15:24.000Z</time>
      </trkpt>
      <trkpt lat="41.2357248365879058837890625" lon="-1.559146977961063385009765625">
        <ele>634.4000244140625</ele>
        <time>2022-05-02T10:15:26.000Z</time>
      </trkpt>
      <trkpt lat="41.235715448856353759765625" lon="-1.5590888075530529022216796875">
        <ele>634.5999755859375</ele>
        <time>2022-05-02T10:15:27.000Z</time>
      </trkpt>
      <trkpt lat="41.23570597730576992034912109375" lon="-1.55902787111699581146240234375">
        <ele>635</ele>
        <time>2022-05-02T10:15:28.000Z</time>
      </trkpt>
      <trkpt lat="41.2356887944042682647705078125" lon="-1.5589027293026447296142578125">
        <ele>635.5999755859375</ele>
        <time>2022-05-02T10:15:30.000Z</time>
      </trkpt>
      <trkpt lat="41.23567077331244945526123046875" lon="-1.5587830357253551483154296875">
        <ele>636</ele>
        <time>2022-05-02T10:15:32.000Z</time>
      </trkpt>
      <trkpt lat="41.23565115965902805328369140625" lon="-1.55866317451000213623046875">
        <ele>637</ele>
        <time>2022-05-02T10:15:34.000Z</time>
      </trkpt>
      <trkpt lat="41.23564126901328563690185546875" lon="-1.5586016513407230377197265625">
        <ele>637.20001220703125</ele>
        <time>2022-05-02T10:15:35.000Z</time>
      </trkpt>
      <trkpt lat="41.235627271234989166259765625" lon="-1.5585389547049999237060546875">
        <ele>637.4000244140625</ele>
        <time>2022-05-02T10:15:36.000Z</time>
      </trkpt>
      <trkpt lat="41.23560254462063312530517578125" lon="-1.55841867439448833465576171875">
        <ele>637.5999755859375</ele>
        <time>2022-05-02T10:15:38.000Z</time>
      </trkpt>
      <trkpt lat="41.23558058403432369232177734375" lon="-1.558304764330387115478515625">
        <ele>638</ele>
        <time>2022-05-02T10:15:40.000Z</time>
      </trkpt>
      <trkpt lat="41.2355612218379974365234375" lon="-1.55819202773272991180419921875">
        <ele>637.79998779296875</ele>
        <time>2022-05-02T10:15:42.000Z</time>
      </trkpt>
      <trkpt lat="41.235544122755527496337890625" lon="-1.558076441287994384765625">
        <ele>637.5999755859375</ele>
        <time>2022-05-02T10:15:44.000Z</time>
      </trkpt>
      <trkpt lat="41.23552610166370868682861328125" lon="-1.55795917846262454986572265625">
        <ele>637.20001220703125</ele>
        <time>2022-05-02T10:15:46.000Z</time>
      </trkpt>
      <trkpt lat="41.23551403172314167022705078125" lon="-1.557852141559123992919921875">
        <ele>637</ele>
        <time>2022-05-02T10:15:48.000Z</time>
      </trkpt>
      <trkpt lat="41.23550464399158954620361328125" lon="-1.55780159868299961090087890625">
        <ele>636.79998779296875</ele>
        <time>2022-05-02T10:15:49.000Z</time>
      </trkpt>
      <trkpt lat="41.235495842993259429931640625" lon="-1.55775147490203380584716796875">
        <ele>637</ele>
        <time>2022-05-02T10:15:50.000Z</time>
      </trkpt>
      <trkpt lat="41.23548553325235843658447265625" lon="-1.55765072442591190338134765625">
        <ele>637</ele>
        <time>2022-05-02T10:15:52.000Z</time>
      </trkpt>
      <trkpt lat="41.23547748662531375885009765625" lon="-1.5575445257127285003662109375">
        <ele>637</ele>
        <time>2022-05-02T10:15:54.000Z</time>
      </trkpt>
      <trkpt lat="41.2354685179889202117919921875" lon="-1.5574345551431179046630859375">
        <ele>637</ele>
        <time>2022-05-02T10:15:56.000Z</time>
      </trkpt>
      <trkpt lat="41.2354631535708904266357421875" lon="-1.5573262609541416168212890625">
        <ele>637</ele>
        <time>2022-05-02T10:15:58.000Z</time>
      </trkpt>
      <trkpt lat="41.2354611419141292572021484375" lon="-1.55727404169738292694091796875">
        <ele>637</ele>
        <time>2022-05-02T10:15:59.000Z</time>
      </trkpt>
      <trkpt lat="41.2354604713618755340576171875" lon="-1.55722148716449737548828125">
        <ele>637</ele>
        <time>2022-05-02T10:16:00.000Z</time>
      </trkpt>
      <trkpt lat="41.2354624830186367034912109375" lon="-1.55711411498486995697021484375">
        <ele>636.5999755859375</ele>
        <time>2022-05-02T10:16:02.000Z</time>
      </trkpt>
      <trkpt lat="41.23547212220728397369384765625" lon="-1.55700162984430789947509765625">
        <ele>636.20001220703125</ele>
        <time>2022-05-02T10:16:04.000Z</time>
      </trkpt>
      <trkpt lat="41.2354812584817409515380859375" lon="-1.556882523000240325927734375">
        <ele>635.79998779296875</ele>
        <time>2022-05-02T10:16:06.000Z</time>
      </trkpt>
      <trkpt lat="41.23548704199492931365966796875" lon="-1.556759141385555267333984375">
        <ele>635.20001220703125</ele>
        <time>2022-05-02T10:16:08.000Z</time>
      </trkpt>
      <trkpt lat="41.235490143299102783203125" lon="-1.55664020217955112457275390625">
        <ele>634.79998779296875</ele>
        <time>2022-05-02T10:16:10.000Z</time>
      </trkpt>
      <trkpt lat="41.23549073003232479095458984375" lon="-1.55652134679257869720458984375">
        <ele>634.4000244140625</ele>
        <time>2022-05-02T10:16:12.000Z</time>
      </trkpt>
      <trkpt lat="41.23548410832881927490234375" lon="-1.55641254968941211700439453125">
        <ele>634</ele>
        <time>2022-05-02T10:16:14.000Z</time>
      </trkpt>
      <trkpt lat="41.23548285104334354400634765625" lon="-1.55635840259492397308349609375">
        <ele>634</ele>
        <time>2022-05-02T10:16:15.000Z</time>
      </trkpt>
      <trkpt lat="41.23548276722431182861328125" lon="-1.5563003160059452056884765625">
        <ele>634</ele>
        <time>2022-05-02T10:16:16.000Z</time>
      </trkpt>
      <trkpt lat="41.23548134230077266693115234375" lon="-1.5562403015792369842529296875">
        <ele>634</ele>
        <time>2022-05-02T10:16:17.000Z</time>
      </trkpt>
      <trkpt lat="41.235477738082408905029296875" lon="-1.55618171207606792449951171875">
        <ele>634</ele>
        <time>2022-05-02T10:16:18.000Z</time>
      </trkpt>
      <trkpt lat="41.2354742176830768585205078125" lon="-1.55607081949710845947265625">
        <ele>634.20001220703125</ele>
        <time>2022-05-02T10:16:20.000Z</time>
      </trkpt>
      <trkpt lat="41.2354735471308231353759765625" lon="-1.556016840040683746337890625">
        <ele>634.20001220703125</ele>
        <time>2022-05-02T10:16:21.000Z</time>
      </trkpt>
      <trkpt lat="41.23547597788274288177490234375" lon="-1.55596411786973476409912109375">
        <ele>634.20001220703125</ele>
        <time>2022-05-02T10:16:22.000Z</time>
      </trkpt>
      <trkpt lat="41.23548033647239208221435546875" lon="-1.5558590926229953765869140625">
        <ele>634</ele>
        <time>2022-05-02T10:16:24.000Z</time>
      </trkpt>
      <trkpt lat="41.23548679053783416748046875" lon="-1.55575239099562168121337890625">
        <ele>633.5999755859375</ele>
        <time>2022-05-02T10:16:26.000Z</time>
      </trkpt>
      <trkpt lat="41.23549282550811767578125" lon="-1.555642001330852508544921875">
        <ele>633</ele>
        <time>2022-05-02T10:16:28.000Z</time>
      </trkpt>
      <trkpt lat="41.23548821546137332916259765625" lon="-1.55553043819963932037353515625">
        <ele>632.79998779296875</ele>
        <time>2022-05-02T10:16:30.000Z</time>
      </trkpt>
      <trkpt lat="41.235473714768886566162109375" lon="-1.555410660803318023681640625">
        <ele>632.79998779296875</ele>
        <time>2022-05-02T10:16:32.000Z</time>
      </trkpt>
      <trkpt lat="41.23544798232614994049072265625" lon="-1.555289290845394134521484375">
        <ele>633.20001220703125</ele>
        <time>2022-05-02T10:16:34.000Z</time>
      </trkpt>
      <trkpt lat="41.23540506698191165924072265625" lon="-1.55518091283738613128662109375">
        <ele>634.4000244140625</ele>
        <time>2022-05-02T10:16:36.000Z</time>
      </trkpt>
      <trkpt lat="41.23538360930979251861572265625" lon="-1.55512827448546886444091796875">
        <ele>635</ele>
        <time>2022-05-02T10:16:37.000Z</time>
      </trkpt>
      <trkpt lat="41.23536164872348308563232421875" lon="-1.55507571995258331298828125">
        <ele>635.5999755859375</ele>
        <time>2022-05-02T10:16:38.000Z</time>
      </trkpt>
      <trkpt lat="41.235318481922149658203125" lon="-1.55497237108647823333740234375">
        <ele>636.79998779296875</ele>
        <time>2022-05-02T10:16:40.000Z</time>
      </trkpt>
      <trkpt lat="41.23527950607240200042724609375" lon="-1.55487866140902042388916015625">
        <ele>637.4000244140625</ele>
        <time>2022-05-02T10:16:42.000Z</time>
      </trkpt>
      <trkpt lat="41.23524145223200321197509765625" lon="-1.554785706102848052978515625">
        <ele>637.4000244140625</ele>
        <time>2022-05-02T10:16:44.000Z</time>
      </trkpt>
      <trkpt lat="41.23520323075354099273681640625" lon="-1.5546936728060245513916015625">
        <ele>637.5999755859375</ele>
        <time>2022-05-02T10:16:46.000Z</time>
      </trkpt>
      <trkpt lat="41.23516559600830078125" lon="-1.5546138770878314971923828125">
        <ele>638</ele>
        <time>2022-05-02T10:16:48.000Z</time>
      </trkpt>
      <trkpt lat="41.2351422943174839019775390625" lon="-1.554579846560955047607421875">
        <ele>638.4000244140625</ele>
        <time>2022-05-02T10:16:49.000Z</time>
      </trkpt>
      <trkpt lat="41.23511932790279388427734375" lon="-1.55454623512923717498779296875">
        <ele>638.5999755859375</ele>
        <time>2022-05-02T10:16:50.000Z</time>
      </trkpt>
      <trkpt lat="41.23505839146673679351806640625" lon="-1.554466523230075836181640625">
        <ele>638.20001220703125</ele>
        <time>2022-05-02T10:16:52.000Z</time>
      </trkpt>
      <trkpt lat="41.2349904142320156097412109375" lon="-1.5543691255152225494384765625">
        <ele>638</ele>
        <time>2022-05-02T10:16:54.000Z</time>
      </trkpt>
      <trkpt lat="41.2349523603916168212890625" lon="-1.55431238003075122833251953125">
        <ele>637.79998779296875</ele>
        <time>2022-05-02T10:16:55.000Z</time>
      </trkpt>
      <trkpt lat="41.2349233590066432952880859375" lon="-1.554249264299869537353515625">
        <ele>637.20001220703125</ele>
        <time>2022-05-02T10:16:56.000Z</time>
      </trkpt>
      <trkpt lat="41.234860159456729888916015625" lon="-1.55411238782107830047607421875">
        <ele>636.4000244140625</ele>
        <time>2022-05-02T10:16:58.000Z</time>
      </trkpt>
      <trkpt lat="41.234787069261074066162109375" lon="-1.5539714880287647247314453125">
        <ele>635.79998779296875</ele>
        <time>2022-05-02T10:17:00.000Z</time>
      </trkpt>
      <trkpt lat="41.23470836319029331207275390625" lon="-1.55385388992726802825927734375">
        <ele>635.5999755859375</ele>
        <time>2022-05-02T10:17:02.000Z</time>
      </trkpt>
      <trkpt lat="41.23463250696659088134765625" lon="-1.55373620800673961639404296875">
        <ele>635.4000244140625</ele>
        <time>2022-05-02T10:17:04.000Z</time>
      </trkpt>
      <trkpt lat="41.23459788970649242401123046875" lon="-1.55367384664714336395263671875">
        <ele>635.20001220703125</ele>
        <time>2022-05-02T10:17:05.000Z</time>
      </trkpt>
      <trkpt lat="41.23456469736993312835693359375" lon="-1.553614251315593719482421875">
        <ele>635.20001220703125</ele>
        <time>2022-05-02T10:17:06.000Z</time>
      </trkpt>
      <trkpt lat="41.23453737236559391021728515625" lon="-1.55355197377502918243408203125">
        <ele>635.5999755859375</ele>
        <time>2022-05-02T10:17:07.000Z</time>
      </trkpt>
      <trkpt lat="41.2345143221318721771240234375" lon="-1.55349195934832096099853515625">
        <ele>636</ele>
        <time>2022-05-02T10:17:08.000Z</time>
      </trkpt>
      <trkpt lat="41.23449747450649738311767578125" lon="-1.55335835181176662445068359375">
        <ele>635.5999755859375</ele>
        <time>2022-05-02T10:17:10.000Z</time>
      </trkpt>
      <trkpt lat="41.2345062755048274993896484375" lon="-1.5532151050865650177001953125">
        <ele>635.5999755859375</ele>
        <time>2022-05-02T10:17:12.000Z</time>
      </trkpt>
      <trkpt lat="41.2345205247402191162109375" lon="-1.55304872430860996246337890625">
        <ele>634.79998779296875</ele>
        <time>2022-05-02T10:17:14.000Z</time>
      </trkpt>
      <trkpt lat="41.234523542225360870361328125" lon="-1.552863232791423797607421875">
        <ele>633.4000244140625</ele>
        <time>2022-05-02T10:17:16.000Z</time>
      </trkpt>
      <trkpt lat="41.23451340012252330780029296875" lon="-1.55268059112131595611572265625">
        <ele>632.5999755859375</ele>
        <time>2022-05-02T10:17:18.000Z</time>
      </trkpt>
      <trkpt lat="41.23450283892452716827392578125" lon="-1.55259811319410800933837890625">
        <ele>632.20001220703125</ele>
        <time>2022-05-02T10:17:19.000Z</time>
      </trkpt>
      <trkpt lat="41.2344910204410552978515625" lon="-1.5525227598845958709716796875">
        <ele>631.5999755859375</ele>
        <time>2022-05-02T10:17:20.000Z</time>
      </trkpt>
      <trkpt lat="41.23445908538997173309326171875" lon="-1.552387140691280364990234375">
        <ele>631.5999755859375</ele>
        <time>2022-05-02T10:17:22.000Z</time>
      </trkpt>
      <trkpt lat="41.234420947730541229248046875" lon="-1.5522654354572296142578125">
        <ele>632.4000244140625</ele>
        <time>2022-05-02T10:17:24.000Z</time>
      </trkpt>
      <trkpt lat="41.23440326191484928131103515625" lon="-1.55221355147659778594970703125">
        <ele>632.79998779296875</ele>
        <time>2022-05-02T10:17:25.000Z</time>
      </trkpt>
      <trkpt lat="41.23438381589949131011962890625" lon="-1.55216761864721775054931640625">
        <ele>633.20001220703125</ele>
        <time>2022-05-02T10:17:26.000Z</time>
      </trkpt>
      <trkpt lat="41.234344504773616790771484375" lon="-1.55206971801817417144775390625">
        <ele>634</ele>
        <time>2022-05-02T10:17:28.000Z</time>
      </trkpt>
      <trkpt lat="41.23430930078029632568359375" lon="-1.5519678778946399688720703125">
        <ele>634.5999755859375</ele>
        <time>2022-05-02T10:17:30.000Z</time>
      </trkpt>
      <trkpt lat="41.23429647646844387054443359375" lon="-1.551919765770435333251953125">
        <ele>634.79998779296875</ele>
        <time>2022-05-02T10:17:31.000Z</time>
      </trkpt>
      <trkpt lat="41.234285496175289154052734375" lon="-1.55186670832335948944091796875">
        <ele>635</ele>
        <time>2022-05-02T10:17:32.000Z</time>
      </trkpt>
      <trkpt lat="41.23425641097128391265869140625" lon="-1.551763527095317840576171875">
        <ele>635.20001220703125</ele>
        <time>2022-05-02T10:17:34.000Z</time>
      </trkpt>
      <trkpt lat="41.2342155911028385162353515625" lon="-1.55166931450366973876953125">
        <ele>635</ele>
        <time>2022-05-02T10:17:36.000Z</time>
      </trkpt>
      <trkpt lat="41.2341927923262119293212890625" lon="-1.551622040569782257080078125">
        <ele>634.79998779296875</ele>
        <time>2022-05-02T10:17:37.000Z</time>
      </trkpt>
      <trkpt lat="41.2341706641018390655517578125" lon="-1.5515752695500850677490234375">
        <ele>634.79998779296875</ele>
        <time>2022-05-02T10:17:38.000Z</time>
      </trkpt>
      <trkpt lat="41.23412800021469593048095703125" lon="-1.5514884330332279205322265625">
        <ele>635</ele>
        <time>2022-05-02T10:17:40.000Z</time>
      </trkpt>
      <trkpt lat="41.2340838275849819183349609375" lon="-1.551396064460277557373046875">
        <ele>635</ele>
        <time>2022-05-02T10:17:42.000Z</time>
      </trkpt>
      <trkpt lat="41.23404107987880706787109375" lon="-1.55129908584058284759521484375">
        <ele>634.79998779296875</ele>
        <time>2022-05-02T10:17:44.000Z</time>
      </trkpt>
      <trkpt lat="41.23401970602571964263916015625" lon="-1.551246531307697296142578125">
        <ele>634.5999755859375</ele>
        <time>2022-05-02T10:17:45.000Z</time>
      </trkpt>
      <trkpt lat="41.23399741016328334808349609375" lon="-1.5511954016983509063720703125">
        <ele>634.5999755859375</ele>
        <time>2022-05-02T10:17:46.000Z</time>
      </trkpt>
      <trkpt lat="41.233947537839412689208984375" lon="-1.551094986498355865478515625">
        <ele>634.4000244140625</ele>
        <time>2022-05-02T10:17:48.000Z</time>
      </trkpt>
      <trkpt lat="41.2338819913566112518310546875" lon="-1.5510113351047039031982421875">
        <ele>634.5999755859375</ele>
        <time>2022-05-02T10:17:50.000Z</time>
      </trkpt>
      <trkpt lat="41.2338819913566112518310546875" lon="-1.5510113351047039031982421875">
        <ele>634.5999755859375</ele>
        <time>2022-05-02T10:17:51.000Z</time>
      </trkpt>
      <trkpt lat="41.23380781151354312896728515625" lon="-1.55095048248767852783203125">
        <ele>635</ele>
        <time>2022-05-02T10:17:52.000Z</time>
      </trkpt>
      <trkpt lat="41.2337373197078704833984375" lon="-1.5508661605417728424072265625">
        <ele>635.4000244140625</ele>
        <time>2022-05-02T10:17:54.000Z</time>
      </trkpt>
      <trkpt lat="41.23370169661939144134521484375" lon="-1.5508292801678180694580078125">
        <ele>635.79998779296875</ele>
        <time>2022-05-02T10:17:55.000Z</time>
      </trkpt>
      <trkpt lat="41.23366557061672210693359375" lon="-1.55079885385930538177490234375">
        <ele>636.20001220703125</ele>
        <time>2022-05-02T10:17:56.000Z</time>
      </trkpt>
      <trkpt lat="41.2336032092571258544921875" lon="-1.55073598958551883697509765625">
        <ele>636.79998779296875</ele>
        <time>2022-05-02T10:17:58.000Z</time>
      </trkpt>
      <trkpt lat="41.23354042880237102508544921875" lon="-1.550671868026256561279296875">
        <ele>637</ele>
        <time>2022-05-02T10:18:00.000Z</time>
      </trkpt>
      <trkpt lat="41.23347454704344272613525390625" lon="-1.55060238204896450042724609375">
        <ele>636.79998779296875</ele>
        <time>2022-05-02T10:18:02.000Z</time>
      </trkpt>
      <trkpt lat="41.23340271413326263427734375" lon="-1.55052744783461093902587890625">
        <ele>636.5999755859375</ele>
        <time>2022-05-02T10:18:04.000Z</time>
      </trkpt>
      <trkpt lat="41.2333338148891925811767578125" lon="-1.55045703984797000885009765625">
        <ele>636.5999755859375</ele>
        <time>2022-05-02T10:18:06.000Z</time>
      </trkpt>
      <trkpt lat="41.2332880496978759765625" lon="-1.5503877215087413787841796875">
        <ele>636.20001220703125</ele>
        <time>2022-05-02T10:18:08.000Z</time>
      </trkpt>
      <trkpt lat="41.2332664243876934051513671875" lon="-1.550303064286708831787109375">
        <ele>636</ele>
        <time>2022-05-02T10:18:10.000Z</time>
      </trkpt>
      <trkpt lat="41.23324655927717685699462890625" lon="-1.55018563382327556610107421875">
        <ele>635.20001220703125</ele>
        <time>2022-05-02T10:18:12.000Z</time>
      </trkpt>
      <trkpt lat="41.23322761617600917816162109375" lon="-1.55014020390808582305908203125">
        <ele>634.79998779296875</ele>
        <time>2022-05-02T10:18:13.000Z</time>
      </trkpt>
      <trkpt lat="41.233199201524257659912109375" lon="-1.55010868795216083526611328125">
        <ele>634.4000244140625</ele>
        <time>2022-05-02T10:18:14.000Z</time>
      </trkpt>
      <trkpt lat="41.2331675179302692413330078125" lon="-1.55007985420525074005126953125">
        <ele>634.20001220703125</ele>
        <time>2022-05-02T10:18:15.000Z</time>
      </trkpt>
      <trkpt lat="41.233135163784027099609375" lon="-1.55004833824932575225830078125">
        <ele>634.20001220703125</ele>
        <time>2022-05-02T10:18:16.000Z</time>
      </trkpt>
      <trkpt lat="41.2330706231296062469482421875" lon="-1.54997440986335277557373046875">
        <ele>634</ele>
        <time>2022-05-02T10:18:18.000Z</time>
      </trkpt>
      <trkpt lat="41.233002059161663055419921875" lon="-1.54989578761160373687744140625">
        <ele>634</ele>
        <time>2022-05-02T10:18:20.000Z</time>
      </trkpt>
      <trkpt lat="41.23293173499405384063720703125" lon="-1.5498192608356475830078125">
        <ele>634.4000244140625</ele>
        <time>2022-05-02T10:18:22.000Z</time>
      </trkpt>
      <trkpt lat="41.2328602373600006103515625" lon="-1.5497414767742156982421875">
        <ele>634.4000244140625</ele>
        <time>2022-05-02T10:18:24.000Z</time>
      </trkpt>
      <trkpt lat="41.2327893264591693878173828125" lon="-1.54966645874083042144775390625">
        <ele>635</ele>
        <time>2022-05-02T10:18:26.000Z</time>
      </trkpt>
      <trkpt lat="41.23271916992962360382080078125" lon="-1.5495887584984302520751953125">
        <ele>634.5999755859375</ele>
        <time>2022-05-02T10:18:28.000Z</time>
      </trkpt>
      <trkpt lat="41.232643984258174896240234375" lon="-1.54951927252113819122314453125">
        <ele>634.4000244140625</ele>
        <time>2022-05-02T10:18:30.000Z</time>
      </trkpt>
      <trkpt lat="41.23260433785617351531982421875" lon="-1.54948465526103973388671875">
        <ele>634.4000244140625</ele>
        <time>2022-05-02T10:18:31.000Z</time>
      </trkpt>
      <trkpt lat="41.23256544582545757293701171875" lon="-1.54944844543933868408203125">
        <ele>634.4000244140625</ele>
        <time>2022-05-02T10:18:32.000Z</time>
      </trkpt>
      <trkpt lat="41.2324900925159454345703125" lon="-1.54937879182398319244384765625">
        <ele>634.79998779296875</ele>
        <time>2022-05-02T10:18:34.000Z</time>
      </trkpt>
      <trkpt lat="41.23241457156836986541748046875" lon="-1.54930653981864452362060546875">
        <ele>634.4000244140625</ele>
        <time>2022-05-02T10:18:36.000Z</time>
      </trkpt>
      <trkpt lat="41.23234215192496776580810546875" lon="-1.549231521785259246826171875">
        <ele>634.4000244140625</ele>
        <time>2022-05-02T10:18:38.000Z</time>
      </trkpt>
      <trkpt lat="41.232308037579059600830078125" lon="-1.54919355176389217376708984375">
        <ele>634.4000244140625</ele>
        <time>2022-05-02T10:18:39.000Z</time>
      </trkpt>
      <trkpt lat="41.2322750128805637359619140625" lon="-1.54915851540863513946533203125">
        <ele>634.5999755859375</ele>
        <time>2022-05-02T10:18:40.000Z</time>
      </trkpt>
      <trkpt lat="41.2322066165506839752197265625" lon="-1.54909162782132625579833984375">
        <ele>634.79998779296875</ele>
        <time>2022-05-02T10:18:42.000Z</time>
      </trkpt>
      <trkpt lat="41.232133023440837860107421875" lon="-1.5490201301872730255126953125">
        <ele>635</ele>
        <time>2022-05-02T10:18:44.000Z</time>
      </trkpt>
      <trkpt lat="41.23205616138875484466552734375" lon="-1.54894595034420490264892578125">
        <ele>635.20001220703125</ele>
        <time>2022-05-02T10:18:46.000Z</time>
      </trkpt>
      <trkpt lat="41.23201676644384860992431640625" lon="-1.54890856705605983734130859375">
        <ele>635</ele>
        <time>2022-05-02T10:18:47.000Z</time>
      </trkpt>
      <trkpt lat="41.2319776229560375213623046875" lon="-1.5488712675869464874267578125">
        <ele>635</ele>
        <time>2022-05-02T10:18:48.000Z</time>
      </trkpt>
      <trkpt lat="41.23189774341881275177001953125" lon="-1.54879423789680004119873046875">
        <ele>635</ele>
        <time>2022-05-02T10:18:50.000Z</time>
      </trkpt>
      <trkpt lat="41.2318193726241588592529296875" lon="-1.54871209524571895599365234375">
        <ele>635.4000244140625</ele>
        <time>2022-05-02T10:18:52.000Z</time>
      </trkpt>
      <trkpt lat="41.2317389063537120819091796875" lon="-1.54863833449780941009521484375">
        <ele>635</ele>
        <time>2022-05-02T10:18:54.000Z</time>
      </trkpt>
      <trkpt lat="41.2316594459116458892822265625" lon="-1.5485678426921367645263671875">
        <ele>634.5999755859375</ele>
        <time>2022-05-02T10:18:56.000Z</time>
      </trkpt>
      <trkpt lat="41.231575123965740203857421875" lon="-1.5484970994293689727783203125">
        <ele>634.5999755859375</ele>
        <time>2022-05-02T10:18:58.000Z</time>
      </trkpt>
      <trkpt lat="41.23148166574537754058837890625" lon="-1.54841638170182704925537109375">
        <ele>634.5999755859375</ele>
        <time>2022-05-02T10:19:00.000Z</time>
      </trkpt>
      <trkpt lat="41.2314364872872829437255859375" lon="-1.548372209072113037109375">
        <ele>634.20001220703125</ele>
        <time>2022-05-02T10:19:01.000Z</time>
      </trkpt>
      <trkpt lat="41.23139239847660064697265625" lon="-1.54832686297595500946044921875">
        <ele>634</ele>
        <time>2022-05-02T10:19:02.000Z</time>
      </trkpt>
      <trkpt lat="41.2313070707023143768310546875" lon="-1.5482389368116855621337890625">
        <ele>634</ele>
        <time>2022-05-02T10:19:04.000Z</time>
      </trkpt>
      <trkpt lat="41.23122300021350383758544921875" lon="-1.54815805144608020782470703125">
        <ele>634</ele>
        <time>2022-05-02T10:19:06.000Z</time>
      </trkpt>
      <trkpt lat="41.23113616369664669036865234375" lon="-1.548078842461109161376953125">
        <ele>633.4000244140625</ele>
        <time>2022-05-02T10:19:08.000Z</time>
      </trkpt>
      <trkpt lat="41.23109341599047183990478515625" lon="-1.54804036952555179595947265625">
        <ele>633.20001220703125</ele>
        <time>2022-05-02T10:19:09.000Z</time>
      </trkpt>
      <trkpt lat="41.23105117119848728179931640625" lon="-1.54800147749483585357666015625">
        <ele>633</ele>
        <time>2022-05-02T10:19:10.000Z</time>
      </trkpt>
      <trkpt lat="41.23096433468163013458251953125" lon="-1.54792360961437225341796875">
        <ele>633.5999755859375</ele>
        <time>2022-05-02T10:19:12.000Z</time>
      </trkpt>
      <trkpt lat="41.23087875545024871826171875" lon="-1.5478451550006866455078125">
        <ele>634.20001220703125</ele>
        <time>2022-05-02T10:19:14.000Z</time>
      </trkpt>
      <trkpt lat="41.23080004937946796417236328125" lon="-1.54776133596897125244140625">
        <ele>634.79998779296875</ele>
        <time>2022-05-02T10:19:16.000Z</time>
      </trkpt>
      <trkpt lat="41.23076476156711578369140625" lon="-1.54772378504276275634765625">
        <ele>634.79998779296875</ele>
        <time>2022-05-02T10:19:17.000Z</time>
      </trkpt>
      <trkpt lat="41.2307297252118587493896484375" lon="-1.54768749140202999114990234375">
        <ele>634.79998779296875</ele>
        <time>2022-05-02T10:19:18.000Z</time>
      </trkpt>
      <trkpt lat="41.2306630052626132965087890625" lon="-1.54761976562440395355224609375">
        <ele>635</ele>
        <time>2022-05-02T10:19:20.000Z</time>
      </trkpt>
      <trkpt lat="41.2305964529514312744140625" lon="-1.5475522913038730621337890625">
        <ele>635.4000244140625</ele>
        <time>2022-05-02T10:19:22.000Z</time>
      </trkpt>
      <trkpt lat="41.23052478767931461334228515625" lon="-1.54748615808784961700439453125">
        <ele>635.5999755859375</ele>
        <time>2022-05-02T10:19:24.000Z</time>
      </trkpt>
      <trkpt lat="41.23045102693140506744384765625" lon="-1.547417007386684417724609375">
        <ele>635.20001220703125</ele>
        <time>2022-05-02T10:19:26.000Z</time>
      </trkpt>
      <trkpt lat="41.23041364364326000213623046875" lon="-1.54737987555563449859619140625">
        <ele>634.79998779296875</ele>
        <time>2022-05-02T10:19:27.000Z</time>
      </trkpt>
      <trkpt lat="41.230376847088336944580078125" lon="-1.5473383851349353790283203125">
        <ele>634.4000244140625</ele>
        <time>2022-05-02T10:19:28.000Z</time>
      </trkpt>
      <trkpt lat="41.23033569194376468658447265625" lon="-1.547301001846790313720703125">
        <ele>634.20001220703125</ele>
        <time>2022-05-02T10:19:29.000Z</time>
      </trkpt>
      <trkpt lat="41.23029244132339954376220703125" lon="-1.547266803681850433349609375">
        <ele>634.20001220703125</ele>
        <time>2022-05-02T10:19:30.000Z</time>
      </trkpt>
      <trkpt lat="41.23020577244460582733154296875" lon="-1.54719849117100238800048828125">
        <ele>633.79998779296875</ele>
        <time>2022-05-02T10:19:32.000Z</time>
      </trkpt>
      <trkpt lat="41.2301279045641422271728515625" lon="-1.5471459366381168365478515625">
        <ele>633.5999755859375</ele>
        <time>2022-05-02T10:19:34.000Z</time>
      </trkpt>
      <trkpt lat="41.23009161092340946197509765625" lon="-1.5471155941486358642578125">
        <ele>633.5999755859375</ele>
        <time>2022-05-02T10:19:35.000Z</time>
      </trkpt>
      <trkpt lat="41.23005640693008899688720703125" lon="-1.5470834076404571533203125">
        <ele>633.5999755859375</ele>
        <time>2022-05-02T10:19:36.000Z</time>
      </trkpt>
      <trkpt lat="41.22998951934278011322021484375" lon="-1.54702699743211269378662109375">
        <ele>633.79998779296875</ele>
        <time>2022-05-02T10:19:38.000Z</time>
      </trkpt>
      <trkpt lat="41.22993553988635540008544921875" lon="-1.54697268269956111907958984375">
        <ele>634</ele>
        <time>2022-05-02T10:19:40.000Z</time>
      </trkpt>
      <trkpt lat="41.22991223819553852081298828125" lon="-1.546945273876190185546875">
        <ele>634</ele>
        <time>2022-05-02T10:19:41.000Z</time>
      </trkpt>
      <trkpt lat="41.22988994233310222625732421875" lon="-1.54691451229155063629150390625">
        <ele>633.79998779296875</ele>
        <time>2022-05-02T10:19:42.000Z</time>
      </trkpt>
      <trkpt lat="41.22984048910439014434814453125" lon="-1.54684410430490970611572265625">
        <ele>633.5999755859375</ele>
        <time>2022-05-02T10:19:44.000Z</time>
      </trkpt>
      <trkpt lat="41.22977846302092075347900390625" lon="-1.54677093029022216796875">
        <ele>633.4000244140625</ele>
        <time>2022-05-02T10:19:46.000Z</time>
      </trkpt>
      <trkpt lat="41.22971358709037303924560546875" lon="-1.54668769799172878265380859375">
        <ele>633</ele>
        <time>2022-05-02T10:19:48.000Z</time>
      </trkpt>
      <trkpt lat="41.22964351437985897064208984375" lon="-1.54660153202712535858154296875">
        <ele>633.20001220703125</ele>
        <time>2022-05-02T10:19:50.000Z</time>
      </trkpt>
      <trkpt lat="41.2295693345367908477783203125" lon="-1.54651620425283908843994140625">
        <ele>633.5999755859375</ele>
        <time>2022-05-02T10:19:52.000Z</time>
      </trkpt>
      <trkpt lat="41.22949314303696155548095703125" lon="-1.5464264340698719024658203125">
        <ele>633.4000244140625</ele>
        <time>2022-05-02T10:19:54.000Z</time>
      </trkpt>
      <trkpt lat="41.22945559211075305938720703125" lon="-1.5463798306882381439208984375">
        <ele>633.4000244140625</ele>
        <time>2022-05-02T10:19:55.000Z</time>
      </trkpt>
      <trkpt lat="41.2294167838990688323974609375" lon="-1.5463335625827312469482421875">
        <ele>633.20001220703125</ele>
        <time>2022-05-02T10:19:56.000Z</time>
      </trkpt>
      <trkpt lat="41.22933824546635150909423828125" lon="-1.54624563641846179962158203125">
        <ele>633.20001220703125</ele>
        <time>2022-05-02T10:19:58.000Z</time>
      </trkpt>
      <trkpt lat="41.2292598746716976165771484375" lon="-1.54616097919642925262451171875">
        <ele>633.4000244140625</ele>
        <time>2022-05-02T10:20:00.000Z</time>
      </trkpt>
      <trkpt lat="41.229179240763187408447265625" lon="-1.54607933945953845977783203125">
        <ele>633.5999755859375</ele>
        <time>2022-05-02T10:20:02.000Z</time>
      </trkpt>
      <trkpt lat="41.22909818775951862335205078125" lon="-1.546002142131328582763671875">
        <ele>634</ele>
        <time>2022-05-02T10:20:04.000Z</time>
      </trkpt>
      <trkpt lat="41.2290181405842304229736328125" lon="-1.54593014158308506011962890625">
        <ele>634.5999755859375</ele>
        <time>2022-05-02T10:20:06.000Z</time>
      </trkpt>
      <trkpt lat="41.228939183056354522705078125" lon="-1.545859314501285552978515625">
        <ele>634.5999755859375</ele>
        <time>2022-05-02T10:20:08.000Z</time>
      </trkpt>
      <trkpt lat="41.22886450029909610748291015625" lon="-1.54578186571598052978515625">
        <ele>634.79998779296875</ele>
        <time>2022-05-02T10:20:10.000Z</time>
      </trkpt>
      <trkpt lat="41.22878889553248882293701171875" lon="-1.5457059256732463836669921875">
        <ele>634.4000244140625</ele>
        <time>2022-05-02T10:20:12.000Z</time>
      </trkpt>
      <trkpt lat="41.2287163920700550079345703125" lon="-1.54562654905021190643310546875">
        <ele>634.4000244140625</ele>
        <time>2022-05-02T10:20:14.000Z</time>
      </trkpt>
      <trkpt lat="41.22864958830177783966064453125" lon="-1.54554172419011592864990234375">
        <ele>634.5999755859375</ele>
        <time>2022-05-02T10:20:16.000Z</time>
      </trkpt>
      <trkpt lat="41.22859091497957706451416015625" lon="-1.54545254074037075042724609375">
        <ele>634.79998779296875</ele>
        <time>2022-05-02T10:20:18.000Z</time>
      </trkpt>
      <trkpt lat="41.2285668589174747467041015625" lon="-1.54540543444454669952392578125">
        <ele>634.79998779296875</ele>
        <time>2022-05-02T10:20:19.000Z</time>
      </trkpt>
      <trkpt lat="41.228543221950531005859375" lon="-1.54535849578678607940673828125">
        <ele>635</ele>
        <time>2022-05-02T10:20:20.000Z</time>
      </trkpt>
      <trkpt lat="41.22849586419761180877685546875" lon="-1.54526478610932826995849609375">
        <ele>635.20001220703125</ele>
        <time>2022-05-02T10:20:22.000Z</time>
      </trkpt>
      <trkpt lat="41.22844993136823177337646484375" lon="-1.54516655020415782928466796875">
        <ele>635.4000244140625</ele>
        <time>2022-05-02T10:20:24.000Z</time>
      </trkpt>
      <trkpt lat="41.22840575873851776123046875" lon="-1.54506663791835308074951171875">
        <ele>635.20001220703125</ele>
        <time>2022-05-02T10:20:26.000Z</time>
      </trkpt>
      <trkpt lat="41.228360496461391448974609375" lon="-1.5449673123657703399658203125">
        <ele>634.79998779296875</ele>
        <time>2022-05-02T10:20:28.000Z</time>
      </trkpt>
      <trkpt lat="41.22833912260830402374267578125" lon="-1.544915847480297088623046875">
        <ele>634.79998779296875</ele>
        <time>2022-05-02T10:20:29.000Z</time>
      </trkpt>
      <trkpt lat="41.22831950895488262176513671875" lon="-1.5448630414903163909912109375">
        <ele>634.79998779296875</ele>
        <time>2022-05-02T10:20:30.000Z</time>
      </trkpt>
      <trkpt lat="41.22829067520797252655029296875" lon="-1.54475516639649868011474609375">
        <ele>634.79998779296875</ele>
        <time>2022-05-02T10:20:32.000Z</time>
      </trkpt>
      <trkpt lat="41.22826720587909221649169921875" lon="-1.54464653693139553070068359375">
        <ele>634.5999755859375</ele>
        <time>2022-05-02T10:20:34.000Z</time>
      </trkpt>
      <trkpt lat="41.22824608348309993743896484375" lon="-1.54453824274241924285888671875">
        <ele>634.20001220703125</ele>
        <time>2022-05-02T10:20:36.000Z</time>
      </trkpt>
      <trkpt lat="41.22822965495288372039794921875" lon="-1.54443715699017047882080078125">
        <ele>634</ele>
        <time>2022-05-02T10:20:38.000Z</time>
      </trkpt>
      <trkpt lat="41.22821523807942867279052734375" lon="-1.54435602016746997833251953125">
        <ele>634</ele>
        <time>2022-05-02T10:20:40.000Z</time>
      </trkpt>
      <trkpt lat="41.22821087948977947235107421875" lon="-1.5443242527544498443603515625">
        <ele>634</ele>
        <time>2022-05-02T10:20:41.000Z</time>
      </trkpt>
      <trkpt lat="41.22820702381432056427001953125" lon="-1.54429751448333263397216796875">
        <ele>634</ele>
        <time>2022-05-02T10:20:42.000Z</time>
      </trkpt>
      <trkpt lat="41.22819545678794384002685546875" lon="-1.54425761662423610687255859375">
        <ele>634</ele>
        <time>2022-05-02T10:20:44.000Z</time>
      </trkpt>
      <trkpt lat="41.228180117905139923095703125" lon="-1.54424898326396942138671875">
        <ele>634</ele>
        <time>2022-05-02T10:20:45.000Z</time>
      </trkpt>
      <trkpt lat="41.2281594984233379364013671875" lon="-1.544251330196857452392578125">
        <ele>634</ele>
        <time>2022-05-02T10:20:46.000Z</time>
      </trkpt>
      <trkpt lat="41.2281073629856109619140625" lon="-1.54427823610603809356689453125">
        <ele>634</ele>
        <time>2022-05-02T10:20:48.000Z</time>
      </trkpt>
      <trkpt lat="41.2280805408954620361328125" lon="-1.5442897193133831024169921875">
        <ele>634</ele>
        <time>2022-05-02T10:20:49.000Z</time>
      </trkpt>
      <trkpt lat="41.22805782593786716461181640625" lon="-1.5442910604178905487060546875">
        <ele>634</ele>
        <time>2022-05-02T10:20:50.000Z</time>
      </trkpt>
      <trkpt lat="41.2280086241662502288818359375" lon="-1.54427622444927692413330078125">
        <ele>634</ele>
        <time>2022-05-02T10:20:52.000Z</time>
      </trkpt>
      <trkpt lat="41.2279737554490566253662109375" lon="-1.54426683671772480010986328125">
        <ele>634</ele>
        <time>2022-05-02T10:20:53.000Z</time>
      </trkpt>
      <trkpt lat="41.227934025228023529052734375" lon="-1.54426264576613903045654296875">
        <ele>634</ele>
        <time>2022-05-02T10:20:54.000Z</time>
      </trkpt>
      <trkpt lat="41.227857582271099090576171875" lon="-1.54427119530737400054931640625">
        <ele>634.20001220703125</ele>
        <time>2022-05-02T10:20:56.000Z</time>
      </trkpt>
      <trkpt lat="41.22782313264906406402587890625" lon="-1.54428108595311641693115234375">
        <ele>634.20001220703125</ele>
        <time>2022-05-02T10:20:57.000Z</time>
      </trkpt>
      <trkpt lat="41.227787174284458160400390625" lon="-1.54429030604660511016845703125">
        <ele>634.20001220703125</ele>
        <time>2022-05-02T10:20:58.000Z</time>
      </trkpt>
      <trkpt lat="41.22771215625107288360595703125" lon="-1.54430841095745563507080078125">
        <ele>634.4000244140625</ele>
        <time>2022-05-02T10:21:00.000Z</time>
      </trkpt>
      <trkpt lat="41.22763319872319698333740234375" lon="-1.54432542622089385986328125">
        <ele>634.4000244140625</ele>
        <time>2022-05-02T10:21:02.000Z</time>
      </trkpt>
      <trkpt lat="41.22755306772887706756591796875" lon="-1.54433481395244598388671875">
        <ele>634.4000244140625</ele>
        <time>2022-05-02T10:21:04.000Z</time>
      </trkpt>
      <trkpt lat="41.2275114096701145172119140625" lon="-1.54433405958116054534912109375">
        <ele>634.4000244140625</ele>
        <time>2022-05-02T10:21:05.000Z</time>
      </trkpt>
      <trkpt lat="41.227470003068447113037109375" lon="-1.54433372430503368377685546875">
        <ele>634.4000244140625</ele>
        <time>2022-05-02T10:21:06.000Z</time>
      </trkpt>
      <trkpt lat="41.227384172379970550537109375" lon="-1.54432534240186214447021484375">
        <ele>634.4000244140625</ele>
        <time>2022-05-02T10:21:08.000Z</time>
      </trkpt>
      <trkpt lat="41.22729532420635223388671875" lon="-1.544306986033916473388671875">
        <ele>634.5999755859375</ele>
        <time>2022-05-02T10:21:10.000Z</time>
      </trkpt>
      <trkpt lat="41.22725115157663822174072265625" lon="-1.5442944131791591644287109375">
        <ele>634.5999755859375</ele>
        <time>2022-05-02T10:21:11.000Z</time>
      </trkpt>
      <trkpt lat="41.22720639221370220184326171875" lon="-1.5442804992198944091796875">
        <ele>634.5999755859375</ele>
        <time>2022-05-02T10:21:12.000Z</time>
      </trkpt>
      <trkpt lat="41.2271177954971790313720703125" lon="-1.54424387030303478240966796875">
        <ele>635</ele>
        <time>2022-05-02T10:21:14.000Z</time>
      </trkpt>
      <trkpt lat="41.22702869586646556854248046875" lon="-1.5441931597888469696044921875">
        <ele>635</ele>
        <time>2022-05-02T10:21:16.000Z</time>
      </trkpt>
      <trkpt lat="41.22698326595127582550048828125" lon="-1.544166840612888336181640625">
        <ele>635</ele>
        <time>2022-05-02T10:21:17.000Z</time>
      </trkpt>
      <trkpt lat="41.22693850658833980560302734375" lon="-1.544139347970485687255859375">
        <ele>635</ele>
        <time>2022-05-02T10:21:18.000Z</time>
      </trkpt>
      <trkpt lat="41.22685234062373638153076171875" lon="-1.5440748073160648345947265625">
        <ele>635.4000244140625</ele>
        <time>2022-05-02T10:21:20.000Z</time>
      </trkpt>
      <trkpt lat="41.22676852159202098846435546875" lon="-1.54400599189102649688720703125">
        <ele>636.4000244140625</ele>
        <time>2022-05-02T10:21:22.000Z</time>
      </trkpt>
      <trkpt lat="41.22668822295963764190673828125" lon="-1.54392971657216548919677734375">
        <ele>636.5999755859375</ele>
        <time>2022-05-02T10:21:24.000Z</time>
      </trkpt>
      <trkpt lat="41.22661446221172809600830078125" lon="-1.5438495017588138580322265625">
        <ele>637</ele>
        <time>2022-05-02T10:21:26.000Z</time>
      </trkpt>
      <trkpt lat="41.22654832899570465087890625" lon="-1.5437655150890350341796875">
        <ele>637</ele>
        <time>2022-05-02T10:21:28.000Z</time>
      </trkpt>
      <trkpt lat="41.22648906894028186798095703125" lon="-1.543667614459991455078125">
        <ele>636.79998779296875</ele>
        <time>2022-05-02T10:21:30.000Z</time>
      </trkpt>
      <trkpt lat="41.22643592767417430877685546875" lon="-1.54356594197452068328857421875">
        <ele>636.4000244140625</ele>
        <time>2022-05-02T10:21:32.000Z</time>
      </trkpt>
      <trkpt lat="41.22638010419905185699462890625" lon="-1.5434652753174304962158203125">
        <ele>636</ele>
        <time>2022-05-02T10:21:34.000Z</time>
      </trkpt>
      <trkpt lat="41.22632679529488086700439453125" lon="-1.54336175881326198577880859375">
        <ele>635.20001220703125</ele>
        <time>2022-05-02T10:21:36.000Z</time>
      </trkpt>
      <trkpt lat="41.2262727320194244384765625" lon="-1.54326285235583782196044921875">
        <ele>634.4000244140625</ele>
        <time>2022-05-02T10:21:38.000Z</time>
      </trkpt>
      <trkpt lat="41.22621866874396800994873046875" lon="-1.5431647002696990966796875">
        <ele>633.5999755859375</ele>
        <time>2022-05-02T10:21:40.000Z</time>
      </trkpt>
      <trkpt lat="41.226164437830448150634765625" lon="-1.54307861812412738800048828125">
        <ele>633.5999755859375</ele>
        <time>2022-05-02T10:21:42.000Z</time>
      </trkpt>
      <trkpt lat="41.2261146493256092071533203125" lon="-1.54298993758857250213623046875">
        <ele>633.79998779296875</ele>
        <time>2022-05-02T10:21:44.000Z</time>
      </trkpt>
      <trkpt lat="41.226064525544643402099609375" lon="-1.54289849102497100830078125">
        <ele>633.79998779296875</ele>
        <time>2022-05-02T10:21:46.000Z</time>
      </trkpt>
      <trkpt lat="41.2260117195546627044677734375" lon="-1.5428041107952594757080078125">
        <ele>634.20001220703125</ele>
        <time>2022-05-02T10:21:48.000Z</time>
      </trkpt>
      <trkpt lat="41.22598498128354549407958984375" lon="-1.5427568368613719940185546875">
        <ele>634.4000244140625</ele>
        <time>2022-05-02T10:21:49.000Z</time>
      </trkpt>
      <trkpt lat="41.22595824301242828369140625" lon="-1.54270897619426250457763671875">
        <ele>634.79998779296875</ele>
        <time>2022-05-02T10:21:50.000Z</time>
      </trkpt>
      <trkpt lat="41.225908957421779632568359375" lon="-1.5426123328506946563720703125">
        <ele>635.4000244140625</ele>
        <time>2022-05-02T10:21:52.000Z</time>
      </trkpt>
      <trkpt lat="41.22586076147854328155517578125" lon="-1.5425191260874271392822265625">
        <ele>635.5999755859375</ele>
        <time>2022-05-02T10:21:54.000Z</time>
      </trkpt>
      <trkpt lat="41.22581114061176776885986328125" lon="-1.54243036173284053802490234375">
        <ele>636</ele>
        <time>2022-05-02T10:21:56.000Z</time>
      </trkpt>
      <trkpt lat="41.22578716836869716644287109375" lon="-1.54238543473184108734130859375">
        <ele>636.4000244140625</ele>
        <time>2022-05-02T10:21:57.000Z</time>
      </trkpt>
      <trkpt lat="41.22576286084949970245361328125" lon="-1.5423407591879367828369140625">
        <ele>636.5999755859375</ele>
        <time>2022-05-02T10:21:58.000Z</time>
      </trkpt>
      <trkpt lat="41.22571541927754878997802734375" lon="-1.5422462113201618194580078125">
        <ele>637.20001220703125</ele>
        <time>2022-05-02T10:22:00.000Z</time>
      </trkpt>
      <trkpt lat="41.22566998936235904693603515625" lon="-1.54215359129011631011962890625">
        <ele>637.5999755859375</ele>
        <time>2022-05-02T10:22:02.000Z</time>
      </trkpt>
      <trkpt lat="41.22564652003347873687744140625" lon="-1.5421064011752605438232421875">
        <ele>637.79998779296875</ele>
        <time>2022-05-02T10:22:03.000Z</time>
      </trkpt>
      <trkpt lat="41.22562154196202754974365234375" lon="-1.542057953774929046630859375">
        <ele>638.20001220703125</ele>
        <time>2022-05-02T10:22:04.000Z</time>
      </trkpt>
      <trkpt lat="41.2255668081343173980712890625" lon="-1.541957370936870574951171875">
        <ele>638.5999755859375</ele>
        <time>2022-05-02T10:22:06.000Z</time>
      </trkpt>
      <trkpt lat="41.22554074041545391082763671875" lon="-1.541907750070095062255859375">
        <ele>638.5999755859375</ele>
        <time>2022-05-02T10:22:07.000Z</time>
      </trkpt>
      <trkpt lat="41.22551475651562213897705078125" lon="-1.5418599732220172882080078125">
        <ele>638.5999755859375</ele>
        <time>2022-05-02T10:22:08.000Z</time>
      </trkpt>
      <trkpt lat="41.2254608608782291412353515625" lon="-1.54177187941968441009521484375">
        <ele>638.4000244140625</ele>
        <time>2022-05-02T10:22:10.000Z</time>
      </trkpt>
      <trkpt lat="41.22543387115001678466796875" lon="-1.54172234237194061279296875">
        <ele>638.20001220703125</ele>
        <time>2022-05-02T10:22:11.000Z</time>
      </trkpt>
      <trkpt lat="41.22540746815502643585205078125" lon="-1.54167414642870426177978515625">
        <ele>637.79998779296875</ele>
        <time>2022-05-02T10:22:12.000Z</time>
      </trkpt>
      <trkpt lat="41.225381232798099517822265625" lon="-1.541628129780292510986328125">
        <ele>637.20001220703125</ele>
        <time>2022-05-02T10:22:13.000Z</time>
      </trkpt>
      <trkpt lat="41.22535407543182373046875" lon="-1.54158244840800762176513671875">
        <ele>636.79998779296875</ele>
        <time>2022-05-02T10:22:14.000Z</time>
      </trkpt>
      <trkpt lat="41.22529984451830387115478515625" lon="-1.5414864756166934967041015625">
        <ele>636.4000244140625</ele>
        <time>2022-05-02T10:22:16.000Z</time>
      </trkpt>
      <trkpt lat="41.22524745762348175048828125" lon="-1.54138999991118907928466796875">
        <ele>636</ele>
        <time>2022-05-02T10:22:18.000Z</time>
      </trkpt>
      <trkpt lat="41.2251949869096279144287109375" lon="-1.54129981063306331634521484375">
        <ele>635.5999755859375</ele>
        <time>2022-05-02T10:22:20.000Z</time>
      </trkpt>
      <trkpt lat="41.2251433543860912322998046875" lon="-1.5412066876888275146484375">
        <ele>635.4000244140625</ele>
        <time>2022-05-02T10:22:22.000Z</time>
      </trkpt>
      <trkpt lat="41.2251161970198154449462890625" lon="-1.541158743202686309814453125">
        <ele>635.20001220703125</ele>
        <time>2022-05-02T10:22:23.000Z</time>
      </trkpt>
      <trkpt lat="41.22508862055838108062744140625" lon="-1.54111205600202083587646484375">
        <ele>635</ele>
        <time>2022-05-02T10:22:24.000Z</time>
      </trkpt>
      <trkpt lat="41.225033886730670928955078125" lon="-1.5410170890390872955322265625">
        <ele>635</ele>
        <time>2022-05-02T10:22:26.000Z</time>
      </trkpt>
      <trkpt lat="41.224982924759387969970703125" lon="-1.5409171767532825469970703125">
        <ele>635.5999755859375</ele>
        <time>2022-05-02T10:22:28.000Z</time>
      </trkpt>
      <trkpt lat="41.2249297834932804107666015625" lon="-1.5408179350197315216064453125">
        <ele>636</ele>
        <time>2022-05-02T10:22:30.000Z</time>
      </trkpt>
      <trkpt lat="41.224901787936687469482421875" lon="-1.5407703258097171783447265625">
        <ele>636</ele>
        <time>2022-05-02T10:22:31.000Z</time>
      </trkpt>
      <trkpt lat="41.22487739659845829010009765625" lon="-1.5407223813235759735107421875">
        <ele>636.20001220703125</ele>
        <time>2022-05-02T10:22:32.000Z</time>
      </trkpt>
      <trkpt lat="41.22482341714203357696533203125" lon="-1.54062422923743724822998046875">
        <ele>636.4000244140625</ele>
        <time>2022-05-02T10:22:34.000Z</time>
      </trkpt>
      <trkpt lat="41.2247671745717525482177734375" lon="-1.5405275858938694000244140625">
        <ele>636.5999755859375</ele>
        <time>2022-05-02T10:22:36.000Z</time>
      </trkpt>
      <trkpt lat="41.22471428476274013519287109375" lon="-1.5404420904815196990966796875">
        <ele>637</ele>
        <time>2022-05-02T10:22:38.000Z</time>
      </trkpt>
      <trkpt lat="41.2246620655059814453125" lon="-1.54035978019237518310546875">
        <ele>637.5999755859375</ele>
        <time>2022-05-02T10:22:40.000Z</time>
      </trkpt>
      <trkpt lat="41.2246337346732616424560546875" lon="-1.54032222926616668701171875">
        <ele>638</ele>
        <time>2022-05-02T10:22:41.000Z</time>
      </trkpt>
      <trkpt lat="41.2246049009263515472412109375" lon="-1.54028476215898990631103515625">
        <ele>638.4000244140625</ele>
        <time>2022-05-02T10:22:42.000Z</time>
      </trkpt>
      <trkpt lat="41.2245764024555683135986328125" lon="-1.54024251736700534820556640625">
        <ele>638.5999755859375</ele>
        <time>2022-05-02T10:22:43.000Z</time>
      </trkpt>
      <trkpt lat="41.22455142438411712646484375" lon="-1.5401970036327838897705078125">
        <ele>639</ele>
        <time>2022-05-02T10:22:44.000Z</time>
      </trkpt>
      <trkpt lat="41.22450859285891056060791015625" lon="-1.5401068143546581268310546875">
        <ele>639.4000244140625</ele>
        <time>2022-05-02T10:22:46.000Z</time>
      </trkpt>
      <trkpt lat="41.2244862131774425506591796875" lon="-1.54006331227719783782958984375">
        <ele>639.20001220703125</ele>
        <time>2022-05-02T10:22:47.000Z</time>
      </trkpt>
      <trkpt lat="41.224460899829864501953125" lon="-1.540016792714595794677734375">
        <ele>639</ele>
        <time>2022-05-02T10:22:48.000Z</time>
      </trkpt>
      <trkpt lat="41.22440968640148639678955078125" lon="-1.53992115519940853118896484375">
        <ele>638.5999755859375</ele>
        <time>2022-05-02T10:22:50.000Z</time>
      </trkpt>
      <trkpt lat="41.224349252879619598388671875" lon="-1.5398372523486614227294921875">
        <ele>638.4000244140625</ele>
        <time>2022-05-02T10:22:52.000Z</time>
      </trkpt>
      <trkpt lat="41.2242884002625942230224609375" lon="-1.53975385241210460662841796875">
        <ele>638.20001220703125</ele>
        <time>2022-05-02T10:22:54.000Z</time>
      </trkpt>
      <trkpt lat="41.22422595508396625518798828125" lon="-1.5396753139793872833251953125">
        <ele>638.5999755859375</ele>
        <time>2022-05-02T10:22:56.000Z</time>
      </trkpt>
      <trkpt lat="41.2241992168128490447998046875" lon="-1.5396349132061004638671875">
        <ele>638.5999755859375</ele>
        <time>2022-05-02T10:22:57.000Z</time>
      </trkpt>
      <trkpt lat="41.22417465783655643463134765625" lon="-1.53959258459508419036865234375">
        <ele>638.5999755859375</ele>
        <time>2022-05-02T10:22:58.000Z</time>
      </trkpt>
      <trkpt lat="41.22414146549999713897705078125" lon="-1.53955042362213134765625">
        <ele>638.79998779296875</ele>
        <time>2022-05-02T10:22:59.000Z</time>
      </trkpt>
      <trkpt lat="41.22410483658313751220703125" lon="-1.5395093522965908050537109375">
        <ele>639</ele>
        <time>2022-05-02T10:23:00.000Z</time>
      </trkpt>
      <trkpt lat="41.22404188849031925201416015625" lon="-1.53942368924617767333984375">
        <ele>639</ele>
        <time>2022-05-02T10:23:02.000Z</time>
      </trkpt>
      <trkpt lat="41.22397248633205890655517578125" lon="-1.53933777473866939544677734375">
        <ele>639</ele>
        <time>2022-05-02T10:23:04.000Z</time>
      </trkpt>
      <trkpt lat="41.2239043414592742919921875" lon="-1.53924691490828990936279296875">
        <ele>639.4000244140625</ele>
        <time>2022-05-02T10:23:06.000Z</time>
      </trkpt>
      <trkpt lat="41.22384407557547092437744140625" lon="-1.53914834372699260711669921875">
        <ele>639.79998779296875</ele>
        <time>2022-05-02T10:23:08.000Z</time>
      </trkpt>
      <trkpt lat="41.22378858737647533416748046875" lon="-1.53905748389661312103271484375">
        <ele>640</ele>
        <time>2022-05-02T10:23:10.000Z</time>
      </trkpt>
      <trkpt lat="41.2237321771681308746337890625" lon="-1.5389759279787540435791015625">
        <ele>639.79998779296875</ele>
        <time>2022-05-02T10:23:12.000Z</time>
      </trkpt>
      <trkpt lat="41.22370862402021884918212890625" lon="-1.538931168615818023681640625">
        <ele>639.5999755859375</ele>
        <time>2022-05-02T10:23:13.000Z</time>
      </trkpt>
      <trkpt lat="41.22368641197681427001953125" lon="-1.5388870798051357269287109375">
        <ele>639.5999755859375</ele>
        <time>2022-05-02T10:23:14.000Z</time>
      </trkpt>
      <trkpt lat="41.22364140115678310394287109375" lon="-1.53879881836473941802978515625">
        <ele>639</ele>
        <time>2022-05-02T10:23:16.000Z</time>
      </trkpt>
      <trkpt lat="41.223587505519390106201171875" lon="-1.53871332295238971710205078125">
        <ele>639</ele>
        <time>2022-05-02T10:23:18.000Z</time>
      </trkpt>
      <trkpt lat="41.223553977906703948974609375" lon="-1.53867158107459545135498046875">
        <ele>639</ele>
        <time>2022-05-02T10:23:19.000Z</time>
      </trkpt>
      <trkpt lat="41.22351651079952716827392578125" lon="-1.53863503597676753997802734375">
        <ele>639</ele>
        <time>2022-05-02T10:23:20.000Z</time>
      </trkpt>
      <trkpt lat="41.2234364636242389678955078125" lon="-1.53857736848294734954833984375">
        <ele>638.79998779296875</ele>
        <time>2022-05-02T10:23:22.000Z</time>
      </trkpt>
      <trkpt lat="41.2233496271073818206787109375" lon="-1.538534201681613922119140625">
        <ele>638.5999755859375</ele>
        <time>2022-05-02T10:23:24.000Z</time>
      </trkpt>
      <trkpt lat="41.2233057059347629547119140625" lon="-1.538510732352733612060546875">
        <ele>638.79998779296875</ele>
        <time>2022-05-02T10:23:25.000Z</time>
      </trkpt>
      <trkpt lat="41.22326035983860492706298828125" lon="-1.5384896099567413330078125">
        <ele>639</ele>
        <time>2022-05-02T10:23:26.000Z</time>
      </trkpt>
      <trkpt lat="41.2231705896556377410888671875" lon="-1.538448370993137359619140625">
        <ele>639.4000244140625</ele>
        <time>2022-05-02T10:23:28.000Z</time>
      </trkpt>
      <trkpt lat="41.22307931073009967803955078125" lon="-1.5384116582572460174560546875">
        <ele>639.20001220703125</ele>
        <time>2022-05-02T10:23:30.000Z</time>
      </trkpt>
      <trkpt lat="41.22298710979521274566650390625" lon="-1.538379974663257598876953125">
        <ele>639.20001220703125</ele>
        <time>2022-05-02T10:23:32.000Z</time>
      </trkpt>
      <trkpt lat="41.22289641760289669036865234375" lon="-1.53833546675741672515869140625">
        <ele>639.20001220703125</ele>
        <time>2022-05-02T10:23:34.000Z</time>
      </trkpt>
      <trkpt lat="41.22282098047435283660888671875" lon="-1.53827159665524959564208984375">
        <ele>639.4000244140625</ele>
        <time>2022-05-02T10:23:36.000Z</time>
      </trkpt>
      <trkpt lat="41.22278527356684207916259765625" lon="-1.53823605738580226898193359375">
        <ele>639.4000244140625</ele>
        <time>2022-05-02T10:23:37.000Z</time>
      </trkpt>
      <trkpt lat="41.22275291942059993743896484375" lon="-1.538195908069610595703125">
        <ele>639.20001220703125</ele>
        <time>2022-05-02T10:23:38.000Z</time>
      </trkpt>
      <trkpt lat="41.22269290499389171600341796875" lon="-1.53811066411435604095458984375">
        <ele>639.20001220703125</ele>
        <time>2022-05-02T10:23:40.000Z</time>
      </trkpt>
      <trkpt lat="41.222629286348819732666015625" lon="-1.53802718035876750946044921875">
        <ele>639.20001220703125</ele>
        <time>2022-05-02T10:23:42.000Z</time>
      </trkpt>
      <trkpt lat="41.22259852476418018341064453125" lon="-1.53798409737646579742431640625">
        <ele>639</ele>
        <time>2022-05-02T10:23:43.000Z</time>
      </trkpt>
      <trkpt lat="41.22256265021860599517822265625" lon="-1.53794419951736927032470703125">
        <ele>639</ele>
        <time>2022-05-02T10:23:44.000Z</time>
      </trkpt>
      <trkpt lat="41.22248805128037929534912109375" lon="-1.53787471354007720947265625">
        <ele>639.5999755859375</ele>
        <time>2022-05-02T10:23:46.000Z</time>
      </trkpt>
      <trkpt lat="41.222410686314105987548828125" lon="-1.537826769053936004638671875">
        <ele>640</ele>
        <time>2022-05-02T10:23:48.000Z</time>
      </trkpt>
      <trkpt lat="41.2223330698907375335693359375" lon="-1.5377692691981792449951171875">
        <ele>640</ele>
        <time>2022-05-02T10:23:50.000Z</time>
      </trkpt>
      <trkpt lat="41.222249083220958709716796875" lon="-1.5377139486372470855712890625">
        <ele>640</ele>
        <time>2022-05-02T10:23:52.000Z</time>
      </trkpt>
      <trkpt lat="41.22216819785535335540771484375" lon="-1.5376633219420909881591796875">
        <ele>640</ele>
        <time>2022-05-02T10:23:54.000Z</time>
      </trkpt>
      <trkpt lat="41.22208890505135059356689453125" lon="-1.53760942630469799041748046875">
        <ele>640</ele>
        <time>2022-05-02T10:23:56.000Z</time>
      </trkpt>
      <trkpt lat="41.222018413245677947998046875" lon="-1.537549160420894622802734375">
        <ele>640</ele>
        <time>2022-05-02T10:23:58.000Z</time>
      </trkpt>
      <trkpt lat="41.221947334706783294677734375" lon="-1.537490151822566986083984375">
        <ele>640</ele>
        <time>2022-05-02T10:24:00.000Z</time>
      </trkpt>
      <trkpt lat="41.22187265194952487945556640625" lon="-1.53742820955812931060791015625">
        <ele>639.79998779296875</ele>
        <time>2022-05-02T10:24:02.000Z</time>
      </trkpt>
      <trkpt lat="41.22183644212782382965087890625" lon="-1.53739334084093570709228515625">
        <ele>639.4000244140625</ele>
        <time>2022-05-02T10:24:03.000Z</time>
      </trkpt>
      <trkpt lat="41.221801154315471649169921875" lon="-1.53735780157148838043212890625">
        <ele>639.20001220703125</ele>
        <time>2022-05-02T10:24:04.000Z</time>
      </trkpt>
      <trkpt lat="41.2217332608997821807861328125" lon="-1.53728622011840343475341796875">
        <ele>638.79998779296875</ele>
        <time>2022-05-02T10:24:06.000Z</time>
      </trkpt>
      <trkpt lat="41.22170182876288890838623046875" lon="-1.53724799863994121551513671875">
        <ele>638.4000244140625</ele>
        <time>2022-05-02T10:24:07.000Z</time>
      </trkpt>
      <trkpt lat="41.22167207300662994384765625" lon="-1.53720474801957607269287109375">
        <ele>638.20001220703125</ele>
        <time>2022-05-02T10:24:08.000Z</time>
      </trkpt>
      <trkpt lat="41.22161817736923694610595703125" lon="-1.5371243655681610107421875">
        <ele>638</ele>
        <time>2022-05-02T10:24:10.000Z</time>
      </trkpt>
      <trkpt lat="41.22156034223735332489013671875" lon="-1.53703987598419189453125">
        <ele>638</ele>
        <time>2022-05-02T10:24:12.000Z</time>
      </trkpt>
      <trkpt lat="41.22150569222867488861083984375" lon="-1.5369428135454654693603515625">
        <ele>638.4000244140625</ele>
        <time>2022-05-02T10:24:14.000Z</time>
      </trkpt>
      <trkpt lat="41.221476607024669647216796875" lon="-1.53689512051641941070556640625">
        <ele>638.5999755859375</ele>
        <time>2022-05-02T10:24:15.000Z</time>
      </trkpt>
      <trkpt lat="41.2214465998113155364990234375" lon="-1.53684734366834163665771484375">
        <ele>639</ele>
        <time>2022-05-02T10:24:16.000Z</time>
      </trkpt>
      <trkpt lat="41.22139186598360538482666015625" lon="-1.53674894012510776519775390625">
        <ele>639.4000244140625</ele>
        <time>2022-05-02T10:24:18.000Z</time>
      </trkpt>
      <trkpt lat="41.2213409878313541412353515625" lon="-1.53666344471275806427001953125">
        <ele>640</ele>
        <time>2022-05-02T10:24:20.000Z</time>
      </trkpt>
      <trkpt lat="41.22131173498928546905517578125" lon="-1.53662170283496379852294921875">
        <ele>640.20001220703125</ele>
        <time>2022-05-02T10:24:21.000Z</time>
      </trkpt>
      <trkpt lat="41.2212784588336944580078125" lon="-1.53658054769039154052734375">
        <ele>640.4000244140625</ele>
        <time>2022-05-02T10:24:22.000Z</time>
      </trkpt>
      <trkpt lat="41.22121131978929042816162109375" lon="-1.53650016523897647857666015625">
        <ele>640.5999755859375</ele>
        <time>2022-05-02T10:24:24.000Z</time>
      </trkpt>
      <trkpt lat="41.2211478687822818756103515625" lon="-1.536430679261684417724609375">
        <ele>640.4000244140625</ele>
        <time>2022-05-02T10:24:26.000Z</time>
      </trkpt>
      <trkpt lat="41.22108542360365390777587890625" lon="-1.53636806644499301910400390625">
        <ele>640.20001220703125</ele>
        <time>2022-05-02T10:24:28.000Z</time>
      </trkpt>
      <trkpt lat="41.2210251577198505401611328125" lon="-1.53631190769374370574951171875">
        <ele>640.4000244140625</ele>
        <time>2022-05-02T10:24:30.000Z</time>
      </trkpt>
      <trkpt lat="41.22096128761768341064453125" lon="-1.5362558327615261077880859375">
        <ele>640.79998779296875</ele>
        <time>2022-05-02T10:24:32.000Z</time>
      </trkpt>
      <trkpt lat="41.2208890356123447418212890625" lon="-1.5361974947154521942138671875">
        <ele>641</ele>
        <time>2022-05-02T10:24:34.000Z</time>
      </trkpt>
      <trkpt lat="41.22085307724773883819580078125" lon="-1.53616505675017833709716796875">
        <ele>641</ele>
        <time>2022-05-02T10:24:35.000Z</time>
      </trkpt>
      <trkpt lat="41.22081770561635494232177734375" lon="-1.53613102622330188751220703125">
        <ele>641</ele>
        <time>2022-05-02T10:24:36.000Z</time>
      </trkpt>
      <trkpt lat="41.2207475490868091583251953125" lon="-1.5360580198466777801513671875">
        <ele>641.20001220703125</ele>
        <time>2022-05-02T10:24:38.000Z</time>
      </trkpt>
      <trkpt lat="41.2207103334367275238037109375" lon="-1.53602189384400844573974609375">
        <ele>641.5999755859375</ele>
        <time>2022-05-02T10:24:39.000Z</time>
      </trkpt>
      <trkpt lat="41.220671944320201873779296875" lon="-1.53599004261195659637451171875">
        <ele>641.79998779296875</ele>
        <time>2022-05-02T10:24:40.000Z</time>
      </trkpt>
      <trkpt lat="41.2205966748297214508056640625" lon="-1.5359275974333286285400390625">
        <ele>642</ele>
        <time>2022-05-02T10:24:42.000Z</time>
      </trkpt>
      <trkpt lat="41.2205574475228786468505859375" lon="-1.5359051339328289031982421875">
        <ele>642</ele>
        <time>2022-05-02T10:24:43.000Z</time>
      </trkpt>
      <trkpt lat="41.22052048332989215850830078125" lon="-1.53588359244167804718017578125">
        <ele>642</ele>
        <time>2022-05-02T10:24:44.000Z</time>
      </trkpt>
      <trkpt lat="41.22044169344007968902587890625" lon="-1.5358410961925983428955078125">
        <ele>642</ele>
        <time>2022-05-02T10:24:46.000Z</time>
      </trkpt>
      <trkpt lat="41.220360808074474334716796875" lon="-1.53580128215253353118896484375">
        <ele>642</ele>
        <time>2022-05-02T10:24:48.000Z</time>
      </trkpt>
      <trkpt lat="41.22032032348215579986572265625" lon="-1.5357805788516998291015625">
        <ele>642</ele>
        <time>2022-05-02T10:24:49.000Z</time>
      </trkpt>
      <trkpt lat="41.2202801741659641265869140625" lon="-1.5357579477131366729736328125">
        <ele>642</ele>
        <time>2022-05-02T10:24:50.000Z</time>
      </trkpt>
      <trkpt lat="41.220201551914215087890625" lon="-1.5357197262346744537353515625">
        <ele>642</ele>
        <time>2022-05-02T10:24:52.000Z</time>
      </trkpt>
      <trkpt lat="41.22012100182473659515380859375" lon="-1.53569365851581096649169921875">
        <ele>641.79998779296875</ele>
        <time>2022-05-02T10:24:54.000Z</time>
      </trkpt>
      <trkpt lat="41.22004489414393901824951171875" lon="-1.53566683642566204071044921875">
        <ele>641.4000244140625</ele>
        <time>2022-05-02T10:24:56.000Z</time>
      </trkpt>
      <trkpt lat="41.21996861882507801055908203125" lon="-1.5356491506099700927734375">
        <ele>641.20001220703125</ele>
        <time>2022-05-02T10:24:58.000Z</time>
      </trkpt>
      <trkpt lat="41.21988697908818721771240234375" lon="-1.535630710422992706298828125">
        <ele>641.20001220703125</ele>
        <time>2022-05-02T10:25:00.000Z</time>
      </trkpt>
      <trkpt lat="41.2198086082935333251953125" lon="-1.53561168350279331207275390625">
        <ele>641.20001220703125</ele>
        <time>2022-05-02T10:25:02.000Z</time>
      </trkpt>
      <trkpt lat="41.21973711065948009490966796875" lon="-1.5355939976871013641357421875">
        <ele>641.20001220703125</ele>
        <time>2022-05-02T10:25:04.000Z</time>
      </trkpt>
      <trkpt lat="41.21965547092258930206298828125" lon="-1.535574384033679962158203125">
        <ele>641</ele>
        <time>2022-05-02T10:25:06.000Z</time>
      </trkpt>
      <trkpt lat="41.219557821750640869140625" lon="-1.5355363301932811737060546875">
        <ele>641.5999755859375</ele>
        <time>2022-05-02T10:25:08.000Z</time>
      </trkpt>
      <trkpt lat="41.21946059167385101318359375" lon="-1.53548620641231536865234375">
        <ele>642.4000244140625</ele>
        <time>2022-05-02T10:25:10.000Z</time>
      </trkpt>
      <trkpt lat="41.2194191850721836090087890625" lon="-1.53545862995088100433349609375">
        <ele>642.4000244140625</ele>
        <time>2022-05-02T10:25:11.000Z</time>
      </trkpt>
      <trkpt lat="41.21937802992761135101318359375" lon="-1.53542744927108287811279296875">
        <ele>642.4000244140625</ele>
        <time>2022-05-02T10:25:12.000Z</time>
      </trkpt>
      <trkpt lat="41.21931751258671283721923828125" lon="-1.535353772342205047607421875">
        <ele>642.4000244140625</ele>
        <time>2022-05-02T10:25:14.000Z</time>
      </trkpt>
      <trkpt lat="41.2192662991583347320556640625" lon="-1.53528059832751750946044921875">
        <ele>642.79998779296875</ele>
        <time>2022-05-02T10:25:16.000Z</time>
      </trkpt>
      <trkpt lat="41.21921290643513202667236328125" lon="-1.53519728220999240875244140625">
        <ele>643.20001220703125</ele>
        <time>2022-05-02T10:25:18.000Z</time>
      </trkpt>
      <trkpt lat="41.21916286647319793701171875" lon="-1.5351152233779430389404296875">
        <ele>643.20001220703125</ele>
        <time>2022-05-02T10:25:20.000Z</time>
      </trkpt>
      <trkpt lat="41.2191045284271240234375" lon="-1.53503282926976680755615234375">
        <ele>643</ele>
        <time>2022-05-02T10:25:22.000Z</time>
      </trkpt>
      <trkpt lat="41.2190614454448223114013671875" lon="-1.5349566377699375152587890625">
        <ele>642.79998779296875</ele>
        <time>2022-05-02T10:25:24.000Z</time>
      </trkpt>
      <trkpt lat="41.21902297250926494598388671875" lon="-1.53488446958363056182861328125">
        <ele>642.5999755859375</ele>
        <time>2022-05-02T10:25:26.000Z</time>
      </trkpt>
      <trkpt lat="41.21896748431026935577392578125" lon="-1.534809954464435577392578125">
        <ele>642.4000244140625</ele>
        <time>2022-05-02T10:25:28.000Z</time>
      </trkpt>
      <trkpt lat="41.21892121620476245880126953125" lon="-1.534738875925540924072265625">
        <ele>642.5999755859375</ele>
        <time>2022-05-02T10:25:30.000Z</time>
      </trkpt>
      <trkpt lat="41.21887209825217723846435546875" lon="-1.5346522070467472076416015625">
        <ele>642.5999755859375</ele>
        <time>2022-05-02T10:25:32.000Z</time>
      </trkpt>
      <trkpt lat="41.21882415376603603363037109375" lon="-1.53456210158765316009521484375">
        <ele>643</ele>
        <time>2022-05-02T10:25:34.000Z</time>
      </trkpt>
      <trkpt lat="41.218782998621463775634765625" lon="-1.53446520678699016571044921875">
        <ele>642.79998779296875</ele>
        <time>2022-05-02T10:25:36.000Z</time>
      </trkpt>
      <trkpt lat="41.218737065792083740234375" lon="-1.53437267057597637176513671875">
        <ele>642.79998779296875</ele>
        <time>2022-05-02T10:25:38.000Z</time>
      </trkpt>
      <trkpt lat="41.21869339607656002044677734375" lon="-1.53427761979401111602783203125">
        <ele>642.5999755859375</ele>
        <time>2022-05-02T10:25:40.000Z</time>
      </trkpt>
      <trkpt lat="41.2186552584171295166015625" lon="-1.53417787514626979827880859375">
        <ele>643</ele>
        <time>2022-05-02T10:25:42.000Z</time>
      </trkpt>
      <trkpt lat="41.21863505803048610687255859375" lon="-1.53413034975528717041015625">
        <ele>642.79998779296875</ele>
        <time>2022-05-02T10:25:43.000Z</time>
      </trkpt>
      <trkpt lat="41.21861427091062068939208984375" lon="-1.53408315964043140411376953125">
        <ele>642.79998779296875</ele>
        <time>2022-05-02T10:25:44.000Z</time>
      </trkpt>
      <trkpt lat="41.21857621707022190093994140625" lon="-1.533981822431087493896484375">
        <ele>642.79998779296875</ele>
        <time>2022-05-02T10:25:46.000Z</time>
      </trkpt>
      <trkpt lat="41.2185426056385040283203125" lon="-1.533875204622745513916015625">
        <ele>643</ele>
        <time>2022-05-02T10:25:48.000Z</time>
      </trkpt>
      <trkpt lat="41.21850362978875637054443359375" lon="-1.533776633441448211669921875">
        <ele>642.79998779296875</ele>
        <time>2022-05-02T10:25:50.000Z</time>
      </trkpt>
      <trkpt lat="41.2184840999543666839599609375" lon="-1.5337313711643218994140625">
        <ele>642.79998779296875</ele>
        <time>2022-05-02T10:25:51.000Z</time>
      </trkpt>
      <trkpt lat="41.2184673361480236053466796875" lon="-1.5336846001446247100830078125">
        <ele>642.79998779296875</ele>
        <time>2022-05-02T10:25:52.000Z</time>
      </trkpt>
      <trkpt lat="41.21843087486922740936279296875" lon="-1.53358577750623226165771484375">
        <ele>642.79998779296875</ele>
        <time>2022-05-02T10:25:54.000Z</time>
      </trkpt>
      <trkpt lat="41.21839198283851146697998046875" lon="-1.53348268009722232818603515625">
        <ele>643</ele>
        <time>2022-05-02T10:25:56.000Z</time>
      </trkpt>
      <trkpt lat="41.218359209597110748291015625" lon="-1.533376984298229217529296875">
        <ele>642.79998779296875</ele>
        <time>2022-05-02T10:25:58.000Z</time>
      </trkpt>
      <trkpt lat="41.21832408942282199859619140625" lon="-1.533276736736297607421875">
        <ele>642.20001220703125</ele>
        <time>2022-05-02T10:26:00.000Z</time>
      </trkpt>
      <trkpt lat="41.21830581687390804290771484375" lon="-1.53322937898337841033935546875">
        <ele>642</ele>
        <time>2022-05-02T10:26:01.000Z</time>
      </trkpt>
      <trkpt lat="41.21828620322048664093017578125" lon="-1.533180512487888336181640625">
        <ele>641.5999755859375</ele>
        <time>2022-05-02T10:26:02.000Z</time>
      </trkpt>
      <trkpt lat="41.21825225651264190673828125" lon="-1.53308294713497161865234375">
        <ele>641</ele>
        <time>2022-05-02T10:26:04.000Z</time>
      </trkpt>
      <trkpt lat="41.21822015382349491119384765625" lon="-1.5329855494201183319091796875">
        <ele>640.79998779296875</ele>
        <time>2022-05-02T10:26:06.000Z</time>
      </trkpt>
      <trkpt lat="41.2181843630969524383544921875" lon="-1.53288840316236019134521484375">
        <ele>640.79998779296875</ele>
        <time>2022-05-02T10:26:08.000Z</time>
      </trkpt>
      <trkpt lat="41.2181448005139827728271484375" lon="-1.532791592180728912353515625">
        <ele>641</ele>
        <time>2022-05-02T10:26:10.000Z</time>
      </trkpt>
      <trkpt lat="41.21812485158443450927734375" lon="-1.5327428095042705535888671875">
        <ele>641</ele>
        <time>2022-05-02T10:26:11.000Z</time>
      </trkpt>
      <trkpt lat="41.21810347773134708404541015625" lon="-1.53269310481846332550048828125">
        <ele>641</ele>
        <time>2022-05-02T10:26:12.000Z</time>
      </trkpt>
      <trkpt lat="41.21805871836841106414794921875" lon="-1.53258212842047214508056640625">
        <ele>641.4000244140625</ele>
        <time>2022-05-02T10:26:14.000Z</time>
      </trkpt>
      <trkpt lat="41.21801094152033329010009765625" lon="-1.53247006237506866455078125">
        <ele>642</ele>
        <time>2022-05-02T10:26:16.000Z</time>
      </trkpt>
      <trkpt lat="41.217966936528682708740234375" lon="-1.532359756529331207275390625">
        <ele>642.5999755859375</ele>
        <time>2022-05-02T10:26:18.000Z</time>
      </trkpt>
      <trkpt lat="41.21791874058544635772705078125" lon="-1.5322610177099704742431640625">
        <ele>642.79998779296875</ele>
        <time>2022-05-02T10:26:20.000Z</time>
      </trkpt>
      <trkpt lat="41.21789393015205860137939453125" lon="-1.53221734799444675445556640625">
        <ele>643</ele>
        <time>2022-05-02T10:26:21.000Z</time>
      </trkpt>
      <trkpt lat="41.2178715504705905914306640625" lon="-1.53217359445989131927490234375">
        <ele>643</ele>
        <time>2022-05-02T10:26:22.000Z</time>
      </trkpt>
      <trkpt lat="41.2178276292979717254638671875" lon="-1.532088182866573333740234375">
        <ele>643</ele>
        <time>2022-05-02T10:26:24.000Z</time>
      </trkpt>
      <trkpt lat="41.21778295375406742095947265625" lon="-1.53200176544487476348876953125">
        <ele>643</ele>
        <time>2022-05-02T10:26:26.000Z</time>
      </trkpt>
      <trkpt lat="41.21773551218211650848388671875" lon="-1.53190813958644866943359375">
        <ele>643</ele>
        <time>2022-05-02T10:26:28.000Z</time>
      </trkpt>
      <trkpt lat="41.2177112884819507598876953125" lon="-1.531860530376434326171875">
        <ele>642.79998779296875</ele>
        <time>2022-05-02T10:26:29.000Z</time>
      </trkpt>
      <trkpt lat="41.21768840588629245758056640625" lon="-1.53181518428027629852294921875">
        <ele>642.5999755859375</ele>
        <time>2022-05-02T10:26:30.000Z</time>
      </trkpt>
      <trkpt lat="41.217647753655910491943359375" lon="-1.5317259170114994049072265625">
        <ele>642.20001220703125</ele>
        <time>2022-05-02T10:26:32.000Z</time>
      </trkpt>
      <trkpt lat="41.21760777197778224945068359375" lon="-1.5316367335617542266845703125">
        <ele>642.4000244140625</ele>
        <time>2022-05-02T10:26:34.000Z</time>
      </trkpt>
      <trkpt lat="41.21756426990032196044921875" lon="-1.5315418504178524017333984375">
        <ele>643</ele>
        <time>2022-05-02T10:26:36.000Z</time>
      </trkpt>
      <trkpt lat="41.21751808561384677886962890625" lon="-1.5314513258635997772216796875">
        <ele>643.4000244140625</ele>
        <time>2022-05-02T10:26:38.000Z</time>
      </trkpt>
      <trkpt lat="41.21747332625091075897216796875" lon="-1.5313520841300487518310546875">
        <ele>644</ele>
        <time>2022-05-02T10:26:40.000Z</time>
      </trkpt>
      <trkpt lat="41.2174241244792938232421875" lon="-1.531254686415195465087890625">
        <ele>644.5999755859375</ele>
        <time>2022-05-02T10:26:42.000Z</time>
      </trkpt>
      <trkpt lat="41.2173984758555889129638671875" lon="-1.5312087535858154296875">
        <ele>644.79998779296875</ele>
        <time>2022-05-02T10:26:43.000Z</time>
      </trkpt>
      <trkpt lat="41.217374168336391448974609375" lon="-1.53116391040384769439697265625">
        <ele>645</ele>
        <time>2022-05-02T10:26:44.000Z</time>
      </trkpt>
      <trkpt lat="41.2173257209360599517822265625" lon="-1.53107464313507080078125">
        <ele>645</ele>
        <time>2022-05-02T10:26:46.000Z</time>
      </trkpt>
      <trkpt lat="41.21727383695542812347412109375" lon="-1.530986465513706207275390625">
        <ele>645</ele>
        <time>2022-05-02T10:26:48.000Z</time>
      </trkpt>
      <trkpt lat="41.21724885888397693634033203125" lon="-1.530942209064960479736328125">
        <ele>645</ele>
        <time>2022-05-02T10:26:49.000Z</time>
      </trkpt>
      <trkpt lat="41.21722631156444549560546875" lon="-1.53089853934943675994873046875">
        <ele>645</ele>
        <time>2022-05-02T10:26:50.000Z</time>
      </trkpt>
      <trkpt lat="41.21717778034508228302001953125" lon="-1.53081019409000873565673828125">
        <ele>645</ele>
        <time>2022-05-02T10:26:52.000Z</time>
      </trkpt>
      <trkpt lat="41.2171252258121967315673828125" lon="-1.53071313165128231048583984375">
        <ele>645.5999755859375</ele>
        <time>2022-05-02T10:26:54.000Z</time>
      </trkpt>
      <trkpt lat="41.217100918292999267578125" lon="-1.5306630916893482208251953125">
        <ele>646</ele>
        <time>2022-05-02T10:26:55.000Z</time>
      </trkpt>
      <trkpt lat="41.21707585640251636505126953125" lon="-1.53061388991773128509521484375">
        <ele>646.20001220703125</ele>
        <time>2022-05-02T10:26:56.000Z</time>
      </trkpt>
      <trkpt lat="41.217027492821216583251953125" lon="-1.5305135585367679595947265625">
        <ele>646.4000244140625</ele>
        <time>2022-05-02T10:26:58.000Z</time>
      </trkpt>
      <trkpt lat="41.2170051969587802886962890625" lon="-1.53046268038451671600341796875">
        <ele>646.4000244140625</ele>
        <time>2022-05-02T10:26:59.000Z</time>
      </trkpt>
      <trkpt lat="41.21698348782956600189208984375" lon="-1.5304129756987094879150390625">
        <ele>646.5999755859375</ele>
        <time>2022-05-02T10:27:00.000Z</time>
      </trkpt>
      <trkpt lat="41.21696119196712970733642578125" lon="-1.5303678810596466064453125">
        <ele>646.5999755859375</ele>
        <time>2022-05-02T10:27:01.000Z</time>
      </trkpt>
      <trkpt lat="41.21694090776145458221435546875" lon="-1.53032856993377208709716796875">
        <ele>646.79998779296875</ele>
        <time>2022-05-02T10:27:02.000Z</time>
      </trkpt>
      <trkpt lat="41.2168982438743114471435546875" lon="-1.530248187482357025146484375">
        <ele>647</ele>
        <time>2022-05-02T10:27:04.000Z</time>
      </trkpt>
      <trkpt lat="41.21686287224292755126953125" lon="-1.53016495518386363983154296875">
        <ele>647.4000244140625</ele>
        <time>2022-05-02T10:27:06.000Z</time>
      </trkpt>
      <trkpt lat="41.21684669516980648040771484375" lon="-1.53011642396450042724609375">
        <ele>647.5999755859375</ele>
        <time>2022-05-02T10:27:07.000Z</time>
      </trkpt>
      <trkpt lat="41.21682674624025821685791015625" lon="-1.5300666354596614837646484375">
        <ele>648</ele>
        <time>2022-05-02T10:27:08.000Z</time>
      </trkpt>
      <trkpt lat="41.2167899496853351593017578125" lon="-1.52997200377285480499267578125">
        <ele>648</ele>
        <time>2022-05-02T10:27:10.000Z</time>
      </trkpt>
      <trkpt lat="41.2167715094983577728271484375" lon="-1.52992137707769870758056640625">
        <ele>648</ele>
        <time>2022-05-02T10:27:11.000Z</time>
      </trkpt>
      <trkpt lat="41.21675298549234867095947265625" lon="-1.5298738516867160797119140625">
        <ele>648</ele>
        <time>2022-05-02T10:27:12.000Z</time>
      </trkpt>
      <trkpt lat="41.21671778149902820587158203125" lon="-1.5297823213040828704833984375">
        <ele>648</ele>
        <time>2022-05-02T10:27:14.000Z</time>
      </trkpt>
      <trkpt lat="41.2166766263544559478759765625" lon="-1.529687941074371337890625">
        <ele>648</ele>
        <time>2022-05-02T10:27:16.000Z</time>
      </trkpt>
      <trkpt lat="41.2166330404579639434814453125" lon="-1.5296302735805511474609375">
        <ele>648.20001220703125</ele>
        <time>2022-05-02T10:27:18.000Z</time>
      </trkpt>
      <trkpt lat="41.21661200188100337982177734375" lon="-1.52962499298155307769775390625">
        <ele>648.20001220703125</ele>
        <time>2022-05-02T10:27:19.000Z</time>
      </trkpt>
      <trkpt lat="41.21658618561923503875732421875" lon="-1.52962801046669483184814453125">
        <ele>648.4000244140625</ele>
        <time>2022-05-02T10:27:20.000Z</time>
      </trkpt>
      <trkpt lat="41.21655081398785114288330078125" lon="-1.529613174498081207275390625">
        <ele>648.20001220703125</ele>
        <time>2022-05-02T10:27:22.000Z</time>
      </trkpt>
      <trkpt lat="41.21648945845663547515869140625" lon="-1.529594399034976959228515625">
        <ele>648.20001220703125</ele>
        <time>2022-05-02T10:27:24.000Z</time>
      </trkpt>
      <trkpt lat="41.21645593084394931793212890625" lon="-1.52959230355918407440185546875">
        <ele>648</ele>
        <time>2022-05-02T10:27:25.000Z</time>
      </trkpt>
      <trkpt lat="41.21642164885997772216796875" lon="-1.529595069587230682373046875">
        <ele>647.79998779296875</ele>
        <time>2022-05-02T10:27:26.000Z</time>
      </trkpt>
      <trkpt lat="41.216350905597209930419921875" lon="-1.52959129773080348968505859375">
        <ele>647.20001220703125</ele>
        <time>2022-05-02T10:27:28.000Z</time>
      </trkpt>
      <trkpt lat="41.21630740351974964141845703125" lon="-1.5295808203518390655517578125">
        <ele>647</ele>
        <time>2022-05-02T10:27:29.000Z</time>
      </trkpt>
      <trkpt lat="41.21627689339220523834228515625" lon="-1.52955760248005390167236328125">
        <ele>647</ele>
        <time>2022-05-02T10:27:30.000Z</time>
      </trkpt>
      <trkpt lat="41.2162169627845287322998046875" lon="-1.529483087360858917236328125">
        <ele>646.79998779296875</ele>
        <time>2022-05-02T10:27:32.000Z</time>
      </trkpt>
      <trkpt lat="41.21618569828569889068603515625" lon="-1.5294483862817287445068359375">
        <ele>646.5999755859375</ele>
        <time>2022-05-02T10:27:33.000Z</time>
      </trkpt>
      <trkpt lat="41.216154433786869049072265625" lon="-1.52941913343966007232666015625">
        <ele>646.5999755859375</ele>
        <time>2022-05-02T10:27:34.000Z</time>
      </trkpt>
      <trkpt lat="41.21609886176884174346923828125" lon="-1.5293816663324832916259765625">
        <ele>646.4000244140625</ele>
        <time>2022-05-02T10:27:36.000Z</time>
      </trkpt>
      <trkpt lat="41.21606734581291675567626953125" lon="-1.5293726138770580291748046875">
        <ele>646.20001220703125</ele>
        <time>2022-05-02T10:27:37.000Z</time>
      </trkpt>
      <trkpt lat="41.21603541076183319091796875" lon="-1.52935677208006381988525390625">
        <ele>646</ele>
        <time>2022-05-02T10:27:38.000Z</time>
      </trkpt>
      <trkpt lat="41.215986795723438262939453125" lon="-1.52930279262363910675048828125">
        <ele>646</ele>
        <time>2022-05-02T10:27:40.000Z</time>
      </trkpt>
      <trkpt lat="41.21597816236317157745361328125" lon="-1.5292708575725555419921875">
        <ele>646</ele>
        <time>2022-05-02T10:27:41.000Z</time>
      </trkpt>
      <trkpt lat="41.2159789167344570159912109375" lon="-1.5292388387024402618408203125">
        <ele>646</ele>
        <time>2022-05-02T10:27:42.000Z</time>
      </trkpt>
      <trkpt lat="41.2159872986376285552978515625" lon="-1.5291815064847469329833984375">
        <ele>646</ele>
        <time>2022-05-02T10:27:44.000Z</time>
      </trkpt>
      <trkpt lat="41.2159866280853748321533203125" lon="-1.52914890088140964508056640625">
        <ele>646</ele>
        <time>2022-05-02T10:27:45.000Z</time>
      </trkpt>
      <trkpt lat="41.2159849517047405242919921875" lon="-1.5291121043264865875244140625">
        <ele>646.20001220703125</ele>
        <time>2022-05-02T10:27:46.000Z</time>
      </trkpt>
      <trkpt lat="41.2159745581448078155517578125" lon="-1.529026441276073455810546875">
        <ele>646.5999755859375</ele>
        <time>2022-05-02T10:27:48.000Z</time>
      </trkpt>
      <trkpt lat="41.21597497723996639251708984375" lon="-1.5289436280727386474609375">
        <ele>646.79998779296875</ele>
        <time>2022-05-02T10:27:50.000Z</time>
      </trkpt>
      <trkpt lat="41.215973384678363800048828125" lon="-1.52886508964002132415771484375">
        <ele>647</ele>
        <time>2022-05-02T10:27:52.000Z</time>
      </trkpt>
      <trkpt lat="41.21596022509038448333740234375" lon="-1.5287754870951175689697265625">
        <ele>647.5999755859375</ele>
        <time>2022-05-02T10:27:54.000Z</time>
      </trkpt>
      <trkpt lat="41.21595050208270549774169921875" lon="-1.52872997336089611053466796875">
        <ele>648</ele>
        <time>2022-05-02T10:27:55.000Z</time>
      </trkpt>
      <trkpt lat="41.2159386835992336273193359375" lon="-1.5286834537982940673828125">
        <ele>648</ele>
        <time>2022-05-02T10:27:56.000Z</time>
      </trkpt>
      <trkpt lat="41.215912364423274993896484375" lon="-1.52859116904437541961669921875">
        <ele>648.20001220703125</ele>
        <time>2022-05-02T10:27:58.000Z</time>
      </trkpt>
      <trkpt lat="41.21587791480123996734619140625" lon="-1.5285065956413745880126953125">
        <ele>648.20001220703125</ele>
        <time>2022-05-02T10:28:00.000Z</time>
      </trkpt>
      <trkpt lat="41.21583960950374603271484375" lon="-1.52842269279062747955322265625">
        <ele>648.79998779296875</ele>
        <time>2022-05-02T10:28:02.000Z</time>
      </trkpt>
      <trkpt lat="41.21581370942294597625732421875" lon="-1.52833275496959686279296875">
        <ele>649.20001220703125</ele>
        <time>2022-05-02T10:28:04.000Z</time>
      </trkpt>
      <trkpt lat="41.21576392091810703277587890625" lon="-1.52824960649013519287109375">
        <ele>649.5999755859375</ele>
        <time>2022-05-02T10:28:06.000Z</time>
      </trkpt>
      <trkpt lat="41.21570725925266742706298828125" lon="-1.52816645801067352294921875">
        <ele>650</ele>
        <time>2022-05-02T10:28:08.000Z</time>
      </trkpt>
      <trkpt lat="41.21566283516585826873779296875" lon="-1.5280764363706111907958984375">
        <ele>650.20001220703125</ele>
        <time>2022-05-02T10:28:10.000Z</time>
      </trkpt>
      <trkpt lat="41.21562444604933261871337890625" lon="-1.5280013345181941986083984375">
        <ele>650</ele>
        <time>2022-05-02T10:28:12.000Z</time>
      </trkpt>
      <trkpt lat="41.21558655984699726104736328125" lon="-1.52794760651886463165283203125">
        <ele>649.79998779296875</ele>
        <time>2022-05-02T10:28:14.000Z</time>
      </trkpt>
      <trkpt lat="41.21553207747638225555419921875" lon="-1.52790452353656291961669921875">
        <ele>649.79998779296875</ele>
        <time>2022-05-02T10:28:16.000Z</time>
      </trkpt>
      <trkpt lat="41.2154629267752170562744140625" lon="-1.52789228595793247222900390625">
        <ele>649.5999755859375</ele>
        <time>2022-05-02T10:28:18.000Z</time>
      </trkpt>
      <trkpt lat="41.2153921835124492645263671875" lon="-1.52789630927145481109619140625">
        <ele>649.5999755859375</ele>
        <time>2022-05-02T10:28:20.000Z</time>
      </trkpt>
      <trkpt lat="41.21531079523265361785888671875" lon="-1.52791340835392475128173828125">
        <ele>649.4000244140625</ele>
        <time>2022-05-02T10:28:22.000Z</time>
      </trkpt>
      <trkpt lat="41.21523150242865085601806640625" lon="-1.5279366262257099151611328125">
        <ele>649.20001220703125</ele>
        <time>2022-05-02T10:28:24.000Z</time>
      </trkpt>
      <trkpt lat="41.2151595018804073333740234375" lon="-1.52796369977295398712158203125">
        <ele>649.20001220703125</ele>
        <time>2022-05-02T10:28:26.000Z</time>
      </trkpt>
      <trkpt lat="41.21508766897022724151611328125" lon="-1.5279926173388957977294921875">
        <ele>649.79998779296875</ele>
        <time>2022-05-02T10:28:28.000Z</time>
      </trkpt>
      <trkpt lat="41.21500787325203418731689453125" lon="-1.52802337892353534698486328125">
        <ele>650.4000244140625</ele>
        <time>2022-05-02T10:28:30.000Z</time>
      </trkpt>
      <trkpt lat="41.2149677239358425140380859375" lon="-1.5280398912727832794189453125">
        <ele>650.5999755859375</ele>
        <time>2022-05-02T10:28:31.000Z</time>
      </trkpt>
      <trkpt lat="41.214925982058048248291015625" lon="-1.52805648744106292724609375">
        <ele>651</ele>
        <time>2022-05-02T10:28:32.000Z</time>
      </trkpt>
      <trkpt lat="41.21488465927541255950927734375" lon="-1.5280750952661037445068359375">
        <ele>650.79998779296875</ele>
        <time>2022-05-02T10:28:33.000Z</time>
      </trkpt>
      <trkpt lat="41.2148460187017917633056640625" lon="-1.52809428982436656951904296875">
        <ele>650.79998779296875</ele>
        <time>2022-05-02T10:28:34.000Z</time>
      </trkpt>
      <trkpt lat="41.21476647444069385528564453125" lon="-1.5281327627599239349365234375">
        <ele>650.4000244140625</ele>
        <time>2022-05-02T10:28:36.000Z</time>
      </trkpt>
      <trkpt lat="41.21472657658159732818603515625" lon="-1.528151370584964752197265625">
        <ele>650.4000244140625</ele>
        <time>2022-05-02T10:28:37.000Z</time>
      </trkpt>
      <trkpt lat="41.214692629873752593994140625" lon="-1.5281662903726100921630859375">
        <ele>650.20001220703125</ele>
        <time>2022-05-02T10:28:38.000Z</time>
      </trkpt>
      <trkpt lat="41.21461057104170322418212890625" lon="-1.528198979794979095458984375">
        <ele>650</ele>
        <time>2022-05-02T10:28:40.000Z</time>
      </trkpt>
      <trkpt lat="41.21456564404070377349853515625" lon="-1.52821968309581279754638671875">
        <ele>650</ele>
        <time>2022-05-02T10:28:41.000Z</time>
      </trkpt>
      <trkpt lat="41.21451619081199169158935546875" lon="-1.528235860168933868408203125">
        <ele>650</ele>
        <time>2022-05-02T10:28:42.000Z</time>
      </trkpt>
      <trkpt lat="41.2144235707819461822509765625" lon="-1.52826729230582714080810546875">
        <ele>650</ele>
        <time>2022-05-02T10:28:44.000Z</time>
      </trkpt>
      <trkpt lat="41.2143773026764392852783203125" lon="-1.5282843075692653656005859375">
        <ele>650</ele>
        <time>2022-05-02T10:28:45.000Z</time>
      </trkpt>
      <trkpt lat="41.214335896074771881103515625" lon="-1.52830299921333789825439453125">
        <ele>650</ele>
        <time>2022-05-02T10:28:46.000Z</time>
      </trkpt>
      <trkpt lat="41.214227937161922454833984375" lon="-1.5283401310443878173828125">
        <ele>650</ele>
        <time>2022-05-02T10:28:48.000Z</time>
      </trkpt>
      <trkpt lat="41.21411017142236232757568359375" lon="-1.52838078327476978302001953125">
        <ele>650.20001220703125</ele>
        <time>2022-05-02T10:28:50.000Z</time>
      </trkpt>
      <trkpt lat="41.21399584226310253143310546875" lon="-1.52841456234455108642578125">
        <ele>650.4000244140625</ele>
        <time>2022-05-02T10:28:52.000Z</time>
      </trkpt>
      <trkpt lat="41.21389710344374179840087890625" lon="-1.52844582684338092803955078125">
        <ele>650.5999755859375</ele>
        <time>2022-05-02T10:28:54.000Z</time>
      </trkpt>
      <trkpt lat="41.21381697244942188262939453125" lon="-1.52848287485539913177490234375">
        <ele>651</ele>
        <time>2022-05-02T10:28:56.000Z</time>
      </trkpt>
      <trkpt lat="41.21371437795460224151611328125" lon="-1.52851640246808528900146484375">
        <ele>651.4000244140625</ele>
        <time>2022-05-02T10:28:58.000Z</time>
      </trkpt>
      <trkpt lat="41.21371437795460224151611328125" lon="-1.52851640246808528900146484375">
        <ele>651.4000244140625</ele>
        <time>2022-05-02T10:28:59.000Z</time>
      </trkpt>
      <trkpt lat="41.213610358536243438720703125" lon="-1.52855009771883487701416015625">
        <ele>651.79998779296875</ele>
        <time>2022-05-02T10:29:00.000Z</time>
      </trkpt>
      <trkpt lat="41.21352293528616428375244140625" lon="-1.5285873971879482269287109375">
        <ele>651.79998779296875</ele>
        <time>2022-05-02T10:29:02.000Z</time>
      </trkpt>
      <trkpt lat="41.2134291417896747589111328125" lon="-1.52862017042934894561767578125">
        <ele>652</ele>
        <time>2022-05-02T10:29:04.000Z</time>
      </trkpt>
      <trkpt lat="41.21337960474193096160888671875" lon="-1.52863207273185253143310546875">
        <ele>652</ele>
        <time>2022-05-02T10:29:05.000Z</time>
      </trkpt>
      <trkpt lat="41.2133302353322505950927734375" lon="-1.5286430530250072479248046875">
        <ele>652</ele>
        <time>2022-05-02T10:29:06.000Z</time>
      </trkpt>
      <trkpt lat="41.213237531483173370361328125" lon="-1.52866124175488948822021484375">
        <ele>652</ele>
        <time>2022-05-02T10:29:08.000Z</time>
      </trkpt>
      <trkpt lat="41.21315832249820232391357421875" lon="-1.52867515571415424346923828125">
        <ele>651.79998779296875</ele>
        <time>2022-05-02T10:29:10.000Z</time>
      </trkpt>
      <trkpt lat="41.2131243757903575897216796875" lon="-1.52867951430380344390869140625">
        <ele>651.79998779296875</ele>
        <time>2022-05-02T10:29:11.000Z</time>
      </trkpt>
      <trkpt lat="41.21309344656765460968017578125" lon="-1.52868135832250118255615234375">
        <ele>651.5999755859375</ele>
        <time>2022-05-02T10:29:12.000Z</time>
      </trkpt>
      <trkpt lat="41.2130358628928661346435546875" lon="-1.5286732278764247894287109375">
        <ele>651.4000244140625</ele>
        <time>2022-05-02T10:29:14.000Z</time>
      </trkpt>
      <trkpt lat="41.2129691429436206817626953125" lon="-1.5286460705101490020751953125">
        <ele>651</ele>
        <time>2022-05-02T10:29:16.000Z</time>
      </trkpt>
      <trkpt lat="41.2128886766731739044189453125" lon="-1.52860323898494243621826171875">
        <ele>651</ele>
        <time>2022-05-02T10:29:18.000Z</time>
      </trkpt>
      <trkpt lat="41.21281013824045658111572265625" lon="-1.5285622514784336090087890625">
        <ele>650.79998779296875</ele>
        <time>2022-05-02T10:29:20.000Z</time>
      </trkpt>
      <trkpt lat="41.21272665448486804962158203125" lon="-1.5285069309175014495849609375">
        <ele>650.20001220703125</ele>
        <time>2022-05-02T10:29:22.000Z</time>
      </trkpt>
      <trkpt lat="41.21264417655766010284423828125" lon="-1.52844331227242946624755859375">
        <ele>649.79998779296875</ele>
        <time>2022-05-02T10:29:24.000Z</time>
      </trkpt>
      <trkpt lat="41.2125986628234386444091796875" lon="-1.5284152328968048095703125">
        <ele>649.5999755859375</ele>
        <time>2022-05-02T10:29:25.000Z</time>
      </trkpt>
      <trkpt lat="41.212552227079868316650390625" lon="-1.5283922664821147918701171875">
        <ele>649.4000244140625</ele>
        <time>2022-05-02T10:29:26.000Z</time>
      </trkpt>
      <trkpt lat="41.212505958974361419677734375" lon="-1.52837391011416912078857421875">
        <ele>649.20001220703125</ele>
        <time>2022-05-02T10:29:27.000Z</time>
      </trkpt>
      <trkpt lat="41.21245843358337879180908203125" lon="-1.528357230126857757568359375">
        <ele>649.20001220703125</ele>
        <time>2022-05-02T10:29:28.000Z</time>
      </trkpt>
      <trkpt lat="41.2124122492969036102294921875" lon="-1.5283382870256900787353515625">
        <ele>649</ele>
        <time>2022-05-02T10:29:29.000Z</time>
      </trkpt>
      <trkpt lat="41.212366484105587005615234375" lon="-1.52831389568746089935302734375">
        <ele>649</ele>
        <time>2022-05-02T10:29:30.000Z</time>
      </trkpt>
      <trkpt lat="41.21228124015033245086669921875" lon="-1.5282729081809520721435546875">
        <ele>648.79998779296875</ele>
        <time>2022-05-02T10:29:32.000Z</time>
      </trkpt>
      <trkpt lat="41.21219716966152191162109375" lon="-1.5282252989709377288818359375">
        <ele>648.5999755859375</ele>
        <time>2022-05-02T10:29:34.000Z</time>
      </trkpt>
      <trkpt lat="41.21212081052362918853759765625" lon="-1.52817509137094020843505859375">
        <ele>648.4000244140625</ele>
        <time>2022-05-02T10:29:36.000Z</time>
      </trkpt>
      <trkpt lat="41.2120447866618633270263671875" lon="-1.5281260572373867034912109375">
        <ele>648</ele>
        <time>2022-05-02T10:29:38.000Z</time>
      </trkpt>
      <trkpt lat="41.2119666673243045806884765625" lon="-1.52806914411485195159912109375">
        <ele>648</ele>
        <time>2022-05-02T10:29:40.000Z</time>
      </trkpt>
      <trkpt lat="41.21192769147455692291259765625" lon="-1.52804039418697357177734375">
        <ele>648</ele>
        <time>2022-05-02T10:29:41.000Z</time>
      </trkpt>
      <trkpt lat="41.211888380348682403564453125" lon="-1.52801298536360263824462890625">
        <ele>647.79998779296875</ele>
        <time>2022-05-02T10:29:42.000Z</time>
      </trkpt>
      <trkpt lat="41.211805902421474456787109375" lon="-1.5279607661068439483642578125">
        <ele>647.79998779296875</ele>
        <time>2022-05-02T10:29:44.000Z</time>
      </trkpt>
      <trkpt lat="41.2117222510278224945068359375" lon="-1.52791240252554416656494140625">
        <ele>648</ele>
        <time>2022-05-02T10:29:46.000Z</time>
      </trkpt>
      <trkpt lat="41.2116372585296630859375" lon="-1.52786546386778354644775390625">
        <ele>648.5999755859375</ele>
        <time>2022-05-02T10:29:48.000Z</time>
      </trkpt>
      <trkpt lat="41.21155570261180400848388671875" lon="-1.527814753353595733642578125">
        <ele>649.20001220703125</ele>
        <time>2022-05-02T10:29:50.000Z</time>
      </trkpt>
      <trkpt lat="41.21148076839745044708251953125" lon="-1.5277653001248836517333984375">
        <ele>649</ele>
        <time>2022-05-02T10:29:52.000Z</time>
      </trkpt>
      <trkpt lat="41.21140549890697002410888671875" lon="-1.52771375142037868499755859375">
        <ele>648.79998779296875</ele>
        <time>2022-05-02T10:29:54.000Z</time>
      </trkpt>
      <trkpt lat="41.21133039705455303192138671875" lon="-1.5276643820106983184814453125">
        <ele>648.5999755859375</ele>
        <time>2022-05-02T10:29:56.000Z</time>
      </trkpt>
      <trkpt lat="41.21129083447158336639404296875" lon="-1.5276395715773105621337890625">
        <ele>648.4000244140625</ele>
        <time>2022-05-02T10:29:57.000Z</time>
      </trkpt>
      <trkpt lat="41.21125026606023311614990234375" lon="-1.52761400677263736724853515625">
        <ele>648.4000244140625</ele>
        <time>2022-05-02T10:29:58.000Z</time>
      </trkpt>
      <trkpt lat="41.21117047034204006195068359375" lon="-1.527561955153942108154296875">
        <ele>648.20001220703125</ele>
        <time>2022-05-02T10:30:00.000Z</time>
      </trkpt>
      <trkpt lat="41.2110922671854496002197265625" lon="-1.52751392684876918792724609375">
        <ele>648</ele>
        <time>2022-05-02T10:30:02.000Z</time>
      </trkpt>
      <trkpt lat="41.21101506985723972320556640625" lon="-1.52746598236262798309326171875">
        <ele>648</ele>
        <time>2022-05-02T10:30:04.000Z</time>
      </trkpt>
      <trkpt lat="41.21093728579580783843994140625" lon="-1.52741250582039356231689453125">
        <ele>648</ele>
        <time>2022-05-02T10:30:06.000Z</time>
      </trkpt>
      <trkpt lat="41.21085665188729763031005859375" lon="-1.52735651470720767974853515625">
        <ele>648.4000244140625</ele>
        <time>2022-05-02T10:30:08.000Z</time>
      </trkpt>
      <trkpt lat="41.210777275264263153076171875" lon="-1.52729750610888004302978515625">
        <ele>649.4000244140625</ele>
        <time>2022-05-02T10:30:10.000Z</time>
      </trkpt>
      <trkpt lat="41.21069806627929210662841796875" lon="-1.5272315405309200286865234375">
        <ele>650.20001220703125</ele>
        <time>2022-05-02T10:30:12.000Z</time>
      </trkpt>
      <trkpt lat="41.21065967716276645660400390625" lon="-1.52719893492758274078369140625">
        <ele>650.4000244140625</ele>
        <time>2022-05-02T10:30:13.000Z</time>
      </trkpt>
      <trkpt lat="41.21062212623655796051025390625" lon="-1.527164988219738006591796875">
        <ele>650.4000244140625</ele>
        <time>2022-05-02T10:30:14.000Z</time>
      </trkpt>
      <trkpt lat="41.21055833995342254638671875" lon="-1.5270830132067203521728515625">
        <ele>651</ele>
        <time>2022-05-02T10:30:16.000Z</time>
      </trkpt>
      <trkpt lat="41.21049589477479457855224609375" lon="-1.5270043909549713134765625">
        <ele>651.5999755859375</ele>
        <time>2022-05-02T10:30:18.000Z</time>
      </trkpt>
      <trkpt lat="41.21043135412037372589111328125" lon="-1.526923589408397674560546875">
        <ele>651.79998779296875</ele>
        <time>2022-05-02T10:30:20.000Z</time>
      </trkpt>
      <trkpt lat="41.21036647818982601165771484375" lon="-1.52684823609888553619384765625">
        <ele>651.20001220703125</ele>
        <time>2022-05-02T10:30:22.000Z</time>
      </trkpt>
      <trkpt lat="41.21030545793473720550537109375" lon="-1.5267722122371196746826171875">
        <ele>651</ele>
        <time>2022-05-02T10:30:24.000Z</time>
      </trkpt>
      <trkpt lat="41.21024762280285358428955078125" lon="-1.526698283851146697998046875">
        <ele>651</ele>
        <time>2022-05-02T10:30:26.000Z</time>
      </trkpt>
      <trkpt lat="41.2102175317704677581787109375" lon="-1.52666064910590648651123046875">
        <ele>650.79998779296875</ele>
        <time>2022-05-02T10:30:27.000Z</time>
      </trkpt>
      <trkpt lat="41.2101876921951770782470703125" lon="-1.52662728913128376007080078125">
        <ele>650.79998779296875</ele>
        <time>2022-05-02T10:30:28.000Z</time>
      </trkpt>
      <trkpt lat="41.210127174854278564453125" lon="-1.52656056918203830718994140625">
        <ele>650.4000244140625</ele>
        <time>2022-05-02T10:30:30.000Z</time>
      </trkpt>
      <trkpt lat="41.21006875298917293548583984375" lon="-1.52648798190057277679443359375">
        <ele>649.79998779296875</ele>
        <time>2022-05-02T10:30:32.000Z</time>
      </trkpt>
      <trkpt lat="41.2100096605718135833740234375" lon="-1.52641874738037586212158203125">
        <ele>649.4000244140625</ele>
        <time>2022-05-02T10:30:34.000Z</time>
      </trkpt>
      <trkpt lat="41.20995216071605682373046875" lon="-1.52635018341243267059326171875">
        <ele>649</ele>
        <time>2022-05-02T10:30:36.000Z</time>
      </trkpt>
      <trkpt lat="41.20989306829869747161865234375" lon="-1.5262801945209503173828125">
        <ele>649</ele>
        <time>2022-05-02T10:30:38.000Z</time>
      </trkpt>
      <trkpt lat="41.20983590371906757354736328125" lon="-1.52620919980108737945556640625">
        <ele>649</ele>
        <time>2022-05-02T10:30:40.000Z</time>
      </trkpt>
      <trkpt lat="41.209808997809886932373046875" lon="-1.526169888675212860107421875">
        <ele>649</ele>
        <time>2022-05-02T10:30:41.000Z</time>
      </trkpt>
      <trkpt lat="41.2097796611487865447998046875" lon="-1.526130326092243194580078125">
        <ele>649</ele>
        <time>2022-05-02T10:30:42.000Z</time>
      </trkpt>
      <trkpt lat="41.20971612632274627685546875" lon="-1.5260590799152851104736328125">
        <ele>649</ele>
        <time>2022-05-02T10:30:44.000Z</time>
      </trkpt>
      <trkpt lat="41.20965485461056232452392578125" lon="-1.52598741464316844940185546875">
        <ele>649</ele>
        <time>2022-05-02T10:30:46.000Z</time>
      </trkpt>
      <trkpt lat="41.20962560176849365234375" lon="-1.52595221064984798431396484375">
        <ele>649</ele>
        <time>2022-05-02T10:30:47.000Z</time>
      </trkpt>
      <trkpt lat="41.2095962651073932647705078125" lon="-1.52591935358941555023193359375">
        <ele>649.20001220703125</ele>
        <time>2022-05-02T10:30:48.000Z</time>
      </trkpt>
      <trkpt lat="41.20954404585063457489013671875" lon="-1.52585037052631378173828125">
        <ele>649.4000244140625</ele>
        <time>2022-05-02T10:30:50.000Z</time>
      </trkpt>
      <trkpt lat="41.20948738418519496917724609375" lon="-1.5257814712822437286376953125">
        <ele>649.5999755859375</ele>
        <time>2022-05-02T10:30:52.000Z</time>
      </trkpt>
      <trkpt lat="41.20945570059120655059814453125" lon="-1.525742076337337493896484375">
        <ele>649.5999755859375</ele>
        <time>2022-05-02T10:30:53.000Z</time>
      </trkpt>
      <trkpt lat="41.20942586101591587066650390625" lon="-1.52569740079343318939208984375">
        <ele>649.79998779296875</ele>
        <time>2022-05-02T10:30:54.000Z</time>
      </trkpt>
      <trkpt lat="41.20936500839889049530029296875" lon="-1.5256041102111339569091796875">
        <ele>650</ele>
        <time>2022-05-02T10:30:56.000Z</time>
      </trkpt>
      <trkpt lat="41.20930197648704051971435546875" lon="-1.5255135856568813323974609375">
        <ele>650.20001220703125</ele>
        <time>2022-05-02T10:30:58.000Z</time>
      </trkpt>
      <trkpt lat="41.20923911221325397491455078125" lon="-1.5254223905503749847412109375">
        <ele>650.4000244140625</ele>
        <time>2022-05-02T10:31:00.000Z</time>
      </trkpt>
      <trkpt lat="41.20917406864464282989501953125" lon="-1.5253335423767566680908203125">
        <ele>650.5999755859375</ele>
        <time>2022-05-02T10:31:02.000Z</time>
      </trkpt>
      <trkpt lat="41.2091134674847126007080078125" lon="-1.52525031007826328277587890625">
        <ele>650.79998779296875</ele>
        <time>2022-05-02T10:31:04.000Z</time>
      </trkpt>
      <trkpt lat="41.209081113338470458984375" lon="-1.525216363370418548583984375">
        <ele>650.79998779296875</ele>
        <time>2022-05-02T10:31:05.000Z</time>
      </trkpt>
      <trkpt lat="41.20904280804097652435302734375" lon="-1.52518115937709808349609375">
        <ele>650.4000244140625</ele>
        <time>2022-05-02T10:31:06.000Z</time>
      </trkpt>
      <trkpt lat="41.20900710113346576690673828125" lon="-1.52513849548995494842529296875">
        <ele>650.20001220703125</ele>
        <time>2022-05-02T10:31:07.000Z</time>
      </trkpt>
      <trkpt lat="41.20897575281560420989990234375" lon="-1.5250931493937969207763671875">
        <ele>650</ele>
        <time>2022-05-02T10:31:08.000Z</time>
      </trkpt>
      <trkpt lat="41.2089126370847225189208984375" lon="-1.52500949800014495849609375">
        <ele>649.4000244140625</ele>
        <time>2022-05-02T10:31:10.000Z</time>
      </trkpt>
      <trkpt lat="41.20884097181260585784912109375" lon="-1.5249355696141719818115234375">
        <ele>649.20001220703125</ele>
        <time>2022-05-02T10:31:12.000Z</time>
      </trkpt>
      <trkpt lat="41.20880392380058765411376953125" lon="-1.5249084122478961944580078125">
        <ele>649</ele>
        <time>2022-05-02T10:31:13.000Z</time>
      </trkpt>
      <trkpt lat="41.208766959607601165771484375" lon="-1.524886451661586761474609375">
        <ele>649</ele>
        <time>2022-05-02T10:31:14.000Z</time>
      </trkpt>
      <trkpt lat="41.20869294740259647369384765625" lon="-1.52483423240482807159423828125">
        <ele>649</ele>
        <time>2022-05-02T10:31:16.000Z</time>
      </trkpt>
      <trkpt lat="41.208607368171215057373046875" lon="-1.52476935647428035736083984375">
        <ele>649</ele>
        <time>2022-05-02T10:31:18.000Z</time>
      </trkpt>
      <trkpt lat="41.208559758961200714111328125" lon="-1.52474001981317996978759765625">
        <ele>649</ele>
        <time>2022-05-02T10:31:19.000Z</time>
      </trkpt>
      <trkpt lat="41.20851206593215465545654296875" lon="-1.52471252717077732086181640625">
        <ele>649</ele>
        <time>2022-05-02T10:31:20.000Z</time>
      </trkpt>
      <trkpt lat="41.2084170989692211151123046875" lon="-1.5246636606752872467041015625">
        <ele>649.4000244140625</ele>
        <time>2022-05-02T10:31:22.000Z</time>
      </trkpt>
      <trkpt lat="41.2083255685865879058837890625" lon="-1.52460909448564052581787109375">
        <ele>650</ele>
        <time>2022-05-02T10:31:24.000Z</time>
      </trkpt>
      <trkpt lat="41.2082803063094615936279296875" lon="-1.52458311058580875396728515625">
        <ele>650.4000244140625</ele>
        <time>2022-05-02T10:31:25.000Z</time>
      </trkpt>
      <trkpt lat="41.2082357145845890045166015625" lon="-1.52455880306661128997802734375">
        <ele>650.79998779296875</ele>
        <time>2022-05-02T10:31:26.000Z</time>
      </trkpt>
      <trkpt lat="41.20814795605838298797607421875" lon="-1.52451337315142154693603515625">
        <ele>652</ele>
        <time>2022-05-02T10:31:28.000Z</time>
      </trkpt>
      <trkpt lat="41.2080603651702404022216796875" lon="-1.52447045780718326568603515625">
        <ele>653</ele>
        <time>2022-05-02T10:31:30.000Z</time>
      </trkpt>
      <trkpt lat="41.2079679965972900390625" lon="-1.5244232676923274993896484375">
        <ele>654</ele>
        <time>2022-05-02T10:31:32.000Z</time>
      </trkpt>
      <trkpt lat="41.207883842289447784423828125" lon="-1.52436467818915843963623046875">
        <ele>654.5999755859375</ele>
        <time>2022-05-02T10:31:34.000Z</time>
      </trkpt>
      <trkpt lat="41.20780413039028644561767578125" lon="-1.52430399321019649505615234375">
        <ele>655.20001220703125</ele>
        <time>2022-05-02T10:31:36.000Z</time>
      </trkpt>
      <trkpt lat="41.20772458612918853759765625" lon="-1.52424900792539119720458984375">
        <ele>655.79998779296875</ele>
        <time>2022-05-02T10:31:38.000Z</time>
      </trkpt>
      <trkpt lat="41.20764872990548610687255859375" lon="-1.52419066987931728363037109375">
        <ele>655.79998779296875</ele>
        <time>2022-05-02T10:31:40.000Z</time>
      </trkpt>
      <trkpt lat="41.20757161639630794525146484375" lon="-1.5241317451000213623046875">
        <ele>655.5999755859375</ele>
        <time>2022-05-02T10:31:42.000Z</time>
      </trkpt>
      <trkpt lat="41.207493580877780914306640625" lon="-1.52406812645494937896728515625">
        <ele>655.20001220703125</ele>
        <time>2022-05-02T10:31:44.000Z</time>
      </trkpt>
      <trkpt lat="41.2074561975896358489990234375" lon="-1.524035520851612091064453125">
        <ele>654.79998779296875</ele>
        <time>2022-05-02T10:31:45.000Z</time>
      </trkpt>
      <trkpt lat="41.2074199877679347991943359375" lon="-1.52400006540119647979736328125">
        <ele>654.4000244140625</ele>
        <time>2022-05-02T10:31:46.000Z</time>
      </trkpt>
      <trkpt lat="41.2073492445051670074462890625" lon="-1.523926556110382080078125">
        <ele>654</ele>
        <time>2022-05-02T10:31:48.000Z</time>
      </trkpt>
      <trkpt lat="41.20731613598763942718505859375" lon="-1.52388808317482471466064453125">
        <ele>653.5999755859375</ele>
        <time>2022-05-02T10:31:49.000Z</time>
      </trkpt>
      <trkpt lat="41.20728462003171443939208984375" lon="-1.52384935878217220306396484375">
        <ele>653.4000244140625</ele>
        <time>2022-05-02T10:31:50.000Z</time>
      </trkpt>
      <trkpt lat="41.20721630752086639404296875" lon="-1.523776017129421234130859375">
        <ele>652.79998779296875</ele>
        <time>2022-05-02T10:31:52.000Z</time>
      </trkpt>
      <trkpt lat="41.20718437246978282928466796875" lon="-1.5237369574606418609619140625">
        <ele>652.5999755859375</ele>
        <time>2022-05-02T10:31:53.000Z</time>
      </trkpt>
      <trkpt lat="41.2071531079709529876708984375" lon="-1.52369714342057704925537109375">
        <ele>652.4000244140625</ele>
        <time>2022-05-02T10:31:54.000Z</time>
      </trkpt>
      <trkpt lat="41.2070927582681179046630859375" lon="-1.52361902408301830291748046875">
        <ele>652</ele>
        <time>2022-05-02T10:31:56.000Z</time>
      </trkpt>
      <trkpt lat="41.2070350907742977142333984375" lon="-1.52354073710739612579345703125">
        <ele>651.79998779296875</ele>
        <time>2022-05-02T10:31:58.000Z</time>
      </trkpt>
      <trkpt lat="41.20700499974191188812255859375" lon="-1.52350503019988536834716796875">
        <ele>651.5999755859375</ele>
        <time>2022-05-02T10:31:59.000Z</time>
      </trkpt>
      <trkpt lat="41.20697415433824062347412109375" lon="-1.523469574749469757080078125">
        <ele>651.4000244140625</ele>
        <time>2022-05-02T10:32:00.000Z</time>
      </trkpt>
      <trkpt lat="41.20691397227346897125244140625" lon="-1.52339455671608448028564453125">
        <ele>651.20001220703125</ele>
        <time>2022-05-02T10:32:02.000Z</time>
      </trkpt>
      <trkpt lat="41.20685295201838016510009765625" lon="-1.5233136713504791259765625">
        <ele>651</ele>
        <time>2022-05-02T10:32:04.000Z</time>
      </trkpt>
      <trkpt lat="41.20678958483040332794189453125" lon="-1.52323127724230289459228515625">
        <ele>650.79998779296875</ele>
        <time>2022-05-02T10:32:06.000Z</time>
      </trkpt>
      <trkpt lat="41.20675706304609775543212890625" lon="-1.52318936772644519805908203125">
        <ele>650.79998779296875</ele>
        <time>2022-05-02T10:32:07.000Z</time>
      </trkpt>
      <trkpt lat="41.20672588236629962921142578125" lon="-1.52314712293446063995361328125">
        <ele>650.79998779296875</ele>
        <time>2022-05-02T10:32:08.000Z</time>
      </trkpt>
      <trkpt lat="41.2066636048257350921630859375" lon="-1.52306196279823780059814453125">
        <ele>650.79998779296875</ele>
        <time>2022-05-02T10:32:10.000Z</time>
      </trkpt>
      <trkpt lat="41.20660350657999515533447265625" lon="-1.52297713793814182281494140625">
        <ele>650.5999755859375</ele>
        <time>2022-05-02T10:32:12.000Z</time>
      </trkpt>
      <trkpt lat="41.20654550381004810333251953125" lon="-1.52289164252579212188720703125">
        <ele>650.5999755859375</ele>
        <time>2022-05-02T10:32:14.000Z</time>
      </trkpt>
      <trkpt lat="41.2064895965158939361572265625" lon="-1.522807739675045013427734375">
        <ele>650.4000244140625</ele>
        <time>2022-05-02T10:32:16.000Z</time>
      </trkpt>
      <trkpt lat="41.206436119973659515380859375" lon="-1.5227187238633632659912109375">
        <ele>650.4000244140625</ele>
        <time>2022-05-02T10:32:18.000Z</time>
      </trkpt>
      <trkpt lat="41.20638549327850341796875" lon="-1.52262744493782520294189453125">
        <ele>650.20001220703125</ele>
        <time>2022-05-02T10:32:20.000Z</time>
      </trkpt>
      <trkpt lat="41.20633595623075962066650390625" lon="-1.5225252695381641387939453125">
        <ele>650</ele>
        <time>2022-05-02T10:32:22.000Z</time>
      </trkpt>
      <trkpt lat="41.20628901757299900054931640625" lon="-1.522422172129154205322265625">
        <ele>650.4000244140625</ele>
        <time>2022-05-02T10:32:24.000Z</time>
      </trkpt>
      <trkpt lat="41.2062378041446208953857421875" lon="-1.522316895425319671630859375">
        <ele>651</ele>
        <time>2022-05-02T10:32:26.000Z</time>
      </trkpt>
      <trkpt lat="41.20618826709687709808349609375" lon="-1.52221036143600940704345703125">
        <ele>651.4000244140625</ele>
        <time>2022-05-02T10:32:28.000Z</time>
      </trkpt>
      <trkpt lat="41.2061395682394504547119140625" lon="-1.52210525237023830413818359375">
        <ele>652</ele>
        <time>2022-05-02T10:32:30.000Z</time>
      </trkpt>
      <trkpt lat="41.2060953117907047271728515625" lon="-1.52200265787541866302490234375">
        <ele>652</ele>
        <time>2022-05-02T10:32:32.000Z</time>
      </trkpt>
      <trkpt lat="41.20604979805648326873779296875" lon="-1.521900482475757598876953125">
        <ele>652</ele>
        <time>2022-05-02T10:32:34.000Z</time>
      </trkpt>
      <trkpt lat="41.20600126683712005615234375" lon="-1.52179495431482791900634765625">
        <ele>652</ele>
        <time>2022-05-02T10:32:36.000Z</time>
      </trkpt>
      <trkpt lat="41.20595022104680538177490234375" lon="-1.5216937847435474395751953125">
        <ele>652.20001220703125</ele>
        <time>2022-05-02T10:32:38.000Z</time>
      </trkpt>
      <trkpt lat="41.2059005163609981536865234375" lon="-1.52159311808645725250244140625">
        <ele>652.79998779296875</ele>
        <time>2022-05-02T10:32:40.000Z</time>
      </trkpt>
      <trkpt lat="41.205845363438129425048828125" lon="-1.52149756439030170440673828125">
        <ele>653.20001220703125</ele>
        <time>2022-05-02T10:32:42.000Z</time>
      </trkpt>
      <trkpt lat="41.20578191243112087249755859375" lon="-1.5214084647595882415771484375">
        <ele>653.79998779296875</ele>
        <time>2022-05-02T10:32:44.000Z</time>
      </trkpt>
      <trkpt lat="41.20574570260941982269287109375" lon="-1.521374098956584930419921875">
        <ele>654</ele>
        <time>2022-05-02T10:32:45.000Z</time>
      </trkpt>
      <trkpt lat="41.20571234263479709625244140625" lon="-1.52134023606777191162109375">
        <ele>654.20001220703125</ele>
        <time>2022-05-02T10:32:46.000Z</time>
      </trkpt>
      <trkpt lat="41.20566423051059246063232421875" lon="-1.5212669782340526580810546875">
        <ele>654.4000244140625</ele>
        <time>2022-05-02T10:32:48.000Z</time>
      </trkpt>
      <trkpt lat="41.20563841424882411956787109375" lon="-1.521235965192317962646484375">
        <ele>654.4000244140625</ele>
        <time>2022-05-02T10:32:49.000Z</time>
      </trkpt>
      <trkpt lat="41.20561460964381694793701171875" lon="-1.52120956219732761383056640625">
        <ele>654.5999755859375</ele>
        <time>2022-05-02T10:32:50.000Z</time>
      </trkpt>
      <trkpt lat="41.20558912865817546844482421875" lon="-1.52119179256260395050048828125">
        <ele>655</ele>
        <time>2022-05-02T10:32:51.000Z</time>
      </trkpt>
      <trkpt lat="41.2055647373199462890625" lon="-1.521187014877796173095703125">
        <ele>655</ele>
        <time>2022-05-02T10:32:52.000Z</time>
      </trkpt>
      <trkpt lat="41.20553799904882907867431640625" lon="-1.52119330130517482757568359375">
        <ele>655.20001220703125</ele>
        <time>2022-05-02T10:32:53.000Z</time>
      </trkpt>
      <trkpt lat="41.20551452971994876861572265625" lon="-1.5212119929492473602294921875">
        <ele>655.4000244140625</ele>
        <time>2022-05-02T10:32:54.000Z</time>
      </trkpt>
      <trkpt lat="41.20547781698405742645263671875" lon="-1.52125482447445392608642578125">
        <ele>655.4000244140625</ele>
        <time>2022-05-02T10:32:56.000Z</time>
      </trkpt>
      <trkpt lat="41.20545543730258941650390625" lon="-1.52127510868012905120849609375">
        <ele>655.4000244140625</ele>
        <time>2022-05-02T10:32:57.000Z</time>
      </trkpt>
      <trkpt lat="41.20542903430759906768798828125" lon="-1.521293632686138153076171875">
        <ele>655.5999755859375</ele>
        <time>2022-05-02T10:32:58.000Z</time>
      </trkpt>
      <trkpt lat="41.20537019334733486175537109375" lon="-1.52131450362503528594970703125">
        <ele>655.5999755859375</ele>
        <time>2022-05-02T10:33:00.000Z</time>
      </trkpt>
      <trkpt lat="41.20534068904817104339599609375" lon="-1.5213219635188579559326171875">
        <ele>655.79998779296875</ele>
        <time>2022-05-02T10:33:01.000Z</time>
      </trkpt>
      <trkpt lat="41.2053112685680389404296875" lon="-1.52132724411785602569580078125">
        <ele>655.79998779296875</ele>
        <time>2022-05-02T10:33:02.000Z</time>
      </trkpt>
      <trkpt lat="41.20525502599775791168212890625" lon="-1.52133881114423274993896484375">
        <ele>656</ele>
        <time>2022-05-02T10:33:04.000Z</time>
      </trkpt>
      <trkpt lat="41.20520196855068206787109375" lon="-1.5213476121425628662109375">
        <ele>656</ele>
        <time>2022-05-02T10:33:06.000Z</time>
      </trkpt>
      <trkpt lat="41.205177493393421173095703125" lon="-1.52134652249515056610107421875">
        <ele>656</ele>
        <time>2022-05-02T10:33:07.000Z</time>
      </trkpt>
      <trkpt lat="41.20514941401779651641845703125" lon="-1.52134652249515056610107421875">
        <ele>656.20001220703125</ele>
        <time>2022-05-02T10:33:08.000Z</time>
      </trkpt>
      <trkpt lat="41.20511789806187152862548828125" lon="-1.521346271038055419921875">
        <ele>656.20001220703125</ele>
        <time>2022-05-02T10:33:09.000Z</time>
      </trkpt>
      <trkpt lat="41.20508797466754913330078125" lon="-1.5213449299335479736328125">
        <ele>656.4000244140625</ele>
        <time>2022-05-02T10:33:10.000Z</time>
      </trkpt>
      <trkpt lat="41.2050301395356655120849609375" lon="-1.52134736068546772003173828125">
        <ele>656.5999755859375</ele>
        <time>2022-05-02T10:33:12.000Z</time>
      </trkpt>
      <trkpt lat="41.2050002999603748321533203125" lon="-1.521353982388973236083984375">
        <ele>656.79998779296875</ele>
        <time>2022-05-02T10:33:13.000Z</time>
      </trkpt>
      <trkpt lat="41.2049718014895915985107421875" lon="-1.52136211283504962921142578125">
        <ele>656.79998779296875</ele>
        <time>2022-05-02T10:33:14.000Z</time>
      </trkpt>
      <trkpt lat="41.20491203851997852325439453125" lon="-1.52136546559631824493408203125">
        <ele>657</ele>
        <time>2022-05-02T10:33:16.000Z</time>
      </trkpt>
      <trkpt lat="41.20484883897006511688232421875" lon="-1.521373428404331207275390625">
        <ele>657.4000244140625</ele>
        <time>2022-05-02T10:33:18.000Z</time>
      </trkpt>
      <trkpt lat="41.20478832162916660308837890625" lon="-1.52138742618262767791748046875">
        <ele>658</ele>
        <time>2022-05-02T10:33:20.000Z</time>
      </trkpt>
      <trkpt lat="41.2047304026782512664794921875" lon="-1.5214084647595882415771484375">
        <ele>658.4000244140625</ele>
        <time>2022-05-02T10:33:22.000Z</time>
      </trkpt>
      <trkpt lat="41.20466644875705242156982421875" lon="-1.5214336104691028594970703125">
        <ele>658.5999755859375</ele>
        <time>2022-05-02T10:33:24.000Z</time>
      </trkpt>
      <trkpt lat="41.2046361900866031646728515625" lon="-1.5214522182941436767578125">
        <ele>658.79998779296875</ele>
        <time>2022-05-02T10:33:25.000Z</time>
      </trkpt>
      <trkpt lat="41.2046070210635662078857421875" lon="-1.521471329033374786376953125">
        <ele>659</ele>
        <time>2022-05-02T10:33:26.000Z</time>
      </trkpt>
      <trkpt lat="41.20457877404987812042236328125" lon="-1.5214885957539081573486328125">
        <ele>659.20001220703125</ele>
        <time>2022-05-02T10:33:27.000Z</time>
      </trkpt>
      <trkpt lat="41.20455245487391948699951171875" lon="-1.52150519192218780517578125">
        <ele>659.20001220703125</ele>
        <time>2022-05-02T10:33:28.000Z</time>
      </trkpt>
      <trkpt lat="41.20450057089328765869140625" lon="-1.5215439163148403167724609375">
        <ele>659.4000244140625</ele>
        <time>2022-05-02T10:33:30.000Z</time>
      </trkpt>
      <trkpt lat="41.204454638063907623291015625" lon="-1.5215881727635860443115234375">
        <ele>659.5999755859375</ele>
        <time>2022-05-02T10:33:32.000Z</time>
      </trkpt>
      <trkpt lat="41.2044152431190013885498046875" lon="-1.5216330997645854949951171875">
        <ele>659.79998779296875</ele>
        <time>2022-05-02T10:33:34.000Z</time>
      </trkpt>
      <trkpt lat="41.20439462363719940185546875" lon="-1.52165464125573635101318359375">
        <ele>659.79998779296875</ele>
        <time>2022-05-02T10:33:35.000Z</time>
      </trkpt>
      <trkpt lat="41.204374171793460845947265625" lon="-1.5216726623475551605224609375">
        <ele>660</ele>
        <time>2022-05-02T10:33:36.000Z</time>
      </trkpt>
      <trkpt lat="41.20433234609663486480712890625" lon="-1.5217041783034801483154296875">
        <ele>660.20001220703125</ele>
        <time>2022-05-02T10:33:38.000Z</time>
      </trkpt>
      <trkpt lat="41.20429412461817264556884765625" lon="-1.521729491651058197021484375">
        <ele>660.20001220703125</ele>
        <time>2022-05-02T10:33:40.000Z</time>
      </trkpt>
      <trkpt lat="41.2042476050555706024169921875" lon="-1.521748937666416168212890625">
        <ele>660.4000244140625</ele>
        <time>2022-05-02T10:33:42.000Z</time>
      </trkpt>
      <trkpt lat="41.2041999958455562591552734375" lon="-1.52176695875823497772216796875">
        <ele>660.5999755859375</ele>
        <time>2022-05-02T10:33:44.000Z</time>
      </trkpt>
      <trkpt lat="41.20415666140615940093994140625" lon="-1.5217786096036434173583984375">
        <ele>660.79998779296875</ele>
        <time>2022-05-02T10:33:46.000Z</time>
      </trkpt>
      <trkpt lat="41.2041121535003185272216796875" lon="-1.5217967145144939422607421875">
        <ele>661</ele>
        <time>2022-05-02T10:33:48.000Z</time>
      </trkpt>
      <trkpt lat="41.20407183654606342315673828125" lon="-1.521825380623340606689453125">
        <ele>661</ele>
        <time>2022-05-02T10:33:50.000Z</time>
      </trkpt>
      <trkpt lat="41.2040350399911403656005859375" lon="-1.52185798622667789459228515625">
        <ele>661.4000244140625</ele>
        <time>2022-05-02T10:33:52.000Z</time>
      </trkpt>
      <trkpt lat="41.20400561951100826263427734375" lon="-1.521899141371250152587890625">
        <ele>661.5999755859375</ele>
        <time>2022-05-02T10:33:54.000Z</time>
      </trkpt>
      <trkpt lat="41.20398181490600109100341796875" lon="-1.52194918133318424224853515625">
        <ele>661.79998779296875</ele>
        <time>2022-05-02T10:33:56.000Z</time>
      </trkpt>
      <trkpt lat="41.20397075079381465911865234375" lon="-1.521972902119159698486328125">
        <ele>661.79998779296875</ele>
        <time>2022-05-02T10:33:57.000Z</time>
      </trkpt>
      <trkpt lat="41.20396077632904052734375" lon="-1.52199712581932544708251953125">
        <ele>662</ele>
        <time>2022-05-02T10:33:58.000Z</time>
      </trkpt>
      <trkpt lat="41.20393672026693820953369140625" lon="-1.5220458246767520904541015625">
        <ele>662.4000244140625</ele>
        <time>2022-05-02T10:34:00.000Z</time>
      </trkpt>
      <trkpt lat="41.2039243988692760467529296875" lon="-1.52207004837691783905029296875">
        <ele>662.5999755859375</ele>
        <time>2022-05-02T10:34:01.000Z</time>
      </trkpt>
      <trkpt lat="41.2039129994809627532958984375" lon="-1.52209335006773471832275390625">
        <ele>662.79998779296875</ele>
        <time>2022-05-02T10:34:02.000Z</time>
      </trkpt>
      <trkpt lat="41.20388776995241641998291015625" lon="-1.5221397019922733306884765625">
        <ele>663</ele>
        <time>2022-05-02T10:34:04.000Z</time>
      </trkpt>
      <trkpt lat="41.203855834901332855224609375" lon="-1.52218186296522617340087890625">
        <ele>663.4000244140625</ele>
        <time>2022-05-02T10:34:06.000Z</time>
      </trkpt>
      <trkpt lat="41.203818954527378082275390625" lon="-1.52221941389143466949462890625">
        <ele>663.79998779296875</ele>
        <time>2022-05-02T10:34:08.000Z</time>
      </trkpt>
      <trkpt lat="41.20378182269632816314697265625" lon="-1.52225646190345287322998046875">
        <ele>664.20001220703125</ele>
        <time>2022-05-02T10:34:10.000Z</time>
      </trkpt>
      <trkpt lat="41.20374309830367565155029296875" lon="-1.5222905762493610382080078125">
        <ele>664.5999755859375</ele>
        <time>2022-05-02T10:34:12.000Z</time>
      </trkpt>
      <trkpt lat="41.203704960644245147705078125" lon="-1.522326953709125518798828125">
        <ele>665</ele>
        <time>2022-05-02T10:34:14.000Z</time>
      </trkpt>
      <trkpt lat="41.20366640388965606689453125" lon="-1.52236559428274631500244140625">
        <ele>665.5999755859375</ele>
        <time>2022-05-02T10:34:16.000Z</time>
      </trkpt>
      <trkpt lat="41.20363027788698673248291015625" lon="-1.5224075876176357269287109375">
        <ele>666</ele>
        <time>2022-05-02T10:34:18.000Z</time>
      </trkpt>
      <trkpt lat="41.20359322987496852874755859375" lon="-1.52245192788541316986083984375">
        <ele>666.4000244140625</ele>
        <time>2022-05-02T10:34:20.000Z</time>
      </trkpt>
      <trkpt lat="41.20357654988765716552734375" lon="-1.5224756486713886260986328125">
        <ele>666.5999755859375</ele>
        <time>2022-05-02T10:34:21.000Z</time>
      </trkpt>
      <trkpt lat="41.20355869643390178680419921875" lon="-1.522499620914459228515625">
        <ele>666.79998779296875</ele>
        <time>2022-05-02T10:34:22.000Z</time>
      </trkpt>
      <trkpt lat="41.20352298952639102935791015625" lon="-1.52254915796220302581787109375">
        <ele>667.5999755859375</ele>
        <time>2022-05-02T10:34:24.000Z</time>
      </trkpt>
      <trkpt lat="41.20348644442856311798095703125" lon="-1.5225940011441707611083984375">
        <ele>668.4000244140625</ele>
        <time>2022-05-02T10:34:26.000Z</time>
      </trkpt>
      <trkpt lat="41.2034536711871623992919921875" lon="-1.52264035306870937347412109375">
        <ele>669.20001220703125</ele>
        <time>2022-05-02T10:34:28.000Z</time>
      </trkpt>
      <trkpt lat="41.2034405954182147979736328125" lon="-1.522663570940494537353515625">
        <ele>669.5999755859375</ele>
        <time>2022-05-02T10:34:29.000Z</time>
      </trkpt>
      <trkpt lat="41.203426010906696319580078125" lon="-1.52268477715551853179931640625">
        <ele>670</ele>
        <time>2022-05-02T10:34:30.000Z</time>
      </trkpt>
      <trkpt lat="41.20340715162456035614013671875" lon="-1.52269835583865642547607421875">
        <ele>670.4000244140625</ele>
        <time>2022-05-02T10:34:31.000Z</time>
      </trkpt>
      <trkpt lat="41.20338552631437778472900390625" lon="-1.5227026306092739105224609375">
        <ele>670.5999755859375</ele>
        <time>2022-05-02T10:34:32.000Z</time>
      </trkpt>
      <trkpt lat="41.20336725376546382904052734375" lon="-1.52269902639091014862060546875">
        <ele>670.79998779296875</ele>
        <time>2022-05-02T10:34:33.000Z</time>
      </trkpt>
      <trkpt lat="41.203350909054279327392578125" lon="-1.522691063582897186279296875">
        <ele>671</ele>
        <time>2022-05-02T10:34:34.000Z</time>
      </trkpt>
      <trkpt lat="41.20331528596580028533935546875" lon="-1.522668264806270599365234375">
        <ele>671</ele>
        <time>2022-05-02T10:34:36.000Z</time>
      </trkpt>
      <trkpt lat="41.203269101679325103759765625" lon="-1.5226412750780582427978515625">
        <ele>671.20001220703125</ele>
        <time>2022-05-02T10:34:38.000Z</time>
      </trkpt>
      <trkpt lat="41.203211434185504913330078125" lon="-1.52261185459792613983154296875">
        <ele>671.5999755859375</ele>
        <time>2022-05-02T10:34:40.000Z</time>
      </trkpt>
      <trkpt lat="41.20313800871372222900390625" lon="-1.5225819312036037445068359375">
        <ele>672</ele>
        <time>2022-05-02T10:34:42.000Z</time>
      </trkpt>
      <trkpt lat="41.2030510045588016510009765625" lon="-1.52254781685769557952880859375">
        <ele>672</ele>
        <time>2022-05-02T10:34:44.000Z</time>
      </trkpt>
      <trkpt lat="41.20300632901489734649658203125" lon="-1.522530131042003631591796875">
        <ele>672.20001220703125</ele>
        <time>2022-05-02T10:34:45.000Z</time>
      </trkpt>
      <trkpt lat="41.202960312366485595703125" lon="-1.52251504361629486083984375">
        <ele>672.20001220703125</ele>
        <time>2022-05-02T10:34:46.000Z</time>
      </trkpt>
      <trkpt lat="41.20286802761256694793701171875" lon="-1.5224984474480152130126953125">
        <ele>672.5999755859375</ele>
        <time>2022-05-02T10:34:48.000Z</time>
      </trkpt>
      <trkpt lat="41.202823184430599212646484375" lon="-1.5224967710673809051513671875">
        <ele>673</ele>
        <time>2022-05-02T10:34:49.000Z</time>
      </trkpt>
      <trkpt lat="41.202780269086360931396484375" lon="-1.5224984474480152130126953125">
        <ele>673.4000244140625</ele>
        <time>2022-05-02T10:34:50.000Z</time>
      </trkpt>
      <trkpt lat="41.202740035951137542724609375" lon="-1.52249953709542751312255859375">
        <ele>673.5999755859375</ele>
        <time>2022-05-02T10:34:51.000Z</time>
      </trkpt>
      <trkpt lat="41.2026996351778507232666015625" lon="-1.5224971063435077667236328125">
        <ele>673.79998779296875</ele>
        <time>2022-05-02T10:34:52.000Z</time>
      </trkpt>
      <trkpt lat="41.202627383172512054443359375" lon="-1.5224857069551944732666015625">
        <ele>674</ele>
        <time>2022-05-02T10:34:54.000Z</time>
      </trkpt>
      <trkpt lat="41.20256359688937664031982421875" lon="-1.52247305028140544891357421875">
        <ele>674</ele>
        <time>2022-05-02T10:34:56.000Z</time>
      </trkpt>
      <trkpt lat="41.20250274427235126495361328125" lon="-1.52246215380728244781494140625">
        <ele>674</ele>
        <time>2022-05-02T10:34:58.000Z</time>
      </trkpt>
      <trkpt lat="41.2024439871311187744140625" lon="-1.52245159260928630828857421875">
        <ele>674.20001220703125</ele>
        <time>2022-05-02T10:35:00.000Z</time>
      </trkpt>
      <trkpt lat="41.2023824639618396759033203125" lon="-1.5224419534206390380859375">
        <ele>674.4000244140625</ele>
        <time>2022-05-02T10:35:02.000Z</time>
      </trkpt>
      <trkpt lat="41.2023184262216091156005859375" lon="-1.52242778800427913665771484375">
        <ele>674.5999755859375</ele>
        <time>2022-05-02T10:35:04.000Z</time>
      </trkpt>
      <trkpt lat="41.2022562325000762939453125" lon="-1.5224042348563671112060546875">
        <ele>674.5999755859375</ele>
        <time>2022-05-02T10:35:06.000Z</time>
      </trkpt>
      <trkpt lat="41.20219831354916095733642578125" lon="-1.52237481437623500823974609375">
        <ele>674.4000244140625</ele>
        <time>2022-05-02T10:35:08.000Z</time>
      </trkpt>
      <trkpt lat="41.20214098133146762847900390625" lon="-1.522342376410961151123046875">
        <ele>674</ele>
        <time>2022-05-02T10:35:10.000Z</time>
      </trkpt>
      <trkpt lat="41.20211482979357242584228515625" lon="-1.52232402004301548004150390625">
        <ele>674</ele>
        <time>2022-05-02T10:35:11.000Z</time>
      </trkpt>
      <trkpt lat="41.20208767242729663848876953125" lon="-1.52230608277022838592529296875">
        <ele>674</ele>
        <time>2022-05-02T10:35:12.000Z</time>
      </trkpt>
      <trkpt lat="41.20203704573214054107666015625" lon="-1.52226551435887813568115234375">
        <ele>673.5999755859375</ele>
        <time>2022-05-02T10:35:14.000Z</time>
      </trkpt>
      <trkpt lat="41.201989017426967620849609375" lon="-1.52222997508943080902099609375">
        <ele>673.20001220703125</ele>
        <time>2022-05-02T10:35:16.000Z</time>
      </trkpt>
      <trkpt lat="41.20193906128406524658203125" lon="-1.5221956931054592132568359375">
        <ele>673</ele>
        <time>2022-05-02T10:35:18.000Z</time>
      </trkpt>
      <trkpt lat="41.20191316120326519012451171875" lon="-1.5221775881946086883544921875">
        <ele>672.79998779296875</ele>
        <time>2022-05-02T10:35:19.000Z</time>
      </trkpt>
      <trkpt lat="41.2018832378089427947998046875" lon="-1.52216099202632904052734375">
        <ele>672.79998779296875</ele>
        <time>2022-05-02T10:35:20.000Z</time>
      </trkpt>
      <trkpt lat="41.20185264386236667633056640625" lon="-1.52214280329644680023193359375">
        <ele>672.79998779296875</ele>
        <time>2022-05-02T10:35:21.000Z</time>
      </trkpt>
      <trkpt lat="41.20181827805936336517333984375" lon="-1.522123776376247406005859375">
        <ele>673.20001220703125</ele>
        <time>2022-05-02T10:35:22.000Z</time>
      </trkpt>
      <trkpt lat="41.20178106240928173065185546875" lon="-1.52210558764636516571044921875">
        <ele>673.4000244140625</ele>
        <time>2022-05-02T10:35:23.000Z</time>
      </trkpt>
      <trkpt lat="41.2017417512834072113037109375" lon="-1.522091589868068695068359375">
        <ele>673.79998779296875</ele>
        <time>2022-05-02T10:35:24.000Z</time>
      </trkpt>
      <trkpt lat="41.20166740380227565765380859375" lon="-1.522070132195949554443359375">
        <ele>674.20001220703125</ele>
        <time>2022-05-02T10:35:26.000Z</time>
      </trkpt>
      <trkpt lat="41.2016071379184722900390625" lon="-1.52203987352550029754638671875">
        <ele>674.4000244140625</ele>
        <time>2022-05-02T10:35:28.000Z</time>
      </trkpt>
      <trkpt lat="41.2015509791672229766845703125" lon="-1.5220039151608943939208984375">
        <ele>674.5999755859375</ele>
        <time>2022-05-02T10:35:30.000Z</time>
      </trkpt>
      <trkpt lat="41.20149591006338596343994140625" lon="-1.5219697169959545135498046875">
        <ele>675.4000244140625</ele>
        <time>2022-05-02T10:35:32.000Z</time>
      </trkpt>
      <trkpt lat="41.2014446966350078582763671875" lon="-1.5219281427562236785888671875">
        <ele>676.4000244140625</ele>
        <time>2022-05-02T10:35:34.000Z</time>
      </trkpt>
      <trkpt lat="41.201392225921154022216796875" lon="-1.52187994681298732757568359375">
        <ele>677.4000244140625</ele>
        <time>2022-05-02T10:35:36.000Z</time>
      </trkpt>
      <trkpt lat="41.20136699639260768890380859375" lon="-1.5218463353812694549560546875">
        <ele>677.4000244140625</ele>
        <time>2022-05-02T10:35:37.000Z</time>
      </trkpt>
      <trkpt lat="41.2013415992259979248046875" lon="-1.52181498706340789794921875">
        <ele>677.4000244140625</ele>
        <time>2022-05-02T10:35:38.000Z</time>
      </trkpt>
      <trkpt lat="41.2012901343405246734619140625" lon="-1.52176561765372753143310546875">
        <ele>677.79998779296875</ele>
        <time>2022-05-02T10:35:40.000Z</time>
      </trkpt>
      <trkpt lat="41.20122752152383327484130859375" lon="-1.52171708643436431884765625">
        <ele>678.4000244140625</ele>
        <time>2022-05-02T10:35:42.000Z</time>
      </trkpt>
      <trkpt lat="41.2011913955211639404296875" lon="-1.52169537730515003204345703125">
        <ele>678.79998779296875</ele>
        <time>2022-05-02T10:35:43.000Z</time>
      </trkpt>
      <trkpt lat="41.20115627534687519073486328125" lon="-1.5216649509966373443603515625">
        <ele>679.20001220703125</ele>
        <time>2022-05-02T10:35:44.000Z</time>
      </trkpt>
      <trkpt lat="41.20108955539762973785400390625" lon="-1.521594710648059844970703125">
        <ele>679.4000244140625</ele>
        <time>2022-05-02T10:35:46.000Z</time>
      </trkpt>
      <trkpt lat="41.201029457151889801025390625" lon="-1.5215164236724376678466796875">
        <ele>679.20001220703125</ele>
        <time>2022-05-02T10:35:48.000Z</time>
      </trkpt>
      <trkpt lat="41.20097740553319454193115234375" lon="-1.5214269049465656280517578125">
        <ele>678</ele>
        <time>2022-05-02T10:35:50.000Z</time>
      </trkpt>
      <trkpt lat="41.20092384517192840576171875" lon="-1.521313749253749847412109375">
        <ele>676.4000244140625</ele>
        <time>2022-05-02T10:35:52.000Z</time>
      </trkpt>
      <trkpt lat="41.200877241790294647216796875" lon="-1.5211865119636058807373046875">
        <ele>674.79998779296875</ele>
        <time>2022-05-02T10:35:54.000Z</time>
      </trkpt>
      <trkpt lat="41.2008405290544033050537109375" lon="-1.52106354944407939910888671875">
        <ele>673.5999755859375</ele>
        <time>2022-05-02T10:35:56.000Z</time>
      </trkpt>
      <trkpt lat="41.20080758817493915557861328125" lon="-1.5209488011896610260009765625">
        <ele>672.20001220703125</ele>
        <time>2022-05-02T10:35:58.000Z</time>
      </trkpt>
      <trkpt lat="41.20076701976358890533447265625" lon="-1.520853079855442047119140625">
        <ele>671</ele>
        <time>2022-05-02T10:36:00.000Z</time>
      </trkpt>
      <trkpt lat="41.2007101066410541534423828125" lon="-1.52074889279901981353759765625">
        <ele>670.79998779296875</ele>
        <time>2022-05-02T10:36:02.000Z</time>
      </trkpt>
      <trkpt lat="41.20063684880733489990234375" lon="-1.52064478956162929534912109375">
        <ele>671.20001220703125</ele>
        <time>2022-05-02T10:36:04.000Z</time>
      </trkpt>
      <trkpt lat="41.20055076666176319122314453125" lon="-1.520552672445774078369140625">
        <ele>670.79998779296875</ele>
        <time>2022-05-02T10:36:06.000Z</time>
      </trkpt>
      <trkpt lat="41.20050919242203235626220703125" lon="-1.5205173008143901824951171875">
        <ele>670.5999755859375</ele>
        <time>2022-05-02T10:36:07.000Z</time>
      </trkpt>
      <trkpt lat="41.2004697136580944061279296875" lon="-1.5204812586307525634765625">
        <ele>670.4000244140625</ele>
        <time>2022-05-02T10:36:08.000Z</time>
      </trkpt>
      <trkpt lat="41.200385726988315582275390625" lon="-1.52040188200771808624267578125">
        <ele>671</ele>
        <time>2022-05-02T10:36:10.000Z</time>
      </trkpt>
      <trkpt lat="41.20030693709850311279296875" lon="-1.520317979156970977783203125">
        <ele>671.5999755859375</ele>
        <time>2022-05-02T10:36:12.000Z</time>
      </trkpt>
      <trkpt lat="41.20023124851286411285400390625" lon="-1.52024279348552227020263671875">
        <ele>672.4000244140625</ele>
        <time>2022-05-02T10:36:14.000Z</time>
      </trkpt>
      <trkpt lat="41.200194619596004486083984375" lon="-1.52021597139537334442138671875">
        <ele>672.5999755859375</ele>
        <time>2022-05-02T10:36:15.000Z</time>
      </trkpt>
      <trkpt lat="41.20015966705977916717529296875" lon="-1.5201904065907001495361328125">
        <ele>673.20001220703125</ele>
        <time>2022-05-02T10:36:16.000Z</time>
      </trkpt>
      <trkpt lat="41.200122199952602386474609375" lon="-1.52016274631023406982421875">
        <ele>673.79998779296875</ele>
        <time>2022-05-02T10:36:17.000Z</time>
      </trkpt>
      <trkpt lat="41.2000831402838230133056640625" lon="-1.520138941705226898193359375">
        <ele>674.4000244140625</ele>
        <time>2022-05-02T10:36:18.000Z</time>
      </trkpt>
      <trkpt lat="41.2000070326030254364013671875" lon="-1.52007289230823516845703125">
        <ele>676</ele>
        <time>2022-05-02T10:36:20.000Z</time>
      </trkpt>
      <trkpt lat="41.1999683082103729248046875" lon="-1.52003140188753604888916015625">
        <ele>676.5999755859375</ele>
        <time>2022-05-02T10:36:21.000Z</time>
      </trkpt>
      <trkpt lat="41.19993318803608417510986328125" lon="-1.51997792534530162811279296875">
        <ele>676.79998779296875</ele>
        <time>2022-05-02T10:36:22.000Z</time>
      </trkpt>
      <trkpt lat="41.19988708756864070892333984375" lon="-1.519856639206409454345703125">
        <ele>674.5999755859375</ele>
        <time>2022-05-02T10:36:24.000Z</time>
      </trkpt>
      <trkpt lat="41.1998705752193927764892578125" lon="-1.51979838497936725616455078125">
        <ele>673.4000244140625</ele>
        <time>2022-05-02T10:36:25.000Z</time>
      </trkpt>
      <trkpt lat="41.1998544819653034210205078125" lon="-1.5197387896478176116943359375">
        <ele>673</ele>
        <time>2022-05-02T10:36:26.000Z</time>
      </trkpt>
      <trkpt lat="41.1998246423900127410888671875" lon="-1.519620604813098907470703125">
        <ele>672</ele>
        <time>2022-05-02T10:36:28.000Z</time>
      </trkpt>
      <trkpt lat="41.19980645366013050079345703125" lon="-1.5195607580244541168212890625">
        <ele>671.5999755859375</ele>
        <time>2022-05-02T10:36:29.000Z</time>
      </trkpt>
      <trkpt lat="41.199786923825740814208984375" lon="-1.5195022523403167724609375">
        <ele>671.20001220703125</ele>
        <time>2022-05-02T10:36:30.000Z</time>
      </trkpt>
      <trkpt lat="41.19974442757666110992431640625" lon="-1.51939203031361103057861328125">
        <ele>670.5999755859375</ele>
        <time>2022-05-02T10:36:32.000Z</time>
      </trkpt>
      <trkpt lat="41.19969933293759822845458984375" lon="-1.51928826235234737396240234375">
        <ele>669.4000244140625</ele>
        <time>2022-05-02T10:36:34.000Z</time>
      </trkpt>
      <trkpt lat="41.199670918285846710205078125" lon="-1.51923545636236667633056640625">
        <ele>668.79998779296875</ele>
        <time>2022-05-02T10:36:35.000Z</time>
      </trkpt>
      <trkpt lat="41.199636720120906829833984375" lon="-1.51918105781078338623046875">
        <ele>668.20001220703125</ele>
        <time>2022-05-02T10:36:36.000Z</time>
      </trkpt>
      <trkpt lat="41.19959975592792034149169921875" lon="-1.51912548579275608062744140625">
        <ele>667.79998779296875</ele>
        <time>2022-05-02T10:36:37.000Z</time>
      </trkpt>
      <trkpt lat="41.19956052862107753753662109375" lon="-1.51906379498541355133056640625">
        <ele>667.4000244140625</ele>
        <time>2022-05-02T10:36:38.000Z</time>
      </trkpt>
      <trkpt lat="41.19948358274996280670166015625" lon="-1.5189425088465213775634765625">
        <ele>666.20001220703125</ele>
        <time>2022-05-02T10:36:40.000Z</time>
      </trkpt>
      <trkpt lat="41.19940831325948238372802734375" lon="-1.51883295737206935882568359375">
        <ele>665.79998779296875</ele>
        <time>2022-05-02T10:36:42.000Z</time>
      </trkpt>
      <trkpt lat="41.19937084615230560302734375" lon="-1.51878501288592815399169921875">
        <ele>665.4000244140625</ele>
        <time>2022-05-02T10:36:43.000Z</time>
      </trkpt>
      <trkpt lat="41.19932717643678188323974609375" lon="-1.51874377392232418060302734375">
        <ele>665</ele>
        <time>2022-05-02T10:36:44.000Z</time>
      </trkpt>
      <trkpt lat="41.199281327426433563232421875" lon="-1.51870488189160823822021484375">
        <ele>664.79998779296875</ele>
        <time>2022-05-02T10:36:45.000Z</time>
      </trkpt>
      <trkpt lat="41.19922910816967487335205078125" lon="-1.5186729468405246734619140625">
        <ele>664.79998779296875</ele>
        <time>2022-05-02T10:36:46.000Z</time>
      </trkpt>
      <trkpt lat="41.1991121806204319000244140625" lon="-1.518657691776752471923828125">
        <ele>665.4000244140625</ele>
        <time>2022-05-02T10:36:48.000Z</time>
      </trkpt>
      <trkpt lat="41.19904772378504276275634765625" lon="-1.518664397299289703369140625">
        <ele>665.5999755859375</ele>
        <time>2022-05-02T10:36:49.000Z</time>
      </trkpt>
      <trkpt lat="41.19898033328354358673095703125" lon="-1.51866951026022434234619140625">
        <ele>665.5999755859375</ele>
        <time>2022-05-02T10:36:50.000Z</time>
      </trkpt>
      <trkpt lat="41.1989115178585052490234375" lon="-1.5186649002134799957275390625">
        <ele>665.5999755859375</ele>
        <time>2022-05-02T10:36:51.000Z</time>
      </trkpt>
      <trkpt lat="41.1988444626331329345703125" lon="-1.518655009567737579345703125">
        <ele>665.4000244140625</ele>
        <time>2022-05-02T10:36:52.000Z</time>
      </trkpt>
      <trkpt lat="41.19877899996936321258544921875" lon="-1.51864101178944110870361328125">
        <ele>665.20001220703125</ele>
        <time>2022-05-02T10:36:53.000Z</time>
      </trkpt>
      <trkpt lat="41.1987175606191158294677734375" lon="-1.518626846373081207275390625">
        <ele>665</ele>
        <time>2022-05-02T10:36:54.000Z</time>
      </trkpt>
      <trkpt lat="41.19860834442079067230224609375" lon="-1.51860999874770641326904296875">
        <ele>665</ele>
        <time>2022-05-02T10:36:56.000Z</time>
      </trkpt>
      <trkpt lat="41.198506839573383331298828125" lon="-1.51861435733735561370849609375">
        <ele>665.20001220703125</ele>
        <time>2022-05-02T10:36:58.000Z</time>
      </trkpt>
      <trkpt lat="41.1984117887914180755615234375" lon="-1.51862584054470062255859375">
        <ele>665.79998779296875</ele>
        <time>2022-05-02T10:37:00.000Z</time>
      </trkpt>
      <trkpt lat="41.19836661033332347869873046875" lon="-1.5186317078769207000732421875">
        <ele>666.20001220703125</ele>
        <time>2022-05-02T10:37:01.000Z</time>
      </trkpt>
      <trkpt lat="41.19832285679876804351806640625" lon="-1.518645621836185455322265625">
        <ele>666.5999755859375</ele>
        <time>2022-05-02T10:37:02.000Z</time>
      </trkpt>
      <trkpt lat="41.198278851807117462158203125" lon="-1.51866565458476543426513671875">
        <ele>667</ele>
        <time>2022-05-02T10:37:03.000Z</time>
      </trkpt>
      <trkpt lat="41.19823920540511608123779296875" lon="-1.51868912391364574432373046875">
        <ele>667.20001220703125</ele>
        <time>2022-05-02T10:37:04.000Z</time>
      </trkpt>
      <trkpt lat="41.19816360063850879669189453125" lon="-1.5187299437820911407470703125">
        <ele>667.79998779296875</ele>
        <time>2022-05-02T10:37:06.000Z</time>
      </trkpt>
      <trkpt lat="41.19809922762215137481689453125" lon="-1.51876531541347503662109375">
        <ele>668</ele>
        <time>2022-05-02T10:37:08.000Z</time>
      </trkpt>
      <trkpt lat="41.1980718187987804412841796875" lon="-1.5187807381153106689453125">
        <ele>668.20001220703125</ele>
        <time>2022-05-02T10:37:09.000Z</time>
      </trkpt>
      <trkpt lat="41.1980466730892658233642578125" lon="-1.51879238896071910858154296875">
        <ele>668.4000244140625</ele>
        <time>2022-05-02T10:37:10.000Z</time>
      </trkpt>
      <trkpt lat="41.198024041950702667236328125" lon="-1.51879121549427509307861328125">
        <ele>668.5999755859375</ele>
        <time>2022-05-02T10:37:11.000Z</time>
      </trkpt>
      <trkpt lat="41.19800752960145473480224609375" lon="-1.5187758766114711761474609375">
        <ele>668.79998779296875</ele>
        <time>2022-05-02T10:37:12.000Z</time>
      </trkpt>
      <trkpt lat="41.19800032116472721099853515625" lon="-1.5187490545213222503662109375">
        <ele>668.79998779296875</ele>
        <time>2022-05-02T10:37:13.000Z</time>
      </trkpt>
      <trkpt lat="41.19800048880279064178466796875" lon="-1.51871812529861927032470703125">
        <ele>668.79998779296875</ele>
        <time>2022-05-02T10:37:14.000Z</time>
      </trkpt>
      <trkpt lat="41.19802060537040233612060546875" lon="-1.5186628885567188262939453125">
        <ele>668.5999755859375</ele>
        <time>2022-05-02T10:37:16.000Z</time>
      </trkpt>
      <trkpt lat="41.19803116656839847564697265625" lon="-1.51863363571465015411376953125">
        <ele>668.5999755859375</ele>
        <time>2022-05-02T10:37:17.000Z</time>
      </trkpt>
      <trkpt lat="41.19803954847157001495361328125" lon="-1.51860597543418407440185546875">
        <ele>668.4000244140625</ele>
        <time>2022-05-02T10:37:18.000Z</time>
      </trkpt>
      <trkpt lat="41.19806117378175258636474609375" lon="-1.5185512416064739227294921875">
        <ele>668.20001220703125</ele>
        <time>2022-05-02T10:37:20.000Z</time>
      </trkpt>
      <trkpt lat="41.1981003172695636749267578125" lon="-1.5185009501874446868896484375">
        <ele>667.5999755859375</ele>
        <time>2022-05-02T10:37:22.000Z</time>
      </trkpt>
      <trkpt lat="41.19812286458909511566162109375" lon="-1.51846985332667827606201171875">
        <ele>667.4000244140625</ele>
        <time>2022-05-02T10:37:23.000Z</time>
      </trkpt>
      <trkpt lat="41.19814482517540454864501953125" lon="-1.5184374153614044189453125">
        <ele>667.20001220703125</ele>
        <time>2022-05-02T10:37:24.000Z</time>
      </trkpt>
      <trkpt lat="41.19818740524351596832275390625" lon="-1.51836709119379520416259765625">
        <ele>667</ele>
        <time>2022-05-02T10:37:26.000Z</time>
      </trkpt>
      <trkpt lat="41.1982190050184726715087890625" lon="-1.5182924084365367889404296875">
        <ele>666.5999755859375</ele>
        <time>2022-05-02T10:37:28.000Z</time>
      </trkpt>
      <trkpt lat="41.1982277221977710723876953125" lon="-1.51825443841516971588134765625">
        <ele>666.4000244140625</ele>
        <time>2022-05-02T10:37:29.000Z</time>
      </trkpt>
      <trkpt lat="41.19823568500578403472900390625" lon="-1.518215797841548919677734375">
        <ele>666.20001220703125</ele>
        <time>2022-05-02T10:37:30.000Z</time>
      </trkpt>
      <trkpt lat="41.19823937304317951202392578125" lon="-1.518174223601818084716796875">
        <ele>666.20001220703125</ele>
        <time>2022-05-02T10:37:31.000Z</time>
      </trkpt>
      <trkpt lat="41.19823618791997432708740234375" lon="-1.51813273318111896514892578125">
        <ele>666.20001220703125</ele>
        <time>2022-05-02T10:37:32.000Z</time>
      </trkpt>
      <trkpt lat="41.198212467133998870849609375" lon="-1.51804774068295955657958984375">
        <ele>666.5999755859375</ele>
        <time>2022-05-02T10:37:34.000Z</time>
      </trkpt>
      <trkpt lat="41.1981739103794097900390625" lon="-1.51797867380082607269287109375">
        <ele>666.79998779296875</ele>
        <time>2022-05-02T10:37:36.000Z</time>
      </trkpt>
      <trkpt lat="41.19812370277941226959228515625" lon="-1.51792888529598712921142578125">
        <ele>667.4000244140625</ele>
        <time>2022-05-02T10:37:38.000Z</time>
      </trkpt>
      <trkpt lat="41.19809755124151706695556640625" lon="-1.51790164411067962646484375">
        <ele>667.5999755859375</ele>
        <time>2022-05-02T10:37:39.000Z</time>
      </trkpt>
      <trkpt lat="41.1980738304555416107177734375" lon="-1.51787121780216693878173828125">
        <ele>667.79998779296875</ele>
        <time>2022-05-02T10:37:40.000Z</time>
      </trkpt>
      <trkpt lat="41.19805262424051761627197265625" lon="-1.5178441442549228668212890625">
        <ele>668</ele>
        <time>2022-05-02T10:37:41.000Z</time>
      </trkpt>
      <trkpt lat="41.19803150184452533721923828125" lon="-1.517821848392486572265625">
        <ele>668.20001220703125</ele>
        <time>2022-05-02T10:37:42.000Z</time>
      </trkpt>
      <trkpt lat="41.19798573665320873260498046875" lon="-1.5177858062088489532470703125">
        <ele>668.79998779296875</ele>
        <time>2022-05-02T10:37:44.000Z</time>
      </trkpt>
      <trkpt lat="41.1979424022138118743896484375" lon="-1.5177563019096851348876953125">
        <ele>669.20001220703125</ele>
        <time>2022-05-02T10:37:46.000Z</time>
      </trkpt>
      <trkpt lat="41.1978968046605587005615234375" lon="-1.5177341736853122711181640625">
        <ele>669.79998779296875</ele>
        <time>2022-05-02T10:37:48.000Z</time>
      </trkpt>
      <trkpt lat="41.1978495307266712188720703125" lon="-1.51771296747028827667236328125">
        <ele>670.4000244140625</ele>
        <time>2022-05-02T10:37:50.000Z</time>
      </trkpt>
      <trkpt lat="41.1978267319500446319580078125" lon="-1.517704837024211883544921875">
        <ele>670.79998779296875</ele>
        <time>2022-05-02T10:37:51.000Z</time>
      </trkpt>
      <trkpt lat="41.19780435226857662200927734375" lon="-1.51769578456878662109375">
        <ele>671</ele>
        <time>2022-05-02T10:37:52.000Z</time>
      </trkpt>
      <trkpt lat="41.1977566592395305633544921875" lon="-1.51767256669700145721435546875">
        <ele>671.5999755859375</ele>
        <time>2022-05-02T10:37:54.000Z</time>
      </trkpt>
      <trkpt lat="41.19770209304988384246826171875" lon="-1.5176500193774700164794921875">
        <ele>672</ele>
        <time>2022-05-02T10:37:56.000Z</time>
      </trkpt>
      <trkpt lat="41.19767258875072002410888671875" lon="-1.51763367466628551483154296875">
        <ele>672</ele>
        <time>2022-05-02T10:37:57.000Z</time>
      </trkpt>
      <trkpt lat="41.197641827166080474853515625" lon="-1.517611630260944366455078125">
        <ele>672</ele>
        <time>2022-05-02T10:37:58.000Z</time>
      </trkpt>
      <trkpt lat="41.1975739337503910064697265625" lon="-1.51756427250802516937255859375">
        <ele>671.5999755859375</ele>
        <time>2022-05-02T10:38:00.000Z</time>
      </trkpt>
      <trkpt lat="41.19750344194471836090087890625" lon="-1.5175335109233856201171875">
        <ele>671.20001220703125</ele>
        <time>2022-05-02T10:38:02.000Z</time>
      </trkpt>
      <trkpt lat="41.197468824684619903564453125" lon="-1.5175326727330684661865234375">
        <ele>671.4000244140625</ele>
        <time>2022-05-02T10:38:03.000Z</time>
      </trkpt>
      <trkpt lat="41.19743303395807743072509765625" lon="-1.51752906851470470428466796875">
        <ele>671.4000244140625</ele>
        <time>2022-05-02T10:38:04.000Z</time>
      </trkpt>
      <trkpt lat="41.19739296846091747283935546875" lon="-1.51751540601253509521484375">
        <ele>671.4000244140625</ele>
        <time>2022-05-02T10:38:05.000Z</time>
      </trkpt>
      <trkpt lat="41.19734619744122028350830078125" lon="-1.5174905955791473388671875">
        <ele>670.79998779296875</ele>
        <time>2022-05-02T10:38:06.000Z</time>
      </trkpt>
      <trkpt lat="41.19729691185057163238525390625" lon="-1.5174495242536067962646484375">
        <ele>670</ele>
        <time>2022-05-02T10:38:07.000Z</time>
      </trkpt>
      <trkpt lat="41.19725047610700130462646484375" lon="-1.51739068329334259033203125">
        <ele>668.79998779296875</ele>
        <time>2022-05-02T10:38:08.000Z</time>
      </trkpt>
      <trkpt lat="41.19720588438212871551513671875" lon="-1.5173251368105411529541015625">
        <ele>667.20001220703125</ele>
        <time>2022-05-02T10:38:09.000Z</time>
      </trkpt>
      <trkpt lat="41.1971622146666049957275390625" lon="-1.51726369746029376983642578125">
        <ele>665.79998779296875</ele>
        <time>2022-05-02T10:38:10.000Z</time>
      </trkpt>
      <trkpt lat="41.19711636565625667572021484375" lon="-1.51721097528934478759765625">
        <ele>665</ele>
        <time>2022-05-02T10:38:11.000Z</time>
      </trkpt>
      <trkpt lat="41.19706791825592517852783203125" lon="-1.51717015542089939117431640625">
        <ele>664.5999755859375</ele>
        <time>2022-05-02T10:38:12.000Z</time>
      </trkpt>
      <trkpt lat="41.19696934707462787628173828125" lon="-1.5171338617801666259765625">
        <ele>664.5999755859375</ele>
        <time>2022-05-02T10:38:14.000Z</time>
      </trkpt>
      <trkpt lat="41.19687697850167751312255859375" lon="-1.51712170802056789398193359375">
        <ele>665.4000244140625</ele>
        <time>2022-05-02T10:38:16.000Z</time>
      </trkpt>
      <trkpt lat="41.19679919444024562835693359375" lon="-1.51709295809268951416015625">
        <ele>666.4000244140625</ele>
        <time>2022-05-02T10:38:18.000Z</time>
      </trkpt>
      <trkpt lat="41.19676130823791027069091796875" lon="-1.5170694887638092041015625">
        <ele>666.79998779296875</ele>
        <time>2022-05-02T10:38:19.000Z</time>
      </trkpt>
      <trkpt lat="41.19672090746462345123291015625" lon="-1.51704090647399425506591796875">
        <ele>667</ele>
        <time>2022-05-02T10:38:20.000Z</time>
      </trkpt>
      <trkpt lat="41.196644715964794158935546875" lon="-1.516972593963146209716796875">
        <ele>666.79998779296875</ele>
        <time>2022-05-02T10:38:22.000Z</time>
      </trkpt>
      <trkpt lat="41.19659635238349437713623046875" lon="-1.51689707301557064056396484375">
        <ele>666.5999755859375</ele>
        <time>2022-05-02T10:38:24.000Z</time>
      </trkpt>
      <trkpt lat="41.19657606817781925201416015625" lon="-1.51687142439186573028564453125">
        <ele>666.5999755859375</ele>
        <time>2022-05-02T10:38:25.000Z</time>
      </trkpt>
      <trkpt lat="41.196555197238922119140625" lon="-1.516852565109729766845703125">
        <ele>666.79998779296875</ele>
        <time>2022-05-02T10:38:26.000Z</time>
      </trkpt>
      <trkpt lat="41.19653172791004180908203125" lon="-1.5168342925608158111572265625">
        <ele>667.20001220703125</ele>
        <time>2022-05-02T10:38:27.000Z</time>
      </trkpt>
      <trkpt lat="41.19650616310536861419677734375" lon="-1.5168238990008831024169921875">
        <ele>667.79998779296875</ele>
        <time>2022-05-02T10:38:28.000Z</time>
      </trkpt>
      <trkpt lat="41.19647967629134654998779296875" lon="-1.51681744493544101715087890625">
        <ele>668.20001220703125</ele>
        <time>2022-05-02T10:38:29.000Z</time>
      </trkpt>
      <trkpt lat="41.19645335711538791656494140625" lon="-1.5168067999184131622314453125">
        <ele>668.79998779296875</ele>
        <time>2022-05-02T10:38:30.000Z</time>
      </trkpt>
      <trkpt lat="41.19639568962156772613525390625" lon="-1.5167705900967121124267578125">
        <ele>669.20001220703125</ele>
        <time>2022-05-02T10:38:32.000Z</time>
      </trkpt>
      <trkpt lat="41.19633466936647891998291015625" lon="-1.516716443002223968505859375">
        <ele>669.20001220703125</ele>
        <time>2022-05-02T10:38:34.000Z</time>
      </trkpt>
      <trkpt lat="41.1962680332362651824951171875" lon="-1.516640670597553253173828125">
        <ele>669.4000244140625</ele>
        <time>2022-05-02T10:38:36.000Z</time>
      </trkpt>
      <trkpt lat="41.1961902491748332977294921875" lon="-1.5165486373007297515869140625">
        <ele>670.20001220703125</ele>
        <time>2022-05-02T10:38:38.000Z</time>
      </trkpt>
      <trkpt lat="41.196147166192531585693359375" lon="-1.51649071834981441497802734375">
        <ele>670</ele>
        <time>2022-05-02T10:38:39.000Z</time>
      </trkpt>
      <trkpt lat="41.19610215537250041961669921875" lon="-1.5164249204099178314208984375">
        <ele>669.5999755859375</ele>
        <time>2022-05-02T10:38:40.000Z</time>
      </trkpt>
      <trkpt lat="41.19605588726699352264404296875" lon="-1.516359038650989532470703125">
        <ele>669.4000244140625</ele>
        <time>2022-05-02T10:38:41.000Z</time>
      </trkpt>
      <trkpt lat="41.19601045735180377960205078125" lon="-1.51629441417753696441650390625">
        <ele>669.20001220703125</ele>
        <time>2022-05-02T10:38:42.000Z</time>
      </trkpt>
      <trkpt lat="41.19592948816716670989990234375" lon="-1.5161811746656894683837890625">
        <ele>668.4000244140625</ele>
        <time>2022-05-02T10:38:44.000Z</time>
      </trkpt>
      <trkpt lat="41.19589109905064105987548828125" lon="-1.5161385945975780487060546875">
        <ele>668.20001220703125</ele>
        <time>2022-05-02T10:38:45.000Z</time>
      </trkpt>
      <trkpt lat="41.19585019536316394805908203125" lon="-1.5161057375371456146240234375">
        <ele>667.79998779296875</ele>
        <time>2022-05-02T10:38:46.000Z</time>
      </trkpt>
      <trkpt lat="41.195770315825939178466796875" lon="-1.51604983024299144744873046875">
        <ele>667.20001220703125</ele>
        <time>2022-05-02T10:38:48.000Z</time>
      </trkpt>
      <trkpt lat="41.1957312561571598052978515625" lon="-1.51601864956319332122802734375">
        <ele>667</ele>
        <time>2022-05-02T10:38:49.000Z</time>
      </trkpt>
      <trkpt lat="41.19568951427936553955078125" lon="-1.51598252356052398681640625">
        <ele>667</ele>
        <time>2022-05-02T10:38:50.000Z</time>
      </trkpt>
      <trkpt lat="41.19559228420257568359375" lon="-1.51588470675051212310791015625">
        <ele>666.20001220703125</ele>
        <time>2022-05-02T10:38:52.000Z</time>
      </trkpt>
      <trkpt lat="41.19552112184464931488037109375" lon="-1.51579837314784526824951171875">
        <ele>665.20001220703125</ele>
        <time>2022-05-02T10:38:54.000Z</time>
      </trkpt>
      <trkpt lat="41.19544853456318378448486328125" lon="-1.5157288871705532073974609375">
        <ele>665.20001220703125</ele>
        <time>2022-05-02T10:38:56.000Z</time>
      </trkpt>
      <trkpt lat="41.195371337234973907470703125" lon="-1.51566795073449611663818359375">
        <ele>665.5999755859375</ele>
        <time>2022-05-02T10:38:58.000Z</time>
      </trkpt>
      <trkpt lat="41.19528726674616336822509765625" lon="-1.51562537066638469696044921875">
        <ele>666</ele>
        <time>2022-05-02T10:39:00.000Z</time>
      </trkpt>
      <trkpt lat="41.1952085606753826141357421875" lon="-1.5155770070850849151611328125">
        <ele>666</ele>
        <time>2022-05-02T10:39:02.000Z</time>
      </trkpt>
      <trkpt lat="41.19513253681361675262451171875" lon="-1.51552914641797542572021484375">
        <ele>667.4000244140625</ele>
        <time>2022-05-02T10:39:04.000Z</time>
      </trkpt>
      <trkpt lat="41.19506028480827808380126953125" lon="-1.515481285750865936279296875">
        <ele>668.5999755859375</ele>
        <time>2022-05-02T10:39:06.000Z</time>
      </trkpt>
      <trkpt lat="41.19502340443432331085205078125" lon="-1.51545739732682704925537109375">
        <ele>669.4000244140625</ele>
        <time>2022-05-02T10:39:07.000Z</time>
      </trkpt>
      <trkpt lat="41.1949845962226390838623046875" lon="-1.5154221095144748687744140625">
        <ele>669</ele>
        <time>2022-05-02T10:39:08.000Z</time>
      </trkpt>
      <trkpt lat="41.19490488432347774505615234375" lon="-1.51536838151514530181884765625">
        <ele>668.79998779296875</ele>
        <time>2022-05-02T10:39:10.000Z</time>
      </trkpt>
      <trkpt lat="41.194824837148189544677734375" lon="-1.5152749232947826385498046875">
        <ele>668.20001220703125</ele>
        <time>2022-05-02T10:39:12.000Z</time>
      </trkpt>
      <trkpt lat="41.19478695094585418701171875" lon="-1.51523594744503498077392578125">
        <ele>668.5999755859375</ele>
        <time>2022-05-02T10:39:13.000Z</time>
      </trkpt>
      <trkpt lat="41.19474730454385280609130859375" lon="-1.5152014978229999542236328125">
        <ele>669</ele>
        <time>2022-05-02T10:39:14.000Z</time>
      </trkpt>
      <trkpt lat="41.19470740668475627899169921875" lon="-1.51517392136156558990478515625">
        <ele>669.20001220703125</ele>
        <time>2022-05-02T10:39:15.000Z</time>
      </trkpt>
      <trkpt lat="41.19466516189277172088623046875" lon="-1.51515816338360309600830078125">
        <ele>669.4000244140625</ele>
        <time>2022-05-02T10:39:16.000Z</time>
      </trkpt>
      <trkpt lat="41.1946228332817554473876953125" lon="-1.5151408128440380096435546875">
        <ele>669.79998779296875</ele>
        <time>2022-05-02T10:39:17.000Z</time>
      </trkpt>
      <trkpt lat="41.19458050467073917388916015625" lon="-1.51511776261031627655029296875">
        <ele>670.5999755859375</ele>
        <time>2022-05-02T10:39:18.000Z</time>
      </trkpt>
      <trkpt lat="41.19450607337057590484619140625" lon="-1.51506814174354076385498046875">
        <ele>671</ele>
        <time>2022-05-02T10:39:20.000Z</time>
      </trkpt>
      <trkpt lat="41.1944370903074741363525390625" lon="-1.51500762440264225006103515625">
        <ele>670.4000244140625</ele>
        <time>2022-05-02T10:39:22.000Z</time>
      </trkpt>
      <trkpt lat="41.19440465234220027923583984375" lon="-1.51497677899897098541259765625">
        <ele>670.5999755859375</ele>
        <time>2022-05-02T10:39:23.000Z</time>
      </trkpt>
      <trkpt lat="41.1943700350821018218994140625" lon="-1.5149497054517269134521484375">
        <ele>670.5999755859375</ele>
        <time>2022-05-02T10:39:24.000Z</time>
      </trkpt>
      <trkpt lat="41.194293089210987091064453125" lon="-1.51489748619496822357177734375">
        <ele>670.79998779296875</ele>
        <time>2022-05-02T10:39:26.000Z</time>
      </trkpt>
      <trkpt lat="41.19421698153018951416015625" lon="-1.51484652422368526458740234375">
        <ele>671</ele>
        <time>2022-05-02T10:39:28.000Z</time>
      </trkpt>
      <trkpt lat="41.19414313696324825286865234375" lon="-1.5147941373288631439208984375">
        <ele>670.20001220703125</ele>
        <time>2022-05-02T10:39:30.000Z</time>
      </trkpt>
      <trkpt lat="41.19410759769380092620849609375" lon="-1.5147699974477291107177734375">
        <ele>670</ele>
        <time>2022-05-02T10:39:31.000Z</time>
      </trkpt>
      <trkpt lat="41.19407407008111476898193359375" lon="-1.5147492103278636932373046875">
        <ele>670</ele>
        <time>2022-05-02T10:39:32.000Z</time>
      </trkpt>
      <trkpt lat="41.19401304982602596282958984375" lon="-1.51470755226910114288330078125">
        <ele>670.4000244140625</ele>
        <time>2022-05-02T10:39:34.000Z</time>
      </trkpt>
      <trkpt lat="41.19395504705607891082763671875" lon="-1.51466111652553081512451171875">
        <ele>671.20001220703125</ele>
        <time>2022-05-02T10:39:36.000Z</time>
      </trkpt>
      <trkpt lat="41.19392453692853450775146484375" lon="-1.51463949121534824371337890625">
        <ele>671.79998779296875</ele>
        <time>2022-05-02T10:39:37.000Z</time>
      </trkpt>
      <trkpt lat="41.19389318861067295074462890625" lon="-1.51461736299097537994384765625">
        <ele>672</ele>
        <time>2022-05-02T10:39:38.000Z</time>
      </trkpt>
      <trkpt lat="41.19383082725107669830322265625" lon="-1.51456925086677074432373046875">
        <ele>672.20001220703125</ele>
        <time>2022-05-02T10:39:40.000Z</time>
      </trkpt>
      <trkpt lat="41.1937688849866390228271484375" lon="-1.5145188756287097930908203125">
        <ele>673.79998779296875</ele>
        <time>2022-05-02T10:39:42.000Z</time>
      </trkpt>
      <trkpt lat="41.19370694272220134735107421875" lon="-1.5144677460193634033203125">
        <ele>674.4000244140625</ele>
        <time>2022-05-02T10:39:44.000Z</time>
      </trkpt>
      <trkpt lat="41.1936409771442413330078125" lon="-1.51442147791385650634765625">
        <ele>675.4000244140625</ele>
        <time>2022-05-02T10:39:46.000Z</time>
      </trkpt>
      <trkpt lat="41.19360812008380889892578125" lon="-1.51439289562404155731201171875">
        <ele>676</ele>
        <time>2022-05-02T10:39:47.000Z</time>
      </trkpt>
      <trkpt lat="41.1935744248330593109130859375" lon="-1.51436154730618000030517578125">
        <ele>676</ele>
        <time>2022-05-02T10:39:48.000Z</time>
      </trkpt>
      <trkpt lat="41.19350778870284557342529296875" lon="-1.51429750956594944000244140625">
        <ele>675.20001220703125</ele>
        <time>2022-05-02T10:39:50.000Z</time>
      </trkpt>
      <trkpt lat="41.1934451758861541748046875" lon="-1.514256186783313751220703125">
        <ele>675.5999755859375</ele>
        <time>2022-05-02T10:39:52.000Z</time>
      </trkpt>
      <trkpt lat="41.1934151686728000640869140625" lon="-1.51424101553857326507568359375">
        <ele>676</ele>
        <time>2022-05-02T10:39:53.000Z</time>
      </trkpt>
      <trkpt lat="41.19338725693523883819580078125" lon="-1.5142268501222133636474609375">
        <ele>676.20001220703125</ele>
        <time>2022-05-02T10:39:54.000Z</time>
      </trkpt>
      <trkpt lat="41.19336269795894622802734375" lon="-1.5142194740474224090576171875">
        <ele>676.5999755859375</ele>
        <time>2022-05-02T10:39:55.000Z</time>
      </trkpt>
      <trkpt lat="41.19333763606846332550048828125" lon="-1.51421301998198032379150390625">
        <ele>677.20001220703125</ele>
        <time>2022-05-02T10:39:56.000Z</time>
      </trkpt>
      <trkpt lat="41.1932837404310703277587890625" lon="-1.51418888010084629058837890625">
        <ele>677.5999755859375</ele>
        <time>2022-05-02T10:39:58.000Z</time>
      </trkpt>
      <trkpt lat="41.1932549066841602325439453125" lon="-1.5141658298671245574951171875">
        <ele>677.79998779296875</ele>
        <time>2022-05-02T10:39:59.000Z</time>
      </trkpt>
      <trkpt lat="41.19322280399501323699951171875" lon="-1.5141386725008487701416015625">
        <ele>677</ele>
        <time>2022-05-02T10:40:00.000Z</time>
      </trkpt>
      <trkpt lat="41.19314569048583507537841796875" lon="-1.5140759758651256561279296875">
        <ele>675</ele>
        <time>2022-05-02T10:40:02.000Z</time>
      </trkpt>
      <trkpt lat="41.19306321255862712860107421875" lon="-1.513991318643093109130859375">
        <ele>673.4000244140625</ele>
        <time>2022-05-02T10:40:04.000Z</time>
      </trkpt>
      <trkpt lat="41.1929918825626373291015625" lon="-1.51390171609818935394287109375">
        <ele>672.79998779296875</ele>
        <time>2022-05-02T10:40:06.000Z</time>
      </trkpt>
      <trkpt lat="41.19291954673826694488525390625" lon="-1.5138443000614643096923828125">
        <ele>674</ele>
        <time>2022-05-02T10:40:08.000Z</time>
      </trkpt>
      <trkpt lat="41.19288417510688304901123046875" lon="-1.5138178132474422454833984375">
        <ele>674.5999755859375</ele>
        <time>2022-05-02T10:40:09.000Z</time>
      </trkpt>
      <trkpt lat="41.1928522400557994842529296875" lon="-1.5137943439185619354248046875">
        <ele>675.4000244140625</ele>
        <time>2022-05-02T10:40:10.000Z</time>
      </trkpt>
      <trkpt lat="41.19280035607516765594482421875" lon="-1.51375629007816314697265625">
        <ele>676</ele>
        <time>2022-05-02T10:40:12.000Z</time>
      </trkpt>
      <trkpt lat="41.19274771772325038909912109375" lon="-1.51371379382908344268798828125">
        <ele>675.20001220703125</ele>
        <time>2022-05-02T10:40:14.000Z</time>
      </trkpt>
      <trkpt lat="41.1927211470901966094970703125" lon="-1.51368948630988597869873046875">
        <ele>674.79998779296875</ele>
        <time>2022-05-02T10:40:15.000Z</time>
      </trkpt>
      <trkpt lat="41.19269482791423797607421875" lon="-1.5136649273335933685302734375">
        <ele>674.4000244140625</ele>
        <time>2022-05-02T10:40:16.000Z</time>
      </trkpt>
      <trkpt lat="41.19264294393360614776611328125" lon="-1.51361539028584957122802734375">
        <ele>674</ele>
        <time>2022-05-02T10:40:18.000Z</time>
      </trkpt>
      <trkpt lat="41.19258879683911800384521484375" lon="-1.51356987655162811279296875">
        <ele>673.79998779296875</ele>
        <time>2022-05-02T10:40:20.000Z</time>
      </trkpt>
      <trkpt lat="41.19252911768853664398193359375" lon="-1.5135251171886920928955078125">
        <ele>673.5999755859375</ele>
        <time>2022-05-02T10:40:22.000Z</time>
      </trkpt>
      <trkpt lat="41.19249768555164337158203125" lon="-1.51350659318268299102783203125">
        <ele>673.5999755859375</ele>
        <time>2022-05-02T10:40:23.000Z</time>
      </trkpt>
      <trkpt lat="41.19246541522443294525146484375" lon="-1.51348941028118133544921875">
        <ele>673.20001220703125</ele>
        <time>2022-05-02T10:40:24.000Z</time>
      </trkpt>
      <trkpt lat="41.192408166825771331787109375" lon="-1.51346258819103240966796875">
        <ele>672.5999755859375</ele>
        <time>2022-05-02T10:40:26.000Z</time>
      </trkpt>
      <trkpt lat="41.1923630721867084503173828125" lon="-1.51343752630054950714111328125">
        <ele>672.5999755859375</ele>
        <time>2022-05-02T10:40:28.000Z</time>
      </trkpt>
      <trkpt lat="41.19234186597168445587158203125" lon="-1.51341699063777923583984375">
        <ele>672.20001220703125</ele>
        <time>2022-05-02T10:40:29.000Z</time>
      </trkpt>
      <trkpt lat="41.192323006689548492431640625" lon="-1.51339528150856494903564453125">
        <ele>671.79998779296875</ele>
        <time>2022-05-02T10:40:30.000Z</time>
      </trkpt>
      <trkpt lat="41.19229073636233806610107421875" lon="-1.51335001923143863677978515625">
        <ele>671</ele>
        <time>2022-05-02T10:40:32.000Z</time>
      </trkpt>
      <trkpt lat="41.19227246381342411041259765625" lon="-1.51328824460506439208984375">
        <ele>670.20001220703125</ele>
        <time>2022-05-02T10:40:34.000Z</time>
      </trkpt>
      <trkpt lat="41.1922708712518215179443359375" lon="-1.51324977166950702667236328125">
        <ele>669.5999755859375</ele>
        <time>2022-05-02T10:40:35.000Z</time>
      </trkpt>
      <trkpt lat="41.192278750240802764892578125" lon="-1.513212136924266815185546875">
        <ele>668.5999755859375</ele>
        <time>2022-05-02T10:40:36.000Z</time>
      </trkpt>
      <trkpt lat="41.19231739081442356109619140625" lon="-1.5131429024040699005126953125">
        <ele>666.5999755859375</ele>
        <time>2022-05-02T10:40:38.000Z</time>
      </trkpt>
      <trkpt lat="41.192345805466175079345703125" lon="-1.51310292072594165802001953125">
        <ele>665.20001220703125</ele>
        <time>2022-05-02T10:40:39.000Z</time>
      </trkpt>
      <trkpt lat="41.192376650869846343994140625" lon="-1.5130590833723545074462890625">
        <ele>663.5999755859375</ele>
        <time>2022-05-02T10:40:40.000Z</time>
      </trkpt>
      <trkpt lat="41.1924123577773571014404296875" lon="-1.51301943697035312652587890625">
        <ele>662.79998779296875</ele>
        <time>2022-05-02T10:40:41.000Z</time>
      </trkpt>
      <trkpt lat="41.1924509145319461822509765625" lon="-1.51296914555132389068603515625">
        <ele>662.5999755859375</ele>
        <time>2022-05-02T10:40:42.000Z</time>
      </trkpt>
      <trkpt lat="41.19248871691524982452392578125" lon="-1.512914411723613739013671875">
        <ele>662.4000244140625</ele>
        <time>2022-05-02T10:40:43.000Z</time>
      </trkpt>
      <trkpt lat="41.19252509437501430511474609375" lon="-1.5128549002110958099365234375">
        <ele>662.20001220703125</ele>
        <time>2022-05-02T10:40:44.000Z</time>
      </trkpt>
      <trkpt lat="41.19259960949420928955078125" lon="-1.5127321891486644744873046875">
        <ele>662</ele>
        <time>2022-05-02T10:40:46.000Z</time>
      </trkpt>
      <trkpt lat="41.19264118373394012451171875" lon="-1.5126761980354785919189453125">
        <ele>662</ele>
        <time>2022-05-02T10:40:47.000Z</time>
      </trkpt>
      <trkpt lat="41.19268854148685932159423828125" lon="-1.51262716390192508697509765625">
        <ele>662</ele>
        <time>2022-05-02T10:40:48.000Z</time>
      </trkpt>
      <trkpt lat="41.19280639104545116424560546875" lon="-1.51256270706653594970703125">
        <ele>662.4000244140625</ele>
        <time>2022-05-02T10:40:50.000Z</time>
      </trkpt>
      <trkpt lat="41.19286322034895420074462890625" lon="-1.51255466043949127197265625">
        <ele>662.5999755859375</ele>
        <time>2022-05-02T10:40:51.000Z</time>
      </trkpt>
      <trkpt lat="41.19291384704411029815673828125" lon="-1.512560360133647918701171875">
        <ele>662.79998779296875</ele>
        <time>2022-05-02T10:40:52.000Z</time>
      </trkpt>
      <trkpt lat="41.19300252757966518402099609375" lon="-1.51255197823047637939453125">
        <ele>662.79998779296875</ele>
        <time>2022-05-02T10:40:54.000Z</time>
      </trkpt>
      <trkpt lat="41.19306094944477081298828125" lon="-1.51249229907989501953125">
        <ele>662.5999755859375</ele>
        <time>2022-05-02T10:40:56.000Z</time>
      </trkpt>
      <trkpt lat="41.19311283342540264129638671875" lon="-1.51242993772029876708984375">
        <ele>662.4000244140625</ele>
        <time>2022-05-02T10:40:58.000Z</time>
      </trkpt>
      <trkpt lat="41.1931399069726467132568359375" lon="-1.51240051724016666412353515625">
        <ele>662.4000244140625</ele>
        <time>2022-05-02T10:40:59.000Z</time>
      </trkpt>
      <trkpt lat="41.19316815398633480072021484375" lon="-1.51236967183649539947509765625">
        <ele>662.20001220703125</ele>
        <time>2022-05-02T10:41:00.000Z</time>
      </trkpt>
      <trkpt lat="41.1932300962507724761962890625" lon="-1.51230328716337680816650390625">
        <ele>662</ele>
        <time>2022-05-02T10:41:02.000Z</time>
      </trkpt>
      <trkpt lat="41.19328357279300689697265625" lon="-1.51222634129226207733154296875">
        <ele>662</ele>
        <time>2022-05-02T10:41:04.000Z</time>
      </trkpt>
      <trkpt lat="41.1933003365993499755859375" lon="-1.51218275539577007293701171875">
        <ele>662</ele>
        <time>2022-05-02T10:41:05.000Z</time>
      </trkpt>
      <trkpt lat="41.19331232272088527679443359375" lon="-1.51213849894702434539794921875">
        <ele>662.20001220703125</ele>
        <time>2022-05-02T10:41:06.000Z</time>
      </trkpt>
      <trkpt lat="41.19332942180335521697998046875" lon="-1.5120408497750759124755859375">
        <ele>662.79998779296875</ele>
        <time>2022-05-02T10:41:08.000Z</time>
      </trkpt>
      <trkpt lat="41.19334098882973194122314453125" lon="-1.5119382552802562713623046875">
        <ele>663.4000244140625</ele>
        <time>2022-05-02T10:41:10.000Z</time>
      </trkpt>
      <trkpt lat="41.19335792027413845062255859375" lon="-1.5118353255093097686767578125">
        <ele>664</ele>
        <time>2022-05-02T10:41:12.000Z</time>
      </trkpt>
      <trkpt lat="41.1933742649853229522705078125" lon="-1.51173122227191925048828125">
        <ele>664</ele>
        <time>2022-05-02T10:41:14.000Z</time>
      </trkpt>
      <trkpt lat="41.19339647702872753143310546875" lon="-1.51163156144320964813232421875">
        <ele>664.20001220703125</ele>
        <time>2022-05-02T10:41:16.000Z</time>
      </trkpt>
      <trkpt lat="41.19340871460735797882080078125" lon="-1.5115818567574024200439453125">
        <ele>664.5999755859375</ele>
        <time>2022-05-02T10:41:17.000Z</time>
      </trkpt>
      <trkpt lat="41.193422041833400726318359375" lon="-1.51153516955673694610595703125">
        <ele>665</ele>
        <time>2022-05-02T10:41:18.000Z</time>
      </trkpt>
      <trkpt lat="41.1934486962854862213134765625" lon="-1.51144430972635746002197265625">
        <ele>665.5999755859375</ele>
        <time>2022-05-02T10:41:20.000Z</time>
      </trkpt>
      <trkpt lat="41.19347794912755489349365234375" lon="-1.51135646738111972808837890625">
        <ele>666.4000244140625</ele>
        <time>2022-05-02T10:41:22.000Z</time>
      </trkpt>
      <trkpt lat="41.19350678287446498870849609375" lon="-1.51127398945391178131103515625">
        <ele>667.20001220703125</ele>
        <time>2022-05-02T10:41:24.000Z</time>
      </trkpt>
      <trkpt lat="41.193518601357936859130859375" lon="-1.5112341754138469696044921875">
        <ele>667.79998779296875</ele>
        <time>2022-05-02T10:41:25.000Z</time>
      </trkpt>
      <trkpt lat="41.1935301683843135833740234375" lon="-1.51119687594473361968994140625">
        <ele>668</ele>
        <time>2022-05-02T10:41:26.000Z</time>
      </trkpt>
      <trkpt lat="41.19355380535125732421875" lon="-1.5111345984041690826416015625">
        <ele>668.5999755859375</ele>
        <time>2022-05-02T10:41:28.000Z</time>
      </trkpt>
      <trkpt lat="41.19356797076761722564697265625" lon="-1.5110853128135204315185546875">
        <ele>669.20001220703125</ele>
        <time>2022-05-02T10:41:30.000Z</time>
      </trkpt>
      <trkpt lat="41.19356461800634860992431640625" lon="-1.51106025092303752899169921875">
        <ele>669.5999755859375</ele>
        <time>2022-05-02T10:41:31.000Z</time>
      </trkpt>
      <trkpt lat="41.19355254806578159332275390625" lon="-1.51104264892637729644775390625">
        <ele>670</ele>
        <time>2022-05-02T10:41:32.000Z</time>
      </trkpt>
      <trkpt lat="41.1935134045779705047607421875" lon="-1.511017419397830963134765625">
        <ele>670.4000244140625</ele>
        <time>2022-05-02T10:41:34.000Z</time>
      </trkpt>
      <trkpt lat="41.19349144399166107177734375" lon="-1.51100208051502704620361328125">
        <ele>670.5999755859375</ele>
        <time>2022-05-02T10:41:35.000Z</time>
      </trkpt>
      <trkpt lat="41.1934654600918292999267578125" lon="-1.5109835565090179443359375">
        <ele>670.79998779296875</ele>
        <time>2022-05-02T10:41:36.000Z</time>
      </trkpt>
      <trkpt lat="41.19341609068214893341064453125" lon="-1.51094776578247547149658203125">
        <ele>671.4000244140625</ele>
        <time>2022-05-02T10:41:38.000Z</time>
      </trkpt>
      <trkpt lat="41.19337066076695919036865234375" lon="-1.5109143219888210296630859375">
        <ele>671.4000244140625</ele>
        <time>2022-05-02T10:41:40.000Z</time>
      </trkpt>
      <trkpt lat="41.1933474428951740264892578125" lon="-1.51089797727763652801513671875">
        <ele>671.20001220703125</ele>
        <time>2022-05-02T10:41:41.000Z</time>
      </trkpt>
      <trkpt lat="41.1933219619095325469970703125" lon="-1.51087970472872257232666015625">
        <ele>671.20001220703125</ele>
        <time>2022-05-02T10:41:42.000Z</time>
      </trkpt>
      <trkpt lat="41.19326488114893436431884765625" lon="-1.51084315963089466094970703125">
        <ele>671</ele>
        <time>2022-05-02T10:41:44.000Z</time>
      </trkpt>
      <trkpt lat="41.19321090169250965118408203125" lon="-1.510807536542415618896484375">
        <ele>671</ele>
        <time>2022-05-02T10:41:46.000Z</time>
      </trkpt>
      <trkpt lat="41.1931650526821613311767578125" lon="-1.51076822541654109954833984375">
        <ele>670.79998779296875</ele>
        <time>2022-05-02T10:41:48.000Z</time>
      </trkpt>
      <trkpt lat="41.19314535520970821380615234375" lon="-1.51074911467730998992919921875">
        <ele>670.79998779296875</ele>
        <time>2022-05-02T10:41:49.000Z</time>
      </trkpt>
      <trkpt lat="41.193124987185001373291015625" lon="-1.51073100976645946502685546875">
        <ele>670.79998779296875</ele>
        <time>2022-05-02T10:41:50.000Z</time>
      </trkpt>
      <trkpt lat="41.19306891225278377532958984375" lon="-1.51069077663123607635498046875">
        <ele>670.5999755859375</ele>
        <time>2022-05-02T10:41:52.000Z</time>
      </trkpt>
      <trkpt lat="41.1930128373205661773681640625" lon="-1.51065423153340816497802734375">
        <ele>670.20001220703125</ele>
        <time>2022-05-02T10:41:54.000Z</time>
      </trkpt>
      <trkpt lat="41.1929447762668132781982421875" lon="-1.51060980744659900665283203125">
        <ele>669.5999755859375</ele>
        <time>2022-05-02T10:41:56.000Z</time>
      </trkpt>
      <trkpt lat="41.19286506436765193939208984375" lon="-1.51056789793074131011962890625">
        <ele>669.20001220703125</ele>
        <time>2022-05-02T10:41:58.000Z</time>
      </trkpt>
      <trkpt lat="41.19282399304211139678955078125" lon="-1.51055197231471538543701171875">
        <ele>669</ele>
        <time>2022-05-02T10:41:59.000Z</time>
      </trkpt>
      <trkpt lat="41.19278199970722198486328125" lon="-1.510539986193180084228515625">
        <ele>668.79998779296875</ele>
        <time>2022-05-02T10:42:00.000Z</time>
      </trkpt>
      <trkpt lat="41.19270279072225093841552734375" lon="-1.51051525957882404327392578125">
        <ele>668.4000244140625</ele>
        <time>2022-05-02T10:42:02.000Z</time>
      </trkpt>
      <trkpt lat="41.1926646530628204345703125" lon="-1.51049748994410037994384765625">
        <ele>668.20001220703125</ele>
        <time>2022-05-02T10:42:03.000Z</time>
      </trkpt>
      <trkpt lat="41.19262701831758022308349609375" lon="-1.51047502644360065460205078125">
        <ele>667.79998779296875</ele>
        <time>2022-05-02T10:42:04.000Z</time>
      </trkpt>
      <trkpt lat="41.19258929975330829620361328125" lon="-1.510451473295688629150390625">
        <ele>667.5999755859375</ele>
        <time>2022-05-02T10:42:05.000Z</time>
      </trkpt>
      <trkpt lat="41.19255074299871921539306640625" lon="-1.51043236255645751953125">
        <ele>667.4000244140625</ele>
        <time>2022-05-02T10:42:06.000Z</time>
      </trkpt>
      <trkpt lat="41.1924795806407928466796875" lon="-1.51039405725896358489990234375">
        <ele>666.79998779296875</ele>
        <time>2022-05-02T10:42:08.000Z</time>
      </trkpt>
      <trkpt lat="41.19240473024547100067138671875" lon="-1.510361619293689727783203125">
        <ele>666.4000244140625</ele>
        <time>2022-05-02T10:42:10.000Z</time>
      </trkpt>
      <trkpt lat="41.1923293769359588623046875" lon="-1.51033052243292331695556640625">
        <ele>666.20001220703125</ele>
        <time>2022-05-02T10:42:12.000Z</time>
      </trkpt>
      <trkpt lat="41.1922463960945606231689453125" lon="-1.51029355823993682861328125">
        <ele>665.79998779296875</ele>
        <time>2022-05-02T10:42:14.000Z</time>
      </trkpt>
      <trkpt lat="41.19216534309089183807373046875" lon="-1.51025290600955486297607421875">
        <ele>665.5999755859375</ele>
        <time>2022-05-02T10:42:16.000Z</time>
      </trkpt>
      <trkpt lat="41.19212527759373188018798828125" lon="-1.51022910140454769134521484375">
        <ele>665.5999755859375</ele>
        <time>2022-05-02T10:42:17.000Z</time>
      </trkpt>
      <trkpt lat="41.19208856485784053802490234375" lon="-1.51020236313343048095703125">
        <ele>665.79998779296875</ele>
        <time>2022-05-02T10:42:18.000Z</time>
      </trkpt>
      <trkpt lat="41.19202000088989734649658203125" lon="-1.51014603674411773681640625">
        <ele>666.4000244140625</ele>
        <time>2022-05-02T10:42:20.000Z</time>
      </trkpt>
      <trkpt lat="41.1919459886848926544189453125" lon="-1.51008174754679203033447265625">
        <ele>667.20001220703125</ele>
        <time>2022-05-02T10:42:22.000Z</time>
      </trkpt>
      <trkpt lat="41.191876418888568878173828125" lon="-1.51002424769103527069091796875">
        <ele>667.79998779296875</ele>
        <time>2022-05-02T10:42:24.000Z</time>
      </trkpt>
      <trkpt lat="41.1918031610548496246337890625" lon="-1.50998099707067012786865234375">
        <ele>668.5999755859375</ele>
        <time>2022-05-02T10:42:26.000Z</time>
      </trkpt>
      <trkpt lat="41.19173568673431873321533203125" lon="-1.50993908755481243133544921875">
        <ele>669.5999755859375</ele>
        <time>2022-05-02T10:42:28.000Z</time>
      </trkpt>
      <trkpt lat="41.19167164899408817291259765625" lon="-1.509888879954814910888671875">
        <ele>670.5999755859375</ele>
        <time>2022-05-02T10:42:30.000Z</time>
      </trkpt>
      <trkpt lat="41.19160861708223819732666015625" lon="-1.509834565222263336181640625">
        <ele>671</ele>
        <time>2022-05-02T10:42:32.000Z</time>
      </trkpt>
      <trkpt lat="41.19154877029359340667724609375" lon="-1.50977991521358489990234375">
        <ele>671.20001220703125</ele>
        <time>2022-05-02T10:42:34.000Z</time>
      </trkpt>
      <trkpt lat="41.19149026460945606231689453125" lon="-1.5097240917384624481201171875">
        <ele>671.4000244140625</ele>
        <time>2022-05-02T10:42:36.000Z</time>
      </trkpt>
      <trkpt lat="41.19143779389560222625732421875" lon="-1.50966483168303966522216796875">
        <ele>671.79998779296875</ele>
        <time>2022-05-02T10:42:38.000Z</time>
      </trkpt>
      <trkpt lat="41.1913877539336681365966796875" lon="-1.509597860276699066162109375">
        <ele>672.4000244140625</ele>
        <time>2022-05-02T10:42:40.000Z</time>
      </trkpt>
      <trkpt lat="41.19133838452398777008056640625" lon="-1.50953407399356365203857421875">
        <ele>673</ele>
        <time>2022-05-02T10:42:42.000Z</time>
      </trkpt>
      <trkpt lat="41.19128557853400707244873046875" lon="-1.5094692818820476531982421875">
        <ele>673.5999755859375</ele>
        <time>2022-05-02T10:42:44.000Z</time>
      </trkpt>
      <trkpt lat="41.191227994859218597412109375" lon="-1.50940683670341968536376953125">
        <ele>673.5999755859375</ele>
        <time>2022-05-02T10:42:46.000Z</time>
      </trkpt>
      <trkpt lat="41.1911684833467006683349609375" lon="-1.5093433856964111328125">
        <ele>673.5999755859375</ele>
        <time>2022-05-02T10:42:48.000Z</time>
      </trkpt>
      <trkpt lat="41.1911232210695743560791015625" lon="-1.509273983538150787353515625">
        <ele>674</ele>
        <time>2022-05-02T10:42:50.000Z</time>
      </trkpt>
      <trkpt lat="41.19110402651131153106689453125" lon="-1.50923919863998889923095703125">
        <ele>674</ele>
        <time>2022-05-02T10:42:51.000Z</time>
      </trkpt>
      <trkpt lat="41.19108541868627071380615234375" lon="-1.5092040784657001495361328125">
        <ele>674.20001220703125</ele>
        <time>2022-05-02T10:42:52.000Z</time>
      </trkpt>
      <trkpt lat="41.1910544894635677337646484375" lon="-1.50913677178323268890380859375">
        <ele>674.79998779296875</ele>
        <time>2022-05-02T10:42:54.000Z</time>
      </trkpt>
      <trkpt lat="41.1910231411457061767578125" lon="-1.5090632624924182891845703125">
        <ele>674.4000244140625</ele>
        <time>2022-05-02T10:42:56.000Z</time>
      </trkpt>
      <trkpt lat="41.1910088919103145599365234375" lon="-1.50902688503265380859375">
        <ele>674.4000244140625</ele>
        <time>2022-05-02T10:42:57.000Z</time>
      </trkpt>
      <trkpt lat="41.1909963190555572509765625" lon="-1.50899159722030162811279296875">
        <ele>674.4000244140625</ele>
        <time>2022-05-02T10:42:58.000Z</time>
      </trkpt>
      <trkpt lat="41.19097284972667694091796875" lon="-1.508932001888751983642578125">
        <ele>674.20001220703125</ele>
        <time>2022-05-02T10:43:00.000Z</time>
      </trkpt>
      <trkpt lat="41.1909475363790988922119140625" lon="-1.5088825486600399017333984375">
        <ele>674.20001220703125</ele>
        <time>2022-05-02T10:43:02.000Z</time>
      </trkpt>
      <trkpt lat="41.19092297740280628204345703125" lon="-1.5088503621518611907958984375">
        <ele>674.4000244140625</ele>
        <time>2022-05-02T10:43:04.000Z</time>
      </trkpt>
      <trkpt lat="41.19088492356240749359130859375" lon="-1.50881624780595302581787109375">
        <ele>674.5999755859375</ele>
        <time>2022-05-02T10:43:06.000Z</time>
      </trkpt>
      <trkpt lat="41.1908254958689212799072265625" lon="-1.5087722428143024444580078125">
        <ele>674.5999755859375</ele>
        <time>2022-05-02T10:43:08.000Z</time>
      </trkpt>
      <trkpt lat="41.19076573289930820465087890625" lon="-1.50872580707073211669921875">
        <ele>674.5999755859375</ele>
        <time>2022-05-02T10:43:10.000Z</time>
      </trkpt>
      <trkpt lat="41.190704293549060821533203125" lon="-1.508674509823322296142578125">
        <ele>674.5999755859375</ele>
        <time>2022-05-02T10:43:12.000Z</time>
      </trkpt>
      <trkpt lat="41.19066766463220119476318359375" lon="-1.5086461789906024932861328125">
        <ele>674</ele>
        <time>2022-05-02T10:43:13.000Z</time>
      </trkpt>
      <trkpt lat="41.190628521144390106201171875" lon="-1.50861717760562896728515625">
        <ele>673.4000244140625</ele>
        <time>2022-05-02T10:43:14.000Z</time>
      </trkpt>
      <trkpt lat="41.19055216200649738311767578125" lon="-1.50855892337858676910400390625">
        <ele>672.4000244140625</ele>
        <time>2022-05-02T10:43:16.000Z</time>
      </trkpt>
      <trkpt lat="41.19048058055341243743896484375" lon="-1.5084986574947834014892578125">
        <ele>671.4000244140625</ele>
        <time>2022-05-02T10:43:18.000Z</time>
      </trkpt>
      <trkpt lat="41.19041352532804012298583984375" lon="-1.50843872688710689544677734375">
        <ele>671</ele>
        <time>2022-05-02T10:43:20.000Z</time>
      </trkpt>
      <trkpt lat="41.19038150645792484283447265625" lon="-1.508414335548877716064453125">
        <ele>670.79998779296875</ele>
        <time>2022-05-02T10:43:21.000Z</time>
      </trkpt>
      <trkpt lat="41.19034881703555583953857421875" lon="-1.50839187204837799072265625">
        <ele>670.5999755859375</ele>
        <time>2022-05-02T10:43:22.000Z</time>
      </trkpt>
      <trkpt lat="41.1902857013046741485595703125" lon="-1.508345939218997955322265625">
        <ele>670.20001220703125</ele>
        <time>2022-05-02T10:43:24.000Z</time>
      </trkpt>
      <trkpt lat="41.1902211606502532958984375" lon="-1.50830067694187164306640625">
        <ele>669.79998779296875</ele>
        <time>2022-05-02T10:43:26.000Z</time>
      </trkpt>
      <trkpt lat="41.19016290642321109771728515625" lon="-1.5082518942654132843017578125">
        <ele>669.79998779296875</ele>
        <time>2022-05-02T10:43:28.000Z</time>
      </trkpt>
      <trkpt lat="41.1901358328759670257568359375" lon="-1.5082250721752643585205078125">
        <ele>670</ele>
        <time>2022-05-02T10:43:29.000Z</time>
      </trkpt>
      <trkpt lat="41.19011026807129383087158203125" lon="-1.50819531641900539398193359375">
        <ele>670.20001220703125</ele>
        <time>2022-05-02T10:43:30.000Z</time>
      </trkpt>
      <trkpt lat="41.19006517343223094940185546875" lon="-1.50813278742134571075439453125">
        <ele>670.79998779296875</ele>
        <time>2022-05-02T10:43:32.000Z</time>
      </trkpt>
      <trkpt lat="41.19003097526729106903076171875" lon="-1.50806841440498828887939453125">
        <ele>671.4000244140625</ele>
        <time>2022-05-02T10:43:34.000Z</time>
      </trkpt>
      <trkpt lat="41.19001437909901142120361328125" lon="-1.50803488679230213165283203125">
        <ele>671.5999755859375</ele>
        <time>2022-05-02T10:43:35.000Z</time>
      </trkpt>
      <trkpt lat="41.189996190369129180908203125" lon="-1.50800186209380626678466796875">
        <ele>671.5999755859375</ele>
        <time>2022-05-02T10:43:36.000Z</time>
      </trkpt>
      <trkpt lat="41.18995704688131809234619140625" lon="-1.50794218294322490692138671875">
        <ele>671.79998779296875</ele>
        <time>2022-05-02T10:43:38.000Z</time>
      </trkpt>
      <trkpt lat="41.1899098567664623260498046875" lon="-1.50789029896259307861328125">
        <ele>671.5999755859375</ele>
        <time>2022-05-02T10:43:40.000Z</time>
      </trkpt>
      <trkpt lat="41.1898870579898357391357421875" lon="-1.50786406360566616058349609375">
        <ele>671.4000244140625</ele>
        <time>2022-05-02T10:43:41.000Z</time>
      </trkpt>
      <trkpt lat="41.18986249901354312896728515625" lon="-1.5078384988009929656982421875">
        <ele>671.20001220703125</ele>
        <time>2022-05-02T10:43:42.000Z</time>
      </trkpt>
      <trkpt lat="41.1898134648799896240234375" lon="-1.50778711773455142974853515625">
        <ele>670.79998779296875</ele>
        <time>2022-05-02T10:43:44.000Z</time>
      </trkpt>
      <trkpt lat="41.189762838184833526611328125" lon="-1.50773012079298496246337890625">
        <ele>670.4000244140625</ele>
        <time>2022-05-02T10:43:46.000Z</time>
      </trkpt>
      <trkpt lat="41.18971631862223148345947265625" lon="-1.50767111219465732574462890625">
        <ele>669.79998779296875</ele>
        <time>2022-05-02T10:43:48.000Z</time>
      </trkpt>
      <trkpt lat="41.18967172689735889434814453125" lon="-1.50761696510016918182373046875">
        <ele>669.4000244140625</ele>
        <time>2022-05-02T10:43:50.000Z</time>
      </trkpt>
      <trkpt lat="41.18962562642991542816162109375" lon="-1.507570780813694000244140625">
        <ele>669</ele>
        <time>2022-05-02T10:43:52.000Z</time>
      </trkpt>
      <trkpt lat="41.1895720660686492919921875" lon="-1.50753046385943889617919921875">
        <ele>668.79998779296875</ele>
        <time>2022-05-02T10:43:54.000Z</time>
      </trkpt>
      <trkpt lat="41.18954935111105442047119140625" lon="-1.507513113319873809814453125">
        <ele>668.5999755859375</ele>
        <time>2022-05-02T10:43:55.000Z</time>
      </trkpt>
      <trkpt lat="41.1895237863063812255859375" lon="-1.5074985288083553314208984375">
        <ele>668.5999755859375</ele>
        <time>2022-05-02T10:43:56.000Z</time>
      </trkpt>
      <trkpt lat="41.1894662864506244659423828125" lon="-1.507468186318874359130859375">
        <ele>668.5999755859375</ele>
        <time>2022-05-02T10:43:58.000Z</time>
      </trkpt>
      <trkpt lat="41.1894039250910282135009765625" lon="-1.50743164122104644775390625">
        <ele>668.5999755859375</ele>
        <time>2022-05-02T10:44:00.000Z</time>
      </trkpt>
      <trkpt lat="41.189369894564151763916015625" lon="-1.5074133686721324920654296875">
        <ele>668.5999755859375</ele>
        <time>2022-05-02T10:44:01.000Z</time>
      </trkpt>
      <trkpt lat="41.18933410383760929107666015625" lon="-1.50739719159901142120361328125">
        <ele>669</ele>
        <time>2022-05-02T10:44:02.000Z</time>
      </trkpt>
      <trkpt lat="41.18926168419420719146728515625" lon="-1.50737036950886249542236328125">
        <ele>669.5999755859375</ele>
        <time>2022-05-02T10:44:04.000Z</time>
      </trkpt>
      <trkpt lat="41.18922312743961811065673828125" lon="-1.507353521883487701416015625">
        <ele>670</ele>
        <time>2022-05-02T10:44:05.000Z</time>
      </trkpt>
      <trkpt lat="41.18918658234179019927978515625" lon="-1.5073318965733051300048828125">
        <ele>670.4000244140625</ele>
        <time>2022-05-02T10:44:06.000Z</time>
      </trkpt>
      <trkpt lat="41.18914886377751827239990234375" lon="-1.5073114447295665740966796875">
        <ele>670.79998779296875</ele>
        <time>2022-05-02T10:44:07.000Z</time>
      </trkpt>
      <trkpt lat="41.18910846300423145294189453125" lon="-1.507295183837413787841796875">
        <ele>671.20001220703125</ele>
        <time>2022-05-02T10:44:08.000Z</time>
      </trkpt>
      <trkpt lat="41.18902690708637237548828125" lon="-1.50725352577865123748779296875">
        <ele>672</ele>
        <time>2022-05-02T10:44:10.000Z</time>
      </trkpt>
      <trkpt lat="41.18898667395114898681640625" lon="-1.50723223574459552764892578125">
        <ele>672.4000244140625</ele>
        <time>2022-05-02T10:44:11.000Z</time>
      </trkpt>
      <trkpt lat="41.188946105539798736572265625" lon="-1.507208682596683502197265625">
        <ele>672.5999755859375</ele>
        <time>2022-05-02T10:44:12.000Z</time>
      </trkpt>
      <trkpt lat="41.18890629149973392486572265625" lon="-1.5071830339729785919189453125">
        <ele>673</ele>
        <time>2022-05-02T10:44:13.000Z</time>
      </trkpt>
      <trkpt lat="41.18886505253612995147705078125" lon="-1.50715847499668598175048828125">
        <ele>673.20001220703125</ele>
        <time>2022-05-02T10:44:14.000Z</time>
      </trkpt>
      <trkpt lat="41.18882146663963794708251953125" lon="-1.507140286266803741455078125">
        <ele>673.4000244140625</ele>
        <time>2022-05-02T10:44:15.000Z</time>
      </trkpt>
      <trkpt lat="41.18877771310508251190185546875" lon="-1.50713148526847362518310546875">
        <ele>673.20001220703125</ele>
        <time>2022-05-02T10:44:16.000Z</time>
      </trkpt>
      <trkpt lat="41.18873454630374908447265625" lon="-1.50712452828884124755859375">
        <ele>673.20001220703125</ele>
        <time>2022-05-02T10:44:17.000Z</time>
      </trkpt>
      <trkpt lat="41.18869087658822536468505859375" lon="-1.50711287744343280792236328125">
        <ele>673</ele>
        <time>2022-05-02T10:44:18.000Z</time>
      </trkpt>
      <trkpt lat="41.18865139782428741455078125" lon="-1.50710030458867549896240234375">
        <ele>673</ele>
        <time>2022-05-02T10:44:19.000Z</time>
      </trkpt>
      <trkpt lat="41.1886177025735378265380859375" lon="-1.507087312638759613037109375">
        <ele>672.4000244140625</ele>
        <time>2022-05-02T10:44:20.000Z</time>
      </trkpt>
      <trkpt lat="41.18855022825300693511962890625" lon="-1.5070579759776592254638671875">
        <ele>671.20001220703125</ele>
        <time>2022-05-02T10:44:22.000Z</time>
      </trkpt>
      <trkpt lat="41.1884755454957485198974609375" lon="-1.50702302344143390655517578125">
        <ele>670</ele>
        <time>2022-05-02T10:44:24.000Z</time>
      </trkpt>
      <trkpt lat="41.188396252691745758056640625" lon="-1.506969630718231201171875">
        <ele>669.20001220703125</ele>
        <time>2022-05-02T10:44:26.000Z</time>
      </trkpt>
      <trkpt lat="41.18831972591578960418701171875" lon="-1.5069012343883514404296875">
        <ele>668.4000244140625</ele>
        <time>2022-05-02T10:44:28.000Z</time>
      </trkpt>
      <trkpt lat="41.1882666684687137603759765625" lon="-1.50680626742541790008544921875">
        <ele>667.20001220703125</ele>
        <time>2022-05-02T10:44:30.000Z</time>
      </trkpt>
      <trkpt lat="41.18823406286537647247314453125" lon="-1.5066908486187458038330078125">
        <ele>666.20001220703125</ele>
        <time>2022-05-02T10:44:32.000Z</time>
      </trkpt>
      <trkpt lat="41.18821310810744762420654296875" lon="-1.50663502514362335205078125">
        <ele>666</ele>
        <time>2022-05-02T10:44:33.000Z</time>
      </trkpt>
      <trkpt lat="41.18819299153983592987060546875" lon="-1.50658003985881805419921875">
        <ele>666</ele>
        <time>2022-05-02T10:44:34.000Z</time>
      </trkpt>
      <trkpt lat="41.18816767819225788116455078125" lon="-1.506530754268169403076171875">
        <ele>666</ele>
        <time>2022-05-02T10:44:35.000Z</time>
      </trkpt>
      <trkpt lat="41.18813582696020603179931640625" lon="-1.506485156714916229248046875">
        <ele>666</ele>
        <time>2022-05-02T10:44:36.000Z</time>
      </trkpt>
      <trkpt lat="41.18806810118257999420166015625" lon="-1.50639806874096393585205078125">
        <ele>666</ele>
        <time>2022-05-02T10:44:38.000Z</time>
      </trkpt>
      <trkpt lat="41.18799568153917789459228515625" lon="-1.506312824785709381103515625">
        <ele>666.79998779296875</ele>
        <time>2022-05-02T10:44:40.000Z</time>
      </trkpt>
      <trkpt lat="41.18792292661964893341064453125" lon="-1.506245099008083343505859375">
        <ele>666.79998779296875</ele>
        <time>2022-05-02T10:44:42.000Z</time>
      </trkpt>
      <trkpt lat="41.1878864653408527374267578125" lon="-1.50621517561376094818115234375">
        <ele>667</ele>
        <time>2022-05-02T10:44:43.000Z</time>
      </trkpt>
      <trkpt lat="41.18785553611814975738525390625" lon="-1.50618600659072399139404296875">
        <ele>667</ele>
        <time>2022-05-02T10:44:44.000Z</time>
      </trkpt>
      <trkpt lat="41.187798120081424713134765625" lon="-1.50613479316234588623046875">
        <ele>667.20001220703125</ele>
        <time>2022-05-02T10:44:46.000Z</time>
      </trkpt>
      <trkpt lat="41.18774254806339740753173828125" lon="-1.50609053671360015869140625">
        <ele>667.79998779296875</ele>
        <time>2022-05-02T10:44:48.000Z</time>
      </trkpt>
      <trkpt lat="41.187683455646038055419921875" lon="-1.5060437656939029693603515625">
        <ele>668.20001220703125</ele>
        <time>2022-05-02T10:44:50.000Z</time>
      </trkpt>
      <trkpt lat="41.18762620724737644195556640625" lon="-1.50600244291126728057861328125">
        <ele>668.5999755859375</ele>
        <time>2022-05-02T10:44:52.000Z</time>
      </trkpt>
      <trkpt lat="41.18757524527609348297119140625" lon="-1.505966149270534515380859375">
        <ele>668.79998779296875</ele>
        <time>2022-05-02T10:44:54.000Z</time>
      </trkpt>
      <trkpt lat="41.18754942901432514190673828125" lon="-1.50594645179808139801025390625">
        <ele>668.79998779296875</ele>
        <time>2022-05-02T10:44:55.000Z</time>
      </trkpt>
      <trkpt lat="41.1875243671238422393798828125" lon="-1.50592482648789882659912109375">
        <ele>668.5999755859375</ele>
        <time>2022-05-02T10:44:56.000Z</time>
      </trkpt>
      <trkpt lat="41.18750181980431079864501953125" lon="-1.50590336881577968597412109375">
        <ele>668.5999755859375</ele>
        <time>2022-05-02T10:44:57.000Z</time>
      </trkpt>
      <trkpt lat="41.18747952394187450408935546875" lon="-1.50588107295334339141845703125">
        <ele>668.4000244140625</ele>
        <time>2022-05-02T10:44:58.000Z</time>
      </trkpt>
      <trkpt lat="41.1874321661889553070068359375" lon="-1.5058345533907413482666015625">
        <ele>668.20001220703125</ele>
        <time>2022-05-02T10:45:00.000Z</time>
      </trkpt>
      <trkpt lat="41.18738539516925811767578125" lon="-1.5057866089046001434326171875">
        <ele>669.4000244140625</ele>
        <time>2022-05-02T10:45:02.000Z</time>
      </trkpt>
      <trkpt lat="41.18736184202134609222412109375" lon="-1.5057621337473392486572265625">
        <ele>670.20001220703125</ele>
        <time>2022-05-02T10:45:03.000Z</time>
      </trkpt>
      <trkpt lat="41.1873392947018146514892578125" lon="-1.50574109517037868499755859375">
        <ele>670.79998779296875</ele>
        <time>2022-05-02T10:45:04.000Z</time>
      </trkpt>
      <trkpt lat="41.187316663563251495361328125" lon="-1.50572282262146472930908203125">
        <ele>671.4000244140625</ele>
        <time>2022-05-02T10:45:05.000Z</time>
      </trkpt>
      <trkpt lat="41.1872953735291957855224609375" lon="-1.50570605881512165069580078125">
        <ele>672</ele>
        <time>2022-05-02T10:45:06.000Z</time>
      </trkpt>
      <trkpt lat="41.18725673295557498931884765625" lon="-1.5056695975363254547119140625">
        <ele>673.20001220703125</ele>
        <time>2022-05-02T10:45:08.000Z</time>
      </trkpt>
      <trkpt lat="41.18723653256893157958984375" lon="-1.50565157644450664520263671875">
        <ele>673.79998779296875</ele>
        <time>2022-05-02T10:45:09.000Z</time>
      </trkpt>
      <trkpt lat="41.18721834383904933929443359375" lon="-1.5056303702294826507568359375">
        <ele>674.5999755859375</ele>
        <time>2022-05-02T10:45:10.000Z</time>
      </trkpt>
      <trkpt lat="41.18717995472252368927001953125" lon="-1.50558418594300746917724609375">
        <ele>676</ele>
        <time>2022-05-02T10:45:12.000Z</time>
      </trkpt>
      <trkpt lat="41.1871575750410556793212890625" lon="-1.5055639855563640594482421875">
        <ele>676.5999755859375</ele>
        <time>2022-05-02T10:45:13.000Z</time>
      </trkpt>
      <trkpt lat="41.187131591141223907470703125" lon="-1.50554344989359378814697265625">
        <ele>677.20001220703125</ele>
        <time>2022-05-02T10:45:14.000Z</time>
      </trkpt>
      <trkpt lat="41.1870834790170192718505859375" lon="-1.505509503185749053955078125">
        <ele>678.5999755859375</ele>
        <time>2022-05-02T10:45:16.000Z</time>
      </trkpt>
      <trkpt lat="41.187035031616687774658203125" lon="-1.505483351647853851318359375">
        <ele>679.79998779296875</ele>
        <time>2022-05-02T10:45:18.000Z</time>
      </trkpt>
      <trkpt lat="41.18701080791652202606201171875" lon="-1.505472622811794281005859375">
        <ele>680.4000244140625</ele>
        <time>2022-05-02T10:45:19.000Z</time>
      </trkpt>
      <trkpt lat="41.1869882605969905853271484375" lon="-1.50546432472765445709228515625">
        <ele>680.79998779296875</ele>
        <time>2022-05-02T10:45:20.000Z</time>
      </trkpt>
      <trkpt lat="41.1869419924914836883544921875" lon="-1.50545158423483371734619140625">
        <ele>681.79998779296875</ele>
        <time>2022-05-02T10:45:22.000Z</time>
      </trkpt>
      <trkpt lat="41.186922378838062286376953125" lon="-1.505451500415802001953125">
        <ele>682.20001220703125</ele>
        <time>2022-05-02T10:45:23.000Z</time>
      </trkpt>
      <trkpt lat="41.1869047768414020538330078125" lon="-1.50545007549226284027099609375">
        <ele>682.4000244140625</ele>
        <time>2022-05-02T10:45:24.000Z</time>
      </trkpt>
      <trkpt lat="41.18688784539699554443359375" lon="-1.505445130169391632080078125">
        <ele>682.79998779296875</ele>
        <time>2022-05-02T10:45:25.000Z</time>
      </trkpt>
      <trkpt lat="41.18686865083873271942138671875" lon="-1.505437754094600677490234375">
        <ele>683.4000244140625</ele>
        <time>2022-05-02T10:45:26.000Z</time>
      </trkpt>
      <trkpt lat="41.18682204745709896087646484375" lon="-1.50542845018208026885986328125">
        <ele>684</ele>
        <time>2022-05-02T10:45:28.000Z</time>
      </trkpt>
      <trkpt lat="41.18677175603806972503662109375" lon="-1.505428366363048553466796875">
        <ele>684</ele>
        <time>2022-05-02T10:45:30.000Z</time>
      </trkpt>
      <trkpt lat="41.1867478676140308380126953125" lon="-1.50542476214468479156494140625">
        <ele>684.20001220703125</ele>
        <time>2022-05-02T10:45:31.000Z</time>
      </trkpt>
      <trkpt lat="41.1867270804941654205322265625" lon="-1.5054248459637165069580078125">
        <ele>684.4000244140625</ele>
        <time>2022-05-02T10:45:32.000Z</time>
      </trkpt>
      <trkpt lat="41.18668802082538604736328125" lon="-1.5054342336952686309814453125">
        <ele>684.20001220703125</ele>
        <time>2022-05-02T10:45:34.000Z</time>
      </trkpt>
      <trkpt lat="41.18666782043874263763427734375" lon="-1.5054399333894252777099609375">
        <ele>684</ele>
        <time>2022-05-02T10:45:35.000Z</time>
      </trkpt>
      <trkpt lat="41.18664703331887722015380859375" lon="-1.50544286705553531646728515625">
        <ele>683.79998779296875</ele>
        <time>2022-05-02T10:45:36.000Z</time>
      </trkpt>
      <trkpt lat="41.1866063810884952545166015625" lon="-1.5054503269493579864501953125">
        <ele>683.5999755859375</ele>
        <time>2022-05-02T10:45:38.000Z</time>
      </trkpt>
      <trkpt lat="41.18655935861170291900634765625" lon="-1.50545795448124408721923828125">
        <ele>683.20001220703125</ele>
        <time>2022-05-02T10:45:40.000Z</time>
      </trkpt>
      <trkpt lat="41.1865064688026905059814453125" lon="-1.50547203607857227325439453125">
        <ele>682.5999755859375</ele>
        <time>2022-05-02T10:45:42.000Z</time>
      </trkpt>
      <trkpt lat="41.1864431016147136688232421875" lon="-1.50548008270561695098876953125">
        <ele>682.20001220703125</ele>
        <time>2022-05-02T10:45:44.000Z</time>
      </trkpt>
      <trkpt lat="41.18637428618967533111572265625" lon="-1.5054741315543651580810546875">
        <ele>681.79998779296875</ele>
        <time>2022-05-02T10:45:46.000Z</time>
      </trkpt>
      <trkpt lat="41.186305470764636993408203125" lon="-1.5054520033299922943115234375">
        <ele>682</ele>
        <time>2022-05-02T10:45:48.000Z</time>
      </trkpt>
      <trkpt lat="41.186237744987010955810546875" lon="-1.5054261870682239532470703125">
        <ele>681.79998779296875</ele>
        <time>2022-05-02T10:45:50.000Z</time>
      </trkpt>
      <trkpt lat="41.186169683933258056640625" lon="-1.5054047293961048126220703125">
        <ele>681.79998779296875</ele>
        <time>2022-05-02T10:45:52.000Z</time>
      </trkpt>
      <trkpt lat="41.1860932409763336181640625" lon="-1.50539391674101352691650390625">
        <ele>682.79998779296875</ele>
        <time>2022-05-02T10:45:54.000Z</time>
      </trkpt>
      <trkpt lat="41.18605233728885650634765625" lon="-1.50539626367390155792236328125">
        <ele>683</ele>
        <time>2022-05-02T10:45:55.000Z</time>
      </trkpt>
      <trkpt lat="41.18601403199136257171630859375" lon="-1.5054047293961048126220703125">
        <ele>682.79998779296875</ele>
        <time>2022-05-02T10:45:56.000Z</time>
      </trkpt>
      <trkpt lat="41.18594932369887828826904296875" lon="-1.505428366363048553466796875">
        <ele>682</ele>
        <time>2022-05-02T10:45:58.000Z</time>
      </trkpt>
      <trkpt lat="41.18591420352458953857421875" lon="-1.50543901138007640838623046875">
        <ele>681.4000244140625</ele>
        <time>2022-05-02T10:45:59.000Z</time>
      </trkpt>
      <trkpt lat="41.18588109500706195831298828125" lon="-1.5054526738822460174560546875">
        <ele>680.79998779296875</ele>
        <time>2022-05-02T10:46:00.000Z</time>
      </trkpt>
      <trkpt lat="41.1858466453850269317626953125" lon="-1.50546801276504993438720703125">
        <ele>680.20001220703125</ele>
        <time>2022-05-02T10:46:01.000Z</time>
      </trkpt>
      <trkpt lat="41.1858127824962139129638671875" lon="-1.5054850280284881591796875">
        <ele>679.5999755859375</ele>
        <time>2022-05-02T10:46:02.000Z</time>
      </trkpt>
      <trkpt lat="41.1857445538043975830078125" lon="-1.5055354870855808258056640625">
        <ele>677.5999755859375</ele>
        <time>2022-05-02T10:46:04.000Z</time>
      </trkpt>
      <trkpt lat="41.1857111938297748565673828125" lon="-1.5055656619369983673095703125">
        <ele>677.4000244140625</ele>
        <time>2022-05-02T10:46:05.000Z</time>
      </trkpt>
      <trkpt lat="41.18567875586450099945068359375" lon="-1.50559659115970134735107421875">
        <ele>677.20001220703125</ele>
        <time>2022-05-02T10:46:06.000Z</time>
      </trkpt>
      <trkpt lat="41.1856243573129177093505859375" lon="-1.50566347874701023101806640625">
        <ele>676.79998779296875</ele>
        <time>2022-05-02T10:46:08.000Z</time>
      </trkpt>
      <trkpt lat="41.18557280860841274261474609375" lon="-1.5057225711643695831298828125">
        <ele>676.5999755859375</ele>
        <time>2022-05-02T10:46:10.000Z</time>
      </trkpt>
      <trkpt lat="41.18554464541375637054443359375" lon="-1.5057500638067722320556640625">
        <ele>676.4000244140625</ele>
        <time>2022-05-02T10:46:11.000Z</time>
      </trkpt>
      <trkpt lat="41.18551631458103656768798828125" lon="-1.50577847845852375030517578125">
        <ele>676.4000244140625</ele>
        <time>2022-05-02T10:46:12.000Z</time>
      </trkpt>
      <trkpt lat="41.18546166457235813140869140625" lon="-1.50582977570593357086181640625">
        <ele>676.20001220703125</ele>
        <time>2022-05-02T10:46:14.000Z</time>
      </trkpt>
      <trkpt lat="41.185409612953662872314453125" lon="-1.50587755255401134490966796875">
        <ele>676.20001220703125</ele>
        <time>2022-05-02T10:46:16.000Z</time>
      </trkpt>
      <trkpt lat="41.1853564716875553131103515625" lon="-1.505924575030803680419921875">
        <ele>676</ele>
        <time>2022-05-02T10:46:18.000Z</time>
      </trkpt>
      <trkpt lat="41.18532906286418437957763671875" lon="-1.5059485472738742828369140625">
        <ele>676</ele>
        <time>2022-05-02T10:46:19.000Z</time>
      </trkpt>
      <trkpt lat="41.18530106730759143829345703125" lon="-1.505972854793071746826171875">
        <ele>676</ele>
        <time>2022-05-02T10:46:20.000Z</time>
      </trkpt>
      <trkpt lat="41.185245998203754425048828125" lon="-1.50601786561310291290283203125">
        <ele>676</ele>
        <time>2022-05-02T10:46:22.000Z</time>
      </trkpt>
      <trkpt lat="41.1852188408374786376953125" lon="-1.50603999383747577667236328125">
        <ele>676</ele>
        <time>2022-05-02T10:46:23.000Z</time>
      </trkpt>
      <trkpt lat="41.18519092909991741180419921875" lon="-1.5060612000524997711181640625">
        <ele>676.20001220703125</ele>
        <time>2022-05-02T10:46:24.000Z</time>
      </trkpt>
      <trkpt lat="41.18513560853898525238037109375" lon="-1.50610201992094516754150390625">
        <ele>676.20001220703125</ele>
        <time>2022-05-02T10:46:26.000Z</time>
      </trkpt>
      <trkpt lat="41.1851090379059314727783203125" lon="-1.506121717393398284912109375">
        <ele>676.4000244140625</ele>
        <time>2022-05-02T10:46:27.000Z</time>
      </trkpt>
      <trkpt lat="41.18508313782513141632080078125" lon="-1.50614141486585140228271484375">
        <ele>676.4000244140625</ele>
        <time>2022-05-02T10:46:28.000Z</time>
      </trkpt>
      <trkpt lat="41.185029409825801849365234375" lon="-1.506180055439472198486328125">
        <ele>676.5999755859375</ele>
        <time>2022-05-02T10:46:30.000Z</time>
      </trkpt>
      <trkpt lat="41.18496604263782501220703125" lon="-1.50621836073696613311767578125">
        <ele>677.20001220703125</ele>
        <time>2022-05-02T10:46:32.000Z</time>
      </trkpt>
      <trkpt lat="41.18490175344049930572509765625" lon="-1.50625876151025295257568359375">
        <ele>677.5999755859375</ele>
        <time>2022-05-02T10:46:34.000Z</time>
      </trkpt>
      <trkpt lat="41.18483419530093669891357421875" lon="-1.50630050338804721832275390625">
        <ele>678.4000244140625</ele>
        <time>2022-05-02T10:46:36.000Z</time>
      </trkpt>
      <trkpt lat="41.1847734265029430389404296875" lon="-1.5063428319990634918212890625">
        <ele>678.79998779296875</ele>
        <time>2022-05-02T10:46:38.000Z</time>
      </trkpt>
      <trkpt lat="41.184710562229156494140625" lon="-1.5063854120671749114990234375">
        <ele>679.4000244140625</ele>
        <time>2022-05-02T10:46:40.000Z</time>
      </trkpt>
      <trkpt lat="41.18465113453567028045654296875" lon="-1.5064246393740177154541015625">
        <ele>680.20001220703125</ele>
        <time>2022-05-02T10:46:42.000Z</time>
      </trkpt>
      <trkpt lat="41.18458927609026432037353515625" lon="-1.50646579451858997344970703125">
        <ele>680.79998779296875</ele>
        <time>2022-05-02T10:46:44.000Z</time>
      </trkpt>
      <trkpt lat="41.18452607654035091400146484375" lon="-1.5065121464431285858154296875">
        <ele>681.5999755859375</ele>
        <time>2022-05-02T10:46:46.000Z</time>
      </trkpt>
      <trkpt lat="41.18445130996406078338623046875" lon="-1.50655799545347690582275390625">
        <ele>682.4000244140625</ele>
        <time>2022-05-02T10:46:48.000Z</time>
      </trkpt>
      <trkpt lat="41.1843737773597240447998046875" lon="-1.506604850292205810546875">
        <ele>683.4000244140625</ele>
        <time>2022-05-02T10:46:50.000Z</time>
      </trkpt>
      <trkpt lat="41.18430093862116336822509765625" lon="-1.50664986111223697662353515625">
        <ele>683.79998779296875</ele>
        <time>2022-05-02T10:46:52.000Z</time>
      </trkpt>
      <trkpt lat="41.1842291057109832763671875" lon="-1.5066898427903652191162109375">
        <ele>684</ele>
        <time>2022-05-02T10:46:54.000Z</time>
      </trkpt>
      <trkpt lat="41.184197925031185150146484375" lon="-1.506709121167659759521484375">
        <ele>683.79998779296875</ele>
        <time>2022-05-02T10:46:55.000Z</time>
      </trkpt>
      <trkpt lat="41.18416934274137020111083984375" lon="-1.50672622025012969970703125">
        <ele>683.79998779296875</ele>
        <time>2022-05-02T10:46:56.000Z</time>
      </trkpt>
      <trkpt lat="41.18411083705723285675048828125" lon="-1.50675580836832523345947265625">
        <ele>683.79998779296875</ele>
        <time>2022-05-02T10:46:58.000Z</time>
      </trkpt>
      <trkpt lat="41.18405333720147609710693359375" lon="-1.50679402984678745269775390625">
        <ele>683.5999755859375</ele>
        <time>2022-05-02T10:47:00.000Z</time>
      </trkpt>
      <trkpt lat="41.1840187199413776397705078125" lon="-1.5068189240992069244384765625">
        <ele>683.5999755859375</ele>
        <time>2022-05-02T10:47:01.000Z</time>
      </trkpt>
      <trkpt lat="41.18398225866258144378662109375" lon="-1.5068504400551319122314453125">
        <ele>683.4000244140625</ele>
        <time>2022-05-02T10:47:02.000Z</time>
      </trkpt>
      <trkpt lat="41.1839426122605800628662109375" lon="-1.5068910084664821624755859375">
        <ele>683.20001220703125</ele>
        <time>2022-05-02T10:47:03.000Z</time>
      </trkpt>
      <trkpt lat="41.18390229530632495880126953125" lon="-1.50693811476230621337890625">
        <ele>682.79998779296875</ele>
        <time>2022-05-02T10:47:04.000Z</time>
      </trkpt>
      <trkpt lat="41.18382601998746395111083984375" lon="-1.5070402063429355621337890625">
        <ele>682.20001220703125</ele>
        <time>2022-05-02T10:47:06.000Z</time>
      </trkpt>
      <trkpt lat="41.18375410325825214385986328125" lon="-1.5071391128003597259521484375">
        <ele>682.5999755859375</ele>
        <time>2022-05-02T10:47:08.000Z</time>
      </trkpt>
      <trkpt lat="41.18372174911201000213623046875" lon="-1.5071840398013591766357421875">
        <ele>682.79998779296875</ele>
        <time>2022-05-02T10:47:09.000Z</time>
      </trkpt>
      <trkpt lat="41.18369224481284618377685546875" lon="-1.50722905062139034271240234375">
        <ele>683</ele>
        <time>2022-05-02T10:47:10.000Z</time>
      </trkpt>
      <trkpt lat="41.1836452223360538482666015625" lon="-1.50731437839567661285400390625">
        <ele>683.20001220703125</ele>
        <time>2022-05-02T10:47:12.000Z</time>
      </trkpt>
      <trkpt lat="41.1836009658873081207275390625" lon="-1.50739149190485477447509765625">
        <ele>683.4000244140625</ele>
        <time>2022-05-02T10:47:14.000Z</time>
      </trkpt>
      <trkpt lat="41.18357724510133266448974609375" lon="-1.5074308030307292938232421875">
        <ele>683.4000244140625</ele>
        <time>2022-05-02T10:47:15.000Z</time>
      </trkpt>
      <trkpt lat="41.1835516802966594696044921875" lon="-1.5074690245091915130615234375">
        <ele>683.5999755859375</ele>
        <time>2022-05-02T10:47:16.000Z</time>
      </trkpt>
      <trkpt lat="41.183502562344074249267578125" lon="-1.50755041278898715972900390625">
        <ele>683.4000244140625</ele>
        <time>2022-05-02T10:47:18.000Z</time>
      </trkpt>
      <trkpt lat="41.18348009884357452392578125" lon="-1.50759349577128887176513671875">
        <ele>683</ele>
        <time>2022-05-02T10:47:19.000Z</time>
      </trkpt>
      <trkpt lat="41.18345730006694793701171875" lon="-1.5076359920203685760498046875">
        <ele>682.5999755859375</ele>
        <time>2022-05-02T10:47:20.000Z</time>
      </trkpt>
      <trkpt lat="41.18341312743723392486572265625" lon="-1.507714949548244476318359375">
        <ele>681.79998779296875</ele>
        <time>2022-05-02T10:47:22.000Z</time>
      </trkpt>
      <trkpt lat="41.18337457068264484405517578125" lon="-1.50778971612453460693359375">
        <ele>681.20001220703125</ele>
        <time>2022-05-02T10:47:24.000Z</time>
      </trkpt>
      <trkpt lat="41.18334590457379817962646484375" lon="-1.5078686736524105072021484375">
        <ele>681.20001220703125</ele>
        <time>2022-05-02T10:47:26.000Z</time>
      </trkpt>
      <trkpt lat="41.183334924280643463134765625" lon="-1.5079089067876338958740234375">
        <ele>681.20001220703125</ele>
        <time>2022-05-02T10:47:27.000Z</time>
      </trkpt>
      <trkpt lat="41.18332377634942531585693359375" lon="-1.50795090012252330780029296875">
        <ele>681</ele>
        <time>2022-05-02T10:47:28.000Z</time>
      </trkpt>
      <trkpt lat="41.18330684490501880645751953125" lon="-1.5080413408577442169189453125">
        <ele>680.5999755859375</ele>
        <time>2022-05-02T10:47:30.000Z</time>
      </trkpt>
      <trkpt lat="41.18328672833740711212158203125" lon="-1.50813714601099491119384765625">
        <ele>680.4000244140625</ele>
        <time>2022-05-02T10:47:32.000Z</time>
      </trkpt>
      <trkpt lat="41.1832769215106964111328125" lon="-1.5081834979355335235595703125">
        <ele>680.4000244140625</ele>
        <time>2022-05-02T10:47:33.000Z</time>
      </trkpt>
      <trkpt lat="41.1832680366933345794677734375" lon="-1.508230268955230712890625">
        <ele>680.20001220703125</ele>
        <time>2022-05-02T10:47:34.000Z</time>
      </trkpt>
      <trkpt lat="41.18325269781053066253662109375" lon="-1.50831819511950016021728515625">
        <ele>680</ele>
        <time>2022-05-02T10:47:36.000Z</time>
      </trkpt>
      <trkpt lat="41.1832438968122005462646484375" lon="-1.50838675908744335174560546875">
        <ele>679.79998779296875</ele>
        <time>2022-05-02T10:47:38.000Z</time>
      </trkpt>
      <trkpt lat="41.18324247188866138458251953125" lon="-1.50841693393886089324951171875">
        <ele>679.79998779296875</ele>
        <time>2022-05-02T10:47:39.000Z</time>
      </trkpt>
      <trkpt lat="41.1832361854612827301025390625" lon="-1.50845414958894252777099609375">
        <ele>680</ele>
        <time>2022-05-02T10:47:40.000Z</time>
      </trkpt>
      <trkpt lat="41.183203496038913726806640625" lon="-1.508549116551876068115234375">
        <ele>681</ele>
        <time>2022-05-02T10:47:42.000Z</time>
      </trkpt>
      <trkpt lat="41.18318178690969944000244140625" lon="-1.50860837660729885101318359375">
        <ele>681.79998779296875</ele>
        <time>2022-05-02T10:47:43.000Z</time>
      </trkpt>
      <trkpt lat="41.18316284380853176116943359375" lon="-1.5086756832897663116455078125">
        <ele>681.5999755859375</ele>
        <time>2022-05-02T10:47:44.000Z</time>
      </trkpt>
      <trkpt lat="41.1831242032349109649658203125" lon="-1.50881658308207988739013671875">
        <ele>681.79998779296875</ele>
        <time>2022-05-02T10:47:46.000Z</time>
      </trkpt>
      <trkpt lat="41.1830650269985198974609375" lon="-1.50893309153616428375244140625">
        <ele>682.79998779296875</ele>
        <time>2022-05-02T10:47:48.000Z</time>
      </trkpt>
      <trkpt lat="41.18304415605962276458740234375" lon="-1.50898891501128673553466796875">
        <ele>682.79998779296875</ele>
        <time>2022-05-02T10:47:49.000Z</time>
      </trkpt>
      <trkpt lat="41.18302873335778713226318359375" lon="-1.5090468339622020721435546875">
        <ele>682.5999755859375</ele>
        <time>2022-05-02T10:47:50.000Z</time>
      </trkpt>
      <trkpt lat="41.18300995789468288421630859375" lon="-1.50915102101862430572509765625">
        <ele>682</ele>
        <time>2022-05-02T10:47:52.000Z</time>
      </trkpt>
      <trkpt lat="41.18300124071538448333740234375" lon="-1.5091950260102748870849609375">
        <ele>681.5999755859375</ele>
        <time>2022-05-02T10:47:53.000Z</time>
      </trkpt>
      <trkpt lat="41.18299185298383235931396484375" lon="-1.50923400186002254486083984375">
        <ele>681.4000244140625</ele>
        <time>2022-05-02T10:47:54.000Z</time>
      </trkpt>
      <trkpt lat="41.18297458626329898834228515625" lon="-1.5092946030199527740478515625">
        <ele>681</ele>
        <time>2022-05-02T10:47:56.000Z</time>
      </trkpt>
      <trkpt lat="41.1829689703881740570068359375" lon="-1.50932016782462596893310546875">
        <ele>680.79998779296875</ele>
        <time>2022-05-02T10:47:57.000Z</time>
      </trkpt>
      <trkpt lat="41.1829604208469390869140625" lon="-1.50934162549674510955810546875">
        <ele>680.79998779296875</ele>
        <time>2022-05-02T10:47:58.000Z</time>
      </trkpt>
      <trkpt lat="41.182950027287006378173828125" lon="-1.50936576537787914276123046875">
        <ele>680.79998779296875</ele>
        <time>2022-05-02T10:47:59.000Z</time>
      </trkpt>
      <trkpt lat="41.1829401366412639617919921875" lon="-1.50939476676285266876220703125">
        <ele>680.79998779296875</ele>
        <time>2022-05-02T10:48:00.000Z</time>
      </trkpt>
      <trkpt lat="41.18292429484426975250244140625" lon="-1.5094686113297939300537109375">
        <ele>680.5999755859375</ele>
        <time>2022-05-02T10:48:02.000Z</time>
      </trkpt>
      <trkpt lat="41.1829056032001972198486328125" lon="-1.50956843979656696319580078125">
        <ele>680.79998779296875</ele>
        <time>2022-05-02T10:48:04.000Z</time>
      </trkpt>
      <trkpt lat="41.1828962154686450958251953125" lon="-1.50962426327168941497802734375">
        <ele>680.79998779296875</ele>
        <time>2022-05-02T10:48:05.000Z</time>
      </trkpt>
      <trkpt lat="41.18288825266063213348388671875" lon="-1.509683690965175628662109375">
        <ele>680.79998779296875</ele>
        <time>2022-05-02T10:48:06.000Z</time>
      </trkpt>
      <trkpt lat="41.18288037367165088653564453125" lon="-1.50974378921091556549072265625">
        <ele>681</ele>
        <time>2022-05-02T10:48:07.000Z</time>
      </trkpt>
      <trkpt lat="41.182874925434589385986328125" lon="-1.50980078615248203277587890625">
        <ele>681.79998779296875</ele>
        <time>2022-05-02T10:48:08.000Z</time>
      </trkpt>
      <trkpt lat="41.18288255296647548675537109375" lon="-1.50990891270339488983154296875">
        <ele>683</ele>
        <time>2022-05-02T10:48:10.000Z</time>
      </trkpt>
      <trkpt lat="41.18288422934710979461669921875" lon="-1.510015614330768585205078125">
        <ele>684.5999755859375</ele>
        <time>2022-05-02T10:48:12.000Z</time>
      </trkpt>
      <trkpt lat="41.18288121186196804046630859375" lon="-1.51006766594946384429931640625">
        <ele>685.79998779296875</ele>
        <time>2022-05-02T10:48:13.000Z</time>
      </trkpt>
      <trkpt lat="41.182883642613887786865234375" lon="-1.51011250913143157958984375">
        <ele>686.20001220703125</ele>
        <time>2022-05-02T10:48:14.000Z</time>
      </trkpt>
      <trkpt lat="41.182883642613887786865234375" lon="-1.51020579971373081207275390625">
        <ele>686.5999755859375</ele>
        <time>2022-05-02T10:48:16.000Z</time>
      </trkpt>
      <trkpt lat="41.18287316523492336273193359375" lon="-1.5103064663708209991455078125">
        <ele>687.20001220703125</ele>
        <time>2022-05-02T10:48:18.000Z</time>
      </trkpt>
      <trkpt lat="41.18285707198083400726318359375" lon="-1.51040352880954742431640625">
        <ele>687.4000244140625</ele>
        <time>2022-05-02T10:48:20.000Z</time>
      </trkpt>
      <trkpt lat="41.18284014053642749786376953125" lon="-1.5104982443153858184814453125">
        <ele>687.4000244140625</ele>
        <time>2022-05-02T10:48:22.000Z</time>
      </trkpt>
      <trkpt lat="41.1828177608549594879150390625" lon="-1.5105961449444293975830078125">
        <ele>687</ele>
        <time>2022-05-02T10:48:24.000Z</time>
      </trkpt>
      <trkpt lat="41.18279211223125457763671875" lon="-1.51068658567965030670166015625">
        <ele>685.5999755859375</ele>
        <time>2022-05-02T10:48:26.000Z</time>
      </trkpt>
      <trkpt lat="41.18276906199753284454345703125" lon="-1.51076872833073139190673828125">
        <ele>684.4000244140625</ele>
        <time>2022-05-02T10:48:28.000Z</time>
      </trkpt>
      <trkpt lat="41.18275322020053863525390625" lon="-1.51084533892571926116943359375">
        <ele>683.79998779296875</ele>
        <time>2022-05-02T10:48:30.000Z</time>
      </trkpt>
      <trkpt lat="41.18274006061255931854248046875" lon="-1.510930247604846954345703125">
        <ele>683.4000244140625</ele>
        <time>2022-05-02T10:48:32.000Z</time>
      </trkpt>
      <trkpt lat="41.1827302537858486175537109375" lon="-1.51097592897713184356689453125">
        <ele>683.4000244140625</ele>
        <time>2022-05-02T10:48:33.000Z</time>
      </trkpt>
      <trkpt lat="41.18272304534912109375" lon="-1.5110212750732898712158203125">
        <ele>683.4000244140625</ele>
        <time>2022-05-02T10:48:34.000Z</time>
      </trkpt>
      <trkpt lat="41.18271357379853725433349609375" lon="-1.5111178345978260040283203125">
        <ele>683</ele>
        <time>2022-05-02T10:48:36.000Z</time>
      </trkpt>
      <trkpt lat="41.18271122686564922332763671875" lon="-1.51122839190065860748291015625">
        <ele>683</ele>
        <time>2022-05-02T10:48:38.000Z</time>
      </trkpt>
      <trkpt lat="41.18271105922758579254150390625" lon="-1.51133987121284008026123046875">
        <ele>683</ele>
        <time>2022-05-02T10:48:40.000Z</time>
      </trkpt>
      <trkpt lat="41.18270720355212688446044921875" lon="-1.5114561282098293304443359375">
        <ele>683.5999755859375</ele>
        <time>2022-05-02T10:48:42.000Z</time>
      </trkpt>
      <trkpt lat="41.1827047728002071380615234375" lon="-1.5115674398839473724365234375">
        <ele>684.20001220703125</ele>
        <time>2022-05-02T10:48:44.000Z</time>
      </trkpt>
      <trkpt lat="41.1827007494866847991943359375" lon="-1.51167782954871654510498046875">
        <ele>684.79998779296875</ele>
        <time>2022-05-02T10:48:46.000Z</time>
      </trkpt>
      <trkpt lat="41.18269463069736957550048828125" lon="-1.5117846988141536712646484375">
        <ele>684.79998779296875</ele>
        <time>2022-05-02T10:48:48.000Z</time>
      </trkpt>
      <trkpt lat="41.1826957203447818756103515625" lon="-1.511836834251880645751953125">
        <ele>684.79998779296875</ele>
        <time>2022-05-02T10:48:49.000Z</time>
      </trkpt>
      <trkpt lat="41.18269831873476505279541015625" lon="-1.51189743541181087493896484375">
        <ele>684.79998779296875</ele>
        <time>2022-05-02T10:48:50.000Z</time>
      </trkpt>
      <trkpt lat="41.182695217430591583251953125" lon="-1.5119680948555469512939453125">
        <ele>684.79998779296875</ele>
        <time>2022-05-02T10:48:51.000Z</time>
      </trkpt>
      <trkpt lat="41.1826908588409423828125" lon="-1.51204101741313934326171875">
        <ele>684.20001220703125</ele>
        <time>2022-05-02T10:48:52.000Z</time>
      </trkpt>
      <trkpt lat="41.182683818042278289794921875" lon="-1.5121115930378437042236328125">
        <ele>684</ele>
        <time>2022-05-02T10:48:53.000Z</time>
      </trkpt>
      <trkpt lat="41.18267434649169445037841796875" lon="-1.51217638514935970306396484375">
        <ele>683.79998779296875</ele>
        <time>2022-05-02T10:48:54.000Z</time>
      </trkpt>
      <trkpt lat="41.1826568283140659332275390625" lon="-1.51228484697639942169189453125">
        <ele>682.79998779296875</ele>
        <time>2022-05-02T10:48:56.000Z</time>
      </trkpt>
      <trkpt lat="41.18264081887900829315185546875" lon="-1.51238710619509220123291015625">
        <ele>682</ele>
        <time>2022-05-02T10:48:58.000Z</time>
      </trkpt>
      <trkpt lat="41.18262581527233123779296875" lon="-1.51248492300510406494140625">
        <ele>681.20001220703125</ele>
        <time>2022-05-02T10:49:00.000Z</time>
      </trkpt>
      <trkpt lat="41.18260729126632213592529296875" lon="-1.5125689096748828887939453125">
        <ele>680.20001220703125</ele>
        <time>2022-05-02T10:49:02.000Z</time>
      </trkpt>
      <trkpt lat="41.18259119801223278045654296875" lon="-1.512613333761692047119140625">
        <ele>679.79998779296875</ele>
        <time>2022-05-02T10:49:03.000Z</time>
      </trkpt>
      <trkpt lat="41.1825713329017162322998046875" lon="-1.512655913829803466796875">
        <ele>679.5999755859375</ele>
        <time>2022-05-02T10:49:04.000Z</time>
      </trkpt>
      <trkpt lat="41.18251760490238666534423828125" lon="-1.5127251483500003814697265625">
        <ele>679.4000244140625</ele>
        <time>2022-05-02T10:49:06.000Z</time>
      </trkpt>
      <trkpt lat="41.18245155550539493560791015625" lon="-1.5127779543399810791015625">
        <ele>679.5999755859375</ele>
        <time>2022-05-02T10:49:08.000Z</time>
      </trkpt>
      <trkpt lat="41.18238014169037342071533203125" lon="-1.512828581035137176513671875">
        <ele>679.79998779296875</ele>
        <time>2022-05-02T10:49:10.000Z</time>
      </trkpt>
      <trkpt lat="41.18230118416249752044677734375" lon="-1.51287191547453403472900390625">
        <ele>680.20001220703125</ele>
        <time>2022-05-02T10:49:12.000Z</time>
      </trkpt>
      <trkpt lat="41.18225969374179840087890625" lon="-1.51288750581443309783935546875">
        <ele>680.4000244140625</ele>
        <time>2022-05-02T10:49:13.000Z</time>
      </trkpt>
      <trkpt lat="41.182220466434955596923828125" lon="-1.51289907284080982208251953125">
        <ele>680.79998779296875</ele>
        <time>2022-05-02T10:49:14.000Z</time>
      </trkpt>
      <trkpt lat="41.1821441911160945892333984375" lon="-1.51291432790458202362060546875">
        <ele>681.4000244140625</ele>
        <time>2022-05-02T10:49:16.000Z</time>
      </trkpt>
      <trkpt lat="41.18206464685499668121337890625" lon="-1.51291248388588428497314453125">
        <ele>682.4000244140625</ele>
        <time>2022-05-02T10:49:18.000Z</time>
      </trkpt>
      <trkpt lat="41.1819849349558353424072265625" lon="-1.51290041394531726837158203125">
        <ele>683.20001220703125</ele>
        <time>2022-05-02T10:49:20.000Z</time>
      </trkpt>
      <trkpt lat="41.18194277398288249969482421875" lon="-1.51289136148989200592041015625">
        <ele>683.5999755859375</ele>
        <time>2022-05-02T10:49:21.000Z</time>
      </trkpt>
      <trkpt lat="41.18189902044832706451416015625" lon="-1.5128790400922298431396484375">
        <ele>684</ele>
        <time>2022-05-02T10:49:22.000Z</time>
      </trkpt>
      <trkpt lat="41.1818256787955760955810546875" lon="-1.51285330764949321746826171875">
        <ele>684.4000244140625</ele>
        <time>2022-05-02T10:49:24.000Z</time>
      </trkpt>
      <trkpt lat="41.181763820350170135498046875" lon="-1.51283687911927700042724609375">
        <ele>684.20001220703125</ele>
        <time>2022-05-02T10:49:26.000Z</time>
      </trkpt>
      <trkpt lat="41.18171025998890399932861328125" lon="-1.5128163434565067291259765625">
        <ele>683.79998779296875</ele>
        <time>2022-05-02T10:49:28.000Z</time>
      </trkpt>
      <trkpt lat="41.181653179228305816650390625" lon="-1.5127965621650218963623046875">
        <ele>683.4000244140625</ele>
        <time>2022-05-02T10:49:30.000Z</time>
      </trkpt>
      <trkpt lat="41.18158402852714061737060546875" lon="-1.51274903677403926849365234375">
        <ele>683.4000244140625</ele>
        <time>2022-05-02T10:49:32.000Z</time>
      </trkpt>
      <trkpt lat="41.181525774300098419189453125" lon="-1.5126641280949115753173828125">
        <ele>683.5999755859375</ele>
        <time>2022-05-02T10:49:34.000Z</time>
      </trkpt>
      <trkpt lat="41.18148989975452423095703125" lon="-1.51255910284817218780517578125">
        <ele>684.20001220703125</ele>
        <time>2022-05-02T10:49:36.000Z</time>
      </trkpt>
      <trkpt lat="41.18147514760494232177734375" lon="-1.51250772178173065185546875">
        <ele>684.20001220703125</ele>
        <time>2022-05-02T10:49:37.000Z</time>
      </trkpt>
      <trkpt lat="41.18147187866270542144775390625" lon="-1.51245675981044769287109375">
        <ele>685</ele>
        <time>2022-05-02T10:49:38.000Z</time>
      </trkpt>
      <trkpt lat="41.18149501271545886993408203125" lon="-1.51236288249492645263671875">
        <ele>687</ele>
        <time>2022-05-02T10:49:40.000Z</time>
      </trkpt>
      <trkpt lat="41.181524097919464111328125" lon="-1.5122742019593715667724609375">
        <ele>689</ele>
        <time>2022-05-02T10:49:42.000Z</time>
      </trkpt>
      <trkpt lat="41.18154848925769329071044921875" lon="-1.5121825039386749267578125">
        <ele>690.4000244140625</ele>
        <time>2022-05-02T10:49:44.000Z</time>
      </trkpt>
      <trkpt lat="41.18156039156019687652587890625" lon="-1.51214428246021270751953125">
        <ele>691</ele>
        <time>2022-05-02T10:49:45.000Z</time>
      </trkpt>
      <trkpt lat="41.18157112039625644683837890625" lon="-1.51210513897240161895751953125">
        <ele>691.5999755859375</ele>
        <time>2022-05-02T10:49:46.000Z</time>
      </trkpt>
      <trkpt lat="41.1815871298313140869140625" lon="-1.5120725333690643310546875">
        <ele>692.4000244140625</ele>
        <time>2022-05-02T10:49:47.000Z</time>
      </trkpt>
      <trkpt lat="41.18160464800894260406494140625" lon="-1.51203925721347332000732421875">
        <ele>693.20001220703125</ele>
        <time>2022-05-02T10:49:48.000Z</time>
      </trkpt>
      <trkpt lat="41.1816332302987575531005859375" lon="-1.51196650229394435882568359375">
        <ele>694.5999755859375</ele>
        <time>2022-05-02T10:49:50.000Z</time>
      </trkpt>
      <trkpt lat="41.181631386280059814453125" lon="-1.51187430135905742645263671875">
        <ele>695.5999755859375</ele>
        <time>2022-05-02T10:49:52.000Z</time>
      </trkpt>
      <trkpt lat="41.18161638267338275909423828125" lon="-1.51182166300714015960693359375">
        <ele>695.5999755859375</ele>
        <time>2022-05-02T10:49:53.000Z</time>
      </trkpt>
      <trkpt lat="41.181594170629978179931640625" lon="-1.51176801882684230804443359375">
        <ele>695.4000244140625</ele>
        <time>2022-05-02T10:49:54.000Z</time>
      </trkpt>
      <trkpt lat="41.18153759278357028961181640625" lon="-1.51166550815105438232421875">
        <ele>694.20001220703125</ele>
        <time>2022-05-02T10:49:56.000Z</time>
      </trkpt>
      <trkpt lat="41.181513369083404541015625" lon="-1.51161194778978824615478515625">
        <ele>693.20001220703125</ele>
        <time>2022-05-02T10:49:57.000Z</time>
      </trkpt>
      <trkpt lat="41.18149132467806339263916015625" lon="-1.51155679486691951751708984375">
        <ele>692.4000244140625</ele>
        <time>2022-05-02T10:49:58.000Z</time>
      </trkpt>
      <trkpt lat="41.1814528517425060272216796875" lon="-1.51147381402552127838134765625">
        <ele>691.20001220703125</ele>
        <time>2022-05-02T10:50:00.000Z</time>
      </trkpt>
      <trkpt lat="41.18141605518758296966552734375" lon="-1.51140994392335414886474609375">
        <ele>690.4000244140625</ele>
        <time>2022-05-02T10:50:02.000Z</time>
      </trkpt>
      <trkpt lat="41.1813656799495220184326171875" lon="-1.5113525278866291046142578125">
        <ele>689.4000244140625</ele>
        <time>2022-05-02T10:50:04.000Z</time>
      </trkpt>
      <trkpt lat="41.18131555616855621337890625" lon="-1.51129762642085552215576171875">
        <ele>689</ele>
        <time>2022-05-02T10:50:06.000Z</time>
      </trkpt>
      <trkpt lat="41.18129166774451732635498046875" lon="-1.51127524673938751220703125">
        <ele>688.79998779296875</ele>
        <time>2022-05-02T10:50:07.000Z</time>
      </trkpt>
      <trkpt lat="41.181264258921146392822265625" lon="-1.5112549625337123870849609375">
        <ele>688.5999755859375</ele>
        <time>2022-05-02T10:50:08.000Z</time>
      </trkpt>
      <trkpt lat="41.18120633997023105621337890625" lon="-1.5112137235701084136962890625">
        <ele>688.4000244140625</ele>
        <time>2022-05-02T10:50:10.000Z</time>
      </trkpt>
      <trkpt lat="41.18117465637624263763427734375" lon="-1.51119553484022617340087890625">
        <ele>688.4000244140625</ele>
        <time>2022-05-02T10:50:11.000Z</time>
      </trkpt>
      <trkpt lat="41.18114255368709564208984375" lon="-1.511177681386470794677734375">
        <ele>688.4000244140625</ele>
        <time>2022-05-02T10:50:12.000Z</time>
      </trkpt>
      <trkpt lat="41.18107859976589679718017578125" lon="-1.51115010492503643035888671875">
        <ele>688</ele>
        <time>2022-05-02T10:50:14.000Z</time>
      </trkpt>
      <trkpt lat="41.181014142930507659912109375" lon="-1.5111396275460720062255859375">
        <ele>687.20001220703125</ele>
        <time>2022-05-02T10:50:16.000Z</time>
      </trkpt>
      <trkpt lat="41.18095287121832370758056640625" lon="-1.5111255459487438201904296875">
        <ele>686.79998779296875</ele>
        <time>2022-05-02T10:50:18.000Z</time>
      </trkpt>
      <trkpt lat="41.1809224449098110198974609375" lon="-1.511115990579128265380859375">
        <ele>686.79998779296875</ele>
        <time>2022-05-02T10:50:19.000Z</time>
      </trkpt>
      <trkpt lat="41.18089017458260059356689453125" lon="-1.511109955608844757080078125">
        <ele>686.79998779296875</ele>
        <time>2022-05-02T10:50:20.000Z</time>
      </trkpt>
      <trkpt lat="41.18081322871148586273193359375" lon="-1.51109109632670879364013671875">
        <ele>686.79998779296875</ele>
        <time>2022-05-02T10:50:22.000Z</time>
      </trkpt>
      <trkpt lat="41.18072815239429473876953125" lon="-1.51107131503522396087646484375">
        <ele>687.4000244140625</ele>
        <time>2022-05-02T10:50:24.000Z</time>
      </trkpt>
      <trkpt lat="41.180684566497802734375" lon="-1.511062681674957275390625">
        <ele>688.20001220703125</ele>
        <time>2022-05-02T10:50:25.000Z</time>
      </trkpt>
      <trkpt lat="41.18064089678227901458740234375" lon="-1.51105622760951519012451171875">
        <ele>688.79998779296875</ele>
        <time>2022-05-02T10:50:26.000Z</time>
      </trkpt>
      <trkpt lat="41.1805523000657558441162109375" lon="-1.51105974800884723663330078125">
        <ele>689.4000244140625</ele>
        <time>2022-05-02T10:50:28.000Z</time>
      </trkpt>
      <trkpt lat="41.180464290082454681396484375" lon="-1.511085145175457000732421875">
        <ele>688.20001220703125</ele>
        <time>2022-05-02T10:50:30.000Z</time>
      </trkpt>
      <trkpt lat="41.1803828179836273193359375" lon="-1.51111942715942859649658203125">
        <ele>686.5999755859375</ele>
        <time>2022-05-02T10:50:32.000Z</time>
      </trkpt>
      <trkpt lat="41.1803062073886394500732421875" lon="-1.51114826090633869171142578125">
        <ele>686</ele>
        <time>2022-05-02T10:50:34.000Z</time>
      </trkpt>
      <trkpt lat="41.18026974610984325408935546875" lon="-1.5111597441136837005615234375">
        <ele>685.5999755859375</ele>
        <time>2022-05-02T10:50:35.000Z</time>
      </trkpt>
      <trkpt lat="41.18023353628814220428466796875" lon="-1.51117189787328243255615234375">
        <ele>685.4000244140625</ele>
        <time>2022-05-02T10:50:36.000Z</time>
      </trkpt>
      <trkpt lat="41.180152483284473419189453125" lon="-1.5111983008682727813720703125">
        <ele>685</ele>
        <time>2022-05-02T10:50:38.000Z</time>
      </trkpt>
      <trkpt lat="41.180107556283473968505859375" lon="-1.5112142264842987060546875">
        <ele>685.20001220703125</ele>
        <time>2022-05-02T10:50:39.000Z</time>
      </trkpt>
      <trkpt lat="41.18006790988147258758544921875" lon="-1.51123861782252788543701171875">
        <ele>685</ele>
        <time>2022-05-02T10:50:40.000Z</time>
      </trkpt>
      <trkpt lat="41.17999029345810413360595703125" lon="-1.5112814493477344512939453125">
        <ele>685</ele>
        <time>2022-05-02T10:50:42.000Z</time>
      </trkpt>
      <trkpt lat="41.17990815080702304840087890625" lon="-1.51132126338779926300048828125">
        <ele>685</ele>
        <time>2022-05-02T10:50:44.000Z</time>
      </trkpt>
      <trkpt lat="41.17987076751887798309326171875" lon="-1.51133936829864978790283203125">
        <ele>685</ele>
        <time>2022-05-02T10:50:45.000Z</time>
      </trkpt>
      <trkpt lat="41.17983497679233551025390625" lon="-1.5113568864762783050537109375">
        <ele>684.79998779296875</ele>
        <time>2022-05-02T10:50:46.000Z</time>
      </trkpt>
      <trkpt lat="41.17975895293056964874267578125" lon="-1.51138496585190296173095703125">
        <ele>684.5999755859375</ele>
        <time>2022-05-02T10:50:48.000Z</time>
      </trkpt>
      <trkpt lat="41.17968083359301090240478515625" lon="-1.5114073455333709716796875">
        <ele>684.5999755859375</ele>
        <time>2022-05-02T10:50:50.000Z</time>
      </trkpt>
      <trkpt lat="41.17964143864810466766357421875" lon="-1.5114242769777774810791015625">
        <ele>684.5999755859375</ele>
        <time>2022-05-02T10:50:51.000Z</time>
      </trkpt>
      <trkpt lat="41.17960003204643726348876953125" lon="-1.5114383585751056671142578125">
        <ele>684.5999755859375</ele>
        <time>2022-05-02T10:50:52.000Z</time>
      </trkpt>
      <trkpt lat="41.1795146204531192779541015625" lon="-1.51145939715206623077392578125">
        <ele>684.5999755859375</ele>
        <time>2022-05-02T10:50:54.000Z</time>
      </trkpt>
      <trkpt lat="41.17944295518100261688232421875" lon="-1.5114698745310306549072265625">
        <ele>684.4000244140625</ele>
        <time>2022-05-02T10:50:56.000Z</time>
      </trkpt>
      <trkpt lat="41.17941361851990222930908203125" lon="-1.51147062890231609344482421875">
        <ele>684.4000244140625</ele>
        <time>2022-05-02T10:50:57.000Z</time>
      </trkpt>
      <trkpt lat="41.1793862096965312957763671875" lon="-1.51147012598812580108642578125">
        <ele>684.4000244140625</ele>
        <time>2022-05-02T10:50:58.000Z</time>
      </trkpt>
      <trkpt lat="41.17935947142541408538818359375" lon="-1.51146543212234973907470703125">
        <ele>684.4000244140625</ele>
        <time>2022-05-02T10:50:59.000Z</time>
      </trkpt>
      <trkpt lat="41.17933399043977260589599609375" lon="-1.51145503856241703033447265625">
        <ele>684.4000244140625</ele>
        <time>2022-05-02T10:51:00.000Z</time>
      </trkpt>
      <trkpt lat="41.1792866326868534088134765625" lon="-1.51142586953938007354736328125">
        <ele>684.5999755859375</ele>
        <time>2022-05-02T10:51:02.000Z</time>
      </trkpt>
      <trkpt lat="41.17926877923309803009033203125" lon="-1.5114091895520687103271484375">
        <ele>684.5999755859375</ele>
        <time>2022-05-02T10:51:03.000Z</time>
      </trkpt>
      <trkpt lat="41.17925293743610382080078125" lon="-1.51138655841350555419921875">
        <ele>684.5999755859375</ele>
        <time>2022-05-02T10:51:04.000Z</time>
      </trkpt>
      <trkpt lat="41.179235167801380157470703125" lon="-1.51132646016776561737060546875">
        <ele>685.20001220703125</ele>
        <time>2022-05-02T10:51:06.000Z</time>
      </trkpt>
      <trkpt lat="41.1792282946407794952392578125" lon="-1.511293351650238037109375">
        <ele>685.5999755859375</ele>
        <time>2022-05-02T10:51:07.000Z</time>
      </trkpt>
      <trkpt lat="41.1792195774614810943603515625" lon="-1.51125722564756870269775390625">
        <ele>686</ele>
        <time>2022-05-02T10:51:08.000Z</time>
      </trkpt>
      <trkpt lat="41.17920541204512119293212890625" lon="-1.5111721493303775787353515625">
        <ele>686.79998779296875</ele>
        <time>2022-05-02T10:51:10.000Z</time>
      </trkpt>
      <trkpt lat="41.17919652722775936126708984375" lon="-1.5111369453370571136474609375">
        <ele>687.20001220703125</ele>
        <time>2022-05-02T10:51:11.000Z</time>
      </trkpt>
      <trkpt lat="41.17918730713427066802978515625" lon="-1.511105597019195556640625">
        <ele>687.4000244140625</ele>
        <time>2022-05-02T10:51:12.000Z</time>
      </trkpt>
      <trkpt lat="41.17917825467884540557861328125" lon="-1.51107651181519031524658203125">
        <ele>687.4000244140625</ele>
        <time>2022-05-02T10:51:13.000Z</time>
      </trkpt>
      <trkpt lat="41.1791723035275936126708984375" lon="-1.51105002500116825103759765625">
        <ele>687.5999755859375</ele>
        <time>2022-05-02T10:51:14.000Z</time>
      </trkpt>
      <trkpt lat="41.17916417308151721954345703125" lon="-1.51100702583789825439453125">
        <ele>687.5999755859375</ele>
        <time>2022-05-02T10:51:16.000Z</time>
      </trkpt>
      <trkpt lat="41.1791669391095638275146484375" lon="-1.51096352376043796539306640625">
        <ele>687.5999755859375</ele>
        <time>2022-05-02T10:51:18.000Z</time>
      </trkpt>
      <trkpt lat="41.1791709624230861663818359375" lon="-1.5109421499073505401611328125">
        <ele>687.5999755859375</ele>
        <time>2022-05-02T10:51:19.000Z</time>
      </trkpt>
      <trkpt lat="41.1791785061359405517578125" lon="-1.51092052459716796875">
        <ele>687.79998779296875</ele>
        <time>2022-05-02T10:51:20.000Z</time>
      </trkpt>
      <trkpt lat="41.17920608259737491607666015625" lon="-1.51088909246027469635009765625">
        <ele>688</ele>
        <time>2022-05-02T10:51:22.000Z</time>
      </trkpt>
      <trkpt lat="41.1792229302227497100830078125" lon="-1.51087693870067596435546875">
        <ele>688</ele>
        <time>2022-05-02T10:51:23.000Z</time>
      </trkpt>
      <trkpt lat="41.17926375009119510650634765625" lon="-1.51085187681019306182861328125">
        <ele>688.4000244140625</ele>
        <time>2022-05-02T10:51:25.000Z</time>
      </trkpt>
      <trkpt lat="41.17928571067750453948974609375" lon="-1.51083477772772312164306640625">
        <ele>688.4000244140625</ele>
        <time>2022-05-02T10:51:26.000Z</time>
      </trkpt>
      <trkpt lat="41.17933466099202632904052734375" lon="-1.5107889287173748016357421875">
        <ele>688.5999755859375</ele>
        <time>2022-05-02T10:51:28.000Z</time>
      </trkpt>
      <trkpt lat="41.17940255440771579742431640625" lon="-1.5107178501784801483154296875">
        <ele>689</ele>
        <time>2022-05-02T10:51:30.000Z</time>
      </trkpt>
      <trkpt lat="41.1794653348624706268310546875" lon="-1.510641239583492279052734375">
        <ele>689</ele>
        <time>2022-05-02T10:51:32.000Z</time>
      </trkpt>
      <trkpt lat="41.17949928157031536102294921875" lon="-1.510605700314044952392578125">
        <ele>689.20001220703125</ele>
        <time>2022-05-02T10:51:33.000Z</time>
      </trkpt>
      <trkpt lat="41.17953297682106494903564453125" lon="-1.5105723403394222259521484375">
        <ele>689.4000244140625</ele>
        <time>2022-05-02T10:51:34.000Z</time>
      </trkpt>
      <trkpt lat="41.1795682646334171295166015625" lon="-1.510544009506702423095703125">
        <ele>689.4000244140625</ele>
        <time>2022-05-02T10:51:35.000Z</time>
      </trkpt>
      <trkpt lat="41.17960422299802303314208984375" lon="-1.5105207078158855438232421875">
        <ele>689.5999755859375</ele>
        <time>2022-05-02T10:51:36.000Z</time>
      </trkpt>
      <trkpt lat="41.1796393431723117828369140625" lon="-1.510502435266971588134765625">
        <ele>689.79998779296875</ele>
        <time>2022-05-02T10:51:37.000Z</time>
      </trkpt>
      <trkpt lat="41.1796725355088710784912109375" lon="-1.51048659346997737884521484375">
        <ele>690.79998779296875</ele>
        <time>2022-05-02T10:51:38.000Z</time>
      </trkpt>
      <trkpt lat="41.17972710169851779937744140625" lon="-1.510446779429912567138671875">
        <ele>692.20001220703125</ele>
        <time>2022-05-02T10:51:40.000Z</time>
      </trkpt>
      <trkpt lat="41.1797486431896686553955078125" lon="-1.51041886769235134124755859375">
        <ele>692.79998779296875</ele>
        <time>2022-05-02T10:51:41.000Z</time>
      </trkpt>
      <trkpt lat="41.17977194488048553466796875" lon="-1.51038148440420627593994140625">
        <ele>693.20001220703125</ele>
        <time>2022-05-02T10:51:42.000Z</time>
      </trkpt>
      <trkpt lat="41.17982131429016590118408203125" lon="-1.51029179804027080535888671875">
        <ele>694.20001220703125</ele>
        <time>2022-05-02T10:51:44.000Z</time>
      </trkpt>
      <trkpt lat="41.17987546138465404510498046875" lon="-1.51019657962024211883544921875">
        <ele>695.20001220703125</ele>
        <time>2022-05-02T10:51:46.000Z</time>
      </trkpt>
      <trkpt lat="41.1798944883048534393310546875" lon="-1.5101455338299274444580078125">
        <ele>695.4000244140625</ele>
        <time>2022-05-02T10:51:47.000Z</time>
      </trkpt>
      <trkpt lat="41.17991410195827484130859375" lon="-1.51009566150605678558349609375">
        <ele>695.79998779296875</ele>
        <time>2022-05-02T10:51:48.000Z</time>
      </trkpt>
      <trkpt lat="41.17995022796094417572021484375" lon="-1.50999558158218860626220703125">
        <ele>696.4000244140625</ele>
        <time>2022-05-02T10:51:50.000Z</time>
      </trkpt>
      <trkpt lat="41.1799778044223785400390625" lon="-1.50990036316215991973876953125">
        <ele>697</ele>
        <time>2022-05-02T10:51:52.000Z</time>
      </trkpt>
      <trkpt lat="41.1800014413893222808837890625" lon="-1.50981805287301540374755859375">
        <ele>697.5999755859375</ele>
        <time>2022-05-02T10:51:54.000Z</time>
      </trkpt>
      <trkpt lat="41.18002164177596569061279296875" lon="-1.50973322801291942596435546875">
        <ele>698</ele>
        <time>2022-05-02T10:51:56.000Z</time>
      </trkpt>
      <trkpt lat="41.18003211915493011474609375" lon="-1.50964706204831600189208984375">
        <ele>697.5999755859375</ele>
        <time>2022-05-02T10:51:58.000Z</time>
      </trkpt>
      <trkpt lat="41.18003337644040584564208984375" lon="-1.50960314087569713592529296875">
        <ele>697</ele>
        <time>2022-05-02T10:51:59.000Z</time>
      </trkpt>
      <trkpt lat="41.18003505282104015350341796875" lon="-1.50956332683563232421875">
        <ele>696.79998779296875</ele>
        <time>2022-05-02T10:52:00.000Z</time>
      </trkpt>
      <trkpt lat="41.18003052659332752227783203125" lon="-1.509487889707088470458984375">
        <ele>696.20001220703125</ele>
        <time>2022-05-02T10:52:02.000Z</time>
      </trkpt>
      <trkpt lat="41.18002449162304401397705078125" lon="-1.5094478242099285125732421875">
        <ele>695.5999755859375</ele>
        <time>2022-05-02T10:52:03.000Z</time>
      </trkpt>
      <trkpt lat="41.18001736700534820556640625" lon="-1.509410105645656585693359375">
        <ele>695.20001220703125</ele>
        <time>2022-05-02T10:52:04.000Z</time>
      </trkpt>
      <trkpt lat="41.1800017766654491424560546875" lon="-1.50933827273547649383544921875">
        <ele>694.20001220703125</ele>
        <time>2022-05-02T10:52:06.000Z</time>
      </trkpt>
      <trkpt lat="41.17998593486845493316650390625" lon="-1.5092615783214569091796875">
        <ele>693.79998779296875</ele>
        <time>2022-05-02T10:52:08.000Z</time>
      </trkpt>
      <trkpt lat="41.179971434175968170166015625" lon="-1.50918656028807163238525390625">
        <ele>693.5999755859375</ele>
        <time>2022-05-02T10:52:10.000Z</time>
      </trkpt>
      <trkpt lat="41.17995031177997589111328125" lon="-1.50912134908139705657958984375">
        <ele>693.20001220703125</ele>
        <time>2022-05-02T10:52:12.000Z</time>
      </trkpt>
      <trkpt lat="41.1799481324851512908935546875" lon="-1.50905907154083251953125">
        <ele>693.5999755859375</ele>
        <time>2022-05-02T10:52:14.000Z</time>
      </trkpt>
      <trkpt lat="41.1799488030374050140380859375" lon="-1.50899327360093593597412109375">
        <ele>694</ele>
        <time>2022-05-02T10:52:16.000Z</time>
      </trkpt>
      <trkpt lat="41.1799461208283901214599609375" lon="-1.5089066885411739349365234375">
        <ele>694.5999755859375</ele>
        <time>2022-05-02T10:52:18.000Z</time>
      </trkpt>
      <trkpt lat="41.1799441091716289520263671875" lon="-1.50885681621730327606201171875">
        <ele>695.5999755859375</ele>
        <time>2022-05-02T10:52:19.000Z</time>
      </trkpt>
      <trkpt lat="41.17993882857263088226318359375" lon="-1.50881172157824039459228515625">
        <ele>696.20001220703125</ele>
        <time>2022-05-02T10:52:20.000Z</time>
      </trkpt>
      <trkpt lat="41.179920136928558349609375" lon="-1.50871633552014827728271484375">
        <ele>697.4000244140625</ele>
        <time>2022-05-02T10:52:22.000Z</time>
      </trkpt>
      <trkpt lat="41.1798931472003459930419921875" lon="-1.5086424909532070159912109375">
        <ele>698</ele>
        <time>2022-05-02T10:52:24.000Z</time>
      </trkpt>
      <trkpt lat="41.1798700131475925445556640625" lon="-1.50861256755888462066650390625">
        <ele>697</ele>
        <time>2022-05-02T10:52:25.000Z</time>
      </trkpt>
      <trkpt lat="41.17984813638031482696533203125" lon="-1.50858742184937000274658203125">
        <ele>696.5999755859375</ele>
        <time>2022-05-02T10:52:26.000Z</time>
      </trkpt>
      <trkpt lat="41.1797972582280635833740234375" lon="-1.50853746570646762847900390625">
        <ele>695.4000244140625</ele>
        <time>2022-05-02T10:52:28.000Z</time>
      </trkpt>
      <trkpt lat="41.17972257547080516815185546875" lon="-1.508478708565235137939453125">
        <ele>693</ele>
        <time>2022-05-02T10:52:30.000Z</time>
      </trkpt>
      <trkpt lat="41.17964311502873897552490234375" lon="-1.50842078961431980133056640625">
        <ele>690.5999755859375</ele>
        <time>2022-05-02T10:52:32.000Z</time>
      </trkpt>
      <trkpt lat="41.179538927972316741943359375" lon="-1.50836773216724395751953125">
        <ele>690</ele>
        <time>2022-05-02T10:52:34.000Z</time>
      </trkpt>
      <trkpt lat="41.17942149750888347625732421875" lon="-1.5083290077745914459228515625">
        <ele>688.4000244140625</ele>
        <time>2022-05-02T10:52:36.000Z</time>
      </trkpt>
      <trkpt lat="41.17930783890187740325927734375" lon="-1.5083013474941253662109375">
        <ele>687.5999755859375</ele>
        <time>2022-05-02T10:52:38.000Z</time>
      </trkpt>
      <trkpt lat="41.1792165599763393402099609375" lon="-1.508278883993625640869140625">
        <ele>688</ele>
        <time>2022-05-02T10:52:40.000Z</time>
      </trkpt>
      <trkpt lat="41.1791313998401165008544921875" lon="-1.50825516320765018463134765625">
        <ele>688.4000244140625</ele>
        <time>2022-05-02T10:52:42.000Z</time>
      </trkpt>
      <trkpt lat="41.1790593154728412628173828125" lon="-1.50822423398494720458984375">
        <ele>688.5999755859375</ele>
        <time>2022-05-02T10:52:44.000Z</time>
      </trkpt>
      <trkpt lat="41.17897189222276210784912109375" lon="-1.50819313712418079376220703125">
        <ele>689.4000244140625</ele>
        <time>2022-05-02T10:52:46.000Z</time>
      </trkpt>
      <trkpt lat="41.1789262108504772186279296875" lon="-1.5081779658794403076171875">
        <ele>689.5999755859375</ele>
        <time>2022-05-02T10:52:47.000Z</time>
      </trkpt>
      <trkpt lat="41.17888740263879299163818359375" lon="-1.50815575383603572845458984375">
        <ele>689.5999755859375</ele>
        <time>2022-05-02T10:52:48.000Z</time>
      </trkpt>
      <trkpt lat="41.17880492471158504486083984375" lon="-1.508125327527523040771484375">
        <ele>689.5999755859375</ele>
        <time>2022-05-02T10:52:50.000Z</time>
      </trkpt>
      <trkpt lat="41.178728230297565460205078125" lon="-1.508093811571598052978515625">
        <ele>689.20001220703125</ele>
        <time>2022-05-02T10:52:52.000Z</time>
      </trkpt>
      <trkpt lat="41.17863762192428112030029296875" lon="-1.5080644749104976654052734375">
        <ele>688.79998779296875</ele>
        <time>2022-05-02T10:52:54.000Z</time>
      </trkpt>
      <trkpt lat="41.1785530485212802886962890625" lon="-1.50803438387811183929443359375">
        <ele>688.4000244140625</ele>
        <time>2022-05-02T10:52:56.000Z</time>
      </trkpt>
      <trkpt lat="41.1784645356237888336181640625" lon="-1.5080036222934722900390625">
        <ele>688.4000244140625</ele>
        <time>2022-05-02T10:52:58.000Z</time>
      </trkpt>
      <trkpt lat="41.17837543599307537078857421875" lon="-1.507988870143890380859375">
        <ele>688.4000244140625</ele>
        <time>2022-05-02T10:53:00.000Z</time>
      </trkpt>
      <trkpt lat="41.17827854119241237640380859375" lon="-1.50799398310482501983642578125">
        <ele>688.5999755859375</ele>
        <time>2022-05-02T10:53:02.000Z</time>
      </trkpt>
      <trkpt lat="41.178232021629810333251953125" lon="-1.50799758732318878173828125">
        <ele>688.79998779296875</ele>
        <time>2022-05-02T10:53:03.000Z</time>
      </trkpt>
      <trkpt lat="41.1781889386475086212158203125" lon="-1.50799482129514217376708984375">
        <ele>689</ele>
        <time>2022-05-02T10:53:04.000Z</time>
      </trkpt>
      <trkpt lat="41.1781051196157932281494140625" lon="-1.50800571776926517486572265625">
        <ele>689.5999755859375</ele>
        <time>2022-05-02T10:53:06.000Z</time>
      </trkpt>
      <trkpt lat="41.178026497364044189453125" lon="-1.5080165304243564605712890625">
        <ele>690</ele>
        <time>2022-05-02T10:53:08.000Z</time>
      </trkpt>
      <trkpt lat="41.17795600555837154388427734375" lon="-1.5080155245959758758544921875">
        <ele>690.5999755859375</ele>
        <time>2022-05-02T10:53:10.000Z</time>
      </trkpt>
      <trkpt lat="41.1779227294027805328369140625" lon="-1.5080108307301998138427734375">
        <ele>690.79998779296875</ele>
        <time>2022-05-02T10:53:11.000Z</time>
      </trkpt>
      <trkpt lat="41.1778932251036167144775390625" lon="-1.5080034546554088592529296875">
        <ele>691.20001220703125</ele>
        <time>2022-05-02T10:53:12.000Z</time>
      </trkpt>
      <trkpt lat="41.1778368987143039703369140625" lon="-1.5079915523529052734375">
        <ele>691.5999755859375</ele>
        <time>2022-05-02T10:53:14.000Z</time>
      </trkpt>
      <trkpt lat="41.1778104119002819061279296875" lon="-1.50798459537327289581298828125">
        <ele>692</ele>
        <time>2022-05-02T10:53:15.000Z</time>
      </trkpt>
      <trkpt lat="41.17778484709560871124267578125" lon="-1.50797788985073566436767578125">
        <ele>692.20001220703125</ele>
        <time>2022-05-02T10:53:16.000Z</time>
      </trkpt>
      <trkpt lat="41.17776070721447467803955078125" lon="-1.507971771061420440673828125">
        <ele>692.4000244140625</ele>
        <time>2022-05-02T10:53:17.000Z</time>
      </trkpt>
      <trkpt lat="41.1777341365814208984375" lon="-1.5079736150801181793212890625">
        <ele>692.5999755859375</ele>
        <time>2022-05-02T10:53:18.000Z</time>
      </trkpt>
      <trkpt lat="41.177704632282257080078125" lon="-1.50798224844038486480712890625">
        <ele>692.5999755859375</ele>
        <time>2022-05-02T10:53:19.000Z</time>
      </trkpt>
      <trkpt lat="41.17767445743083953857421875" lon="-1.50800219736993312835693359375">
        <ele>692.5999755859375</ele>
        <time>2022-05-02T10:53:20.000Z</time>
      </trkpt>
      <trkpt lat="41.1776380799710750579833984375" lon="-1.508026756346225738525390625">
        <ele>692.5999755859375</ele>
        <time>2022-05-02T10:53:21.000Z</time>
      </trkpt>
      <trkpt lat="41.17759474553167819976806640625" lon="-1.5080503933131694793701171875">
        <ele>692.4000244140625</ele>
        <time>2022-05-02T10:53:22.000Z</time>
      </trkpt>
      <trkpt lat="41.1775012873113155364990234375" lon="-1.5081154368817806243896484375">
        <ele>692</ele>
        <time>2022-05-02T10:53:24.000Z</time>
      </trkpt>
      <trkpt lat="41.1774603836238384246826171875" lon="-1.5081442706286907196044921875">
        <ele>691.79998779296875</ele>
        <time>2022-05-02T10:53:25.000Z</time>
      </trkpt>
      <trkpt lat="41.17741738446056842803955078125" lon="-1.50817184709012508392333984375">
        <ele>691.79998779296875</ele>
        <time>2022-05-02T10:53:26.000Z</time>
      </trkpt>
      <trkpt lat="41.17732568643987178802490234375" lon="-1.50821727700531482696533203125">
        <ele>691.5999755859375</ele>
        <time>2022-05-02T10:53:28.000Z</time>
      </trkpt>
      <trkpt lat="41.17728277109563350677490234375" lon="-1.50823898613452911376953125">
        <ele>691.5999755859375</ele>
        <time>2022-05-02T10:53:29.000Z</time>
      </trkpt>
      <trkpt lat="41.17724522016942501068115234375" lon="-1.5082606114447116851806640625">
        <ele>691.4000244140625</ele>
        <time>2022-05-02T10:53:30.000Z</time>
      </trkpt>
      <trkpt lat="41.17717280052602291107177734375" lon="-1.5083078853785991668701171875">
        <ele>691.20001220703125</ele>
        <time>2022-05-02T10:53:32.000Z</time>
      </trkpt>
      <trkpt lat="41.17714011110365390777587890625" lon="-1.50832842104136943817138671875">
        <ele>691</ele>
        <time>2022-05-02T10:53:33.000Z</time>
      </trkpt>
      <trkpt lat="41.17710725404322147369384765625" lon="-1.50834669359028339385986328125">
        <ele>690.79998779296875</ele>
        <time>2022-05-02T10:53:34.000Z</time>
      </trkpt>
      <trkpt lat="41.177037768065929412841796875" lon="-1.50837904773652553558349609375">
        <ele>690.20001220703125</ele>
        <time>2022-05-02T10:53:36.000Z</time>
      </trkpt>
      <trkpt lat="41.17696107365190982818603515625" lon="-1.508406959474086761474609375">
        <ele>689.5999755859375</ele>
        <time>2022-05-02T10:53:38.000Z</time>
      </trkpt>
      <trkpt lat="41.17688479833304882049560546875" lon="-1.5084289200603961944580078125">
        <ele>688.79998779296875</ele>
        <time>2022-05-02T10:53:40.000Z</time>
      </trkpt>
      <trkpt lat="41.17684640921652317047119140625" lon="-1.50844057090580463409423828125">
        <ele>688.5999755859375</ele>
        <time>2022-05-02T10:53:41.000Z</time>
      </trkpt>
      <trkpt lat="41.17680449970066547393798828125" lon="-1.5084483660757541656494140625">
        <ele>688.20001220703125</ele>
        <time>2022-05-02T10:53:42.000Z</time>
      </trkpt>
      <trkpt lat="41.17672897875308990478515625" lon="-1.5085003338754177093505859375">
        <ele>687.5999755859375</ele>
        <time>2022-05-02T10:53:44.000Z</time>
      </trkpt>
      <trkpt lat="41.17664809338748455047607421875" lon="-1.508596725761890411376953125">
        <ele>686.5999755859375</ele>
        <time>2022-05-02T10:53:46.000Z</time>
      </trkpt>
      <trkpt lat="41.17657785303890705108642578125" lon="-1.50868314318358898162841796875">
        <ele>686</ele>
        <time>2022-05-02T10:53:48.000Z</time>
      </trkpt>
      <trkpt lat="41.17649587802588939666748046875" lon="-1.50876528583467006683349609375">
        <ele>686</ele>
        <time>2022-05-02T10:53:50.000Z</time>
      </trkpt>
      <trkpt lat="41.17642932571470737457275390625" lon="-1.50881976820528507232666015625">
        <ele>686</ele>
        <time>2022-05-02T10:53:52.000Z</time>
      </trkpt>
      <trkpt lat="41.1763995699584484100341796875" lon="-1.5088512003421783447265625">
        <ele>686</ele>
        <time>2022-05-02T10:53:53.000Z</time>
      </trkpt>
      <trkpt lat="41.17636294104158878326416015625" lon="-1.5088726580142974853515625">
        <ele>686</ele>
        <time>2022-05-02T10:53:54.000Z</time>
      </trkpt>
      <trkpt lat="41.17632974870502948760986328125" lon="-1.50889570824801921844482421875">
        <ele>686</ele>
        <time>2022-05-02T10:53:55.000Z</time>
      </trkpt>
      <trkpt lat="41.1763003282248973846435546875" lon="-1.50891599245369434356689453125">
        <ele>686</ele>
        <time>2022-05-02T10:53:56.000Z</time>
      </trkpt>
      <trkpt lat="41.176237799227237701416015625" lon="-1.5089465864002704620361328125">
        <ele>686.79998779296875</ele>
        <time>2022-05-02T10:53:58.000Z</time>
      </trkpt>
      <trkpt lat="41.1762000806629657745361328125" lon="-1.50895689614117145538330078125">
        <ele>687.4000244140625</ele>
        <time>2022-05-02T10:53:59.000Z</time>
      </trkpt>
      <trkpt lat="41.1761588416993618011474609375" lon="-1.50896678678691387176513671875">
        <ele>688</ele>
        <time>2022-05-02T10:54:00.000Z</time>
      </trkpt>
      <trkpt lat="41.17606236599385738372802734375" lon="-1.50898187421262264251708984375">
        <ele>689.5999755859375</ele>
        <time>2022-05-02T10:54:02.000Z</time>
      </trkpt>
      <trkpt lat="41.17597200907766819000244140625" lon="-1.50900383479893207550048828125">
        <ele>689.79998779296875</ele>
        <time>2022-05-02T10:54:04.000Z</time>
      </trkpt>
      <trkpt lat="41.17586472071707248687744140625" lon="-1.509074158966541290283203125">
        <ele>688.5999755859375</ele>
        <time>2022-05-02T10:54:06.000Z</time>
      </trkpt>
      <trkpt lat="41.175837479531764984130859375" lon="-1.50911204516887664794921875">
        <ele>688</ele>
        <time>2022-05-02T10:54:07.000Z</time>
      </trkpt>
      <trkpt lat="41.17580554448068141937255859375" lon="-1.50914532132446765899658203125">
        <ele>687.5999755859375</ele>
        <time>2022-05-02T10:54:08.000Z</time>
      </trkpt>
      <trkpt lat="41.17577285505831241607666015625" lon="-1.50917650200426578521728515625">
        <ele>687.20001220703125</ele>
        <time>2022-05-02T10:54:09.000Z</time>
      </trkpt>
      <trkpt lat="41.17574033327400684356689453125" lon="-1.5092081017792224884033203125">
        <ele>687</ele>
        <time>2022-05-02T10:54:10.000Z</time>
      </trkpt>
      <trkpt lat="41.17567445151507854461669921875" lon="-1.5092617459595203399658203125">
        <ele>687.20001220703125</ele>
        <time>2022-05-02T10:54:12.000Z</time>
      </trkpt>
      <trkpt lat="41.1756374873220920562744140625" lon="-1.50928127579391002655029296875">
        <ele>687.4000244140625</ele>
        <time>2022-05-02T10:54:13.000Z</time>
      </trkpt>
      <trkpt lat="41.175594739615917205810546875" lon="-1.50929200462996959686279296875">
        <ele>687.5999755859375</ele>
        <time>2022-05-02T10:54:14.000Z</time>
      </trkpt>
      <trkpt lat="41.17550991475582122802734375" lon="-1.50928060524165630340576171875">
        <ele>687.79998779296875</ele>
        <time>2022-05-02T10:54:16.000Z</time>
      </trkpt>
      <trkpt lat="41.17543690837919712066650390625" lon="-1.5092010609805583953857421875">
        <ele>687.79998779296875</ele>
        <time>2022-05-02T10:54:18.000Z</time>
      </trkpt>
      <trkpt lat="41.1754034645855426788330078125" lon="-1.509165354073047637939453125">
        <ele>688</ele>
        <time>2022-05-02T10:54:19.000Z</time>
      </trkpt>
      <trkpt lat="41.175371445715427398681640625" lon="-1.50912989862263202667236328125">
        <ele>688.4000244140625</ele>
        <time>2022-05-02T10:54:20.000Z</time>
      </trkpt>
      <trkpt lat="41.17532107047736644744873046875" lon="-1.5090605802834033966064453125">
        <ele>689.20001220703125</ele>
        <time>2022-05-02T10:54:22.000Z</time>
      </trkpt>
      <trkpt lat="41.1752831004559993743896484375" lon="-1.50901439599692821502685546875">
        <ele>689.4000244140625</ele>
        <time>2022-05-02T10:54:24.000Z</time>
      </trkpt>
      <trkpt lat="41.17527312599122524261474609375" lon="-1.5089995600283145904541015625">
        <ele>689.5999755859375</ele>
        <time>2022-05-02T10:54:25.000Z</time>
      </trkpt>
      <trkpt lat="41.1752666719257831573486328125" lon="-1.50898874737322330474853515625">
        <ele>689.5999755859375</ele>
        <time>2022-05-02T10:54:26.000Z</time>
      </trkpt>
      <trkpt lat="41.17527027614414691925048828125" lon="-1.50898992083966732025146484375">
        <ele>689.5999755859375</ele>
        <time>2022-05-02T10:54:28.000Z</time>
      </trkpt>
      <trkpt lat="41.175248734652996063232421875" lon="-1.508896462619304656982421875">
        <ele>690.20001220703125</ele>
        <time>2022-05-02T11:02:45.000Z</time>
      </trkpt>
      <trkpt lat="41.17523574270308017730712890625" lon="-1.5088667906820774078369140625">
        <ele>690.79998779296875</ele>
        <time>2022-05-02T11:02:46.000Z</time>
      </trkpt>
      <trkpt lat="41.175209172070026397705078125" lon="-1.5088024176657199859619140625">
        <ele>691.4000244140625</ele>
        <time>2022-05-02T11:02:48.000Z</time>
      </trkpt>
      <trkpt lat="41.1751885525882244110107421875" lon="-1.5087450854480266571044921875">
        <ele>691.5999755859375</ele>
        <time>2022-05-02T11:02:50.000Z</time>
      </trkpt>
      <trkpt lat="41.1751872114837169647216796875" lon="-1.50872555561363697052001953125">
        <ele>691.79998779296875</ele>
        <time>2022-05-02T11:02:51.000Z</time>
      </trkpt>
      <trkpt lat="41.17518779821693897247314453125" lon="-1.5087001584470272064208984375">
        <ele>692</ele>
        <time>2022-05-02T11:02:52.000Z</time>
      </trkpt>
      <trkpt lat="41.17519752122461795806884765625" lon="-1.50862547568976879119873046875">
        <ele>693</ele>
        <time>2022-05-02T11:02:54.000Z</time>
      </trkpt>
      <trkpt lat="41.17519601248204708099365234375" lon="-1.50857987813651561737060546875">
        <ele>693.79998779296875</ele>
        <time>2022-05-02T11:02:55.000Z</time>
      </trkpt>
      <trkpt lat="41.17520003579556941986083984375" lon="-1.508539058268070220947265625">
        <ele>694.4000244140625</ele>
        <time>2022-05-02T11:02:56.000Z</time>
      </trkpt>
      <trkpt lat="41.175209842622280120849609375" lon="-1.50846295058727264404296875">
        <ele>695.79998779296875</ele>
        <time>2022-05-02T11:02:58.000Z</time>
      </trkpt>
      <trkpt lat="41.17521143518388271331787109375" lon="-1.5083813108503818511962890625">
        <ele>697.20001220703125</ele>
        <time>2022-05-02T11:03:00.000Z</time>
      </trkpt>
      <trkpt lat="41.1752130277454853057861328125" lon="-1.50833613239228725433349609375">
        <ele>697.79998779296875</ele>
        <time>2022-05-02T11:03:01.000Z</time>
      </trkpt>
      <trkpt lat="41.1752193979918956756591796875" lon="-1.5082927979528903961181640625">
        <ele>698.79998779296875</ele>
        <time>2022-05-02T11:03:02.000Z</time>
      </trkpt>
      <trkpt lat="41.17523758672177791595458984375" lon="-1.50820772163569927215576171875">
        <ele>700.79998779296875</ele>
        <time>2022-05-02T11:03:04.000Z</time>
      </trkpt>
      <trkpt lat="41.17524764500558376312255859375" lon="-1.508118622004985809326171875">
        <ele>702.5999755859375</ele>
        <time>2022-05-02T11:03:06.000Z</time>
      </trkpt>
      <trkpt lat="41.1752509139478206634521484375" lon="-1.50802046991884708404541015625">
        <ele>704.4000244140625</ele>
        <time>2022-05-02T11:03:08.000Z</time>
      </trkpt>
      <trkpt lat="41.17525032721459865570068359375" lon="-1.50791904889047145843505859375">
        <ele>706</ele>
        <time>2022-05-02T11:03:10.000Z</time>
      </trkpt>
      <trkpt lat="41.17524496279656887054443359375" lon="-1.507876552641391754150390625">
        <ele>706.20001220703125</ele>
        <time>2022-05-02T11:03:11.000Z</time>
      </trkpt>
      <trkpt lat="41.175242699682712554931640625" lon="-1.50783858262002468109130859375">
        <ele>706.79998779296875</ele>
        <time>2022-05-02T11:03:12.000Z</time>
      </trkpt>
      <trkpt lat="41.17523901164531707763671875" lon="-1.50777387432754039764404296875">
        <ele>707.5999755859375</ele>
        <time>2022-05-02T11:03:14.000Z</time>
      </trkpt>
      <trkpt lat="41.17523507215082645416259765625" lon="-1.5077405981719493865966796875">
        <ele>708.20001220703125</ele>
        <time>2022-05-02T11:03:15.000Z</time>
      </trkpt>
      <trkpt lat="41.1752314679324626922607421875" lon="-1.50770564563572406768798828125">
        <ele>708.4000244140625</ele>
        <time>2022-05-02T11:03:16.000Z</time>
      </trkpt>
      <trkpt lat="41.1752240918576717376708984375" lon="-1.50763842277228832244873046875">
        <ele>708.79998779296875</ele>
        <time>2022-05-02T11:03:18.000Z</time>
      </trkpt>
      <trkpt lat="41.17521612904965877532958984375" lon="-1.50758586823940277099609375">
        <ele>708.79998779296875</ele>
        <time>2022-05-02T11:03:20.000Z</time>
      </trkpt>
      <trkpt lat="41.17520724423229694366455078125" lon="-1.50752660818397998809814453125">
        <ele>709</ele>
        <time>2022-05-02T11:03:22.000Z</time>
      </trkpt>
      <trkpt lat="41.17519534192979335784912109375" lon="-1.507462151348590850830078125">
        <ele>709.4000244140625</ele>
        <time>2022-05-02T11:03:24.000Z</time>
      </trkpt>
      <trkpt lat="41.1751741357147693634033203125" lon="-1.50740138255059719085693359375">
        <ele>709.4000244140625</ele>
        <time>2022-05-02T11:03:26.000Z</time>
      </trkpt>
      <trkpt lat="41.1751540191471576690673828125" lon="-1.50734438560903072357177734375">
        <ele>709.5999755859375</ele>
        <time>2022-05-02T11:03:28.000Z</time>
      </trkpt>
      <trkpt lat="41.17513180710375308990478515625" lon="-1.50727733038365840911865234375">
        <ele>709.79998779296875</ele>
        <time>2022-05-02T11:03:30.000Z</time>
      </trkpt>
      <trkpt lat="41.17511336691677570343017578125" lon="-1.50722670368850231170654296875">
        <ele>710.20001220703125</ele>
        <time>2022-05-02T11:03:32.000Z</time>
      </trkpt>
      <trkpt lat="41.1750933341681957244873046875" lon="-1.50718227960169315338134765625">
        <ele>710.20001220703125</ele>
        <time>2022-05-02T11:03:34.000Z</time>
      </trkpt>
      <trkpt lat="41.17508805356919765472412109375" lon="-1.50715805590152740478515625">
        <ele>710.4000244140625</ele>
        <time>2022-05-02T11:03:35.000Z</time>
      </trkpt>
      <trkpt lat="41.17508470080792903900146484375" lon="-1.5071360953152179718017578125">
        <ele>710.79998779296875</ele>
        <time>2022-05-02T11:03:36.000Z</time>
      </trkpt>
      <trkpt lat="41.175086461007595062255859375" lon="-1.507114470005035400390625">
        <ele>711.20001220703125</ele>
        <time>2022-05-02T11:03:37.000Z</time>
      </trkpt>
      <trkpt lat="41.17508453316986560821533203125" lon="-1.50708907283842563629150390625">
        <ele>711.79998779296875</ele>
        <time>2022-05-02T11:03:38.000Z</time>
      </trkpt>
      <trkpt lat="41.175089813768863677978515625" lon="-1.50703475810587406158447265625">
        <ele>713</ele>
        <time>2022-05-02T11:03:40.000Z</time>
      </trkpt>
      <trkpt lat="41.17508838884532451629638671875" lon="-1.50700894184410572052001953125">
        <ele>713.4000244140625</ele>
        <time>2022-05-02T11:03:41.000Z</time>
      </trkpt>
      <trkpt lat="41.17508620955049991607666015625" lon="-1.5069872327148914337158203125">
        <ele>713.5999755859375</ele>
        <time>2022-05-02T11:03:42.000Z</time>
      </trkpt>
      <trkpt lat="41.1750822700560092926025390625" lon="-1.50695965625345706939697265625">
        <ele>713.79998779296875</ele>
        <time>2022-05-02T11:03:44.000Z</time>
      </trkpt>
      <trkpt lat="41.17508419789373874664306640625" lon="-1.5069537051022052764892578125">
        <ele>714</ele>
        <time>2022-05-02T11:03:45.000Z</time>
      </trkpt>
      <trkpt lat="41.17508201859891414642333984375" lon="-1.50668825022876262664794921875">
        <ele>714</ele>
        <time>2022-05-02T11:04:13.000Z</time>
      </trkpt>
      <trkpt lat="41.1750779114663600921630859375" lon="-1.50666712783277034759521484375">
        <ele>713.4000244140625</ele>
        <time>2022-05-02T11:04:14.000Z</time>
      </trkpt>
      <trkpt lat="41.17506056092679500579833984375" lon="-1.50662404485046863555908203125">
        <ele>711.5999755859375</ele>
        <time>2022-05-02T11:04:16.000Z</time>
      </trkpt>
      <trkpt lat="41.1750497482717037200927734375" lon="-1.506583727896213531494140625">
        <ele>710.4000244140625</ele>
        <time>2022-05-02T11:04:18.000Z</time>
      </trkpt>
      <trkpt lat="41.17504647932946681976318359375" lon="-1.5065637789666652679443359375">
        <ele>709.79998779296875</ele>
        <time>2022-05-02T11:04:19.000Z</time>
      </trkpt>
      <trkpt lat="41.175038181245326995849609375" lon="-1.50654223747551441192626953125">
        <ele>709</ele>
        <time>2022-05-02T11:04:20.000Z</time>
      </trkpt>
      <trkpt lat="41.1750152148306369781494140625" lon="-1.5064876712858676910400390625">
        <ele>707.5999755859375</ele>
        <time>2022-05-02T11:04:22.000Z</time>
      </trkpt>
      <trkpt lat="41.1749937571585178375244140625" lon="-1.5064206160604953765869140625">
        <ele>706.5999755859375</ele>
        <time>2022-05-02T11:04:24.000Z</time>
      </trkpt>
      <trkpt lat="41.1749746464192867279052734375" lon="-1.506363451480865478515625">
        <ele>705.79998779296875</ele>
        <time>2022-05-02T11:04:26.000Z</time>
      </trkpt>
      <trkpt lat="41.17495679296553134918212890625" lon="-1.506308801472187042236328125">
        <ele>705.20001220703125</ele>
        <time>2022-05-02T11:04:28.000Z</time>
      </trkpt>
      <trkpt lat="41.174944974482059478759765625" lon="-1.50627519004046916961669921875">
        <ele>704.4000244140625</ele>
        <time>2022-05-02T11:04:29.000Z</time>
      </trkpt>
      <trkpt lat="41.174929551780223846435546875" lon="-1.50623998604714870452880859375">
        <ele>703.4000244140625</ele>
        <time>2022-05-02T11:04:30.000Z</time>
      </trkpt>
      <trkpt lat="41.17491102777421474456787109375" lon="-1.506207883358001708984375">
        <ele>702</ele>
        <time>2022-05-02T11:04:31.000Z</time>
      </trkpt>
      <trkpt lat="41.1748918332159519195556640625" lon="-1.5061805583536624908447265625">
        <ele>701.4000244140625</ele>
        <time>2022-05-02T11:04:32.000Z</time>
      </trkpt>
      <trkpt lat="41.17486107163131237030029296875" lon="-1.50613118894398212432861328125">
        <ele>700.4000244140625</ele>
        <time>2022-05-02T11:04:34.000Z</time>
      </trkpt>
      <trkpt lat="41.1748365126550197601318359375" lon="-1.50608072988688945770263671875">
        <ele>700.20001220703125</ele>
        <time>2022-05-02T11:04:36.000Z</time>
      </trkpt>
      <trkpt lat="41.1748093552887439727783203125" lon="-1.50603580288589000701904296875">
        <ele>700</ele>
        <time>2022-05-02T11:04:38.000Z</time>
      </trkpt>
      <trkpt lat="41.17478840053081512451171875" lon="-1.50598232634365558624267578125">
        <ele>700</ele>
        <time>2022-05-02T11:04:40.000Z</time>
      </trkpt>
      <trkpt lat="41.174763254821300506591796875" lon="-1.5059063024818897247314453125">
        <ele>700</ele>
        <time>2022-05-02T11:04:42.000Z</time>
      </trkpt>
      <trkpt lat="41.17473802529275417327880859375" lon="-1.50586598552763462066650390625">
        <ele>699.79998779296875</ele>
        <time>2022-05-02T11:04:43.000Z</time>
      </trkpt>
      <trkpt lat="41.17470365948975086212158203125" lon="-1.5058285184204578399658203125">
        <ele>699.20001220703125</ele>
        <time>2022-05-02T11:04:44.000Z</time>
      </trkpt>
      <trkpt lat="41.17463844828307628631591796875" lon="-1.50576976127922534942626953125">
        <ele>698.20001220703125</ele>
        <time>2022-05-02T11:04:46.000Z</time>
      </trkpt>
      <trkpt lat="41.17458396591246128082275390625" lon="-1.50573204271495342254638671875">
        <ele>698</ele>
        <time>2022-05-02T11:04:48.000Z</time>
      </trkpt>
      <trkpt lat="41.1745263822376728057861328125" lon="-1.50569030083715915679931640625">
        <ele>698</ele>
        <time>2022-05-02T11:04:50.000Z</time>
      </trkpt>
      <trkpt lat="41.1744851432740688323974609375" lon="-1.50563866831362247467041015625">
        <ele>698</ele>
        <time>2022-05-02T11:04:52.000Z</time>
      </trkpt>
      <trkpt lat="41.174440719187259674072265625" lon="-1.5055891312658786773681640625">
        <ele>698</ele>
        <time>2022-05-02T11:04:54.000Z</time>
      </trkpt>
      <trkpt lat="41.17438648827373981475830078125" lon="-1.50553573854267597198486328125">
        <ele>698.4000244140625</ele>
        <time>2022-05-02T11:04:56.000Z</time>
      </trkpt>
      <trkpt lat="41.1743570677936077117919921875" lon="-1.50551210157573223114013671875">
        <ele>698</ele>
        <time>2022-05-02T11:04:57.000Z</time>
      </trkpt>
      <trkpt lat="41.17432965897023677825927734375" lon="-1.5054959245026111602783203125">
        <ele>698</ele>
        <time>2022-05-02T11:04:58.000Z</time>
      </trkpt>
      <trkpt lat="41.1742779426276683807373046875" lon="-1.50546382181346416473388671875">
        <ele>698</ele>
        <time>2022-05-02T11:05:00.000Z</time>
      </trkpt>
      <trkpt lat="41.17422706447541713714599609375" lon="-1.50542534887790679931640625">
        <ele>698</ele>
        <time>2022-05-02T11:05:02.000Z</time>
      </trkpt>
      <trkpt lat="41.17418012581765651702880859375" lon="-1.505380086600780487060546875">
        <ele>697.20001220703125</ele>
        <time>2022-05-02T11:05:04.000Z</time>
      </trkpt>
      <trkpt lat="41.17414173670113086700439453125" lon="-1.50533172301948070526123046875">
        <ele>696.5999755859375</ele>
        <time>2022-05-02T11:05:06.000Z</time>
      </trkpt>
      <trkpt lat="41.17412589490413665771484375" lon="-1.50530205108225345611572265625">
        <ele>696.20001220703125</ele>
        <time>2022-05-02T11:05:07.000Z</time>
      </trkpt>
      <trkpt lat="41.17410988546907901763916015625" lon="-1.50527070276439189910888671875">
        <ele>696.20001220703125</ele>
        <time>2022-05-02T11:05:08.000Z</time>
      </trkpt>
      <trkpt lat="41.17408725433051586151123046875" lon="-1.50523331947624683380126953125">
        <ele>696.79998779296875</ele>
        <time>2022-05-02T11:05:09.000Z</time>
      </trkpt>
      <trkpt lat="41.17406277917325496673583984375" lon="-1.505202390253543853759765625">
        <ele>697.5999755859375</ele>
        <time>2022-05-02T11:05:10.000Z</time>
      </trkpt>
      <trkpt lat="41.17401366122066974639892578125" lon="-1.5051549486815929412841796875">
        <ele>698.4000244140625</ele>
        <time>2022-05-02T11:05:12.000Z</time>
      </trkpt>
      <trkpt lat="41.17396303452551364898681640625" lon="-1.50510675273835659027099609375">
        <ele>699</ele>
        <time>2022-05-02T11:05:14.000Z</time>
      </trkpt>
      <trkpt lat="41.17390804924070835113525390625" lon="-1.50506651960313320159912109375">
        <ele>697</ele>
        <time>2022-05-02T11:05:16.000Z</time>
      </trkpt>
      <trkpt lat="41.1738340370357036590576171875" lon="-1.505028717219829559326171875">
        <ele>694.20001220703125</ele>
        <time>2022-05-02T11:05:18.000Z</time>
      </trkpt>
      <trkpt lat="41.1737523972988128662109375" lon="-1.504990495741367340087890625">
        <ele>693.79998779296875</ele>
        <time>2022-05-02T11:05:20.000Z</time>
      </trkpt>
      <trkpt lat="41.17371258325874805450439453125" lon="-1.504972390830516815185546875">
        <ele>694.5999755859375</ele>
        <time>2022-05-02T11:05:21.000Z</time>
      </trkpt>
      <trkpt lat="41.17367838509380817413330078125" lon="-1.5049554593861103057861328125">
        <ele>695.5999755859375</ele>
        <time>2022-05-02T11:05:22.000Z</time>
      </trkpt>
      <trkpt lat="41.173611916601657867431640625" lon="-1.5049432218074798583984375">
        <ele>696.4000244140625</ele>
        <time>2022-05-02T11:05:24.000Z</time>
      </trkpt>
      <trkpt lat="41.17355198599398136138916015625" lon="-1.5049474127590656280517578125">
        <ele>696.79998779296875</ele>
        <time>2022-05-02T11:05:26.000Z</time>
      </trkpt>
      <trkpt lat="41.1734855175018310546875" lon="-1.504952274262905120849609375">
        <ele>697.4000244140625</ele>
        <time>2022-05-02T11:05:28.000Z</time>
      </trkpt>
      <trkpt lat="41.17340345866978168487548828125" lon="-1.50497465394437313079833984375">
        <ele>697</ele>
        <time>2022-05-02T11:05:30.000Z</time>
      </trkpt>
      <trkpt lat="41.1733616329729557037353515625" lon="-1.504989154636859893798828125">
        <ele>696.5999755859375</ele>
        <time>2022-05-02T11:05:31.000Z</time>
      </trkpt>
      <trkpt lat="41.17332391440868377685546875" lon="-1.50500298477709293365478515625">
        <ele>696.4000244140625</ele>
        <time>2022-05-02T11:05:32.000Z</time>
      </trkpt>
      <trkpt lat="41.1732566915452480316162109375" lon="-1.50501891039311885833740234375">
        <ele>696.5999755859375</ele>
        <time>2022-05-02T11:05:34.000Z</time>
      </trkpt>
      <trkpt lat="41.1731983534991741180419921875" lon="-1.5050272084772586822509765625">
        <ele>697.4000244140625</ele>
        <time>2022-05-02T11:05:36.000Z</time>
      </trkpt>
      <trkpt lat="41.1731477268040180206298828125" lon="-1.50503567419946193695068359375">
        <ele>698.20001220703125</ele>
        <time>2022-05-02T11:05:38.000Z</time>
      </trkpt>
      <trkpt lat="41.17309533990919589996337890625" lon="-1.5050505101680755615234375">
        <ele>699</ele>
        <time>2022-05-02T11:05:40.000Z</time>
      </trkpt>
      <trkpt lat="41.17306910455226898193359375" lon="-1.50506702251732349395751953125">
        <ele>699</ele>
        <time>2022-05-02T11:05:41.000Z</time>
      </trkpt>
      <trkpt lat="41.17304236628115177154541015625" lon="-1.5050865523517131805419921875">
        <ele>699.20001220703125</ele>
        <time>2022-05-02T11:05:42.000Z</time>
      </trkpt>
      <trkpt lat="41.17296852171421051025390625" lon="-1.50512896478176116943359375">
        <ele>699.79998779296875</ele>
        <time>2022-05-02T11:05:44.000Z</time>
      </trkpt>
      <trkpt lat="41.1729368381202220916748046875" lon="-1.50514430366456508636474609375">
        <ele>699.4000244140625</ele>
        <time>2022-05-02T11:05:45.000Z</time>
      </trkpt>
      <trkpt lat="41.17290926165878772735595703125" lon="-1.5051552839577198028564453125">
        <ele>699.20001220703125</ele>
        <time>2022-05-02T11:05:46.000Z</time>
      </trkpt>
      <trkpt lat="41.17285528220236301422119140625" lon="-1.5051804296672344207763671875">
        <ele>698.4000244140625</ele>
        <time>2022-05-02T11:05:48.000Z</time>
      </trkpt>
      <trkpt lat="41.17279644124209880828857421875" lon="-1.5052226744592189788818359375">
        <ele>697.4000244140625</ele>
        <time>2022-05-02T11:05:50.000Z</time>
      </trkpt>
      <trkpt lat="41.17276609875261783599853515625" lon="-1.50524857454001903533935546875">
        <ele>696.79998779296875</ele>
        <time>2022-05-02T11:05:51.000Z</time>
      </trkpt>
      <trkpt lat="41.17273508571088314056396484375" lon="-1.505272127687931060791015625">
        <ele>696.20001220703125</ele>
        <time>2022-05-02T11:05:52.000Z</time>
      </trkpt>
      <trkpt lat="41.17267775349318981170654296875" lon="-1.5053205750882625579833984375">
        <ele>695.5999755859375</ele>
        <time>2022-05-02T11:05:54.000Z</time>
      </trkpt>
      <trkpt lat="41.17262494750320911407470703125" lon="-1.5053638257086277008056640625">
        <ele>695.4000244140625</ele>
        <time>2022-05-02T11:05:56.000Z</time>
      </trkpt>
      <trkpt lat="41.17259410209953784942626953125" lon="-1.50538318790495395660400390625">
        <ele>695.5999755859375</ele>
        <time>2022-05-02T11:05:57.000Z</time>
      </trkpt>
      <trkpt lat="41.1725606583058834075927734375" lon="-1.5053950063884258270263671875">
        <ele>695.5999755859375</ele>
        <time>2022-05-02T11:05:58.000Z</time>
      </trkpt>
      <trkpt lat="41.1724885739386081695556640625" lon="-1.5054104290902614593505859375">
        <ele>696.20001220703125</ele>
        <time>2022-05-02T11:06:00.000Z</time>
      </trkpt>
      <trkpt lat="41.17240467108786106109619140625" lon="-1.50544152595102787017822265625">
        <ele>696.5999755859375</ele>
        <time>2022-05-02T11:06:02.000Z</time>
      </trkpt>
      <trkpt lat="41.1723308265209197998046875" lon="-1.5054691024124622344970703125">
        <ele>696.5999755859375</ele>
        <time>2022-05-02T11:06:04.000Z</time>
      </trkpt>
      <trkpt lat="41.17229604162275791168212890625" lon="-1.5054778195917606353759765625">
        <ele>696.5999755859375</ele>
        <time>2022-05-02T11:06:05.000Z</time>
      </trkpt>
      <trkpt lat="41.17226134054362773895263671875" lon="-1.50548310019075870513916015625">
        <ele>696.5999755859375</ele>
        <time>2022-05-02T11:06:06.000Z</time>
      </trkpt>
      <trkpt lat="41.17219344712793827056884765625" lon="-1.50548209436237812042236328125">
        <ele>696.79998779296875</ele>
        <time>2022-05-02T11:06:08.000Z</time>
      </trkpt>
      <trkpt lat="41.17213946767151355743408203125" lon="-1.5054825134575366973876953125">
        <ele>697</ele>
        <time>2022-05-02T11:06:10.000Z</time>
      </trkpt>
      <trkpt lat="41.1721201054751873016357421875" lon="-1.5054862014949321746826171875">
        <ele>697</ele>
        <time>2022-05-02T11:06:11.000Z</time>
      </trkpt>
      <trkpt lat="41.1721003241837024688720703125" lon="-1.50548947043716907501220703125">
        <ele>696.5999755859375</ele>
        <time>2022-05-02T11:06:12.000Z</time>
      </trkpt>
      <trkpt lat="41.17204374633729457855224609375" lon="-1.505502797663211822509765625">
        <ele>695.79998779296875</ele>
        <time>2022-05-02T11:06:14.000Z</time>
      </trkpt>
      <trkpt lat="41.171969734132289886474609375" lon="-1.50550120510160923004150390625">
        <ele>695</ele>
        <time>2022-05-02T11:06:16.000Z</time>
      </trkpt>
      <trkpt lat="41.1718951351940631866455078125" lon="-1.5054972656071186065673828125">
        <ele>694.4000244140625</ele>
        <time>2022-05-02T11:06:18.000Z</time>
      </trkpt>
      <trkpt lat="41.1718549020588397979736328125" lon="-1.50549508631229400634765625">
        <ele>694</ele>
        <time>2022-05-02T11:06:19.000Z</time>
      </trkpt>
      <trkpt lat="41.17181651294231414794921875" lon="-1.5054862014949321746826171875">
        <ele>694</ele>
        <time>2022-05-02T11:06:20.000Z</time>
      </trkpt>
      <trkpt lat="41.171776615083217620849609375" lon="-1.505476646125316619873046875">
        <ele>694.20001220703125</ele>
        <time>2022-05-02T11:06:21.000Z</time>
      </trkpt>
      <trkpt lat="41.17173713631927967071533203125" lon="-1.50546516291797161102294921875">
        <ele>694.4000244140625</ele>
        <time>2022-05-02T11:06:22.000Z</time>
      </trkpt>
      <trkpt lat="41.17166236974298954010009765625" lon="-1.50543414987623691558837890625">
        <ele>694.5999755859375</ele>
        <time>2022-05-02T11:06:24.000Z</time>
      </trkpt>
      <trkpt lat="41.171595565974712371826171875" lon="-1.50539316236972808837890625">
        <ele>694.79998779296875</ele>
        <time>2022-05-02T11:06:26.000Z</time>
      </trkpt>
      <trkpt lat="41.17156748659908771514892578125" lon="-1.50537413544952869415283203125">
        <ele>695</ele>
        <time>2022-05-02T11:06:27.000Z</time>
      </trkpt>
      <trkpt lat="41.17154167033731937408447265625" lon="-1.50535217486321926116943359375">
        <ele>695</ele>
        <time>2022-05-02T11:06:28.000Z</time>
      </trkpt>
      <trkpt lat="41.17149188183248043060302734375" lon="-1.50529249571263790130615234375">
        <ele>695.5999755859375</ele>
        <time>2022-05-02T11:06:30.000Z</time>
      </trkpt>
      <trkpt lat="41.17143622599542140960693359375" lon="-1.5052401088178157806396484375">
        <ele>696</ele>
        <time>2022-05-02T11:06:32.000Z</time>
      </trkpt>
      <trkpt lat="41.17139331065118312835693359375" lon="-1.5051767416298389434814453125">
        <ele>696.79998779296875</ele>
        <time>2022-05-02T11:06:34.000Z</time>
      </trkpt>
      <trkpt lat="41.1713774688541889190673828125" lon="-1.50515578687191009521484375">
        <ele>697.20001220703125</ele>
        <time>2022-05-02T11:06:35.000Z</time>
      </trkpt>
      <trkpt lat="41.1713664047420024871826171875" lon="-1.5051417052745819091796875">
        <ele>697.4000244140625</ele>
        <time>2022-05-02T11:06:36.000Z</time>
      </trkpt>
      <trkpt lat="41.1713576875627040863037109375" lon="-1.5051314793527126312255859375">
        <ele>697.5999755859375</ele>
        <time>2022-05-02T11:06:37.000Z</time>
      </trkpt>
      <trkpt lat="41.17134871892631053924560546875" lon="-1.50512418709695339202880859375">
        <ele>697.79998779296875</ele>
        <time>2022-05-02T11:06:38.000Z</time>
      </trkpt>
      <trkpt lat="41.17132323794066905975341796875" lon="-1.50509216822683811187744140625">
        <ele>698.4000244140625</ele>
        <time>2022-05-02T11:06:40.000Z</time>
      </trkpt>
      <trkpt lat="41.17129205726087093353271484375" lon="-1.5050325728952884674072265625">
        <ele>699.4000244140625</ele>
        <time>2022-05-02T11:06:42.000Z</time>
      </trkpt>
      <trkpt lat="41.17127445526421070098876953125" lon="-1.5049941837787628173828125">
        <ele>700</ele>
        <time>2022-05-02T11:06:43.000Z</time>
      </trkpt>
      <trkpt lat="41.17125886492431163787841796875" lon="-1.50495252572000026702880859375">
        <ele>700.5999755859375</ele>
        <time>2022-05-02T11:06:44.000Z</time>
      </trkpt>
      <trkpt lat="41.1712359823286533355712890625" lon="-1.5048694610595703125">
        <ele>701.5999755859375</ele>
        <time>2022-05-02T11:06:46.000Z</time>
      </trkpt>
      <trkpt lat="41.17122801952064037322998046875" lon="-1.50483199395239353179931640625">
        <ele>702.20001220703125</ele>
        <time>2022-05-02T11:06:47.000Z</time>
      </trkpt>
      <trkpt lat="41.17122231982648372650146484375" lon="-1.504795365035533905029296875">
        <ele>702.5999755859375</ele>
        <time>2022-05-02T11:06:48.000Z</time>
      </trkpt>
      <trkpt lat="41.1712125129997730255126953125" lon="-1.50473962537944316864013671875">
        <ele>703.4000244140625</ele>
        <time>2022-05-02T11:06:50.000Z</time>
      </trkpt>
      <trkpt lat="41.17120807059109210968017578125" lon="-1.50471531786024570465087890625">
        <ele>703.79998779296875</ele>
        <time>2022-05-02T11:06:51.000Z</time>
      </trkpt>
      <trkpt lat="41.17120019160211086273193359375" lon="-1.50468614883720874786376953125">
        <ele>704</ele>
        <time>2022-05-02T11:06:52.000Z</time>
      </trkpt>
      <trkpt lat="41.17119465954601764678955078125" lon="-1.50465195067226886749267578125">
        <ele>704.20001220703125</ele>
        <time>2022-05-02T11:06:53.000Z</time>
      </trkpt>
      <trkpt lat="41.171192228794097900390625" lon="-1.504616327583789825439453125">
        <ele>704.4000244140625</ele>
        <time>2022-05-02T11:06:54.000Z</time>
      </trkpt>
      <trkpt lat="41.171181499958038330078125" lon="-1.50456838309764862060546875">
        <ele>704.5999755859375</ele>
        <time>2022-05-02T11:06:56.000Z</time>
      </trkpt>
      <trkpt lat="41.17117554880678653717041015625" lon="-1.5045434050261974334716796875">
        <ele>704.79998779296875</ele>
        <time>2022-05-02T11:06:57.000Z</time>
      </trkpt>
      <trkpt lat="41.17117538116872310638427734375" lon="-1.5045118890702724456787109375">
        <ele>705</ele>
        <time>2022-05-02T11:06:58.000Z</time>
      </trkpt>
      <trkpt lat="41.171183176338672637939453125" lon="-1.50444961152970790863037109375">
        <ele>705.5999755859375</ele>
        <time>2022-05-02T11:07:00.000Z</time>
      </trkpt>
      <trkpt lat="41.17119315080344676971435546875" lon="-1.504416503012180328369140625">
        <ele>705.79998779296875</ele>
        <time>2022-05-02T11:07:01.000Z</time>
      </trkpt>
      <trkpt lat="41.17120589129626750946044921875" lon="-1.5043797902762889862060546875">
        <ele>706</ele>
        <time>2022-05-02T11:07:02.000Z</time>
      </trkpt>
      <trkpt lat="41.17124159820377826690673828125" lon="-1.50431332178413867950439453125">
        <ele>706.20001220703125</ele>
        <time>2022-05-02T11:07:04.000Z</time>
      </trkpt>
      <trkpt lat="41.1712745390832424163818359375" lon="-1.50423847138881683349609375">
        <ele>706.5999755859375</ele>
        <time>2022-05-02T11:07:06.000Z</time>
      </trkpt>
      <trkpt lat="41.171294488012790679931640625" lon="-1.50417401455342769622802734375">
        <ele>707</ele>
        <time>2022-05-02T11:07:08.000Z</time>
      </trkpt>
      <trkpt lat="41.17129750549793243408203125" lon="-1.50414618663489818572998046875">
        <ele>707</ele>
        <time>2022-05-02T11:07:09.000Z</time>
      </trkpt>
      <trkpt lat="41.17130077444016933441162109375" lon="-1.5041224658489227294921875">
        <ele>707</ele>
        <time>2022-05-02T11:07:10.000Z</time>
      </trkpt>
      <trkpt lat="41.1713073961436748504638671875" lon="-1.50406857021152973175048828125">
        <ele>707.20001220703125</ele>
        <time>2022-05-02T11:07:12.000Z</time>
      </trkpt>
      <trkpt lat="41.17131787352263927459716796875" lon="-1.5040124952793121337890625">
        <ele>707.20001220703125</ele>
        <time>2022-05-02T11:07:14.000Z</time>
      </trkpt>
      <trkpt lat="41.1713174544274806976318359375" lon="-1.50399011559784412384033203125">
        <ele>707.20001220703125</ele>
        <time>2022-05-02T11:07:15.000Z</time>
      </trkpt>
      <trkpt lat="41.171315945684909820556640625" lon="-1.5039717592298984527587890625">
        <ele>707.20001220703125</ele>
        <time>2022-05-02T11:07:16.000Z</time>
      </trkpt>
      <trkpt lat="41.171311922371387481689453125" lon="-1.503929011523723602294921875">
        <ele>707.20001220703125</ele>
        <time>2022-05-02T11:07:18.000Z</time>
      </trkpt>
      <trkpt lat="41.17128903977572917938232421875" lon="-1.503471024334430694580078125">
        <ele>706.20001220703125</ele>
        <time>2022-05-02T11:07:43.000Z</time>
      </trkpt>
      <trkpt lat="41.17129482328891754150390625" lon="-1.5034363232553005218505859375">
        <ele>706.20001220703125</ele>
        <time>2022-05-02T11:07:44.000Z</time>
      </trkpt>
      <trkpt lat="41.17131401784718036651611328125" lon="-1.50337019003927707672119140625">
        <ele>706.79998779296875</ele>
        <time>2022-05-02T11:07:46.000Z</time>
      </trkpt>
      <trkpt lat="41.171321310102939605712890625" lon="-1.50333113037049770355224609375">
        <ele>707</ele>
        <time>2022-05-02T11:07:48.000Z</time>
      </trkpt>
      <trkpt lat="41.1713231541216373443603515625" lon="-1.50330640375614166259765625">
        <ele>707.4000244140625</ele>
        <time>2022-05-02T11:07:50.000Z</time>
      </trkpt>
      <trkpt lat="41.17131720297038555145263671875" lon="-1.50326893664896488189697265625">
        <ele>706.79998779296875</ele>
        <time>2022-05-02T11:07:52.000Z</time>
      </trkpt>
      <trkpt lat="41.1713345535099506378173828125" lon="-1.5020932070910930633544921875">
        <ele>703.79998779296875</ele>
        <time>2022-05-02T11:08:45.000Z</time>
      </trkpt>
      <trkpt lat="41.17133514024317264556884765625" lon="-1.50205708108842372894287109375">
        <ele>703.79998779296875</ele>
        <time>2022-05-02T11:08:46.000Z</time>
      </trkpt>
      <trkpt lat="41.17135006003081798553466796875" lon="-1.5019855834543704986572265625">
        <ele>704</ele>
        <time>2022-05-02T11:08:48.000Z</time>
      </trkpt>
      <trkpt lat="41.171354167163372039794921875" lon="-1.5019269101321697235107421875">
        <ele>704</ele>
        <time>2022-05-02T11:08:50.000Z</time>
      </trkpt>
      <trkpt lat="41.17135793901979923248291015625" lon="-1.50187167339026927947998046875">
        <ele>704.20001220703125</ele>
        <time>2022-05-02T11:08:52.000Z</time>
      </trkpt>
      <trkpt lat="41.17136212997138500213623046875" lon="-1.50185130536556243896484375">
        <ele>704.20001220703125</ele>
        <time>2022-05-02T11:08:53.000Z</time>
      </trkpt>
      <trkpt lat="41.171366237103939056396484375" lon="-1.501837559044361114501953125">
        <ele>704.4000244140625</ele>
        <time>2022-05-02T11:08:54.000Z</time>
      </trkpt>
      <trkpt lat="41.17136430926620960235595703125" lon="-1.50182138197124004364013671875">
        <ele>704.20001220703125</ele>
        <time>2022-05-02T11:08:56.000Z</time>
      </trkpt>
      <trkpt lat="41.17136531509459018707275390625" lon="-1.501822136342525482177734375">
        <ele>704.20001220703125</ele>
        <time>2022-05-02T11:08:57.000Z</time>
      </trkpt>
      <trkpt lat="41.17145349271595478057861328125" lon="-1.5006656013429164886474609375">
        <ele>710</ele>
        <time>2022-05-02T11:10:09.000Z</time>
      </trkpt>
      <trkpt lat="41.171452738344669342041015625" lon="-1.5006270445883274078369140625">
        <ele>710</ele>
        <time>2022-05-02T11:10:10.000Z</time>
      </trkpt>
      <trkpt lat="41.17145332507789134979248046875" lon="-1.50054146535694599151611328125">
        <ele>709.79998779296875</ele>
        <time>2022-05-02T11:10:12.000Z</time>
      </trkpt>
      <trkpt lat="41.17144242860376834869384765625" lon="-1.5004570595920085906982421875">
        <ele>708</ele>
        <time>2022-05-02T11:10:14.000Z</time>
      </trkpt>
      <trkpt lat="41.17143563926219940185546875" lon="-1.5003672055900096893310546875">
        <ele>706.20001220703125</ele>
        <time>2022-05-02T11:10:16.000Z</time>
      </trkpt>
      <trkpt lat="41.1714349687099456787109375" lon="-1.5003263019025325775146484375">
        <ele>705.5999755859375</ele>
        <time>2022-05-02T11:10:17.000Z</time>
      </trkpt>
      <trkpt lat="41.1714297719299793243408203125" lon="-1.50028179399669170379638671875">
        <ele>704.79998779296875</ele>
        <time>2022-05-02T11:10:18.000Z</time>
      </trkpt>
      <trkpt lat="41.171429269015789031982421875" lon="-1.50021490640938282012939453125">
        <ele>703.5999755859375</ele>
        <time>2022-05-02T11:10:20.000Z</time>
      </trkpt>
      <trkpt lat="41.17143404670059680938720703125" lon="-1.500145085155963897705078125">
        <ele>702.5999755859375</ele>
        <time>2022-05-02T11:10:22.000Z</time>
      </trkpt>
      <trkpt lat="41.17144024930894374847412109375" lon="-1.50007727555930614471435546875">
        <ele>702.4000244140625</ele>
        <time>2022-05-02T11:10:24.000Z</time>
      </trkpt>
      <trkpt lat="41.17144142277538776397705078125" lon="-1.50004056282341480255126953125">
        <ele>702.20001220703125</ele>
        <time>2022-05-02T11:10:25.000Z</time>
      </trkpt>
      <trkpt lat="41.17144410498440265655517578125" lon="-1.50000787340104579925537109375">
        <ele>702.20001220703125</ele>
        <time>2022-05-02T11:10:26.000Z</time>
      </trkpt>
      <trkpt lat="41.17144561372697353363037109375" lon="-1.49997174739837646484375">
        <ele>702</ele>
        <time>2022-05-02T11:10:27.000Z</time>
      </trkpt>
      <trkpt lat="41.171445362269878387451171875" lon="-1.499936543405055999755859375">
        <ele>701.79998779296875</ele>
        <time>2022-05-02T11:10:28.000Z</time>
      </trkpt>
      <trkpt lat="41.17144770920276641845703125" lon="-1.4998669736087322235107421875">
        <ele>701.5999755859375</ele>
        <time>2022-05-02T11:10:30.000Z</time>
      </trkpt>
      <trkpt lat="41.17144293151795864105224609375" lon="-1.49980955757200717926025390625">
        <ele>701.5999755859375</ele>
        <time>2022-05-02T11:10:32.000Z</time>
      </trkpt>
      <trkpt lat="41.17143488489091396331787109375" lon="-1.49978759698569774627685546875">
        <ele>701.4000244140625</ele>
        <time>2022-05-02T11:10:33.000Z</time>
      </trkpt>
      <trkpt lat="41.17142482660710811614990234375" lon="-1.49976748041808605194091796875">
        <ele>701.4000244140625</ele>
        <time>2022-05-02T11:10:34.000Z</time>
      </trkpt>
      <trkpt lat="41.17141560651361942291259765625" lon="-1.49971425533294677734375">
        <ele>701.20001220703125</ele>
        <time>2022-05-02T11:10:36.000Z</time>
      </trkpt>
      <trkpt lat="41.171408481895923614501953125" lon="-1.49963848292827606201171875">
        <ele>701.20001220703125</ele>
        <time>2022-05-02T11:10:38.000Z</time>
      </trkpt>
      <trkpt lat="41.17140823043882846832275390625" lon="-1.49959129281342029571533203125">
        <ele>701.4000244140625</ele>
        <time>2022-05-02T11:10:39.000Z</time>
      </trkpt>
      <trkpt lat="41.17141359485685825347900390625" lon="-1.499548964202404022216796875">
        <ele>701.5999755859375</ele>
        <time>2022-05-02T11:10:40.000Z</time>
      </trkpt>
      <trkpt lat="41.17142868228256702423095703125" lon="-1.49945877492427825927734375">
        <ele>702.4000244140625</ele>
        <time>2022-05-02T11:10:42.000Z</time>
      </trkpt>
      <trkpt lat="41.17143739946186542510986328125" lon="-1.49937202222645282745361328125">
        <ele>703</ele>
        <time>2022-05-02T11:10:44.000Z</time>
      </trkpt>
      <trkpt lat="41.17143890820443630218505859375" lon="-1.49933966808021068572998046875">
        <ele>703.20001220703125</ele>
        <time>2022-05-02T11:10:45.000Z</time>
      </trkpt>
      <trkpt lat="41.1714415065944194793701171875" lon="-1.49930546991527080535888671875">
        <ele>703.5999755859375</ele>
        <time>2022-05-02T11:10:46.000Z</time>
      </trkpt>
      <trkpt lat="41.17144376970827579498291015625" lon="-1.49923740886151790618896484375">
        <ele>703.5999755859375</ele>
        <time>2022-05-02T11:10:48.000Z</time>
      </trkpt>
      <trkpt lat="41.17144611664116382598876953125" lon="-1.4991451241075992584228515625">
        <ele>703.79998779296875</ele>
        <time>2022-05-02T11:10:50.000Z</time>
      </trkpt>
      <trkpt lat="41.1714337952435016632080078125" lon="-1.499081589281558990478515625">
        <ele>704.4000244140625</ele>
        <time>2022-05-02T11:10:52.000Z</time>
      </trkpt>
      <trkpt lat="41.17142097093164920806884765625" lon="-1.4990083314478397369384765625">
        <ele>704.5999755859375</ele>
        <time>2022-05-02T11:10:54.000Z</time>
      </trkpt>
      <trkpt lat="41.17141359485685825347900390625" lon="-1.4989268593490123748779296875">
        <ele>704.5999755859375</ele>
        <time>2022-05-02T11:10:56.000Z</time>
      </trkpt>
      <trkpt lat="41.17141242139041423797607421875" lon="-1.49888587184250354766845703125">
        <ele>704.4000244140625</ele>
        <time>2022-05-02T11:10:57.000Z</time>
      </trkpt>
      <trkpt lat="41.17141040973365306854248046875" lon="-1.4988480694591999053955078125">
        <ele>704.4000244140625</ele>
        <time>2022-05-02T11:10:58.000Z</time>
      </trkpt>
      <trkpt lat="41.17139314301311969757080078125" lon="-1.49877824820578098297119140625">
        <ele>704</ele>
        <time>2022-05-02T11:11:00.000Z</time>
      </trkpt>
      <trkpt lat="41.1713866889476776123046875" lon="-1.498742289841175079345703125">
        <ele>704</ele>
        <time>2022-05-02T11:11:01.000Z</time>
      </trkpt>
      <trkpt lat="41.1713798157870769500732421875" lon="-1.49871069006621837615966796875">
        <ele>703.79998779296875</ele>
        <time>2022-05-02T11:11:02.000Z</time>
      </trkpt>
      <trkpt lat="41.17136917077004909515380859375" lon="-1.49864329956471920013427734375">
        <ele>703.5999755859375</ele>
        <time>2022-05-02T11:11:04.000Z</time>
      </trkpt>
      <trkpt lat="41.17135911248624324798583984375" lon="-1.49858010001480579376220703125">
        <ele>703.4000244140625</ele>
        <time>2022-05-02T11:11:06.000Z</time>
      </trkpt>
      <trkpt lat="41.17135810665786266326904296875" lon="-1.49854724295437335968017578125">
        <ele>703.4000244140625</ele>
        <time>2022-05-02T11:11:07.000Z</time>
      </trkpt>
      <trkpt lat="41.1713612079620361328125" lon="-1.49850600399076938629150390625">
        <ele>703.4000244140625</ele>
        <time>2022-05-02T11:11:08.000Z</time>
      </trkpt>
      <trkpt lat="41.17135106585919857025146484375" lon="-1.4984152279794216156005859375">
        <ele>703.20001220703125</ele>
        <time>2022-05-02T11:11:10.000Z</time>
      </trkpt>
      <trkpt lat="41.17133446969091892242431640625" lon="-1.4983193390071392059326171875">
        <ele>702.79998779296875</ele>
        <time>2022-05-02T11:11:12.000Z</time>
      </trkpt>
      <trkpt lat="41.1713177897036075592041015625" lon="-1.49826376698911190032958984375">
        <ele>703.20001220703125</ele>
        <time>2022-05-02T11:11:13.000Z</time>
      </trkpt>
      <trkpt lat="41.17130446247756481170654296875" lon="-1.49820056743919849395751953125">
        <ele>704</ele>
        <time>2022-05-02T11:11:14.000Z</time>
      </trkpt>
      <trkpt lat="41.17127646692097187042236328125" lon="-1.49813904426991939544677734375">
        <ele>704.4000244140625</ele>
        <time>2022-05-02T11:11:15.000Z</time>
      </trkpt>
      <trkpt lat="41.17124520242214202880859375" lon="-1.498075425624847412109375">
        <ele>704.4000244140625</ele>
        <time>2022-05-02T11:11:16.000Z</time>
      </trkpt>
      <trkpt lat="41.17121745832264423370361328125" lon="-1.49802111089229583740234375">
        <ele>704.20001220703125</ele>
        <time>2022-05-02T11:11:17.000Z</time>
      </trkpt>
      <trkpt lat="41.17119197733700275421142578125" lon="-1.4979760162532329559326171875">
        <ele>704</ele>
        <time>2022-05-02T11:11:18.000Z</time>
      </trkpt>
      <trkpt lat="41.171146295964717864990234375" lon="-1.4979059435427188873291015625">
        <ele>703.79998779296875</ele>
        <time>2022-05-02T11:11:20.000Z</time>
      </trkpt>
      <trkpt lat="41.171098016202449798583984375" lon="-1.49782472290098667144775390625">
        <ele>703</ele>
        <time>2022-05-02T11:11:22.000Z</time>
      </trkpt>
      <trkpt lat="41.17104914970695972442626953125" lon="-1.4977349527180194854736328125">
        <ele>702.79998779296875</ele>
        <time>2022-05-02T11:11:24.000Z</time>
      </trkpt>
      <trkpt lat="41.171003468334674835205078125" lon="-1.49764358997344970703125">
        <ele>703.79998779296875</ele>
        <time>2022-05-02T11:11:26.000Z</time>
      </trkpt>
      <trkpt lat="41.170951165258884429931640625" lon="-1.49754812009632587432861328125">
        <ele>705.5999755859375</ele>
        <time>2022-05-02T11:11:28.000Z</time>
      </trkpt>
      <trkpt lat="41.17090590298175811767578125" lon="-1.49747251532971858978271484375">
        <ele>706.5999755859375</ele>
        <time>2022-05-02T11:11:30.000Z</time>
      </trkpt>
      <trkpt lat="41.17087380029261112213134765625" lon="-1.49743077345192432403564453125">
        <ele>707.4000244140625</ele>
        <time>2022-05-02T11:11:31.000Z</time>
      </trkpt>
      <trkpt lat="41.17084295488893985748291015625" lon="-1.49738299660384654998779296875">
        <ele>708.20001220703125</ele>
        <time>2022-05-02T11:11:32.000Z</time>
      </trkpt>
      <trkpt lat="41.17078713141381740570068359375" lon="-1.49728157557547092437744140625">
        <ele>708.20001220703125</ele>
        <time>2022-05-02T11:11:34.000Z</time>
      </trkpt>
      <trkpt lat="41.17073466069996356964111328125" lon="-1.49719021283090114593505859375">
        <ele>708.5999755859375</ele>
        <time>2022-05-02T11:11:36.000Z</time>
      </trkpt>
      <trkpt lat="41.1707149632275104522705078125" lon="-1.49715467356145381927490234375">
        <ele>709.20001220703125</ele>
        <time>2022-05-02T11:11:37.000Z</time>
      </trkpt>
      <trkpt lat="41.17069828324019908905029296875" lon="-1.4971207268536090850830078125">
        <ele>709.79998779296875</ele>
        <time>2022-05-02T11:11:38.000Z</time>
      </trkpt>
      <trkpt lat="41.17066693492233753204345703125" lon="-1.49705551564693450927734375">
        <ele>710.79998779296875</ele>
        <time>2022-05-02T11:11:40.000Z</time>
      </trkpt>
      <trkpt lat="41.170629970729351043701171875" lon="-1.49700681678950786590576171875">
        <ele>711.20001220703125</ele>
        <time>2022-05-02T11:11:42.000Z</time>
      </trkpt>
      <trkpt lat="41.17058915086090564727783203125" lon="-1.4969621412456035614013671875">
        <ele>711.4000244140625</ele>
        <time>2022-05-02T11:11:44.000Z</time>
      </trkpt>
      <trkpt lat="41.17054472677409648895263671875" lon="-1.49691578932106494903564453125">
        <ele>712</ele>
        <time>2022-05-02T11:11:46.000Z</time>
      </trkpt>
      <trkpt lat="41.170501895248889923095703125" lon="-1.49687186814844608306884765625">
        <ele>712.4000244140625</ele>
        <time>2022-05-02T11:11:48.000Z</time>
      </trkpt>
      <trkpt lat="41.1704725585877895355224609375" lon="-1.4968491531908512115478515625">
        <ele>712.5999755859375</ele>
        <time>2022-05-02T11:11:49.000Z</time>
      </trkpt>
      <trkpt lat="41.1704390309751033782958984375" lon="-1.4968276955187320709228515625">
        <ele>712.5999755859375</ele>
        <time>2022-05-02T11:11:50.000Z</time>
      </trkpt>
      <trkpt lat="41.17037390358746051788330078125" lon="-1.4967901445925235748291015625">
        <ele>712.5999755859375</ele>
        <time>2022-05-02T11:11:52.000Z</time>
      </trkpt>
      <trkpt lat="41.1703126318752765655517578125" lon="-1.4967432059347629547119140625">
        <ele>712</ele>
        <time>2022-05-02T11:11:54.000Z</time>
      </trkpt>
      <trkpt lat="41.1702874861657619476318359375" lon="-1.49672602303326129913330078125">
        <ele>711.5999755859375</ele>
        <time>2022-05-02T11:11:55.000Z</time>
      </trkpt>
      <trkpt lat="41.17025756277143955230712890625" lon="-1.4967049844563007354736328125">
        <ele>711.20001220703125</ele>
        <time>2022-05-02T11:11:56.000Z</time>
      </trkpt>
      <trkpt lat="41.17019989527761936187744140625" lon="-1.4966647513210773468017578125">
        <ele>710.4000244140625</ele>
        <time>2022-05-02T11:11:58.000Z</time>
      </trkpt>
      <trkpt lat="41.17013116367161273956298828125" lon="-1.49662678129971027374267578125">
        <ele>709</ele>
        <time>2022-05-02T11:12:00.000Z</time>
      </trkpt>
      <trkpt lat="41.17005430161952972412109375" lon="-1.49660431779921054840087890625">
        <ele>707</ele>
        <time>2022-05-02T11:12:02.000Z</time>
      </trkpt>
      <trkpt lat="41.169977523386478424072265625" lon="-1.49659551680088043212890625">
        <ele>704.79998779296875</ele>
        <time>2022-05-02T11:12:04.000Z</time>
      </trkpt>
      <trkpt lat="41.16990401409566402435302734375" lon="-1.49659476242959499359130859375">
        <ele>703</ele>
        <time>2022-05-02T11:12:06.000Z</time>
      </trkpt>
      <trkpt lat="41.169823966920375823974609375" lon="-1.496586464345455169677734375">
        <ele>703.20001220703125</ele>
        <time>2022-05-02T11:12:08.000Z</time>
      </trkpt>
      <trkpt lat="41.16975255310535430908203125" lon="-1.4965846203267574310302734375">
        <ele>703.4000244140625</ele>
        <time>2022-05-02T11:12:10.000Z</time>
      </trkpt>
      <trkpt lat="41.1696883477270603179931640625" lon="-1.4965747296810150146484375">
        <ele>703.4000244140625</ele>
        <time>2022-05-02T11:12:12.000Z</time>
      </trkpt>
      <trkpt lat="41.16962674073874950408935546875" lon="-1.49656224064528942108154296875">
        <ele>703.4000244140625</ele>
        <time>2022-05-02T11:12:14.000Z</time>
      </trkpt>
      <trkpt lat="41.16957209073007106781005859375" lon="-1.49654849432408809661865234375">
        <ele>704.5999755859375</ele>
        <time>2022-05-02T11:12:16.000Z</time>
      </trkpt>
      <trkpt lat="41.169516853988170623779296875" lon="-1.4965296350419521331787109375">
        <ele>706</ele>
        <time>2022-05-02T11:12:18.000Z</time>
      </trkpt>
      <trkpt lat="41.16947134025394916534423828125" lon="-1.4965264499187469482421875">
        <ele>706.79998779296875</ele>
        <time>2022-05-02T11:12:20.000Z</time>
      </trkpt>
      <trkpt lat="41.1694298498332500457763671875" lon="-1.49652670137584209442138671875">
        <ele>707.5999755859375</ele>
        <time>2022-05-02T11:12:22.000Z</time>
      </trkpt>
      <trkpt lat="41.16940059699118137359619140625" lon="-1.4965309761464595794677734375">
        <ele>708</ele>
        <time>2022-05-02T11:12:23.000Z</time>
      </trkpt>
      <trkpt lat="41.16937025450170040130615234375" lon="-1.49653508327901363372802734375">
        <ele>708.5999755859375</ele>
        <time>2022-05-02T11:12:24.000Z</time>
      </trkpt>
      <trkpt lat="41.16929967887699604034423828125" lon="-1.49654715321958065032958984375">
        <ele>709.20001220703125</ele>
        <time>2022-05-02T11:12:26.000Z</time>
      </trkpt>
      <trkpt lat="41.169233210384845733642578125" lon="-1.49656039662659168243408203125">
        <ele>709.5999755859375</ele>
        <time>2022-05-02T11:12:28.000Z</time>
      </trkpt>
      <trkpt lat="41.16916556842625141143798828125" lon="-1.49658671580255031585693359375">
        <ele>709.79998779296875</ele>
        <time>2022-05-02T11:12:30.000Z</time>
      </trkpt>
      <trkpt lat="41.16909733973443508148193359375" lon="-1.49662443436682224273681640625">
        <ele>709.79998779296875</ele>
        <time>2022-05-02T11:12:32.000Z</time>
      </trkpt>
      <trkpt lat="41.16906456649303436279296875" lon="-1.49664974771440029144287109375">
        <ele>709.4000244140625</ele>
        <time>2022-05-02T11:12:33.000Z</time>
      </trkpt>
      <trkpt lat="41.1690290272235870361328125" lon="-1.49667464196681976318359375">
        <ele>708.5999755859375</ele>
        <time>2022-05-02T11:12:34.000Z</time>
      </trkpt>
      <trkpt lat="41.16899206303060054779052734375" lon="-1.49669366888701915740966796875">
        <ele>708.20001220703125</ele>
        <time>2022-05-02T11:12:35.000Z</time>
      </trkpt>
      <trkpt lat="41.16895568557083606719970703125" lon="-1.496712528169155120849609375">
        <ele>707.5999755859375</ele>
        <time>2022-05-02T11:12:36.000Z</time>
      </trkpt>
      <trkpt lat="41.16886834613978862762451171875" lon="-1.4967546053230762481689453125">
        <ele>706.5999755859375</ele>
        <time>2022-05-02T11:12:38.000Z</time>
      </trkpt>
      <trkpt lat="41.168825514614582061767578125" lon="-1.49678167887032032012939453125">
        <ele>706</ele>
        <time>2022-05-02T11:12:39.000Z</time>
      </trkpt>
      <trkpt lat="41.16878402419388294219970703125" lon="-1.49681369774043560028076171875">
        <ele>705.4000244140625</ele>
        <time>2022-05-02T11:12:40.000Z</time>
      </trkpt>
      <trkpt lat="41.16874446161091327667236328125" lon="-1.4968456327915191650390625">
        <ele>704.5999755859375</ele>
        <time>2022-05-02T11:12:41.000Z</time>
      </trkpt>
      <trkpt lat="41.16870112717151641845703125" lon="-1.496881507337093353271484375">
        <ele>704</ele>
        <time>2022-05-02T11:12:42.000Z</time>
      </trkpt>
      <trkpt lat="41.16861873306334018707275390625" lon="-1.49695686064660549163818359375">
        <ele>702.5999755859375</ele>
        <time>2022-05-02T11:12:44.000Z</time>
      </trkpt>
      <trkpt lat="41.16853348910808563232421875" lon="-1.49702458642423152923583984375">
        <ele>701.5999755859375</ele>
        <time>2022-05-02T11:12:46.000Z</time>
      </trkpt>
      <trkpt lat="41.16845595650374889373779296875" lon="-1.4970855228602886199951171875">
        <ele>700.79998779296875</ele>
        <time>2022-05-02T11:12:48.000Z</time>
      </trkpt>
      <trkpt lat="41.16838756017386913299560546875" lon="-1.49713891558349132537841796875">
        <ele>700.20001220703125</ele>
        <time>2022-05-02T11:12:50.000Z</time>
      </trkpt>
      <trkpt lat="41.1683241091668605804443359375" lon="-1.49717898108065128326416015625">
        <ele>699.5999755859375</ele>
        <time>2022-05-02T11:12:52.000Z</time>
      </trkpt>
      <trkpt lat="41.16826870478689670562744140625" lon="-1.49721552617847919464111328125">
        <ele>699.20001220703125</ele>
        <time>2022-05-02T11:12:54.000Z</time>
      </trkpt>
      <trkpt lat="41.16821430623531341552734375" lon="-1.49724637158215045928955078125">
        <ele>699.20001220703125</ele>
        <time>2022-05-02T11:12:56.000Z</time>
      </trkpt>
      <trkpt lat="41.16815923713147640228271484375" lon="-1.4972846768796443939208984375">
        <ele>699.5999755859375</ele>
        <time>2022-05-02T11:12:58.000Z</time>
      </trkpt>
      <trkpt lat="41.16809234954416751861572265625" lon="-1.49733035825192928314208984375">
        <ele>700.4000244140625</ele>
        <time>2022-05-02T11:13:00.000Z</time>
      </trkpt>
      <trkpt lat="41.1680285632610321044921875" lon="-1.4973752014338970184326171875">
        <ele>701</ele>
        <time>2022-05-02T11:13:02.000Z</time>
      </trkpt>
      <trkpt lat="41.16799528710544109344482421875" lon="-1.49739556945860385894775390625">
        <ele>701.4000244140625</ele>
        <time>2022-05-02T11:13:03.000Z</time>
      </trkpt>
      <trkpt lat="41.16796276532113552093505859375" lon="-1.4974169433116912841796875">
        <ele>701.79998779296875</ele>
        <time>2022-05-02T11:13:04.000Z</time>
      </trkpt>
      <trkpt lat="41.16789520718157291412353515625" lon="-1.4974623732268810272216796875">
        <ele>702</ele>
        <time>2022-05-02T11:13:06.000Z</time>
      </trkpt>
      <trkpt lat="41.16782831959426403045654296875" lon="-1.497491709887981414794921875">
        <ele>702.5999755859375</ele>
        <time>2022-05-02T11:13:08.000Z</time>
      </trkpt>
      <trkpt lat="41.16778657771646976470947265625" lon="-1.49750151671469211578369140625">
        <ele>703.20001220703125</ele>
        <time>2022-05-02T11:13:09.000Z</time>
      </trkpt>
      <trkpt lat="41.167741231620311737060546875" lon="-1.497502438724040985107421875">
        <ele>704</ele>
        <time>2022-05-02T11:13:10.000Z</time>
      </trkpt>
      <trkpt lat="41.16766068153083324432373046875" lon="-1.49749313481152057647705078125">
        <ele>705</ele>
        <time>2022-05-02T11:13:12.000Z</time>
      </trkpt>
      <trkpt lat="41.16759446449577808380126953125" lon="-1.49748257361352443695068359375">
        <ele>705.20001220703125</ele>
        <time>2022-05-02T11:13:14.000Z</time>
      </trkpt>
      <trkpt lat="41.1675345338881015777587890625" lon="-1.49747419171035289764404296875">
        <ele>705.4000244140625</ele>
        <time>2022-05-02T11:13:16.000Z</time>
      </trkpt>
      <trkpt lat="41.1674718372523784637451171875" lon="-1.49747787974774837493896484375">
        <ele>705.4000244140625</ele>
        <time>2022-05-02T11:13:18.000Z</time>
      </trkpt>
      <trkpt lat="41.16740888915956020355224609375" lon="-1.49748743511736392974853515625">
        <ele>705.20001220703125</ele>
        <time>2022-05-02T11:13:20.000Z</time>
      </trkpt>
      <trkpt lat="41.167346946895122528076171875" lon="-1.4975039474666118621826171875">
        <ele>705</ele>
        <time>2022-05-02T11:13:22.000Z</time>
      </trkpt>
      <trkpt lat="41.16727360524237155914306640625" lon="-1.49751995690166950225830078125">
        <ele>704.79998779296875</ele>
        <time>2022-05-02T11:13:24.000Z</time>
      </trkpt>
      <trkpt lat="41.16723739542067050933837890625" lon="-1.497522555291652679443359375">
        <ele>704.79998779296875</ele>
        <time>2022-05-02T11:13:25.000Z</time>
      </trkpt>
      <trkpt lat="41.16720487363636493682861328125" lon="-1.4975240640342235565185546875">
        <ele>704.79998779296875</ele>
        <time>2022-05-02T11:13:26.000Z</time>
      </trkpt>
      <trkpt lat="41.167131364345550537109375" lon="-1.4975150115787982940673828125">
        <ele>704.79998779296875</ele>
        <time>2022-05-02T11:13:28.000Z</time>
      </trkpt>
      <trkpt lat="41.16705500520765781402587890625" lon="-1.49749816395342350006103515625">
        <ele>704.79998779296875</ele>
        <time>2022-05-02T11:13:30.000Z</time>
      </trkpt>
      <trkpt lat="41.16696967743337154388427734375" lon="-1.4974680729210376739501953125">
        <ele>704.5999755859375</ele>
        <time>2022-05-02T11:13:32.000Z</time>
      </trkpt>
      <trkpt lat="41.16687831468880176544189453125" lon="-1.4974328689277172088623046875">
        <ele>704.5999755859375</ele>
        <time>2022-05-02T11:13:34.000Z</time>
      </trkpt>
      <trkpt lat="41.16683674044907093048095703125" lon="-1.497413255274295806884765625">
        <ele>704.5999755859375</ele>
        <time>2022-05-02T11:13:35.000Z</time>
      </trkpt>
      <trkpt lat="41.1667972616851329803466796875" lon="-1.49739070795476436614990234375">
        <ele>704.79998779296875</ele>
        <time>2022-05-02T11:13:36.000Z</time>
      </trkpt>
      <trkpt lat="41.1667167954146862030029296875" lon="-1.49733169935643672943115234375">
        <ele>705.20001220703125</ele>
        <time>2022-05-02T11:13:38.000Z</time>
      </trkpt>
      <trkpt lat="41.16663557477295398712158203125" lon="-1.4972689189016819000244140625">
        <ele>705</ele>
        <time>2022-05-02T11:13:40.000Z</time>
      </trkpt>
      <trkpt lat="41.1665944196283817291259765625" lon="-1.49723497219383716583251953125">
        <ele>705</ele>
        <time>2022-05-02T11:13:41.000Z</time>
      </trkpt>
      <trkpt lat="41.16655846126377582550048828125" lon="-1.497197337448596954345703125">
        <ele>705.4000244140625</ele>
        <time>2022-05-02T11:13:42.000Z</time>
      </trkpt>
      <trkpt lat="41.166489310562610626220703125" lon="-1.49711494334042072296142578125">
        <ele>707</ele>
        <time>2022-05-02T11:13:44.000Z</time>
      </trkpt>
      <trkpt lat="41.166421584784984588623046875" lon="-1.49701871909201145172119140625">
        <ele>708.4000244140625</ele>
        <time>2022-05-02T11:13:46.000Z</time>
      </trkpt>
      <trkpt lat="41.16635595448315143585205078125" lon="-1.49693037383258342742919921875">
        <ele>709.5999755859375</ele>
        <time>2022-05-02T11:13:48.000Z</time>
      </trkpt>
      <trkpt lat="41.16629376076161861419677734375" lon="-1.49684630334377288818359375">
        <ele>711.20001220703125</ele>
        <time>2022-05-02T11:13:50.000Z</time>
      </trkpt>
      <trkpt lat="41.1662266217172145843505859375" lon="-1.49675217457115650177001953125">
        <ele>713.4000244140625</ele>
        <time>2022-05-02T11:13:52.000Z</time>
      </trkpt>
      <trkpt lat="41.1661699600517749786376953125" lon="-1.49667958728969097137451171875">
        <ele>713.20001220703125</ele>
        <time>2022-05-02T11:13:54.000Z</time>
      </trkpt>
      <trkpt lat="41.1661215126514434814453125" lon="-1.4966225065290927886962890625">
        <ele>713.5999755859375</ele>
        <time>2022-05-02T11:13:56.000Z</time>
      </trkpt>
      <trkpt lat="41.16609997116029262542724609375" lon="-1.49659828282892704010009765625">
        <ele>713.79998779296875</ele>
        <time>2022-05-02T11:13:57.000Z</time>
      </trkpt>
      <trkpt lat="41.16607717238366603851318359375" lon="-1.4965695329010486602783203125">
        <ele>713.5999755859375</ele>
        <time>2022-05-02T11:13:58.000Z</time>
      </trkpt>
      <trkpt lat="41.16602822206914424896240234375" lon="-1.49649820290505886077880859375">
        <ele>712.5999755859375</ele>
        <time>2022-05-02T11:14:00.000Z</time>
      </trkpt>
      <trkpt lat="41.165976338088512420654296875" lon="-1.4964089356362819671630859375">
        <ele>711.4000244140625</ele>
        <time>2022-05-02T11:14:02.000Z</time>
      </trkpt>
      <trkpt lat="41.165952868759632110595703125" lon="-1.496363840997219085693359375">
        <ele>710.79998779296875</ele>
        <time>2022-05-02T11:14:03.000Z</time>
      </trkpt>
      <trkpt lat="41.16593308746814727783203125" lon="-1.49632318876683712005615234375">
        <ele>710.5999755859375</ele>
        <time>2022-05-02T11:14:04.000Z</time>
      </trkpt>
      <trkpt lat="41.1659148149192333221435546875" lon="-1.49628446437418460845947265625">
        <ele>710.4000244140625</ele>
        <time>2022-05-02T11:14:05.000Z</time>
      </trkpt>
      <trkpt lat="41.1658977158367633819580078125" lon="-1.49623811244964599609375">
        <ele>710.4000244140625</ele>
        <time>2022-05-02T11:14:06.000Z</time>
      </trkpt>
      <trkpt lat="41.16586376912891864776611328125" lon="-1.49614582769572734832763671875">
        <ele>710.79998779296875</ele>
        <time>2022-05-02T11:14:08.000Z</time>
      </trkpt>
      <trkpt lat="41.1658320017158985137939453125" lon="-1.49605362676084041595458984375">
        <ele>711.4000244140625</ele>
        <time>2022-05-02T11:14:10.000Z</time>
      </trkpt>
      <trkpt lat="41.1658130586147308349609375" lon="-1.495967209339141845703125">
        <ele>712.20001220703125</ele>
        <time>2022-05-02T11:14:12.000Z</time>
      </trkpt>
      <trkpt lat="41.16579302586615085601806640625" lon="-1.4958775229752063751220703125">
        <ele>713</ele>
        <time>2022-05-02T11:14:14.000Z</time>
      </trkpt>
      <trkpt lat="41.1657709814608097076416015625" lon="-1.49579093791544437408447265625">
        <ele>713.5999755859375</ele>
        <time>2022-05-02T11:14:16.000Z</time>
      </trkpt>
      <trkpt lat="41.16576251573860645294189453125" lon="-1.49575221352279186248779296875">
        <ele>713.5999755859375</ele>
        <time>2022-05-02T11:14:17.000Z</time>
      </trkpt>
      <trkpt lat="41.16575413383543491363525390625" lon="-1.49571600370109081268310546875">
        <ele>713.79998779296875</ele>
        <time>2022-05-02T11:14:18.000Z</time>
      </trkpt>
      <trkpt lat="41.16574591957032680511474609375" lon="-1.49567862041294574737548828125">
        <ele>713.79998779296875</ele>
        <time>2022-05-02T11:14:19.000Z</time>
      </trkpt>
      <trkpt lat="41.1657377891242504119873046875" lon="-1.49564676918089389801025390625">
        <ele>714</ele>
        <time>2022-05-02T11:14:20.000Z</time>
      </trkpt>
      <trkpt lat="41.16572127677500247955322265625" lon="-1.49558356963098049163818359375">
        <ele>714.20001220703125</ele>
        <time>2022-05-02T11:14:22.000Z</time>
      </trkpt>
      <trkpt lat="41.16569663397967815399169921875" lon="-1.49550477974116802215576171875">
        <ele>715</ele>
        <time>2022-05-02T11:14:24.000Z</time>
      </trkpt>
      <trkpt lat="41.16568632423877716064453125" lon="-1.49546572007238864898681640625">
        <ele>715.20001220703125</ele>
        <time>2022-05-02T11:14:25.000Z</time>
      </trkpt>
      <trkpt lat="41.1656744219362735748291015625" lon="-1.49542917497456073760986328125">
        <ele>715.4000244140625</ele>
        <time>2022-05-02T11:14:26.000Z</time>
      </trkpt>
      <trkpt lat="41.16564952768385410308837890625" lon="-1.49535172618925571441650390625">
        <ele>715.79998779296875</ele>
        <time>2022-05-02T11:14:28.000Z</time>
      </trkpt>
      <trkpt lat="41.1656211130321025848388671875" lon="-1.49527025409042835235595703125">
        <ele>715</ele>
        <time>2022-05-02T11:14:30.000Z</time>
      </trkpt>
      <trkpt lat="41.1656050197780132293701171875" lon="-1.4952311106026172637939453125">
        <ele>715</ele>
        <time>2022-05-02T11:14:31.000Z</time>
      </trkpt>
      <trkpt lat="41.1655919440090656280517578125" lon="-1.4951902069151401519775390625">
        <ele>714.79998779296875</ele>
        <time>2022-05-02T11:14:32.000Z</time>
      </trkpt>
      <trkpt lat="41.16556570865213871002197265625" lon="-1.49511418305337429046630859375">
        <ele>714.79998779296875</ele>
        <time>2022-05-02T11:14:34.000Z</time>
      </trkpt>
      <trkpt lat="41.16554056294262409210205078125" lon="-1.495037488639354705810546875">
        <ele>714.5999755859375</ele>
        <time>2022-05-02T11:14:36.000Z</time>
      </trkpt>
      <trkpt lat="41.16552916355431079864501953125" lon="-1.49500035680830478668212890625">
        <ele>714.5999755859375</ele>
        <time>2022-05-02T11:14:37.000Z</time>
      </trkpt>
      <trkpt lat="41.16551826708018779754638671875" lon="-1.4949659071862697601318359375">
        <ele>714.5999755859375</ele>
        <time>2022-05-02T11:14:38.000Z</time>
      </trkpt>
      <trkpt lat="41.1655084602534770965576171875" lon="-1.49493045173585414886474609375">
        <ele>714.79998779296875</ele>
        <time>2022-05-02T11:14:39.000Z</time>
      </trkpt>
      <trkpt lat="41.16549781523644924163818359375" lon="-1.49489407427608966827392578125">
        <ele>714.79998779296875</ele>
        <time>2022-05-02T11:14:40.000Z</time>
      </trkpt>
      <trkpt lat="41.1654759384691715240478515625" lon="-1.4948170445859432220458984375">
        <ele>715.20001220703125</ele>
        <time>2022-05-02T11:14:42.000Z</time>
      </trkpt>
      <trkpt lat="41.1654615215957164764404296875" lon="-1.4947379194200038909912109375">
        <ele>715.79998779296875</ele>
        <time>2022-05-02T11:14:44.000Z</time>
      </trkpt>
      <trkpt lat="41.1654514633119106292724609375" lon="-1.49465552531182765960693359375">
        <ele>716.4000244140625</ele>
        <time>2022-05-02T11:14:46.000Z</time>
      </trkpt>
      <trkpt lat="41.16544249467551708221435546875" lon="-1.49458226747810840606689453125">
        <ele>716.79998779296875</ele>
        <time>2022-05-02T11:14:48.000Z</time>
      </trkpt>
      <trkpt lat="41.1654350347816944122314453125" lon="-1.494508422911167144775390625">
        <ele>717.20001220703125</ele>
        <time>2022-05-02T11:14:50.000Z</time>
      </trkpt>
      <trkpt lat="41.1654219590127468109130859375" lon="-1.494436673820018768310546875">
        <ele>717</ele>
        <time>2022-05-02T11:14:52.000Z</time>
      </trkpt>
      <trkpt lat="41.16541014052927494049072265625" lon="-1.4943660981953144073486328125">
        <ele>716.4000244140625</ele>
        <time>2022-05-02T11:14:54.000Z</time>
      </trkpt>
      <trkpt lat="41.165398992598056793212890625" lon="-1.49429677985608577728271484375">
        <ele>715.79998779296875</ele>
        <time>2022-05-02T11:14:56.000Z</time>
      </trkpt>
      <trkpt lat="41.1653860844671726226806640625" lon="-1.4942259527742862701416015625">
        <ele>715.20001220703125</ele>
        <time>2022-05-02T11:14:58.000Z</time>
      </trkpt>
      <trkpt lat="41.16537560708820819854736328125" lon="-1.49415529333055019378662109375">
        <ele>713.79998779296875</ele>
        <time>2022-05-02T11:15:00.000Z</time>
      </trkpt>
      <trkpt lat="41.16536487825214862823486328125" lon="-1.49408706463873386383056640625">
        <ele>713.4000244140625</ele>
        <time>2022-05-02T11:15:02.000Z</time>
      </trkpt>
      <trkpt lat="41.165363788604736328125" lon="-1.4940479211509227752685546875">
        <ele>713.4000244140625</ele>
        <time>2022-05-02T11:15:03.000Z</time>
      </trkpt>
      <trkpt lat="41.16535716690123081207275390625" lon="-1.49401213042438030242919921875">
        <ele>713.20001220703125</ele>
        <time>2022-05-02T11:15:04.000Z</time>
      </trkpt>
      <trkpt lat="41.16534300148487091064453125" lon="-1.49394088424742221832275390625">
        <ele>713</ele>
        <time>2022-05-02T11:15:06.000Z</time>
      </trkpt>
      <trkpt lat="41.1653227172791957855224609375" lon="-1.49386544711887836456298828125">
        <ele>712.79998779296875</ele>
        <time>2022-05-02T11:15:08.000Z</time>
      </trkpt>
      <trkpt lat="41.16530251689255237579345703125" lon="-1.49378322064876556396484375">
        <ele>713</ele>
        <time>2022-05-02T11:15:10.000Z</time>
      </trkpt>
      <trkpt lat="41.165284328162670135498046875" lon="-1.49369873106479644775390625">
        <ele>713.20001220703125</ele>
        <time>2022-05-02T11:15:12.000Z</time>
      </trkpt>
      <trkpt lat="41.1652672290802001953125" lon="-1.49361516349017620086669921875">
        <ele>713.5999755859375</ele>
        <time>2022-05-02T11:15:14.000Z</time>
      </trkpt>
      <trkpt lat="41.1652459390461444854736328125" lon="-1.493531763553619384765625">
        <ele>714</ele>
        <time>2022-05-02T11:15:16.000Z</time>
      </trkpt>
      <trkpt lat="41.16522523574531078338623046875" lon="-1.49345171637833118438720703125">
        <ele>714.5999755859375</ele>
        <time>2022-05-02T11:15:18.000Z</time>
      </trkpt>
      <trkpt lat="41.16520344279706478118896484375" lon="-1.493369825184345245361328125">
        <ele>715</ele>
        <time>2022-05-02T11:15:20.000Z</time>
      </trkpt>
      <trkpt lat="41.16519321687519550323486328125" lon="-1.4933280833065509796142578125">
        <ele>715.4000244140625</ele>
        <time>2022-05-02T11:15:21.000Z</time>
      </trkpt>
      <trkpt lat="41.1651842482388019561767578125" lon="-1.49328407831490039825439453125">
        <ele>715.4000244140625</ele>
        <time>2022-05-02T11:15:22.000Z</time>
      </trkpt>
      <trkpt lat="41.16516220383346080780029296875" lon="-1.493193805217742919921875">
        <ele>715.79998779296875</ele>
        <time>2022-05-02T11:15:24.000Z</time>
      </trkpt>
      <trkpt lat="41.16514510475099086761474609375" lon="-1.4931047894060611724853515625">
        <ele>716.4000244140625</ele>
        <time>2022-05-02T11:15:26.000Z</time>
      </trkpt>
      <trkpt lat="41.1651275865733623504638671875" lon="-1.49301300756633281707763671875">
        <ele>717</ele>
        <time>2022-05-02T11:15:28.000Z</time>
      </trkpt>
      <trkpt lat="41.165120042860507965087890625" lon="-1.49296657182276248931884765625">
        <ele>717.79998779296875</ele>
        <time>2022-05-02T11:15:29.000Z</time>
      </trkpt>
      <trkpt lat="41.16510990075767040252685546875" lon="-1.49291963316500186920166015625">
        <ele>718.4000244140625</ele>
        <time>2022-05-02T11:15:30.000Z</time>
      </trkpt>
      <trkpt lat="41.1650955677032470703125" lon="-1.492821313440799713134765625">
        <ele>719.4000244140625</ele>
        <time>2022-05-02T11:15:32.000Z</time>
      </trkpt>
      <trkpt lat="41.165079809725284576416015625" lon="-1.49272249080240726470947265625">
        <ele>719.4000244140625</ele>
        <time>2022-05-02T11:15:34.000Z</time>
      </trkpt>
      <trkpt lat="41.1650732718408107757568359375" lon="-1.49267521686851978302001953125">
        <ele>719.79998779296875</ele>
        <time>2022-05-02T11:15:35.000Z</time>
      </trkpt>
      <trkpt lat="41.16506715305149555206298828125" lon="-1.4926310442388057708740234375">
        <ele>720.20001220703125</ele>
        <time>2022-05-02T11:15:36.000Z</time>
      </trkpt>
      <trkpt lat="41.16505273617804050445556640625" lon="-1.492544710636138916015625">
        <ele>720</ele>
        <time>2022-05-02T11:15:38.000Z</time>
      </trkpt>
      <trkpt lat="41.16503496654331684112548828125" lon="-1.49245477281510829925537109375">
        <ele>719.79998779296875</ele>
        <time>2022-05-02T11:15:40.000Z</time>
      </trkpt>
      <trkpt lat="41.165034212172031402587890625" lon="-1.4924092590808868408203125">
        <ele>720.20001220703125</ele>
        <time>2022-05-02T11:15:41.000Z</time>
      </trkpt>
      <trkpt lat="41.165032200515270233154296875" lon="-1.49236676283180713653564453125">
        <ele>720.5999755859375</ele>
        <time>2022-05-02T11:15:42.000Z</time>
      </trkpt>
      <trkpt lat="41.16502650082111358642578125" lon="-1.4922820217907428741455078125">
        <ele>720.20001220703125</ele>
        <time>2022-05-02T11:15:44.000Z</time>
      </trkpt>
      <trkpt lat="41.1650159396231174468994140625" lon="-1.49218839593231678009033203125">
        <ele>719.5999755859375</ele>
        <time>2022-05-02T11:15:46.000Z</time>
      </trkpt>
      <trkpt lat="41.16500328294932842254638671875" lon="-1.49209921248257160186767578125">
        <ele>719.4000244140625</ele>
        <time>2022-05-02T11:15:48.000Z</time>
      </trkpt>
      <trkpt lat="41.16498903371393680572509765625" lon="-1.49200893938541412353515625">
        <ele>719.20001220703125</ele>
        <time>2022-05-02T11:15:50.000Z</time>
      </trkpt>
      <trkpt lat="41.1649735271930694580078125" lon="-1.4919172413647174835205078125">
        <ele>718.79998779296875</ele>
        <time>2022-05-02T11:15:52.000Z</time>
      </trkpt>
      <trkpt lat="41.16496237926185131072998046875" lon="-1.49187440983951091766357421875">
        <ele>718.79998779296875</ele>
        <time>2022-05-02T11:15:53.000Z</time>
      </trkpt>
      <trkpt lat="41.16495265625417232513427734375" lon="-1.4918324165046215057373046875">
        <ele>719.20001220703125</ele>
        <time>2022-05-02T11:15:54.000Z</time>
      </trkpt>
      <trkpt lat="41.16493999958038330078125" lon="-1.4917475916445255279541015625">
        <ele>720.5999755859375</ele>
        <time>2022-05-02T11:15:56.000Z</time>
      </trkpt>
      <trkpt lat="41.16493287496268749237060546875" lon="-1.4916584081947803497314453125">
        <ele>722.5999755859375</ele>
        <time>2022-05-02T11:15:58.000Z</time>
      </trkpt>
      <trkpt lat="41.16491912864148616790771484375" lon="-1.49155623279511928558349609375">
        <ele>723</ele>
        <time>2022-05-02T11:16:00.000Z</time>
      </trkpt>
      <trkpt lat="41.1648942343890666961669921875" lon="-1.49145112372934818267822265625">
        <ele>722.79998779296875</ele>
        <time>2022-05-02T11:16:02.000Z</time>
      </trkpt>
      <trkpt lat="41.1648603715002536773681640625" lon="-1.491353809833526611328125">
        <ele>722</ele>
        <time>2022-05-02T11:16:04.000Z</time>
      </trkpt>
      <trkpt lat="41.16482223384082317352294921875" lon="-1.4912540651857852935791015625">
        <ele>721</ele>
        <time>2022-05-02T11:16:06.000Z</time>
      </trkpt>
      <trkpt lat="41.1647711880505084991455078125" lon="-1.49113831110298633575439453125">
        <ele>719.4000244140625</ele>
        <time>2022-05-02T11:16:08.000Z</time>
      </trkpt>
      <trkpt lat="41.16473506204783916473388671875" lon="-1.49108332581818103790283203125">
        <ele>718.20001220703125</ele>
        <time>2022-05-02T11:16:09.000Z</time>
      </trkpt>
      <trkpt lat="41.16469122469425201416015625" lon="-1.49103336967527866363525390625">
        <ele>716.79998779296875</ele>
        <time>2022-05-02T11:16:10.000Z</time>
      </trkpt>
      <trkpt lat="41.16464286111295223236083984375" lon="-1.49098978377878665924072265625">
        <ele>715.4000244140625</ele>
        <time>2022-05-02T11:16:11.000Z</time>
      </trkpt>
      <trkpt lat="41.16459600627422332763671875" lon="-1.490956842899322509765625">
        <ele>714.4000244140625</ele>
        <time>2022-05-02T11:16:12.000Z</time>
      </trkpt>
      <trkpt lat="41.1645532585680484771728515625" lon="-1.49093328975141048431396484375">
        <ele>713.79998779296875</ele>
        <time>2022-05-02T11:16:13.000Z</time>
      </trkpt>
      <trkpt lat="41.16451076231896877288818359375" lon="-1.49091350845992565155029296875">
        <ele>713.4000244140625</ele>
        <time>2022-05-02T11:16:14.000Z</time>
      </trkpt>
      <trkpt lat="41.164415292441844940185546875" lon="-1.49087294004857540130615234375">
        <ele>712.4000244140625</ele>
        <time>2022-05-02T11:16:16.000Z</time>
      </trkpt>
      <trkpt lat="41.16431563161313533782958984375" lon="-1.490833461284637451171875">
        <ele>711.5999755859375</ele>
        <time>2022-05-02T11:16:18.000Z</time>
      </trkpt>
      <trkpt lat="41.1642679385840892791748046875" lon="-1.49081359617412090301513671875">
        <ele>711.20001220703125</ele>
        <time>2022-05-02T11:16:19.000Z</time>
      </trkpt>
      <trkpt lat="41.164220832288265228271484375" lon="-1.4907897077500820159912109375">
        <ele>711</ele>
        <time>2022-05-02T11:16:20.000Z</time>
      </trkpt>
      <trkpt lat="41.1641224287450313568115234375" lon="-1.49073354899883270263671875">
        <ele>710.5999755859375</ele>
        <time>2022-05-02T11:16:22.000Z</time>
      </trkpt>
      <trkpt lat="41.16402695886790752410888671875" lon="-1.49067319929599761962890625">
        <ele>709.79998779296875</ele>
        <time>2022-05-02T11:16:24.000Z</time>
      </trkpt>
      <trkpt lat="41.16393559612333774566650390625" lon="-1.49061578325927257537841796875">
        <ele>708.5999755859375</ele>
        <time>2022-05-02T11:16:26.000Z</time>
      </trkpt>
      <trkpt lat="41.1638496816158294677734375" lon="-1.49055157788097858428955078125">
        <ele>707.20001220703125</ele>
        <time>2022-05-02T11:16:28.000Z</time>
      </trkpt>
      <trkpt lat="41.16375521756708621978759765625" lon="-1.49046625010669231414794921875">
        <ele>705.20001220703125</ele>
        <time>2022-05-02T11:16:30.000Z</time>
      </trkpt>
      <trkpt lat="41.1636619269847869873046875" lon="-1.49036432616412639617919921875">
        <ele>703.5999755859375</ele>
        <time>2022-05-02T11:16:32.000Z</time>
      </trkpt>
      <trkpt lat="41.16362345404922962188720703125" lon="-1.490315459668636322021484375">
        <ele>703</ele>
        <time>2022-05-02T11:16:33.000Z</time>
      </trkpt>
      <trkpt lat="41.1635900102555751800537109375" lon="-1.4902680180966854095458984375">
        <ele>702.20001220703125</ele>
        <time>2022-05-02T11:16:34.000Z</time>
      </trkpt>
      <trkpt lat="41.1635653674602508544921875" lon="-1.490217559039592742919921875">
        <ele>701.79998779296875</ele>
        <time>2022-05-02T11:16:35.000Z</time>
      </trkpt>
      <trkpt lat="41.163547597825527191162109375" lon="-1.49016399867832660675048828125">
        <ele>701.79998779296875</ele>
        <time>2022-05-02T11:16:36.000Z</time>
      </trkpt>
      <trkpt lat="41.16353644989430904388427734375" lon="-1.49004732258617877960205078125">
        <ele>702</ele>
        <time>2022-05-02T11:16:38.000Z</time>
      </trkpt>
      <trkpt lat="41.163535527884960174560546875" lon="-1.489987559616565704345703125">
        <ele>702.20001220703125</ele>
        <time>2022-05-02T11:16:39.000Z</time>
      </trkpt>
      <trkpt lat="41.16353393532335758209228515625" lon="-1.4899255335330963134765625">
        <ele>702.5999755859375</ele>
        <time>2022-05-02T11:16:40.000Z</time>
      </trkpt>
      <trkpt lat="41.1635286547243595123291015625" lon="-1.4897922612726688385009765625">
        <ele>703.5999755859375</ele>
        <time>2022-05-02T11:16:42.000Z</time>
      </trkpt>
      <trkpt lat="41.1635112203657627105712890625" lon="-1.4896333403885364532470703125">
        <ele>705</ele>
        <time>2022-05-02T11:16:44.000Z</time>
      </trkpt>
      <trkpt lat="41.16349621675908565521240234375" lon="-1.48955496959388256072998046875">
        <ele>705.79998779296875</ele>
        <time>2022-05-02T11:16:45.000Z</time>
      </trkpt>
      <trkpt lat="41.1634746752679347991943359375" lon="-1.489483304321765899658203125">
        <ele>706.5999755859375</ele>
        <time>2022-05-02T11:16:46.000Z</time>
      </trkpt>
      <trkpt lat="41.16344961337745189666748046875" lon="-1.48941465653479099273681640625">
        <ele>707</ele>
        <time>2022-05-02T11:16:47.000Z</time>
      </trkpt>
      <trkpt lat="41.163413487374782562255859375" lon="-1.48935263045132160186767578125">
        <ele>707.5999755859375</ele>
        <time>2022-05-02T11:16:48.000Z</time>
      </trkpt>
      <trkpt lat="41.16337434388697147369384765625" lon="-1.48929613642394542694091796875">
        <ele>708</ele>
        <time>2022-05-02T11:16:49.000Z</time>
      </trkpt>
      <trkpt lat="41.16333444602787494659423828125" lon="-1.48924089968204498291015625">
        <ele>707.79998779296875</ele>
        <time>2022-05-02T11:16:50.000Z</time>
      </trkpt>
      <trkpt lat="41.16325716488063335418701171875" lon="-1.48913470096886157989501953125">
        <ele>707.4000244140625</ele>
        <time>2022-05-02T11:16:52.000Z</time>
      </trkpt>
      <trkpt lat="41.16318692453205585479736328125" lon="-1.4890358783304691314697265625">
        <ele>706.5999755859375</ele>
        <time>2022-05-02T11:16:54.000Z</time>
      </trkpt>
      <trkpt lat="41.16313152015209197998046875" lon="-1.48893722333014011383056640625">
        <ele>706.20001220703125</ele>
        <time>2022-05-02T11:16:56.000Z</time>
      </trkpt>
      <trkpt lat="41.16309170611202716827392578125" lon="-1.48884468711912631988525390625">
        <ele>706</ele>
        <time>2022-05-02T11:16:58.000Z</time>
      </trkpt>
      <trkpt lat="41.1630746908485889434814453125" lon="-1.488801352679729461669921875">
        <ele>705.79998779296875</ele>
        <time>2022-05-02T11:16:59.000Z</time>
      </trkpt>
      <trkpt lat="41.16305851377546787261962890625" lon="-1.48875634185969829559326171875">
        <ele>705.5999755859375</ele>
        <time>2022-05-02T11:17:00.000Z</time>
      </trkpt>
      <trkpt lat="41.1630304343998432159423828125" lon="-1.48866699077188968658447265625">
        <ele>705</ele>
        <time>2022-05-02T11:17:02.000Z</time>
      </trkpt>
      <trkpt lat="41.16300386376678943634033203125" lon="-1.4885737001895904541015625">
        <ele>704.5999755859375</ele>
        <time>2022-05-02T11:17:04.000Z</time>
      </trkpt>
      <trkpt lat="41.16299447603523731231689453125" lon="-1.4885255880653858184814453125">
        <ele>704.79998779296875</ele>
        <time>2022-05-02T11:17:05.000Z</time>
      </trkpt>
      <trkpt lat="41.16298877634108066558837890625" lon="-1.4884769730269908905029296875">
        <ele>705.20001220703125</ele>
        <time>2022-05-02T11:17:06.000Z</time>
      </trkpt>
      <trkpt lat="41.1629767902195453643798828125" lon="-1.48838267661631107330322265625">
        <ele>705.79998779296875</ele>
        <time>2022-05-02T11:17:08.000Z</time>
      </trkpt>
      <trkpt lat="41.16296119987964630126953125" lon="-1.48828360252082347869873046875">
        <ele>706.4000244140625</ele>
        <time>2022-05-02T11:17:10.000Z</time>
      </trkpt>
      <trkpt lat="41.1629466153681278228759765625" lon="-1.4882322214543819427490234375">
        <ele>706.5999755859375</ele>
        <time>2022-05-02T11:17:11.000Z</time>
      </trkpt>
      <trkpt lat="41.16292825900018215179443359375" lon="-1.48818276822566986083984375">
        <ele>707</ele>
        <time>2022-05-02T11:17:12.000Z</time>
      </trkpt>
      <trkpt lat="41.16291082464158535003662109375" lon="-1.4881366677582263946533203125">
        <ele>707.20001220703125</ele>
        <time>2022-05-02T11:17:13.000Z</time>
      </trkpt>
      <trkpt lat="41.16289456374943256378173828125" lon="-1.48809333331882953643798828125">
        <ele>707.4000244140625</ele>
        <time>2022-05-02T11:17:14.000Z</time>
      </trkpt>
      <trkpt lat="41.1628597788512706756591796875" lon="-1.48801404051482677459716796875">
        <ele>708.20001220703125</ele>
        <time>2022-05-02T11:17:16.000Z</time>
      </trkpt>
      <trkpt lat="41.1628223955631256103515625" lon="-1.48794614709913730621337890625">
        <ele>709</ele>
        <time>2022-05-02T11:17:18.000Z</time>
      </trkpt>
      <trkpt lat="41.162801943719387054443359375" lon="-1.4879167266190052032470703125">
        <ele>709.20001220703125</ele>
        <time>2022-05-02T11:17:19.000Z</time>
      </trkpt>
      <trkpt lat="41.1627809889614582061767578125" lon="-1.48788931779563426971435546875">
        <ele>709.20001220703125</ele>
        <time>2022-05-02T11:17:20.000Z</time>
      </trkpt>
      <trkpt lat="41.16272994317114353179931640625" lon="-1.48783349432051181793212890625">
        <ele>709</ele>
        <time>2022-05-02T11:17:22.000Z</time>
      </trkpt>
      <trkpt lat="41.162665821611881256103515625" lon="-1.487775743007659912109375">
        <ele>708.79998779296875</ele>
        <time>2022-05-02T11:17:24.000Z</time>
      </trkpt>
      <trkpt lat="41.1626327969133853912353515625" lon="-1.48774447850883007049560546875">
        <ele>708.79998779296875</ele>
        <time>2022-05-02T11:17:25.000Z</time>
      </trkpt>
      <trkpt lat="41.16259935311973094940185546875" lon="-1.487713046371936798095703125">
        <ele>708.79998779296875</ele>
        <time>2022-05-02T11:17:26.000Z</time>
      </trkpt>
      <trkpt lat="41.16253229789435863494873046875" lon="-1.4876495115458965301513671875">
        <ele>708.79998779296875</ele>
        <time>2022-05-02T11:17:28.000Z</time>
      </trkpt>
      <trkpt lat="41.16246541030704975128173828125" lon="-1.48757457733154296875">
        <ele>708.79998779296875</ele>
        <time>2022-05-02T11:17:30.000Z</time>
      </trkpt>
      <trkpt lat="41.16239751689136028289794921875" lon="-1.48749369196593761444091796875">
        <ele>709</ele>
        <time>2022-05-02T11:17:32.000Z</time>
      </trkpt>
      <trkpt lat="41.162326522171497344970703125" lon="-1.487410627305507659912109375">
        <ele>708.79998779296875</ele>
        <time>2022-05-02T11:17:34.000Z</time>
      </trkpt>
      <trkpt lat="41.162250749766826629638671875" lon="-1.48732705973088741302490234375">
        <ele>708.4000244140625</ele>
        <time>2022-05-02T11:17:36.000Z</time>
      </trkpt>
      <trkpt lat="41.16217556409537792205810546875" lon="-1.4872458390891551971435546875">
        <ele>708.20001220703125</ele>
        <time>2022-05-02T11:17:38.000Z</time>
      </trkpt>
      <trkpt lat="41.16210783831775188446044921875" lon="-1.4871757663786411285400390625">
        <ele>708</ele>
        <time>2022-05-02T11:17:40.000Z</time>
      </trkpt>
      <trkpt lat="41.16204715333878993988037109375" lon="-1.48711700923740863800048828125">
        <ele>708</ele>
        <time>2022-05-02T11:17:42.000Z</time>
      </trkpt>
      <trkpt lat="41.161990575492382049560546875" lon="-1.48706520907580852508544921875">
        <ele>708</ele>
        <time>2022-05-02T11:17:44.000Z</time>
      </trkpt>
      <trkpt lat="41.1619337461888790130615234375" lon="-1.48701466619968414306640625">
        <ele>707.5999755859375</ele>
        <time>2022-05-02T11:17:46.000Z</time>
      </trkpt>
      <trkpt lat="41.1618760786950588226318359375" lon="-1.48696236312389373779296875">
        <ele>707.20001220703125</ele>
        <time>2022-05-02T11:17:48.000Z</time>
      </trkpt>
      <trkpt lat="41.16182067431509494781494140625" lon="-1.48691232316195964813232421875">
        <ele>707.4000244140625</ele>
        <time>2022-05-02T11:17:50.000Z</time>
      </trkpt>
      <trkpt lat="41.16176501847803592681884765625" lon="-1.4868612773716449737548828125">
        <ele>707.79998779296875</ele>
        <time>2022-05-02T11:17:52.000Z</time>
      </trkpt>
      <trkpt lat="41.16173668764531612396240234375" lon="-1.48683336563408374786376953125">
        <ele>708.20001220703125</ele>
        <time>2022-05-02T11:17:53.000Z</time>
      </trkpt>
      <trkpt lat="41.1617054231464862823486328125" lon="-1.4868076331913471221923828125">
        <ele>708.4000244140625</ele>
        <time>2022-05-02T11:17:54.000Z</time>
      </trkpt>
      <trkpt lat="41.16163845174014568328857421875" lon="-1.48675792850553989410400390625">
        <ele>708.5999755859375</ele>
        <time>2022-05-02T11:17:56.000Z</time>
      </trkpt>
      <trkpt lat="41.16156754083931446075439453125" lon="-1.4867030270397663116455078125">
        <ele>708.79998779296875</ele>
        <time>2022-05-02T11:17:58.000Z</time>
      </trkpt>
      <trkpt lat="41.1615297384560108184814453125" lon="-1.4866775460541248321533203125">
        <ele>709.20001220703125</ele>
        <time>2022-05-02T11:17:59.000Z</time>
      </trkpt>
      <trkpt lat="41.161493360996246337890625" lon="-1.4866530708968639373779296875">
        <ele>709.4000244140625</ele>
        <time>2022-05-02T11:18:00.000Z</time>
      </trkpt>
      <trkpt lat="41.1614278145134449005126953125" lon="-1.48660588078200817108154296875">
        <ele>709.79998779296875</ele>
        <time>2022-05-02T11:18:02.000Z</time>
      </trkpt>
      <trkpt lat="41.16136453114449977874755859375" lon="-1.4865658991038799285888671875">
        <ele>710.20001220703125</ele>
        <time>2022-05-02T11:18:04.000Z</time>
      </trkpt>
      <trkpt lat="41.16133234463632106781005859375" lon="-1.4865432679653167724609375">
        <ele>710.5999755859375</ele>
        <time>2022-05-02T11:18:05.000Z</time>
      </trkpt>
      <trkpt lat="41.16129999049007892608642578125" lon="-1.48651971481740474700927734375">
        <ele>711</ele>
        <time>2022-05-02T11:18:06.000Z</time>
      </trkpt>
      <trkpt lat="41.16123259998857975006103515625" lon="-1.48647244088351726531982421875">
        <ele>711.4000244140625</ele>
        <time>2022-05-02T11:18:08.000Z</time>
      </trkpt>
      <trkpt lat="41.161167137324810028076171875" lon="-1.4864240773022174835205078125">
        <ele>711.4000244140625</ele>
        <time>2022-05-02T11:18:10.000Z</time>
      </trkpt>
      <trkpt lat="41.16110687144100666046142578125" lon="-1.48637873120605945587158203125">
        <ele>711.4000244140625</ele>
        <time>2022-05-02T11:18:12.000Z</time>
      </trkpt>
      <trkpt lat="41.16104568354785442352294921875" lon="-1.48633028380572795867919921875">
        <ele>711.5999755859375</ele>
        <time>2022-05-02T11:18:14.000Z</time>
      </trkpt>
      <trkpt lat="41.16101324558258056640625" lon="-1.486305892467498779296875">
        <ele>711.5999755859375</ele>
        <time>2022-05-02T11:18:15.000Z</time>
      </trkpt>
      <trkpt lat="41.1609805561602115631103515625" lon="-1.48628317750990390777587890625">
        <ele>711.79998779296875</ele>
        <time>2022-05-02T11:18:16.000Z</time>
      </trkpt>
      <trkpt lat="41.1609235592186450958251953125" lon="-1.4862467162311077117919921875">
        <ele>712</ele>
        <time>2022-05-02T11:18:18.000Z</time>
      </trkpt>
      <trkpt lat="41.16087435744702816009521484375" lon="-1.486209668219089508056640625">
        <ele>712</ele>
        <time>2022-05-02T11:18:20.000Z</time>
      </trkpt>
      <trkpt lat="41.1608481220901012420654296875" lon="-1.4861784875392913818359375">
        <ele>711.79998779296875</ele>
        <time>2022-05-02T11:18:21.000Z</time>
      </trkpt>
      <trkpt lat="41.16082104854285717010498046875" lon="-1.4861400984227657318115234375">
        <ele>711.5999755859375</ele>
        <time>2022-05-02T11:18:22.000Z</time>
      </trkpt>
      <trkpt lat="41.16077930666506290435791015625" lon="-1.486064493656158447265625">
        <ele>711.4000244140625</ele>
        <time>2022-05-02T11:18:24.000Z</time>
      </trkpt>
      <trkpt lat="41.16074343211948871612548828125" lon="-1.48599869571626186370849609375">
        <ele>711.4000244140625</ele>
        <time>2022-05-02T11:18:26.000Z</time>
      </trkpt>
      <trkpt lat="41.1607113294303417205810546875" lon="-1.48594069294631481170654296875">
        <ele>711.4000244140625</ele>
        <time>2022-05-02T11:18:28.000Z</time>
      </trkpt>
      <trkpt lat="41.1606952361762523651123046875" lon="-1.485912613570690155029296875">
        <ele>711.5999755859375</ele>
        <time>2022-05-02T11:18:29.000Z</time>
      </trkpt>
      <trkpt lat="41.16067838855087757110595703125" lon="-1.48587875068187713623046875">
        <ele>711.5999755859375</ele>
        <time>2022-05-02T11:18:30.000Z</time>
      </trkpt>
      <trkpt lat="41.1606265045702457427978515625" lon="-1.485801637172698974609375">
        <ele>711.20001220703125</ele>
        <time>2022-05-02T11:18:32.000Z</time>
      </trkpt>
      <trkpt lat="41.16056104190647602081298828125" lon="-1.48570734076201915740966796875">
        <ele>711.20001220703125</ele>
        <time>2022-05-02T11:18:34.000Z</time>
      </trkpt>
      <trkpt lat="41.1604907177388668060302734375" lon="-1.48560273461043834686279296875">
        <ele>711.79998779296875</ele>
        <time>2022-05-02T11:18:36.000Z</time>
      </trkpt>
      <trkpt lat="41.16042056120932102203369140625" lon="-1.48549008183181285858154296875">
        <ele>711.5999755859375</ele>
        <time>2022-05-02T11:18:38.000Z</time>
      </trkpt>
      <trkpt lat="41.16038703359663486480712890625" lon="-1.48543216288089752197265625">
        <ele>711.20001220703125</ele>
        <time>2022-05-02T11:18:39.000Z</time>
      </trkpt>
      <trkpt lat="41.16035602055490016937255859375" lon="-1.48537156172096729278564453125">
        <ele>710.79998779296875</ele>
        <time>2022-05-02T11:18:40.000Z</time>
      </trkpt>
      <trkpt lat="41.16029818542301654815673828125" lon="-1.48525421507656574249267578125">
        <ele>710.4000244140625</ele>
        <time>2022-05-02T11:18:42.000Z</time>
      </trkpt>
      <trkpt lat="41.160247139632701873779296875" lon="-1.4851376228034496307373046875">
        <ele>710.20001220703125</ele>
        <time>2022-05-02T11:18:44.000Z</time>
      </trkpt>
      <trkpt lat="41.160205900669097900390625" lon="-1.48502622731029987335205078125">
        <ele>710.20001220703125</ele>
        <time>2022-05-02T11:18:46.000Z</time>
      </trkpt>
      <trkpt lat="41.16016692481935024261474609375" lon="-1.48491156287491321563720703125">
        <ele>710.20001220703125</ele>
        <time>2022-05-02T11:18:48.000Z</time>
      </trkpt>
      <trkpt lat="41.16012451238930225372314453125" lon="-1.4847936294972896575927734375">
        <ele>710</ele>
        <time>2022-05-02T11:18:50.000Z</time>
      </trkpt>
      <trkpt lat="41.16008025594055652618408203125" lon="-1.48467334918677806854248046875">
        <ele>710</ele>
        <time>2022-05-02T11:18:52.000Z</time>
      </trkpt>
      <trkpt lat="41.16005946882069110870361328125" lon="-1.4846125803887844085693359375">
        <ele>710</ele>
        <time>2022-05-02T11:18:53.000Z</time>
      </trkpt>
      <trkpt lat="41.16003784351050853729248046875" lon="-1.48454979993402957916259765625">
        <ele>710</ele>
        <time>2022-05-02T11:18:54.000Z</time>
      </trkpt>
      <trkpt lat="41.1599878035485744476318359375" lon="-1.48441988043487071990966796875">
        <ele>709.79998779296875</ele>
        <time>2022-05-02T11:18:56.000Z</time>
      </trkpt>
      <trkpt lat="41.1599291302263736724853515625" lon="-1.4842856861650943756103515625">
        <ele>709.20001220703125</ele>
        <time>2022-05-02T11:18:58.000Z</time>
      </trkpt>
      <trkpt lat="41.15990188904106616973876953125" lon="-1.48421603254973888397216796875">
        <ele>709</ele>
        <time>2022-05-02T11:18:59.000Z</time>
      </trkpt>
      <trkpt lat="41.1598734743893146514892578125" lon="-1.48414730094373226165771484375">
        <ele>708.79998779296875</ele>
        <time>2022-05-02T11:19:00.000Z</time>
      </trkpt>
      <trkpt lat="41.1598211713135242462158203125" lon="-1.48403548635542392730712890625">
        <ele>708.4000244140625</ele>
        <time>2022-05-02T11:19:02.000Z</time>
      </trkpt>
      <trkpt lat="41.15976878441870212554931640625" lon="-1.48393540643155574798583984375">
        <ele>708</ele>
        <time>2022-05-02T11:19:04.000Z</time>
      </trkpt>
      <trkpt lat="41.159740202128887176513671875" lon="-1.483886875212192535400390625">
        <ele>707.79998779296875</ele>
        <time>2022-05-02T11:19:05.000Z</time>
      </trkpt>
      <trkpt lat="41.1597112007439136505126953125" lon="-1.48384027183055877685546875">
        <ele>707.5999755859375</ele>
        <time>2022-05-02T11:19:06.000Z</time>
      </trkpt>
      <trkpt lat="41.1596538685262203216552734375" lon="-1.4837525971233844757080078125">
        <ele>707.20001220703125</ele>
        <time>2022-05-02T11:19:08.000Z</time>
      </trkpt>
      <trkpt lat="41.15959192626178264617919921875" lon="-1.4836640842258930206298828125">
        <ele>706.79998779296875</ele>
        <time>2022-05-02T11:19:10.000Z</time>
      </trkpt>
      <trkpt lat="41.15951933898031711578369140625" lon="-1.4835842885076999664306640625">
        <ele>706.5999755859375</ele>
        <time>2022-05-02T11:19:12.000Z</time>
      </trkpt>
      <trkpt lat="41.1594413034617900848388671875" lon="-1.48350155912339687347412109375">
        <ele>706.4000244140625</ele>
        <time>2022-05-02T11:19:14.000Z</time>
      </trkpt>
      <trkpt lat="41.15940266288816928863525390625" lon="-1.4834602363407611846923828125">
        <ele>706.20001220703125</ele>
        <time>2022-05-02T11:19:15.000Z</time>
      </trkpt>
      <trkpt lat="41.159363351762294769287109375" lon="-1.48341706953942775726318359375">
        <ele>706</ele>
        <time>2022-05-02T11:19:16.000Z</time>
      </trkpt>
      <trkpt lat="41.15928833372890949249267578125" lon="-1.4833210967481136322021484375">
        <ele>705.79998779296875</ele>
        <time>2022-05-02T11:19:18.000Z</time>
      </trkpt>
      <trkpt lat="41.1592237092554569244384765625" lon="-1.4832325838506221771240234375">
        <ele>705.79998779296875</ele>
        <time>2022-05-02T11:19:20.000Z</time>
      </trkpt>
      <trkpt lat="41.15919998846948146820068359375" lon="-1.4831856451928615570068359375">
        <ele>706</ele>
        <time>2022-05-02T11:19:21.000Z</time>
      </trkpt>
      <trkpt lat="41.1591787822544574737548828125" lon="-1.4831346832215785980224609375">
        <ele>705.79998779296875</ele>
        <time>2022-05-02T11:19:22.000Z</time>
      </trkpt>
      <trkpt lat="41.1591341905295848846435546875" lon="-1.4830337651073932647705078125">
        <ele>705.5999755859375</ele>
        <time>2022-05-02T11:19:24.000Z</time>
      </trkpt>
      <trkpt lat="41.159093789756298065185546875" lon="-1.48294349201023578643798828125">
        <ele>705.5999755859375</ele>
        <time>2022-05-02T11:19:26.000Z</time>
      </trkpt>
      <trkpt lat="41.15907157771289348602294921875" lon="-1.48289856500923633575439453125">
        <ele>705.5999755859375</ele>
        <time>2022-05-02T11:19:27.000Z</time>
      </trkpt>
      <trkpt lat="41.1590473540127277374267578125" lon="-1.48285129107534885406494140625">
        <ele>705.5999755859375</ele>
        <time>2022-05-02T11:19:28.000Z</time>
      </trkpt>
      <trkpt lat="41.15900083445012569427490234375" lon="-1.482748948037624359130859375">
        <ele>706</ele>
        <time>2022-05-02T11:19:30.000Z</time>
      </trkpt>
      <trkpt lat="41.1589484475553035736083984375" lon="-1.4826460182666778564453125">
        <ele>706.4000244140625</ele>
        <time>2022-05-02T11:19:32.000Z</time>
      </trkpt>
      <trkpt lat="41.15889287553727626800537109375" lon="-1.482562534511089324951171875">
        <ele>706.79998779296875</ele>
        <time>2022-05-02T11:19:34.000Z</time>
      </trkpt>
      <trkpt lat="41.1588656343519687652587890625" lon="-1.4825167693197727203369140625">
        <ele>707.20001220703125</ele>
        <time>2022-05-02T11:19:35.000Z</time>
      </trkpt>
      <trkpt lat="41.158839650452136993408203125" lon="-1.4824708364903926849365234375">
        <ele>707.4000244140625</ele>
        <time>2022-05-02T11:19:36.000Z</time>
      </trkpt>
      <trkpt lat="41.15878106094896793365478515625" lon="-1.48239598609507083892822265625">
        <ele>707.79998779296875</ele>
        <time>2022-05-02T11:19:38.000Z</time>
      </trkpt>
      <trkpt lat="41.1587278358638286590576171875" lon="-1.48233513347804546356201171875">
        <ele>708.20001220703125</ele>
        <time>2022-05-02T11:19:40.000Z</time>
      </trkpt>
      <trkpt lat="41.15867611952126026153564453125" lon="-1.48228551261126995086669921875">
        <ele>708.4000244140625</ele>
        <time>2022-05-02T11:19:42.000Z</time>
      </trkpt>
      <trkpt lat="41.158619709312915802001953125" lon="-1.4822356402873992919921875">
        <ele>708.4000244140625</ele>
        <time>2022-05-02T11:19:44.000Z</time>
      </trkpt>
      <trkpt lat="41.15855927579104900360107421875" lon="-1.4821798168122768402099609375">
        <ele>708.4000244140625</ele>
        <time>2022-05-02T11:19:46.000Z</time>
      </trkpt>
      <trkpt lat="41.158531866967678070068359375" lon="-1.48215316236019134521484375">
        <ele>708.5999755859375</ele>
        <time>2022-05-02T11:19:47.000Z</time>
      </trkpt>
      <trkpt lat="41.15850747562944889068603515625" lon="-1.4821285195648670196533203125">
        <ele>708.5999755859375</ele>
        <time>2022-05-02T11:19:48.000Z</time>
      </trkpt>
      <trkpt lat="41.15845777094364166259765625" lon="-1.48209323175251483917236328125">
        <ele>708.5999755859375</ele>
        <time>2022-05-02T11:19:50.000Z</time>
      </trkpt>
      <trkpt lat="41.158389039337635040283203125" lon="-1.4820711873471736907958984375">
        <ele>708.5999755859375</ele>
        <time>2022-05-02T11:19:52.000Z</time>
      </trkpt>
      <trkpt lat="41.1583578586578369140625" lon="-1.48204511962831020355224609375">
        <ele>708.4000244140625</ele>
        <time>2022-05-02T11:19:53.000Z</time>
      </trkpt>
      <trkpt lat="41.15833531133830547332763671875" lon="-1.48200974799692630767822265625">
        <ele>708.4000244140625</ele>
        <time>2022-05-02T11:19:54.000Z</time>
      </trkpt>
      <trkpt lat="41.15831888280808925628662109375" lon="-1.481965743005275726318359375">
        <ele>708.4000244140625</ele>
        <time>2022-05-02T11:19:55.000Z</time>
      </trkpt>
      <trkpt lat="41.15830614231526851654052734375" lon="-1.48191503249108791351318359375">
        <ele>708.4000244140625</ele>
        <time>2022-05-02T11:19:56.000Z</time>
      </trkpt>
      <trkpt lat="41.15829725749790668487548828125" lon="-1.48186692036688327789306640625">
        <ele>708.4000244140625</ele>
        <time>2022-05-02T11:19:57.000Z</time>
      </trkpt>
      <trkpt lat="41.15828786976635456085205078125" lon="-1.48182014934718608856201171875">
        <ele>708.5999755859375</ele>
        <time>2022-05-02T11:19:58.000Z</time>
      </trkpt>
      <trkpt lat="41.15826238878071308135986328125" lon="-1.48172861896455287933349609375">
        <ele>708.79998779296875</ele>
        <time>2022-05-02T11:20:00.000Z</time>
      </trkpt>
      <trkpt lat="41.1582490615546703338623046875" lon="-1.48168704472482204437255859375">
        <ele>709</ele>
        <time>2022-05-02T11:20:01.000Z</time>
      </trkpt>
      <trkpt lat="41.15823808126151561737060546875" lon="-1.4816447161138057708740234375">
        <ele>709</ele>
        <time>2022-05-02T11:20:02.000Z</time>
      </trkpt>
      <trkpt lat="41.1582232452929019927978515625" lon="-1.4815625734627246856689453125">
        <ele>709.20001220703125</ele>
        <time>2022-05-02T11:20:04.000Z</time>
      </trkpt>
      <trkpt lat="41.15821176208555698394775390625" lon="-1.48147598840296268463134765625">
        <ele>709.4000244140625</ele>
        <time>2022-05-02T11:20:06.000Z</time>
      </trkpt>
      <trkpt lat="41.158203966915607452392578125" lon="-1.48143231868743896484375">
        <ele>709.4000244140625</ele>
        <time>2022-05-02T11:20:07.000Z</time>
      </trkpt>
      <trkpt lat="41.15819466300308704376220703125" lon="-1.48138848133385181427001953125">
        <ele>709.5999755859375</ele>
        <time>2022-05-02T11:20:08.000Z</time>
      </trkpt>
      <trkpt lat="41.158178485929965972900390625" lon="-1.4813007228076457977294921875">
        <ele>710</ele>
        <time>2022-05-02T11:20:10.000Z</time>
      </trkpt>
      <trkpt lat="41.1581665836274623870849609375" lon="-1.48121397010982036590576171875">
        <ele>710.4000244140625</ele>
        <time>2022-05-02T11:20:12.000Z</time>
      </trkpt>
      <trkpt lat="41.15816230885684490203857421875" lon="-1.48116736672818660736083984375">
        <ele>710.5999755859375</ele>
        <time>2022-05-02T11:20:13.000Z</time>
      </trkpt>
      <trkpt lat="41.15815660916268825531005859375" lon="-1.48112160153687000274658203125">
        <ele>710.79998779296875</ele>
        <time>2022-05-02T11:20:14.000Z</time>
      </trkpt>
      <trkpt lat="41.15814286284148693084716796875" lon="-1.48103778250515460968017578125">
        <ele>712</ele>
        <time>2022-05-02T11:20:16.000Z</time>
      </trkpt>
      <trkpt lat="41.1581320501863956451416015625" lon="-1.4809589087963104248046875">
        <ele>713.5999755859375</ele>
        <time>2022-05-02T11:20:18.000Z</time>
      </trkpt>
      <trkpt lat="41.15813163109123706817626953125" lon="-1.48091775365173816680908203125">
        <ele>714.20001220703125</ele>
        <time>2022-05-02T11:20:19.000Z</time>
      </trkpt>
      <trkpt lat="41.15813054144382476806640625" lon="-1.48087953217327594757080078125">
        <ele>714.4000244140625</ele>
        <time>2022-05-02T11:20:20.000Z</time>
      </trkpt>
      <trkpt lat="41.15812308155000209808349609375" lon="-1.480798311531543731689453125">
        <ele>714.5999755859375</ele>
        <time>2022-05-02T11:20:22.000Z</time>
      </trkpt>
      <trkpt lat="41.15811847150325775146484375" lon="-1.48072144947946071624755859375">
        <ele>715.5999755859375</ele>
        <time>2022-05-02T11:20:24.000Z</time>
      </trkpt>
      <trkpt lat="41.15811687894165515899658203125" lon="-1.4806885085999965667724609375">
        <ele>716</ele>
        <time>2022-05-02T11:20:25.000Z</time>
      </trkpt>
      <trkpt lat="41.15811620838940143585205078125" lon="-1.4806543104350566864013671875">
        <ele>716.20001220703125</ele>
        <time>2022-05-02T11:20:26.000Z</time>
      </trkpt>
      <trkpt lat="41.1581136099994182586669921875" lon="-1.480583064258098602294921875">
        <ele>716.20001220703125</ele>
        <time>2022-05-02T11:20:28.000Z</time>
      </trkpt>
      <trkpt lat="41.15811184979975223541259765625" lon="-1.48054174147546291351318359375">
        <ele>716.20001220703125</ele>
        <time>2022-05-02T11:20:29.000Z</time>
      </trkpt>
      <trkpt lat="41.15811017341911792755126953125" lon="-1.48049882613122463226318359375">
        <ele>716.20001220703125</ele>
        <time>2022-05-02T11:20:30.000Z</time>
      </trkpt>
      <trkpt lat="41.15810816176235675811767578125" lon="-1.48045842535793781280517578125">
        <ele>716.20001220703125</ele>
        <time>2022-05-02T11:20:31.000Z</time>
      </trkpt>
      <trkpt lat="41.15810640156269073486328125" lon="-1.48041869513690471649169921875">
        <ele>716.20001220703125</ele>
        <time>2022-05-02T11:20:32.000Z</time>
      </trkpt>
      <trkpt lat="41.15810581482946872711181640625" lon="-1.4803773723542690277099609375">
        <ele>716.5999755859375</ele>
        <time>2022-05-02T11:20:33.000Z</time>
      </trkpt>
      <trkpt lat="41.15810573101043701171875" lon="-1.48033739067614078521728515625">
        <ele>716.79998779296875</ele>
        <time>2022-05-02T11:20:34.000Z</time>
      </trkpt>
      <trkpt lat="41.15810514427721500396728515625" lon="-1.4802647195756435394287109375">
        <ele>717.20001220703125</ele>
        <time>2022-05-02T11:20:36.000Z</time>
      </trkpt>
      <trkpt lat="41.158106066286563873291015625" lon="-1.48022859357297420501708984375">
        <ele>717.20001220703125</ele>
        <time>2022-05-02T11:20:37.000Z</time>
      </trkpt>
      <trkpt lat="41.158106736838817596435546875" lon="-1.48019255138933658599853515625">
        <ele>717</ele>
        <time>2022-05-02T11:20:38.000Z</time>
      </trkpt>
      <trkpt lat="41.15810832940042018890380859375" lon="-1.48011543788015842437744140625">
        <ele>717</ele>
        <time>2022-05-02T11:20:40.000Z</time>
      </trkpt>
      <trkpt lat="41.1581105925142765045166015625" lon="-1.48003865964710712432861328125">
        <ele>717.5999755859375</ele>
        <time>2022-05-02T11:20:42.000Z</time>
      </trkpt>
      <trkpt lat="41.15811201743781566619873046875" lon="-1.47995643317699432373046875">
        <ele>718</ele>
        <time>2022-05-02T11:20:44.000Z</time>
      </trkpt>
      <trkpt lat="41.15811034105718135833740234375" lon="-1.47991443984210491180419921875">
        <ele>718.20001220703125</ele>
        <time>2022-05-02T11:20:45.000Z</time>
      </trkpt>
      <trkpt lat="41.15810715593397617340087890625" lon="-1.479873955249786376953125">
        <ele>718.20001220703125</ele>
        <time>2022-05-02T11:20:46.000Z</time>
      </trkpt>
      <trkpt lat="41.158103048801422119140625" lon="-1.4797913096845149993896484375">
        <ele>718.5999755859375</ele>
        <time>2022-05-02T11:20:48.000Z</time>
      </trkpt>
      <trkpt lat="41.15810078568756580352783203125" lon="-1.47970489226281642913818359375">
        <ele>719.20001220703125</ele>
        <time>2022-05-02T11:20:50.000Z</time>
      </trkpt>
      <trkpt lat="41.15809433162212371826171875" lon="-1.479619480669498443603515625">
        <ele>720.20001220703125</ele>
        <time>2022-05-02T11:20:52.000Z</time>
      </trkpt>
      <trkpt lat="41.1580881290137767791748046875" lon="-1.47957882843911647796630859375">
        <ele>720.5999755859375</ele>
        <time>2022-05-02T11:20:53.000Z</time>
      </trkpt>
      <trkpt lat="41.1580817587673664093017578125" lon="-1.4795371703803539276123046875">
        <ele>721</ele>
        <time>2022-05-02T11:20:54.000Z</time>
      </trkpt>
      <trkpt lat="41.15807664580643177032470703125" lon="-1.47949618287384510040283203125">
        <ele>721.5999755859375</ele>
        <time>2022-05-02T11:20:55.000Z</time>
      </trkpt>
      <trkpt lat="41.1580720357596874237060546875" lon="-1.47945511154830455780029296875">
        <ele>722</ele>
        <time>2022-05-02T11:20:56.000Z</time>
      </trkpt>
      <trkpt lat="41.15805971436202526092529296875" lon="-1.47937263362109661102294921875">
        <ele>723</ele>
        <time>2022-05-02T11:20:58.000Z</time>
      </trkpt>
      <trkpt lat="41.1580534279346466064453125" lon="-1.479332149028778076171875">
        <ele>723.5999755859375</ele>
        <time>2022-05-02T11:20:59.000Z</time>
      </trkpt>
      <trkpt lat="41.15804596804082393646240234375" lon="-1.47929300554096698760986328125">
        <ele>723.79998779296875</ele>
        <time>2022-05-02T11:21:00.000Z</time>
      </trkpt>
      <trkpt lat="41.1580304615199565887451171875" lon="-1.47921605966985225677490234375">
        <ele>724.4000244140625</ele>
        <time>2022-05-02T11:21:02.000Z</time>
      </trkpt>
      <trkpt lat="41.158016212284564971923828125" lon="-1.479139029979705810546875">
        <ele>725.20001220703125</ele>
        <time>2022-05-02T11:21:04.000Z</time>
      </trkpt>
      <trkpt lat="41.1579979397356510162353515625" lon="-1.479059569537639617919921875">
        <ele>726.4000244140625</ele>
        <time>2022-05-02T11:21:06.000Z</time>
      </trkpt>
      <trkpt lat="41.15797556005418300628662109375" lon="-1.47897935472428798675537109375">
        <ele>727.4000244140625</ele>
        <time>2022-05-02T11:21:08.000Z</time>
      </trkpt>
      <trkpt lat="41.157951168715953826904296875" lon="-1.47890408523380756378173828125">
        <ele>728.4000244140625</ele>
        <time>2022-05-02T11:21:10.000Z</time>
      </trkpt>
      <trkpt lat="41.15792778320610523223876953125" lon="-1.47883015684783458709716796875">
        <ele>730</ele>
        <time>2022-05-02T11:21:12.000Z</time>
      </trkpt>
      <trkpt lat="41.15789995528757572174072265625" lon="-1.47876025177538394927978515625">
        <ele>731.4000244140625</ele>
        <time>2022-05-02T11:21:14.000Z</time>
      </trkpt>
      <trkpt lat="41.15788268856704235076904296875" lon="-1.4787278138101100921630859375">
        <ele>732</ele>
        <time>2022-05-02T11:21:15.000Z</time>
      </trkpt>
      <trkpt lat="41.1578655056655406951904296875" lon="-1.4786939509212970733642578125">
        <ele>732.79998779296875</ele>
        <time>2022-05-02T11:21:16.000Z</time>
      </trkpt>
      <trkpt lat="41.15784631110727787017822265625" lon="-1.47866033948957920074462890625">
        <ele>733.20001220703125</ele>
        <time>2022-05-02T11:21:17.000Z</time>
      </trkpt>
      <trkpt lat="41.15782611072063446044921875" lon="-1.47862882353365421295166015625">
        <ele>733.5999755859375</ele>
        <time>2022-05-02T11:21:18.000Z</time>
      </trkpt>
      <trkpt lat="41.15777917206287384033203125" lon="-1.47855573333799839019775390625">
        <ele>734.20001220703125</ele>
        <time>2022-05-02T11:21:20.000Z</time>
      </trkpt>
      <trkpt lat="41.157727874815464019775390625" lon="-1.4784877561032772064208984375">
        <ele>734.5999755859375</ele>
        <time>2022-05-02T11:21:22.000Z</time>
      </trkpt>
      <trkpt lat="41.1576727218925952911376953125" lon="-1.47841793484985828399658203125">
        <ele>734.79998779296875</ele>
        <time>2022-05-02T11:21:24.000Z</time>
      </trkpt>
      <trkpt lat="41.157614886760711669921875" lon="-1.47834576666355133056640625">
        <ele>734.4000244140625</ele>
        <time>2022-05-02T11:21:26.000Z</time>
      </trkpt>
      <trkpt lat="41.15755814127624034881591796875" lon="-1.478277035057544708251953125">
        <ele>733.4000244140625</ele>
        <time>2022-05-02T11:21:28.000Z</time>
      </trkpt>
      <trkpt lat="41.15750298835337162017822265625" lon="-1.478214673697948455810546875">
        <ele>732.4000244140625</ele>
        <time>2022-05-02T11:21:30.000Z</time>
      </trkpt>
      <trkpt lat="41.1574450694024562835693359375" lon="-1.478154659271240234375">
        <ele>730.20001220703125</ele>
        <time>2022-05-02T11:21:32.000Z</time>
      </trkpt>
      <trkpt lat="41.1574162356555461883544921875" lon="-1.47812775336205959320068359375">
        <ele>729</ele>
        <time>2022-05-02T11:21:33.000Z</time>
      </trkpt>
      <trkpt lat="41.15738664753735065460205078125" lon="-1.47810160182416439056396484375">
        <ele>728</ele>
        <time>2022-05-02T11:21:34.000Z</time>
      </trkpt>
      <trkpt lat="41.15733082406222820281982421875" lon="-1.478044688701629638671875">
        <ele>726.4000244140625</ele>
        <time>2022-05-02T11:21:36.000Z</time>
      </trkpt>
      <trkpt lat="41.15730299614369869232177734375" lon="-1.478017531335353851318359375">
        <ele>725.5999755859375</ele>
        <time>2022-05-02T11:21:37.000Z</time>
      </trkpt>
      <trkpt lat="41.15727416239678859710693359375" lon="-1.4779905416071414947509765625">
        <ele>725</ele>
        <time>2022-05-02T11:21:38.000Z</time>
      </trkpt>
      <trkpt lat="41.1572157405316829681396484375" lon="-1.47793647833168506622314453125">
        <ele>723.4000244140625</ele>
        <time>2022-05-02T11:21:40.000Z</time>
      </trkpt>
      <trkpt lat="41.1571540497243404388427734375" lon="-1.4778802357614040374755859375">
        <ele>721.20001220703125</ele>
        <time>2022-05-02T11:21:42.000Z</time>
      </trkpt>
      <trkpt lat="41.1570960469543933868408203125" lon="-1.4778155274689197540283203125">
        <ele>720.4000244140625</ele>
        <time>2022-05-02T11:21:44.000Z</time>
      </trkpt>
      <trkpt lat="41.15706779994070529937744140625" lon="-1.47778292186558246612548828125">
        <ele>720.4000244140625</ele>
        <time>2022-05-02T11:21:45.000Z</time>
      </trkpt>
      <trkpt lat="41.1570393852889537811279296875" lon="-1.47774788551032543182373046875">
        <ele>720.79998779296875</ele>
        <time>2022-05-02T11:21:46.000Z</time>
      </trkpt>
      <trkpt lat="41.15698347799479961395263671875" lon="-1.477669514715671539306640625">
        <ele>721.4000244140625</ele>
        <time>2022-05-02T11:21:48.000Z</time>
      </trkpt>
      <trkpt lat="41.15692798979580402374267578125" lon="-1.47757999598979949951171875">
        <ele>722</ele>
        <time>2022-05-02T11:21:50.000Z</time>
      </trkpt>
      <trkpt lat="41.1568647064268589019775390625" lon="-1.47748737595975399017333984375">
        <ele>722.4000244140625</ele>
        <time>2022-05-02T11:21:52.000Z</time>
      </trkpt>
      <trkpt lat="41.15680092014372348785400390625" lon="-1.477393917739391326904296875">
        <ele>724.20001220703125</ele>
        <time>2022-05-02T11:21:54.000Z</time>
      </trkpt>
      <trkpt lat="41.1567668057978153228759765625" lon="-1.477350331842899322509765625">
        <ele>725</ele>
        <time>2022-05-02T11:21:55.000Z</time>
      </trkpt>
      <trkpt lat="41.15673051215708255767822265625" lon="-1.47730900906026363372802734375">
        <ele>725.4000244140625</ele>
        <time>2022-05-02T11:21:56.000Z</time>
      </trkpt>
      <trkpt lat="41.15665993653237819671630859375" lon="-1.47722619585692882537841796875">
        <ele>725</ele>
        <time>2022-05-02T11:21:58.000Z</time>
      </trkpt>
      <trkpt lat="41.156622804701328277587890625" lon="-1.4771850407123565673828125">
        <ele>725.20001220703125</ele>
        <time>2022-05-02T11:21:59.000Z</time>
      </trkpt>
      <trkpt lat="41.15658433176577091217041015625" lon="-1.47714170627295970916748046875">
        <ele>725</ele>
        <time>2022-05-02T11:22:00.000Z</time>
      </trkpt>
      <trkpt lat="41.15650244057178497314453125" lon="-1.477046571671962738037109375">
        <ele>726</ele>
        <time>2022-05-02T11:22:02.000Z</time>
      </trkpt>
      <trkpt lat="41.15641719661653041839599609375" lon="-1.4769516885280609130859375">
        <ele>726</ele>
        <time>2022-05-02T11:22:04.000Z</time>
      </trkpt>
      <trkpt lat="41.15633522160351276397705078125" lon="-1.4768650196492671966552734375">
        <ele>726.4000244140625</ele>
        <time>2022-05-02T11:22:06.000Z</time>
      </trkpt>
      <trkpt lat="41.15626263432204723358154296875" lon="-1.476780362427234649658203125">
        <ele>727.20001220703125</ele>
        <time>2022-05-02T11:22:08.000Z</time>
      </trkpt>
      <trkpt lat="41.1561892926692962646484375" lon="-1.47669780068099498748779296875">
        <ele>728.5999755859375</ele>
        <time>2022-05-02T11:22:10.000Z</time>
      </trkpt>
      <trkpt lat="41.1561210639774799346923828125" lon="-1.47662186063826084136962890625">
        <ele>729.4000244140625</ele>
        <time>2022-05-02T11:22:12.000Z</time>
      </trkpt>
      <trkpt lat="41.156059205532073974609375" lon="-1.4765574038028717041015625">
        <ele>729.5999755859375</ele>
        <time>2022-05-02T11:22:14.000Z</time>
      </trkpt>
      <trkpt lat="41.15599961020052433013916015625" lon="-1.4764999039471149444580078125">
        <ele>728.5999755859375</ele>
        <time>2022-05-02T11:22:16.000Z</time>
      </trkpt>
      <trkpt lat="41.15593523718416690826416015625" lon="-1.47644517011940479278564453125">
        <ele>727.20001220703125</ele>
        <time>2022-05-02T11:22:18.000Z</time>
      </trkpt>
      <trkpt lat="41.1559034697711467742919921875" lon="-1.4764167554676532745361328125">
        <ele>726.79998779296875</ele>
        <time>2022-05-02T11:22:19.000Z</time>
      </trkpt>
      <trkpt lat="41.1558732949197292327880859375" lon="-1.4763885922729969024658203125">
        <ele>726.4000244140625</ele>
        <time>2022-05-02T11:22:20.000Z</time>
      </trkpt>
      <trkpt lat="41.15584337152540683746337890625" lon="-1.476354561746120452880859375">
        <ele>725.79998779296875</ele>
        <time>2022-05-02T11:22:21.000Z</time>
      </trkpt>
      <trkpt lat="41.1558142863214015960693359375" lon="-1.4763213694095611572265625">
        <ele>725.4000244140625</ele>
        <time>2022-05-02T11:22:22.000Z</time>
      </trkpt>
      <trkpt lat="41.155749745666980743408203125" lon="-1.47625959478318691253662109375">
        <ele>724.20001220703125</ele>
        <time>2022-05-02T11:22:24.000Z</time>
      </trkpt>
      <trkpt lat="41.15568034350872039794921875" lon="-1.476201675832271575927734375">
        <ele>723</ele>
        <time>2022-05-02T11:22:26.000Z</time>
      </trkpt>
      <trkpt lat="41.15560934878885746002197265625" lon="-1.47613453678786754608154296875">
        <ele>722.4000244140625</ele>
        <time>2022-05-02T11:22:28.000Z</time>
      </trkpt>
      <trkpt lat="41.1555296368896961212158203125" lon="-1.47605809383094310760498046875">
        <ele>722</ele>
        <time>2022-05-02T11:22:30.000Z</time>
      </trkpt>
      <trkpt lat="41.15545143373310565948486328125" lon="-1.475960277020931243896484375">
        <ele>721.4000244140625</ele>
        <time>2022-05-02T11:22:32.000Z</time>
      </trkpt>
      <trkpt lat="41.1553747393190860748291015625" lon="-1.47585039027035236358642578125">
        <ele>722</ele>
        <time>2022-05-02T11:22:34.000Z</time>
      </trkpt>
      <trkpt lat="41.1552979610860347747802734375" lon="-1.4757418446242809295654296875">
        <ele>722.20001220703125</ele>
        <time>2022-05-02T11:22:36.000Z</time>
      </trkpt>
      <trkpt lat="41.1552215181291103363037109375" lon="-1.4756362326443195343017578125">
        <ele>721.4000244140625</ele>
        <time>2022-05-02T11:22:38.000Z</time>
      </trkpt>
      <trkpt lat="41.15514792501926422119140625" lon="-1.4755302853882312774658203125">
        <ele>720.5999755859375</ele>
        <time>2022-05-02T11:22:40.000Z</time>
      </trkpt>
      <trkpt lat="41.1550837196409702301025390625" lon="-1.47542442195117473602294921875">
        <ele>720.4000244140625</ele>
        <time>2022-05-02T11:22:42.000Z</time>
      </trkpt>
      <trkpt lat="41.15505094639956951141357421875" lon="-1.4753743819892406463623046875">
        <ele>720.20001220703125</ele>
        <time>2022-05-02T11:22:43.000Z</time>
      </trkpt>
      <trkpt lat="41.1550176702439785003662109375" lon="-1.4753237552940845489501953125">
        <ele>720</ele>
        <time>2022-05-02T11:22:44.000Z</time>
      </trkpt>
      <trkpt lat="41.154958494007587432861328125" lon="-1.47521906532347202301025390625">
        <ele>720</ele>
        <time>2022-05-02T11:22:46.000Z</time>
      </trkpt>
      <trkpt lat="41.15490158088505268096923828125" lon="-1.47510507144033908843994140625">
        <ele>719.5999755859375</ele>
        <time>2022-05-02T11:22:48.000Z</time>
      </trkpt>
      <trkpt lat="41.1548470146954059600830078125" lon="-1.4749918319284915924072265625">
        <ele>719.4000244140625</ele>
        <time>2022-05-02T11:22:50.000Z</time>
      </trkpt>
      <trkpt lat="41.15481994114816188812255859375" lon="-1.4749358408153057098388671875">
        <ele>719.20001220703125</ele>
        <time>2022-05-02T11:22:51.000Z</time>
      </trkpt>
      <trkpt lat="41.154792867600917816162109375" lon="-1.47487591020762920379638671875">
        <ele>719.20001220703125</ele>
        <time>2022-05-02T11:22:52.000Z</time>
      </trkpt>
      <trkpt lat="41.1547397263348102569580078125" lon="-1.4747591502964496612548828125">
        <ele>719</ele>
        <time>2022-05-02T11:22:54.000Z</time>
      </trkpt>
      <trkpt lat="41.15467845462262630462646484375" lon="-1.4746511913836002349853515625">
        <ele>719</ele>
        <time>2022-05-02T11:22:56.000Z</time>
      </trkpt>
      <trkpt lat="41.15461391396820545196533203125" lon="-1.4745591580867767333984375">
        <ele>718</ele>
        <time>2022-05-02T11:22:58.000Z</time>
      </trkpt>
      <trkpt lat="41.154556833207607269287109375" lon="-1.47448740899562835693359375">
        <ele>717.79998779296875</ele>
        <time>2022-05-02T11:23:00.000Z</time>
      </trkpt>
      <trkpt lat="41.15450109355151653289794921875" lon="-1.47442362271249294281005859375">
        <ele>718</ele>
        <time>2022-05-02T11:23:02.000Z</time>
      </trkpt>
      <trkpt lat="41.15444225259125232696533203125" lon="-1.474365033209323883056640625">
        <ele>718.5999755859375</ele>
        <time>2022-05-02T11:23:04.000Z</time>
      </trkpt>
      <trkpt lat="41.154384501278400421142578125" lon="-1.474306695163249969482421875">
        <ele>718.20001220703125</ele>
        <time>2022-05-02T11:23:06.000Z</time>
      </trkpt>
      <trkpt lat="41.1543243192136287689208984375" lon="-1.4742453396320343017578125">
        <ele>718</ele>
        <time>2022-05-02T11:23:08.000Z</time>
      </trkpt>
      <trkpt lat="41.15427109412848949432373046875" lon="-1.474183984100818634033203125">
        <ele>717.79998779296875</ele>
        <time>2022-05-02T11:23:10.000Z</time>
      </trkpt>
      <trkpt lat="41.1542190425097942352294921875" lon="-1.4741184376180171966552734375">
        <ele>717.5999755859375</ele>
        <time>2022-05-02T11:23:12.000Z</time>
      </trkpt>
      <trkpt lat="41.154164560139179229736328125" lon="-1.47406361997127532958984375">
        <ele>717.4000244140625</ele>
        <time>2022-05-02T11:23:14.000Z</time>
      </trkpt>
      <trkpt lat="41.15411686711013317108154296875" lon="-1.47401575930416584014892578125">
        <ele>717.20001220703125</ele>
        <time>2022-05-02T11:23:16.000Z</time>
      </trkpt>
      <trkpt lat="41.1540896259248256683349609375" lon="-1.4739578403532505035400390625">
        <ele>717</ele>
        <time>2022-05-02T11:23:18.000Z</time>
      </trkpt>
      <trkpt lat="41.15408132784068584442138671875" lon="-1.47390025667846202850341796875">
        <ele>717</ele>
        <time>2022-05-02T11:23:20.000Z</time>
      </trkpt>
      <trkpt lat="41.15406297147274017333984375" lon="-1.4738334529101848602294921875">
        <ele>717</ele>
        <time>2022-05-02T11:23:22.000Z</time>
      </trkpt>
      <trkpt lat="41.154047213494777679443359375" lon="-1.47379045374691486358642578125">
        <ele>717</ele>
        <time>2022-05-02T11:23:23.000Z</time>
      </trkpt>
      <trkpt lat="41.15403187461197376251220703125" lon="-1.47374586202204227447509765625">
        <ele>716.79998779296875</ele>
        <time>2022-05-02T11:23:24.000Z</time>
      </trkpt>
      <trkpt lat="41.1540195532143115997314453125" lon="-1.47365617565810680389404296875">
        <ele>716.79998779296875</ele>
        <time>2022-05-02T11:23:26.000Z</time>
      </trkpt>
      <trkpt lat="41.15404847078025341033935546875" lon="-1.47355877794325351715087890625">
        <ele>717.20001220703125</ele>
        <time>2022-05-02T11:23:28.000Z</time>
      </trkpt>
      <trkpt lat="41.15410798229277133941650390625" lon="-1.4734862744808197021484375">
        <ele>718</ele>
        <time>2022-05-02T11:23:30.000Z</time>
      </trkpt>
      <trkpt lat="41.1541737802326679229736328125" lon="-1.473427601158618927001953125">
        <ele>718.5999755859375</ele>
        <time>2022-05-02T11:23:32.000Z</time>
      </trkpt>
      <trkpt lat="41.15423790179193019866943359375" lon="-1.47336649708449840545654296875">
        <ele>719.4000244140625</ele>
        <time>2022-05-02T11:23:34.000Z</time>
      </trkpt>
      <trkpt lat="41.1542988382279872894287109375" lon="-1.47329307161271572113037109375">
        <ele>720</ele>
        <time>2022-05-02T11:23:36.000Z</time>
      </trkpt>
      <trkpt lat="41.1543601937592029571533203125" lon="-1.4732232503592967987060546875">
        <ele>720.79998779296875</ele>
        <time>2022-05-02T11:23:38.000Z</time>
      </trkpt>
      <trkpt lat="41.15438994951546192169189453125" lon="-1.47318779490888118743896484375">
        <ele>721</ele>
        <time>2022-05-02T11:23:39.000Z</time>
      </trkpt>
      <trkpt lat="41.154418699443340301513671875" lon="-1.4731521718204021453857421875">
        <ele>721.20001220703125</ele>
        <time>2022-05-02T11:23:40.000Z</time>
      </trkpt>
      <trkpt lat="41.15447863005101680755615234375" lon="-1.4730820991098880767822265625">
        <ele>721.79998779296875</ele>
        <time>2022-05-02T11:23:42.000Z</time>
      </trkpt>
      <trkpt lat="41.15453512407839298248291015625" lon="-1.4730069972574710845947265625">
        <ele>722.20001220703125</ele>
        <time>2022-05-02T11:23:44.000Z</time>
      </trkpt>
      <trkpt lat="41.1545848287642002105712890625" lon="-1.47293298505246639251708984375">
        <ele>722.4000244140625</ele>
        <time>2022-05-02T11:23:46.000Z</time>
      </trkpt>
      <trkpt lat="41.1546337790787220001220703125" lon="-1.47286467254161834716796875">
        <ele>722.5999755859375</ele>
        <time>2022-05-02T11:23:48.000Z</time>
      </trkpt>
      <trkpt lat="41.1546777002513408660888671875" lon="-1.472791917622089385986328125">
        <ele>722.79998779296875</ele>
        <time>2022-05-02T11:23:50.000Z</time>
      </trkpt>
      <trkpt lat="41.154721789062023162841796875" lon="-1.47271891124546527862548828125">
        <ele>722.79998779296875</ele>
        <time>2022-05-02T11:23:52.000Z</time>
      </trkpt>
      <trkpt lat="41.1547615192830562591552734375" lon="-1.4726448990404605865478515625">
        <ele>723</ele>
        <time>2022-05-02T11:23:54.000Z</time>
      </trkpt>
      <trkpt lat="41.1547973938286304473876953125" lon="-1.4725738205015659332275390625">
        <ele>723</ele>
        <time>2022-05-02T11:23:56.000Z</time>
      </trkpt>
      <trkpt lat="41.1548144929111003875732421875" lon="-1.47253819741308689117431640625">
        <ele>723</ele>
        <time>2022-05-02T11:23:57.000Z</time>
      </trkpt>
      <trkpt lat="41.154831759631633758544921875" lon="-1.47250433452427387237548828125">
        <ele>723</ele>
        <time>2022-05-02T11:23:58.000Z</time>
      </trkpt>
      <trkpt lat="41.15486788563430309295654296875" lon="-1.4724393747746944427490234375">
        <ele>723.4000244140625</ele>
        <time>2022-05-02T11:24:00.000Z</time>
      </trkpt>
      <trkpt lat="41.15490518510341644287109375" lon="-1.47237575612962245941162109375">
        <ele>723.79998779296875</ele>
        <time>2022-05-02T11:24:02.000Z</time>
      </trkpt>
      <trkpt lat="41.15494382567703723907470703125" lon="-1.4723159931600093841552734375">
        <ele>724.4000244140625</ele>
        <time>2022-05-02T11:24:04.000Z</time>
      </trkpt>
      <trkpt lat="41.15495371632277965545654296875" lon="-1.472280286252498626708984375">
        <ele>724.79998779296875</ele>
        <time>2022-05-02T11:24:05.000Z</time>
      </trkpt>
      <trkpt lat="41.15495287813246250152587890625" lon="-1.47224508225917816162109375">
        <ele>725</ele>
        <time>2022-05-02T11:24:06.000Z</time>
      </trkpt>
      <trkpt lat="41.154928319156169891357421875" lon="-1.47218833677470684051513671875">
        <ele>725.20001220703125</ele>
        <time>2022-05-02T11:24:08.000Z</time>
      </trkpt>
      <trkpt lat="41.154878027737140655517578125" lon="-1.47215045057237148284912109375">
        <ele>726</ele>
        <time>2022-05-02T11:24:10.000Z</time>
      </trkpt>
      <trkpt lat="41.15482413209974765777587890625" lon="-1.47216034121811389923095703125">
        <ele>725.79998779296875</ele>
        <time>2022-05-02T11:24:12.000Z</time>
      </trkpt>
      <trkpt lat="41.15480326116085052490234375" lon="-1.47217878140509128570556640625">
        <ele>725.5999755859375</ele>
        <time>2022-05-02T11:24:13.000Z</time>
      </trkpt>
      <trkpt lat="41.154784820973873138427734375" lon="-1.47220057435333728790283203125">
        <ele>725.20001220703125</ele>
        <time>2022-05-02T11:24:14.000Z</time>
      </trkpt>
      <trkpt lat="41.154766380786895751953125" lon="-1.47222052328288555145263671875">
        <ele>725</ele>
        <time>2022-05-02T11:24:15.000Z</time>
      </trkpt>
      <trkpt lat="41.15474668331444263458251953125" lon="-1.47223359905183315277099609375">
        <ele>724.79998779296875</ele>
        <time>2022-05-02T11:24:16.000Z</time>
      </trkpt>
      <trkpt lat="41.15469538606703281402587890625" lon="-1.472248770296573638916015625">
        <ele>724.79998779296875</ele>
        <time>2022-05-02T11:24:18.000Z</time>
      </trkpt>
      <trkpt lat="41.1546461842954158782958984375" lon="-1.4722315035760402679443359375">
        <ele>724.79998779296875</ele>
        <time>2022-05-02T11:24:20.000Z</time>
      </trkpt>
      <trkpt lat="41.15462514571845531463623046875" lon="-1.47221314720809459686279296875">
        <ele>725</ele>
        <time>2022-05-02T11:24:21.000Z</time>
      </trkpt>
      <trkpt lat="41.1546069569885730743408203125" lon="-1.47219051606953144073486328125">
        <ele>725.4000244140625</ele>
        <time>2022-05-02T11:24:22.000Z</time>
      </trkpt>
      <trkpt lat="41.15457535721361637115478515625" lon="-1.47214089520275592803955078125">
        <ele>726</ele>
        <time>2022-05-02T11:24:24.000Z</time>
      </trkpt>
      <trkpt lat="41.15456345491111278533935546875" lon="-1.472108624875545501708984375">
        <ele>726.4000244140625</ele>
        <time>2022-05-02T11:24:25.000Z</time>
      </trkpt>
      <trkpt lat="41.15454845130443572998046875" lon="-1.4720816351473331451416015625">
        <ele>726.79998779296875</ele>
        <time>2022-05-02T11:24:26.000Z</time>
      </trkpt>
      <trkpt lat="41.1545258201658725738525390625" lon="-1.47202673368155956268310546875">
        <ele>727.4000244140625</ele>
        <time>2022-05-02T11:24:28.000Z</time>
      </trkpt>
      <trkpt lat="41.15451634861528873443603515625" lon="-1.47197283804416656494140625">
        <ele>728.20001220703125</ele>
        <time>2022-05-02T11:24:30.000Z</time>
      </trkpt>
      <trkpt lat="41.1545057035982608795166015625" lon="-1.471916176378726959228515625">
        <ele>729.4000244140625</ele>
        <time>2022-05-02T11:24:32.000Z</time>
      </trkpt>
      <trkpt lat="41.1545021831989288330078125" lon="-1.4718865044414997100830078125">
        <ele>730.4000244140625</ele>
        <time>2022-05-02T11:24:33.000Z</time>
      </trkpt>
      <trkpt lat="41.15449908189475536346435546875" lon="-1.47185557521879673004150390625">
        <ele>731.20001220703125</ele>
        <time>2022-05-02T11:24:34.000Z</time>
      </trkpt>
      <trkpt lat="41.15449254401028156280517578125" lon="-1.4717909507453441619873046875">
        <ele>733.20001220703125</ele>
        <time>2022-05-02T11:24:36.000Z</time>
      </trkpt>
      <trkpt lat="41.15447779186069965362548828125" lon="-1.47172397933900356292724609375">
        <ele>734</ele>
        <time>2022-05-02T11:24:38.000Z</time>
      </trkpt>
      <trkpt lat="41.154458932578563690185546875" lon="-1.4716596901416778564453125">
        <ele>734.79998779296875</ele>
        <time>2022-05-02T11:24:40.000Z</time>
      </trkpt>
      <trkpt lat="41.15443370305001735687255859375" lon="-1.471595652401447296142578125">
        <ele>736.5999755859375</ele>
        <time>2022-05-02T11:24:42.000Z</time>
      </trkpt>
      <trkpt lat="41.15439933724701404571533203125" lon="-1.47154242731630802154541015625">
        <ele>737.4000244140625</ele>
        <time>2022-05-02T11:24:44.000Z</time>
      </trkpt>
      <trkpt lat="41.154352314770221710205078125" lon="-1.471487693488597869873046875">
        <ele>737.79998779296875</ele>
        <time>2022-05-02T11:24:46.000Z</time>
      </trkpt>
      <trkpt lat="41.15430973470211029052734375" lon="-1.47144217975437641143798828125">
        <ele>737.79998779296875</ele>
        <time>2022-05-02T11:24:48.000Z</time>
      </trkpt>
      <trkpt lat="41.15428064949810504913330078125" lon="-1.47140152752399444580078125">
        <ele>737.4000244140625</ele>
        <time>2022-05-02T11:24:50.000Z</time>
      </trkpt>
      <trkpt lat="41.15425684489309787750244140625" lon="-1.4713624678552150726318359375">
        <ele>737.20001220703125</ele>
        <time>2022-05-02T11:24:52.000Z</time>
      </trkpt>
      <trkpt lat="41.15423086099326610565185546875" lon="-1.47131527774035930633544921875">
        <ele>737.5999755859375</ele>
        <time>2022-05-02T11:24:54.000Z</time>
      </trkpt>
      <trkpt lat="41.154200099408626556396484375" lon="-1.471269428730010986328125">
        <ele>737.79998779296875</ele>
        <time>2022-05-02T11:24:56.000Z</time>
      </trkpt>
      <trkpt lat="41.15417025983333587646484375" lon="-1.4712182991206645965576171875">
        <ele>737.4000244140625</ele>
        <time>2022-05-02T11:24:58.000Z</time>
      </trkpt>
      <trkpt lat="41.15415827371180057525634765625" lon="-1.47119365632534027099609375">
        <ele>737.20001220703125</ele>
        <time>2022-05-02T11:24:59.000Z</time>
      </trkpt>
      <trkpt lat="41.15414720959961414337158203125" lon="-1.47117085754871368408203125">
        <ele>736.79998779296875</ele>
        <time>2022-05-02T11:25:00.000Z</time>
      </trkpt>
      <trkpt lat="41.15412575192749500274658203125" lon="-1.47112987004220485687255859375">
        <ele>736.4000244140625</ele>
        <time>2022-05-02T11:25:02.000Z</time>
      </trkpt>
      <trkpt lat="41.15409155376255512237548828125" lon="-1.4710768125951290130615234375">
        <ele>735.5999755859375</ele>
        <time>2022-05-02T11:25:04.000Z</time>
      </trkpt>
      <trkpt lat="41.15407361648976802825927734375" lon="-1.4710442908108234405517578125">
        <ele>735.5999755859375</ele>
        <time>2022-05-02T11:25:05.000Z</time>
      </trkpt>
      <trkpt lat="41.15405559539794921875" lon="-1.47100984118878841400146484375">
        <ele>735.79998779296875</ele>
        <time>2022-05-02T11:25:06.000Z</time>
      </trkpt>
      <trkpt lat="41.1540245823562145233154296875" lon="-1.47093239240348339080810546875">
        <ele>736.5999755859375</ele>
        <time>2022-05-02T11:25:08.000Z</time>
      </trkpt>
      <trkpt lat="41.15400396287441253662109375" lon="-1.47083817981183528900146484375">
        <ele>737.5999755859375</ele>
        <time>2022-05-02T11:25:10.000Z</time>
      </trkpt>
      <trkpt lat="41.15399331785738468170166015625" lon="-1.4707479067146778106689453125">
        <ele>739.4000244140625</ele>
        <time>2022-05-02T11:25:12.000Z</time>
      </trkpt>
      <trkpt lat="41.1540019512176513671875" lon="-1.47066484205424785614013671875">
        <ele>741.79998779296875</ele>
        <time>2022-05-02T11:25:14.000Z</time>
      </trkpt>
      <trkpt lat="41.15400672890245914459228515625" lon="-1.47062175907194614410400390625">
        <ele>743.20001220703125</ele>
        <time>2022-05-02T11:25:15.000Z</time>
      </trkpt>
      <trkpt lat="41.15401200950145721435546875" lon="-1.470579765737056732177734375">
        <ele>744.4000244140625</ele>
        <time>2022-05-02T11:25:16.000Z</time>
      </trkpt>
      <trkpt lat="41.154008321464061737060546875" lon="-1.4704827032983303070068359375">
        <ele>745.79998779296875</ele>
        <time>2022-05-02T11:25:18.000Z</time>
      </trkpt>
      <trkpt lat="41.154000274837017059326171875" lon="-1.4703941904008388519287109375">
        <ele>746.5999755859375</ele>
        <time>2022-05-02T11:25:20.000Z</time>
      </trkpt>
      <trkpt lat="41.15399365313351154327392578125" lon="-1.470310874283313751220703125">
        <ele>747.5999755859375</ele>
        <time>2022-05-02T11:25:22.000Z</time>
      </trkpt>
      <trkpt lat="41.1539890430867671966552734375" lon="-1.47023451514542102813720703125">
        <ele>748.4000244140625</ele>
        <time>2022-05-02T11:25:24.000Z</time>
      </trkpt>
      <trkpt lat="41.15398342721164226531982421875" lon="-1.47016192786395549774169921875">
        <ele>748.4000244140625</ele>
        <time>2022-05-02T11:25:26.000Z</time>
      </trkpt>
      <trkpt lat="41.15397621877491474151611328125" lon="-1.47008598782122135162353515625">
        <ele>748.20001220703125</ele>
        <time>2022-05-02T11:25:28.000Z</time>
      </trkpt>
      <trkpt lat="41.15395409055054187774658203125" lon="-1.470014490187168121337890625">
        <ele>748.4000244140625</ele>
        <time>2022-05-02T11:25:30.000Z</time>
      </trkpt>
      <trkpt lat="41.15391955710947513580322265625" lon="-1.4699533022940158843994140625">
        <ele>747.79998779296875</ele>
        <time>2022-05-02T11:25:32.000Z</time>
      </trkpt>
      <trkpt lat="41.1538844369351863861083984375" lon="-1.46990125067532062530517578125">
        <ele>747</ele>
        <time>2022-05-02T11:25:34.000Z</time>
      </trkpt>
      <trkpt lat="41.1538639850914478302001953125" lon="-1.46987325511872768402099609375">
        <ele>746.79998779296875</ele>
        <time>2022-05-02T11:25:35.000Z</time>
      </trkpt>
      <trkpt lat="41.153844036161899566650390625" lon="-1.46984458900988101959228515625">
        <ele>746.5999755859375</ele>
        <time>2022-05-02T11:25:36.000Z</time>
      </trkpt>
      <trkpt lat="41.1538130231201648712158203125" lon="-1.4697863347828388214111328125">
        <ele>746.5999755859375</ele>
        <time>2022-05-02T11:25:38.000Z</time>
      </trkpt>
      <trkpt lat="41.15380371920764446258544921875" lon="-1.4697601832449436187744140625">
        <ele>746.5999755859375</ele>
        <time>2022-05-02T11:25:39.000Z</time>
      </trkpt>
      <trkpt lat="41.153792403638362884521484375" lon="-1.46972908638417720794677734375">
        <ele>746.79998779296875</ele>
        <time>2022-05-02T11:25:40.000Z</time>
      </trkpt>
      <trkpt lat="41.1537781544029712677001953125" lon="-1.46965951658785343170166015625">
        <ele>747.20001220703125</ele>
        <time>2022-05-02T11:25:42.000Z</time>
      </trkpt>
      <trkpt lat="41.15376256406307220458984375" lon="-1.4695917069911956787109375">
        <ele>747.4000244140625</ele>
        <time>2022-05-02T11:25:44.000Z</time>
      </trkpt>
      <trkpt lat="41.1537458002567291259765625" lon="-1.46952859126031398773193359375">
        <ele>747.5999755859375</ele>
        <time>2022-05-02T11:25:46.000Z</time>
      </trkpt>
      <trkpt lat="41.1537328921258449554443359375" lon="-1.46946606226265430450439453125">
        <ele>748</ele>
        <time>2022-05-02T11:25:48.000Z</time>
      </trkpt>
      <trkpt lat="41.1537295393645763397216796875" lon="-1.46940738894045352935791015625">
        <ele>748.20001220703125</ele>
        <time>2022-05-02T11:25:50.000Z</time>
      </trkpt>
      <trkpt lat="41.1537245102226734161376953125" lon="-1.4693789742887020111083984375">
        <ele>748</ele>
        <time>2022-05-02T11:25:51.000Z</time>
      </trkpt>
      <trkpt lat="41.15372157655656337738037109375" lon="-1.46934695541858673095703125">
        <ele>748</ele>
        <time>2022-05-02T11:25:52.000Z</time>
      </trkpt>
      <trkpt lat="41.15373465232551097869873046875" lon="-1.46928534843027591705322265625">
        <ele>748.4000244140625</ele>
        <time>2022-05-02T11:25:54.000Z</time>
      </trkpt>
      <trkpt lat="41.153746135532855987548828125" lon="-1.46922667510807514190673828125">
        <ele>748.5999755859375</ele>
        <time>2022-05-02T11:25:56.000Z</time>
      </trkpt>
      <trkpt lat="41.1537573672831058502197265625" lon="-1.46916867233812808990478515625">
        <ele>749</ele>
        <time>2022-05-02T11:25:58.000Z</time>
      </trkpt>
      <trkpt lat="41.1537650786340236663818359375" lon="-1.46914185024797916412353515625">
        <ele>749.4000244140625</ele>
        <time>2022-05-02T11:25:59.000Z</time>
      </trkpt>
      <trkpt lat="41.15377354435622692108154296875" lon="-1.46911620162427425384521484375">
        <ele>749.5999755859375</ele>
        <time>2022-05-02T11:26:00.000Z</time>
      </trkpt>
      <trkpt lat="41.1537815071642398834228515625" lon="-1.46909256465733051300048828125">
        <ele>750</ele>
        <time>2022-05-02T11:26:01.000Z</time>
      </trkpt>
      <trkpt lat="41.15379081107676029205322265625" lon="-1.46907026879489421844482421875">
        <ele>750.20001220703125</ele>
        <time>2022-05-02T11:26:02.000Z</time>
      </trkpt>
      <trkpt lat="41.153818555176258087158203125" lon="-1.46902198903262615203857421875">
        <ele>751.4000244140625</ele>
        <time>2022-05-02T11:26:04.000Z</time>
      </trkpt>
      <trkpt lat="41.15384847857058048248291015625" lon="-1.46896549500524997711181640625">
        <ele>752.5999755859375</ele>
        <time>2022-05-02T11:26:06.000Z</time>
      </trkpt>
      <trkpt lat="41.15385384298861026763916015625" lon="-1.4689286984503269195556640625">
        <ele>753</ele>
        <time>2022-05-02T11:26:07.000Z</time>
      </trkpt>
      <trkpt lat="41.15385049022734165191650390625" lon="-1.46888469345867633819580078125">
        <ele>753</ele>
        <time>2022-05-02T11:26:08.000Z</time>
      </trkpt>
      <trkpt lat="41.1538381688296794891357421875" lon="-1.46883993409574031829833984375">
        <ele>752.5999755859375</ele>
        <time>2022-05-02T11:26:09.000Z</time>
      </trkpt>
      <trkpt lat="41.15381713025271892547607421875" lon="-1.4687979407608509063720703125">
        <ele>752.5999755859375</ele>
        <time>2022-05-02T11:26:10.000Z</time>
      </trkpt>
      <trkpt lat="41.15376583300530910491943359375" lon="-1.46873163990676403045654296875">
        <ele>752</ele>
        <time>2022-05-02T11:26:12.000Z</time>
      </trkpt>
      <trkpt lat="41.15373750217258930206298828125" lon="-1.46870196796953678131103515625">
        <ele>751.79998779296875</ele>
        <time>2022-05-02T11:26:13.000Z</time>
      </trkpt>
      <trkpt lat="41.1537077464163303375244140625" lon="-1.46867715753614902496337890625">
        <ele>751.4000244140625</ele>
        <time>2022-05-02T11:26:14.000Z</time>
      </trkpt>
      <trkpt lat="41.15364278666675090789794921875" lon="-1.46864128299057483673095703125">
        <ele>751.20001220703125</ele>
        <time>2022-05-02T11:26:16.000Z</time>
      </trkpt>
      <trkpt lat="41.15357439033687114715576171875" lon="-1.46861345507204532623291015625">
        <ele>750.5999755859375</ele>
        <time>2022-05-02T11:26:18.000Z</time>
      </trkpt>
      <trkpt lat="41.1535052396357059478759765625" lon="-1.46859484724700450897216796875">
        <ele>750.4000244140625</ele>
        <time>2022-05-02T11:26:20.000Z</time>
      </trkpt>
      <trkpt lat="41.15344815887510776519775390625" lon="-1.468586213886737823486328125">
        <ele>750.5999755859375</ele>
        <time>2022-05-02T11:26:22.000Z</time>
      </trkpt>
      <trkpt lat="41.15342318080365657806396484375" lon="-1.46858780644834041595458984375">
        <ele>750.5999755859375</ele>
        <time>2022-05-02T11:26:23.000Z</time>
      </trkpt>
      <trkpt lat="41.153395436704158782958984375" lon="-1.468592919409275054931640625">
        <ele>750.4000244140625</ele>
        <time>2022-05-02T11:26:24.000Z</time>
      </trkpt>
      <trkpt lat="41.1533327400684356689453125" lon="-1.468609012663364410400390625">
        <ele>749.79998779296875</ele>
        <time>2022-05-02T11:26:26.000Z</time>
      </trkpt>
      <trkpt lat="41.15327431820333003997802734375" lon="-1.46864555776119232177734375">
        <ele>748.20001220703125</ele>
        <time>2022-05-02T11:26:28.000Z</time>
      </trkpt>
      <trkpt lat="41.1532152257859706878662109375" lon="-1.4686836116015911102294921875">
        <ele>746.5999755859375</ele>
        <time>2022-05-02T11:26:30.000Z</time>
      </trkpt>
      <trkpt lat="41.15315093658864498138427734375" lon="-1.468700878322124481201171875">
        <ele>745.4000244140625</ele>
        <time>2022-05-02T11:26:32.000Z</time>
      </trkpt>
      <trkpt lat="41.1530851386487483978271484375" lon="-1.46868285723030567169189453125">
        <ele>745</ele>
        <time>2022-05-02T11:26:34.000Z</time>
      </trkpt>
      <trkpt lat="41.1530529521405696868896484375" lon="-1.46866475231945514678955078125">
        <ele>744.79998779296875</ele>
        <time>2022-05-02T11:26:35.000Z</time>
      </trkpt>
      <trkpt lat="41.153019927442073822021484375" lon="-1.468638516962528228759765625">
        <ele>745</ele>
        <time>2022-05-02T11:26:36.000Z</time>
      </trkpt>
      <trkpt lat="41.1529885791242122650146484375" lon="-1.468604989349842071533203125">
        <ele>745.4000244140625</ele>
        <time>2022-05-02T11:26:37.000Z</time>
      </trkpt>
      <trkpt lat="41.1529547162353992462158203125" lon="-1.4685645885765552520751953125">
        <ele>746.20001220703125</ele>
        <time>2022-05-02T11:26:38.000Z</time>
      </trkpt>
      <trkpt lat="41.15291632711887359619140625" lon="-1.46851681172847747802734375">
        <ele>746.79998779296875</ele>
        <time>2022-05-02T11:26:39.000Z</time>
      </trkpt>
      <trkpt lat="41.152872405946254730224609375" lon="-1.46846375428140163421630859375">
        <ele>747.4000244140625</ele>
        <time>2022-05-02T11:26:40.000Z</time>
      </trkpt>
      <trkpt lat="41.15277106873691082000732421875" lon="-1.468361914157867431640625">
        <ele>747.20001220703125</ele>
        <time>2022-05-02T11:26:42.000Z</time>
      </trkpt>
      <trkpt lat="41.15271474234759807586669921875" lon="-1.4683176577091217041015625">
        <ele>746.4000244140625</ele>
        <time>2022-05-02T11:26:43.000Z</time>
      </trkpt>
      <trkpt lat="41.15265791304409503936767578125" lon="-1.46827683784067630767822265625">
        <ele>746.20001220703125</ele>
        <time>2022-05-02T11:26:44.000Z</time>
      </trkpt>
      <trkpt lat="41.15254257805645465850830078125" lon="-1.46821564994752407073974609375">
        <ele>745.79998779296875</ele>
        <time>2022-05-02T11:26:46.000Z</time>
      </trkpt>
      <trkpt lat="41.15242674015462398529052734375" lon="-1.4681672863662242889404296875">
        <ele>743.4000244140625</ele>
        <time>2022-05-02T11:26:48.000Z</time>
      </trkpt>
      <trkpt lat="41.152313835918903350830078125" lon="-1.4681200124323368072509765625">
        <ele>741.79998779296875</ele>
        <time>2022-05-02T11:26:50.000Z</time>
      </trkpt>
      <trkpt lat="41.15219347178936004638671875" lon="-1.46805605851113796234130859375">
        <ele>741.79998779296875</ele>
        <time>2022-05-02T11:26:52.000Z</time>
      </trkpt>
      <trkpt lat="41.15207989700138568878173828125" lon="-1.4679931104183197021484375">
        <ele>742</ele>
        <time>2022-05-02T11:26:54.000Z</time>
      </trkpt>
      <trkpt lat="41.15201652981340885162353515625" lon="-1.467976011335849761962890625">
        <ele>741.79998779296875</ele>
        <time>2022-05-02T11:26:55.000Z</time>
      </trkpt>
      <trkpt lat="41.1519519053399562835693359375" lon="-1.4679641090333461761474609375">
        <ele>741.5999755859375</ele>
        <time>2022-05-02T11:26:56.000Z</time>
      </trkpt>
      <trkpt lat="41.15189063362777233123779296875" lon="-1.467947177588939666748046875">
        <ele>741.4000244140625</ele>
        <time>2022-05-02T11:26:57.000Z</time>
      </trkpt>
      <trkpt lat="41.151832379400730133056640625" lon="-1.46792479790747165679931640625">
        <ele>741.20001220703125</ele>
        <time>2022-05-02T11:26:58.000Z</time>
      </trkpt>
      <trkpt lat="41.15177596919238567352294921875" lon="-1.46789847873151302337646484375">
        <ele>741.20001220703125</ele>
        <time>2022-05-02T11:26:59.000Z</time>
      </trkpt>
      <trkpt lat="41.15171930752694606781005859375" lon="-1.46787048317492008209228515625">
        <ele>741.4000244140625</ele>
        <time>2022-05-02T11:27:00.000Z</time>
      </trkpt>
      <trkpt lat="41.15160430781543254852294921875" lon="-1.46781952120363712310791015625">
        <ele>741.79998779296875</ele>
        <time>2022-05-02T11:27:02.000Z</time>
      </trkpt>
      <trkpt lat="41.15154898725450038909912109375" lon="-1.46779051981866359710693359375">
        <ele>742</ele>
        <time>2022-05-02T11:27:03.000Z</time>
      </trkpt>
      <trkpt lat="41.15149869583547115325927734375" lon="-1.46776068024337291717529296875">
        <ele>741.4000244140625</ele>
        <time>2022-05-02T11:27:04.000Z</time>
      </trkpt>
      <trkpt lat="41.1514149606227874755859375" lon="-1.46771491505205631256103515625">
        <ele>740.5999755859375</ele>
        <time>2022-05-02T11:27:06.000Z</time>
      </trkpt>
      <trkpt lat="41.15138000808656215667724609375" lon="-1.46770435385406017303466796875">
        <ele>740</ele>
        <time>2022-05-02T11:27:07.000Z</time>
      </trkpt>
      <trkpt lat="41.15135000087320804595947265625" lon="-1.46770100109279155731201171875">
        <ele>739.4000244140625</ele>
        <time>2022-05-02T11:27:08.000Z</time>
      </trkpt>
      <trkpt lat="41.15129618905484676361083984375" lon="-1.46770276129245758056640625">
        <ele>737.79998779296875</ele>
        <time>2022-05-02T11:27:10.000Z</time>
      </trkpt>
      <trkpt lat="41.151253022253513336181640625" lon="-1.46770686842501163482666015625">
        <ele>736.79998779296875</ele>
        <time>2022-05-02T11:27:12.000Z</time>
      </trkpt>
      <trkpt lat="41.15123667754232883453369140625" lon="-1.467706449329853057861328125">
        <ele>736.5999755859375</ele>
        <time>2022-05-02T11:27:13.000Z</time>
      </trkpt>
      <trkpt lat="41.1512189917266368865966796875" lon="-1.4677035994827747344970703125">
        <ele>736.4000244140625</ele>
        <time>2022-05-02T11:27:14.000Z</time>
      </trkpt>
      <trkpt lat="41.15118202753365039825439453125" lon="-1.467683650553226470947265625">
        <ele>736.20001220703125</ele>
        <time>2022-05-02T11:27:16.000Z</time>
      </trkpt>
      <trkpt lat="41.15113802254199981689453125" lon="-1.4676533080637454986572265625">
        <ele>736.20001220703125</ele>
        <time>2022-05-02T11:27:18.000Z</time>
      </trkpt>
      <trkpt lat="41.15108949132263660430908203125" lon="-1.4676137454807758331298828125">
        <ele>735.4000244140625</ele>
        <time>2022-05-02T11:27:20.000Z</time>
      </trkpt>
      <trkpt lat="41.1510221846401691436767578125" lon="-1.46757091395556926727294921875">
        <ele>734</ele>
        <time>2022-05-02T11:27:22.000Z</time>
      </trkpt>
      <trkpt lat="41.15098874084651470184326171875" lon="-1.46755096502602100372314453125">
        <ele>733.5999755859375</ele>
        <time>2022-05-02T11:27:23.000Z</time>
      </trkpt>
      <trkpt lat="41.15096091292798519134521484375" lon="-1.46753269247710704803466796875">
        <ele>733.4000244140625</ele>
        <time>2022-05-02T11:27:24.000Z</time>
      </trkpt>
      <trkpt lat="41.15092319436371326446533203125" lon="-1.4674947224557399749755859375">
        <ele>733.4000244140625</ele>
        <time>2022-05-02T11:27:26.000Z</time>
      </trkpt>
      <trkpt lat="41.15088162012398242950439453125" lon="-1.46745205856859683990478515625">
        <ele>733.4000244140625</ele>
        <time>2022-05-02T11:27:28.000Z</time>
      </trkpt>
      <trkpt lat="41.15083183161914348602294921875" lon="-1.46739908494055271148681640625">
        <ele>733.4000244140625</ele>
        <time>2022-05-02T11:27:30.000Z</time>
      </trkpt>
      <trkpt lat="41.15079813636839389801025390625" lon="-1.46736673079431056976318359375">
        <ele>732.5999755859375</ele>
        <time>2022-05-02T11:27:31.000Z</time>
      </trkpt>
      <trkpt lat="41.15075874142348766326904296875" lon="-1.467330269515514373779296875">
        <ele>731.79998779296875</ele>
        <time>2022-05-02T11:27:32.000Z</time>
      </trkpt>
      <trkpt lat="41.1507177539169788360595703125" lon="-1.4672851748764514923095703125">
        <ele>731.20001220703125</ele>
        <time>2022-05-02T11:27:33.000Z</time>
      </trkpt>
      <trkpt lat="41.15067793987691402435302734375" lon="-1.46723966114223003387451171875">
        <ele>730.79998779296875</ele>
        <time>2022-05-02T11:27:34.000Z</time>
      </trkpt>
      <trkpt lat="41.150644160807132720947265625" lon="-1.46719037555158138275146484375">
        <ele>730.4000244140625</ele>
        <time>2022-05-02T11:27:35.000Z</time>
      </trkpt>
      <trkpt lat="41.1506102979183197021484375" lon="-1.4671410061419010162353515625">
        <ele>730</ele>
        <time>2022-05-02T11:27:36.000Z</time>
      </trkpt>
      <trkpt lat="41.1505494453012943267822265625" lon="-1.46703363396227359771728515625">
        <ele>729.20001220703125</ele>
        <time>2022-05-02T11:27:38.000Z</time>
      </trkpt>
      <trkpt lat="41.1504877544939517974853515625" lon="-1.4669374935328960418701171875">
        <ele>728.5999755859375</ele>
        <time>2022-05-02T11:27:40.000Z</time>
      </trkpt>
      <trkpt lat="41.1504528857767581939697265625" lon="-1.466903798282146453857421875">
        <ele>728.20001220703125</ele>
        <time>2022-05-02T11:27:41.000Z</time>
      </trkpt>
      <trkpt lat="41.1504213698208332061767578125" lon="-1.4668939076364040374755859375">
        <ele>728</ele>
        <time>2022-05-02T11:27:42.000Z</time>
      </trkpt>
      <trkpt lat="41.150386333465576171875" lon="-1.46689466200768947601318359375">
        <ele>727.79998779296875</ele>
        <time>2022-05-02T11:27:44.000Z</time>
      </trkpt>
      <trkpt lat="41.15036663599312305450439453125" lon="-1.466908492147922515869140625">
        <ele>727.5999755859375</ele>
        <time>2022-05-02T11:27:45.000Z</time>
      </trkpt>
      <trkpt lat="41.1503442563116550445556640625" lon="-1.46693254821002483367919921875">
        <ele>727.20001220703125</ele>
        <time>2022-05-02T11:27:46.000Z</time>
      </trkpt>
      <trkpt lat="41.15029706619679927825927734375" lon="-1.4669958315789699554443359375">
        <ele>726.5999755859375</ele>
        <time>2022-05-02T11:27:48.000Z</time>
      </trkpt>
      <trkpt lat="41.15025331266224384307861328125" lon="-1.46708325482904911041259765625">
        <ele>726</ele>
        <time>2022-05-02T11:27:50.000Z</time>
      </trkpt>
      <trkpt lat="41.15021668374538421630859375" lon="-1.46715986542403697967529296875">
        <ele>725.4000244140625</ele>
        <time>2022-05-02T11:27:52.000Z</time>
      </trkpt>
      <trkpt lat="41.1501994170248508453369140625" lon="-1.467196159064769744873046875">
        <ele>725.20001220703125</ele>
        <time>2022-05-02T11:27:53.000Z</time>
      </trkpt>
      <trkpt lat="41.1501786299049854278564453125" lon="-1.467229686677455902099609375">
        <ele>725</ele>
        <time>2022-05-02T11:27:54.000Z</time>
      </trkpt>
      <trkpt lat="41.15015759132802486419677734375" lon="-1.46726396866142749786376953125">
        <ele>724.79998779296875</ele>
        <time>2022-05-02T11:27:55.000Z</time>
      </trkpt>
      <trkpt lat="41.15013797767460346221923828125" lon="-1.467306800186634063720703125">
        <ele>724.5999755859375</ele>
        <time>2022-05-02T11:27:56.000Z</time>
      </trkpt>
      <trkpt lat="41.15010025911033153533935546875" lon="-1.46735541522502899169921875">
        <ele>724.4000244140625</ele>
        <time>2022-05-02T11:27:58.000Z</time>
      </trkpt>
      <trkpt lat="41.15008316002786159515380859375" lon="-1.46734544076025485992431640625">
        <ele>724.5999755859375</ele>
        <time>2022-05-02T11:27:59.000Z</time>
      </trkpt>
      <trkpt lat="41.15006824024021625518798828125" lon="-1.46732599474489688873291015625">
        <ele>724.5999755859375</ele>
        <time>2022-05-02T11:28:00.000Z</time>
      </trkpt>
      <trkpt lat="41.15006639622151851654052734375" lon="-1.46730923093855381011962890625">
        <ele>724.5999755859375</ele>
        <time>2022-05-02T11:28:01.000Z</time>
      </trkpt>
      <trkpt lat="41.15006983280181884765625" lon="-1.46728894673287868499755859375">
        <ele>724.5999755859375</ele>
        <time>2022-05-02T11:28:02.000Z</time>
      </trkpt>
      <trkpt lat="41.15007930435240268707275390625" lon="-1.46722524426877498626708984375">
        <ele>724.5999755859375</ele>
        <time>2022-05-02T11:28:04.000Z</time>
      </trkpt>
      <trkpt lat="41.1500899493694305419921875" lon="-1.4671980030834674835205078125">
        <ele>724.79998779296875</ele>
        <time>2022-05-02T11:28:05.000Z</time>
      </trkpt>
      <trkpt lat="41.150102354586124420166015625" lon="-1.46716824732720851898193359375">
        <ele>724.79998779296875</ele>
        <time>2022-05-02T11:28:06.000Z</time>
      </trkpt>
      <trkpt lat="41.150128841400146484375" lon="-1.46711125038564205169677734375">
        <ele>725.20001220703125</ele>
        <time>2022-05-02T11:28:08.000Z</time>
      </trkpt>
      <trkpt lat="41.15014669485390186309814453125" lon="-1.46705727092921733856201171875">
        <ele>725.4000244140625</ele>
        <time>2022-05-02T11:28:10.000Z</time>
      </trkpt>
      <trkpt lat="41.15016438066959381103515625" lon="-1.4669908024370670318603515625">
        <ele>725.79998779296875</ele>
        <time>2022-05-02T11:28:12.000Z</time>
      </trkpt>
      <trkpt lat="41.15018189884722232818603515625" lon="-1.4669274352490901947021484375">
        <ele>726</ele>
        <time>2022-05-02T11:28:14.000Z</time>
      </trkpt>
      <trkpt lat="41.1502000875771045684814453125" lon="-1.46688091568648815155029296875">
        <ele>726.5999755859375</ele>
        <time>2022-05-02T11:28:16.000Z</time>
      </trkpt>
      <trkpt lat="41.15020352415740489959716796875" lon="-1.46685183048248291015625">
        <ele>726.79998779296875</ele>
        <time>2022-05-02T11:28:17.000Z</time>
      </trkpt>
      <trkpt lat="41.15020251832902431488037109375" lon="-1.46681570447981357574462890625">
        <ele>727</ele>
        <time>2022-05-02T11:28:18.000Z</time>
      </trkpt>
      <trkpt lat="41.1501850001513957977294921875" lon="-1.46673054434359073638916015625">
        <ele>727.5999755859375</ele>
        <time>2022-05-02T11:28:20.000Z</time>
      </trkpt>
      <trkpt lat="41.15014987997710704803466796875" lon="-1.46662191487848758697509765625">
        <ele>728</ele>
        <time>2022-05-02T11:28:22.000Z</time>
      </trkpt>
      <trkpt lat="41.15012657828629016876220703125" lon="-1.46655879914760589599609375">
        <ele>728.4000244140625</ele>
        <time>2022-05-02T11:28:23.000Z</time>
      </trkpt>
      <trkpt lat="41.15010461769998073577880859375" lon="-1.46648914553225040435791015625">
        <ele>728.5999755859375</ele>
        <time>2022-05-02T11:28:24.000Z</time>
      </trkpt>
      <trkpt lat="41.1500448547303676605224609375" lon="-1.466327793896198272705078125">
        <ele>729.20001220703125</ele>
        <time>2022-05-02T11:28:26.000Z</time>
      </trkpt>
      <trkpt lat="41.15000872872769832611083984375" lon="-1.46624992601573467254638671875">
        <ele>729.4000244140625</ele>
        <time>2022-05-02T11:28:27.000Z</time>
      </trkpt>
      <trkpt lat="41.1499719321727752685546875" lon="-1.46617792546749114990234375">
        <ele>729.79998779296875</ele>
        <time>2022-05-02T11:28:28.000Z</time>
      </trkpt>
      <trkpt lat="41.14993697963654994964599609375" lon="-1.4661093614995479583740234375">
        <ele>730</ele>
        <time>2022-05-02T11:28:29.000Z</time>
      </trkpt>
      <trkpt lat="41.14989557303488254547119140625" lon="-1.4660476706922054290771484375">
        <ele>730.20001220703125</ele>
        <time>2022-05-02T11:28:30.000Z</time>
      </trkpt>
      <trkpt lat="41.14982382394373416900634765625" lon="-1.4659377001225948333740234375">
        <ele>730</ele>
        <time>2022-05-02T11:28:32.000Z</time>
      </trkpt>
      <trkpt lat="41.14979968406260013580322265625" lon="-1.4658780209720134735107421875">
        <ele>730</ele>
        <time>2022-05-02T11:28:33.000Z</time>
      </trkpt>
      <trkpt lat="41.149775125086307525634765625" lon="-1.46582798101007938385009765625">
        <ele>729.5999755859375</ele>
        <time>2022-05-02T11:28:34.000Z</time>
      </trkpt>
      <trkpt lat="41.149718128144741058349609375" lon="-1.4657469280064105987548828125">
        <ele>728.5999755859375</ele>
        <time>2022-05-02T11:28:36.000Z</time>
      </trkpt>
      <trkpt lat="41.14968887530267238616943359375" lon="-1.46570183336734771728515625">
        <ele>728.5999755859375</ele>
        <time>2022-05-02T11:28:37.000Z</time>
      </trkpt>
      <trkpt lat="41.149655096232891082763671875" lon="-1.46565967239439487457275390625">
        <ele>728.5999755859375</ele>
        <time>2022-05-02T11:28:38.000Z</time>
      </trkpt>
      <trkpt lat="41.14959147758781909942626953125" lon="-1.465560682117938995361328125">
        <ele>728.5999755859375</ele>
        <time>2022-05-02T11:28:40.000Z</time>
      </trkpt>
      <trkpt lat="41.1495637334883213043212890625" lon="-1.465512402355670928955078125">
        <ele>728.5999755859375</ele>
        <time>2022-05-02T11:28:41.000Z</time>
      </trkpt>
      <trkpt lat="41.1495375819504261016845703125" lon="-1.4654693193733692169189453125">
        <ele>728.5999755859375</ele>
        <time>2022-05-02T11:28:42.000Z</time>
      </trkpt>
      <trkpt lat="41.149488128721714019775390625" lon="-1.46537368185818195343017578125">
        <ele>728.79998779296875</ele>
        <time>2022-05-02T11:28:44.000Z</time>
      </trkpt>
      <trkpt lat="41.149445883929729461669921875" lon="-1.4652782119810581207275390625">
        <ele>729</ele>
        <time>2022-05-02T11:28:46.000Z</time>
      </trkpt>
      <trkpt lat="41.14942283369600772857666015625" lon="-1.4652326144278049468994140625">
        <ele>729.20001220703125</ele>
        <time>2022-05-02T11:28:47.000Z</time>
      </trkpt>
      <trkpt lat="41.14939265884459018707275390625" lon="-1.4651834964752197265625">
        <ele>729.20001220703125</ele>
        <time>2022-05-02T11:28:48.000Z</time>
      </trkpt>
      <trkpt lat="41.1493340693414211273193359375" lon="-1.4650887809693813323974609375">
        <ele>729.20001220703125</ele>
        <time>2022-05-02T11:28:50.000Z</time>
      </trkpt>
      <trkpt lat="41.14928503520786762237548828125" lon="-1.46500588394701480865478515625">
        <ele>729</ele>
        <time>2022-05-02T11:28:52.000Z</time>
      </trkpt>
      <trkpt lat="41.14925444126129150390625" lon="-1.46497185342013835906982421875">
        <ele>728.79998779296875</ele>
        <time>2022-05-02T11:28:53.000Z</time>
      </trkpt>
      <trkpt lat="41.1492274515330791473388671875" lon="-1.46493497304618358612060546875">
        <ele>728.5999755859375</ele>
        <time>2022-05-02T11:28:54.000Z</time>
      </trkpt>
      <trkpt lat="41.14917120896279811859130859375" lon="-1.464860625565052032470703125">
        <ele>728.4000244140625</ele>
        <time>2022-05-02T11:28:56.000Z</time>
      </trkpt>
      <trkpt lat="41.14912980236113071441650390625" lon="-1.46478694863617420196533203125">
        <ele>728.4000244140625</ele>
        <time>2022-05-02T11:28:58.000Z</time>
      </trkpt>
      <trkpt lat="41.14911220036447048187255859375" lon="-1.4647543430328369140625">
        <ele>728.4000244140625</ele>
        <time>2022-05-02T11:28:59.000Z</time>
      </trkpt>
      <trkpt lat="41.14909174852073192596435546875" lon="-1.46472626365721225738525390625">
        <ele>728.20001220703125</ele>
        <time>2022-05-02T11:29:00.000Z</time>
      </trkpt>
      <trkpt lat="41.149050928652286529541015625" lon="-1.46468569524586200714111328125">
        <ele>728.20001220703125</ele>
        <time>2022-05-02T11:29:02.000Z</time>
      </trkpt>
      <trkpt lat="41.14900390617549419403076171875" lon="-1.46465552039444446563720703125">
        <ele>728.20001220703125</ele>
        <time>2022-05-02T11:29:04.000Z</time>
      </trkpt>
      <trkpt lat="41.14895596168935298919677734375" lon="-1.46462534554302692413330078125">
        <ele>728</ele>
        <time>2022-05-02T11:29:06.000Z</time>
      </trkpt>
      <trkpt lat="41.1489049158990383148193359375" lon="-1.46460673771798610687255859375">
        <ele>727.79998779296875</ele>
        <time>2022-05-02T11:29:08.000Z</time>
      </trkpt>
      <trkpt lat="41.14885269664227962493896484375" lon="-1.46458829753100872039794921875">
        <ele>727.4000244140625</ele>
        <time>2022-05-02T11:29:10.000Z</time>
      </trkpt>
      <trkpt lat="41.1487986333668231964111328125" lon="-1.46456164307892322540283203125">
        <ele>727.20001220703125</ele>
        <time>2022-05-02T11:29:12.000Z</time>
      </trkpt>
      <trkpt lat="41.14874146878719329833984375" lon="-1.4645392633974552154541015625">
        <ele>727.20001220703125</ele>
        <time>2022-05-02T11:29:14.000Z</time>
      </trkpt>
      <trkpt lat="41.14868757314980030059814453125" lon="-1.4645111002027988433837890625">
        <ele>727</ele>
        <time>2022-05-02T11:29:16.000Z</time>
      </trkpt>
      <trkpt lat="41.14866058342158794403076171875" lon="-1.46449911408126354217529296875">
        <ele>726.5999755859375</ele>
        <time>2022-05-02T11:29:17.000Z</time>
      </trkpt>
      <trkpt lat="41.1486388742923736572265625" lon="-1.46449483931064605712890625">
        <ele>726.4000244140625</ele>
        <time>2022-05-02T11:29:18.000Z</time>
      </trkpt>
      <trkpt lat="41.148591600358486175537109375" lon="-1.46447128616273403167724609375">
        <ele>725.79998779296875</ele>
        <time>2022-05-02T11:29:20.000Z</time>
      </trkpt>
      <trkpt lat="41.14853971637785434722900390625" lon="-1.4644490741193294525146484375">
        <ele>725.20001220703125</ele>
        <time>2022-05-02T11:29:22.000Z</time>
      </trkpt>
      <trkpt lat="41.14848590455949306488037109375" lon="-1.46444479934871196746826171875">
        <ele>724.5999755859375</ele>
        <time>2022-05-02T11:29:24.000Z</time>
      </trkpt>
      <trkpt lat="41.148421950638294219970703125" lon="-1.46444144658744335174560546875">
        <ele>724</ele>
        <time>2022-05-02T11:29:26.000Z</time>
      </trkpt>
      <trkpt lat="41.14835833199322223663330078125" lon="-1.46439651958644390106201171875">
        <ele>723.5999755859375</ele>
        <time>2022-05-02T11:29:28.000Z</time>
      </trkpt>
      <trkpt lat="41.14831960760056972503662109375" lon="-1.4643077552318572998046875">
        <ele>723.79998779296875</ele>
        <time>2022-05-02T11:29:30.000Z</time>
      </trkpt>
      <trkpt lat="41.1482955515384674072265625" lon="-1.46420759148895740509033203125">
        <ele>724.20001220703125</ele>
        <time>2022-05-02T11:29:32.000Z</time>
      </trkpt>
      <trkpt lat="41.148273758590221405029296875" lon="-1.46410969085991382598876953125">
        <ele>724.79998779296875</ele>
        <time>2022-05-02T11:29:34.000Z</time>
      </trkpt>
      <trkpt lat="41.14824702031910419464111328125" lon="-1.46400977857410907745361328125">
        <ele>725.20001220703125</ele>
        <time>2022-05-02T11:29:36.000Z</time>
      </trkpt>
      <trkpt lat="41.1482135765254497528076171875" lon="-1.46390668116509914398193359375">
        <ele>725.5999755859375</ele>
        <time>2022-05-02T11:29:38.000Z</time>
      </trkpt>
      <trkpt lat="41.14817812107503414154052734375" lon="-1.46379922516644001007080078125">
        <ele>726.79998779296875</ele>
        <time>2022-05-02T11:29:40.000Z</time>
      </trkpt>
      <trkpt lat="41.148159094154834747314453125" lon="-1.46374591626226902008056640625">
        <ele>727.4000244140625</ele>
        <time>2022-05-02T11:29:41.000Z</time>
      </trkpt>
      <trkpt lat="41.14813755266368389129638671875" lon="-1.4636936970055103302001953125">
        <ele>728</ele>
        <time>2022-05-02T11:29:42.000Z</time>
      </trkpt>
      <trkpt lat="41.14809161983430385589599609375" lon="-1.4635924436151981353759765625">
        <ele>728.5999755859375</ele>
        <time>2022-05-02T11:29:44.000Z</time>
      </trkpt>
      <trkpt lat="41.14806823432445526123046875" lon="-1.4635441638529300689697265625">
        <ele>729</ele>
        <time>2022-05-02T11:29:45.000Z</time>
      </trkpt>
      <trkpt lat="41.1480434238910675048828125" lon="-1.46349730901420116424560546875">
        <ele>729.4000244140625</ele>
        <time>2022-05-02T11:29:46.000Z</time>
      </trkpt>
      <trkpt lat="41.147996149957180023193359375" lon="-1.4634120650589466094970703125">
        <ele>730.5999755859375</ele>
        <time>2022-05-02T11:29:48.000Z</time>
      </trkpt>
      <trkpt lat="41.1479523964226245880126953125" lon="-1.463323719799518585205078125">
        <ele>732</ele>
        <time>2022-05-02T11:29:50.000Z</time>
      </trkpt>
      <trkpt lat="41.14792934618890285491943359375" lon="-1.463280133903026580810546875">
        <ele>732.4000244140625</ele>
        <time>2022-05-02T11:29:51.000Z</time>
      </trkpt>
      <trkpt lat="41.1479041166603565216064453125" lon="-1.4632373861968517303466796875">
        <ele>732.79998779296875</ele>
        <time>2022-05-02T11:29:52.000Z</time>
      </trkpt>
      <trkpt lat="41.14787620492279529571533203125" lon="-1.4631958119571208953857421875">
        <ele>733.20001220703125</ele>
        <time>2022-05-02T11:29:53.000Z</time>
      </trkpt>
      <trkpt lat="41.147845946252346038818359375" lon="-1.46315465681254863739013671875">
        <ele>733.4000244140625</ele>
        <time>2022-05-02T11:29:54.000Z</time>
      </trkpt>
      <trkpt lat="41.1477840878069400787353515625" lon="-1.46307167597115039825439453125">
        <ele>733.4000244140625</ele>
        <time>2022-05-02T11:29:56.000Z</time>
      </trkpt>
      <trkpt lat="41.147723235189914703369140625" lon="-1.46298618055880069732666015625">
        <ele>733.79998779296875</ele>
        <time>2022-05-02T11:29:58.000Z</time>
      </trkpt>
      <trkpt lat="41.14765944890677928924560546875" lon="-1.46290160715579986572265625">
        <ele>733</ele>
        <time>2022-05-02T11:30:00.000Z</time>
      </trkpt>
      <trkpt lat="41.14762608893215656280517578125" lon="-1.4628581888973712921142578125">
        <ele>732.4000244140625</ele>
        <time>2022-05-02T11:30:01.000Z</time>
      </trkpt>
      <trkpt lat="41.14759256131947040557861328125" lon="-1.46281653083860874176025390625">
        <ele>732</ele>
        <time>2022-05-02T11:30:02.000Z</time>
      </trkpt>
      <trkpt lat="41.147524751722812652587890625" lon="-1.4627247489988803863525390625">
        <ele>732</ele>
        <time>2022-05-02T11:30:04.000Z</time>
      </trkpt>
      <trkpt lat="41.1474625580012798309326171875" lon="-1.46262793801724910736083984375">
        <ele>732.5999755859375</ele>
        <time>2022-05-02T11:30:06.000Z</time>
      </trkpt>
      <trkpt lat="41.1474022082984447479248046875" lon="-1.46252819336950778961181640625">
        <ele>733.20001220703125</ele>
        <time>2022-05-02T11:30:08.000Z</time>
      </trkpt>
      <trkpt lat="41.14737228490412235260009765625" lon="-1.46247647702693939208984375">
        <ele>733.5999755859375</ele>
        <time>2022-05-02T11:30:09.000Z</time>
      </trkpt>
      <trkpt lat="41.1473411880433559417724609375" lon="-1.46242610178887844085693359375">
        <ele>733.79998779296875</ele>
        <time>2022-05-02T11:30:10.000Z</time>
      </trkpt>
      <trkpt lat="41.14728159271180629730224609375" lon="-1.4623282849788665771484375">
        <ele>734.4000244140625</ele>
        <time>2022-05-02T11:30:12.000Z</time>
      </trkpt>
      <trkpt lat="41.14722090773284435272216796875" lon="-1.4622322283685207366943359375">
        <ele>733.79998779296875</ele>
        <time>2022-05-02T11:30:14.000Z</time>
      </trkpt>
      <trkpt lat="41.147160641849040985107421875" lon="-1.46213692612946033477783203125">
        <ele>733.4000244140625</ele>
        <time>2022-05-02T11:30:16.000Z</time>
      </trkpt>
      <trkpt lat="41.14710289053618907928466796875" lon="-1.46204623393714427947998046875">
        <ele>733.5999755859375</ele>
        <time>2022-05-02T11:30:18.000Z</time>
      </trkpt>
      <trkpt lat="41.1470448039472103118896484375" lon="-1.46196073852479457855224609375">
        <ele>733.5999755859375</ele>
        <time>2022-05-02T11:30:20.000Z</time>
      </trkpt>
      <trkpt lat="41.14698722027242183685302734375" lon="-1.46187541075050830841064453125">
        <ele>733.4000244140625</ele>
        <time>2022-05-02T11:30:22.000Z</time>
      </trkpt>
      <trkpt lat="41.1469304747879505157470703125" lon="-1.46179008297622203826904296875">
        <ele>733.20001220703125</ele>
        <time>2022-05-02T11:30:24.000Z</time>
      </trkpt>
      <trkpt lat="41.14690013229846954345703125" lon="-1.46175052039325237274169921875">
        <ele>733</ele>
        <time>2022-05-02T11:30:25.000Z</time>
      </trkpt>
      <trkpt lat="41.1468691192567348480224609375" lon="-1.46171464584767818450927734375">
        <ele>732.79998779296875</ele>
        <time>2022-05-02T11:30:26.000Z</time>
      </trkpt>
      <trkpt lat="41.14681052975356578826904296875" lon="-1.46164624951779842376708984375">
        <ele>732.79998779296875</ele>
        <time>2022-05-02T11:30:28.000Z</time>
      </trkpt>
      <trkpt lat="41.14674783311784267425537109375" lon="-1.46157349459826946258544921875">
        <ele>733.4000244140625</ele>
        <time>2022-05-02T11:30:30.000Z</time>
      </trkpt>
      <trkpt lat="41.14671640098094940185546875" lon="-1.46153644658625125885009765625">
        <ele>733.79998779296875</ele>
        <time>2022-05-02T11:30:31.000Z</time>
      </trkpt>
      <trkpt lat="41.14668446592986583709716796875" lon="-1.46149788983166217803955078125">
        <ele>734</ele>
        <time>2022-05-02T11:30:32.000Z</time>
      </trkpt>
      <trkpt lat="41.14661338739097118377685546875" lon="-1.4614245481789112091064453125">
        <ele>734.5999755859375</ele>
        <time>2022-05-02T11:30:34.000Z</time>
      </trkpt>
      <trkpt lat="41.146536357700824737548828125" lon="-1.46134802140295505523681640625">
        <ele>735.4000244140625</ele>
        <time>2022-05-02T11:30:36.000Z</time>
      </trkpt>
      <trkpt lat="41.1464959569275379180908203125" lon="-1.4613065309822559356689453125">
        <ele>736</ele>
        <time>2022-05-02T11:30:37.000Z</time>
      </trkpt>
      <trkpt lat="41.14645714871585369110107421875" lon="-1.46126705221831798553466796875">
        <ele>736.5999755859375</ele>
        <time>2022-05-02T11:30:38.000Z</time>
      </trkpt>
      <trkpt lat="41.146376095712184906005859375" lon="-1.4611875079572200775146484375">
        <ele>737.4000244140625</ele>
        <time>2022-05-02T11:30:40.000Z</time>
      </trkpt>
      <trkpt lat="41.146290935575962066650390625" lon="-1.4611010067164897918701171875">
        <ele>738</ele>
        <time>2022-05-02T11:30:42.000Z</time>
      </trkpt>
      <trkpt lat="41.1462049372494220733642578125" lon="-1.461015008389949798583984375">
        <ele>738.5999755859375</ele>
        <time>2022-05-02T11:30:44.000Z</time>
      </trkpt>
      <trkpt lat="41.14616344682872295379638671875" lon="-1.46097318269312381744384765625">
        <ele>739</ele>
        <time>2022-05-02T11:30:45.000Z</time>
      </trkpt>
      <trkpt lat="41.14612095057964324951171875" lon="-1.46092951297760009765625">
        <ele>739.20001220703125</ele>
        <time>2022-05-02T11:30:46.000Z</time>
      </trkpt>
      <trkpt lat="41.146039478480815887451171875" lon="-1.46084661595523357391357421875">
        <ele>739.79998779296875</ele>
        <time>2022-05-02T11:30:48.000Z</time>
      </trkpt>
      <trkpt lat="41.14595943130552768707275390625" lon="-1.4607623778283596038818359375">
        <ele>740</ele>
        <time>2022-05-02T11:30:50.000Z</time>
      </trkpt>
      <trkpt lat="41.145877540111541748046875" lon="-1.46067528985440731048583984375">
        <ele>739.79998779296875</ele>
        <time>2022-05-02T11:30:52.000Z</time>
      </trkpt>
      <trkpt lat="41.1457975767552852630615234375" lon="-1.46058828569948673248291015625">
        <ele>738.4000244140625</ele>
        <time>2022-05-02T11:30:54.000Z</time>
      </trkpt>
      <trkpt lat="41.1457171104848384857177734375" lon="-1.46048870868980884552001953125">
        <ele>737.4000244140625</ele>
        <time>2022-05-02T11:30:56.000Z</time>
      </trkpt>
      <trkpt lat="41.1456309445202350616455078125" lon="-1.4603858627378940582275390625">
        <ele>737.4000244140625</ele>
        <time>2022-05-02T11:30:58.000Z</time>
      </trkpt>
      <trkpt lat="41.14554519765079021453857421875" lon="-1.460274718701839447021484375">
        <ele>738.20001220703125</ele>
        <time>2022-05-02T11:31:00.000Z</time>
      </trkpt>
      <trkpt lat="41.14550362341105937957763671875" lon="-1.46022015251219272613525390625">
        <ele>738.20001220703125</ele>
        <time>2022-05-02T11:31:01.000Z</time>
      </trkpt>
      <trkpt lat="41.14546171389520168304443359375" lon="-1.46016801707446575164794921875">
        <ele>738.4000244140625</ele>
        <time>2022-05-02T11:31:02.000Z</time>
      </trkpt>
      <trkpt lat="41.14538334310054779052734375" lon="-1.4600670151412487030029296875">
        <ele>738.79998779296875</ele>
        <time>2022-05-02T11:31:04.000Z</time>
      </trkpt>
      <trkpt lat="41.145307235419750213623046875" lon="-1.45996232517063617706298828125">
        <ele>740.4000244140625</ele>
        <time>2022-05-02T11:31:06.000Z</time>
      </trkpt>
      <trkpt lat="41.1452319659292697906494140625" lon="-1.45985998213291168212890625">
        <ele>741.20001220703125</ele>
        <time>2022-05-02T11:31:08.000Z</time>
      </trkpt>
      <trkpt lat="41.14519332535564899444580078125" lon="-1.459809355437755584716796875">
        <ele>741.20001220703125</ele>
        <time>2022-05-02T11:31:09.000Z</time>
      </trkpt>
      <trkpt lat="41.14515460096299648284912109375" lon="-1.45975939929485321044921875">
        <ele>741</ele>
        <time>2022-05-02T11:31:10.000Z</time>
      </trkpt>
      <trkpt lat="41.14507623016834259033203125" lon="-1.45965169183909893035888671875">
        <ele>740.79998779296875</ele>
        <time>2022-05-02T11:31:12.000Z</time>
      </trkpt>
      <trkpt lat="41.14499551244080066680908203125" lon="-1.4595423080027103424072265625">
        <ele>740</ele>
        <time>2022-05-02T11:31:14.000Z</time>
      </trkpt>
      <trkpt lat="41.144915632903575897216796875" lon="-1.45943309180438518524169921875">
        <ele>738.4000244140625</ele>
        <time>2022-05-02T11:31:16.000Z</time>
      </trkpt>
      <trkpt lat="41.14487514831125736236572265625" lon="-1.459374837577342987060546875">
        <ele>738.20001220703125</ele>
        <time>2022-05-02T11:31:17.000Z</time>
      </trkpt>
      <trkpt lat="41.14483416080474853515625" lon="-1.45931792445480823516845703125">
        <ele>738.20001220703125</ele>
        <time>2022-05-02T11:31:18.000Z</time>
      </trkpt>
      <trkpt lat="41.14475495181977748870849609375" lon="-1.4592043496668338775634765625">
        <ele>737.79998779296875</ele>
        <time>2022-05-02T11:31:20.000Z</time>
      </trkpt>
      <trkpt lat="41.14467482082545757293701171875" lon="-1.45908775739371776580810546875">
        <ele>737.79998779296875</ele>
        <time>2022-05-02T11:31:22.000Z</time>
      </trkpt>
      <trkpt lat="41.14459603093564510345458984375" lon="-1.45896789617836475372314453125">
        <ele>738.79998779296875</ele>
        <time>2022-05-02T11:31:24.000Z</time>
      </trkpt>
      <trkpt lat="41.14452159963548183441162109375" lon="-1.4588452689349651336669921875">
        <ele>740.79998779296875</ele>
        <time>2022-05-02T11:31:26.000Z</time>
      </trkpt>
      <trkpt lat="41.1444430612027645111083984375" lon="-1.45873202942311763763427734375">
        <ele>742.79998779296875</ele>
        <time>2022-05-02T11:31:28.000Z</time>
      </trkpt>
      <trkpt lat="41.14436016418039798736572265625" lon="-1.4586206339299678802490234375">
        <ele>743.79998779296875</ele>
        <time>2022-05-02T11:31:30.000Z</time>
      </trkpt>
      <trkpt lat="41.144268214702606201171875" lon="-1.45851619541645050048828125">
        <ele>744.20001220703125</ele>
        <time>2022-05-02T11:31:32.000Z</time>
      </trkpt>
      <trkpt lat="41.14421834237873554229736328125" lon="-1.45846934057772159576416015625">
        <ele>744</ele>
        <time>2022-05-02T11:31:33.000Z</time>
      </trkpt>
      <trkpt lat="41.14416603930294513702392578125" lon="-1.45842491649091243743896484375">
        <ele>743.4000244140625</ele>
        <time>2022-05-02T11:31:34.000Z</time>
      </trkpt>
      <trkpt lat="41.14405556581914424896240234375" lon="-1.45833740942180156707763671875">
        <ele>741.5999755859375</ele>
        <time>2022-05-02T11:31:36.000Z</time>
      </trkpt>
      <trkpt lat="41.143948026001453399658203125" lon="-1.4582602120935916900634765625">
        <ele>741.20001220703125</ele>
        <time>2022-05-02T11:31:38.000Z</time>
      </trkpt>
      <trkpt lat="41.1438341997563838958740234375" lon="-1.4581911452114582061767578125">
        <ele>740.20001220703125</ele>
        <time>2022-05-02T11:31:40.000Z</time>
      </trkpt>
      <trkpt lat="41.143778376281261444091796875" lon="-1.458165831863880157470703125">
        <ele>739.5999755859375</ele>
        <time>2022-05-02T11:31:41.000Z</time>
      </trkpt>
      <trkpt lat="41.143721379339694976806640625" lon="-1.45814781077206134796142578125">
        <ele>739.20001220703125</ele>
        <time>2022-05-02T11:31:42.000Z</time>
      </trkpt>
      <trkpt lat="41.1436162702739238739013671875" lon="-1.4581217430531978607177734375">
        <ele>738.20001220703125</ele>
        <time>2022-05-02T11:31:44.000Z</time>
      </trkpt>
      <trkpt lat="41.14351920783519744873046875" lon="-1.4581066556274890899658203125">
        <ele>737.4000244140625</ele>
        <time>2022-05-02T11:31:46.000Z</time>
      </trkpt>
      <trkpt lat="41.1434234865009784698486328125" lon="-1.458094753324985504150390625">
        <ele>736.79998779296875</ele>
        <time>2022-05-02T11:31:48.000Z</time>
      </trkpt>
      <trkpt lat="41.14333011209964752197265625" lon="-1.45808058790862560272216796875">
        <ele>736.20001220703125</ele>
        <time>2022-05-02T11:31:50.000Z</time>
      </trkpt>
      <trkpt lat="41.14328057505190372467041015625" lon="-1.4580704458057880401611328125">
        <ele>736</ele>
        <time>2022-05-02T11:31:51.000Z</time>
      </trkpt>
      <trkpt lat="41.14323095418512821197509765625" lon="-1.4580608904361724853515625">
        <ele>735.79998779296875</ele>
        <time>2022-05-02T11:31:52.000Z</time>
      </trkpt>
      <trkpt lat="41.1431334726512432098388671875" lon="-1.458040773868560791015625">
        <ele>735.5999755859375</ele>
        <time>2022-05-02T11:31:54.000Z</time>
      </trkpt>
      <trkpt lat="41.14304202608764171600341796875" lon="-1.4580282010138034820556640625">
        <ele>735.5999755859375</ele>
        <time>2022-05-02T11:31:56.000Z</time>
      </trkpt>
      <trkpt lat="41.14299709908664226531982421875" lon="-1.45801906473934650421142578125">
        <ele>735.5999755859375</ele>
        <time>2022-05-02T11:31:57.000Z</time>
      </trkpt>
      <trkpt lat="41.14295057952404022216796875" lon="-1.458006910979747772216796875">
        <ele>735.4000244140625</ele>
        <time>2022-05-02T11:31:58.000Z</time>
      </trkpt>
      <trkpt lat="41.142855696380138397216796875" lon="-1.45798352546989917755126953125">
        <ele>735.5999755859375</ele>
        <time>2022-05-02T11:32:00.000Z</time>
      </trkpt>
      <trkpt lat="41.14275670610368251800537109375" lon="-1.45794949494302272796630859375">
        <ele>736</ele>
        <time>2022-05-02T11:32:02.000Z</time>
      </trkpt>
      <trkpt lat="41.1426575481891632080078125" lon="-1.45790976472198963165283203125">
        <ele>735.4000244140625</ele>
        <time>2022-05-02T11:32:04.000Z</time>
      </trkpt>
      <trkpt lat="41.1425611563026905059814453125" lon="-1.45786383189260959625244140625">
        <ele>735.5999755859375</ele>
        <time>2022-05-02T11:32:06.000Z</time>
      </trkpt>
      <trkpt lat="41.1424639262259006500244140625" lon="-1.45781169645488262176513671875">
        <ele>735.20001220703125</ele>
        <time>2022-05-02T11:32:08.000Z</time>
      </trkpt>
      <trkpt lat="41.14236988127231597900390625" lon="-1.45775000564754009246826171875">
        <ele>734.5999755859375</ele>
        <time>2022-05-02T11:32:10.000Z</time>
      </trkpt>
      <trkpt lat="41.1422724835574626922607421875" lon="-1.45768580026924610137939453125">
        <ele>733.4000244140625</ele>
        <time>2022-05-02T11:32:12.000Z</time>
      </trkpt>
      <trkpt lat="41.14217617549002170562744140625" lon="-1.45761371590197086334228515625">
        <ele>732</ele>
        <time>2022-05-02T11:32:14.000Z</time>
      </trkpt>
      <trkpt lat="41.142078526318073272705078125" lon="-1.457529477775096893310546875">
        <ele>730.79998779296875</ele>
        <time>2022-05-02T11:32:16.000Z</time>
      </trkpt>
      <trkpt lat="41.14197266288101673126220703125" lon="-1.4574337564408779144287109375">
        <ele>729.79998779296875</ele>
        <time>2022-05-02T11:32:18.000Z</time>
      </trkpt>
      <trkpt lat="41.14191927015781402587890625" lon="-1.45738162100315093994140625">
        <ele>729.20001220703125</ele>
        <time>2022-05-02T11:32:19.000Z</time>
      </trkpt>
      <trkpt lat="41.141864955425262451171875" lon="-1.45732386969029903411865234375">
        <ele>728.5999755859375</ele>
        <time>2022-05-02T11:32:20.000Z</time>
      </trkpt>
      <trkpt lat="41.1418099701404571533203125" lon="-1.4572637714445590972900390625">
        <ele>727.79998779296875</ele>
        <time>2022-05-02T11:32:21.000Z</time>
      </trkpt>
      <trkpt lat="41.141755320131778717041015625" lon="-1.4572030864655971527099609375">
        <ele>727</ele>
        <time>2022-05-02T11:32:22.000Z</time>
      </trkpt>
      <trkpt lat="41.141646020114421844482421875" lon="-1.45707928575575351715087890625">
        <ele>725.5999755859375</ele>
        <time>2022-05-02T11:32:24.000Z</time>
      </trkpt>
      <trkpt lat="41.141532026231288909912109375" lon="-1.45695188082754611968994140625">
        <ele>724.5999755859375</ele>
        <time>2022-05-02T11:32:26.000Z</time>
      </trkpt>
      <trkpt lat="41.14141166210174560546875" lon="-1.456818692386150360107421875">
        <ele>723.79998779296875</ele>
        <time>2022-05-02T11:32:28.000Z</time>
      </trkpt>
      <trkpt lat="41.14129406400024890899658203125" lon="-1.4566881023347377777099609375">
        <ele>723.79998779296875</ele>
        <time>2022-05-02T11:32:30.000Z</time>
      </trkpt>
      <trkpt lat="41.14123798906803131103515625" lon="-1.45662263967096805572509765625">
        <ele>724.20001220703125</ele>
        <time>2022-05-02T11:32:31.000Z</time>
      </trkpt>
      <trkpt lat="41.14117738790810108184814453125" lon="-1.45655608735978603363037109375">
        <ele>724.5999755859375</ele>
        <time>2022-05-02T11:32:32.000Z</time>
      </trkpt>
      <trkpt lat="41.141117624938488006591796875" lon="-1.4564886130392551422119140625">
        <ele>725</ele>
        <time>2022-05-02T11:32:33.000Z</time>
      </trkpt>
      <trkpt lat="41.1410567723214626312255859375" lon="-1.456417702138423919677734375">
        <ele>725</ele>
        <time>2022-05-02T11:32:34.000Z</time>
      </trkpt>
      <trkpt lat="41.1409377492964267730712890625" lon="-1.4562783949077129364013671875">
        <ele>725.20001220703125</ele>
        <time>2022-05-02T11:32:36.000Z</time>
      </trkpt>
      <trkpt lat="41.1408244259655475616455078125" lon="-1.45614906214177608489990234375">
        <ele>724.79998779296875</ele>
        <time>2022-05-02T11:32:38.000Z</time>
      </trkpt>
      <trkpt lat="41.14071873016655445098876953125" lon="-1.45602568052709102630615234375">
        <ele>723.5999755859375</ele>
        <time>2022-05-02T11:32:40.000Z</time>
      </trkpt>
      <trkpt lat="41.14061512984335422515869140625" lon="-1.455911435186862945556640625">
        <ele>723.20001220703125</ele>
        <time>2022-05-02T11:32:42.000Z</time>
      </trkpt>
      <trkpt lat="41.14051303826272487640380859375" lon="-1.45579987205564975738525390625">
        <ele>723.79998779296875</ele>
        <time>2022-05-02T11:32:44.000Z</time>
      </trkpt>
      <trkpt lat="41.1404113657772541046142578125" lon="-1.45569124259054660797119140625">
        <ele>724.4000244140625</ele>
        <time>2022-05-02T11:32:46.000Z</time>
      </trkpt>
      <trkpt lat="41.14036493003368377685546875" lon="-1.45564229227602481842041015625">
        <ele>724.5999755859375</ele>
        <time>2022-05-02T11:32:47.000Z</time>
      </trkpt>
      <trkpt lat="41.14032008685171604156494140625" lon="-1.45559149794280529022216796875">
        <ele>724.5999755859375</ele>
        <time>2022-05-02T11:32:48.000Z</time>
      </trkpt>
      <trkpt lat="41.14023995585739612579345703125" lon="-1.455482952296733856201171875">
        <ele>724.79998779296875</ele>
        <time>2022-05-02T11:32:50.000Z</time>
      </trkpt>
      <trkpt lat="41.14016166888177394866943359375" lon="-1.45536459982395172119140625">
        <ele>724.4000244140625</ele>
        <time>2022-05-02T11:32:52.000Z</time>
      </trkpt>
      <trkpt lat="41.1400871537625789642333984375" lon="-1.45524817518889904022216796875">
        <ele>724.4000244140625</ele>
        <time>2022-05-02T11:32:54.000Z</time>
      </trkpt>
      <trkpt lat="41.140016578137874603271484375" lon="-1.4551267214119434356689453125">
        <ele>725</ele>
        <time>2022-05-02T11:32:56.000Z</time>
      </trkpt>
      <trkpt lat="41.13997860811650753021240234375" lon="-1.4550657011568546295166015625">
        <ele>725.4000244140625</ele>
        <time>2022-05-02T11:32:57.000Z</time>
      </trkpt>
      <trkpt lat="41.13994189538061618804931640625" lon="-1.455006860196590423583984375">
        <ele>725.79998779296875</ele>
        <time>2022-05-02T11:32:58.000Z</time>
      </trkpt>
      <trkpt lat="41.1399056017398834228515625" lon="-1.45495061762630939483642578125">
        <ele>726.20001220703125</ele>
        <time>2022-05-02T11:32:59.000Z</time>
      </trkpt>
      <trkpt lat="41.1398698948323726654052734375" lon="-1.45489429123699665069580078125">
        <ele>726.4000244140625</ele>
        <time>2022-05-02T11:33:00.000Z</time>
      </trkpt>
      <trkpt lat="41.139799319207668304443359375" lon="-1.45478432066738605499267578125">
        <ele>726.79998779296875</ele>
        <time>2022-05-02T11:33:02.000Z</time>
      </trkpt>
      <trkpt lat="41.13973083905875682830810546875" lon="-1.4546787925064563751220703125">
        <ele>727.20001220703125</ele>
        <time>2022-05-02T11:33:04.000Z</time>
      </trkpt>
      <trkpt lat="41.13965950906276702880859375" lon="-1.45457175560295581817626953125">
        <ele>727.20001220703125</ele>
        <time>2022-05-02T11:33:06.000Z</time>
      </trkpt>
      <trkpt lat="41.13962170667946338653564453125" lon="-1.45451945252716541290283203125">
        <ele>727</ele>
        <time>2022-05-02T11:33:07.000Z</time>
      </trkpt>
      <trkpt lat="41.13958583213388919830322265625" lon="-1.45446580834686756134033203125">
        <ele>726.79998779296875</ele>
        <time>2022-05-02T11:33:08.000Z</time>
      </trkpt>
      <trkpt lat="41.1395128257572650909423828125" lon="-1.454353742301464080810546875">
        <ele>727</ele>
        <time>2022-05-02T11:33:10.000Z</time>
      </trkpt>
      <trkpt lat="41.1394387297332286834716796875" lon="-1.45424536429345607757568359375">
        <ele>726.5999755859375</ele>
        <time>2022-05-02T11:33:12.000Z</time>
      </trkpt>
      <trkpt lat="41.139367483556270599365234375" lon="-1.454137153923511505126953125">
        <ele>726</ele>
        <time>2022-05-02T11:33:14.000Z</time>
      </trkpt>
      <trkpt lat="41.1392975784838199615478515625" lon="-1.45402726717293262481689453125">
        <ele>727.20001220703125</ele>
        <time>2022-05-02T11:33:16.000Z</time>
      </trkpt>
      <trkpt lat="41.139225997030735015869140625" lon="-1.45392249338328838348388671875">
        <ele>728.20001220703125</ele>
        <time>2022-05-02T11:33:18.000Z</time>
      </trkpt>
      <trkpt lat="41.1391545832157135009765625" lon="-1.45381428301334381103515625">
        <ele>729</ele>
        <time>2022-05-02T11:33:20.000Z</time>
      </trkpt>
      <trkpt lat="41.1391175352036952972412109375" lon="-1.45375854335725307464599609375">
        <ele>729.4000244140625</ele>
        <time>2022-05-02T11:33:21.000Z</time>
      </trkpt>
      <trkpt lat="41.1390806548297405242919921875" lon="-1.45370204932987689971923828125">
        <ele>730.20001220703125</ele>
        <time>2022-05-02T11:33:22.000Z</time>
      </trkpt>
      <trkpt lat="41.13900647498667240142822265625" lon="-1.45358554087579250335693359375">
        <ele>731</ele>
        <time>2022-05-02T11:33:24.000Z</time>
      </trkpt>
      <trkpt lat="41.13897261209785938262939453125" lon="-1.45352887921035289764404296875">
        <ele>731</ele>
        <time>2022-05-02T11:33:25.000Z</time>
      </trkpt>
      <trkpt lat="41.13894025795161724090576171875" lon="-1.45347640849649906158447265625">
        <ele>731</ele>
        <time>2022-05-02T11:33:26.000Z</time>
      </trkpt>
      <trkpt lat="41.13887739367783069610595703125" lon="-1.45337984897196292877197265625">
        <ele>731</ele>
        <time>2022-05-02T11:33:28.000Z</time>
      </trkpt>
      <trkpt lat="41.13884705118834972381591796875" lon="-1.4533329941332340240478515625">
        <ele>731</ele>
        <time>2022-05-02T11:33:29.000Z</time>
      </trkpt>
      <trkpt lat="41.1388174630701541900634765625" lon="-1.453286223113536834716796875">
        <ele>730.79998779296875</ele>
        <time>2022-05-02T11:33:30.000Z</time>
      </trkpt>
      <trkpt lat="41.138762645423412322998046875" lon="-1.45320282317698001861572265625">
        <ele>731</ele>
        <time>2022-05-02T11:33:32.000Z</time>
      </trkpt>
      <trkpt lat="41.13871344365179538726806640625" lon="-1.45312772132456302642822265625">
        <ele>731</ele>
        <time>2022-05-02T11:33:34.000Z</time>
      </trkpt>
      <trkpt lat="41.13868854939937591552734375" lon="-1.45309134386479854583740234375">
        <ele>731</ele>
        <time>2022-05-02T11:33:35.000Z</time>
      </trkpt>
      <trkpt lat="41.1386632360517978668212890625" lon="-1.45305329002439975738525390625">
        <ele>731</ele>
        <time>2022-05-02T11:33:36.000Z</time>
      </trkpt>
      <trkpt lat="41.138637252151966094970703125" lon="-1.4530131407082080841064453125">
        <ele>731.20001220703125</ele>
        <time>2022-05-02T11:33:37.000Z</time>
      </trkpt>
      <trkpt lat="41.13861118443310260772705078125" lon="-1.452973745763301849365234375">
        <ele>731.20001220703125</ele>
        <time>2022-05-02T11:33:38.000Z</time>
      </trkpt>
      <trkpt lat="41.13855133764445781707763671875" lon="-1.45290090702474117279052734375">
        <ele>731.5999755859375</ele>
        <time>2022-05-02T11:33:40.000Z</time>
      </trkpt>
      <trkpt lat="41.13849082030355930328369140625" lon="-1.45282588899135589599609375">
        <ele>731.79998779296875</ele>
        <time>2022-05-02T11:33:42.000Z</time>
      </trkpt>
      <trkpt lat="41.13843566738069057464599609375" lon="-1.4527512900531291961669921875">
        <ele>731.79998779296875</ele>
        <time>2022-05-02T11:33:44.000Z</time>
      </trkpt>
      <trkpt lat="41.13837632350623607635498046875" lon="-1.45267677493393421173095703125">
        <ele>731.79998779296875</ele>
        <time>2022-05-02T11:33:46.000Z</time>
      </trkpt>
      <trkpt lat="41.13834681920707225799560546875" lon="-1.4526403136551380157470703125">
        <ele>731.79998779296875</ele>
        <time>2022-05-02T11:33:47.000Z</time>
      </trkpt>
      <trkpt lat="41.13831840455532073974609375" lon="-1.452602930366992950439453125">
        <ele>731.5999755859375</ele>
        <time>2022-05-02T11:33:48.000Z</time>
      </trkpt>
      <trkpt lat="41.13826283253729343414306640625" lon="-1.45253428258001804351806640625">
        <ele>731.20001220703125</ele>
        <time>2022-05-02T11:33:50.000Z</time>
      </trkpt>
      <trkpt lat="41.13821086473762989044189453125" lon="-1.4524656347930431365966796875">
        <ele>730.79998779296875</ele>
        <time>2022-05-02T11:33:52.000Z</time>
      </trkpt>
      <trkpt lat="41.13815655000507831573486328125" lon="-1.4524069614708423614501953125">
        <ele>730.4000244140625</ele>
        <time>2022-05-02T11:33:54.000Z</time>
      </trkpt>
      <trkpt lat="41.1381033249199390411376953125" lon="-1.45234837196767330169677734375">
        <ele>730</ele>
        <time>2022-05-02T11:33:56.000Z</time>
      </trkpt>
      <trkpt lat="41.138051189482212066650390625" lon="-1.4522874355316162109375">
        <ele>730</ele>
        <time>2022-05-02T11:33:58.000Z</time>
      </trkpt>
      <trkpt lat="41.13799947313964366912841796875" lon="-1.45223177969455718994140625">
        <ele>730</ele>
        <time>2022-05-02T11:34:00.000Z</time>
      </trkpt>
      <trkpt lat="41.1379494331777095794677734375" lon="-1.452171094715595245361328125">
        <ele>730</ele>
        <time>2022-05-02T11:34:02.000Z</time>
      </trkpt>
      <trkpt lat="41.1378974653780460357666015625" lon="-1.452117450535297393798828125">
        <ele>730.20001220703125</ele>
        <time>2022-05-02T11:34:04.000Z</time>
      </trkpt>
      <trkpt lat="41.13784910179674625396728515625" lon="-1.4520676620304584503173828125">
        <ele>730.4000244140625</ele>
        <time>2022-05-02T11:34:06.000Z</time>
      </trkpt>
      <trkpt lat="41.137803085148334503173828125" lon="-1.45200840197503566741943359375">
        <ele>730.79998779296875</ele>
        <time>2022-05-02T11:34:08.000Z</time>
      </trkpt>
      <trkpt lat="41.137756817042827606201171875" lon="-1.4519553445279598236083984375">
        <ele>731.4000244140625</ele>
        <time>2022-05-02T11:34:10.000Z</time>
      </trkpt>
      <trkpt lat="41.1377304978668689727783203125" lon="-1.451927684247493743896484375">
        <ele>731.5999755859375</ele>
        <time>2022-05-02T11:34:11.000Z</time>
      </trkpt>
      <trkpt lat="41.13770694471895694732666015625" lon="-1.45190186798572540283203125">
        <ele>732.20001220703125</ele>
        <time>2022-05-02T11:34:12.000Z</time>
      </trkpt>
      <trkpt lat="41.137659586966037750244140625" lon="-1.451841853559017181396484375">
        <ele>732.79998779296875</ele>
        <time>2022-05-02T11:34:14.000Z</time>
      </trkpt>
      <trkpt lat="41.1376138217747211456298828125" lon="-1.4517856948077678680419921875">
        <ele>733.5999755859375</ele>
        <time>2022-05-02T11:34:16.000Z</time>
      </trkpt>
      <trkpt lat="41.13757400773465633392333984375" lon="-1.45172760821878910064697265625">
        <ele>734.20001220703125</ele>
        <time>2022-05-02T11:34:18.000Z</time>
      </trkpt>
      <trkpt lat="41.13755238242447376251220703125" lon="-1.4516985230147838592529296875">
        <ele>734.20001220703125</ele>
        <time>2022-05-02T11:34:19.000Z</time>
      </trkpt>
      <trkpt lat="41.13752891309559345245361328125" lon="-1.45166792906820774078369140625">
        <ele>734.4000244140625</ele>
        <time>2022-05-02T11:34:20.000Z</time>
      </trkpt>
      <trkpt lat="41.1374854110181331634521484375" lon="-1.45160573534667491912841796875">
        <ele>734.79998779296875</ele>
        <time>2022-05-02T11:34:22.000Z</time>
      </trkpt>
      <trkpt lat="41.137439310550689697265625" lon="-1.45153985358774662017822265625">
        <ele>735.20001220703125</ele>
        <time>2022-05-02T11:34:24.000Z</time>
      </trkpt>
      <trkpt lat="41.13738893531262874603271484375" lon="-1.4514665119349956512451171875">
        <ele>735.5999755859375</ele>
        <time>2022-05-02T11:34:26.000Z</time>
      </trkpt>
      <trkpt lat="41.1373331956565380096435546875" lon="-1.45138730295002460479736328125">
        <ele>735.79998779296875</ele>
        <time>2022-05-02T11:34:28.000Z</time>
      </trkpt>
      <trkpt lat="41.13728214986622333526611328125" lon="-1.451305411756038665771484375">
        <ele>735.5999755859375</ele>
        <time>2022-05-02T11:34:30.000Z</time>
      </trkpt>
      <trkpt lat="41.13722900860011577606201171875" lon="-1.45122821442782878875732421875">
        <ele>735.5999755859375</ele>
        <time>2022-05-02T11:34:32.000Z</time>
      </trkpt>
      <trkpt lat="41.1371719278395175933837890625" lon="-1.45115495659410953521728515625">
        <ele>735.79998779296875</ele>
        <time>2022-05-02T11:34:34.000Z</time>
      </trkpt>
      <trkpt lat="41.137120462954044342041015625" lon="-1.4510762505233287811279296875">
        <ele>736</ele>
        <time>2022-05-02T11:34:36.000Z</time>
      </trkpt>
      <trkpt lat="41.13706572912633419036865234375" lon="-1.45099234767258167266845703125">
        <ele>736.20001220703125</ele>
        <time>2022-05-02T11:34:38.000Z</time>
      </trkpt>
      <trkpt lat="41.1370093189179897308349609375" lon="-1.450901068747043609619140625">
        <ele>736.4000244140625</ele>
        <time>2022-05-02T11:34:40.000Z</time>
      </trkpt>
      <trkpt lat="41.13698040135204792022705078125" lon="-1.4508549682796001434326171875">
        <ele>736.4000244140625</ele>
        <time>2022-05-02T11:34:41.000Z</time>
      </trkpt>
      <trkpt lat="41.1369496397674083709716796875" lon="-1.4508108794689178466796875">
        <ele>736.4000244140625</ele>
        <time>2022-05-02T11:34:42.000Z</time>
      </trkpt>
      <trkpt lat="41.1368899606168270111083984375" lon="-1.45072035491466522216796875">
        <ele>736.5999755859375</ele>
        <time>2022-05-02T11:34:44.000Z</time>
      </trkpt>
      <trkpt lat="41.13683656789362430572509765625" lon="-1.45063318312168121337890625">
        <ele>736</ele>
        <time>2022-05-02T11:34:46.000Z</time>
      </trkpt>
      <trkpt lat="41.1368098296225070953369140625" lon="-1.450589597225189208984375">
        <ele>735.79998779296875</ele>
        <time>2022-05-02T11:34:47.000Z</time>
      </trkpt>
      <trkpt lat="41.13678342662751674652099609375" lon="-1.45054860971868038177490234375">
        <ele>735.5999755859375</ele>
        <time>2022-05-02T11:34:48.000Z</time>
      </trkpt>
      <trkpt lat="41.1367293633520603179931640625" lon="-1.4504811353981494903564453125">
        <ele>735.4000244140625</ele>
        <time>2022-05-02T11:34:50.000Z</time>
      </trkpt>
      <trkpt lat="41.13668468780815601348876953125" lon="-1.4504633657634258270263671875">
        <ele>735.20001220703125</ele>
        <time>2022-05-02T11:34:52.000Z</time>
      </trkpt>
      <trkpt lat="41.13664872944355010986328125" lon="-1.45049035549163818359375">
        <ele>734.79998779296875</ele>
        <time>2022-05-02T11:34:54.000Z</time>
      </trkpt>
      <trkpt lat="41.1365868709981441497802734375" lon="-1.45052430219948291778564453125">
        <ele>734.20001220703125</ele>
        <time>2022-05-02T11:34:56.000Z</time>
      </trkpt>
      <trkpt lat="41.136494837701320648193359375" lon="-1.45056956447660923004150390625">
        <ele>733.5999755859375</ele>
        <time>2022-05-02T11:34:58.000Z</time>
      </trkpt>
      <trkpt lat="41.136373467743396759033203125" lon="-1.45061977207660675048828125">
        <ele>732.79998779296875</ele>
        <time>2022-05-02T11:35:00.000Z</time>
      </trkpt>
      <trkpt lat="41.13625117577612400054931640625" lon="-1.45065975375473499298095703125">
        <ele>732.20001220703125</ele>
        <time>2022-05-02T11:35:02.000Z</time>
      </trkpt>
      <trkpt lat="41.1361339129507541656494140625" lon="-1.45070736296474933624267578125">
        <ele>731.4000244140625</ele>
        <time>2022-05-02T11:35:04.000Z</time>
      </trkpt>
      <trkpt lat="41.13608010113239288330078125" lon="-1.45073435269296169281005859375">
        <ele>731.20001220703125</ele>
        <time>2022-05-02T11:35:05.000Z</time>
      </trkpt>
      <trkpt lat="41.13602285273373126983642578125" lon="-1.4507679641246795654296875">
        <ele>731</ele>
        <time>2022-05-02T11:35:06.000Z</time>
      </trkpt>
      <trkpt lat="41.13591103814542293548583984375" lon="-1.45083837211132049560546875">
        <ele>730.5999755859375</ele>
        <time>2022-05-02T11:35:08.000Z</time>
      </trkpt>
      <trkpt lat="41.1358583159744739532470703125" lon="-1.4508697204291820526123046875">
        <ele>730.4000244140625</ele>
        <time>2022-05-02T11:35:09.000Z</time>
      </trkpt>
      <trkpt lat="41.135808527469635009765625" lon="-1.45090333186089992523193359375">
        <ele>730.20001220703125</ele>
        <time>2022-05-02T11:35:10.000Z</time>
      </trkpt>
      <trkpt lat="41.13570333458483219146728515625" lon="-1.4509880729019641876220703125">
        <ele>730</ele>
        <time>2022-05-02T11:35:12.000Z</time>
      </trkpt>
      <trkpt lat="41.1356591619551181793212890625" lon="-1.45103543065488338470458984375">
        <ele>730</ele>
        <time>2022-05-02T11:35:13.000Z</time>
      </trkpt>
      <trkpt lat="41.135615743696689605712890625" lon="-1.45107951946556568145751953125">
        <ele>730</ele>
        <time>2022-05-02T11:35:14.000Z</time>
      </trkpt>
      <trkpt lat="41.13557022996246814727783203125" lon="-1.451120339334011077880859375">
        <ele>730</ele>
        <time>2022-05-02T11:35:15.000Z</time>
      </trkpt>
      <trkpt lat="41.13552630878984928131103515625" lon="-1.45115730352699756622314453125">
        <ele>730</ele>
        <time>2022-05-02T11:35:16.000Z</time>
      </trkpt>
      <trkpt lat="41.13544265739619731903076171875" lon="-1.4512132108211517333984375">
        <ele>729.79998779296875</ele>
        <time>2022-05-02T11:35:18.000Z</time>
      </trkpt>
      <trkpt lat="41.1353994905948638916015625" lon="-1.45123994909226894378662109375">
        <ele>729.20001220703125</ele>
        <time>2022-05-02T11:35:19.000Z</time>
      </trkpt>
      <trkpt lat="41.1353547312319278717041015625" lon="-1.45127129741013050079345703125">
        <ele>728.5999755859375</ele>
        <time>2022-05-02T11:35:20.000Z</time>
      </trkpt>
      <trkpt lat="41.1352601833641529083251953125" lon="-1.45132913254201412200927734375">
        <ele>727.20001220703125</ele>
        <time>2022-05-02T11:35:22.000Z</time>
      </trkpt>
      <trkpt lat="41.135165803134441375732421875" lon="-1.4513836987316608428955078125">
        <ele>726</ele>
        <time>2022-05-02T11:35:24.000Z</time>
      </trkpt>
      <trkpt lat="41.1351191997528076171875" lon="-1.45141362212598323822021484375">
        <ele>725.5999755859375</ele>
        <time>2022-05-02T11:35:25.000Z</time>
      </trkpt>
      <trkpt lat="41.13507418893277645111083984375" lon="-1.45144446752965450286865234375">
        <ele>725.20001220703125</ele>
        <time>2022-05-02T11:35:26.000Z</time>
      </trkpt>
      <trkpt lat="41.13498886115849018096923828125" lon="-1.451500542461872100830078125">
        <ele>724.5999755859375</ele>
        <time>2022-05-02T11:35:28.000Z</time>
      </trkpt>
      <trkpt lat="41.13490051589906215667724609375" lon="-1.45155577920377254486083984375">
        <ele>724</ele>
        <time>2022-05-02T11:35:30.000Z</time>
      </trkpt>
      <trkpt lat="41.13481233827769756317138671875" lon="-1.45161327905952930450439453125">
        <ele>724.4000244140625</ele>
        <time>2022-05-02T11:35:32.000Z</time>
      </trkpt>
      <trkpt lat="41.13472449593245983123779296875" lon="-1.45167027600109577178955078125">
        <ele>724.5999755859375</ele>
        <time>2022-05-02T11:35:34.000Z</time>
      </trkpt>
      <trkpt lat="41.134638078510761260986328125" lon="-1.45172626711428165435791015625">
        <ele>725.20001220703125</ele>
        <time>2022-05-02T11:35:36.000Z</time>
      </trkpt>
      <trkpt lat="41.1345933191478252410888671875" lon="-1.451755352318286895751953125">
        <ele>725.4000244140625</ele>
        <time>2022-05-02T11:35:37.000Z</time>
      </trkpt>
      <trkpt lat="41.13454964943230152130126953125" lon="-1.45178410224616527557373046875">
        <ele>725.4000244140625</ele>
        <time>2022-05-02T11:35:38.000Z</time>
      </trkpt>
      <trkpt lat="41.13446063362061977386474609375" lon="-1.45184361375868320465087890625">
        <ele>725.5999755859375</ele>
        <time>2022-05-02T11:35:40.000Z</time>
      </trkpt>
      <trkpt lat="41.13441713154315948486328125" lon="-1.45187110640108585357666015625">
        <ele>725.79998779296875</ele>
        <time>2022-05-02T11:35:41.000Z</time>
      </trkpt>
      <trkpt lat="41.13437379710376262664794921875" lon="-1.45189994014799594879150390625">
        <ele>725.79998779296875</ele>
        <time>2022-05-02T11:35:42.000Z</time>
      </trkpt>
      <trkpt lat="41.1342865414917469024658203125" lon="-1.451964564621448516845703125">
        <ele>726.20001220703125</ele>
        <time>2022-05-02T11:35:44.000Z</time>
      </trkpt>
      <trkpt lat="41.13419878296554088592529296875" lon="-1.4520240761339664459228515625">
        <ele>726.79998779296875</ele>
        <time>2022-05-02T11:35:46.000Z</time>
      </trkpt>
      <trkpt lat="41.134120412170886993408203125" lon="-1.45207948051393032073974609375">
        <ele>727</ele>
        <time>2022-05-02T11:35:48.000Z</time>
      </trkpt>
      <trkpt lat="41.1340813525021076202392578125" lon="-1.45209766924381256103515625">
        <ele>727.20001220703125</ele>
        <time>2022-05-02T11:35:49.000Z</time>
      </trkpt>
      <trkpt lat="41.13403935916721820831298828125" lon="-1.4521052129566669464111328125">
        <ele>727.4000244140625</ele>
        <time>2022-05-02T11:35:50.000Z</time>
      </trkpt>
      <trkpt lat="41.13399476744234561920166015625" lon="-1.45210328511893749237060546875">
        <ele>727.5999755859375</ele>
        <time>2022-05-02T11:35:51.000Z</time>
      </trkpt>
      <trkpt lat="41.133952774107456207275390625" lon="-1.4520929753780364990234375">
        <ele>727.79998779296875</ele>
        <time>2022-05-02T11:35:52.000Z</time>
      </trkpt>
      <trkpt lat="41.13390910439193248748779296875" lon="-1.45207998342812061309814453125">
        <ele>728</ele>
        <time>2022-05-02T11:35:53.000Z</time>
      </trkpt>
      <trkpt lat="41.13386551849544048309326171875" lon="-1.45206372253596782684326171875">
        <ele>728</ele>
        <time>2022-05-02T11:35:54.000Z</time>
      </trkpt>
      <trkpt lat="41.13378010690212249755859375" lon="-1.45202382467687129974365234375">
        <ele>728</ele>
        <time>2022-05-02T11:35:56.000Z</time>
      </trkpt>
      <trkpt lat="41.1336962878704071044921875" lon="-1.45197923295199871063232421875">
        <ele>728</ele>
        <time>2022-05-02T11:35:58.000Z</time>
      </trkpt>
      <trkpt lat="41.133602745831012725830078125" lon="-1.451936401426792144775390625">
        <ele>728</ele>
        <time>2022-05-02T11:36:00.000Z</time>
      </trkpt>
      <trkpt lat="41.1335110478103160858154296875" lon="-1.45188585855066776275634765625">
        <ele>727.79998779296875</ele>
        <time>2022-05-02T11:36:02.000Z</time>
      </trkpt>
      <trkpt lat="41.13341742195188999176025390625" lon="-1.45184009335935115814208984375">
        <ele>728</ele>
        <time>2022-05-02T11:36:04.000Z</time>
      </trkpt>
      <trkpt lat="41.13337081857025623321533203125" lon="-1.45181343890726566314697265625">
        <ele>728</ele>
        <time>2022-05-02T11:36:05.000Z</time>
      </trkpt>
      <trkpt lat="41.13332740031182765960693359375" lon="-1.45178510807454586029052734375">
        <ele>728.20001220703125</ele>
        <time>2022-05-02T11:36:06.000Z</time>
      </trkpt>
      <trkpt lat="41.133245341479778289794921875" lon="-1.45172710530459880828857421875">
        <ele>728.20001220703125</ele>
        <time>2022-05-02T11:36:08.000Z</time>
      </trkpt>
      <trkpt lat="41.13316076807677745819091796875" lon="-1.45167094655334949493408203125">
        <ele>728.5999755859375</ele>
        <time>2022-05-02T11:36:10.000Z</time>
      </trkpt>
      <trkpt lat="41.13307594321668148040771484375" lon="-1.45161914639174938201904296875">
        <ele>728.79998779296875</ele>
        <time>2022-05-02T11:36:12.000Z</time>
      </trkpt>
      <trkpt lat="41.13299564458429813385009765625" lon="-1.45156818442046642303466796875">
        <ele>729</ele>
        <time>2022-05-02T11:36:14.000Z</time>
      </trkpt>
      <trkpt lat="41.13291836343705654144287109375" lon="-1.45151671953499317169189453125">
        <ele>729</ele>
        <time>2022-05-02T11:36:16.000Z</time>
      </trkpt>
      <trkpt lat="41.1328787170350551605224609375" lon="-1.45149392075836658477783203125">
        <ele>728.79998779296875</ele>
        <time>2022-05-02T11:36:17.000Z</time>
      </trkpt>
      <trkpt lat="41.1328361369669437408447265625" lon="-1.4514735527336597442626953125">
        <ele>728.79998779296875</ele>
        <time>2022-05-02T11:36:18.000Z</time>
      </trkpt>
      <trkpt lat="41.132794059813022613525390625" lon="-1.45145586691796779632568359375">
        <ele>728.79998779296875</ele>
        <time>2022-05-02T11:36:19.000Z</time>
      </trkpt>
      <trkpt lat="41.1327526532113552093505859375" lon="-1.4514393545687198638916015625">
        <ele>729</ele>
        <time>2022-05-02T11:36:20.000Z</time>
      </trkpt>
      <trkpt lat="41.13266422413289546966552734375" lon="-1.451403312385082244873046875">
        <ele>729.20001220703125</ele>
        <time>2022-05-02T11:36:22.000Z</time>
      </trkpt>
      <trkpt lat="41.13257353194057941436767578125" lon="-1.4513706229627132415771484375">
        <ele>729</ele>
        <time>2022-05-02T11:36:24.000Z</time>
      </trkpt>
      <trkpt lat="41.13248334266245365142822265625" lon="-1.45133726298809051513671875">
        <ele>728.79998779296875</ele>
        <time>2022-05-02T11:36:26.000Z</time>
      </trkpt>
      <trkpt lat="41.13243590109050273895263671875" lon="-1.45132209174335002899169921875">
        <ele>728.5999755859375</ele>
        <time>2022-05-02T11:36:27.000Z</time>
      </trkpt>
      <trkpt lat="41.13238762132823467254638671875" lon="-1.4513072557747364044189453125">
        <ele>728.79998779296875</ele>
        <time>2022-05-02T11:36:28.000Z</time>
      </trkpt>
      <trkpt lat="41.13229416310787200927734375" lon="-1.45127733238041400909423828125">
        <ele>728.5999755859375</ele>
        <time>2022-05-02T11:36:30.000Z</time>
      </trkpt>
      <trkpt lat="41.1322044767439365386962890625" lon="-1.45125352777540683746337890625">
        <ele>728.5999755859375</ele>
        <time>2022-05-02T11:36:32.000Z</time>
      </trkpt>
      <trkpt lat="41.13211235962808132171630859375" lon="-1.45123307593166828155517578125">
        <ele>728.5999755859375</ele>
        <time>2022-05-02T11:36:34.000Z</time>
      </trkpt>
      <trkpt lat="41.13206491805613040924072265625" lon="-1.45122184418141841888427734375">
        <ele>728.5999755859375</ele>
        <time>2022-05-02T11:36:35.000Z</time>
      </trkpt>
      <trkpt lat="41.13201915286481380462646484375" lon="-1.45121254026889801025390625">
        <ele>728.79998779296875</ele>
        <time>2022-05-02T11:36:36.000Z</time>
      </trkpt>
      <trkpt lat="41.131933070719242095947265625" lon="-1.45120189525187015533447265625">
        <ele>728.79998779296875</ele>
        <time>2022-05-02T11:36:38.000Z</time>
      </trkpt>
      <trkpt lat="41.13185226917266845703125" lon="-1.45120139233767986297607421875">
        <ele>728.79998779296875</ele>
        <time>2022-05-02T11:36:40.000Z</time>
      </trkpt>
      <trkpt lat="41.13180876709520816802978515625" lon="-1.45119921304285526275634765625">
        <ele>728.79998779296875</ele>
        <time>2022-05-02T11:36:41.000Z</time>
      </trkpt>
      <trkpt lat="41.13176576793193817138671875" lon="-1.451196111738681793212890625">
        <ele>729</ele>
        <time>2022-05-02T11:36:42.000Z</time>
      </trkpt>
      <trkpt lat="41.13167901523411273956298828125" lon="-1.45118714310228824615478515625">
        <ele>729.20001220703125</ele>
        <time>2022-05-02T11:36:44.000Z</time>
      </trkpt>
      <trkpt lat="41.13163710571825504302978515625" lon="-1.45117440260946750640869140625">
        <ele>729.20001220703125</ele>
        <time>2022-05-02T11:36:45.000Z</time>
      </trkpt>
      <trkpt lat="41.13159201107919216156005859375" lon="-1.451161243021488189697265625">
        <ele>729.4000244140625</ele>
        <time>2022-05-02T11:36:46.000Z</time>
      </trkpt>
      <trkpt lat="41.13151707686483860015869140625" lon="-1.4511416293680667877197265625">
        <ele>729.20001220703125</ele>
        <time>2022-05-02T11:36:48.000Z</time>
      </trkpt>
      <trkpt lat="41.13144549541175365447998046875" lon="-1.451125033199787139892578125">
        <ele>729</ele>
        <time>2022-05-02T11:36:50.000Z</time>
      </trkpt>
      <trkpt lat="41.13137416541576385498046875" lon="-1.45111053250730037689208984375">
        <ele>729</ele>
        <time>2022-05-02T11:36:52.000Z</time>
      </trkpt>
      <trkpt lat="41.13128640688955783843994140625" lon="-1.45108924247324466705322265625">
        <ele>729</ele>
        <time>2022-05-02T11:36:54.000Z</time>
      </trkpt>
      <trkpt lat="41.1312053538858890533447265625" lon="-1.4510671980679035186767578125">
        <ele>729</ele>
        <time>2022-05-02T11:36:56.000Z</time>
      </trkpt>
      <trkpt lat="41.13111860118806362152099609375" lon="-1.451050937175750732421875">
        <ele>729</ele>
        <time>2022-05-02T11:36:58.000Z</time>
      </trkpt>
      <trkpt lat="41.13103025592863559722900390625" lon="-1.4510308206081390380859375">
        <ele>728.79998779296875</ele>
        <time>2022-05-02T11:37:00.000Z</time>
      </trkpt>
      <trkpt lat="41.13094090484082698822021484375" lon="-1.4509988017380237579345703125">
        <ele>728.79998779296875</ele>
        <time>2022-05-02T11:37:02.000Z</time>
      </trkpt>
      <trkpt lat="41.1308539845049381256103515625" lon="-1.45095597021281719207763671875">
        <ele>729</ele>
        <time>2022-05-02T11:37:04.000Z</time>
      </trkpt>
      <trkpt lat="41.13077729009091854095458984375" lon="-1.45089696161448955535888671875">
        <ele>728.5999755859375</ele>
        <time>2022-05-02T11:37:06.000Z</time>
      </trkpt>
      <trkpt lat="41.13073311746120452880859375" lon="-1.45086762495338916778564453125">
        <ele>728.4000244140625</ele>
        <time>2022-05-02T11:37:07.000Z</time>
      </trkpt>
      <trkpt lat="41.13068777136504650115966796875" lon="-1.45083979703485965728759765625">
        <ele>728.4000244140625</ele>
        <time>2022-05-02T11:37:08.000Z</time>
      </trkpt>
      <trkpt lat="41.130593307316303253173828125" lon="-1.45078665576875209808349609375">
        <ele>729</ele>
        <time>2022-05-02T11:37:10.000Z</time>
      </trkpt>
      <trkpt lat="41.130497418344020843505859375" lon="-1.45072898827493190765380859375">
        <ele>729.5999755859375</ele>
        <time>2022-05-02T11:37:12.000Z</time>
      </trkpt>
      <trkpt lat="41.13040412776172161102294921875" lon="-1.4506742544472217559814453125">
        <ele>729.79998779296875</ele>
        <time>2022-05-02T11:37:14.000Z</time>
      </trkpt>
      <trkpt lat="41.1303544230759143829345703125" lon="-1.4506484381854534149169921875">
        <ele>730</ele>
        <time>2022-05-02T11:37:15.000Z</time>
      </trkpt>
      <trkpt lat="41.130304969847202301025390625" lon="-1.45062471739947795867919921875">
        <ele>730.5999755859375</ele>
        <time>2022-05-02T11:37:16.000Z</time>
      </trkpt>
      <trkpt lat="41.1302040517330169677734375" lon="-1.4505810476839542388916015625">
        <ele>731.5999755859375</ele>
        <time>2022-05-02T11:37:18.000Z</time>
      </trkpt>
      <trkpt lat="41.1301143653690814971923828125" lon="-1.450540982186794281005859375">
        <ele>732.20001220703125</ele>
        <time>2022-05-02T11:37:20.000Z</time>
      </trkpt>
      <trkpt lat="41.13002258352935314178466796875" lon="-1.45049245096743106842041015625">
        <ele>732.5999755859375</ele>
        <time>2022-05-02T11:37:22.000Z</time>
      </trkpt>
      <trkpt lat="41.1299331486225128173828125" lon="-1.45043260417878627777099609375">
        <ele>732.79998779296875</ele>
        <time>2022-05-02T11:37:24.000Z</time>
      </trkpt>
      <trkpt lat="41.1298431269824504852294921875" lon="-1.450374014675617218017578125">
        <ele>733.20001220703125</ele>
        <time>2022-05-02T11:37:26.000Z</time>
      </trkpt>
      <trkpt lat="41.12975536845624446868896484375" lon="-1.4503168500959873199462890625">
        <ele>733.5999755859375</ele>
        <time>2022-05-02T11:37:28.000Z</time>
      </trkpt>
      <trkpt lat="41.12967389635741710662841796875" lon="-1.45026999525725841522216796875">
        <ele>733.79998779296875</ele>
        <time>2022-05-02T11:37:30.000Z</time>
      </trkpt>
      <trkpt lat="41.12959426827728748321533203125" lon="-1.45022791810333728790283203125">
        <ele>734</ele>
        <time>2022-05-02T11:37:32.000Z</time>
      </trkpt>
      <trkpt lat="41.129515729844570159912109375" lon="-1.450179554522037506103515625">
        <ele>734</ele>
        <time>2022-05-02T11:37:34.000Z</time>
      </trkpt>
      <trkpt lat="41.1294766701757907867431640625" lon="-1.45015633665025234222412109375">
        <ele>734</ele>
        <time>2022-05-02T11:37:35.000Z</time>
      </trkpt>
      <trkpt lat="41.12943769432604312896728515625" lon="-1.45013152621686458587646484375">
        <ele>734</ele>
        <time>2022-05-02T11:37:36.000Z</time>
      </trkpt>
      <trkpt lat="41.129358150064945220947265625" lon="-1.45008676685392856597900390625">
        <ele>734</ele>
        <time>2022-05-02T11:37:38.000Z</time>
      </trkpt>
      <trkpt lat="41.12927877344191074371337890625" lon="-1.4500449411571025848388671875">
        <ele>733.79998779296875</ele>
        <time>2022-05-02T11:37:40.000Z</time>
      </trkpt>
      <trkpt lat="41.12919763661921024322509765625" lon="-1.45000210963189601898193359375">
        <ele>733.4000244140625</ele>
        <time>2022-05-02T11:37:42.000Z</time>
      </trkpt>
      <trkpt lat="41.12911884672939777374267578125" lon="-1.44995047710835933685302734375">
        <ele>733</ele>
        <time>2022-05-02T11:37:44.000Z</time>
      </trkpt>
      <trkpt lat="41.12903871573507785797119140625" lon="-1.4499098248779773712158203125">
        <ele>733</ele>
        <time>2022-05-02T11:37:46.000Z</time>
      </trkpt>
      <trkpt lat="41.12896076403558254241943359375" lon="-1.4498721063137054443359375">
        <ele>733.4000244140625</ele>
        <time>2022-05-02T11:37:48.000Z</time>
      </trkpt>
      <trkpt lat="41.128887422382831573486328125" lon="-1.4498372375965118408203125">
        <ele>733.79998779296875</ele>
        <time>2022-05-02T11:37:50.000Z</time>
      </trkpt>
      <trkpt lat="41.12881357781589031219482421875" lon="-1.44980027340352535247802734375">
        <ele>734.4000244140625</ele>
        <time>2022-05-02T11:37:52.000Z</time>
      </trkpt>
      <trkpt lat="41.12873797304928302764892578125" lon="-1.449759118258953094482421875">
        <ele>735</ele>
        <time>2022-05-02T11:37:54.000Z</time>
      </trkpt>
      <trkpt lat="41.12865750677883625030517578125" lon="-1.44971896894276142120361328125">
        <ele>735</ele>
        <time>2022-05-02T11:37:56.000Z</time>
      </trkpt>
      <trkpt lat="41.128573603928089141845703125" lon="-1.44967655651271343231201171875">
        <ele>734.79998779296875</ele>
        <time>2022-05-02T11:37:58.000Z</time>
      </trkpt>
      <trkpt lat="41.12849053926765918731689453125" lon="-1.44963095895946025848388671875">
        <ele>734.5999755859375</ele>
        <time>2022-05-02T11:38:00.000Z</time>
      </trkpt>
      <trkpt lat="41.12840571440756320953369140625" lon="-1.449582092463970184326171875">
        <ele>734.20001220703125</ele>
        <time>2022-05-02T11:38:02.000Z</time>
      </trkpt>
      <trkpt lat="41.12836346961557865142822265625" lon="-1.4495557732880115509033203125">
        <ele>734</ele>
        <time>2022-05-02T11:38:03.000Z</time>
      </trkpt>
      <trkpt lat="41.12832239829003810882568359375" lon="-1.44953423179686069488525390625">
        <ele>734</ele>
        <time>2022-05-02T11:38:04.000Z</time>
      </trkpt>
      <trkpt lat="41.1282820813357830047607421875" lon="-1.4495152048766613006591796875">
        <ele>734</ele>
        <time>2022-05-02T11:38:05.000Z</time>
      </trkpt>
      <trkpt lat="41.1282455362379550933837890625" lon="-1.44949533976614475250244140625">
        <ele>734</ele>
        <time>2022-05-02T11:38:06.000Z</time>
      </trkpt>
      <trkpt lat="41.1281747929751873016357421875" lon="-1.44945745356380939483642578125">
        <ele>734</ele>
        <time>2022-05-02T11:38:08.000Z</time>
      </trkpt>
      <trkpt lat="41.12813715822994709014892578125" lon="-1.4494387619197368621826171875">
        <ele>734</ele>
        <time>2022-05-02T11:38:09.000Z</time>
      </trkpt>
      <trkpt lat="41.1281003616750240325927734375" lon="-1.44941856153309345245361328125">
        <ele>734</ele>
        <time>2022-05-02T11:38:10.000Z</time>
      </trkpt>
      <trkpt lat="41.12802349962294101715087890625" lon="-1.449374891817569732666015625">
        <ele>733.79998779296875</ele>
        <time>2022-05-02T11:38:12.000Z</time>
      </trkpt>
      <trkpt lat="41.12794362008571624755859375" lon="-1.4493281207978725433349609375">
        <ele>733.20001220703125</ele>
        <time>2022-05-02T11:38:14.000Z</time>
      </trkpt>
      <trkpt lat="41.127903051674365997314453125" lon="-1.44930507056415081024169921875">
        <ele>732.79998779296875</ele>
        <time>2022-05-02T11:38:15.000Z</time>
      </trkpt>
      <trkpt lat="41.127862818539142608642578125" lon="-1.44928009249269962310791015625">
        <ele>732.20001220703125</ele>
        <time>2022-05-02T11:38:16.000Z</time>
      </trkpt>
      <trkpt lat="41.12778578884899616241455078125" lon="-1.44923415966331958770751953125">
        <ele>731.5999755859375</ele>
        <time>2022-05-02T11:38:18.000Z</time>
      </trkpt>
      <trkpt lat="41.1277489922940731048583984375" lon="-1.44920901395380496978759765625">
        <ele>731.4000244140625</ele>
        <time>2022-05-02T11:38:19.000Z</time>
      </trkpt>
      <trkpt lat="41.12771253101527690887451171875" lon="-1.44918168894946575164794921875">
        <ele>731.20001220703125</ele>
        <time>2022-05-02T11:38:20.000Z</time>
      </trkpt>
      <trkpt lat="41.12767674028873443603515625" lon="-1.44915520213544368743896484375">
        <ele>731</ele>
        <time>2022-05-02T11:38:21.000Z</time>
      </trkpt>
      <trkpt lat="41.12764094956219196319580078125" lon="-1.4491289667785167694091796875">
        <ele>730.5999755859375</ele>
        <time>2022-05-02T11:38:22.000Z</time>
      </trkpt>
      <trkpt lat="41.1275662668049335479736328125" lon="-1.44906518049538135528564453125">
        <ele>729.5999755859375</ele>
        <time>2022-05-02T11:38:24.000Z</time>
      </trkpt>
      <trkpt lat="41.1274951882660388946533203125" lon="-1.4490008912980556488037109375">
        <ele>729.20001220703125</ele>
        <time>2022-05-02T11:38:26.000Z</time>
      </trkpt>
      <trkpt lat="41.12741924822330474853515625" lon="-1.44893811084330081939697265625">
        <ele>729.5999755859375</ele>
        <time>2022-05-02T11:38:28.000Z</time>
      </trkpt>
      <trkpt lat="41.1273439787328243255615234375" lon="-1.44887189380824565887451171875">
        <ele>730.4000244140625</ele>
        <time>2022-05-02T11:38:30.000Z</time>
      </trkpt>
      <trkpt lat="41.127268373966217041015625" lon="-1.44879511557519435882568359375">
        <ele>731.20001220703125</ele>
        <time>2022-05-02T11:38:32.000Z</time>
      </trkpt>
      <trkpt lat="41.12719151191413402557373046875" lon="-1.44872252829372882843017578125">
        <ele>732</ele>
        <time>2022-05-02T11:38:34.000Z</time>
      </trkpt>
      <trkpt lat="41.1271525360643863677978515625" lon="-1.44868749193847179412841796875">
        <ele>732.4000244140625</ele>
        <time>2022-05-02T11:38:35.000Z</time>
      </trkpt>
      <trkpt lat="41.1271143145859241485595703125" lon="-1.44865061156451702117919921875">
        <ele>732.79998779296875</ele>
        <time>2022-05-02T11:38:36.000Z</time>
      </trkpt>
      <trkpt lat="41.127042062580585479736328125" lon="-1.44857190549373626708984375">
        <ele>733.20001220703125</ele>
        <time>2022-05-02T11:38:38.000Z</time>
      </trkpt>
      <trkpt lat="41.12698213197290897369384765625" lon="-1.448490433394908905029296875">
        <ele>733.4000244140625</ele>
        <time>2022-05-02T11:38:40.000Z</time>
      </trkpt>
      <trkpt lat="41.12692278809845447540283203125" lon="-1.44840870983898639678955078125">
        <ele>734</ele>
        <time>2022-05-02T11:38:42.000Z</time>
      </trkpt>
      <trkpt lat="41.12686880864202976226806640625" lon="-1.448326148092746734619140625">
        <ele>734.79998779296875</ele>
        <time>2022-05-02T11:38:44.000Z</time>
      </trkpt>
      <trkpt lat="41.12681633792817592620849609375" lon="-1.44823805429041385650634765625">
        <ele>734.79998779296875</ele>
        <time>2022-05-02T11:38:46.000Z</time>
      </trkpt>
      <trkpt lat="41.12679387442767620086669921875" lon="-1.4481955580413341522216796875">
        <ele>734.79998779296875</ele>
        <time>2022-05-02T11:38:47.000Z</time>
      </trkpt>
      <trkpt lat="41.12677409313619136810302734375" lon="-1.44815239124000072479248046875">
        <ele>734.5999755859375</ele>
        <time>2022-05-02T11:38:48.000Z</time>
      </trkpt>
      <trkpt lat="41.12672681920230388641357421875" lon="-1.44807829521596431732177734375">
        <ele>734.79998779296875</ele>
        <time>2022-05-02T11:38:50.000Z</time>
      </trkpt>
      <trkpt lat="41.12668910063803195953369140625" lon="-1.44801132380962371826171875">
        <ele>734.79998779296875</ele>
        <time>2022-05-02T11:38:52.000Z</time>
      </trkpt>
      <trkpt lat="41.1266466043889522552490234375" lon="-1.447942256927490234375">
        <ele>734.5999755859375</ele>
        <time>2022-05-02T11:38:54.000Z</time>
      </trkpt>
      <trkpt lat="41.12658063881099224090576171875" lon="-1.44787319004535675048828125">
        <ele>734.5999755859375</ele>
        <time>2022-05-02T11:38:56.000Z</time>
      </trkpt>
      <trkpt lat="41.12654409371316432952880859375" lon="-1.4478364773094654083251953125">
        <ele>734.5999755859375</ele>
        <time>2022-05-02T11:38:57.000Z</time>
      </trkpt>
      <trkpt lat="41.12650805152952671051025390625" lon="-1.44779808819293975830078125">
        <ele>734.5999755859375</ele>
        <time>2022-05-02T11:38:58.000Z</time>
      </trkpt>
      <trkpt lat="41.12644233740866184234619140625" lon="-1.447711922228336334228515625">
        <ele>734.4000244140625</ele>
        <time>2022-05-02T11:39:00.000Z</time>
      </trkpt>
      <trkpt lat="41.12639321945607662200927734375" lon="-1.447610668838024139404296875">
        <ele>733.79998779296875</ele>
        <time>2022-05-02T11:39:02.000Z</time>
      </trkpt>
      <trkpt lat="41.1263726837933063507080078125" lon="-1.4475568570196628570556640625">
        <ele>733.5999755859375</ele>
        <time>2022-05-02T11:39:03.000Z</time>
      </trkpt>
      <trkpt lat="41.1263525672256946563720703125" lon="-1.44750765524804592132568359375">
        <ele>733.4000244140625</ele>
        <time>2022-05-02T11:39:04.000Z</time>
      </trkpt>
      <trkpt lat="41.126317195594310760498046875" lon="-1.44742333330214023590087890625">
        <ele>733.20001220703125</ele>
        <time>2022-05-02T11:39:06.000Z</time>
      </trkpt>
      <trkpt lat="41.1262804828584194183349609375" lon="-1.447332389652729034423828125">
        <ele>733</ele>
        <time>2022-05-02T11:39:08.000Z</time>
      </trkpt>
      <trkpt lat="41.1262496374547481536865234375" lon="-1.44724764861166477203369140625">
        <ele>732.5999755859375</ele>
        <time>2022-05-02T11:39:10.000Z</time>
      </trkpt>
      <trkpt lat="41.126215271651744842529296875" lon="-1.44716198556125164031982421875">
        <ele>732.5999755859375</ele>
        <time>2022-05-02T11:39:12.000Z</time>
      </trkpt>
      <trkpt lat="41.12616992555558681488037109375" lon="-1.44706743769347667694091796875">
        <ele>732.79998779296875</ele>
        <time>2022-05-02T11:39:14.000Z</time>
      </trkpt>
      <trkpt lat="41.12614109180867671966552734375" lon="-1.44701580516993999481201171875">
        <ele>732.79998779296875</ele>
        <time>2022-05-02T11:39:15.000Z</time>
      </trkpt>
      <trkpt lat="41.12610991112887859344482421875" lon="-1.44696635194122791290283203125">
        <ele>733</ele>
        <time>2022-05-02T11:39:16.000Z</time>
      </trkpt>
      <trkpt lat="41.1260457895696163177490234375" lon="-1.44686878658831119537353515625">
        <ele>733.4000244140625</ele>
        <time>2022-05-02T11:39:18.000Z</time>
      </trkpt>
      <trkpt lat="41.12598133273422718048095703125" lon="-1.44677080214023590087890625">
        <ele>733</ele>
        <time>2022-05-02T11:39:20.000Z</time>
      </trkpt>
      <trkpt lat="41.1259509064257144927978515625" lon="-1.44672377966344356536865234375">
        <ele>733</ele>
        <time>2022-05-02T11:39:21.000Z</time>
      </trkpt>
      <trkpt lat="41.12591645680367946624755859375" lon="-1.446680612862110137939453125">
        <ele>733</ele>
        <time>2022-05-02T11:39:22.000Z</time>
      </trkpt>
      <trkpt lat="41.1258476413786411285400390625" lon="-1.4465989731252193450927734375">
        <ele>733.79998779296875</ele>
        <time>2022-05-02T11:39:24.000Z</time>
      </trkpt>
      <trkpt lat="41.12577429972589015960693359375" lon="-1.4465228654444217681884765625">
        <ele>734.20001220703125</ele>
        <time>2022-05-02T11:39:26.000Z</time>
      </trkpt>
      <trkpt lat="41.12573591060936450958251953125" lon="-1.44648808054625988006591796875">
        <ele>734.4000244140625</ele>
        <time>2022-05-02T11:39:27.000Z</time>
      </trkpt>
      <trkpt lat="41.1256954260170459747314453125" lon="-1.44644801504909992218017578125">
        <ele>734.4000244140625</ele>
        <time>2022-05-02T11:39:28.000Z</time>
      </trkpt>
      <trkpt lat="41.12561588175594806671142578125" lon="-1.4463689737021923065185546875">
        <ele>734.79998779296875</ele>
        <time>2022-05-02T11:39:30.000Z</time>
      </trkpt>
      <trkpt lat="41.12553977407515048980712890625" lon="-1.44628473557531833648681640625">
        <ele>735.5999755859375</ele>
        <time>2022-05-02T11:39:32.000Z</time>
      </trkpt>
      <trkpt lat="41.1255016364157199859619140625" lon="-1.44624249078333377838134765625">
        <ele>736.20001220703125</ele>
        <time>2022-05-02T11:39:33.000Z</time>
      </trkpt>
      <trkpt lat="41.125464253127574920654296875" lon="-1.44620007835328578948974609375">
        <ele>736.5999755859375</ele>
        <time>2022-05-02T11:39:34.000Z</time>
      </trkpt>
      <trkpt lat="41.12538269720971584320068359375" lon="-1.4461205340921878814697265625">
        <ele>737</ele>
        <time>2022-05-02T11:39:36.000Z</time>
      </trkpt>
      <trkpt lat="41.1253011412918567657470703125" lon="-1.4460434205830097198486328125">
        <ele>737.4000244140625</ele>
        <time>2022-05-02T11:39:38.000Z</time>
      </trkpt>
      <trkpt lat="41.12526266835629940032958984375" lon="-1.44600276835262775421142578125">
        <ele>737.5999755859375</ele>
        <time>2022-05-02T11:39:39.000Z</time>
      </trkpt>
      <trkpt lat="41.1252230219542980194091796875" lon="-1.44596504978835582733154296875">
        <ele>738</ele>
        <time>2022-05-02T11:39:40.000Z</time>
      </trkpt>
      <trkpt lat="41.125143058598041534423828125" lon="-1.44589430652558803558349609375">
        <ele>738.4000244140625</ele>
        <time>2022-05-02T11:39:42.000Z</time>
      </trkpt>
      <trkpt lat="41.12510240636765956878662109375" lon="-1.44586044363677501678466796875">
        <ele>738.4000244140625</ele>
        <time>2022-05-02T11:39:43.000Z</time>
      </trkpt>
      <trkpt lat="41.12506049685180187225341796875" lon="-1.4458362199366092681884765625">
        <ele>738.20001220703125</ele>
        <time>2022-05-02T11:39:44.000Z</time>
      </trkpt>
      <trkpt lat="41.1250158213078975677490234375" lon="-1.44581618718802928924560546875">
        <ele>737.79998779296875</ele>
        <time>2022-05-02T11:39:45.000Z</time>
      </trkpt>
      <trkpt lat="41.124971397221088409423828125" lon="-1.44579489715397357940673828125">
        <ele>737.5999755859375</ele>
        <time>2022-05-02T11:39:46.000Z</time>
      </trkpt>
      <trkpt lat="41.1248786933720111846923828125" lon="-1.44574661739170551300048828125">
        <ele>737.20001220703125</ele>
        <time>2022-05-02T11:39:48.000Z</time>
      </trkpt>
      <trkpt lat="41.12478456459939479827880859375" lon="-1.4457000978291034698486328125">
        <ele>736.5999755859375</ele>
        <time>2022-05-02T11:39:50.000Z</time>
      </trkpt>
      <trkpt lat="41.12473980523645877838134765625" lon="-1.44567118026316165924072265625">
        <ele>736.4000244140625</ele>
        <time>2022-05-02T11:39:51.000Z</time>
      </trkpt>
      <trkpt lat="41.124695800244808197021484375" lon="-1.44563815556466579437255859375">
        <ele>735.79998779296875</ele>
        <time>2022-05-02T11:39:52.000Z</time>
      </trkpt>
      <trkpt lat="41.12461525015532970428466796875" lon="-1.4455710165202617645263671875">
        <ele>735</ele>
        <time>2022-05-02T11:39:54.000Z</time>
      </trkpt>
      <trkpt lat="41.1245350353419780731201171875" lon="-1.44551192410290241241455078125">
        <ele>734.5999755859375</ele>
        <time>2022-05-02T11:39:56.000Z</time>
      </trkpt>
      <trkpt lat="41.124459765851497650146484375" lon="-1.4454476349055767059326171875">
        <ele>734</ele>
        <time>2022-05-02T11:39:58.000Z</time>
      </trkpt>
      <trkpt lat="41.12438835203647613525390625" lon="-1.44538602791726589202880859375">
        <ele>733.20001220703125</ele>
        <time>2022-05-02T11:40:00.000Z</time>
      </trkpt>
      <trkpt lat="41.12430897541344165802001953125" lon="-1.44532048143446445465087890625">
        <ele>732.4000244140625</ele>
        <time>2022-05-02T11:40:02.000Z</time>
      </trkpt>
      <trkpt lat="41.12422934733331203460693359375" lon="-1.4452551864087581634521484375">
        <ele>732.4000244140625</ele>
        <time>2022-05-02T11:40:04.000Z</time>
      </trkpt>
      <trkpt lat="41.1241514794528484344482421875" lon="-1.44518620334565639495849609375">
        <ele>732.5999755859375</ele>
        <time>2022-05-02T11:40:06.000Z</time>
      </trkpt>
      <trkpt lat="41.12407025881111621856689453125" lon="-1.4451187290251255035400390625">
        <ele>732.4000244140625</ele>
        <time>2022-05-02T11:40:08.000Z</time>
      </trkpt>
      <trkpt lat="41.12398895435035228729248046875" lon="-1.44505209289491176605224609375">
        <ele>732.20001220703125</ele>
        <time>2022-05-02T11:40:10.000Z</time>
      </trkpt>
      <trkpt lat="41.12391703762114048004150390625" lon="-1.44498570822179317474365234375">
        <ele>732</ele>
        <time>2022-05-02T11:40:12.000Z</time>
      </trkpt>
      <trkpt lat="41.12387948669493198394775390625" lon="-1.44495452754199504852294921875">
        <ele>732</ele>
        <time>2022-05-02T11:40:13.000Z</time>
      </trkpt>
      <trkpt lat="41.12384126521646976470947265625" lon="-1.44492234103381633758544921875">
        <ele>732</ele>
        <time>2022-05-02T11:40:14.000Z</time>
      </trkpt>
      <trkpt lat="41.12376884557306766510009765625" lon="-1.44485612399876117706298828125">
        <ele>732</ele>
        <time>2022-05-02T11:40:16.000Z</time>
      </trkpt>
      <trkpt lat="41.12369810231029987335205078125" lon="-1.44478705711662769317626953125">
        <ele>732.4000244140625</ele>
        <time>2022-05-02T11:40:18.000Z</time>
      </trkpt>
      <trkpt lat="41.12361721694469451904296875" lon="-1.44472100771963596343994140625">
        <ele>733.20001220703125</ele>
        <time>2022-05-02T11:40:20.000Z</time>
      </trkpt>
      <trkpt lat="41.1235332302749156951904296875" lon="-1.44465328194200992584228515625">
        <ele>734</ele>
        <time>2022-05-02T11:40:22.000Z</time>
      </trkpt>
      <trkpt lat="41.1234507523477077484130859375" lon="-1.44459150731563568115234375">
        <ele>734.5999755859375</ele>
        <time>2022-05-02T11:40:24.000Z</time>
      </trkpt>
      <trkpt lat="41.1233686096966266632080078125" lon="-1.44453895278275012969970703125">
        <ele>735</ele>
        <time>2022-05-02T11:40:26.000Z</time>
      </trkpt>
      <trkpt lat="41.12329292111098766326904296875" lon="-1.44449117593467235565185546875">
        <ele>735</ele>
        <time>2022-05-02T11:40:28.000Z</time>
      </trkpt>
      <trkpt lat="41.123213879764080047607421875" lon="-1.44444205798208713531494140625">
        <ele>735</ele>
        <time>2022-05-02T11:40:30.000Z</time>
      </trkpt>
      <trkpt lat="41.12313081510365009307861328125" lon="-1.444392688572406768798828125">
        <ele>735.4000244140625</ele>
        <time>2022-05-02T11:40:32.000Z</time>
      </trkpt>
      <trkpt lat="41.12309276126325130462646484375" lon="-1.44436662085354328155517578125">
        <ele>735.4000244140625</ele>
        <time>2022-05-02T11:40:33.000Z</time>
      </trkpt>
      <trkpt lat="41.1230534501373767852783203125" lon="-1.44433535635471343994140625">
        <ele>735.5999755859375</ele>
        <time>2022-05-02T11:40:34.000Z</time>
      </trkpt>
      <trkpt lat="41.12301212735474109649658203125" lon="-1.44430459477007389068603515625">
        <ele>735.79998779296875</ele>
        <time>2022-05-02T11:40:35.000Z</time>
      </trkpt>
      <trkpt lat="41.12297323532402515411376953125" lon="-1.4442805387079715728759765625">
        <ele>736</ele>
        <time>2022-05-02T11:40:36.000Z</time>
      </trkpt>
      <trkpt lat="41.122900731861591339111328125" lon="-1.44422798417508602142333984375">
        <ele>736.20001220703125</ele>
        <time>2022-05-02T11:40:38.000Z</time>
      </trkpt>
      <trkpt lat="41.122830323874950408935546875" lon="-1.4441809616982936859130859375">
        <ele>736.4000244140625</ele>
        <time>2022-05-02T11:40:40.000Z</time>
      </trkpt>
      <trkpt lat="41.122765950858592987060546875" lon="-1.4441293291747570037841796875">
        <ele>736.5999755859375</ele>
        <time>2022-05-02T11:40:42.000Z</time>
      </trkpt>
      <trkpt lat="41.12271599471569061279296875" lon="-1.4440988190472126007080078125">
        <ele>736.5999755859375</ele>
        <time>2022-05-02T11:40:44.000Z</time>
      </trkpt>
      <trkpt lat="41.12267978489398956298828125" lon="-1.44408415071666240692138671875">
        <ele>736.79998779296875</ele>
        <time>2022-05-02T11:40:46.000Z</time>
      </trkpt>
      <trkpt lat="41.1226514540612697601318359375" lon="-1.44407107494771480560302734375">
        <ele>736.79998779296875</ele>
        <time>2022-05-02T11:40:48.000Z</time>
      </trkpt>
      <trkpt lat="41.12263619899749755859375" lon="-1.44405682571232318878173828125">
        <ele>736.5999755859375</ele>
        <time>2022-05-02T11:40:49.000Z</time>
      </trkpt>
      <trkpt lat="41.12261943519115447998046875" lon="-1.44404701888561248779296875">
        <ele>736.5999755859375</ele>
        <time>2022-05-02T11:40:50.000Z</time>
      </trkpt>
      <trkpt lat="41.1225817166268825531005859375" lon="-1.44403318874537944793701171875">
        <ele>736.5999755859375</ele>
        <time>2022-05-02T11:40:52.000Z</time>
      </trkpt>
      <trkpt lat="41.1225543916225433349609375" lon="-1.444013155996799468994140625">
        <ele>736.5999755859375</ele>
        <time>2022-05-02T11:40:54.000Z</time>
      </trkpt>
      <trkpt lat="41.12252061255276203155517578125" lon="-1.4439871720969676971435546875">
        <ele>736.4000244140625</ele>
        <time>2022-05-02T11:40:56.000Z</time>
      </trkpt>
      <trkpt lat="41.12248339690268039703369140625" lon="-1.44397300668060779571533203125">
        <ele>736.4000244140625</ele>
        <time>2022-05-02T11:40:58.000Z</time>
      </trkpt>
      <trkpt lat="41.12244785763323307037353515625" lon="-1.44395121373236179351806640625">
        <ele>736.20001220703125</ele>
        <time>2022-05-02T11:41:00.000Z</time>
      </trkpt>
      <trkpt lat="41.12239010632038116455078125" lon="-1.443909890949726104736328125">
        <ele>736.20001220703125</ele>
        <time>2022-05-02T11:41:02.000Z</time>
      </trkpt>
      <trkpt lat="41.12231156788766384124755859375" lon="-1.44384459592401981353759765625">
        <ele>735.79998779296875</ele>
        <time>2022-05-02T11:41:04.000Z</time>
      </trkpt>
      <trkpt lat="41.1222330294549465179443359375" lon="-1.44374585710465908050537109375">
        <ele>735.5999755859375</ele>
        <time>2022-05-02T11:41:06.000Z</time>
      </trkpt>
      <trkpt lat="41.12216102890670299530029296875" lon="-1.44364544190466403961181640625">
        <ele>735.20001220703125</ele>
        <time>2022-05-02T11:41:08.000Z</time>
      </trkpt>
      <trkpt lat="41.1220945604145526885986328125" lon="-1.44354879856109619140625">
        <ele>734.79998779296875</ele>
        <time>2022-05-02T11:41:10.000Z</time>
      </trkpt>
      <trkpt lat="41.12204351462423801422119140625" lon="-1.4434604533016681671142578125">
        <ele>734.5999755859375</ele>
        <time>2022-05-02T11:41:12.000Z</time>
      </trkpt>
      <trkpt lat="41.12200663425028324127197265625" lon="-1.4433682523667812347412109375">
        <ele>734.4000244140625</ele>
        <time>2022-05-02T11:41:14.000Z</time>
      </trkpt>
      <trkpt lat="41.12199037335813045501708984375" lon="-1.4433194696903228759765625">
        <ele>734.4000244140625</ele>
        <time>2022-05-02T11:41:15.000Z</time>
      </trkpt>
      <trkpt lat="41.121968664228916168212890625" lon="-1.44327328540384769439697265625">
        <ele>734.5999755859375</ele>
        <time>2022-05-02T11:41:16.000Z</time>
      </trkpt>
      <trkpt lat="41.12191728316247463226318359375" lon="-1.44318024627864360809326171875">
        <ele>734.79998779296875</ele>
        <time>2022-05-02T11:41:18.000Z</time>
      </trkpt>
      <trkpt lat="41.12186037003993988037109375" lon="-1.4430869556963443756103515625">
        <ele>735</ele>
        <time>2022-05-02T11:41:20.000Z</time>
      </trkpt>
      <trkpt lat="41.121797002851963043212890625" lon="-1.443003974854946136474609375">
        <ele>735</ele>
        <time>2022-05-02T11:41:22.000Z</time>
      </trkpt>
      <trkpt lat="41.12173698842525482177734375" lon="-1.4429270289838314056396484375">
        <ele>735</ele>
        <time>2022-05-02T11:41:24.000Z</time>
      </trkpt>
      <trkpt lat="41.1216714419424533843994140625" lon="-1.442855782806873321533203125">
        <ele>735.20001220703125</ele>
        <time>2022-05-02T11:41:26.000Z</time>
      </trkpt>
      <trkpt lat="41.12160581164062023162841796875" lon="-1.4427831955254077911376953125">
        <ele>735.79998779296875</ele>
        <time>2022-05-02T11:41:28.000Z</time>
      </trkpt>
      <trkpt lat="41.121535487473011016845703125" lon="-1.4427137933671474456787109375">
        <ele>736.20001220703125</ele>
        <time>2022-05-02T11:41:30.000Z</time>
      </trkpt>
      <trkpt lat="41.12150338478386402130126953125" lon="-1.44268152303993701934814453125">
        <ele>736.20001220703125</ele>
        <time>2022-05-02T11:41:31.000Z</time>
      </trkpt>
      <trkpt lat="41.12147438339889049530029296875" lon="-1.4426504261791706085205078125">
        <ele>736.4000244140625</ele>
        <time>2022-05-02T11:41:32.000Z</time>
      </trkpt>
      <trkpt lat="41.1214478127658367156982421875" lon="-1.44262142479419708251953125">
        <ele>736.5999755859375</ele>
        <time>2022-05-02T11:41:33.000Z</time>
      </trkpt>
      <trkpt lat="41.1214206553995609283447265625" lon="-1.44259787164628505706787109375">
        <ele>736.5999755859375</ele>
        <time>2022-05-02T11:41:34.000Z</time>
      </trkpt>
      <trkpt lat="41.1213693581521511077880859375" lon="-1.44254640676081180572509765625">
        <ele>737.20001220703125</ele>
        <time>2022-05-02T11:41:36.000Z</time>
      </trkpt>
      <trkpt lat="41.1213147081434726715087890625" lon="-1.4424955286085605621337890625">
        <ele>737.79998779296875</ele>
        <time>2022-05-02T11:41:38.000Z</time>
      </trkpt>
      <trkpt lat="41.1212577112019062042236328125" lon="-1.4424479193985462188720703125">
        <ele>738</ele>
        <time>2022-05-02T11:41:40.000Z</time>
      </trkpt>
      <trkpt lat="41.1212272010743618011474609375" lon="-1.44242268986999988555908203125">
        <ele>738</ele>
        <time>2022-05-02T11:41:41.000Z</time>
      </trkpt>
      <trkpt lat="41.12119727768003940582275390625" lon="-1.44239737652242183685302734375">
        <ele>738</ele>
        <time>2022-05-02T11:41:42.000Z</time>
      </trkpt>
      <trkpt lat="41.1211396940052509307861328125" lon="-1.44234255887567996978759765625">
        <ele>738</ele>
        <time>2022-05-02T11:41:44.000Z</time>
      </trkpt>
      <trkpt lat="41.1210823617875576019287109375" lon="-1.44228053279221057891845703125">
        <ele>737.5999755859375</ele>
        <time>2022-05-02T11:41:46.000Z</time>
      </trkpt>
      <trkpt lat="41.121030561625957489013671875" lon="-1.44222202710807323455810546875">
        <ele>737.20001220703125</ele>
        <time>2022-05-02T11:41:48.000Z</time>
      </trkpt>
      <trkpt lat="41.12098085694015026092529296875" lon="-1.44217106513679027557373046875">
        <ele>736.5999755859375</ele>
        <time>2022-05-02T11:41:50.000Z</time>
      </trkpt>
      <trkpt lat="41.1209324933588504791259765625" lon="-1.442115493118762969970703125">
        <ele>735.79998779296875</ele>
        <time>2022-05-02T11:41:52.000Z</time>
      </trkpt>
      <trkpt lat="41.1208838783204555511474609375" lon="-1.44203611649572849273681640625">
        <ele>735</ele>
        <time>2022-05-02T11:41:54.000Z</time>
      </trkpt>
      <trkpt lat="41.1208275519311428070068359375" lon="-1.44195682369172573089599609375">
        <ele>734.4000244140625</ele>
        <time>2022-05-02T11:41:56.000Z</time>
      </trkpt>
      <trkpt lat="41.12077013589441776275634765625" lon="-1.44188591279089450836181640625">
        <ele>734</ele>
        <time>2022-05-02T11:41:58.000Z</time>
      </trkpt>
      <trkpt lat="41.120739541947841644287109375" lon="-1.44185070879757404327392578125">
        <ele>734</ele>
        <time>2022-05-02T11:41:59.000Z</time>
      </trkpt>
      <trkpt lat="41.12070911563932895660400390625" lon="-1.4418176002800464630126953125">
        <ele>734.20001220703125</ele>
        <time>2022-05-02T11:42:00.000Z</time>
      </trkpt>
      <trkpt lat="41.12064809538424015045166015625" lon="-1.44175264053046703338623046875">
        <ele>734.5999755859375</ele>
        <time>2022-05-02T11:42:02.000Z</time>
      </trkpt>
      <trkpt lat="41.1205881647765636444091796875" lon="-1.44168273545801639556884765625">
        <ele>735</ele>
        <time>2022-05-02T11:42:04.000Z</time>
      </trkpt>
      <trkpt lat="41.12052840180695056915283203125" lon="-1.44161249510943889617919921875">
        <ele>735.4000244140625</ele>
        <time>2022-05-02T11:42:06.000Z</time>
      </trkpt>
      <trkpt lat="41.120465956628322601318359375" lon="-1.44154124893248081207275390625">
        <ele>735.5999755859375</ele>
        <time>2022-05-02T11:42:08.000Z</time>
      </trkpt>
      <trkpt lat="41.120437793433666229248046875" lon="-1.441502273082733154296875">
        <ele>735.5999755859375</ele>
        <time>2022-05-02T11:42:09.000Z</time>
      </trkpt>
      <trkpt lat="41.12040937878191471099853515625" lon="-1.44146229140460491180419921875">
        <ele>735.79998779296875</ele>
        <time>2022-05-02T11:42:10.000Z</time>
      </trkpt>
      <trkpt lat="41.12034869380295276641845703125" lon="-1.44138568080961704254150390625">
        <ele>736.4000244140625</ele>
        <time>2022-05-02T11:42:12.000Z</time>
      </trkpt>
      <trkpt lat="41.120289266109466552734375" lon="-1.4413120038807392120361328125">
        <ele>737</ele>
        <time>2022-05-02T11:42:14.000Z</time>
      </trkpt>
      <trkpt lat="41.1202294193208217620849609375" lon="-1.4412412606179714202880859375">
        <ele>737.79998779296875</ele>
        <time>2022-05-02T11:42:16.000Z</time>
      </trkpt>
      <trkpt lat="41.12016781233251094818115234375" lon="-1.44117227755486965179443359375">
        <ele>738.4000244140625</ele>
        <time>2022-05-02T11:42:18.000Z</time>
      </trkpt>
      <trkpt lat="41.12011048011481761932373046875" lon="-1.44111000001430511474609375">
        <ele>738.4000244140625</ele>
        <time>2022-05-02T11:42:20.000Z</time>
      </trkpt>
      <trkpt lat="41.12004443071782588958740234375" lon="-1.4410441182553768157958984375">
        <ele>738.5999755859375</ele>
        <time>2022-05-02T11:42:22.000Z</time>
      </trkpt>
      <trkpt lat="41.12000964581966400146484375" lon="-1.44100715406239032745361328125">
        <ele>738.5999755859375</ele>
        <time>2022-05-02T11:42:23.000Z</time>
      </trkpt>
      <trkpt lat="41.1199752800166606903076171875" lon="-1.44096993841230869293212890625">
        <ele>738.5999755859375</ele>
        <time>2022-05-02T11:42:24.000Z</time>
      </trkpt>
      <trkpt lat="41.11990369856357574462890625" lon="-1.44090992398560047149658203125">
        <ele>738.5999755859375</ele>
        <time>2022-05-02T11:42:26.000Z</time>
      </trkpt>
      <trkpt lat="41.119834296405315399169921875" lon="-1.4408590458333492279052734375">
        <ele>738.79998779296875</ele>
        <time>2022-05-02T11:42:28.000Z</time>
      </trkpt>
      <trkpt lat="41.1198049597442150115966796875" lon="-1.44083197228610515594482421875">
        <ele>738.79998779296875</ele>
        <time>2022-05-02T11:42:29.000Z</time>
      </trkpt>
      <trkpt lat="41.11977704800665378570556640625" lon="-1.44080112688243389129638671875">
        <ele>738.79998779296875</ele>
        <time>2022-05-02T11:42:30.000Z</time>
      </trkpt>
      <trkpt lat="41.11972658894956111907958984375" lon="-1.44073373638093471527099609375">
        <ele>739</ele>
        <time>2022-05-02T11:42:32.000Z</time>
      </trkpt>
      <trkpt lat="41.11968484707176685333251953125" lon="-1.4406639151275157928466796875">
        <ele>739</ele>
        <time>2022-05-02T11:42:34.000Z</time>
      </trkpt>
      <trkpt lat="41.119665317237377166748046875" lon="-1.44062720239162445068359375">
        <ele>739</ele>
        <time>2022-05-02T11:42:35.000Z</time>
      </trkpt>
      <trkpt lat="41.1196441948413848876953125" lon="-1.4405894838273525238037109375">
        <ele>739</ele>
        <time>2022-05-02T11:42:36.000Z</time>
      </trkpt>
      <trkpt lat="41.11959935165941715240478515625" lon="-1.440516896545886993408203125">
        <ele>739</ele>
        <time>2022-05-02T11:42:38.000Z</time>
      </trkpt>
      <trkpt lat="41.11954973079264163970947265625" lon="-1.4404238574206829071044921875">
        <ele>738.79998779296875</ele>
        <time>2022-05-02T11:42:40.000Z</time>
      </trkpt>
      <trkpt lat="41.11949407495558261871337890625" lon="-1.4403239451348781585693359375">
        <ele>738.5999755859375</ele>
        <time>2022-05-02T11:42:42.000Z</time>
      </trkpt>
      <trkpt lat="41.11943573690950870513916015625" lon="-1.44021489657461643218994140625">
        <ele>738.5999755859375</ele>
        <time>2022-05-02T11:42:44.000Z</time>
      </trkpt>
      <trkpt lat="41.1193759739398956298828125" lon="-1.440108530223369598388671875">
        <ele>738.4000244140625</ele>
        <time>2022-05-02T11:42:46.000Z</time>
      </trkpt>
      <trkpt lat="41.1193164624273777008056640625" lon="-1.44000300206243991851806640625">
        <ele>738</ele>
        <time>2022-05-02T11:42:48.000Z</time>
      </trkpt>
      <trkpt lat="41.11928679049015045166015625" lon="-1.4399517886340618133544921875">
        <ele>738</ele>
        <time>2022-05-02T11:42:49.000Z</time>
      </trkpt>
      <trkpt lat="41.11925938166677951812744140625" lon="-1.4398984797298908233642578125">
        <ele>738</ele>
        <time>2022-05-02T11:42:50.000Z</time>
      </trkpt>
      <trkpt lat="41.1192017979919910430908203125" lon="-1.43979630433022975921630859375">
        <ele>738.20001220703125</ele>
        <time>2022-05-02T11:42:52.000Z</time>
      </trkpt>
      <trkpt lat="41.1191397719085216522216796875" lon="-1.4397006668150424957275390625">
        <ele>738.79998779296875</ele>
        <time>2022-05-02T11:42:54.000Z</time>
      </trkpt>
      <trkpt lat="41.1191069148480892181396484375" lon="-1.439653225243091583251953125">
        <ele>738.79998779296875</ele>
        <time>2022-05-02T11:42:55.000Z</time>
      </trkpt>
      <trkpt lat="41.11907481215894222259521484375" lon="-1.4396031014621257781982421875">
        <ele>739.20001220703125</ele>
        <time>2022-05-02T11:42:56.000Z</time>
      </trkpt>
      <trkpt lat="41.11901446245610713958740234375" lon="-1.43950561992824077606201171875">
        <ele>739.4000244140625</ele>
        <time>2022-05-02T11:42:58.000Z</time>
      </trkpt>
      <trkpt lat="41.11895612441003322601318359375" lon="-1.4393972419202327728271484375">
        <ele>740.4000244140625</ele>
        <time>2022-05-02T11:43:00.000Z</time>
      </trkpt>
      <trkpt lat="41.11889527179300785064697265625" lon="-1.43929422833025455474853515625">
        <ele>741.20001220703125</ele>
        <time>2022-05-02T11:43:02.000Z</time>
      </trkpt>
      <trkpt lat="41.1188328266143798828125" lon="-1.43919968046247959136962890625">
        <ele>742.20001220703125</ele>
        <time>2022-05-02T11:43:04.000Z</time>
      </trkpt>
      <trkpt lat="41.1187716387212276458740234375" lon="-1.43910278566181659698486328125">
        <ele>743.20001220703125</ele>
        <time>2022-05-02T11:43:06.000Z</time>
      </trkpt>
      <trkpt lat="41.11871279776096343994140625" lon="-1.439005471765995025634765625">
        <ele>743.20001220703125</ele>
        <time>2022-05-02T11:43:08.000Z</time>
      </trkpt>
      <trkpt lat="41.11868186853826045989990234375" lon="-1.43895794637501239776611328125">
        <ele>743.4000244140625</ele>
        <time>2022-05-02T11:43:09.000Z</time>
      </trkpt>
      <trkpt lat="41.1186495982110500335693359375" lon="-1.43891151063144207000732421875">
        <ele>743.4000244140625</ele>
        <time>2022-05-02T11:43:10.000Z</time>
      </trkpt>
      <trkpt lat="41.11858329735696315765380859375" lon="-1.43881562165915966033935546875">
        <ele>743.20001220703125</ele>
        <time>2022-05-02T11:43:12.000Z</time>
      </trkpt>
      <trkpt lat="41.11851540394127368927001953125" lon="-1.4387169666588306427001953125">
        <ele>743</ele>
        <time>2022-05-02T11:43:14.000Z</time>
      </trkpt>
      <trkpt lat="41.1184447444975376129150390625" lon="-1.43861697055399417877197265625">
        <ele>742.79998779296875</ele>
        <time>2022-05-02T11:43:16.000Z</time>
      </trkpt>
      <trkpt lat="41.11841239035129547119140625" lon="-1.438567601144313812255859375">
        <ele>742.5999755859375</ele>
        <time>2022-05-02T11:43:17.000Z</time>
      </trkpt>
      <trkpt lat="41.11838179640471935272216796875" lon="-1.43851789645850658416748046875">
        <ele>742.20001220703125</ele>
        <time>2022-05-02T11:43:18.000Z</time>
      </trkpt>
      <trkpt lat="41.11831708811223506927490234375" lon="-1.43841949291527271270751953125">
        <ele>741.5999755859375</ele>
        <time>2022-05-02T11:43:20.000Z</time>
      </trkpt>
      <trkpt lat="41.11825556494295597076416015625" lon="-1.4383189938962459564208984375">
        <ele>741.20001220703125</ele>
        <time>2022-05-02T11:43:22.000Z</time>
      </trkpt>
      <trkpt lat="41.118192784488201141357421875" lon="-1.43822805024683475494384765625">
        <ele>740.5999755859375</ele>
        <time>2022-05-02T11:43:24.000Z</time>
      </trkpt>
      <trkpt lat="41.11816051416099071502685546875" lon="-1.4381862245500087738037109375">
        <ele>740.5999755859375</ele>
        <time>2022-05-02T11:43:25.000Z</time>
      </trkpt>
      <trkpt lat="41.11812950111925601959228515625" lon="-1.43814255483448505401611328125">
        <ele>740.4000244140625</ele>
        <time>2022-05-02T11:43:26.000Z</time>
      </trkpt>
      <trkpt lat="41.118067391216754913330078125" lon="-1.4380504377186298370361328125">
        <ele>740</ele>
        <time>2022-05-02T11:43:28.000Z</time>
      </trkpt>
      <trkpt lat="41.11800310201942920684814453125" lon="-1.43795228563249111175537109375">
        <ele>739.4000244140625</ele>
        <time>2022-05-02T11:43:30.000Z</time>
      </trkpt>
      <trkpt lat="41.117937304079532623291015625" lon="-1.43785404972732067108154296875">
        <ele>738.5999755859375</ele>
        <time>2022-05-02T11:43:32.000Z</time>
      </trkpt>
      <trkpt lat="41.11787066794931888580322265625" lon="-1.43775665201246738433837890625">
        <ele>738.20001220703125</ele>
        <time>2022-05-02T11:43:34.000Z</time>
      </trkpt>
      <trkpt lat="41.11780646257102489471435546875" lon="-1.43766243942081928253173828125">
        <ele>738.20001220703125</ele>
        <time>2022-05-02T11:43:36.000Z</time>
      </trkpt>
      <trkpt lat="41.11774477176368236541748046875" lon="-1.43756621517241001129150390625">
        <ele>738</ele>
        <time>2022-05-02T11:43:38.000Z</time>
      </trkpt>
      <trkpt lat="41.1176826618611812591552734375" lon="-1.43746999092400074005126953125">
        <ele>738</ele>
        <time>2022-05-02T11:43:40.000Z</time>
      </trkpt>
      <trkpt lat="41.11761686392128467559814453125" lon="-1.437377035617828369140625">
        <ele>737.5999755859375</ele>
        <time>2022-05-02T11:43:42.000Z</time>
      </trkpt>
      <trkpt lat="41.11755232326686382293701171875" lon="-1.437278129160404205322265625">
        <ele>737.4000244140625</ele>
        <time>2022-05-02T11:43:44.000Z</time>
      </trkpt>
      <trkpt lat="41.11748040653765201568603515625" lon="-1.43718349747359752655029296875">
        <ele>737.79998779296875</ele>
        <time>2022-05-02T11:43:46.000Z</time>
      </trkpt>
      <trkpt lat="41.11740924417972564697265625" lon="-1.43709448166191577911376953125">
        <ele>738</ele>
        <time>2022-05-02T11:43:48.000Z</time>
      </trkpt>
      <trkpt lat="41.1173359863460063934326171875" lon="-1.4369996823370456695556640625">
        <ele>738.20001220703125</ele>
        <time>2022-05-02T11:43:50.000Z</time>
      </trkpt>
      <trkpt lat="41.11726398579776287078857421875" lon="-1.43691234290599822998046875">
        <ele>738.4000244140625</ele>
        <time>2022-05-02T11:43:52.000Z</time>
      </trkpt>
      <trkpt lat="41.1171934939920902252197265625" lon="-1.4368350617587566375732421875">
        <ele>738.79998779296875</ele>
        <time>2022-05-02T11:43:54.000Z</time>
      </trkpt>
      <trkpt lat="41.1171210743486881256103515625" lon="-1.4367535896599292755126953125">
        <ele>739</ele>
        <time>2022-05-02T11:43:56.000Z</time>
      </trkpt>
      <trkpt lat="41.117053516209125518798828125" lon="-1.436677984893321990966796875">
        <ele>739.20001220703125</ele>
        <time>2022-05-02T11:43:58.000Z</time>
      </trkpt>
      <trkpt lat="41.1170191504061222076416015625" lon="-1.43663833849132061004638671875">
        <ele>739.4000244140625</ele>
        <time>2022-05-02T11:43:59.000Z</time>
      </trkpt>
      <trkpt lat="41.11698537133634090423583984375" lon="-1.4365980215370655059814453125">
        <ele>739.20001220703125</ele>
        <time>2022-05-02T11:44:00.000Z</time>
      </trkpt>
      <trkpt lat="41.1169487424194812774658203125" lon="-1.4365589618682861328125">
        <ele>739.20001220703125</ele>
        <time>2022-05-02T11:44:01.000Z</time>
      </trkpt>
      <trkpt lat="41.116913370788097381591796875" lon="-1.4365185610949993133544921875">
        <ele>739.20001220703125</ele>
        <time>2022-05-02T11:44:02.000Z</time>
      </trkpt>
      <trkpt lat="41.116844974458217620849609375" lon="-1.43642862327396869659423828125">
        <ele>739.20001220703125</ele>
        <time>2022-05-02T11:44:04.000Z</time>
      </trkpt>
      <trkpt lat="41.11676828004419803619384765625" lon="-1.4363479055464267730712890625">
        <ele>739.4000244140625</ele>
        <time>2022-05-02T11:44:06.000Z</time>
      </trkpt>
      <trkpt lat="41.1166929267346858978271484375" lon="-1.43625427968800067901611328125">
        <ele>739.5999755859375</ele>
        <time>2022-05-02T11:44:08.000Z</time>
      </trkpt>
      <trkpt lat="41.1166070960462093353271484375" lon="-1.43615403212606906890869140625">
        <ele>739.79998779296875</ele>
        <time>2022-05-02T11:44:10.000Z</time>
      </trkpt>
      <trkpt lat="41.11651833169162273406982421875" lon="-1.43604858778417110443115234375">
        <ele>740</ele>
        <time>2022-05-02T11:44:12.000Z</time>
      </trkpt>
      <trkpt lat="41.116438619792461395263671875" lon="-1.43592922948300838470458984375">
        <ele>740</ele>
        <time>2022-05-02T11:44:14.000Z</time>
      </trkpt>
      <trkpt lat="41.116367876529693603515625" lon="-1.4358047582209110260009765625">
        <ele>740</ele>
        <time>2022-05-02T11:44:16.000Z</time>
      </trkpt>
      <trkpt lat="41.11630626954138278961181640625" lon="-1.4356760121881961822509765625">
        <ele>740</ele>
        <time>2022-05-02T11:44:18.000Z</time>
      </trkpt>
      <trkpt lat="41.11625178717076778411865234375" lon="-1.4355499483644962310791015625">
        <ele>740</ele>
        <time>2022-05-02T11:44:20.000Z</time>
      </trkpt>
      <trkpt lat="41.11620652489364147186279296875" lon="-1.4354272373020648956298828125">
        <ele>739.5999755859375</ele>
        <time>2022-05-02T11:44:22.000Z</time>
      </trkpt>
      <trkpt lat="41.11616360954940319061279296875" lon="-1.43530896864831447601318359375">
        <ele>739.4000244140625</ele>
        <time>2022-05-02T11:44:24.000Z</time>
      </trkpt>
      <trkpt lat="41.11612153239548206329345703125" lon="-1.435197405517101287841796875">
        <ele>739.4000244140625</ele>
        <time>2022-05-02T11:44:26.000Z</time>
      </trkpt>
      <trkpt lat="41.1160847358405590057373046875" lon="-1.43508634530007839202880859375">
        <ele>739.4000244140625</ele>
        <time>2022-05-02T11:44:28.000Z</time>
      </trkpt>
      <trkpt lat="41.11606168560683727264404296875" lon="-1.434986181557178497314453125">
        <ele>739.5999755859375</ele>
        <time>2022-05-02T11:44:30.000Z</time>
      </trkpt>
      <trkpt lat="41.1160515435039997100830078125" lon="-1.4349375665187835693359375">
        <ele>739.5999755859375</ele>
        <time>2022-05-02T11:44:31.000Z</time>
      </trkpt>
      <trkpt lat="41.1160445027053356170654296875" lon="-1.4348919689655303955078125">
        <ele>739.4000244140625</ele>
        <time>2022-05-02T11:44:32.000Z</time>
      </trkpt>
      <trkpt lat="41.11603192985057830810546875" lon="-1.4348210580646991729736328125">
        <ele>739.20001220703125</ele>
        <time>2022-05-02T11:44:34.000Z</time>
      </trkpt>
      <trkpt lat="41.11602413468062877655029296875" lon="-1.4347900450229644775390625">
        <ele>739.20001220703125</ele>
        <time>2022-05-02T11:44:35.000Z</time>
      </trkpt>
      <trkpt lat="41.11601642332971096038818359375" lon="-1.4347563497722148895263671875">
        <ele>739.20001220703125</ele>
        <time>2022-05-02T11:44:36.000Z</time>
      </trkpt>
      <trkpt lat="41.11600334756076335906982421875" lon="-1.43468854017555713653564453125">
        <ele>739</ele>
        <time>2022-05-02T11:44:38.000Z</time>
      </trkpt>
      <trkpt lat="41.1159751005470752716064453125" lon="-1.43460354767739772796630859375">
        <ele>739.20001220703125</ele>
        <time>2022-05-02T11:44:40.000Z</time>
      </trkpt>
      <trkpt lat="41.11594148911535739898681640625" lon="-1.4345038868486881256103515625">
        <ele>739.20001220703125</ele>
        <time>2022-05-02T11:44:42.000Z</time>
      </trkpt>
      <trkpt lat="41.1159100569784641265869140625" lon="-1.43440757878124713897705078125">
        <ele>739.4000244140625</ele>
        <time>2022-05-02T11:44:44.000Z</time>
      </trkpt>
      <trkpt lat="41.115874685347080230712890625" lon="-1.434310935437679290771484375">
        <ele>739.79998779296875</ele>
        <time>2022-05-02T11:44:46.000Z</time>
      </trkpt>
      <trkpt lat="41.11585616134107112884521484375" lon="-1.4342675171792507171630859375">
        <ele>740</ele>
        <time>2022-05-02T11:44:47.000Z</time>
      </trkpt>
      <trkpt lat="41.11584275029599666595458984375" lon="-1.4342242665588855743408203125">
        <ele>740</ele>
        <time>2022-05-02T11:44:48.000Z</time>
      </trkpt>
      <trkpt lat="41.1158245615661144256591796875" lon="-1.43413147889077663421630859375">
        <ele>740</ele>
        <time>2022-05-02T11:44:50.000Z</time>
      </trkpt>
      <trkpt lat="41.1158121563494205474853515625" lon="-1.4340398646891117095947265625">
        <ele>739.5999755859375</ele>
        <time>2022-05-02T11:44:52.000Z</time>
      </trkpt>
      <trkpt lat="41.115800924599170684814453125" lon="-1.43394556827843189239501953125">
        <ele>739.79998779296875</ele>
        <time>2022-05-02T11:44:54.000Z</time>
      </trkpt>
      <trkpt lat="41.1157925426959991455078125" lon="-1.43383878283202648162841796875">
        <ele>739.5999755859375</ele>
        <time>2022-05-02T11:44:56.000Z</time>
      </trkpt>
      <trkpt lat="41.1157843284308910369873046875" lon="-1.43372931517660617828369140625">
        <ele>739</ele>
        <time>2022-05-02T11:44:58.000Z</time>
      </trkpt>
      <trkpt lat="41.11577921546995639801025390625" lon="-1.43362102098762989044189453125">
        <ele>738.79998779296875</ele>
        <time>2022-05-02T11:45:00.000Z</time>
      </trkpt>
      <trkpt lat="41.11576647497713565826416015625" lon="-1.43351675011217594146728515625">
        <ele>738.79998779296875</ele>
        <time>2022-05-02T11:45:02.000Z</time>
      </trkpt>
      <trkpt lat="41.11574283801019191741943359375" lon="-1.43341801129281520843505859375">
        <ele>738.79998779296875</ele>
        <time>2022-05-02T11:45:04.000Z</time>
      </trkpt>
      <trkpt lat="41.1157189495861530303955078125" lon="-1.43331742845475673675537109375">
        <ele>739</ele>
        <time>2022-05-02T11:45:06.000Z</time>
      </trkpt>
      <trkpt lat="41.11569673754274845123291015625" lon="-1.433219946920871734619140625">
        <ele>739.20001220703125</ele>
        <time>2022-05-02T11:45:08.000Z</time>
      </trkpt>
      <trkpt lat="41.11567159183323383331298828125" lon="-1.433122046291828155517578125">
        <ele>739.20001220703125</ele>
        <time>2022-05-02T11:45:10.000Z</time>
      </trkpt>
      <trkpt lat="41.11565063707530498504638671875" lon="-1.4330224692821502685546875">
        <ele>739.4000244140625</ele>
        <time>2022-05-02T11:45:12.000Z</time>
      </trkpt>
      <trkpt lat="41.11564309336245059967041015625" lon="-1.432928927242755889892578125">
        <ele>740</ele>
        <time>2022-05-02T11:45:14.000Z</time>
      </trkpt>
      <trkpt lat="41.1156341247260570526123046875" lon="-1.4328506402671337127685546875">
        <ele>740.5999755859375</ele>
        <time>2022-05-02T11:45:16.000Z</time>
      </trkpt>
      <trkpt lat="41.11563186161220073699951171875" lon="-1.43281032331287860870361328125">
        <ele>740.5999755859375</ele>
        <time>2022-05-02T11:45:17.000Z</time>
      </trkpt>
      <trkpt lat="41.1156347952783107757568359375" lon="-1.4327731914818286895751953125">
        <ele>740.5999755859375</ele>
        <time>2022-05-02T11:45:18.000Z</time>
      </trkpt>
      <trkpt lat="41.11563974060118198394775390625" lon="-1.4327346347272396087646484375">
        <ele>740.79998779296875</ele>
        <time>2022-05-02T11:45:19.000Z</time>
      </trkpt>
      <trkpt lat="41.11564627848565578460693359375" lon="-1.43269448541104793548583984375">
        <ele>741</ele>
        <time>2022-05-02T11:45:20.000Z</time>
      </trkpt>
      <trkpt lat="41.11566002480685710906982421875" lon="-1.43262072466313838958740234375">
        <ele>741.20001220703125</ele>
        <time>2022-05-02T11:45:22.000Z</time>
      </trkpt>
      <trkpt lat="41.1156696639955043792724609375" lon="-1.432588957250118255615234375">
        <ele>741.4000244140625</ele>
        <time>2022-05-02T11:45:23.000Z</time>
      </trkpt>
      <trkpt lat="41.11567653715610504150390625" lon="-1.43255517818033695220947265625">
        <ele>741.5999755859375</ele>
        <time>2022-05-02T11:45:24.000Z</time>
      </trkpt>
      <trkpt lat="41.11568114720284938812255859375" lon="-1.4325200580060482025146484375">
        <ele>741.5999755859375</ele>
        <time>2022-05-02T11:45:25.000Z</time>
      </trkpt>
      <trkpt lat="41.11568835563957691192626953125" lon="-1.4324825070798397064208984375">
        <ele>741.79998779296875</ele>
        <time>2022-05-02T11:45:26.000Z</time>
      </trkpt>
      <trkpt lat="41.11569724045693874359130859375" lon="-1.4324080757796764373779296875">
        <ele>742.20001220703125</ele>
        <time>2022-05-02T11:45:28.000Z</time>
      </trkpt>
      <trkpt lat="41.1157078854739665985107421875" lon="-1.4323312975466251373291015625">
        <ele>742.4000244140625</ele>
        <time>2022-05-02T11:45:30.000Z</time>
      </trkpt>
      <trkpt lat="41.11571014858782291412353515625" lon="-1.43229332752525806427001953125">
        <ele>742.5999755859375</ele>
        <time>2022-05-02T11:45:31.000Z</time>
      </trkpt>
      <trkpt lat="41.11571148969233036041259765625" lon="-1.4322565309703350067138671875">
        <ele>742.79998779296875</ele>
        <time>2022-05-02T11:45:32.000Z</time>
      </trkpt>
      <trkpt lat="41.11571811139583587646484375" lon="-1.43219056539237499237060546875">
        <ele>743</ele>
        <time>2022-05-02T11:45:34.000Z</time>
      </trkpt>
      <trkpt lat="41.11571987159550189971923828125" lon="-1.43216072581708431243896484375">
        <ele>743.4000244140625</ele>
        <time>2022-05-02T11:45:35.000Z</time>
      </trkpt>
      <trkpt lat="41.1157236434519290924072265625" lon="-1.4321308024227619171142578125">
        <ele>743.5999755859375</ele>
        <time>2022-05-02T11:45:36.000Z</time>
      </trkpt>
      <trkpt lat="41.11573093570768833160400390625" lon="-1.432065255939960479736328125">
        <ele>744</ele>
        <time>2022-05-02T11:45:38.000Z</time>
      </trkpt>
      <trkpt lat="41.1157491244375705718994140625" lon="-1.43200499005615711212158203125">
        <ele>744.5999755859375</ele>
        <time>2022-05-02T11:45:40.000Z</time>
      </trkpt>
      <trkpt lat="41.115774102509021759033203125" lon="-1.431942880153656005859375">
        <ele>745</ele>
        <time>2022-05-02T11:45:42.000Z</time>
      </trkpt>
      <trkpt lat="41.1157980747520923614501953125" lon="-1.43187792040407657623291015625">
        <ele>745.5999755859375</ele>
        <time>2022-05-02T11:45:44.000Z</time>
      </trkpt>
      <trkpt lat="41.11582338809967041015625" lon="-1.4318055845797061920166015625">
        <ele>746</ele>
        <time>2022-05-02T11:45:46.000Z</time>
      </trkpt>
      <trkpt lat="41.11584224738180637359619140625" lon="-1.43173811025917530059814453125">
        <ele>746.20001220703125</ele>
        <time>2022-05-02T11:45:48.000Z</time>
      </trkpt>
      <trkpt lat="41.1158530600368976593017578125" lon="-1.4316795207560062408447265625">
        <ele>746.4000244140625</ele>
        <time>2022-05-02T11:45:50.000Z</time>
      </trkpt>
      <trkpt lat="41.1158627830445766448974609375" lon="-1.431616656482219696044921875">
        <ele>746.4000244140625</ele>
        <time>2022-05-02T11:45:52.000Z</time>
      </trkpt>
      <trkpt lat="41.11586873419582843780517578125" lon="-1.4315336756408214569091796875">
        <ele>746.5999755859375</ele>
        <time>2022-05-02T11:45:54.000Z</time>
      </trkpt>
      <trkpt lat="41.11586873419582843780517578125" lon="-1.4314305782318115234375">
        <ele>746.79998779296875</ele>
        <time>2022-05-02T11:45:56.000Z</time>
      </trkpt>
      <trkpt lat="41.11586630344390869140625" lon="-1.43137131817638874053955078125">
        <ele>747</ele>
        <time>2022-05-02T11:45:57.000Z</time>
      </trkpt>
      <trkpt lat="41.1158621124923229217529296875" lon="-1.43130811862647533416748046875">
        <ele>747</ele>
        <time>2022-05-02T11:45:58.000Z</time>
      </trkpt>
      <trkpt lat="41.115847863256931304931640625" lon="-1.43117333762347698211669921875">
        <ele>746.79998779296875</ele>
        <time>2022-05-02T11:46:00.000Z</time>
      </trkpt>
      <trkpt lat="41.11582598648965358734130859375" lon="-1.431033276021480560302734375">
        <ele>747</ele>
        <time>2022-05-02T11:46:02.000Z</time>
      </trkpt>
      <trkpt lat="41.11581509001553058624267578125" lon="-1.4309610240161418914794921875">
        <ele>746.79998779296875</ele>
        <time>2022-05-02T11:46:03.000Z</time>
      </trkpt>
      <trkpt lat="41.1158072948455810546875" lon="-1.43088810145854949951171875">
        <ele>746.4000244140625</ele>
        <time>2022-05-02T11:46:04.000Z</time>
      </trkpt>
      <trkpt lat="41.1157913692295551300048828125" lon="-1.430746950209140777587890625">
        <ele>746</ele>
        <time>2022-05-02T11:46:06.000Z</time>
      </trkpt>
      <trkpt lat="41.115779466927051544189453125" lon="-1.43068131990730762481689453125">
        <ele>746</ele>
        <time>2022-05-02T11:46:07.000Z</time>
      </trkpt>
      <trkpt lat="41.1157658882439136505126953125" lon="-1.4306156896054744720458984375">
        <ele>746.20001220703125</ele>
        <time>2022-05-02T11:46:08.000Z</time>
      </trkpt>
      <trkpt lat="41.115739904344081878662109375" lon="-1.430486105382442474365234375">
        <ele>746.4000244140625</ele>
        <time>2022-05-02T11:46:10.000Z</time>
      </trkpt>
      <trkpt lat="41.11571618355810642242431640625" lon="-1.43035434186458587646484375">
        <ele>746.5999755859375</ele>
        <time>2022-05-02T11:46:12.000Z</time>
      </trkpt>
      <trkpt lat="41.1156954802572727203369140625" lon="-1.43021444790065288543701171875">
        <ele>747</ele>
        <time>2022-05-02T11:46:14.000Z</time>
      </trkpt>
      <trkpt lat="41.1156800575554370880126953125" lon="-1.430069021880626678466796875">
        <ele>748</ele>
        <time>2022-05-02T11:46:16.000Z</time>
      </trkpt>
      <trkpt lat="41.1156639643013477325439453125" lon="-1.4299173094332218170166015625">
        <ele>749</ele>
        <time>2022-05-02T11:46:18.000Z</time>
      </trkpt>
      <trkpt lat="41.115636639297008514404296875" lon="-1.42975981347262859344482421875">
        <ele>749.79998779296875</ele>
        <time>2022-05-02T11:46:20.000Z</time>
      </trkpt>
      <trkpt lat="41.11558877862989902496337890625" lon="-1.4296051673591136932373046875">
        <ele>751.20001220703125</ele>
        <time>2022-05-02T11:46:22.000Z</time>
      </trkpt>
      <trkpt lat="41.11555826850235462188720703125" lon="-1.42953098751604557037353515625">
        <ele>751.4000244140625</ele>
        <time>2022-05-02T11:46:23.000Z</time>
      </trkpt>
      <trkpt lat="41.11552541144192218780517578125" lon="-1.42945982515811920166015625">
        <ele>750.79998779296875</ele>
        <time>2022-05-02T11:46:24.000Z</time>
      </trkpt>
      <trkpt lat="41.11549071036279201507568359375" lon="-1.42939000390470027923583984375">
        <ele>751</ele>
        <time>2022-05-02T11:46:25.000Z</time>
      </trkpt>
      <trkpt lat="41.11545584164559841156005859375" lon="-1.429320015013217926025390625">
        <ele>750.79998779296875</ele>
        <time>2022-05-02T11:46:26.000Z</time>
      </trkpt>
      <trkpt lat="41.1153920553624629974365234375" lon="-1.429181210696697235107421875">
        <ele>751.5999755859375</ele>
        <time>2022-05-02T11:46:28.000Z</time>
      </trkpt>
      <trkpt lat="41.115330867469310760498046875" lon="-1.4290512911975383758544921875">
        <ele>751.4000244140625</ele>
        <time>2022-05-02T11:46:30.000Z</time>
      </trkpt>
      <trkpt lat="41.11527211032807826995849609375" lon="-1.42892899923026561737060546875">
        <ele>751.20001220703125</ele>
        <time>2022-05-02T11:46:32.000Z</time>
      </trkpt>
      <trkpt lat="41.11521528102457523345947265625" lon="-1.42881031148135662078857421875">
        <ele>750.5999755859375</ele>
        <time>2022-05-02T11:46:34.000Z</time>
      </trkpt>
      <trkpt lat="41.11515828408300876617431640625" lon="-1.42869246192276477813720703125">
        <ele>750</ele>
        <time>2022-05-02T11:46:36.000Z</time>
      </trkpt>
      <trkpt lat="41.1151312105357646942138671875" lon="-1.4286335371434688568115234375">
        <ele>750.20001220703125</ele>
        <time>2022-05-02T11:46:37.000Z</time>
      </trkpt>
      <trkpt lat="41.1151040531694889068603515625" lon="-1.42857494764029979705810546875">
        <ele>750.20001220703125</ele>
        <time>2022-05-02T11:46:38.000Z</time>
      </trkpt>
      <trkpt lat="41.11504563130438327789306640625" lon="-1.42845961265265941619873046875">
        <ele>751</ele>
        <time>2022-05-02T11:46:40.000Z</time>
      </trkpt>
      <trkpt lat="41.11498720943927764892578125" lon="-1.42834058962762355804443359375">
        <ele>751.4000244140625</ele>
        <time>2022-05-02T11:46:42.000Z</time>
      </trkpt>
      <trkpt lat="41.1149213276803493499755859375" lon="-1.42822408117353916168212890625">
        <ele>751.5999755859375</ele>
        <time>2022-05-02T11:46:44.000Z</time>
      </trkpt>
      <trkpt lat="41.11488520167768001556396484375" lon="-1.4281685091555118560791015625">
        <ele>751.4000244140625</ele>
        <time>2022-05-02T11:46:45.000Z</time>
      </trkpt>
      <trkpt lat="41.11484647728502750396728515625" lon="-1.42811679281294345855712890625">
        <ele>751.20001220703125</ele>
        <time>2022-05-02T11:46:46.000Z</time>
      </trkpt>
      <trkpt lat="41.1147674359381198883056640625" lon="-1.42802107147872447967529296875">
        <ele>750.4000244140625</ele>
        <time>2022-05-02T11:46:48.000Z</time>
      </trkpt>
      <trkpt lat="41.11469124443829059600830078125" lon="-1.4279307983815670013427734375">
        <ele>749.5999755859375</ele>
        <time>2022-05-02T11:46:50.000Z</time>
      </trkpt>
      <trkpt lat="41.11462133936583995819091796875" lon="-1.42785091884434223175048828125">
        <ele>748.4000244140625</ele>
        <time>2022-05-02T11:46:52.000Z</time>
      </trkpt>
      <trkpt lat="41.11455964855849742889404296875" lon="-1.42777833156287670135498046875">
        <ele>748</ele>
        <time>2022-05-02T11:46:54.000Z</time>
      </trkpt>
      <trkpt lat="41.114530898630619049072265625" lon="-1.42774363048374652862548828125">
        <ele>747.79998779296875</ele>
        <time>2022-05-02T11:46:55.000Z</time>
      </trkpt>
      <trkpt lat="41.11450198106467723846435546875" lon="-1.42771102488040924072265625">
        <ele>747.79998779296875</ele>
        <time>2022-05-02T11:46:56.000Z</time>
      </trkpt>
      <trkpt lat="41.114451102912425994873046875" lon="-1.427631564438343048095703125">
        <ele>748.20001220703125</ele>
        <time>2022-05-02T11:46:58.000Z</time>
      </trkpt>
      <trkpt lat="41.11442721448838710784912109375" lon="-1.4275857992470264434814453125">
        <ele>747.5999755859375</ele>
        <time>2022-05-02T11:46:59.000Z</time>
      </trkpt>
      <trkpt lat="41.114402152597904205322265625" lon="-1.427540369331836700439453125">
        <ele>746.79998779296875</ele>
        <time>2022-05-02T11:47:00.000Z</time>
      </trkpt>
      <trkpt lat="41.11437759362161159515380859375" lon="-1.4274922572076320648193359375">
        <ele>746.20001220703125</ele>
        <time>2022-05-02T11:47:01.000Z</time>
      </trkpt>
      <trkpt lat="41.1143547110259532928466796875" lon="-1.427443139255046844482421875">
        <ele>746</ele>
        <time>2022-05-02T11:47:02.000Z</time>
      </trkpt>
      <trkpt lat="41.11430651508271694183349609375" lon="-1.4273430593311786651611328125">
        <ele>746.79998779296875</ele>
        <time>2022-05-02T11:47:04.000Z</time>
      </trkpt>
      <trkpt lat="41.1142658628523349761962890625" lon="-1.4272418059408664703369140625">
        <ele>747.79998779296875</ele>
        <time>2022-05-02T11:47:06.000Z</time>
      </trkpt>
      <trkpt lat="41.11425094306468963623046875" lon="-1.4271940290927886962890625">
        <ele>747.79998779296875</ele>
        <time>2022-05-02T11:47:07.000Z</time>
      </trkpt>
      <trkpt lat="41.1142387054860591888427734375" lon="-1.42714641988277435302734375">
        <ele>747.4000244140625</ele>
        <time>2022-05-02T11:47:08.000Z</time>
      </trkpt>
      <trkpt lat="41.1142081953585147857666015625" lon="-1.427050866186618804931640625">
        <ele>746.5999755859375</ele>
        <time>2022-05-02T11:47:10.000Z</time>
      </trkpt>
      <trkpt lat="41.11417558975517749786376953125" lon="-1.4269574917852878570556640625">
        <ele>747.20001220703125</ele>
        <time>2022-05-02T11:47:12.000Z</time>
      </trkpt>
      <trkpt lat="41.11415547318756580352783203125" lon="-1.42691331915557384490966796875">
        <ele>747.5999755859375</ele>
        <time>2022-05-02T11:47:13.000Z</time>
      </trkpt>
      <trkpt lat="41.11413552425801753997802734375" lon="-1.42687308602035045623779296875">
        <ele>748.5999755859375</ele>
        <time>2022-05-02T11:47:14.000Z</time>
      </trkpt>
      <trkpt lat="41.1140948720276355743408203125" lon="-1.42679194919764995574951171875">
        <ele>749</ele>
        <time>2022-05-02T11:47:16.000Z</time>
      </trkpt>
      <trkpt lat="41.11404784955084323883056640625" lon="-1.4267139136791229248046875">
        <ele>749.4000244140625</ele>
        <time>2022-05-02T11:47:18.000Z</time>
      </trkpt>
      <trkpt lat="41.1139979772269725799560546875" lon="-1.42664006911218166351318359375">
        <ele>749.79998779296875</ele>
        <time>2022-05-02T11:47:20.000Z</time>
      </trkpt>
      <trkpt lat="41.11394944600760936737060546875" lon="-1.42656899057328701019287109375">
        <ele>751</ele>
        <time>2022-05-02T11:47:22.000Z</time>
      </trkpt>
      <trkpt lat="41.113901250064373016357421875" lon="-1.4264981634914875030517578125">
        <ele>751.79998779296875</ele>
        <time>2022-05-02T11:47:24.000Z</time>
      </trkpt>
      <trkpt lat="41.11385674215853214263916015625" lon="-1.4264244027435779571533203125">
        <ele>751.5999755859375</ele>
        <time>2022-05-02T11:47:26.000Z</time>
      </trkpt>
      <trkpt lat="41.11381508409976959228515625" lon="-1.42635382711887359619140625">
        <ele>751.5999755859375</ele>
        <time>2022-05-02T11:47:28.000Z</time>
      </trkpt>
      <trkpt lat="41.11377644352614879608154296875" lon="-1.4262788929045200347900390625">
        <ele>751.4000244140625</ele>
        <time>2022-05-02T11:47:30.000Z</time>
      </trkpt>
      <trkpt lat="41.1137357912957668304443359375" lon="-1.4262044616043567657470703125">
        <ele>751.4000244140625</ele>
        <time>2022-05-02T11:47:32.000Z</time>
      </trkpt>
      <trkpt lat="41.11369966529309749603271484375" lon="-1.4261290244758129119873046875">
        <ele>751.5999755859375</ele>
        <time>2022-05-02T11:47:34.000Z</time>
      </trkpt>
      <trkpt lat="41.11368122510612010955810546875" lon="-1.42609289847314357757568359375">
        <ele>751.5999755859375</ele>
        <time>2022-05-02T11:47:35.000Z</time>
      </trkpt>
      <trkpt lat="41.11366194672882556915283203125" lon="-1.4260576106607913970947265625">
        <ele>751.5999755859375</ele>
        <time>2022-05-02T11:47:36.000Z</time>
      </trkpt>
      <trkpt lat="41.11364350654184818267822265625" lon="-1.42601997591555118560791015625">
        <ele>751.5999755859375</ele>
        <time>2022-05-02T11:47:37.000Z</time>
      </trkpt>
      <trkpt lat="41.11362858675420284271240234375" lon="-1.42597940750420093536376953125">
        <ele>751.4000244140625</ele>
        <time>2022-05-02T11:47:38.000Z</time>
      </trkpt>
      <trkpt lat="41.11359472386538982391357421875" lon="-1.4258986897766590118408203125">
        <ele>751.4000244140625</ele>
        <time>2022-05-02T11:47:40.000Z</time>
      </trkpt>
      <trkpt lat="41.11356421373784542083740234375" lon="-1.4258125238120555877685546875">
        <ele>751.20001220703125</ele>
        <time>2022-05-02T11:47:42.000Z</time>
      </trkpt>
      <trkpt lat="41.11354728229343891143798828125" lon="-1.42576935701072216033935546875">
        <ele>751.20001220703125</ele>
        <time>2022-05-02T11:47:43.000Z</time>
      </trkpt>
      <trkpt lat="41.1135314404964447021484375" lon="-1.42572510056197643280029296875">
        <ele>750.79998779296875</ele>
        <time>2022-05-02T11:47:44.000Z</time>
      </trkpt>
      <trkpt lat="41.1135014332830905914306640625" lon="-1.42563206143677234649658203125">
        <ele>750.4000244140625</ele>
        <time>2022-05-02T11:47:46.000Z</time>
      </trkpt>
      <trkpt lat="41.11347368918359279632568359375" lon="-1.425533406436443328857421875">
        <ele>749.5999755859375</ele>
        <time>2022-05-02T11:47:48.000Z</time>
      </trkpt>
      <trkpt lat="41.1134509742259979248046875" lon="-1.4254329912364482879638671875">
        <ele>749.4000244140625</ele>
        <time>2022-05-02T11:47:50.000Z</time>
      </trkpt>
      <trkpt lat="41.11344183795154094696044921875" lon="-1.42538211308419704437255859375">
        <ele>749.4000244140625</ele>
        <time>2022-05-02T11:47:51.000Z</time>
      </trkpt>
      <trkpt lat="41.113431863486766815185546875" lon="-1.425329558551311492919921875">
        <ele>749.20001220703125</ele>
        <time>2022-05-02T11:47:52.000Z</time>
      </trkpt>
      <trkpt lat="41.1134072206914424896240234375" lon="-1.4252199232578277587890625">
        <ele>749</ele>
        <time>2022-05-02T11:47:54.000Z</time>
      </trkpt>
      <trkpt lat="41.11339154653251171112060546875" lon="-1.42510123550891876220703125">
        <ele>748.79998779296875</ele>
        <time>2022-05-02T11:47:56.000Z</time>
      </trkpt>
      <trkpt lat="41.1133713461458683013916015625" lon="-1.4249907620251178741455078125">
        <ele>748.5999755859375</ele>
        <time>2022-05-02T11:47:58.000Z</time>
      </trkpt>
      <trkpt lat="41.1133498884737491607666015625" lon="-1.42495295964181423187255859375">
        <ele>748.20001220703125</ele>
        <time>2022-05-02T11:47:59.000Z</time>
      </trkpt>
      <trkpt lat="41.1133166961371898651123046875" lon="-1.42493133433163166046142578125">
        <ele>747.79998779296875</ele>
        <time>2022-05-02T11:48:00.000Z</time>
      </trkpt>
      <trkpt lat="41.11327067948877811431884765625" lon="-1.4249233715236186981201171875">
        <ele>747.4000244140625</ele>
        <time>2022-05-02T11:48:01.000Z</time>
      </trkpt>
      <trkpt lat="41.11321535892784595489501953125" lon="-1.42492328770458698272705078125">
        <ele>747</ele>
        <time>2022-05-02T11:48:02.000Z</time>
      </trkpt>
      <trkpt lat="41.113150231540203094482421875" lon="-1.42492353916168212890625">
        <ele>746.79998779296875</ele>
        <time>2022-05-02T11:48:03.000Z</time>
      </trkpt>
      <trkpt lat="41.11307873390614986419677734375" lon="-1.42492043785750865936279296875">
        <ele>746.4000244140625</ele>
        <time>2022-05-02T11:48:04.000Z</time>
      </trkpt>
      <trkpt lat="41.1130035482347011566162109375" lon="-1.42490836791694164276123046875">
        <ele>746.20001220703125</ele>
        <time>2022-05-02T11:48:05.000Z</time>
      </trkpt>
      <trkpt lat="41.112928949296474456787109375" lon="-1.42488070763647556304931640625">
        <ele>746.20001220703125</ele>
        <time>2022-05-02T11:48:06.000Z</time>
      </trkpt>
      <trkpt lat="41.11285963095724582672119140625" lon="-1.42483393661677837371826171875">
        <ele>746.20001220703125</ele>
        <time>2022-05-02T11:48:07.000Z</time>
      </trkpt>
      <trkpt lat="41.1127990297973155975341796875" lon="-1.4247724972665309906005859375">
        <ele>746.4000244140625</ele>
        <time>2022-05-02T11:48:08.000Z</time>
      </trkpt>
      <trkpt lat="41.1127423681318759918212890625" lon="-1.42470485530793666839599609375">
        <ele>747</ele>
        <time>2022-05-02T11:48:09.000Z</time>
      </trkpt>
      <trkpt lat="41.1126870475709438323974609375" lon="-1.42463729716837406158447265625">
        <ele>747</ele>
        <time>2022-05-02T11:48:10.000Z</time>
      </trkpt>
      <trkpt lat="41.112584285438060760498046875" lon="-1.42451140098273754119873046875">
        <ele>746</ele>
        <time>2022-05-02T11:48:12.000Z</time>
      </trkpt>
      <trkpt lat="41.1124888993799686431884765625" lon="-1.424390114843845367431640625">
        <ele>745.5999755859375</ele>
        <time>2022-05-02T11:48:14.000Z</time>
      </trkpt>
      <trkpt lat="41.11240717582404613494873046875" lon="-1.42426597885787487030029296875">
        <ele>745.20001220703125</ele>
        <time>2022-05-02T11:48:16.000Z</time>
      </trkpt>
      <trkpt lat="41.11237063072621822357177734375" lon="-1.42420143820345401763916015625">
        <ele>744.79998779296875</ele>
        <time>2022-05-02T11:48:17.000Z</time>
      </trkpt>
      <trkpt lat="41.11233626492321491241455078125" lon="-1.4241364784538745880126953125">
        <ele>744.5999755859375</ele>
        <time>2022-05-02T11:48:18.000Z</time>
      </trkpt>
      <trkpt lat="41.11230231821537017822265625" lon="-1.4240734465420246124267578125">
        <ele>744.4000244140625</ele>
        <time>2022-05-02T11:48:19.000Z</time>
      </trkpt>
      <trkpt lat="41.11226770095527172088623046875" lon="-1.42401368357241153717041015625">
        <ele>744.20001220703125</ele>
        <time>2022-05-02T11:48:20.000Z</time>
      </trkpt>
      <trkpt lat="41.11220098100602626800537109375" lon="-1.42389784567058086395263671875">
        <ele>744.20001220703125</ele>
        <time>2022-05-02T11:48:22.000Z</time>
      </trkpt>
      <trkpt lat="41.112138368189334869384765625" lon="-1.423786617815494537353515625">
        <ele>744.4000244140625</ele>
        <time>2022-05-02T11:48:24.000Z</time>
      </trkpt>
      <trkpt lat="41.11206988804042339324951171875" lon="-1.42368611879646778106689453125">
        <ele>745.4000244140625</ele>
        <time>2022-05-02T11:48:26.000Z</time>
      </trkpt>
      <trkpt lat="41.1119977198541164398193359375" lon="-1.42358587123453617095947265625">
        <ele>746</ele>
        <time>2022-05-02T11:48:28.000Z</time>
      </trkpt>
      <trkpt lat="41.11192856915295124053955078125" lon="-1.423481516540050506591796875">
        <ele>746</ele>
        <time>2022-05-02T11:48:30.000Z</time>
      </trkpt>
      <trkpt lat="41.11186151392757892608642578125" lon="-1.42337657511234283447265625">
        <ele>746.5999755859375</ele>
        <time>2022-05-02T11:48:32.000Z</time>
      </trkpt>
      <trkpt lat="41.1117975600063800811767578125" lon="-1.42327087931334972381591796875">
        <ele>747.20001220703125</ele>
        <time>2022-05-02T11:48:34.000Z</time>
      </trkpt>
      <trkpt lat="41.11176612786948680877685546875" lon="-1.42322075553238391876220703125">
        <ele>747.20001220703125</ele>
        <time>2022-05-02T11:48:35.000Z</time>
      </trkpt>
      <trkpt lat="41.1117351986467838287353515625" lon="-1.42317130230367183685302734375">
        <ele>747.4000244140625</ele>
        <time>2022-05-02T11:48:36.000Z</time>
      </trkpt>
      <trkpt lat="41.11170259304344654083251953125" lon="-1.4231252856552600860595703125">
        <ele>747.4000244140625</ele>
        <time>2022-05-02T11:48:37.000Z</time>
      </trkpt>
      <trkpt lat="41.11166722141206264495849609375" lon="-1.42308262176811695098876953125">
        <ele>747.5999755859375</ele>
        <time>2022-05-02T11:48:38.000Z</time>
      </trkpt>
      <trkpt lat="41.111587844789028167724609375" lon="-1.42300567589700222015380859375">
        <ele>747.79998779296875</ele>
        <time>2022-05-02T11:48:40.000Z</time>
      </trkpt>
      <trkpt lat="41.1115474440157413482666015625" lon="-1.42296762205660343170166015625">
        <ele>747.79998779296875</ele>
        <time>2022-05-02T11:48:41.000Z</time>
      </trkpt>
      <trkpt lat="41.11151039600372314453125" lon="-1.42292805947363376617431640625">
        <ele>747.5999755859375</ele>
        <time>2022-05-02T11:48:42.000Z</time>
      </trkpt>
      <trkpt lat="41.111437976360321044921875" lon="-1.4228460006415843963623046875">
        <ele>747.4000244140625</ele>
        <time>2022-05-02T11:48:44.000Z</time>
      </trkpt>
      <trkpt lat="41.11136731691658496856689453125" lon="-1.42276645638048648834228515625">
        <ele>747</ele>
        <time>2022-05-02T11:48:46.000Z</time>
      </trkpt>
      <trkpt lat="41.1113010160624980926513671875" lon="-1.42268263734877109527587890625">
        <ele>747</ele>
        <time>2022-05-02T11:48:48.000Z</time>
      </trkpt>
      <trkpt lat="41.11127159558236598968505859375" lon="-1.422639973461627960205078125">
        <ele>747</ele>
        <time>2022-05-02T11:48:49.000Z</time>
      </trkpt>
      <trkpt lat="41.111244522035121917724609375" lon="-1.42259714193642139434814453125">
        <ele>746.79998779296875</ele>
        <time>2022-05-02T11:48:50.000Z</time>
      </trkpt>
      <trkpt lat="41.1111903749406337738037109375" lon="-1.4225120656192302703857421875">
        <ele>746.5999755859375</ele>
        <time>2022-05-02T11:48:52.000Z</time>
      </trkpt>
      <trkpt lat="41.11114016734063625335693359375" lon="-1.42243470065295696258544921875">
        <ele>746.4000244140625</ele>
        <time>2022-05-02T11:48:54.000Z</time>
      </trkpt>
      <trkpt lat="41.11111669801175594329833984375" lon="-1.4223950542509555816650390625">
        <ele>746.20001220703125</ele>
        <time>2022-05-02T11:48:55.000Z</time>
      </trkpt>
      <trkpt lat="41.1110924743115901947021484375" lon="-1.42235356383025646209716796875">
        <ele>746</ele>
        <time>2022-05-02T11:48:56.000Z</time>
      </trkpt>
      <trkpt lat="41.11104033887386322021484375" lon="-1.42227142117917537689208984375">
        <ele>746</ele>
        <time>2022-05-02T11:48:58.000Z</time>
      </trkpt>
      <trkpt lat="41.11098443157970905303955078125" lon="-1.42219774425029754638671875">
        <ele>746</ele>
        <time>2022-05-02T11:49:00.000Z</time>
      </trkpt>
      <trkpt lat="41.1109296977519989013671875" lon="-1.4221275039017200469970703125">
        <ele>746</ele>
        <time>2022-05-02T11:49:02.000Z</time>
      </trkpt>
      <trkpt lat="41.1108755506575107574462890625" lon="-1.4220577664673328399658203125">
        <ele>746</ele>
        <time>2022-05-02T11:49:04.000Z</time>
      </trkpt>
      <trkpt lat="41.11082400195300579071044921875" lon="-1.4219809882342815399169921875">
        <ele>746</ele>
        <time>2022-05-02T11:49:06.000Z</time>
      </trkpt>
      <trkpt lat="41.1107714474201202392578125" lon="-1.4219033718109130859375">
        <ele>746</ele>
        <time>2022-05-02T11:49:08.000Z</time>
      </trkpt>
      <trkpt lat="41.11071939580142498016357421875" lon="-1.4218321256339550018310546875">
        <ele>746.4000244140625</ele>
        <time>2022-05-02T11:49:10.000Z</time>
      </trkpt>
      <trkpt lat="41.11069173552095890045166015625" lon="-1.42179247923195362091064453125">
        <ele>746.4000244140625</ele>
        <time>2022-05-02T11:49:11.000Z</time>
      </trkpt>
      <trkpt lat="41.11066591925919055938720703125" lon="-1.42174788750708103179931640625">
        <ele>746.5999755859375</ele>
        <time>2022-05-02T11:49:12.000Z</time>
      </trkpt>
      <trkpt lat="41.11063624732196331024169921875" lon="-1.42170396633446216583251953125">
        <ele>746.79998779296875</ele>
        <time>2022-05-02T11:49:13.000Z</time>
      </trkpt>
      <trkpt lat="41.1106049828231334686279296875" lon="-1.4216624759137630462646484375">
        <ele>747</ele>
        <time>2022-05-02T11:49:14.000Z</time>
      </trkpt>
      <trkpt lat="41.11054119653999805450439453125" lon="-1.42158779315650463104248046875">
        <ele>747.20001220703125</ele>
        <time>2022-05-02T11:49:16.000Z</time>
      </trkpt>
      <trkpt lat="41.11048704944550991058349609375" lon="-1.42151956446468830108642578125">
        <ele>747.79998779296875</ele>
        <time>2022-05-02T11:49:18.000Z</time>
      </trkpt>
      <trkpt lat="41.11046140082180500030517578125" lon="-1.4214857853949069976806640625">
        <ele>748</ele>
        <time>2022-05-02T11:49:19.000Z</time>
      </trkpt>
      <trkpt lat="41.11043625511229038238525390625" lon="-1.42145368270576000213623046875">
        <ele>748.4000244140625</ele>
        <time>2022-05-02T11:49:20.000Z</time>
      </trkpt>
      <trkpt lat="41.1103873886168003082275390625" lon="-1.4213955961167812347412109375">
        <ele>748.79998779296875</ele>
        <time>2022-05-02T11:49:22.000Z</time>
      </trkpt>
      <trkpt lat="41.1103384383022785186767578125" lon="-1.4213372580707073211669921875">
        <ele>749</ele>
        <time>2022-05-02T11:49:24.000Z</time>
      </trkpt>
      <trkpt lat="41.11031186766922473907470703125" lon="-1.42129560001194477081298828125">
        <ele>749</ele>
        <time>2022-05-02T11:49:26.000Z</time>
      </trkpt>
      <trkpt lat="41.110289990901947021484375" lon="-1.42126475460827350616455078125">
        <ele>749</ele>
        <time>2022-05-02T11:49:27.000Z</time>
      </trkpt>
      <trkpt lat="41.1102676950395107269287109375" lon="-1.42123340629041194915771484375">
        <ele>749.20001220703125</ele>
        <time>2022-05-02T11:49:28.000Z</time>
      </trkpt>
      <trkpt lat="41.110225282609462738037109375" lon="-1.42117540352046489715576171875">
        <ele>749.4000244140625</ele>
        <time>2022-05-02T11:49:30.000Z</time>
      </trkpt>
      <trkpt lat="41.11020390875637531280517578125" lon="-1.421133913099765777587890625">
        <ele>749.79998779296875</ele>
        <time>2022-05-02T11:49:31.000Z</time>
      </trkpt>
      <trkpt lat="41.11018161289393901824951171875" lon="-1.42109359614551067352294921875">
        <ele>750</ele>
        <time>2022-05-02T11:49:32.000Z</time>
      </trkpt>
      <trkpt lat="41.11011874862015247344970703125" lon="-1.421006508171558380126953125">
        <ele>750.4000244140625</ele>
        <time>2022-05-02T11:49:34.000Z</time>
      </trkpt>
      <trkpt lat="41.11004121601581573486328125" lon="-1.42089159227907657623291015625">
        <ele>751.20001220703125</ele>
        <time>2022-05-02T11:49:36.000Z</time>
      </trkpt>
      <trkpt lat="41.10995463095605373382568359375" lon="-1.4207669533789157867431640625">
        <ele>752</ele>
        <time>2022-05-02T11:49:38.000Z</time>
      </trkpt>
      <trkpt lat="41.10991246998310089111328125" lon="-1.4207002334296703338623046875">
        <ele>752</ele>
        <time>2022-05-02T11:49:39.000Z</time>
      </trkpt>
      <trkpt lat="41.1098713986575603485107421875" lon="-1.4206341840326786041259765625">
        <ele>751.79998779296875</ele>
        <time>2022-05-02T11:49:40.000Z</time>
      </trkpt>
      <trkpt lat="41.10978908836841583251953125" lon="-1.4205057732760906219482421875">
        <ele>751.4000244140625</ele>
        <time>2022-05-02T11:49:42.000Z</time>
      </trkpt>
      <trkpt lat="41.10971138812601566314697265625" lon="-1.4203857444226741790771484375">
        <ele>751</ele>
        <time>2022-05-02T11:49:44.000Z</time>
      </trkpt>
      <trkpt lat="41.10963695682585239410400390625" lon="-1.42027191817760467529296875">
        <ele>750.20001220703125</ele>
        <time>2022-05-02T11:49:46.000Z</time>
      </trkpt>
      <trkpt lat="41.10955967567861080169677734375" lon="-1.420158930122852325439453125">
        <ele>749.5999755859375</ele>
        <time>2022-05-02T11:49:48.000Z</time>
      </trkpt>
      <trkpt lat="41.1094844900071620941162109375" lon="-1.42005457542836666107177734375">
        <ele>749.20001220703125</ele>
        <time>2022-05-02T11:49:50.000Z</time>
      </trkpt>
      <trkpt lat="41.10940913669764995574951171875" lon="-1.4199535734951496124267578125">
        <ele>749.20001220703125</ele>
        <time>2022-05-02T11:49:52.000Z</time>
      </trkpt>
      <trkpt lat="41.109374351799488067626953125" lon="-1.41990135423839092254638671875">
        <ele>749.20001220703125</ele>
        <time>2022-05-02T11:49:53.000Z</time>
      </trkpt>
      <trkpt lat="41.1093445122241973876953125" lon="-1.4198533259332180023193359375">
        <ele>749.4000244140625</ele>
        <time>2022-05-02T11:49:54.000Z</time>
      </trkpt>
      <trkpt lat="41.1093123257160186767578125" lon="-1.4198107458651065826416015625">
        <ele>749.5999755859375</ele>
        <time>2022-05-02T11:49:55.000Z</time>
      </trkpt>
      <trkpt lat="41.10928072594106197357177734375" lon="-1.41976925544440746307373046875">
        <ele>749.79998779296875</ele>
        <time>2022-05-02T11:49:56.000Z</time>
      </trkpt>
      <trkpt lat="41.10922423191368579864501953125" lon="-1.4196816645562648773193359375">
        <ele>750</ele>
        <time>2022-05-02T11:49:58.000Z</time>
      </trkpt>
      <trkpt lat="41.10917042009532451629638671875" lon="-1.41959507949650287628173828125">
        <ele>750.4000244140625</ele>
        <time>2022-05-02T11:50:00.000Z</time>
      </trkpt>
      <trkpt lat="41.10914326272904872894287109375" lon="-1.419555433094501495361328125">
        <ele>750.79998779296875</ele>
        <time>2022-05-02T11:50:01.000Z</time>
      </trkpt>
      <trkpt lat="41.10911585390567779541015625" lon="-1.4195177145302295684814453125">
        <ele>751.20001220703125</ele>
        <time>2022-05-02T11:50:02.000Z</time>
      </trkpt>
      <trkpt lat="41.109073944389820098876953125" lon="-1.4194352366030216217041015625">
        <ele>751.79998779296875</ele>
        <time>2022-05-02T11:50:04.000Z</time>
      </trkpt>
      <trkpt lat="41.10903262160718441009521484375" lon="-1.4193628169596195220947265625">
        <ele>752.4000244140625</ele>
        <time>2022-05-02T11:50:06.000Z</time>
      </trkpt>
      <trkpt lat="41.1089949868619441986083984375" lon="-1.419293582439422607421875">
        <ele>753</ele>
        <time>2022-05-02T11:50:08.000Z</time>
      </trkpt>
      <trkpt lat="41.10896087251603603363037109375" lon="-1.41922585666179656982421875">
        <ele>753.4000244140625</ele>
        <time>2022-05-02T11:50:10.000Z</time>
      </trkpt>
      <trkpt lat="41.1089234054088592529296875" lon="-1.41916424967348575592041015625">
        <ele>753.79998779296875</ele>
        <time>2022-05-02T11:50:12.000Z</time>
      </trkpt>
      <trkpt lat="41.10889197327196598052978515625" lon="-1.41910172067582607269287109375">
        <ele>754.20001220703125</ele>
        <time>2022-05-02T11:50:14.000Z</time>
      </trkpt>
      <trkpt lat="41.10885861329734325408935546875" lon="-1.41903667710721492767333984375">
        <ele>754.20001220703125</ele>
        <time>2022-05-02T11:50:16.000Z</time>
      </trkpt>
      <trkpt lat="41.108819134533405303955078125" lon="-1.418977081775665283203125">
        <ele>754.20001220703125</ele>
        <time>2022-05-02T11:50:18.000Z</time>
      </trkpt>
      <trkpt lat="41.10879122279584407806396484375" lon="-1.4189542829990386962890625">
        <ele>754</ele>
        <time>2022-05-02T11:50:19.000Z</time>
      </trkpt>
      <trkpt lat="41.10876020975410938262939453125" lon="-1.41894162632524967193603515625">
        <ele>754</ele>
        <time>2022-05-02T11:50:20.000Z</time>
      </trkpt>
      <trkpt lat="41.10872282646596431732177734375" lon="-1.41894581727683544158935546875">
        <ele>753.79998779296875</ele>
        <time>2022-05-02T11:50:21.000Z</time>
      </trkpt>
      <trkpt lat="41.108685024082660675048828125" lon="-1.418963335454463958740234375">
        <ele>753.5999755859375</ele>
        <time>2022-05-02T11:50:22.000Z</time>
      </trkpt>
      <trkpt lat="41.1086094193160533905029296875" lon="-1.4190025627613067626953125">
        <ele>753.4000244140625</ele>
        <time>2022-05-02T11:50:24.000Z</time>
      </trkpt>
      <trkpt lat="41.10852333717048168182373046875" lon="-1.41904908232390880584716796875">
        <ele>753</ele>
        <time>2022-05-02T11:50:26.000Z</time>
      </trkpt>
      <trkpt lat="41.10842694528400897979736328125" lon="-1.4190857112407684326171875">
        <ele>752.79998779296875</ele>
        <time>2022-05-02T11:50:28.000Z</time>
      </trkpt>
      <trkpt lat="41.10833424143493175506591796875" lon="-1.41913373954594135284423828125">
        <ele>752.4000244140625</ele>
        <time>2022-05-02T11:50:30.000Z</time>
      </trkpt>
      <trkpt lat="41.10823667608201503753662109375" lon="-1.4191769063472747802734375">
        <ele>752</ele>
        <time>2022-05-02T11:50:32.000Z</time>
      </trkpt>
      <trkpt lat="41.10813944600522518157958984375" lon="-1.41922811977565288543701171875">
        <ele>752</ele>
        <time>2022-05-02T11:50:34.000Z</time>
      </trkpt>
      <trkpt lat="41.10803768970072269439697265625" lon="-1.4192800037562847137451171875">
        <ele>752</ele>
        <time>2022-05-02T11:50:36.000Z</time>
      </trkpt>
      <trkpt lat="41.10793165862560272216796875" lon="-1.4193266071379184722900390625">
        <ele>752</ele>
        <time>2022-05-02T11:50:38.000Z</time>
      </trkpt>
      <trkpt lat="41.10783149488270282745361328125" lon="-1.41937664709985256195068359375">
        <ele>752</ele>
        <time>2022-05-02T11:50:40.000Z</time>
      </trkpt>
      <trkpt lat="41.107735522091388702392578125" lon="-1.4194251783192157745361328125">
        <ele>752</ele>
        <time>2022-05-02T11:50:42.000Z</time>
      </trkpt>
      <trkpt lat="41.10763787291944026947021484375" lon="-1.41947655938565731048583984375">
        <ele>751.79998779296875</ele>
        <time>2022-05-02T11:50:44.000Z</time>
      </trkpt>
      <trkpt lat="41.10754097811877727508544921875" lon="-1.4195277728140354156494140625">
        <ele>751.5999755859375</ele>
        <time>2022-05-02T11:50:46.000Z</time>
      </trkpt>
      <trkpt lat="41.107448525726795196533203125" lon="-1.41958259046077728271484375">
        <ele>751.20001220703125</ele>
        <time>2022-05-02T11:50:48.000Z</time>
      </trkpt>
      <trkpt lat="41.1074027605354785919189453125" lon="-1.41961083747446537017822265625">
        <ele>751</ele>
        <time>2022-05-02T11:50:49.000Z</time>
      </trkpt>
      <trkpt lat="41.107356660068035125732421875" lon="-1.41963765956461429595947265625">
        <ele>751</ele>
        <time>2022-05-02T11:50:50.000Z</time>
      </trkpt>
      <trkpt lat="41.10726915299892425537109375" lon="-1.41969013027846813201904296875">
        <ele>751</ele>
        <time>2022-05-02T11:50:52.000Z</time>
      </trkpt>
      <trkpt lat="41.10722598619759082794189453125" lon="-1.419715024530887603759765625">
        <ele>751</ele>
        <time>2022-05-02T11:50:53.000Z</time>
      </trkpt>
      <trkpt lat="41.10718323849141597747802734375" lon="-1.41973975114524364471435546875">
        <ele>750.79998779296875</ele>
        <time>2022-05-02T11:50:54.000Z</time>
      </trkpt>
      <trkpt lat="41.1070939712226390838623046875" lon="-1.4197829179465770721435546875">
        <ele>750.79998779296875</ele>
        <time>2022-05-02T11:50:56.000Z</time>
      </trkpt>
      <trkpt lat="41.107048876583576202392578125" lon="-1.41980462707579135894775390625">
        <ele>750.79998779296875</ele>
        <time>2022-05-02T11:50:57.000Z</time>
      </trkpt>
      <trkpt lat="41.107007302343845367431640625" lon="-1.41982792876660823822021484375">
        <ele>751</ele>
        <time>2022-05-02T11:50:58.000Z</time>
      </trkpt>
      <trkpt lat="41.1069273389875888824462890625" lon="-1.41987872309982776641845703125">
        <ele>751</ele>
        <time>2022-05-02T11:51:00.000Z</time>
      </trkpt>
      <trkpt lat="41.106851398944854736328125" lon="-1.41993052326142787933349609375">
        <ele>751.20001220703125</ele>
        <time>2022-05-02T11:51:02.000Z</time>
      </trkpt>
      <trkpt lat="41.10677562654018402099609375" lon="-1.419980563223361968994140625">
        <ele>751.4000244140625</ele>
        <time>2022-05-02T11:51:04.000Z</time>
      </trkpt>
      <trkpt lat="41.10669507645070552825927734375" lon="-1.42003345303237438201904296875">
        <ele>752</ele>
        <time>2022-05-02T11:51:06.000Z</time>
      </trkpt>
      <trkpt lat="41.10661058686673641204833984375" lon="-1.4200940541923046112060546875">
        <ele>752.5999755859375</ele>
        <time>2022-05-02T11:51:08.000Z</time>
      </trkpt>
      <trkpt lat="41.10651738010346889495849609375" lon="-1.4201564155519008636474609375">
        <ele>753.20001220703125</ele>
        <time>2022-05-02T11:51:10.000Z</time>
      </trkpt>
      <trkpt lat="41.1064207367599010467529296875" lon="-1.42021634615957736968994140625">
        <ele>753.4000244140625</ele>
        <time>2022-05-02T11:51:12.000Z</time>
      </trkpt>
      <trkpt lat="41.10637019388377666473388671875" lon="-1.42024509608745574951171875">
        <ele>753.5999755859375</ele>
        <time>2022-05-02T11:51:13.000Z</time>
      </trkpt>
      <trkpt lat="41.1063181422650814056396484375" lon="-1.42027535475790500640869140625">
        <ele>754</ele>
        <time>2022-05-02T11:51:14.000Z</time>
      </trkpt>
      <trkpt lat="41.10621261410415172576904296875" lon="-1.4203388057649135589599609375">
        <ele>753.5999755859375</ele>
        <time>2022-05-02T11:51:16.000Z</time>
      </trkpt>
      <trkpt lat="41.10610716976225376129150390625" lon="-1.42040091566741466522216796875">
        <ele>752.79998779296875</ele>
        <time>2022-05-02T11:51:18.000Z</time>
      </trkpt>
      <trkpt lat="41.1060036532580852508544921875" lon="-1.420457661151885986328125">
        <ele>752</ele>
        <time>2022-05-02T11:51:20.000Z</time>
      </trkpt>
      <trkpt lat="41.105900220572948455810546875" lon="-1.42051474191248416900634765625">
        <ele>751</ele>
        <time>2022-05-02T11:51:22.000Z</time>
      </trkpt>
      <trkpt lat="41.1058504320681095123291015625" lon="-1.4205421507358551025390625">
        <ele>750.4000244140625</ele>
        <time>2022-05-02T11:51:23.000Z</time>
      </trkpt>
      <trkpt lat="41.10580206848680973052978515625" lon="-1.420565955340862274169921875">
        <ele>749.79998779296875</ele>
        <time>2022-05-02T11:51:24.000Z</time>
      </trkpt>
      <trkpt lat="41.10570835880935192108154296875" lon="-1.420610882341861724853515625">
        <ele>748.79998779296875</ele>
        <time>2022-05-02T11:51:26.000Z</time>
      </trkpt>
      <trkpt lat="41.1056170798838138580322265625" lon="-1.4206579886376857757568359375">
        <ele>747.79998779296875</ele>
        <time>2022-05-02T11:51:28.000Z</time>
      </trkpt>
      <trkpt lat="41.105525381863117218017578125" lon="-1.42071045935153961181640625">
        <ele>747</ele>
        <time>2022-05-02T11:51:30.000Z</time>
      </trkpt>
      <trkpt lat="41.1054350249469280242919921875" lon="-1.4207646064460277557373046875">
        <ele>746.20001220703125</ele>
        <time>2022-05-02T11:51:32.000Z</time>
      </trkpt>
      <trkpt lat="41.105344332754611968994140625" lon="-1.42080609686672687530517578125">
        <ele>746</ele>
        <time>2022-05-02T11:51:34.000Z</time>
      </trkpt>
      <trkpt lat="41.10525640659034252166748046875" lon="-1.420846246182918548583984375">
        <ele>746</ele>
        <time>2022-05-02T11:51:36.000Z</time>
      </trkpt>
      <trkpt lat="41.10521382652223110198974609375" lon="-1.42086812295019626617431640625">
        <ele>746</ele>
        <time>2022-05-02T11:51:37.000Z</time>
      </trkpt>
      <trkpt lat="41.10517141409218311309814453125" lon="-1.42089008353650569915771484375">
        <ele>746</ele>
        <time>2022-05-02T11:51:38.000Z</time>
      </trkpt>
      <trkpt lat="41.1050873436033725738525390625" lon="-1.42092931084334850311279296875">
        <ele>746.20001220703125</ele>
        <time>2022-05-02T11:51:40.000Z</time>
      </trkpt>
      <trkpt lat="41.10500763170421123504638671875" lon="-1.4209637604653835296630859375">
        <ele>746.5999755859375</ele>
        <time>2022-05-02T11:51:42.000Z</time>
      </trkpt>
      <trkpt lat="41.10492833890020847320556640625" lon="-1.42099401913583278656005859375">
        <ele>746.79998779296875</ele>
        <time>2022-05-02T11:51:44.000Z</time>
      </trkpt>
      <trkpt lat="41.104857511818408966064453125" lon="-1.4210371859371662139892578125">
        <ele>747.20001220703125</ele>
        <time>2022-05-02T11:51:46.000Z</time>
      </trkpt>
      <trkpt lat="41.1047874391078948974609375" lon="-1.42108705826103687286376953125">
        <ele>747.79998779296875</ele>
        <time>2022-05-02T11:51:48.000Z</time>
      </trkpt>
      <trkpt lat="41.10471107997000217437744140625" lon="-1.42113852314651012420654296875">
        <ele>748.5999755859375</ele>
        <time>2022-05-02T11:51:50.000Z</time>
      </trkpt>
      <trkpt lat="41.104679144918918609619140625" lon="-1.42116685397922992706298828125">
        <ele>749</ele>
        <time>2022-05-02T11:51:51.000Z</time>
      </trkpt>
      <trkpt lat="41.10465022735297679901123046875" lon="-1.421197615563869476318359375">
        <ele>749.5999755859375</ele>
        <time>2022-05-02T11:51:52.000Z</time>
      </trkpt>
      <trkpt lat="41.10462189652025699615478515625" lon="-1.4212292991578578948974609375">
        <ele>750</ele>
        <time>2022-05-02T11:51:53.000Z</time>
      </trkpt>
      <trkpt lat="41.104592643678188323974609375" lon="-1.42125788144767284393310546875">
        <ele>750.20001220703125</ele>
        <time>2022-05-02T11:51:54.000Z</time>
      </trkpt>
      <trkpt lat="41.10453891567885875701904296875" lon="-1.42131320200860500335693359375">
        <ele>750.79998779296875</ele>
        <time>2022-05-02T11:51:56.000Z</time>
      </trkpt>
      <trkpt lat="41.10448711551725864410400390625" lon="-1.42136198468506336212158203125">
        <ele>751.4000244140625</ele>
        <time>2022-05-02T11:51:58.000Z</time>
      </trkpt>
      <trkpt lat="41.1044600419700145721435546875" lon="-1.4213843643665313720703125">
        <ele>751.5999755859375</ele>
        <time>2022-05-02T11:51:59.000Z</time>
      </trkpt>
      <trkpt lat="41.10443280078470706939697265625" lon="-1.42140842042863368988037109375">
        <ele>751.79998779296875</ele>
        <time>2022-05-02T11:52:00.000Z</time>
      </trkpt>
      <trkpt lat="41.1043789051473140716552734375" lon="-1.42144949175417423248291015625">
        <ele>752.20001220703125</ele>
        <time>2022-05-02T11:52:02.000Z</time>
      </trkpt>
      <trkpt lat="41.1043309606611728668212890625" lon="-1.4214780740439891815185546875">
        <ele>752.4000244140625</ele>
        <time>2022-05-02T11:52:04.000Z</time>
      </trkpt>
      <trkpt lat="41.10430891625583171844482421875" lon="-1.42149031162261962890625">
        <ele>752.5999755859375</ele>
        <time>2022-05-02T11:52:05.000Z</time>
      </trkpt>
      <trkpt lat="41.10428963787853717803955078125" lon="-1.42150380648672580718994140625">
        <ele>752.79998779296875</ele>
        <time>2022-05-02T11:52:06.000Z</time>
      </trkpt>
      <trkpt lat="41.10424856655299663543701171875" lon="-1.4215226657688617706298828125">
        <ele>753.20001220703125</ele>
        <time>2022-05-02T11:52:08.000Z</time>
      </trkpt>
      <trkpt lat="41.104232557117938995361328125" lon="-1.42151922918856143951416015625">
        <ele>753.20001220703125</ele>
        <time>2022-05-02T11:52:09.000Z</time>
      </trkpt>
      <trkpt lat="41.10421671532094478607177734375" lon="-1.42150833271443843841552734375">
        <ele>753.4000244140625</ele>
        <time>2022-05-02T11:52:10.000Z</time>
      </trkpt>
      <trkpt lat="41.1041841097176074981689453125" lon="-1.4214643277227878570556640625">
        <ele>753.20001220703125</ele>
        <time>2022-05-02T11:52:12.000Z</time>
      </trkpt>
      <trkpt lat="41.10414345748722553253173828125" lon="-1.42139819450676441192626953125">
        <ele>753</ele>
        <time>2022-05-02T11:52:14.000Z</time>
      </trkpt>
      <trkpt lat="41.10412267036736011505126953125" lon="-1.421359218657016754150390625">
        <ele>752.79998779296875</ele>
        <time>2022-05-02T11:52:15.000Z</time>
      </trkpt>
      <trkpt lat="41.10410003922879695892333984375" lon="-1.4213198237121105194091796875">
        <ele>752.5999755859375</ele>
        <time>2022-05-02T11:52:16.000Z</time>
      </trkpt>
      <trkpt lat="41.10405075363814830780029296875" lon="-1.4212353341281414031982421875">
        <ele>753</ele>
        <time>2022-05-02T11:52:18.000Z</time>
      </trkpt>
      <trkpt lat="41.10399962402880191802978515625" lon="-1.42115159891545772552490234375">
        <ele>753.4000244140625</ele>
        <time>2022-05-02T11:52:20.000Z</time>
      </trkpt>
      <trkpt lat="41.10394463874399662017822265625" lon="-1.4210690371692180633544921875">
        <ele>753.20001220703125</ele>
        <time>2022-05-02T11:52:22.000Z</time>
      </trkpt>
      <trkpt lat="41.1039162240922451019287109375" lon="-1.42102553509175777435302734375">
        <ele>753</ele>
        <time>2022-05-02T11:52:23.000Z</time>
      </trkpt>
      <trkpt lat="41.1038870550692081451416015625" lon="-1.42098228447139263153076171875">
        <ele>752.79998779296875</ele>
        <time>2022-05-02T11:52:24.000Z</time>
      </trkpt>
      <trkpt lat="41.10382896848022937774658203125" lon="-1.42089662142097949981689453125">
        <ele>752.4000244140625</ele>
        <time>2022-05-02T11:52:26.000Z</time>
      </trkpt>
      <trkpt lat="41.10376811586320400238037109375" lon="-1.42081213183701038360595703125">
        <ele>752</ele>
        <time>2022-05-02T11:52:28.000Z</time>
      </trkpt>
      <trkpt lat="41.1037060059607028961181640625" lon="-1.42072848044335842132568359375">
        <ele>752</ele>
        <time>2022-05-02T11:52:30.000Z</time>
      </trkpt>
      <trkpt lat="41.10365496017038822174072265625" lon="-1.420654468238353729248046875">
        <ele>751.79998779296875</ele>
        <time>2022-05-02T11:52:32.000Z</time>
      </trkpt>
      <trkpt lat="41.1036342568695545196533203125" lon="-1.42062471248209476470947265625">
        <ele>751.79998779296875</ele>
        <time>2022-05-02T11:52:33.000Z</time>
      </trkpt>
      <trkpt lat="41.10361623577773571014404296875" lon="-1.420597136020660400390625">
        <ele>751.79998779296875</ele>
        <time>2022-05-02T11:52:34.000Z</time>
      </trkpt>
      <trkpt lat="41.1035831272602081298828125" lon="-1.42055111937224864959716796875">
        <ele>751.79998779296875</ele>
        <time>2022-05-02T11:52:36.000Z</time>
      </trkpt>
      <trkpt lat="41.1035497672855854034423828125" lon="-1.42052044160664081573486328125">
        <ele>751.79998779296875</ele>
        <time>2022-05-02T11:52:38.000Z</time>
      </trkpt>
      <trkpt lat="41.10353685915470123291015625" lon="-1.42050920985639095306396484375">
        <ele>751.79998779296875</ele>
        <time>2022-05-02T11:52:39.000Z</time>
      </trkpt>
      <trkpt lat="41.10352554358541965484619140625" lon="-1.42050099559128284454345703125">
        <ele>751.79998779296875</ele>
        <time>2022-05-02T11:52:40.000Z</time>
      </trkpt>
      <trkpt lat="41.10351674258708953857421875" lon="-1.4204920269548892974853515625">
        <ele>751.79998779296875</ele>
        <time>2022-05-02T11:52:41.000Z</time>
      </trkpt>
      <trkpt lat="41.1035051755607128143310546875" lon="-1.42048289068043231964111328125">
        <ele>751.79998779296875</ele>
        <time>2022-05-02T11:52:42.000Z</time>
      </trkpt>
      <trkpt lat="41.1034713126718997955322265625" lon="-1.42046235501766204833984375">
        <ele>751.79998779296875</ele>
        <time>2022-05-02T11:52:44.000Z</time>
      </trkpt>
      <trkpt lat="41.1034361086785793304443359375" lon="-1.420443244278430938720703125">
        <ele>752</ele>
        <time>2022-05-02T11:52:46.000Z</time>
      </trkpt>
      <trkpt lat="41.10339931212365627288818359375" lon="-1.4204286597669124603271484375">
        <ele>752</ele>
        <time>2022-05-02T11:52:48.000Z</time>
      </trkpt>
      <trkpt lat="41.103354133665561676025390625" lon="-1.42040125094354152679443359375">
        <ele>752</ele>
        <time>2022-05-02T11:52:50.000Z</time>
      </trkpt>
      <trkpt lat="41.10328473150730133056640625" lon="-1.4203679747879505157470703125">
        <ele>752.5999755859375</ele>
        <time>2022-05-02T11:52:52.000Z</time>
      </trkpt>
      <trkpt lat="41.10320719890296459197998046875" lon="-1.42035104334354400634765625">
        <ele>753.20001220703125</ele>
        <time>2022-05-02T11:52:54.000Z</time>
      </trkpt>
      <trkpt lat="41.103173084557056427001953125" lon="-1.4203441701829433441162109375">
        <ele>753.4000244140625</ele>
        <time>2022-05-02T11:52:55.000Z</time>
      </trkpt>
      <trkpt lat="41.10314182005822658538818359375" lon="-1.42033838666975498199462890625">
        <ele>753.5999755859375</ele>
        <time>2022-05-02T11:52:56.000Z</time>
      </trkpt>
      <trkpt lat="41.10307962633669376373291015625" lon="-1.42032631672918796539306640625">
        <ele>754</ele>
        <time>2022-05-02T11:52:58.000Z</time>
      </trkpt>
      <trkpt lat="41.103035621345043182373046875" lon="-1.42031290568411350250244140625">
        <ele>754.4000244140625</ele>
        <time>2022-05-02T11:53:00.000Z</time>
      </trkpt>
      <trkpt lat="41.1030163429677486419677734375" lon="-1.4203069545328617095947265625">
        <ele>754.4000244140625</ele>
        <time>2022-05-02T11:53:01.000Z</time>
      </trkpt>
      <trkpt lat="41.102996058762073516845703125" lon="-1.4203036017715930938720703125">
        <ele>754.5999755859375</ele>
        <time>2022-05-02T11:53:02.000Z</time>
      </trkpt>
      <trkpt lat="41.10294870100915431976318359375" lon="-1.42031575553119182586669921875">
        <ele>755</ele>
        <time>2022-05-02T11:53:04.000Z</time>
      </trkpt>
      <trkpt lat="41.10289371572434902191162109375" lon="-1.42033159732818603515625">
        <ele>755.4000244140625</ele>
        <time>2022-05-02T11:53:06.000Z</time>
      </trkpt>
      <trkpt lat="41.1028342880308628082275390625" lon="-1.420320533215999603271484375">
        <ele>755.79998779296875</ele>
        <time>2022-05-02T11:53:08.000Z</time>
      </trkpt>
      <trkpt lat="41.10277402214705944061279296875" lon="-1.4202945493161678314208984375">
        <ele>756.20001220703125</ele>
        <time>2022-05-02T11:53:10.000Z</time>
      </trkpt>
      <trkpt lat="41.1027474515140056610107421875" lon="-1.42028935253620147705078125">
        <ele>756.4000244140625</ele>
        <time>2022-05-02T11:53:11.000Z</time>
      </trkpt>
      <trkpt lat="41.10272188670933246612548828125" lon="-1.42028398811817169189453125">
        <ele>756.5999755859375</ele>
        <time>2022-05-02T11:53:12.000Z</time>
      </trkpt>
      <trkpt lat="41.1026689969003200531005859375" lon="-1.42026613466441631317138671875">
        <ele>757</ele>
        <time>2022-05-02T11:53:14.000Z</time>
      </trkpt>
      <trkpt lat="41.10262650065124034881591796875" lon="-1.4202362112700939178466796875">
        <ele>757</ele>
        <time>2022-05-02T11:53:16.000Z</time>
      </trkpt>
      <trkpt lat="41.10259112901985645294189453125" lon="-1.42019748687744140625">
        <ele>756.79998779296875</ele>
        <time>2022-05-02T11:53:18.000Z</time>
      </trkpt>
      <trkpt lat="41.10254310071468353271484375" lon="-1.42016018740832805633544921875">
        <ele>756.5999755859375</ele>
        <time>2022-05-02T11:53:20.000Z</time>
      </trkpt>
      <trkpt lat="41.10249389894306659698486328125" lon="-1.42011375166475772857666015625">
        <ele>756.4000244140625</ele>
        <time>2022-05-02T11:53:22.000Z</time>
      </trkpt>
      <trkpt lat="41.10241971909999847412109375" lon="-1.42005910165607929229736328125">
        <ele>756.20001220703125</ele>
        <time>2022-05-02T11:53:24.000Z</time>
      </trkpt>
      <trkpt lat="41.10233011655509471893310546875" lon="-1.41998852603137493133544921875">
        <ele>756.20001220703125</ele>
        <time>2022-05-02T11:53:26.000Z</time>
      </trkpt>
      <trkpt lat="41.1022311262786388397216796875" lon="-1.41991677694022655487060546875">
        <ele>756.4000244140625</ele>
        <time>2022-05-02T11:53:28.000Z</time>
      </trkpt>
      <trkpt lat="41.10213163308799266815185546875" lon="-1.41984050162136554718017578125">
        <ele>756.79998779296875</ele>
        <time>2022-05-02T11:53:30.000Z</time>
      </trkpt>
      <trkpt lat="41.1020301282405853271484375" lon="-1.4197643101215362548828125">
        <ele>757</ele>
        <time>2022-05-02T11:53:32.000Z</time>
      </trkpt>
      <trkpt lat="41.10197757370769977569580078125" lon="-1.41972701065242290496826171875">
        <ele>756.5999755859375</ele>
        <time>2022-05-02T11:53:33.000Z</time>
      </trkpt>
      <trkpt lat="41.1019223369657993316650390625" lon="-1.41968912445008754730224609375">
        <ele>756.20001220703125</ele>
        <time>2022-05-02T11:53:34.000Z</time>
      </trkpt>
      <trkpt lat="41.10180675052106380462646484375" lon="-1.41961536370217800140380859375">
        <ele>755.5999755859375</ele>
        <time>2022-05-02T11:53:36.000Z</time>
      </trkpt>
      <trkpt lat="41.1016909964382648468017578125" lon="-1.41954545862972736358642578125">
        <ele>754.4000244140625</ele>
        <time>2022-05-02T11:53:38.000Z</time>
      </trkpt>
      <trkpt lat="41.10157348215579986572265625" lon="-1.41947236843407154083251953125">
        <ele>754</ele>
        <time>2022-05-02T11:53:40.000Z</time>
      </trkpt>
      <trkpt lat="41.101514808833599090576171875" lon="-1.41943431459367275238037109375">
        <ele>753.79998779296875</ele>
        <time>2022-05-02T11:53:41.000Z</time>
      </trkpt>
      <trkpt lat="41.10145521350204944610595703125" lon="-1.4193941652774810791015625">
        <ele>753.5999755859375</ele>
        <time>2022-05-02T11:53:42.000Z</time>
      </trkpt>
      <trkpt lat="41.10133803449571132659912109375" lon="-1.419314704835414886474609375">
        <ele>753</ele>
        <time>2022-05-02T11:53:44.000Z</time>
      </trkpt>
      <trkpt lat="41.10122789628803730010986328125" lon="-1.4192253537476062774658203125">
        <ele>753</ele>
        <time>2022-05-02T11:53:46.000Z</time>
      </trkpt>
      <trkpt lat="41.101172156631946563720703125" lon="-1.419178582727909088134765625">
        <ele>752.4000244140625</ele>
        <time>2022-05-02T11:53:47.000Z</time>
      </trkpt>
      <trkpt lat="41.10111750662326812744140625" lon="-1.4191284589469432830810546875">
        <ele>751.79998779296875</ele>
        <time>2022-05-02T11:53:48.000Z</time>
      </trkpt>
      <trkpt lat="41.1010162532329559326171875" lon="-1.41902745701372623443603515625">
        <ele>750.5999755859375</ele>
        <time>2022-05-02T11:53:50.000Z</time>
      </trkpt>
      <trkpt lat="41.1009191907942295074462890625" lon="-1.41892435960471630096435546875">
        <ele>749.79998779296875</ele>
        <time>2022-05-02T11:53:52.000Z</time>
      </trkpt>
      <trkpt lat="41.10082875005900859832763671875" lon="-1.418813802301883697509765625">
        <ele>748.5999755859375</ele>
        <time>2022-05-02T11:53:54.000Z</time>
      </trkpt>
      <trkpt lat="41.1007797159254550933837890625" lon="-1.41876376233994960784912109375">
        <ele>748.4000244140625</ele>
        <time>2022-05-02T11:53:55.000Z</time>
      </trkpt>
      <trkpt lat="41.1007270775735378265380859375" lon="-1.4187210984528064727783203125">
        <ele>748.5999755859375</ele>
        <time>2022-05-02T11:53:56.000Z</time>
      </trkpt>
      <trkpt lat="41.1006214655935764312744140625" lon="-1.4186537079513072967529296875">
        <ele>749</ele>
        <time>2022-05-02T11:53:58.000Z</time>
      </trkpt>
      <trkpt lat="41.1005182005465030670166015625" lon="-1.4186014048755168914794921875">
        <ele>749</ele>
        <time>2022-05-02T11:54:00.000Z</time>
      </trkpt>
      <trkpt lat="41.10041677951812744140625" lon="-1.4185598306357860565185546875">
        <ele>748.79998779296875</ele>
        <time>2022-05-02T11:54:02.000Z</time>
      </trkpt>
      <trkpt lat="41.100368499755859375" lon="-1.418546251952648162841796875">
        <ele>748.79998779296875</ele>
        <time>2022-05-02T11:54:03.000Z</time>
      </trkpt>
      <trkpt lat="41.10032198019325733184814453125" lon="-1.4185356907546520233154296875">
        <ele>748.5999755859375</ele>
        <time>2022-05-02T11:54:04.000Z</time>
      </trkpt>
      <trkpt lat="41.10022994689643383026123046875" lon="-1.41850895248353481292724609375">
        <ele>748.20001220703125</ele>
        <time>2022-05-02T11:54:06.000Z</time>
      </trkpt>
      <trkpt lat="41.1001296155154705047607421875" lon="-1.4184843935072422027587890625">
        <ele>747.79998779296875</ele>
        <time>2022-05-02T11:54:08.000Z</time>
      </trkpt>
      <trkpt lat="41.10002241097390651702880859375" lon="-1.418463103473186492919921875">
        <ele>748</ele>
        <time>2022-05-02T11:54:10.000Z</time>
      </trkpt>
      <trkpt lat="41.099909842014312744140625" lon="-1.41844667494297027587890625">
        <ele>748.79998779296875</ele>
        <time>2022-05-02T11:54:12.000Z</time>
      </trkpt>
      <trkpt lat="41.099853180348873138427734375" lon="-1.41844223253428936004638671875">
        <ele>749.4000244140625</ele>
        <time>2022-05-02T11:54:13.000Z</time>
      </trkpt>
      <trkpt lat="41.0997963510453701019287109375" lon="-1.41843720339238643646240234375">
        <ele>750</ele>
        <time>2022-05-02T11:54:14.000Z</time>
      </trkpt>
      <trkpt lat="41.0996831953525543212890625" lon="-1.41841507516801357269287109375">
        <ele>750.79998779296875</ele>
        <time>2022-05-02T11:54:16.000Z</time>
      </trkpt>
      <trkpt lat="41.0995666868984699249267578125" lon="-1.41838205046951770782470703125">
        <ele>751.4000244140625</ele>
        <time>2022-05-02T11:54:18.000Z</time>
      </trkpt>
      <trkpt lat="41.09950876794755458831787109375" lon="-1.41836679540574550628662109375">
        <ele>751.5999755859375</ele>
        <time>2022-05-02T11:54:19.000Z</time>
      </trkpt>
      <trkpt lat="41.09945177100598812103271484375" lon="-1.41834818758070468902587890625">
        <ele>751.79998779296875</ele>
        <time>2022-05-02T11:54:20.000Z</time>
      </trkpt>
      <trkpt lat="41.09934054315090179443359375" lon="-1.418301500380039215087890625">
        <ele>752</ele>
        <time>2022-05-02T11:54:22.000Z</time>
      </trkpt>
      <trkpt lat="41.09923317097127437591552734375" lon="-1.41823754645884037017822265625">
        <ele>751.79998779296875</ele>
        <time>2022-05-02T11:54:24.000Z</time>
      </trkpt>
      <trkpt lat="41.09917986206710338592529296875" lon="-1.41820393502712249755859375">
        <ele>751.5999755859375</ele>
        <time>2022-05-02T11:54:25.000Z</time>
      </trkpt>
      <trkpt lat="41.0991274751722812652587890625" lon="-1.41817434690892696380615234375">
        <ele>751.5999755859375</ele>
        <time>2022-05-02T11:54:26.000Z</time>
      </trkpt>
      <trkpt lat="41.099027730524539947509765625" lon="-1.4181268215179443359375">
        <ele>751.5999755859375</ele>
        <time>2022-05-02T11:54:28.000Z</time>
      </trkpt>
      <trkpt lat="41.09894684515893459320068359375" lon="-1.41808935441076755523681640625">
        <ele>751.79998779296875</ele>
        <time>2022-05-02T11:54:30.000Z</time>
      </trkpt>
      <trkpt lat="41.098870821297168731689453125" lon="-1.41806102357804775238037109375">
        <ele>751.79998779296875</ele>
        <time>2022-05-02T11:54:32.000Z</time>
      </trkpt>
      <trkpt lat="41.0987927019596099853515625" lon="-1.4180485345423221588134765625">
        <ele>752</ele>
        <time>2022-05-02T11:54:34.000Z</time>
      </trkpt>
      <trkpt lat="41.09874953515827655792236328125" lon="-1.41804660670459270477294921875">
        <ele>752.4000244140625</ele>
        <time>2022-05-02T11:54:35.000Z</time>
      </trkpt>
      <trkpt lat="41.09870242886245250701904296875" lon="-1.4180451817810535430908203125">
        <ele>752.79998779296875</ele>
        <time>2022-05-02T11:54:36.000Z</time>
      </trkpt>
      <trkpt lat="41.09860830008983612060546875" lon="-1.41804568469524383544921875">
        <ele>753.79998779296875</ele>
        <time>2022-05-02T11:54:38.000Z</time>
      </trkpt>
      <trkpt lat="41.0985191166400909423828125" lon="-1.41803990118205547332763671875">
        <ele>754.79998779296875</ele>
        <time>2022-05-02T11:54:40.000Z</time>
      </trkpt>
      <trkpt lat="41.09843454323709011077880859375" lon="-1.418032944202423095703125">
        <ele>754.79998779296875</ele>
        <time>2022-05-02T11:54:42.000Z</time>
      </trkpt>
      <trkpt lat="41.09839397482573986053466796875" lon="-1.41802950762212276458740234375">
        <ele>754.5999755859375</ele>
        <time>2022-05-02T11:54:43.000Z</time>
      </trkpt>
      <trkpt lat="41.0983539931476116180419921875" lon="-1.41802749596536159515380859375">
        <ele>754.4000244140625</ele>
        <time>2022-05-02T11:54:44.000Z</time>
      </trkpt>
      <trkpt lat="41.0982748679816722869873046875" lon="-1.41802825033664703369140625">
        <ele>754.20001220703125</ele>
        <time>2022-05-02T11:54:46.000Z</time>
      </trkpt>
      <trkpt lat="41.09819582663476467132568359375" lon="-1.41802498139441013336181640625">
        <ele>754</ele>
        <time>2022-05-02T11:54:48.000Z</time>
      </trkpt>
      <trkpt lat="41.09812089242041110992431640625" lon="-1.418017856776714324951171875">
        <ele>754</ele>
        <time>2022-05-02T11:54:50.000Z</time>
      </trkpt>
      <trkpt lat="41.098084934055805206298828125" lon="-1.4180143363773822784423828125">
        <ele>754</ele>
        <time>2022-05-02T11:54:51.000Z</time>
      </trkpt>
      <trkpt lat="41.098051406443119049072265625" lon="-1.41801039688289165496826171875">
        <ele>754</ele>
        <time>2022-05-02T11:54:52.000Z</time>
      </trkpt>
      <trkpt lat="41.098018549382686614990234375" lon="-1.4180042780935764312744140625">
        <ele>753.79998779296875</ele>
        <time>2022-05-02T11:54:53.000Z</time>
      </trkpt>
      <trkpt lat="41.09798460267484188079833984375" lon="-1.41799740493297576904296875">
        <ele>753.79998779296875</ele>
        <time>2022-05-02T11:54:54.000Z</time>
      </trkpt>
      <trkpt lat="41.0979144461452960968017578125" lon="-1.41798625700175762176513671875">
        <ele>754</ele>
        <time>2022-05-02T11:54:56.000Z</time>
      </trkpt>
      <trkpt lat="41.0978782363235950469970703125" lon="-1.4179798029363155364990234375">
        <ele>754.20001220703125</ele>
        <time>2022-05-02T11:54:57.000Z</time>
      </trkpt>
      <trkpt lat="41.09784160740673542022705078125" lon="-1.4179744385182857513427734375">
        <ele>754.5999755859375</ele>
        <time>2022-05-02T11:54:58.000Z</time>
      </trkpt>
      <trkpt lat="41.09776742756366729736328125" lon="-1.41795725561678409576416015625">
        <ele>755</ele>
        <time>2022-05-02T11:55:00.000Z</time>
      </trkpt>
      <trkpt lat="41.0976951755583286285400390625" lon="-1.417934037744998931884765625">
        <ele>755.4000244140625</ele>
        <time>2022-05-02T11:55:02.000Z</time>
      </trkpt>
      <trkpt lat="41.09762795269489288330078125" lon="-1.41790830530226230621337890625">
        <ele>756</ele>
        <time>2022-05-02T11:55:04.000Z</time>
      </trkpt>
      <trkpt lat="41.0975955985486507415771484375" lon="-1.417895816266536712646484375">
        <ele>756.20001220703125</ele>
        <time>2022-05-02T11:55:05.000Z</time>
      </trkpt>
      <trkpt lat="41.09756223857402801513671875" lon="-1.4178845845162868499755859375">
        <ele>756.5999755859375</ele>
        <time>2022-05-02T11:55:06.000Z</time>
      </trkpt>
      <trkpt lat="41.097495518624782562255859375" lon="-1.4178587682545185089111328125">
        <ele>757</ele>
        <time>2022-05-02T11:55:08.000Z</time>
      </trkpt>
      <trkpt lat="41.09742552973330020904541015625" lon="-1.41783487983047962188720703125">
        <ele>757.4000244140625</ele>
        <time>2022-05-02T11:55:10.000Z</time>
      </trkpt>
      <trkpt lat="41.097388900816440582275390625" lon="-1.41782364808022975921630859375">
        <ele>757.4000244140625</ele>
        <time>2022-05-02T11:55:11.000Z</time>
      </trkpt>
      <trkpt lat="41.09735294245183467864990234375" lon="-1.41781442798674106597900390625">
        <ele>757.5999755859375</ele>
        <time>2022-05-02T11:55:12.000Z</time>
      </trkpt>
      <trkpt lat="41.09728303737938404083251953125" lon="-1.41780168749392032623291015625">
        <ele>758</ele>
        <time>2022-05-02T11:55:14.000Z</time>
      </trkpt>
      <trkpt lat="41.09721363522112369537353515625" lon="-1.4177883602678775787353515625">
        <ele>758.4000244140625</ele>
        <time>2022-05-02T11:55:16.000Z</time>
      </trkpt>
      <trkpt lat="41.09714507125318050384521484375" lon="-1.417769081890583038330078125">
        <ele>758.79998779296875</ele>
        <time>2022-05-02T11:55:18.000Z</time>
      </trkpt>
      <trkpt lat="41.09711204655468463897705078125" lon="-1.41775667667388916015625">
        <ele>759</ele>
        <time>2022-05-02T11:55:19.000Z</time>
      </trkpt>
      <trkpt lat="41.0970775969326496124267578125" lon="-1.4177404157817363739013671875">
        <ele>759</ele>
        <time>2022-05-02T11:55:20.000Z</time>
      </trkpt>
      <trkpt lat="41.09704432077705860137939453125" lon="-1.4177259989082813262939453125">
        <ele>759.20001220703125</ele>
        <time>2022-05-02T11:55:21.000Z</time>
      </trkpt>
      <trkpt lat="41.0970115475356578826904296875" lon="-1.41771309077739715576171875">
        <ele>759.20001220703125</ele>
        <time>2022-05-02T11:55:22.000Z</time>
      </trkpt>
      <trkpt lat="41.09694776125252246856689453125" lon="-1.41768400557339191436767578125">
        <ele>759.4000244140625</ele>
        <time>2022-05-02T11:55:24.000Z</time>
      </trkpt>
      <trkpt lat="41.09688271768391132354736328125" lon="-1.41764997504651546478271484375">
        <ele>759.5999755859375</ele>
        <time>2022-05-02T11:55:26.000Z</time>
      </trkpt>
      <trkpt lat="41.09685002826154232025146484375" lon="-1.41763287596404552459716796875">
        <ele>759.79998779296875</ele>
        <time>2022-05-02T11:55:27.000Z</time>
      </trkpt>
      <trkpt lat="41.0968159139156341552734375" lon="-1.41761695034801959991455078125">
        <ele>760</ele>
        <time>2022-05-02T11:55:28.000Z</time>
      </trkpt>
      <trkpt lat="41.09678112901747226715087890625" lon="-1.41760353930294513702392578125">
        <ele>760.20001220703125</ele>
        <time>2022-05-02T11:55:29.000Z</time>
      </trkpt>
      <trkpt lat="41.09674626030027866363525390625" lon="-1.41758996061980724334716796875">
        <ele>760.4000244140625</ele>
        <time>2022-05-02T11:55:30.000Z</time>
      </trkpt>
      <trkpt lat="41.09667568467557430267333984375" lon="-1.417561210691928863525390625">
        <ele>760.4000244140625</ele>
        <time>2022-05-02T11:55:32.000Z</time>
      </trkpt>
      <trkpt lat="41.0966040194034576416015625" lon="-1.41753665171563625335693359375">
        <ele>760.20001220703125</ele>
        <time>2022-05-02T11:55:34.000Z</time>
      </trkpt>
      <trkpt lat="41.0965294204652309417724609375" lon="-1.41752223484218120574951171875">
        <ele>760.20001220703125</ele>
        <time>2022-05-02T11:55:36.000Z</time>
      </trkpt>
      <trkpt lat="41.096458174288272857666015625" lon="-1.41751150600612163543701171875">
        <ele>760.20001220703125</ele>
        <time>2022-05-02T11:55:38.000Z</time>
      </trkpt>
      <trkpt lat="41.0963916219770908355712890625" lon="-1.41749641858041286468505859375">
        <ele>760.20001220703125</ele>
        <time>2022-05-02T11:55:40.000Z</time>
      </trkpt>
      <trkpt lat="41.09635792672634124755859375" lon="-1.41748837195336818695068359375">
        <ele>760</ele>
        <time>2022-05-02T11:55:41.000Z</time>
      </trkpt>
      <trkpt lat="41.0963222198188304901123046875" lon="-1.41747982241213321685791015625">
        <ele>760</ele>
        <time>2022-05-02T11:55:42.000Z</time>
      </trkpt>
      <trkpt lat="41.096250303089618682861328125" lon="-1.41746523790061473846435546875">
        <ele>760.20001220703125</ele>
        <time>2022-05-02T11:55:44.000Z</time>
      </trkpt>
      <trkpt lat="41.0961803980171680450439453125" lon="-1.4174567721784114837646484375">
        <ele>760.5999755859375</ele>
        <time>2022-05-02T11:55:46.000Z</time>
      </trkpt>
      <trkpt lat="41.0961096547544002532958984375" lon="-1.41744512133300304412841796875">
        <ele>761</ele>
        <time>2022-05-02T11:55:48.000Z</time>
      </trkpt>
      <trkpt lat="41.09603698365390300750732421875" lon="-1.41743724234402179718017578125">
        <ele>761.5999755859375</ele>
        <time>2022-05-02T11:55:50.000Z</time>
      </trkpt>
      <trkpt lat="41.09596230089664459228515625" lon="-1.41743439249694347381591796875">
        <ele>762.20001220703125</ele>
        <time>2022-05-02T11:55:52.000Z</time>
      </trkpt>
      <trkpt lat="41.09592651017010211944580078125" lon="-1.41743539832532405853271484375">
        <ele>762.5999755859375</ele>
        <time>2022-05-02T11:55:53.000Z</time>
      </trkpt>
      <trkpt lat="41.09589147381484508514404296875" lon="-1.4174383319914340972900390625">
        <ele>763</ele>
        <time>2022-05-02T11:55:54.000Z</time>
      </trkpt>
      <trkpt lat="41.095854006707668304443359375" lon="-1.41743950545787811279296875">
        <ele>763.4000244140625</ele>
        <time>2022-05-02T11:55:55.000Z</time>
      </trkpt>
      <trkpt lat="41.09581670723855495452880859375" lon="-1.4174426905810832977294921875">
        <ele>763.79998779296875</ele>
        <time>2022-05-02T11:55:56.000Z</time>
      </trkpt>
      <trkpt lat="41.09574311412870883941650390625" lon="-1.41745065338909626007080078125">
        <ele>764.5999755859375</ele>
        <time>2022-05-02T11:55:58.000Z</time>
      </trkpt>
      <trkpt lat="41.09567128121852874755859375" lon="-1.41746222041547298431396484375">
        <ele>765</ele>
        <time>2022-05-02T11:56:00.000Z</time>
      </trkpt>
      <trkpt lat="41.0956352390348911285400390625" lon="-1.41746724955737590789794921875">
        <ele>765</ele>
        <time>2022-05-02T11:56:01.000Z</time>
      </trkpt>
      <trkpt lat="41.09560011886060237884521484375" lon="-1.41747127287089824676513671875">
        <ele>765</ele>
        <time>2022-05-02T11:56:02.000Z</time>
      </trkpt>
      <trkpt lat="41.09553189016878604888916015625" lon="-1.4174815826117992401123046875">
        <ele>765</ele>
        <time>2022-05-02T11:56:04.000Z</time>
      </trkpt>
      <trkpt lat="41.09546550549566745758056640625" lon="-1.4174951612949371337890625">
        <ele>765</ele>
        <time>2022-05-02T11:56:06.000Z</time>
      </trkpt>
      <trkpt lat="41.0953998751938343048095703125" lon="-1.41750932671129703521728515625">
        <ele>765.20001220703125</ele>
        <time>2022-05-02T11:56:08.000Z</time>
      </trkpt>
      <trkpt lat="41.09533927403390407562255859375" lon="-1.41753028146922588348388671875">
        <ele>765.20001220703125</ele>
        <time>2022-05-02T11:56:10.000Z</time>
      </trkpt>
      <trkpt lat="41.0952774994075298309326171875" lon="-1.4175446145236492156982421875">
        <ele>765.20001220703125</ele>
        <time>2022-05-02T11:56:12.000Z</time>
      </trkpt>
      <trkpt lat="41.09522201120853424072265625" lon="-1.41755542717874050140380859375">
        <ele>765.20001220703125</ele>
        <time>2022-05-02T11:56:14.000Z</time>
      </trkpt>
      <trkpt lat="41.0951578058302402496337890625" lon="-1.41756431199610233306884765625">
        <ele>765.4000244140625</ele>
        <time>2022-05-02T11:56:16.000Z</time>
      </trkpt>
      <trkpt lat="41.09509267844259738922119140625" lon="-1.41757336445152759552001953125">
        <ele>765.4000244140625</ele>
        <time>2022-05-02T11:56:18.000Z</time>
      </trkpt>
      <trkpt lat="41.0950257070362567901611328125" lon="-1.41758040525019168853759765625">
        <ele>765.20001220703125</ele>
        <time>2022-05-02T11:56:20.000Z</time>
      </trkpt>
      <trkpt lat="41.0949687100946903228759765625" lon="-1.41758434474468231201171875">
        <ele>764.79998779296875</ele>
        <time>2022-05-02T11:56:22.000Z</time>
      </trkpt>
      <trkpt lat="41.09491313807666301727294921875" lon="-1.41757638193666934967041015625">
        <ele>764.20001220703125</ele>
        <time>2022-05-02T11:56:24.000Z</time>
      </trkpt>
      <trkpt lat="41.09485463239252567291259765625" lon="-1.41756422817707061767578125">
        <ele>763.79998779296875</ele>
        <time>2022-05-02T11:56:26.000Z</time>
      </trkpt>
      <trkpt lat="41.09479042701423168182373046875" lon="-1.41755308024585247039794921875">
        <ele>763.5999755859375</ele>
        <time>2022-05-02T11:56:28.000Z</time>
      </trkpt>
      <trkpt lat="41.094725467264652252197265625" lon="-1.4175479672849178314208984375">
        <ele>763.79998779296875</ele>
        <time>2022-05-02T11:56:30.000Z</time>
      </trkpt>
      <trkpt lat="41.09469227492809295654296875" lon="-1.41754386015236377716064453125">
        <ele>764</ele>
        <time>2022-05-02T11:56:31.000Z</time>
      </trkpt>
      <trkpt lat="41.0946555621922016143798828125" lon="-1.4175380766391754150390625">
        <ele>764</ele>
        <time>2022-05-02T11:56:32.000Z</time>
      </trkpt>
      <trkpt lat="41.0945814661681652069091796875" lon="-1.41752357594668865203857421875">
        <ele>764.4000244140625</ele>
        <time>2022-05-02T11:56:34.000Z</time>
      </trkpt>
      <trkpt lat="41.09451390802860260009765625" lon="-1.4175070635974407196044921875">
        <ele>765.4000244140625</ele>
        <time>2022-05-02T11:56:36.000Z</time>
      </trkpt>
      <trkpt lat="41.09448264352977275848388671875" lon="-1.41749859787523746490478515625">
        <ele>765.79998779296875</ele>
        <time>2022-05-02T11:56:37.000Z</time>
      </trkpt>
      <trkpt lat="41.0944543965160846710205078125" lon="-1.4174933172762393951416015625">
        <ele>766.20001220703125</ele>
        <time>2022-05-02T11:56:38.000Z</time>
      </trkpt>
      <trkpt lat="41.0944020934402942657470703125" lon="-1.4174718596041202545166015625">
        <ele>767</ele>
        <time>2022-05-02T11:56:40.000Z</time>
      </trkpt>
      <trkpt lat="41.09434450976550579071044921875" lon="-1.417416371405124664306640625">
        <ele>767.79998779296875</ele>
        <time>2022-05-02T11:56:42.000Z</time>
      </trkpt>
      <trkpt lat="41.09430897049605846405029296875" lon="-1.4173447899520397186279296875">
        <ele>768</ele>
        <time>2022-05-02T11:56:44.000Z</time>
      </trkpt>
      <trkpt lat="41.094277203083038330078125" lon="-1.4172556065022945404052734375">
        <ele>768.20001220703125</ele>
        <time>2022-05-02T11:56:46.000Z</time>
      </trkpt>
      <trkpt lat="41.09423537738621234893798828125" lon="-1.4171453006565570831298828125">
        <ele>768.4000244140625</ele>
        <time>2022-05-02T11:56:48.000Z</time>
      </trkpt>
      <trkpt lat="41.09420889057219028472900390625" lon="-1.41708587296307086944580078125">
        <ele>768.4000244140625</ele>
        <time>2022-05-02T11:56:49.000Z</time>
      </trkpt>
      <trkpt lat="41.09417988918721675872802734375" lon="-1.41702669672667980194091796875">
        <ele>768.5999755859375</ele>
        <time>2022-05-02T11:56:50.000Z</time>
      </trkpt>
      <trkpt lat="41.09411266632378101348876953125" lon="-1.41691002063453197479248046875">
        <ele>768.79998779296875</ele>
        <time>2022-05-02T11:56:52.000Z</time>
      </trkpt>
      <trkpt lat="41.0940423421561717987060546875" lon="-1.41679233871400356292724609375">
        <ele>768</ele>
        <time>2022-05-02T11:56:54.000Z</time>
      </trkpt>
      <trkpt lat="41.09400806017220020294189453125" lon="-1.41673333011567592620849609375">
        <ele>767.4000244140625</ele>
        <time>2022-05-02T11:56:55.000Z</time>
      </trkpt>
      <trkpt lat="41.09397436492145061492919921875" lon="-1.416674740612506866455078125">
        <ele>767</ele>
        <time>2022-05-02T11:56:56.000Z</time>
      </trkpt>
      <trkpt lat="41.0939062200486660003662109375" lon="-1.41655781306326389312744140625">
        <ele>765.79998779296875</ele>
        <time>2022-05-02T11:56:58.000Z</time>
      </trkpt>
      <trkpt lat="41.09386959113180637359619140625" lon="-1.41650349833071231842041015625">
        <ele>765.4000244140625</ele>
        <time>2022-05-02T11:56:59.000Z</time>
      </trkpt>
      <trkpt lat="41.09383002854883670806884765625" lon="-1.4164536260068416595458984375">
        <ele>764.79998779296875</ele>
        <time>2022-05-02T11:57:00.000Z</time>
      </trkpt>
      <trkpt lat="41.0937456227838993072509765625" lon="-1.4163659512996673583984375">
        <ele>763.79998779296875</ele>
        <time>2022-05-02T11:57:02.000Z</time>
      </trkpt>
      <trkpt lat="41.09370228834450244903564453125" lon="-1.41632446087896823883056640625">
        <ele>763.79998779296875</ele>
        <time>2022-05-02T11:57:03.000Z</time>
      </trkpt>
      <trkpt lat="41.093662641942501068115234375" lon="-1.4162822999060153961181640625">
        <ele>763.5999755859375</ele>
        <time>2022-05-02T11:57:04.000Z</time>
      </trkpt>
      <trkpt lat="41.093592233955860137939453125" lon="-1.41619353555142879486083984375">
        <ele>763.4000244140625</ele>
        <time>2022-05-02T11:57:06.000Z</time>
      </trkpt>
      <trkpt lat="41.093522496521472930908203125" lon="-1.41610435210168361663818359375">
        <ele>763</ele>
        <time>2022-05-02T11:57:08.000Z</time>
      </trkpt>
      <trkpt lat="41.09345770440995693206787109375" lon="-1.41601701267063617706298828125">
        <ele>763.4000244140625</ele>
        <time>2022-05-02T11:57:10.000Z</time>
      </trkpt>
      <trkpt lat="41.0933909006416797637939453125" lon="-1.41593654640018939971923828125">
        <ele>764.20001220703125</ele>
        <time>2022-05-02T11:57:12.000Z</time>
      </trkpt>
      <trkpt lat="41.09332107938826084136962890625" lon="-1.41586882062256336212158203125">
        <ele>764.4000244140625</ele>
        <time>2022-05-02T11:57:14.000Z</time>
      </trkpt>
      <trkpt lat="41.09328319318592548370361328125" lon="-1.415844261646270751953125">
        <ele>764.5999755859375</ele>
        <time>2022-05-02T11:57:15.000Z</time>
      </trkpt>
      <trkpt lat="41.09324296005070209503173828125" lon="-1.41582590527832508087158203125">
        <ele>764.79998779296875</ele>
        <time>2022-05-02T11:57:16.000Z</time>
      </trkpt>
      <trkpt lat="41.09316618181765079498291015625" lon="-1.415796987712383270263671875">
        <ele>765.5999755859375</ele>
        <time>2022-05-02T11:57:18.000Z</time>
      </trkpt>
      <trkpt lat="41.093129217624664306640625" lon="-1.41578324139118194580078125">
        <ele>765.79998779296875</ele>
        <time>2022-05-02T11:57:19.000Z</time>
      </trkpt>
      <trkpt lat="41.093092672526836395263671875" lon="-1.41577477566897869110107421875">
        <ele>766.20001220703125</ele>
        <time>2022-05-02T11:57:20.000Z</time>
      </trkpt>
      <trkpt lat="41.0930117033421993255615234375" lon="-1.41576756723225116729736328125">
        <ele>767.20001220703125</ele>
        <time>2022-05-02T11:57:22.000Z</time>
      </trkpt>
      <trkpt lat="41.09291992150247097015380859375" lon="-1.41575499437749385833740234375">
        <ele>767.5999755859375</ele>
        <time>2022-05-02T11:57:24.000Z</time>
      </trkpt>
      <trkpt lat="41.0928140580654144287109375" lon="-1.4157337881624698638916015625">
        <ele>768.20001220703125</ele>
        <time>2022-05-02T11:57:26.000Z</time>
      </trkpt>
      <trkpt lat="41.09269847162067890167236328125" lon="-1.41570872627198696136474609375">
        <ele>768.5999755859375</ele>
        <time>2022-05-02T11:57:28.000Z</time>
      </trkpt>
      <trkpt lat="41.0925812087953090667724609375" lon="-1.415674947202205657958984375">
        <ele>768.5999755859375</ele>
        <time>2022-05-02T11:57:30.000Z</time>
      </trkpt>
      <trkpt lat="41.09246604144573211669921875" lon="-1.4156162738800048828125">
        <ele>768.4000244140625</ele>
        <time>2022-05-02T11:57:32.000Z</time>
      </trkpt>
      <trkpt lat="41.09241482801735401153564453125" lon="-1.415573693811893463134765625">
        <ele>768.20001220703125</ele>
        <time>2022-05-02T11:57:33.000Z</time>
      </trkpt>
      <trkpt lat="41.09236923046410083770751953125" lon="-1.41552030108869075775146484375">
        <ele>768</ele>
        <time>2022-05-02T11:57:34.000Z</time>
      </trkpt>
      <trkpt lat="41.09228675253689289093017578125" lon="-1.41539474017918109893798828125">
        <ele>767.79998779296875</ele>
        <time>2022-05-02T11:57:36.000Z</time>
      </trkpt>
      <trkpt lat="41.0922087170183658599853515625" lon="-1.4152662456035614013671875">
        <ele>767</ele>
        <time>2022-05-02T11:57:38.000Z</time>
      </trkpt>
      <trkpt lat="41.0921252332627773284912109375" lon="-1.41513624228537082672119140625">
        <ele>766.5999755859375</ele>
        <time>2022-05-02T11:57:40.000Z</time>
      </trkpt>
      <trkpt lat="41.092082820832729339599609375" lon="-1.4150682650506496429443359375">
        <ele>766.20001220703125</ele>
        <time>2022-05-02T11:57:41.000Z</time>
      </trkpt>
      <trkpt lat="41.09203957021236419677734375" lon="-1.4150018803775310516357421875">
        <ele>766</ele>
        <time>2022-05-02T11:57:42.000Z</time>
      </trkpt>
      <trkpt lat="41.09194728545844554901123046875" lon="-1.41488612629473209381103515625">
        <ele>765.5999755859375</ele>
        <time>2022-05-02T11:57:44.000Z</time>
      </trkpt>
      <trkpt lat="41.091897748410701751708984375" lon="-1.41484069637954235076904296875">
        <ele>765.20001220703125</ele>
        <time>2022-05-02T11:57:45.000Z</time>
      </trkpt>
      <trkpt lat="41.09184402041137218475341796875" lon="-1.41480197198688983917236328125">
        <ele>764.79998779296875</ele>
        <time>2022-05-02T11:57:46.000Z</time>
      </trkpt>
      <trkpt lat="41.0917317867279052734375" lon="-1.41473340801894664764404296875">
        <ele>763.79998779296875</ele>
        <time>2022-05-02T11:57:48.000Z</time>
      </trkpt>
      <trkpt lat="41.09161335043609142303466796875" lon="-1.4146635867655277252197265625">
        <ele>763</ele>
        <time>2022-05-02T11:57:50.000Z</time>
      </trkpt>
      <trkpt lat="41.0915029607713222503662109375" lon="-1.4145744033157825469970703125">
        <ele>762</ele>
        <time>2022-05-02T11:57:52.000Z</time>
      </trkpt>
      <trkpt lat="41.09140397049486637115478515625" lon="-1.41446921043097972869873046875">
        <ele>761.20001220703125</ele>
        <time>2022-05-02T11:57:54.000Z</time>
      </trkpt>
      <trkpt lat="41.0913138650357723236083984375" lon="-1.41436460427939891815185546875">
        <ele>761</ele>
        <time>2022-05-02T11:57:56.000Z</time>
      </trkpt>
      <trkpt lat="41.09122795052826404571533203125" lon="-1.41426687128841876983642578125">
        <ele>761.20001220703125</ele>
        <time>2022-05-02T11:57:58.000Z</time>
      </trkpt>
      <trkpt lat="41.09114044345915317535400390625" lon="-1.414173580706119537353515625">
        <ele>761.20001220703125</ele>
        <time>2022-05-02T11:58:00.000Z</time>
      </trkpt>
      <trkpt lat="41.0910500027239322662353515625" lon="-1.41407643444836139678955078125">
        <ele>760.79998779296875</ele>
        <time>2022-05-02T11:58:02.000Z</time>
      </trkpt>
      <trkpt lat="41.09095738269388675689697265625" lon="-1.4139869995415210723876953125">
        <ele>760.79998779296875</ele>
        <time>2022-05-02T11:58:04.000Z</time>
      </trkpt>
      <trkpt lat="41.09086518175899982452392578125" lon="-1.4139025099575519561767578125">
        <ele>761.5999755859375</ele>
        <time>2022-05-02T11:58:06.000Z</time>
      </trkpt>
      <trkpt lat="41.0907770879566669464111328125" lon="-1.41381374560296535491943359375">
        <ele>762.4000244140625</ele>
        <time>2022-05-02T11:58:08.000Z</time>
      </trkpt>
      <trkpt lat="41.0907392017543315887451171875" lon="-1.41376680694520473480224609375">
        <ele>762.5999755859375</ele>
        <time>2022-05-02T11:58:09.000Z</time>
      </trkpt>
      <trkpt lat="41.09070642851293087005615234375" lon="-1.4137187786400318145751953125">
        <ele>762.5999755859375</ele>
        <time>2022-05-02T11:58:10.000Z</time>
      </trkpt>
      <trkpt lat="41.09064641408622264862060546875" lon="-1.4136232249438762664794921875">
        <ele>762.79998779296875</ele>
        <time>2022-05-02T11:58:12.000Z</time>
      </trkpt>
      <trkpt lat="41.090590842068195343017578125" lon="-1.41352758742868900299072265625">
        <ele>763</ele>
        <time>2022-05-02T11:58:14.000Z</time>
      </trkpt>
      <trkpt lat="41.09053577296435832977294921875" lon="-1.41343555413186550140380859375">
        <ele>763</ele>
        <time>2022-05-02T11:58:16.000Z</time>
      </trkpt>
      <trkpt lat="41.09048263169825077056884765625" lon="-1.41334704123437404632568359375">
        <ele>762.20001220703125</ele>
        <time>2022-05-02T11:58:18.000Z</time>
      </trkpt>
      <trkpt lat="41.090426556766033172607421875" lon="-1.41326129436492919921875">
        <ele>762.4000244140625</ele>
        <time>2022-05-02T11:58:20.000Z</time>
      </trkpt>
      <trkpt lat="41.090398728847503662109375" lon="-1.41321846283972263336181640625">
        <ele>763</ele>
        <time>2022-05-02T11:58:21.000Z</time>
      </trkpt>
      <trkpt lat="41.09037484042346477508544921875" lon="-1.41317521221935749053955078125">
        <ele>763.4000244140625</ele>
        <time>2022-05-02T11:58:22.000Z</time>
      </trkpt>
      <trkpt lat="41.0903276503086090087890625" lon="-1.41307890415191650390625">
        <ele>764.20001220703125</ele>
        <time>2022-05-02T11:58:24.000Z</time>
      </trkpt>
      <trkpt lat="41.0902983136475086212158203125" lon="-1.41302651725709438323974609375">
        <ele>764.5999755859375</ele>
        <time>2022-05-02T11:58:25.000Z</time>
      </trkpt>
      <trkpt lat="41.09026688151061534881591796875" lon="-1.41297220252454280853271484375">
        <ele>765.20001220703125</ele>
        <time>2022-05-02T11:58:26.000Z</time>
      </trkpt>
      <trkpt lat="41.09023318625986576080322265625" lon="-1.41291671432554721832275390625">
        <ele>765.5999755859375</ele>
        <time>2022-05-02T11:58:27.000Z</time>
      </trkpt>
      <trkpt lat="41.09019764699041843414306640625" lon="-1.412860639393329620361328125">
        <ele>765.79998779296875</ele>
        <time>2022-05-02T11:58:28.000Z</time>
      </trkpt>
      <trkpt lat="41.09011852182447910308837890625" lon="-1.4127464778721332550048828125">
        <ele>766</ele>
        <time>2022-05-02T11:58:30.000Z</time>
      </trkpt>
      <trkpt lat="41.09007476828992366790771484375" lon="-1.41268889419734477996826171875">
        <ele>766.4000244140625</ele>
        <time>2022-05-02T11:58:31.000Z</time>
      </trkpt>
      <trkpt lat="41.0900284163653850555419921875" lon="-1.41262904740869998931884765625">
        <ele>766.79998779296875</ele>
        <time>2022-05-02T11:58:32.000Z</time>
      </trkpt>
      <trkpt lat="41.0899811424314975738525390625" lon="-1.4125627465546131134033203125">
        <ele>767</ele>
        <time>2022-05-02T11:58:33.000Z</time>
      </trkpt>
      <trkpt lat="41.08993579633533954620361328125" lon="-1.412489153444766998291015625">
        <ele>767.20001220703125</ele>
        <time>2022-05-02T11:58:34.000Z</time>
      </trkpt>
      <trkpt lat="41.08989757485687732696533203125" lon="-1.41240902245044708251953125">
        <ele>766.79998779296875</ele>
        <time>2022-05-02T11:58:35.000Z</time>
      </trkpt>
      <trkpt lat="41.08985960483551025390625" lon="-1.41232453286647796630859375">
        <ele>766</ele>
        <time>2022-05-02T11:58:36.000Z</time>
      </trkpt>
      <trkpt lat="41.08981710858643054962158203125" lon="-1.41224213875830173492431640625">
        <ele>765.20001220703125</ele>
        <time>2022-05-02T11:58:37.000Z</time>
      </trkpt>
      <trkpt lat="41.089770756661891937255859375" lon="-1.41216502524912357330322265625">
        <ele>764.20001220703125</ele>
        <time>2022-05-02T11:58:38.000Z</time>
      </trkpt>
      <trkpt lat="41.08967578969895839691162109375" lon="-1.412015073001384735107421875">
        <ele>761.4000244140625</ele>
        <time>2022-05-02T11:58:40.000Z</time>
      </trkpt>
      <trkpt lat="41.089578978717327117919921875" lon="-1.41186713241040706634521484375">
        <ele>758.5999755859375</ele>
        <time>2022-05-02T11:58:42.000Z</time>
      </trkpt>
      <trkpt lat="41.08947529457509517669677734375" lon="-1.411734111607074737548828125">
        <ele>757.5999755859375</ele>
        <time>2022-05-02T11:58:44.000Z</time>
      </trkpt>
      <trkpt lat="41.08937202952802181243896484375" lon="-1.41161785461008548736572265625">
        <ele>756.79998779296875</ele>
        <time>2022-05-02T11:58:46.000Z</time>
      </trkpt>
      <trkpt lat="41.089322157204151153564453125" lon="-1.41156546771526336669921875">
        <ele>757</ele>
        <time>2022-05-02T11:58:47.000Z</time>
      </trkpt>
      <trkpt lat="41.0892735421657562255859375" lon="-1.41151844523847103118896484375">
        <ele>757.5999755859375</ele>
        <time>2022-05-02T11:58:48.000Z</time>
      </trkpt>
      <trkpt lat="41.08918896876275539398193359375" lon="-1.4114358834922313690185546875">
        <ele>758.5999755859375</ele>
        <time>2022-05-02T11:58:50.000Z</time>
      </trkpt>
      <trkpt lat="41.089117638766765594482421875" lon="-1.4113641344010829925537109375">
        <ele>759.20001220703125</ele>
        <time>2022-05-02T11:58:52.000Z</time>
      </trkpt>
      <trkpt lat="41.08903910033404827117919921875" lon="-1.4112858474254608154296875">
        <ele>760.4000244140625</ele>
        <time>2022-05-02T11:58:54.000Z</time>
      </trkpt>
      <trkpt lat="41.08894287608563899993896484375" lon="-1.41119423322379589080810546875">
        <ele>761.4000244140625</ele>
        <time>2022-05-02T11:58:56.000Z</time>
      </trkpt>
      <trkpt lat="41.08889057300984859466552734375" lon="-1.411141343414783477783203125">
        <ele>761.5999755859375</ele>
        <time>2022-05-02T11:58:57.000Z</time>
      </trkpt>
      <trkpt lat="41.08883692882955074310302734375" lon="-1.4110878668725490570068359375">
        <ele>761.79998779296875</ele>
        <time>2022-05-02T11:58:58.000Z</time>
      </trkpt>
      <trkpt lat="41.08872444368898868560791015625" lon="-1.4109768904745578765869140625">
        <ele>761.4000244140625</ele>
        <time>2022-05-02T11:59:00.000Z</time>
      </trkpt>
      <trkpt lat="41.0886078514158725738525390625" lon="-1.41087622381746768951416015625">
        <ele>761</ele>
        <time>2022-05-02T11:59:02.000Z</time>
      </trkpt>
      <trkpt lat="41.08849042095243930816650390625" lon="-1.41079491935670375823974609375">
        <ele>760.79998779296875</ele>
        <time>2022-05-02T11:59:04.000Z</time>
      </trkpt>
      <trkpt lat="41.08837843872606754302978515625" lon="-1.41073289327323436737060546875">
        <ele>760.20001220703125</ele>
        <time>2022-05-02T11:59:06.000Z</time>
      </trkpt>
      <trkpt lat="41.08827643096446990966796875" lon="-1.41068159602582454681396484375">
        <ele>759.5999755859375</ele>
        <time>2022-05-02T11:59:08.000Z</time>
      </trkpt>
      <trkpt lat="41.088225133717060089111328125" lon="-1.4106624014675617218017578125">
        <ele>759.4000244140625</ele>
        <time>2022-05-02T11:59:09.000Z</time>
      </trkpt>
      <trkpt lat="41.0881711542606353759765625" lon="-1.4106486551463603973388671875">
        <ele>759.20001220703125</ele>
        <time>2022-05-02T11:59:10.000Z</time>
      </trkpt>
      <trkpt lat="41.08806361444294452667236328125" lon="-1.41061739064753055572509765625">
        <ele>758.4000244140625</ele>
        <time>2022-05-02T11:59:12.000Z</time>
      </trkpt>
      <trkpt lat="41.08795464970171451568603515625" lon="-1.4105725474655628204345703125">
        <ele>757.5999755859375</ele>
        <time>2022-05-02T11:59:14.000Z</time>
      </trkpt>
      <trkpt lat="41.0878484509885311126708984375" lon="-1.41052435152232646942138671875">
        <ele>757.4000244140625</ele>
        <time>2022-05-02T11:59:16.000Z</time>
      </trkpt>
      <trkpt lat="41.08774610795080661773681640625" lon="-1.4104847051203250885009765625">
        <ele>757.79998779296875</ele>
        <time>2022-05-02T11:59:18.000Z</time>
      </trkpt>
      <trkpt lat="41.08764611184597015380859375" lon="-1.41043818555772304534912109375">
        <ele>758.5999755859375</ele>
        <time>2022-05-02T11:59:20.000Z</time>
      </trkpt>
      <trkpt lat="41.08754527755081653594970703125" lon="-1.41038529574871063232421875">
        <ele>759.79998779296875</ele>
        <time>2022-05-02T11:59:22.000Z</time>
      </trkpt>
      <trkpt lat="41.08749783597886562347412109375" lon="-1.4103552885353565216064453125">
        <ele>760.4000244140625</ele>
        <time>2022-05-02T11:59:23.000Z</time>
      </trkpt>
      <trkpt lat="41.087453998625278472900390625" lon="-1.41032159328460693359375">
        <ele>761</ele>
        <time>2022-05-02T11:59:24.000Z</time>
      </trkpt>
      <trkpt lat="41.08737395144999027252197265625" lon="-1.41024489887058734893798828125">
        <ele>762</ele>
        <time>2022-05-02T11:59:26.000Z</time>
      </trkpt>
      <trkpt lat="41.0873338021337985992431640625" lon="-1.41020298935472965240478515625">
        <ele>762.20001220703125</ele>
        <time>2022-05-02T11:59:27.000Z</time>
      </trkpt>
      <trkpt lat="41.08729314990341663360595703125" lon="-1.4101625047624111175537109375">
        <ele>762.4000244140625</ele>
        <time>2022-05-02T11:59:28.000Z</time>
      </trkpt>
      <trkpt lat="41.08721553348004817962646484375" lon="-1.410080529749393463134765625">
        <ele>762.79998779296875</ele>
        <time>2022-05-02T11:59:30.000Z</time>
      </trkpt>
      <trkpt lat="41.08714261092245578765869140625" lon="-1.4099901728332042694091796875">
        <ele>763.5999755859375</ele>
        <time>2022-05-02T11:59:32.000Z</time>
      </trkpt>
      <trkpt lat="41.087067760527133941650390625" lon="-1.40989855863153934478759765625">
        <ele>763.5999755859375</ele>
        <time>2022-05-02T11:59:34.000Z</time>
      </trkpt>
      <trkpt lat="41.087029874324798583984375" lon="-1.40985430218279361724853515625">
        <ele>763.4000244140625</ele>
        <time>2022-05-02T11:59:35.000Z</time>
      </trkpt>
      <trkpt lat="41.08699299395084381103515625" lon="-1.4098114706575870513916015625">
        <ele>763.20001220703125</ele>
        <time>2022-05-02T11:59:36.000Z</time>
      </trkpt>
      <trkpt lat="41.0869566164910793304443359375" lon="-1.409770734608173370361328125">
        <ele>763</ele>
        <time>2022-05-02T11:59:37.000Z</time>
      </trkpt>
      <trkpt lat="41.0869217477738857269287109375" lon="-1.40973276458680629730224609375">
        <ele>763</ele>
        <time>2022-05-02T11:59:38.000Z</time>
      </trkpt>
      <trkpt lat="41.086855195462703704833984375" lon="-1.409661769866943359375">
        <ele>762.5999755859375</ele>
        <time>2022-05-02T11:59:40.000Z</time>
      </trkpt>
      <trkpt lat="41.086788810789585113525390625" lon="-1.40959538519382476806640625">
        <ele>762.20001220703125</ele>
        <time>2022-05-02T11:59:42.000Z</time>
      </trkpt>
      <trkpt lat="41.086754612624645233154296875" lon="-1.40956277959048748016357421875">
        <ele>762</ele>
        <time>2022-05-02T11:59:43.000Z</time>
      </trkpt>
      <trkpt lat="41.08672066591680049896240234375" lon="-1.4095298387110233306884765625">
        <ele>761.79998779296875</ele>
        <time>2022-05-02T11:59:44.000Z</time>
      </trkpt>
      <trkpt lat="41.086651347577571868896484375" lon="-1.40946395695209503173828125">
        <ele>761.79998779296875</ele>
        <time>2022-05-02T11:59:46.000Z</time>
      </trkpt>
      <trkpt lat="41.08657700009644031524658203125" lon="-1.409397907555103302001953125">
        <ele>761.79998779296875</ele>
        <time>2022-05-02T11:59:48.000Z</time>
      </trkpt>
      <trkpt lat="41.08649418689310550689697265625" lon="-1.4093253202736377716064453125">
        <ele>761.5999755859375</ele>
        <time>2022-05-02T11:59:50.000Z</time>
      </trkpt>
      <trkpt lat="41.08644925989210605621337890625" lon="-1.40928902663290500640869140625">
        <ele>761.4000244140625</ele>
        <time>2022-05-02T11:59:51.000Z</time>
      </trkpt>
      <trkpt lat="41.08640290796756744384765625" lon="-1.4092562533915042877197265625">
        <ele>761.4000244140625</ele>
        <time>2022-05-02T11:59:52.000Z</time>
      </trkpt>
      <trkpt lat="41.0863031633198261260986328125" lon="-1.40919866971671581268310546875">
        <ele>762</ele>
        <time>2022-05-02T11:59:54.000Z</time>
      </trkpt>
      <trkpt lat="41.0862024128437042236328125" lon="-1.40915592201054096221923828125">
        <ele>762.5999755859375</ele>
        <time>2022-05-02T11:59:56.000Z</time>
      </trkpt>
      <trkpt lat="41.08615337871015071868896484375" lon="-1.4091332070529460906982421875">
        <ele>762.79998779296875</ele>
        <time>2022-05-02T11:59:57.000Z</time>
      </trkpt>
      <trkpt lat="41.08610560186207294464111328125" lon="-1.4091060496866703033447265625">
        <ele>763.20001220703125</ele>
        <time>2022-05-02T11:59:58.000Z</time>
      </trkpt>
      <trkpt lat="41.08602630905807018280029296875" lon="-1.409024409949779510498046875">
        <ele>763.4000244140625</ele>
        <time>2022-05-02T12:00:00.000Z</time>
      </trkpt>
      <trkpt lat="41.0859900154173374176025390625" lon="-1.408976130187511444091796875">
        <ele>763.4000244140625</ele>
        <time>2022-05-02T12:00:01.000Z</time>
      </trkpt>
      <trkpt lat="41.08595573343336582183837890625" lon="-1.40892726369202136993408203125">
        <ele>763.20001220703125</ele>
        <time>2022-05-02T12:00:02.000Z</time>
      </trkpt>
      <trkpt lat="41.08589597046375274658203125" lon="-1.408824920654296875">
        <ele>762.79998779296875</ele>
        <time>2022-05-02T12:00:04.000Z</time>
      </trkpt>
      <trkpt lat="41.085857413709163665771484375" lon="-1.40872341580688953399658203125">
        <ele>762</ele>
        <time>2022-05-02T12:00:06.000Z</time>
      </trkpt>
      <trkpt lat="41.0858468525111675262451171875" lon="-1.40866893343627452850341796875">
        <ele>761.5999755859375</ele>
        <time>2022-05-02T12:00:07.000Z</time>
      </trkpt>
      <trkpt lat="41.0858391411602497100830078125" lon="-1.40861009247601032257080078125">
        <ele>761.20001220703125</ele>
        <time>2022-05-02T12:00:08.000Z</time>
      </trkpt>
      <trkpt lat="41.08582355082035064697265625" lon="-1.40847665257751941680908203125">
        <ele>760.20001220703125</ele>
        <time>2022-05-02T12:00:10.000Z</time>
      </trkpt>
      <trkpt lat="41.08581173233687877655029296875" lon="-1.408406831324100494384765625">
        <ele>759.79998779296875</ele>
        <time>2022-05-02T12:00:11.000Z</time>
      </trkpt>
      <trkpt lat="41.085795722901821136474609375" lon="-1.4083342440426349639892578125">
        <ele>759.20001220703125</ele>
        <time>2022-05-02T12:00:12.000Z</time>
      </trkpt>
      <trkpt lat="41.085750795900821685791015625" lon="-1.40818990767002105712890625">
        <ele>758.4000244140625</ele>
        <time>2022-05-02T12:00:14.000Z</time>
      </trkpt>
      <trkpt lat="41.08569220639765262603759765625" lon="-1.40804733149707317352294921875">
        <ele>758.20001220703125</ele>
        <time>2022-05-02T12:00:16.000Z</time>
      </trkpt>
      <trkpt lat="41.0856606066226959228515625" lon="-1.40797675587236881256103515625">
        <ele>758.5999755859375</ele>
        <time>2022-05-02T12:00:17.000Z</time>
      </trkpt>
      <trkpt lat="41.08562900684773921966552734375" lon="-1.40790785662829875946044921875">
        <ele>759</ele>
        <time>2022-05-02T12:00:18.000Z</time>
      </trkpt>
      <trkpt lat="41.08559514395892620086669921875" lon="-1.407846920192241668701171875">
        <ele>759.4000244140625</ele>
        <time>2022-05-02T12:00:19.000Z</time>
      </trkpt>
      <trkpt lat="41.08556278981268405914306640625" lon="-1.4077890850603580474853515625">
        <ele>759.5999755859375</ele>
        <time>2022-05-02T12:00:20.000Z</time>
      </trkpt>
      <trkpt lat="41.08553278259932994842529296875" lon="-1.40773116610944271087646484375">
        <ele>760.20001220703125</ele>
        <time>2022-05-02T12:00:21.000Z</time>
      </trkpt>
      <trkpt lat="41.08550378121435642242431640625" lon="-1.40767618082463741302490234375">
        <ele>760.79998779296875</ele>
        <time>2022-05-02T12:00:22.000Z</time>
      </trkpt>
      <trkpt lat="41.08544728718698024749755859375" lon="-1.40757241286337375640869140625">
        <ele>761</ele>
        <time>2022-05-02T12:00:24.000Z</time>
      </trkpt>
      <trkpt lat="41.08538769185543060302734375" lon="-1.40747266821563243865966796875">
        <ele>761.5999755859375</ele>
        <time>2022-05-02T12:00:26.000Z</time>
      </trkpt>
      <trkpt lat="41.08535978011786937713623046875" lon="-1.4074243046343326568603515625">
        <ele>762</ele>
        <time>2022-05-02T12:00:27.000Z</time>
      </trkpt>
      <trkpt lat="41.08533128164708614349365234375" lon="-1.40737879090011119842529296875">
        <ele>762.5999755859375</ele>
        <time>2022-05-02T12:00:28.000Z</time>
      </trkpt>
      <trkpt lat="41.0852728597819805145263671875" lon="-1.40729094855487346649169921875">
        <ele>763.20001220703125</ele>
        <time>2022-05-02T12:00:30.000Z</time>
      </trkpt>
      <trkpt lat="41.08520127832889556884765625" lon="-1.4072124101221561431884765625">
        <ele>763.79998779296875</ele>
        <time>2022-05-02T12:00:32.000Z</time>
      </trkpt>
      <trkpt lat="41.08512005768716335296630859375" lon="-1.40713320113718509674072265625">
        <ele>763.5999755859375</ele>
        <time>2022-05-02T12:00:34.000Z</time>
      </trkpt>
      <trkpt lat="41.08504277653992176055908203125" lon="-1.40704485587775707244873046875">
        <ele>763.4000244140625</ele>
        <time>2022-05-02T12:00:36.000Z</time>
      </trkpt>
      <trkpt lat="41.08495962806046009063720703125" lon="-1.40696640126407146453857421875">
        <ele>763.5999755859375</ele>
        <time>2022-05-02T12:00:38.000Z</time>
      </trkpt>
      <trkpt lat="41.084870360791683197021484375" lon="-1.4069002680480480194091796875">
        <ele>764</ele>
        <time>2022-05-02T12:00:40.000Z</time>
      </trkpt>
      <trkpt lat="41.08478126116096973419189453125" lon="-1.406839080154895782470703125">
        <ele>764.4000244140625</ele>
        <time>2022-05-02T12:00:42.000Z</time>
      </trkpt>
      <trkpt lat="41.08469928614795207977294921875" lon="-1.40677311457693576812744140625">
        <ele>764.4000244140625</ele>
        <time>2022-05-02T12:00:44.000Z</time>
      </trkpt>
      <trkpt lat="41.08466492034494876861572265625" lon="-1.40674008987843990325927734375">
        <ele>764.4000244140625</ele>
        <time>2022-05-02T12:00:45.000Z</time>
      </trkpt>
      <trkpt lat="41.08463373966515064239501953125" lon="-1.40670823864638805389404296875">
        <ele>764.20001220703125</ele>
        <time>2022-05-02T12:00:46.000Z</time>
      </trkpt>
      <trkpt lat="41.084604822099208831787109375" lon="-1.40667605213820934295654296875">
        <ele>764.20001220703125</ele>
        <time>2022-05-02T12:00:47.000Z</time>
      </trkpt>
      <trkpt lat="41.08458009548485279083251953125" lon="-1.40663959085941314697265625">
        <ele>764</ele>
        <time>2022-05-02T12:00:48.000Z</time>
      </trkpt>
      <trkpt lat="41.084557212889194488525390625" lon="-1.40659759752452373504638671875">
        <ele>764.20001220703125</ele>
        <time>2022-05-02T12:00:49.000Z</time>
      </trkpt>
      <trkpt lat="41.0845365934073925018310546875" lon="-1.40655267052352428436279296875">
        <ele>764.20001220703125</ele>
        <time>2022-05-02T12:00:50.000Z</time>
      </trkpt>
      <trkpt lat="41.0845040716230869293212890625" lon="-1.40645451843738555908203125">
        <ele>764.4000244140625</ele>
        <time>2022-05-02T12:00:52.000Z</time>
      </trkpt>
      <trkpt lat="41.0844750702381134033203125" lon="-1.40635066665709018707275390625">
        <ele>765</ele>
        <time>2022-05-02T12:00:54.000Z</time>
      </trkpt>
      <trkpt lat="41.08445428311824798583984375" lon="-1.4062411151826381683349609375">
        <ele>765</ele>
        <time>2022-05-02T12:00:56.000Z</time>
      </trkpt>
      <trkpt lat="41.08443877659738063812255859375" lon="-1.406129635870456695556640625">
        <ele>764.79998779296875</ele>
        <time>2022-05-02T12:00:58.000Z</time>
      </trkpt>
      <trkpt lat="41.08443039469420909881591796875" lon="-1.40607506968080997467041015625">
        <ele>764.5999755859375</ele>
        <time>2022-05-02T12:00:59.000Z</time>
      </trkpt>
      <trkpt lat="41.08442117460072040557861328125" lon="-1.40602226369082927703857421875">
        <ele>764.4000244140625</ele>
        <time>2022-05-02T12:01:00.000Z</time>
      </trkpt>
      <trkpt lat="41.084401309490203857421875" lon="-1.40592478215694427490234375">
        <ele>764.20001220703125</ele>
        <time>2022-05-02T12:01:02.000Z</time>
      </trkpt>
      <trkpt lat="41.084380187094211578369140625" lon="-1.4058337546885013580322265625">
        <ele>764</ele>
        <time>2022-05-02T12:01:04.000Z</time>
      </trkpt>
      <trkpt lat="41.0843595676124095916748046875" lon="-1.405746750533580780029296875">
        <ele>763.79998779296875</ele>
        <time>2022-05-02T12:01:06.000Z</time>
      </trkpt>
      <trkpt lat="41.0843448154628276824951171875" lon="-1.4057053439319133758544921875">
        <ele>763.79998779296875</ele>
        <time>2022-05-02T12:01:07.000Z</time>
      </trkpt>
      <trkpt lat="41.08432763256132602691650390625" lon="-1.4056651107966899871826171875">
        <ele>764</ele>
        <time>2022-05-02T12:01:08.000Z</time>
      </trkpt>
      <trkpt lat="41.08428589068353176116943359375" lon="-1.40559227205812931060791015625">
        <ele>764.20001220703125</ele>
        <time>2022-05-02T12:01:10.000Z</time>
      </trkpt>
      <trkpt lat="41.08424238860607147216796875" lon="-1.4055303297936916351318359375">
        <ele>764.4000244140625</ele>
        <time>2022-05-02T12:01:12.000Z</time>
      </trkpt>
      <trkpt lat="41.08422269113361835479736328125" lon="-1.405499987304210662841796875">
        <ele>764.4000244140625</ele>
        <time>2022-05-02T12:01:13.000Z</time>
      </trkpt>
      <trkpt lat="41.08420441858470439910888671875" lon="-1.40547123737633228302001953125">
        <ele>764.5999755859375</ele>
        <time>2022-05-02T12:01:14.000Z</time>
      </trkpt>
      <trkpt lat="41.084187738597393035888671875" lon="-1.40544441528618335723876953125">
        <ele>764.79998779296875</ele>
        <time>2022-05-02T12:01:15.000Z</time>
      </trkpt>
      <trkpt lat="41.0841728188097476959228515625" lon="-1.40542027540504932403564453125">
        <ele>765</ele>
        <time>2022-05-02T12:01:16.000Z</time>
      </trkpt>
      <trkpt lat="41.08414842747151851654052734375" lon="-1.40538020990788936614990234375">
        <ele>765</ele>
        <time>2022-05-02T12:01:18.000Z</time>
      </trkpt>
      <trkpt lat="41.0841178335249423980712890625" lon="-1.40534869395196437835693359375">
        <ele>765</ele>
        <time>2022-05-02T12:01:20.000Z</time>
      </trkpt>
      <trkpt lat="41.08407617546617984771728515625" lon="-1.405330337584018707275390625">
        <ele>765</ele>
        <time>2022-05-02T12:01:22.000Z</time>
      </trkpt>
      <trkpt lat="41.084025800228118896484375" lon="-1.40534098260104656219482421875">
        <ele>765</ele>
        <time>2022-05-02T12:01:24.000Z</time>
      </trkpt>
      <trkpt lat="41.0840028338134288787841796875" lon="-1.40535749495029449462890625">
        <ele>765.20001220703125</ele>
        <time>2022-05-02T12:01:25.000Z</time>
      </trkpt>
      <trkpt lat="41.0839807055890560150146484375" lon="-1.4053777791559696197509765625">
        <ele>765.20001220703125</ele>
        <time>2022-05-02T12:01:26.000Z</time>
      </trkpt>
      <trkpt lat="41.08395815826952457427978515625" lon="-1.4054005779325962066650390625">
        <ele>765.4000244140625</ele>
        <time>2022-05-02T12:01:27.000Z</time>
      </trkpt>
      <trkpt lat="41.083934940397739410400390625" lon="-1.4054220356047153472900390625">
        <ele>765.4000244140625</ele>
        <time>2022-05-02T12:01:28.000Z</time>
      </trkpt>
      <trkpt lat="41.08388833701610565185546875" lon="-1.40546478331089019775390625">
        <ele>765.5999755859375</ele>
        <time>2022-05-02T12:01:30.000Z</time>
      </trkpt>
      <trkpt lat="41.08384198509156703948974609375" lon="-1.40551147051155567169189453125">
        <ele>765.79998779296875</ele>
        <time>2022-05-02T12:01:32.000Z</time>
      </trkpt>
      <trkpt lat="41.08381583355367183685302734375" lon="-1.4055390469729900360107421875">
        <ele>765.79998779296875</ele>
        <time>2022-05-02T12:01:33.000Z</time>
      </trkpt>
      <trkpt lat="41.08378616161644458770751953125" lon="-1.40556746162474155426025390625">
        <ele>765.79998779296875</ele>
        <time>2022-05-02T12:01:34.000Z</time>
      </trkpt>
      <trkpt lat="41.08373201452195644378662109375" lon="-1.40562160871922969818115234375">
        <ele>765.79998779296875</ele>
        <time>2022-05-02T12:01:36.000Z</time>
      </trkpt>
      <trkpt lat="41.08368289656937122344970703125" lon="-1.40567273832857608795166015625">
        <ele>765.79998779296875</ele>
        <time>2022-05-02T12:01:38.000Z</time>
      </trkpt>
      <trkpt lat="41.0836360417306423187255859375" lon="-1.40572571195662021636962890625">
        <ele>765.79998779296875</ele>
        <time>2022-05-02T12:01:40.000Z</time>
      </trkpt>
      <trkpt lat="41.0836102254688739776611328125" lon="-1.405750103294849395751953125">
        <ele>765.79998779296875</ele>
        <time>2022-05-02T12:01:41.000Z</time>
      </trkpt>
      <trkpt lat="41.08358390629291534423828125" lon="-1.4057754166424274444580078125">
        <ele>765.79998779296875</ele>
        <time>2022-05-02T12:01:42.000Z</time>
      </trkpt>
      <trkpt lat="41.083532609045505523681640625" lon="-1.4058320783078670501708984375">
        <ele>765.79998779296875</ele>
        <time>2022-05-02T12:01:44.000Z</time>
      </trkpt>
      <trkpt lat="41.08348223380744457244873046875" lon="-1.4058890752494335174560546875">
        <ele>766</ele>
        <time>2022-05-02T12:01:46.000Z</time>
      </trkpt>
      <trkpt lat="41.08343261294066905975341796875" lon="-1.4059457369148731231689453125">
        <ele>766.20001220703125</ele>
        <time>2022-05-02T12:01:48.000Z</time>
      </trkpt>
      <trkpt lat="41.083380393683910369873046875" lon="-1.40600633807480335235595703125">
        <ele>766.4000244140625</ele>
        <time>2022-05-02T12:01:50.000Z</time>
      </trkpt>
      <trkpt lat="41.08332817442715167999267578125" lon="-1.406067274510860443115234375">
        <ele>766.5999755859375</ele>
        <time>2022-05-02T12:01:52.000Z</time>
      </trkpt>
      <trkpt lat="41.08327419497072696685791015625" lon="-1.4061252772808074951171875">
        <ele>767</ele>
        <time>2022-05-02T12:01:54.000Z</time>
      </trkpt>
      <trkpt lat="41.08322423882782459259033203125" lon="-1.40618654899299144744873046875">
        <ele>767.4000244140625</ele>
        <time>2022-05-02T12:01:56.000Z</time>
      </trkpt>
      <trkpt lat="41.08317495323717594146728515625" lon="-1.406242288649082183837890625">
        <ele>767.5999755859375</ele>
        <time>2022-05-02T12:01:58.000Z</time>
      </trkpt>
      <trkpt lat="41.08315232209861278533935546875" lon="-1.40626869164407253265380859375">
        <ele>767.5999755859375</ele>
        <time>2022-05-02T12:01:59.000Z</time>
      </trkpt>
      <trkpt lat="41.08313019387423992156982421875" lon="-1.40629635192453861236572265625">
        <ele>767.79998779296875</ele>
        <time>2022-05-02T12:02:00.000Z</time>
      </trkpt>
      <trkpt lat="41.08310739509761333465576171875" lon="-1.40632334165275096893310546875">
        <ele>767.79998779296875</ele>
        <time>2022-05-02T12:02:01.000Z</time>
      </trkpt>
      <trkpt lat="41.08308291994035243988037109375" lon="-1.40635167248547077178955078125">
        <ele>768</ele>
        <time>2022-05-02T12:02:02.000Z</time>
      </trkpt>
      <trkpt lat="41.08303137123584747314453125" lon="-1.40640900470316410064697265625">
        <ele>768</ele>
        <time>2022-05-02T12:02:04.000Z</time>
      </trkpt>
      <trkpt lat="41.0829775594174861907958984375" lon="-1.40646549873054027557373046875">
        <ele>768</ele>
        <time>2022-05-02T12:02:06.000Z</time>
      </trkpt>
      <trkpt lat="41.08294914476573467254638671875" lon="-1.4064939133822917938232421875">
        <ele>768</ele>
        <time>2022-05-02T12:02:07.000Z</time>
      </trkpt>
      <trkpt lat="41.082921735942363739013671875" lon="-1.4065222442150115966796875">
        <ele>768</ele>
        <time>2022-05-02T12:02:08.000Z</time>
      </trkpt>
      <trkpt lat="41.08289323747158050537109375" lon="-1.40654998831450939178466796875">
        <ele>768.20001220703125</ele>
        <time>2022-05-02T12:02:09.000Z</time>
      </trkpt>
      <trkpt lat="41.08286507427692413330078125" lon="-1.40657790005207061767578125">
        <ele>768.20001220703125</ele>
        <time>2022-05-02T12:02:10.000Z</time>
      </trkpt>
      <trkpt lat="41.08281277120113372802734375" lon="-1.4066350646317005157470703125">
        <ele>768.4000244140625</ele>
        <time>2022-05-02T12:02:12.000Z</time>
      </trkpt>
      <trkpt lat="41.0827609710395336151123046875" lon="-1.406703628599643707275390625">
        <ele>769</ele>
        <time>2022-05-02T12:02:14.000Z</time>
      </trkpt>
      <trkpt lat="41.08271512202918529510498046875" lon="-1.4067731983959674835205078125">
        <ele>769.79998779296875</ele>
        <time>2022-05-02T12:02:16.000Z</time>
      </trkpt>
      <trkpt lat="41.08269467018544673919677734375" lon="-1.406808905303478240966796875">
        <ele>770</ele>
        <time>2022-05-02T12:02:17.000Z</time>
      </trkpt>
      <trkpt lat="41.08267539180815219879150390625" lon="-1.4068466238677501678466796875">
        <ele>770.4000244140625</ele>
        <time>2022-05-02T12:02:18.000Z</time>
      </trkpt>
      <trkpt lat="41.08264337293803691864013671875" lon="-1.40692197717726230621337890625">
        <ele>771</ele>
        <time>2022-05-02T12:02:20.000Z</time>
      </trkpt>
      <trkpt lat="41.0826147906482219696044921875" lon="-1.4070023596286773681640625">
        <ele>771.5999755859375</ele>
        <time>2022-05-02T12:02:22.000Z</time>
      </trkpt>
      <trkpt lat="41.0825990326702594757080078125" lon="-1.40704535879194736480712890625">
        <ele>772</ele>
        <time>2022-05-02T12:02:23.000Z</time>
      </trkpt>
      <trkpt lat="41.0825822688639163970947265625" lon="-1.40709129162132740020751953125">
        <ele>772.20001220703125</ele>
        <time>2022-05-02T12:02:24.000Z</time>
      </trkpt>
      <trkpt lat="41.08255050145089626312255859375" lon="-1.4071852527558803558349609375">
        <ele>773</ele>
        <time>2022-05-02T12:02:26.000Z</time>
      </trkpt>
      <trkpt lat="41.08252317644655704498291015625" lon="-1.407278962433338165283203125">
        <ele>773.20001220703125</ele>
        <time>2022-05-02T12:02:28.000Z</time>
      </trkpt>
      <trkpt lat="41.0825125314295291900634765625" lon="-1.4073240570724010467529296875">
        <ele>773.4000244140625</ele>
        <time>2022-05-02T12:02:29.000Z</time>
      </trkpt>
      <trkpt lat="41.08250138349831104278564453125" lon="-1.4073693193495273590087890625">
        <ele>773.5999755859375</ele>
        <time>2022-05-02T12:02:30.000Z</time>
      </trkpt>
      <trkpt lat="41.0824786685407161712646484375" lon="-1.407460682094097137451171875">
        <ele>774</ele>
        <time>2022-05-02T12:02:32.000Z</time>
      </trkpt>
      <trkpt lat="41.08246810734272003173828125" lon="-1.40750502236187458038330078125">
        <ele>774.20001220703125</ele>
        <time>2022-05-02T12:02:33.000Z</time>
      </trkpt>
      <trkpt lat="41.082461737096309661865234375" lon="-1.40754961408674716949462890625">
        <ele>774.20001220703125</ele>
        <time>2022-05-02T12:02:34.000Z</time>
      </trkpt>
      <trkpt lat="41.08244338072836399078369140625" lon="-1.4076382108032703399658203125">
        <ele>774.5999755859375</ele>
        <time>2022-05-02T12:02:36.000Z</time>
      </trkpt>
      <trkpt lat="41.08241220004856586456298828125" lon="-1.4077227003872394561767578125">
        <ele>774.79998779296875</ele>
        <time>2022-05-02T12:02:38.000Z</time>
      </trkpt>
      <trkpt lat="41.08237431384623050689697265625" lon="-1.40780023299157619476318359375">
        <ele>775.20001220703125</ele>
        <time>2022-05-02T12:02:40.000Z</time>
      </trkpt>
      <trkpt lat="41.08235419727861881256103515625" lon="-1.4078363589942455291748046875">
        <ele>775.4000244140625</ele>
        <time>2022-05-02T12:02:41.000Z</time>
      </trkpt>
      <trkpt lat="41.0823318175971508026123046875" lon="-1.4078729040920734405517578125">
        <ele>775.4000244140625</ele>
        <time>2022-05-02T12:02:42.000Z</time>
      </trkpt>
      <trkpt lat="41.0822889022529125213623046875" lon="-1.40794842503964900970458984375">
        <ele>775.79998779296875</ele>
        <time>2022-05-02T12:02:44.000Z</time>
      </trkpt>
      <trkpt lat="41.0822463221848011016845703125" lon="-1.40801967121660709381103515625">
        <ele>776</ele>
        <time>2022-05-02T12:02:46.000Z</time>
      </trkpt>
      <trkpt lat="41.08221153728663921356201171875" lon="-1.40809460543096065521240234375">
        <ele>776.20001220703125</ele>
        <time>2022-05-02T12:02:48.000Z</time>
      </trkpt>
      <trkpt lat="41.082196533679962158203125" lon="-1.408129222691059112548828125">
        <ele>776.4000244140625</ele>
        <time>2022-05-02T12:02:49.000Z</time>
      </trkpt>
      <trkpt lat="41.08218002133071422576904296875" lon="-1.4081629179418087005615234375">
        <ele>776.4000244140625</ele>
        <time>2022-05-02T12:02:50.000Z</time>
      </trkpt>
      <trkpt lat="41.08213911764323711395263671875" lon="-1.40822745859622955322265625">
        <ele>776.5999755859375</ele>
        <time>2022-05-02T12:02:52.000Z</time>
      </trkpt>
      <trkpt lat="41.082088239490985870361328125" lon="-1.4082869701087474822998046875">
        <ele>776.79998779296875</ele>
        <time>2022-05-02T12:02:54.000Z</time>
      </trkpt>
      <trkpt lat="41.08202747069299221038818359375" lon="-1.408335752785205841064453125">
        <ele>776.79998779296875</ele>
        <time>2022-05-02T12:02:56.000Z</time>
      </trkpt>
      <trkpt lat="41.0819645226001739501953125" lon="-1.408377327024936676025390625">
        <ele>776.79998779296875</ele>
        <time>2022-05-02T12:02:58.000Z</time>
      </trkpt>
      <trkpt lat="41.0819009877741336822509765625" lon="-1.40841714106500148773193359375">
        <ele>776.5999755859375</ele>
        <time>2022-05-02T12:03:00.000Z</time>
      </trkpt>
      <trkpt lat="41.0818392969667911529541015625" lon="-1.40846190042793750762939453125">
        <ele>776.5999755859375</ele>
        <time>2022-05-02T12:03:02.000Z</time>
      </trkpt>
      <trkpt lat="41.08178707771003246307373046875" lon="-1.4085159637033939361572265625">
        <ele>776.79998779296875</ele>
        <time>2022-05-02T12:03:04.000Z</time>
      </trkpt>
      <trkpt lat="41.081734858453273773193359375" lon="-1.40856675803661346435546875">
        <ele>777</ele>
        <time>2022-05-02T12:03:06.000Z</time>
      </trkpt>
      <trkpt lat="41.081685908138751983642578125" lon="-1.4086222462356090545654296875">
        <ele>777</ele>
        <time>2022-05-02T12:03:08.000Z</time>
      </trkpt>
      <trkpt lat="41.08163653872907161712646484375" lon="-1.40868016518652439117431640625">
        <ele>777</ele>
        <time>2022-05-02T12:03:10.000Z</time>
      </trkpt>
      <trkpt lat="41.08161340467631816864013671875" lon="-1.40871201641857624053955078125">
        <ele>777</ele>
        <time>2022-05-02T12:03:11.000Z</time>
      </trkpt>
      <trkpt lat="41.08159370720386505126953125" lon="-1.4087439514696598052978515625">
        <ele>777</ele>
        <time>2022-05-02T12:03:12.000Z</time>
      </trkpt>
      <trkpt lat="41.081556491553783416748046875" lon="-1.40881444327533245086669921875">
        <ele>777</ele>
        <time>2022-05-02T12:03:14.000Z</time>
      </trkpt>
      <trkpt lat="41.08151399530470371246337890625" lon="-1.40888728201389312744140625">
        <ele>777.20001220703125</ele>
        <time>2022-05-02T12:03:16.000Z</time>
      </trkpt>
      <trkpt lat="41.0814936272799968719482421875" lon="-1.40892357565462589263916015625">
        <ele>777.4000244140625</ele>
        <time>2022-05-02T12:03:17.000Z</time>
      </trkpt>
      <trkpt lat="41.08147309161722660064697265625" lon="-1.40896230004727840423583984375">
        <ele>777.79998779296875</ele>
        <time>2022-05-02T12:03:18.000Z</time>
      </trkpt>
      <trkpt lat="41.081433780491352081298828125" lon="-1.4090373180806636810302734375">
        <ele>778.20001220703125</ele>
        <time>2022-05-02T12:03:20.000Z</time>
      </trkpt>
      <trkpt lat="41.08139430172741413116455078125" lon="-1.40910093672573566436767578125">
        <ele>778.79998779296875</ele>
        <time>2022-05-02T12:03:22.000Z</time>
      </trkpt>
      <trkpt lat="41.0813595168292522430419921875" lon="-1.4091590233147144317626953125">
        <ele>779</ele>
        <time>2022-05-02T12:03:24.000Z</time>
      </trkpt>
      <trkpt lat="41.0813417471945285797119140625" lon="-1.40918442048132419586181640625">
        <ele>779.20001220703125</ele>
        <time>2022-05-02T12:03:25.000Z</time>
      </trkpt>
      <trkpt lat="41.081319116055965423583984375" lon="-1.4091942273080348968505859375">
        <ele>779.20001220703125</ele>
        <time>2022-05-02T12:03:26.000Z</time>
      </trkpt>
      <trkpt lat="41.08129556290805339813232421875" lon="-1.40919012017548084259033203125">
        <ele>779.20001220703125</ele>
        <time>2022-05-02T12:03:27.000Z</time>
      </trkpt>
      <trkpt lat="41.08127988874912261962890625" lon="-1.409176625311374664306640625">
        <ele>779.20001220703125</ele>
        <time>2022-05-02T12:03:28.000Z</time>
      </trkpt>
      <trkpt lat="41.0812736861407756805419921875" lon="-1.4091556705534458160400390625">
        <ele>779</ele>
        <time>2022-05-02T12:03:29.000Z</time>
      </trkpt>
      <trkpt lat="41.08127125538885593414306640625" lon="-1.40912859700620174407958984375">
        <ele>779</ele>
        <time>2022-05-02T12:03:30.000Z</time>
      </trkpt>
      <trkpt lat="41.081274189054965972900390625" lon="-1.40909708105027675628662109375">
        <ele>778.5999755859375</ele>
        <time>2022-05-02T12:03:31.000Z</time>
      </trkpt>
      <trkpt lat="41.08127745799720287322998046875" lon="-1.4090627990663051605224609375">
        <ele>778.4000244140625</ele>
        <time>2022-05-02T12:03:32.000Z</time>
      </trkpt>
      <trkpt lat="41.08127854764461517333984375" lon="-1.40901896171271800994873046875">
        <ele>778.20001220703125</ele>
        <time>2022-05-02T12:03:33.000Z</time>
      </trkpt>
      <trkpt lat="41.08127879910171031951904296875" lon="-1.40896908938884735107421875">
        <ele>777.79998779296875</ele>
        <time>2022-05-02T12:03:34.000Z</time>
      </trkpt>
      <trkpt lat="41.0812824033200740814208984375" lon="-1.408916451036930084228515625">
        <ele>777.4000244140625</ele>
        <time>2022-05-02T12:03:35.000Z</time>
      </trkpt>
      <trkpt lat="41.08128818683326244354248046875" lon="-1.40886104665696620941162109375">
        <ele>777</ele>
        <time>2022-05-02T12:03:36.000Z</time>
      </trkpt>
      <trkpt lat="41.081304363906383514404296875" lon="-1.40874738804996013641357421875">
        <ele>777</ele>
        <time>2022-05-02T12:03:38.000Z</time>
      </trkpt>
      <trkpt lat="41.081323809921741485595703125" lon="-1.4086457155644893646240234375">
        <ele>777</ele>
        <time>2022-05-02T12:03:40.000Z</time>
      </trkpt>
      <trkpt lat="41.08133646659553050994873046875" lon="-1.40854798257350921630859375">
        <ele>776.79998779296875</ele>
        <time>2022-05-02T12:03:42.000Z</time>
      </trkpt>
      <trkpt lat="41.08134803362190723419189453125" lon="-1.40845804475247859954833984375">
        <ele>776.79998779296875</ele>
        <time>2022-05-02T12:03:44.000Z</time>
      </trkpt>
      <trkpt lat="41.0813663899898529052734375" lon="-1.408369280397891998291015625">
        <ele>776.5999755859375</ele>
        <time>2022-05-02T12:03:46.000Z</time>
      </trkpt>
      <trkpt lat="41.08138575218617916107177734375" lon="-1.4082819409668445587158203125">
        <ele>776.4000244140625</ele>
        <time>2022-05-02T12:03:48.000Z</time>
      </trkpt>
      <trkpt lat="41.08140117488801479339599609375" lon="-1.40819367952644824981689453125">
        <ele>776.20001220703125</ele>
        <time>2022-05-02T12:03:50.000Z</time>
      </trkpt>
      <trkpt lat="41.0814111493527889251708984375" lon="-1.40810675919055938720703125">
        <ele>776.20001220703125</ele>
        <time>2022-05-02T12:03:52.000Z</time>
      </trkpt>
      <trkpt lat="41.081417687237262725830078125" lon="-1.408028639853000640869140625">
        <ele>776.4000244140625</ele>
        <time>2022-05-02T12:03:54.000Z</time>
      </trkpt>
      <trkpt lat="41.08141877688467502593994140625" lon="-1.4079956151545047760009765625">
        <ele>776.5999755859375</ele>
        <time>2022-05-02T12:03:55.000Z</time>
      </trkpt>
      <trkpt lat="41.0814212076365947723388671875" lon="-1.40796116553246974945068359375">
        <ele>776.5999755859375</ele>
        <time>2022-05-02T12:03:56.000Z</time>
      </trkpt>
      <trkpt lat="41.08143419958651065826416015625" lon="-1.4078886620700359344482421875">
        <ele>776.79998779296875</ele>
        <time>2022-05-02T12:03:58.000Z</time>
      </trkpt>
      <trkpt lat="41.0814540646970272064208984375" lon="-1.407812722027301788330078125">
        <ele>776.5999755859375</ele>
        <time>2022-05-02T12:04:00.000Z</time>
      </trkpt>
      <trkpt lat="41.08146588318049907684326171875" lon="-1.4077739976346492767333984375">
        <ele>776.5999755859375</ele>
        <time>2022-05-02T12:04:01.000Z</time>
      </trkpt>
      <trkpt lat="41.08147837221622467041015625" lon="-1.4077347703278064727783203125">
        <ele>776.5999755859375</ele>
        <time>2022-05-02T12:04:02.000Z</time>
      </trkpt>
      <trkpt lat="41.0815013386309146881103515625" lon="-1.40765086747705936431884765625">
        <ele>776.4000244140625</ele>
        <time>2022-05-02T12:04:04.000Z</time>
      </trkpt>
      <trkpt lat="41.08152489177882671356201171875" lon="-1.407564617693424224853515625">
        <ele>776.20001220703125</ele>
        <time>2022-05-02T12:04:06.000Z</time>
      </trkpt>
      <trkpt lat="41.08154266141355037689208984375" lon="-1.407524384558200836181640625">
        <ele>776</ele>
        <time>2022-05-02T12:04:07.000Z</time>
      </trkpt>
      <trkpt lat="41.081564538180828094482421875" lon="-1.4074846543371677398681640625">
        <ele>775.79998779296875</ele>
        <time>2022-05-02T12:04:08.000Z</time>
      </trkpt>
      <trkpt lat="41.0816131532192230224609375" lon="-1.40740410424768924713134765625">
        <ele>775.5999755859375</ele>
        <time>2022-05-02T12:04:10.000Z</time>
      </trkpt>
      <trkpt lat="41.0816605947911739349365234375" lon="-1.40732715837657451629638671875">
        <ele>775.4000244140625</ele>
        <time>2022-05-02T12:04:12.000Z</time>
      </trkpt>
      <trkpt lat="41.0816998220980167388916015625" lon="-1.40725054778158664703369140625">
        <ele>775.4000244140625</ele>
        <time>2022-05-02T12:04:14.000Z</time>
      </trkpt>
      <trkpt lat="41.08172404579818248748779296875" lon="-1.40717896632850170135498046875">
        <ele>775.5999755859375</ele>
        <time>2022-05-02T12:04:16.000Z</time>
      </trkpt>
      <trkpt lat="41.0817400552332401275634765625" lon="-1.40710872597992420196533203125">
        <ele>775.5999755859375</ele>
        <time>2022-05-02T12:04:18.000Z</time>
      </trkpt>
      <trkpt lat="41.081749610602855682373046875" lon="-1.40707637183368206024169921875">
        <ele>775.5999755859375</ele>
        <time>2022-05-02T12:04:19.000Z</time>
      </trkpt>
      <trkpt lat="41.0817588306963443756103515625" lon="-1.4070457778871059417724609375">
        <ele>775.5999755859375</ele>
        <time>2022-05-02T12:04:20.000Z</time>
      </trkpt>
      <trkpt lat="41.08176494948565959930419921875" lon="-1.40697947703301906585693359375">
        <ele>775.79998779296875</ele>
        <time>2022-05-02T12:04:22.000Z</time>
      </trkpt>
      <trkpt lat="41.0817745886743068695068359375" lon="-1.4069012738764286041259765625">
        <ele>776.20001220703125</ele>
        <time>2022-05-02T12:04:24.000Z</time>
      </trkpt>
      <trkpt lat="41.08177877962589263916015625" lon="-1.40685609541833400726318359375">
        <ele>776.5999755859375</ele>
        <time>2022-05-02T12:04:25.000Z</time>
      </trkpt>
      <trkpt lat="41.0817794501781463623046875" lon="-1.40680647455155849456787109375">
        <ele>776.79998779296875</ele>
        <time>2022-05-02T12:04:26.000Z</time>
      </trkpt>
      <trkpt lat="41.081781126558780670166015625" lon="-1.406713686883449554443359375">
        <ele>777.4000244140625</ele>
        <time>2022-05-02T12:04:28.000Z</time>
      </trkpt>
      <trkpt lat="41.0817853175103664398193359375" lon="-1.406670100986957550048828125">
        <ele>777.79998779296875</ele>
        <time>2022-05-02T12:04:29.000Z</time>
      </trkpt>
      <trkpt lat="41.08178682625293731689453125" lon="-1.40662961639463901519775390625">
        <ele>778</ele>
        <time>2022-05-02T12:04:30.000Z</time>
      </trkpt>
      <trkpt lat="41.08178724534809589385986328125" lon="-1.406589634716510772705078125">
        <ele>778</ele>
        <time>2022-05-02T12:04:31.000Z</time>
      </trkpt>
      <trkpt lat="41.081791184842586517333984375" lon="-1.40654998831450939178466796875">
        <ele>778.20001220703125</ele>
        <time>2022-05-02T12:04:32.000Z</time>
      </trkpt>
      <trkpt lat="41.08180451206862926483154296875" lon="-1.40646851621568202972412109375">
        <ele>778.20001220703125</ele>
        <time>2022-05-02T12:04:34.000Z</time>
      </trkpt>
      <trkpt lat="41.08182211406528949737548828125" lon="-1.4063762314617633819580078125">
        <ele>778</ele>
        <time>2022-05-02T12:04:36.000Z</time>
      </trkpt>
      <trkpt lat="41.08185262419283390045166015625" lon="-1.40626944601535797119140625">
        <ele>777.79998779296875</ele>
        <time>2022-05-02T12:04:38.000Z</time>
      </trkpt>
      <trkpt lat="41.08188866637647151947021484375" lon="-1.406147740781307220458984375">
        <ele>777.4000244140625</ele>
        <time>2022-05-02T12:04:40.000Z</time>
      </trkpt>
      <trkpt lat="41.0819009877741336822509765625" lon="-1.40608437359333038330078125">
        <ele>777.20001220703125</ele>
        <time>2022-05-02T12:04:41.000Z</time>
      </trkpt>
      <trkpt lat="41.081902496516704559326171875" lon="-1.40602058731019496917724609375">
        <ele>777</ele>
        <time>2022-05-02T12:04:42.000Z</time>
      </trkpt>
      <trkpt lat="41.0818718187510967254638671875" lon="-1.40590474940836429595947265625">
        <ele>776.79998779296875</ele>
        <time>2022-05-02T12:04:44.000Z</time>
      </trkpt>
      <trkpt lat="41.0818211920559406280517578125" lon="-1.40580735169351100921630859375">
        <ele>777</ele>
        <time>2022-05-02T12:04:46.000Z</time>
      </trkpt>
      <trkpt lat="41.0817982256412506103515625" lon="-1.40575923956930637359619140625">
        <ele>777.20001220703125</ele>
        <time>2022-05-02T12:04:47.000Z</time>
      </trkpt>
      <trkpt lat="41.08177517540752887725830078125" lon="-1.4057133905589580535888671875">
        <ele>777.20001220703125</ele>
        <time>2022-05-02T12:04:48.000Z</time>
      </trkpt>
      <trkpt lat="41.08172706328332424163818359375" lon="-1.4056221954524517059326171875">
        <ele>777.4000244140625</ele>
        <time>2022-05-02T12:04:50.000Z</time>
      </trkpt>
      <trkpt lat="41.0816726647317409515380859375" lon="-1.40552722848951816558837890625">
        <ele>777.5999755859375</ele>
        <time>2022-05-02T12:04:52.000Z</time>
      </trkpt>
      <trkpt lat="41.08164223842322826385498046875" lon="-1.40548280440270900726318359375">
        <ele>778</ele>
        <time>2022-05-02T12:04:53.000Z</time>
      </trkpt>
      <trkpt lat="41.08160820789635181427001953125" lon="-1.405443660914897918701171875">
        <ele>778.4000244140625</ele>
        <time>2022-05-02T12:04:54.000Z</time>
      </trkpt>
      <trkpt lat="41.0815747641026973724365234375" lon="-1.40539814718067646026611328125">
        <ele>778.79998779296875</ele>
        <time>2022-05-02T12:04:55.000Z</time>
      </trkpt>
      <trkpt lat="41.0815452598035335540771484375" lon="-1.4053469337522983551025390625">
        <ele>779</ele>
        <time>2022-05-02T12:04:56.000Z</time>
      </trkpt>
      <trkpt lat="41.08152086846530437469482421875" lon="-1.40529714524745941162109375">
        <ele>779.20001220703125</ele>
        <time>2022-05-02T12:04:57.000Z</time>
      </trkpt>
      <trkpt lat="41.08150091953575611114501953125" lon="-1.4052507095038890838623046875">
        <ele>779.4000244140625</ele>
        <time>2022-05-02T12:04:58.000Z</time>
      </trkpt>
      <trkpt lat="41.0814656317234039306640625" lon="-1.40516261570155620574951171875">
        <ele>779.5999755859375</ele>
        <time>2022-05-02T12:05:00.000Z</time>
      </trkpt>
      <trkpt lat="41.08142363838851451873779296875" lon="-1.40507988631725311279296875">
        <ele>779.79998779296875</ele>
        <time>2022-05-02T12:05:02.000Z</time>
      </trkpt>
      <trkpt lat="41.081381142139434814453125" lon="-1.40499430708587169647216796875">
        <ele>779.5999755859375</ele>
        <time>2022-05-02T12:05:04.000Z</time>
      </trkpt>
      <trkpt lat="41.08134384267032146453857421875" lon="-1.40489942394196987152099609375">
        <ele>779</ele>
        <time>2022-05-02T12:05:06.000Z</time>
      </trkpt>
      <trkpt lat="41.08132959343492984771728515625" lon="-1.40484787523746490478515625">
        <ele>779</ele>
        <time>2022-05-02T12:05:07.000Z</time>
      </trkpt>
      <trkpt lat="41.0813152603805065155029296875" lon="-1.404795907437801361083984375">
        <ele>778.79998779296875</ele>
        <time>2022-05-02T12:05:08.000Z</time>
      </trkpt>
      <trkpt lat="41.08128818683326244354248046875" lon="-1.40469255857169628143310546875">
        <ele>778.79998779296875</ele>
        <time>2022-05-02T12:05:10.000Z</time>
      </trkpt>
      <trkpt lat="41.081263460218906402587890625" lon="-1.4046079851686954498291015625">
        <ele>778.4000244140625</ele>
        <time>2022-05-02T12:05:12.000Z</time>
      </trkpt>
      <trkpt lat="41.08125063590705394744873046875" lon="-1.4045731164515018463134765625">
        <ele>778.20001220703125</ele>
        <time>2022-05-02T12:05:13.000Z</time>
      </trkpt>
      <trkpt lat="41.0812394879758358001708984375" lon="-1.4045441150665283203125">
        <ele>778</ele>
        <time>2022-05-02T12:05:14.000Z</time>
      </trkpt>
      <trkpt lat="41.08122079633176326751708984375" lon="-1.404504217207431793212890625">
        <ele>777.79998779296875</ele>
        <time>2022-05-02T12:05:16.000Z</time>
      </trkpt>
      <trkpt lat="41.081207804381847381591796875" lon="-1.40447831712663173675537109375">
        <ele>777.5999755859375</ele>
        <time>2022-05-02T12:05:18.000Z</time>
      </trkpt>
      <trkpt lat="41.08120570890605449676513671875" lon="-1.40446758829057216644287109375">
        <ele>777.79998779296875</ele>
        <time>2022-05-02T12:05:19.000Z</time>
      </trkpt>
      <trkpt lat="41.081204116344451904296875" lon="-1.404456607997417449951171875">
        <ele>777.79998779296875</ele>
        <time>2022-05-02T12:05:20.000Z</time>
      </trkpt>
      <trkpt lat="41.081203110516071319580078125" lon="-1.40444076620042324066162109375">
        <ele>777.79998779296875</ele>
        <time>2022-05-02T12:05:22.000Z</time>
      </trkpt>
      <trkpt lat="41.08120570890605449676513671875" lon="-1.40443674288690090179443359375">
        <ele>777.79998779296875</ele>
        <time>2022-05-02T12:05:23.000Z</time>
      </trkpt>
      <trkpt lat="41.08115575276315212249755859375" lon="-1.40415209345519542694091796875">
        <ele>777.5999755859375</ele>
        <time>2022-05-02T12:05:56.000Z</time>
      </trkpt>
      <trkpt lat="41.08114955015480518341064453125" lon="-1.40413214452564716339111328125">
        <ele>777.79998779296875</ele>
        <time>2022-05-02T12:05:57.000Z</time>
      </trkpt>
      <trkpt lat="41.08114519156515598297119140625" lon="-1.40411236323416233062744140625">
        <ele>777.79998779296875</ele>
        <time>2022-05-02T12:05:58.000Z</time>
      </trkpt>
      <trkpt lat="41.0811316967010498046875" lon="-1.404060982167720794677734375">
        <ele>778</ele>
        <time>2022-05-02T12:06:00.000Z</time>
      </trkpt>
      <trkpt lat="41.08111149631440639495849609375" lon="-1.403997950255870819091796875">
        <ele>778.20001220703125</ele>
        <time>2022-05-02T12:06:02.000Z</time>
      </trkpt>
      <trkpt lat="41.0811003483831882476806640625" lon="-1.403962075710296630859375">
        <ele>778.20001220703125</ele>
        <time>2022-05-02T12:06:03.000Z</time>
      </trkpt>
      <trkpt lat="41.081087104976177215576171875" lon="-1.4039226807653903961181640625">
        <ele>778.20001220703125</ele>
        <time>2022-05-02T12:06:04.000Z</time>
      </trkpt>
      <trkpt lat="41.08105651102960109710693359375" lon="-1.4038438908755779266357421875">
        <ele>778.20001220703125</ele>
        <time>2022-05-02T12:06:06.000Z</time>
      </trkpt>
      <trkpt lat="41.08102331869304180145263671875" lon="-1.40376350842416286468505859375">
        <ele>778.4000244140625</ele>
        <time>2022-05-02T12:06:08.000Z</time>
      </trkpt>
      <trkpt lat="41.0810074768960475921630859375" lon="-1.40372780151665210723876953125">
        <ele>778.4000244140625</ele>
        <time>2022-05-02T12:06:09.000Z</time>
      </trkpt>
      <trkpt lat="41.08099021017551422119140625" lon="-1.4036936871707439422607421875">
        <ele>778.4000244140625</ele>
        <time>2022-05-02T12:06:10.000Z</time>
      </trkpt>
      <trkpt lat="41.08095240779221057891845703125" lon="-1.40362554229795932769775390625">
        <ele>778.20001220703125</ele>
        <time>2022-05-02T12:06:12.000Z</time>
      </trkpt>
      <trkpt lat="41.08090697787702083587646484375" lon="-1.40355714596807956695556640625">
        <ele>777.4000244140625</ele>
        <time>2022-05-02T12:06:14.000Z</time>
      </trkpt>
      <trkpt lat="41.0808862745761871337890625" lon="-1.403528563678264617919921875">
        <ele>777.20001220703125</ele>
        <time>2022-05-02T12:06:15.000Z</time>
      </trkpt>
      <trkpt lat="41.0808659903705120086669921875" lon="-1.4034998975694179534912109375">
        <ele>777</ele>
        <time>2022-05-02T12:06:16.000Z</time>
      </trkpt>
      <trkpt lat="41.080820895731449127197265625" lon="-1.40343359671533107757568359375">
        <ele>776.5999755859375</ele>
        <time>2022-05-02T12:06:18.000Z</time>
      </trkpt>
      <trkpt lat="41.08077907003462314605712890625" lon="-1.40335497446358203887939453125">
        <ele>776.79998779296875</ele>
        <time>2022-05-02T12:06:20.000Z</time>
      </trkpt>
      <trkpt lat="41.0807613842189311981201171875" lon="-1.403310634195804595947265625">
        <ele>776.79998779296875</ele>
        <time>2022-05-02T12:06:21.000Z</time>
      </trkpt>
      <trkpt lat="41.08074151910841464996337890625" lon="-1.40326847322285175323486328125">
        <ele>777</ele>
        <time>2022-05-02T12:06:22.000Z</time>
      </trkpt>
      <trkpt lat="41.0806949995458126068115234375" lon="-1.403189599514007568359375">
        <ele>776.4000244140625</ele>
        <time>2022-05-02T12:06:24.000Z</time>
      </trkpt>
      <trkpt lat="41.08063641004264354705810546875" lon="-1.4031294174492359161376953125">
        <ele>776.4000244140625</ele>
        <time>2022-05-02T12:06:26.000Z</time>
      </trkpt>
      <trkpt lat="41.08060472644865512847900390625" lon="-1.40310284681618213653564453125">
        <ele>776.4000244140625</ele>
        <time>2022-05-02T12:06:27.000Z</time>
      </trkpt>
      <trkpt lat="41.08057321049273014068603515625" lon="-1.403077952563762664794921875">
        <ele>776.4000244140625</ele>
        <time>2022-05-02T12:06:28.000Z</time>
      </trkpt>
      <trkpt lat="41.08051939867436885833740234375" lon="-1.403027661144733428955078125">
        <ele>776.4000244140625</ele>
        <time>2022-05-02T12:06:30.000Z</time>
      </trkpt>
      <trkpt lat="41.0804705321788787841796875" lon="-1.402969323098659515380859375">
        <ele>776</ele>
        <time>2022-05-02T12:06:32.000Z</time>
      </trkpt>
      <trkpt lat="41.0804448835551738739013671875" lon="-1.40293872915208339691162109375">
        <ele>775.4000244140625</ele>
        <time>2022-05-02T12:06:33.000Z</time>
      </trkpt>
      <trkpt lat="41.0804180614650249481201171875" lon="-1.402907632291316986083984375">
        <ele>775.20001220703125</ele>
        <time>2022-05-02T12:06:34.000Z</time>
      </trkpt>
      <trkpt lat="41.08035829849541187286376953125" lon="-1.402849964797496795654296875">
        <ele>775.20001220703125</ele>
        <time>2022-05-02T12:06:36.000Z</time>
      </trkpt>
      <trkpt lat="41.0802923329174518585205078125" lon="-1.4027917943894863128662109375">
        <ele>775</ele>
        <time>2022-05-02T12:06:38.000Z</time>
      </trkpt>
      <trkpt lat="41.080222427845001220703125" lon="-1.4027408324182033538818359375">
        <ele>775</ele>
        <time>2022-05-02T12:06:40.000Z</time>
      </trkpt>
      <trkpt lat="41.08014992438256740570068359375" lon="-1.4026974141597747802734375">
        <ele>775.4000244140625</ele>
        <time>2022-05-02T12:06:42.000Z</time>
      </trkpt>
      <trkpt lat="41.08007398433983325958251953125" lon="-1.40264955349266529083251953125">
        <ele>776.4000244140625</ele>
        <time>2022-05-02T12:06:44.000Z</time>
      </trkpt>
      <trkpt lat="41.08003928326070308685302734375" lon="-1.40262004919350147247314453125">
        <ele>776.79998779296875</ele>
        <time>2022-05-02T12:06:45.000Z</time>
      </trkpt>
      <trkpt lat="41.08001313172280788421630859375" lon="-1.40258610248565673828125">
        <ele>776.79998779296875</ele>
        <time>2022-05-02T12:06:46.000Z</time>
      </trkpt>
      <trkpt lat="41.0799936018884181976318359375" lon="-1.40254628844559192657470703125">
        <ele>776.5999755859375</ele>
        <time>2022-05-02T12:06:47.000Z</time>
      </trkpt>
      <trkpt lat="41.07997457496821880340576171875" lon="-1.40250437892973423004150390625">
        <ele>776.4000244140625</ele>
        <time>2022-05-02T12:06:48.000Z</time>
      </trkpt>
      <trkpt lat="41.07995294965803623199462890625" lon="-1.402461715042591094970703125">
        <ele>776.4000244140625</ele>
        <time>2022-05-02T12:06:49.000Z</time>
      </trkpt>
      <trkpt lat="41.0799295641481876373291015625" lon="-1.40241787768900394439697265625">
        <ele>777</ele>
        <time>2022-05-02T12:06:50.000Z</time>
      </trkpt>
      <trkpt lat="41.0798839665949344635009765625" lon="-1.4023398421704769134521484375">
        <ele>777</ele>
        <time>2022-05-02T12:06:52.000Z</time>
      </trkpt>
      <trkpt lat="41.07986041344702243804931640625" lon="-1.40230941586196422576904296875">
        <ele>777.20001220703125</ele>
        <time>2022-05-02T12:06:53.000Z</time>
      </trkpt>
      <trkpt lat="41.0798350162804126739501953125" lon="-1.4022818394005298614501953125">
        <ele>777.4000244140625</ele>
        <time>2022-05-02T12:06:54.000Z</time>
      </trkpt>
      <trkpt lat="41.07978061772882938385009765625" lon="-1.40222794376313686370849609375">
        <ele>777.4000244140625</ele>
        <time>2022-05-02T12:06:56.000Z</time>
      </trkpt>
      <trkpt lat="41.07972093857824802398681640625" lon="-1.4021789096295833587646484375">
        <ele>777.5999755859375</ele>
        <time>2022-05-02T12:06:58.000Z</time>
      </trkpt>
      <trkpt lat="41.079654805362224578857421875" lon="-1.4021341502666473388671875">
        <ele>778.20001220703125</ele>
        <time>2022-05-02T12:07:00.000Z</time>
      </trkpt>
      <trkpt lat="41.0796217806637287139892578125" lon="-1.402111016213893890380859375">
        <ele>778.5999755859375</ele>
        <time>2022-05-02T12:07:01.000Z</time>
      </trkpt>
      <trkpt lat="41.0795916058123111724853515625" lon="-1.40208385884761810302734375">
        <ele>778.79998779296875</ele>
        <time>2022-05-02T12:07:02.000Z</time>
      </trkpt>
      <trkpt lat="41.0795406438410282135009765625" lon="-1.4020139537751674652099609375">
        <ele>779.20001220703125</ele>
        <time>2022-05-02T12:07:04.000Z</time>
      </trkpt>
      <trkpt lat="41.07950552366673946380615234375" lon="-1.4019395224750041961669921875">
        <ele>779.5999755859375</ele>
        <time>2022-05-02T12:07:06.000Z</time>
      </trkpt>
      <trkpt lat="41.07948951423168182373046875" lon="-1.40190658159554004669189453125">
        <ele>779.5999755859375</ele>
        <time>2022-05-02T12:07:07.000Z</time>
      </trkpt>
      <trkpt lat="41.07947249896824359893798828125" lon="-1.401876993477344512939453125">
        <ele>780</ele>
        <time>2022-05-02T12:07:08.000Z</time>
      </trkpt>
      <trkpt lat="41.0794325172901153564453125" lon="-1.40182393603026866912841796875">
        <ele>780.4000244140625</ele>
        <time>2022-05-02T12:07:10.000Z</time>
      </trkpt>
      <trkpt lat="41.07938784174621105194091796875" lon="-1.4017698727548122406005859375">
        <ele>780.5999755859375</ele>
        <time>2022-05-02T12:07:12.000Z</time>
      </trkpt>
      <trkpt lat="41.07933302409946918487548828125" lon="-1.40172000043094158172607421875">
        <ele>780.5999755859375</ele>
        <time>2022-05-02T12:07:14.000Z</time>
      </trkpt>
      <trkpt lat="41.0792777873575687408447265625" lon="-1.40166275203227996826171875">
        <ele>780.5999755859375</ele>
        <time>2022-05-02T12:07:16.000Z</time>
      </trkpt>
      <trkpt lat="41.07922338880598545074462890625" lon="-1.40160181559622287750244140625">
        <ele>780.5999755859375</ele>
        <time>2022-05-02T12:07:18.000Z</time>
      </trkpt>
      <trkpt lat="41.0791792161762714385986328125" lon="-1.40152302570641040802001953125">
        <ele>780.5999755859375</ele>
        <time>2022-05-02T12:07:20.000Z</time>
      </trkpt>
      <trkpt lat="41.07914158143103122711181640625" lon="-1.4014402963221073150634765625">
        <ele>780.5999755859375</ele>
        <time>2022-05-02T12:07:22.000Z</time>
      </trkpt>
      <trkpt lat="41.07912666164338588714599609375" lon="-1.401361338794231414794921875">
        <ele>780.4000244140625</ele>
        <time>2022-05-02T12:07:24.000Z</time>
      </trkpt>
      <trkpt lat="41.07912607491016387939453125" lon="-1.40132219530642032623291015625">
        <ele>780.20001220703125</ele>
        <time>2022-05-02T12:07:25.000Z</time>
      </trkpt>
      <trkpt lat="41.07912431471049785614013671875" lon="-1.4012796990573406219482421875">
        <ele>779.79998779296875</ele>
        <time>2022-05-02T12:07:26.000Z</time>
      </trkpt>
      <trkpt lat="41.07910436578094959259033203125" lon="-1.40119210816919803619384765625">
        <ele>779</ele>
        <time>2022-05-02T12:07:28.000Z</time>
      </trkpt>
      <trkpt lat="41.07908123172819614410400390625" lon="-1.4011563174426555633544921875">
        <ele>778.5999755859375</ele>
        <time>2022-05-02T12:07:29.000Z</time>
      </trkpt>
      <trkpt lat="41.07905038632452487945556640625" lon="-1.4011284895241260528564453125">
        <ele>778.4000244140625</ele>
        <time>2022-05-02T12:07:30.000Z</time>
      </trkpt>
      <trkpt lat="41.07897880487143993377685546875" lon="-1.40110309235751628875732421875">
        <ele>778.4000244140625</ele>
        <time>2022-05-02T12:07:32.000Z</time>
      </trkpt>
      <trkpt lat="41.0789418406784534454345703125" lon="-1.4010996557772159576416015625">
        <ele>778.5999755859375</ele>
        <time>2022-05-02T12:07:33.000Z</time>
      </trkpt>
      <trkpt lat="41.0789042897522449493408203125" lon="-1.40109906904399394989013671875">
        <ele>778.5999755859375</ele>
        <time>2022-05-02T12:07:34.000Z</time>
      </trkpt>
      <trkpt lat="41.07883128337562084197998046875" lon="-1.40109286643564701080322265625">
        <ele>778.79998779296875</ele>
        <time>2022-05-02T12:07:36.000Z</time>
      </trkpt>
      <trkpt lat="41.078759618103504180908203125" lon="-1.40107937157154083251953125">
        <ele>779</ele>
        <time>2022-05-02T12:07:38.000Z</time>
      </trkpt>
      <trkpt lat="41.07868619263172149658203125" lon="-1.40104726888239383697509765625">
        <ele>779</ele>
        <time>2022-05-02T12:07:40.000Z</time>
      </trkpt>
      <trkpt lat="41.078650653362274169921875" lon="-1.4010238833725452423095703125">
        <ele>779</ele>
        <time>2022-05-02T12:07:41.000Z</time>
      </trkpt>
      <trkpt lat="41.07861955650150775909423828125" lon="-1.40099228359758853912353515625">
        <ele>778.79998779296875</ele>
        <time>2022-05-02T12:07:42.000Z</time>
      </trkpt>
      <trkpt lat="41.07856691814959049224853515625" lon="-1.40091969631612300872802734375">
        <ele>778.5999755859375</ele>
        <time>2022-05-02T12:07:44.000Z</time>
      </trkpt>
      <trkpt lat="41.07850908301770687103271484375" lon="-1.40085733495652675628662109375">
        <ele>778.4000244140625</ele>
        <time>2022-05-02T12:07:46.000Z</time>
      </trkpt>
      <trkpt lat="41.07843548990786075592041015625" lon="-1.4008331112563610076904296875">
        <ele>778.5999755859375</ele>
        <time>2022-05-02T12:07:48.000Z</time>
      </trkpt>
      <trkpt lat="41.078362651169300079345703125" lon="-1.400834955275058746337890625">
        <ele>779</ele>
        <time>2022-05-02T12:07:50.000Z</time>
      </trkpt>
      <trkpt lat="41.0782925784587860107421875" lon="-1.400823891162872314453125">
        <ele>779.5999755859375</ele>
        <time>2022-05-02T12:07:52.000Z</time>
      </trkpt>
      <trkpt lat="41.0782555304467678070068359375" lon="-1.40080737881362438201904296875">
        <ele>779.79998779296875</ele>
        <time>2022-05-02T12:07:53.000Z</time>
      </trkpt>
      <trkpt lat="41.07821814715862274169921875" lon="-1.40078759752213954925537109375">
        <ele>780</ele>
        <time>2022-05-02T12:07:54.000Z</time>
      </trkpt>
      <trkpt lat="41.078186966478824615478515625" lon="-1.40076949261128902435302734375">
        <ele>780</ele>
        <time>2022-05-02T12:07:55.000Z</time>
      </trkpt>
      <trkpt lat="41.07816341333091259002685546875" lon="-1.400748789310455322265625">
        <ele>780</ele>
        <time>2022-05-02T12:07:56.000Z</time>
      </trkpt>
      <trkpt lat="41.078132651746273040771484375" lon="-1.4006986655294895172119140625">
        <ele>780</ele>
        <time>2022-05-02T12:07:58.000Z</time>
      </trkpt>
      <trkpt lat="41.0781204141676425933837890625" lon="-1.40066388063132762908935546875">
        <ele>779.79998779296875</ele>
        <time>2022-05-02T12:07:59.000Z</time>
      </trkpt>
      <trkpt lat="41.07810943387448787689208984375" lon="-1.40062666498124599456787109375">
        <ele>779.79998779296875</ele>
        <time>2022-05-02T12:08:00.000Z</time>
      </trkpt>
      <trkpt lat="41.0780821926891803741455078125" lon="-1.400539912283420562744140625">
        <ele>779.5999755859375</ele>
        <time>2022-05-02T12:08:02.000Z</time>
      </trkpt>
      <trkpt lat="41.07805629260838031768798828125" lon="-1.40044033527374267578125">
        <ele>779.5999755859375</ele>
        <time>2022-05-02T12:08:04.000Z</time>
      </trkpt>
      <trkpt lat="41.07805109582841396331787109375" lon="-1.40038928948342800140380859375">
        <ele>779.5999755859375</ele>
        <time>2022-05-02T12:08:05.000Z</time>
      </trkpt>
      <trkpt lat="41.07805411331355571746826171875" lon="-1.4003375731408596038818359375">
        <ele>779.5999755859375</ele>
        <time>2022-05-02T12:08:06.000Z</time>
      </trkpt>
      <trkpt lat="41.078081019222736358642578125" lon="-1.40023070387542247772216796875">
        <ele>779.5999755859375</ele>
        <time>2022-05-02T12:08:08.000Z</time>
      </trkpt>
      <trkpt lat="41.0781006328761577606201171875" lon="-1.40018158592283725738525390625">
        <ele>779.5999755859375</ele>
        <time>2022-05-02T12:08:09.000Z</time>
      </trkpt>
      <trkpt lat="41.07811982743442058563232421875" lon="-1.4001343958079814910888671875">
        <ele>779.79998779296875</ele>
        <time>2022-05-02T12:08:10.000Z</time>
      </trkpt>
      <trkpt lat="41.07815905474126338958740234375" lon="-1.40004026703536510467529296875">
        <ele>780</ele>
        <time>2022-05-02T12:08:12.000Z</time>
      </trkpt>
      <trkpt lat="41.07819258235394954681396484375" lon="-1.3999469764530658721923828125">
        <ele>780.20001220703125</ele>
        <time>2022-05-02T12:08:14.000Z</time>
      </trkpt>
      <trkpt lat="41.07820716686546802520751953125" lon="-1.39985435642302036285400390625">
        <ele>780</ele>
        <time>2022-05-02T12:08:16.000Z</time>
      </trkpt>
      <trkpt lat="41.07820741832256317138671875" lon="-1.39974857680499553680419921875">
        <ele>780</ele>
        <time>2022-05-02T12:08:18.000Z</time>
      </trkpt>
      <trkpt lat="41.0782008804380893707275390625" lon="-1.3996931724250316619873046875">
        <ele>780.20001220703125</ele>
        <time>2022-05-02T12:08:19.000Z</time>
      </trkpt>
      <trkpt lat="41.07819342054426670074462890625" lon="-1.39963810332119464874267578125">
        <ele>780</ele>
        <time>2022-05-02T12:08:20.000Z</time>
      </trkpt>
      <trkpt lat="41.07818998396396636962890625" lon="-1.3995801843702793121337890625">
        <ele>779.79998779296875</ele>
        <time>2022-05-02T12:08:21.000Z</time>
      </trkpt>
      <trkpt lat="41.07819325290620326995849609375" lon="-1.39951941557228565216064453125">
        <ele>779.5999755859375</ele>
        <time>2022-05-02T12:08:22.000Z</time>
      </trkpt>
      <trkpt lat="41.07819040305912494659423828125" lon="-1.39939586631953716278076171875">
        <ele>779.20001220703125</ele>
        <time>2022-05-02T12:08:24.000Z</time>
      </trkpt>
      <trkpt lat="41.078164838254451751708984375" lon="-1.3992774300277233123779296875">
        <ele>779</ele>
        <time>2022-05-02T12:08:26.000Z</time>
      </trkpt>
      <trkpt lat="41.0781194083392620086669921875" lon="-1.39917634427547454833984375">
        <ele>779.20001220703125</ele>
        <time>2022-05-02T12:08:28.000Z</time>
      </trkpt>
      <trkpt lat="41.078076995909214019775390625" lon="-1.399075426161289215087890625">
        <ele>779</ele>
        <time>2022-05-02T12:08:30.000Z</time>
      </trkpt>
      <trkpt lat="41.078058220446109771728515625" lon="-1.39902337454259395599365234375">
        <ele>778.79998779296875</ele>
        <time>2022-05-02T12:08:31.000Z</time>
      </trkpt>
      <trkpt lat="41.07803785242140293121337890625" lon="-1.398973166942596435546875">
        <ele>779.20001220703125</ele>
        <time>2022-05-02T12:08:32.000Z</time>
      </trkpt>
      <trkpt lat="41.0779809392988681793212890625" lon="-1.398886330425739288330078125">
        <ele>780.20001220703125</ele>
        <time>2022-05-02T12:08:34.000Z</time>
      </trkpt>
      <trkpt lat="41.07792310416698455810546875" lon="-1.39880142174661159515380859375">
        <ele>780.79998779296875</ele>
        <time>2022-05-02T12:08:36.000Z</time>
      </trkpt>
      <trkpt lat="41.07786275446414947509765625" lon="-1.398705951869487762451171875">
        <ele>780.79998779296875</ele>
        <time>2022-05-02T12:08:38.000Z</time>
      </trkpt>
      <trkpt lat="41.0778052546083927154541015625" lon="-1.3986122421920299530029296875">
        <ele>781</ele>
        <time>2022-05-02T12:08:40.000Z</time>
      </trkpt>
      <trkpt lat="41.0777472518384456634521484375" lon="-1.3985294289886951446533203125">
        <ele>781</ele>
        <time>2022-05-02T12:08:42.000Z</time>
      </trkpt>
      <trkpt lat="41.077714227139949798583984375" lon="-1.39849430881440639495849609375">
        <ele>781.20001220703125</ele>
        <time>2022-05-02T12:08:43.000Z</time>
      </trkpt>
      <trkpt lat="41.07768011279404163360595703125" lon="-1.3984633795917034149169921875">
        <ele>781.4000244140625</ele>
        <time>2022-05-02T12:08:44.000Z</time>
      </trkpt>
      <trkpt lat="41.07760794460773468017578125" lon="-1.39840914867818355560302734375">
        <ele>782</ele>
        <time>2022-05-02T12:08:46.000Z</time>
      </trkpt>
      <trkpt lat="41.077535189688205718994140625" lon="-1.3983621262013912200927734375">
        <ele>782.5999755859375</ele>
        <time>2022-05-02T12:08:48.000Z</time>
      </trkpt>
      <trkpt lat="41.07749956659972667694091796875" lon="-1.398340500891208648681640625">
        <ele>782.79998779296875</ele>
        <time>2022-05-02T12:08:49.000Z</time>
      </trkpt>
      <trkpt lat="41.07746444642543792724609375" lon="-1.3983195461332798004150390625">
        <ele>783.20001220703125</ele>
        <time>2022-05-02T12:08:50.000Z</time>
      </trkpt>
      <trkpt lat="41.077396385371685028076171875" lon="-1.39827168546617031097412109375">
        <ele>783.5999755859375</ele>
        <time>2022-05-02T12:08:52.000Z</time>
      </trkpt>
      <trkpt lat="41.07733628712594509124755859375" lon="-1.398222148418426513671875">
        <ele>784.20001220703125</ele>
        <time>2022-05-02T12:08:54.000Z</time>
      </trkpt>
      <trkpt lat="41.07729370705783367156982421875" lon="-1.39815785922110080718994140625">
        <ele>784.5999755859375</ele>
        <time>2022-05-02T12:08:56.000Z</time>
      </trkpt>
      <trkpt lat="41.07726939953863620758056640625" lon="-1.398084349930286407470703125">
        <ele>784.20001220703125</ele>
        <time>2022-05-02T12:08:58.000Z</time>
      </trkpt>
      <trkpt lat="41.0772611014544963836669921875" lon="-1.397988796234130859375">
        <ele>783.5999755859375</ele>
        <time>2022-05-02T12:09:00.000Z</time>
      </trkpt>
      <trkpt lat="41.07726084999740123748779296875" lon="-1.39793607406318187713623046875">
        <ele>783.4000244140625</ele>
        <time>2022-05-02T12:09:01.000Z</time>
      </trkpt>
      <trkpt lat="41.0772614367306232452392578125" lon="-1.39788159169256687164306640625">
        <ele>783.20001220703125</ele>
        <time>2022-05-02T12:09:02.000Z</time>
      </trkpt>
      <trkpt lat="41.0772621072828769683837890625" lon="-1.39776994474232196807861328125">
        <ele>782</ele>
        <time>2022-05-02T12:09:04.000Z</time>
      </trkpt>
      <trkpt lat="41.07724576257169246673583984375" lon="-1.39766198582947254180908203125">
        <ele>781.4000244140625</ele>
        <time>2022-05-02T12:09:06.000Z</time>
      </trkpt>
      <trkpt lat="41.07723377645015716552734375" lon="-1.397610604763031005859375">
        <ele>781</ele>
        <time>2022-05-02T12:09:07.000Z</time>
      </trkpt>
      <trkpt lat="41.07722145505249500274658203125" lon="-1.3975618220865726470947265625">
        <ele>780.79998779296875</ele>
        <time>2022-05-02T12:09:08.000Z</time>
      </trkpt>
      <trkpt lat="41.0771963931620121002197265625" lon="-1.39747473411262035369873046875">
        <ele>780.4000244140625</ele>
        <time>2022-05-02T12:09:10.000Z</time>
      </trkpt>
      <trkpt lat="41.07717585749924182891845703125" lon="-1.39740600250661373138427734375">
        <ele>780.20001220703125</ele>
        <time>2022-05-02T12:09:12.000Z</time>
      </trkpt>
      <trkpt lat="41.07716429047286510467529296875" lon="-1.39737364836037158966064453125">
        <ele>780.20001220703125</ele>
        <time>2022-05-02T12:09:13.000Z</time>
      </trkpt>
      <trkpt lat="41.0771534778177738189697265625" lon="-1.39734171330928802490234375">
        <ele>780.20001220703125</ele>
        <time>2022-05-02T12:09:14.000Z</time>
      </trkpt>
      <trkpt lat="41.0771370492875576019287109375" lon="-1.39727809466421604156494140625">
        <ele>780</ele>
        <time>2022-05-02T12:09:16.000Z</time>
      </trkpt>
      <trkpt lat="41.07711902819573879241943359375" lon="-1.39720198698341846466064453125">
        <ele>780</ele>
        <time>2022-05-02T12:09:18.000Z</time>
      </trkpt>
      <trkpt lat="41.0771035216748714447021484375" lon="-1.3970977999269962310791015625">
        <ele>780.4000244140625</ele>
        <time>2022-05-02T12:09:20.000Z</time>
      </trkpt>
      <trkpt lat="41.0770817287266254425048828125" lon="-1.39696997590363025665283203125">
        <ele>781</ele>
        <time>2022-05-02T12:09:22.000Z</time>
      </trkpt>
      <trkpt lat="41.0770545713603496551513671875" lon="-1.3968312554061412811279296875">
        <ele>781.4000244140625</ele>
        <time>2022-05-02T12:09:24.000Z</time>
      </trkpt>
      <trkpt lat="41.077028252184391021728515625" lon="-1.39669957570731639862060546875">
        <ele>781.5999755859375</ele>
        <time>2022-05-02T12:09:26.000Z</time>
      </trkpt>
      <trkpt lat="41.07702330686151981353759765625" lon="-1.39663386158645153045654296875">
        <ele>781.79998779296875</ele>
        <time>2022-05-02T12:09:27.000Z</time>
      </trkpt>
      <trkpt lat="41.07703034766018390655517578125" lon="-1.3965704105794429779052734375">
        <ele>782</ele>
        <time>2022-05-02T12:09:28.000Z</time>
      </trkpt>
      <trkpt lat="41.07706211507320404052734375" lon="-1.39645381830632686614990234375">
        <ele>782.20001220703125</ele>
        <time>2022-05-02T12:09:30.000Z</time>
      </trkpt>
      <trkpt lat="41.0770971514284610748291015625" lon="-1.3963424228131771087646484375">
        <ele>782</ele>
        <time>2022-05-02T12:09:32.000Z</time>
      </trkpt>
      <trkpt lat="41.07712690718472003936767578125" lon="-1.3962445221841335296630859375">
        <ele>781.20001220703125</ele>
        <time>2022-05-02T12:09:34.000Z</time>
      </trkpt>
      <trkpt lat="41.0771405696868896484375" lon="-1.39616296626627445220947265625">
        <ele>780.5999755859375</ele>
        <time>2022-05-02T12:09:36.000Z</time>
      </trkpt>
      <trkpt lat="41.07713428325951099395751953125" lon="-1.39608836732804775238037109375">
        <ele>780.4000244140625</ele>
        <time>2022-05-02T12:09:38.000Z</time>
      </trkpt>
      <trkpt lat="41.07711953110992908477783203125" lon="-1.396017037332057952880859375">
        <ele>780.4000244140625</ele>
        <time>2022-05-02T12:09:40.000Z</time>
      </trkpt>
      <trkpt lat="41.077112071216106414794921875" lon="-1.3959784805774688720703125">
        <ele>780.4000244140625</ele>
        <time>2022-05-02T12:09:41.000Z</time>
      </trkpt>
      <trkpt lat="41.077103354036808013916015625" lon="-1.395936906337738037109375">
        <ele>780.4000244140625</ele>
        <time>2022-05-02T12:09:42.000Z</time>
      </trkpt>
      <trkpt lat="41.07708700932562351226806640625" lon="-1.39584277756512165069580078125">
        <ele>780.4000244140625</ele>
        <time>2022-05-02T12:09:44.000Z</time>
      </trkpt>
      <trkpt lat="41.07706353999674320220947265625" lon="-1.39573666267096996307373046875">
        <ele>780.79998779296875</ele>
        <time>2022-05-02T12:09:46.000Z</time>
      </trkpt>
      <trkpt lat="41.0770560801029205322265625" lon="-1.39569508843123912811279296875">
        <ele>780.79998779296875</ele>
        <time>2022-05-02T12:09:47.000Z</time>
      </trkpt>
      <trkpt lat="41.07705348171293735504150390625" lon="-1.39566491357982158660888671875">
        <ele>781</ele>
        <time>2022-05-02T12:09:48.000Z</time>
      </trkpt>
      <trkpt lat="41.0770528949797153472900390625" lon="-1.39563658274710178375244140625">
        <ele>781</ele>
        <time>2022-05-02T12:09:50.000Z</time>
      </trkpt>
      <trkpt lat="41.07704945839941501617431640625" lon="-1.39563926495611667633056640625">
        <ele>781</ele>
        <time>2022-05-02T12:09:51.000Z</time>
      </trkpt>
      <trkpt lat="41.077022887766361236572265625" lon="-1.39560163021087646484375">
        <ele>781.4000244140625</ele>
        <time>2022-05-02T12:10:24.000Z</time>
      </trkpt>
      <trkpt lat="41.0770158469676971435546875" lon="-1.395585201680660247802734375">
        <ele>781.4000244140625</ele>
        <time>2022-05-02T12:10:25.000Z</time>
      </trkpt>
      <trkpt lat="41.077011488378047943115234375" lon="-1.3955669291317462921142578125">
        <ele>781.4000244140625</ele>
        <time>2022-05-02T12:10:26.000Z</time>
      </trkpt>
      <trkpt lat="41.07699782587587833404541015625" lon="-1.3955206610262393951416015625">
        <ele>781.4000244140625</ele>
        <time>2022-05-02T12:10:28.000Z</time>
      </trkpt>
      <trkpt lat="41.0769777931272983551025390625" lon="-1.3954633288085460662841796875">
        <ele>781.4000244140625</ele>
        <time>2022-05-02T12:10:30.000Z</time>
      </trkpt>
      <trkpt lat="41.07695071958005428314208984375" lon="-1.3954002968966960906982421875">
        <ele>781.4000244140625</ele>
        <time>2022-05-02T12:10:32.000Z</time>
      </trkpt>
      <trkpt lat="41.07691316865384578704833984375" lon="-1.395335085690021514892578125">
        <ele>781.4000244140625</ele>
        <time>2022-05-02T12:10:34.000Z</time>
      </trkpt>
      <trkpt lat="41.076874025166034698486328125" lon="-1.3952722214162349700927734375">
        <ele>781.4000244140625</ele>
        <time>2022-05-02T12:10:36.000Z</time>
      </trkpt>
      <trkpt lat="41.0768517293035984039306640625" lon="-1.3952447287738323211669921875">
        <ele>781.5999755859375</ele>
        <time>2022-05-02T12:10:37.000Z</time>
      </trkpt>
      <trkpt lat="41.07682951726019382476806640625" lon="-1.39521916396915912628173828125">
        <ele>781.79998779296875</ele>
        <time>2022-05-02T12:10:38.000Z</time>
      </trkpt>
      <trkpt lat="41.07678190805017948150634765625" lon="-1.3951713033020496368408203125">
        <ele>782</ele>
        <time>2022-05-02T12:10:40.000Z</time>
      </trkpt>
      <trkpt lat="41.0767223127186298370361328125" lon="-1.395137272775173187255859375">
        <ele>782.4000244140625</ele>
        <time>2022-05-02T12:10:42.000Z</time>
      </trkpt>
      <trkpt lat="41.07669037766754627227783203125" lon="-1.39512361027300357818603515625">
        <ele>782.5999755859375</ele>
        <time>2022-05-02T12:10:43.000Z</time>
      </trkpt>
      <trkpt lat="41.07665685005486011505126953125" lon="-1.3951143063604831695556640625">
        <ele>782.79998779296875</ele>
        <time>2022-05-02T12:10:44.000Z</time>
      </trkpt>
      <trkpt lat="41.07662248425185680389404296875" lon="-1.39510986395180225372314453125">
        <ele>783</ele>
        <time>2022-05-02T12:10:45.000Z</time>
      </trkpt>
      <trkpt lat="41.0765882022678852081298828125" lon="-1.39510701410472393035888671875">
        <ele>783.20001220703125</ele>
        <time>2022-05-02T12:10:46.000Z</time>
      </trkpt>
      <trkpt lat="41.07651955448091030120849609375" lon="-1.39510651119053363800048828125">
        <ele>783.5999755859375</ele>
        <time>2022-05-02T12:10:48.000Z</time>
      </trkpt>
      <trkpt lat="41.07648485340178012847900390625" lon="-1.3951055891811847686767578125">
        <ele>783.79998779296875</ele>
        <time>2022-05-02T12:10:49.000Z</time>
      </trkpt>
      <trkpt lat="41.0764493979513645172119140625" lon="-1.3951013982295989990234375">
        <ele>783.79998779296875</ele>
        <time>2022-05-02T12:10:50.000Z</time>
      </trkpt>
      <trkpt lat="41.076370775699615478515625" lon="-1.395072229206562042236328125">
        <ele>784</ele>
        <time>2022-05-02T12:10:52.000Z</time>
      </trkpt>
      <trkpt lat="41.07628402300179004669189453125" lon="-1.39500693418085575103759765625">
        <ele>784</ele>
        <time>2022-05-02T12:10:54.000Z</time>
      </trkpt>
      <trkpt lat="41.076198108494281768798828125" lon="-1.394927389919757843017578125">
        <ele>784.20001220703125</ele>
        <time>2022-05-02T12:10:56.000Z</time>
      </trkpt>
      <trkpt lat="41.0761231742799282073974609375" lon="-1.394863687455654144287109375">
        <ele>784.5999755859375</ele>
        <time>2022-05-02T12:10:58.000Z</time>
      </trkpt>
      <trkpt lat="41.076059639453887939453125" lon="-1.39481096528470516204833984375">
        <ele>785.4000244140625</ele>
        <time>2022-05-02T12:11:00.000Z</time>
      </trkpt>
      <trkpt lat="41.07600892893970012664794921875" lon="-1.39476503245532512664794921875">
        <ele>786.4000244140625</ele>
        <time>2022-05-02T12:11:02.000Z</time>
      </trkpt>
      <trkpt lat="41.07598545961081981658935546875" lon="-1.39473770745098590850830078125">
        <ele>786.79998779296875</ele>
        <time>2022-05-02T12:11:03.000Z</time>
      </trkpt>
      <trkpt lat="41.07596668414771556854248046875" lon="-1.39470786787569522857666015625">
        <ele>787.20001220703125</ele>
        <time>2022-05-02T12:11:04.000Z</time>
      </trkpt>
      <trkpt lat="41.07595159672200679779052734375" lon="-1.39467869885265827178955078125">
        <ele>787.4000244140625</ele>
        <time>2022-05-02T12:11:05.000Z</time>
      </trkpt>
      <trkpt lat="41.07594103552401065826416015625" lon="-1.3946506194770336151123046875">
        <ele>787.4000244140625</ele>
        <time>2022-05-02T12:11:06.000Z</time>
      </trkpt>
      <trkpt lat="41.0759206674993038177490234375" lon="-1.3946033455431461334228515625">
        <ele>787.5999755859375</ele>
        <time>2022-05-02T12:11:08.000Z</time>
      </trkpt>
      <trkpt lat="41.07590801082551479339599609375" lon="-1.3945758529007434844970703125">
        <ele>787.5999755859375</ele>
        <time>2022-05-02T12:11:09.000Z</time>
      </trkpt>
      <trkpt lat="41.075893007218837738037109375" lon="-1.39454693533480167388916015625">
        <ele>787.79998779296875</ele>
        <time>2022-05-02T12:11:10.000Z</time>
      </trkpt>
      <trkpt lat="41.07586392201483249664306640625" lon="-1.3945024274289608001708984375">
        <ele>788</ele>
        <time>2022-05-02T12:11:12.000Z</time>
      </trkpt>
      <trkpt lat="41.0758351720869541168212890625" lon="-1.39445775188505649566650390625">
        <ele>788.20001220703125</ele>
        <time>2022-05-02T12:11:14.000Z</time>
      </trkpt>
      <trkpt lat="41.07578898780047893524169921875" lon="-1.39441735111176967620849609375">
        <ele>788.4000244140625</ele>
        <time>2022-05-02T12:11:16.000Z</time>
      </trkpt>
      <trkpt lat="41.075728721916675567626953125" lon="-1.39440192840993404388427734375">
        <ele>789</ele>
        <time>2022-05-02T12:11:18.000Z</time>
      </trkpt>
      <trkpt lat="41.07567382045090198516845703125" lon="-1.3944120705127716064453125">
        <ele>789</ele>
        <time>2022-05-02T12:11:20.000Z</time>
      </trkpt>
      <trkpt lat="41.0756202600896358489990234375" lon="-1.39443017542362213134765625">
        <ele>789.20001220703125</ele>
        <time>2022-05-02T12:11:22.000Z</time>
      </trkpt>
      <trkpt lat="41.0755676217377185821533203125" lon="-1.394439227879047393798828125">
        <ele>789.20001220703125</ele>
        <time>2022-05-02T12:11:24.000Z</time>
      </trkpt>
      <trkpt lat="41.07551758177578449249267578125" lon="-1.39443344436585903167724609375">
        <ele>789.20001220703125</ele>
        <time>2022-05-02T12:11:26.000Z</time>
      </trkpt>
      <trkpt lat="41.07546561397612094879150390625" lon="-1.39442690648138523101806640625">
        <ele>789</ele>
        <time>2022-05-02T12:11:28.000Z</time>
      </trkpt>
      <trkpt lat="41.07540727593004703521728515625" lon="-1.39443076215684413909912109375">
        <ele>789.20001220703125</ele>
        <time>2022-05-02T12:11:30.000Z</time>
      </trkpt>
      <trkpt lat="41.07537768781185150146484375" lon="-1.3944353722035884857177734375">
        <ele>789.20001220703125</ele>
        <time>2022-05-02T12:11:31.000Z</time>
      </trkpt>
      <trkpt lat="41.075349189341068267822265625" lon="-1.394436545670032501220703125">
        <ele>789.20001220703125</ele>
        <time>2022-05-02T12:11:32.000Z</time>
      </trkpt>
      <trkpt lat="41.07529512606561183929443359375" lon="-1.39445037581026554107666015625">
        <ele>789.20001220703125</ele>
        <time>2022-05-02T12:11:34.000Z</time>
      </trkpt>
      <trkpt lat="41.07524064369499683380126953125" lon="-1.39446093700826168060302734375">
        <ele>789.4000244140625</ele>
        <time>2022-05-02T12:11:36.000Z</time>
      </trkpt>
      <trkpt lat="41.07518347911536693572998046875" lon="-1.3944776169955730438232421875">
        <ele>789.4000244140625</ele>
        <time>2022-05-02T12:11:38.000Z</time>
      </trkpt>
      <trkpt lat="41.07512346468865871429443359375" lon="-1.39448675327003002166748046875">
        <ele>789.4000244140625</ele>
        <time>2022-05-02T12:11:40.000Z</time>
      </trkpt>
      <trkpt lat="41.07505976222455501556396484375" lon="-1.3944963924586772918701171875">
        <ele>789.20001220703125</ele>
        <time>2022-05-02T12:11:42.000Z</time>
      </trkpt>
      <trkpt lat="41.07499949634075164794921875" lon="-1.39450267888605594635009765625">
        <ele>788.79998779296875</ele>
        <time>2022-05-02T12:11:44.000Z</time>
      </trkpt>
      <trkpt lat="41.07494182884693145751953125" lon="-1.394528411328792572021484375">
        <ele>788.5999755859375</ele>
        <time>2022-05-02T12:11:46.000Z</time>
      </trkpt>
      <trkpt lat="41.07488793320953845977783203125" lon="-1.3945825584232807159423828125">
        <ele>788.79998779296875</ele>
        <time>2022-05-02T12:11:48.000Z</time>
      </trkpt>
      <trkpt lat="41.0748611949384212493896484375" lon="-1.39461256563663482666015625">
        <ele>789</ele>
        <time>2022-05-02T12:11:49.000Z</time>
      </trkpt>
      <trkpt lat="41.0748333670198917388916015625" lon="-1.3946425728499889373779296875">
        <ele>789.20001220703125</ele>
        <time>2022-05-02T12:11:50.000Z</time>
      </trkpt>
      <trkpt lat="41.074797324836254119873046875" lon="-1.3946657069027423858642578125">
        <ele>789</ele>
        <time>2022-05-02T12:11:51.000Z</time>
      </trkpt>
      <trkpt lat="41.07474862597882747650146484375" lon="-1.39467651955783367156982421875">
        <ele>788.79998779296875</ele>
        <time>2022-05-02T12:11:52.000Z</time>
      </trkpt>
      <trkpt lat="41.074688695371150970458984375" lon="-1.39467693865299224853515625">
        <ele>788.4000244140625</ele>
        <time>2022-05-02T12:11:53.000Z</time>
      </trkpt>
      <trkpt lat="41.07462038286030292510986328125" lon="-1.3946636952459812164306640625">
        <ele>787.79998779296875</ele>
        <time>2022-05-02T12:11:54.000Z</time>
      </trkpt>
      <trkpt lat="41.07447646558284759521484375" lon="-1.394601166248321533203125">
        <ele>786.79998779296875</ele>
        <time>2022-05-02T12:11:56.000Z</time>
      </trkpt>
      <trkpt lat="41.074337325990200042724609375" lon="-1.394498236477375030517578125">
        <ele>787</ele>
        <time>2022-05-02T12:11:58.000Z</time>
      </trkpt>
      <trkpt lat="41.0742365755140781402587890625" lon="-1.39436890371143817901611328125">
        <ele>787.79998779296875</ele>
        <time>2022-05-02T12:12:00.000Z</time>
      </trkpt>
      <trkpt lat="41.07419877313077449798583984375" lon="-1.39431207440793514251708984375">
        <ele>788</ele>
        <time>2022-05-02T12:12:01.000Z</time>
      </trkpt>
      <trkpt lat="41.07416641898453235626220703125" lon="-1.39426253736019134521484375">
        <ele>788.20001220703125</ele>
        <time>2022-05-02T12:12:02.000Z</time>
      </trkpt>
      <trkpt lat="41.07412266544997692108154296875" lon="-1.3941922970116138458251953125">
        <ele>788.4000244140625</ele>
        <time>2022-05-02T12:12:04.000Z</time>
      </trkpt>
      <trkpt lat="41.074093915522098541259765625" lon="-1.39413488097488880157470703125">
        <ele>788.5999755859375</ele>
        <time>2022-05-02T12:12:06.000Z</time>
      </trkpt>
      <trkpt lat="41.07407824136316776275634765625" lon="-1.394103951752185821533203125">
        <ele>788.5999755859375</ele>
        <time>2022-05-02T12:12:07.000Z</time>
      </trkpt>
      <trkpt lat="41.07406399212777614593505859375" lon="-1.394073106348514556884765625">
        <ele>788.5999755859375</ele>
        <time>2022-05-02T12:12:08.000Z</time>
      </trkpt>
      <trkpt lat="41.07403582893311977386474609375" lon="-1.3940119184553623199462890625">
        <ele>788.79998779296875</ele>
        <time>2022-05-02T12:12:10.000Z</time>
      </trkpt>
      <trkpt lat="41.07400900684297084808349609375" lon="-1.39394938945770263671875">
        <ele>788.79998779296875</ele>
        <time>2022-05-02T12:12:12.000Z</time>
      </trkpt>
      <trkpt lat="41.0739847831428050994873046875" lon="-1.393891386687755584716796875">
        <ele>789</ele>
        <time>2022-05-02T12:12:14.000Z</time>
      </trkpt>
      <trkpt lat="41.07396324165165424346923828125" lon="-1.3938415981829166412353515625">
        <ele>789.20001220703125</ele>
        <time>2022-05-02T12:12:16.000Z</time>
      </trkpt>
      <trkpt lat="41.07393826358020305633544921875" lon="-1.3937993533909320831298828125">
        <ele>789.5999755859375</ele>
        <time>2022-05-02T12:12:18.000Z</time>
      </trkpt>
      <trkpt lat="41.0739261098206043243408203125" lon="-1.393778733909130096435546875">
        <ele>789.79998779296875</ele>
        <time>2022-05-02T12:12:19.000Z</time>
      </trkpt>
      <trkpt lat="41.07391512952744960784912109375" lon="-1.3937597908079624176025390625">
        <ele>790</ele>
        <time>2022-05-02T12:12:20.000Z</time>
      </trkpt>
      <trkpt lat="41.07388948090374469757080078125" lon="-1.3937118463218212127685546875">
        <ele>790</ele>
        <time>2022-05-02T12:12:22.000Z</time>
      </trkpt>
      <trkpt lat="41.07385628856718540191650390625" lon="-1.39366163872182369232177734375">
        <ele>790</ele>
        <time>2022-05-02T12:12:24.000Z</time>
      </trkpt>
      <trkpt lat="41.07384086586534976959228515625" lon="-1.39363464899361133575439453125">
        <ele>789.79998779296875</ele>
        <time>2022-05-02T12:12:25.000Z</time>
      </trkpt>
      <trkpt lat="41.0738248564302921295166015625" lon="-1.3936072401702404022216796875">
        <ele>789.79998779296875</ele>
        <time>2022-05-02T12:12:26.000Z</time>
      </trkpt>
      <trkpt lat="41.07379409484565258026123046875" lon="-1.3935485668480396270751953125">
        <ele>789.79998779296875</ele>
        <time>2022-05-02T12:12:28.000Z</time>
      </trkpt>
      <trkpt lat="41.073754616081714630126953125" lon="-1.39348201453685760498046875">
        <ele>789.5999755859375</ele>
        <time>2022-05-02T12:12:30.000Z</time>
      </trkpt>
      <trkpt lat="41.07371312566101551055908203125" lon="-1.39340884052217006683349609375">
        <ele>789.5999755859375</ele>
        <time>2022-05-02T12:12:32.000Z</time>
      </trkpt>
      <trkpt lat="41.07368144206702709197998046875" lon="-1.39334480278193950653076171875">
        <ele>789.4000244140625</ele>
        <time>2022-05-02T12:12:34.000Z</time>
      </trkpt>
      <trkpt lat="41.073646657168865203857421875" lon="-1.3932853750884532928466796875">
        <ele>789.4000244140625</ele>
        <time>2022-05-02T12:12:36.000Z</time>
      </trkpt>
      <trkpt lat="41.07362913899123668670654296875" lon="-1.393252350389957427978515625">
        <ele>789.4000244140625</ele>
        <time>2022-05-02T12:12:37.000Z</time>
      </trkpt>
      <trkpt lat="41.073610782623291015625" lon="-1.39321940951049327850341796875">
        <ele>789.20001220703125</ele>
        <time>2022-05-02T12:12:38.000Z</time>
      </trkpt>
      <trkpt lat="41.0735690407454967498779296875" lon="-1.39314581640064716339111328125">
        <ele>789.20001220703125</ele>
        <time>2022-05-02T12:12:40.000Z</time>
      </trkpt>
      <trkpt lat="41.07353291474282741546630859375" lon="-1.3930714689195156097412109375">
        <ele>789</ele>
        <time>2022-05-02T12:12:42.000Z</time>
      </trkpt>
      <trkpt lat="41.07349921949207782745361328125" lon="-1.3929970376193523406982421875">
        <ele>788.79998779296875</ele>
        <time>2022-05-02T12:12:44.000Z</time>
      </trkpt>
      <trkpt lat="41.0734852217137813568115234375" lon="-1.392959319055080413818359375">
        <ele>788.4000244140625</ele>
        <time>2022-05-02T12:12:45.000Z</time>
      </trkpt>
      <trkpt lat="41.07346770353615283966064453125" lon="-1.39292352832853794097900390625">
        <ele>788</ele>
        <time>2022-05-02T12:12:46.000Z</time>
      </trkpt>
      <trkpt lat="41.07342663221061229705810546875" lon="-1.3928746618330478668212890625">
        <ele>787.4000244140625</ele>
        <time>2022-05-02T12:12:48.000Z</time>
      </trkpt>
      <trkpt lat="41.0734014026820659637451171875" lon="-1.39286284334957599639892578125">
        <ele>787.20001220703125</ele>
        <time>2022-05-02T12:12:49.000Z</time>
      </trkpt>
      <trkpt lat="41.07337248511612415313720703125" lon="-1.3928592391312122344970703125">
        <ele>787</ele>
        <time>2022-05-02T12:12:50.000Z</time>
      </trkpt>
      <trkpt lat="41.07330501079559326171875" lon="-1.392891593277454376220703125">
        <ele>786.5999755859375</ele>
        <time>2022-05-02T12:12:52.000Z</time>
      </trkpt>
      <trkpt lat="41.0732642747461795806884765625" lon="-1.39292956329882144927978515625">
        <ele>786.5999755859375</ele>
        <time>2022-05-02T12:12:53.000Z</time>
      </trkpt>
      <trkpt lat="41.073222868144512176513671875" lon="-1.39297583140432834625244140625">
        <ele>786.5999755859375</ele>
        <time>2022-05-02T12:12:54.000Z</time>
      </trkpt>
      <trkpt lat="41.0731398873031139373779296875" lon="-1.39308211393654346466064453125">
        <ele>786.5999755859375</ele>
        <time>2022-05-02T12:12:56.000Z</time>
      </trkpt>
      <trkpt lat="41.07305514626204967498779296875" lon="-1.3931891508400440216064453125">
        <ele>786.4000244140625</ele>
        <time>2022-05-02T12:12:58.000Z</time>
      </trkpt>
      <trkpt lat="41.07301206327974796295166015625" lon="-1.3932401128113269805908203125">
        <ele>786.4000244140625</ele>
        <time>2022-05-02T12:12:59.000Z</time>
      </trkpt>
      <trkpt lat="41.072969399392604827880859375" lon="-1.3932882249355316162109375">
        <ele>786.20001220703125</ele>
        <time>2022-05-02T12:13:00.000Z</time>
      </trkpt>
      <trkpt lat="41.07292480766773223876953125" lon="-1.39332912862300872802734375">
        <ele>786</ele>
        <time>2022-05-02T12:13:01.000Z</time>
      </trkpt>
      <trkpt lat="41.0728783719241619110107421875" lon="-1.39336265623569488525390625">
        <ele>786</ele>
        <time>2022-05-02T12:13:02.000Z</time>
      </trkpt>
      <trkpt lat="41.0727851651608943939208984375" lon="-1.39340213499963283538818359375">
        <ele>785.4000244140625</ele>
        <time>2022-05-02T12:13:04.000Z</time>
      </trkpt>
      <trkpt lat="41.07269145548343658447265625" lon="-1.39340951107442378997802734375">
        <ele>784.4000244140625</ele>
        <time>2022-05-02T12:13:06.000Z</time>
      </trkpt>
      <trkpt lat="41.0725927166640758514404296875" lon="-1.39339123852550983428955078125">
        <ele>784.20001220703125</ele>
        <time>2022-05-02T12:13:08.000Z</time>
      </trkpt>
      <trkpt lat="41.07254368253052234649658203125" lon="-1.3933715410530567169189453125">
        <ele>784.20001220703125</ele>
        <time>2022-05-02T12:13:09.000Z</time>
      </trkpt>
      <trkpt lat="41.07249657623469829559326171875" lon="-1.39334329403936862945556640625">
        <ele>784</ele>
        <time>2022-05-02T12:13:10.000Z</time>
      </trkpt>
      <trkpt lat="41.0724078118801116943359375" lon="-1.39326986856758594512939453125">
        <ele>783.79998779296875</ele>
        <time>2022-05-02T12:13:12.000Z</time>
      </trkpt>
      <trkpt lat="41.0723166167736053466796875" lon="-1.39318739064037799835205078125">
        <ele>783</ele>
        <time>2022-05-02T12:13:14.000Z</time>
      </trkpt>
      <trkpt lat="41.07222248800098896026611328125" lon="-1.39310692436993122100830078125">
        <ele>782.79998779296875</ele>
        <time>2022-05-02T12:13:16.000Z</time>
      </trkpt>
      <trkpt lat="41.07212341390550136566162109375" lon="-1.393037103116512298583984375">
        <ele>783</ele>
        <time>2022-05-02T12:13:18.000Z</time>
      </trkpt>
      <trkpt lat="41.07202618382871150970458984375" lon="-1.39295554719865322113037109375">
        <ele>783</ele>
        <time>2022-05-02T12:13:20.000Z</time>
      </trkpt>
      <trkpt lat="41.0719862021505832672119140625" lon="-1.39290626160800457000732421875">
        <ele>783</ele>
        <time>2022-05-02T12:13:21.000Z</time>
      </trkpt>
      <trkpt lat="41.07195577584207057952880859375" lon="-1.3928555510938167572021484375">
        <ele>783</ele>
        <time>2022-05-02T12:13:22.000Z</time>
      </trkpt>
      <trkpt lat="41.071913279592990875244140625" lon="-1.39276854693889617919921875">
        <ele>783.4000244140625</ele>
        <time>2022-05-02T12:13:24.000Z</time>
      </trkpt>
      <trkpt lat="41.0718956775963306427001953125" lon="-1.39273024164140224456787109375">
        <ele>783.5999755859375</ele>
        <time>2022-05-02T12:13:25.000Z</time>
      </trkpt>
      <trkpt lat="41.07187866233289241790771484375" lon="-1.3926902599632740020751953125">
        <ele>783.79998779296875</ele>
        <time>2022-05-02T12:13:26.000Z</time>
      </trkpt>
      <trkpt lat="41.07185326516628265380859375" lon="-1.39260853640735149383544921875">
        <ele>784.4000244140625</ele>
        <time>2022-05-02T12:13:28.000Z</time>
      </trkpt>
      <trkpt lat="41.07183474116027355194091796875" lon="-1.39251868240535259246826171875">
        <ele>784.79998779296875</ele>
        <time>2022-05-02T12:13:30.000Z</time>
      </trkpt>
      <trkpt lat="41.07182702980935573577880859375" lon="-1.39247107319533824920654296875">
        <ele>785</ele>
        <time>2022-05-02T12:13:31.000Z</time>
      </trkpt>
      <trkpt lat="41.0718209110200405120849609375" lon="-1.3924206979572772979736328125">
        <ele>785.20001220703125</ele>
        <time>2022-05-02T12:13:32.000Z</time>
      </trkpt>
      <trkpt lat="41.07182166539132595062255859375" lon="-1.3923181034624576568603515625">
        <ele>785.5999755859375</ele>
        <time>2022-05-02T12:13:34.000Z</time>
      </trkpt>
      <trkpt lat="41.07182644307613372802734375" lon="-1.39222917146980762481689453125">
        <ele>785.79998779296875</ele>
        <time>2022-05-02T12:13:36.000Z</time>
      </trkpt>
      <trkpt lat="41.07182753272354602813720703125" lon="-1.3921900279819965362548828125">
        <ele>786</ele>
        <time>2022-05-02T12:13:37.000Z</time>
      </trkpt>
      <trkpt lat="41.0718311369419097900390625" lon="-1.392152309417724609375">
        <ele>786</ele>
        <time>2022-05-02T12:13:38.000Z</time>
      </trkpt>
      <trkpt lat="41.0718391835689544677734375" lon="-1.3920803926885128021240234375">
        <ele>786</ele>
        <time>2022-05-02T12:13:40.000Z</time>
      </trkpt>
      <trkpt lat="41.0718472301959991455078125" lon="-1.392015181481838226318359375">
        <ele>786</ele>
        <time>2022-05-02T12:13:42.000Z</time>
      </trkpt>
      <trkpt lat="41.0718484036624431610107421875" lon="-1.39198207296431064605712890625">
        <ele>786</ele>
        <time>2022-05-02T12:13:43.000Z</time>
      </trkpt>
      <trkpt lat="41.071848571300506591796875" lon="-1.3919499702751636505126953125">
        <ele>786</ele>
        <time>2022-05-02T12:13:44.000Z</time>
      </trkpt>
      <trkpt lat="41.07184815220534801483154296875" lon="-1.39188232831656932830810546875">
        <ele>785.79998779296875</ele>
        <time>2022-05-02T12:13:46.000Z</time>
      </trkpt>
      <trkpt lat="41.07184228487312793731689453125" lon="-1.39179951511323451995849609375">
        <ele>785.5999755859375</ele>
        <time>2022-05-02T12:13:48.000Z</time>
      </trkpt>
      <trkpt lat="41.07183490879833698272705078125" lon="-1.39174930751323699951171875">
        <ele>785.4000244140625</ele>
        <time>2022-05-02T12:13:49.000Z</time>
      </trkpt>
      <trkpt lat="41.071822755038738250732421875" lon="-1.3916944898664951324462890625">
        <ele>785.20001220703125</ele>
        <time>2022-05-02T12:13:50.000Z</time>
      </trkpt>
      <trkpt lat="41.07179132290184497833251953125" lon="-1.3915788196027278900146484375">
        <ele>785.20001220703125</ele>
        <time>2022-05-02T12:13:52.000Z</time>
      </trkpt>
      <trkpt lat="41.07175209559500217437744140625" lon="-1.39145200140774250030517578125">
        <ele>785.4000244140625</ele>
        <time>2022-05-02T12:13:54.000Z</time>
      </trkpt>
      <trkpt lat="41.0717163048684597015380859375" lon="-1.39131554402410984039306640625">
        <ele>785.20001220703125</ele>
        <time>2022-05-02T12:13:56.000Z</time>
      </trkpt>
      <trkpt lat="41.0716998763382434844970703125" lon="-1.39124530367553234100341796875">
        <ele>785</ele>
        <time>2022-05-02T12:13:57.000Z</time>
      </trkpt>
      <trkpt lat="41.07168428599834442138671875" lon="-1.3911758176982402801513671875">
        <ele>784.5999755859375</ele>
        <time>2022-05-02T12:13:58.000Z</time>
      </trkpt>
      <trkpt lat="41.0716519318521022796630859375" lon="-1.3910410366952419281005859375">
        <ele>783.5999755859375</ele>
        <time>2022-05-02T12:14:00.000Z</time>
      </trkpt>
      <trkpt lat="41.07160792686045169830322265625" lon="-1.39091371558606624603271484375">
        <ele>783.5999755859375</ele>
        <time>2022-05-02T12:14:02.000Z</time>
      </trkpt>
      <trkpt lat="41.07155277393758296966552734375" lon="-1.3907993026077747344970703125">
        <ele>783.79998779296875</ele>
        <time>2022-05-02T12:14:04.000Z</time>
      </trkpt>
      <trkpt lat="41.0715218447148799896240234375" lon="-1.3907454907894134521484375">
        <ele>783.79998779296875</ele>
        <time>2022-05-02T12:14:05.000Z</time>
      </trkpt>
      <trkpt lat="41.07148722745478153228759765625" lon="-1.3906943611800670623779296875">
        <ele>783.5999755859375</ele>
        <time>2022-05-02T12:14:06.000Z</time>
      </trkpt>
      <trkpt lat="41.0714215971529483795166015625" lon="-1.39059084467589855194091796875">
        <ele>784</ele>
        <time>2022-05-02T12:14:08.000Z</time>
      </trkpt>
      <trkpt lat="41.07139569707214832305908203125" lon="-1.39053703285753726959228515625">
        <ele>784.4000244140625</ele>
        <time>2022-05-02T12:14:09.000Z</time>
      </trkpt>
      <trkpt lat="41.07137323357164859771728515625" lon="-1.39048062264919281005859375">
        <ele>784.20001220703125</ele>
        <time>2022-05-02T12:14:10.000Z</time>
      </trkpt>
      <trkpt lat="41.0713340900838375091552734375" lon="-1.39036201871931552886962890625">
        <ele>783.79998779296875</ele>
        <time>2022-05-02T12:14:12.000Z</time>
      </trkpt>
      <trkpt lat="41.07127985917031764984130859375" lon="-1.3902501203119754791259765625">
        <ele>783.79998779296875</ele>
        <time>2022-05-02T12:14:14.000Z</time>
      </trkpt>
      <trkpt lat="41.07124968431890010833740234375" lon="-1.390198655426502227783203125">
        <ele>783.79998779296875</ele>
        <time>2022-05-02T12:14:15.000Z</time>
      </trkpt>
      <trkpt lat="41.0712170787155628204345703125" lon="-1.3901527225971221923828125">
        <ele>784</ele>
        <time>2022-05-02T12:14:16.000Z</time>
      </trkpt>
      <trkpt lat="41.07115991413593292236328125" lon="-1.3900613598525524139404296875">
        <ele>784</ele>
        <time>2022-05-02T12:14:18.000Z</time>
      </trkpt>
      <trkpt lat="41.07113887555897235870361328125" lon="-1.39001131989061832427978515625">
        <ele>784.20001220703125</ele>
        <time>2022-05-02T12:14:19.000Z</time>
      </trkpt>
      <trkpt lat="41.07112412340939044952392578125" lon="-1.3899570889770984649658203125">
        <ele>784</ele>
        <time>2022-05-02T12:14:20.000Z</time>
      </trkpt>
      <trkpt lat="41.0711069405078887939453125" lon="-1.389841251075267791748046875">
        <ele>783.20001220703125</ele>
        <time>2022-05-02T12:14:22.000Z</time>
      </trkpt>
      <trkpt lat="41.0710997320711612701416015625" lon="-1.38978098519146442413330078125">
        <ele>783</ele>
        <time>2022-05-02T12:14:23.000Z</time>
      </trkpt>
      <trkpt lat="41.0710886679589748382568359375" lon="-1.389721222221851348876953125">
        <ele>782.79998779296875</ele>
        <time>2022-05-02T12:14:24.000Z</time>
      </trkpt>
      <trkpt lat="41.0710477642714977264404296875" lon="-1.38961334712803363800048828125">
        <ele>783</ele>
        <time>2022-05-02T12:14:26.000Z</time>
      </trkpt>
      <trkpt lat="41.07098699547350406646728515625" lon="-1.38953204266726970672607421875">
        <ele>783.4000244140625</ele>
        <time>2022-05-02T12:14:28.000Z</time>
      </trkpt>
      <trkpt lat="41.0709109716117382049560546875" lon="-1.38947186060249805450439453125">
        <ele>783.5999755859375</ele>
        <time>2022-05-02T12:14:30.000Z</time>
      </trkpt>
      <trkpt lat="41.07082086615264415740966796875" lon="-1.38943883590400218963623046875">
        <ele>784.5999755859375</ele>
        <time>2022-05-02T12:14:32.000Z</time>
      </trkpt>
      <trkpt lat="41.07077367603778839111328125" lon="-1.3894320465624332427978515625">
        <ele>785.20001220703125</ele>
        <time>2022-05-02T12:14:33.000Z</time>
      </trkpt>
      <trkpt lat="41.07072665356099605560302734375" lon="-1.389435566961765289306640625">
        <ele>786</ele>
        <time>2022-05-02T12:14:34.000Z</time>
      </trkpt>
      <trkpt lat="41.0706310160458087921142578125" lon="-1.3894679211080074310302734375">
        <ele>787</ele>
        <time>2022-05-02T12:14:36.000Z</time>
      </trkpt>
      <trkpt lat="41.0705852508544921875" lon="-1.3894923962652683258056640625">
        <ele>787.4000244140625</ele>
        <time>2022-05-02T12:14:37.000Z</time>
      </trkpt>
      <trkpt lat="41.07053956948220729827880859375" lon="-1.389517374336719512939453125">
        <ele>788</ele>
        <time>2022-05-02T12:14:38.000Z</time>
      </trkpt>
      <trkpt lat="41.07044585980474948883056640625" lon="-1.38954394496977329254150390625">
        <ele>788.79998779296875</ele>
        <time>2022-05-02T12:14:40.000Z</time>
      </trkpt>
      <trkpt lat="41.0703639686107635498046875" lon="-1.3895197212696075439453125">
        <ele>789</ele>
        <time>2022-05-02T12:14:42.000Z</time>
      </trkpt>
      <trkpt lat="41.07033337466418743133544921875" lon="-1.38948745094239711761474609375">
        <ele>788.79998779296875</ele>
        <time>2022-05-02T12:14:43.000Z</time>
      </trkpt>
      <trkpt lat="41.07031174935400485992431640625" lon="-1.38944202102720737457275390625">
        <ele>788.4000244140625</ele>
        <time>2022-05-02T12:14:44.000Z</time>
      </trkpt>
      <trkpt lat="41.07029758393764495849609375" lon="-1.38938887976109981536865234375">
        <ele>787.5999755859375</ele>
        <time>2022-05-02T12:14:45.000Z</time>
      </trkpt>
      <trkpt lat="41.07028727419674396514892578125" lon="-1.38933456502854824066162109375">
        <ele>786.79998779296875</ele>
        <time>2022-05-02T12:14:46.000Z</time>
      </trkpt>
      <trkpt lat="41.07028006576001644134521484375" lon="-1.38922995887696743011474609375">
        <ele>785.79998779296875</ele>
        <time>2022-05-02T12:14:48.000Z</time>
      </trkpt>
      <trkpt lat="41.0702642239630222320556640625" lon="-1.38912853784859180450439453125">
        <ele>785.20001220703125</ele>
        <time>2022-05-02T12:14:50.000Z</time>
      </trkpt>
      <trkpt lat="41.07024922035634517669677734375" lon="-1.38908143155276775360107421875">
        <ele>784.5999755859375</ele>
        <time>2022-05-02T12:14:51.000Z</time>
      </trkpt>
      <trkpt lat="41.0702323727309703826904296875" lon="-1.38903248123824596405029296875">
        <ele>784</ele>
        <time>2022-05-02T12:14:52.000Z</time>
      </trkpt>
      <trkpt lat="41.0701985098421573638916015625" lon="-1.38892686925828456878662109375">
        <ele>783.4000244140625</ele>
        <time>2022-05-02T12:14:54.000Z</time>
      </trkpt>
      <trkpt lat="41.07014360837638378143310546875" lon="-1.388819999992847442626953125">
        <ele>782.79998779296875</ele>
        <time>2022-05-02T12:14:56.000Z</time>
      </trkpt>
      <trkpt lat="41.07008124701678752899169921875" lon="-1.3887152262032032012939453125">
        <ele>782.79998779296875</ele>
        <time>2022-05-02T12:14:58.000Z</time>
      </trkpt>
      <trkpt lat="41.070019640028476715087890625" lon="-1.38862143270671367645263671875">
        <ele>783.20001220703125</ele>
        <time>2022-05-02T12:15:00.000Z</time>
      </trkpt>
      <trkpt lat="41.06996390037238597869873046875" lon="-1.38853375799953937530517578125">
        <ele>783.79998779296875</ele>
        <time>2022-05-02T12:15:02.000Z</time>
      </trkpt>
      <trkpt lat="41.0699359886348247528076171875" lon="-1.38848966918885707855224609375">
        <ele>784.20001220703125</ele>
        <time>2022-05-02T12:15:03.000Z</time>
      </trkpt>
      <trkpt lat="41.0699088312685489654541015625" lon="-1.388444490730762481689453125">
        <ele>784.79998779296875</ele>
        <time>2022-05-02T12:15:04.000Z</time>
      </trkpt>
      <trkpt lat="41.06985577382147312164306640625" lon="-1.3883517868816852569580078125">
        <ele>785.5999755859375</ele>
        <time>2022-05-02T12:15:06.000Z</time>
      </trkpt>
      <trkpt lat="41.0697995312511920928955078125" lon="-1.38826352544128894805908203125">
        <ele>786</ele>
        <time>2022-05-02T12:15:08.000Z</time>
      </trkpt>
      <trkpt lat="41.06973423622548580169677734375" lon="-1.38819999061524868011474609375">
        <ele>786.79998779296875</ele>
        <time>2022-05-02T12:15:10.000Z</time>
      </trkpt>
      <trkpt lat="41.06969635002315044403076171875" lon="-1.388178281486034393310546875">
        <ele>787.20001220703125</ele>
        <time>2022-05-02T12:15:11.000Z</time>
      </trkpt>
      <trkpt lat="41.0696543566882610321044921875" lon="-1.38816193677484989166259765625">
        <ele>787.79998779296875</ele>
        <time>2022-05-02T12:15:12.000Z</time>
      </trkpt>
      <trkpt lat="41.069563329219818115234375" lon="-1.3881402276456356048583984375">
        <ele>788.79998779296875</ele>
        <time>2022-05-02T12:15:14.000Z</time>
      </trkpt>
      <trkpt lat="41.06951680965721607208251953125" lon="-1.38813209719955921173095703125">
        <ele>789</ele>
        <time>2022-05-02T12:15:15.000Z</time>
      </trkpt>
      <trkpt lat="41.0694716311991214752197265625" lon="-1.38811533339321613311767578125">
        <ele>789.20001220703125</ele>
        <time>2022-05-02T12:15:16.000Z</time>
      </trkpt>
      <trkpt lat="41.06939124874770641326904296875" lon="-1.388057582080364227294921875">
        <ele>789.5999755859375</ele>
        <time>2022-05-02T12:15:18.000Z</time>
      </trkpt>
      <trkpt lat="41.06935906223952770233154296875" lon="-1.388018690049648284912109375">
        <ele>789.5999755859375</ele>
        <time>2022-05-02T12:15:19.000Z</time>
      </trkpt>
      <trkpt lat="41.06933140195906162261962890625" lon="-1.3879787921905517578125">
        <ele>789.5999755859375</ele>
        <time>2022-05-02T12:15:20.000Z</time>
      </trkpt>
      <trkpt lat="41.0692791827023029327392578125" lon="-1.3879130780696868896484375">
        <ele>789</ele>
        <time>2022-05-02T12:15:22.000Z</time>
      </trkpt>
      <trkpt lat="41.069222353398799896240234375" lon="-1.38786035589873790740966796875">
        <ele>788.4000244140625</ele>
        <time>2022-05-02T12:15:24.000Z</time>
      </trkpt>
      <trkpt lat="41.06919041834771633148193359375" lon="-1.3878391496837139129638671875">
        <ele>788</ele>
        <time>2022-05-02T12:15:25.000Z</time>
      </trkpt>
      <trkpt lat="41.0691551305353641510009765625" lon="-1.38782666064798831939697265625">
        <ele>787.5999755859375</ele>
        <time>2022-05-02T12:15:26.000Z</time>
      </trkpt>
      <trkpt lat="41.06908145360648632049560546875" lon="-1.38783118687570095062255859375">
        <ele>787.20001220703125</ele>
        <time>2022-05-02T12:15:28.000Z</time>
      </trkpt>
      <trkpt lat="41.06904574669897556304931640625" lon="-1.3878471963107585906982421875">
        <ele>787</ele>
        <time>2022-05-02T12:15:29.000Z</time>
      </trkpt>
      <trkpt lat="41.0690121352672576904296875" lon="-1.38786622323095798492431640625">
        <ele>787.20001220703125</ele>
        <time>2022-05-02T12:15:30.000Z</time>
      </trkpt>
      <trkpt lat="41.068946421146392822265625" lon="-1.38790964148938655853271484375">
        <ele>787.4000244140625</ele>
        <time>2022-05-02T12:15:32.000Z</time>
      </trkpt>
      <trkpt lat="41.068886406719684600830078125" lon="-1.38795758597552776336669921875">
        <ele>787.79998779296875</ele>
        <time>2022-05-02T12:15:34.000Z</time>
      </trkpt>
      <trkpt lat="41.06882748194038867950439453125" lon="-1.38800016604363918304443359375">
        <ele>788</ele>
        <time>2022-05-02T12:15:36.000Z</time>
      </trkpt>
      <trkpt lat="41.06879697181284427642822265625" lon="-1.388021372258663177490234375">
        <ele>788</ele>
        <time>2022-05-02T12:15:37.000Z</time>
      </trkpt>
      <trkpt lat="41.068767718970775604248046875" lon="-1.3880443386733531951904296875">
        <ele>788.4000244140625</ele>
        <time>2022-05-02T12:15:38.000Z</time>
      </trkpt>
      <trkpt lat="41.06873628683388233184814453125" lon="-1.388061940670013427734375">
        <ele>789</ele>
        <time>2022-05-02T12:15:39.000Z</time>
      </trkpt>
      <trkpt lat="41.0687041841447353363037109375" lon="-1.38807426206767559051513671875">
        <ele>789.4000244140625</ele>
        <time>2022-05-02T12:15:40.000Z</time>
      </trkpt>
      <trkpt lat="41.06864408589899539947509765625" lon="-1.38808717019855976104736328125">
        <ele>790.20001220703125</ele>
        <time>2022-05-02T12:15:42.000Z</time>
      </trkpt>
      <trkpt lat="41.0686136595904827117919921875" lon="-1.388083398342132568359375">
        <ele>790.5999755859375</ele>
        <time>2022-05-02T12:15:43.000Z</time>
      </trkpt>
      <trkpt lat="41.0685844905674457550048828125" lon="-1.38807334005832672119140625">
        <ele>790.5999755859375</ele>
        <time>2022-05-02T12:15:44.000Z</time>
      </trkpt>
      <trkpt lat="41.0685253143310546875" lon="-1.38804115355014801025390625">
        <ele>790.79998779296875</ele>
        <time>2022-05-02T12:15:46.000Z</time>
      </trkpt>
      <trkpt lat="41.0684701614081859588623046875" lon="-1.3879833184182643890380859375">
        <ele>790.79998779296875</ele>
        <time>2022-05-02T12:15:48.000Z</time>
      </trkpt>
      <trkpt lat="41.068446524441242218017578125" lon="-1.38794970698654651641845703125">
        <ele>790.5999755859375</ele>
        <time>2022-05-02T12:15:49.000Z</time>
      </trkpt>
      <trkpt lat="41.068428419530391693115234375" lon="-1.3879130780696868896484375">
        <ele>790.4000244140625</ele>
        <time>2022-05-02T12:15:50.000Z</time>
      </trkpt>
      <trkpt lat="41.068407632410526275634765625" lon="-1.38783319853246212005615234375">
        <ele>789.79998779296875</ele>
        <time>2022-05-02T12:15:52.000Z</time>
      </trkpt>
      <trkpt lat="41.06840218417346477508544921875" lon="-1.38779413886368274688720703125">
        <ele>789.79998779296875</ele>
        <time>2022-05-02T12:15:53.000Z</time>
      </trkpt>
      <trkpt lat="41.068398244678974151611328125" lon="-1.3877590186893939971923828125">
        <ele>789.79998779296875</ele>
        <time>2022-05-02T12:15:54.000Z</time>
      </trkpt>
      <trkpt lat="41.06839455664157867431640625" lon="-1.38768819160759449005126953125">
        <ele>789.79998779296875</ele>
        <time>2022-05-02T12:15:56.000Z</time>
      </trkpt>
      <trkpt lat="41.068399585783481597900390625" lon="-1.38761593960225582122802734375">
        <ele>789.5999755859375</ele>
        <time>2022-05-02T12:15:58.000Z</time>
      </trkpt>
      <trkpt lat="41.06840101070702075958251953125" lon="-1.38758610002696514129638671875">
        <ele>789.5999755859375</ele>
        <time>2022-05-02T12:15:59.000Z</time>
      </trkpt>
      <trkpt lat="41.0683964006602764129638671875" lon="-1.38755567371845245361328125">
        <ele>789.79998779296875</ele>
        <time>2022-05-02T12:16:00.000Z</time>
      </trkpt>
      <trkpt lat="41.06838776730000972747802734375" lon="-1.38749264180660247802734375">
        <ele>790.20001220703125</ele>
        <time>2022-05-02T12:16:02.000Z</time>
      </trkpt>
      <trkpt lat="41.06838248670101165771484375" lon="-1.38742902316153049468994140625">
        <ele>790.4000244140625</ele>
        <time>2022-05-02T12:16:04.000Z</time>
      </trkpt>
      <trkpt lat="41.068377457559108734130859375" lon="-1.38740144670009613037109375">
        <ele>790.4000244140625</ele>
        <time>2022-05-02T12:16:05.000Z</time>
      </trkpt>
      <trkpt lat="41.06837318278849124908447265625" lon="-1.387374289333820343017578125">
        <ele>790.5999755859375</ele>
        <time>2022-05-02T12:16:06.000Z</time>
      </trkpt>
      <trkpt lat="41.06836102902889251708984375" lon="-1.387317962944507598876953125">
        <ele>790.79998779296875</ele>
        <time>2022-05-02T12:16:08.000Z</time>
      </trkpt>
      <trkpt lat="41.0683544911444187164306640625" lon="-1.3872919790446758270263671875">
        <ele>791</ele>
        <time>2022-05-02T12:16:09.000Z</time>
      </trkpt>
      <trkpt lat="41.0683454386889934539794921875" lon="-1.3872691802680492401123046875">
        <ele>791.20001220703125</ele>
        <time>2022-05-02T12:16:10.000Z</time>
      </trkpt>
      <trkpt lat="41.06832574121654033660888671875" lon="-1.38722307980060577392578125">
        <ele>791.5999755859375</ele>
        <time>2022-05-02T12:16:12.000Z</time>
      </trkpt>
      <trkpt lat="41.068307720124721527099609375" lon="-1.38717790134251117706298828125">
        <ele>792</ele>
        <time>2022-05-02T12:16:14.000Z</time>
      </trkpt>
      <trkpt lat="41.0682986676692962646484375" lon="-1.38715342618525028228759765625">
        <ele>792</ele>
        <time>2022-05-02T12:16:15.000Z</time>
      </trkpt>
      <trkpt lat="41.0682894475758075714111328125" lon="-1.38712760992348194122314453125">
        <ele>792.20001220703125</ele>
        <time>2022-05-02T12:16:16.000Z</time>
      </trkpt>
      <trkpt lat="41.0682669840753078460693359375" lon="-1.3870780728757381439208984375">
        <ele>792.4000244140625</ele>
        <time>2022-05-02T12:16:18.000Z</time>
      </trkpt>
      <trkpt lat="41.06825835071504116058349609375" lon="-1.38705275952816009521484375">
        <ele>792.5999755859375</ele>
        <time>2022-05-02T12:16:19.000Z</time>
      </trkpt>
      <trkpt lat="41.06824678368866443634033203125" lon="-1.38703004457056522369384765625">
        <ele>792.79998779296875</ele>
        <time>2022-05-02T12:16:20.000Z</time>
      </trkpt>
      <trkpt lat="41.06822532601654529571533203125" lon="-1.38698813505470752716064453125">
        <ele>793</ele>
        <time>2022-05-02T12:16:22.000Z</time>
      </trkpt>
      <trkpt lat="41.068203784525394439697265625" lon="-1.38695142231881618499755859375">
        <ele>793.4000244140625</ele>
        <time>2022-05-02T12:16:24.000Z</time>
      </trkpt>
      <trkpt lat="41.0681927204132080078125" lon="-1.3869313895702362060546875">
        <ele>793.4000244140625</ele>
        <time>2022-05-02T12:16:25.000Z</time>
      </trkpt>
      <trkpt lat="41.0681821592152118682861328125" lon="-1.386912278831005096435546875">
        <ele>793.5999755859375</ele>
        <time>2022-05-02T12:16:26.000Z</time>
      </trkpt>
      <trkpt lat="41.06816028244793415069580078125" lon="-1.386876739561557769775390625">
        <ele>793.5999755859375</ele>
        <time>2022-05-02T12:16:28.000Z</time>
      </trkpt>
      <trkpt lat="41.06814284808933734893798828125" lon="-1.386842541396617889404296875">
        <ele>793.79998779296875</ele>
        <time>2022-05-02T12:16:30.000Z</time>
      </trkpt>
      <trkpt lat="41.06812910176813602447509765625" lon="-1.38682971708476543426513671875">
        <ele>794</ele>
        <time>2022-05-02T12:16:31.000Z</time>
      </trkpt>
      <trkpt lat="41.0681134276092052459716796875" lon="-1.3868187367916107177734375">
        <ele>794.20001220703125</ele>
        <time>2022-05-02T12:16:32.000Z</time>
      </trkpt>
      <trkpt lat="41.06807797215878963470458984375" lon="-1.38679535128176212310791015625">
        <ele>794.5999755859375</ele>
        <time>2022-05-02T12:16:34.000Z</time>
      </trkpt>
      <trkpt lat="41.06805969960987567901611328125" lon="-1.3867843709886074066162109375">
        <ele>794.79998779296875</ele>
        <time>2022-05-02T12:16:35.000Z</time>
      </trkpt>
      <trkpt lat="41.06804092414677143096923828125" lon="-1.38677322305738925933837890625">
        <ele>795</ele>
        <time>2022-05-02T12:16:36.000Z</time>
      </trkpt>
      <trkpt lat="41.067999936640262603759765625" lon="-1.38674925081431865692138671875">
        <ele>795.5999755859375</ele>
        <time>2022-05-02T12:16:38.000Z</time>
      </trkpt>
      <trkpt lat="41.06795333325862884521484375" lon="-1.3867220096290111541748046875">
        <ele>796.4000244140625</ele>
        <time>2022-05-02T12:16:40.000Z</time>
      </trkpt>
      <trkpt lat="41.06790346093475818634033203125" lon="-1.3866968639194965362548828125">
        <ele>796.5999755859375</ele>
        <time>2022-05-02T12:16:42.000Z</time>
      </trkpt>
      <trkpt lat="41.06787781231105327606201171875" lon="-1.38668504543602466583251953125">
        <ele>796.79998779296875</ele>
        <time>2022-05-02T12:16:43.000Z</time>
      </trkpt>
      <trkpt lat="41.06785082258284091949462890625" lon="-1.38667247258126735687255859375">
        <ele>796.79998779296875</ele>
        <time>2022-05-02T12:16:44.000Z</time>
      </trkpt>
      <trkpt lat="41.067790724337100982666015625" lon="-1.3866363465785980224609375">
        <ele>797</ele>
        <time>2022-05-02T12:16:46.000Z</time>
      </trkpt>
      <trkpt lat="41.06775426305830478668212890625" lon="-1.38660927303135395050048828125">
        <ele>797.20001220703125</ele>
        <time>2022-05-02T12:16:47.000Z</time>
      </trkpt>
      <trkpt lat="41.06771872378885746002197265625" lon="-1.38657742179930210113525390625">
        <ele>797.4000244140625</ele>
        <time>2022-05-02T12:16:48.000Z</time>
      </trkpt>
      <trkpt lat="41.06763574294745922088623046875" lon="-1.3865077681839466094970703125">
        <ele>797.5999755859375</ele>
        <time>2022-05-02T12:16:50.000Z</time>
      </trkpt>
      <trkpt lat="41.0675417818129062652587890625" lon="-1.386442892253398895263671875">
        <ele>797.5999755859375</ele>
        <time>2022-05-02T12:16:52.000Z</time>
      </trkpt>
      <trkpt lat="41.06749459169805049896240234375" lon="-1.38640458695590496063232421875">
        <ele>797.4000244140625</ele>
        <time>2022-05-02T12:16:53.000Z</time>
      </trkpt>
      <trkpt lat="41.06744983233511447906494140625" lon="-1.38636938296258449554443359375">
        <ele>797</ele>
        <time>2022-05-02T12:16:54.000Z</time>
      </trkpt>
      <trkpt lat="41.067372299730777740478515625" lon="-1.38630970381200313568115234375">
        <ele>796.4000244140625</ele>
        <time>2022-05-02T12:16:56.000Z</time>
      </trkpt>
      <trkpt lat="41.06733868829905986785888671875" lon="-1.38628288172185420989990234375">
        <ele>796.20001220703125</ele>
        <time>2022-05-02T12:16:57.000Z</time>
      </trkpt>
      <trkpt lat="41.0673097707331180572509765625" lon="-1.3862613402307033538818359375">
        <ele>796</ele>
        <time>2022-05-02T12:16:58.000Z</time>
      </trkpt>
      <trkpt lat="41.06727431528270244598388671875" lon="-1.38625505380332469940185546875">
        <ele>795.79998779296875</ele>
        <time>2022-05-02T12:17:00.000Z</time>
      </trkpt>
      <trkpt lat="41.0672443918883800506591796875" lon="-1.3862769305706024169921875">
        <ele>796.20001220703125</ele>
        <time>2022-05-02T12:17:02.000Z</time>
      </trkpt>
      <trkpt lat="41.06719770468771457672119140625" lon="-1.3863243721425533294677734375">
        <ele>796.5999755859375</ele>
        <time>2022-05-02T12:17:04.000Z</time>
      </trkpt>
      <trkpt lat="41.067154705524444580078125" lon="-1.38637843541800975799560546875">
        <ele>797.20001220703125</ele>
        <time>2022-05-02T12:17:06.000Z</time>
      </trkpt>
      <trkpt lat="41.06710835359990596771240234375" lon="-1.38642671518027782440185546875">
        <ele>797.4000244140625</ele>
        <time>2022-05-02T12:17:08.000Z</time>
      </trkpt>
      <trkpt lat="41.06707834638655185699462890625" lon="-1.38646543957293033599853515625">
        <ele>797.5999755859375</ele>
        <time>2022-05-02T12:17:10.000Z</time>
      </trkpt>
      <trkpt lat="41.0670648515224456787109375" lon="-1.38646929524838924407958984375">
        <ele>797.5999755859375</ele>
        <time>2022-05-02T12:17:11.000Z</time>
      </trkpt>
      <trkpt lat="41.0670487582683563232421875" lon="-1.38646937906742095947265625">
        <ele>797.5999755859375</ele>
        <time>2022-05-02T12:17:12.000Z</time>
      </trkpt>
      <trkpt lat="41.06701917015016078948974609375" lon="-1.38644917868077754974365234375">
        <ele>797.4000244140625</ele>
        <time>2022-05-02T12:17:14.000Z</time>
      </trkpt>
      <trkpt lat="41.0670053400099277496337890625" lon="-1.38643559999763965606689453125">
        <ele>797.20001220703125</ele>
        <time>2022-05-02T12:17:15.000Z</time>
      </trkpt>
      <trkpt lat="41.06692847795784473419189453125" lon="-1.3863984681665897369384765625">
        <ele>796.5999755859375</ele>
        <time>2022-05-02T12:17:19.000Z</time>
      </trkpt>
      <trkpt lat="41.0669007338583469390869140625" lon="-1.38640291057527065277099609375">
        <ele>796.5999755859375</ele>
        <time>2022-05-02T12:17:20.000Z</time>
      </trkpt>
      <trkpt lat="41.0668635182082653045654296875" lon="-1.3864346779882907867431640625">
        <ele>796.5999755859375</ele>
        <time>2022-05-02T12:17:22.000Z</time>
      </trkpt>
      <trkpt lat="41.06683393009006977081298828125" lon="-1.386490501463413238525390625">
        <ele>797</ele>
        <time>2022-05-02T12:17:24.000Z</time>
      </trkpt>
      <trkpt lat="41.06681096367537975311279296875" lon="-1.3865476660430431365966796875">
        <ele>797.20001220703125</ele>
        <time>2022-05-02T12:17:26.000Z</time>
      </trkpt>
      <trkpt lat="41.0667867399752140045166015625" lon="-1.38659921474754810333251953125">
        <ele>797.4000244140625</ele>
        <time>2022-05-02T12:17:28.000Z</time>
      </trkpt>
      <trkpt lat="41.06677005998790264129638671875" lon="-1.3866569660604000091552734375">
        <ele>797.4000244140625</ele>
        <time>2022-05-02T12:17:30.000Z</time>
      </trkpt>
      <trkpt lat="41.066743992269039154052734375" lon="-1.3867035694420337677001953125">
        <ele>797.4000244140625</ele>
        <time>2022-05-02T12:17:32.000Z</time>
      </trkpt>
      <trkpt lat="41.06672898866236209869384765625" lon="-1.386743299663066864013671875">
        <ele>797.20001220703125</ele>
        <time>2022-05-02T12:17:34.000Z</time>
      </trkpt>
      <trkpt lat="41.0667206905782222747802734375" lon="-1.3867598958313465118408203125">
        <ele>797.20001220703125</ele>
        <time>2022-05-02T12:17:35.000Z</time>
      </trkpt>
      <trkpt lat="41.066714487969875335693359375" lon="-1.386781521141529083251953125">
        <ele>797</ele>
        <time>2022-05-02T12:17:36.000Z</time>
      </trkpt>
      <trkpt lat="41.0667054355144500732421875" lon="-1.38682099990546703338623046875">
        <ele>797</ele>
        <time>2022-05-02T12:17:38.000Z</time>
      </trkpt>
      <trkpt lat="41.06669981963932514190673828125" lon="-1.38683156110346317291259765625">
        <ele>796.79998779296875</ele>
        <time>2022-05-02T12:17:39.000Z</time>
      </trkpt>
      <trkpt lat="41.06670384295284748077392578125" lon="-1.3868541084229946136474609375">
        <ele>796.79998779296875</ele>
        <time>2022-05-02T12:17:40.000Z</time>
      </trkpt>
      <trkpt lat="41.06669847853481769561767578125" lon="-1.38686022721230983734130859375">
        <ele>796.79998779296875</ele>
        <time>2022-05-02T12:17:41.000Z</time>
      </trkpt>
      <trkpt lat="41.066693365573883056640625" lon="-1.3868517614901065826416015625">
        <ele>796.79998779296875</ele>
        <time>2022-05-02T12:17:42.000Z</time>
      </trkpt>
      <trkpt lat="41.0667116381227970123291015625" lon="-1.38684078119695186614990234375">
        <ele>796.79998779296875</ele>
        <time>2022-05-02T12:17:43.000Z</time>
      </trkpt>
      <trkpt lat="41.06672043912112712860107421875" lon="-1.386821754276752471923828125">
        <ele>797</ele>
        <time>2022-05-02T12:17:44.000Z</time>
      </trkpt>
      <trkpt lat="41.06671457178890705108642578125" lon="-1.38676266185939311981201171875">
        <ele>797.20001220703125</ele>
        <time>2022-05-02T12:17:46.000Z</time>
      </trkpt>
      <trkpt lat="41.06670853681862354278564453125" lon="-1.38674120418727397918701171875">
        <ele>797.20001220703125</ele>
        <time>2022-05-02T12:17:47.000Z</time>
      </trkpt>
      <trkpt lat="41.0667005740106105804443359375" lon="-1.3867132924497127532958984375">
        <ele>797</ele>
        <time>2022-05-02T12:17:48.000Z</time>
      </trkpt>
      <trkpt lat="41.066680289804935455322265625" lon="-1.386683620512485504150390625">
        <ele>796.5999755859375</ele>
        <time>2022-05-02T12:17:49.000Z</time>
      </trkpt>
      <trkpt lat="41.066665537655353546142578125" lon="-1.38664782978594303131103515625">
        <ele>796.4000244140625</ele>
        <time>2022-05-02T12:17:50.000Z</time>
      </trkpt>
      <trkpt lat="41.0666459240019321441650390625" lon="-1.38661413453519344329833984375">
        <ele>796</ele>
        <time>2022-05-02T12:17:51.000Z</time>
      </trkpt>
      <trkpt lat="41.06662672944366931915283203125" lon="-1.38658337295055389404296875">
        <ele>795.4000244140625</ele>
        <time>2022-05-02T12:17:52.000Z</time>
      </trkpt>
      <trkpt lat="41.066605858504772186279296875" lon="-1.386551521718502044677734375">
        <ele>795</ele>
        <time>2022-05-02T12:17:53.000Z</time>
      </trkpt>
      <trkpt lat="41.06658984906971454620361328125" lon="-1.38651522807776927947998046875">
        <ele>794.5999755859375</ele>
        <time>2022-05-02T12:17:54.000Z</time>
      </trkpt>
      <trkpt lat="41.066548526287078857421875" lon="-1.38648270629346370697021484375">
        <ele>794</ele>
        <time>2022-05-02T12:17:56.000Z</time>
      </trkpt>
      <trkpt lat="41.06652346439659595489501953125" lon="-1.3864834606647491455078125">
        <ele>793.5999755859375</ele>
        <time>2022-05-02T12:17:57.000Z</time>
      </trkpt>
      <trkpt lat="41.06649463064968585968017578125" lon="-1.38649527914822101593017578125">
        <ele>793.4000244140625</ele>
        <time>2022-05-02T12:17:58.000Z</time>
      </trkpt>
      <trkpt lat="41.06647199951112270355224609375" lon="-1.38651221059262752532958984375">
        <ele>793.4000244140625</ele>
        <time>2022-05-02T12:17:59.000Z</time>
      </trkpt>
      <trkpt lat="41.06644861400127410888671875" lon="-1.38652746565639972686767578125">
        <ele>793.20001220703125</ele>
        <time>2022-05-02T12:18:00.000Z</time>
      </trkpt>
      <trkpt lat="41.0664145834743976593017578125" lon="-1.38655227608978748321533203125">
        <ele>793</ele>
        <time>2022-05-02T12:18:02.000Z</time>
      </trkpt>
      <trkpt lat="41.066367812454700469970703125" lon="-1.386568956077098846435546875">
        <ele>792.5999755859375</ele>
        <time>2022-05-02T12:18:04.000Z</time>
      </trkpt>
      <trkpt lat="41.06630201451480388641357421875" lon="-1.38658597134053707122802734375">
        <ele>791.79998779296875</ele>
        <time>2022-05-02T12:18:06.000Z</time>
      </trkpt>
      <trkpt lat="41.06626077555119991302490234375" lon="-1.3866378553211688995361328125">
        <ele>792</ele>
        <time>2022-05-02T12:18:08.000Z</time>
      </trkpt>
      <trkpt lat="41.06622205115854740142822265625" lon="-1.3867002166807651519775390625">
        <ele>792.4000244140625</ele>
        <time>2022-05-02T12:18:10.000Z</time>
      </trkpt>
      <trkpt lat="41.0661765374243259429931640625" lon="-1.38677657581865787506103515625">
        <ele>792.79998779296875</ele>
        <time>2022-05-02T12:18:12.000Z</time>
      </trkpt>
      <trkpt lat="41.06611861847341060638427734375" lon="-1.38683524914085865020751953125">
        <ele>793</ele>
        <time>2022-05-02T12:18:14.000Z</time>
      </trkpt>
      <trkpt lat="41.066056005656719207763671875" lon="-1.3868812657892704010009765625">
        <ele>793.20001220703125</ele>
        <time>2022-05-02T12:18:16.000Z</time>
      </trkpt>
      <trkpt lat="41.06602306477725505828857421875" lon="-1.386908926069736480712890625">
        <ele>793.20001220703125</ele>
        <time>2022-05-02T12:18:17.000Z</time>
      </trkpt>
      <trkpt lat="41.0659931413829326629638671875" lon="-1.3869419507682323455810546875">
        <ele>793.4000244140625</ele>
        <time>2022-05-02T12:18:18.000Z</time>
      </trkpt>
      <trkpt lat="41.065931953489780426025390625" lon="-1.38701277785003185272216796875">
        <ele>793.5999755859375</ele>
        <time>2022-05-02T12:18:20.000Z</time>
      </trkpt>
      <trkpt lat="41.0658771358430385589599609375" lon="-1.3870888017117977142333984375">
        <ele>793.79998779296875</ele>
        <time>2022-05-02T12:18:22.000Z</time>
      </trkpt>
      <trkpt lat="41.06582944281399250030517578125" lon="-1.3871357403695583343505859375">
        <ele>793.79998779296875</ele>
        <time>2022-05-02T12:18:24.000Z</time>
      </trkpt>
      <trkpt lat="41.0658050514757633209228515625" lon="-1.3871486485004425048828125">
        <ele>793.79998779296875</ele>
        <time>2022-05-02T12:18:25.000Z</time>
      </trkpt>
      <trkpt lat="41.06578116305172443389892578125" lon="-1.3871575333178043365478515625">
        <ele>793.5999755859375</ele>
        <time>2022-05-02T12:18:26.000Z</time>
      </trkpt>
      <trkpt lat="41.06573439203202724456787109375" lon="-1.38717588968575000762939453125">
        <ele>793</ele>
        <time>2022-05-02T12:18:28.000Z</time>
      </trkpt>
      <trkpt lat="41.06569030322134494781494140625" lon="-1.38719349168241024017333984375">
        <ele>792.79998779296875</ele>
        <time>2022-05-02T12:18:30.000Z</time>
      </trkpt>
      <trkpt lat="41.06567823328077793121337890625" lon="-1.38721561990678310394287109375">
        <ele>792.5999755859375</ele>
        <time>2022-05-02T12:18:32.000Z</time>
      </trkpt>
      <trkpt lat="41.06567680835723876953125" lon="-1.38721235096454620361328125">
        <ele>792.5999755859375</ele>
        <time>2022-05-02T12:18:33.000Z</time>
      </trkpt>
      <trkpt lat="41.06571444310247898101806640625" lon="-1.387124173343181610107421875">
        <ele>792.20001220703125</ele>
        <time>2022-05-02T12:19:19.000Z</time>
      </trkpt>
      <trkpt lat="41.06572668068110942840576171875" lon="-1.38710497878491878509521484375">
        <ele>792.20001220703125</ele>
        <time>2022-05-02T12:19:20.000Z</time>
      </trkpt>
      <trkpt lat="41.06575249694287776947021484375" lon="-1.38705544173717498779296875">
        <ele>792</ele>
        <time>2022-05-02T12:19:22.000Z</time>
      </trkpt>
      <trkpt lat="41.06578032486140727996826171875" lon="-1.386980004608631134033203125">
        <ele>791.4000244140625</ele>
        <time>2022-05-02T12:19:24.000Z</time>
      </trkpt>
      <trkpt lat="41.06581234373152256011962890625" lon="-1.3869007118046283721923828125">
        <ele>790.79998779296875</ele>
        <time>2022-05-02T12:19:26.000Z</time>
      </trkpt>
      <trkpt lat="41.06583782471716403961181640625" lon="-1.386829800903797149658203125">
        <ele>789.79998779296875</ele>
        <time>2022-05-02T12:19:28.000Z</time>
      </trkpt>
      <trkpt lat="41.0658657364547252655029296875" lon="-1.38678998686373233795166015625">
        <ele>789.4000244140625</ele>
        <time>2022-05-02T12:19:30.000Z</time>
      </trkpt>
      <trkpt lat="41.06587185524404048919677734375" lon="-1.38677724637091159820556640625">
        <ele>789.20001220703125</ele>
        <time>2022-05-02T12:19:31.000Z</time>
      </trkpt>
      <trkpt lat="41.06588006950914859771728515625" lon="-1.38677674345672130584716796875">
        <ele>789.4000244140625</ele>
        <time>2022-05-02T12:19:32.000Z</time>
      </trkpt>
      <trkpt lat="41.0658848471939563751220703125" lon="-1.3867800123989582061767578125">
        <ele>789.4000244140625</ele>
        <time>2022-05-02T12:19:33.000Z</time>
      </trkpt>
      <trkpt lat="41.0658251680433750152587890625" lon="-1.3866351731121540069580078125">
        <ele>786.20001220703125</ele>
        <time>2022-05-02T12:39:36.000Z</time>
      </trkpt>
      <trkpt lat="41.06581552885472774505615234375" lon="-1.3866174034774303436279296875">
        <ele>785.79998779296875</ele>
        <time>2022-05-02T12:39:37.000Z</time>
      </trkpt>
      <trkpt lat="41.0658057220280170440673828125" lon="-1.3866006396710872650146484375">
        <ele>785.4000244140625</ele>
        <time>2022-05-02T12:39:38.000Z</time>
      </trkpt>
      <trkpt lat="41.065766997635364532470703125" lon="-1.38654842041432857513427734375">
        <ele>784.20001220703125</ele>
        <time>2022-05-02T12:39:40.000Z</time>
      </trkpt>
      <trkpt lat="41.06569801457226276397705078125" lon="-1.3864725641906261444091796875">
        <ele>782.79998779296875</ele>
        <time>2022-05-02T12:39:42.000Z</time>
      </trkpt>
      <trkpt lat="41.06562341563403606414794921875" lon="-1.38639000244438648223876953125">
        <ele>782.20001220703125</ele>
        <time>2022-05-02T12:39:44.000Z</time>
      </trkpt>
      <trkpt lat="41.06553792022168636322021484375" lon="-1.38632395304739475250244140625">
        <ele>782.5999755859375</ele>
        <time>2022-05-02T12:39:46.000Z</time>
      </trkpt>
      <trkpt lat="41.06545141898095607757568359375" lon="-1.3862432353198528289794921875">
        <ele>783.4000244140625</ele>
        <time>2022-05-02T12:39:48.000Z</time>
      </trkpt>
      <trkpt lat="41.06540665961802005767822265625" lon="-1.3862018287181854248046875">
        <ele>783.79998779296875</ele>
        <time>2022-05-02T12:39:49.000Z</time>
      </trkpt>
      <trkpt lat="41.06536391191184520721435546875" lon="-1.38617458753287792205810546875">
        <ele>784.4000244140625</ele>
        <time>2022-05-02T12:39:50.000Z</time>
      </trkpt>
      <trkpt lat="41.06527917087078094482421875" lon="-1.38612010516226291656494140625">
        <ele>785</ele>
        <time>2022-05-02T12:39:52.000Z</time>
      </trkpt>
      <trkpt lat="41.06519157998263835906982421875" lon="-1.38607081957161426544189453125">
        <ele>785.5999755859375</ele>
        <time>2022-05-02T12:39:54.000Z</time>
      </trkpt>
      <trkpt lat="41.0651207529008388519287109375" lon="-1.3860263116657733917236328125">
        <ele>785.4000244140625</ele>
        <time>2022-05-02T12:39:56.000Z</time>
      </trkpt>
      <trkpt lat="41.06508814729750156402587890625" lon="-1.38600762002170085906982421875">
        <ele>785.20001220703125</ele>
        <time>2022-05-02T12:39:57.000Z</time>
      </trkpt>
      <trkpt lat="41.06505394913256168365478515625" lon="-1.38599462807178497314453125">
        <ele>785</ele>
        <time>2022-05-02T12:39:58.000Z</time>
      </trkpt>
      <trkpt lat="41.06498974375426769256591796875" lon="-1.38595079071819782257080078125">
        <ele>784.5999755859375</ele>
        <time>2022-05-02T12:40:00.000Z</time>
      </trkpt>
      <trkpt lat="41.06495940126478672027587890625" lon="-1.38592732138931751251220703125">
        <ele>784.4000244140625</ele>
        <time>2022-05-02T12:40:01.000Z</time>
      </trkpt>
      <trkpt lat="41.0649333335459232330322265625" lon="-1.3859086297452449798583984375">
        <ele>784.20001220703125</ele>
        <time>2022-05-02T12:40:02.000Z</time>
      </trkpt>
      <trkpt lat="41.06489293277263641357421875" lon="-1.38588926754891872406005859375">
        <ele>784</ele>
        <time>2022-05-02T12:40:04.000Z</time>
      </trkpt>
      <trkpt lat="41.06486887671053409576416015625" lon="-1.38587602414190769195556640625">
        <ele>783.5999755859375</ele>
        <time>2022-05-02T12:40:06.000Z</time>
      </trkpt>
      <trkpt lat="41.06485211290419101715087890625" lon="-1.3858543150126934051513671875">
        <ele>783.20001220703125</ele>
        <time>2022-05-02T12:40:07.000Z</time>
      </trkpt>
      <trkpt lat="41.064838282763957977294921875" lon="-1.3858217932283878326416015625">
        <ele>783</ele>
        <time>2022-05-02T12:40:08.000Z</time>
      </trkpt>
      <trkpt lat="41.064827553927898406982421875" lon="-1.38573470525443553924560546875">
        <ele>782.5999755859375</ele>
        <time>2022-05-02T12:40:10.000Z</time>
      </trkpt>
      <trkpt lat="41.0648361034691333770751953125" lon="-1.38564418070018291473388671875">
        <ele>781.79998779296875</ele>
        <time>2022-05-02T12:40:12.000Z</time>
      </trkpt>
      <trkpt lat="41.06484289281070232391357421875" lon="-1.38555466197431087493896484375">
        <ele>781.20001220703125</ele>
        <time>2022-05-02T12:40:14.000Z</time>
      </trkpt>
      <trkpt lat="41.0648431442677974700927734375" lon="-1.385511495172977447509765625">
        <ele>781</ele>
        <time>2022-05-02T12:40:15.000Z</time>
      </trkpt>
      <trkpt lat="41.064842976629734039306640625" lon="-1.3854680769145488739013671875">
        <ele>780.5999755859375</ele>
        <time>2022-05-02T12:40:16.000Z</time>
      </trkpt>
      <trkpt lat="41.0648461617529392242431640625" lon="-1.38538618572056293487548828125">
        <ele>780</ele>
        <time>2022-05-02T12:40:18.000Z</time>
      </trkpt>
      <trkpt lat="41.0648498497903347015380859375" lon="-1.38530437834560871124267578125">
        <ele>779.4000244140625</ele>
        <time>2022-05-02T12:40:20.000Z</time>
      </trkpt>
      <trkpt lat="41.0648547112941741943359375" lon="-1.3852166198194026947021484375">
        <ele>778.79998779296875</ele>
        <time>2022-05-02T12:40:22.000Z</time>
      </trkpt>
      <trkpt lat="41.06485814787447452545166015625" lon="-1.38517328538000583648681640625">
        <ele>778.79998779296875</ele>
        <time>2022-05-02T12:40:23.000Z</time>
      </trkpt>
      <trkpt lat="41.06486200354993343353271484375" lon="-1.38512919656932353973388671875">
        <ele>778.5999755859375</ele>
        <time>2022-05-02T12:40:24.000Z</time>
      </trkpt>
      <trkpt lat="41.0648666135966777801513671875" lon="-1.38503615744411945343017578125">
        <ele>778.20001220703125</ele>
        <time>2022-05-02T12:40:26.000Z</time>
      </trkpt>
      <trkpt lat="41.06486334465444087982177734375" lon="-1.38493406586349010467529296875">
        <ele>778.20001220703125</ele>
        <time>2022-05-02T12:40:28.000Z</time>
      </trkpt>
      <trkpt lat="41.06483400799334049224853515625" lon="-1.38483901508152484893798828125">
        <ele>778.5999755859375</ele>
        <time>2022-05-02T12:40:30.000Z</time>
      </trkpt>
      <trkpt lat="41.064774580299854278564453125" lon="-1.38476776890456676483154296875">
        <ele>779</ele>
        <time>2022-05-02T12:40:32.000Z</time>
      </trkpt>
      <trkpt lat="41.06470995582640171051025390625" lon="-1.3847304694354534149169921875">
        <ele>779</ele>
        <time>2022-05-02T12:40:34.000Z</time>
      </trkpt>
      <trkpt lat="41.0646781884133815765380859375" lon="-1.38471982441842555999755859375">
        <ele>779</ele>
        <time>2022-05-02T12:40:35.000Z</time>
      </trkpt>
      <trkpt lat="41.0646449960768222808837890625" lon="-1.384710855782032012939453125">
        <ele>779</ele>
        <time>2022-05-02T12:40:36.000Z</time>
      </trkpt>
      <trkpt lat="41.06457433663308620452880859375" lon="-1.3846986182034015655517578125">
        <ele>779</ele>
        <time>2022-05-02T12:40:38.000Z</time>
      </trkpt>
      <trkpt lat="41.064500324428081512451171875" lon="-1.38468571007251739501953125">
        <ele>778.5999755859375</ele>
        <time>2022-05-02T12:40:40.000Z</time>
      </trkpt>
      <trkpt lat="41.06441407464444637298583984375" lon="-1.3846785016357898712158203125">
        <ele>778.20001220703125</ele>
        <time>2022-05-02T12:40:42.000Z</time>
      </trkpt>
      <trkpt lat="41.064333356916904449462890625" lon="-1.38467364013195037841796875">
        <ele>778</ele>
        <time>2022-05-02T12:40:44.000Z</time>
      </trkpt>
      <trkpt lat="41.06425900943577289581298828125" lon="-1.38467632234096527099609375">
        <ele>778.20001220703125</ele>
        <time>2022-05-02T12:40:46.000Z</time>
      </trkpt>
      <trkpt lat="41.06418340466916561126708984375" lon="-1.384688057005405426025390625">
        <ele>778.5999755859375</ele>
        <time>2022-05-02T12:40:48.000Z</time>
      </trkpt>
      <trkpt lat="41.06414468027651309967041015625" lon="-1.38469870202243328094482421875">
        <ele>778.5999755859375</ele>
        <time>2022-05-02T12:40:49.000Z</time>
      </trkpt>
      <trkpt lat="41.06410645879805088043212890625" lon="-1.38471177779138088226318359375">
        <ele>778.79998779296875</ele>
        <time>2022-05-02T12:40:50.000Z</time>
      </trkpt>
      <trkpt lat="41.06403169222176074981689453125" lon="-1.3847388513386249542236328125">
        <ele>778.79998779296875</ele>
        <time>2022-05-02T12:40:52.000Z</time>
      </trkpt>
      <trkpt lat="41.063957512378692626953125" lon="-1.3847639970481395721435546875">
        <ele>778.79998779296875</ele>
        <time>2022-05-02T12:40:54.000Z</time>
      </trkpt>
      <trkpt lat="41.06388576328754425048828125" lon="-1.3847829401493072509765625">
        <ele>779</ele>
        <time>2022-05-02T12:40:56.000Z</time>
      </trkpt>
      <trkpt lat="41.06381468474864959716796875" lon="-1.3848025538027286529541015625">
        <ele>779</ele>
        <time>2022-05-02T12:40:58.000Z</time>
      </trkpt>
      <trkpt lat="41.06377989985048770904541015625" lon="-1.38481311500072479248046875">
        <ele>779</ele>
        <time>2022-05-02T12:40:59.000Z</time>
      </trkpt>
      <trkpt lat="41.0637437738478183746337890625" lon="-1.3848230056464672088623046875">
        <ele>778.79998779296875</ele>
        <time>2022-05-02T12:41:00.000Z</time>
      </trkpt>
      <trkpt lat="41.06367177329957485198974609375" lon="-1.3848384283483028411865234375">
        <ele>778.20001220703125</ele>
        <time>2022-05-02T12:41:02.000Z</time>
      </trkpt>
      <trkpt lat="41.0636019520461559295654296875" lon="-1.38485846109688282012939453125">
        <ele>777.5999755859375</ele>
        <time>2022-05-02T12:41:04.000Z</time>
      </trkpt>
      <trkpt lat="41.06353615410625934600830078125" lon="-1.384875811636447906494140625">
        <ele>777</ele>
        <time>2022-05-02T12:41:06.000Z</time>
      </trkpt>
      <trkpt lat="41.06347111053764820098876953125" lon="-1.384889893233776092529296875">
        <ele>776.5999755859375</ele>
        <time>2022-05-02T12:41:08.000Z</time>
      </trkpt>
      <trkpt lat="41.06340690515935420989990234375" lon="-1.384908668696880340576171875">
        <ele>776.4000244140625</ele>
        <time>2022-05-02T12:41:10.000Z</time>
      </trkpt>
      <trkpt lat="41.06334320269525051116943359375" lon="-1.384924091398715972900390625">
        <ele>776.4000244140625</ele>
        <time>2022-05-02T12:41:12.000Z</time>
      </trkpt>
      <trkpt lat="41.06328067369759082794189453125" lon="-1.384928114712238311767578125">
        <ele>776.20001220703125</ele>
        <time>2022-05-02T12:41:14.000Z</time>
      </trkpt>
      <trkpt lat="41.06321797706186771392822265625" lon="-1.38492668978869915008544921875">
        <ele>776.20001220703125</ele>
        <time>2022-05-02T12:41:16.000Z</time>
      </trkpt>
      <trkpt lat="41.06315310113131999969482421875" lon="-1.38492166064679622650146484375">
        <ele>776.5999755859375</ele>
        <time>2022-05-02T12:41:18.000Z</time>
      </trkpt>
      <trkpt lat="41.06309073977172374725341796875" lon="-1.3849195651710033416748046875">
        <ele>777</ele>
        <time>2022-05-02T12:41:20.000Z</time>
      </trkpt>
      <trkpt lat="41.0630202479660511016845703125" lon="-1.38490565121173858642578125">
        <ele>777.5999755859375</ele>
        <time>2022-05-02T12:41:22.000Z</time>
      </trkpt>
      <trkpt lat="41.06294774450361728668212890625" lon="-1.3848940841853618621826171875">
        <ele>778.4000244140625</ele>
        <time>2022-05-02T12:41:24.000Z</time>
      </trkpt>
      <trkpt lat="41.06287599541246891021728515625" lon="-1.38488595373928546905517578125">
        <ele>779.4000244140625</ele>
        <time>2022-05-02T12:41:26.000Z</time>
      </trkpt>
      <trkpt lat="41.06280609034001827239990234375" lon="-1.38488075695931911468505859375">
        <ele>780.4000244140625</ele>
        <time>2022-05-02T12:41:28.000Z</time>
      </trkpt>
      <trkpt lat="41.062770299613475799560546875" lon="-1.3848763145506381988525390625">
        <ele>781</ele>
        <time>2022-05-02T12:41:29.000Z</time>
      </trkpt>
      <trkpt lat="41.06273400597274303436279296875" lon="-1.384872458875179290771484375">
        <ele>781.5999755859375</ele>
        <time>2022-05-02T12:41:30.000Z</time>
      </trkpt>
      <trkpt lat="41.06266208924353122711181640625" lon="-1.38487279415130615234375">
        <ele>782.5999755859375</ele>
        <time>2022-05-02T12:41:32.000Z</time>
      </trkpt>
      <trkpt lat="41.0625897534191608428955078125" lon="-1.38487539254128932952880859375">
        <ele>782.5999755859375</ele>
        <time>2022-05-02T12:41:34.000Z</time>
      </trkpt>
      <trkpt lat="41.06251942925155162811279296875" lon="-1.38487539254128932952880859375">
        <ele>782.5999755859375</ele>
        <time>2022-05-02T12:41:36.000Z</time>
      </trkpt>
      <trkpt lat="41.06245170347392559051513671875" lon="-1.38487740419805049896240234375">
        <ele>782.79998779296875</ele>
        <time>2022-05-02T12:41:38.000Z</time>
      </trkpt>
      <trkpt lat="41.06238146312534809112548828125" lon="-1.384879164397716522216796875">
        <ele>783</ele>
        <time>2022-05-02T12:41:40.000Z</time>
      </trkpt>
      <trkpt lat="41.0623181797564029693603515625" lon="-1.38488897122442722320556640625">
        <ele>782.5999755859375</ele>
        <time>2022-05-02T12:41:42.000Z</time>
      </trkpt>
      <trkpt lat="41.06228716671466827392578125" lon="-1.384902633726596832275390625">
        <ele>782.4000244140625</ele>
        <time>2022-05-02T12:41:43.000Z</time>
      </trkpt>
      <trkpt lat="41.06225707568228244781494140625" lon="-1.38491378165781497955322265625">
        <ele>782.20001220703125</ele>
        <time>2022-05-02T12:41:44.000Z</time>
      </trkpt>
      <trkpt lat="41.062186248600482940673828125" lon="-1.38492979109287261962890625">
        <ele>781.79998779296875</ele>
        <time>2022-05-02T12:41:46.000Z</time>
      </trkpt>
      <trkpt lat="41.06211139820516109466552734375" lon="-1.3849437050521373748779296875">
        <ele>781.20001220703125</ele>
        <time>2022-05-02T12:41:48.000Z</time>
      </trkpt>
      <trkpt lat="41.06207317672669887542724609375" lon="-1.38494814746081829071044921875">
        <ele>781.20001220703125</ele>
        <time>2022-05-02T12:41:49.000Z</time>
      </trkpt>
      <trkpt lat="41.0620348714292049407958984375" lon="-1.3849514164030551910400390625">
        <ele>781.5999755859375</ele>
        <time>2022-05-02T12:41:50.000Z</time>
      </trkpt>
      <trkpt lat="41.0619594343006610870361328125" lon="-1.38495661318302154541015625">
        <ele>782</ele>
        <time>2022-05-02T12:41:52.000Z</time>
      </trkpt>
      <trkpt lat="41.0618856735527515411376953125" lon="-1.38495636172592639923095703125">
        <ele>782.5999755859375</ele>
        <time>2022-05-02T12:41:54.000Z</time>
      </trkpt>
      <trkpt lat="41.061814092099666595458984375" lon="-1.38496038503944873809814453125">
        <ele>783</ele>
        <time>2022-05-02T12:41:56.000Z</time>
      </trkpt>
      <trkpt lat="41.061741672456264495849609375" lon="-1.38497010804712772369384765625">
        <ele>783.5999755859375</ele>
        <time>2022-05-02T12:41:58.000Z</time>
      </trkpt>
      <trkpt lat="41.06167352758347988128662109375" lon="-1.3849768973886966705322265625">
        <ele>784</ele>
        <time>2022-05-02T12:42:00.000Z</time>
      </trkpt>
      <trkpt lat="41.06160814873874187469482421875" lon="-1.38498184271156787872314453125">
        <ele>784.5999755859375</ele>
        <time>2022-05-02T12:42:02.000Z</time>
      </trkpt>
      <trkpt lat="41.061574704945087432861328125" lon="-1.384985446929931640625">
        <ele>784.79998779296875</ele>
        <time>2022-05-02T12:42:03.000Z</time>
      </trkpt>
      <trkpt lat="41.06154151260852813720703125" lon="-1.3849882967770099639892578125">
        <ele>785</ele>
        <time>2022-05-02T12:42:04.000Z</time>
      </trkpt>
      <trkpt lat="41.06147303245961666107177734375" lon="-1.38498745858669281005859375">
        <ele>784.79998779296875</ele>
        <time>2022-05-02T12:42:06.000Z</time>
      </trkpt>
      <trkpt lat="41.06140530668199062347412109375" lon="-1.38498921878635883331298828125">
        <ele>784.4000244140625</ele>
        <time>2022-05-02T12:42:08.000Z</time>
      </trkpt>
      <trkpt lat="41.061336994171142578125" lon="-1.3849896378815174102783203125">
        <ele>784.20001220703125</ele>
        <time>2022-05-02T12:42:10.000Z</time>
      </trkpt>
      <trkpt lat="41.06126482598483562469482421875" lon="-1.3849929906427860260009765625">
        <ele>784</ele>
        <time>2022-05-02T12:42:12.000Z</time>
      </trkpt>
      <trkpt lat="41.0611936636269092559814453125" lon="-1.38500489294528961181640625">
        <ele>783.4000244140625</ele>
        <time>2022-05-02T12:42:14.000Z</time>
      </trkpt>
      <trkpt lat="41.0611574538052082061767578125" lon="-1.3850114308297634124755859375">
        <ele>783.20001220703125</ele>
        <time>2022-05-02T12:42:15.000Z</time>
      </trkpt>
      <trkpt lat="41.061122752726078033447265625" lon="-1.38501989655196666717529296875">
        <ele>783</ele>
        <time>2022-05-02T12:42:16.000Z</time>
      </trkpt>
      <trkpt lat="41.06105335056781768798828125" lon="-1.38504588045179843902587890625">
        <ele>782.4000244140625</ele>
        <time>2022-05-02T12:42:18.000Z</time>
      </trkpt>
      <trkpt lat="41.0609871335327625274658203125" lon="-1.38507622294127941131591796875">
        <ele>782</ele>
        <time>2022-05-02T12:42:20.000Z</time>
      </trkpt>
      <trkpt lat="41.060921587049961090087890625" lon="-1.3851100020110607147216796875">
        <ele>782</ele>
        <time>2022-05-02T12:42:22.000Z</time>
      </trkpt>
      <trkpt lat="41.0608902387320995330810546875" lon="-1.38512827455997467041015625">
        <ele>782</ele>
        <time>2022-05-02T12:42:23.000Z</time>
      </trkpt>
      <trkpt lat="41.0608590580523014068603515625" lon="-1.38514579273760318756103515625">
        <ele>782</ele>
        <time>2022-05-02T12:42:24.000Z</time>
      </trkpt>
      <trkpt lat="41.06079426594078540802001953125" lon="-1.385178901255130767822265625">
        <ele>782</ele>
        <time>2022-05-02T12:42:26.000Z</time>
      </trkpt>
      <trkpt lat="41.0607299767434597015380859375" lon="-1.3852115906774997711181640625">
        <ele>782</ele>
        <time>2022-05-02T12:42:28.000Z</time>
      </trkpt>
      <trkpt lat="41.06069619767367839813232421875" lon="-1.3852266781032085418701171875">
        <ele>782</ele>
        <time>2022-05-02T12:42:29.000Z</time>
      </trkpt>
      <trkpt lat="41.0606632567942142486572265625" lon="-1.38524302281439304351806640625">
        <ele>782</ele>
        <time>2022-05-02T12:42:30.000Z</time>
      </trkpt>
      <trkpt lat="41.0605955310165882110595703125" lon="-1.3852742873132228851318359375">
        <ele>782.20001220703125</ele>
        <time>2022-05-02T12:42:32.000Z</time>
      </trkpt>
      <trkpt lat="41.060561500489711761474609375" lon="-1.38529054820537567138671875">
        <ele>782.4000244140625</ele>
        <time>2022-05-02T12:42:33.000Z</time>
      </trkpt>
      <trkpt lat="41.060529984533786773681640625" lon="-1.38530890457332134246826171875">
        <ele>782.4000244140625</ele>
        <time>2022-05-02T12:42:34.000Z</time>
      </trkpt>
      <trkpt lat="41.06046938337385654449462890625" lon="-1.38534729368984699249267578125">
        <ele>782.79998779296875</ele>
        <time>2022-05-02T12:42:36.000Z</time>
      </trkpt>
      <trkpt lat="41.06041188351809978485107421875" lon="-1.38538618572056293487548828125">
        <ele>783</ele>
        <time>2022-05-02T12:42:38.000Z</time>
      </trkpt>
      <trkpt lat="41.060356311500072479248046875" lon="-1.385426335036754608154296875">
        <ele>783.5999755859375</ele>
        <time>2022-05-02T12:42:40.000Z</time>
      </trkpt>
      <trkpt lat="41.0603286512196063995361328125" lon="-1.38544670306146144866943359375">
        <ele>783.79998779296875</ele>
        <time>2022-05-02T12:42:41.000Z</time>
      </trkpt>
      <trkpt lat="41.06030073948204517364501953125" lon="-1.3854653947055339813232421875">
        <ele>784</ele>
        <time>2022-05-02T12:42:42.000Z</time>
      </trkpt>
      <trkpt lat="41.06024340726435184478759765625" lon="-1.38550152070820331573486328125">
        <ele>784.5999755859375</ele>
        <time>2022-05-02T12:42:44.000Z</time>
      </trkpt>
      <trkpt lat="41.06018565595149993896484375" lon="-1.38552465476095676422119140625">
        <ele>785</ele>
        <time>2022-05-02T12:42:46.000Z</time>
      </trkpt>
      <trkpt lat="41.0601271502673625946044921875" lon="-1.38552465476095676422119140625">
        <ele>785.20001220703125</ele>
        <time>2022-05-02T12:42:48.000Z</time>
      </trkpt>
      <trkpt lat="41.06006504036486148834228515625" lon="-1.3855146802961826324462890625">
        <ele>785.20001220703125</ele>
        <time>2022-05-02T12:42:50.000Z</time>
      </trkpt>
      <trkpt lat="41.0599744319915771484375" lon="-1.38549037277698516845703125">
        <ele>785.4000244140625</ele>
        <time>2022-05-02T12:42:52.000Z</time>
      </trkpt>
      <trkpt lat="41.05992187745869159698486328125" lon="-1.3854798115789890289306640625">
        <ele>785.5999755859375</ele>
        <time>2022-05-02T12:42:53.000Z</time>
      </trkpt>
      <trkpt lat="41.05986655689775943756103515625" lon="-1.38546363450586795806884765625">
        <ele>785.5999755859375</ele>
        <time>2022-05-02T12:42:54.000Z</time>
      </trkpt>
      <trkpt lat="41.059759519994258880615234375" lon="-1.38542574830353260040283203125">
        <ele>785.79998779296875</ele>
        <time>2022-05-02T12:42:56.000Z</time>
      </trkpt>
      <trkpt lat="41.05965399183332920074462890625" lon="-1.3853810727596282958984375">
        <ele>785.79998779296875</ele>
        <time>2022-05-02T12:42:58.000Z</time>
      </trkpt>
      <trkpt lat="41.05960621498525142669677734375" lon="-1.38535919599235057830810546875">
        <ele>785.79998779296875</ele>
        <time>2022-05-02T12:42:59.000Z</time>
      </trkpt>
      <trkpt lat="41.0595615394413471221923828125" lon="-1.38534176163375377655029296875">
        <ele>786</ele>
        <time>2022-05-02T12:43:00.000Z</time>
      </trkpt>
      <trkpt lat="41.05951786972582340240478515625" lon="-1.38532851822674274444580078125">
        <ele>786.20001220703125</ele>
        <time>2022-05-02T12:43:01.000Z</time>
      </trkpt>
      <trkpt lat="41.05947596020996570587158203125" lon="-1.3853182084858417510986328125">
        <ele>786.20001220703125</ele>
        <time>2022-05-02T12:43:02.000Z</time>
      </trkpt>
      <trkpt lat="41.0594354756176471710205078125" lon="-1.38529817573726177215576171875">
        <ele>786.20001220703125</ele>
        <time>2022-05-02T12:43:03.000Z</time>
      </trkpt>
      <trkpt lat="41.0593955777585506439208984375" lon="-1.38527185656130313873291015625">
        <ele>786</ele>
        <time>2022-05-02T12:43:04.000Z</time>
      </trkpt>
      <trkpt lat="41.05931821279227733612060546875" lon="-1.385227181017398834228515625">
        <ele>785.79998779296875</ele>
        <time>2022-05-02T12:43:06.000Z</time>
      </trkpt>
      <trkpt lat="41.059242524206638336181640625" lon="-1.38518887571990489959716796875">
        <ele>786</ele>
        <time>2022-05-02T12:43:08.000Z</time>
      </trkpt>
      <trkpt lat="41.059167422354221343994140625" lon="-1.38516540639102458953857421875">
        <ele>786.20001220703125</ele>
        <time>2022-05-02T12:43:10.000Z</time>
      </trkpt>
      <trkpt lat="41.0590884648263454437255859375" lon="-1.38513590209186077117919921875">
        <ele>786</ele>
        <time>2022-05-02T12:43:12.000Z</time>
      </trkpt>
      <trkpt lat="41.0590120218694210052490234375" lon="-1.385115198791027069091796875">
        <ele>785.79998779296875</ele>
        <time>2022-05-02T12:43:14.000Z</time>
      </trkpt>
      <trkpt lat="41.05893901549279689788818359375" lon="-1.3851022906601428985595703125">
        <ele>785.79998779296875</ele>
        <time>2022-05-02T12:43:16.000Z</time>
      </trkpt>
      <trkpt lat="41.058860979974269866943359375" lon="-1.3850851915776729583740234375">
        <ele>785.79998779296875</ele>
        <time>2022-05-02T12:43:18.000Z</time>
      </trkpt>
      <trkpt lat="41.058777831494808197021484375" lon="-1.38506733812391757965087890625">
        <ele>785.79998779296875</ele>
        <time>2022-05-02T12:43:20.000Z</time>
      </trkpt>
      <trkpt lat="41.05869702994823455810546875" lon="-1.385058872401714324951171875">
        <ele>785.79998779296875</ele>
        <time>2022-05-02T12:43:22.000Z</time>
      </trkpt>
      <trkpt lat="41.05865755118429660797119140625" lon="-1.3850503228604793548583984375">
        <ele>785.79998779296875</ele>
        <time>2022-05-02T12:43:23.000Z</time>
      </trkpt>
      <trkpt lat="41.0586185753345489501953125" lon="-1.3850390911102294921875">
        <ele>785.79998779296875</ele>
        <time>2022-05-02T12:43:24.000Z</time>
      </trkpt>
      <trkpt lat="41.05853869579732418060302734375" lon="-1.38500279746949672698974609375">
        <ele>785.4000244140625</ele>
        <time>2022-05-02T12:43:26.000Z</time>
      </trkpt>
      <trkpt lat="41.058462001383304595947265625" lon="-1.3849530927836894989013671875">
        <ele>784.79998779296875</ele>
        <time>2022-05-02T12:43:28.000Z</time>
      </trkpt>
      <trkpt lat="41.0584246180951595306396484375" lon="-1.3849276117980480194091796875">
        <ele>784.5999755859375</ele>
        <time>2022-05-02T12:43:29.000Z</time>
      </trkpt>
      <trkpt lat="41.05838681571185588836669921875" lon="-1.38490305282175540924072265625">
        <ele>784.4000244140625</ele>
        <time>2022-05-02T12:43:30.000Z</time>
      </trkpt>
      <trkpt lat="41.05830542743206024169921875" lon="-1.3848649151623249053955078125">
        <ele>784.20001220703125</ele>
        <time>2022-05-02T12:43:32.000Z</time>
      </trkpt>
      <trkpt lat="41.0582149028778076171875" lon="-1.38480816967785358428955078125">
        <ele>783.5999755859375</ele>
        <time>2022-05-02T12:43:34.000Z</time>
      </trkpt>
      <trkpt lat="41.0581711493432521820068359375" lon="-1.384783945977687835693359375">
        <ele>783.79998779296875</ele>
        <time>2022-05-02T12:43:35.000Z</time>
      </trkpt>
      <trkpt lat="41.05812831781804561614990234375" lon="-1.384762823581695556640625">
        <ele>784</ele>
        <time>2022-05-02T12:43:36.000Z</time>
      </trkpt>
      <trkpt lat="41.05804433114826679229736328125" lon="-1.38471395708620548248291015625">
        <ele>784.5999755859375</ele>
        <time>2022-05-02T12:43:38.000Z</time>
      </trkpt>
      <trkpt lat="41.0579642839729785919189453125" lon="-1.3846543617546558380126953125">
        <ele>785</ele>
        <time>2022-05-02T12:43:40.000Z</time>
      </trkpt>
      <trkpt lat="41.05792262591421604156494140625" lon="-1.384622342884540557861328125">
        <ele>785.5999755859375</ele>
        <time>2022-05-02T12:43:41.000Z</time>
      </trkpt>
      <trkpt lat="41.05788155458867549896240234375" lon="-1.384592168033123016357421875">
        <ele>786.20001220703125</ele>
        <time>2022-05-02T12:43:42.000Z</time>
      </trkpt>
      <trkpt lat="41.05780511163175106048583984375" lon="-1.38453139923512935638427734375">
        <ele>787.20001220703125</ele>
        <time>2022-05-02T12:43:44.000Z</time>
      </trkpt>
      <trkpt lat="41.05777032673358917236328125" lon="-1.3844974525272846221923828125">
        <ele>787.5999755859375</ele>
        <time>2022-05-02T12:43:45.000Z</time>
      </trkpt>
      <trkpt lat="41.05773554183542728424072265625" lon="-1.38446451164782047271728515625">
        <ele>788</ele>
        <time>2022-05-02T12:43:46.000Z</time>
      </trkpt>
      <trkpt lat="41.05770033784210681915283203125" lon="-1.38443182222545146942138671875">
        <ele>788.4000244140625</ele>
        <time>2022-05-02T12:43:47.000Z</time>
      </trkpt>
      <trkpt lat="41.0576645471155643463134765625" lon="-1.384399048984050750732421875">
        <ele>788.79998779296875</ele>
        <time>2022-05-02T12:43:48.000Z</time>
      </trkpt>
      <trkpt lat="41.05760025791823863983154296875" lon="-1.384336687624454498291015625">
        <ele>788.4000244140625</ele>
        <time>2022-05-02T12:43:50.000Z</time>
      </trkpt>
      <trkpt lat="41.05753756128251552581787109375" lon="-1.38426418416202068328857421875">
        <ele>787.79998779296875</ele>
        <time>2022-05-02T12:43:52.000Z</time>
      </trkpt>
      <trkpt lat="41.057505793869495391845703125" lon="-1.3842221908271312713623046875">
        <ele>787.79998779296875</ele>
        <time>2022-05-02T12:43:53.000Z</time>
      </trkpt>
      <trkpt lat="41.057477295398712158203125" lon="-1.38417583890259265899658203125">
        <ele>787.5999755859375</ele>
        <time>2022-05-02T12:43:54.000Z</time>
      </trkpt>
      <trkpt lat="41.05742440558969974517822265625" lon="-1.38408891856670379638671875">
        <ele>787.4000244140625</ele>
        <time>2022-05-02T12:43:56.000Z</time>
      </trkpt>
      <trkpt lat="41.05738450773060321807861328125" lon="-1.38401121832430362701416015625">
        <ele>786.20001220703125</ele>
        <time>2022-05-02T12:43:58.000Z</time>
      </trkpt>
      <trkpt lat="41.05734108947217464447021484375" lon="-1.38394952751696109771728515625">
        <ele>785.4000244140625</ele>
        <time>2022-05-02T12:44:00.000Z</time>
      </trkpt>
      <trkpt lat="41.0573141835629940032958984375" lon="-1.38392505235970020294189453125">
        <ele>785.20001220703125</ele>
        <time>2022-05-02T12:44:01.000Z</time>
      </trkpt>
      <trkpt lat="41.05728358961641788482666015625" lon="-1.38390108011662960052490234375">
        <ele>785.4000244140625</ele>
        <time>2022-05-02T12:44:02.000Z</time>
      </trkpt>
      <trkpt lat="41.05725375004112720489501953125" lon="-1.38387526385486125946044921875">
        <ele>785.4000244140625</ele>
        <time>2022-05-02T12:44:03.000Z</time>
      </trkpt>
      <trkpt lat="41.05722089298069477081298828125" lon="-1.38384860940277576446533203125">
        <ele>785.5999755859375</ele>
        <time>2022-05-02T12:44:04.000Z</time>
      </trkpt>
      <trkpt lat="41.05714947916567325592041015625" lon="-1.38379764743149280548095703125">
        <ele>786.20001220703125</ele>
        <time>2022-05-02T12:44:06.000Z</time>
      </trkpt>
      <trkpt lat="41.05707965791225433349609375" lon="-1.38375456444919109344482421875">
        <ele>786</ele>
        <time>2022-05-02T12:44:08.000Z</time>
      </trkpt>
      <trkpt lat="41.0570442862808704376220703125" lon="-1.383728496730327606201171875">
        <ele>786</ele>
        <time>2022-05-02T12:44:09.000Z</time>
      </trkpt>
      <trkpt lat="41.05701302178204059600830078125" lon="-1.38369320891797542572021484375">
        <ele>785.79998779296875</ele>
        <time>2022-05-02T12:44:10.000Z</time>
      </trkpt>
      <trkpt lat="41.05695971287786960601806640625" lon="-1.38362355530261993408203125">
        <ele>785.4000244140625</ele>
        <time>2022-05-02T12:44:12.000Z</time>
      </trkpt>
      <trkpt lat="41.0569059848785400390625" lon="-1.3835372216999530792236328125">
        <ele>785</ele>
        <time>2022-05-02T12:44:14.000Z</time>
      </trkpt>
      <trkpt lat="41.0568536818027496337890625" lon="-1.38344896025955677032470703125">
        <ele>784.79998779296875</ele>
        <time>2022-05-02T12:44:16.000Z</time>
      </trkpt>
      <trkpt lat="41.056801378726959228515625" lon="-1.38336740434169769287109375">
        <ele>784.79998779296875</ele>
        <time>2022-05-02T12:44:18.000Z</time>
      </trkpt>
      <trkpt lat="41.056741364300251007080078125" lon="-1.3832969963550567626953125">
        <ele>784.79998779296875</ele>
        <time>2022-05-02T12:44:20.000Z</time>
      </trkpt>
      <trkpt lat="41.05671127326786518096923828125" lon="-1.3832639716565608978271484375">
        <ele>785</ele>
        <time>2022-05-02T12:44:21.000Z</time>
      </trkpt>
      <trkpt lat="41.05668009258806705474853515625" lon="-1.383230276405811309814453125">
        <ele>785</ele>
        <time>2022-05-02T12:44:22.000Z</time>
      </trkpt>
      <trkpt lat="41.056609265506267547607421875" lon="-1.38316129334270954132080078125">
        <ele>785.20001220703125</ele>
        <time>2022-05-02T12:44:24.000Z</time>
      </trkpt>
      <trkpt lat="41.0565708763897418975830078125" lon="-1.38312994502484798431396484375">
        <ele>785.4000244140625</ele>
        <time>2022-05-02T12:44:25.000Z</time>
      </trkpt>
      <trkpt lat="41.0565323196351528167724609375" lon="-1.38310253620147705078125">
        <ele>785.79998779296875</ele>
        <time>2022-05-02T12:44:26.000Z</time>
      </trkpt>
      <trkpt lat="41.05649049393832683563232421875" lon="-1.38307428918778896331787109375">
        <ele>786.20001220703125</ele>
        <time>2022-05-02T12:44:27.000Z</time>
      </trkpt>
      <trkpt lat="41.05644623748958110809326171875" lon="-1.38304864056408405303955078125">
        <ele>786.4000244140625</ele>
        <time>2022-05-02T12:44:28.000Z</time>
      </trkpt>
      <trkpt lat="41.05636325664818286895751953125" lon="-1.38299901969730854034423828125">
        <ele>786.79998779296875</ele>
        <time>2022-05-02T12:44:30.000Z</time>
      </trkpt>
      <trkpt lat="41.05632469989359378814697265625" lon="-1.3829628936946392059326171875">
        <ele>787.20001220703125</ele>
        <time>2022-05-02T12:44:31.000Z</time>
      </trkpt>
      <trkpt lat="41.05628832243382930755615234375" lon="-1.382921822369098663330078125">
        <ele>787.20001220703125</ele>
        <time>2022-05-02T12:44:32.000Z</time>
      </trkpt>
      <trkpt lat="41.05625621974468231201171875" lon="-1.3828743807971477508544921875">
        <ele>787</ele>
        <time>2022-05-02T12:44:33.000Z</time>
      </trkpt>
      <trkpt lat="41.05622646398842334747314453125" lon="-1.38283104635775089263916015625">
        <ele>787</ele>
        <time>2022-05-02T12:44:34.000Z</time>
      </trkpt>
      <trkpt lat="41.05619897134602069854736328125" lon="-1.38278896920382976531982421875">
        <ele>787</ele>
        <time>2022-05-02T12:44:35.000Z</time>
      </trkpt>
      <trkpt lat="41.05617332272231578826904296875" lon="-1.38274521566927433013916015625">
        <ele>787</ele>
        <time>2022-05-02T12:44:36.000Z</time>
      </trkpt>
      <trkpt lat="41.05612152256071567535400390625" lon="-1.3826611451804637908935546875">
        <ele>787.20001220703125</ele>
        <time>2022-05-02T12:44:38.000Z</time>
      </trkpt>
      <trkpt lat="41.05606854893267154693603515625" lon="-1.38259367085993289947509765625">
        <ele>787.4000244140625</ele>
        <time>2022-05-02T12:44:40.000Z</time>
      </trkpt>
      <trkpt lat="41.056017167866230010986328125" lon="-1.3825364224612712860107421875">
        <ele>787.20001220703125</ele>
        <time>2022-05-02T12:44:42.000Z</time>
      </trkpt>
      <trkpt lat="41.0559620149433612823486328125" lon="-1.38248537667095661163330078125">
        <ele>787.20001220703125</ele>
        <time>2022-05-02T12:44:44.000Z</time>
      </trkpt>
      <trkpt lat="41.05589789338409900665283203125" lon="-1.38244204223155975341796875">
        <ele>787.4000244140625</ele>
        <time>2022-05-02T12:44:46.000Z</time>
      </trkpt>
      <trkpt lat="41.0558275692164897918701171875" lon="-1.38239166699349880218505859375">
        <ele>787.79998779296875</ele>
        <time>2022-05-02T12:44:48.000Z</time>
      </trkpt>
      <trkpt lat="41.05575255118310451507568359375" lon="-1.38234472833573818206787109375">
        <ele>787.4000244140625</ele>
        <time>2022-05-02T12:44:50.000Z</time>
      </trkpt>
      <trkpt lat="41.0556807182729244232177734375" lon="-1.38229762203991413116455078125">
        <ele>786.79998779296875</ele>
        <time>2022-05-02T12:44:52.000Z</time>
      </trkpt>
      <trkpt lat="41.05560989119112491607666015625" lon="-1.38224489986896514892578125">
        <ele>786.4000244140625</ele>
        <time>2022-05-02T12:44:54.000Z</time>
      </trkpt>
      <trkpt lat="41.055574603378772735595703125" lon="-1.3822239451110363006591796875">
        <ele>786</ele>
        <time>2022-05-02T12:44:55.000Z</time>
      </trkpt>
      <trkpt lat="41.0555340349674224853515625" lon="-1.3822008110582828521728515625">
        <ele>785.5999755859375</ele>
        <time>2022-05-02T12:44:56.000Z</time>
      </trkpt>
      <trkpt lat="41.05546094477176666259765625" lon="-1.38216468505561351776123046875">
        <ele>785</ele>
        <time>2022-05-02T12:44:58.000Z</time>
      </trkpt>
      <trkpt lat="41.0554289259016513824462890625" lon="-1.38215362094342708587646484375">
        <ele>785</ele>
        <time>2022-05-02T12:44:59.000Z</time>
      </trkpt>
      <trkpt lat="41.0553964041173458099365234375" lon="-1.38213467784225940704345703125">
        <ele>785.4000244140625</ele>
        <time>2022-05-02T12:45:00.000Z</time>
      </trkpt>
      <trkpt lat="41.05532809160649776458740234375" lon="-1.38209377415478229522705078125">
        <ele>786.20001220703125</ele>
        <time>2022-05-02T12:45:02.000Z</time>
      </trkpt>
      <trkpt lat="41.05525835417211055755615234375" lon="-1.38204834423959255218505859375">
        <ele>786.79998779296875</ele>
        <time>2022-05-02T12:45:04.000Z</time>
      </trkpt>
      <trkpt lat="41.05522365309298038482666015625" lon="-1.3820231147110462188720703125">
        <ele>786.79998779296875</ele>
        <time>2022-05-02T12:45:05.000Z</time>
      </trkpt>
      <trkpt lat="41.05518735945224761962890625" lon="-1.381994783878326416015625">
        <ele>786.5999755859375</ele>
        <time>2022-05-02T12:45:06.000Z</time>
      </trkpt>
      <trkpt lat="41.055154167115688323974609375" lon="-1.38197173364460468292236328125">
        <ele>786.5999755859375</ele>
        <time>2022-05-02T12:45:07.000Z</time>
      </trkpt>
      <trkpt lat="41.055121980607509613037109375" lon="-1.38194985687732696533203125">
        <ele>786.5999755859375</ele>
        <time>2022-05-02T12:45:08.000Z</time>
      </trkpt>
      <trkpt lat="41.05505350045859813690185546875" lon="-1.38190501369535923004150390625">
        <ele>787</ele>
        <time>2022-05-02T12:45:10.000Z</time>
      </trkpt>
      <trkpt lat="41.055018045008182525634765625" lon="-1.38188011944293975830078125">
        <ele>787.4000244140625</ele>
        <time>2022-05-02T12:45:11.000Z</time>
      </trkpt>
      <trkpt lat="41.05498275719583034515380859375" lon="-1.3818548060953617095947265625">
        <ele>787.79998779296875</ele>
        <time>2022-05-02T12:45:12.000Z</time>
      </trkpt>
      <trkpt lat="41.0549169592559337615966796875" lon="-1.38179856352508068084716796875">
        <ele>788.4000244140625</ele>
        <time>2022-05-02T12:45:14.000Z</time>
      </trkpt>
      <trkpt lat="41.05484596453607082366943359375" lon="-1.381742656230926513671875">
        <ele>788.4000244140625</ele>
        <time>2022-05-02T12:45:16.000Z</time>
      </trkpt>
      <trkpt lat="41.054811514914035797119140625" lon="-1.381718181073665618896484375">
        <ele>788.4000244140625</ele>
        <time>2022-05-02T12:45:17.000Z</time>
      </trkpt>
      <trkpt lat="41.05477572418749332427978515625" lon="-1.38169663958251476287841796875">
        <ele>788</ele>
        <time>2022-05-02T12:45:18.000Z</time>
      </trkpt>
      <trkpt lat="41.054703891277313232421875" lon="-1.381661184132099151611328125">
        <ele>787.5999755859375</ele>
        <time>2022-05-02T12:45:20.000Z</time>
      </trkpt>
      <trkpt lat="41.054630465805530548095703125" lon="-1.381624303758144378662109375">
        <ele>787</ele>
        <time>2022-05-02T12:45:22.000Z</time>
      </trkpt>
      <trkpt lat="41.05459249578416347503662109375" lon="-1.381607539951801300048828125">
        <ele>786.79998779296875</ele>
        <time>2022-05-02T12:45:23.000Z</time>
      </trkpt>
      <trkpt lat="41.05455729179084300994873046875" lon="-1.38159639202058315277099609375">
        <ele>786.79998779296875</ele>
        <time>2022-05-02T12:45:24.000Z</time>
      </trkpt>
      <trkpt lat="41.05449208058416843414306640625" lon="-1.38157174922525882720947265625">
        <ele>786.4000244140625</ele>
        <time>2022-05-02T12:45:26.000Z</time>
      </trkpt>
      <trkpt lat="41.054425947368144989013671875" lon="-1.3815470226109027862548828125">
        <ele>786</ele>
        <time>2022-05-02T12:45:28.000Z</time>
      </trkpt>
      <trkpt lat="41.0543945990502834320068359375" lon="-1.381539143621921539306640625">
        <ele>785.79998779296875</ele>
        <time>2022-05-02T12:45:29.000Z</time>
      </trkpt>
      <trkpt lat="41.05436517857015132904052734375" lon="-1.38153084553778171539306640625">
        <ele>785.5999755859375</ele>
        <time>2022-05-02T12:45:30.000Z</time>
      </trkpt>
      <trkpt lat="41.05430734343826770782470703125" lon="-1.38151072897017002105712890625">
        <ele>785.20001220703125</ele>
        <time>2022-05-02T12:45:32.000Z</time>
      </trkpt>
      <trkpt lat="41.05424732901155948638916015625" lon="-1.381485164165496826171875">
        <ele>785</ele>
        <time>2022-05-02T12:45:34.000Z</time>
      </trkpt>
      <trkpt lat="41.05419150553643703460693359375" lon="-1.381468065083026885986328125">
        <ele>784.79998779296875</ele>
        <time>2022-05-02T12:45:36.000Z</time>
      </trkpt>
      <trkpt lat="41.05416283942759037017822265625" lon="-1.3814561627805233001708984375">
        <ele>785</ele>
        <time>2022-05-02T12:45:37.000Z</time>
      </trkpt>
      <trkpt lat="41.0541304014623165130615234375" lon="-1.3814414106309413909912109375">
        <ele>785</ele>
        <time>2022-05-02T12:45:38.000Z</time>
      </trkpt>
      <trkpt lat="41.0540559701621532440185546875" lon="-1.38140260241925716400146484375">
        <ele>785.20001220703125</ele>
        <time>2022-05-02T12:45:40.000Z</time>
      </trkpt>
      <trkpt lat="41.05401598848402500152587890625" lon="-1.38137452304363250732421875">
        <ele>785</ele>
        <time>2022-05-02T12:45:41.000Z</time>
      </trkpt>
      <trkpt lat="41.05397642590105533599853515625" lon="-1.3813414983451366424560546875">
        <ele>785.20001220703125</ele>
        <time>2022-05-02T12:45:42.000Z</time>
      </trkpt>
      <trkpt lat="41.053939126431941986083984375" lon="-1.3813052885234355926513671875">
        <ele>785.4000244140625</ele>
        <time>2022-05-02T12:45:43.000Z</time>
      </trkpt>
      <trkpt lat="41.0539047606289386749267578125" lon="-1.38126463629305362701416015625">
        <ele>785.4000244140625</ele>
        <time>2022-05-02T12:45:44.000Z</time>
      </trkpt>
      <trkpt lat="41.053841896355152130126953125" lon="-1.38117679394781589508056640625">
        <ele>786</ele>
        <time>2022-05-02T12:45:46.000Z</time>
      </trkpt>
      <trkpt lat="41.05381264351308345794677734375" lon="-1.38113044202327728271484375">
        <ele>786.4000244140625</ele>
        <time>2022-05-02T12:45:47.000Z</time>
      </trkpt>
      <trkpt lat="41.05378313921391963958740234375" lon="-1.38108023442327976226806640625">
        <ele>786.79998779296875</ele>
        <time>2022-05-02T12:45:48.000Z</time>
      </trkpt>
      <trkpt lat="41.0537262260913848876953125" lon="-1.3809742033481597900390625">
        <ele>786.79998779296875</ele>
        <time>2022-05-02T12:45:50.000Z</time>
      </trkpt>
      <trkpt lat="41.053669564425945281982421875" lon="-1.3808747939765453338623046875">
        <ele>786.5999755859375</ele>
        <time>2022-05-02T12:45:52.000Z</time>
      </trkpt>
      <trkpt lat="41.0536123998463153839111328125" lon="-1.3807903043925762176513671875">
        <ele>786.4000244140625</ele>
        <time>2022-05-02T12:45:54.000Z</time>
      </trkpt>
      <trkpt lat="41.05357057414948940277099609375" lon="-1.38072517700493335723876953125">
        <ele>785.79998779296875</ele>
        <time>2022-05-02T12:45:56.000Z</time>
      </trkpt>
      <trkpt lat="41.05353243649005889892578125" lon="-1.380664072930812835693359375">
        <ele>785.5999755859375</ele>
        <time>2022-05-02T12:45:58.000Z</time>
      </trkpt>
      <trkpt lat="41.05351022444665431976318359375" lon="-1.3806300424039363861083984375">
        <ele>785.5999755859375</ele>
        <time>2022-05-02T12:45:59.000Z</time>
      </trkpt>
      <trkpt lat="41.05348943732678890228271484375" lon="-1.3805981911718845367431640625">
        <ele>785.5999755859375</ele>
        <time>2022-05-02T12:46:00.000Z</time>
      </trkpt>
      <trkpt lat="41.0534461028873920440673828125" lon="-1.38054412789642810821533203125">
        <ele>785.4000244140625</ele>
        <time>2022-05-02T12:46:02.000Z</time>
      </trkpt>
      <trkpt lat="41.05338768102228641510009765625" lon="-1.38051412068307399749755859375">
        <ele>785.5999755859375</ele>
        <time>2022-05-02T12:46:04.000Z</time>
      </trkpt>
      <trkpt lat="41.05332322418689727783203125" lon="-1.3804885558784008026123046875">
        <ele>786</ele>
        <time>2022-05-02T12:46:06.000Z</time>
      </trkpt>
      <trkpt lat="41.05325206182897090911865234375" lon="-1.3804499991238117218017578125">
        <ele>786.20001220703125</ele>
        <time>2022-05-02T12:46:08.000Z</time>
      </trkpt>
      <trkpt lat="41.0531748645007610321044921875" lon="-1.3804040662944316864013671875">
        <ele>786.5999755859375</ele>
        <time>2022-05-02T12:46:10.000Z</time>
      </trkpt>
      <trkpt lat="41.0530932247638702392578125" lon="-1.38037380762398242950439453125">
        <ele>787.20001220703125</ele>
        <time>2022-05-02T12:46:12.000Z</time>
      </trkpt>
      <trkpt lat="41.05302457697689533233642578125" lon="-1.38033960945904254913330078125">
        <ele>787.5999755859375</ele>
        <time>2022-05-02T12:46:14.000Z</time>
      </trkpt>
      <trkpt lat="41.05295182205736637115478515625" lon="-1.380287222564220428466796875">
        <ele>788</ele>
        <time>2022-05-02T12:46:16.000Z</time>
      </trkpt>
      <trkpt lat="41.052874960005283355712890625" lon="-1.38023433275520801544189453125">
        <ele>788.4000244140625</ele>
        <time>2022-05-02T12:46:18.000Z</time>
      </trkpt>
      <trkpt lat="41.05280027724802494049072265625" lon="-1.3801841251552104949951171875">
        <ele>788.79998779296875</ele>
        <time>2022-05-02T12:46:20.000Z</time>
      </trkpt>
      <trkpt lat="41.052719391882419586181640625" lon="-1.38011547736823558807373046875">
        <ele>788.79998779296875</ele>
        <time>2022-05-02T12:46:22.000Z</time>
      </trkpt>
      <trkpt lat="41.0526297055184841156005859375" lon="-1.38003098778426647186279296875">
        <ele>788.79998779296875</ele>
        <time>2022-05-02T12:46:24.000Z</time>
      </trkpt>
      <trkpt lat="41.05254798196256160736083984375" lon="-1.3799511082470417022705078125">
        <ele>788.5999755859375</ele>
        <time>2022-05-02T12:46:26.000Z</time>
      </trkpt>
      <trkpt lat="41.0525085031986236572265625" lon="-1.37990257702767848968505859375">
        <ele>788.5999755859375</ele>
        <time>2022-05-02T12:46:27.000Z</time>
      </trkpt>
      <trkpt lat="41.05247564613819122314453125" lon="-1.3798589073121547698974609375">
        <ele>788.5999755859375</ele>
        <time>2022-05-02T12:46:28.000Z</time>
      </trkpt>
      <trkpt lat="41.052406243979930877685546875" lon="-1.37977332808077335357666015625">
        <ele>789</ele>
        <time>2022-05-02T12:46:30.000Z</time>
      </trkpt>
      <trkpt lat="41.0523222573101520538330078125" lon="-1.37971582822501659393310546875">
        <ele>789.79998779296875</ele>
        <time>2022-05-02T12:46:32.000Z</time>
      </trkpt>
      <trkpt lat="41.0522810183465480804443359375" lon="-1.37968062423169612884521484375">
        <ele>790</ele>
        <time>2022-05-02T12:46:33.000Z</time>
      </trkpt>
      <trkpt lat="41.0522421263158321380615234375" lon="-1.37963972054421901702880859375">
        <ele>790.4000244140625</ele>
        <time>2022-05-02T12:46:34.000Z</time>
      </trkpt>
      <trkpt lat="41.05217247270047664642333984375" lon="-1.37954349629580974578857421875">
        <ele>791</ele>
        <time>2022-05-02T12:46:36.000Z</time>
      </trkpt>
      <trkpt lat="41.05210541747510433197021484375" lon="-1.37945464812219142913818359375">
        <ele>791.20001220703125</ele>
        <time>2022-05-02T12:46:38.000Z</time>
      </trkpt>
      <trkpt lat="41.05203584767878055572509765625" lon="-1.37939639389514923095703125">
        <ele>790.79998779296875</ele>
        <time>2022-05-02T12:46:40.000Z</time>
      </trkpt>
      <trkpt lat="41.051995866000652313232421875" lon="-1.37937384657561779022216796875">
        <ele>790.4000244140625</ele>
        <time>2022-05-02T12:46:41.000Z</time>
      </trkpt>
      <trkpt lat="41.0519547946751117706298828125" lon="-1.37935708276927471160888671875">
        <ele>790.20001220703125</ele>
        <time>2022-05-02T12:46:42.000Z</time>
      </trkpt>
      <trkpt lat="41.05187156237661838531494140625" lon="-1.379330344498157501220703125">
        <ele>790</ele>
        <time>2022-05-02T12:46:44.000Z</time>
      </trkpt>
      <trkpt lat="41.05178154073655605316162109375" lon="-1.3793040253221988677978515625">
        <ele>790.20001220703125</ele>
        <time>2022-05-02T12:46:46.000Z</time>
      </trkpt>
      <trkpt lat="41.05174130760133266448974609375" lon="-1.3792939670383930206298828125">
        <ele>790.5999755859375</ele>
        <time>2022-05-02T12:46:47.000Z</time>
      </trkpt>
      <trkpt lat="41.05169889517128467559814453125" lon="-1.37928566895425319671630859375">
        <ele>790.79998779296875</ele>
        <time>2022-05-02T12:46:48.000Z</time>
      </trkpt>
      <trkpt lat="41.05161641724407672882080078125" lon="-1.3792604394257068634033203125">
        <ele>791</ele>
        <time>2022-05-02T12:46:50.000Z</time>
      </trkpt>
      <trkpt lat="41.05154282413423061370849609375" lon="-1.37920905835926532745361328125">
        <ele>790.5999755859375</ele>
        <time>2022-05-02T12:46:52.000Z</time>
      </trkpt>
      <trkpt lat="41.051473505795001983642578125" lon="-1.379145942628383636474609375">
        <ele>790.5999755859375</ele>
        <time>2022-05-02T12:46:54.000Z</time>
      </trkpt>
      <trkpt lat="41.0514139942824840545654296875" lon="-1.37908391654491424560546875">
        <ele>791</ele>
        <time>2022-05-02T12:46:56.000Z</time>
      </trkpt>
      <trkpt lat="41.05135607533156871795654296875" lon="-1.37901493348181247711181640625">
        <ele>791.5999755859375</ele>
        <time>2022-05-02T12:46:58.000Z</time>
      </trkpt>
      <trkpt lat="41.05130058713257312774658203125" lon="-1.37893916107714176177978515625">
        <ele>791.4000244140625</ele>
        <time>2022-05-02T12:47:00.000Z</time>
      </trkpt>
      <trkpt lat="41.05124778114259243011474609375" lon="-1.37884662486612796783447265625">
        <ele>791</ele>
        <time>2022-05-02T12:47:02.000Z</time>
      </trkpt>
      <trkpt lat="41.0512024350464344024658203125" lon="-1.37876079417765140533447265625">
        <ele>791.20001220703125</ele>
        <time>2022-05-02T12:47:04.000Z</time>
      </trkpt>
      <trkpt lat="41.05116404592990875244140625" lon="-1.37866440229117870330810546875">
        <ele>791.20001220703125</ele>
        <time>2022-05-02T12:47:06.000Z</time>
      </trkpt>
      <trkpt lat="41.05114049278199672698974609375" lon="-1.3785677589476108551025390625">
        <ele>791.20001220703125</ele>
        <time>2022-05-02T12:47:08.000Z</time>
      </trkpt>
      <trkpt lat="41.051130183041095733642578125" lon="-1.3785218261182308197021484375">
        <ele>791</ele>
        <time>2022-05-02T12:47:09.000Z</time>
      </trkpt>
      <trkpt lat="41.05112238787114620208740234375" lon="-1.3784809224307537078857421875">
        <ele>791</ele>
        <time>2022-05-02T12:47:10.000Z</time>
      </trkpt>
      <trkpt lat="41.0510921292006969451904296875" lon="-1.37840825133025646209716796875">
        <ele>790.79998779296875</ele>
        <time>2022-05-02T12:47:12.000Z</time>
      </trkpt>
      <trkpt lat="41.05105399154126644134521484375" lon="-1.37834991328418254852294921875">
        <ele>790.4000244140625</ele>
        <time>2022-05-02T12:47:14.000Z</time>
      </trkpt>
      <trkpt lat="41.05100487358868122100830078125" lon="-1.3783196546137332916259765625">
        <ele>790.20001220703125</ele>
        <time>2022-05-02T12:47:16.000Z</time>
      </trkpt>
      <trkpt lat="41.0509751178324222564697265625" lon="-1.37831739149987697601318359375">
        <ele>790</ele>
        <time>2022-05-02T12:47:17.000Z</time>
      </trkpt>
      <trkpt lat="41.05094301514327526092529296875" lon="-1.37832560576498508453369140625">
        <ele>790</ele>
        <time>2022-05-02T12:47:18.000Z</time>
      </trkpt>
      <trkpt lat="41.05087570846080780029296875" lon="-1.37834773398935794830322265625">
        <ele>790.20001220703125</ele>
        <time>2022-05-02T12:47:20.000Z</time>
      </trkpt>
      <trkpt lat="41.05081259272992610931396484375" lon="-1.37837053276598453521728515625">
        <ele>790.20001220703125</ele>
        <time>2022-05-02T12:47:22.000Z</time>
      </trkpt>
      <trkpt lat="41.0507462918758392333984375" lon="-1.3783877156674861907958984375">
        <ele>790.4000244140625</ele>
        <time>2022-05-02T12:47:24.000Z</time>
      </trkpt>
      <trkpt lat="41.05067588388919830322265625" lon="-1.37841529212892055511474609375">
        <ele>790.20001220703125</ele>
        <time>2022-05-02T12:47:26.000Z</time>
      </trkpt>
      <trkpt lat="41.05060388334095478057861328125" lon="-1.37844144366681575775146484375">
        <ele>790.20001220703125</ele>
        <time>2022-05-02T12:47:28.000Z</time>
      </trkpt>
      <trkpt lat="41.0505338944494724273681640625" lon="-1.37846491299569606781005859375">
        <ele>790</ele>
        <time>2022-05-02T12:47:30.000Z</time>
      </trkpt>
      <trkpt lat="41.05046340264379978179931640625" lon="-1.37848804704844951629638671875">
        <ele>789.79998779296875</ele>
        <time>2022-05-02T12:47:32.000Z</time>
      </trkpt>
      <trkpt lat="41.05042853392660617828369140625" lon="-1.37849651277065277099609375">
        <ele>789.79998779296875</ele>
        <time>2022-05-02T12:47:33.000Z</time>
      </trkpt>
      <trkpt lat="41.0503949224948883056640625" lon="-1.3785070739686489105224609375">
        <ele>789.79998779296875</ele>
        <time>2022-05-02T12:47:34.000Z</time>
      </trkpt>
      <trkpt lat="41.05036080814898014068603515625" lon="-1.37851989828050136566162109375">
        <ele>789.79998779296875</ele>
        <time>2022-05-02T12:47:35.000Z</time>
      </trkpt>
      <trkpt lat="41.0503253526985645294189453125" lon="-1.378533728420734405517578125">
        <ele>789.79998779296875</ele>
        <time>2022-05-02T12:47:36.000Z</time>
      </trkpt>
      <trkpt lat="41.0502489097416400909423828125" lon="-1.37855476699769496917724609375">
        <ele>790</ele>
        <time>2022-05-02T12:47:38.000Z</time>
      </trkpt>
      <trkpt lat="41.0501734726130962371826171875" lon="-1.37857639230787754058837890625">
        <ele>790</ele>
        <time>2022-05-02T12:47:40.000Z</time>
      </trkpt>
      <trkpt lat="41.05009828694164752960205078125" lon="-1.37859365902841091156005859375">
        <ele>790.5999755859375</ele>
        <time>2022-05-02T12:47:42.000Z</time>
      </trkpt>
      <trkpt lat="41.050021089613437652587890625" lon="-1.37860782444477081298828125">
        <ele>791.20001220703125</ele>
        <time>2022-05-02T12:47:44.000Z</time>
      </trkpt>
      <trkpt lat="41.049983538687229156494140625" lon="-1.37861645780503749847412109375">
        <ele>791.4000244140625</ele>
        <time>2022-05-02T12:47:45.000Z</time>
      </trkpt>
      <trkpt lat="41.04994506575167179107666015625" lon="-1.37862333096563816070556640625">
        <ele>791.79998779296875</ele>
        <time>2022-05-02T12:47:46.000Z</time>
      </trkpt>
      <trkpt lat="41.049906425178050994873046875" lon="-1.37862919829785823822021484375">
        <ele>792.20001220703125</ele>
        <time>2022-05-02T12:47:47.000Z</time>
      </trkpt>
      <trkpt lat="41.04986761696636676788330078125" lon="-1.378633975982666015625">
        <ele>792.4000244140625</ele>
        <time>2022-05-02T12:47:48.000Z</time>
      </trkpt>
      <trkpt lat="41.04979150928556919097900390625" lon="-1.3786418549716472625732421875">
        <ele>792.5999755859375</ele>
        <time>2022-05-02T12:47:50.000Z</time>
      </trkpt>
      <trkpt lat="41.0497185029089450836181640625" lon="-1.37864747084677219390869140625">
        <ele>792.79998779296875</ele>
        <time>2022-05-02T12:47:52.000Z</time>
      </trkpt>
      <trkpt lat="41.049643568694591522216796875" lon="-1.3786499015986919403076171875">
        <ele>793</ele>
        <time>2022-05-02T12:47:54.000Z</time>
      </trkpt>
      <trkpt lat="41.049607358872890472412109375" lon="-1.37865149416029453277587890625">
        <ele>793.20001220703125</ele>
        <time>2022-05-02T12:47:55.000Z</time>
      </trkpt>
      <trkpt lat="41.04957123287022113800048828125" lon="-1.3786525838077068328857421875">
        <ele>793.20001220703125</ele>
        <time>2022-05-02T12:47:56.000Z</time>
      </trkpt>
      <trkpt lat="41.0494948737323284149169921875" lon="-1.3786540925502777099609375">
        <ele>792.79998779296875</ele>
        <time>2022-05-02T12:47:58.000Z</time>
      </trkpt>
      <trkpt lat="41.04941952042281627655029296875" lon="-1.37865736149251461029052734375">
        <ele>792.20001220703125</ele>
        <time>2022-05-02T12:48:00.000Z</time>
      </trkpt>
      <trkpt lat="41.04934643022716045379638671875" lon="-1.37866222299635410308837890625">
        <ele>791.79998779296875</ele>
        <time>2022-05-02T12:48:02.000Z</time>
      </trkpt>
      <trkpt lat="41.04927442967891693115234375" lon="-1.37867663986980915069580078125">
        <ele>791.5999755859375</ele>
        <time>2022-05-02T12:48:04.000Z</time>
      </trkpt>
      <trkpt lat="41.0492380522191524505615234375" lon="-1.3786837644875049591064453125">
        <ele>791.4000244140625</ele>
        <time>2022-05-02T12:48:05.000Z</time>
      </trkpt>
      <trkpt lat="41.049200333654880523681640625" lon="-1.3786904700100421905517578125">
        <ele>791.4000244140625</ele>
        <time>2022-05-02T12:48:06.000Z</time>
      </trkpt>
      <trkpt lat="41.0491237230598926544189453125" lon="-1.37870245613157749176025390625">
        <ele>791.4000244140625</ele>
        <time>2022-05-02T12:48:08.000Z</time>
      </trkpt>
      <trkpt lat="41.04904887266457080841064453125" lon="-1.37871854938566684722900390625">
        <ele>791.5999755859375</ele>
        <time>2022-05-02T12:48:10.000Z</time>
      </trkpt>
      <trkpt lat="41.0489792190492153167724609375" lon="-1.3787397556006908416748046875">
        <ele>791.79998779296875</ele>
        <time>2022-05-02T12:48:12.000Z</time>
      </trkpt>
      <trkpt lat="41.04891501367092132568359375" lon="-1.37876112945377826690673828125">
        <ele>792.20001220703125</ele>
        <time>2022-05-02T12:48:14.000Z</time>
      </trkpt>
      <trkpt lat="41.0488819889724254608154296875" lon="-1.3787726126611232757568359375">
        <ele>792.20001220703125</ele>
        <time>2022-05-02T12:48:15.000Z</time>
      </trkpt>
      <trkpt lat="41.04884536005556583404541015625" lon="-1.37877906672656536102294921875">
        <ele>792.4000244140625</ele>
        <time>2022-05-02T12:48:16.000Z</time>
      </trkpt>
      <trkpt lat="41.04876891709864139556884765625" lon="-1.37879314832389354705810546875">
        <ele>792.79998779296875</ele>
        <time>2022-05-02T12:48:18.000Z</time>
      </trkpt>
      <trkpt lat="41.048691384494304656982421875" lon="-1.3787962496280670166015625">
        <ele>793.4000244140625</ele>
        <time>2022-05-02T12:48:20.000Z</time>
      </trkpt>
      <trkpt lat="41.04865442030131816864013671875" lon="-1.3787949085235595703125">
        <ele>793.5999755859375</ele>
        <time>2022-05-02T12:48:21.000Z</time>
      </trkpt>
      <trkpt lat="41.04861862957477569580078125" lon="-1.37879147194325923919677734375">
        <ele>793.79998779296875</ele>
        <time>2022-05-02T12:48:22.000Z</time>
      </trkpt>
      <trkpt lat="41.048551239073276519775390625" lon="-1.37877772562205791473388671875">
        <ele>794.20001220703125</ele>
        <time>2022-05-02T12:48:24.000Z</time>
      </trkpt>
      <trkpt lat="41.0484878718852996826171875" lon="-1.37875107116997241973876953125">
        <ele>795</ele>
        <time>2022-05-02T12:48:26.000Z</time>
      </trkpt>
      <trkpt lat="41.048455350100994110107421875" lon="-1.37873162515461444854736328125">
        <ele>795.20001220703125</ele>
        <time>2022-05-02T12:48:27.000Z</time>
      </trkpt>
      <trkpt lat="41.04842324741184711456298828125" lon="-1.378711760044097900390625">
        <ele>795.4000244140625</ele>
        <time>2022-05-02T12:48:28.000Z</time>
      </trkpt>
      <trkpt lat="41.04839022271335124969482421875" lon="-1.3786891289055347442626953125">
        <ele>795.5999755859375</ele>
        <time>2022-05-02T12:48:29.000Z</time>
      </trkpt>
      <trkpt lat="41.04835719801485538482666015625" lon="-1.37866658158600330352783203125">
        <ele>796</ele>
        <time>2022-05-02T12:48:30.000Z</time>
      </trkpt>
      <trkpt lat="41.04828729294240474700927734375" lon="-1.3786324672400951385498046875">
        <ele>796.4000244140625</ele>
        <time>2022-05-02T12:48:32.000Z</time>
      </trkpt>
      <trkpt lat="41.0482144542038440704345703125" lon="-1.37862433679401874542236328125">
        <ele>797</ele>
        <time>2022-05-02T12:48:34.000Z</time>
      </trkpt>
      <trkpt lat="41.048177741467952728271484375" lon="-1.37862819246947765350341796875">
        <ele>797.20001220703125</ele>
        <time>2022-05-02T12:48:35.000Z</time>
      </trkpt>
      <trkpt lat="41.048143543303012847900390625" lon="-1.3786381669342517852783203125">
        <ele>797.20001220703125</ele>
        <time>2022-05-02T12:48:36.000Z</time>
      </trkpt>
      <trkpt lat="41.04807724244892597198486328125" lon="-1.37866624630987644195556640625">
        <ele>797.4000244140625</ele>
        <time>2022-05-02T12:48:38.000Z</time>
      </trkpt>
      <trkpt lat="41.0480179823935031890869140625" lon="-1.37870798818767070770263671875">
        <ele>797.5999755859375</ele>
        <time>2022-05-02T12:48:40.000Z</time>
      </trkpt>
      <trkpt lat="41.04798973537981510162353515625" lon="-1.378729529678821563720703125">
        <ele>797.79998779296875</ele>
        <time>2022-05-02T12:48:41.000Z</time>
      </trkpt>
      <trkpt lat="41.04796224273741245269775390625" lon="-1.37875266373157501220703125">
        <ele>797.79998779296875</ele>
        <time>2022-05-02T12:48:42.000Z</time>
      </trkpt>
      <trkpt lat="41.0479086823761463165283203125" lon="-1.37880186550319194793701171875">
        <ele>798</ele>
        <time>2022-05-02T12:48:44.000Z</time>
      </trkpt>
      <trkpt lat="41.047855876386165618896484375" lon="-1.37885182164609432220458984375">
        <ele>797.79998779296875</ele>
        <time>2022-05-02T12:48:46.000Z</time>
      </trkpt>
      <trkpt lat="41.04780047200620174407958984375" lon="-1.37889171950519084930419921875">
        <ele>797.5999755859375</ele>
        <time>2022-05-02T12:48:48.000Z</time>
      </trkpt>
      <trkpt lat="41.047772057354450225830078125" lon="-1.3788983412086963653564453125">
        <ele>797.4000244140625</ele>
        <time>2022-05-02T12:48:49.000Z</time>
      </trkpt>
      <trkpt lat="41.0477440617978572845458984375" lon="-1.37889188714325428009033203125">
        <ele>797.4000244140625</ele>
        <time>2022-05-02T12:48:50.000Z</time>
      </trkpt>
      <trkpt lat="41.04769133962690830230712890625" lon="-1.378871016204357147216796875">
        <ele>797.20001220703125</ele>
        <time>2022-05-02T12:48:52.000Z</time>
      </trkpt>
      <trkpt lat="41.0476659424602985382080078125" lon="-1.378863640129566192626953125">
        <ele>797</ele>
        <time>2022-05-02T12:48:53.000Z</time>
      </trkpt>
      <trkpt lat="41.0476434789597988128662109375" lon="-1.378862299025058746337890625">
        <ele>797</ele>
        <time>2022-05-02T12:48:54.000Z</time>
      </trkpt>
      <trkpt lat="41.047587655484676361083984375" lon="-1.378858946263790130615234375">
        <ele>797</ele>
        <time>2022-05-02T12:48:56.000Z</time>
      </trkpt>
      <trkpt lat="41.04752537794411182403564453125" lon="-1.378858946263790130615234375">
        <ele>797</ele>
        <time>2022-05-02T12:48:58.000Z</time>
      </trkpt>
      <trkpt lat="41.04745815508067607879638671875" lon="-1.37886405922472476959228515625">
        <ele>797</ele>
        <time>2022-05-02T12:49:00.000Z</time>
      </trkpt>
      <trkpt lat="41.04742630384862422943115234375" lon="-1.3788713514804840087890625">
        <ele>796.79998779296875</ele>
        <time>2022-05-02T12:49:01.000Z</time>
      </trkpt>
      <trkpt lat="41.04739420115947723388671875" lon="-1.378879062831401824951171875">
        <ele>796.79998779296875</ele>
        <time>2022-05-02T12:49:02.000Z</time>
      </trkpt>
      <trkpt lat="41.0473336838185787200927734375" lon="-1.37890764512121677398681640625">
        <ele>796.79998779296875</ele>
        <time>2022-05-02T12:49:04.000Z</time>
      </trkpt>
      <trkpt lat="41.0472713224589824676513671875" lon="-1.37893681414425373077392578125">
        <ele>796.79998779296875</ele>
        <time>2022-05-02T12:49:06.000Z</time>
      </trkpt>
      <trkpt lat="41.04723704047501087188720703125" lon="-1.37894754298031330108642578125">
        <ele>796.79998779296875</ele>
        <time>2022-05-02T12:49:07.000Z</time>
      </trkpt>
      <trkpt lat="41.04720435105264186859130859375" lon="-1.37895659543573856353759765625">
        <ele>796.79998779296875</ele>
        <time>2022-05-02T12:49:08.000Z</time>
      </trkpt>
      <trkpt lat="41.04714098386466503143310546875" lon="-1.3789630495011806488037109375">
        <ele>797</ele>
        <time>2022-05-02T12:49:10.000Z</time>
      </trkpt>
      <trkpt lat="41.04708465747535228729248046875" lon="-1.37894167564809322357177734375">
        <ele>797.4000244140625</ele>
        <time>2022-05-02T12:49:12.000Z</time>
      </trkpt>
      <trkpt lat="41.04706118814647197723388671875" lon="-1.37892357073724269866943359375">
        <ele>797.79998779296875</ele>
        <time>2022-05-02T12:49:13.000Z</time>
      </trkpt>
      <trkpt lat="41.04704224504530429840087890625" lon="-1.37890177778899669647216796875">
        <ele>798</ele>
        <time>2022-05-02T12:49:14.000Z</time>
      </trkpt>
      <trkpt lat="41.0470138303935527801513671875" lon="-1.378850899636745452880859375">
        <ele>798.5999755859375</ele>
        <time>2022-05-02T12:49:16.000Z</time>
      </trkpt>
      <trkpt lat="41.046996228396892547607421875" lon="-1.37880018912255764007568359375">
        <ele>799.5999755859375</ele>
        <time>2022-05-02T12:49:18.000Z</time>
      </trkpt>
      <trkpt lat="41.04698776267468929290771484375" lon="-1.37873883359134197235107421875">
        <ele>800.4000244140625</ele>
        <time>2022-05-02T12:49:20.000Z</time>
      </trkpt>
      <trkpt lat="41.04698105715215206146240234375" lon="-1.37867328710854053497314453125">
        <ele>801.4000244140625</ele>
        <time>2022-05-02T12:49:22.000Z</time>
      </trkpt>
      <trkpt lat="41.0469796322286128997802734375" lon="-1.37864445336163043975830078125">
        <ele>801.5999755859375</ele>
        <time>2022-05-02T12:49:23.000Z</time>
      </trkpt>
      <trkpt lat="41.0469804704189300537109375" lon="-1.37861729599535465240478515625">
        <ele>802</ele>
        <time>2022-05-02T12:49:24.000Z</time>
      </trkpt>
      <trkpt lat="41.046981476247310638427734375" lon="-1.3785898871719837188720703125">
        <ele>802.20001220703125</ele>
        <time>2022-05-02T12:49:25.000Z</time>
      </trkpt>
      <trkpt lat="41.04698248207569122314453125" lon="-1.3785627298057079315185546875">
        <ele>802.5999755859375</ele>
        <time>2022-05-02T12:49:26.000Z</time>
      </trkpt>
      <trkpt lat="41.0469796322286128997802734375" lon="-1.378537081182003021240234375">
        <ele>802.79998779296875</ele>
        <time>2022-05-02T12:49:27.000Z</time>
      </trkpt>
      <trkpt lat="41.0469772852957248687744140625" lon="-1.37851067818701267242431640625">
        <ele>803.20001220703125</ele>
        <time>2022-05-02T12:49:28.000Z</time>
      </trkpt>
      <trkpt lat="41.04697845876216888427734375" lon="-1.378455944359302520751953125">
        <ele>803.79998779296875</ele>
        <time>2022-05-02T12:49:30.000Z</time>
      </trkpt>
      <trkpt lat="41.04698206298053264617919921875" lon="-1.37842803262174129486083984375">
        <ele>804</ele>
        <time>2022-05-02T12:49:31.000Z</time>
      </trkpt>
      <trkpt lat="41.04698650538921356201171875" lon="-1.37840171344578266143798828125">
        <ele>804.4000244140625</ele>
        <time>2022-05-02T12:49:32.000Z</time>
      </trkpt>
      <trkpt lat="41.04699178598821163177490234375" lon="-1.37835209257900714874267578125">
        <ele>805</ele>
        <time>2022-05-02T12:49:34.000Z</time>
      </trkpt>
      <trkpt lat="41.0470027662813663482666015625" lon="-1.37829777784645557403564453125">
        <ele>805.5999755859375</ele>
        <time>2022-05-02T12:49:36.000Z</time>
      </trkpt>
      <trkpt lat="41.04702162556350231170654296875" lon="-1.37824731878936290740966796875">
        <ele>805.79998779296875</ele>
        <time>2022-05-02T12:49:38.000Z</time>
      </trkpt>
      <trkpt lat="41.04703285731375217437744140625" lon="-1.3782249391078948974609375">
        <ele>805.79998779296875</ele>
        <time>2022-05-02T12:49:39.000Z</time>
      </trkpt>
      <trkpt lat="41.0470436699688434600830078125" lon="-1.37820306234061717987060546875">
        <ele>805.79998779296875</ele>
        <time>2022-05-02T12:49:40.000Z</time>
      </trkpt>
      <trkpt lat="41.0470631159842014312744140625" lon="-1.3781593926250934600830078125">
        <ele>805.79998779296875</ele>
        <time>2022-05-02T12:49:42.000Z</time>
      </trkpt>
      <trkpt lat="41.04708985425531864166259765625" lon="-1.37812368571758270263671875">
        <ele>805.5999755859375</ele>
        <time>2022-05-02T12:49:44.000Z</time>
      </trkpt>
      <trkpt lat="41.04710192419588565826416015625" lon="-1.3781057484447956085205078125">
        <ele>805.5999755859375</ele>
        <time>2022-05-02T12:49:45.000Z</time>
      </trkpt>
      <trkpt lat="41.047112904489040374755859375" lon="-1.37808479368686676025390625">
        <ele>805.5999755859375</ele>
        <time>2022-05-02T12:49:46.000Z</time>
      </trkpt>
      <trkpt lat="41.04713880456984043121337890625" lon="-1.37803919613361358642578125">
        <ele>805.4000244140625</ele>
        <time>2022-05-02T12:49:48.000Z</time>
      </trkpt>
      <trkpt lat="41.0471650399267673492431640625" lon="-1.3779927603900432586669921875">
        <ele>805.4000244140625</ele>
        <time>2022-05-02T12:49:50.000Z</time>
      </trkpt>
      <trkpt lat="41.04717736132442951202392578125" lon="-1.37793953530490398406982421875">
        <ele>805.4000244140625</ele>
        <time>2022-05-02T12:49:52.000Z</time>
      </trkpt>
      <trkpt lat="41.0471794568002223968505859375" lon="-1.3779106177389621734619140625">
        <ele>805.4000244140625</ele>
        <time>2022-05-02T12:49:53.000Z</time>
      </trkpt>
      <trkpt lat="41.0471750982105731964111328125" lon="-1.37788287363946437835693359375">
        <ele>805.20001220703125</ele>
        <time>2022-05-02T12:49:54.000Z</time>
      </trkpt>
      <trkpt lat="41.0471465997397899627685546875" lon="-1.377833671867847442626953125">
        <ele>805.20001220703125</ele>
        <time>2022-05-02T12:49:56.000Z</time>
      </trkpt>
      <trkpt lat="41.0471258126199245452880859375" lon="-1.37781925499439239501953125">
        <ele>805.20001220703125</ele>
        <time>2022-05-02T12:49:57.000Z</time>
      </trkpt>
      <trkpt lat="41.04710276238620281219482421875" lon="-1.37781120836734771728515625">
        <ele>805.20001220703125</ele>
        <time>2022-05-02T12:49:58.000Z</time>
      </trkpt>
      <trkpt lat="41.04705682955682277679443359375" lon="-1.37780676595866680145263671875">
        <ele>805.5999755859375</ele>
        <time>2022-05-02T12:50:00.000Z</time>
      </trkpt>
      <trkpt lat="41.0470312647521495819091796875" lon="-1.37780341319739818572998046875">
        <ele>806</ele>
        <time>2022-05-02T12:50:01.000Z</time>
      </trkpt>
      <trkpt lat="41.04700637049973011016845703125" lon="-1.37780173681676387786865234375">
        <ele>806.20001220703125</ele>
        <time>2022-05-02T12:50:02.000Z</time>
      </trkpt>
      <trkpt lat="41.0469625331461429595947265625" lon="-1.377800144255161285400390625">
        <ele>806.5999755859375</ele>
        <time>2022-05-02T12:50:04.000Z</time>
      </trkpt>
      <trkpt lat="41.04692070744931697845458984375" lon="-1.37780156917870044708251953125">
        <ele>807.20001220703125</ele>
        <time>2022-05-02T12:50:06.000Z</time>
      </trkpt>
      <trkpt lat="41.04687494225800037384033203125" lon="-1.37779855169355869293212890625">
        <ele>807.5999755859375</ele>
        <time>2022-05-02T12:50:08.000Z</time>
      </trkpt>
      <trkpt lat="41.04683454148471355438232421875" lon="-1.37779754586517810821533203125">
        <ele>808</ele>
        <time>2022-05-02T12:50:10.000Z</time>
      </trkpt>
      <trkpt lat="41.04679145850241184234619140625" lon="-1.37780576013028621673583984375">
        <ele>808.20001220703125</ele>
        <time>2022-05-02T12:50:12.000Z</time>
      </trkpt>
      <trkpt lat="41.0467707552015781402587890625" lon="-1.37781229801476001739501953125">
        <ele>808.20001220703125</ele>
        <time>2022-05-02T12:50:13.000Z</time>
      </trkpt>
      <trkpt lat="41.04675005190074443817138671875" lon="-1.377821601927280426025390625">
        <ele>808.20001220703125</ele>
        <time>2022-05-02T12:50:14.000Z</time>
      </trkpt>
      <trkpt lat="41.046711914241313934326171875" lon="-1.37784599326550960540771484375">
        <ele>808.4000244140625</ele>
        <time>2022-05-02T12:50:16.000Z</time>
      </trkpt>
      <trkpt lat="41.04669406078755855560302734375" lon="-1.37786041013896465301513671875">
        <ele>808.4000244140625</ele>
        <time>2022-05-02T12:50:17.000Z</time>
      </trkpt>
      <trkpt lat="41.046675704419612884521484375" lon="-1.377875246107578277587890625">
        <ele>808.5999755859375</ele>
        <time>2022-05-02T12:50:18.000Z</time>
      </trkpt>
      <trkpt lat="41.04663857258856296539306640625" lon="-1.37790433131158351898193359375">
        <ele>808.5999755859375</ele>
        <time>2022-05-02T12:50:20.000Z</time>
      </trkpt>
      <trkpt lat="41.0466222278773784637451171875" lon="-1.37791958637535572052001953125">
        <ele>808.79998779296875</ele>
        <time>2022-05-02T12:50:21.000Z</time>
      </trkpt>
      <trkpt lat="41.0466034524142742156982421875" lon="-1.3779337517917156219482421875">
        <ele>808.79998779296875</ele>
        <time>2022-05-02T12:50:22.000Z</time>
      </trkpt>
      <trkpt lat="41.0465647280216217041015625" lon="-1.3779645971953868865966796875">
        <ele>809</ele>
        <time>2022-05-02T12:50:24.000Z</time>
      </trkpt>
      <trkpt lat="41.0465300269424915313720703125" lon="-1.37799787335097789764404296875">
        <ele>809</ele>
        <time>2022-05-02T12:50:26.000Z</time>
      </trkpt>
      <trkpt lat="41.046515442430973052978515625" lon="-1.37801866047084331512451171875">
        <ele>809</ele>
        <time>2022-05-02T12:50:27.000Z</time>
      </trkpt>
      <trkpt lat="41.04650102555751800537109375" lon="-1.37804045341908931732177734375">
        <ele>809.20001220703125</ele>
        <time>2022-05-02T12:50:28.000Z</time>
      </trkpt>
      <trkpt lat="41.0464871115982532501220703125" lon="-1.378063000738620758056640625">
        <ele>809.4000244140625</ele>
        <time>2022-05-02T12:50:29.000Z</time>
      </trkpt>
      <trkpt lat="41.046477891504764556884765625" lon="-1.37808890081942081451416015625">
        <ele>809.4000244140625</ele>
        <time>2022-05-02T12:50:30.000Z</time>
      </trkpt>
      <trkpt lat="41.04646691121160984039306640625" lon="-1.37814137153327465057373046875">
        <ele>809.5999755859375</ele>
        <time>2022-05-02T12:50:32.000Z</time>
      </trkpt>
      <trkpt lat="41.04645651765167713165283203125" lon="-1.37819015420973300933837890625">
        <ele>809.5999755859375</ele>
        <time>2022-05-02T12:50:34.000Z</time>
      </trkpt>
      <trkpt lat="41.04644796811044216156005859375" lon="-1.37821395881474018096923828125">
        <ele>809.5999755859375</ele>
        <time>2022-05-02T12:50:35.000Z</time>
      </trkpt>
      <trkpt lat="41.0464388318359851837158203125" lon="-1.378239691257476806640625">
        <ele>809.79998779296875</ele>
        <time>2022-05-02T12:50:36.000Z</time>
      </trkpt>
      <trkpt lat="41.046426594257354736328125" lon="-1.3782931677997112274169921875">
        <ele>809.79998779296875</ele>
        <time>2022-05-02T12:50:38.000Z</time>
      </trkpt>
      <trkpt lat="41.0464126802980899810791015625" lon="-1.378343291580677032470703125">
        <ele>809.5999755859375</ele>
        <time>2022-05-02T12:50:40.000Z</time>
      </trkpt>
      <trkpt lat="41.04640689678490161895751953125" lon="-1.3783679343760013580322265625">
        <ele>809.4000244140625</ele>
        <time>2022-05-02T12:50:41.000Z</time>
      </trkpt>
      <trkpt lat="41.0463979281485080718994140625" lon="-1.37839165516197681427001953125">
        <ele>809.4000244140625</ele>
        <time>2022-05-02T12:50:42.000Z</time>
      </trkpt>
      <trkpt lat="41.04637521319091320037841796875" lon="-1.37843993492424488067626953125">
        <ele>809.20001220703125</ele>
        <time>2022-05-02T12:50:44.000Z</time>
      </trkpt>
      <trkpt lat="41.046354509890079498291015625" lon="-1.37848469428718090057373046875">
        <ele>809</ele>
        <time>2022-05-02T12:50:46.000Z</time>
      </trkpt>
      <trkpt lat="41.04634319432079792022705078125" lon="-1.3785043917596340179443359375">
        <ele>809</ele>
        <time>2022-05-02T12:50:47.000Z</time>
      </trkpt>
      <trkpt lat="41.04633062146604061126708984375" lon="-1.37852274812757968902587890625">
        <ele>808.79998779296875</ele>
        <time>2022-05-02T12:50:48.000Z</time>
      </trkpt>
      <trkpt lat="41.046303212642669677734375" lon="-1.3785607181489467620849609375">
        <ele>808.79998779296875</ele>
        <time>2022-05-02T12:50:50.000Z</time>
      </trkpt>
      <trkpt lat="41.0462715290486812591552734375" lon="-1.37859642505645751953125">
        <ele>808.79998779296875</ele>
        <time>2022-05-02T12:50:52.000Z</time>
      </trkpt>
      <trkpt lat="41.04623255319893360137939453125" lon="-1.3786247558891773223876953125">
        <ele>809</ele>
        <time>2022-05-02T12:50:54.000Z</time>
      </trkpt>
      <trkpt lat="41.04621193371713161468505859375" lon="-1.3786381669342517852783203125">
        <ele>809.20001220703125</ele>
        <time>2022-05-02T12:50:55.000Z</time>
      </trkpt>
      <trkpt lat="41.04618930257856845855712890625" lon="-1.37865199707448482513427734375">
        <ele>809.20001220703125</ele>
        <time>2022-05-02T12:50:56.000Z</time>
      </trkpt>
      <trkpt lat="41.04614831507205963134765625" lon="-1.378676891326904296875">
        <ele>809.5999755859375</ele>
        <time>2022-05-02T12:50:58.000Z</time>
      </trkpt>
      <trkpt lat="41.04610933922231197357177734375" lon="-1.3787042163312435150146484375">
        <ele>809.79998779296875</ele>
        <time>2022-05-02T12:51:00.000Z</time>
      </trkpt>
      <trkpt lat="41.04606659151613712310791015625" lon="-1.37873925268650054931640625">
        <ele>810</ele>
        <time>2022-05-02T12:51:02.000Z</time>
      </trkpt>
      <trkpt lat="41.046022586524486541748046875" lon="-1.3787739537656307220458984375">
        <ele>810.20001220703125</ele>
        <time>2022-05-02T12:51:04.000Z</time>
      </trkpt>
      <trkpt lat="41.0459811799228191375732421875" lon="-1.3788155280053615570068359375">
        <ele>810.4000244140625</ele>
        <time>2022-05-02T12:51:06.000Z</time>
      </trkpt>
      <trkpt lat="41.045938767492771148681640625" lon="-1.37885651551187038421630859375">
        <ele>810.4000244140625</ele>
        <time>2022-05-02T12:51:08.000Z</time>
      </trkpt>
      <trkpt lat="41.04591764509677886962890625" lon="-1.378875710070133209228515625">
        <ele>810.4000244140625</ele>
        <time>2022-05-02T12:51:09.000Z</time>
      </trkpt>
      <trkpt lat="41.04589710943400859832763671875" lon="-1.37889859266579151153564453125">
        <ele>810.4000244140625</ele>
        <time>2022-05-02T12:51:10.000Z</time>
      </trkpt>
      <trkpt lat="41.04584924876689910888671875" lon="-1.37895424850285053253173828125">
        <ele>810.5999755859375</ele>
        <time>2022-05-02T12:51:12.000Z</time>
      </trkpt>
      <trkpt lat="41.04579216800630092620849609375" lon="-1.37900613248348236083984375">
        <ele>810.79998779296875</ele>
        <time>2022-05-02T12:51:14.000Z</time>
      </trkpt>
      <trkpt lat="41.0457287169992923736572265625" lon="-1.37902532704174518585205078125">
        <ele>811.20001220703125</ele>
        <time>2022-05-02T12:51:16.000Z</time>
      </trkpt>
      <trkpt lat="41.04569862596690654754638671875" lon="-1.37901459820568561553955078125">
        <ele>811.5999755859375</ele>
        <time>2022-05-02T12:51:17.000Z</time>
      </trkpt>
      <trkpt lat="41.04567381553351879119873046875" lon="-1.37899414636194705963134765625">
        <ele>811.79998779296875</ele>
        <time>2022-05-02T12:51:18.000Z</time>
      </trkpt>
      <trkpt lat="41.04564447887241840362548828125" lon="-1.37892876751720905303955078125">
        <ele>812.4000244140625</ele>
        <time>2022-05-02T12:51:20.000Z</time>
      </trkpt>
      <trkpt lat="41.04564883746206760406494140625" lon="-1.37884444557130336761474609375">
        <ele>812.20001220703125</ele>
        <time>2022-05-02T12:51:22.000Z</time>
      </trkpt>
      <trkpt lat="41.04567565955221652984619140625" lon="-1.378745622932910919189453125">
        <ele>811.79998779296875</ele>
        <time>2022-05-02T12:51:24.000Z</time>
      </trkpt>
      <trkpt lat="41.04572025127708911895751953125" lon="-1.3786274380981922149658203125">
        <ele>811.20001220703125</ele>
        <time>2022-05-02T12:51:26.000Z</time>
      </trkpt>
      <trkpt lat="41.04574707336723804473876953125" lon="-1.37856465764343738555908203125">
        <ele>811</ele>
        <time>2022-05-02T12:51:27.000Z</time>
      </trkpt>
      <trkpt lat="41.0457756556570529937744140625" lon="-1.3784953393042087554931640625">
        <ele>810.5999755859375</ele>
        <time>2022-05-02T12:51:28.000Z</time>
      </trkpt>
      <trkpt lat="41.04580390267074108123779296875" lon="-1.378416381776332855224609375">
        <ele>810.20001220703125</ele>
        <time>2022-05-02T12:51:29.000Z</time>
      </trkpt>
      <trkpt lat="41.045832820236682891845703125" lon="-1.37833063490688800811767578125">
        <ele>809.5999755859375</ele>
        <time>2022-05-02T12:51:30.000Z</time>
      </trkpt>
      <trkpt lat="41.0458889789879322052001953125" lon="-1.37813969515264034271240234375">
        <ele>808.5999755859375</ele>
        <time>2022-05-02T12:51:32.000Z</time>
      </trkpt>
      <trkpt lat="41.0459432937204837799072265625" lon="-1.37794054113328456878662109375">
        <ele>806.79998779296875</ele>
        <time>2022-05-02T12:51:34.000Z</time>
      </trkpt>
      <trkpt lat="41.04598729871213436126708984375" lon="-1.3777413032948970794677734375">
        <ele>805</ele>
        <time>2022-05-02T12:51:36.000Z</time>
      </trkpt>
      <trkpt lat="41.0460153780877590179443359375" lon="-1.37754969298839569091796875">
        <ele>804</ele>
        <time>2022-05-02T12:51:38.000Z</time>
      </trkpt>
      <trkpt lat="41.046025268733501434326171875" lon="-1.37735146097838878631591796875">
        <ele>802.4000244140625</ele>
        <time>2022-05-02T12:51:40.000Z</time>
      </trkpt>
      <trkpt lat="41.0460287891328334808349609375" lon="-1.37725288979709148406982421875">
        <ele>801.79998779296875</ele>
        <time>2022-05-02T12:51:41.000Z</time>
      </trkpt>
      <trkpt lat="41.046033985912799835205078125" lon="-1.3771545700728893280029296875">
        <ele>801.20001220703125</ele>
        <time>2022-05-02T12:51:42.000Z</time>
      </trkpt>
      <trkpt lat="41.04604446329176425933837890625" lon="-1.37695566751062870025634765625">
        <ele>799.79998779296875</ele>
        <time>2022-05-02T12:51:44.000Z</time>
      </trkpt>
      <trkpt lat="41.0460572876036167144775390625" lon="-1.37676523067057132720947265625">
        <ele>799</ele>
        <time>2022-05-02T12:51:46.000Z</time>
      </trkpt>
      <trkpt lat="41.04606784880161285400390625" lon="-1.37657429091632366180419921875">
        <ele>798.4000244140625</ele>
        <time>2022-05-02T12:51:48.000Z</time>
      </trkpt>
      <trkpt lat="41.0460710339248180389404296875" lon="-1.37648326344788074493408203125">
        <ele>798</ele>
        <time>2022-05-02T12:51:49.000Z</time>
      </trkpt>
      <trkpt lat="41.04607061482965946197509765625" lon="-1.37639977969229221343994140625">
        <ele>797.79998779296875</ele>
        <time>2022-05-02T12:51:50.000Z</time>
      </trkpt>
      <trkpt lat="41.04606776498258113861083984375" lon="-1.37625963427126407623291015625">
        <ele>796.5999755859375</ele>
        <time>2022-05-02T12:51:52.000Z</time>
      </trkpt>
      <trkpt lat="41.046070866286754608154296875" lon="-1.3761970214545726776123046875">
        <ele>796</ele>
        <time>2022-05-02T12:51:53.000Z</time>
      </trkpt>
      <trkpt lat="41.04608260095119476318359375" lon="-1.37613826431334018707275390625">
        <ele>795.4000244140625</ele>
        <time>2022-05-02T12:51:54.000Z</time>
      </trkpt>
      <trkpt lat="41.0461209900677204132080078125" lon="-1.3760136254131793975830078125">
        <ele>794</ele>
        <time>2022-05-02T12:51:56.000Z</time>
      </trkpt>
      <trkpt lat="41.0461401008069515228271484375" lon="-1.37594061903655529022216796875">
        <ele>793.20001220703125</ele>
        <time>2022-05-02T12:51:57.000Z</time>
      </trkpt>
      <trkpt lat="41.04615636169910430908203125" lon="-1.3758657686412334442138671875">
        <ele>792.4000244140625</ele>
        <time>2022-05-02T12:51:58.000Z</time>
      </trkpt>
      <trkpt lat="41.04619684629142284393310546875" lon="-1.3757278025150299072265625">
        <ele>791.4000244140625</ele>
        <time>2022-05-02T12:52:00.000Z</time>
      </trkpt>
      <trkpt lat="41.046226434409618377685546875" lon="-1.3756646029651165008544921875">
        <ele>791</ele>
        <time>2022-05-02T12:52:01.000Z</time>
      </trkpt>
      <trkpt lat="41.046256609261035919189453125" lon="-1.375600062310695648193359375">
        <ele>790.5999755859375</ele>
        <time>2022-05-02T12:52:02.000Z</time>
      </trkpt>
      <trkpt lat="41.04628150351345539093017578125" lon="-1.3755325041711330413818359375">
        <ele>790</ele>
        <time>2022-05-02T12:52:03.000Z</time>
      </trkpt>
      <trkpt lat="41.046296842396259307861328125" lon="-1.3754600845277309417724609375">
        <ele>789.5999755859375</ele>
        <time>2022-05-02T12:52:04.000Z</time>
      </trkpt>
      <trkpt lat="41.0463265143334865570068359375" lon="-1.3753120601177215576171875">
        <ele>788.79998779296875</ele>
        <time>2022-05-02T12:52:06.000Z</time>
      </trkpt>
      <trkpt lat="41.04636481963098049163818359375" lon="-1.3751673884689807891845703125">
        <ele>788</ele>
        <time>2022-05-02T12:52:08.000Z</time>
      </trkpt>
      <trkpt lat="41.04638837277889251708984375" lon="-1.375099159777164459228515625">
        <ele>787.5999755859375</ele>
        <time>2022-05-02T12:52:09.000Z</time>
      </trkpt>
      <trkpt lat="41.046411506831645965576171875" lon="-1.37503487057983875274658203125">
        <ele>787.20001220703125</ele>
        <time>2022-05-02T12:52:10.000Z</time>
      </trkpt>
      <trkpt lat="41.04642927646636962890625" lon="-1.37497619725763797760009765625">
        <ele>786.79998779296875</ele>
        <time>2022-05-02T12:52:11.000Z</time>
      </trkpt>
      <trkpt lat="41.0464359819889068603515625" lon="-1.3749258220195770263671875">
        <ele>786.79998779296875</ele>
        <time>2022-05-02T12:52:12.000Z</time>
      </trkpt>
      <trkpt lat="41.04643153958022594451904296875" lon="-1.37489019893109798431396484375">
        <ele>787</ele>
        <time>2022-05-02T12:52:13.000Z</time>
      </trkpt>
      <trkpt lat="41.0464167036116123199462890625" lon="-1.37486480176448822021484375">
        <ele>787.20001220703125</ele>
        <time>2022-05-02T12:52:14.000Z</time>
      </trkpt>
      <trkpt lat="41.04636414907872676849365234375" lon="-1.37482716701924800872802734375">
        <ele>787.79998779296875</ele>
        <time>2022-05-02T12:52:16.000Z</time>
      </trkpt>
      <trkpt lat="41.04632928036153316497802734375" lon="-1.3748116604983806610107421875">
        <ele>788</ele>
        <time>2022-05-02T12:52:17.000Z</time>
      </trkpt>
      <trkpt lat="41.04628770612180233001708984375" lon="-1.3747982494533061981201171875">
        <ele>788.4000244140625</ele>
        <time>2022-05-02T12:52:18.000Z</time>
      </trkpt>
      <trkpt lat="41.04623909108340740203857421875" lon="-1.3747878558933734893798828125">
        <ele>788.79998779296875</ele>
        <time>2022-05-02T12:52:19.000Z</time>
      </trkpt>
      <trkpt lat="41.04618980549275875091552734375" lon="-1.37478307820856571197509765625">
        <ele>789.4000244140625</ele>
        <time>2022-05-02T12:52:20.000Z</time>
      </trkpt>
      <trkpt lat="41.04609140194952487945556640625" lon="-1.37478861026465892791748046875">
        <ele>790.4000244140625</ele>
        <time>2022-05-02T12:52:22.000Z</time>
      </trkpt>
      <trkpt lat="41.04604111053049564361572265625" lon="-1.3747928850352764129638671875">
        <ele>791</ele>
        <time>2022-05-02T12:52:23.000Z</time>
      </trkpt>
      <trkpt lat="41.04598863981664180755615234375" lon="-1.37479699216783046722412109375">
        <ele>791.5999755859375</ele>
        <time>2022-05-02T12:52:24.000Z</time>
      </trkpt>
      <trkpt lat="41.0458816029131412506103515625" lon="-1.374798081815242767333984375">
        <ele>792</ele>
        <time>2022-05-02T12:52:26.000Z</time>
      </trkpt>
      <trkpt lat="41.04577758349478244781494140625" lon="-1.374786011874675750732421875">
        <ele>792</ele>
        <time>2022-05-02T12:52:28.000Z</time>
      </trkpt>
      <trkpt lat="41.04572695679962635040283203125" lon="-1.374771930277347564697265625">
        <ele>792</ele>
        <time>2022-05-02T12:52:29.000Z</time>
      </trkpt>
      <trkpt lat="41.04567750357091426849365234375" lon="-1.37475759722292423248291015625">
        <ele>792</ele>
        <time>2022-05-02T12:52:30.000Z</time>
      </trkpt>
      <trkpt lat="41.0455872304737567901611328125" lon="-1.37472390197217464447021484375">
        <ele>791.5999755859375</ele>
        <time>2022-05-02T12:52:32.000Z</time>
      </trkpt>
      <trkpt lat="41.04549678973853588104248046875" lon="-1.3746889494359493255615234375">
        <ele>791.20001220703125</ele>
        <time>2022-05-02T12:52:34.000Z</time>
      </trkpt>
      <trkpt lat="41.04545370675623416900634765625" lon="-1.374671347439289093017578125">
        <ele>791.20001220703125</ele>
        <time>2022-05-02T12:52:35.000Z</time>
      </trkpt>
      <trkpt lat="41.04541431181132793426513671875" lon="-1.37465634383261203765869140625">
        <ele>790.79998779296875</ele>
        <time>2022-05-02T12:52:36.000Z</time>
      </trkpt>
      <trkpt lat="41.045341305434703826904296875" lon="-1.3746218942105770111083984375">
        <ele>790.20001220703125</ele>
        <time>2022-05-02T12:52:38.000Z</time>
      </trkpt>
      <trkpt lat="41.04526712559163570404052734375" lon="-1.37456984259188175201416015625">
        <ele>789.4000244140625</ele>
        <time>2022-05-02T12:52:40.000Z</time>
      </trkpt>
      <trkpt lat="41.04523208923637866973876953125" lon="-1.37453757226467132568359375">
        <ele>789</ele>
        <time>2022-05-02T12:52:41.000Z</time>
      </trkpt>
      <trkpt lat="41.04519353248178958892822265625" lon="-1.3745045475661754608154296875">
        <ele>788.5999755859375</ele>
        <time>2022-05-02T12:52:42.000Z</time>
      </trkpt>
      <trkpt lat="41.04510954581201076507568359375" lon="-1.37447227723896503448486328125">
        <ele>788.4000244140625</ele>
        <time>2022-05-02T12:52:44.000Z</time>
      </trkpt>
      <trkpt lat="41.0450675524771213531494140625" lon="-1.374474205076694488525390625">
        <ele>788.5999755859375</ele>
        <time>2022-05-02T12:52:45.000Z</time>
      </trkpt>
      <trkpt lat="41.0450313426554203033447265625" lon="-1.3744854368269443511962890625">
        <ele>788.79998779296875</ele>
        <time>2022-05-02T12:52:46.000Z</time>
      </trkpt>
      <trkpt lat="41.04496554471552371978759765625" lon="-1.3745033740997314453125">
        <ele>789</ele>
        <time>2022-05-02T12:52:48.000Z</time>
      </trkpt>
      <trkpt lat="41.0449267365038394927978515625" lon="-1.3745072297751903533935546875">
        <ele>789.20001220703125</ele>
        <time>2022-05-02T12:52:49.000Z</time>
      </trkpt>
      <trkpt lat="41.044880636036396026611328125" lon="-1.3745020329952239990234375">
        <ele>789.4000244140625</ele>
        <time>2022-05-02T12:52:50.000Z</time>
      </trkpt>
      <trkpt lat="41.04477795772254467010498046875" lon="-1.37448728084564208984375">
        <ele>790</ele>
        <time>2022-05-02T12:52:52.000Z</time>
      </trkpt>
      <trkpt lat="41.0446866787970066070556640625" lon="-1.37447931803762912750244140625">
        <ele>790.20001220703125</ele>
        <time>2022-05-02T12:52:54.000Z</time>
      </trkpt>
      <trkpt lat="41.04464468546211719512939453125" lon="-1.37446858920156955718994140625">
        <ele>790.20001220703125</ele>
        <time>2022-05-02T12:52:55.000Z</time>
      </trkpt>
      <trkpt lat="41.044604368507862091064453125" lon="-1.37445216067135334014892578125">
        <ele>790.20001220703125</ele>
        <time>2022-05-02T12:52:56.000Z</time>
      </trkpt>
      <trkpt lat="41.044523902237415313720703125" lon="-1.3744026236236095428466796875">
        <ele>790.20001220703125</ele>
        <time>2022-05-02T12:52:58.000Z</time>
      </trkpt>
      <trkpt lat="41.044447124004364013671875" lon="-1.3743439503014087677001953125">
        <ele>790.5999755859375</ele>
        <time>2022-05-02T12:53:00.000Z</time>
      </trkpt>
      <trkpt lat="41.04441066272556781768798828125" lon="-1.37430430389940738677978515625">
        <ele>790.5999755859375</ele>
        <time>2022-05-02T12:53:01.000Z</time>
      </trkpt>
      <trkpt lat="41.04437537491321563720703125" lon="-1.37425904162228107452392578125">
        <ele>790.4000244140625</ele>
        <time>2022-05-02T12:53:02.000Z</time>
      </trkpt>
      <trkpt lat="41.044305972754955291748046875" lon="-1.37416751123964786529541015625">
        <ele>790.20001220703125</ele>
        <time>2022-05-02T12:53:04.000Z</time>
      </trkpt>
      <trkpt lat="41.0442360676825046539306640625" lon="-1.37408419512212276458740234375">
        <ele>790.20001220703125</ele>
        <time>2022-05-02T12:53:06.000Z</time>
      </trkpt>
      <trkpt lat="41.04416792280972003936767578125" lon="-1.374010853469371795654296875">
        <ele>790.5999755859375</ele>
        <time>2022-05-02T12:53:08.000Z</time>
      </trkpt>
      <trkpt lat="41.0441341437399387359619140625" lon="-1.37397757731378078460693359375">
        <ele>790.4000244140625</ele>
        <time>2022-05-02T12:53:09.000Z</time>
      </trkpt>
      <trkpt lat="41.044100783765316009521484375" lon="-1.37394673191010951995849609375">
        <ele>790.4000244140625</ele>
        <time>2022-05-02T12:53:10.000Z</time>
      </trkpt>
      <trkpt lat="41.0440338961780071258544921875" lon="-1.37388638220727443695068359375">
        <ele>790.20001220703125</ele>
        <time>2022-05-02T12:53:12.000Z</time>
      </trkpt>
      <trkpt lat="41.04396726004779338836669921875" lon="-1.3738269545137882232666015625">
        <ele>790.20001220703125</ele>
        <time>2022-05-02T12:53:14.000Z</time>
      </trkpt>
      <trkpt lat="41.04389735497534275054931640625" lon="-1.37377657927572727203369140625">
        <ele>790.20001220703125</ele>
        <time>2022-05-02T12:53:16.000Z</time>
      </trkpt>
      <trkpt lat="41.04382552206516265869140625" lon="-1.37373047880828380584716796875">
        <ele>790.20001220703125</ele>
        <time>2022-05-02T12:53:18.000Z</time>
      </trkpt>
      <trkpt lat="41.04375653900206089019775390625" lon="-1.37369577772915363311767578125">
        <ele>789.79998779296875</ele>
        <time>2022-05-02T12:53:20.000Z</time>
      </trkpt>
      <trkpt lat="41.04372368194162845611572265625" lon="-1.3736774213612079620361328125">
        <ele>789.79998779296875</ele>
        <time>2022-05-02T12:53:21.000Z</time>
      </trkpt>
      <trkpt lat="41.0436920821666717529296875" lon="-1.3736576400697231292724609375">
        <ele>789.79998779296875</ele>
        <time>2022-05-02T12:53:22.000Z</time>
      </trkpt>
      <trkpt lat="41.043660901486873626708984375" lon="-1.373638696968555450439453125">
        <ele>789.79998779296875</ele>
        <time>2022-05-02T12:53:23.000Z</time>
      </trkpt>
      <trkpt lat="41.04362946934998035430908203125" lon="-1.3736190833151340484619140625">
        <ele>789.79998779296875</ele>
        <time>2022-05-02T12:53:24.000Z</time>
      </trkpt>
      <trkpt lat="41.043562330305576324462890625" lon="-1.37358329258859157562255859375">
        <ele>789.79998779296875</ele>
        <time>2022-05-02T12:53:26.000Z</time>
      </trkpt>
      <trkpt lat="41.04349871166050434112548828125" lon="-1.37355278246104717254638671875">
        <ele>789.79998779296875</ele>
        <time>2022-05-02T12:53:28.000Z</time>
      </trkpt>
      <trkpt lat="41.04346719570457935333251953125" lon="-1.37353710830211639404296875">
        <ele>790</ele>
        <time>2022-05-02T12:53:29.000Z</time>
      </trkpt>
      <trkpt lat="41.043435595929622650146484375" lon="-1.37352629564702510833740234375">
        <ele>790</ele>
        <time>2022-05-02T12:53:30.000Z</time>
      </trkpt>
      <trkpt lat="41.0433661937713623046875" lon="-1.37350802309811115264892578125">
        <ele>790.20001220703125</ele>
        <time>2022-05-02T12:53:32.000Z</time>
      </trkpt>
      <trkpt lat="41.04330458678305149078369140625" lon="-1.37348505668342113494873046875">
        <ele>790.4000244140625</ele>
        <time>2022-05-02T12:53:34.000Z</time>
      </trkpt>
      <trkpt lat="41.04324943386018276214599609375" lon="-1.37346074916422367095947265625">
        <ele>790.4000244140625</ele>
        <time>2022-05-02T12:53:36.000Z</time>
      </trkpt>
      <trkpt lat="41.04319411329925060272216796875" lon="-1.3734304904937744140625">
        <ele>790.5999755859375</ele>
        <time>2022-05-02T12:53:38.000Z</time>
      </trkpt>
      <trkpt lat="41.04312504641711711883544921875" lon="-1.37338749133050441741943359375">
        <ele>790.5999755859375</ele>
        <time>2022-05-02T12:53:40.000Z</time>
      </trkpt>
      <trkpt lat="41.04308363981544971466064453125" lon="-1.37336276471614837646484375">
        <ele>790.4000244140625</ele>
        <time>2022-05-02T12:53:41.000Z</time>
      </trkpt>
      <trkpt lat="41.043038628995418548583984375" lon="-1.373337619006633758544921875">
        <ele>790.20001220703125</ele>
        <time>2022-05-02T12:53:42.000Z</time>
      </trkpt>
      <trkpt lat="41.04294047690927982330322265625" lon="-1.37329864315688610076904296875">
        <ele>790</ele>
        <time>2022-05-02T12:53:44.000Z</time>
      </trkpt>
      <trkpt lat="41.04282732121646404266357421875" lon="-1.3732734136283397674560546875">
        <ele>789.79998779296875</ele>
        <time>2022-05-02T12:53:46.000Z</time>
      </trkpt>
      <trkpt lat="41.0427139140665531158447265625" lon="-1.3732606731355190277099609375">
        <ele>789.79998779296875</ele>
        <time>2022-05-02T12:53:48.000Z</time>
      </trkpt>
      <trkpt lat="41.04265968315303325653076171875" lon="-1.373258493840694427490234375">
        <ele>789.79998779296875</ele>
        <time>2022-05-02T12:53:49.000Z</time>
      </trkpt>
      <trkpt lat="41.0426059551537036895751953125" lon="-1.37325254268944263458251953125">
        <ele>789.79998779296875</ele>
        <time>2022-05-02T12:53:50.000Z</time>
      </trkpt>
      <trkpt lat="41.0425548255443572998046875" lon="-1.37324298731982707977294921875">
        <ele>790</ele>
        <time>2022-05-02T12:53:51.000Z</time>
      </trkpt>
      <trkpt lat="41.04250562377274036407470703125" lon="-1.37322538532316684722900390625">
        <ele>790</ele>
        <time>2022-05-02T12:53:52.000Z</time>
      </trkpt>
      <trkpt lat="41.04245918802917003631591796875" lon="-1.373200155794620513916015625">
        <ele>790</ele>
        <time>2022-05-02T12:53:53.000Z</time>
      </trkpt>
      <trkpt lat="41.0424158535897731781005859375" lon="-1.373168639838695526123046875">
        <ele>790</ele>
        <time>2022-05-02T12:53:54.000Z</time>
      </trkpt>
      <trkpt lat="41.04233781807124614715576171875" lon="-1.373089849948883056640625">
        <ele>789.79998779296875</ele>
        <time>2022-05-02T12:53:56.000Z</time>
      </trkpt>
      <trkpt lat="41.04226774536073207855224609375" lon="-1.3729964755475521087646484375">
        <ele>789.79998779296875</ele>
        <time>2022-05-02T12:53:58.000Z</time>
      </trkpt>
      <trkpt lat="41.0421942360699176788330078125" lon="-1.37289614416658878326416015625">
        <ele>790.79998779296875</ele>
        <time>2022-05-02T12:54:00.000Z</time>
      </trkpt>
      <trkpt lat="41.0421208105981349945068359375" lon="-1.37279170565307140350341796875">
        <ele>791.5999755859375</ele>
        <time>2022-05-02T12:54:02.000Z</time>
      </trkpt>
      <trkpt lat="41.0420480556786060333251953125" lon="-1.3726846687495708465576171875">
        <ele>792.20001220703125</ele>
        <time>2022-05-02T12:54:04.000Z</time>
      </trkpt>
      <trkpt lat="41.041979156434535980224609375" lon="-1.37257964350283145904541015625">
        <ele>792.4000244140625</ele>
        <time>2022-05-02T12:54:06.000Z</time>
      </trkpt>
      <trkpt lat="41.0419280268251895904541015625" lon="-1.3724664039909839630126953125">
        <ele>792</ele>
        <time>2022-05-02T12:54:08.000Z</time>
      </trkpt>
      <trkpt lat="41.04190749116241931915283203125" lon="-1.37240982614457607269287109375">
        <ele>791.79998779296875</ele>
        <time>2022-05-02T12:54:09.000Z</time>
      </trkpt>
      <trkpt lat="41.04188628494739532470703125" lon="-1.37235132046043872833251953125">
        <ele>791.5999755859375</ele>
        <time>2022-05-02T12:54:10.000Z</time>
      </trkpt>
      <trkpt lat="41.04186407290399074554443359375" lon="-1.37229264713823795318603515625">
        <ele>791.4000244140625</ele>
        <time>2022-05-02T12:54:11.000Z</time>
      </trkpt>
      <trkpt lat="41.041845045983791351318359375" lon="-1.372231878340244293212890625">
        <ele>791.20001220703125</ele>
        <time>2022-05-02T12:54:12.000Z</time>
      </trkpt>
      <trkpt lat="41.0418261028826236724853515625" lon="-1.37217211537063121795654296875">
        <ele>791</ele>
        <time>2022-05-02T12:54:13.000Z</time>
      </trkpt>
      <trkpt lat="41.04180841706693172454833984375" lon="-1.372114531695842742919921875">
        <ele>790.4000244140625</ele>
        <time>2022-05-02T12:54:14.000Z</time>
      </trkpt>
      <trkpt lat="41.04178838431835174560546875" lon="-1.37205921113491058349609375">
        <ele>790</ele>
        <time>2022-05-02T12:54:15.000Z</time>
      </trkpt>
      <trkpt lat="41.0417657531797885894775390625" lon="-1.37200531549751758575439453125">
        <ele>789.5999755859375</ele>
        <time>2022-05-02T12:54:16.000Z</time>
      </trkpt>
      <trkpt lat="41.04174018837511539459228515625" lon="-1.37195485644042491912841796875">
        <ele>789.5999755859375</ele>
        <time>2022-05-02T12:54:17.000Z</time>
      </trkpt>
      <trkpt lat="41.04171353392302989959716796875" lon="-1.37190724723041057586669921875">
        <ele>789.79998779296875</ele>
        <time>2022-05-02T12:54:18.000Z</time>
      </trkpt>
      <trkpt lat="41.04165486060082912445068359375" lon="-1.37183566577732563018798828125">
        <ele>790.4000244140625</ele>
        <time>2022-05-02T12:54:20.000Z</time>
      </trkpt>
      <trkpt lat="41.04159258306026458740234375" lon="-1.371773220598697662353515625">
        <ele>791.20001220703125</ele>
        <time>2022-05-02T12:54:22.000Z</time>
      </trkpt>
      <trkpt lat="41.0415270365774631500244140625" lon="-1.371705494821071624755859375">
        <ele>791.79998779296875</ele>
        <time>2022-05-02T12:54:24.000Z</time>
      </trkpt>
      <trkpt lat="41.04146475903689861297607421875" lon="-1.37163030914962291717529296875">
        <ele>792</ele>
        <time>2022-05-02T12:54:26.000Z</time>
      </trkpt>
      <trkpt lat="41.041403152048587799072265625" lon="-1.371559314429759979248046875">
        <ele>792</ele>
        <time>2022-05-02T12:54:28.000Z</time>
      </trkpt>
      <trkpt lat="41.04134271852672100067138671875" lon="-1.371488235890865325927734375">
        <ele>791.79998779296875</ele>
        <time>2022-05-02T12:54:30.000Z</time>
      </trkpt>
      <trkpt lat="41.04128102771937847137451171875" lon="-1.3714153133332729339599609375">
        <ele>791.20001220703125</ele>
        <time>2022-05-02T12:54:32.000Z</time>
      </trkpt>
      <trkpt lat="41.04122780263423919677734375" lon="-1.37135186232626438140869140625">
        <ele>790.79998779296875</ele>
        <time>2022-05-02T12:54:34.000Z</time>
      </trkpt>
      <trkpt lat="41.0411713086068630218505859375" lon="-1.371284388005733489990234375">
        <ele>790.5999755859375</ele>
        <time>2022-05-02T12:54:36.000Z</time>
      </trkpt>
      <trkpt lat="41.0411133058369159698486328125" lon="-1.37121590785682201385498046875">
        <ele>790.4000244140625</ele>
        <time>2022-05-02T12:54:38.000Z</time>
      </trkpt>
      <trkpt lat="41.04105345904827117919921875" lon="-1.37114566750824451446533203125">
        <ele>789.20001220703125</ele>
        <time>2022-05-02T12:54:40.000Z</time>
      </trkpt>
      <trkpt lat="41.04099805466830730438232421875" lon="-1.37108020484447479248046875">
        <ele>788.20001220703125</ele>
        <time>2022-05-02T12:54:42.000Z</time>
      </trkpt>
      <trkpt lat="41.04097089730203151702880859375" lon="-1.37104810215532779693603515625">
        <ele>788</ele>
        <time>2022-05-02T12:54:43.000Z</time>
      </trkpt>
      <trkpt lat="41.0409414768218994140625" lon="-1.37102077715098857879638671875">
        <ele>788.20001220703125</ele>
        <time>2022-05-02T12:54:44.000Z</time>
      </trkpt>
      <trkpt lat="41.04088389314711093902587890625" lon="-1.37097216211259365081787109375">
        <ele>788.4000244140625</ele>
        <time>2022-05-02T12:54:46.000Z</time>
      </trkpt>
      <trkpt lat="41.0408363677561283111572265625" lon="-1.370921619236469268798828125">
        <ele>788.4000244140625</ele>
        <time>2022-05-02T12:54:48.000Z</time>
      </trkpt>
      <trkpt lat="41.0407756827771663665771484375" lon="-1.3708738423883914947509765625">
        <ele>788.20001220703125</ele>
        <time>2022-05-02T12:54:50.000Z</time>
      </trkpt>
      <trkpt lat="41.04069462977349758148193359375" lon="-1.3708295859396457672119140625">
        <ele>788.4000244140625</ele>
        <time>2022-05-02T12:54:52.000Z</time>
      </trkpt>
      <trkpt lat="41.04064836166799068450927734375" lon="-1.370812319219112396240234375">
        <ele>788.5999755859375</ele>
        <time>2022-05-02T12:54:53.000Z</time>
      </trkpt>
      <trkpt lat="41.04060150682926177978515625" lon="-1.37080234475433826446533203125">
        <ele>788.79998779296875</ele>
        <time>2022-05-02T12:54:54.000Z</time>
      </trkpt>
      <trkpt lat="41.0405071265995502471923828125" lon="-1.37079379521310329437255859375">
        <ele>789.4000244140625</ele>
        <time>2022-05-02T12:54:56.000Z</time>
      </trkpt>
      <trkpt lat="41.0404224693775177001953125" lon="-1.370787508785724639892578125">
        <ele>790</ele>
        <time>2022-05-02T12:54:58.000Z</time>
      </trkpt>
      <trkpt lat="41.040384583175182342529296875" lon="-1.37078524567186832427978515625">
        <ele>790</ele>
        <time>2022-05-02T12:54:59.000Z</time>
      </trkpt>
      <trkpt lat="41.04034828953444957733154296875" lon="-1.370780132710933685302734375">
        <ele>789.79998779296875</ele>
        <time>2022-05-02T12:55:00.000Z</time>
      </trkpt>
      <trkpt lat="41.04030788876116275787353515625" lon="-1.37076613493263721466064453125">
        <ele>789.79998779296875</ele>
        <time>2022-05-02T12:55:01.000Z</time>
      </trkpt>
      <trkpt lat="41.0402684099972248077392578125" lon="-1.37074769474565982818603515625">
        <ele>789.5999755859375</ele>
        <time>2022-05-02T12:55:02.000Z</time>
      </trkpt>
      <trkpt lat="41.040186099708080291748046875" lon="-1.3707075454294681549072265625">
        <ele>789.5999755859375</ele>
        <time>2022-05-02T12:55:04.000Z</time>
      </trkpt>
      <trkpt lat="41.0401430167257785797119140625" lon="-1.37067996896803379058837890625">
        <ele>789.5999755859375</ele>
        <time>2022-05-02T12:55:05.000Z</time>
      </trkpt>
      <trkpt lat="41.04010320268571376800537109375" lon="-1.3706458546221256256103515625">
        <ele>789.79998779296875</ele>
        <time>2022-05-02T12:55:06.000Z</time>
      </trkpt>
      <trkpt lat="41.04002810083329677581787109375" lon="-1.37056111358106136322021484375">
        <ele>790.4000244140625</ele>
        <time>2022-05-02T12:55:08.000Z</time>
      </trkpt>
      <trkpt lat="41.0399921424686908721923828125" lon="-1.3705109059810638427734375">
        <ele>790.79998779296875</ele>
        <time>2022-05-02T12:55:09.000Z</time>
      </trkpt>
      <trkpt lat="41.039960123598575592041015625" lon="-1.3704587705433368682861328125">
        <ele>791.20001220703125</ele>
        <time>2022-05-02T12:55:10.000Z</time>
      </trkpt>
      <trkpt lat="41.0398994386196136474609375" lon="-1.3703487999737262725830078125">
        <ele>792.79998779296875</ele>
        <time>2022-05-02T12:55:12.000Z</time>
      </trkpt>
      <trkpt lat="41.03983682580292224884033203125" lon="-1.37023522518575191497802734375">
        <ele>794</ele>
        <time>2022-05-02T12:55:14.000Z</time>
      </trkpt>
      <trkpt lat="41.03980698622763156890869140625" lon="-1.37018158100545406341552734375">
        <ele>794.20001220703125</ele>
        <time>2022-05-02T12:55:15.000Z</time>
      </trkpt>
      <trkpt lat="41.03977781720459461212158203125" lon="-1.37012760154902935028076171875">
        <ele>794.4000244140625</ele>
        <time>2022-05-02T12:55:16.000Z</time>
      </trkpt>
      <trkpt lat="41.039726100862026214599609375" lon="-1.37002031318843364715576171875">
        <ele>794.79998779296875</ele>
        <time>2022-05-02T12:55:18.000Z</time>
      </trkpt>
      <trkpt lat="41.0396903939545154571533203125" lon="-1.36991076171398162841796875">
        <ele>794.79998779296875</ele>
        <time>2022-05-02T12:55:20.000Z</time>
      </trkpt>
      <trkpt lat="41.03966717608273029327392578125" lon="-1.36980121023952960968017578125">
        <ele>794.4000244140625</ele>
        <time>2022-05-02T12:55:22.000Z</time>
      </trkpt>
      <trkpt lat="41.03965594433248043060302734375" lon="-1.36968470178544521331787109375">
        <ele>794</ele>
        <time>2022-05-02T12:55:24.000Z</time>
      </trkpt>
      <trkpt lat="41.03965644724667072296142578125" lon="-1.3696222566068172454833984375">
        <ele>793.5999755859375</ele>
        <time>2022-05-02T12:55:25.000Z</time>
      </trkpt>
      <trkpt lat="41.03965912945568561553955078125" lon="-1.3695598952472209930419921875">
        <ele>793</ele>
        <time>2022-05-02T12:55:26.000Z</time>
      </trkpt>
      <trkpt lat="41.039661057293415069580078125" lon="-1.36943274177610874176025390625">
        <ele>792.20001220703125</ele>
        <time>2022-05-02T12:55:28.000Z</time>
      </trkpt>
      <trkpt lat="41.03964270092546939849853515625" lon="-1.369308270514011383056640625">
        <ele>792</ele>
        <time>2022-05-02T12:55:30.000Z</time>
      </trkpt>
      <trkpt lat="41.039624176919460296630859375" lon="-1.36925093829631805419921875">
        <ele>791.5999755859375</ele>
        <time>2022-05-02T12:55:31.000Z</time>
      </trkpt>
      <trkpt lat="41.0396032221615314483642578125" lon="-1.36919989250600337982177734375">
        <ele>791.4000244140625</ele>
        <time>2022-05-02T12:55:32.000Z</time>
      </trkpt>
      <trkpt lat="41.0395623184740543365478515625" lon="-1.36909947730600833892822265625">
        <ele>791.20001220703125</ele>
        <time>2022-05-02T12:55:34.000Z</time>
      </trkpt>
      <trkpt lat="41.03952216915786266326904296875" lon="-1.3689949549734592437744140625">
        <ele>792</ele>
        <time>2022-05-02T12:55:36.000Z</time>
      </trkpt>
      <trkpt lat="41.03948260657489299774169921875" lon="-1.36888942681252956390380859375">
        <ele>792.4000244140625</ele>
        <time>2022-05-02T12:55:38.000Z</time>
      </trkpt>
      <trkpt lat="41.03944279253482818603515625" lon="-1.3687874190509319305419921875">
        <ele>793</ele>
        <time>2022-05-02T12:55:40.000Z</time>
      </trkpt>
      <trkpt lat="41.0394020564854145050048828125" lon="-1.3686935417354106903076171875">
        <ele>793.20001220703125</ele>
        <time>2022-05-02T12:55:42.000Z</time>
      </trkpt>
      <trkpt lat="41.0393537767231464385986328125" lon="-1.3686199486255645751953125">
        <ele>793.20001220703125</ele>
        <time>2022-05-02T12:55:44.000Z</time>
      </trkpt>
      <trkpt lat="41.0393279604613780975341796875" lon="-1.3685875944793224334716796875">
        <ele>793</ele>
        <time>2022-05-02T12:55:45.000Z</time>
      </trkpt>
      <trkpt lat="41.03930155746638774871826171875" lon="-1.36856135912239551544189453125">
        <ele>793</ele>
        <time>2022-05-02T12:55:46.000Z</time>
      </trkpt>
      <trkpt lat="41.0392468236386775970458984375" lon="-1.3685207068920135498046875">
        <ele>793</ele>
        <time>2022-05-02T12:55:48.000Z</time>
      </trkpt>
      <trkpt lat="41.03919896297156810760498046875" lon="-1.36848173104226589202880859375">
        <ele>793</ele>
        <time>2022-05-02T12:55:50.000Z</time>
      </trkpt>
      <trkpt lat="41.03914238512516021728515625" lon="-1.36842775158584117889404296875">
        <ele>792.79998779296875</ele>
        <time>2022-05-02T12:55:52.000Z</time>
      </trkpt>
      <trkpt lat="41.03907507844269275665283203125" lon="-1.3683651387691497802734375">
        <ele>792.20001220703125</ele>
        <time>2022-05-02T12:55:54.000Z</time>
      </trkpt>
      <trkpt lat="41.03903886862099170684814453125" lon="-1.3683368079364299774169921875">
        <ele>792</ele>
        <time>2022-05-02T12:55:55.000Z</time>
      </trkpt>
      <trkpt lat="41.039001904428005218505859375" lon="-1.36831090785562992095947265625">
        <ele>792</ele>
        <time>2022-05-02T12:55:56.000Z</time>
      </trkpt>
      <trkpt lat="41.038926132023334503173828125" lon="-1.368265561759471893310546875">
        <ele>792</ele>
        <time>2022-05-02T12:55:58.000Z</time>
      </trkpt>
      <trkpt lat="41.03886201046407222747802734375" lon="-1.3682137615978717803955078125">
        <ele>792</ele>
        <time>2022-05-02T12:56:00.000Z</time>
      </trkpt>
      <trkpt lat="41.03883150033652782440185546875" lon="-1.36818534694612026214599609375">
        <ele>791.79998779296875</ele>
        <time>2022-05-02T12:56:01.000Z</time>
      </trkpt>
      <trkpt lat="41.03879897855222225189208984375" lon="-1.36815793812274932861328125">
        <ele>791.5999755859375</ele>
        <time>2022-05-02T12:56:02.000Z</time>
      </trkpt>
      <trkpt lat="41.03872437961399555206298828125" lon="-1.3681145198643207550048828125">
        <ele>791.4000244140625</ele>
        <time>2022-05-02T12:56:04.000Z</time>
      </trkpt>
      <trkpt lat="41.03864290751516819000244140625" lon="-1.36809163726866245269775390625">
        <ele>791.5999755859375</ele>
        <time>2022-05-02T12:56:06.000Z</time>
      </trkpt>
      <trkpt lat="41.03856076486408710479736328125" lon="-1.3680887036025524139404296875">
        <ele>792.20001220703125</ele>
        <time>2022-05-02T12:56:08.000Z</time>
      </trkpt>
      <trkpt lat="41.0384736768901348114013671875" lon="-1.3681084848940372467041015625">
        <ele>792.79998779296875</ele>
        <time>2022-05-02T12:56:10.000Z</time>
      </trkpt>
      <trkpt lat="41.03842682205140590667724609375" lon="-1.36812265031039714813232421875">
        <ele>793</ele>
        <time>2022-05-02T12:56:11.000Z</time>
      </trkpt>
      <trkpt lat="41.03837795555591583251953125" lon="-1.368137486279010772705078125">
        <ele>793.4000244140625</ele>
        <time>2022-05-02T12:56:12.000Z</time>
      </trkpt>
      <trkpt lat="41.03832690976560115814208984375" lon="-1.3681450299918651580810546875">
        <ele>793.5999755859375</ele>
        <time>2022-05-02T12:56:13.000Z</time>
      </trkpt>
      <trkpt lat="41.03827930055558681488037109375" lon="-1.3681460358202457427978515625">
        <ele>793.79998779296875</ele>
        <time>2022-05-02T12:56:14.000Z</time>
      </trkpt>
      <trkpt lat="41.03819531388580799102783203125" lon="-1.368126757442951202392578125">
        <ele>794</ele>
        <time>2022-05-02T12:56:16.000Z</time>
      </trkpt>
      <trkpt lat="41.03811912238597869873046875" lon="-1.36808794923126697540283203125">
        <ele>794.4000244140625</ele>
        <time>2022-05-02T12:56:18.000Z</time>
      </trkpt>
      <trkpt lat="41.03804779238998889923095703125" lon="-1.36804126203060150146484375">
        <ele>794.5999755859375</ele>
        <time>2022-05-02T12:56:20.000Z</time>
      </trkpt>
      <trkpt lat="41.0379845090210437774658203125" lon="-1.36799088679254055023193359375">
        <ele>794.79998779296875</ele>
        <time>2022-05-02T12:56:22.000Z</time>
      </trkpt>
      <trkpt lat="41.03792466223239898681640625" lon="-1.3679441995918750762939453125">
        <ele>794.79998779296875</ele>
        <time>2022-05-02T12:56:24.000Z</time>
      </trkpt>
      <trkpt lat="41.037862300872802734375" lon="-1.36789768002927303314208984375">
        <ele>794.5999755859375</ele>
        <time>2022-05-02T12:56:26.000Z</time>
      </trkpt>
      <trkpt lat="41.0378046333789825439453125" lon="-1.36784437112510204315185546875">
        <ele>794.4000244140625</ele>
        <time>2022-05-02T12:56:28.000Z</time>
      </trkpt>
      <trkpt lat="41.03777990676462650299072265625" lon="-1.36781654320657253265380859375">
        <ele>794.20001220703125</ele>
        <time>2022-05-02T12:56:29.000Z</time>
      </trkpt>
      <trkpt lat="41.03775274939835071563720703125" lon="-1.367780752480030059814453125">
        <ele>794.20001220703125</ele>
        <time>2022-05-02T12:56:30.000Z</time>
      </trkpt>
      <trkpt lat="41.03770212270319461822509765625" lon="-1.36770573444664478302001953125">
        <ele>793.79998779296875</ele>
        <time>2022-05-02T12:56:32.000Z</time>
      </trkpt>
      <trkpt lat="41.03765308856964111328125" lon="-1.36763649992644786834716796875">
        <ele>794</ele>
        <time>2022-05-02T12:56:34.000Z</time>
      </trkpt>
      <trkpt lat="41.03762987069785594940185546875" lon="-1.367599032819271087646484375">
        <ele>794</ele>
        <time>2022-05-02T12:56:35.000Z</time>
      </trkpt>
      <trkpt lat="41.03760723955929279327392578125" lon="-1.36755846440792083740234375">
        <ele>794.20001220703125</ele>
        <time>2022-05-02T12:56:36.000Z</time>
      </trkpt>
      <trkpt lat="41.0375632345676422119140625" lon="-1.3674707897007465362548828125">
        <ele>794</ele>
        <time>2022-05-02T12:56:38.000Z</time>
      </trkpt>
      <trkpt lat="41.03752107359468936920166015625" lon="-1.36738537810742855072021484375">
        <ele>793.79998779296875</ele>
        <time>2022-05-02T12:56:40.000Z</time>
      </trkpt>
      <trkpt lat="41.037486456334590911865234375" lon="-1.36729560792446136474609375">
        <ele>793.4000244140625</ele>
        <time>2022-05-02T12:56:42.000Z</time>
      </trkpt>
      <trkpt lat="41.0374587960541248321533203125" lon="-1.3672010600566864013671875">
        <ele>793</ele>
        <time>2022-05-02T12:56:44.000Z</time>
      </trkpt>
      <trkpt lat="41.03743440471589565277099609375" lon="-1.36711816303431987762451171875">
        <ele>792.79998779296875</ele>
        <time>2022-05-02T12:56:46.000Z</time>
      </trkpt>
      <trkpt lat="41.03740992955863475799560546875" lon="-1.367032416164875030517578125">
        <ele>792.4000244140625</ele>
        <time>2022-05-02T12:56:48.000Z</time>
      </trkpt>
      <trkpt lat="41.037381179630756378173828125" lon="-1.36694423854351043701171875">
        <ele>792.20001220703125</ele>
        <time>2022-05-02T12:56:50.000Z</time>
      </trkpt>
      <trkpt lat="41.0373454727232456207275390625" lon="-1.366861760616302490234375">
        <ele>792</ele>
        <time>2022-05-02T12:56:52.000Z</time>
      </trkpt>
      <trkpt lat="41.037310101091861724853515625" lon="-1.3667901791632175445556640625">
        <ele>792.20001220703125</ele>
        <time>2022-05-02T12:56:54.000Z</time>
      </trkpt>
      <trkpt lat="41.03729124180972576141357421875" lon="-1.36676008813083171844482421875">
        <ele>792.20001220703125</ele>
        <time>2022-05-02T12:56:55.000Z</time>
      </trkpt>
      <trkpt lat="41.03726877830922603607177734375" lon="-1.3667288236320018768310546875">
        <ele>792.4000244140625</ele>
        <time>2022-05-02T12:56:56.000Z</time>
      </trkpt>
      <trkpt lat="41.03724597953259944915771484375" lon="-1.36669638566672801971435546875">
        <ele>792.4000244140625</ele>
        <time>2022-05-02T12:56:57.000Z</time>
      </trkpt>
      <trkpt lat="41.03722200728952884674072265625" lon="-1.3666604273021221160888671875">
        <ele>792.5999755859375</ele>
        <time>2022-05-02T12:56:58.000Z</time>
      </trkpt>
      <trkpt lat="41.0371855460107326507568359375" lon="-1.36656713671982288360595703125">
        <ele>792.4000244140625</ele>
        <time>2022-05-02T12:57:00.000Z</time>
      </trkpt>
      <trkpt lat="41.03718479163944721221923828125" lon="-1.36650343425571918487548828125">
        <ele>792.20001220703125</ele>
        <time>2022-05-02T12:57:01.000Z</time>
      </trkpt>
      <trkpt lat="41.03719233535230159759521484375" lon="-1.366436965763568878173828125">
        <ele>792</ele>
        <time>2022-05-02T12:57:02.000Z</time>
      </trkpt>
      <trkpt lat="41.037222929298877716064453125" lon="-1.3663184456527233123779296875">
        <ele>791.4000244140625</ele>
        <time>2022-05-02T12:57:04.000Z</time>
      </trkpt>
      <trkpt lat="41.037241034209728240966796875" lon="-1.36626136489212512969970703125">
        <ele>791.20001220703125</ele>
        <time>2022-05-02T12:57:05.000Z</time>
      </trkpt>
      <trkpt lat="41.0372583009302616119384765625" lon="-1.3662054575979709625244140625">
        <ele>790.79998779296875</ele>
        <time>2022-05-02T12:57:06.000Z</time>
      </trkpt>
      <trkpt lat="41.03727598674595355987548828125" lon="-1.36615122668445110321044921875">
        <ele>790.5999755859375</ele>
        <time>2022-05-02T12:57:07.000Z</time>
      </trkpt>
      <trkpt lat="41.03729358874261379241943359375" lon="-1.366097666323184967041015625">
        <ele>790.20001220703125</ele>
        <time>2022-05-02T12:57:08.000Z</time>
      </trkpt>
      <trkpt lat="41.0373256914317607879638671875" lon="-1.36599071323871612548828125">
        <ele>789.79998779296875</ele>
        <time>2022-05-02T12:57:10.000Z</time>
      </trkpt>
      <trkpt lat="41.0373421199619770050048828125" lon="-1.36593648232519626617431640625">
        <ele>789.5999755859375</ele>
        <time>2022-05-02T12:57:11.000Z</time>
      </trkpt>
      <trkpt lat="41.0373580455780029296875" lon="-1.36588183231651782989501953125">
        <ele>789.4000244140625</ele>
        <time>2022-05-02T12:57:12.000Z</time>
      </trkpt>
      <trkpt lat="41.03739199228584766387939453125" lon="-1.36577404104173183441162109375">
        <ele>789.20001220703125</ele>
        <time>2022-05-02T12:57:14.000Z</time>
      </trkpt>
      <trkpt lat="41.03743021376430988311767578125" lon="-1.36567027308046817779541015625">
        <ele>789.5999755859375</ele>
        <time>2022-05-02T12:57:16.000Z</time>
      </trkpt>
      <trkpt lat="41.0374695248901844024658203125" lon="-1.36558310128748416900634765625">
        <ele>790</ele>
        <time>2022-05-02T12:57:18.000Z</time>
      </trkpt>
      <trkpt lat="41.0374976880848407745361328125" lon="-1.36551504023373126983642578125">
        <ele>790.4000244140625</ele>
        <time>2022-05-02T12:57:20.000Z</time>
      </trkpt>
      <trkpt lat="41.03751168586313724517822265625" lon="-1.36545552872121334075927734375">
        <ele>790.5999755859375</ele>
        <time>2022-05-02T12:57:22.000Z</time>
      </trkpt>
      <trkpt lat="41.03751788847148418426513671875" lon="-1.365425102412700653076171875">
        <ele>790.5999755859375</ele>
        <time>2022-05-02T12:57:23.000Z</time>
      </trkpt>
      <trkpt lat="41.037523336708545684814453125" lon="-1.3653934188187122344970703125">
        <ele>790.5999755859375</ele>
        <time>2022-05-02T12:57:24.000Z</time>
      </trkpt>
      <trkpt lat="41.037527024745941162109375" lon="-1.36531588621437549591064453125">
        <ele>790.79998779296875</ele>
        <time>2022-05-02T12:57:26.000Z</time>
      </trkpt>
      <trkpt lat="41.0375184752047061920166015625" lon="-1.36521345935761928558349609375">
        <ele>791</ele>
        <time>2022-05-02T12:57:28.000Z</time>
      </trkpt>
      <trkpt lat="41.03750950656831264495849609375" lon="-1.36516082100570201873779296875">
        <ele>791</ele>
        <time>2022-05-02T12:57:29.000Z</time>
      </trkpt>
      <trkpt lat="41.037494838237762451171875" lon="-1.36510851792991161346435546875">
        <ele>791</ele>
        <time>2022-05-02T12:57:30.000Z</time>
      </trkpt>
      <trkpt lat="41.03745452128350734710693359375" lon="-1.36501044966280460357666015625">
        <ele>791.20001220703125</ele>
        <time>2022-05-02T12:57:32.000Z</time>
      </trkpt>
      <trkpt lat="41.0374289564788341522216796875" lon="-1.36496636085212230682373046875">
        <ele>791.20001220703125</ele>
        <time>2022-05-02T12:57:33.000Z</time>
      </trkpt>
      <trkpt lat="41.03739869780838489532470703125" lon="-1.36492545716464519500732421875">
        <ele>791.20001220703125</ele>
        <time>2022-05-02T12:57:34.000Z</time>
      </trkpt>
      <trkpt lat="41.0373327322304248809814453125" lon="-1.3648589886724948883056640625">
        <ele>791.79998779296875</ele>
        <time>2022-05-02T12:57:36.000Z</time>
      </trkpt>
      <trkpt lat="41.037258803844451904296875" lon="-1.364807523787021636962890625">
        <ele>792.20001220703125</ele>
        <time>2022-05-02T12:57:38.000Z</time>
      </trkpt>
      <trkpt lat="41.03722116909921169281005859375" lon="-1.36478279717266559600830078125">
        <ele>792.20001220703125</ele>
        <time>2022-05-02T12:57:39.000Z</time>
      </trkpt>
      <trkpt lat="41.037181355059146881103515625" lon="-1.36475966311991214752197265625">
        <ele>792.4000244140625</ele>
        <time>2022-05-02T12:57:40.000Z</time>
      </trkpt>
      <trkpt lat="41.03710524737834930419921875" lon="-1.36471641249954700469970703125">
        <ele>792.79998779296875</ele>
        <time>2022-05-02T12:57:42.000Z</time>
      </trkpt>
      <trkpt lat="41.03703123517334461212158203125" lon="-1.36467768810689449310302734375">
        <ele>793</ele>
        <time>2022-05-02T12:57:44.000Z</time>
      </trkpt>
      <trkpt lat="41.03699368424713611602783203125" lon="-1.3646568171679973602294921875">
        <ele>793.20001220703125</ele>
        <time>2022-05-02T12:57:45.000Z</time>
      </trkpt>
      <trkpt lat="41.036956049501895904541015625" lon="-1.3646326772868633270263671875">
        <ele>793.20001220703125</ele>
        <time>2022-05-02T12:57:46.000Z</time>
      </trkpt>
      <trkpt lat="41.0368834622204303741455078125" lon="-1.36457995511591434478759765625">
        <ele>793.4000244140625</ele>
        <time>2022-05-02T12:57:48.000Z</time>
      </trkpt>
      <trkpt lat="41.03684616275131702423095703125" lon="-1.364551372826099395751953125">
        <ele>793.4000244140625</ele>
        <time>2022-05-02T12:57:49.000Z</time>
      </trkpt>
      <trkpt lat="41.03681020438671112060546875" lon="-1.3645217008888721466064453125">
        <ele>793.5999755859375</ele>
        <time>2022-05-02T12:57:50.000Z</time>
      </trkpt>
      <trkpt lat="41.03673954494297504425048828125" lon="-1.3644611835479736328125">
        <ele>793.79998779296875</ele>
        <time>2022-05-02T12:57:52.000Z</time>
      </trkpt>
      <trkpt lat="41.0366732440888881683349609375" lon="-1.36439689435064792633056640625">
        <ele>793.4000244140625</ele>
        <time>2022-05-02T12:57:54.000Z</time>
      </trkpt>
      <trkpt lat="41.03661012835800647735595703125" lon="-1.3643305934965610504150390625">
        <ele>793.20001220703125</ele>
        <time>2022-05-02T12:57:56.000Z</time>
      </trkpt>
      <trkpt lat="41.03654592297971248626708984375" lon="-1.364265717566013336181640625">
        <ele>793</ele>
        <time>2022-05-02T12:57:58.000Z</time>
      </trkpt>
      <trkpt lat="41.03648473508656024932861328125" lon="-1.36420411057770252227783203125">
        <ele>793</ele>
        <time>2022-05-02T12:58:00.000Z</time>
      </trkpt>
      <trkpt lat="41.0364546440541744232177734375" lon="-1.3641743548214435577392578125">
        <ele>793</ele>
        <time>2022-05-02T12:58:01.000Z</time>
      </trkpt>
      <trkpt lat="41.03642589412629604339599609375" lon="-1.36414476670324802398681640625">
        <ele>793</ele>
        <time>2022-05-02T12:58:02.000Z</time>
      </trkpt>
      <trkpt lat="41.03636822663247585296630859375" lon="-1.3640861772000789642333984375">
        <ele>793.20001220703125</ele>
        <time>2022-05-02T12:58:04.000Z</time>
      </trkpt>
      <trkpt lat="41.036310307681560516357421875" lon="-1.36403211392462253570556640625">
        <ele>793.4000244140625</ele>
        <time>2022-05-02T12:58:06.000Z</time>
      </trkpt>
      <trkpt lat="41.03625272400677204132080078125" lon="-1.36397578753530979156494140625">
        <ele>793.5999755859375</ele>
        <time>2022-05-02T12:58:08.000Z</time>
      </trkpt>
      <trkpt lat="41.03619958274066448211669921875" lon="-1.3639265857636928558349609375">
        <ele>794</ele>
        <time>2022-05-02T12:58:10.000Z</time>
      </trkpt>
      <trkpt lat="41.0361552424728870391845703125" lon="-1.363883502781391143798828125">
        <ele>794.20001220703125</ele>
        <time>2022-05-02T12:58:12.000Z</time>
      </trkpt>
      <trkpt lat="41.0361384786665439605712890625" lon="-1.3638659007847309112548828125">
        <ele>794.4000244140625</ele>
        <time>2022-05-02T12:58:13.000Z</time>
      </trkpt>
      <trkpt lat="41.036126911640167236328125" lon="-1.363851316273212432861328125">
        <ele>794.4000244140625</ele>
        <time>2022-05-02T12:58:14.000Z</time>
      </trkpt>
      <trkpt lat="41.0361126624047756195068359375" lon="-1.3638223148882389068603515625">
        <ele>794.5999755859375</ele>
        <time>2022-05-02T12:58:16.000Z</time>
      </trkpt>
      <trkpt lat="41.03610855527222156524658203125" lon="-1.36379205621778964996337890625">
        <ele>794.79998779296875</ele>
        <time>2022-05-02T12:58:18.000Z</time>
      </trkpt>
      <trkpt lat="41.03611509315669536590576171875" lon="-1.36375165544450283050537109375">
        <ele>794.79998779296875</ele>
        <time>2022-05-02T12:58:20.000Z</time>
      </trkpt>
      <trkpt lat="41.03615029715001583099365234375" lon="-1.3637177087366580963134765625">
        <ele>794.79998779296875</ele>
        <time>2022-05-02T12:58:22.000Z</time>
      </trkpt>
      <trkpt lat="41.03619706816971302032470703125" lon="-1.3636793196201324462890625">
        <ele>794.79998779296875</ele>
        <time>2022-05-02T12:58:24.000Z</time>
      </trkpt>
      <trkpt lat="41.036220453679561614990234375" lon="-1.3636573590338230133056640625">
        <ele>794.79998779296875</ele>
        <time>2022-05-02T12:58:25.000Z</time>
      </trkpt>
      <trkpt lat="41.0362477786839008331298828125" lon="-1.36363397352397441864013671875">
        <ele>794.79998779296875</ele>
        <time>2022-05-02T12:58:26.000Z</time>
      </trkpt>
      <trkpt lat="41.03630972094833850860595703125" lon="-1.3635913096368312835693359375">
        <ele>794.79998779296875</ele>
        <time>2022-05-02T12:58:28.000Z</time>
      </trkpt>
      <trkpt lat="41.03637660853564739227294921875" lon="-1.3635433651506900787353515625">
        <ele>794.5999755859375</ele>
        <time>2022-05-02T12:58:30.000Z</time>
      </trkpt>
      <trkpt lat="41.03644676506519317626953125" lon="-1.36348846368491649627685546875">
        <ele>794.4000244140625</ele>
        <time>2022-05-02T12:58:32.000Z</time>
      </trkpt>
      <trkpt lat="41.0365159995853900909423828125" lon="-1.363425515592098236083984375">
        <ele>794</ele>
        <time>2022-05-02T12:58:34.000Z</time>
      </trkpt>
      <trkpt lat="41.0365850664675235748291015625" lon="-1.36336407624185085296630859375">
        <ele>793.79998779296875</ele>
        <time>2022-05-02T12:58:36.000Z</time>
      </trkpt>
      <trkpt lat="41.036654300987720489501953125" lon="-1.363303475081920623779296875">
        <ele>793.5999755859375</ele>
        <time>2022-05-02T12:58:38.000Z</time>
      </trkpt>
      <trkpt lat="41.0366888344287872314453125" lon="-1.363270282745361328125">
        <ele>793.4000244140625</ele>
        <time>2022-05-02T12:58:39.000Z</time>
      </trkpt>
      <trkpt lat="41.03672211058437824249267578125" lon="-1.36323331855237483978271484375">
        <ele>793.4000244140625</ele>
        <time>2022-05-02T12:58:40.000Z</time>
      </trkpt>
      <trkpt lat="41.03678463958203792572021484375" lon="-1.3631661795079708099365234375">
        <ele>793.20001220703125</ele>
        <time>2022-05-02T12:58:42.000Z</time>
      </trkpt>
      <trkpt lat="41.03681288659572601318359375" lon="-1.3631363399326801300048828125">
        <ele>793</ele>
        <time>2022-05-02T12:58:43.000Z</time>
      </trkpt>
      <trkpt lat="41.03683744557201862335205078125" lon="-1.363107673823833465576171875">
        <ele>793</ele>
        <time>2022-05-02T12:58:44.000Z</time>
      </trkpt>
      <trkpt lat="41.03688119910657405853271484375" lon="-1.363053023815155029296875">
        <ele>793</ele>
        <time>2022-05-02T12:58:46.000Z</time>
      </trkpt>
      <trkpt lat="41.03692553937435150146484375" lon="-1.36301086284220218658447265625">
        <ele>793</ele>
        <time>2022-05-02T12:58:48.000Z</time>
      </trkpt>
      <trkpt lat="41.036962755024433135986328125" lon="-1.36297180317342281341552734375">
        <ele>793.20001220703125</ele>
        <time>2022-05-02T12:58:50.000Z</time>
      </trkpt>
      <trkpt lat="41.036998294293880462646484375" lon="-1.36293039657175540924072265625">
        <ele>793.4000244140625</ele>
        <time>2022-05-02T12:58:52.000Z</time>
      </trkpt>
      <trkpt lat="41.03701665066182613372802734375" lon="-1.36287205852568149566650390625">
        <ele>793.5999755859375</ele>
        <time>2022-05-02T12:58:54.000Z</time>
      </trkpt>
      <trkpt lat="41.03702989406883716583251953125" lon="-1.36281539686024188995361328125">
        <ele>793.79998779296875</ele>
        <time>2022-05-02T12:58:56.000Z</time>
      </trkpt>
      <trkpt lat="41.03705705143511295318603515625" lon="-1.36276133358478546142578125">
        <ele>794</ele>
        <time>2022-05-02T12:58:58.000Z</time>
      </trkpt>
      <trkpt lat="41.0370755754411220550537109375" lon="-1.3627393729984760284423828125">
        <ele>794</ele>
        <time>2022-05-02T12:58:59.000Z</time>
      </trkpt>
      <trkpt lat="41.03709527291357517242431640625" lon="-1.36272068135440349578857421875">
        <ele>794</ele>
        <time>2022-05-02T12:59:00.000Z</time>
      </trkpt>
      <trkpt lat="41.03713751770555973052978515625" lon="-1.3626817055046558380126953125">
        <ele>793.79998779296875</ele>
        <time>2022-05-02T12:59:02.000Z</time>
      </trkpt>
      <trkpt lat="41.03717909194529056549072265625" lon="-1.3626347668468952178955078125">
        <ele>793.5999755859375</ele>
        <time>2022-05-02T12:59:04.000Z</time>
      </trkpt>
      <trkpt lat="41.037203483283519744873046875" lon="-1.362609453499317169189453125">
        <ele>793.5999755859375</ele>
        <time>2022-05-02T12:59:05.000Z</time>
      </trkpt>
      <trkpt lat="41.037232987582683563232421875" lon="-1.36258623562753200531005859375">
        <ele>793.4000244140625</ele>
        <time>2022-05-02T12:59:06.000Z</time>
      </trkpt>
      <trkpt lat="41.03730398230254650115966796875" lon="-1.36253778822720050811767578125">
        <ele>793.20001220703125</ele>
        <time>2022-05-02T12:59:08.000Z</time>
      </trkpt>
      <trkpt lat="41.0373830236494541168212890625" lon="-1.36247844435274600982666015625">
        <ele>793</ele>
        <time>2022-05-02T12:59:10.000Z</time>
      </trkpt>
      <trkpt lat="41.037465669214725494384765625" lon="-1.36241155676543712615966796875">
        <ele>793.5999755859375</ele>
        <time>2022-05-02T12:59:12.000Z</time>
      </trkpt>
      <trkpt lat="41.037547476589679718017578125" lon="-1.36234953068196773529052734375">
        <ele>794</ele>
        <time>2022-05-02T12:59:14.000Z</time>
      </trkpt>
      <trkpt lat="41.03762785904109477996826171875" lon="-1.36228096671402454376220703125">
        <ele>794.5999755859375</ele>
        <time>2022-05-02T12:59:16.000Z</time>
      </trkpt>
      <trkpt lat="41.03770664893090724945068359375" lon="-1.362211816012859344482421875">
        <ele>795.4000244140625</ele>
        <time>2022-05-02T12:59:18.000Z</time>
      </trkpt>
      <trkpt lat="41.03778661228716373443603515625" lon="-1.36214350350201129913330078125">
        <ele>795.79998779296875</ele>
        <time>2022-05-02T12:59:20.000Z</time>
      </trkpt>
      <trkpt lat="41.0378260910511016845703125" lon="-1.3621100597083568572998046875">
        <ele>796</ele>
        <time>2022-05-02T12:59:21.000Z</time>
      </trkpt>
      <trkpt lat="41.03786271996796131134033203125" lon="-1.36207343079149723052978515625">
        <ele>796.20001220703125</ele>
        <time>2022-05-02T12:59:22.000Z</time>
      </trkpt>
      <trkpt lat="41.037929020822048187255859375" lon="-1.3619933836162090301513671875">
        <ele>796.4000244140625</ele>
        <time>2022-05-02T12:59:24.000Z</time>
      </trkpt>
      <trkpt lat="41.037957854568958282470703125" lon="-1.36195306666195392608642578125">
        <ele>796.20001220703125</ele>
        <time>2022-05-02T12:59:25.000Z</time>
      </trkpt>
      <trkpt lat="41.03798425756394863128662109375" lon="-1.3619182817637920379638671875">
        <ele>796</ele>
        <time>2022-05-02T12:59:26.000Z</time>
      </trkpt>
      <trkpt lat="41.038022898137569427490234375" lon="-1.36185751296579837799072265625">
        <ele>795.4000244140625</ele>
        <time>2022-05-02T12:59:28.000Z</time>
      </trkpt>
      <trkpt lat="41.0380513966083526611328125" lon="-1.36180336587131023406982421875">
        <ele>794.79998779296875</ele>
        <time>2022-05-02T12:59:30.000Z</time>
      </trkpt>
      <trkpt lat="41.03807394392788410186767578125" lon="-1.3617523200809955596923828125">
        <ele>794.4000244140625</ele>
        <time>2022-05-02T12:59:32.000Z</time>
      </trkpt>
      <trkpt lat="41.0380862653255462646484375" lon="-1.3617266714572906494140625">
        <ele>794.20001220703125</ele>
        <time>2022-05-02T12:59:33.000Z</time>
      </trkpt>
      <trkpt lat="41.03810026310384273529052734375" lon="-1.36169708333909511566162109375">
        <ele>793.79998779296875</ele>
        <time>2022-05-02T12:59:34.000Z</time>
      </trkpt>
      <trkpt lat="41.03813177905976772308349609375" lon="-1.3616279326379299163818359375">
        <ele>793.20001220703125</ele>
        <time>2022-05-02T12:59:36.000Z</time>
      </trkpt>
      <trkpt lat="41.03814552538096904754638671875" lon="-1.3615860231220722198486328125">
        <ele>793</ele>
        <time>2022-05-02T12:59:37.000Z</time>
      </trkpt>
      <trkpt lat="41.03815742768347263336181640625" lon="-1.36154168285429477691650390625">
        <ele>792.5999755859375</ele>
        <time>2022-05-02T12:59:38.000Z</time>
      </trkpt>
      <trkpt lat="41.0381799750030040740966796875" lon="-1.36145233176648616790771484375">
        <ele>791.79998779296875</ele>
        <time>2022-05-02T12:59:40.000Z</time>
      </trkpt>
      <trkpt lat="41.03818324394524097442626953125" lon="-1.36135392822325229644775390625">
        <ele>791</ele>
        <time>2022-05-02T12:59:42.000Z</time>
      </trkpt>
      <trkpt lat="41.03818441741168498992919921875" lon="-1.3612416945397853851318359375">
        <ele>791</ele>
        <time>2022-05-02T12:59:44.000Z</time>
      </trkpt>
      <trkpt lat="41.038209311664104461669921875" lon="-1.36112309060990810394287109375">
        <ele>791</ele>
        <time>2022-05-02T12:59:46.000Z</time>
      </trkpt>
      <trkpt lat="41.03824862278997898101806640625" lon="-1.36102234013378620147705078125">
        <ele>791.4000244140625</ele>
        <time>2022-05-02T12:59:48.000Z</time>
      </trkpt>
      <trkpt lat="41.03827343322336673736572265625" lon="-1.36097364127635955810546875">
        <ele>791.79998779296875</ele>
        <time>2022-05-02T12:59:49.000Z</time>
      </trkpt>
      <trkpt lat="41.0382989980280399322509765625" lon="-1.36092670261859893798828125">
        <ele>792.20001220703125</ele>
        <time>2022-05-02T12:59:50.000Z</time>
      </trkpt>
      <trkpt lat="41.03832456283271312713623046875" lon="-1.3608799315989017486572265625">
        <ele>792.5999755859375</ele>
        <time>2022-05-02T12:59:51.000Z</time>
      </trkpt>
      <trkpt lat="41.03835389949381351470947265625" lon="-1.36083659715950489044189453125">
        <ele>793</ele>
        <time>2022-05-02T12:59:52.000Z</time>
      </trkpt>
      <trkpt lat="41.03841357864439487457275390625" lon="-1.360753364861011505126953125">
        <ele>793.5999755859375</ele>
        <time>2022-05-02T12:59:54.000Z</time>
      </trkpt>
      <trkpt lat="41.0384652949869632720947265625" lon="-1.360667534172534942626953125">
        <ele>793.79998779296875</ele>
        <time>2022-05-02T12:59:56.000Z</time>
      </trkpt>
      <trkpt lat="41.0385159216821193695068359375" lon="-1.3605840504169464111328125">
        <ele>794.20001220703125</ele>
        <time>2022-05-02T12:59:58.000Z</time>
      </trkpt>
      <trkpt lat="41.03856998495757579803466796875" lon="-1.36050333268940448760986328125">
        <ele>794.4000244140625</ele>
        <time>2022-05-02T13:00:00.000Z</time>
      </trkpt>
      <trkpt lat="41.03861960582435131072998046875" lon="-1.36042135767638683319091796875">
        <ele>794.79998779296875</ele>
        <time>2022-05-02T13:00:02.000Z</time>
      </trkpt>
      <trkpt lat="41.0386698134243488311767578125" lon="-1.36033929884433746337890625">
        <ele>795.4000244140625</ele>
        <time>2022-05-02T13:00:04.000Z</time>
      </trkpt>
      <trkpt lat="41.03869537822902202606201171875" lon="-1.36030015535652637481689453125">
        <ele>795.5999755859375</ele>
        <time>2022-05-02T13:00:05.000Z</time>
      </trkpt>
      <trkpt lat="41.0387204401195049285888671875" lon="-1.36026076041162014007568359375">
        <ele>795.79998779296875</ele>
        <time>2022-05-02T13:00:06.000Z</time>
      </trkpt>
      <trkpt lat="41.03876913897693157196044921875" lon="-1.360180377960205078125">
        <ele>796</ele>
        <time>2022-05-02T13:00:08.000Z</time>
      </trkpt>
      <trkpt lat="41.03881389833986759185791015625" lon="-1.360097564756870269775390625">
        <ele>796.20001220703125</ele>
        <time>2022-05-02T13:00:10.000Z</time>
      </trkpt>
      <trkpt lat="41.0388599149882793426513671875" lon="-1.3600149191915988922119140625">
        <ele>796.4000244140625</ele>
        <time>2022-05-02T13:00:12.000Z</time>
      </trkpt>
      <trkpt lat="41.03890492580831050872802734375" lon="-1.35993118397891521453857421875">
        <ele>796.4000244140625</ele>
        <time>2022-05-02T13:00:14.000Z</time>
      </trkpt>
      <trkpt lat="41.03892604820430278778076171875" lon="-1.359887681901454925537109375">
        <ele>796.4000244140625</ele>
        <time>2022-05-02T13:00:15.000Z</time>
      </trkpt>
      <trkpt lat="41.03894499130547046661376953125" lon="-1.35984367690980434417724609375">
        <ele>796.20001220703125</ele>
        <time>2022-05-02T13:00:16.000Z</time>
      </trkpt>
      <trkpt lat="41.0389816202223300933837890625" lon="-1.3597624562680721282958984375">
        <ele>796</ele>
        <time>2022-05-02T13:00:18.000Z</time>
      </trkpt>
      <trkpt lat="41.0390174947679042816162109375" lon="-1.35967989452183246612548828125">
        <ele>796</ele>
        <time>2022-05-02T13:00:20.000Z</time>
      </trkpt>
      <trkpt lat="41.0390550456941127777099609375" lon="-1.3595971651375293731689453125">
        <ele>795.5999755859375</ele>
        <time>2022-05-02T13:00:22.000Z</time>
      </trkpt>
      <trkpt lat="41.0390741564333438873291015625" lon="-1.359557770192623138427734375">
        <ele>795.5999755859375</ele>
        <time>2022-05-02T13:00:23.000Z</time>
      </trkpt>
      <trkpt lat="41.0390920937061309814453125" lon="-1.3595187105238437652587890625">
        <ele>795.4000244140625</ele>
        <time>2022-05-02T13:00:24.000Z</time>
      </trkpt>
      <trkpt lat="41.03912604041397571563720703125" lon="-1.3594358973205089569091796875">
        <ele>795.20001220703125</ele>
        <time>2022-05-02T13:00:26.000Z</time>
      </trkpt>
      <trkpt lat="41.0391633398830890655517578125" lon="-1.3593564368784427642822265625">
        <ele>795</ele>
        <time>2022-05-02T13:00:28.000Z</time>
      </trkpt>
      <trkpt lat="41.03918119333684444427490234375" lon="-1.35931737720966339111328125">
        <ele>795</ele>
        <time>2022-05-02T13:00:29.000Z</time>
      </trkpt>
      <trkpt lat="41.0391972027719020843505859375" lon="-1.35927387513220310211181640625">
        <ele>795</ele>
        <time>2022-05-02T13:00:30.000Z</time>
      </trkpt>
      <trkpt lat="41.03922687470912933349609375" lon="-1.359185613691806793212890625">
        <ele>795</ele>
        <time>2022-05-02T13:00:32.000Z</time>
      </trkpt>
      <trkpt lat="41.039268113672733306884765625" lon="-1.359102465212345123291015625">
        <ele>795</ele>
        <time>2022-05-02T13:00:34.000Z</time>
      </trkpt>
      <trkpt lat="41.03930641897022724151611328125" lon="-1.35901738889515399932861328125">
        <ele>795.4000244140625</ele>
        <time>2022-05-02T13:00:36.000Z</time>
      </trkpt>
      <trkpt lat="41.0393407009541988372802734375" lon="-1.35893021710216999053955078125">
        <ele>795.79998779296875</ele>
        <time>2022-05-02T13:00:38.000Z</time>
      </trkpt>
      <trkpt lat="41.03937347419559955596923828125" lon="-1.3588444702327251434326171875">
        <ele>796.20001220703125</ele>
        <time>2022-05-02T13:00:40.000Z</time>
      </trkpt>
      <trkpt lat="41.03940767236053943634033203125" lon="-1.35876358486711978912353515625">
        <ele>796</ele>
        <time>2022-05-02T13:00:42.000Z</time>
      </trkpt>
      <trkpt lat="41.03942401707172393798828125" lon="-1.358723603188991546630859375">
        <ele>796</ele>
        <time>2022-05-02T13:00:43.000Z</time>
      </trkpt>
      <trkpt lat="41.03944069705903530120849609375" lon="-1.35868445970118045806884765625">
        <ele>796</ele>
        <time>2022-05-02T13:00:44.000Z</time>
      </trkpt>
      <trkpt lat="41.03947405703365802764892578125" lon="-1.35860617272555828094482421875">
        <ele>796</ele>
        <time>2022-05-02T13:00:46.000Z</time>
      </trkpt>
      <trkpt lat="41.0395093448460102081298828125" lon="-1.3585269637405872344970703125">
        <ele>796</ele>
        <time>2022-05-02T13:00:48.000Z</time>
      </trkpt>
      <trkpt lat="41.03954647667706012725830078125" lon="-1.3584491796791553497314453125">
        <ele>796</ele>
        <time>2022-05-02T13:00:50.000Z</time>
      </trkpt>
      <trkpt lat="41.03956290520727634429931640625" lon="-1.35840953327715396881103515625">
        <ele>796</ele>
        <time>2022-05-02T13:00:51.000Z</time>
      </trkpt>
      <trkpt lat="41.0395800881087779998779296875" lon="-1.3583700545132160186767578125">
        <ele>796</ele>
        <time>2022-05-02T13:00:52.000Z</time>
      </trkpt>
      <trkpt lat="41.03961654938757419586181640625" lon="-1.35829771868884563446044921875">
        <ele>796.20001220703125</ele>
        <time>2022-05-02T13:00:54.000Z</time>
      </trkpt>
      <trkpt lat="41.03965309448540210723876953125" lon="-1.35822865180671215057373046875">
        <ele>796.79998779296875</ele>
        <time>2022-05-02T13:00:56.000Z</time>
      </trkpt>
      <trkpt lat="41.0396870411932468414306640625" lon="-1.35815732181072235107421875">
        <ele>797.5999755859375</ele>
        <time>2022-05-02T13:00:58.000Z</time>
      </trkpt>
      <trkpt lat="41.03970372118055820465087890625" lon="-1.358120776712894439697265625">
        <ele>798</ele>
        <time>2022-05-02T13:00:59.000Z</time>
      </trkpt>
      <trkpt lat="41.03972149081528186798095703125" lon="-1.3580837287008762359619140625">
        <ele>798.4000244140625</ele>
        <time>2022-05-02T13:01:00.000Z</time>
      </trkpt>
      <trkpt lat="41.039755605161190032958984375" lon="-1.35800435207784175872802734375">
        <ele>799.20001220703125</ele>
        <time>2022-05-02T13:01:02.000Z</time>
      </trkpt>
      <trkpt lat="41.0397960059344768524169921875" lon="-1.35793444700539112091064453125">
        <ele>800</ele>
        <time>2022-05-02T13:01:04.000Z</time>
      </trkpt>
      <trkpt lat="41.0398147813975811004638671875" lon="-1.35790661908686161041259765625">
        <ele>800.4000244140625</ele>
        <time>2022-05-02T13:01:05.000Z</time>
      </trkpt>
      <trkpt lat="41.03983162902295589447021484375" lon="-1.35788113810122013092041015625">
        <ele>800.5999755859375</ele>
        <time>2022-05-02T13:01:06.000Z</time>
      </trkpt>
      <trkpt lat="41.03986398316919803619384765625" lon="-1.35782531462609767913818359375">
        <ele>801.4000244140625</ele>
        <time>2022-05-02T13:01:08.000Z</time>
      </trkpt>
      <trkpt lat="41.039880327880382537841796875" lon="-1.3577943854033946990966796875">
        <ele>801.5999755859375</ele>
        <time>2022-05-02T13:01:09.000Z</time>
      </trkpt>
      <trkpt lat="41.03989767841994762420654296875" lon="-1.35776278562843799591064453125">
        <ele>802</ele>
        <time>2022-05-02T13:01:10.000Z</time>
      </trkpt>
      <trkpt lat="41.03993363678455352783203125" lon="-1.3577006757259368896484375">
        <ele>802.20001220703125</ele>
        <time>2022-05-02T13:01:12.000Z</time>
      </trkpt>
      <trkpt lat="41.03996607474982738494873046875" lon="-1.357639320194721221923828125">
        <ele>802.4000244140625</ele>
        <time>2022-05-02T13:01:14.000Z</time>
      </trkpt>
      <trkpt lat="41.0400075651705265045166015625" lon="-1.357574947178363800048828125">
        <ele>802.5999755859375</ele>
        <time>2022-05-02T13:01:16.000Z</time>
      </trkpt>
      <trkpt lat="41.04002743028104305267333984375" lon="-1.3575432635843753814697265625">
        <ele>802.79998779296875</ele>
        <time>2022-05-02T13:01:17.000Z</time>
      </trkpt>
      <trkpt lat="41.0400488041341304779052734375" lon="-1.35751015506684780120849609375">
        <ele>802.79998779296875</ele>
        <time>2022-05-02T13:01:18.000Z</time>
      </trkpt>
      <trkpt lat="41.0400898754596710205078125" lon="-1.3574477098882198333740234375">
        <ele>803</ele>
        <time>2022-05-02T13:01:20.000Z</time>
      </trkpt>
      <trkpt lat="41.0401309467852115631103515625" lon="-1.357388533651828765869140625">
        <ele>803</ele>
        <time>2022-05-02T13:01:22.000Z</time>
      </trkpt>
      <trkpt lat="41.040149889886379241943359375" lon="-1.357360370457172393798828125">
        <ele>803</ele>
        <time>2022-05-02T13:01:23.000Z</time>
      </trkpt>
      <trkpt lat="41.0401658155024051666259765625" lon="-1.357331536710262298583984375">
        <ele>803</ele>
        <time>2022-05-02T13:01:24.000Z</time>
      </trkpt>
      <trkpt lat="41.040194816887378692626953125" lon="-1.35727931745350360870361328125">
        <ele>803.20001220703125</ele>
        <time>2022-05-02T13:01:26.000Z</time>
      </trkpt>
      <trkpt lat="41.0402181185781955718994140625" lon="-1.35722483508288860321044921875">
        <ele>803.20001220703125</ele>
        <time>2022-05-02T13:01:28.000Z</time>
      </trkpt>
      <trkpt lat="41.04022708721458911895751953125" lon="-1.35718963108956813812255859375">
        <ele>803.20001220703125</ele>
        <time>2022-05-02T13:01:29.000Z</time>
      </trkpt>
      <trkpt lat="41.0402308590710163116455078125" lon="-1.35715744458138942718505859375">
        <ele>803.4000244140625</ele>
        <time>2022-05-02T13:01:30.000Z</time>
      </trkpt>
      <trkpt lat="41.0402281768620014190673828125" lon="-1.3571348972618579864501953125">
        <ele>803.4000244140625</ele>
        <time>2022-05-02T13:01:31.000Z</time>
      </trkpt>
      <trkpt lat="41.040222980082035064697265625" lon="-1.35711930692195892333984375">
        <ele>803.4000244140625</ele>
        <time>2022-05-02T13:01:32.000Z</time>
      </trkpt>
      <trkpt lat="41.0402127541601657867431640625" lon="-1.35710447095334529876708984375">
        <ele>803.5999755859375</ele>
        <time>2022-05-02T13:01:33.000Z</time>
      </trkpt>
      <trkpt lat="41.040197499096393585205078125" lon="-1.357086114585399627685546875">
        <ele>803.5999755859375</ele>
        <time>2022-05-02T13:01:34.000Z</time>
      </trkpt>
      <trkpt lat="41.040175370872020721435546875" lon="-1.35706029832363128662109375">
        <ele>803.79998779296875</ele>
        <time>2022-05-02T13:01:35.000Z</time>
      </trkpt>
      <trkpt lat="41.04015030898153781890869140625" lon="-1.35703540407121181488037109375">
        <ele>804</ele>
        <time>2022-05-02T13:01:36.000Z</time>
      </trkpt>
      <trkpt lat="41.0401249118149280548095703125" lon="-1.35699617676436901092529296875">
        <ele>804.4000244140625</ele>
        <time>2022-05-02T13:01:37.000Z</time>
      </trkpt>
      <trkpt lat="41.04009515605866909027099609375" lon="-1.356951333582401275634765625">
        <ele>804.5999755859375</ele>
        <time>2022-05-02T13:01:38.000Z</time>
      </trkpt>
      <trkpt lat="41.0400256700813770294189453125" lon="-1.3568549416959285736083984375">
        <ele>804.79998779296875</ele>
        <time>2022-05-02T13:01:40.000Z</time>
      </trkpt>
      <trkpt lat="41.039943359792232513427734375" lon="-1.356741450726985931396484375">
        <ele>805.20001220703125</ele>
        <time>2022-05-02T13:01:42.000Z</time>
      </trkpt>
      <trkpt lat="41.039848811924457550048828125" lon="-1.35663449764251708984375">
        <ele>805.79998779296875</ele>
        <time>2022-05-02T13:01:44.000Z</time>
      </trkpt>
      <trkpt lat="41.03980095125734806060791015625" lon="-1.3565830327570438385009765625">
        <ele>805.5999755859375</ele>
        <time>2022-05-02T13:01:45.000Z</time>
      </trkpt>
      <trkpt lat="41.03975334204733371734619140625" lon="-1.35653265751898288726806640625">
        <ele>805.4000244140625</ele>
        <time>2022-05-02T13:01:46.000Z</time>
      </trkpt>
      <trkpt lat="41.03966482914984226226806640625" lon="-1.3564405404031276702880859375">
        <ele>805.20001220703125</ele>
        <time>2022-05-02T13:01:48.000Z</time>
      </trkpt>
      <trkpt lat="41.0396206565201282501220703125" lon="-1.35639837943017482757568359375">
        <ele>805</ele>
        <time>2022-05-02T13:01:49.000Z</time>
      </trkpt>
      <trkpt lat="41.0395780764520168304443359375" lon="-1.35635579936206340789794921875">
        <ele>804.79998779296875</ele>
        <time>2022-05-02T13:01:50.000Z</time>
      </trkpt>
      <trkpt lat="41.03953390382230281829833984375" lon="-1.35631590150296688079833984375">
        <ele>804.79998779296875</ele>
        <time>2022-05-02T13:01:51.000Z</time>
      </trkpt>
      <trkpt lat="41.03948839008808135986328125" lon="-1.35628019459545612335205078125">
        <ele>804.79998779296875</ele>
        <time>2022-05-02T13:01:52.000Z</time>
      </trkpt>
      <trkpt lat="41.03939987719058990478515625" lon="-1.35620542801916599273681640625">
        <ele>804.4000244140625</ele>
        <time>2022-05-02T13:01:54.000Z</time>
      </trkpt>
      <trkpt lat="41.039362661540508270263671875" lon="-1.35616620071232318878173828125">
        <ele>804.20001220703125</ele>
        <time>2022-05-02T13:01:55.000Z</time>
      </trkpt>
      <trkpt lat="41.039328463375568389892578125" lon="-1.356127560138702392578125">
        <ele>804</ele>
        <time>2022-05-02T13:01:56.000Z</time>
      </trkpt>
      <trkpt lat="41.0392622463405132293701171875" lon="-1.3560566492378711700439453125">
        <ele>803.4000244140625</ele>
        <time>2022-05-02T13:01:58.000Z</time>
      </trkpt>
      <trkpt lat="41.0392015613615512847900390625" lon="-1.35598213411867618560791015625">
        <ele>803</ele>
        <time>2022-05-02T13:02:00.000Z</time>
      </trkpt>
      <trkpt lat="41.03914800100028514862060546875" lon="-1.3559064455330371856689453125">
        <ele>802.79998779296875</ele>
        <time>2022-05-02T13:02:02.000Z</time>
      </trkpt>
      <trkpt lat="41.0391244478523731231689453125" lon="-1.355864368379116058349609375">
        <ele>802.5999755859375</ele>
        <time>2022-05-02T13:02:03.000Z</time>
      </trkpt>
      <trkpt lat="41.03910005651414394378662109375" lon="-1.3558232970535755157470703125">
        <ele>802.5999755859375</ele>
        <time>2022-05-02T13:02:04.000Z</time>
      </trkpt>
      <trkpt lat="41.0390513576567173004150390625" lon="-1.35574324987828731536865234375">
        <ele>802.4000244140625</ele>
        <time>2022-05-02T13:02:06.000Z</time>
      </trkpt>
      <trkpt lat="41.03900584392249584197998046875" lon="-1.3556653819978237152099609375">
        <ele>802.79998779296875</ele>
        <time>2022-05-02T13:02:08.000Z</time>
      </trkpt>
      <trkpt lat="41.03896041400730609893798828125" lon="-1.35558701120316982269287109375">
        <ele>803.20001220703125</ele>
        <time>2022-05-02T13:02:10.000Z</time>
      </trkpt>
      <trkpt lat="41.038912050426006317138671875" lon="-1.3555145077407360076904296875">
        <ele>803.5999755859375</ele>
        <time>2022-05-02T13:02:12.000Z</time>
      </trkpt>
      <trkpt lat="41.03886838071048259735107421875" lon="-1.3554437644779682159423828125">
        <ele>804.20001220703125</ele>
        <time>2022-05-02T13:02:14.000Z</time>
      </trkpt>
      <trkpt lat="41.03881976567208766937255859375" lon="-1.35537897236645221710205078125">
        <ele>803.79998779296875</ele>
        <time>2022-05-02T13:02:16.000Z</time>
      </trkpt>
      <trkpt lat="41.0387710668146610260009765625" lon="-1.3553234003484249114990234375">
        <ele>803.20001220703125</ele>
        <time>2022-05-02T13:02:18.000Z</time>
      </trkpt>
      <trkpt lat="41.03874784894287586212158203125" lon="-1.355290710926055908203125">
        <ele>803</ele>
        <time>2022-05-02T13:02:19.000Z</time>
      </trkpt>
      <trkpt lat="41.03872655890882015228271484375" lon="-1.3552563451230525970458984375">
        <ele>802.79998779296875</ele>
        <time>2022-05-02T13:02:20.000Z</time>
      </trkpt>
      <trkpt lat="41.03868699632585048675537109375" lon="-1.3551862724125385284423828125">
        <ele>803</ele>
        <time>2022-05-02T13:02:22.000Z</time>
      </trkpt>
      <trkpt lat="41.038645841181278228759765625" lon="-1.3551151938736438751220703125">
        <ele>803</ele>
        <time>2022-05-02T13:02:24.000Z</time>
      </trkpt>
      <trkpt lat="41.0386047698557376861572265625" lon="-1.3550508208572864532470703125">
        <ele>803.20001220703125</ele>
        <time>2022-05-02T13:02:26.000Z</time>
      </trkpt>
      <trkpt lat="41.03855959139764308929443359375" lon="-1.35498167015612125396728515625">
        <ele>803.20001220703125</ele>
        <time>2022-05-02T13:02:28.000Z</time>
      </trkpt>
      <trkpt lat="41.03851684369146823883056640625" lon="-1.3549123518168926239013671875">
        <ele>803.4000244140625</ele>
        <time>2022-05-02T13:02:30.000Z</time>
      </trkpt>
      <trkpt lat="41.03847426362335681915283203125" lon="-1.3548352383077144622802734375">
        <ele>803.4000244140625</ele>
        <time>2022-05-02T13:02:32.000Z</time>
      </trkpt>
      <trkpt lat="41.038454063236713409423828125" lon="-1.3547960110008716583251953125">
        <ele>803.4000244140625</ele>
        <time>2022-05-02T13:02:33.000Z</time>
      </trkpt>
      <trkpt lat="41.0384327732026576995849609375" lon="-1.3547604717314243316650390625">
        <ele>803.5999755859375</ele>
        <time>2022-05-02T13:02:34.000Z</time>
      </trkpt>
      <trkpt lat="41.03838558308780193328857421875" lon="-1.35468696244060993194580078125">
        <ele>803.5999755859375</ele>
        <time>2022-05-02T13:02:36.000Z</time>
      </trkpt>
      <trkpt lat="41.03833772242069244384765625" lon="-1.35462284088134765625">
        <ele>804.20001220703125</ele>
        <time>2022-05-02T13:02:38.000Z</time>
      </trkpt>
      <trkpt lat="41.038313917815685272216796875" lon="-1.3545901514589786529541015625">
        <ele>804.4000244140625</ele>
        <time>2022-05-02T13:02:39.000Z</time>
      </trkpt>
      <trkpt lat="41.03829338215291500091552734375" lon="-1.35455251671373844146728515625">
        <ele>804.79998779296875</ele>
        <time>2022-05-02T13:02:40.000Z</time>
      </trkpt>
      <trkpt lat="41.03825180791318416595458984375" lon="-1.3544738106429576873779296875">
        <ele>805.4000244140625</ele>
        <time>2022-05-02T13:02:42.000Z</time>
      </trkpt>
      <trkpt lat="41.0382071323692798614501953125" lon="-1.35440968908369541168212890625">
        <ele>806</ele>
        <time>2022-05-02T13:02:44.000Z</time>
      </trkpt>
      <trkpt lat="41.03816580958664417266845703125" lon="-1.35433852672576904296875">
        <ele>806.4000244140625</ele>
        <time>2022-05-02T13:02:46.000Z</time>
      </trkpt>
      <trkpt lat="41.03810713626444339752197265625" lon="-1.354278512299060821533203125">
        <ele>806.5999755859375</ele>
        <time>2022-05-02T13:02:48.000Z</time>
      </trkpt>
      <trkpt lat="41.03808316402137279510498046875" lon="-1.35423995554447174072265625">
        <ele>806.79998779296875</ele>
        <time>2022-05-02T13:02:49.000Z</time>
      </trkpt>
      <trkpt lat="41.0380586050450801849365234375" lon="-1.3542039133608341217041015625">
        <ele>806.79998779296875</ele>
        <time>2022-05-02T13:02:50.000Z</time>
      </trkpt>
      <trkpt lat="41.038032956421375274658203125" lon="-1.35416912846267223358154296875">
        <ele>806.79998779296875</ele>
        <time>2022-05-02T13:02:51.000Z</time>
      </trkpt>
      <trkpt lat="41.03800722397863864898681640625" lon="-1.35413476265966892242431640625">
        <ele>806.79998779296875</ele>
        <time>2022-05-02T13:02:52.000Z</time>
      </trkpt>
      <trkpt lat="41.0379580222070217132568359375" lon="-1.35406452231109142303466796875">
        <ele>806.79998779296875</ele>
        <time>2022-05-02T13:02:54.000Z</time>
      </trkpt>
      <trkpt lat="41.03791058063507080078125" lon="-1.35400048457086086273193359375">
        <ele>806.79998779296875</ele>
        <time>2022-05-02T13:02:56.000Z</time>
      </trkpt>
      <trkpt lat="41.037865318357944488525390625" lon="-1.35394047014415264129638671875">
        <ele>807.20001220703125</ele>
        <time>2022-05-02T13:02:58.000Z</time>
      </trkpt>
      <trkpt lat="41.03780589066445827484130859375" lon="-1.35388565249741077423095703125">
        <ele>807.5999755859375</ele>
        <time>2022-05-02T13:03:00.000Z</time>
      </trkpt>
      <trkpt lat="41.03774755261838436126708984375" lon="-1.35382915847003459930419921875">
        <ele>808.20001220703125</ele>
        <time>2022-05-02T13:03:02.000Z</time>
      </trkpt>
      <trkpt lat="41.03769390843808650970458984375" lon="-1.35376880876719951629638671875">
        <ele>808.4000244140625</ele>
        <time>2022-05-02T13:03:04.000Z</time>
      </trkpt>
      <trkpt lat="41.037664152681827545166015625" lon="-1.35373863391578197479248046875">
        <ele>808.4000244140625</ele>
        <time>2022-05-02T13:03:05.000Z</time>
      </trkpt>
      <trkpt lat="41.03763238526880741119384765625" lon="-1.3537068665027618408203125">
        <ele>808.5999755859375</ele>
        <time>2022-05-02T13:03:06.000Z</time>
      </trkpt>
      <trkpt lat="41.03757421486079692840576171875" lon="-1.35363520123064517974853515625">
        <ele>808.79998779296875</ele>
        <time>2022-05-02T13:03:08.000Z</time>
      </trkpt>
      <trkpt lat="41.037507243454456329345703125" lon="-1.35356672108173370361328125">
        <ele>808.5999755859375</ele>
        <time>2022-05-02T13:03:10.000Z</time>
      </trkpt>
      <trkpt lat="41.03747463785111904144287109375" lon="-1.35353595949709415435791015625">
        <ele>808.4000244140625</ele>
        <time>2022-05-02T13:03:11.000Z</time>
      </trkpt>
      <trkpt lat="41.03744261898100376129150390625" lon="-1.3535048626363277435302734375">
        <ele>808.4000244140625</ele>
        <time>2022-05-02T13:03:12.000Z</time>
      </trkpt>
      <trkpt lat="41.037373133003711700439453125" lon="-1.353439986705780029296875">
        <ele>808.4000244140625</ele>
        <time>2022-05-02T13:03:14.000Z</time>
      </trkpt>
      <trkpt lat="41.0373032279312610626220703125" lon="-1.3533647172152996063232421875">
        <ele>808</ele>
        <time>2022-05-02T13:03:16.000Z</time>
      </trkpt>
      <trkpt lat="41.03723533451557159423828125" lon="-1.35328911244869232177734375">
        <ele>807.5999755859375</ele>
        <time>2022-05-02T13:03:18.000Z</time>
      </trkpt>
      <trkpt lat="41.03717573918402194976806640625" lon="-1.35321937501430511474609375">
        <ele>806.79998779296875</ele>
        <time>2022-05-02T13:03:20.000Z</time>
      </trkpt>
      <trkpt lat="41.03712075389921665191650390625" lon="-1.35315500199794769287109375">
        <ele>807</ele>
        <time>2022-05-02T13:03:22.000Z</time>
      </trkpt>
      <trkpt lat="41.03706677444279193878173828125" lon="-1.3530953228473663330078125">
        <ele>807.20001220703125</ele>
        <time>2022-05-02T13:03:24.000Z</time>
      </trkpt>
      <trkpt lat="41.03701028041541576385498046875" lon="-1.35303162038326263427734375">
        <ele>807.5999755859375</ele>
        <time>2022-05-02T13:03:26.000Z</time>
      </trkpt>
      <trkpt lat="41.0369471646845340728759765625" lon="-1.35297621600329875946044921875">
        <ele>807.79998779296875</ele>
        <time>2022-05-02T13:03:28.000Z</time>
      </trkpt>
      <trkpt lat="41.0368894971907138824462890625" lon="-1.3529154472053050994873046875">
        <ele>807.79998779296875</ele>
        <time>2022-05-02T13:03:30.000Z</time>
      </trkpt>
      <trkpt lat="41.0368398763239383697509765625" lon="-1.3528483919799327850341796875">
        <ele>807.79998779296875</ele>
        <time>2022-05-02T13:03:32.000Z</time>
      </trkpt>
      <trkpt lat="41.0367946140468120574951171875" lon="-1.352781839668750762939453125">
        <ele>807.5999755859375</ele>
        <time>2022-05-02T13:03:34.000Z</time>
      </trkpt>
      <trkpt lat="41.03675446473062038421630859375" lon="-1.3527156226336956024169921875">
        <ele>807.5999755859375</ele>
        <time>2022-05-02T13:03:36.000Z</time>
      </trkpt>
      <trkpt lat="41.0367198474705219268798828125" lon="-1.3526522554457187652587890625">
        <ele>807.5999755859375</ele>
        <time>2022-05-02T13:03:38.000Z</time>
      </trkpt>
      <trkpt lat="41.03668439202010631561279296875" lon="-1.35259601287543773651123046875">
        <ele>807.5999755859375</ele>
        <time>2022-05-02T13:03:40.000Z</time>
      </trkpt>
      <trkpt lat="41.0366524569690227508544921875" lon="-1.3525453023612499237060546875">
        <ele>807.5999755859375</ele>
        <time>2022-05-02T13:03:42.000Z</time>
      </trkpt>
      <trkpt lat="41.03662303648889064788818359375" lon="-1.35249308310449123382568359375">
        <ele>807.4000244140625</ele>
        <time>2022-05-02T13:03:44.000Z</time>
      </trkpt>
      <trkpt lat="41.03660945780575275421142578125" lon="-1.3524557836353778839111328125">
        <ele>807.5999755859375</ele>
        <time>2022-05-02T13:03:45.000Z</time>
      </trkpt>
      <trkpt lat="41.03659638203680515289306640625" lon="-1.35241731069982051849365234375">
        <ele>807.5999755859375</ele>
        <time>2022-05-02T13:03:46.000Z</time>
      </trkpt>
      <trkpt lat="41.036570481956005096435546875" lon="-1.352345980703830718994140625">
        <ele>807.5999755859375</ele>
        <time>2022-05-02T13:03:48.000Z</time>
      </trkpt>
      <trkpt lat="41.03655832819640636444091796875" lon="-1.35230834595859050750732421875">
        <ele>807.5999755859375</ele>
        <time>2022-05-02T13:03:49.000Z</time>
      </trkpt>
      <trkpt lat="41.03654793463647365570068359375" lon="-1.35227012448012828826904296875">
        <ele>807.79998779296875</ele>
        <time>2022-05-02T13:03:50.000Z</time>
      </trkpt>
      <trkpt lat="41.0365314222872257232666015625" lon="-1.3521992973983287811279296875">
        <ele>807.79998779296875</ele>
        <time>2022-05-02T13:03:52.000Z</time>
      </trkpt>
      <trkpt lat="41.03651792742311954498291015625" lon="-1.3521275483071804046630859375">
        <ele>808.5999755859375</ele>
        <time>2022-05-02T13:03:54.000Z</time>
      </trkpt>
      <trkpt lat="41.0365059413015842437744140625" lon="-1.3520534522831439971923828125">
        <ele>809.20001220703125</ele>
        <time>2022-05-02T13:03:56.000Z</time>
      </trkpt>
      <trkpt lat="41.03650183416903018951416015625" lon="-1.35201632045209407806396484375">
        <ele>809.5999755859375</ele>
        <time>2022-05-02T13:03:57.000Z</time>
      </trkpt>
      <trkpt lat="41.036497056484222412109375" lon="-1.3519786857068538665771484375">
        <ele>810</ele>
        <time>2022-05-02T13:03:58.000Z</time>
      </trkpt>
      <trkpt lat="41.03648993186652660369873046875" lon="-1.35190316475927829742431640625">
        <ele>810.5999755859375</ele>
        <time>2022-05-02T13:04:00.000Z</time>
      </trkpt>
      <trkpt lat="41.03648607619106769561767578125" lon="-1.35183309204876422882080078125">
        <ele>811.20001220703125</ele>
        <time>2022-05-02T13:04:02.000Z</time>
      </trkpt>
      <trkpt lat="41.03648364543914794921875" lon="-1.351774670183658599853515625">
        <ele>811.5999755859375</ele>
        <time>2022-05-02T13:04:04.000Z</time>
      </trkpt>
      <trkpt lat="41.03647752664983272552490234375" lon="-1.35174323804676532745361328125">
        <ele>811.79998779296875</ele>
        <time>2022-05-02T13:04:05.000Z</time>
      </trkpt>
      <trkpt lat="41.0364697314798831939697265625" lon="-1.3517097942531108856201171875">
        <ele>812</ele>
        <time>2022-05-02T13:04:06.000Z</time>
      </trkpt>
      <trkpt lat="41.03645187802612781524658203125" lon="-1.3516397215425968170166015625">
        <ele>812</ele>
        <time>2022-05-02T13:04:08.000Z</time>
      </trkpt>
      <trkpt lat="41.0364315100014209747314453125" lon="-1.3515719957649707794189453125">
        <ele>812.20001220703125</ele>
        <time>2022-05-02T13:04:10.000Z</time>
      </trkpt>
      <trkpt lat="41.0364120639860630035400390625" lon="-1.3515129871666431427001953125">
        <ele>812.4000244140625</ele>
        <time>2022-05-02T13:04:12.000Z</time>
      </trkpt>
      <trkpt lat="41.03640074841678142547607421875" lon="-1.35148876346647739410400390625">
        <ele>812.5999755859375</ele>
        <time>2022-05-02T13:04:13.000Z</time>
      </trkpt>
      <trkpt lat="41.0363889299333095550537109375" lon="-1.35146764107048511505126953125">
        <ele>812.5999755859375</ele>
        <time>2022-05-02T13:04:14.000Z</time>
      </trkpt>
      <trkpt lat="41.0363748483359813690185546875" lon="-1.3514506258070468902587890625">
        <ele>812.4000244140625</ele>
        <time>2022-05-02T13:04:16.000Z</time>
      </trkpt>
      <trkpt lat="41.03637476451694965362548828125" lon="-1.3514509610831737518310546875">
        <ele>812.4000244140625</ele>
        <time>2022-05-02T13:04:17.000Z</time>
      </trkpt>
      <trkpt lat="41.0364206135272979736328125" lon="-1.3514898531138896942138671875">
        <ele>812.79998779296875</ele>
        <time>2022-05-02T13:04:51.000Z</time>
      </trkpt>
      <trkpt lat="41.03642606176435947418212890625" lon="-1.3515074551105499267578125">
        <ele>812.5999755859375</ele>
        <time>2022-05-02T13:04:52.000Z</time>
      </trkpt>
      <trkpt lat="41.0364385508000850677490234375" lon="-1.35154693387448787689208984375">
        <ele>812.4000244140625</ele>
        <time>2022-05-02T13:04:54.000Z</time>
      </trkpt>
      <trkpt lat="41.0364569909870624542236328125" lon="-1.35159588418900966644287109375">
        <ele>812.4000244140625</ele>
        <time>2022-05-02T13:04:56.000Z</time>
      </trkpt>
      <trkpt lat="41.03648238815367221832275390625" lon="-1.35165975429117679595947265625">
        <ele>812.20001220703125</ele>
        <time>2022-05-02T13:04:58.000Z</time>
      </trkpt>
      <trkpt lat="41.03650568984448909759521484375" lon="-1.35174022056162357330322265625">
        <ele>812</ele>
        <time>2022-05-02T13:05:00.000Z</time>
      </trkpt>
      <trkpt lat="41.03652463294565677642822265625" lon="-1.35183661244809627532958984375">
        <ele>811.4000244140625</ele>
        <time>2022-05-02T13:05:02.000Z</time>
      </trkpt>
      <trkpt lat="41.03653720580041408538818359375" lon="-1.35194390080869197845458984375">
        <ele>810.5999755859375</ele>
        <time>2022-05-02T13:05:04.000Z</time>
      </trkpt>
      <trkpt lat="41.036546342074871063232421875" lon="-1.35205328464508056640625">
        <ele>809.4000244140625</ele>
        <time>2022-05-02T13:05:06.000Z</time>
      </trkpt>
      <trkpt lat="41.0365525446832180023193359375" lon="-1.35216048918664455413818359375">
        <ele>808.4000244140625</ele>
        <time>2022-05-02T13:05:08.000Z</time>
      </trkpt>
      <trkpt lat="41.03657291270792484283447265625" lon="-1.35226978920400142669677734375">
        <ele>808</ele>
        <time>2022-05-02T13:05:10.000Z</time>
      </trkpt>
      <trkpt lat="41.03658665902912616729736328125" lon="-1.35232376866042613983154296875">
        <ele>807.79998779296875</ele>
        <time>2022-05-02T13:05:11.000Z</time>
      </trkpt>
      <trkpt lat="41.03660099208354949951171875" lon="-1.35237607173621654510498046875">
        <ele>807.79998779296875</ele>
        <time>2022-05-02T13:05:12.000Z</time>
      </trkpt>
      <trkpt lat="41.03662781417369842529296875" lon="-1.3524604775011539459228515625">
        <ele>807.5999755859375</ele>
        <time>2022-05-02T13:05:14.000Z</time>
      </trkpt>
      <trkpt lat="41.03663862682878971099853515625" lon="-1.35250984691083431243896484375">
        <ele>807.5999755859375</ele>
        <time>2022-05-02T13:05:16.000Z</time>
      </trkpt>
      <trkpt lat="41.03662513196468353271484375" lon="-1.3525266945362091064453125">
        <ele>807.4000244140625</ele>
        <time>2022-05-02T13:05:18.000Z</time>
      </trkpt>
      <trkpt lat="41.03661968372762203216552734375" lon="-1.3525240123271942138671875">
        <ele>807.4000244140625</ele>
        <time>2022-05-02T13:05:19.000Z</time>
      </trkpt>
      <trkpt lat="41.03660845197737216949462890625" lon="-1.3525191508233547210693359375">
        <ele>807.20001220703125</ele>
        <time>2022-05-02T13:05:20.000Z</time>
      </trkpt>
      <trkpt lat="41.0365770198404788970947265625" lon="-1.35249442420899868011474609375">
        <ele>807.20001220703125</ele>
        <time>2022-05-02T13:05:22.000Z</time>
      </trkpt>
      <trkpt lat="41.03653661906719207763671875" lon="-1.3524557836353778839111328125">
        <ele>807</ele>
        <time>2022-05-02T13:05:24.000Z</time>
      </trkpt>
      <trkpt lat="41.036481969058513641357421875" lon="-1.35240859352052211761474609375">
        <ele>806.79998779296875</ele>
        <time>2022-05-02T13:05:26.000Z</time>
      </trkpt>
      <trkpt lat="41.0364157520234584808349609375" lon="-1.35235168039798736572265625">
        <ele>806.5999755859375</ele>
        <time>2022-05-02T13:05:28.000Z</time>
      </trkpt>
      <trkpt lat="41.036377362906932830810546875" lon="-1.35232728905975818634033203125">
        <ele>806.4000244140625</ele>
        <time>2022-05-02T13:05:29.000Z</time>
      </trkpt>
      <trkpt lat="41.0363339446485042572021484375" lon="-1.35231454856693744659423828125">
        <ele>806.4000244140625</ele>
        <time>2022-05-02T13:05:30.000Z</time>
      </trkpt>
      <trkpt lat="41.0362462699413299560546875" lon="-1.35235561989247798919677734375">
        <ele>805.5999755859375</ele>
        <time>2022-05-02T13:05:32.000Z</time>
      </trkpt>
      <trkpt lat="41.03621131740510463714599609375" lon="-1.35241026990115642547607421875">
        <ele>805</ele>
        <time>2022-05-02T13:05:33.000Z</time>
      </trkpt>
      <trkpt lat="41.03618097491562366485595703125" lon="-1.35247682221233844757080078125">
        <ele>804.20001220703125</ele>
        <time>2022-05-02T13:05:34.000Z</time>
      </trkpt>
      <trkpt lat="41.036151386797428131103515625" lon="-1.3525481522083282470703125">
        <ele>803.20001220703125</ele>
        <time>2022-05-02T13:05:35.000Z</time>
      </trkpt>
      <trkpt lat="41.03612146340310573577880859375" lon="-1.352617554366588592529296875">
        <ele>802.4000244140625</ele>
        <time>2022-05-02T13:05:36.000Z</time>
      </trkpt>
      <trkpt lat="41.03609464131295680999755859375" lon="-1.35268284939229488372802734375">
        <ele>801.5999755859375</ele>
        <time>2022-05-02T13:05:37.000Z</time>
      </trkpt>
      <trkpt lat="41.036071591079235076904296875" lon="-1.3527412712574005126953125">
        <ele>801</ele>
        <time>2022-05-02T13:05:38.000Z</time>
      </trkpt>
      <trkpt lat="41.036048792302608489990234375" lon="-1.35278963483870029449462890625">
        <ele>800.20001220703125</ele>
        <time>2022-05-02T13:05:39.000Z</time>
      </trkpt>
      <trkpt lat="41.03602289222180843353271484375" lon="-1.35282668285071849822998046875">
        <ele>799.4000244140625</ele>
        <time>2022-05-02T13:05:40.000Z</time>
      </trkpt>
      <trkpt lat="41.03595315478742122650146484375" lon="-1.35286808945238590240478515625">
        <ele>798.5999755859375</ele>
        <time>2022-05-02T13:05:42.000Z</time>
      </trkpt>
      <trkpt lat="41.035911329090595245361328125" lon="-1.35286473669111728668212890625">
        <ele>798.5999755859375</ele>
        <time>2022-05-02T13:05:43.000Z</time>
      </trkpt>
      <trkpt lat="41.03586883284151554107666015625" lon="-1.35284864343702793121337890625">
        <ele>798.79998779296875</ele>
        <time>2022-05-02T13:05:44.000Z</time>
      </trkpt>
      <trkpt lat="41.03578585200011730194091796875" lon="-1.35279499925673007965087890625">
        <ele>798.79998779296875</ele>
        <time>2022-05-02T13:05:46.000Z</time>
      </trkpt>
      <trkpt lat="41.035743691027164459228515625" lon="-1.3527667522430419921875">
        <ele>799</ele>
        <time>2022-05-02T13:05:47.000Z</time>
      </trkpt>
      <trkpt lat="41.03570069186389446258544921875" lon="-1.35273666121065616607666015625">
        <ele>799</ele>
        <time>2022-05-02T13:05:48.000Z</time>
      </trkpt>
      <trkpt lat="41.035611592233180999755859375" lon="-1.352678239345550537109375">
        <ele>799.4000244140625</ele>
        <time>2022-05-02T13:05:50.000Z</time>
      </trkpt>
      <trkpt lat="41.03552341461181640625" lon="-1.35262392461299896240234375">
        <ele>799.79998779296875</ele>
        <time>2022-05-02T13:05:52.000Z</time>
      </trkpt>
      <trkpt lat="41.03548728860914707183837890625" lon="-1.3526002876460552215576171875">
        <ele>799.79998779296875</ele>
        <time>2022-05-02T13:05:53.000Z</time>
      </trkpt>
      <trkpt lat="41.03545577265322208404541015625" lon="-1.352584697306156158447265625">
        <ele>799.5999755859375</ele>
        <time>2022-05-02T13:05:54.000Z</time>
      </trkpt>
      <trkpt lat="41.0354263521730899810791015625" lon="-1.3525835238397121429443359375">
        <ele>799.5999755859375</ele>
        <time>2022-05-02T13:05:55.000Z</time>
      </trkpt>
      <trkpt lat="41.03540028445422649383544921875" lon="-1.35259718634188175201416015625">
        <ele>799.4000244140625</ele>
        <time>2022-05-02T13:05:56.000Z</time>
      </trkpt>
      <trkpt lat="41.0353774018585681915283203125" lon="-1.35261696763336658477783203125">
        <ele>799.20001220703125</ele>
        <time>2022-05-02T13:05:57.000Z</time>
      </trkpt>
      <trkpt lat="41.035349406301975250244140625" lon="-1.35263993404805660247802734375">
        <ele>799</ele>
        <time>2022-05-02T13:05:58.000Z</time>
      </trkpt>
      <trkpt lat="41.035278327763080596923828125" lon="-1.3526975177228450775146484375">
        <ele>798.5999755859375</ele>
        <time>2022-05-02T13:06:00.000Z</time>
      </trkpt>
      <trkpt lat="41.03523683734238147735595703125" lon="-1.3527374155819416046142578125">
        <ele>798.4000244140625</ele>
        <time>2022-05-02T13:06:01.000Z</time>
      </trkpt>
      <trkpt lat="41.035194508731365203857421875" lon="-1.35278075002133846282958984375">
        <ele>798</ele>
        <time>2022-05-02T13:06:02.000Z</time>
      </trkpt>
      <trkpt lat="41.03510859422385692596435546875" lon="-1.35287194512784481048583984375">
        <ele>797.4000244140625</ele>
        <time>2022-05-02T13:06:04.000Z</time>
      </trkpt>
      <trkpt lat="41.03501848876476287841796875" lon="-1.3529665768146514892578125">
        <ele>796.79998779296875</ele>
        <time>2022-05-02T13:06:06.000Z</time>
      </trkpt>
      <trkpt lat="41.0349298082292079925537109375" lon="-1.35303723625838756561279296875">
        <ele>796.20001220703125</ele>
        <time>2022-05-02T13:06:08.000Z</time>
      </trkpt>
      <trkpt lat="41.03483584709465503692626953125" lon="-1.353036649525165557861328125">
        <ele>796</ele>
        <time>2022-05-02T13:06:10.000Z</time>
      </trkpt>
      <trkpt lat="41.0347849689424037933349609375" lon="-1.3530197180807590484619140625">
        <ele>796</ele>
        <time>2022-05-02T13:06:11.000Z</time>
      </trkpt>
      <trkpt lat="41.03473476134240627288818359375" lon="-1.35299935005605220794677734375">
        <ele>796</ele>
        <time>2022-05-02T13:06:12.000Z</time>
      </trkpt>
      <trkpt lat="41.034633927047252655029296875" lon="-1.352953501045703887939453125">
        <ele>796.20001220703125</ele>
        <time>2022-05-02T13:06:14.000Z</time>
      </trkpt>
      <trkpt lat="41.034582965075969696044921875" lon="-1.35292860679328441619873046875">
        <ele>796.4000244140625</ele>
        <time>2022-05-02T13:06:15.000Z</time>
      </trkpt>
      <trkpt lat="41.03453141637146472930908203125" lon="-1.352906562387943267822265625">
        <ele>796.4000244140625</ele>
        <time>2022-05-02T13:06:16.000Z</time>
      </trkpt>
      <trkpt lat="41.0344812087714672088623046875" lon="-1.352890469133853912353515625">
        <ele>796.4000244140625</ele>
        <time>2022-05-02T13:06:17.000Z</time>
      </trkpt>
      <trkpt lat="41.03443100117146968841552734375" lon="-1.3528809137642383575439453125">
        <ele>796.4000244140625</ele>
        <time>2022-05-02T13:06:18.000Z</time>
      </trkpt>
      <trkpt lat="41.0343387164175510406494140625" lon="-1.3528936542570590972900390625">
        <ele>796.4000244140625</ele>
        <time>2022-05-02T13:06:20.000Z</time>
      </trkpt>
      <trkpt lat="41.03426218964159488677978515625" lon="-1.3529489748179912567138671875">
        <ele>796.4000244140625</ele>
        <time>2022-05-02T13:06:22.000Z</time>
      </trkpt>
      <trkpt lat="41.03419831953942775726318359375" lon="-1.35303002782166004180908203125">
        <ele>796.4000244140625</ele>
        <time>2022-05-02T13:06:24.000Z</time>
      </trkpt>
      <trkpt lat="41.03412522934377193450927734375" lon="-1.35312239639461040496826171875">
        <ele>796.5999755859375</ele>
        <time>2022-05-02T13:06:26.000Z</time>
      </trkpt>
      <trkpt lat="41.0340869240462779998779296875" lon="-1.353170089423656463623046875">
        <ele>796.79998779296875</ele>
        <time>2022-05-02T13:06:27.000Z</time>
      </trkpt>
      <trkpt lat="41.03404660709202289581298828125" lon="-1.35321962647140026092529296875">
        <ele>797</ele>
        <time>2022-05-02T13:06:28.000Z</time>
      </trkpt>
      <trkpt lat="41.03396396152675151824951171875" lon="-1.35332289151847362518310546875">
        <ele>797.20001220703125</ele>
        <time>2022-05-02T13:06:30.000Z</time>
      </trkpt>
      <trkpt lat="41.0338746942579746246337890625" lon="-1.35342548601329326629638671875">
        <ele>797.5999755859375</ele>
        <time>2022-05-02T13:06:32.000Z</time>
      </trkpt>
      <trkpt lat="41.033822558820247650146484375" lon="-1.3534663058817386627197265625">
        <ele>797.79998779296875</ele>
        <time>2022-05-02T13:06:33.000Z</time>
      </trkpt>
      <trkpt lat="41.033767573535442352294921875" lon="-1.35349840857088565826416015625">
        <ele>798</ele>
        <time>2022-05-02T13:06:34.000Z</time>
      </trkpt>
      <trkpt lat="41.03366003371775150299072265625" lon="-1.35354618541896343231201171875">
        <ele>798.4000244140625</ele>
        <time>2022-05-02T13:06:36.000Z</time>
      </trkpt>
      <trkpt lat="41.0335732810199260711669921875" lon="-1.3535839878022670745849609375">
        <ele>798.5999755859375</ele>
        <time>2022-05-02T13:06:38.000Z</time>
      </trkpt>
      <trkpt lat="41.03349901735782623291015625" lon="-1.35361843742430210113525390625">
        <ele>798.79998779296875</ele>
        <time>2022-05-02T13:06:40.000Z</time>
      </trkpt>
      <trkpt lat="41.03343271650373935699462890625" lon="-1.35361491702497005462646484375">
        <ele>799</ele>
        <time>2022-05-02T13:06:42.000Z</time>
      </trkpt>
      <trkpt lat="41.03340321220457553863525390625" lon="-1.35358759202063083648681640625">
        <ele>799</ele>
        <time>2022-05-02T13:06:43.000Z</time>
      </trkpt>
      <trkpt lat="41.03338175453245639801025390625" lon="-1.35354350320994853973388671875">
        <ele>799</ele>
        <time>2022-05-02T13:06:44.000Z</time>
      </trkpt>
      <trkpt lat="41.03335828520357608795166015625" lon="-1.35343755595386028289794921875">
        <ele>799</ele>
        <time>2022-05-02T13:06:46.000Z</time>
      </trkpt>
      <trkpt lat="41.03335208259522914886474609375" lon="-1.35338625870645046234130859375">
        <ele>799.20001220703125</ele>
        <time>2022-05-02T13:06:47.000Z</time>
      </trkpt>
      <trkpt lat="41.0333493165671825408935546875" lon="-1.3533368892967700958251953125">
        <ele>799.4000244140625</ele>
        <time>2022-05-02T13:06:48.000Z</time>
      </trkpt>
      <trkpt lat="41.03333733044564723968505859375" lon="-1.35324058122932910919189453125">
        <ele>799.79998779296875</ele>
        <time>2022-05-02T13:06:50.000Z</time>
      </trkpt>
      <trkpt lat="41.0333240032196044921875" lon="-1.35313664563000202178955078125">
        <ele>800</ele>
        <time>2022-05-02T13:06:52.000Z</time>
      </trkpt>
      <trkpt lat="41.03331872262060642242431640625" lon="-1.35307746939361095428466796875">
        <ele>800</ele>
        <time>2022-05-02T13:06:53.000Z</time>
      </trkpt>
      <trkpt lat="41.03331419639289379119873046875" lon="-1.353017203509807586669921875">
        <ele>800</ele>
        <time>2022-05-02T13:06:54.000Z</time>
      </trkpt>
      <trkpt lat="41.03329458273947238922119140625" lon="-1.35288317687809467315673828125">
        <ele>799.4000244140625</ele>
        <time>2022-05-02T13:06:56.000Z</time>
      </trkpt>
      <trkpt lat="41.03326742537319660186767578125" lon="-1.3527551852166652679443359375">
        <ele>798.4000244140625</ele>
        <time>2022-05-02T13:06:58.000Z</time>
      </trkpt>
      <trkpt lat="41.0332282818853855133056640625" lon="-1.35264898650348186492919921875">
        <ele>797.5999755859375</ele>
        <time>2022-05-02T13:07:00.000Z</time>
      </trkpt>
      <trkpt lat="41.03317153640091419219970703125" lon="-1.35253918357193470001220703125">
        <ele>797.4000244140625</ele>
        <time>2022-05-02T13:07:02.000Z</time>
      </trkpt>
      <trkpt lat="41.03310029022395610809326171875" lon="-1.35239887051284313201904296875">
        <ele>796.5999755859375</ele>
        <time>2022-05-02T13:07:04.000Z</time>
      </trkpt>
      <trkpt lat="41.03306726552546024322509765625" lon="-1.35234723798930644989013671875">
        <ele>796.20001220703125</ele>
        <time>2022-05-02T13:07:05.000Z</time>
      </trkpt>
      <trkpt lat="41.03303231298923492431640625" lon="-1.352299042046070098876953125">
        <ele>796.20001220703125</ele>
        <time>2022-05-02T13:07:06.000Z</time>
      </trkpt>
      <trkpt lat="41.03299853391945362091064453125" lon="-1.3522559590637683868408203125">
        <ele>796.4000244140625</ele>
        <time>2022-05-02T13:07:07.000Z</time>
      </trkpt>
      <trkpt lat="41.032964922487735748291015625" lon="-1.3522113673388957977294921875">
        <ele>796.79998779296875</ele>
        <time>2022-05-02T13:07:08.000Z</time>
      </trkpt>
      <trkpt lat="41.0328997112810611724853515625" lon="-1.352125369012355804443359375">
        <ele>797.20001220703125</ele>
        <time>2022-05-02T13:07:10.000Z</time>
      </trkpt>
      <trkpt lat="41.0328474082052707672119140625" lon="-1.3520407117903232574462890625">
        <ele>797.79998779296875</ele>
        <time>2022-05-02T13:07:12.000Z</time>
      </trkpt>
      <trkpt lat="41.0328011400997638702392578125" lon="-1.35197080671787261962890625">
        <ele>798</ele>
        <time>2022-05-02T13:07:14.000Z</time>
      </trkpt>
      <trkpt lat="41.03277943097054958343505859375" lon="-1.3519374467432498931884765625">
        <ele>798</ele>
        <time>2022-05-02T13:07:15.000Z</time>
      </trkpt>
      <trkpt lat="41.03276551701128482818603515625" lon="-1.351905427873134613037109375">
        <ele>798</ele>
        <time>2022-05-02T13:07:16.000Z</time>
      </trkpt>
      <trkpt lat="41.03273517452180385589599609375" lon="-1.351855807006359100341796875">
        <ele>797.79998779296875</ele>
        <time>2022-05-02T13:07:18.000Z</time>
      </trkpt>
      <trkpt lat="41.0327136330306529998779296875" lon="-1.3518103770911693572998046875">
        <ele>797.79998779296875</ele>
        <time>2022-05-02T13:07:20.000Z</time>
      </trkpt>
      <trkpt lat="41.0326864756643772125244140625" lon="-1.35177408345043659210205078125">
        <ele>798.20001220703125</ele>
        <time>2022-05-02T13:07:22.000Z</time>
      </trkpt>
      <trkpt lat="41.03268220089375972747802734375" lon="-1.35175983421504497528076171875">
        <ele>798.20001220703125</ele>
        <time>2022-05-02T13:07:24.000Z</time>
      </trkpt>
      <trkpt lat="41.0326821170747280120849609375" lon="-1.35175933130085468292236328125">
        <ele>798.20001220703125</ele>
        <time>2022-05-02T13:07:25.000Z</time>
      </trkpt>
      <trkpt lat="41.03256535716354846954345703125" lon="-1.35160124860703945159912109375">
        <ele>799.20001220703125</ele>
        <time>2022-05-02T13:07:41.000Z</time>
      </trkpt>
      <trkpt lat="41.03254339657723903656005859375" lon="-1.35157920420169830322265625">
        <ele>799.4000244140625</ele>
        <time>2022-05-02T13:07:42.000Z</time>
      </trkpt>
      <trkpt lat="41.03248916566371917724609375" lon="-1.351546011865139007568359375">
        <ele>799.5999755859375</ele>
        <time>2022-05-02T13:07:44.000Z</time>
      </trkpt>
      <trkpt lat="41.03242102079093456268310546875" lon="-1.35151592083275318145751953125">
        <ele>800</ele>
        <time>2022-05-02T13:07:46.000Z</time>
      </trkpt>
      <trkpt lat="41.03233485482633113861083984375" lon="-1.3514885120093822479248046875">
        <ele>800.5999755859375</ele>
        <time>2022-05-02T13:07:48.000Z</time>
      </trkpt>
      <trkpt lat="41.03228774853050708770751953125" lon="-1.35147501714527606964111328125">
        <ele>800.79998779296875</ele>
        <time>2022-05-02T13:07:49.000Z</time>
      </trkpt>
      <trkpt lat="41.03223896585404872894287109375" lon="-1.3514583371579647064208984375">
        <ele>801</ele>
        <time>2022-05-02T13:07:50.000Z</time>
      </trkpt>
      <trkpt lat="41.032144837081432342529296875" lon="-1.3514216244220733642578125">
        <ele>801.5999755859375</ele>
        <time>2022-05-02T13:07:52.000Z</time>
      </trkpt>
      <trkpt lat="41.03204852901399135589599609375" lon="-1.35138616897165775299072265625">
        <ele>801.79998779296875</ele>
        <time>2022-05-02T13:07:54.000Z</time>
      </trkpt>
      <trkpt lat="41.03200008161365985870361328125" lon="-1.35136957280337810516357421875">
        <ele>801.5999755859375</ele>
        <time>2022-05-02T13:07:55.000Z</time>
      </trkpt>
      <trkpt lat="41.031950376927852630615234375" lon="-1.351352892816066741943359375">
        <ele>801.4000244140625</ele>
        <time>2022-05-02T13:07:56.000Z</time>
      </trkpt>
      <trkpt lat="41.03184820152819156646728515625" lon="-1.35131928138434886932373046875">
        <ele>801.20001220703125</ele>
        <time>2022-05-02T13:07:58.000Z</time>
      </trkpt>
      <trkpt lat="41.03179925121366977691650390625" lon="-1.35129648260772228240966796875">
        <ele>801.20001220703125</ele>
        <time>2022-05-02T13:07:59.000Z</time>
      </trkpt>
      <trkpt lat="41.03175180964171886444091796875" lon="-1.3512719236314296722412109375">
        <ele>801.20001220703125</ele>
        <time>2022-05-02T13:08:00.000Z</time>
      </trkpt>
      <trkpt lat="41.0316628776490688323974609375" lon="-1.3512129150331020355224609375">
        <ele>801.5999755859375</ele>
        <time>2022-05-02T13:08:02.000Z</time>
      </trkpt>
      <trkpt lat="41.03157059289515018463134765625" lon="-1.351162455976009368896484375">
        <ele>802.20001220703125</ele>
        <time>2022-05-02T13:08:04.000Z</time>
      </trkpt>
      <trkpt lat="41.0314771346747875213623046875" lon="-1.35112130083143711090087890625">
        <ele>802.5999755859375</ele>
        <time>2022-05-02T13:08:06.000Z</time>
      </trkpt>
      <trkpt lat="41.03138484992086887359619140625" lon="-1.35107972659170627593994140625">
        <ele>802.4000244140625</ele>
        <time>2022-05-02T13:08:08.000Z</time>
      </trkpt>
      <trkpt lat="41.03133983910083770751953125" lon="-1.35105994530022144317626953125">
        <ele>802.4000244140625</ele>
        <time>2022-05-02T13:08:09.000Z</time>
      </trkpt>
      <trkpt lat="41.0312964208424091339111328125" lon="-1.351042427122592926025390625">
        <ele>802.20001220703125</ele>
        <time>2022-05-02T13:08:10.000Z</time>
      </trkpt>
      <trkpt lat="41.03120866231620311737060546875" lon="-1.350999511778354644775390625">
        <ele>801.4000244140625</ele>
        <time>2022-05-02T13:08:12.000Z</time>
      </trkpt>
      <trkpt lat="41.0311190597712993621826171875" lon="-1.35095215402543544769287109375">
        <ele>800.4000244140625</ele>
        <time>2022-05-02T13:08:14.000Z</time>
      </trkpt>
      <trkpt lat="41.03103004395961761474609375" lon="-1.35090270079672336578369140625">
        <ele>800</ele>
        <time>2022-05-02T13:08:16.000Z</time>
      </trkpt>
      <trkpt lat="41.03094027377665042877197265625" lon="-1.3508568517863750457763671875">
        <ele>799.5999755859375</ele>
        <time>2022-05-02T13:08:18.000Z</time>
      </trkpt>
      <trkpt lat="41.0308481566607952117919921875" lon="-1.350820474326610565185546875">
        <ele>799.4000244140625</ele>
        <time>2022-05-02T13:08:20.000Z</time>
      </trkpt>
      <trkpt lat="41.03075377643108367919921875" lon="-1.35078920982778072357177734375">
        <ele>799.20001220703125</ele>
        <time>2022-05-02T13:08:22.000Z</time>
      </trkpt>
      <trkpt lat="41.03066149167716503143310546875" lon="-1.3507669977843761444091796875">
        <ele>799.20001220703125</ele>
        <time>2022-05-02T13:08:24.000Z</time>
      </trkpt>
      <trkpt lat="41.03061270900070667266845703125" lon="-1.35075802914798259735107421875">
        <ele>799.4000244140625</ele>
        <time>2022-05-02T13:08:25.000Z</time>
      </trkpt>
      <trkpt lat="41.03056870400905609130859375" lon="-1.35075350292026996612548828125">
        <ele>799.5999755859375</ele>
        <time>2022-05-02T13:08:26.000Z</time>
      </trkpt>
      <trkpt lat="41.0304773412644863128662109375" lon="-1.350750736892223358154296875">
        <ele>800</ele>
        <time>2022-05-02T13:08:28.000Z</time>
      </trkpt>
      <trkpt lat="41.03038891218602657318115234375" lon="-1.35075417347252368927001953125">
        <ele>800</ele>
        <time>2022-05-02T13:08:30.000Z</time>
      </trkpt>
      <trkpt lat="41.0303442366421222686767578125" lon="-1.3507555983960628509521484375">
        <ele>799.79998779296875</ele>
        <time>2022-05-02T13:08:31.000Z</time>
      </trkpt>
      <trkpt lat="41.03030056692659854888916015625" lon="-1.35075182653963565826416015625">
        <ele>799.5999755859375</ele>
        <time>2022-05-02T13:08:32.000Z</time>
      </trkpt>
      <trkpt lat="41.03020769543945789337158203125" lon="-1.35074294172227382659912109375">
        <ele>799.4000244140625</ele>
        <time>2022-05-02T13:08:34.000Z</time>
      </trkpt>
      <trkpt lat="41.0301668755710124969482421875" lon="-1.3507338054478168487548828125">
        <ele>799.20001220703125</ele>
        <time>2022-05-02T13:08:35.000Z</time>
      </trkpt>
      <trkpt lat="41.0301263071596622467041015625" lon="-1.35071779601275920867919921875">
        <ele>799</ele>
        <time>2022-05-02T13:08:36.000Z</time>
      </trkpt>
      <trkpt lat="41.03008867241442203521728515625" lon="-1.35070019401609897613525390625">
        <ele>798.79998779296875</ele>
        <time>2022-05-02T13:08:37.000Z</time>
      </trkpt>
      <trkpt lat="41.03005380369722843170166015625" lon="-1.35067739523947238922119140625">
        <ele>798.5999755859375</ele>
        <time>2022-05-02T13:08:38.000Z</time>
      </trkpt>
      <trkpt lat="41.02999160997569561004638671875" lon="-1.35061562061309814453125">
        <ele>798.4000244140625</ele>
        <time>2022-05-02T13:08:40.000Z</time>
      </trkpt>
      <trkpt lat="41.0299350321292877197265625" lon="-1.35053641162812709808349609375">
        <ele>798.20001220703125</ele>
        <time>2022-05-02T13:08:42.000Z</time>
      </trkpt>
      <trkpt lat="41.0299070365726947784423828125" lon="-1.3504950888454914093017578125">
        <ele>798.20001220703125</ele>
        <time>2022-05-02T13:08:43.000Z</time>
      </trkpt>
      <trkpt lat="41.0298760235309600830078125" lon="-1.3504533469676971435546875">
        <ele>798</ele>
        <time>2022-05-02T13:08:44.000Z</time>
      </trkpt>
      <trkpt lat="41.02984107099473476409912109375" lon="-1.35041638277471065521240234375">
        <ele>798</ele>
        <time>2022-05-02T13:08:45.000Z</time>
      </trkpt>
      <trkpt lat="41.02980519644916057586669921875" lon="-1.35038285516202449798583984375">
        <ele>798</ele>
        <time>2022-05-02T13:08:46.000Z</time>
      </trkpt>
      <trkpt lat="41.0297313518822193145751953125" lon="-1.35031932033598423004150390625">
        <ele>798.20001220703125</ele>
        <time>2022-05-02T13:08:48.000Z</time>
      </trkpt>
      <trkpt lat="41.02966672740876674652099609375" lon="-1.35026089847087860107421875">
        <ele>798.5999755859375</ele>
        <time>2022-05-02T13:08:50.000Z</time>
      </trkpt>
      <trkpt lat="41.02960738353431224822998046875" lon="-1.35018537752330303192138671875">
        <ele>799</ele>
        <time>2022-05-02T13:08:52.000Z</time>
      </trkpt>
      <trkpt lat="41.02955172769725322723388671875" lon="-1.3501011393964290618896484375">
        <ele>799.20001220703125</ele>
        <time>2022-05-02T13:08:54.000Z</time>
      </trkpt>
      <trkpt lat="41.0295003466308116912841796875" lon="-1.350022852420806884765625">
        <ele>799.20001220703125</ele>
        <time>2022-05-02T13:08:56.000Z</time>
      </trkpt>
      <trkpt lat="41.02944946847856044769287109375" lon="-1.3499469123780727386474609375">
        <ele>799</ele>
        <time>2022-05-02T13:08:58.000Z</time>
      </trkpt>
      <trkpt lat="41.029392890632152557373046875" lon="-1.34987541474401950836181640625">
        <ele>799</ele>
        <time>2022-05-02T13:09:00.000Z</time>
      </trkpt>
      <trkpt lat="41.0293317027390003204345703125" lon="-1.34981372393667697906494140625">
        <ele>798.5999755859375</ele>
        <time>2022-05-02T13:09:02.000Z</time>
      </trkpt>
      <trkpt lat="41.02925986982882022857666015625" lon="-1.34976762346923351287841796875">
        <ele>798.5999755859375</ele>
        <time>2022-05-02T13:09:04.000Z</time>
      </trkpt>
      <trkpt lat="41.02918929420411586761474609375" lon="-1.34973359294235706329345703125">
        <ele>798.5999755859375</ele>
        <time>2022-05-02T13:09:06.000Z</time>
      </trkpt>
      <trkpt lat="41.029116623103618621826171875" lon="-1.34970492683351039886474609375">
        <ele>798.79998779296875</ele>
        <time>2022-05-02T13:09:08.000Z</time>
      </trkpt>
      <trkpt lat="41.029044203460216522216796875" lon="-1.34967441670596599578857421875">
        <ele>799</ele>
        <time>2022-05-02T13:09:10.000Z</time>
      </trkpt>
      <trkpt lat="41.02897421456873416900634765625" lon="-1.3496404699981212615966796875">
        <ele>799.4000244140625</ele>
        <time>2022-05-02T13:09:12.000Z</time>
      </trkpt>
      <trkpt lat="41.028906069695949554443359375" lon="-1.3496029190719127655029296875">
        <ele>800</ele>
        <time>2022-05-02T13:09:14.000Z</time>
      </trkpt>
      <trkpt lat="41.02884027175605297088623046875" lon="-1.3495657034218311309814453125">
        <ele>800.4000244140625</ele>
        <time>2022-05-02T13:09:16.000Z</time>
      </trkpt>
      <trkpt lat="41.02877321653068065643310546875" lon="-1.34952521882951259613037109375">
        <ele>800.79998779296875</ele>
        <time>2022-05-02T13:09:18.000Z</time>
      </trkpt>
      <trkpt lat="41.028740108013153076171875" lon="-1.349503509700298309326171875">
        <ele>801</ele>
        <time>2022-05-02T13:09:19.000Z</time>
      </trkpt>
      <trkpt lat="41.02870750240981578826904296875" lon="-1.3494812138378620147705078125">
        <ele>801</ele>
        <time>2022-05-02T13:09:20.000Z</time>
      </trkpt>
      <trkpt lat="41.0286410339176654815673828125" lon="-1.34943687357008457183837890625">
        <ele>801.20001220703125</ele>
        <time>2022-05-02T13:09:22.000Z</time>
      </trkpt>
      <trkpt lat="41.02857272140681743621826171875" lon="-1.34939865209162235260009765625">
        <ele>801.5999755859375</ele>
        <time>2022-05-02T13:09:24.000Z</time>
      </trkpt>
      <trkpt lat="41.0284995473921298980712890625" lon="-1.34935406036674976348876953125">
        <ele>801.79998779296875</ele>
        <time>2022-05-02T13:09:26.000Z</time>
      </trkpt>
      <trkpt lat="41.02842134423553943634033203125" lon="-1.34930779226124286651611328125">
        <ele>801.4000244140625</ele>
        <time>2022-05-02T13:09:28.000Z</time>
      </trkpt>
      <trkpt lat="41.02834188379347324371337890625" lon="-1.3492606021463871002197265625">
        <ele>801</ele>
        <time>2022-05-02T13:09:30.000Z</time>
      </trkpt>
      <trkpt lat="41.0282599925994873046875" lon="-1.34921894408762454986572265625">
        <ele>801</ele>
        <time>2022-05-02T13:09:32.000Z</time>
      </trkpt>
      <trkpt lat="41.028179191052913665771484375" lon="-1.3491764478385448455810546875">
        <ele>801</ele>
        <time>2022-05-02T13:09:34.000Z</time>
      </trkpt>
      <trkpt lat="41.02810266427695751190185546875" lon="-1.34913277812302112579345703125">
        <ele>801</ele>
        <time>2022-05-02T13:09:36.000Z</time>
      </trkpt>
      <trkpt lat="41.02802923880517482757568359375" lon="-1.3490869291126728057861328125">
        <ele>800.79998779296875</ele>
        <time>2022-05-02T13:09:38.000Z</time>
      </trkpt>
      <trkpt lat="41.02795598097145557403564453125" lon="-1.349036134779453277587890625">
        <ele>800.5999755859375</ele>
        <time>2022-05-02T13:09:40.000Z</time>
      </trkpt>
      <trkpt lat="41.02788121439516544342041015625" lon="-1.34898953139781951904296875">
        <ele>800.5999755859375</ele>
        <time>2022-05-02T13:09:42.000Z</time>
      </trkpt>
      <trkpt lat="41.0278021730482578277587890625" lon="-1.34898508898913860321044921875">
        <ele>800.4000244140625</ele>
        <time>2022-05-02T13:09:44.000Z</time>
      </trkpt>
      <trkpt lat="41.02776956744492053985595703125" lon="-1.34900637902319431304931640625">
        <ele>800.5999755859375</ele>
        <time>2022-05-02T13:09:45.000Z</time>
      </trkpt>
      <trkpt lat="41.0277458466589450836181640625" lon="-1.3490386493504047393798828125">
        <ele>800.5999755859375</ele>
        <time>2022-05-02T13:09:46.000Z</time>
      </trkpt>
      <trkpt lat="41.02772765792906284332275390625" lon="-1.34907963685691356658935546875">
        <ele>800.79998779296875</ele>
        <time>2022-05-02T13:09:47.000Z</time>
      </trkpt>
      <trkpt lat="41.027713827788829803466796875" lon="-1.3491254858672618865966796875">
        <ele>801</ele>
        <time>2022-05-02T13:09:48.000Z</time>
      </trkpt>
      <trkpt lat="41.02770217694342136383056640625" lon="-1.3491761125624179840087890625">
        <ele>801.4000244140625</ele>
        <time>2022-05-02T13:09:49.000Z</time>
      </trkpt>
      <trkpt lat="41.0276905260980129241943359375" lon="-1.34922958910465240478515625">
        <ele>801.79998779296875</ele>
        <time>2022-05-02T13:09:50.000Z</time>
      </trkpt>
      <trkpt lat="41.027675606310367584228515625" lon="-1.34928264655172824859619140625">
        <ele>802.20001220703125</ele>
        <time>2022-05-02T13:09:51.000Z</time>
      </trkpt>
      <trkpt lat="41.02765909396111965179443359375" lon="-1.3493353687226772308349609375">
        <ele>802.5999755859375</ele>
        <time>2022-05-02T13:09:52.000Z</time>
      </trkpt>
      <trkpt lat="41.0276311822235584259033203125" lon="-1.3494305871427059173583984375">
        <ele>803</ele>
        <time>2022-05-02T13:09:54.000Z</time>
      </trkpt>
      <trkpt lat="41.02760561741888523101806640625" lon="-1.349502839148044586181640625">
        <ele>802.79998779296875</ele>
        <time>2022-05-02T13:09:56.000Z</time>
      </trkpt>
      <trkpt lat="41.027593128383159637451171875" lon="-1.34953561238944530487060546875">
        <ele>802.79998779296875</ele>
        <time>2022-05-02T13:09:57.000Z</time>
      </trkpt>
      <trkpt lat="41.0275802202522754669189453125" lon="-1.34956863708794116973876953125">
        <ele>802.79998779296875</ele>
        <time>2022-05-02T13:09:58.000Z</time>
      </trkpt>
      <trkpt lat="41.02755482308566570281982421875" lon="-1.3496294058859348297119140625">
        <ele>802.5999755859375</ele>
        <time>2022-05-02T13:10:00.000Z</time>
      </trkpt>
      <trkpt lat="41.0275282524526119232177734375" lon="-1.3496689684689044952392578125">
        <ele>802.5999755859375</ele>
        <time>2022-05-02T13:10:02.000Z</time>
      </trkpt>
      <trkpt lat="41.0274888575077056884765625" lon="-1.349703334271907806396484375">
        <ele>802.4000244140625</ele>
        <time>2022-05-02T13:10:04.000Z</time>
      </trkpt>
      <trkpt lat="41.02744082920253276824951171875" lon="-1.3497211039066314697265625">
        <ele>802.20001220703125</ele>
        <time>2022-05-02T13:10:06.000Z</time>
      </trkpt>
      <trkpt lat="41.0273985005915164947509765625" lon="-1.349726803600788116455078125">
        <ele>802.20001220703125</ele>
        <time>2022-05-02T13:10:08.000Z</time>
      </trkpt>
      <trkpt lat="41.02735340595245361328125" lon="-1.34973443113267421722412109375">
        <ele>802</ele>
        <time>2022-05-02T13:10:10.000Z</time>
      </trkpt>
      <trkpt lat="41.02730051614344120025634765625" lon="-1.34974096901714801788330078125">
        <ele>801.79998779296875</ele>
        <time>2022-05-02T13:10:12.000Z</time>
      </trkpt>
      <trkpt lat="41.0272429324686527252197265625" lon="-1.349731497466564178466796875">
        <ele>801.79998779296875</ele>
        <time>2022-05-02T13:10:14.000Z</time>
      </trkpt>
      <trkpt lat="41.0271886177361011505126953125" lon="-1.3496983051300048828125">
        <ele>802</ele>
        <time>2022-05-02T13:10:16.000Z</time>
      </trkpt>
      <trkpt lat="41.02713237516582012176513671875" lon="-1.3496540486812591552734375">
        <ele>802</ele>
        <time>2022-05-02T13:10:18.000Z</time>
      </trkpt>
      <trkpt lat="41.02707445621490478515625" lon="-1.34959747083485126495361328125">
        <ele>802</ele>
        <time>2022-05-02T13:10:20.000Z</time>
      </trkpt>
      <trkpt lat="41.0270119272172451019287109375" lon="-1.3495308347046375274658203125">
        <ele>802</ele>
        <time>2022-05-02T13:10:22.000Z</time>
      </trkpt>
      <trkpt lat="41.02694394998252391815185546875" lon="-1.34946671314537525177001953125">
        <ele>802</ele>
        <time>2022-05-02T13:10:24.000Z</time>
      </trkpt>
      <trkpt lat="41.0268657468259334564208984375" lon="-1.3494114764034748077392578125">
        <ele>802</ele>
        <time>2022-05-02T13:10:26.000Z</time>
      </trkpt>
      <trkpt lat="41.02678150869905948638916015625" lon="-1.3493655435740947723388671875">
        <ele>802.20001220703125</ele>
        <time>2022-05-02T13:10:28.000Z</time>
      </trkpt>
      <trkpt lat="41.0266920737922191619873046875" lon="-1.34932572953402996063232421875">
        <ele>802.4000244140625</ele>
        <time>2022-05-02T13:10:30.000Z</time>
      </trkpt>
      <trkpt lat="41.0265961848199367523193359375" lon="-1.34928851388394832611083984375">
        <ele>802.5999755859375</ele>
        <time>2022-05-02T13:10:32.000Z</time>
      </trkpt>
      <trkpt lat="41.02650390006601810455322265625" lon="-1.3492485322058200836181640625">
        <ele>802.5999755859375</ele>
        <time>2022-05-02T13:10:34.000Z</time>
      </trkpt>
      <trkpt lat="41.02645763196051120758056640625" lon="-1.349223554134368896484375">
        <ele>802.5999755859375</ele>
        <time>2022-05-02T13:10:35.000Z</time>
      </trkpt>
      <trkpt lat="41.02641337551176548004150390625" lon="-1.349193714559078216552734375">
        <ele>802.5999755859375</ele>
        <time>2022-05-02T13:10:36.000Z</time>
      </trkpt>
      <trkpt lat="41.026336848735809326171875" lon="-1.3491160981357097625732421875">
        <ele>802.5999755859375</ele>
        <time>2022-05-02T13:10:38.000Z</time>
      </trkpt>
      <trkpt lat="41.02626518346369266510009765625" lon="-1.349036805331707000732421875">
        <ele>802.5999755859375</ele>
        <time>2022-05-02T13:10:40.000Z</time>
      </trkpt>
      <trkpt lat="41.0261951945722103118896484375" lon="-1.3489555008709430694580078125">
        <ele>802.4000244140625</ele>
        <time>2022-05-02T13:10:42.000Z</time>
      </trkpt>
      <trkpt lat="41.02613098919391632080078125" lon="-1.34886958636343479156494140625">
        <ele>802.4000244140625</ele>
        <time>2022-05-02T13:10:44.000Z</time>
      </trkpt>
      <trkpt lat="41.02606770582497119903564453125" lon="-1.34878627024590969085693359375">
        <ele>802.5999755859375</ele>
        <time>2022-05-02T13:10:46.000Z</time>
      </trkpt>
      <trkpt lat="41.02603468112647533416748046875" lon="-1.34874838404357433319091796875">
        <ele>802.5999755859375</ele>
        <time>2022-05-02T13:10:47.000Z</time>
      </trkpt>
      <trkpt lat="41.0260003991425037384033203125" lon="-1.348711587488651275634765625">
        <ele>802.5999755859375</ele>
        <time>2022-05-02T13:10:48.000Z</time>
      </trkpt>
      <trkpt lat="41.0259346850216388702392578125" lon="-1.34863522835075855255126953125">
        <ele>802.20001220703125</ele>
        <time>2022-05-02T13:10:50.000Z</time>
      </trkpt>
      <trkpt lat="41.0258741676807403564453125" lon="-1.348558366298675537109375">
        <ele>802.4000244140625</ele>
        <time>2022-05-02T13:10:52.000Z</time>
      </trkpt>
      <trkpt lat="41.02580912411212921142578125" lon="-1.3484894670546054840087890625">
        <ele>802.5999755859375</ele>
        <time>2022-05-02T13:10:54.000Z</time>
      </trkpt>
      <trkpt lat="41.02577534504234790802001953125" lon="-1.34845820255577564239501953125">
        <ele>802.5999755859375</ele>
        <time>2022-05-02T13:10:55.000Z</time>
      </trkpt>
      <trkpt lat="41.02574232034385204315185546875" lon="-1.34842920117080211639404296875">
        <ele>802.4000244140625</ele>
        <time>2022-05-02T13:10:56.000Z</time>
      </trkpt>
      <trkpt lat="41.02567308582365512847900390625" lon="-1.3483925722539424896240234375">
        <ele>802.4000244140625</ele>
        <time>2022-05-02T13:10:58.000Z</time>
      </trkpt>
      <trkpt lat="41.02560183964669704437255859375" lon="-1.3483885489404201507568359375">
        <ele>802.79998779296875</ele>
        <time>2022-05-02T13:11:00.000Z</time>
      </trkpt>
      <trkpt lat="41.0255293361842632293701171875" lon="-1.3483999483287334442138671875">
        <ele>803</ele>
        <time>2022-05-02T13:11:02.000Z</time>
      </trkpt>
      <trkpt lat="41.02545783855020999908447265625" lon="-1.3484130240976810455322265625">
        <ele>803.4000244140625</ele>
        <time>2022-05-02T13:11:04.000Z</time>
      </trkpt>
      <trkpt lat="41.02538667619228363037109375" lon="-1.34842551313340663909912109375">
        <ele>803.5999755859375</ele>
        <time>2022-05-02T13:11:06.000Z</time>
      </trkpt>
      <trkpt lat="41.0253144241869449615478515625" lon="-1.348429284989833831787109375">
        <ele>803.79998779296875</ele>
        <time>2022-05-02T13:11:08.000Z</time>
      </trkpt>
      <trkpt lat="41.02527628652751445770263671875" lon="-1.3484297879040241241455078125">
        <ele>804</ele>
        <time>2022-05-02T13:11:09.000Z</time>
      </trkpt>
      <trkpt lat="41.0252379812300205230712890625" lon="-1.3484257645905017852783203125">
        <ele>804.4000244140625</ele>
        <time>2022-05-02T13:11:10.000Z</time>
      </trkpt>
      <trkpt lat="41.02516698651015758514404296875" lon="-1.34839734993875026702880859375">
        <ele>804.79998779296875</ele>
        <time>2022-05-02T13:11:12.000Z</time>
      </trkpt>
      <trkpt lat="41.0251011885702610015869140625" lon="-1.34836130775511264801025390625">
        <ele>805.20001220703125</ele>
        <time>2022-05-02T13:11:14.000Z</time>
      </trkpt>
      <trkpt lat="41.02503807283937931060791015625" lon="-1.348322331905364990234375">
        <ele>805.5999755859375</ele>
        <time>2022-05-02T13:11:16.000Z</time>
      </trkpt>
      <trkpt lat="41.02498576976358890533447265625" lon="-1.34827313013374805450439453125">
        <ele>806.20001220703125</ele>
        <time>2022-05-02T13:11:18.000Z</time>
      </trkpt>
      <trkpt lat="41.02493631653487682342529296875" lon="-1.34820775128901004791259765625">
        <ele>806.4000244140625</ele>
        <time>2022-05-02T13:11:20.000Z</time>
      </trkpt>
      <trkpt lat="41.02489340119063854217529296875" lon="-1.34813818149268627166748046875">
        <ele>806.4000244140625</ele>
        <time>2022-05-02T13:11:22.000Z</time>
      </trkpt>
      <trkpt lat="41.024853922426700592041015625" lon="-1.34806341491639614105224609375">
        <ele>806.20001220703125</ele>
        <time>2022-05-02T13:11:24.000Z</time>
      </trkpt>
      <trkpt lat="41.02482114918529987335205078125" lon="-1.34797959588468074798583984375">
        <ele>806</ele>
        <time>2022-05-02T13:11:26.000Z</time>
      </trkpt>
      <trkpt lat="41.024788208305835723876953125" lon="-1.3478903286159038543701171875">
        <ele>805.79998779296875</ele>
        <time>2022-05-02T13:11:28.000Z</time>
      </trkpt>
      <trkpt lat="41.02475124411284923553466796875" lon="-1.34780625812709331512451171875">
        <ele>805.5999755859375</ele>
        <time>2022-05-02T13:11:30.000Z</time>
      </trkpt>
      <trkpt lat="41.02470682002604007720947265625" lon="-1.3477283902466297149658203125">
        <ele>805.5999755859375</ele>
        <time>2022-05-02T13:11:32.000Z</time>
      </trkpt>
      <trkpt lat="41.024664826691150665283203125" lon="-1.34766720235347747802734375">
        <ele>805.20001220703125</ele>
        <time>2022-05-02T13:11:34.000Z</time>
      </trkpt>
      <trkpt lat="41.02464613504707813262939453125" lon="-1.34764884598553180694580078125">
        <ele>805.20001220703125</ele>
        <time>2022-05-02T13:11:35.000Z</time>
      </trkpt>
      <trkpt lat="41.02462635375559329986572265625" lon="-1.3476335071027278900146484375">
        <ele>805.20001220703125</ele>
        <time>2022-05-02T13:11:36.000Z</time>
      </trkpt>
      <trkpt lat="41.0245979391038417816162109375" lon="-1.3476070202887058258056640625">
        <ele>805</ele>
        <time>2022-05-02T13:11:38.000Z</time>
      </trkpt>
      <trkpt lat="41.02457664906978607177734375" lon="-1.3475869037210941314697265625">
        <ele>805</ele>
        <time>2022-05-02T13:11:40.000Z</time>
      </trkpt>
      <trkpt lat="41.02454446256160736083984375" lon="-1.34756687097251415252685546875">
        <ele>805</ele>
        <time>2022-05-02T13:11:42.000Z</time>
      </trkpt>
      <trkpt lat="41.0245100967586040496826171875" lon="-1.347560919821262359619140625">
        <ele>805</ele>
        <time>2022-05-02T13:11:44.000Z</time>
      </trkpt>
      <trkpt lat="41.02447195909917354583740234375" lon="-1.347563602030277252197265625">
        <ele>805.20001220703125</ele>
        <time>2022-05-02T13:11:46.000Z</time>
      </trkpt>
      <trkpt lat="41.0244177281856536865234375" lon="-1.34757324121892452239990234375">
        <ele>805.5999755859375</ele>
        <time>2022-05-02T13:11:48.000Z</time>
      </trkpt>
      <trkpt lat="41.02434706874191761016845703125" lon="-1.34757332503795623779296875">
        <ele>806.20001220703125</ele>
        <time>2022-05-02T13:11:50.000Z</time>
      </trkpt>
      <trkpt lat="41.0243119485676288604736328125" lon="-1.34756435640156269073486328125">
        <ele>806.4000244140625</ele>
        <time>2022-05-02T13:11:51.000Z</time>
      </trkpt>
      <trkpt lat="41.02427749894559383392333984375" lon="-1.3475520350039005279541015625">
        <ele>806.4000244140625</ele>
        <time>2022-05-02T13:11:52.000Z</time>
      </trkpt>
      <trkpt lat="41.0242143832147121429443359375" lon="-1.34754876606166362762451171875">
        <ele>806.4000244140625</ele>
        <time>2022-05-02T13:11:54.000Z</time>
      </trkpt>
      <trkpt lat="41.024155206978321075439453125" lon="-1.347573660314083099365234375">
        <ele>806.4000244140625</ele>
        <time>2022-05-02T13:11:56.000Z</time>
      </trkpt>
      <trkpt lat="41.0241298936307430267333984375" lon="-1.347601823508739471435546875">
        <ele>806.5999755859375</ele>
        <time>2022-05-02T13:11:57.000Z</time>
      </trkpt>
      <trkpt lat="41.0241094417870044708251953125" lon="-1.34764063172042369842529296875">
        <ele>806.5999755859375</ele>
        <time>2022-05-02T13:11:58.000Z</time>
      </trkpt>
      <trkpt lat="41.02409225888550281524658203125" lon="-1.34768589399755001068115234375">
        <ele>806.79998779296875</ele>
        <time>2022-05-02T13:11:59.000Z</time>
      </trkpt>
      <trkpt lat="41.02407800965011119842529296875" lon="-1.3477354310452938079833984375">
        <ele>807</ele>
        <time>2022-05-02T13:12:00.000Z</time>
      </trkpt>
      <trkpt lat="41.02406593970954418182373046875" lon="-1.347785890102386474609375">
        <ele>807</ele>
        <time>2022-05-02T13:12:01.000Z</time>
      </trkpt>
      <trkpt lat="41.02405554614961147308349609375" lon="-1.3478333316743373870849609375">
        <ele>807</ele>
        <time>2022-05-02T13:12:02.000Z</time>
      </trkpt>
      <trkpt lat="41.02403794415295124053955078125" lon="-1.34791103191673755645751953125">
        <ele>807</ele>
        <time>2022-05-02T13:12:04.000Z</time>
      </trkpt>
      <trkpt lat="41.0240289755165576934814453125" lon="-1.3479374349117279052734375">
        <ele>807</ele>
        <time>2022-05-02T13:12:05.000Z</time>
      </trkpt>
      <trkpt lat="41.0240182466804981231689453125" lon="-1.34795595891773700714111328125">
        <ele>807</ele>
        <time>2022-05-02T13:12:06.000Z</time>
      </trkpt>
      <trkpt lat="41.02398966439068317413330078125" lon="-1.347975321114063262939453125">
        <ele>807</ele>
        <time>2022-05-02T13:12:08.000Z</time>
      </trkpt>
      <trkpt lat="41.02397541515529155731201171875" lon="-1.347969286143779754638671875">
        <ele>807</ele>
        <time>2022-05-02T13:12:09.000Z</time>
      </trkpt>
      <trkpt lat="41.02396083064377307891845703125" lon="-1.34795688092708587646484375">
        <ele>807</ele>
        <time>2022-05-02T13:12:10.000Z</time>
      </trkpt>
      <trkpt lat="41.02392294444143772125244140625" lon="-1.34792008437216281890869140625">
        <ele>807</ele>
        <time>2022-05-02T13:12:12.000Z</time>
      </trkpt>
      <trkpt lat="41.02386862970888614654541015625" lon="-1.347868032753467559814453125">
        <ele>806.79998779296875</ele>
        <time>2022-05-02T13:12:14.000Z</time>
      </trkpt>
      <trkpt lat="41.023813225328922271728515625" lon="-1.34780206717550754547119140625">
        <ele>806.4000244140625</ele>
        <time>2022-05-02T13:12:16.000Z</time>
      </trkpt>
      <trkpt lat="41.02375782094895839691162109375" lon="-1.3477309048175811767578125">
        <ele>806</ele>
        <time>2022-05-02T13:12:18.000Z</time>
      </trkpt>
      <trkpt lat="41.023702919483184814453125" lon="-1.347659491002559661865234375">
        <ele>805.5999755859375</ele>
        <time>2022-05-02T13:12:20.000Z</time>
      </trkpt>
      <trkpt lat="41.02364432998001575469970703125" lon="-1.34759344160556793212890625">
        <ele>805</ele>
        <time>2022-05-02T13:12:22.000Z</time>
      </trkpt>
      <trkpt lat="41.0235857404768466949462890625" lon="-1.34752764366567134857177734375">
        <ele>805</ele>
        <time>2022-05-02T13:12:24.000Z</time>
      </trkpt>
      <trkpt lat="41.0235263966023921966552734375" lon="-1.3474588282406330108642578125">
        <ele>805</ele>
        <time>2022-05-02T13:12:26.000Z</time>
      </trkpt>
      <trkpt lat="41.02349714376032352447509765625" lon="-1.34742471389472484588623046875">
        <ele>804.79998779296875</ele>
        <time>2022-05-02T13:12:27.000Z</time>
      </trkpt>
      <trkpt lat="41.02346797473728656768798828125" lon="-1.34739068336784839630126953125">
        <ele>804.79998779296875</ele>
        <time>2022-05-02T13:12:28.000Z</time>
      </trkpt>
      <trkpt lat="41.023406870663166046142578125" lon="-1.347324550151824951171875">
        <ele>804.5999755859375</ele>
        <time>2022-05-02T13:12:30.000Z</time>
      </trkpt>
      <trkpt lat="41.02337594144046306610107421875" lon="-1.34729010052978992462158203125">
        <ele>804.4000244140625</ele>
        <time>2022-05-02T13:12:31.000Z</time>
      </trkpt>
      <trkpt lat="41.02334626950323581695556640625" lon="-1.34725414216518402099609375">
        <ele>804.4000244140625</ele>
        <time>2022-05-02T13:12:32.000Z</time>
      </trkpt>
      <trkpt lat="41.0232853330671787261962890625" lon="-1.3471864163875579833984375">
        <ele>804.5999755859375</ele>
        <time>2022-05-02T13:12:34.000Z</time>
      </trkpt>
      <trkpt lat="41.023222468793392181396484375" lon="-1.34712011553347110748291015625">
        <ele>805</ele>
        <time>2022-05-02T13:12:36.000Z</time>
      </trkpt>
      <trkpt lat="41.02316320873796939849853515625" lon="-1.34704702533781528472900390625">
        <ele>805</ele>
        <time>2022-05-02T13:12:38.000Z</time>
      </trkpt>
      <trkpt lat="41.02310403250157833099365234375" lon="-1.34697846136987209320068359375">
        <ele>805</ele>
        <time>2022-05-02T13:12:40.000Z</time>
      </trkpt>
      <trkpt lat="41.02307461202144622802734375" lon="-1.34694627486169338226318359375">
        <ele>804.79998779296875</ele>
        <time>2022-05-02T13:12:41.000Z</time>
      </trkpt>
      <trkpt lat="41.0230462811887264251708984375" lon="-1.34691459126770496368408203125">
        <ele>804.4000244140625</ele>
        <time>2022-05-02T13:12:42.000Z</time>
      </trkpt>
      <trkpt lat="41.02299255318939685821533203125" lon="-1.34685340337455272674560546875">
        <ele>804.20001220703125</ele>
        <time>2022-05-02T13:12:44.000Z</time>
      </trkpt>
      <trkpt lat="41.022941507399082183837890625" lon="-1.346800513565540313720703125">
        <ele>804</ele>
        <time>2022-05-02T13:12:46.000Z</time>
      </trkpt>
      <trkpt lat="41.02289247326552867889404296875" lon="-1.34675147943198680877685546875">
        <ele>804.20001220703125</ele>
        <time>2022-05-02T13:12:48.000Z</time>
      </trkpt>
      <trkpt lat="41.02286808192729949951171875" lon="-1.34672599844634532928466796875">
        <ele>804.20001220703125</ele>
        <time>2022-05-02T13:12:49.000Z</time>
      </trkpt>
      <trkpt lat="41.0228444449603557586669921875" lon="-1.3466994278132915496826171875">
        <ele>804.20001220703125</ele>
        <time>2022-05-02T13:12:50.000Z</time>
      </trkpt>
      <trkpt lat="41.02279834449291229248046875" lon="-1.3466461189091205596923828125">
        <ele>804.4000244140625</ele>
        <time>2022-05-02T13:12:52.000Z</time>
      </trkpt>
      <trkpt lat="41.02275098673999309539794921875" lon="-1.346594989299774169921875">
        <ele>804.79998779296875</ele>
        <time>2022-05-02T13:12:54.000Z</time>
      </trkpt>
      <trkpt lat="41.0227036289870738983154296875" lon="-1.346541345119476318359375">
        <ele>805</ele>
        <time>2022-05-02T13:12:56.000Z</time>
      </trkpt>
      <trkpt lat="41.0226563550531864166259765625" lon="-1.34648610837757587432861328125">
        <ele>805</ele>
        <time>2022-05-02T13:12:58.000Z</time>
      </trkpt>
      <trkpt lat="41.02260656654834747314453125" lon="-1.346429027616977691650390625">
        <ele>805</ele>
        <time>2022-05-02T13:13:00.000Z</time>
      </trkpt>
      <trkpt lat="41.0225812532007694244384765625" lon="-1.346398852765560150146484375">
        <ele>805</ele>
        <time>2022-05-02T13:13:01.000Z</time>
      </trkpt>
      <trkpt lat="41.02255485020577907562255859375" lon="-1.34636775590479373931884765625">
        <ele>805.20001220703125</ele>
        <time>2022-05-02T13:13:02.000Z</time>
      </trkpt>
      <trkpt lat="41.0224994458258152008056640625" lon="-1.3463014550507068634033203125">
        <ele>805.5999755859375</ele>
        <time>2022-05-02T13:13:04.000Z</time>
      </trkpt>
      <trkpt lat="41.0224411077797412872314453125" lon="-1.34623490273952484130859375">
        <ele>805.5999755859375</ele>
        <time>2022-05-02T13:13:06.000Z</time>
      </trkpt>
      <trkpt lat="41.02238235063850879669189453125" lon="-1.34617161937057971954345703125">
        <ele>805.4000244140625</ele>
        <time>2022-05-02T13:13:08.000Z</time>
      </trkpt>
      <trkpt lat="41.02232401259243488311767578125" lon="-1.34611059911549091339111328125">
        <ele>805.20001220703125</ele>
        <time>2022-05-02T13:13:10.000Z</time>
      </trkpt>
      <trkpt lat="41.0222945921123027801513671875" lon="-1.34607874788343906402587890625">
        <ele>805.20001220703125</ele>
        <time>2022-05-02T13:13:11.000Z</time>
      </trkpt>
      <trkpt lat="41.02226483635604381561279296875" lon="-1.34604622609913349151611328125">
        <ele>805.4000244140625</ele>
        <time>2022-05-02T13:13:12.000Z</time>
      </trkpt>
      <trkpt lat="41.02220314554870128631591796875" lon="-1.34598084725439548492431640625">
        <ele>805.5999755859375</ele>
        <time>2022-05-02T13:13:14.000Z</time>
      </trkpt>
      <trkpt lat="41.02214162237942218780517578125" lon="-1.345911361277103424072265625">
        <ele>805.79998779296875</ele>
        <time>2022-05-02T13:13:16.000Z</time>
      </trkpt>
      <trkpt lat="41.022079847753047943115234375" lon="-1.345842964947223663330078125">
        <ele>806</ele>
        <time>2022-05-02T13:13:18.000Z</time>
      </trkpt>
      <trkpt lat="41.0220189951360225677490234375" lon="-1.345774233341217041015625">
        <ele>806.20001220703125</ele>
        <time>2022-05-02T13:13:20.000Z</time>
      </trkpt>
      <trkpt lat="41.02195755578577518463134765625" lon="-1.3457066752016544342041015625">
        <ele>806.4000244140625</ele>
        <time>2022-05-02T13:13:22.000Z</time>
      </trkpt>
      <trkpt lat="41.02189569734036922454833984375" lon="-1.34564070962369441986083984375">
        <ele>806.4000244140625</ele>
        <time>2022-05-02T13:13:24.000Z</time>
      </trkpt>
      <trkpt lat="41.021835096180438995361328125" lon="-1.3455725647509098052978515625">
        <ele>806.20001220703125</ele>
        <time>2022-05-02T13:13:26.000Z</time>
      </trkpt>
      <trkpt lat="41.021772734820842742919921875" lon="-1.3455051742494106292724609375">
        <ele>806.20001220703125</ele>
        <time>2022-05-02T13:13:28.000Z</time>
      </trkpt>
      <trkpt lat="41.02170760743319988250732421875" lon="-1.3454384543001651763916015625">
        <ele>806.4000244140625</ele>
        <time>2022-05-02T13:13:30.000Z</time>
      </trkpt>
      <trkpt lat="41.0216431505978107452392578125" lon="-1.345368884503841400146484375">
        <ele>806.5999755859375</ele>
        <time>2022-05-02T13:13:32.000Z</time>
      </trkpt>
      <trkpt lat="41.02158003486692905426025390625" lon="-1.345297805964946746826171875">
        <ele>806.79998779296875</ele>
        <time>2022-05-02T13:13:34.000Z</time>
      </trkpt>
      <trkpt lat="41.02151700295507907867431640625" lon="-1.345227397978305816650390625">
        <ele>806.79998779296875</ele>
        <time>2022-05-02T13:13:36.000Z</time>
      </trkpt>
      <trkpt lat="41.02145514450967311859130859375" lon="-1.345158331096172332763671875">
        <ele>806.4000244140625</ele>
        <time>2022-05-02T13:13:38.000Z</time>
      </trkpt>
      <trkpt lat="41.02139261551201343536376953125" lon="-1.34509001858532428741455078125">
        <ele>806</ele>
        <time>2022-05-02T13:13:40.000Z</time>
      </trkpt>
      <trkpt lat="41.0213323496282100677490234375" lon="-1.34501776657998561859130859375">
        <ele>805.5999755859375</ele>
        <time>2022-05-02T13:13:42.000Z</time>
      </trkpt>
      <trkpt lat="41.0212688148021697998046875" lon="-1.34494878351688385009765625">
        <ele>805</ele>
        <time>2022-05-02T13:13:44.000Z</time>
      </trkpt>
      <trkpt lat="41.02120419032871723175048828125" lon="-1.3448810577392578125">
        <ele>805</ele>
        <time>2022-05-02T13:13:46.000Z</time>
      </trkpt>
      <trkpt lat="41.0211400687694549560546875" lon="-1.34481140412390232086181640625">
        <ele>805.20001220703125</ele>
        <time>2022-05-02T13:13:48.000Z</time>
      </trkpt>
      <trkpt lat="41.021076701581478118896484375" lon="-1.34474099613726139068603515625">
        <ele>805.20001220703125</ele>
        <time>2022-05-02T13:13:50.000Z</time>
      </trkpt>
      <trkpt lat="41.02101207710802555084228515625" lon="-1.34467025287449359893798828125">
        <ele>805.20001220703125</ele>
        <time>2022-05-02T13:13:52.000Z</time>
      </trkpt>
      <trkpt lat="41.0209789685904979705810546875" lon="-1.34463630616664886474609375">
        <ele>805</ele>
        <time>2022-05-02T13:13:53.000Z</time>
      </trkpt>
      <trkpt lat="41.02094653062522411346435546875" lon="-1.34460101835429668426513671875">
        <ele>805.20001220703125</ele>
        <time>2022-05-02T13:13:54.000Z</time>
      </trkpt>
      <trkpt lat="41.020881235599517822265625" lon="-1.34452943690121173858642578125">
        <ele>805.5999755859375</ele>
        <time>2022-05-02T13:13:56.000Z</time>
      </trkpt>
      <trkpt lat="41.02081459946930408477783203125" lon="-1.3444577716290950775146484375">
        <ele>805.79998779296875</ele>
        <time>2022-05-02T13:13:58.000Z</time>
      </trkpt>
      <trkpt lat="41.020749472081661224365234375" lon="-1.34438526816666126251220703125">
        <ele>805.79998779296875</ele>
        <time>2022-05-02T13:14:00.000Z</time>
      </trkpt>
      <trkpt lat="41.02068585343658924102783203125" lon="-1.34431385435163974761962890625">
        <ele>805.79998779296875</ele>
        <time>2022-05-02T13:14:02.000Z</time>
      </trkpt>
      <trkpt lat="41.02065433748066425323486328125" lon="-1.344279237091541290283203125">
        <ele>805.79998779296875</ele>
        <time>2022-05-02T13:14:03.000Z</time>
      </trkpt>
      <trkpt lat="41.0206235758960247039794921875" lon="-1.344244368374347686767578125">
        <ele>806</ele>
        <time>2022-05-02T13:14:04.000Z</time>
      </trkpt>
      <trkpt lat="41.0205622203648090362548828125" lon="-1.344177313148975372314453125">
        <ele>806.20001220703125</ele>
        <time>2022-05-02T13:14:06.000Z</time>
      </trkpt>
      <trkpt lat="41.02050195448100566864013671875" lon="-1.34410983882844448089599609375">
        <ele>806.4000244140625</ele>
        <time>2022-05-02T13:14:08.000Z</time>
      </trkpt>
      <trkpt lat="41.020439676940441131591796875" lon="-1.34404177777469158172607421875">
        <ele>806.79998779296875</ele>
        <time>2022-05-02T13:14:10.000Z</time>
      </trkpt>
      <trkpt lat="41.02037756703794002532958984375" lon="-1.34397321380674839019775390625">
        <ele>807.4000244140625</ele>
        <time>2022-05-02T13:14:12.000Z</time>
      </trkpt>
      <trkpt lat="41.02034680545330047607421875" lon="-1.34393851272761821746826171875">
        <ele>807.5999755859375</ele>
        <time>2022-05-02T13:14:13.000Z</time>
      </trkpt>
      <trkpt lat="41.02031671442091464996337890625" lon="-1.343902051448822021484375">
        <ele>807.79998779296875</ele>
        <time>2022-05-02T13:14:14.000Z</time>
      </trkpt>
      <trkpt lat="41.02025686763226985931396484375" lon="-1.343829631805419921875">
        <ele>808.20001220703125</ele>
        <time>2022-05-02T13:14:16.000Z</time>
      </trkpt>
      <trkpt lat="41.020197607576847076416015625" lon="-1.3437637500464916229248046875">
        <ele>809</ele>
        <time>2022-05-02T13:14:18.000Z</time>
      </trkpt>
      <trkpt lat="41.0201367549598217010498046875" lon="-1.343699209392070770263671875">
        <ele>809.5999755859375</ele>
        <time>2022-05-02T13:14:20.000Z</time>
      </trkpt>
      <trkpt lat="41.02010515518486499786376953125" lon="-1.3436665199697017669677734375">
        <ele>809.79998779296875</ele>
        <time>2022-05-02T13:14:21.000Z</time>
      </trkpt>
      <trkpt lat="41.0200743936002254486083984375" lon="-1.3436336629092693328857421875">
        <ele>810</ele>
        <time>2022-05-02T13:14:22.000Z</time>
      </trkpt>
      <trkpt lat="41.02001295424997806549072265625" lon="-1.343569457530975341796875">
        <ele>809.5999755859375</ele>
        <time>2022-05-02T13:14:24.000Z</time>
      </trkpt>
      <trkpt lat="41.01994975470006465911865234375" lon="-1.343505419790744781494140625">
        <ele>809</ele>
        <time>2022-05-02T13:14:26.000Z</time>
      </trkpt>
      <trkpt lat="41.01988471113145351409912109375" lon="-1.34343928657472133636474609375">
        <ele>809</ele>
        <time>2022-05-02T13:14:28.000Z</time>
      </trkpt>
      <trkpt lat="41.01981480605900287628173828125" lon="-1.34337608702480792999267578125">
        <ele>809.4000244140625</ele>
        <time>2022-05-02T13:14:30.000Z</time>
      </trkpt>
      <trkpt lat="41.01974238641560077667236328125" lon="-1.34331556968390941619873046875">
        <ele>809.79998779296875</ele>
        <time>2022-05-02T13:14:32.000Z</time>
      </trkpt>
      <trkpt lat="41.0196723975241184234619140625" lon="-1.34325019083917140960693359375">
        <ele>810.20001220703125</ele>
        <time>2022-05-02T13:14:34.000Z</time>
      </trkpt>
      <trkpt lat="41.01960224099457263946533203125" lon="-1.34318782947957515716552734375">
        <ele>810.79998779296875</ele>
        <time>2022-05-02T13:14:36.000Z</time>
      </trkpt>
      <trkpt lat="41.0195369459688663482666015625" lon="-1.3431280665099620819091796875">
        <ele>811.5999755859375</ele>
        <time>2022-05-02T13:14:38.000Z</time>
      </trkpt>
      <trkpt lat="41.01950467564165592193603515625" lon="-1.34309696964919567108154296875">
        <ele>812</ele>
        <time>2022-05-02T13:14:39.000Z</time>
      </trkpt>
      <trkpt lat="41.01947148330509662628173828125" lon="-1.3430653698742389678955078125">
        <ele>812.20001220703125</ele>
        <time>2022-05-02T13:14:40.000Z</time>
      </trkpt>
      <trkpt lat="41.019402332603931427001953125" lon="-1.34300460107624530792236328125">
        <ele>813</ele>
        <time>2022-05-02T13:14:42.000Z</time>
      </trkpt>
      <trkpt lat="41.01933158934116363525390625" lon="-1.3429426588118076324462890625">
        <ele>813.5999755859375</ele>
        <time>2022-05-02T13:14:44.000Z</time>
      </trkpt>
      <trkpt lat="41.019255816936492919921875" lon="-1.34288541041314601898193359375">
        <ele>813.5999755859375</ele>
        <time>2022-05-02T13:14:46.000Z</time>
      </trkpt>
      <trkpt lat="41.01917979307472705841064453125" lon="-1.34282791055738925933837890625">
        <ele>813.4000244140625</ele>
        <time>2022-05-02T13:14:48.000Z</time>
      </trkpt>
      <trkpt lat="41.01910536177456378936767578125" lon="-1.34277057833969593048095703125">
        <ele>813.20001220703125</ele>
        <time>2022-05-02T13:14:50.000Z</time>
      </trkpt>
      <trkpt lat="41.0190323553979396820068359375" lon="-1.342715509235858917236328125">
        <ele>812.79998779296875</ele>
        <time>2022-05-02T13:14:52.000Z</time>
      </trkpt>
      <trkpt lat="41.0189636237919330596923828125" lon="-1.3426647149026393890380859375">
        <ele>812.20001220703125</ele>
        <time>2022-05-02T13:14:54.000Z</time>
      </trkpt>
      <trkpt lat="41.01889631710946559906005859375" lon="-1.34261333383619785308837890625">
        <ele>811.5999755859375</ele>
        <time>2022-05-02T13:14:56.000Z</time>
      </trkpt>
      <trkpt lat="41.01882507093250751495361328125" lon="-1.34256639517843723297119140625">
        <ele>811</ele>
        <time>2022-05-02T13:14:58.000Z</time>
      </trkpt>
      <trkpt lat="41.01875801570713520050048828125" lon="-1.34252272546291351318359375">
        <ele>810.4000244140625</ele>
        <time>2022-05-02T13:15:00.000Z</time>
      </trkpt>
      <trkpt lat="41.018696241080760955810546875" lon="-1.34248777292668819427490234375">
        <ele>810.4000244140625</ele>
        <time>2022-05-02T13:15:02.000Z</time>
      </trkpt>
      <trkpt lat="41.01864083670079708099365234375" lon="-1.3424558378756046295166015625">
        <ele>810.4000244140625</ele>
        <time>2022-05-02T13:15:04.000Z</time>
      </trkpt>
      <trkpt lat="41.0186129249632358551025390625" lon="-1.3424451090395450592041015625">
        <ele>810.5999755859375</ele>
        <time>2022-05-02T13:15:05.000Z</time>
      </trkpt>
      <trkpt lat="41.01858635433018207550048828125" lon="-1.34243421256542205810546875">
        <ele>810.5999755859375</ele>
        <time>2022-05-02T13:15:06.000Z</time>
      </trkpt>
      <trkpt lat="41.01854997687041759490966796875" lon="-1.342410743236541748046875">
        <ele>810.79998779296875</ele>
        <time>2022-05-02T13:15:08.000Z</time>
      </trkpt>
      <trkpt lat="41.01852667517960071563720703125" lon="-1.34237713180482387542724609375">
        <ele>810.79998779296875</ele>
        <time>2022-05-02T13:15:10.000Z</time>
      </trkpt>
      <trkpt lat="41.01850211620330810546875" lon="-1.34233773685991764068603515625">
        <ele>810.5999755859375</ele>
        <time>2022-05-02T13:15:12.000Z</time>
      </trkpt>
      <trkpt lat="41.01845911704003810882568359375" lon="-1.3422967493534088134765625">
        <ele>810.4000244140625</ele>
        <time>2022-05-02T13:15:14.000Z</time>
      </trkpt>
      <trkpt lat="41.01843212731182575225830078125" lon="-1.34227730333805084228515625">
        <ele>810.20001220703125</ele>
        <time>2022-05-02T13:15:15.000Z</time>
      </trkpt>
      <trkpt lat="41.01840245537459850311279296875" lon="-1.34225810877978801727294921875">
        <ele>810</ele>
        <time>2022-05-02T13:15:16.000Z</time>
      </trkpt>
      <trkpt lat="41.01833841763436794281005859375" lon="-1.3422184623777866363525390625">
        <ele>810</ele>
        <time>2022-05-02T13:15:18.000Z</time>
      </trkpt>
      <trkpt lat="41.0182706080377101898193359375" lon="-1.34217445738613605499267578125">
        <ele>810</ele>
        <time>2022-05-02T13:15:20.000Z</time>
      </trkpt>
      <trkpt lat="41.01820112206041812896728515625" lon="-1.34212651289999485015869140625">
        <ele>810</ele>
        <time>2022-05-02T13:15:22.000Z</time>
      </trkpt>
      <trkpt lat="41.0181314684450626373291015625" lon="-1.34207353927195072174072265625">
        <ele>810</ele>
        <time>2022-05-02T13:15:24.000Z</time>
      </trkpt>
      <trkpt lat="41.01806198246777057647705078125" lon="-1.34201955981552600860595703125">
        <ele>810</ele>
        <time>2022-05-02T13:15:26.000Z</time>
      </trkpt>
      <trkpt lat="41.01799224503338336944580078125" lon="-1.34196558035910129547119140625">
        <ele>810</ele>
        <time>2022-05-02T13:15:28.000Z</time>
      </trkpt>
      <trkpt lat="41.01792116649448871612548828125" lon="-1.3419126905500888824462890625">
        <ele>810</ele>
        <time>2022-05-02T13:15:30.000Z</time>
      </trkpt>
      <trkpt lat="41.0178489983081817626953125" lon="-1.34186198003590106964111328125">
        <ele>810.20001220703125</ele>
        <time>2022-05-02T13:15:32.000Z</time>
      </trkpt>
      <trkpt lat="41.0177767463028430938720703125" lon="-1.34181068278849124908447265625">
        <ele>810.5999755859375</ele>
        <time>2022-05-02T13:15:34.000Z</time>
      </trkpt>
      <trkpt lat="41.01770390756428241729736328125" lon="-1.34175695478916168212890625">
        <ele>810.79998779296875</ele>
        <time>2022-05-02T13:15:36.000Z</time>
      </trkpt>
      <trkpt lat="41.01763031445443630218505859375" lon="-1.34170171804726123809814453125">
        <ele>811</ele>
        <time>2022-05-02T13:15:38.000Z</time>
      </trkpt>
      <trkpt lat="41.01755755953490734100341796875" lon="-1.34164555929601192474365234375">
        <ele>811</ele>
        <time>2022-05-02T13:15:40.000Z</time>
      </trkpt>
      <trkpt lat="41.01748564280569553375244140625" lon="-1.34158990345895290374755859375">
        <ele>811</ele>
        <time>2022-05-02T13:15:42.000Z</time>
      </trkpt>
      <trkpt lat="41.0174136422574520111083984375" lon="-1.3415371812880039215087890625">
        <ele>810.79998779296875</ele>
        <time>2022-05-02T13:15:44.000Z</time>
      </trkpt>
      <trkpt lat="41.01734180934727191925048828125" lon="-1.341487057507038116455078125">
        <ele>810.5999755859375</ele>
        <time>2022-05-02T13:15:46.000Z</time>
      </trkpt>
      <trkpt lat="41.01727006025612354278564453125" lon="-1.341432742774486541748046875">
        <ele>810.5999755859375</ele>
        <time>2022-05-02T13:15:48.000Z</time>
      </trkpt>
      <trkpt lat="41.0171967186033725738525390625" lon="-1.34138010442256927490234375">
        <ele>810.79998779296875</ele>
        <time>2022-05-02T13:15:50.000Z</time>
      </trkpt>
      <trkpt lat="41.0171242989599704742431640625" lon="-1.34132972918450832366943359375">
        <ele>810.79998779296875</ele>
        <time>2022-05-02T13:15:52.000Z</time>
      </trkpt>
      <trkpt lat="41.017053388059139251708984375" lon="-1.34127549827098846435546875">
        <ele>810.79998779296875</ele>
        <time>2022-05-02T13:15:54.000Z</time>
      </trkpt>
      <trkpt lat="41.016981638967990875244140625" lon="-1.34121707640588283538818359375">
        <ele>811</ele>
        <time>2022-05-02T13:15:56.000Z</time>
      </trkpt>
      <trkpt lat="41.01690955460071563720703125" lon="-1.34116326458752155303955078125">
        <ele>811</ele>
        <time>2022-05-02T13:15:58.000Z</time>
      </trkpt>
      <trkpt lat="41.01683772169053554534912109375" lon="-1.3411090336740016937255859375">
        <ele>811</ele>
        <time>2022-05-02T13:16:00.000Z</time>
      </trkpt>
      <trkpt lat="41.01676329039037227630615234375" lon="-1.34105421602725982666015625">
        <ele>811</ele>
        <time>2022-05-02T13:16:02.000Z</time>
      </trkpt>
      <trkpt lat="41.01668450050055980682373046875" lon="-1.34099881164729595184326171875">
        <ele>811</ele>
        <time>2022-05-02T13:16:04.000Z</time>
      </trkpt>
      <trkpt lat="41.01664477027952671051025390625" lon="-1.34096913971006870269775390625">
        <ele>810.79998779296875</ele>
        <time>2022-05-02T13:16:05.000Z</time>
      </trkpt>
      <trkpt lat="41.0166052915155887603759765625" lon="-1.3409395515918731689453125">
        <ele>810.79998779296875</ele>
        <time>2022-05-02T13:16:06.000Z</time>
      </trkpt>
      <trkpt lat="41.0165268369019031524658203125" lon="-1.340878196060657501220703125">
        <ele>810.5999755859375</ele>
        <time>2022-05-02T13:16:08.000Z</time>
      </trkpt>
      <trkpt lat="41.016447544097900390625" lon="-1.3408176787197589874267578125">
        <ele>810.4000244140625</ele>
        <time>2022-05-02T13:16:10.000Z</time>
      </trkpt>
      <trkpt lat="41.0163689218461513519287109375" lon="-1.34075783193111419677734375">
        <ele>810.4000244140625</ele>
        <time>2022-05-02T13:16:12.000Z</time>
      </trkpt>
      <trkpt lat="41.01629021577537059783935546875" lon="-1.34070150554180145263671875">
        <ele>810.4000244140625</ele>
        <time>2022-05-02T13:16:14.000Z</time>
      </trkpt>
      <trkpt lat="41.0162136889994144439697265625" lon="-1.34064476005733013153076171875">
        <ele>809.79998779296875</ele>
        <time>2022-05-02T13:16:16.000Z</time>
      </trkpt>
      <trkpt lat="41.0161761380732059478759765625" lon="-1.3406161777675151824951171875">
        <ele>809.4000244140625</ele>
        <time>2022-05-02T13:16:17.000Z</time>
      </trkpt>
      <trkpt lat="41.0161379165947437286376953125" lon="-1.34058776311576366424560546875">
        <ele>809.20001220703125</ele>
        <time>2022-05-02T13:16:18.000Z</time>
      </trkpt>
      <trkpt lat="41.016060970723628997802734375" lon="-1.34052992798388004302978515625">
        <ele>809</ele>
        <time>2022-05-02T13:16:20.000Z</time>
      </trkpt>
      <trkpt lat="41.01598511449992656707763671875" lon="-1.340472511947154998779296875">
        <ele>809</ele>
        <time>2022-05-02T13:16:22.000Z</time>
      </trkpt>
      <trkpt lat="41.01591034792363643646240234375" lon="-1.3404165208339691162109375">
        <ele>809</ele>
        <time>2022-05-02T13:16:24.000Z</time>
      </trkpt>
      <trkpt lat="41.0158361680805683135986328125" lon="-1.340361870825290679931640625">
        <ele>809</ele>
        <time>2022-05-02T13:16:26.000Z</time>
      </trkpt>
      <trkpt lat="41.01579953916370868682861328125" lon="-1.34033312089741230010986328125">
        <ele>809</ele>
        <time>2022-05-02T13:16:27.000Z</time>
      </trkpt>
      <trkpt lat="41.01576249115169048309326171875" lon="-1.34030462242662906646728515625">
        <ele>809</ele>
        <time>2022-05-02T13:16:28.000Z</time>
      </trkpt>
      <trkpt lat="41.0156889818608760833740234375" lon="-1.34024678729474544525146484375">
        <ele>809</ele>
        <time>2022-05-02T13:16:30.000Z</time>
      </trkpt>
      <trkpt lat="41.01561312563717365264892578125" lon="-1.3401957415044307708740234375">
        <ele>809.20001220703125</ele>
        <time>2022-05-02T13:16:32.000Z</time>
      </trkpt>
      <trkpt lat="41.0155357606709003448486328125" lon="-1.3401410914957523345947265625">
        <ele>809.5999755859375</ele>
        <time>2022-05-02T13:16:34.000Z</time>
      </trkpt>
      <trkpt lat="41.01545822806656360626220703125" lon="-1.3400814123451709747314453125">
        <ele>810</ele>
        <time>2022-05-02T13:16:36.000Z</time>
      </trkpt>
      <trkpt lat="41.0153775103390216827392578125" lon="-1.3400220684707164764404296875">
        <ele>810.5999755859375</ele>
        <time>2022-05-02T13:16:38.000Z</time>
      </trkpt>
      <trkpt lat="41.01529754698276519775390625" lon="-1.339958868920803070068359375">
        <ele>811</ele>
        <time>2022-05-02T13:16:40.000Z</time>
      </trkpt>
      <trkpt lat="41.01521884091198444366455078125" lon="-1.3398973457515239715576171875">
        <ele>811.4000244140625</ele>
        <time>2022-05-02T13:16:42.000Z</time>
      </trkpt>
      <trkpt lat="41.01513954810798168182373046875" lon="-1.33984361775219440460205078125">
        <ele>811.4000244140625</ele>
        <time>2022-05-02T13:16:44.000Z</time>
      </trkpt>
      <trkpt lat="41.0151009075343608856201171875" lon="-1.33981478400528430938720703125">
        <ele>811.4000244140625</ele>
        <time>2022-05-02T13:16:45.000Z</time>
      </trkpt>
      <trkpt lat="41.01506260223686695098876953125" lon="-1.33978494442999362945556640625">
        <ele>811.4000244140625</ele>
        <time>2022-05-02T13:16:46.000Z</time>
      </trkpt>
      <trkpt lat="41.014985404908657073974609375" lon="-1.33972845040261745452880859375">
        <ele>811.20001220703125</ele>
        <time>2022-05-02T13:16:48.000Z</time>
      </trkpt>
      <trkpt lat="41.01490728557109832763671875" lon="-1.33966885507106781005859375">
        <ele>811.20001220703125</ele>
        <time>2022-05-02T13:16:50.000Z</time>
      </trkpt>
      <trkpt lat="41.0148283280432224273681640625" lon="-1.33960942737758159637451171875">
        <ele>811.4000244140625</ele>
        <time>2022-05-02T13:16:52.000Z</time>
      </trkpt>
      <trkpt lat="41.01474911905825138092041015625" lon="-1.339551173150539398193359375">
        <ele>811.4000244140625</ele>
        <time>2022-05-02T13:16:54.000Z</time>
      </trkpt>
      <trkpt lat="41.01467032916843891143798828125" lon="-1.33949610404670238494873046875">
        <ele>811.20001220703125</ele>
        <time>2022-05-02T13:16:56.000Z</time>
      </trkpt>
      <trkpt lat="41.01459573023021221160888671875" lon="-1.33943684399127960205078125">
        <ele>811</ele>
        <time>2022-05-02T13:16:58.000Z</time>
      </trkpt>
      <trkpt lat="41.01456128060817718505859375" lon="-1.3394058309495449066162109375">
        <ele>811</ele>
        <time>2022-05-02T13:16:59.000Z</time>
      </trkpt>
      <trkpt lat="41.0145272500813007354736328125" lon="-1.33937976323068141937255859375">
        <ele>811</ele>
        <time>2022-05-02T13:17:00.000Z</time>
      </trkpt>
      <trkpt lat="41.01449363864958286285400390625" lon="-1.33936014957726001739501953125">
        <ele>811.20001220703125</ele>
        <time>2022-05-02T13:17:01.000Z</time>
      </trkpt>
      <trkpt lat="41.014461703598499298095703125" lon="-1.33933986537158489227294921875">
        <ele>811.20001220703125</ele>
        <time>2022-05-02T13:17:02.000Z</time>
      </trkpt>
      <trkpt lat="41.014396660029888153076171875" lon="-1.33929468691349029541015625">
        <ele>811.20001220703125</ele>
        <time>2022-05-02T13:17:04.000Z</time>
      </trkpt>
      <trkpt lat="41.01432952098548412322998046875" lon="-1.33924464695155620574951171875">
        <ele>810.5999755859375</ele>
        <time>2022-05-02T13:17:06.000Z</time>
      </trkpt>
      <trkpt lat="41.0142949037253856658935546875" lon="-1.3392204232513904571533203125">
        <ele>810.4000244140625</ele>
        <time>2022-05-02T13:17:07.000Z</time>
      </trkpt>
      <trkpt lat="41.01426028646528720855712890625" lon="-1.3391969539225101470947265625">
        <ele>810</ele>
        <time>2022-05-02T13:17:08.000Z</time>
      </trkpt>
      <trkpt lat="41.01419356651604175567626953125" lon="-1.33914850652217864990234375">
        <ele>809.5999755859375</ele>
        <time>2022-05-02T13:17:10.000Z</time>
      </trkpt>
      <trkpt lat="41.01412818767130374908447265625" lon="-1.33909486234188079833984375">
        <ele>809.4000244140625</ele>
        <time>2022-05-02T13:17:12.000Z</time>
      </trkpt>
      <trkpt lat="41.0140617191791534423828125" lon="-1.3390387035906314849853515625">
        <ele>809.20001220703125</ele>
        <time>2022-05-02T13:17:14.000Z</time>
      </trkpt>
      <trkpt lat="41.0139934904873371124267578125" lon="-1.33898430503904819488525390625">
        <ele>809</ele>
        <time>2022-05-02T13:17:16.000Z</time>
      </trkpt>
      <trkpt lat="41.0139260999858379364013671875" lon="-1.338931582868099212646484375">
        <ele>809</ele>
        <time>2022-05-02T13:17:18.000Z</time>
      </trkpt>
      <trkpt lat="41.01385653018951416015625" lon="-1.3388844765722751617431640625">
        <ele>809.4000244140625</ele>
        <time>2022-05-02T13:17:20.000Z</time>
      </trkpt>
      <trkpt lat="41.01378771476447582244873046875" lon="-1.3388385437428951263427734375">
        <ele>810</ele>
        <time>2022-05-02T13:17:22.000Z</time>
      </trkpt>
      <trkpt lat="41.01372065953910350799560546875" lon="-1.33878665976226329803466796875">
        <ele>810.5999755859375</ele>
        <time>2022-05-02T13:17:24.000Z</time>
      </trkpt>
      <trkpt lat="41.013687886297702789306640625" lon="-1.3387600891292095184326171875">
        <ele>810.79998779296875</ele>
        <time>2022-05-02T13:17:25.000Z</time>
      </trkpt>
      <trkpt lat="41.01365410722792148590087890625" lon="-1.338733769953250885009765625">
        <ele>811.20001220703125</ele>
        <time>2022-05-02T13:17:26.000Z</time>
      </trkpt>
      <trkpt lat="41.0135844536125659942626953125" lon="-1.33868314325809478759765625">
        <ele>811.5999755859375</ele>
        <time>2022-05-02T13:17:28.000Z</time>
      </trkpt>
      <trkpt lat="41.01351647637784481048583984375" lon="-1.33863075636327266693115234375">
        <ele>811.79998779296875</ele>
        <time>2022-05-02T13:17:30.000Z</time>
      </trkpt>
      <trkpt lat="41.01344908587634563446044921875" lon="-1.33857476525008678436279296875">
        <ele>812</ele>
        <time>2022-05-02T13:17:32.000Z</time>
      </trkpt>
      <trkpt lat="41.01337909698486328125" lon="-1.3385210372507572174072265625">
        <ele>812.20001220703125</ele>
        <time>2022-05-02T13:17:34.000Z</time>
      </trkpt>
      <trkpt lat="41.01330759935081005096435546875" lon="-1.33847183547914028167724609375">
        <ele>812.4000244140625</ele>
        <time>2022-05-02T13:17:36.000Z</time>
      </trkpt>
      <trkpt lat="41.0132396221160888671875" lon="-1.33841701783239841461181640625">
        <ele>811.79998779296875</ele>
        <time>2022-05-02T13:17:38.000Z</time>
      </trkpt>
      <trkpt lat="41.01316845975816249847412109375" lon="-1.33836505003273487091064453125">
        <ele>811.20001220703125</ele>
        <time>2022-05-02T13:17:40.000Z</time>
      </trkpt>
      <trkpt lat="41.0130956210196018218994140625" lon="-1.33831224404275417327880859375">
        <ele>811.4000244140625</ele>
        <time>2022-05-02T13:17:42.000Z</time>
      </trkpt>
      <trkpt lat="41.01302160881459712982177734375" lon="-1.33826044388115406036376953125">
        <ele>811.5999755859375</ele>
        <time>2022-05-02T13:17:44.000Z</time>
      </trkpt>
      <trkpt lat="41.012949608266353607177734375" lon="-1.33820512332022190093994140625">
        <ele>811.79998779296875</ele>
        <time>2022-05-02T13:17:46.000Z</time>
      </trkpt>
      <trkpt lat="41.012875847518444061279296875" lon="-1.338151730597019195556640625">
        <ele>811.5999755859375</ele>
        <time>2022-05-02T13:17:48.000Z</time>
      </trkpt>
      <trkpt lat="41.01280267350375652313232421875" lon="-1.33809599094092845916748046875">
        <ele>811.4000244140625</ele>
        <time>2022-05-02T13:17:50.000Z</time>
      </trkpt>
      <trkpt lat="41.01276646368205547332763671875" lon="-1.33806757628917694091796875">
        <ele>811.20001220703125</ele>
        <time>2022-05-02T13:17:51.000Z</time>
      </trkpt>
      <trkpt lat="41.0127305053174495697021484375" lon="-1.33803966455161571502685546875">
        <ele>811.20001220703125</ele>
        <time>2022-05-02T13:17:52.000Z</time>
      </trkpt>
      <trkpt lat="41.01269404403865337371826171875" lon="-1.33801301009953022003173828125">
        <ele>811</ele>
        <time>2022-05-02T13:17:53.000Z</time>
      </trkpt>
      <trkpt lat="41.01265749894082546234130859375" lon="-1.33798769675195217132568359375">
        <ele>811</ele>
        <time>2022-05-02T13:17:54.000Z</time>
      </trkpt>
      <trkpt lat="41.0125860013067722320556640625" lon="-1.33793346583843231201171875">
        <ele>811.20001220703125</ele>
        <time>2022-05-02T13:17:56.000Z</time>
      </trkpt>
      <trkpt lat="41.0125135816633701324462890625" lon="-1.33787923492491245269775390625">
        <ele>811.4000244140625</ele>
        <time>2022-05-02T13:17:58.000Z</time>
      </trkpt>
      <trkpt lat="41.01243831217288970947265625" lon="-1.33783011697232723236083984375">
        <ele>811.79998779296875</ele>
        <time>2022-05-02T13:18:00.000Z</time>
      </trkpt>
      <trkpt lat="41.012365557253360748291015625" lon="-1.3377753831446170806884765625">
        <ele>812</ele>
        <time>2022-05-02T13:18:02.000Z</time>
      </trkpt>
      <trkpt lat="41.01229213178157806396484375" lon="-1.33771964348852634429931640625">
        <ele>812.5999755859375</ele>
        <time>2022-05-02T13:18:04.000Z</time>
      </trkpt>
      <trkpt lat="41.01221744902431964874267578125" lon="-1.3376650772988796234130859375">
        <ele>813</ele>
        <time>2022-05-02T13:18:06.000Z</time>
      </trkpt>
      <trkpt lat="41.01218090392649173736572265625" lon="-1.33763574063777923583984375">
        <ele>813.4000244140625</ele>
        <time>2022-05-02T13:18:07.000Z</time>
      </trkpt>
      <trkpt lat="41.01214352063834667205810546875" lon="-1.33760891854763031005859375">
        <ele>813.5999755859375</ele>
        <time>2022-05-02T13:18:08.000Z</time>
      </trkpt>
      <trkpt lat="41.012069173157215118408203125" lon="-1.33755636401474475860595703125">
        <ele>814</ele>
        <time>2022-05-02T13:18:10.000Z</time>
      </trkpt>
      <trkpt lat="41.0119955800473690032958984375" lon="-1.3375041447579860687255859375">
        <ele>814.20001220703125</ele>
        <time>2022-05-02T13:18:12.000Z</time>
      </trkpt>
      <trkpt lat="41.0119255073368549346923828125" lon="-1.33744739927351474761962890625">
        <ele>814</ele>
        <time>2022-05-02T13:18:14.000Z</time>
      </trkpt>
      <trkpt lat="41.01189089007675647735595703125" lon="-1.337418146431446075439453125">
        <ele>813.79998779296875</ele>
        <time>2022-05-02T13:18:15.000Z</time>
      </trkpt>
      <trkpt lat="41.0118561051785945892333984375" lon="-1.33738973177969455718994140625">
        <ele>813.79998779296875</ele>
        <time>2022-05-02T13:18:16.000Z</time>
      </trkpt>
      <trkpt lat="41.01178695447742938995361328125" lon="-1.33733533322811126708984375">
        <ele>813.5999755859375</ele>
        <time>2022-05-02T13:18:18.000Z</time>
      </trkpt>
      <trkpt lat="41.01171545684337615966796875" lon="-1.337287388741970062255859375">
        <ele>813.4000244140625</ele>
        <time>2022-05-02T13:18:20.000Z</time>
      </trkpt>
      <trkpt lat="41.01164546795189380645751953125" lon="-1.33723516948521137237548828125">
        <ele>814</ele>
        <time>2022-05-02T13:18:22.000Z</time>
      </trkpt>
      <trkpt lat="41.01157422177493572235107421875" lon="-1.337186135351657867431640625">
        <ele>814.5999755859375</ele>
        <time>2022-05-02T13:18:24.000Z</time>
      </trkpt>
      <trkpt lat="41.01150431670248508453369140625" lon="-1.337133161723613739013671875">
        <ele>815</ele>
        <time>2022-05-02T13:18:26.000Z</time>
      </trkpt>
      <trkpt lat="41.011432819068431854248046875" lon="-1.33707993663847446441650390625">
        <ele>815.4000244140625</ele>
        <time>2022-05-02T13:18:28.000Z</time>
      </trkpt>
      <trkpt lat="41.011359058320522308349609375" lon="-1.33702679537236690521240234375">
        <ele>815.5999755859375</ele>
        <time>2022-05-02T13:18:30.000Z</time>
      </trkpt>
      <trkpt lat="41.01132259704172611236572265625" lon="-1.3369992189109325408935546875">
        <ele>815.79998779296875</ele>
        <time>2022-05-02T13:18:31.000Z</time>
      </trkpt>
      <trkpt lat="41.01128621958196163177490234375" lon="-1.33697063662111759185791015625">
        <ele>816</ele>
        <time>2022-05-02T13:18:32.000Z</time>
      </trkpt>
      <trkpt lat="41.011214554309844970703125" lon="-1.336913220584392547607421875">
        <ele>816.20001220703125</ele>
        <time>2022-05-02T13:18:34.000Z</time>
      </trkpt>
      <trkpt lat="41.01114674471318721771240234375" lon="-1.33685479871928691864013671875">
        <ele>816.20001220703125</ele>
        <time>2022-05-02T13:18:36.000Z</time>
      </trkpt>
      <trkpt lat="41.01107868365943431854248046875" lon="-1.33679352700710296630859375">
        <ele>816.20001220703125</ele>
        <time>2022-05-02T13:18:38.000Z</time>
      </trkpt>
      <trkpt lat="41.0110055096447467803955078125" lon="-1.33673326112329959869384765625">
        <ele>816.20001220703125</ele>
        <time>2022-05-02T13:18:40.000Z</time>
      </trkpt>
      <trkpt lat="41.01093200035393238067626953125" lon="-1.3366721570491790771484375">
        <ele>816.4000244140625</ele>
        <time>2022-05-02T13:18:42.000Z</time>
      </trkpt>
      <trkpt lat="41.0108633525669574737548828125" lon="-1.33661239407956600189208984375">
        <ele>816.4000244140625</ele>
        <time>2022-05-02T13:18:44.000Z</time>
      </trkpt>
      <trkpt lat="41.0108028352260589599609375" lon="-1.33656092919409275054931640625">
        <ele>816.20001220703125</ele>
        <time>2022-05-02T13:18:46.000Z</time>
      </trkpt>
      <trkpt lat="41.01073988713324069976806640625" lon="-1.33651323616504669189453125">
        <ele>816</ele>
        <time>2022-05-02T13:18:48.000Z</time>
      </trkpt>
      <trkpt lat="41.010678447782993316650390625" lon="-1.336457915604114532470703125">
        <ele>816</ele>
        <time>2022-05-02T13:18:50.000Z</time>
      </trkpt>
      <trkpt lat="41.01061432622373104095458984375" lon="-1.3363980688154697418212890625">
        <ele>816</ele>
        <time>2022-05-02T13:18:52.000Z</time>
      </trkpt>
      <trkpt lat="41.01054760627448558807373046875" lon="-1.336338557302951812744140625">
        <ele>816</ele>
        <time>2022-05-02T13:18:54.000Z</time>
      </trkpt>
      <trkpt lat="41.01048205979168415069580078125" lon="-1.33627426810562610626220703125">
        <ele>816.20001220703125</ele>
        <time>2022-05-02T13:18:56.000Z</time>
      </trkpt>
      <trkpt lat="41.01041852496564388275146484375" lon="-1.33620536886155605316162109375">
        <ele>816</ele>
        <time>2022-05-02T13:18:58.000Z</time>
      </trkpt>
      <trkpt lat="41.010354571044445037841796875" lon="-1.3361378945410251617431640625">
        <ele>815.5999755859375</ele>
        <time>2022-05-02T13:19:00.000Z</time>
      </trkpt>
      <trkpt lat="41.01029388606548309326171875" lon="-1.3360731862485408782958984375">
        <ele>815</ele>
        <time>2022-05-02T13:19:02.000Z</time>
      </trkpt>
      <trkpt lat="41.010237224400043487548828125" lon="-1.3360068015754222869873046875">
        <ele>814.79998779296875</ele>
        <time>2022-05-02T13:19:04.000Z</time>
      </trkpt>
      <trkpt lat="41.01021031849086284637451171875" lon="-1.33597453124821186065673828125">
        <ele>814.5999755859375</ele>
        <time>2022-05-02T13:19:05.000Z</time>
      </trkpt>
      <trkpt lat="41.01018249057233333587646484375" lon="-1.335945613682270050048828125">
        <ele>814.5999755859375</ele>
        <time>2022-05-02T13:19:06.000Z</time>
      </trkpt>
      <trkpt lat="41.0101240687072277069091796875" lon="-1.3358874432742595672607421875">
        <ele>814.4000244140625</ele>
        <time>2022-05-02T13:19:08.000Z</time>
      </trkpt>
      <trkpt lat="41.01006799377501010894775390625" lon="-1.335822902619838714599609375">
        <ele>814.4000244140625</ele>
        <time>2022-05-02T13:19:10.000Z</time>
      </trkpt>
      <trkpt lat="41.010009907186031341552734375" lon="-1.33575475774705410003662109375">
        <ele>814.4000244140625</ele>
        <time>2022-05-02T13:19:12.000Z</time>
      </trkpt>
      <trkpt lat="41.0099527426064014434814453125" lon="-1.33568367920815944671630859375">
        <ele>814.4000244140625</ele>
        <time>2022-05-02T13:19:14.000Z</time>
      </trkpt>
      <trkpt lat="41.0098944045603275299072265625" lon="-1.33560857735574245452880859375">
        <ele>814.20001220703125</ele>
        <time>2022-05-02T13:19:16.000Z</time>
      </trkpt>
      <trkpt lat="41.00983497686684131622314453125" lon="-1.3355317153036594390869140625">
        <ele>814.20001220703125</ele>
        <time>2022-05-02T13:19:18.000Z</time>
      </trkpt>
      <trkpt lat="41.00977010093629360198974609375" lon="-1.33546222932636737823486328125">
        <ele>814.5999755859375</ele>
        <time>2022-05-02T13:19:20.000Z</time>
      </trkpt>
      <trkpt lat="41.00970522500574588775634765625" lon="-1.33539567701518535614013671875">
        <ele>814.79998779296875</ele>
        <time>2022-05-02T13:19:22.000Z</time>
      </trkpt>
      <trkpt lat="41.00964118726551532745361328125" lon="-1.33532510139048099517822265625">
        <ele>815</ele>
        <time>2022-05-02T13:19:24.000Z</time>
      </trkpt>
      <trkpt lat="41.0095770657062530517578125" lon="-1.3352527655661106109619140625">
        <ele>815.20001220703125</ele>
        <time>2022-05-02T13:19:26.000Z</time>
      </trkpt>
      <trkpt lat="41.0095118544995784759521484375" lon="-1.33517682552337646484375">
        <ele>815.4000244140625</ele>
        <time>2022-05-02T13:19:28.000Z</time>
      </trkpt>
      <trkpt lat="41.00944337435066699981689453125" lon="-1.33510080166161060333251953125">
        <ele>816</ele>
        <time>2022-05-02T13:19:30.000Z</time>
      </trkpt>
      <trkpt lat="41.00940984673798084259033203125" lon="-1.3350623287260532379150390625">
        <ele>816.20001220703125</ele>
        <time>2022-05-02T13:19:31.000Z</time>
      </trkpt>
      <trkpt lat="41.0093777440488338470458984375" lon="-1.33502553217113018035888671875">
        <ele>816.4000244140625</ele>
        <time>2022-05-02T13:19:32.000Z</time>
      </trkpt>
      <trkpt lat="41.00931756198406219482421875" lon="-1.33496115915477275848388671875">
        <ele>817</ele>
        <time>2022-05-02T13:19:34.000Z</time>
      </trkpt>
      <trkpt lat="41.00926584564149379730224609375" lon="-1.334899552166461944580078125">
        <ele>817</ele>
        <time>2022-05-02T13:19:36.000Z</time>
      </trkpt>
      <trkpt lat="41.009243465960025787353515625" lon="-1.33487566374242305755615234375">
        <ele>817</ele>
        <time>2022-05-02T13:19:37.000Z</time>
      </trkpt>
      <trkpt lat="41.009224690496921539306640625" lon="-1.33485940285027027130126953125">
        <ele>817</ele>
        <time>2022-05-02T13:19:38.000Z</time>
      </trkpt>
      <trkpt lat="41.00920499302446842193603515625" lon="-1.33484381251037120819091796875">
        <ele>817</ele>
        <time>2022-05-02T13:19:40.000Z</time>
      </trkpt>
      <trkpt lat="41.0092023946344852447509765625" lon="-1.33484163321554660797119140625">
        <ele>817</ele>
        <time>2022-05-02T13:19:41.000Z</time>
      </trkpt>
      <trkpt lat="41.00920231081545352935791015625" lon="-1.33484163321554660797119140625">
        <ele>817</ele>
        <time>2022-05-02T13:19:42.000Z</time>
      </trkpt>
      <trkpt lat="41.009180434048175811767578125" lon="-1.33481950499117374420166015625">
        <ele>817</ele>
        <time>2022-05-02T13:19:46.000Z</time>
      </trkpt>
      <trkpt lat="41.00914590060710906982421875" lon="-1.3347813673317432403564453125">
        <ele>816.79998779296875</ele>
        <time>2022-05-02T13:19:48.000Z</time>
      </trkpt>
      <trkpt lat="41.00910834968090057373046875" lon="-1.334729231894016265869140625">
        <ele>816.4000244140625</ele>
        <time>2022-05-02T13:19:50.000Z</time>
      </trkpt>
      <trkpt lat="41.009059734642505645751953125" lon="-1.33467365987598896026611328125">
        <ele>816</ele>
        <time>2022-05-02T13:19:52.000Z</time>
      </trkpt>
      <trkpt lat="41.0090084373950958251953125" lon="-1.334607191383838653564453125">
        <ele>815.5999755859375</ele>
        <time>2022-05-02T13:19:54.000Z</time>
      </trkpt>
      <trkpt lat="41.00895144045352935791015625" lon="-1.3345419801771640777587890625">
        <ele>815.20001220703125</ele>
        <time>2022-05-02T13:19:56.000Z</time>
      </trkpt>
      <trkpt lat="41.00889385677874088287353515625" lon="-1.3344819657504558563232421875">
        <ele>814.79998779296875</ele>
        <time>2022-05-02T13:19:58.000Z</time>
      </trkpt>
      <trkpt lat="41.00884172134101390838623046875" lon="-1.3344232924282550811767578125">
        <ele>814.4000244140625</ele>
        <time>2022-05-02T13:20:00.000Z</time>
      </trkpt>
      <trkpt lat="41.008814312517642974853515625" lon="-1.3343924470245838165283203125">
        <ele>814.20001220703125</ele>
        <time>2022-05-02T13:20:01.000Z</time>
      </trkpt>
      <trkpt lat="41.00878707133233547210693359375" lon="-1.33436143398284912109375">
        <ele>813.79998779296875</ele>
        <time>2022-05-02T13:20:02.000Z</time>
      </trkpt>
      <trkpt lat="41.00872973911464214324951171875" lon="-1.33429831825196743011474609375">
        <ele>813.20001220703125</ele>
        <time>2022-05-02T13:20:04.000Z</time>
      </trkpt>
      <trkpt lat="41.00866444408893585205078125" lon="-1.3342308439314365386962890625">
        <ele>812.4000244140625</ele>
        <time>2022-05-02T13:20:06.000Z</time>
      </trkpt>
      <trkpt lat="41.00859680213034152984619140625" lon="-1.33415482006967067718505859375">
        <ele>812.5999755859375</ele>
        <time>2022-05-02T13:20:08.000Z</time>
      </trkpt>
      <trkpt lat="41.008564196527004241943359375" lon="-1.33411441929638385772705078125">
        <ele>812.5999755859375</ele>
        <time>2022-05-02T13:20:09.000Z</time>
      </trkpt>
      <trkpt lat="41.00853075273334980010986328125" lon="-1.33407552726566791534423828125">
        <ele>812.79998779296875</ele>
        <time>2022-05-02T13:20:10.000Z</time>
      </trkpt>
      <trkpt lat="41.00846193730831146240234375" lon="-1.33400226943194866180419921875">
        <ele>813</ele>
        <time>2022-05-02T13:20:12.000Z</time>
      </trkpt>
      <trkpt lat="41.0083970613777637481689453125" lon="-1.3339284248650074005126953125">
        <ele>812.79998779296875</ele>
        <time>2022-05-02T13:20:14.000Z</time>
      </trkpt>
      <trkpt lat="41.00833587348461151123046875" lon="-1.333858184516429901123046875">
        <ele>813.4000244140625</ele>
        <time>2022-05-02T13:20:16.000Z</time>
      </trkpt>
      <trkpt lat="41.008306033909320831298828125" lon="-1.3338248245418071746826171875">
        <ele>813.79998779296875</ele>
        <time>2022-05-02T13:20:17.000Z</time>
      </trkpt>
      <trkpt lat="41.0082777030766010284423828125" lon="-1.33379406295716762542724609375">
        <ele>814</ele>
        <time>2022-05-02T13:20:18.000Z</time>
      </trkpt>
      <trkpt lat="41.00822322070598602294921875" lon="-1.33373388089239597320556640625">
        <ele>814.5999755859375</ele>
        <time>2022-05-02T13:20:20.000Z</time>
      </trkpt>
      <trkpt lat="41.0081710852682590484619140625" lon="-1.33367084898054599761962890625">
        <ele>815.20001220703125</ele>
        <time>2022-05-02T13:20:22.000Z</time>
      </trkpt>
      <trkpt lat="41.0081187821924686431884765625" lon="-1.33360697887837886810302734375">
        <ele>815.5999755859375</ele>
        <time>2022-05-02T13:20:24.000Z</time>
      </trkpt>
      <trkpt lat="41.00809154100716114044189453125" lon="-1.333577893674373626708984375">
        <ele>815.5999755859375</ele>
        <time>2022-05-02T13:20:25.000Z</time>
      </trkpt>
      <trkpt lat="41.008063964545726776123046875" lon="-1.33354780264198780059814453125">
        <ele>815.5999755859375</ele>
        <time>2022-05-02T13:20:26.000Z</time>
      </trkpt>
      <trkpt lat="41.00800872780382633209228515625" lon="-1.33348770439624786376953125">
        <ele>815.79998779296875</ele>
        <time>2022-05-02T13:20:28.000Z</time>
      </trkpt>
      <trkpt lat="41.00795072503387928009033203125" lon="-1.33342006243765354156494140625">
        <ele>815.4000244140625</ele>
        <time>2022-05-02T13:20:30.000Z</time>
      </trkpt>
      <trkpt lat="41.00789062678813934326171875" lon="-1.33335015736520290374755859375">
        <ele>815</ele>
        <time>2022-05-02T13:20:32.000Z</time>
      </trkpt>
      <trkpt lat="41.0078301094472408294677734375" lon="-1.333281509578227996826171875">
        <ele>815</ele>
        <time>2022-05-02T13:20:34.000Z</time>
      </trkpt>
      <trkpt lat="41.0077690891921520233154296875" lon="-1.33321722038090229034423828125">
        <ele>815</ele>
        <time>2022-05-02T13:20:36.000Z</time>
      </trkpt>
      <trkpt lat="41.0077100805938243865966796875" lon="-1.3331485725939273834228515625">
        <ele>815</ele>
        <time>2022-05-02T13:20:38.000Z</time>
      </trkpt>
      <trkpt lat="41.00764897651970386505126953125" lon="-1.33307732641696929931640625">
        <ele>815</ele>
        <time>2022-05-02T13:20:40.000Z</time>
      </trkpt>
      <trkpt lat="41.007586531341075897216796875" lon="-1.33300733752548694610595703125">
        <ele>815.20001220703125</ele>
        <time>2022-05-02T13:20:42.000Z</time>
      </trkpt>
      <trkpt lat="41.00755660794675350189208984375" lon="-1.332972384989261627197265625">
        <ele>815.4000244140625</ele>
        <time>2022-05-02T13:20:43.000Z</time>
      </trkpt>
      <trkpt lat="41.00752710364758968353271484375" lon="-1.3329373486340045928955078125">
        <ele>815.4000244140625</ele>
        <time>2022-05-02T13:20:44.000Z</time>
      </trkpt>
      <trkpt lat="41.007468514144420623779296875" lon="-1.3328661024570465087890625">
        <ele>815.5999755859375</ele>
        <time>2022-05-02T13:20:46.000Z</time>
      </trkpt>
      <trkpt lat="41.0074106790125370025634765625" lon="-1.3327968679368495941162109375">
        <ele>815.79998779296875</ele>
        <time>2022-05-02T13:20:48.000Z</time>
      </trkpt>
      <trkpt lat="41.0073523409664630889892578125" lon="-1.332726292312145233154296875">
        <ele>816</ele>
        <time>2022-05-02T13:20:50.000Z</time>
      </trkpt>
      <trkpt lat="41.00729224272072315216064453125" lon="-1.33265596814453601837158203125">
        <ele>816</ele>
        <time>2022-05-02T13:20:52.000Z</time>
      </trkpt>
      <trkpt lat="41.007234156131744384765625" lon="-1.33258488960564136505126953125">
        <ele>816</ele>
        <time>2022-05-02T13:20:54.000Z</time>
      </trkpt>
      <trkpt lat="41.00717741064727306365966796875" lon="-1.33252001367509365081787109375">
        <ele>816</ele>
        <time>2022-05-02T13:20:56.000Z</time>
      </trkpt>
      <trkpt lat="41.00712209008634090423583984375" lon="-1.332457065582275390625">
        <ele>816</ele>
        <time>2022-05-02T13:20:58.000Z</time>
      </trkpt>
      <trkpt lat="41.00706593133509159088134765625" lon="-1.3323885016143321990966796875">
        <ele>816.4000244140625</ele>
        <time>2022-05-02T13:21:00.000Z</time>
      </trkpt>
      <trkpt lat="41.00700407288968563079833984375" lon="-1.33232069201767444610595703125">
        <ele>816.79998779296875</ele>
        <time>2022-05-02T13:21:02.000Z</time>
      </trkpt>
      <trkpt lat="41.0069728083908557891845703125" lon="-1.332287751138210296630859375">
        <ele>817</ele>
        <time>2022-05-02T13:21:03.000Z</time>
      </trkpt>
      <trkpt lat="41.00694204680621623992919921875" lon="-1.33225380443036556243896484375">
        <ele>817.20001220703125</ele>
        <time>2022-05-02T13:21:04.000Z</time>
      </trkpt>
      <trkpt lat="41.0068822838366031646728515625" lon="-1.3321848213672637939453125">
        <ele>817.5999755859375</ele>
        <time>2022-05-02T13:21:06.000Z</time>
      </trkpt>
      <trkpt lat="41.0068226046860218048095703125" lon="-1.3321165926754474639892578125">
        <ele>818</ele>
        <time>2022-05-02T13:21:08.000Z</time>
      </trkpt>
      <trkpt lat="41.006792597472667694091796875" lon="-1.33208415471017360687255859375">
        <ele>818</ele>
        <time>2022-05-02T13:21:09.000Z</time>
      </trkpt>
      <trkpt lat="41.0067635960876941680908203125" lon="-1.33205247111618518829345703125">
        <ele>818.20001220703125</ele>
        <time>2022-05-02T13:21:10.000Z</time>
      </trkpt>
      <trkpt lat="41.00673736073076725006103515625" lon="-1.33202330209314823150634765625">
        <ele>818.20001220703125</ele>
        <time>2022-05-02T13:21:11.000Z</time>
      </trkpt>
      <trkpt lat="41.0067136399447917938232421875" lon="-1.3319957256317138671875">
        <ele>818.4000244140625</ele>
        <time>2022-05-02T13:21:12.000Z</time>
      </trkpt>
      <trkpt lat="41.00666661746799945831298828125" lon="-1.3319419138133525848388671875">
        <ele>818.5999755859375</ele>
        <time>2022-05-02T13:21:14.000Z</time>
      </trkpt>
      <trkpt lat="41.00661791861057281494140625" lon="-1.3318855874240398406982421875">
        <ele>818.5999755859375</ele>
        <time>2022-05-02T13:21:16.000Z</time>
      </trkpt>
      <trkpt lat="41.00656385533511638641357421875" lon="-1.33182548917829990386962890625">
        <ele>818.79998779296875</ele>
        <time>2022-05-02T13:21:18.000Z</time>
      </trkpt>
      <trkpt lat="41.0065332613885402679443359375" lon="-1.33179430849850177764892578125">
        <ele>818.5999755859375</ele>
        <time>2022-05-02T13:21:19.000Z</time>
      </trkpt>
      <trkpt lat="41.00650283508002758026123046875" lon="-1.3317615352571010589599609375">
        <ele>818.5999755859375</ele>
        <time>2022-05-02T13:21:20.000Z</time>
      </trkpt>
      <trkpt lat="41.006443910300731658935546875" lon="-1.33169221691787242889404296875">
        <ele>818.5999755859375</ele>
        <time>2022-05-02T13:21:22.000Z</time>
      </trkpt>
      <trkpt lat="41.00638188421726226806640625" lon="-1.33162264712154865264892578125">
        <ele>819</ele>
        <time>2022-05-02T13:21:24.000Z</time>
      </trkpt>
      <trkpt lat="41.0063190199434757232666015625" lon="-1.33155207149684429168701171875">
        <ele>819.5999755859375</ele>
        <time>2022-05-02T13:21:26.000Z</time>
      </trkpt>
      <trkpt lat="41.006258167326450347900390625" lon="-1.3314794003963470458984375">
        <ele>819.4000244140625</ele>
        <time>2022-05-02T13:21:28.000Z</time>
      </trkpt>
      <trkpt lat="41.00619521923363208770751953125" lon="-1.33140689693391323089599609375">
        <ele>819.4000244140625</ele>
        <time>2022-05-02T13:21:30.000Z</time>
      </trkpt>
      <trkpt lat="41.00613151676952838897705078125" lon="-1.33133481256663799285888671875">
        <ele>819.4000244140625</ele>
        <time>2022-05-02T13:21:32.000Z</time>
      </trkpt>
      <trkpt lat="41.0060699097812175750732421875" lon="-1.33126339875161647796630859375">
        <ele>819.4000244140625</ele>
        <time>2022-05-02T13:21:34.000Z</time>
      </trkpt>
      <trkpt lat="41.00600914098322391510009765625" lon="-1.3311898894608020782470703125">
        <ele>819.79998779296875</ele>
        <time>2022-05-02T13:21:36.000Z</time>
      </trkpt>
      <trkpt lat="41.00594594143331050872802734375" lon="-1.3311204873025417327880859375">
        <ele>820</ele>
        <time>2022-05-02T13:21:38.000Z</time>
      </trkpt>
      <trkpt lat="41.00591559894382953643798828125" lon="-1.331088133156299591064453125">
        <ele>820</ele>
        <time>2022-05-02T13:21:39.000Z</time>
      </trkpt>
      <trkpt lat="41.005886010825634002685546875" lon="-1.33105502463877201080322265625">
        <ele>820</ele>
        <time>2022-05-02T13:21:40.000Z</time>
      </trkpt>
      <trkpt lat="41.00582591257989406585693359375" lon="-1.33098947815597057342529296875">
        <ele>819.79998779296875</ele>
        <time>2022-05-02T13:21:42.000Z</time>
      </trkpt>
      <trkpt lat="41.00576631724834442138671875" lon="-1.33092326112091541290283203125">
        <ele>819.79998779296875</ele>
        <time>2022-05-02T13:21:44.000Z</time>
      </trkpt>
      <trkpt lat="41.0057057999074459075927734375" lon="-1.3308576308190822601318359375">
        <ele>820</ele>
        <time>2022-05-02T13:21:46.000Z</time>
      </trkpt>
      <trkpt lat="41.00564670749008655548095703125" lon="-1.33079342544078826904296875">
        <ele>820.20001220703125</ele>
        <time>2022-05-02T13:21:48.000Z</time>
      </trkpt>
      <trkpt lat="41.00559054873883724212646484375" lon="-1.330726705491542816162109375">
        <ele>820.4000244140625</ele>
        <time>2022-05-02T13:21:50.000Z</time>
      </trkpt>
      <trkpt lat="41.0055331327021121978759765625" lon="-1.33066208101809024810791015625">
        <ele>820.5999755859375</ele>
        <time>2022-05-02T13:21:52.000Z</time>
      </trkpt>
      <trkpt lat="41.00547705776989459991455078125" lon="-1.33059628307819366455078125">
        <ele>820.79998779296875</ele>
        <time>2022-05-02T13:21:54.000Z</time>
      </trkpt>
      <trkpt lat="41.00542257539927959442138671875" lon="-1.33053232915699481964111328125">
        <ele>821</ele>
        <time>2022-05-02T13:21:56.000Z</time>
      </trkpt>
      <trkpt lat="41.00539483129978179931640625" lon="-1.330500058829784393310546875">
        <ele>821</ele>
        <time>2022-05-02T13:21:57.000Z</time>
      </trkpt>
      <trkpt lat="41.00536641664803028106689453125" lon="-1.33046829141676425933837890625">
        <ele>821</ele>
        <time>2022-05-02T13:21:58.000Z</time>
      </trkpt>
      <trkpt lat="41.00530992262065410614013671875" lon="-1.3304053433239459991455078125">
        <ele>821</ele>
        <time>2022-05-02T13:22:00.000Z</time>
      </trkpt>
      <trkpt lat="41.005254685878753662109375" lon="-1.3303409703075885772705078125">
        <ele>821</ele>
        <time>2022-05-02T13:22:02.000Z</time>
      </trkpt>
      <trkpt lat="41.0052002035081386566162109375" lon="-1.3302791118621826171875">
        <ele>821</ele>
        <time>2022-05-02T13:22:04.000Z</time>
      </trkpt>
      <trkpt lat="41.005147397518157958984375" lon="-1.33021934889256954193115234375">
        <ele>821</ele>
        <time>2022-05-02T13:22:06.000Z</time>
      </trkpt>
      <trkpt lat="41.00509366951882839202880859375" lon="-1.33015816099941730499267578125">
        <ele>821.20001220703125</ele>
        <time>2022-05-02T13:22:08.000Z</time>
      </trkpt>
      <trkpt lat="41.00503046996891498565673828125" lon="-1.33008121512830257415771484375">
        <ele>821.4000244140625</ele>
        <time>2022-05-02T13:22:10.000Z</time>
      </trkpt>
      <trkpt lat="41.0049648396670818328857421875" lon="-1.33000946603715419769287109375">
        <ele>821.5999755859375</ele>
        <time>2022-05-02T13:22:12.000Z</time>
      </trkpt>
      <trkpt lat="41.00493743084371089935302734375" lon="-1.32997795008122920989990234375">
        <ele>821.79998779296875</ele>
        <time>2022-05-02T13:22:13.000Z</time>
      </trkpt>
      <trkpt lat="41.00491194985806941986083984375" lon="-1.32994945161044597625732421875">
        <ele>821.79998779296875</ele>
        <time>2022-05-02T13:22:14.000Z</time>
      </trkpt>
      <trkpt lat="41.00486517883837223052978515625" lon="-1.32989949546754360198974609375">
        <ele>822</ele>
        <time>2022-05-02T13:22:16.000Z</time>
      </trkpt>
      <trkpt lat="41.004813127219676971435546875" lon="-1.3298464380204677581787109375">
        <ele>822.20001220703125</ele>
        <time>2022-05-02T13:22:18.000Z</time>
      </trkpt>
      <trkpt lat="41.00475654937326908111572265625" lon="-1.3297896087169647216796875">
        <ele>822.4000244140625</ele>
        <time>2022-05-02T13:22:20.000Z</time>
      </trkpt>
      <trkpt lat="41.00469569675624370574951171875" lon="-1.32973034866154193878173828125">
        <ele>822.5999755859375</ele>
        <time>2022-05-02T13:22:22.000Z</time>
      </trkpt>
      <trkpt lat="41.00463450886309146881103515625" lon="-1.32966865785419940948486328125">
        <ele>822.79998779296875</ele>
        <time>2022-05-02T13:22:24.000Z</time>
      </trkpt>
      <trkpt lat="41.00457281805574893951416015625" lon="-1.32960931397974491119384765625">
        <ele>822.79998779296875</ele>
        <time>2022-05-02T13:22:26.000Z</time>
      </trkpt>
      <trkpt lat="41.004512049257755279541015625" lon="-1.32955131120979785919189453125">
        <ele>822.5999755859375</ele>
        <time>2022-05-02T13:22:28.000Z</time>
      </trkpt>
      <trkpt lat="41.004449687898159027099609375" lon="-1.3294940628111362457275390625">
        <ele>822.20001220703125</ele>
        <time>2022-05-02T13:22:30.000Z</time>
      </trkpt>
      <trkpt lat="41.00438154302537441253662109375" lon="-1.32943488657474517822265625">
        <ele>821.5999755859375</ele>
        <time>2022-05-02T13:22:32.000Z</time>
      </trkpt>
      <trkpt lat="41.004308871924877166748046875" lon="-1.32937646470963954925537109375">
        <ele>820.79998779296875</ele>
        <time>2022-05-02T13:22:34.000Z</time>
      </trkpt>
      <trkpt lat="41.00423268042504787445068359375" lon="-1.32932198233902454376220703125">
        <ele>820.4000244140625</ele>
        <time>2022-05-02T13:22:36.000Z</time>
      </trkpt>
      <trkpt lat="41.0041554830968379974365234375" lon="-1.32926934398710727691650390625">
        <ele>820</ele>
        <time>2022-05-02T13:22:38.000Z</time>
      </trkpt>
      <trkpt lat="41.004078201949596405029296875" lon="-1.3292174600064754486083984375">
        <ele>820.20001220703125</ele>
        <time>2022-05-02T13:22:40.000Z</time>
      </trkpt>
      <trkpt lat="41.00399932824075222015380859375" lon="-1.32916574366390705108642578125">
        <ele>820.4000244140625</ele>
        <time>2022-05-02T13:22:42.000Z</time>
      </trkpt>
      <trkpt lat="41.00392020307481288909912109375" lon="-1.32911729626357555389404296875">
        <ele>820.4000244140625</ele>
        <time>2022-05-02T13:22:44.000Z</time>
      </trkpt>
      <trkpt lat="41.0038413293659687042236328125" lon="-1.3290680944919586181640625">
        <ele>820.4000244140625</ele>
        <time>2022-05-02T13:22:46.000Z</time>
      </trkpt>
      <trkpt lat="41.00376195274293422698974609375" lon="-1.329022161662578582763671875">
        <ele>820.5999755859375</ele>
        <time>2022-05-02T13:22:48.000Z</time>
      </trkpt>
      <trkpt lat="41.0036844201385974884033203125" lon="-1.32897916249930858612060546875">
        <ele>820.79998779296875</ele>
        <time>2022-05-02T13:22:50.000Z</time>
      </trkpt>
      <trkpt lat="41.003646366298198699951171875" lon="-1.32895736955106258392333984375">
        <ele>820.79998779296875</ele>
        <time>2022-05-02T13:22:51.000Z</time>
      </trkpt>
      <trkpt lat="41.00360906682908535003662109375" lon="-1.328934319317340850830078125">
        <ele>820.5999755859375</ele>
        <time>2022-05-02T13:22:52.000Z</time>
      </trkpt>
      <trkpt lat="41.00353513844311237335205078125" lon="-1.32889098487794399261474609375">
        <ele>820.4000244140625</ele>
        <time>2022-05-02T13:22:54.000Z</time>
      </trkpt>
      <trkpt lat="41.00346422754228115081787109375" lon="-1.3288466446101665496826171875">
        <ele>820</ele>
        <time>2022-05-02T13:22:56.000Z</time>
      </trkpt>
      <trkpt lat="41.00339063443243503570556640625" lon="-1.32880532182753086090087890625">
        <ele>820.20001220703125</ele>
        <time>2022-05-02T13:22:58.000Z</time>
      </trkpt>
      <trkpt lat="41.0033162869513034820556640625" lon="-1.328762657940387725830078125">
        <ele>820.20001220703125</ele>
        <time>2022-05-02T13:23:00.000Z</time>
      </trkpt>
      <trkpt lat="41.0032411850988864898681640625" lon="-1.3287222571671009063720703125">
        <ele>820.5999755859375</ele>
        <time>2022-05-02T13:23:02.000Z</time>
      </trkpt>
      <trkpt lat="41.003166250884532928466796875" lon="-1.3286796770989894866943359375">
        <ele>821.4000244140625</ele>
        <time>2022-05-02T13:23:04.000Z</time>
      </trkpt>
      <trkpt lat="41.003091819584369659423828125" lon="-1.3286344148218631744384765625">
        <ele>822</ele>
        <time>2022-05-02T13:23:06.000Z</time>
      </trkpt>
      <trkpt lat="41.0030145384371280670166015625" lon="-1.3285906612873077392578125">
        <ele>822.4000244140625</ele>
        <time>2022-05-02T13:23:08.000Z</time>
      </trkpt>
      <trkpt lat="41.00293750874698162078857421875" lon="-1.32854632101953029632568359375">
        <ele>822.79998779296875</ele>
        <time>2022-05-02T13:23:10.000Z</time>
      </trkpt>
      <trkpt lat="41.0028606466948986053466796875" lon="-1.32850424386560916900634765625">
        <ele>823.20001220703125</ele>
        <time>2022-05-02T13:23:12.000Z</time>
      </trkpt>
      <trkpt lat="41.00278512574732303619384765625" lon="-1.32846686057746410369873046875">
        <ele>823.5999755859375</ele>
        <time>2022-05-02T13:23:14.000Z</time>
      </trkpt>
      <trkpt lat="41.00271371193230152130126953125" lon="-1.3284268788993358612060546875">
        <ele>824</ele>
        <time>2022-05-02T13:23:16.000Z</time>
      </trkpt>
      <trkpt lat="41.002640537917613983154296875" lon="-1.32838354445993900299072265625">
        <ele>824.4000244140625</ele>
        <time>2022-05-02T13:23:18.000Z</time>
      </trkpt>
      <trkpt lat="41.0025592334568500518798828125" lon="-1.32833643816411495208740234375">
        <ele>824.4000244140625</ele>
        <time>2022-05-02T13:23:20.000Z</time>
      </trkpt>
      <trkpt lat="41.00251774303615093231201171875" lon="-1.3283128850162029266357421875">
        <ele>824.5999755859375</ele>
        <time>2022-05-02T13:23:21.000Z</time>
      </trkpt>
      <trkpt lat="41.002476252615451812744140625" lon="-1.3282887451350688934326171875">
        <ele>824.5999755859375</ele>
        <time>2022-05-02T13:23:22.000Z</time>
      </trkpt>
      <trkpt lat="41.0023899190127849578857421875" lon="-1.32823836989700794219970703125">
        <ele>824.4000244140625</ele>
        <time>2022-05-02T13:23:24.000Z</time>
      </trkpt>
      <trkpt lat="41.00230693817138671875" lon="-1.32818765938282012939453125">
        <ele>824.20001220703125</ele>
        <time>2022-05-02T13:23:26.000Z</time>
      </trkpt>
      <trkpt lat="41.00222286768257617950439453125" lon="-1.3281346857547760009765625">
        <ele>824</ele>
        <time>2022-05-02T13:23:28.000Z</time>
      </trkpt>
      <trkpt lat="41.0021387971937656402587890625" lon="-1.32808447815477848052978515625">
        <ele>824.20001220703125</ele>
        <time>2022-05-02T13:23:30.000Z</time>
      </trkpt>
      <trkpt lat="41.00205774419009685516357421875" lon="-1.328033767640590667724609375">
        <ele>824.20001220703125</ele>
        <time>2022-05-02T13:23:32.000Z</time>
      </trkpt>
      <trkpt lat="41.0019815526902675628662109375" lon="-1.327987499535083770751953125">
        <ele>823.79998779296875</ele>
        <time>2022-05-02T13:23:34.000Z</time>
      </trkpt>
      <trkpt lat="41.00191139616072177886962890625" lon="-1.32794349454343318939208984375">
        <ele>823.5999755859375</ele>
        <time>2022-05-02T13:23:36.000Z</time>
      </trkpt>
      <trkpt lat="41.0018756054341793060302734375" lon="-1.32792220450937747955322265625">
        <ele>823.4000244140625</ele>
        <time>2022-05-02T13:23:37.000Z</time>
      </trkpt>
      <trkpt lat="41.00183897651731967926025390625" lon="-1.327900327742099761962890625">
        <ele>823.20001220703125</ele>
        <time>2022-05-02T13:23:38.000Z</time>
      </trkpt>
      <trkpt lat="41.00176454521715641021728515625" lon="-1.32785506546497344970703125">
        <ele>823</ele>
        <time>2022-05-02T13:23:40.000Z</time>
      </trkpt>
      <trkpt lat="41.00168491713702678680419921875" lon="-1.32780686952173709869384765625">
        <ele>823</ele>
        <time>2022-05-02T13:23:42.000Z</time>
      </trkpt>
      <trkpt lat="41.00160294212400913238525390625" lon="-1.327760182321071624755859375">
        <ele>823</ele>
        <time>2022-05-02T13:23:44.000Z</time>
      </trkpt>
      <trkpt lat="41.001522056758403778076171875" lon="-1.32771852426230907440185546875">
        <ele>823</ele>
        <time>2022-05-02T13:23:46.000Z</time>
      </trkpt>
      <trkpt lat="41.00144234485924243927001953125" lon="-1.32767460308969020843505859375">
        <ele>823.5999755859375</ele>
        <time>2022-05-02T13:23:48.000Z</time>
      </trkpt>
      <trkpt lat="41.00136137567460536956787109375" lon="-1.32762967608869075775146484375">
        <ele>824.20001220703125</ele>
        <time>2022-05-02T13:23:50.000Z</time>
      </trkpt>
      <trkpt lat="41.0012764669954776763916015625" lon="-1.327588856220245361328125">
        <ele>824.4000244140625</ele>
        <time>2022-05-02T13:23:52.000Z</time>
      </trkpt>
      <trkpt lat="41.0011909715831279754638671875" lon="-1.32754283957183361053466796875">
        <ele>824.5999755859375</ele>
        <time>2022-05-02T13:23:54.000Z</time>
      </trkpt>
      <trkpt lat="41.00110589526593685150146484375" lon="-1.32749891839921474456787109375">
        <ele>824.5999755859375</ele>
        <time>2022-05-02T13:23:56.000Z</time>
      </trkpt>
      <trkpt lat="41.00102014839649200439453125" lon="-1.3274498842656612396240234375">
        <ele>824.79998779296875</ele>
        <time>2022-05-02T13:23:58.000Z</time>
      </trkpt>
      <trkpt lat="41.00097664631903171539306640625" lon="-1.32742733694612979888916015625">
        <ele>825</ele>
        <time>2022-05-02T13:23:59.000Z</time>
      </trkpt>
      <trkpt lat="41.00093540735542774200439453125" lon="-1.32740579545497894287109375">
        <ele>824.79998779296875</ele>
        <time>2022-05-02T13:24:00.000Z</time>
      </trkpt>
      <trkpt lat="41.00085007958114147186279296875" lon="-1.32735776714980602264404296875">
        <ele>824.5999755859375</ele>
        <time>2022-05-02T13:24:02.000Z</time>
      </trkpt>
      <trkpt lat="41.00076139904558658599853515625" lon="-1.3273050449788570404052734375">
        <ele>824.4000244140625</ele>
        <time>2022-05-02T13:24:04.000Z</time>
      </trkpt>
      <trkpt lat="41.0006719641387462615966796875" lon="-1.3272500596940517425537109375">
        <ele>824.20001220703125</ele>
        <time>2022-05-02T13:24:06.000Z</time>
      </trkpt>
      <trkpt lat="41.000630892813205718994140625" lon="-1.32722281850874423980712890625">
        <ele>824.20001220703125</ele>
        <time>2022-05-02T13:24:07.000Z</time>
      </trkpt>
      <trkpt lat="41.00059258751571178436279296875" lon="-1.3271994329988956451416015625">
        <ele>824</ele>
        <time>2022-05-02T13:24:08.000Z</time>
      </trkpt>
      <trkpt lat="41.0005174018442630767822265625" lon="-1.3271568529307842254638671875">
        <ele>824</ele>
        <time>2022-05-02T13:24:10.000Z</time>
      </trkpt>
      <trkpt lat="41.00044691003859043121337890625" lon="-1.32711318321526050567626953125">
        <ele>823.79998779296875</ele>
        <time>2022-05-02T13:24:12.000Z</time>
      </trkpt>
      <trkpt lat="41.00040952675044536590576171875" lon="-1.32708971388638019561767578125">
        <ele>823.5999755859375</ele>
        <time>2022-05-02T13:24:13.000Z</time>
      </trkpt>
      <trkpt lat="41.0003717243671417236328125" lon="-1.32706473581492900848388671875">
        <ele>823.5999755859375</ele>
        <time>2022-05-02T13:24:14.000Z</time>
      </trkpt>
      <trkpt lat="41.00029486231505870819091796875" lon="-1.3270193897187709808349609375">
        <ele>823.4000244140625</ele>
        <time>2022-05-02T13:24:16.000Z</time>
      </trkpt>
      <trkpt lat="41.00022026337683200836181640625" lon="-1.32697823457419872283935546875">
        <ele>823.20001220703125</ele>
        <time>2022-05-02T13:24:18.000Z</time>
      </trkpt>
      <trkpt lat="41.0001479275524616241455078125" lon="-1.32693531922996044158935546875">
        <ele>823.20001220703125</ele>
        <time>2022-05-02T13:24:20.000Z</time>
      </trkpt>
      <trkpt lat="41.0001103766262531280517578125" lon="-1.32691168226301670074462890625">
        <ele>823</ele>
        <time>2022-05-02T13:24:21.000Z</time>
      </trkpt>
      <trkpt lat="41.00007123313844203948974609375" lon="-1.32688771001994609832763671875">
        <ele>822.79998779296875</ele>
        <time>2022-05-02T13:24:22.000Z</time>
      </trkpt>
      <trkpt lat="40.9999910183250904083251953125" lon="-1.326839514076709747314453125">
        <ele>822.20001220703125</ele>
        <time>2022-05-02T13:24:24.000Z</time>
      </trkpt>
      <trkpt lat="40.999910719692707061767578125" lon="-1.32679232396185398101806640625">
        <ele>822</ele>
        <time>2022-05-02T13:24:26.000Z</time>
      </trkpt>
      <trkpt lat="40.99983251653611660003662109375" lon="-1.3267464749515056610107421875">
        <ele>825.79998779296875</ele>
        <time>2022-05-02T13:24:28.000Z</time>
      </trkpt>
      <trkpt lat="40.99979446269571781158447265625" lon="-1.32672409527003765106201171875">
        <ele>826</ele>
        <time>2022-05-02T13:24:29.000Z</time>
      </trkpt>
      <trkpt lat="40.99975557066500186920166015625" lon="-1.3267015479505062103271484375">
        <ele>826.4000244140625</ele>
        <time>2022-05-02T13:24:30.000Z</time>
      </trkpt>
      <trkpt lat="40.9996761940419673919677734375" lon="-1.32665754295885562896728515625">
        <ele>827.20001220703125</ele>
        <time>2022-05-02T13:24:32.000Z</time>
      </trkpt>
      <trkpt lat="40.999598912894725799560546875" lon="-1.32661186158657073974609375">
        <ele>827.79998779296875</ele>
        <time>2022-05-02T13:24:34.000Z</time>
      </trkpt>
      <trkpt lat="40.999521799385547637939453125" lon="-1.32656567730009555816650390625">
        <ele>827.79998779296875</ele>
        <time>2022-05-02T13:24:36.000Z</time>
      </trkpt>
      <trkpt lat="40.9994418360292911529541015625" lon="-1.32651655934751033782958984375">
        <ele>827.79998779296875</ele>
        <time>2022-05-02T13:24:38.000Z</time>
      </trkpt>
      <trkpt lat="40.9993620403110980987548828125" lon="-1.32646827958524227142333984375">
        <ele>828</ele>
        <time>2022-05-02T13:24:40.000Z</time>
      </trkpt>
      <trkpt lat="40.99928450770676136016845703125" lon="-1.32642569951713085174560546875">
        <ele>828.4000244140625</ele>
        <time>2022-05-02T13:24:42.000Z</time>
      </trkpt>
      <trkpt lat="40.99920806474983692169189453125" lon="-1.32638831622898578643798828125">
        <ele>828.5999755859375</ele>
        <time>2022-05-02T13:24:44.000Z</time>
      </trkpt>
      <trkpt lat="40.99913145415484905242919921875" lon="-1.3263456523418426513671875">
        <ele>828.5999755859375</ele>
        <time>2022-05-02T13:24:46.000Z</time>
      </trkpt>
      <trkpt lat="40.99905920214951038360595703125" lon="-1.32630047388374805450439453125">
        <ele>828.4000244140625</ele>
        <time>2022-05-02T13:24:48.000Z</time>
      </trkpt>
      <trkpt lat="40.99898544140160083770751953125" lon="-1.32625403814017772674560546875">
        <ele>828.4000244140625</ele>
        <time>2022-05-02T13:24:50.000Z</time>
      </trkpt>
      <trkpt lat="40.99890899844467639923095703125" lon="-1.32621355354785919189453125">
        <ele>828.4000244140625</ele>
        <time>2022-05-02T13:24:52.000Z</time>
      </trkpt>
      <trkpt lat="40.998833477497100830078125" lon="-1.32617038674652576446533203125">
        <ele>828.5999755859375</ele>
        <time>2022-05-02T13:24:54.000Z</time>
      </trkpt>
      <trkpt lat="40.99875728599727153778076171875" lon="-1.3261325843632221221923828125">
        <ele>828.5999755859375</ele>
        <time>2022-05-02T13:24:56.000Z</time>
      </trkpt>
      <trkpt lat="40.9986851178109645843505859375" lon="-1.3260881602764129638671875">
        <ele>828.79998779296875</ele>
        <time>2022-05-02T13:24:58.000Z</time>
      </trkpt>
      <trkpt lat="40.99864731542766094207763671875" lon="-1.3260661996901035308837890625">
        <ele>828.79998779296875</ele>
        <time>2022-05-02T13:24:59.000Z</time>
      </trkpt>
      <trkpt lat="40.99860859103500843048095703125" lon="-1.32604281418025493621826171875">
        <ele>828.79998779296875</ele>
        <time>2022-05-02T13:25:00.000Z</time>
      </trkpt>
      <trkpt lat="40.9985295496881008148193359375" lon="-1.32599721662700176239013671875">
        <ele>829</ele>
        <time>2022-05-02T13:25:02.000Z</time>
      </trkpt>
      <trkpt lat="40.99845251999795436859130859375" lon="-1.32596184499561786651611328125">
        <ele>829</ele>
        <time>2022-05-02T13:25:04.000Z</time>
      </trkpt>
      <trkpt lat="40.99837825633585453033447265625" lon="-1.3259183429181575775146484375">
        <ele>828.79998779296875</ele>
        <time>2022-05-02T13:25:06.000Z</time>
      </trkpt>
      <trkpt lat="40.9983032383024692535400390625" lon="-1.32587450556457042694091796875">
        <ele>828.79998779296875</ele>
        <time>2022-05-02T13:25:08.000Z</time>
      </trkpt>
      <trkpt lat="40.99823157303035259246826171875" lon="-1.32582731544971466064453125">
        <ele>829</ele>
        <time>2022-05-02T13:25:10.000Z</time>
      </trkpt>
      <trkpt lat="40.9981570579111576080322265625" lon="-1.3257765211164951324462890625">
        <ele>829.5999755859375</ele>
        <time>2022-05-02T13:25:12.000Z</time>
      </trkpt>
      <trkpt lat="40.99807399325072765350341796875" lon="-1.325722038745880126953125">
        <ele>830.79998779296875</ele>
        <time>2022-05-02T13:25:14.000Z</time>
      </trkpt>
      <trkpt lat="40.9979926049709320068359375" lon="-1.32566797547042369842529296875">
        <ele>831.5999755859375</ele>
        <time>2022-05-02T13:25:16.000Z</time>
      </trkpt>
      <trkpt lat="40.99791289307177066802978515625" lon="-1.32560946978628635406494140625">
        <ele>832.20001220703125</ele>
        <time>2022-05-02T13:25:18.000Z</time>
      </trkpt>
      <trkpt lat="40.99783209152519702911376953125" lon="-1.32555264048278331756591796875">
        <ele>833.5999755859375</ele>
        <time>2022-05-02T13:25:20.000Z</time>
      </trkpt>
      <trkpt lat="40.99779236130416393280029296875" lon="-1.3255274109542369842529296875">
        <ele>833.79998779296875</ele>
        <time>2022-05-02T13:25:21.000Z</time>
      </trkpt>
      <trkpt lat="40.99775564856827259063720703125" lon="-1.32550385780632495880126953125">
        <ele>833.79998779296875</ele>
        <time>2022-05-02T13:25:22.000Z</time>
      </trkpt>
      <trkpt lat="40.99768490530550479888916015625" lon="-1.32545373402535915374755859375">
        <ele>834.4000244140625</ele>
        <time>2022-05-02T13:25:24.000Z</time>
      </trkpt>
      <trkpt lat="40.99761064164340496063232421875" lon="-1.32540059275925159454345703125">
        <ele>834.5999755859375</ele>
        <time>2022-05-02T13:25:26.000Z</time>
      </trkpt>
      <trkpt lat="40.9975354559719562530517578125" lon="-1.3253423385322093963623046875">
        <ele>834.79998779296875</ele>
        <time>2022-05-02T13:25:28.000Z</time>
      </trkpt>
      <trkpt lat="40.99749840795993804931640625" lon="-1.32531777955591678619384765625">
        <ele>835</ele>
        <time>2022-05-02T13:25:29.000Z</time>
      </trkpt>
      <trkpt lat="40.99746161140501499176025390625" lon="-1.32529011927545070648193359375">
        <ele>834.79998779296875</ele>
        <time>2022-05-02T13:25:30.000Z</time>
      </trkpt>
      <trkpt lat="40.99739070050418376922607421875" lon="-1.3252365589141845703125">
        <ele>834.79998779296875</ele>
        <time>2022-05-02T13:25:32.000Z</time>
      </trkpt>
      <trkpt lat="40.99733018316328525543212890625" lon="-1.32518853060901165008544921875">
        <ele>834.79998779296875</ele>
        <time>2022-05-02T13:25:34.000Z</time>
      </trkpt>
      <trkpt lat="40.99726597778499126434326171875" lon="-1.32515148259699344635009765625">
        <ele>835.20001220703125</ele>
        <time>2022-05-02T13:25:36.000Z</time>
      </trkpt>
      <trkpt lat="40.99721116013824939727783203125" lon="-1.32510940544307231903076171875">
        <ele>835.5999755859375</ele>
        <time>2022-05-02T13:25:38.000Z</time>
      </trkpt>
      <trkpt lat="40.9971565939486026763916015625" lon="-1.32506950758397579193115234375">
        <ele>835.4000244140625</ele>
        <time>2022-05-02T13:25:40.000Z</time>
      </trkpt>
      <trkpt lat="40.99712834693491458892822265625" lon="-1.32504880428314208984375">
        <ele>835.4000244140625</ele>
        <time>2022-05-02T13:25:41.000Z</time>
      </trkpt>
      <trkpt lat="40.9970995970070362091064453125" lon="-1.32502659223973751068115234375">
        <ele>835.4000244140625</ele>
        <time>2022-05-02T13:25:42.000Z</time>
      </trkpt>
      <trkpt lat="40.99703849293291568756103515625" lon="-1.324977390468120574951171875">
        <ele>835.5999755859375</ele>
        <time>2022-05-02T13:25:44.000Z</time>
      </trkpt>
      <trkpt lat="40.99697026424109935760498046875" lon="-1.32491712458431720733642578125">
        <ele>836.20001220703125</ele>
        <time>2022-05-02T13:25:46.000Z</time>
      </trkpt>
      <trkpt lat="40.9969044663012027740478515625" lon="-1.32485392503440380096435546875">
        <ele>837.20001220703125</ele>
        <time>2022-05-02T13:25:48.000Z</time>
      </trkpt>
      <trkpt lat="40.996835567057132720947265625" lon="-1.32479391060769557952880859375">
        <ele>836.4000244140625</ele>
        <time>2022-05-02T13:25:50.000Z</time>
      </trkpt>
      <trkpt lat="40.99679969251155853271484375" lon="-1.32476708851754665374755859375">
        <ele>836</ele>
        <time>2022-05-02T13:25:51.000Z</time>
      </trkpt>
      <trkpt lat="40.9967629797756671905517578125" lon="-1.324735991656780242919921875">
        <ele>835.79998779296875</ele>
        <time>2022-05-02T13:25:52.000Z</time>
      </trkpt>
      <trkpt lat="40.9966944158077239990234375" lon="-1.32466767914593219757080078125">
        <ele>834.4000244140625</ele>
        <time>2022-05-02T13:25:54.000Z</time>
      </trkpt>
      <trkpt lat="40.9966273605823516845703125" lon="-1.32460447959601879119873046875">
        <ele>834.20001220703125</ele>
        <time>2022-05-02T13:25:56.000Z</time>
      </trkpt>
      <trkpt lat="40.9965950064361095428466796875" lon="-1.324568353593349456787109375">
        <ele>833.79998779296875</ele>
        <time>2022-05-02T13:25:57.000Z</time>
      </trkpt>
      <trkpt lat="40.99656340666115283966064453125" lon="-1.3245329819619655609130859375">
        <ele>833.20001220703125</ele>
        <time>2022-05-02T13:25:58.000Z</time>
      </trkpt>
      <trkpt lat="40.996498279273509979248046875" lon="-1.32446014322340488433837890625">
        <ele>832</ele>
        <time>2022-05-02T13:26:00.000Z</time>
      </trkpt>
      <trkpt lat="40.99643197841942310333251953125" lon="-1.324385963380336761474609375">
        <ele>831.20001220703125</ele>
        <time>2022-05-02T13:26:02.000Z</time>
      </trkpt>
      <trkpt lat="40.9963671863079071044921875" lon="-1.32431413047015666961669921875">
        <ele>831</ele>
        <time>2022-05-02T13:26:04.000Z</time>
      </trkpt>
      <trkpt lat="40.99630088545382022857666015625" lon="-1.32424137555062770843505859375">
        <ele>831</ele>
        <time>2022-05-02T13:26:06.000Z</time>
      </trkpt>
      <trkpt lat="40.9962329082190990447998046875" lon="-1.32415504194796085357666015625">
        <ele>831.20001220703125</ele>
        <time>2022-05-02T13:26:08.000Z</time>
      </trkpt>
      <trkpt lat="40.99616677500307559967041015625" lon="-1.324072815477848052978515625">
        <ele>831.4000244140625</ele>
        <time>2022-05-02T13:26:10.000Z</time>
      </trkpt>
      <trkpt lat="40.99613274447619915008544921875" lon="-1.3240384496748447418212890625">
        <ele>831.5999755859375</ele>
        <time>2022-05-02T13:26:11.000Z</time>
      </trkpt>
      <trkpt lat="40.9960974566638469696044921875" lon="-1.323997713625431060791015625">
        <ele>831.5999755859375</ele>
        <time>2022-05-02T13:26:12.000Z</time>
      </trkpt>
      <trkpt lat="40.996028222143650054931640625" lon="-1.32391565479338169097900390625">
        <ele>831.79998779296875</ele>
        <time>2022-05-02T13:26:14.000Z</time>
      </trkpt>
      <trkpt lat="40.9959596581757068634033203125" lon="-1.32384574972093105316162109375">
        <ele>832.20001220703125</ele>
        <time>2022-05-02T13:26:16.000Z</time>
      </trkpt>
      <trkpt lat="40.99589536897838115692138671875" lon="-1.323761008679866790771484375">
        <ele>832.20001220703125</ele>
        <time>2022-05-02T13:26:18.000Z</time>
      </trkpt>
      <trkpt lat="40.99583116360008716583251953125" lon="-1.323670484125614166259765625">
        <ele>832.20001220703125</ele>
        <time>2022-05-02T13:26:20.000Z</time>
      </trkpt>
      <trkpt lat="40.99576729349792003631591796875" lon="-1.32357635535299777984619140625">
        <ele>831.20001220703125</ele>
        <time>2022-05-02T13:26:22.000Z</time>
      </trkpt>
      <trkpt lat="40.995711386203765869140625" lon="-1.32349957711994647979736328125">
        <ele>830.79998779296875</ele>
        <time>2022-05-02T13:26:24.000Z</time>
      </trkpt>
      <trkpt lat="40.995654724538326263427734375" lon="-1.3234247267246246337890625">
        <ele>830.79998779296875</ele>
        <time>2022-05-02T13:26:26.000Z</time>
      </trkpt>
      <trkpt lat="40.9956263937056064605712890625" lon="-1.3233873434364795684814453125">
        <ele>830.79998779296875</ele>
        <time>2022-05-02T13:26:27.000Z</time>
      </trkpt>
      <trkpt lat="40.99559714086353778839111328125" lon="-1.32335029542446136474609375">
        <ele>830.79998779296875</ele>
        <time>2022-05-02T13:26:28.000Z</time>
      </trkpt>
      <trkpt lat="40.9955392219126224517822265625" lon="-1.3232767023146152496337890625">
        <ele>830.5999755859375</ele>
        <time>2022-05-02T13:26:30.000Z</time>
      </trkpt>
      <trkpt lat="40.9954818896949291229248046875" lon="-1.32320084609091281890869140625">
        <ele>830.5999755859375</ele>
        <time>2022-05-02T13:26:32.000Z</time>
      </trkpt>
      <trkpt lat="40.9954215399920940399169921875" lon="-1.32313060574233531951904296875">
        <ele>830.4000244140625</ele>
        <time>2022-05-02T13:26:34.000Z</time>
      </trkpt>
      <trkpt lat="40.9953913651406764984130859375" lon="-1.3230946473777294158935546875">
        <ele>830.4000244140625</ele>
        <time>2022-05-02T13:26:35.000Z</time>
      </trkpt>
      <trkpt lat="40.99536127410829067230224609375" lon="-1.32305650971829891204833984375">
        <ele>830.4000244140625</ele>
        <time>2022-05-02T13:26:36.000Z</time>
      </trkpt>
      <trkpt lat="40.9953023493289947509765625" lon="-1.32297922857105731964111328125">
        <ele>830.5999755859375</ele>
        <time>2022-05-02T13:26:38.000Z</time>
      </trkpt>
      <trkpt lat="40.99524778313934803009033203125" lon="-1.3229092396795749664306640625">
        <ele>831</ele>
        <time>2022-05-02T13:26:40.000Z</time>
      </trkpt>
      <trkpt lat="40.99519548006355762481689453125" lon="-1.32283975370228290557861328125">
        <ele>830.5999755859375</ele>
        <time>2022-05-02T13:26:42.000Z</time>
      </trkpt>
      <trkpt lat="40.99516798742115497589111328125" lon="-1.32280446588993072509765625">
        <ele>830.4000244140625</ele>
        <time>2022-05-02T13:26:43.000Z</time>
      </trkpt>
      <trkpt lat="40.99514066241681575775146484375" lon="-1.32276850752532482147216796875">
        <ele>830.20001220703125</ele>
        <time>2022-05-02T13:26:44.000Z</time>
      </trkpt>
      <trkpt lat="40.99508441984653472900390625" lon="-1.32269256748259067535400390625">
        <ele>830.20001220703125</ele>
        <time>2022-05-02T13:26:46.000Z</time>
      </trkpt>
      <trkpt lat="40.99502515979111194610595703125" lon="-1.322617046535015106201171875">
        <ele>830.4000244140625</ele>
        <time>2022-05-02T13:26:48.000Z</time>
      </trkpt>
      <trkpt lat="40.994964055716991424560546875" lon="-1.3225407712161540985107421875">
        <ele>830.5999755859375</ele>
        <time>2022-05-02T13:26:50.000Z</time>
      </trkpt>
      <trkpt lat="40.99490412510931491851806640625" lon="-1.32246256805956363677978515625">
        <ele>831</ele>
        <time>2022-05-02T13:26:52.000Z</time>
      </trkpt>
      <trkpt lat="40.994847714900970458984375" lon="-1.32238830439746379852294921875">
        <ele>831.20001220703125</ele>
        <time>2022-05-02T13:26:54.000Z</time>
      </trkpt>
      <trkpt lat="40.99479432217776775360107421875" lon="-1.3223235122859477996826171875">
        <ele>831.5999755859375</ele>
        <time>2022-05-02T13:26:56.000Z</time>
      </trkpt>
      <trkpt lat="40.99476666189730167388916015625" lon="-1.32228889502584934234619140625">
        <ele>832</ele>
        <time>2022-05-02T13:26:57.000Z</time>
      </trkpt>
      <trkpt lat="40.99473849870264530181884765625" lon="-1.32225167937576770782470703125">
        <ele>832</ele>
        <time>2022-05-02T13:26:58.000Z</time>
      </trkpt>
      <trkpt lat="40.9947094134986400604248046875" lon="-1.3222138769924640655517578125">
        <ele>832</ele>
        <time>2022-05-02T13:26:59.000Z</time>
      </trkpt>
      <trkpt lat="40.9946800768375396728515625" lon="-1.32217557169497013092041015625">
        <ele>832</ele>
        <time>2022-05-02T13:27:00.000Z</time>
      </trkpt>
      <trkpt lat="40.9946212358772754669189453125" lon="-1.3221002183854579925537109375">
        <ele>832</ele>
        <time>2022-05-02T13:27:02.000Z</time>
      </trkpt>
      <trkpt lat="40.994564406573772430419921875" lon="-1.3220291398465633392333984375">
        <ele>832</ele>
        <time>2022-05-02T13:27:04.000Z</time>
      </trkpt>
      <trkpt lat="40.99450984038412570953369140625" lon="-1.32196149788796901702880859375">
        <ele>832.20001220703125</ele>
        <time>2022-05-02T13:27:06.000Z</time>
      </trkpt>
      <trkpt lat="40.994455106556415557861328125" lon="-1.3218903355300426483154296875">
        <ele>832</ele>
        <time>2022-05-02T13:27:08.000Z</time>
      </trkpt>
      <trkpt lat="40.994398109614849090576171875" lon="-1.32181699387729167938232421875">
        <ele>831.79998779296875</ele>
        <time>2022-05-02T13:27:10.000Z</time>
      </trkpt>
      <trkpt lat="40.99434488452970981597900390625" lon="-1.321747340261936187744140625">
        <ele>831.4000244140625</ele>
        <time>2022-05-02T13:27:12.000Z</time>
      </trkpt>
      <trkpt lat="40.99429509602487087249755859375" lon="-1.32168271578848361968994140625">
        <ele>831.4000244140625</ele>
        <time>2022-05-02T13:27:14.000Z</time>
      </trkpt>
      <trkpt lat="40.99424681626260280609130859375" lon="-1.321617253124713897705078125">
        <ele>831.79998779296875</ele>
        <time>2022-05-02T13:27:16.000Z</time>
      </trkpt>
      <trkpt lat="40.994219072163105010986328125" lon="-1.321582384407520294189453125">
        <ele>832.20001220703125</ele>
        <time>2022-05-02T13:27:17.000Z</time>
      </trkpt>
      <trkpt lat="40.9941904060542583465576171875" lon="-1.321548521518707275390625">
        <ele>832.5999755859375</ele>
        <time>2022-05-02T13:27:18.000Z</time>
      </trkpt>
      <trkpt lat="40.99413785152137279510498046875" lon="-1.321475096046924591064453125">
        <ele>833.20001220703125</ele>
        <time>2022-05-02T13:27:20.000Z</time>
      </trkpt>
      <trkpt lat="40.9940844587981700897216796875" lon="-1.32140477187931537628173828125">
        <ele>833.5999755859375</ele>
        <time>2022-05-02T13:27:22.000Z</time>
      </trkpt>
      <trkpt lat="40.994033999741077423095703125" lon="-1.3213371299207210540771484375">
        <ele>834</ele>
        <time>2022-05-02T13:27:24.000Z</time>
      </trkpt>
      <trkpt lat="40.993984043598175048828125" lon="-1.32126965560019016265869140625">
        <ele>833.79998779296875</ele>
        <time>2022-05-02T13:27:26.000Z</time>
      </trkpt>
      <trkpt lat="40.9939563833177089691162109375" lon="-1.321235708892345428466796875">
        <ele>833.79998779296875</ele>
        <time>2022-05-02T13:27:27.000Z</time>
      </trkpt>
      <trkpt lat="40.9939292259514331817626953125" lon="-1.32120050489902496337890625">
        <ele>833.5999755859375</ele>
        <time>2022-05-02T13:27:28.000Z</time>
      </trkpt>
      <trkpt lat="40.9938735701143741607666015625" lon="-1.32112649269402027130126953125">
        <ele>833.5999755859375</ele>
        <time>2022-05-02T13:27:30.000Z</time>
      </trkpt>
      <trkpt lat="40.99381078965961933135986328125" lon="-1.32104954682290554046630859375">
        <ele>833.5999755859375</ele>
        <time>2022-05-02T13:27:32.000Z</time>
      </trkpt>
      <trkpt lat="40.99378044717013835906982421875" lon="-1.32100914604961872100830078125">
        <ele>833.5999755859375</ele>
        <time>2022-05-02T13:27:33.000Z</time>
      </trkpt>
      <trkpt lat="40.9937501884996891021728515625" lon="-1.320967487990856170654296875">
        <ele>833.5999755859375</ele>
        <time>2022-05-02T13:27:34.000Z</time>
      </trkpt>
      <trkpt lat="40.99368606694042682647705078125" lon="-1.32088593207299709320068359375">
        <ele>833.5999755859375</ele>
        <time>2022-05-02T13:27:36.000Z</time>
      </trkpt>
      <trkpt lat="40.993623621761798858642578125" lon="-1.32080747745931148529052734375">
        <ele>833.20001220703125</ele>
        <time>2022-05-02T13:27:38.000Z</time>
      </trkpt>
      <trkpt lat="40.9935634396970272064208984375" lon="-1.32073388434946537017822265625">
        <ele>833</ele>
        <time>2022-05-02T13:27:40.000Z</time>
      </trkpt>
      <trkpt lat="40.993532426655292510986328125" lon="-1.3206954114139080047607421875">
        <ele>833</ele>
        <time>2022-05-02T13:27:41.000Z</time>
      </trkpt>
      <trkpt lat="40.9935007430613040924072265625" lon="-1.32065576501190662384033203125">
        <ele>833</ele>
        <time>2022-05-02T13:27:42.000Z</time>
      </trkpt>
      <trkpt lat="40.9934360347688198089599609375" lon="-1.32057680748403072357177734375">
        <ele>833.20001220703125</ele>
        <time>2022-05-02T13:27:44.000Z</time>
      </trkpt>
      <trkpt lat="40.99337409250438213348388671875" lon="-1.3204989396035671234130859375">
        <ele>833</ele>
        <time>2022-05-02T13:27:46.000Z</time>
      </trkpt>
      <trkpt lat="40.9933126531541347503662109375" lon="-1.3204248435795307159423828125">
        <ele>833.20001220703125</ele>
        <time>2022-05-02T13:27:48.000Z</time>
      </trkpt>
      <trkpt lat="40.993249118328094482421875" lon="-1.32034664042294025421142578125">
        <ele>832.79998779296875</ele>
        <time>2022-05-02T13:27:50.000Z</time>
      </trkpt>
      <trkpt lat="40.9931839071214199066162109375" lon="-1.3202650845050811767578125">
        <ele>832.20001220703125</ele>
        <time>2022-05-02T13:27:52.000Z</time>
      </trkpt>
      <trkpt lat="40.993118025362491607666015625" lon="-1.32018084637820720672607421875">
        <ele>832.20001220703125</ele>
        <time>2022-05-02T13:27:54.000Z</time>
      </trkpt>
      <trkpt lat="40.9930471144616603851318359375" lon="-1.3200929202139377593994140625">
        <ele>832.5999755859375</ele>
        <time>2022-05-02T13:27:56.000Z</time>
      </trkpt>
      <trkpt lat="40.9929741919040679931640625" lon="-1.3200017251074314117431640625">
        <ele>832.20001220703125</ele>
        <time>2022-05-02T13:27:58.000Z</time>
      </trkpt>
      <trkpt lat="40.99293806590139865875244140625" lon="-1.31995587609708309173583984375">
        <ele>832</ele>
        <time>2022-05-02T13:27:59.000Z</time>
      </trkpt>
      <trkpt lat="40.99290202371776103973388671875" lon="-1.319910027086734771728515625">
        <ele>832</ele>
        <time>2022-05-02T13:28:00.000Z</time>
      </trkpt>
      <trkpt lat="40.99283128045499324798583984375" lon="-1.31981891579926013946533203125">
        <ele>831.79998779296875</ele>
        <time>2022-05-02T13:28:02.000Z</time>
      </trkpt>
      <trkpt lat="40.9927617944777011871337890625" lon="-1.31972939707338809967041015625">
        <ele>831.79998779296875</ele>
        <time>2022-05-02T13:28:04.000Z</time>
      </trkpt>
      <trkpt lat="40.99269264377653598785400390625" lon="-1.31964272819459438323974609375">
        <ele>831.79998779296875</ele>
        <time>2022-05-02T13:28:06.000Z</time>
      </trkpt>
      <trkpt lat="40.9926243312656879425048828125" lon="-1.31955840624868869781494140625">
        <ele>831.5999755859375</ele>
        <time>2022-05-02T13:28:08.000Z</time>
      </trkpt>
      <trkpt lat="40.9925576113164424896240234375" lon="-1.3194740004837512969970703125">
        <ele>831.79998779296875</ele>
        <time>2022-05-02T13:28:10.000Z</time>
      </trkpt>
      <trkpt lat="40.99249097518622875213623046875" lon="-1.3193891756236553192138671875">
        <ele>831</ele>
        <time>2022-05-02T13:28:12.000Z</time>
      </trkpt>
      <trkpt lat="40.992428697645664215087890625" lon="-1.3193070329725742340087890625">
        <ele>831</ele>
        <time>2022-05-02T13:28:14.000Z</time>
      </trkpt>
      <trkpt lat="40.9923695214092731475830078125" lon="-1.31923134438693523406982421875">
        <ele>830.4000244140625</ele>
        <time>2022-05-02T13:28:16.000Z</time>
      </trkpt>
      <trkpt lat="40.9923118539154529571533203125" lon="-1.319159679114818572998046875">
        <ele>830.4000244140625</ele>
        <time>2022-05-02T13:28:18.000Z</time>
      </trkpt>
      <trkpt lat="40.99225125275552272796630859375" lon="-1.31908298470079898834228515625">
        <ele>830</ele>
        <time>2022-05-02T13:28:20.000Z</time>
      </trkpt>
      <trkpt lat="40.99218855611979961395263671875" lon="-1.31900352425873279571533203125">
        <ele>830</ele>
        <time>2022-05-02T13:28:22.000Z</time>
      </trkpt>
      <trkpt lat="40.99212619476020336151123046875" lon="-1.3189254887402057647705078125">
        <ele>830</ele>
        <time>2022-05-02T13:28:24.000Z</time>
      </trkpt>
      <trkpt lat="40.9920667670667171478271484375" lon="-1.31885030306875705718994140625">
        <ele>830.20001220703125</ele>
        <time>2022-05-02T13:28:26.000Z</time>
      </trkpt>
      <trkpt lat="40.99200792610645294189453125" lon="-1.318776123225688934326171875">
        <ele>830.79998779296875</ele>
        <time>2022-05-02T13:28:28.000Z</time>
      </trkpt>
      <trkpt lat="40.9919497556984424591064453125" lon="-1.3187005184590816497802734375">
        <ele>831.4000244140625</ele>
        <time>2022-05-02T13:28:30.000Z</time>
      </trkpt>
      <trkpt lat="40.9918884001672267913818359375" lon="-1.3186240755021572113037109375">
        <ele>832.20001220703125</ele>
        <time>2022-05-02T13:28:32.000Z</time>
      </trkpt>
      <trkpt lat="40.9918257035315036773681640625" lon="-1.31854453124105930328369140625">
        <ele>832.79998779296875</ele>
        <time>2022-05-02T13:28:34.000Z</time>
      </trkpt>
      <trkpt lat="40.99176493473351001739501953125" lon="-1.31846607662737369537353515625">
        <ele>833.20001220703125</ele>
        <time>2022-05-02T13:28:36.000Z</time>
      </trkpt>
      <trkpt lat="40.99170693196356296539306640625" lon="-1.3183920644223690032958984375">
        <ele>833.4000244140625</ele>
        <time>2022-05-02T13:28:38.000Z</time>
      </trkpt>
      <trkpt lat="40.99165261723101139068603515625" lon="-1.3183206506073474884033203125">
        <ele>833.5999755859375</ele>
        <time>2022-05-02T13:28:40.000Z</time>
      </trkpt>
      <trkpt lat="40.99159729667007923126220703125" lon="-1.318250410258769989013671875">
        <ele>833.79998779296875</ele>
        <time>2022-05-02T13:28:42.000Z</time>
      </trkpt>
      <trkpt lat="40.991540215909481048583984375" lon="-1.31817740388214588165283203125">
        <ele>834</ele>
        <time>2022-05-02T13:28:44.000Z</time>
      </trkpt>
      <trkpt lat="40.991483218967914581298828125" lon="-1.31810263730585575103759765625">
        <ele>834.4000244140625</ele>
        <time>2022-05-02T13:28:46.000Z</time>
      </trkpt>
      <trkpt lat="40.9914263896644115447998046875" lon="-1.318027786910533905029296875">
        <ele>834.79998779296875</ele>
        <time>2022-05-02T13:28:48.000Z</time>
      </trkpt>
      <trkpt lat="40.99137081764638423919677734375" lon="-1.317953355610370635986328125">
        <ele>834.79998779296875</ele>
        <time>2022-05-02T13:28:50.000Z</time>
      </trkpt>
      <trkpt lat="40.991312228143215179443359375" lon="-1.31788252852857112884521484375">
        <ele>834.79998779296875</ele>
        <time>2022-05-02T13:28:52.000Z</time>
      </trkpt>
      <trkpt lat="40.99125313572585582733154296875" lon="-1.31780994124710559844970703125">
        <ele>835.20001220703125</ele>
        <time>2022-05-02T13:28:54.000Z</time>
      </trkpt>
      <trkpt lat="40.99119630642235279083251953125" lon="-1.31773618049919605255126953125">
        <ele>835.5999755859375</ele>
        <time>2022-05-02T13:28:56.000Z</time>
      </trkpt>
      <trkpt lat="40.99113947711884975433349609375" lon="-1.3176638446748256683349609375">
        <ele>835.79998779296875</ele>
        <time>2022-05-02T13:28:58.000Z</time>
      </trkpt>
      <trkpt lat="40.991080217063426971435546875" lon="-1.31759368814527988433837890625">
        <ele>836</ele>
        <time>2022-05-02T13:29:00.000Z</time>
      </trkpt>
      <trkpt lat="40.99101760424673557281494140625" lon="-1.31751975975930690765380859375">
        <ele>836.5999755859375</ele>
        <time>2022-05-02T13:29:02.000Z</time>
      </trkpt>
      <trkpt lat="40.99095775745809078216552734375" lon="-1.317441053688526153564453125">
        <ele>837</ele>
        <time>2022-05-02T13:29:04.000Z</time>
      </trkpt>
      <trkpt lat="40.9908949770033359527587890625" lon="-1.31736637093126773834228515625">
        <ele>836.5999755859375</ele>
        <time>2022-05-02T13:29:06.000Z</time>
      </trkpt>
      <trkpt lat="40.9908637963235378265380859375" lon="-1.31732932291924953460693359375">
        <ele>836.5999755859375</ele>
        <time>2022-05-02T13:29:07.000Z</time>
      </trkpt>
      <trkpt lat="40.9908319450914859771728515625" lon="-1.3172890059649944305419921875">
        <ele>836.4000244140625</ele>
        <time>2022-05-02T13:29:08.000Z</time>
      </trkpt>
      <trkpt lat="40.990765728056430816650390625" lon="-1.3172058574855327606201171875">
        <ele>836.5999755859375</ele>
        <time>2022-05-02T13:29:10.000Z</time>
      </trkpt>
      <trkpt lat="40.9906995110213756561279296875" lon="-1.31712396629154682159423828125">
        <ele>836.4000244140625</ele>
        <time>2022-05-02T13:29:12.000Z</time>
      </trkpt>
      <trkpt lat="40.99063673056662082672119140625" lon="-1.3170415721833705902099609375">
        <ele>835.79998779296875</ele>
        <time>2022-05-02T13:29:14.000Z</time>
      </trkpt>
      <trkpt lat="40.9905736148357391357421875" lon="-1.3169611059129238128662109375">
        <ele>835.4000244140625</ele>
        <time>2022-05-02T13:29:16.000Z</time>
      </trkpt>
      <trkpt lat="40.9905144385993480682373046875" lon="-1.3168917037546634674072265625">
        <ele>835.20001220703125</ele>
        <time>2022-05-02T13:29:18.000Z</time>
      </trkpt>
      <trkpt lat="40.990458615124225616455078125" lon="-1.31681836210191249847412109375">
        <ele>835.20001220703125</ele>
        <time>2022-05-02T13:29:20.000Z</time>
      </trkpt>
      <trkpt lat="40.990400612354278564453125" lon="-1.31674493663012981414794921875">
        <ele>835</ele>
        <time>2022-05-02T13:29:22.000Z</time>
      </trkpt>
      <trkpt lat="40.99034386686980724334716796875" lon="-1.31667335517704486846923828125">
        <ele>835</ele>
        <time>2022-05-02T13:29:24.000Z</time>
      </trkpt>
      <trkpt lat="40.9902898035943508148193359375" lon="-1.31660093553364276885986328125">
        <ele>835.20001220703125</ele>
        <time>2022-05-02T13:29:26.000Z</time>
      </trkpt>
      <trkpt lat="40.9902348183095455169677734375" lon="-1.31653019227087497711181640625">
        <ele>835.5999755859375</ele>
        <time>2022-05-02T13:29:28.000Z</time>
      </trkpt>
      <trkpt lat="40.9902053140103816986083984375" lon="-1.3164944015443325042724609375">
        <ele>835.79998779296875</ele>
        <time>2022-05-02T13:29:29.000Z</time>
      </trkpt>
      <trkpt lat="40.9901748038828372955322265625" lon="-1.3164581917226314544677734375">
        <ele>836</ele>
        <time>2022-05-02T13:29:30.000Z</time>
      </trkpt>
      <trkpt lat="40.99011428654193878173828125" lon="-1.3163851015269756317138671875">
        <ele>836.4000244140625</ele>
        <time>2022-05-02T13:29:32.000Z</time>
      </trkpt>
      <trkpt lat="40.99005200900137424468994140625" lon="-1.3163120113313198089599609375">
        <ele>837.20001220703125</ele>
        <time>2022-05-02T13:29:34.000Z</time>
      </trkpt>
      <trkpt lat="40.98998562432825565338134765625" lon="-1.316235400736331939697265625">
        <ele>838.20001220703125</ele>
        <time>2022-05-02T13:29:36.000Z</time>
      </trkpt>
      <trkpt lat="40.98991923965513706207275390625" lon="-1.31615200079977512359619140625">
        <ele>838.5999755859375</ele>
        <time>2022-05-02T13:29:38.000Z</time>
      </trkpt>
      <trkpt lat="40.98985352553427219390869140625" lon="-1.31606985814869403839111328125">
        <ele>839.20001220703125</ele>
        <time>2022-05-02T13:29:40.000Z</time>
      </trkpt>
      <trkpt lat="40.98978747613728046417236328125" lon="-1.3159931637346744537353515625">
        <ele>840</ele>
        <time>2022-05-02T13:29:42.000Z</time>
      </trkpt>
      <trkpt lat="40.98972209729254245758056640625" lon="-1.31591429002583026885986328125">
        <ele>841</ele>
        <time>2022-05-02T13:29:44.000Z</time>
      </trkpt>
      <trkpt lat="40.98965470679104328155517578125" lon="-1.315834410488605499267578125">
        <ele>841.4000244140625</ele>
        <time>2022-05-02T13:29:46.000Z</time>
      </trkpt>
      <trkpt lat="40.98958798684179782867431640625" lon="-1.31575805135071277618408203125">
        <ele>841.79998779296875</ele>
        <time>2022-05-02T13:29:48.000Z</time>
      </trkpt>
      <trkpt lat="40.989525206387042999267578125" lon="-1.315680854022502899169921875">
        <ele>842.20001220703125</ele>
        <time>2022-05-02T13:29:50.000Z</time>
      </trkpt>
      <trkpt lat="40.98949461244046688079833984375" lon="-1.31564573384821414947509765625">
        <ele>842.4000244140625</ele>
        <time>2022-05-02T13:29:51.000Z</time>
      </trkpt>
      <trkpt lat="40.98946494050323963165283203125" lon="-1.31561505608260631561279296875">
        <ele>842.5999755859375</ele>
        <time>2022-05-02T13:29:52.000Z</time>
      </trkpt>
      <trkpt lat="40.989406518638134002685546875" lon="-1.3155512697994709014892578125">
        <ele>842.5999755859375</ele>
        <time>2022-05-02T13:29:54.000Z</time>
      </trkpt>
      <trkpt lat="40.98935027606785297393798828125" lon="-1.31548714824020862579345703125">
        <ele>842.5999755859375</ele>
        <time>2022-05-02T13:29:56.000Z</time>
      </trkpt>
      <trkpt lat="40.9893195144832134246826171875" lon="-1.315454877912998199462890625">
        <ele>842.5999755859375</ele>
        <time>2022-05-02T13:29:57.000Z</time>
      </trkpt>
      <trkpt lat="40.9892861545085906982421875" lon="-1.31542227230966091156005859375">
        <ele>842.4000244140625</ele>
        <time>2022-05-02T13:29:58.000Z</time>
      </trkpt>
      <trkpt lat="40.9892571531236171722412109375" lon="-1.31539142690598964691162109375">
        <ele>842.4000244140625</ele>
        <time>2022-05-02T13:29:59.000Z</time>
      </trkpt>
      <trkpt lat="40.989228151738643646240234375" lon="-1.31535999476909637451171875">
        <ele>842.20001220703125</ele>
        <time>2022-05-02T13:30:00.000Z</time>
      </trkpt>
      <trkpt lat="40.98916285671293735504150390625" lon="-1.31529025733470916748046875">
        <ele>841.5999755859375</ele>
        <time>2022-05-02T13:30:02.000Z</time>
      </trkpt>
      <trkpt lat="40.9890962205827236175537109375" lon="-1.3152183406054973602294921875">
        <ele>841</ele>
        <time>2022-05-02T13:30:04.000Z</time>
      </trkpt>
      <trkpt lat="40.9890626929700374603271484375" lon="-1.31518590264022350311279296875">
        <ele>840.5999755859375</ele>
        <time>2022-05-02T13:30:05.000Z</time>
      </trkpt>
      <trkpt lat="40.98902857862412929534912109375" lon="-1.31515346467494964599609375">
        <ele>840.20001220703125</ele>
        <time>2022-05-02T13:30:06.000Z</time>
      </trkpt>
      <trkpt lat="40.988957919180393218994140625" lon="-1.31508515216410160064697265625">
        <ele>839.79998779296875</ele>
        <time>2022-05-02T13:30:08.000Z</time>
      </trkpt>
      <trkpt lat="40.988884828984737396240234375" lon="-1.31501139141619205474853515625">
        <ele>839.20001220703125</ele>
        <time>2022-05-02T13:30:10.000Z</time>
      </trkpt>
      <trkpt lat="40.988811738789081573486328125" lon="-1.3149417378008365631103515625">
        <ele>838.79998779296875</ele>
        <time>2022-05-02T13:30:12.000Z</time>
      </trkpt>
      <trkpt lat="40.98874208517372608184814453125" lon="-1.31488122045993804931640625">
        <ele>838.5999755859375</ele>
        <time>2022-05-02T13:30:14.000Z</time>
      </trkpt>
      <trkpt lat="40.988677628338336944580078125" lon="-1.31482397206127643585205078125">
        <ele>838.79998779296875</ele>
        <time>2022-05-02T13:30:16.000Z</time>
      </trkpt>
      <trkpt lat="40.98860830999910831451416015625" lon="-1.314766220748424530029296875">
        <ele>839.20001220703125</ele>
        <time>2022-05-02T13:30:18.000Z</time>
      </trkpt>
      <trkpt lat="40.988534800708293914794921875" lon="-1.31470779888331890106201171875">
        <ele>839.5999755859375</ele>
        <time>2022-05-02T13:30:20.000Z</time>
      </trkpt>
      <trkpt lat="40.98845726810395717620849609375" lon="-1.31464828737080097198486328125">
        <ele>840</ele>
        <time>2022-05-02T13:30:22.000Z</time>
      </trkpt>
      <trkpt lat="40.9883814118802547454833984375" lon="-1.3145853392779827117919921875">
        <ele>840</ele>
        <time>2022-05-02T13:30:24.000Z</time>
      </trkpt>
      <trkpt lat="40.988308489322662353515625" lon="-1.31452105008065700531005859375">
        <ele>840</ele>
        <time>2022-05-02T13:30:26.000Z</time>
      </trkpt>
      <trkpt lat="40.9882362373173236846923828125" lon="-1.31445986218750476837158203125">
        <ele>840.20001220703125</ele>
        <time>2022-05-02T13:30:28.000Z</time>
      </trkpt>
      <trkpt lat="40.9881614707410335540771484375" lon="-1.31439850665628910064697265625">
        <ele>840.20001220703125</ele>
        <time>2022-05-02T13:30:30.000Z</time>
      </trkpt>
      <trkpt lat="40.9880840219557285308837890625" lon="-1.31433681584894657135009765625">
        <ele>840.5999755859375</ele>
        <time>2022-05-02T13:30:32.000Z</time>
      </trkpt>
      <trkpt lat="40.98800950683653354644775390625" lon="-1.31427495740354061126708984375">
        <ele>840.79998779296875</ele>
        <time>2022-05-02T13:30:34.000Z</time>
      </trkpt>
      <trkpt lat="40.9879371710121631622314453125" lon="-1.31420890800654888153076171875">
        <ele>840</ele>
        <time>2022-05-02T13:30:36.000Z</time>
      </trkpt>
      <trkpt lat="40.987859554588794708251953125" lon="-1.314145624637603759765625">
        <ele>839.5999755859375</ele>
        <time>2022-05-02T13:30:38.000Z</time>
      </trkpt>
      <trkpt lat="40.98778252489864826202392578125" lon="-1.31408100016415119171142578125">
        <ele>839.20001220703125</ele>
        <time>2022-05-02T13:30:40.000Z</time>
      </trkpt>
      <trkpt lat="40.98770474083721637725830078125" lon="-1.31401075981557369232177734375">
        <ele>838.79998779296875</ele>
        <time>2022-05-02T13:30:42.000Z</time>
      </trkpt>
      <trkpt lat="40.9876250289380550384521484375" lon="-1.31394588388502597808837890625">
        <ele>838.20001220703125</ele>
        <time>2022-05-02T13:30:44.000Z</time>
      </trkpt>
      <trkpt lat="40.9875482507050037384033203125" lon="-1.31388318724930286407470703125">
        <ele>837.5999755859375</ele>
        <time>2022-05-02T13:30:46.000Z</time>
      </trkpt>
      <trkpt lat="40.98747675307095050811767578125" lon="-1.3138172216713428497314453125">
        <ele>837</ele>
        <time>2022-05-02T13:30:48.000Z</time>
      </trkpt>
      <trkpt lat="40.98743987269699573516845703125" lon="-1.3137860409915447235107421875">
        <ele>836.79998779296875</ele>
        <time>2022-05-02T13:30:49.000Z</time>
      </trkpt>
      <trkpt lat="40.98740181885659694671630859375" lon="-1.31375477649271488189697265625">
        <ele>836.79998779296875</ele>
        <time>2022-05-02T13:30:50.000Z</time>
      </trkpt>
      <trkpt lat="40.9873249568045139312744140625" lon="-1.313691325485706329345703125">
        <ele>836.79998779296875</ele>
        <time>2022-05-02T13:30:52.000Z</time>
      </trkpt>
      <trkpt lat="40.98724708892405033111572265625" lon="-1.31362904794514179229736328125">
        <ele>837.20001220703125</ele>
        <time>2022-05-02T13:30:54.000Z</time>
      </trkpt>
      <trkpt lat="40.9871710650622844696044921875" lon="-1.313566267490386962890625">
        <ele>836.79998779296875</ele>
        <time>2022-05-02T13:30:56.000Z</time>
      </trkpt>
      <trkpt lat="40.9870969690382480621337890625" lon="-1.31350792944431304931640625">
        <ele>837</ele>
        <time>2022-05-02T13:30:58.000Z</time>
      </trkpt>
      <trkpt lat="40.98702429793775081634521484375" lon="-1.313449256122112274169921875">
        <ele>837.4000244140625</ele>
        <time>2022-05-02T13:31:00.000Z</time>
      </trkpt>
      <trkpt lat="40.986952297389507293701171875" lon="-1.31338479928672313690185546875">
        <ele>837.79998779296875</ele>
        <time>2022-05-02T13:31:02.000Z</time>
      </trkpt>
      <trkpt lat="40.98691432736814022064208984375" lon="-1.3133558817207813262939453125">
        <ele>837.5999755859375</ele>
        <time>2022-05-02T13:31:03.000Z</time>
      </trkpt>
      <trkpt lat="40.98687577061355113983154296875" lon="-1.313328556716442108154296875">
        <ele>837.4000244140625</ele>
        <time>2022-05-02T13:31:04.000Z</time>
      </trkpt>
      <trkpt lat="40.98683796823024749755859375" lon="-1.313298046588897705078125">
        <ele>837.20001220703125</ele>
        <time>2022-05-02T13:31:05.000Z</time>
      </trkpt>
      <trkpt lat="40.98680033348500728607177734375" lon="-1.31326594389975070953369140625">
        <ele>837</ele>
        <time>2022-05-02T13:31:06.000Z</time>
      </trkpt>
      <trkpt lat="40.98672523163259029388427734375" lon="-1.3132028281688690185546875">
        <ele>837.79998779296875</ele>
        <time>2022-05-02T13:31:08.000Z</time>
      </trkpt>
      <trkpt lat="40.9866468608379364013671875" lon="-1.31313778460025787353515625">
        <ele>838.5999755859375</ele>
        <time>2022-05-02T13:31:10.000Z</time>
      </trkpt>
      <trkpt lat="40.98660771735012531280517578125" lon="-1.3131047599017620086669921875">
        <ele>838.4000244140625</ele>
        <time>2022-05-02T13:31:11.000Z</time>
      </trkpt>
      <trkpt lat="40.986570082604885101318359375" lon="-1.313071735203266143798828125">
        <ele>838.4000244140625</ele>
        <time>2022-05-02T13:31:12.000Z</time>
      </trkpt>
      <trkpt lat="40.9865316934883594512939453125" lon="-1.3130407221615314483642578125">
        <ele>838.4000244140625</ele>
        <time>2022-05-02T13:31:13.000Z</time>
      </trkpt>
      <trkpt lat="40.9864928014576435089111328125" lon="-1.3130095414817333221435546875">
        <ele>838.4000244140625</ele>
        <time>2022-05-02T13:31:14.000Z</time>
      </trkpt>
      <trkpt lat="40.9864140115678310394287109375" lon="-1.312947683036327362060546875">
        <ele>838.5999755859375</ele>
        <time>2022-05-02T13:31:16.000Z</time>
      </trkpt>
      <trkpt lat="40.986336730420589447021484375" lon="-1.31288171745836734771728515625">
        <ele>838.5999755859375</ele>
        <time>2022-05-02T13:31:18.000Z</time>
      </trkpt>
      <trkpt lat="40.98625995218753814697265625" lon="-1.312817595899105072021484375">
        <ele>838.20001220703125</ele>
        <time>2022-05-02T13:31:20.000Z</time>
      </trkpt>
      <trkpt lat="40.98618275485932826995849609375" lon="-1.31275556981563568115234375">
        <ele>837.79998779296875</ele>
        <time>2022-05-02T13:31:22.000Z</time>
      </trkpt>
      <trkpt lat="40.98610832355916500091552734375" lon="-1.31269044242799282073974609375">
        <ele>837.4000244140625</ele>
        <time>2022-05-02T13:31:24.000Z</time>
      </trkpt>
      <trkpt lat="40.98603355698287487030029296875" lon="-1.3126279972493648529052734375">
        <ele>837.4000244140625</ele>
        <time>2022-05-02T13:31:26.000Z</time>
      </trkpt>
      <trkpt lat="40.98595828749239444732666015625" lon="-1.31256781518459320068359375">
        <ele>837.5999755859375</ele>
        <time>2022-05-02T13:31:28.000Z</time>
      </trkpt>
      <trkpt lat="40.9858832694590091705322265625" lon="-1.31251014769077301025390625">
        <ele>837.79998779296875</ele>
        <time>2022-05-02T13:31:30.000Z</time>
      </trkpt>
      <trkpt lat="40.98580774851143360137939453125" lon="-1.31245474331080913543701171875">
        <ele>837.5999755859375</ele>
        <time>2022-05-02T13:31:32.000Z</time>
      </trkpt>
      <trkpt lat="40.9857414476573467254638671875" lon="-1.3124003447592258453369140625">
        <ele>837.79998779296875</ele>
        <time>2022-05-02T13:31:34.000Z</time>
      </trkpt>
      <trkpt lat="40.985684953629970550537109375" lon="-1.31235684268176555633544921875">
        <ele>837.5999755859375</ele>
        <time>2022-05-02T13:31:36.000Z</time>
      </trkpt>
      <trkpt lat="40.98565788008272647857666015625" lon="-1.312337480485439300537109375">
        <ele>837.79998779296875</ele>
        <time>2022-05-02T13:31:37.000Z</time>
      </trkpt>
      <trkpt lat="40.9856331534683704376220703125" lon="-1.3123202137649059295654296875">
        <ele>837.79998779296875</ele>
        <time>2022-05-02T13:31:38.000Z</time>
      </trkpt>
      <trkpt lat="40.98559501580893993377685546875" lon="-1.31228978745639324188232421875">
        <ele>837.79998779296875</ele>
        <time>2022-05-02T13:31:40.000Z</time>
      </trkpt>
      <trkpt lat="40.98556668497622013092041015625" lon="-1.3122586905956268310546875">
        <ele>837.5999755859375</ele>
        <time>2022-05-02T13:31:42.000Z</time>
      </trkpt>
      <trkpt lat="40.985555537045001983642578125" lon="-1.3122417591512203216552734375">
        <ele>837.5999755859375</ele>
        <time>2022-05-02T13:31:43.000Z</time>
      </trkpt>
      <trkpt lat="40.98554422147572040557861328125" lon="-1.312225162982940673828125">
        <ele>837.4000244140625</ele>
        <time>2022-05-02T13:31:44.000Z</time>
      </trkpt>
      <trkpt lat="40.98552100360393524169921875" lon="-1.312193311750888824462890625">
        <ele>837.20001220703125</ele>
        <time>2022-05-02T13:31:46.000Z</time>
      </trkpt>
      <trkpt lat="40.9854859672486782073974609375" lon="-1.31216841749846935272216796875">
        <ele>837</ele>
        <time>2022-05-02T13:31:48.000Z</time>
      </trkpt>
      <trkpt lat="40.98546861670911312103271484375" lon="-1.312160454690456390380859375">
        <ele>837</ele>
        <time>2022-05-02T13:31:49.000Z</time>
      </trkpt>
      <trkpt lat="40.985452271997928619384765625" lon="-1.312153749167919158935546875">
        <ele>837</ele>
        <time>2022-05-02T13:31:50.000Z</time>
      </trkpt>
      <trkpt lat="40.98541497252881526947021484375" lon="-1.312132962048053741455078125">
        <ele>836.79998779296875</ele>
        <time>2022-05-02T13:31:52.000Z</time>
      </trkpt>
      <trkpt lat="40.9853763319551944732666015625" lon="-1.3121103309094905853271484375">
        <ele>837</ele>
        <time>2022-05-02T13:31:54.000Z</time>
      </trkpt>
      <trkpt lat="40.98533995449542999267578125" lon="-1.31209817714989185333251953125">
        <ele>837</ele>
        <time>2022-05-02T13:31:56.000Z</time>
      </trkpt>
      <trkpt lat="40.9853109531104564666748046875" lon="-1.3120784796774387359619140625">
        <ele>837</ele>
        <time>2022-05-02T13:31:58.000Z</time>
      </trkpt>
      <trkpt lat="40.985293686389923095703125" lon="-1.31204956211149692535400390625">
        <ele>837</ele>
        <time>2022-05-02T13:32:00.000Z</time>
      </trkpt>
      <trkpt lat="40.98528094589710235595703125" lon="-1.31203472614288330078125">
        <ele>837</ele>
        <time>2022-05-02T13:32:01.000Z</time>
      </trkpt>
      <trkpt lat="40.9852616675198078155517578125" lon="-1.31201687268912792205810546875">
        <ele>836.79998779296875</ele>
        <time>2022-05-02T13:32:02.000Z</time>
      </trkpt>
      <trkpt lat="40.9852103702723979949951171875" lon="-1.311980076134204864501953125">
        <ele>836.5999755859375</ele>
        <time>2022-05-02T13:32:04.000Z</time>
      </trkpt>
      <trkpt lat="40.98517860285937786102294921875" lon="-1.31196356378495693206787109375">
        <ele>836.5999755859375</ele>
        <time>2022-05-02T13:32:05.000Z</time>
      </trkpt>
      <trkpt lat="40.985143817961215972900390625" lon="-1.31194361485540866851806640625">
        <ele>836.4000244140625</ele>
        <time>2022-05-02T13:32:06.000Z</time>
      </trkpt>
      <trkpt lat="40.98506963811814785003662109375" lon="-1.311892904341220855712890625">
        <ele>836.79998779296875</ele>
        <time>2022-05-02T13:32:08.000Z</time>
      </trkpt>
      <trkpt lat="40.98499151878058910369873046875" lon="-1.3118310458958148956298828125">
        <ele>837.5999755859375</ele>
        <time>2022-05-02T13:32:10.000Z</time>
      </trkpt>
      <trkpt lat="40.9849517047405242919921875" lon="-1.311799697577953338623046875">
        <ele>838</ele>
        <time>2022-05-02T13:32:11.000Z</time>
      </trkpt>
      <trkpt lat="40.98491189070045948028564453125" lon="-1.31176860071718692779541015625">
        <ele>838.20001220703125</ele>
        <time>2022-05-02T13:32:12.000Z</time>
      </trkpt>
      <trkpt lat="40.98482823930680751800537109375" lon="-1.3117053173482418060302734375">
        <ele>838.5999755859375</ele>
        <time>2022-05-02T13:32:14.000Z</time>
      </trkpt>
      <trkpt lat="40.98474643193185329437255859375" lon="-1.311640441417694091796875">
        <ele>839.20001220703125</ele>
        <time>2022-05-02T13:32:16.000Z</time>
      </trkpt>
      <trkpt lat="40.98466797731816768646240234375" lon="-1.3115720450878143310546875">
        <ele>840</ele>
        <time>2022-05-02T13:32:18.000Z</time>
      </trkpt>
      <trkpt lat="40.98462791182100772857666015625" lon="-1.3115386851131916046142578125">
        <ele>840.4000244140625</ele>
        <time>2022-05-02T13:32:19.000Z</time>
      </trkpt>
      <trkpt lat="40.98458935506641864776611328125" lon="-1.31150373257696628570556640625">
        <ele>840.5999755859375</ele>
        <time>2022-05-02T13:32:20.000Z</time>
      </trkpt>
      <trkpt lat="40.98451307974755764007568359375" lon="-1.3114347495138645172119140625">
        <ele>841</ele>
        <time>2022-05-02T13:32:22.000Z</time>
      </trkpt>
      <trkpt lat="40.98443278111517429351806640625" lon="-1.31136978976428508758544921875">
        <ele>840.79998779296875</ele>
        <time>2022-05-02T13:32:24.000Z</time>
      </trkpt>
      <trkpt lat="40.98435684107244014739990234375" lon="-1.31131245754659175872802734375">
        <ele>840.79998779296875</ele>
        <time>2022-05-02T13:32:26.000Z</time>
      </trkpt>
      <trkpt lat="40.984284840524196624755859375" lon="-1.31125152111053466796875">
        <ele>841</ele>
        <time>2022-05-02T13:32:28.000Z</time>
      </trkpt>
      <trkpt lat="40.98421568982303142547607421875" lon="-1.3111936859786510467529296875">
        <ele>841.79998779296875</ele>
        <time>2022-05-02T13:32:30.000Z</time>
      </trkpt>
      <trkpt lat="40.984151400625705718994140625" lon="-1.31113274954259395599365234375">
        <ele>842.20001220703125</ele>
        <time>2022-05-02T13:32:32.000Z</time>
      </trkpt>
      <trkpt lat="40.9840875305235385894775390625" lon="-1.31107340566813945770263671875">
        <ele>842.4000244140625</ele>
        <time>2022-05-02T13:32:34.000Z</time>
      </trkpt>
      <trkpt lat="40.984023325145244598388671875" lon="-1.31101825274527072906494140625">
        <ele>842.79998779296875</ele>
        <time>2022-05-02T13:32:36.000Z</time>
      </trkpt>
      <trkpt lat="40.98395601846277713775634765625" lon="-1.31098304875195026397705078125">
        <ele>843.4000244140625</ele>
        <time>2022-05-02T13:32:38.000Z</time>
      </trkpt>
      <trkpt lat="40.98389022052288055419921875" lon="-1.31093971431255340576171875">
        <ele>844</ele>
        <time>2022-05-02T13:32:40.000Z</time>
      </trkpt>
      <trkpt lat="40.98382995463907718658447265625" lon="-1.31088397465646266937255859375">
        <ele>844.5999755859375</ele>
        <time>2022-05-02T13:32:42.000Z</time>
      </trkpt>
      <trkpt lat="40.9837703593075275421142578125" lon="-1.3108252175152301788330078125">
        <ele>845</ele>
        <time>2022-05-02T13:32:44.000Z</time>
      </trkpt>
      <trkpt lat="40.98370389081537723541259765625" lon="-1.31077081896364688873291015625">
        <ele>845.4000244140625</ele>
        <time>2022-05-02T13:32:46.000Z</time>
      </trkpt>
      <trkpt lat="40.983666591346263885498046875" lon="-1.3107457570731639862060546875">
        <ele>845.5999755859375</ele>
        <time>2022-05-02T13:32:47.000Z</time>
      </trkpt>
      <trkpt lat="40.98362778313457965850830078125" lon="-1.310717426240444183349609375">
        <ele>845.79998779296875</ele>
        <time>2022-05-02T13:32:48.000Z</time>
      </trkpt>
      <trkpt lat="40.983547233045101165771484375" lon="-1.31065732799470424652099609375">
        <ele>846.20001220703125</ele>
        <time>2022-05-02T13:32:50.000Z</time>
      </trkpt>
      <trkpt lat="40.9834684431552886962890625" lon="-1.31060049869120121002197265625">
        <ele>846.5999755859375</ele>
        <time>2022-05-02T13:32:52.000Z</time>
      </trkpt>
      <trkpt lat="40.983389317989349365234375" lon="-1.3105476088821887969970703125">
        <ele>846.79998779296875</ele>
        <time>2022-05-02T13:32:54.000Z</time>
      </trkpt>
      <trkpt lat="40.98331379704177379608154296875" lon="-1.310497485101222991943359375">
        <ele>847</ele>
        <time>2022-05-02T13:32:56.000Z</time>
      </trkpt>
      <trkpt lat="40.9832392819225788116455078125" lon="-1.3104530610144138336181640625">
        <ele>847.20001220703125</ele>
        <time>2022-05-02T13:32:58.000Z</time>
      </trkpt>
      <trkpt lat="40.9831631742417812347412109375" lon="-1.31041492335498332977294921875">
        <ele>847.20001220703125</ele>
        <time>2022-05-02T13:33:00.000Z</time>
      </trkpt>
      <trkpt lat="40.98312470130622386932373046875" lon="-1.31039321422576904296875">
        <ele>847</ele>
        <time>2022-05-02T13:33:01.000Z</time>
      </trkpt>
      <trkpt lat="40.983087904751300811767578125" lon="-1.3103677332401275634765625">
        <ele>847</ele>
        <time>2022-05-02T13:33:02.000Z</time>
      </trkpt>
      <trkpt lat="40.98301607184112071990966796875" lon="-1.310324482619762420654296875">
        <ele>846.4000244140625</ele>
        <time>2022-05-02T13:33:04.000Z</time>
      </trkpt>
      <trkpt lat="40.98297734744846820831298828125" lon="-1.31029925309121608734130859375">
        <ele>846</ele>
        <time>2022-05-02T13:33:05.000Z</time>
      </trkpt>
      <trkpt lat="40.98293644376099109649658203125" lon="-1.31027494557201862335205078125">
        <ele>845.79998779296875</ele>
        <time>2022-05-02T13:33:06.000Z</time>
      </trkpt>
      <trkpt lat="40.982895791530609130859375" lon="-1.31025063805282115936279296875">
        <ele>845.4000244140625</ele>
        <time>2022-05-02T13:33:07.000Z</time>
      </trkpt>
      <trkpt lat="40.98285580985248088836669921875" lon="-1.3102260790765285491943359375">
        <ele>845.20001220703125</ele>
        <time>2022-05-02T13:33:08.000Z</time>
      </trkpt>
      <trkpt lat="40.98277634941041469573974609375" lon="-1.31018190644681453704833984375">
        <ele>845.20001220703125</ele>
        <time>2022-05-02T13:33:10.000Z</time>
      </trkpt>
      <trkpt lat="40.9826998226344585418701171875" lon="-1.31013697944581508636474609375">
        <ele>845.20001220703125</ele>
        <time>2022-05-02T13:33:12.000Z</time>
      </trkpt>
      <trkpt lat="40.9826210327446460723876953125" lon="-1.3100869394838809967041015625">
        <ele>845</ele>
        <time>2022-05-02T13:33:14.000Z</time>
      </trkpt>
      <trkpt lat="40.98253763280808925628662109375" lon="-1.31003907881677150726318359375">
        <ele>844.5999755859375</ele>
        <time>2022-05-02T13:33:16.000Z</time>
      </trkpt>
      <trkpt lat="40.98245012573897838592529296875" lon="-1.31000018678605556488037109375">
        <ele>844.79998779296875</ele>
        <time>2022-05-02T13:33:18.000Z</time>
      </trkpt>
      <trkpt lat="40.9823632054030895233154296875" lon="-1.30996339023113250732421875">
        <ele>845</ele>
        <time>2022-05-02T13:33:20.000Z</time>
      </trkpt>
      <trkpt lat="40.98227913491427898406982421875" lon="-1.3099283538758754730224609375">
        <ele>845</ele>
        <time>2022-05-02T13:33:22.000Z</time>
      </trkpt>
      <trkpt lat="40.98219917155802249908447265625" lon="-1.3098965026438236236572265625">
        <ele>845</ele>
        <time>2022-05-02T13:33:24.000Z</time>
      </trkpt>
      <trkpt lat="40.9821595251560211181640625" lon="-1.30988434888422489166259765625">
        <ele>845</ele>
        <time>2022-05-02T13:33:25.000Z</time>
      </trkpt>
      <trkpt lat="40.98211971111595630645751953125" lon="-1.309869848191738128662109375">
        <ele>845.20001220703125</ele>
        <time>2022-05-02T13:33:26.000Z</time>
      </trkpt>
      <trkpt lat="40.98204159177839756011962890625" lon="-1.3098485581576824188232421875">
        <ele>845.4000244140625</ele>
        <time>2022-05-02T13:33:28.000Z</time>
      </trkpt>
      <trkpt lat="40.9820047952234745025634765625" lon="-1.30983573384582996368408203125">
        <ele>845.4000244140625</ele>
        <time>2022-05-02T13:33:29.000Z</time>
      </trkpt>
      <trkpt lat="40.98196866922080516815185546875" lon="-1.3098260946571826934814453125">
        <ele>845.4000244140625</ele>
        <time>2022-05-02T13:33:30.000Z</time>
      </trkpt>
      <trkpt lat="40.98189624957740306854248046875" lon="-1.309806816279888153076171875">
        <ele>845.4000244140625</ele>
        <time>2022-05-02T13:33:32.000Z</time>
      </trkpt>
      <trkpt lat="40.98182165063917636871337890625" lon="-1.3097898848354816436767578125">
        <ele>845</ele>
        <time>2022-05-02T13:33:34.000Z</time>
      </trkpt>
      <trkpt lat="40.98174487240612506866455078125" lon="-1.3097751326858997344970703125">
        <ele>845</ele>
        <time>2022-05-02T13:33:36.000Z</time>
      </trkpt>
      <trkpt lat="40.98166641779243946075439453125" lon="-1.30975275300443172454833984375">
        <ele>845</ele>
        <time>2022-05-02T13:33:38.000Z</time>
      </trkpt>
      <trkpt lat="40.98163339309394359588623046875" lon="-1.30973942577838897705078125">
        <ele>845</ele>
        <time>2022-05-02T13:33:39.000Z</time>
      </trkpt>
      <trkpt lat="40.981600619852542877197265625" lon="-1.30972869694232940673828125">
        <ele>845</ele>
        <time>2022-05-02T13:33:40.000Z</time>
      </trkpt>
      <trkpt lat="40.98152593709528446197509765625" lon="-1.30971302278339862823486328125">
        <ele>845</ele>
        <time>2022-05-02T13:33:42.000Z</time>
      </trkpt>
      <trkpt lat="40.98143943585455417633056640625" lon="-1.30969240330159664154052734375">
        <ele>845</ele>
        <time>2022-05-02T13:33:44.000Z</time>
      </trkpt>
      <trkpt lat="40.98139576613903045654296875" lon="-1.30968335084617137908935546875">
        <ele>845</ele>
        <time>2022-05-02T13:33:45.000Z</time>
      </trkpt>
      <trkpt lat="40.981347821652889251708984375" lon="-1.309678070247173309326171875">
        <ele>845</ele>
        <time>2022-05-02T13:33:46.000Z</time>
      </trkpt>
      <trkpt lat="40.9812541119754314422607421875" lon="-1.309664659202098846435546875">
        <ele>845</ele>
        <time>2022-05-02T13:33:48.000Z</time>
      </trkpt>
      <trkpt lat="40.9811612404882907867431640625" lon="-1.3096540980041027069091796875">
        <ele>844.79998779296875</ele>
        <time>2022-05-02T13:33:50.000Z</time>
      </trkpt>
      <trkpt lat="40.98106987774372100830078125" lon="-1.3096366636455059051513671875">
        <ele>844.4000244140625</ele>
        <time>2022-05-02T13:33:52.000Z</time>
      </trkpt>
      <trkpt lat="40.98098010756075382232666015625" lon="-1.30962048657238483428955078125">
        <ele>844.20001220703125</ele>
        <time>2022-05-02T13:33:54.000Z</time>
      </trkpt>
      <trkpt lat="40.980895198881626129150390625" lon="-1.309603638947010040283203125">
        <ele>844</ele>
        <time>2022-05-02T13:33:56.000Z</time>
      </trkpt>
      <trkpt lat="40.98081163130700588226318359375" lon="-1.309596598148345947265625">
        <ele>843.79998779296875</ele>
        <time>2022-05-02T13:33:58.000Z</time>
      </trkpt>
      <trkpt lat="40.980731584131717681884765625" lon="-1.30959617905318737030029296875">
        <ele>843.4000244140625</ele>
        <time>2022-05-02T13:34:00.000Z</time>
      </trkpt>
      <trkpt lat="40.98069260828197002410888671875" lon="-1.30959332920610904693603515625">
        <ele>843.20001220703125</ele>
        <time>2022-05-02T13:34:01.000Z</time>
      </trkpt>
      <trkpt lat="40.98065405152738094329833984375" lon="-1.30958897061645984649658203125">
        <ele>843.20001220703125</ele>
        <time>2022-05-02T13:34:02.000Z</time>
      </trkpt>
      <trkpt lat="40.98057710565626621246337890625" lon="-1.309582851827144622802734375">
        <ele>843.4000244140625</ele>
        <time>2022-05-02T13:34:04.000Z</time>
      </trkpt>
      <trkpt lat="40.98049865104258060455322265625" lon="-1.3095793314278125762939453125">
        <ele>843.4000244140625</ele>
        <time>2022-05-02T13:34:06.000Z</time>
      </trkpt>
      <trkpt lat="40.9804155863821506500244140625" lon="-1.309574805200099945068359375">
        <ele>843</ele>
        <time>2022-05-02T13:34:08.000Z</time>
      </trkpt>
      <trkpt lat="40.980331934988498687744140625" lon="-1.30956868641078472137451171875">
        <ele>843.20001220703125</ele>
        <time>2022-05-02T13:34:10.000Z</time>
      </trkpt>
      <trkpt lat="40.9802519716322422027587890625" lon="-1.30957488901913166046142578125">
        <ele>843.5999755859375</ele>
        <time>2022-05-02T13:34:12.000Z</time>
      </trkpt>
      <trkpt lat="40.9801731817424297332763671875" lon="-1.30958025343716144561767578125">
        <ele>843.5999755859375</ele>
        <time>2022-05-02T13:34:14.000Z</time>
      </trkpt>
      <trkpt lat="40.9801342897117137908935546875" lon="-1.30957983434200286865234375">
        <ele>843.5999755859375</ele>
        <time>2022-05-02T13:34:15.000Z</time>
      </trkpt>
      <trkpt lat="40.98009497858583927154541015625" lon="-1.3095820136368274688720703125">
        <ele>843.5999755859375</ele>
        <time>2022-05-02T13:34:16.000Z</time>
      </trkpt>
      <trkpt lat="40.9800156019628047943115234375" lon="-1.30958980880677700042724609375">
        <ele>843.79998779296875</ele>
        <time>2022-05-02T13:34:18.000Z</time>
      </trkpt>
      <trkpt lat="40.97993672825396060943603515625" lon="-1.3095991127192974090576171875">
        <ele>843.79998779296875</ele>
        <time>2022-05-02T13:34:20.000Z</time>
      </trkpt>
      <trkpt lat="40.97985542379319667816162109375" lon="-1.3096158765256404876708984375">
        <ele>843.79998779296875</ele>
        <time>2022-05-02T13:34:22.000Z</time>
      </trkpt>
      <trkpt lat="40.97981368191540241241455078125" lon="-1.30962283350527286529541015625">
        <ele>844</ele>
        <time>2022-05-02T13:34:23.000Z</time>
      </trkpt>
      <trkpt lat="40.9797718562185764312744140625" lon="-1.309627778828144073486328125">
        <ele>844.20001220703125</ele>
        <time>2022-05-02T13:34:24.000Z</time>
      </trkpt>
      <trkpt lat="40.9796866960823535919189453125" lon="-1.309635825455188751220703125">
        <ele>844.4000244140625</ele>
        <time>2022-05-02T13:34:26.000Z</time>
      </trkpt>
      <trkpt lat="40.9796035476028919219970703125" lon="-1.30964797921478748321533203125">
        <ele>844.79998779296875</ele>
        <time>2022-05-02T13:34:28.000Z</time>
      </trkpt>
      <trkpt lat="40.97952065058052539825439453125" lon="-1.30966004915535449981689453125">
        <ele>845.20001220703125</ele>
        <time>2022-05-02T13:34:30.000Z</time>
      </trkpt>
      <trkpt lat="40.97943733446300029754638671875" lon="-1.30967597477138042449951171875">
        <ele>845.5999755859375</ele>
        <time>2022-05-02T13:34:32.000Z</time>
      </trkpt>
      <trkpt lat="40.9793970175087451934814453125" lon="-1.3096846081316471099853515625">
        <ele>845.79998779296875</ele>
        <time>2022-05-02T13:34:33.000Z</time>
      </trkpt>
      <trkpt lat="40.97935737110674381256103515625" lon="-1.30969223566353321075439453125">
        <ele>846</ele>
        <time>2022-05-02T13:34:34.000Z</time>
      </trkpt>
      <trkpt lat="40.97927992232143878936767578125" lon="-1.3097060658037662506103515625">
        <ele>846.20001220703125</ele>
        <time>2022-05-02T13:34:36.000Z</time>
      </trkpt>
      <trkpt lat="40.97920582629740238189697265625" lon="-1.30972308106720447540283203125">
        <ele>846.4000244140625</ele>
        <time>2022-05-02T13:34:38.000Z</time>
      </trkpt>
      <trkpt lat="40.97913072444498538970947265625" lon="-1.30974034778773784637451171875">
        <ele>846.5999755859375</ele>
        <time>2022-05-02T13:34:40.000Z</time>
      </trkpt>
      <trkpt lat="40.97905277274549007415771484375" lon="-1.309760548174381256103515625">
        <ele>846.5999755859375</ele>
        <time>2022-05-02T13:34:42.000Z</time>
      </trkpt>
      <trkpt lat="40.97897347994148731231689453125" lon="-1.3097776472568511962890625">
        <ele>847</ele>
        <time>2022-05-02T13:34:44.000Z</time>
      </trkpt>
      <trkpt lat="40.97889418713748455047607421875" lon="-1.30979977548122406005859375">
        <ele>847.4000244140625</ele>
        <time>2022-05-02T13:34:46.000Z</time>
      </trkpt>
      <trkpt lat="40.97885529510676860809326171875" lon="-1.30981494672596454620361328125">
        <ele>847.5999755859375</ele>
        <time>2022-05-02T13:34:47.000Z</time>
      </trkpt>
      <trkpt lat="40.9788163192570209503173828125" lon="-1.3098284415900707244873046875">
        <ele>847.79998779296875</ele>
        <time>2022-05-02T13:34:48.000Z</time>
      </trkpt>
      <trkpt lat="40.978738367557525634765625" lon="-1.30985400639474391937255859375">
        <ele>848</ele>
        <time>2022-05-02T13:34:50.000Z</time>
      </trkpt>
      <trkpt lat="40.9786996431648731231689453125" lon="-1.30986624397337436676025390625">
        <ele>848</ele>
        <time>2022-05-02T13:34:51.000Z</time>
      </trkpt>
      <trkpt lat="40.978660248219966888427734375" lon="-1.30988066084682941436767578125">
        <ele>848</ele>
        <time>2022-05-02T13:34:52.000Z</time>
      </trkpt>
      <trkpt lat="40.978583134710788726806640625" lon="-1.30990832112729549407958984375">
        <ele>848</ele>
        <time>2022-05-02T13:34:54.000Z</time>
      </trkpt>
      <trkpt lat="40.97850560210645198822021484375" lon="-1.309940256178379058837890625">
        <ele>848</ele>
        <time>2022-05-02T13:34:56.000Z</time>
      </trkpt>
      <trkpt lat="40.9784260578453540802001953125" lon="-1.30997386761009693145751953125">
        <ele>848.20001220703125</ele>
        <time>2022-05-02T13:34:58.000Z</time>
      </trkpt>
      <trkpt lat="40.97834877669811248779296875" lon="-1.3100058026611804962158203125">
        <ele>848.20001220703125</ele>
        <time>2022-05-02T13:35:00.000Z</time>
      </trkpt>
      <trkpt lat="40.978272669017314910888671875" lon="-1.3100336305797100067138671875">
        <ele>848.20001220703125</ele>
        <time>2022-05-02T13:35:02.000Z</time>
      </trkpt>
      <trkpt lat="40.9781984053552150726318359375" lon="-1.310066990554332733154296875">
        <ele>848.4000244140625</ele>
        <time>2022-05-02T13:35:04.000Z</time>
      </trkpt>
      <trkpt lat="40.97812615334987640380859375" lon="-1.31010152399539947509765625">
        <ele>848.4000244140625</ele>
        <time>2022-05-02T13:35:06.000Z</time>
      </trkpt>
      <trkpt lat="40.97805364988744258880615234375" lon="-1.3101365603506565093994140625">
        <ele>848.5999755859375</ele>
        <time>2022-05-02T13:35:08.000Z</time>
      </trkpt>
      <trkpt lat="40.97801752388477325439453125" lon="-1.31015575490891933441162109375">
        <ele>848.5999755859375</ele>
        <time>2022-05-02T13:35:09.000Z</time>
      </trkpt>
      <trkpt lat="40.97798039205372333526611328125" lon="-1.31017453037202358245849609375">
        <ele>848.79998779296875</ele>
        <time>2022-05-02T13:35:10.000Z</time>
      </trkpt>
      <trkpt lat="40.9779057092964649200439453125" lon="-1.31021074019372463226318359375">
        <ele>848.79998779296875</ele>
        <time>2022-05-02T13:35:12.000Z</time>
      </trkpt>
      <trkpt lat="40.9778316132724285125732421875" lon="-1.31024627946317195892333984375">
        <ele>849.20001220703125</ele>
        <time>2022-05-02T13:35:14.000Z</time>
      </trkpt>
      <trkpt lat="40.97779481671750545501708984375" lon="-1.3102649711072444915771484375">
        <ele>849.20001220703125</ele>
        <time>2022-05-02T13:35:15.000Z</time>
      </trkpt>
      <trkpt lat="40.97775894217193126678466796875" lon="-1.3102844171226024627685546875">
        <ele>849.4000244140625</ele>
        <time>2022-05-02T13:35:16.000Z</time>
      </trkpt>
      <trkpt lat="40.97768736071884632110595703125" lon="-1.31032423116266727447509765625">
        <ele>849.79998779296875</ele>
        <time>2022-05-02T13:35:18.000Z</time>
      </trkpt>
      <trkpt lat="40.97761661745607852935791015625" lon="-1.31036295555531978607177734375">
        <ele>850</ele>
        <time>2022-05-02T13:35:20.000Z</time>
      </trkpt>
      <trkpt lat="40.97758292220532894134521484375" lon="-1.31038173101842403411865234375">
        <ele>850.20001220703125</ele>
        <time>2022-05-02T13:35:21.000Z</time>
      </trkpt>
      <trkpt lat="40.97754956223070621490478515625" lon="-1.31039899773895740509033203125">
        <ele>850.20001220703125</ele>
        <time>2022-05-02T13:35:22.000Z</time>
      </trkpt>
      <trkpt lat="40.97747848369181156158447265625" lon="-1.3104369677603244781494140625">
        <ele>850.5999755859375</ele>
        <time>2022-05-02T13:35:24.000Z</time>
      </trkpt>
      <trkpt lat="40.9774058125913143157958984375" lon="-1.310474686324596405029296875">
        <ele>850.79998779296875</ele>
        <time>2022-05-02T13:35:26.000Z</time>
      </trkpt>
      <trkpt lat="40.97733682952821254730224609375" lon="-1.31052288226783275604248046875">
        <ele>851</ele>
        <time>2022-05-02T13:35:28.000Z</time>
      </trkpt>
      <trkpt lat="40.977303050458431243896484375" lon="-1.3105492852628231048583984375">
        <ele>851.20001220703125</ele>
        <time>2022-05-02T13:35:29.000Z</time>
      </trkpt>
      <trkpt lat="40.9772666729986667633056640625" lon="-1.31057401187717914581298828125">
        <ele>851.20001220703125</ele>
        <time>2022-05-02T13:35:30.000Z</time>
      </trkpt>
      <trkpt lat="40.97719249315559864044189453125" lon="-1.31062363274395465850830078125">
        <ele>851.20001220703125</ele>
        <time>2022-05-02T13:35:32.000Z</time>
      </trkpt>
      <trkpt lat="40.9771228395402431488037109375" lon="-1.31068029440939426422119140625">
        <ele>851.4000244140625</ele>
        <time>2022-05-02T13:35:34.000Z</time>
      </trkpt>
      <trkpt lat="40.977055616676807403564453125" lon="-1.31073561497032642364501953125">
        <ele>851.5999755859375</ele>
        <time>2022-05-02T13:35:36.000Z</time>
      </trkpt>
      <trkpt lat="40.97698487341403961181640625" lon="-1.31078322418034076690673828125">
        <ele>851.4000244140625</ele>
        <time>2022-05-02T13:35:38.000Z</time>
      </trkpt>
      <trkpt lat="40.97691186703741550445556640625" lon="-1.31083653308451175689697265625">
        <ele>851.4000244140625</ele>
        <time>2022-05-02T13:35:40.000Z</time>
      </trkpt>
      <trkpt lat="40.976847745478153228759765625" lon="-1.31088816560804843902587890625">
        <ele>851.5999755859375</ele>
        <time>2022-05-02T13:35:42.000Z</time>
      </trkpt>
      <trkpt lat="40.97678563557565212249755859375" lon="-1.3109281472861766815185546875">
        <ele>851.4000244140625</ele>
        <time>2022-05-02T13:35:44.000Z</time>
      </trkpt>
      <trkpt lat="40.97672059200704097747802734375" lon="-1.3109720684587955474853515625">
        <ele>851.20001220703125</ele>
        <time>2022-05-02T13:35:46.000Z</time>
      </trkpt>
      <trkpt lat="40.97669008187949657440185546875" lon="-1.31099696271121501922607421875">
        <ele>851.20001220703125</ele>
        <time>2022-05-02T13:35:47.000Z</time>
      </trkpt>
      <trkpt lat="40.97665898501873016357421875" lon="-1.31102420389652252197265625">
        <ele>851.20001220703125</ele>
        <time>2022-05-02T13:35:48.000Z</time>
      </trkpt>
      <trkpt lat="40.97659134306013584136962890625" lon="-1.3110763393342494964599609375">
        <ele>850.79998779296875</ele>
        <time>2022-05-02T13:35:50.000Z</time>
      </trkpt>
      <trkpt lat="40.97652110271155834197998046875" lon="-1.31112671457231044769287109375">
        <ele>850.20001220703125</ele>
        <time>2022-05-02T13:35:52.000Z</time>
      </trkpt>
      <trkpt lat="40.9764620102941989898681640625" lon="-1.3111661933362483978271484375">
        <ele>849.79998779296875</ele>
        <time>2022-05-02T13:35:54.000Z</time>
      </trkpt>
      <trkpt lat="40.9764170832931995391845703125" lon="-1.311205923557281494140625">
        <ele>849.4000244140625</ele>
        <time>2022-05-02T13:35:56.000Z</time>
      </trkpt>
      <trkpt lat="40.97637391649186611175537109375" lon="-1.3112394511699676513671875">
        <ele>849</ele>
        <time>2022-05-02T13:35:58.000Z</time>
      </trkpt>
      <trkpt lat="40.97634156234562397003173828125" lon="-1.311269290745258331298828125">
        <ele>848.79998779296875</ele>
        <time>2022-05-02T13:36:00.000Z</time>
      </trkpt>
      <trkpt lat="40.9763114713132381439208984375" lon="-1.311294101178646087646484375">
        <ele>848.5999755859375</ele>
        <time>2022-05-02T13:36:02.000Z</time>
      </trkpt>
      <trkpt lat="40.9762823022902011871337890625" lon="-1.31131924688816070556640625">
        <ele>848.4000244140625</ele>
        <time>2022-05-02T13:36:04.000Z</time>
      </trkpt>
      <trkpt lat="40.9762444160878658294677734375" lon="-1.311345398426055908203125">
        <ele>848</ele>
        <time>2022-05-02T13:36:06.000Z</time>
      </trkpt>
      <trkpt lat="40.976221449673175811767578125" lon="-1.31136509589850902557373046875">
        <ele>848</ele>
        <time>2022-05-02T13:36:08.000Z</time>
      </trkpt>
      <trkpt lat="40.9762028418481349945068359375" lon="-1.3113774172961711883544921875">
        <ele>848</ele>
        <time>2022-05-02T13:36:10.000Z</time>
      </trkpt>
      <trkpt lat="40.9761937893927097320556640625" lon="-1.3113871403038501739501953125">
        <ele>848</ele>
        <time>2022-05-02T13:36:11.000Z</time>
      </trkpt>
      <trkpt lat="40.97618498839437961578369140625" lon="-1.31139560602605342864990234375">
        <ele>848</ele>
        <time>2022-05-02T13:36:12.000Z</time>
      </trkpt>
      <trkpt lat="40.9761674702167510986328125" lon="-1.31141739897429943084716796875">
        <ele>848</ele>
        <time>2022-05-02T13:36:14.000Z</time>
      </trkpt>
      <trkpt lat="40.97615682519972324371337890625" lon="-1.3114287145435810089111328125">
        <ele>848</ele>
        <time>2022-05-02T13:36:16.000Z</time>
      </trkpt>
      <trkpt lat="40.9761559031903743743896484375" lon="-1.31143298931419849395751953125">
        <ele>848</ele>
        <time>2022-05-02T13:36:18.000Z</time>
      </trkpt>
      <trkpt lat="40.97614039666950702667236328125" lon="-1.3113784231245517730712890625">
        <ele>848.20001220703125</ele>
        <time>2022-05-02T13:37:00.000Z</time>
      </trkpt>
      <trkpt lat="40.976118855178356170654296875" lon="-1.3113680295646190643310546875">
        <ele>848.4000244140625</ele>
        <time>2022-05-02T13:37:01.000Z</time>
      </trkpt>
      <trkpt lat="40.9760995768010616302490234375" lon="-1.31136056967079639434814453125">
        <ele>848.4000244140625</ele>
        <time>2022-05-02T13:37:02.000Z</time>
      </trkpt>
      <trkpt lat="40.9760824777185916900634765625" lon="-1.31135704927146434783935546875">
        <ele>848.5999755859375</ele>
        <time>2022-05-02T13:37:03.000Z</time>
      </trkpt>
      <trkpt lat="40.97606479190289974212646484375" lon="-1.3113519363105297088623046875">
        <ele>848.5999755859375</ele>
        <time>2022-05-02T13:37:04.000Z</time>
      </trkpt>
      <trkpt lat="40.97604735754430294036865234375" lon="-1.31134665571153163909912109375">
        <ele>848.5999755859375</ele>
        <time>2022-05-02T13:37:05.000Z</time>
      </trkpt>
      <trkpt lat="40.97603042609989643096923828125" lon="-1.31134950555860996246337890625">
        <ele>848.79998779296875</ele>
        <time>2022-05-02T13:37:06.000Z</time>
      </trkpt>
      <trkpt lat="40.9760070405900478363037109375" lon="-1.31138227880001068115234375">
        <ele>848.5999755859375</ele>
        <time>2022-05-02T13:37:08.000Z</time>
      </trkpt>
      <trkpt lat="40.97600259818136692047119140625" lon="-1.31141337566077709197998046875">
        <ele>848.5999755859375</ele>
        <time>2022-05-02T13:37:10.000Z</time>
      </trkpt>
      <trkpt lat="40.97600293345749378204345703125" lon="-1.311434246599674224853515625">
        <ele>848.5999755859375</ele>
        <time>2022-05-02T13:37:11.000Z</time>
      </trkpt>
      <trkpt lat="40.97600779496133327484130859375" lon="-1.3114595599472522735595703125">
        <ele>848.4000244140625</ele>
        <time>2022-05-02T13:37:12.000Z</time>
      </trkpt>
      <trkpt lat="40.976008884608745574951171875" lon="-1.3115212507545948028564453125">
        <ele>848.20001220703125</ele>
        <time>2022-05-02T13:37:14.000Z</time>
      </trkpt>
      <trkpt lat="40.976005531847476959228515625" lon="-1.31155930459499359130859375">
        <ele>848</ele>
        <time>2022-05-02T13:37:16.000Z</time>
      </trkpt>
      <trkpt lat="40.9760043583810329437255859375" lon="-1.31157933734357357025146484375">
        <ele>848</ele>
        <time>2022-05-02T13:37:18.000Z</time>
      </trkpt>
      <trkpt lat="40.97600544802844524383544921875" lon="-1.3116080872714519500732421875">
        <ele>848.20001220703125</ele>
        <time>2022-05-02T13:37:20.000Z</time>
      </trkpt>
      <trkpt lat="40.97601047717034816741943359375" lon="-1.311635412275791168212890625">
        <ele>848.20001220703125</ele>
        <time>2022-05-02T13:37:22.000Z</time>
      </trkpt>
      <trkpt lat="40.976010896265506744384765625" lon="-1.31166617386043071746826171875">
        <ele>848.4000244140625</ele>
        <time>2022-05-02T13:37:24.000Z</time>
      </trkpt>
      <trkpt lat="40.9760063700377941131591796875" lon="-1.3116875477135181427001953125">
        <ele>848.4000244140625</ele>
        <time>2022-05-02T13:37:25.000Z</time>
      </trkpt>
      <trkpt lat="40.9760036878287792205810546875" lon="-1.31170238368213176727294921875">
        <ele>848.4000244140625</ele>
        <time>2022-05-02T13:37:26.000Z</time>
      </trkpt>
      <trkpt lat="40.9759872592985630035400390625" lon="-1.311742365360260009765625">
        <ele>848.5999755859375</ele>
        <time>2022-05-02T13:37:28.000Z</time>
      </trkpt>
      <trkpt lat="40.97597711719572544097900390625" lon="-1.31178955547511577606201171875">
        <ele>848.5999755859375</ele>
        <time>2022-05-02T13:37:30.000Z</time>
      </trkpt>
      <trkpt lat="40.97597544081509113311767578125" lon="-1.31182023324072360992431640625">
        <ele>848.79998779296875</ele>
        <time>2022-05-02T13:37:31.000Z</time>
      </trkpt>
      <trkpt lat="40.975969992578029632568359375" lon="-1.31185241974890232086181640625">
        <ele>848.79998779296875</ele>
        <time>2022-05-02T13:37:32.000Z</time>
      </trkpt>
      <trkpt lat="40.97595130093395709991455078125" lon="-1.31191679276525974273681640625">
        <ele>849</ele>
        <time>2022-05-02T13:37:34.000Z</time>
      </trkpt>
      <trkpt lat="40.97594283521175384521484375" lon="-1.31195182912051677703857421875">
        <ele>849.20001220703125</ele>
        <time>2022-05-02T13:37:35.000Z</time>
      </trkpt>
      <trkpt lat="40.97593135200440883636474609375" lon="-1.311990134418010711669921875">
        <ele>849.20001220703125</ele>
        <time>2022-05-02T13:37:36.000Z</time>
      </trkpt>
      <trkpt lat="40.97590318880975246429443359375" lon="-1.312063895165920257568359375">
        <ele>849.4000244140625</ele>
        <time>2022-05-02T13:37:38.000Z</time>
      </trkpt>
      <trkpt lat="40.9758858382701873779296875" lon="-1.31210002116858959197998046875">
        <ele>849.4000244140625</ele>
        <time>2022-05-02T13:37:39.000Z</time>
      </trkpt>
      <trkpt lat="40.9758665598928928375244140625" lon="-1.31213329732418060302734375">
        <ele>849.5999755859375</ele>
        <time>2022-05-02T13:37:40.000Z</time>
      </trkpt>
      <trkpt lat="40.9758383966982364654541015625" lon="-1.3121958263218402862548828125">
        <ele>849.5999755859375</ele>
        <time>2022-05-02T13:37:42.000Z</time>
      </trkpt>
      <trkpt lat="40.97581811249256134033203125" lon="-1.3122487999498844146728515625">
        <ele>849.79998779296875</ele>
        <time>2022-05-02T13:37:44.000Z</time>
      </trkpt>
      <trkpt lat="40.9757810644805431365966796875" lon="-1.31229984574019908905029296875">
        <ele>849.79998779296875</ele>
        <time>2022-05-02T13:37:46.000Z</time>
      </trkpt>
      <trkpt lat="40.9757351316511631011962890625" lon="-1.312360279262065887451171875">
        <ele>849.79998779296875</ele>
        <time>2022-05-02T13:37:48.000Z</time>
      </trkpt>
      <trkpt lat="40.97571476362645626068115234375" lon="-1.31238919682800769805908203125">
        <ele>849.79998779296875</ele>
        <time>2022-05-02T13:37:49.000Z</time>
      </trkpt>
      <trkpt lat="40.975691713392734527587890625" lon="-1.31241870112717151641845703125">
        <ele>850</ele>
        <time>2022-05-02T13:37:50.000Z</time>
      </trkpt>
      <trkpt lat="40.97563345916569232940673828125" lon="-1.31249497644603252410888671875">
        <ele>850</ele>
        <time>2022-05-02T13:37:52.000Z</time>
      </trkpt>
      <trkpt lat="40.97560043446719646453857421875" lon="-1.3125376403331756591796875">
        <ele>850</ele>
        <time>2022-05-02T13:37:53.000Z</time>
      </trkpt>
      <trkpt lat="40.97557076252996921539306640625" lon="-1.312587261199951171875">
        <ele>850</ele>
        <time>2022-05-02T13:37:54.000Z</time>
      </trkpt>
      <trkpt lat="40.9755131788551807403564453125" lon="-1.31269144825637340545654296875">
        <ele>850.20001220703125</ele>
        <time>2022-05-02T13:37:56.000Z</time>
      </trkpt>
      <trkpt lat="40.975453667342662811279296875" lon="-1.31279722787439823150634765625">
        <ele>850.20001220703125</ele>
        <time>2022-05-02T13:37:58.000Z</time>
      </trkpt>
      <trkpt lat="40.9754239954054355621337890625" lon="-1.31285238079726696014404296875">
        <ele>850</ele>
        <time>2022-05-02T13:37:59.000Z</time>
      </trkpt>
      <trkpt lat="40.97539323382079601287841796875" lon="-1.3129109703004360198974609375">
        <ele>850</ele>
        <time>2022-05-02T13:38:00.000Z</time>
      </trkpt>
      <trkpt lat="40.97533187828958034515380859375" lon="-1.3130145706236362457275390625">
        <ele>850</ele>
        <time>2022-05-02T13:38:02.000Z</time>
      </trkpt>
      <trkpt lat="40.97527094185352325439453125" lon="-1.31311473436653614044189453125">
        <ele>849.5999755859375</ele>
        <time>2022-05-02T13:38:04.000Z</time>
      </trkpt>
      <trkpt lat="40.97524277865886688232421875" lon="-1.31315966136753559112548828125">
        <ele>849.4000244140625</ele>
        <time>2022-05-02T13:38:05.000Z</time>
      </trkpt>
      <trkpt lat="40.97521285526454448699951171875" lon="-1.3132009841501712799072265625">
        <ele>849.20001220703125</ele>
        <time>2022-05-02T13:38:06.000Z</time>
      </trkpt>
      <trkpt lat="40.9751497395336627960205078125" lon="-1.31328237242996692657470703125">
        <ele>849.20001220703125</ele>
        <time>2022-05-02T13:38:08.000Z</time>
      </trkpt>
      <trkpt lat="40.97508746199309825897216796875" lon="-1.313364766538143157958984375">
        <ele>848.5999755859375</ele>
        <time>2022-05-02T13:38:10.000Z</time>
      </trkpt>
      <trkpt lat="40.97505443729460239410400390625" lon="-1.3134101964533329010009765625">
        <ele>848.4000244140625</ele>
        <time>2022-05-02T13:38:11.000Z</time>
      </trkpt>
      <trkpt lat="40.97502292133867740631103515625" lon="-1.3134584762156009674072265625">
        <ele>848.20001220703125</ele>
        <time>2022-05-02T13:38:12.000Z</time>
      </trkpt>
      <trkpt lat="40.9749629907310009002685546875" lon="-1.3135523535311222076416015625">
        <ele>847.79998779296875</ele>
        <time>2022-05-02T13:38:14.000Z</time>
      </trkpt>
      <trkpt lat="40.9749036468565464019775390625" lon="-1.3136489130556583404541015625">
        <ele>847</ele>
        <time>2022-05-02T13:38:16.000Z</time>
      </trkpt>
      <trkpt lat="40.9748486615717411041259765625" lon="-1.313751004636287689208984375">
        <ele>846.4000244140625</ele>
        <time>2022-05-02T13:38:18.000Z</time>
      </trkpt>
      <trkpt lat="40.97479619085788726806640625" lon="-1.3138567842543125152587890625">
        <ele>846.5999755859375</ele>
        <time>2022-05-02T13:38:20.000Z</time>
      </trkpt>
      <trkpt lat="40.9747497551143169403076171875" lon="-1.3139672577381134033203125">
        <ele>846.79998779296875</ele>
        <time>2022-05-02T13:38:22.000Z</time>
      </trkpt>
      <trkpt lat="40.97470365464687347412109375" lon="-1.3140824250876903533935546875">
        <ele>847.4000244140625</ele>
        <time>2022-05-02T13:38:24.000Z</time>
      </trkpt>
      <trkpt lat="40.97466099075973033905029296875" lon="-1.31419700570404529571533203125">
        <ele>847.5999755859375</ele>
        <time>2022-05-02T13:38:26.000Z</time>
      </trkpt>
      <trkpt lat="40.97462595440447330474853515625" lon="-1.31430228240787982940673828125">
        <ele>847.79998779296875</ele>
        <time>2022-05-02T13:38:28.000Z</time>
      </trkpt>
      <trkpt lat="40.9745884872972965240478515625" lon="-1.314411498606204986572265625">
        <ele>848.20001220703125</ele>
        <time>2022-05-02T13:38:30.000Z</time>
      </trkpt>
      <trkpt lat="40.97457046620547771453857421875" lon="-1.31447486579418182373046875">
        <ele>848.4000244140625</ele>
        <time>2022-05-02T13:38:31.000Z</time>
      </trkpt>
      <trkpt lat="40.9745536185801029205322265625" lon="-1.31454066373407840728759765625">
        <ele>848.5999755859375</ele>
        <time>2022-05-02T13:38:32.000Z</time>
      </trkpt>
      <trkpt lat="40.97451112233102321624755859375" lon="-1.31466672755777835845947265625">
        <ele>849.4000244140625</ele>
        <time>2022-05-02T13:38:34.000Z</time>
      </trkpt>
      <trkpt lat="40.9744677878916263580322265625" lon="-1.314795054495334625244140625">
        <ele>849.4000244140625</ele>
        <time>2022-05-02T13:38:36.000Z</time>
      </trkpt>
      <trkpt lat="40.9744456596672534942626953125" lon="-1.314854063093662261962890625">
        <ele>849.4000244140625</ele>
        <time>2022-05-02T13:38:37.000Z</time>
      </trkpt>
      <trkpt lat="40.974423699080944061279296875" lon="-1.31491198204457759857177734375">
        <ele>849.5999755859375</ele>
        <time>2022-05-02T13:38:38.000Z</time>
      </trkpt>
      <trkpt lat="40.9743883274495601654052734375" lon="-1.3150228746235370635986328125">
        <ele>849.20001220703125</ele>
        <time>2022-05-02T13:38:40.000Z</time>
      </trkpt>
      <trkpt lat="40.9743447415530681610107421875" lon="-1.31511465646326541900634765625">
        <ele>848.5999755859375</ele>
        <time>2022-05-02T13:38:42.000Z</time>
      </trkpt>
      <trkpt lat="40.9743055142462253570556640625" lon="-1.315207444131374359130859375">
        <ele>848.20001220703125</ele>
        <time>2022-05-02T13:38:44.000Z</time>
      </trkpt>
      <trkpt lat="40.9742877446115016937255859375" lon="-1.31525270640850067138671875">
        <ele>848</ele>
        <time>2022-05-02T13:38:45.000Z</time>
      </trkpt>
      <trkpt lat="40.97427106462419033050537109375" lon="-1.315295286476612091064453125">
        <ele>848</ele>
        <time>2022-05-02T13:38:46.000Z</time>
      </trkpt>
      <trkpt lat="40.9742394648492336273193359375" lon="-1.315375082194805145263671875">
        <ele>848.20001220703125</ele>
        <time>2022-05-02T13:38:48.000Z</time>
      </trkpt>
      <trkpt lat="40.9742237068712711334228515625" lon="-1.3154094479978084564208984375">
        <ele>848.20001220703125</ele>
        <time>2022-05-02T13:38:49.000Z</time>
      </trkpt>
      <trkpt lat="40.9742123074829578399658203125" lon="-1.31543400697410106658935546875">
        <ele>848.4000244140625</ele>
        <time>2022-05-02T13:38:50.000Z</time>
      </trkpt>
      <trkpt lat="40.97420216538012027740478515625" lon="-1.31545923650264739990234375">
        <ele>848.4000244140625</ele>
        <time>2022-05-02T13:38:52.000Z</time>
      </trkpt>
      <trkpt lat="40.9742022491991519927978515625" lon="-1.31545864976942539215087890625">
        <ele>848.4000244140625</ele>
        <time>2022-05-02T13:38:53.000Z</time>
      </trkpt>
      <trkpt lat="40.97418422810733318328857421875" lon="-1.315491758286952972412109375">
        <ele>848.4000244140625</ele>
        <time>2022-05-02T13:38:58.000Z</time>
      </trkpt>
      <trkpt lat="40.97415941767394542694091796875" lon="-1.31555386818945407867431640625">
        <ele>848.5999755859375</ele>
        <time>2022-05-02T13:39:00.000Z</time>
      </trkpt>
      <trkpt lat="40.97412974573671817779541015625" lon="-1.3156273774802684783935546875">
        <ele>849</ele>
        <time>2022-05-02T13:39:02.000Z</time>
      </trkpt>
      <trkpt lat="40.97410426475107669830322265625" lon="-1.31570331752300262451171875">
        <ele>849.4000244140625</ele>
        <time>2022-05-02T13:39:04.000Z</time>
      </trkpt>
      <trkpt lat="40.97408540546894073486328125" lon="-1.31578135304152965545654296875">
        <ele>850</ele>
        <time>2022-05-02T13:39:06.000Z</time>
      </trkpt>
      <trkpt lat="40.9740657918155193328857421875" lon="-1.31587623618543148040771484375">
        <ele>850.5999755859375</ele>
        <time>2022-05-02T13:39:08.000Z</time>
      </trkpt>
      <trkpt lat="40.97404944710433483123779296875" lon="-1.3159713707864284515380859375">
        <ele>851.4000244140625</ele>
        <time>2022-05-02T13:39:10.000Z</time>
      </trkpt>
      <trkpt lat="40.9740446694195270538330078125" lon="-1.316012106835842132568359375">
        <ele>851.5999755859375</ele>
        <time>2022-05-02T13:39:11.000Z</time>
      </trkpt>
      <trkpt lat="40.9740389697253704071044921875" lon="-1.31605041213333606719970703125">
        <ele>852</ele>
        <time>2022-05-02T13:39:12.000Z</time>
      </trkpt>
      <trkpt lat="40.97402765415608882904052734375" lon="-1.31613054312765598297119140625">
        <ele>852.20001220703125</ele>
        <time>2022-05-02T13:39:14.000Z</time>
      </trkpt>
      <trkpt lat="40.9740121476352214813232421875" lon="-1.31621737964451313018798828125">
        <ele>852.5999755859375</ele>
        <time>2022-05-02T13:39:16.000Z</time>
      </trkpt>
      <trkpt lat="40.97399798221886157989501953125" lon="-1.31626188755035400390625">
        <ele>852.5999755859375</ele>
        <time>2022-05-02T13:39:17.000Z</time>
      </trkpt>
      <trkpt lat="40.97397937439382076263427734375" lon="-1.31630354560911655426025390625">
        <ele>852.79998779296875</ele>
        <time>2022-05-02T13:39:18.000Z</time>
      </trkpt>
      <trkpt lat="40.9739380516111850738525390625" lon="-1.3163619674742221832275390625">
        <ele>853</ele>
        <time>2022-05-02T13:39:20.000Z</time>
      </trkpt>
      <trkpt lat="40.9738887660205364227294921875" lon="-1.31640882231295108795166015625">
        <ele>853.5999755859375</ele>
        <time>2022-05-02T13:39:22.000Z</time>
      </trkpt>
      <trkpt lat="40.973829589784145355224609375" lon="-1.31646514870226383209228515625">
        <ele>854.20001220703125</ele>
        <time>2022-05-02T13:39:24.000Z</time>
      </trkpt>
      <trkpt lat="40.97377519123256206512451171875" lon="-1.3165195472538471221923828125">
        <ele>854.79998779296875</ele>
        <time>2022-05-02T13:39:26.000Z</time>
      </trkpt>
      <trkpt lat="40.97370746545493602752685546875" lon="-1.3165540806949138641357421875">
        <ele>855</ele>
        <time>2022-05-02T13:39:28.000Z</time>
      </trkpt>
      <trkpt lat="40.973631441593170166015625" lon="-1.3165772147476673126220703125">
        <ele>855</ele>
        <time>2022-05-02T13:39:30.000Z</time>
      </trkpt>
      <trkpt lat="40.9735890291631221771240234375" lon="-1.31659607402980327606201171875">
        <ele>855.20001220703125</ele>
        <time>2022-05-02T13:39:31.000Z</time>
      </trkpt>
      <trkpt lat="40.97354686819016933441162109375" lon="-1.316618286073207855224609375">
        <ele>855.4000244140625</ele>
        <time>2022-05-02T13:39:32.000Z</time>
      </trkpt>
      <trkpt lat="40.97350604832172393798828125" lon="-1.31664485670626163482666015625">
        <ele>855.4000244140625</ele>
        <time>2022-05-02T13:39:33.000Z</time>
      </trkpt>
      <trkpt lat="40.973470173776149749755859375" lon="-1.31667025387287139892578125">
        <ele>855.5999755859375</ele>
        <time>2022-05-02T13:39:34.000Z</time>
      </trkpt>
      <trkpt lat="40.9733969159424304962158203125" lon="-1.31670855917036533355712890625">
        <ele>855.20001220703125</ele>
        <time>2022-05-02T13:39:36.000Z</time>
      </trkpt>
      <trkpt lat="40.9733590297400951385498046875" lon="-1.31672716699540615081787109375">
        <ele>855</ele>
        <time>2022-05-02T13:39:37.000Z</time>
      </trkpt>
      <trkpt lat="40.97332424484193325042724609375" lon="-1.31674024276435375213623046875">
        <ele>854.79998779296875</ele>
        <time>2022-05-02T13:39:38.000Z</time>
      </trkpt>
      <trkpt lat="40.9732617996633052825927734375" lon="-1.316771842539310455322265625">
        <ele>854.4000244140625</ele>
        <time>2022-05-02T13:39:40.000Z</time>
      </trkpt>
      <trkpt lat="40.973212681710720062255859375" lon="-1.316802017390727996826171875">
        <ele>854.20001220703125</ele>
        <time>2022-05-02T13:39:42.000Z</time>
      </trkpt>
      <trkpt lat="40.973198600113391876220703125" lon="-1.31681702099740505218505859375">
        <ele>854.20001220703125</ele>
        <time>2022-05-02T13:39:43.000Z</time>
      </trkpt>
      <trkpt lat="40.97318443469703197479248046875" lon="-1.316831521689891815185546875">
        <ele>854.4000244140625</ele>
        <time>2022-05-02T13:39:44.000Z</time>
      </trkpt>
      <trkpt lat="40.97315543331205844879150390625" lon="-1.31687284447252750396728515625">
        <ele>854.5999755859375</ele>
        <time>2022-05-02T13:39:46.000Z</time>
      </trkpt>
      <trkpt lat="40.9731283597648143768310546875" lon="-1.3169416598975658416748046875">
        <ele>855</ele>
        <time>2022-05-02T13:39:48.000Z</time>
      </trkpt>
      <trkpt lat="40.9731105901300907135009765625" lon="-1.317004524171352386474609375">
        <ele>855.20001220703125</ele>
        <time>2022-05-02T13:39:50.000Z</time>
      </trkpt>
      <trkpt lat="40.9730829298496246337890625" lon="-1.3170724175870418548583984375">
        <ele>855.5999755859375</ele>
        <time>2022-05-02T13:39:52.000Z</time>
      </trkpt>
      <trkpt lat="40.9730653278529644012451171875" lon="-1.31711139343678951263427734375">
        <ele>855.5999755859375</ele>
        <time>2022-05-02T13:39:53.000Z</time>
      </trkpt>
      <trkpt lat="40.9730346500873565673828125" lon="-1.31714492104947566986083984375">
        <ele>855.79998779296875</ele>
        <time>2022-05-02T13:39:54.000Z</time>
      </trkpt>
      <trkpt lat="40.97296466119587421417236328125" lon="-1.3171679712831974029541015625">
        <ele>855.4000244140625</ele>
        <time>2022-05-02T13:39:56.000Z</time>
      </trkpt>
      <trkpt lat="40.9728777408599853515625" lon="-1.31715363822877407073974609375">
        <ele>855.20001220703125</ele>
        <time>2022-05-02T13:39:58.000Z</time>
      </trkpt>
      <trkpt lat="40.972826443612575531005859375" lon="-1.31713788025081157684326171875">
        <ele>855.5999755859375</ele>
        <time>2022-05-02T13:39:59.000Z</time>
      </trkpt>
      <trkpt lat="40.97278042696416378021240234375" lon="-1.31711021997034549713134765625">
        <ele>856</ele>
        <time>2022-05-02T13:40:00.000Z</time>
      </trkpt>
      <trkpt lat="40.97274069674313068389892578125" lon="-1.317074261605739593505859375">
        <ele>856.20001220703125</ele>
        <time>2022-05-02T13:40:01.000Z</time>
      </trkpt>
      <trkpt lat="40.97270314581692218780517578125" lon="-1.31703830324113368988037109375">
        <ele>856</ele>
        <time>2022-05-02T13:40:02.000Z</time>
      </trkpt>
      <trkpt lat="40.97266643308103084564208984375" lon="-1.31700645200908184051513671875">
        <ele>856</ele>
        <time>2022-05-02T13:40:03.000Z</time>
      </trkpt>
      <trkpt lat="40.97263491712510585784912109375" lon="-1.3169738464057445526123046875">
        <ele>855.79998779296875</ele>
        <time>2022-05-02T13:40:04.000Z</time>
      </trkpt>
      <trkpt lat="40.97260507754981517791748046875" lon="-1.31694115698337554931640625">
        <ele>855.79998779296875</ele>
        <time>2022-05-02T13:40:05.000Z</time>
      </trkpt>
      <trkpt lat="40.97257574088871479034423828125" lon="-1.31691140122711658477783203125">
        <ele>855.79998779296875</ele>
        <time>2022-05-02T13:40:06.000Z</time>
      </trkpt>
      <trkpt lat="40.97252528183162212371826171875" lon="-1.31684803403913974761962890625">
        <ele>855.4000244140625</ele>
        <time>2022-05-02T13:40:08.000Z</time>
      </trkpt>
      <trkpt lat="40.972484461963176727294921875" lon="-1.31676957942545413970947265625">
        <ele>855.20001220703125</ele>
        <time>2022-05-02T13:40:10.000Z</time>
      </trkpt>
      <trkpt lat="40.9724443964660167694091796875" lon="-1.31667830049991607666015625">
        <ele>854</ele>
        <time>2022-05-02T13:40:12.000Z</time>
      </trkpt>
      <trkpt lat="40.97240860573947429656982421875" lon="-1.31657905876636505126953125">
        <ele>852.79998779296875</ele>
        <time>2022-05-02T13:40:14.000Z</time>
      </trkpt>
      <trkpt lat="40.9723756648600101470947265625" lon="-1.31647721864283084869384765625">
        <ele>852.5999755859375</ele>
        <time>2022-05-02T13:40:16.000Z</time>
      </trkpt>
      <trkpt lat="40.9723434783518314361572265625" lon="-1.31637789309024810791015625">
        <ele>852.20001220703125</ele>
        <time>2022-05-02T13:40:18.000Z</time>
      </trkpt>
      <trkpt lat="40.972317494451999664306640625" lon="-1.31628091447055339813232421875">
        <ele>851.79998779296875</ele>
        <time>2022-05-02T13:40:20.000Z</time>
      </trkpt>
      <trkpt lat="40.97230299375951290130615234375" lon="-1.3162325508892536163330078125">
        <ele>851.79998779296875</ele>
        <time>2022-05-02T13:40:21.000Z</time>
      </trkpt>
      <trkpt lat="40.97228857688605785369873046875" lon="-1.31618485786020755767822265625">
        <ele>851.79998779296875</ele>
        <time>2022-05-02T13:40:22.000Z</time>
      </trkpt>
      <trkpt lat="40.97227281890809535980224609375" lon="-1.3161385059356689453125">
        <ele>851.79998779296875</ele>
        <time>2022-05-02T13:40:23.000Z</time>
      </trkpt>
      <trkpt lat="40.972255133092403411865234375" lon="-1.3160947524011135101318359375">
        <ele>851.79998779296875</ele>
        <time>2022-05-02T13:40:24.000Z</time>
      </trkpt>
      <trkpt lat="40.9722211025655269622802734375" lon="-1.31601118482649326324462890625">
        <ele>852.20001220703125</ele>
        <time>2022-05-02T13:40:26.000Z</time>
      </trkpt>
      <trkpt lat="40.97218095324933528900146484375" lon="-1.315922923386096954345703125">
        <ele>852.4000244140625</ele>
        <time>2022-05-02T13:40:28.000Z</time>
      </trkpt>
      <trkpt lat="40.97213233821094036102294921875" lon="-1.31584086455404758453369140625">
        <ele>852.20001220703125</ele>
        <time>2022-05-02T13:40:30.000Z</time>
      </trkpt>
      <trkpt lat="40.97207349725067615509033203125" lon="-1.31576576270163059234619140625">
        <ele>852</ele>
        <time>2022-05-02T13:40:32.000Z</time>
      </trkpt>
      <trkpt lat="40.9720038436353206634521484375" lon="-1.31570474244654178619384765625">
        <ele>852.20001220703125</ele>
        <time>2022-05-02T13:40:34.000Z</time>
      </trkpt>
      <trkpt lat="40.97193268127739429473876953125" lon="-1.31565294228494167327880859375">
        <ele>852.4000244140625</ele>
        <time>2022-05-02T13:40:36.000Z</time>
      </trkpt>
      <trkpt lat="40.97189697436988353729248046875" lon="-1.31562687456607818603515625">
        <ele>852.4000244140625</ele>
        <time>2022-05-02T13:40:37.000Z</time>
      </trkpt>
      <trkpt lat="40.97186428494751453399658203125" lon="-1.3155965320765972137451171875">
        <ele>852.20001220703125</ele>
        <time>2022-05-02T13:40:38.000Z</time>
      </trkpt>
      <trkpt lat="40.971832014620304107666015625" lon="-1.31556694395840167999267578125">
        <ele>852.20001220703125</ele>
        <time>2022-05-02T13:40:39.000Z</time>
      </trkpt>
      <trkpt lat="40.971797145903110504150390625" lon="-1.31553878076374530792236328125">
        <ele>852</ele>
        <time>2022-05-02T13:40:40.000Z</time>
      </trkpt>
      <trkpt lat="40.971716009080410003662109375" lon="-1.3154909200966358184814453125">
        <ele>852</ele>
        <time>2022-05-02T13:40:42.000Z</time>
      </trkpt>
      <trkpt lat="40.9716350398957729339599609375" lon="-1.31547776050865650177001953125">
        <ele>852</ele>
        <time>2022-05-02T13:40:44.000Z</time>
      </trkpt>
      <trkpt lat="40.971593968570232391357421875" lon="-1.315473653376102447509765625">
        <ele>852.20001220703125</ele>
        <time>2022-05-02T13:40:45.000Z</time>
      </trkpt>
      <trkpt lat="40.97155180759727954864501953125" lon="-1.315464936196804046630859375">
        <ele>852.20001220703125</ele>
        <time>2022-05-02T13:40:46.000Z</time>
      </trkpt>
      <trkpt lat="40.97146832384169101715087890625" lon="-1.3154453225433826446533203125">
        <ele>852.5999755859375</ele>
        <time>2022-05-02T13:40:48.000Z</time>
      </trkpt>
      <trkpt lat="40.971386767923831939697265625" lon="-1.3154252059757709503173828125">
        <ele>853.20001220703125</ele>
        <time>2022-05-02T13:40:50.000Z</time>
      </trkpt>
      <trkpt lat="40.9713446907699108123779296875" lon="-1.3154144771397113800048828125">
        <ele>853.5999755859375</ele>
        <time>2022-05-02T13:40:51.000Z</time>
      </trkpt>
      <trkpt lat="40.97130152396857738494873046875" lon="-1.31540249101817607879638671875">
        <ele>853.5999755859375</ele>
        <time>2022-05-02T13:40:52.000Z</time>
      </trkpt>
      <trkpt lat="40.97121334634721279144287109375" lon="-1.315369047224521636962890625">
        <ele>854</ele>
        <time>2022-05-02T13:40:54.000Z</time>
      </trkpt>
      <trkpt lat="40.97112433053553104400634765625" lon="-1.3153447397053241729736328125">
        <ele>855.20001220703125</ele>
        <time>2022-05-02T13:40:56.000Z</time>
      </trkpt>
      <trkpt lat="40.9710399247705936431884765625" lon="-1.31532437168061733245849609375">
        <ele>855.5999755859375</ele>
        <time>2022-05-02T13:40:58.000Z</time>
      </trkpt>
      <trkpt lat="40.9709591232240200042724609375" lon="-1.31530123762786388397216796875">
        <ele>855.79998779296875</ele>
        <time>2022-05-02T13:41:00.000Z</time>
      </trkpt>
      <trkpt lat="40.97087807022035121917724609375" lon="-1.31526553072035312652587890625">
        <ele>856.4000244140625</ele>
        <time>2022-05-02T13:41:02.000Z</time>
      </trkpt>
      <trkpt lat="40.97079626284539699554443359375" lon="-1.31522990763187408447265625">
        <ele>856.79998779296875</ele>
        <time>2022-05-02T13:41:04.000Z</time>
      </trkpt>
      <trkpt lat="40.97071579657495021820068359375" lon="-1.31519461981952190399169921875">
        <ele>857.5999755859375</ele>
        <time>2022-05-02T13:41:06.000Z</time>
      </trkpt>
      <trkpt lat="40.97064144909381866455078125" lon="-1.31516017019748687744140625">
        <ele>857.5999755859375</ele>
        <time>2022-05-02T13:41:08.000Z</time>
      </trkpt>
      <trkpt lat="40.97057732753455638885498046875" lon="-1.3151331804692745208740234375">
        <ele>857.79998779296875</ele>
        <time>2022-05-02T13:41:10.000Z</time>
      </trkpt>
      <trkpt lat="40.9705467335879802703857421875" lon="-1.31512119434773921966552734375">
        <ele>857.79998779296875</ele>
        <time>2022-05-02T13:41:11.000Z</time>
      </trkpt>
      <trkpt lat="40.97051312215626239776611328125" lon="-1.31511113606393337249755859375">
        <ele>857.79998779296875</ele>
        <time>2022-05-02T13:41:12.000Z</time>
      </trkpt>
      <trkpt lat="40.97044204361736774444580078125" lon="-1.31508749909698963165283203125">
        <ele>857.79998779296875</ele>
        <time>2022-05-02T13:41:14.000Z</time>
      </trkpt>
      <trkpt lat="40.97038303501904010772705078125" lon="-1.31507375277578830718994140625">
        <ele>858</ele>
        <time>2022-05-02T13:41:16.000Z</time>
      </trkpt>
      <trkpt lat="40.97033324651420116424560546875" lon="-1.31507442332804203033447265625">
        <ele>858</ele>
        <time>2022-05-02T13:41:18.000Z</time>
      </trkpt>
      <trkpt lat="40.97027926705777645111083984375" lon="-1.31505413912236690521240234375">
        <ele>857.79998779296875</ele>
        <time>2022-05-02T13:41:20.000Z</time>
      </trkpt>
      <trkpt lat="40.97025009803473949432373046875" lon="-1.31504039280116558074951171875">
        <ele>857.5999755859375</ele>
        <time>2022-05-02T13:41:21.000Z</time>
      </trkpt>
      <trkpt lat="40.97021791152656078338623046875" lon="-1.3150285743176937103271484375">
        <ele>857.5999755859375</ele>
        <time>2022-05-02T13:41:22.000Z</time>
      </trkpt>
      <trkpt lat="40.9701437316834926605224609375" lon="-1.31501005031168460845947265625">
        <ele>857.4000244140625</ele>
        <time>2022-05-02T13:41:24.000Z</time>
      </trkpt>
      <trkpt lat="40.9700726531445980072021484375" lon="-1.3149811327457427978515625">
        <ele>857.20001220703125</ele>
        <time>2022-05-02T13:41:26.000Z</time>
      </trkpt>
      <trkpt lat="40.97000802867114543914794921875" lon="-1.31495975889265537261962890625">
        <ele>857</ele>
        <time>2022-05-02T13:41:28.000Z</time>
      </trkpt>
      <trkpt lat="40.969949774444103240966796875" lon="-1.31495204754173755645751953125">
        <ele>857</ele>
        <time>2022-05-02T13:41:30.000Z</time>
      </trkpt>
      <trkpt lat="40.96992471255362033843994140625" lon="-1.314945258200168609619140625">
        <ele>857</ele>
        <time>2022-05-02T13:41:31.000Z</time>
      </trkpt>
      <trkpt lat="40.9699033387005329132080078125" lon="-1.31493595428764820098876953125">
        <ele>857</ele>
        <time>2022-05-02T13:41:32.000Z</time>
      </trkpt>
      <trkpt lat="40.96987291239202022552490234375" lon="-1.3149216212332248687744140625">
        <ele>856.79998779296875</ele>
        <time>2022-05-02T13:41:34.000Z</time>
      </trkpt>
      <trkpt lat="40.9698517061769962310791015625" lon="-1.31491533480584621429443359375">
        <ele>856.79998779296875</ele>
        <time>2022-05-02T13:41:36.000Z</time>
      </trkpt>
      <trkpt lat="40.96985329873859882354736328125" lon="-1.31491147913038730621337890625">
        <ele>856.79998779296875</ele>
        <time>2022-05-02T13:41:38.000Z</time>
      </trkpt>
      <trkpt lat="40.9698000736534595489501953125" lon="-1.314974762499332427978515625">
        <ele>857</ele>
        <time>2022-05-02T13:41:49.000Z</time>
      </trkpt>
      <trkpt lat="40.969789512455463409423828125" lon="-1.31498758681118488311767578125">
        <ele>857</ele>
        <time>2022-05-02T13:41:50.000Z</time>
      </trkpt>
      <trkpt lat="40.969749279320240020751953125" lon="-1.31501373834908008575439453125">
        <ele>857</ele>
        <time>2022-05-02T13:41:52.000Z</time>
      </trkpt>
      <trkpt lat="40.96972622908651828765869140625" lon="-1.31501709111034870147705078125">
        <ele>857</ele>
        <time>2022-05-02T13:41:53.000Z</time>
      </trkpt>
      <trkpt lat="40.96969990991055965423583984375" lon="-1.31501759402453899383544921875">
        <ele>857</ele>
        <time>2022-05-02T13:41:54.000Z</time>
      </trkpt>
      <trkpt lat="40.96967007033526897430419921875" lon="-1.3150181807577610015869140625">
        <ele>857</ele>
        <time>2022-05-02T13:41:55.000Z</time>
      </trkpt>
      <trkpt lat="40.9696414880454540252685546875" lon="-1.31501742638647556304931640625">
        <ele>857</ele>
        <time>2022-05-02T13:41:56.000Z</time>
      </trkpt>
      <trkpt lat="40.96956948749721050262451171875" lon="-1.31501038558781147003173828125">
        <ele>857</ele>
        <time>2022-05-02T13:41:58.000Z</time>
      </trkpt>
      <trkpt lat="40.96947795711457729339599609375" lon="-1.31500703282654285430908203125">
        <ele>856.5999755859375</ele>
        <time>2022-05-02T13:42:00.000Z</time>
      </trkpt>
      <trkpt lat="40.96937854774296283721923828125" lon="-1.31500661373138427734375">
        <ele>856.20001220703125</ele>
        <time>2022-05-02T13:42:02.000Z</time>
      </trkpt>
      <trkpt lat="40.9693278372287750244140625" lon="-1.31499789655208587646484375">
        <ele>856.20001220703125</ele>
        <time>2022-05-02T13:42:03.000Z</time>
      </trkpt>
      <trkpt lat="40.96927645616233348846435546875" lon="-1.31498557515442371368408203125">
        <ele>856</ele>
        <time>2022-05-02T13:42:04.000Z</time>
      </trkpt>
      <trkpt lat="40.96918341703712940216064453125" lon="-1.31496311165392398834228515625">
        <ele>855.5999755859375</ele>
        <time>2022-05-02T13:42:06.000Z</time>
      </trkpt>
      <trkpt lat="40.9690998494625091552734375" lon="-1.314950287342071533203125">
        <ele>855.20001220703125</ele>
        <time>2022-05-02T13:42:08.000Z</time>
      </trkpt>
      <trkpt lat="40.96905919723212718963623046875" lon="-1.31494827568531036376953125">
        <ele>855.20001220703125</ele>
        <time>2022-05-02T13:42:09.000Z</time>
      </trkpt>
      <trkpt lat="40.96901963464915752410888671875" lon="-1.31494936533272266387939453125">
        <ele>855</ele>
        <time>2022-05-02T13:42:10.000Z</time>
      </trkpt>
      <trkpt lat="40.96894654445350170135498046875" lon="-1.314945928752422332763671875">
        <ele>854.79998779296875</ele>
        <time>2022-05-02T13:42:12.000Z</time>
      </trkpt>
      <trkpt lat="40.96888217143714427947998046875" lon="-1.31493444554507732391357421875">
        <ele>854.5999755859375</ele>
        <time>2022-05-02T13:42:14.000Z</time>
      </trkpt>
      <trkpt lat="40.9688525833189487457275390625" lon="-1.31492036394774913787841796875">
        <ele>854.4000244140625</ele>
        <time>2022-05-02T13:42:15.000Z</time>
      </trkpt>
      <trkpt lat="40.96881846897304058074951171875" lon="-1.3149004988372325897216796875">
        <ele>854.20001220703125</ele>
        <time>2022-05-02T13:42:16.000Z</time>
      </trkpt>
      <trkpt lat="40.96874671988189220428466796875" lon="-1.3148515485227108001708984375">
        <ele>853.5999755859375</ele>
        <time>2022-05-02T13:42:18.000Z</time>
      </trkpt>
      <trkpt lat="40.96871101297438144683837890625" lon="-1.3148300908505916595458984375">
        <ele>853.4000244140625</ele>
        <time>2022-05-02T13:42:19.000Z</time>
      </trkpt>
      <trkpt lat="40.96867580898106098175048828125" lon="-1.3148136623203754425048828125">
        <ele>853.20001220703125</ele>
        <time>2022-05-02T13:42:20.000Z</time>
      </trkpt>
      <trkpt lat="40.96860305406153202056884765625" lon="-1.314783990383148193359375">
        <ele>853</ele>
        <time>2022-05-02T13:42:22.000Z</time>
      </trkpt>
      <trkpt lat="40.96852786839008331298828125" lon="-1.31474752910435199737548828125">
        <ele>852.5999755859375</ele>
        <time>2022-05-02T13:42:24.000Z</time>
      </trkpt>
      <trkpt lat="40.96849207766354084014892578125" lon="-1.314730010926723480224609375">
        <ele>852.4000244140625</ele>
        <time>2022-05-02T13:42:25.000Z</time>
      </trkpt>
      <trkpt lat="40.96845771186053752899169921875" lon="-1.3147134147584438323974609375">
        <ele>852.20001220703125</ele>
        <time>2022-05-02T13:42:26.000Z</time>
      </trkpt>
      <trkpt lat="40.9683863818645477294921875" lon="-1.31468231789767742156982421875">
        <ele>852.4000244140625</ele>
        <time>2022-05-02T13:42:28.000Z</time>
      </trkpt>
      <trkpt lat="40.9683072566986083984375" lon="-1.31465432234108448028564453125">
        <ele>852.5999755859375</ele>
        <time>2022-05-02T13:42:30.000Z</time>
      </trkpt>
      <trkpt lat="40.9682282991707324981689453125" lon="-1.31462330929934978485107421875">
        <ele>852.5999755859375</ele>
        <time>2022-05-02T13:42:32.000Z</time>
      </trkpt>
      <trkpt lat="40.96818588674068450927734375" lon="-1.31460989825427532196044921875">
        <ele>852.79998779296875</ele>
        <time>2022-05-02T13:42:33.000Z</time>
      </trkpt>
      <trkpt lat="40.9681444801390171051025390625" lon="-1.3145977444946765899658203125">
        <ele>852.79998779296875</ele>
        <time>2022-05-02T13:42:34.000Z</time>
      </trkpt>
      <trkpt lat="40.96806292422115802764892578125" lon="-1.3145761191844940185546875">
        <ele>853.20001220703125</ele>
        <time>2022-05-02T13:42:36.000Z</time>
      </trkpt>
      <trkpt lat="40.96798631362617015838623046875" lon="-1.3145558349788188934326171875">
        <ele>853.4000244140625</ele>
        <time>2022-05-02T13:42:38.000Z</time>
      </trkpt>
      <trkpt lat="40.96792059950530529022216796875" lon="-1.31454435177147388458251953125">
        <ele>854</ele>
        <time>2022-05-02T13:42:40.000Z</time>
      </trkpt>
      <trkpt lat="40.96786343492567539215087890625" lon="-1.314530856907367706298828125">
        <ele>854.4000244140625</ele>
        <time>2022-05-02T13:42:42.000Z</time>
      </trkpt>
      <trkpt lat="40.96783225424587726593017578125" lon="-1.31452557630836963653564453125">
        <ele>854.79998779296875</ele>
        <time>2022-05-02T13:42:43.000Z</time>
      </trkpt>
      <trkpt lat="40.9678016602993011474609375" lon="-1.31452088244259357452392578125">
        <ele>855.20001220703125</ele>
        <time>2022-05-02T13:42:44.000Z</time>
      </trkpt>
      <trkpt lat="40.96773971803486347198486328125" lon="-1.31451266817748546600341796875">
        <ele>855.5999755859375</ele>
        <time>2022-05-02T13:42:46.000Z</time>
      </trkpt>
      <trkpt lat="40.96767299808561801910400390625" lon="-1.31450093351304531097412109375">
        <ele>856</ele>
        <time>2022-05-02T13:42:48.000Z</time>
      </trkpt>
      <trkpt lat="40.96760275773704051971435546875" lon="-1.31449590437114238739013671875">
        <ele>856.79998779296875</ele>
        <time>2022-05-02T13:42:50.000Z</time>
      </trkpt>
      <trkpt lat="40.96753754653036594390869140625" lon="-1.31448366679251194000244140625">
        <ele>857.5999755859375</ele>
        <time>2022-05-02T13:42:52.000Z</time>
      </trkpt>
      <trkpt lat="40.967511646449565887451171875" lon="-1.3144730217754840850830078125">
        <ele>857.79998779296875</ele>
        <time>2022-05-02T13:42:53.000Z</time>
      </trkpt>
      <trkpt lat="40.96748759038746356964111328125" lon="-1.314460448920726776123046875">
        <ele>857.79998779296875</ele>
        <time>2022-05-02T13:42:54.000Z</time>
      </trkpt>
      <trkpt lat="40.96744148992002010345458984375" lon="-1.3144210539758205413818359375">
        <ele>857.5999755859375</ele>
        <time>2022-05-02T13:42:56.000Z</time>
      </trkpt>
      <trkpt lat="40.96739606000483036041259765625" lon="-1.31437486968934535980224609375">
        <ele>857.5999755859375</ele>
        <time>2022-05-02T13:42:58.000Z</time>
      </trkpt>
      <trkpt lat="40.96737376414239406585693359375" lon="-1.3143533281981945037841796875">
        <ele>857.79998779296875</ele>
        <time>2022-05-02T13:42:59.000Z</time>
      </trkpt>
      <trkpt lat="40.9673505462706089019775390625" lon="-1.3143338821828365325927734375">
        <ele>857.5999755859375</ele>
        <time>2022-05-02T13:43:00.000Z</time>
      </trkpt>
      <trkpt lat="40.967325903475284576416015625" lon="-1.31431485526263713836669921875">
        <ele>857.4000244140625</ele>
        <time>2022-05-02T13:43:01.000Z</time>
      </trkpt>
      <trkpt lat="40.967300422489643096923828125" lon="-1.31429649889469146728515625">
        <ele>857.4000244140625</ele>
        <time>2022-05-02T13:43:02.000Z</time>
      </trkpt>
      <trkpt lat="40.96724577248096466064453125" lon="-1.31426305510103702545166015625">
        <ele>857</ele>
        <time>2022-05-02T13:43:04.000Z</time>
      </trkpt>
      <trkpt lat="40.96719305031001567840576171875" lon="-1.3142349757254123687744140625">
        <ele>856.79998779296875</ele>
        <time>2022-05-02T13:43:06.000Z</time>
      </trkpt>
      <trkpt lat="40.96716932952404022216796875" lon="-1.3142162002623081207275390625">
        <ele>856.4000244140625</ele>
        <time>2022-05-02T13:43:07.000Z</time>
      </trkpt>
      <trkpt lat="40.9671470336616039276123046875" lon="-1.31419323384761810302734375">
        <ele>856.20001220703125</ele>
        <time>2022-05-02T13:43:08.000Z</time>
      </trkpt>
      <trkpt lat="40.967105291783809661865234375" lon="-1.3141461275517940521240234375">
        <ele>855.4000244140625</ele>
        <time>2022-05-02T13:43:10.000Z</time>
      </trkpt>
      <trkpt lat="40.9670640528202056884765625" lon="-1.3141105882823467254638671875">
        <ele>855</ele>
        <time>2022-05-02T13:43:12.000Z</time>
      </trkpt>
      <trkpt lat="40.96704301424324512481689453125" lon="-1.31409675814211368560791015625">
        <ele>855.20001220703125</ele>
        <time>2022-05-02T13:43:13.000Z</time>
      </trkpt>
      <trkpt lat="40.96702088601887226104736328125" lon="-1.31408586166799068450927734375">
        <ele>855.4000244140625</ele>
        <time>2022-05-02T13:43:14.000Z</time>
      </trkpt>
      <trkpt lat="40.96697461791336536407470703125" lon="-1.31407379172742366790771484375">
        <ele>855.79998779296875</ele>
        <time>2022-05-02T13:43:16.000Z</time>
      </trkpt>
      <trkpt lat="40.96693203784525394439697265625" lon="-1.3140691816806793212890625">
        <ele>856</ele>
        <time>2022-05-02T13:43:18.000Z</time>
      </trkpt>
      <trkpt lat="40.9669036231935024261474609375" lon="-1.314072199165821075439453125">
        <ele>856.20001220703125</ele>
        <time>2022-05-02T13:43:20.000Z</time>
      </trkpt>
      <trkpt lat="40.96689934842288494110107421875" lon="-1.31407597102224826812744140625">
        <ele>856.20001220703125</ele>
        <time>2022-05-02T13:43:22.000Z</time>
      </trkpt>
      <trkpt lat="40.96694746054708957672119140625" lon="-1.31418912671506404876708984375">
        <ele>856.20001220703125</ele>
        <time>2022-05-02T13:44:00.000Z</time>
      </trkpt>
      <trkpt lat="40.96695601008832454681396484375" lon="-1.31421578116714954376220703125">
        <ele>856.20001220703125</ele>
        <time>2022-05-02T13:44:02.000Z</time>
      </trkpt>
      <trkpt lat="40.966958105564117431640625" lon="-1.31422952748835086822509765625">
        <ele>856.20001220703125</ele>
        <time>2022-05-02T13:44:04.000Z</time>
      </trkpt>
      <trkpt lat="40.966959111392498016357421875" lon="-1.314237155020236968994140625">
        <ele>856.4000244140625</ele>
        <time>2022-05-02T13:44:05.000Z</time>
      </trkpt>
      <trkpt lat="40.96696036867797374725341796875" lon="-1.31424226798117160797119140625">
        <ele>856.4000244140625</ele>
        <time>2022-05-02T13:44:06.000Z</time>
      </trkpt>
      <trkpt lat="40.96696338616311550140380859375" lon="-1.3142430223524570465087890625">
        <ele>856.4000244140625</ele>
        <time>2022-05-02T13:44:07.000Z</time>
      </trkpt>
      <trkpt lat="40.96681804396212100982666015625" lon="-1.31409457884728908538818359375">
        <ele>856.79998779296875</ele>
        <time>2022-05-02T14:25:38.000Z</time>
      </trkpt>
      <trkpt lat="40.9668040461838245391845703125" lon="-1.31409667432308197021484375">
        <ele>857</ele>
        <time>2022-05-02T14:25:39.000Z</time>
      </trkpt>
      <trkpt lat="40.96677797846496105194091796875" lon="-1.31410740315914154052734375">
        <ele>857.20001220703125</ele>
        <time>2022-05-02T14:25:41.000Z</time>
      </trkpt>
      <trkpt lat="40.96675182692706584930419921875" lon="-1.314117796719074249267578125">
        <ele>857.4000244140625</ele>
        <time>2022-05-02T14:25:43.000Z</time>
      </trkpt>
      <trkpt lat="40.966725759208202362060546875" lon="-1.31413196213543415069580078125">
        <ele>857.5999755859375</ele>
        <time>2022-05-02T14:25:45.000Z</time>
      </trkpt>
      <trkpt lat="40.9666947461664676666259765625" lon="-1.31413632072508335113525390625">
        <ele>857.79998779296875</ele>
        <time>2022-05-02T14:25:47.000Z</time>
      </trkpt>
      <trkpt lat="40.96667848527431488037109375" lon="-1.314140260219573974609375">
        <ele>857.79998779296875</ele>
        <time>2022-05-02T14:25:48.000Z</time>
      </trkpt>
      <trkpt lat="40.96666180528700351715087890625" lon="-1.31414721719920635223388671875">
        <ele>858</ele>
        <time>2022-05-02T14:25:49.000Z</time>
      </trkpt>
      <trkpt lat="40.96662593074142932891845703125" lon="-1.3141722790896892547607421875">
        <ele>858.20001220703125</ele>
        <time>2022-05-02T14:25:51.000Z</time>
      </trkpt>
      <trkpt lat="40.9666045568883419036865234375" lon="-1.31418644450604915618896484375">
        <ele>858.4000244140625</ele>
        <time>2022-05-02T14:25:52.000Z</time>
      </trkpt>
      <trkpt lat="40.9665804170072078704833984375" lon="-1.31419935263693332672119140625">
        <ele>858.5999755859375</ele>
        <time>2022-05-02T14:25:53.000Z</time>
      </trkpt>
      <trkpt lat="40.9665542654693126678466796875" lon="-1.31420874036848545074462890625">
        <ele>858.79998779296875</ele>
        <time>2022-05-02T14:25:54.000Z</time>
      </trkpt>
      <trkpt lat="40.9665264375507831573486328125" lon="-1.31421444006264209747314453125">
        <ele>859</ele>
        <time>2022-05-02T14:25:55.000Z</time>
      </trkpt>
      <trkpt lat="40.96647270955145359039306640625" lon="-1.31421963684260845184326171875">
        <ele>859.20001220703125</ele>
        <time>2022-05-02T14:25:57.000Z</time>
      </trkpt>
      <trkpt lat="40.966425351798534393310546875" lon="-1.3142192177474498748779296875">
        <ele>859.4000244140625</ele>
        <time>2022-05-02T14:25:59.000Z</time>
      </trkpt>
      <trkpt lat="40.96638939343392848968505859375" lon="-1.31422433070838451385498046875">
        <ele>859.4000244140625</ele>
        <time>2022-05-02T14:26:01.000Z</time>
      </trkpt>
      <trkpt lat="40.96635536290705204010009765625" lon="-1.31422952748835086822509765625">
        <ele>859.5999755859375</ele>
        <time>2022-05-02T14:26:03.000Z</time>
      </trkpt>
      <trkpt lat="40.96631378866732120513916015625" lon="-1.31420907564461231231689453125">
        <ele>859.79998779296875</ele>
        <time>2022-05-02T14:26:05.000Z</time>
      </trkpt>
      <trkpt lat="40.96628746949136257171630859375" lon="-1.314192898571491241455078125">
        <ele>859.79998779296875</ele>
        <time>2022-05-02T14:26:06.000Z</time>
      </trkpt>
      <trkpt lat="40.9662572108209133148193359375" lon="-1.3141759671270847320556640625">
        <ele>860</ele>
        <time>2022-05-02T14:26:07.000Z</time>
      </trkpt>
      <trkpt lat="40.96618940122425556182861328125" lon="-1.314141266047954559326171875">
        <ele>860</ele>
        <time>2022-05-02T14:26:09.000Z</time>
      </trkpt>
      <trkpt lat="40.9661130420863628387451171875" lon="-1.314097680151462554931640625">
        <ele>859.4000244140625</ele>
        <time>2022-05-02T14:26:11.000Z</time>
      </trkpt>
      <trkpt lat="40.96607440151274204254150390625" lon="-1.3140763901174068450927734375">
        <ele>859.20001220703125</ele>
        <time>2022-05-02T14:26:12.000Z</time>
      </trkpt>
      <trkpt lat="40.9660355933010578155517578125" lon="-1.3140576146543025970458984375">
        <ele>858.79998779296875</ele>
        <time>2022-05-02T14:26:13.000Z</time>
      </trkpt>
      <trkpt lat="40.96596426330506801605224609375" lon="-1.3140157051384449005126953125">
        <ele>858.5999755859375</ele>
        <time>2022-05-02T14:26:15.000Z</time>
      </trkpt>
      <trkpt lat="40.96589804627001285552978515625" lon="-1.31397019140422344207763671875">
        <ele>858.20001220703125</ele>
        <time>2022-05-02T14:26:17.000Z</time>
      </trkpt>
      <trkpt lat="40.965863429009914398193359375" lon="-1.3139503262937068939208984375">
        <ele>858</ele>
        <time>2022-05-02T14:26:18.000Z</time>
      </trkpt>
      <trkpt lat="40.9658275544643402099609375" lon="-1.3139332272112369537353515625">
        <ele>857.79998779296875</ele>
        <time>2022-05-02T14:26:19.000Z</time>
      </trkpt>
      <trkpt lat="40.96575471572577953338623046875" lon="-1.31390548311173915863037109375">
        <ele>857.4000244140625</ele>
        <time>2022-05-02T14:26:21.000Z</time>
      </trkpt>
      <trkpt lat="40.96568380482494831085205078125" lon="-1.31388477981090545654296875">
        <ele>857.20001220703125</ele>
        <time>2022-05-02T14:26:23.000Z</time>
      </trkpt>
      <trkpt lat="40.9656171686947345733642578125" lon="-1.31386625580489635467529296875">
        <ele>857.20001220703125</ele>
        <time>2022-05-02T14:26:25.000Z</time>
      </trkpt>
      <trkpt lat="40.96558548510074615478515625" lon="-1.31385670043528079986572265625">
        <ele>857.4000244140625</ele>
        <time>2022-05-02T14:26:26.000Z</time>
      </trkpt>
      <trkpt lat="40.965554974973201751708984375" lon="-1.313842870295047760009765625">
        <ele>857.4000244140625</ele>
        <time>2022-05-02T14:26:27.000Z</time>
      </trkpt>
      <trkpt lat="40.96549588255584239959716796875" lon="-1.31381026469171047210693359375">
        <ele>857.5999755859375</ele>
        <time>2022-05-02T14:26:29.000Z</time>
      </trkpt>
      <trkpt lat="40.96544022671878337860107421875" lon="-1.3137712888419628143310546875">
        <ele>857.79998779296875</ele>
        <time>2022-05-02T14:26:31.000Z</time>
      </trkpt>
      <trkpt lat="40.96539077349007129669189453125" lon="-1.3137303851544857025146484375">
        <ele>858.20001220703125</ele>
        <time>2022-05-02T14:26:33.000Z</time>
      </trkpt>
      <trkpt lat="40.9653662145137786865234375" lon="-1.31370683200657367706298828125">
        <ele>858.20001220703125</ele>
        <time>2022-05-02T14:26:34.000Z</time>
      </trkpt>
      <trkpt lat="40.965343080461025238037109375" lon="-1.31368034519255161285400390625">
        <ele>858.4000244140625</ele>
        <time>2022-05-02T14:26:35.000Z</time>
      </trkpt>
      <trkpt lat="40.96529488451778888702392578125" lon="-1.31362653337419033050537109375">
        <ele>858.5999755859375</ele>
        <time>2022-05-02T14:26:37.000Z</time>
      </trkpt>
      <trkpt lat="40.9652463532984256744384765625" lon="-1.3135704584419727325439453125">
        <ele>858.5999755859375</ele>
        <time>2022-05-02T14:26:39.000Z</time>
      </trkpt>
      <trkpt lat="40.96520134247839450836181640625" lon="-1.31350851617753505706787109375">
        <ele>858.5999755859375</ele>
        <time>2022-05-02T14:26:41.000Z</time>
      </trkpt>
      <trkpt lat="40.96517837606370449066162109375" lon="-1.313476078212261199951171875">
        <ele>858.5999755859375</ele>
        <time>2022-05-02T14:26:42.000Z</time>
      </trkpt>
      <trkpt lat="40.96515339799225330352783203125" lon="-1.31344280205667018890380859375">
        <ele>858.79998779296875</ele>
        <time>2022-05-02T14:26:43.000Z</time>
      </trkpt>
      <trkpt lat="40.96509707160294055938720703125" lon="-1.3133723102509975433349609375">
        <ele>859.20001220703125</ele>
        <time>2022-05-02T14:26:45.000Z</time>
      </trkpt>
      <trkpt lat="40.96503269858658313751220703125" lon="-1.3133072666823863983154296875">
        <ele>859.4000244140625</ele>
        <time>2022-05-02T14:26:47.000Z</time>
      </trkpt>
      <trkpt lat="40.964999087154865264892578125" lon="-1.3132779300212860107421875">
        <ele>859.4000244140625</ele>
        <time>2022-05-02T14:26:48.000Z</time>
      </trkpt>
      <trkpt lat="40.96496514044702053070068359375" lon="-1.3132529519498348236083984375">
        <ele>859.4000244140625</ele>
        <time>2022-05-02T14:26:49.000Z</time>
      </trkpt>
      <trkpt lat="40.96490395255386829376220703125" lon="-1.31321012042462825775146484375">
        <ele>859.5999755859375</ele>
        <time>2022-05-02T14:26:51.000Z</time>
      </trkpt>
      <trkpt lat="40.96487930975854396820068359375" lon="-1.3131882436573505401611328125">
        <ele>859.79998779296875</ele>
        <time>2022-05-02T14:26:52.000Z</time>
      </trkpt>
      <trkpt lat="40.9648574329912662506103515625" lon="-1.3131677918136119842529296875">
        <ele>860</ele>
        <time>2022-05-02T14:26:53.000Z</time>
      </trkpt>
      <trkpt lat="40.9648163616657257080078125" lon="-1.3131262175738811492919921875">
        <ele>860.20001220703125</ele>
        <time>2022-05-02T14:26:55.000Z</time>
      </trkpt>
      <trkpt lat="40.964774787425994873046875" lon="-1.3130816258490085601806640625">
        <ele>860.20001220703125</ele>
        <time>2022-05-02T14:26:57.000Z</time>
      </trkpt>
      <trkpt lat="40.964717455208301544189453125" lon="-1.31305237300693988800048828125">
        <ele>860.20001220703125</ele>
        <time>2022-05-02T14:26:59.000Z</time>
      </trkpt>
      <trkpt lat="40.964679904282093048095703125" lon="-1.31304533220827579498291015625">
        <ele>860.20001220703125</ele>
        <time>2022-05-02T14:27:00.000Z</time>
      </trkpt>
      <trkpt lat="40.964639000594615936279296875" lon="-1.31303929723799228668212890625">
        <ele>860.20001220703125</ele>
        <time>2022-05-02T14:27:01.000Z</time>
      </trkpt>
      <trkpt lat="40.96455593593418598175048828125" lon="-1.31302856840193271636962890625">
        <ele>860</ele>
        <time>2022-05-02T14:27:03.000Z</time>
      </trkpt>
      <trkpt lat="40.9644691832363605499267578125" lon="-1.31301566027104854583740234375">
        <ele>859.79998779296875</ele>
        <time>2022-05-02T14:27:05.000Z</time>
      </trkpt>
      <trkpt lat="40.96437991596758365631103515625" lon="-1.31299772299826145172119140625">
        <ele>859.20001220703125</ele>
        <time>2022-05-02T14:27:07.000Z</time>
      </trkpt>
      <trkpt lat="40.9643337316811084747314453125" lon="-1.31298816762864589691162109375">
        <ele>859</ele>
        <time>2022-05-02T14:27:08.000Z</time>
      </trkpt>
      <trkpt lat="40.964286290109157562255859375" lon="-1.31297777406871318817138671875">
        <ele>859</ele>
        <time>2022-05-02T14:27:09.000Z</time>
      </trkpt>
      <trkpt lat="40.9641885571181774139404296875" lon="-1.31295665167272090911865234375">
        <ele>858.5999755859375</ele>
        <time>2022-05-02T14:27:11.000Z</time>
      </trkpt>
      <trkpt lat="40.964086465537548065185546875" lon="-1.3129346072673797607421875">
        <ele>858.20001220703125</ele>
        <time>2022-05-02T14:27:13.000Z</time>
      </trkpt>
      <trkpt lat="40.96398286521434783935546875" lon="-1.312911808490753173828125">
        <ele>857.20001220703125</ele>
        <time>2022-05-02T14:27:15.000Z</time>
      </trkpt>
      <trkpt lat="40.9638784267008304595947265625" lon="-1.31288691423833370208740234375">
        <ele>856.5999755859375</ele>
        <time>2022-05-02T14:27:17.000Z</time>
      </trkpt>
      <trkpt lat="40.96382587216794490814208984375" lon="-1.31287467665970325469970703125">
        <ele>856.4000244140625</ele>
        <time>2022-05-02T14:27:18.000Z</time>
      </trkpt>
      <trkpt lat="40.96377239562571048736572265625" lon="-1.3128626905381679534912109375">
        <ele>856.20001220703125</ele>
        <time>2022-05-02T14:27:19.000Z</time>
      </trkpt>
      <trkpt lat="40.9636682085692882537841796875" lon="-1.31284433417022228240966796875">
        <ele>855.5999755859375</ele>
        <time>2022-05-02T14:27:21.000Z</time>
      </trkpt>
      <trkpt lat="40.96356603316962718963623046875" lon="-1.3128227926790714263916015625">
        <ele>855.4000244140625</ele>
        <time>2022-05-02T14:27:23.000Z</time>
      </trkpt>
      <trkpt lat="40.96346444450318813323974609375" lon="-1.3127999939024448394775390625">
        <ele>855.20001220703125</ele>
        <time>2022-05-02T14:27:25.000Z</time>
      </trkpt>
      <trkpt lat="40.96336386166512966156005859375" lon="-1.312775351107120513916015625">
        <ele>855.5999755859375</ele>
        <time>2022-05-02T14:27:27.000Z</time>
      </trkpt>
      <trkpt lat="40.9632638655602931976318359375" lon="-1.31275280378758907318115234375">
        <ele>855.79998779296875</ele>
        <time>2022-05-02T14:27:29.000Z</time>
      </trkpt>
      <trkpt lat="40.96316470764577388763427734375" lon="-1.3127319328486919403076171875">
        <ele>856</ele>
        <time>2022-05-02T14:27:31.000Z</time>
      </trkpt>
      <trkpt lat="40.963067896664142608642578125" lon="-1.31270703859627246856689453125">
        <ele>856.4000244140625</ele>
        <time>2022-05-02T14:27:33.000Z</time>
      </trkpt>
      <trkpt lat="40.96297292970120906829833984375" lon="-1.3126838207244873046875">
        <ele>856.79998779296875</ele>
        <time>2022-05-02T14:27:35.000Z</time>
      </trkpt>
      <trkpt lat="40.9628793038427829742431640625" lon="-1.31265440024435520172119140625">
        <ele>857</ele>
        <time>2022-05-02T14:27:37.000Z</time>
      </trkpt>
      <trkpt lat="40.96278551034629344940185546875" lon="-1.312627829611301422119140625">
        <ele>856.5999755859375</ele>
        <time>2022-05-02T14:27:39.000Z</time>
      </trkpt>
      <trkpt lat="40.96269263885915279388427734375" lon="-1.3126055337488651275634765625">
        <ele>856.20001220703125</ele>
        <time>2022-05-02T14:27:41.000Z</time>
      </trkpt>
      <trkpt lat="40.9625983424484729766845703125" lon="-1.3125832378864288330078125">
        <ele>856</ele>
        <time>2022-05-02T14:27:43.000Z</time>
      </trkpt>
      <trkpt lat="40.96250421367585659027099609375" lon="-1.31256136111915111541748046875">
        <ele>856</ele>
        <time>2022-05-02T14:27:45.000Z</time>
      </trkpt>
      <trkpt lat="40.962410755455493927001953125" lon="-1.3125388137996196746826171875">
        <ele>855.5999755859375</ele>
        <time>2022-05-02T14:27:47.000Z</time>
      </trkpt>
      <trkpt lat="40.96231453120708465576171875" lon="-1.31251861341297626495361328125">
        <ele>855.4000244140625</ele>
        <time>2022-05-02T14:27:49.000Z</time>
      </trkpt>
      <trkpt lat="40.96221302635967731475830078125" lon="-1.3124975748360157012939453125">
        <ele>855.5999755859375</ele>
        <time>2022-05-02T14:27:51.000Z</time>
      </trkpt>
      <trkpt lat="40.96210800111293792724609375" lon="-1.31247368641197681427001953125">
        <ele>856</ele>
        <time>2022-05-02T14:27:53.000Z</time>
      </trkpt>
      <trkpt lat="40.96200180239975452423095703125" lon="-1.31244887597858905792236328125">
        <ele>856</ele>
        <time>2022-05-02T14:27:55.000Z</time>
      </trkpt>
      <trkpt lat="40.96194966696202754974365234375" lon="-1.31243663839995861053466796875">
        <ele>856</ele>
        <time>2022-05-02T14:27:56.000Z</time>
      </trkpt>
      <trkpt lat="40.96189853735268115997314453125" lon="-1.31242356263101100921630859375">
        <ele>856</ele>
        <time>2022-05-02T14:27:57.000Z</time>
      </trkpt>
      <trkpt lat="40.96179812215268611907958984375" lon="-1.31239841692149639129638671875">
        <ele>855.79998779296875</ele>
        <time>2022-05-02T14:27:59.000Z</time>
      </trkpt>
      <trkpt lat="40.96170223318040370941162109375" lon="-1.3123762048780918121337890625">
        <ele>855.4000244140625</ele>
        <time>2022-05-02T14:28:01.000Z</time>
      </trkpt>
      <trkpt lat="40.96165529452264308929443359375" lon="-1.31236656568944454193115234375">
        <ele>855.20001220703125</ele>
        <time>2022-05-02T14:28:02.000Z</time>
      </trkpt>
      <trkpt lat="40.96160785295069217681884765625" lon="-1.31235701031982898712158203125">
        <ele>855</ele>
        <time>2022-05-02T14:28:03.000Z</time>
      </trkpt>
      <trkpt lat="40.9615117125213146209716796875" lon="-1.31233622319996356964111328125">
        <ele>854.5999755859375</ele>
        <time>2022-05-02T14:28:05.000Z</time>
      </trkpt>
      <trkpt lat="40.9614148177206516265869140625" lon="-1.3123135082423686981201171875">
        <ele>854.5999755859375</ele>
        <time>2022-05-02T14:28:07.000Z</time>
      </trkpt>
      <trkpt lat="40.961317084729671478271484375" lon="-1.3122886978089809417724609375">
        <ele>854.79998779296875</ele>
        <time>2022-05-02T14:28:09.000Z</time>
      </trkpt>
      <trkpt lat="40.9612196870148181915283203125" lon="-1.31226715631783008575439453125">
        <ele>855</ele>
        <time>2022-05-02T14:28:11.000Z</time>
      </trkpt>
      <trkpt lat="40.9611224569380283355712890625" lon="-1.3122461177408695220947265625">
        <ele>855.4000244140625</ele>
        <time>2022-05-02T14:28:13.000Z</time>
      </trkpt>
      <trkpt lat="40.961073003709316253662109375" lon="-1.31223522126674652099609375">
        <ele>855.5999755859375</ele>
        <time>2022-05-02T14:28:14.000Z</time>
      </trkpt>
      <trkpt lat="40.96102313138544559478759765625" lon="-1.31222524680197238922119140625">
        <ele>855.79998779296875</ele>
        <time>2022-05-02T14:28:15.000Z</time>
      </trkpt>
      <trkpt lat="40.96092254854738712310791015625" lon="-1.31220496259629726409912109375">
        <ele>856</ele>
        <time>2022-05-02T14:28:17.000Z</time>
      </trkpt>
      <trkpt lat="40.96082347445189952850341796875" lon="-1.3121800683438777923583984375">
        <ele>856</ele>
        <time>2022-05-02T14:28:19.000Z</time>
      </trkpt>
      <trkpt lat="40.96072272397577762603759765625" lon="-1.31215500645339488983154296875">
        <ele>856</ele>
        <time>2022-05-02T14:28:21.000Z</time>
      </trkpt>
      <trkpt lat="40.9606213867664337158203125" lon="-1.3121281005442142486572265625">
        <ele>856</ele>
        <time>2022-05-02T14:28:23.000Z</time>
      </trkpt>
      <trkpt lat="40.96051971428096294403076171875" lon="-1.31210102699697017669677734375">
        <ele>856</ele>
        <time>2022-05-02T14:28:25.000Z</time>
      </trkpt>
      <trkpt lat="40.9604167006909847259521484375" lon="-1.31207923404872417449951171875">
        <ele>855.79998779296875</ele>
        <time>2022-05-02T14:28:27.000Z</time>
      </trkpt>
      <trkpt lat="40.9603131003677845001220703125" lon="-1.31205861456692218780517578125">
        <ele>855.20001220703125</ele>
        <time>2022-05-02T14:28:29.000Z</time>
      </trkpt>
      <trkpt lat="40.960210002958774566650390625" lon="-1.31203715689480304718017578125">
        <ele>855</ele>
        <time>2022-05-02T14:28:31.000Z</time>
      </trkpt>
      <trkpt lat="40.96010732464492321014404296875" lon="-1.31200798787176609039306640625">
        <ele>855</ele>
        <time>2022-05-02T14:28:33.000Z</time>
      </trkpt>
      <trkpt lat="40.960056446492671966552734375" lon="-1.31199440918862819671630859375">
        <ele>855.20001220703125</ele>
        <time>2022-05-02T14:28:34.000Z</time>
      </trkpt>
      <trkpt lat="40.9600063227117061614990234375" lon="-1.311984099447727203369140625">
        <ele>855.4000244140625</ele>
        <time>2022-05-02T14:28:35.000Z</time>
      </trkpt>
      <trkpt lat="40.9599080868065357208251953125" lon="-1.31196356378495693206787109375">
        <ele>855.79998779296875</ele>
        <time>2022-05-02T14:28:37.000Z</time>
      </trkpt>
      <trkpt lat="40.95981077291071414947509765625" lon="-1.3119433633983135223388671875">
        <ele>856</ele>
        <time>2022-05-02T14:28:39.000Z</time>
      </trkpt>
      <trkpt lat="40.9597166441380977630615234375" lon="-1.311924420297145843505859375">
        <ele>855.5999755859375</ele>
        <time>2022-05-02T14:28:41.000Z</time>
      </trkpt>
      <trkpt lat="40.95962251536548137664794921875" lon="-1.31189416162669658660888671875">
        <ele>855.20001220703125</ele>
        <time>2022-05-02T14:28:43.000Z</time>
      </trkpt>
      <trkpt lat="40.95952863804996013641357421875" lon="-1.3118729554116725921630859375">
        <ele>855</ele>
        <time>2022-05-02T14:28:45.000Z</time>
      </trkpt>
      <trkpt lat="40.95943392254412174224853515625" lon="-1.31185258738696575164794921875">
        <ele>855</ele>
        <time>2022-05-02T14:28:47.000Z</time>
      </trkpt>
      <trkpt lat="40.959338955581188201904296875" lon="-1.31183833815157413482666015625">
        <ele>855</ele>
        <time>2022-05-02T14:28:49.000Z</time>
      </trkpt>
      <trkpt lat="40.9592428989708423614501953125" lon="-1.3118189759552478790283203125">
        <ele>854.79998779296875</ele>
        <time>2022-05-02T14:28:51.000Z</time>
      </trkpt>
      <trkpt lat="40.959194116294384002685546875" lon="-1.31180497817695140838623046875">
        <ele>854.5999755859375</ele>
        <time>2022-05-02T14:28:52.000Z</time>
      </trkpt>
      <trkpt lat="40.95914474688470363616943359375" lon="-1.31179039366543292999267578125">
        <ele>854.5999755859375</ele>
        <time>2022-05-02T14:28:53.000Z</time>
      </trkpt>
      <trkpt lat="40.95904299058020114898681640625" lon="-1.3117653317749500274658203125">
        <ele>855</ele>
        <time>2022-05-02T14:28:55.000Z</time>
      </trkpt>
      <trkpt lat="40.9589411504566669464111328125" lon="-1.31174479611217975616455078125">
        <ele>855</ele>
        <time>2022-05-02T14:28:57.000Z</time>
      </trkpt>
      <trkpt lat="40.95884098671376705169677734375" lon="-1.31172585301101207733154296875">
        <ele>855</ele>
        <time>2022-05-02T14:28:59.000Z</time>
      </trkpt>
      <trkpt lat="40.95874191261827945709228515625" lon="-1.3117019645869731903076171875">
        <ele>855</ele>
        <time>2022-05-02T14:29:01.000Z</time>
      </trkpt>
      <trkpt lat="40.95864661037921905517578125" lon="-1.31168478168547153472900390625">
        <ele>855.5999755859375</ele>
        <time>2022-05-02T14:29:03.000Z</time>
      </trkpt>
      <trkpt lat="40.95855248160660266876220703125" lon="-1.3116687722504138946533203125">
        <ele>855.79998779296875</ele>
        <time>2022-05-02T14:29:05.000Z</time>
      </trkpt>
      <trkpt lat="40.9584514796733856201171875" lon="-1.311644129455089569091796875">
        <ele>856.20001220703125</ele>
        <time>2022-05-02T14:29:07.000Z</time>
      </trkpt>
      <trkpt lat="40.9584013558924198150634765625" lon="-1.31163013167679309844970703125">
        <ele>856.20001220703125</ele>
        <time>2022-05-02T14:29:08.000Z</time>
      </trkpt>
      <trkpt lat="40.95835181884467601776123046875" lon="-1.3116191513836383819580078125">
        <ele>856.4000244140625</ele>
        <time>2022-05-02T14:29:09.000Z</time>
      </trkpt>
      <trkpt lat="40.9582545049488544464111328125" lon="-1.31160129792988300323486328125">
        <ele>856.79998779296875</ele>
        <time>2022-05-02T14:29:11.000Z</time>
      </trkpt>
      <trkpt lat="40.95815568231046199798583984375" lon="-1.311577074229717254638671875">
        <ele>857</ele>
        <time>2022-05-02T14:29:13.000Z</time>
      </trkpt>
      <trkpt lat="40.9581046365201473236083984375" lon="-1.31156777031719684600830078125">
        <ele>857.20001220703125</ele>
        <time>2022-05-02T14:29:14.000Z</time>
      </trkpt>
      <trkpt lat="40.95805250108242034912109375" lon="-1.31156190298497676849365234375">
        <ele>857.20001220703125</ele>
        <time>2022-05-02T14:29:15.000Z</time>
      </trkpt>
      <trkpt lat="40.95800061710178852081298828125" lon="-1.31155125796794891357421875">
        <ele>857.4000244140625</ele>
        <time>2022-05-02T14:29:16.000Z</time>
      </trkpt>
      <trkpt lat="40.957946889102458953857421875" lon="-1.31154228933155536651611328125">
        <ele>857.5999755859375</ele>
        <time>2022-05-02T14:29:17.000Z</time>
      </trkpt>
      <trkpt lat="40.957832224667072296142578125" lon="-1.31152971647679805755615234375">
        <ele>857.5999755859375</ele>
        <time>2022-05-02T14:29:19.000Z</time>
      </trkpt>
      <trkpt lat="40.95777355134487152099609375" lon="-1.31151999346911907196044921875">
        <ele>857.5999755859375</ele>
        <time>2022-05-02T14:29:20.000Z</time>
      </trkpt>
      <trkpt lat="40.95771445892751216888427734375" lon="-1.3115058280527591705322265625">
        <ele>857.5999755859375</ele>
        <time>2022-05-02T14:29:21.000Z</time>
      </trkpt>
      <trkpt lat="40.95759443007409572601318359375" lon="-1.31148043088614940643310546875">
        <ele>857.5999755859375</ele>
        <time>2022-05-02T14:29:23.000Z</time>
      </trkpt>
      <trkpt lat="40.95753240399062633514404296875" lon="-1.31146970205008983612060546875">
        <ele>857.4000244140625</ele>
        <time>2022-05-02T14:29:24.000Z</time>
      </trkpt>
      <trkpt lat="40.95747222192585468292236328125" lon="-1.3114679418504238128662109375">
        <ele>857.4000244140625</ele>
        <time>2022-05-02T14:29:25.000Z</time>
      </trkpt>
      <trkpt lat="40.95735018141567707061767578125" lon="-1.3114495016634464263916015625">
        <ele>856.79998779296875</ele>
        <time>2022-05-02T14:29:27.000Z</time>
      </trkpt>
      <trkpt lat="40.95728815533220767974853515625" lon="-1.31143231876194477081298828125">
        <ele>856.4000244140625</ele>
        <time>2022-05-02T14:29:28.000Z</time>
      </trkpt>
      <trkpt lat="40.95722596161067485809326171875" lon="-1.31141605786979198455810546875">
        <ele>856.20001220703125</ele>
        <time>2022-05-02T14:29:29.000Z</time>
      </trkpt>
      <trkpt lat="40.9571641869843006134033203125" lon="-1.31140164099633693695068359375">
        <ele>856.20001220703125</ele>
        <time>2022-05-02T14:29:30.000Z</time>
      </trkpt>
      <trkpt lat="40.957100652158260345458984375" lon="-1.31138822995126247406005859375">
        <ele>856.20001220703125</ele>
        <time>2022-05-02T14:29:31.000Z</time>
      </trkpt>
      <trkpt lat="40.9569754265248775482177734375" lon="-1.3113435544073581695556640625">
        <ele>856</ele>
        <time>2022-05-02T14:29:33.000Z</time>
      </trkpt>
      <trkpt lat="40.956850536167621612548828125" lon="-1.31130524910986423492431640625">
        <ele>855.79998779296875</ele>
        <time>2022-05-02T14:29:35.000Z</time>
      </trkpt>
      <trkpt lat="40.95672807656228542327880859375" lon="-1.31127608008682727813720703125">
        <ele>855.79998779296875</ele>
        <time>2022-05-02T14:29:37.000Z</time>
      </trkpt>
      <trkpt lat="40.956607796251773834228515625" lon="-1.3112439773976802825927734375">
        <ele>855.5999755859375</ele>
        <time>2022-05-02T14:29:39.000Z</time>
      </trkpt>
      <trkpt lat="40.95655105076730251312255859375" lon="-1.31123199127614498138427734375">
        <ele>855.79998779296875</ele>
        <time>2022-05-02T14:29:40.000Z</time>
      </trkpt>
      <trkpt lat="40.95649438910186290740966796875" lon="-1.3112198375165462493896484375">
        <ele>856</ele>
        <time>2022-05-02T14:29:41.000Z</time>
      </trkpt>
      <trkpt lat="40.9564376436173915863037109375" lon="-1.3112107850611209869384765625">
        <ele>856</ele>
        <time>2022-05-02T14:29:42.000Z</time>
      </trkpt>
      <trkpt lat="40.95638173632323741912841796875" lon="-1.31120030768215656280517578125">
        <ele>856</ele>
        <time>2022-05-02T14:29:43.000Z</time>
      </trkpt>
      <trkpt lat="40.95627193339169025421142578125" lon="-1.31118052639067173004150390625">
        <ele>856</ele>
        <time>2022-05-02T14:29:45.000Z</time>
      </trkpt>
      <trkpt lat="40.956163890659809112548828125" lon="-1.31115755997598171234130859375">
        <ele>856.20001220703125</ele>
        <time>2022-05-02T14:29:47.000Z</time>
      </trkpt>
      <trkpt lat="40.95605718903243541717529296875" lon="-1.311134509742259979248046875">
        <ele>856.5999755859375</ele>
        <time>2022-05-02T14:29:49.000Z</time>
      </trkpt>
      <trkpt lat="40.95595375634729862213134765625" lon="-1.31110827438533306121826171875">
        <ele>857</ele>
        <time>2022-05-02T14:29:51.000Z</time>
      </trkpt>
      <trkpt lat="40.9558529220521450042724609375" lon="-1.31108991801738739013671875">
        <ele>857.4000244140625</ele>
        <time>2022-05-02T14:29:53.000Z</time>
      </trkpt>
      <trkpt lat="40.9557526744902133941650390625" lon="-1.3110766746103763580322265625">
        <ele>857.79998779296875</ele>
        <time>2022-05-02T14:29:55.000Z</time>
      </trkpt>
      <trkpt lat="40.95565016381442546844482421875" lon="-1.31106309592723846435546875">
        <ele>858</ele>
        <time>2022-05-02T14:29:57.000Z</time>
      </trkpt>
      <trkpt lat="40.95560004003345966339111328125" lon="-1.3110508583486080169677734375">
        <ele>858</ele>
        <time>2022-05-02T14:29:58.000Z</time>
      </trkpt>
      <trkpt lat="40.95554731786251068115234375" lon="-1.311036609113216400146484375">
        <ele>858</ele>
        <time>2022-05-02T14:29:59.000Z</time>
      </trkpt>
      <trkpt lat="40.95549367368221282958984375" lon="-1.311018168926239013671875">
        <ele>858</ele>
        <time>2022-05-02T14:30:00.000Z</time>
      </trkpt>
      <trkpt lat="40.9554408676922321319580078125" lon="-1.3110029138624668121337890625">
        <ele>858</ele>
        <time>2022-05-02T14:30:01.000Z</time>
      </trkpt>
      <trkpt lat="40.9553379379212856292724609375" lon="-1.310983635485172271728515625">
        <ele>857.79998779296875</ele>
        <time>2022-05-02T14:30:03.000Z</time>
      </trkpt>
      <trkpt lat="40.9552889876067638397216796875" lon="-1.31097785197198390960693359375">
        <ele>857.79998779296875</ele>
        <time>2022-05-02T14:30:04.000Z</time>
      </trkpt>
      <trkpt lat="40.9552393667399883270263671875" lon="-1.3109727390110492706298828125">
        <ele>857.5999755859375</ele>
        <time>2022-05-02T14:30:05.000Z</time>
      </trkpt>
      <trkpt lat="40.955139957368373870849609375" lon="-1.31095287390053272247314453125">
        <ele>858</ele>
        <time>2022-05-02T14:30:07.000Z</time>
      </trkpt>
      <trkpt lat="40.95503828488290309906005859375" lon="-1.31092554889619350433349609375">
        <ele>858.4000244140625</ele>
        <time>2022-05-02T14:30:09.000Z</time>
      </trkpt>
      <trkpt lat="40.95498941838741302490234375" lon="-1.310919933021068572998046875">
        <ele>858.4000244140625</ele>
        <time>2022-05-02T14:30:10.000Z</time>
      </trkpt>
      <trkpt lat="40.9549426473677158355712890625" lon="-1.31091683171689510345458984375">
        <ele>858.4000244140625</ele>
        <time>2022-05-02T14:30:11.000Z</time>
      </trkpt>
      <trkpt lat="40.9548962116241455078125" lon="-1.310907863080501556396484375">
        <ele>858.4000244140625</ele>
        <time>2022-05-02T14:30:12.000Z</time>
      </trkpt>
      <trkpt lat="40.95484885387122631072998046875" lon="-1.310903169214725494384765625">
        <ele>858.4000244140625</ele>
        <time>2022-05-02T14:30:13.000Z</time>
      </trkpt>
      <trkpt lat="40.95475581474602222442626953125" lon="-1.3108932785689830780029296875">
        <ele>859</ele>
        <time>2022-05-02T14:30:15.000Z</time>
      </trkpt>
      <trkpt lat="40.954658500850200653076171875" lon="-1.31088313646614551544189453125">
        <ele>859.79998779296875</ele>
        <time>2022-05-02T14:30:17.000Z</time>
      </trkpt>
      <trkpt lat="40.9545647911727428436279296875" lon="-1.31086687557399272918701171875">
        <ele>860.4000244140625</ele>
        <time>2022-05-02T14:30:19.000Z</time>
      </trkpt>
      <trkpt lat="40.95446429215371608734130859375" lon="-1.3108371198177337646484375">
        <ele>860.5999755859375</ele>
        <time>2022-05-02T14:30:21.000Z</time>
      </trkpt>
      <trkpt lat="40.95436580479145050048828125" lon="-1.3108138181269168853759765625">
        <ele>860.79998779296875</ele>
        <time>2022-05-02T14:30:23.000Z</time>
      </trkpt>
      <trkpt lat="40.95426480285823345184326171875" lon="-1.310793869197368621826171875">
        <ele>861.20001220703125</ele>
        <time>2022-05-02T14:30:25.000Z</time>
      </trkpt>
      <trkpt lat="40.95416170544922351837158203125" lon="-1.31076361052691936492919921875">
        <ele>861.4000244140625</ele>
        <time>2022-05-02T14:30:27.000Z</time>
      </trkpt>
      <trkpt lat="40.95411091111600399017333984375" lon="-1.3107517920434474945068359375">
        <ele>861.5999755859375</ele>
        <time>2022-05-02T14:30:28.000Z</time>
      </trkpt>
      <trkpt lat="40.95406011678278446197509765625" lon="-1.3107417337596416473388671875">
        <ele>861.5999755859375</ele>
        <time>2022-05-02T14:30:29.000Z</time>
      </trkpt>
      <trkpt lat="40.9539560973644256591796875" lon="-1.3107078708708286285400390625">
        <ele>861.5999755859375</ele>
        <time>2022-05-02T14:30:31.000Z</time>
      </trkpt>
      <trkpt lat="40.95390446484088897705078125" lon="-1.31069102324545383453369140625">
        <ele>861.20001220703125</ele>
        <time>2022-05-02T14:30:32.000Z</time>
      </trkpt>
      <trkpt lat="40.953853167593479156494140625" lon="-1.310675852000713348388671875">
        <ele>861</ele>
        <time>2022-05-02T14:30:33.000Z</time>
      </trkpt>
      <trkpt lat="40.95375426113605499267578125" lon="-1.310645006597042083740234375">
        <ele>861</ele>
        <time>2022-05-02T14:30:35.000Z</time>
      </trkpt>
      <trkpt lat="40.95365359447896480560302734375" lon="-1.3106066174805164337158203125">
        <ele>861.4000244140625</ele>
        <time>2022-05-02T14:30:37.000Z</time>
      </trkpt>
      <trkpt lat="40.95354999415576457977294921875" lon="-1.31057359278202056884765625">
        <ele>861.20001220703125</ele>
        <time>2022-05-02T14:30:39.000Z</time>
      </trkpt>
      <trkpt lat="40.9534476511180400848388671875" lon="-1.31054601632058620452880859375">
        <ele>861.20001220703125</ele>
        <time>2022-05-02T14:30:41.000Z</time>
      </trkpt>
      <trkpt lat="40.95334782265126705169677734375" lon="-1.31051852367818355560302734375">
        <ele>861</ele>
        <time>2022-05-02T14:30:43.000Z</time>
      </trkpt>
      <trkpt lat="40.953246988356113433837890625" lon="-1.3104926235973834991455078125">
        <ele>861</ele>
        <time>2022-05-02T14:30:45.000Z</time>
      </trkpt>
      <trkpt lat="40.95314917154610157012939453125" lon="-1.310465633869171142578125">
        <ele>860.79998779296875</ele>
        <time>2022-05-02T14:30:47.000Z</time>
      </trkpt>
      <trkpt lat="40.9530567191541194915771484375" lon="-1.3104413263499736785888671875">
        <ele>860.79998779296875</ele>
        <time>2022-05-02T14:30:49.000Z</time>
      </trkpt>
      <trkpt lat="40.952966026961803436279296875" lon="-1.3104186952114105224609375">
        <ele>860.5999755859375</ele>
        <time>2022-05-02T14:30:51.000Z</time>
      </trkpt>
      <trkpt lat="40.95287105999886989593505859375" lon="-1.3103950582444667816162109375">
        <ele>860.4000244140625</ele>
        <time>2022-05-02T14:30:53.000Z</time>
      </trkpt>
      <trkpt lat="40.95277332700788974761962890625" lon="-1.3103672303259372711181640625">
        <ele>860</ele>
        <time>2022-05-02T14:30:55.000Z</time>
      </trkpt>
      <trkpt lat="40.95267592929303646087646484375" lon="-1.3103410787880420684814453125">
        <ele>859.5999755859375</ele>
        <time>2022-05-02T14:30:57.000Z</time>
      </trkpt>
      <trkpt lat="40.95257819630205631256103515625" lon="-1.31032004021108150482177734375">
        <ele>859.20001220703125</ele>
        <time>2022-05-02T14:30:59.000Z</time>
      </trkpt>
      <trkpt lat="40.952482558786869049072265625" lon="-1.3103025220334529876708984375">
        <ele>859</ele>
        <time>2022-05-02T14:31:01.000Z</time>
      </trkpt>
      <trkpt lat="40.95238474197685718536376953125" lon="-1.31027947179973125457763671875">
        <ele>859</ele>
        <time>2022-05-02T14:31:03.000Z</time>
      </trkpt>
      <trkpt lat="40.95228633843362331390380859375" lon="-1.31025466136634349822998046875">
        <ele>859.20001220703125</ele>
        <time>2022-05-02T14:31:05.000Z</time>
      </trkpt>
      <trkpt lat="40.952189527451992034912109375" lon="-1.310229934751987457275390625">
        <ele>859.5999755859375</ele>
        <time>2022-05-02T14:31:07.000Z</time>
      </trkpt>
      <trkpt lat="40.95209925435483455657958984375" lon="-1.3102106563746929168701171875">
        <ele>859.79998779296875</ele>
        <time>2022-05-02T14:31:09.000Z</time>
      </trkpt>
      <trkpt lat="40.95205533318221569061279296875" lon="-1.310203783214092254638671875">
        <ele>860</ele>
        <time>2022-05-02T14:31:10.000Z</time>
      </trkpt>
      <trkpt lat="40.9520106576383113861083984375" lon="-1.310191042721271514892578125">
        <ele>860</ele>
        <time>2022-05-02T14:31:11.000Z</time>
      </trkpt>
      <trkpt lat="40.951915271580219268798828125" lon="-1.310161538422107696533203125">
        <ele>860</ele>
        <time>2022-05-02T14:31:13.000Z</time>
      </trkpt>
      <trkpt lat="40.9518218971788883209228515625" lon="-1.3101348839700222015380859375">
        <ele>860</ele>
        <time>2022-05-02T14:31:15.000Z</time>
      </trkpt>
      <trkpt lat="40.95172994770109653472900390625" lon="-1.31011133082211017608642578125">
        <ele>859.79998779296875</ele>
        <time>2022-05-02T14:31:17.000Z</time>
      </trkpt>
      <trkpt lat="40.9516334719955921173095703125" lon="-1.31008132360875606536865234375">
        <ele>859.4000244140625</ele>
        <time>2022-05-02T14:31:19.000Z</time>
      </trkpt>
      <trkpt lat="40.95158301293849945068359375" lon="-1.3100638054311275482177734375">
        <ele>859.20001220703125</ele>
        <time>2022-05-02T14:31:20.000Z</time>
      </trkpt>
      <trkpt lat="40.9515315480530261993408203125" lon="-1.31004679016768932342529296875">
        <ele>859</ele>
        <time>2022-05-02T14:31:21.000Z</time>
      </trkpt>
      <trkpt lat="40.951428115367889404296875" lon="-1.31001460365951061248779296875">
        <ele>858.5999755859375</ele>
        <time>2022-05-02T14:31:23.000Z</time>
      </trkpt>
      <trkpt lat="40.95132744871079921722412109375" lon="-1.30998778156936168670654296875">
        <ele>858.4000244140625</ele>
        <time>2022-05-02T14:31:25.000Z</time>
      </trkpt>
      <trkpt lat="40.95122753642499446868896484375" lon="-1.309958361089229583740234375">
        <ele>858</ele>
        <time>2022-05-02T14:31:27.000Z</time>
      </trkpt>
      <trkpt lat="40.9511771611869335174560546875" lon="-1.30994218401610851287841796875">
        <ele>858.20001220703125</ele>
        <time>2022-05-02T14:31:28.000Z</time>
      </trkpt>
      <trkpt lat="40.95112527720630168914794921875" lon="-1.30992424674332141876220703125">
        <ele>858.4000244140625</ele>
        <time>2022-05-02T14:31:29.000Z</time>
      </trkpt>
      <trkpt lat="40.95102603547275066375732421875" lon="-1.30988652817904949188232421875">
        <ele>858.79998779296875</ele>
        <time>2022-05-02T14:31:31.000Z</time>
      </trkpt>
      <trkpt lat="40.950931571424007415771484375" lon="-1.30985048599541187286376953125">
        <ele>859.20001220703125</ele>
        <time>2022-05-02T14:31:33.000Z</time>
      </trkpt>
      <trkpt lat="40.95088429749011993408203125" lon="-1.30982927978038787841796875">
        <ele>859.5999755859375</ele>
        <time>2022-05-02T14:31:34.000Z</time>
      </trkpt>
      <trkpt lat="40.950837023556232452392578125" lon="-1.30980589427053928375244140625">
        <ele>859.79998779296875</ele>
        <time>2022-05-02T14:31:35.000Z</time>
      </trkpt>
      <trkpt lat="40.95074323005974292755126953125" lon="-1.30976029671728610992431640625">
        <ele>860.20001220703125</ele>
        <time>2022-05-02T14:31:37.000Z</time>
      </trkpt>
      <trkpt lat="40.9506960399448871612548828125" lon="-1.30973917432129383087158203125">
        <ele>860.20001220703125</ele>
        <time>2022-05-02T14:31:38.000Z</time>
      </trkpt>
      <trkpt lat="40.95064817927777767181396484375" lon="-1.30972073413431644439697265625">
        <ele>860</ele>
        <time>2022-05-02T14:31:39.000Z</time>
      </trkpt>
      <trkpt lat="40.95060023479163646697998046875" lon="-1.309700869023799896240234375">
        <ele>860</ele>
        <time>2022-05-02T14:31:40.000Z</time>
      </trkpt>
      <trkpt lat="40.95055245794355869293212890625" lon="-1.30967639386653900146484375">
        <ele>860</ele>
        <time>2022-05-02T14:31:41.000Z</time>
      </trkpt>
      <trkpt lat="40.9504576586186885833740234375" lon="-1.30962501280009746551513671875">
        <ele>860</ele>
        <time>2022-05-02T14:31:43.000Z</time>
      </trkpt>
      <trkpt lat="40.95036327838897705078125" lon="-1.30956751294434070587158203125">
        <ele>859.79998779296875</ele>
        <time>2022-05-02T14:31:45.000Z</time>
      </trkpt>
      <trkpt lat="40.95031432807445526123046875" lon="-1.309540607035160064697265625">
        <ele>859.5999755859375</ele>
        <time>2022-05-02T14:31:46.000Z</time>
      </trkpt>
      <trkpt lat="40.95026546157896518707275390625" lon="-1.309513114392757415771484375">
        <ele>859.5999755859375</ele>
        <time>2022-05-02T14:31:47.000Z</time>
      </trkpt>
      <trkpt lat="40.9501679800450801849365234375" lon="-1.30944907665252685546875">
        <ele>859.20001220703125</ele>
        <time>2022-05-02T14:31:49.000Z</time>
      </trkpt>
      <trkpt lat="40.95006882213056087493896484375" lon="-1.30939333699643611907958984375">
        <ele>858.79998779296875</ele>
        <time>2022-05-02T14:31:51.000Z</time>
      </trkpt>
      <trkpt lat="40.9499728493392467498779296875" lon="-1.30933449603617191314697265625">
        <ele>858.20001220703125</ele>
        <time>2022-05-02T14:31:53.000Z</time>
      </trkpt>
      <trkpt lat="40.94987754710018634796142578125" lon="-1.30927632562816143035888671875">
        <ele>858</ele>
        <time>2022-05-02T14:31:55.000Z</time>
      </trkpt>
      <trkpt lat="40.94978299923241138458251953125" lon="-1.30920927040278911590576171875">
        <ele>858.20001220703125</ele>
        <time>2022-05-02T14:31:57.000Z</time>
      </trkpt>
      <trkpt lat="40.949691049754619598388671875" lon="-1.3091474957764148712158203125">
        <ele>858.5999755859375</ele>
        <time>2022-05-02T14:31:59.000Z</time>
      </trkpt>
      <trkpt lat="40.9495980106294155120849609375" lon="-1.309080608189105987548828125">
        <ele>859</ele>
        <time>2022-05-02T14:32:01.000Z</time>
      </trkpt>
      <trkpt lat="40.9495044685900211334228515625" lon="-1.3090107031166553497314453125">
        <ele>859.4000244140625</ele>
        <time>2022-05-02T14:32:03.000Z</time>
      </trkpt>
      <trkpt lat="40.94941218383610248565673828125" lon="-1.3089409656822681427001953125">
        <ele>859.5999755859375</ele>
        <time>2022-05-02T14:32:05.000Z</time>
      </trkpt>
      <trkpt lat="40.9493224136531352996826171875" lon="-1.30887332372367382049560546875">
        <ele>859.79998779296875</ele>
        <time>2022-05-02T14:32:07.000Z</time>
      </trkpt>
      <trkpt lat="40.94923415221273899078369140625" lon="-1.3088021613657474517822265625">
        <ele>859.79998779296875</ele>
        <time>2022-05-02T14:32:09.000Z</time>
      </trkpt>
      <trkpt lat="40.94914245419204235076904296875" lon="-1.3087277300655841827392578125">
        <ele>859.4000244140625</ele>
        <time>2022-05-02T14:32:11.000Z</time>
      </trkpt>
      <trkpt lat="40.9490531869232654571533203125" lon="-1.30865581333637237548828125">
        <ele>859.5999755859375</ele>
        <time>2022-05-02T14:32:13.000Z</time>
      </trkpt>
      <trkpt lat="40.9489650093019008636474609375" lon="-1.30858498625457286834716796875">
        <ele>859.79998779296875</ele>
        <time>2022-05-02T14:32:15.000Z</time>
      </trkpt>
      <trkpt lat="40.948920585215091705322265625" lon="-1.3085527159273624420166015625">
        <ele>859.5999755859375</ele>
        <time>2022-05-02T14:32:16.000Z</time>
      </trkpt>
      <trkpt lat="40.94887976534664630889892578125" lon="-1.30852564238011837005615234375">
        <ele>859.5999755859375</ele>
        <time>2022-05-02T14:32:17.000Z</time>
      </trkpt>
      <trkpt lat="40.94883785583078861236572265625" lon="-1.30849479697644710540771484375">
        <ele>859.4000244140625</ele>
        <time>2022-05-02T14:32:18.000Z</time>
      </trkpt>
      <trkpt lat="40.9487970359623432159423828125" lon="-1.308459006249904632568359375">
        <ele>859.4000244140625</ele>
        <time>2022-05-02T14:32:19.000Z</time>
      </trkpt>
      <trkpt lat="40.9487557969987392425537109375" lon="-1.3084232993423938751220703125">
        <ele>859.4000244140625</ele>
        <time>2022-05-02T14:32:20.000Z</time>
      </trkpt>
      <trkpt lat="40.9487145580351352691650390625" lon="-1.30838734097778797149658203125">
        <ele>859.5999755859375</ele>
        <time>2022-05-02T14:32:21.000Z</time>
      </trkpt>
      <trkpt lat="40.94862990081310272216796875" lon="-1.30832112394273281097412109375">
        <ele>859.79998779296875</ele>
        <time>2022-05-02T14:32:23.000Z</time>
      </trkpt>
      <trkpt lat="40.94858723692595958709716796875" lon="-1.30828608758747577667236328125">
        <ele>860</ele>
        <time>2022-05-02T14:32:24.000Z</time>
      </trkpt>
      <trkpt lat="40.9485442377626895904541015625" lon="-1.30825306288897991180419921875">
        <ele>860</ele>
        <time>2022-05-02T14:32:25.000Z</time>
      </trkpt>
      <trkpt lat="40.948501490056514739990234375" lon="-1.30822070874273777008056640625">
        <ele>860</ele>
        <time>2022-05-02T14:32:26.000Z</time>
      </trkpt>
      <trkpt lat="40.948458574712276458740234375" lon="-1.3081876002252101898193359375">
        <ele>860.4000244140625</ele>
        <time>2022-05-02T14:32:27.000Z</time>
      </trkpt>
      <trkpt lat="40.9483752585947513580322265625" lon="-1.30812079645693302154541015625">
        <ele>860.5999755859375</ele>
        <time>2022-05-02T14:32:29.000Z</time>
      </trkpt>
      <trkpt lat="40.94829336740076541900634765625" lon="-1.30805524997413158416748046875">
        <ele>860.79998779296875</ele>
        <time>2022-05-02T14:32:31.000Z</time>
      </trkpt>
      <trkpt lat="40.94821491278707981109619140625" lon="-1.30799330770969390869140625">
        <ele>861</ele>
        <time>2022-05-02T14:32:33.000Z</time>
      </trkpt>
      <trkpt lat="40.9481345303356647491455078125" lon="-1.307925917208194732666015625">
        <ele>860.79998779296875</ele>
        <time>2022-05-02T14:32:35.000Z</time>
      </trkpt>
      <trkpt lat="40.94805565662682056427001953125" lon="-1.3078627176582813262939453125">
        <ele>860.5999755859375</ele>
        <time>2022-05-02T14:32:37.000Z</time>
      </trkpt>
      <trkpt lat="40.94797502271831035614013671875" lon="-1.30779524333775043487548828125">
        <ele>860.20001220703125</ele>
        <time>2022-05-02T14:32:39.000Z</time>
      </trkpt>
      <trkpt lat="40.94789505936205387115478515625" lon="-1.3077329657971858978271484375">
        <ele>860</ele>
        <time>2022-05-02T14:32:41.000Z</time>
      </trkpt>
      <trkpt lat="40.9478190355002880096435546875" lon="-1.3076752983033657073974609375">
        <ele>860.20001220703125</ele>
        <time>2022-05-02T14:32:43.000Z</time>
      </trkpt>
      <trkpt lat="40.94774787314236164093017578125" lon="-1.30762182176113128662109375">
        <ele>860.5999755859375</ele>
        <time>2022-05-02T14:32:45.000Z</time>
      </trkpt>
      <trkpt lat="40.94766807742416858673095703125" lon="-1.307564489543437957763671875">
        <ele>860.79998779296875</ele>
        <time>2022-05-02T14:32:47.000Z</time>
      </trkpt>
      <trkpt lat="40.9476316161453723907470703125" lon="-1.3075321353971958160400390625">
        <ele>861</ele>
        <time>2022-05-02T14:32:48.000Z</time>
      </trkpt>
      <trkpt lat="40.9475930593907833099365234375" lon="-1.30749709904193878173828125">
        <ele>861.20001220703125</ele>
        <time>2022-05-02T14:32:49.000Z</time>
      </trkpt>
      <trkpt lat="40.94751083292067050933837890625" lon="-1.307433061301708221435546875">
        <ele>861.4000244140625</ele>
        <time>2022-05-02T14:32:51.000Z</time>
      </trkpt>
      <trkpt lat="40.94746976159512996673583984375" lon="-1.30739785730838775634765625">
        <ele>861.4000244140625</ele>
        <time>2022-05-02T14:32:52.000Z</time>
      </trkpt>
      <trkpt lat="40.94742684625089168548583984375" lon="-1.30736642517149448394775390625">
        <ele>861.4000244140625</ele>
        <time>2022-05-02T14:32:53.000Z</time>
      </trkpt>
      <trkpt lat="40.94734453596174716949462890625" lon="-1.30730456672608852386474609375">
        <ele>861.4000244140625</ele>
        <time>2022-05-02T14:32:55.000Z</time>
      </trkpt>
      <trkpt lat="40.94726306386291980743408203125" lon="-1.30723985843360424041748046875">
        <ele>861.4000244140625</ele>
        <time>2022-05-02T14:32:57.000Z</time>
      </trkpt>
      <trkpt lat="40.94717974774539470672607421875" lon="-1.3071717135608196258544921875">
        <ele>861.5999755859375</ele>
        <time>2022-05-02T14:32:59.000Z</time>
      </trkpt>
      <trkpt lat="40.94709961675107479095458984375" lon="-1.30710859782993793487548828125">
        <ele>861.79998779296875</ele>
        <time>2022-05-02T14:33:01.000Z</time>
      </trkpt>
      <trkpt lat="40.94701847992837429046630859375" lon="-1.30704221315681934356689453125">
        <ele>862.20001220703125</ele>
        <time>2022-05-02T14:33:03.000Z</time>
      </trkpt>
      <trkpt lat="40.94698025844991207122802734375" lon="-1.3070096075534820556640625">
        <ele>862.4000244140625</ele>
        <time>2022-05-02T14:33:04.000Z</time>
      </trkpt>
      <trkpt lat="40.9469409473240375518798828125" lon="-1.306977085769176483154296875">
        <ele>862.4000244140625</ele>
        <time>2022-05-02T14:33:05.000Z</time>
      </trkpt>
      <trkpt lat="40.94685788266360759735107421875" lon="-1.30691212601959705352783203125">
        <ele>862</ele>
        <time>2022-05-02T14:33:07.000Z</time>
      </trkpt>
      <trkpt lat="40.94677657820284366607666015625" lon="-1.306842975318431854248046875">
        <ele>862.20001220703125</ele>
        <time>2022-05-02T14:33:09.000Z</time>
      </trkpt>
      <trkpt lat="40.9466978721320629119873046875" lon="-1.30677650682628154754638671875">
        <ele>862.4000244140625</ele>
        <time>2022-05-02T14:33:11.000Z</time>
      </trkpt>
      <trkpt lat="40.94661556184291839599609375" lon="-1.30670878104865550994873046875">
        <ele>862.5999755859375</ele>
        <time>2022-05-02T14:33:13.000Z</time>
      </trkpt>
      <trkpt lat="40.9465738199651241302490234375" lon="-1.3066743314266204833984375">
        <ele>862.79998779296875</ele>
        <time>2022-05-02T14:33:14.000Z</time>
      </trkpt>
      <trkpt lat="40.9465325810015201568603515625" lon="-1.30664004944264888763427734375">
        <ele>863</ele>
        <time>2022-05-02T14:33:15.000Z</time>
      </trkpt>
      <trkpt lat="40.94645370729267597198486328125" lon="-1.30657232366502285003662109375">
        <ele>863.20001220703125</ele>
        <time>2022-05-02T14:33:17.000Z</time>
      </trkpt>
      <trkpt lat="40.94637106172740459442138671875" lon="-1.30650937557220458984375">
        <ele>863.4000244140625</ele>
        <time>2022-05-02T14:33:19.000Z</time>
      </trkpt>
      <trkpt lat="40.94629260711371898651123046875" lon="-1.30644475109875202178955078125">
        <ele>864</ele>
        <time>2022-05-02T14:33:21.000Z</time>
      </trkpt>
      <trkpt lat="40.9462120570242404937744140625" lon="-1.30638255737721920013427734375">
        <ele>864.79998779296875</ele>
        <time>2022-05-02T14:33:23.000Z</time>
      </trkpt>
      <trkpt lat="40.94613167457282543182373046875" lon="-1.3063170947134494781494140625">
        <ele>864.5999755859375</ele>
        <time>2022-05-02T14:33:25.000Z</time>
      </trkpt>
      <trkpt lat="40.94605120830237865447998046875" lon="-1.3062577508389949798583984375">
        <ele>864</ele>
        <time>2022-05-02T14:33:27.000Z</time>
      </trkpt>
      <trkpt lat="40.9460113942623138427734375" lon="-1.30622598342597484588623046875">
        <ele>864</ele>
        <time>2022-05-02T14:33:28.000Z</time>
      </trkpt>
      <trkpt lat="40.945970825850963592529296875" lon="-1.30619413219392299652099609375">
        <ele>864</ele>
        <time>2022-05-02T14:33:29.000Z</time>
      </trkpt>
      <trkpt lat="40.94589245505630970001220703125" lon="-1.306136883795261383056640625">
        <ele>863.79998779296875</ele>
        <time>2022-05-02T14:33:31.000Z</time>
      </trkpt>
      <trkpt lat="40.94581232406198978424072265625" lon="-1.3060761988162994384765625">
        <ele>864</ele>
        <time>2022-05-02T14:33:33.000Z</time>
      </trkpt>
      <trkpt lat="40.945732109248638153076171875" lon="-1.30601383745670318603515625">
        <ele>864</ele>
        <time>2022-05-02T14:33:35.000Z</time>
      </trkpt>
      <trkpt lat="40.94565474428236484527587890625" lon="-1.30594871006906032562255859375">
        <ele>864.5999755859375</ele>
        <time>2022-05-02T14:33:37.000Z</time>
      </trkpt>
      <trkpt lat="40.9455767087638378143310546875" lon="-1.30588785745203495025634765625">
        <ele>865.4000244140625</ele>
        <time>2022-05-02T14:33:39.000Z</time>
      </trkpt>
      <trkpt lat="40.945500098168849945068359375" lon="-1.30583136342465877532958984375">
        <ele>866.20001220703125</ele>
        <time>2022-05-02T14:33:41.000Z</time>
      </trkpt>
      <trkpt lat="40.9454281814396381378173828125" lon="-1.30576984025537967681884765625">
        <ele>866.79998779296875</ele>
        <time>2022-05-02T14:33:43.000Z</time>
      </trkpt>
      <trkpt lat="40.9453537501394748687744140625" lon="-1.305707730352878570556640625">
        <ele>866.79998779296875</ele>
        <time>2022-05-02T14:33:45.000Z</time>
      </trkpt>
      <trkpt lat="40.94527755863964557647705078125" lon="-1.3056475482881069183349609375">
        <ele>866.5999755859375</ele>
        <time>2022-05-02T14:33:47.000Z</time>
      </trkpt>
      <trkpt lat="40.94520145095884799957275390625" lon="-1.3055878691375255584716796875">
        <ele>866.79998779296875</ele>
        <time>2022-05-02T14:33:49.000Z</time>
      </trkpt>
      <trkpt lat="40.9451254270970821380615234375" lon="-1.30552357994019985198974609375">
        <ele>867</ele>
        <time>2022-05-02T14:33:51.000Z</time>
      </trkpt>
      <trkpt lat="40.9450476430356502532958984375" lon="-1.30545887164771556854248046875">
        <ele>867.5999755859375</ele>
        <time>2022-05-02T14:33:53.000Z</time>
      </trkpt>
      <trkpt lat="40.9450087510049343109130859375" lon="-1.3054276071488857269287109375">
        <ele>867.79998779296875</ele>
        <time>2022-05-02T14:33:54.000Z</time>
      </trkpt>
      <trkpt lat="40.94496876932680606842041015625" lon="-1.3053964264690876007080078125">
        <ele>868.20001220703125</ele>
        <time>2022-05-02T14:33:55.000Z</time>
      </trkpt>
      <trkpt lat="40.94489090144634246826171875" lon="-1.30532643757760524749755859375">
        <ele>868.5999755859375</ele>
        <time>2022-05-02T14:33:57.000Z</time>
      </trkpt>
      <trkpt lat="40.9448501653969287872314453125" lon="-1.305295340716838836669921875">
        <ele>869</ele>
        <time>2022-05-02T14:33:58.000Z</time>
      </trkpt>
      <trkpt lat="40.9448079206049442291259765625" lon="-1.3052656687796115875244140625">
        <ele>869.4000244140625</ele>
        <time>2022-05-02T14:33:59.000Z</time>
      </trkpt>
      <trkpt lat="40.94472368247807025909423828125" lon="-1.3051976077258586883544921875">
        <ele>869.79998779296875</ele>
        <time>2022-05-02T14:34:01.000Z</time>
      </trkpt>
      <trkpt lat="40.94463885761797428131103515625" lon="-1.30512912757694721221923828125">
        <ele>870.5999755859375</ele>
        <time>2022-05-02T14:34:03.000Z</time>
      </trkpt>
      <trkpt lat="40.94455352984368801116943359375" lon="-1.30505251698195934295654296875">
        <ele>871.5999755859375</ele>
        <time>2022-05-02T14:34:05.000Z</time>
      </trkpt>
      <trkpt lat="40.94446585513651371002197265625" lon="-1.30497850477695465087890625">
        <ele>872.20001220703125</ele>
        <time>2022-05-02T14:34:07.000Z</time>
      </trkpt>
      <trkpt lat="40.94437549822032451629638671875" lon="-1.30490533076226711273193359375">
        <ele>872.5999755859375</ele>
        <time>2022-05-02T14:34:09.000Z</time>
      </trkpt>
      <trkpt lat="40.94428430311381816864013671875" lon="-1.30483240820467472076416015625">
        <ele>872.5999755859375</ele>
        <time>2022-05-02T14:34:11.000Z</time>
      </trkpt>
      <trkpt lat="40.944193191826343536376953125" lon="-1.3047620840370655059814453125">
        <ele>872</ele>
        <time>2022-05-02T14:34:13.000Z</time>
      </trkpt>
      <trkpt lat="40.94410241581499576568603515625" lon="-1.30468572489917278289794921875">
        <ele>872</ele>
        <time>2022-05-02T14:34:15.000Z</time>
      </trkpt>
      <trkpt lat="40.94401390291750431060791015625" lon="-1.304613053798675537109375">
        <ele>871.5999755859375</ele>
        <time>2022-05-02T14:34:17.000Z</time>
      </trkpt>
      <trkpt lat="40.9439355321228504180908203125" lon="-1.304538957774639129638671875">
        <ele>870.79998779296875</ele>
        <time>2022-05-02T14:34:19.000Z</time>
      </trkpt>
      <trkpt lat="40.94385783188045024871826171875" lon="-1.304476261138916015625">
        <ele>870.4000244140625</ele>
        <time>2022-05-02T14:34:21.000Z</time>
      </trkpt>
      <trkpt lat="40.94377753324806690216064453125" lon="-1.30442035384476184844970703125">
        <ele>870.20001220703125</ele>
        <time>2022-05-02T14:34:23.000Z</time>
      </trkpt>
      <trkpt lat="40.94373646192252635955810546875" lon="-1.30439369939267635345458984375">
        <ele>870</ele>
        <time>2022-05-02T14:34:24.000Z</time>
      </trkpt>
      <trkpt lat="40.94369463622570037841796875" lon="-1.30436562001705169677734375">
        <ele>870</ele>
        <time>2022-05-02T14:34:25.000Z</time>
      </trkpt>
      <trkpt lat="40.94361056573688983917236328125" lon="-1.30430099554359912872314453125">
        <ele>869.79998779296875</ele>
        <time>2022-05-02T14:34:27.000Z</time>
      </trkpt>
      <trkpt lat="40.9435251541435718536376953125" lon="-1.3042283244431018829345703125">
        <ele>869.5999755859375</ele>
        <time>2022-05-02T14:34:29.000Z</time>
      </trkpt>
      <trkpt lat="40.94343940727412700653076171875" lon="-1.3041572459042072296142578125">
        <ele>869.5999755859375</ele>
        <time>2022-05-02T14:34:31.000Z</time>
      </trkpt>
      <trkpt lat="40.943354330956935882568359375" lon="-1.30408675409853458404541015625">
        <ele>869.20001220703125</ele>
        <time>2022-05-02T14:34:33.000Z</time>
      </trkpt>
      <trkpt lat="40.94327260740101337432861328125" lon="-1.30401835776865482330322265625">
        <ele>869</ele>
        <time>2022-05-02T14:34:35.000Z</time>
      </trkpt>
      <trkpt lat="40.94319029711186885833740234375" lon="-1.303952895104885101318359375">
        <ele>869.4000244140625</ele>
        <time>2022-05-02T14:34:37.000Z</time>
      </trkpt>
      <trkpt lat="40.94310748390853404998779296875" lon="-1.30388726480305194854736328125">
        <ele>869.79998779296875</ele>
        <time>2022-05-02T14:34:39.000Z</time>
      </trkpt>
      <trkpt lat="40.9430272690951824188232421875" lon="-1.30381652154028415679931640625">
        <ele>869.4000244140625</ele>
        <time>2022-05-02T14:34:41.000Z</time>
      </trkpt>
      <trkpt lat="40.9429431147873401641845703125" lon="-1.3037482090294361114501953125">
        <ele>869.4000244140625</ele>
        <time>2022-05-02T14:34:43.000Z</time>
      </trkpt>
      <trkpt lat="40.94285736791789531707763671875" lon="-1.3036831654608249664306640625">
        <ele>869.20001220703125</ele>
        <time>2022-05-02T14:34:45.000Z</time>
      </trkpt>
      <trkpt lat="40.942772962152957916259765625" lon="-1.30361854098737239837646484375">
        <ele>869.20001220703125</ele>
        <time>2022-05-02T14:34:47.000Z</time>
      </trkpt>
      <trkpt lat="40.94273046590387821197509765625" lon="-1.30358752794563770294189453125">
        <ele>869</ele>
        <time>2022-05-02T14:34:48.000Z</time>
      </trkpt>
      <trkpt lat="40.94268905930221080780029296875" lon="-1.3035567663609981536865234375">
        <ele>868.79998779296875</ele>
        <time>2022-05-02T14:34:49.000Z</time>
      </trkpt>
      <trkpt lat="40.9426049888134002685546875" lon="-1.3034985959529876708984375">
        <ele>868.5999755859375</ele>
        <time>2022-05-02T14:34:51.000Z</time>
      </trkpt>
      <trkpt lat="40.942523181438446044921875" lon="-1.30343581549823284149169921875">
        <ele>868.4000244140625</ele>
        <time>2022-05-02T14:34:53.000Z</time>
      </trkpt>
      <trkpt lat="40.9424412064254283905029296875" lon="-1.30336842499673366546630859375">
        <ele>868.20001220703125</ele>
        <time>2022-05-02T14:34:55.000Z</time>
      </trkpt>
      <trkpt lat="40.94240038655698299407958984375" lon="-1.30333791486918926239013671875">
        <ele>868.20001220703125</ele>
        <time>2022-05-02T14:34:56.000Z</time>
      </trkpt>
      <trkpt lat="40.94235881231725215911865234375" lon="-1.30330589599907398223876953125">
        <ele>868.20001220703125</ele>
        <time>2022-05-02T14:34:57.000Z</time>
      </trkpt>
      <trkpt lat="40.9422750771045684814453125" lon="-1.30324236117303371429443359375">
        <ele>868.20001220703125</ele>
        <time>2022-05-02T14:34:59.000Z</time>
      </trkpt>
      <trkpt lat="40.9421877376735210418701171875" lon="-1.30318486131727695465087890625">
        <ele>868.20001220703125</ele>
        <time>2022-05-02T14:35:01.000Z</time>
      </trkpt>
      <trkpt lat="40.94210199080407619476318359375" lon="-1.303126774728298187255859375">
        <ele>868.79998779296875</ele>
        <time>2022-05-02T14:35:03.000Z</time>
      </trkpt>
      <trkpt lat="40.942059494554996490478515625" lon="-1.30309819243848323822021484375">
        <ele>869</ele>
        <time>2022-05-02T14:35:04.000Z</time>
      </trkpt>
      <trkpt lat="40.94201632775366306304931640625" lon="-1.30307187326252460479736328125">
        <ele>869.20001220703125</ele>
        <time>2022-05-02T14:35:05.000Z</time>
      </trkpt>
      <trkpt lat="40.9419325925409793853759765625" lon="-1.303022168576717376708984375">
        <ele>869.4000244140625</ele>
        <time>2022-05-02T14:35:07.000Z</time>
      </trkpt>
      <trkpt lat="40.94185120426118373870849609375" lon="-1.3029693625867366790771484375">
        <ele>869.79998779296875</ele>
        <time>2022-05-02T14:35:09.000Z</time>
      </trkpt>
      <trkpt lat="40.9417686425149440765380859375" lon="-1.30291496403515338897705078125">
        <ele>870</ele>
        <time>2022-05-02T14:35:11.000Z</time>
      </trkpt>
      <trkpt lat="40.94168675132095813751220703125" lon="-1.3028597272932529449462890625">
        <ele>870</ele>
        <time>2022-05-02T14:35:13.000Z</time>
      </trkpt>
      <trkpt lat="40.94160092063248157501220703125" lon="-1.3028097711503505706787109375">
        <ele>869.20001220703125</ele>
        <time>2022-05-02T14:35:15.000Z</time>
      </trkpt>
      <trkpt lat="40.94151131808757781982421875" lon="-1.30276660434901714324951171875">
        <ele>868.4000244140625</ele>
        <time>2022-05-02T14:35:17.000Z</time>
      </trkpt>
      <trkpt lat="40.941421128809452056884765625" lon="-1.3027202524244785308837890625">
        <ele>868</ele>
        <time>2022-05-02T14:35:19.000Z</time>
      </trkpt>
      <trkpt lat="40.9413314424455165863037109375" lon="-1.3026724755764007568359375">
        <ele>867.79998779296875</ele>
        <time>2022-05-02T14:35:21.000Z</time>
      </trkpt>
      <trkpt lat="40.94128467142581939697265625" lon="-1.30265026353299617767333984375">
        <ele>867.5999755859375</ele>
        <time>2022-05-02T14:35:22.000Z</time>
      </trkpt>
      <trkpt lat="40.94123764894902706146240234375" lon="-1.3026283867657184600830078125">
        <ele>867.4000244140625</ele>
        <time>2022-05-02T14:35:23.000Z</time>
      </trkpt>
      <trkpt lat="40.94114410690963268280029296875" lon="-1.30258304066956043243408203125">
        <ele>867</ele>
        <time>2022-05-02T14:35:25.000Z</time>
      </trkpt>
      <trkpt lat="40.94105190597474575042724609375" lon="-1.3025388680398464202880859375">
        <ele>867.4000244140625</ele>
        <time>2022-05-02T14:35:27.000Z</time>
      </trkpt>
      <trkpt lat="40.94100446440279483795166015625" lon="-1.30251833237707614898681640625">
        <ele>867.5999755859375</ele>
        <time>2022-05-02T14:35:28.000Z</time>
      </trkpt>
      <trkpt lat="40.94095786102116107940673828125" lon="-1.3025006465613842010498046875">
        <ele>868</ele>
        <time>2022-05-02T14:35:29.000Z</time>
      </trkpt>
      <trkpt lat="40.94086490571498870849609375" lon="-1.302465610206127166748046875">
        <ele>868.5999755859375</ele>
        <time>2022-05-02T14:35:31.000Z</time>
      </trkpt>
      <trkpt lat="40.9407738782465457916259765625" lon="-1.30242780782282352447509765625">
        <ele>869.4000244140625</ele>
        <time>2022-05-02T14:35:33.000Z</time>
      </trkpt>
      <trkpt lat="40.94067941419780254364013671875" lon="-1.3023896701633930206298828125">
        <ele>869.5999755859375</ele>
        <time>2022-05-02T14:35:35.000Z</time>
      </trkpt>
      <trkpt lat="40.94058327376842498779296875" lon="-1.3023480959236621856689453125">
        <ele>869.5999755859375</ele>
        <time>2022-05-02T14:35:37.000Z</time>
      </trkpt>
      <trkpt lat="40.94048897735774517059326171875" lon="-1.30231968127191066741943359375">
        <ele>869.79998779296875</ele>
        <time>2022-05-02T14:35:39.000Z</time>
      </trkpt>
      <trkpt lat="40.940393172204494476318359375" lon="-1.3022917695343494415283203125">
        <ele>869.79998779296875</ele>
        <time>2022-05-02T14:35:41.000Z</time>
      </trkpt>
      <trkpt lat="40.9402967803180217742919921875" lon="-1.3022594153881072998046875">
        <ele>869.4000244140625</ele>
        <time>2022-05-02T14:35:43.000Z</time>
      </trkpt>
      <trkpt lat="40.94020315445959568023681640625" lon="-1.302222199738025665283203125">
        <ele>869.20001220703125</ele>
        <time>2022-05-02T14:35:45.000Z</time>
      </trkpt>
      <trkpt lat="40.94010852277278900146484375" lon="-1.3021871633827686309814453125">
        <ele>869</ele>
        <time>2022-05-02T14:35:47.000Z</time>
      </trkpt>
      <trkpt lat="40.940015651285648345947265625" lon="-1.3021579943597316741943359375">
        <ele>868.20001220703125</ele>
        <time>2022-05-02T14:35:49.000Z</time>
      </trkpt>
      <trkpt lat="40.9399226121604442596435546875" lon="-1.3021311722695827484130859375">
        <ele>867.4000244140625</ele>
        <time>2022-05-02T14:35:51.000Z</time>
      </trkpt>
      <trkpt lat="40.9398294053971767425537109375" lon="-1.30210585892200469970703125">
        <ele>866.79998779296875</ele>
        <time>2022-05-02T14:35:53.000Z</time>
      </trkpt>
      <trkpt lat="40.93973695300519466400146484375" lon="-1.30208062939345836639404296875">
        <ele>866.4000244140625</ele>
        <time>2022-05-02T14:35:55.000Z</time>
      </trkpt>
      <trkpt lat="40.9396902658045291900634765625" lon="-1.3020671345293521881103515625">
        <ele>866</ele>
        <time>2022-05-02T14:35:56.000Z</time>
      </trkpt>
      <trkpt lat="40.93964181840419769287109375" lon="-1.30205280147492885589599609375">
        <ele>866</ele>
        <time>2022-05-02T14:35:57.000Z</time>
      </trkpt>
      <trkpt lat="40.939546935260295867919921875" lon="-1.30203075706958770751953125">
        <ele>866.20001220703125</ele>
        <time>2022-05-02T14:35:59.000Z</time>
      </trkpt>
      <trkpt lat="40.93945280648767948150634765625" lon="-1.30201399326324462890625">
        <ele>866.79998779296875</ele>
        <time>2022-05-02T14:36:01.000Z</time>
      </trkpt>
      <trkpt lat="40.93936177901923656463623046875" lon="-1.30199161358177661895751953125">
        <ele>867.20001220703125</ele>
        <time>2022-05-02T14:36:03.000Z</time>
      </trkpt>
      <trkpt lat="40.93926991336047649383544921875" lon="-1.30197702907025814056396484375">
        <ele>867.4000244140625</ele>
        <time>2022-05-02T14:36:05.000Z</time>
      </trkpt>
      <trkpt lat="40.939176790416240692138671875" lon="-1.30196546204388141632080078125">
        <ele>867.4000244140625</ele>
        <time>2022-05-02T14:36:07.000Z</time>
      </trkpt>
      <trkpt lat="40.93908383511006832122802734375" lon="-1.301953308284282684326171875">
        <ele>867.79998779296875</ele>
        <time>2022-05-02T14:36:09.000Z</time>
      </trkpt>
      <trkpt lat="40.9389902092516422271728515625" lon="-1.30193679593503475189208984375">
        <ele>868</ele>
        <time>2022-05-02T14:36:11.000Z</time>
      </trkpt>
      <trkpt lat="40.93889624811708927154541015625" lon="-1.30192573182284832000732421875">
        <ele>868.4000244140625</ele>
        <time>2022-05-02T14:36:13.000Z</time>
      </trkpt>
      <trkpt lat="40.93880320899188518524169921875" lon="-1.30191273987293243408203125">
        <ele>868.79998779296875</ele>
        <time>2022-05-02T14:36:15.000Z</time>
      </trkpt>
      <trkpt lat="40.93870975077152252197265625" lon="-1.30190880037844181060791015625">
        <ele>869.20001220703125</ele>
        <time>2022-05-02T14:36:17.000Z</time>
      </trkpt>
      <trkpt lat="40.93861361034214496612548828125" lon="-1.30190041847527027130126953125">
        <ele>869.79998779296875</ele>
        <time>2022-05-02T14:36:19.000Z</time>
      </trkpt>
      <trkpt lat="40.93856533057987689971923828125" lon="-1.301896981894969940185546875">
        <ele>870.20001220703125</ele>
        <time>2022-05-02T14:36:20.000Z</time>
      </trkpt>
      <trkpt lat="40.938517637550830841064453125" lon="-1.301898658275604248046875">
        <ele>870.5999755859375</ele>
        <time>2022-05-02T14:36:21.000Z</time>
      </trkpt>
      <trkpt lat="40.93846910633146762847900390625" lon="-1.30190008319914340972900390625">
        <ele>870.79998779296875</ele>
        <time>2022-05-02T14:36:22.000Z</time>
      </trkpt>
      <trkpt lat="40.93842065893113613128662109375" lon="-1.30189790390431880950927734375">
        <ele>871</ele>
        <time>2022-05-02T14:36:23.000Z</time>
      </trkpt>
      <trkpt lat="40.9383241832256317138671875" lon="-1.301891617476940155029296875">
        <ele>871</ele>
        <time>2022-05-02T14:36:25.000Z</time>
      </trkpt>
      <trkpt lat="40.9382267855107784271240234375" lon="-1.30189002491533756256103515625">
        <ele>871</ele>
        <time>2022-05-02T14:36:27.000Z</time>
      </trkpt>
      <trkpt lat="40.9381312318146228790283203125" lon="-1.301887594163417816162109375">
        <ele>870.79998779296875</ele>
        <time>2022-05-02T14:36:29.000Z</time>
      </trkpt>
      <trkpt lat="40.93808303587138652801513671875" lon="-1.30188549868762493133544921875">
        <ele>870.5999755859375</ele>
        <time>2022-05-02T14:36:30.000Z</time>
      </trkpt>
      <trkpt lat="40.938035510480403900146484375" lon="-1.30188457667827606201171875">
        <ele>870.4000244140625</ele>
        <time>2022-05-02T14:36:31.000Z</time>
      </trkpt>
      <trkpt lat="40.93793995678424835205078125" lon="-1.30189086310565471649169921875">
        <ele>870.20001220703125</ele>
        <time>2022-05-02T14:36:33.000Z</time>
      </trkpt>
      <trkpt lat="40.937843061983585357666015625" lon="-1.30189505405724048614501953125">
        <ele>869.79998779296875</ele>
        <time>2022-05-02T14:36:35.000Z</time>
      </trkpt>
      <trkpt lat="40.9377453289926052093505859375" lon="-1.30190075375139713287353515625">
        <ele>869.5999755859375</ele>
        <time>2022-05-02T14:36:37.000Z</time>
      </trkpt>
      <trkpt lat="40.937695540487766265869140625" lon="-1.30190075375139713287353515625">
        <ele>869.4000244140625</ele>
        <time>2022-05-02T14:36:38.000Z</time>
      </trkpt>
      <trkpt lat="40.9376457519829273223876953125" lon="-1.30190066993236541748046875">
        <ele>869.20001220703125</ele>
        <time>2022-05-02T14:36:39.000Z</time>
      </trkpt>
      <trkpt lat="40.93754567205905914306640625" lon="-1.301905699074268341064453125">
        <ele>869.20001220703125</ele>
        <time>2022-05-02T14:36:41.000Z</time>
      </trkpt>
      <trkpt lat="40.93744785524904727935791015625" lon="-1.30191852338612079620361328125">
        <ele>869.4000244140625</ele>
        <time>2022-05-02T14:36:43.000Z</time>
      </trkpt>
      <trkpt lat="40.9373500384390354156494140625" lon="-1.3019276596605777740478515625">
        <ele>869.4000244140625</ele>
        <time>2022-05-02T14:36:45.000Z</time>
      </trkpt>
      <trkpt lat="40.93730167485773563385009765625" lon="-1.301934532821178436279296875">
        <ele>869.5999755859375</ele>
        <time>2022-05-02T14:36:46.000Z</time>
      </trkpt>
      <trkpt lat="40.93725406564772129058837890625" lon="-1.30193931050598621368408203125">
        <ele>869.79998779296875</ele>
        <time>2022-05-02T14:36:47.000Z</time>
      </trkpt>
      <trkpt lat="40.93715800903737545013427734375" lon="-1.301943920552730560302734375">
        <ele>869.79998779296875</ele>
        <time>2022-05-02T14:36:49.000Z</time>
      </trkpt>
      <trkpt lat="40.9370610304176807403564453125" lon="-1.30194886587560176849365234375">
        <ele>869.79998779296875</ele>
        <time>2022-05-02T14:36:51.000Z</time>
      </trkpt>
      <trkpt lat="40.9369607828557491302490234375" lon="-1.30195456556975841522216796875">
        <ele>870.4000244140625</ele>
        <time>2022-05-02T14:36:53.000Z</time>
      </trkpt>
      <trkpt lat="40.9368578530848026275634765625" lon="-1.301957666873931884765625">
        <ele>870.79998779296875</ele>
        <time>2022-05-02T14:36:55.000Z</time>
      </trkpt>
      <trkpt lat="40.93675735406577587127685546875" lon="-1.30196831189095973968505859375">
        <ele>871.20001220703125</ele>
        <time>2022-05-02T14:36:57.000Z</time>
      </trkpt>
      <trkpt lat="40.93670614063739776611328125" lon="-1.30197350867092609405517578125">
        <ele>871.20001220703125</ele>
        <time>2022-05-02T14:36:58.000Z</time>
      </trkpt>
      <trkpt lat="40.93665375374257564544677734375" lon="-1.3019777834415435791015625">
        <ele>871.4000244140625</ele>
        <time>2022-05-02T14:36:59.000Z</time>
      </trkpt>
      <trkpt lat="40.93654663302004337310791015625" lon="-1.30198641680181026458740234375">
        <ele>872</ele>
        <time>2022-05-02T14:37:01.000Z</time>
      </trkpt>
      <trkpt lat="40.93643900938332080841064453125" lon="-1.30199362523853778839111328125">
        <ele>872.20001220703125</ele>
        <time>2022-05-02T14:37:03.000Z</time>
      </trkpt>
      <trkpt lat="40.93633641488850116729736328125" lon="-1.3020064495503902435302734375">
        <ele>872.20001220703125</ele>
        <time>2022-05-02T14:37:05.000Z</time>
      </trkpt>
      <trkpt lat="40.9362365864217281341552734375" lon="-1.30201600492000579833984375">
        <ele>872.4000244140625</ele>
        <time>2022-05-02T14:37:07.000Z</time>
      </trkpt>
      <trkpt lat="40.93614346347749233245849609375" lon="-1.30202748812735080718994140625">
        <ele>872.20001220703125</ele>
        <time>2022-05-02T14:37:09.000Z</time>
      </trkpt>
      <trkpt lat="40.936054699122905731201171875" lon="-1.3020396418869495391845703125">
        <ele>872.20001220703125</ele>
        <time>2022-05-02T14:37:11.000Z</time>
      </trkpt>
      <trkpt lat="40.9359660185873508453369140625" lon="-1.3020503707230091094970703125">
        <ele>872.5999755859375</ele>
        <time>2022-05-02T14:37:13.000Z</time>
      </trkpt>
      <trkpt lat="40.93588010407984256744384765625" lon="-1.30205866880714893341064453125">
        <ele>872.5999755859375</ele>
        <time>2022-05-02T14:37:15.000Z</time>
      </trkpt>
      <trkpt lat="40.93578907661139965057373046875" lon="-1.3020631112158298492431640625">
        <ele>872.5999755859375</ele>
        <time>2022-05-02T14:37:17.000Z</time>
      </trkpt>
      <trkpt lat="40.93574188649654388427734375" lon="-1.3020641170442104339599609375">
        <ele>872.5999755859375</ele>
        <time>2022-05-02T14:37:18.000Z</time>
      </trkpt>
      <trkpt lat="40.93569469638168811798095703125" lon="-1.30206688307225704193115234375">
        <ele>872.5999755859375</ele>
        <time>2022-05-02T14:37:19.000Z</time>
      </trkpt>
      <trkpt lat="40.93559880740940570831298828125" lon="-1.30207543261349201202392578125">
        <ele>873</ele>
        <time>2022-05-02T14:37:21.000Z</time>
      </trkpt>
      <trkpt lat="40.93550241552293300628662109375" lon="-1.3020850718021392822265625">
        <ele>873.4000244140625</ele>
        <time>2022-05-02T14:37:23.000Z</time>
      </trkpt>
      <trkpt lat="40.93540619127452373504638671875" lon="-1.3020956330001354217529296875">
        <ele>873.4000244140625</ele>
        <time>2022-05-02T14:37:25.000Z</time>
      </trkpt>
      <trkpt lat="40.93530879355967044830322265625" lon="-1.3021070323884487152099609375">
        <ele>873.5999755859375</ele>
        <time>2022-05-02T14:37:27.000Z</time>
      </trkpt>
      <trkpt lat="40.935259424149990081787109375" lon="-1.30211231298744678497314453125">
        <ele>873.5999755859375</ele>
        <time>2022-05-02T14:37:28.000Z</time>
      </trkpt>
      <trkpt lat="40.935211144387722015380859375" lon="-1.302118264138698577880859375">
        <ele>873.5999755859375</ele>
        <time>2022-05-02T14:37:29.000Z</time>
      </trkpt>
      <trkpt lat="40.9351157583296298980712890625" lon="-1.30212857387959957122802734375">
        <ele>873.79998779296875</ele>
        <time>2022-05-02T14:37:31.000Z</time>
      </trkpt>
      <trkpt lat="40.935018025338649749755859375" lon="-1.30214097909629344940185546875">
        <ele>873.79998779296875</ele>
        <time>2022-05-02T14:37:33.000Z</time>
      </trkpt>
      <trkpt lat="40.93491920270025730133056640625" lon="-1.30214902572333812713623046875">
        <ele>873.79998779296875</ele>
        <time>2022-05-02T14:37:35.000Z</time>
      </trkpt>
      <trkpt lat="40.9348190389573574066162109375" lon="-1.30215522833168506622314453125">
        <ele>873.79998779296875</ele>
        <time>2022-05-02T14:37:37.000Z</time>
      </trkpt>
      <trkpt lat="40.93472004868090152740478515625" lon="-1.3021628558635711669921875">
        <ele>873.5999755859375</ele>
        <time>2022-05-02T14:37:39.000Z</time>
      </trkpt>
      <trkpt lat="40.9346705116331577301025390625" lon="-1.302166879177093505859375">
        <ele>873.4000244140625</ele>
        <time>2022-05-02T14:37:40.000Z</time>
      </trkpt>
      <trkpt lat="40.93462072312831878662109375" lon="-1.30217048339545726776123046875">
        <ele>873.20001220703125</ele>
        <time>2022-05-02T14:37:41.000Z</time>
      </trkpt>
      <trkpt lat="40.9345203079283237457275390625" lon="-1.30217802710831165313720703125">
        <ele>873</ele>
        <time>2022-05-02T14:37:43.000Z</time>
      </trkpt>
      <trkpt lat="40.9344214014708995819091796875" lon="-1.30218775011599063873291015625">
        <ele>873</ele>
        <time>2022-05-02T14:37:45.000Z</time>
      </trkpt>
      <trkpt lat="40.9343245066702365875244140625" lon="-1.30219982005655765533447265625">
        <ele>873.20001220703125</ele>
        <time>2022-05-02T14:37:47.000Z</time>
      </trkpt>
      <trkpt lat="40.9342319704592227935791015625" lon="-1.30221038125455379486083984375">
        <ele>873.20001220703125</ele>
        <time>2022-05-02T14:37:49.000Z</time>
      </trkpt>
      <trkpt lat="40.93418846838176250457763671875" lon="-1.3022139854729175567626953125">
        <ele>873.20001220703125</ele>
        <time>2022-05-02T14:37:50.000Z</time>
      </trkpt>
      <trkpt lat="40.9341471455991268157958984375" lon="-1.30221842788159847259521484375">
        <ele>873.20001220703125</ele>
        <time>2022-05-02T14:37:51.000Z</time>
      </trkpt>
      <trkpt lat="40.93406994827091693878173828125" lon="-1.3022284023463726043701171875">
        <ele>873.20001220703125</ele>
        <time>2022-05-02T14:37:53.000Z</time>
      </trkpt>
      <trkpt lat="40.9339909069240093231201171875" lon="-1.30223552696406841278076171875">
        <ele>873.20001220703125</ele>
        <time>2022-05-02T14:37:55.000Z</time>
      </trkpt>
      <trkpt lat="40.93389694578945636749267578125" lon="-1.3022495247423648834228515625">
        <ele>873.5999755859375</ele>
        <time>2022-05-02T14:37:57.000Z</time>
      </trkpt>
      <trkpt lat="40.93380130827426910400390625" lon="-1.30226067267358303070068359375">
        <ele>874.20001220703125</ele>
        <time>2022-05-02T14:37:59.000Z</time>
      </trkpt>
      <trkpt lat="40.93372209928929805755615234375" lon="-1.3022639416158199310302734375">
        <ele>874.79998779296875</ele>
        <time>2022-05-02T14:38:01.000Z</time>
      </trkpt>
      <trkpt lat="40.93368488363921642303466796875" lon="-1.30226612091064453125">
        <ele>875</ele>
        <time>2022-05-02T14:38:02.000Z</time>
      </trkpt>
      <trkpt lat="40.93364699743688106536865234375" lon="-1.30226972512900829315185546875">
        <ele>875.20001220703125</ele>
        <time>2022-05-02T14:38:03.000Z</time>
      </trkpt>
      <trkpt lat="40.93356535769999027252197265625" lon="-1.3022808730602264404296875">
        <ele>875.79998779296875</ele>
        <time>2022-05-02T14:38:05.000Z</time>
      </trkpt>
      <trkpt lat="40.933478437364101409912109375" lon="-1.30228900350630283355712890625">
        <ele>876.4000244140625</ele>
        <time>2022-05-02T14:38:07.000Z</time>
      </trkpt>
      <trkpt lat="40.93338581733405590057373046875" lon="-1.30228900350630283355712890625">
        <ele>876.5999755859375</ele>
        <time>2022-05-02T14:38:09.000Z</time>
      </trkpt>
      <trkpt lat="40.933288000524044036865234375" lon="-1.30229721777141094207763671875">
        <ele>876.5999755859375</ele>
        <time>2022-05-02T14:38:11.000Z</time>
      </trkpt>
      <trkpt lat="40.93318917788565158843994140625" lon="-1.3023058511316776275634765625">
        <ele>876.5999755859375</ele>
        <time>2022-05-02T14:38:13.000Z</time>
      </trkpt>
      <trkpt lat="40.93308985233306884765625" lon="-1.3023125566542148590087890625">
        <ele>876.20001220703125</ele>
        <time>2022-05-02T14:38:15.000Z</time>
      </trkpt>
      <trkpt lat="40.93303897418081760406494140625" lon="-1.30231465213000774383544921875">
        <ele>876</ele>
        <time>2022-05-02T14:38:16.000Z</time>
      </trkpt>
      <trkpt lat="40.93298918567597866058349609375" lon="-1.30231783725321292877197265625">
        <ele>875.5999755859375</ele>
        <time>2022-05-02T14:38:17.000Z</time>
      </trkpt>
      <trkpt lat="40.93288893811404705047607421875" lon="-1.30232839845120906829833984375">
        <ele>875</ele>
        <time>2022-05-02T14:38:19.000Z</time>
      </trkpt>
      <trkpt lat="40.9327852539718151092529296875" lon="-1.30233610980212688446044921875">
        <ele>875</ele>
        <time>2022-05-02T14:38:21.000Z</time>
      </trkpt>
      <trkpt lat="40.93268014490604400634765625" lon="-1.302349604666233062744140625">
        <ele>874.79998779296875</ele>
        <time>2022-05-02T14:38:23.000Z</time>
      </trkpt>
      <trkpt lat="40.93262725509703159332275390625" lon="-1.30235555581748485565185546875">
        <ele>874.4000244140625</ele>
        <time>2022-05-02T14:38:24.000Z</time>
      </trkpt>
      <trkpt lat="40.9325730241835117340087890625" lon="-1.30235941149294376373291015625">
        <ele>874.20001220703125</ele>
        <time>2022-05-02T14:38:25.000Z</time>
      </trkpt>
      <trkpt lat="40.93246649019420146942138671875" lon="-1.30237047560513019561767578125">
        <ele>874</ele>
        <time>2022-05-02T14:38:27.000Z</time>
      </trkpt>
      <trkpt lat="40.9323601238429546356201171875" lon="-1.30238304845988750457763671875">
        <ele>873.79998779296875</ele>
        <time>2022-05-02T14:38:29.000Z</time>
      </trkpt>
      <trkpt lat="40.93225643970072269439697265625" lon="-1.30239411257207393646240234375">
        <ele>873.5999755859375</ele>
        <time>2022-05-02T14:38:31.000Z</time>
      </trkpt>
      <trkpt lat="40.9321524202823638916015625" lon="-1.30240232683718204498291015625">
        <ele>873.20001220703125</ele>
        <time>2022-05-02T14:38:33.000Z</time>
      </trkpt>
      <trkpt lat="40.93210003338754177093505859375" lon="-1.3024074397981166839599609375">
        <ele>873</ele>
        <time>2022-05-02T14:38:34.000Z</time>
      </trkpt>
      <trkpt lat="40.9320479817688465118408203125" lon="-1.30241439677774906158447265625">
        <ele>873</ele>
        <time>2022-05-02T14:38:35.000Z</time>
      </trkpt>
      <trkpt lat="40.931945554912090301513671875" lon="-1.30242445506155490875244140625">
        <ele>873.4000244140625</ele>
        <time>2022-05-02T14:38:37.000Z</time>
      </trkpt>
      <trkpt lat="40.9318444691598415374755859375" lon="-1.30243442952632904052734375">
        <ele>873.79998779296875</ele>
        <time>2022-05-02T14:38:39.000Z</time>
      </trkpt>
      <trkpt lat="40.93174413777887821197509765625" lon="-1.3024449907243251800537109375">
        <ele>874.20001220703125</ele>
        <time>2022-05-02T14:38:41.000Z</time>
      </trkpt>
      <trkpt lat="40.93169552274048328399658203125" lon="-1.3024500198662281036376953125">
        <ele>874.4000244140625</ele>
        <time>2022-05-02T14:38:42.000Z</time>
      </trkpt>
      <trkpt lat="40.93164724297821521759033203125" lon="-1.30245613865554332733154296875">
        <ele>874.5999755859375</ele>
        <time>2022-05-02T14:38:43.000Z</time>
      </trkpt>
      <trkpt lat="40.931556634604930877685546875" lon="-1.302471645176410675048828125">
        <ele>875</ele>
        <time>2022-05-02T14:38:45.000Z</time>
      </trkpt>
      <trkpt lat="40.9314723126590251922607421875" lon="-1.3024848885834217071533203125">
        <ele>875.20001220703125</ele>
        <time>2022-05-02T14:38:47.000Z</time>
      </trkpt>
      <trkpt lat="40.931429564952850341796875" lon="-1.30248949863016605377197265625">
        <ele>875.20001220703125</ele>
        <time>2022-05-02T14:38:48.000Z</time>
      </trkpt>
      <trkpt lat="40.93138623051345348358154296875" lon="-1.30249167792499065399169921875">
        <ele>875</ele>
        <time>2022-05-02T14:38:49.000Z</time>
      </trkpt>
      <trkpt lat="40.93129419721662998199462890625" lon="-1.30249469541013240814208984375">
        <ele>874.79998779296875</ele>
        <time>2022-05-02T14:38:51.000Z</time>
      </trkpt>
      <trkpt lat="40.9312017448246479034423828125" lon="-1.3025063462555408477783203125">
        <ele>874.4000244140625</ele>
        <time>2022-05-02T14:38:53.000Z</time>
      </trkpt>
      <trkpt lat="40.93110300600528717041015625" lon="-1.3025174103677272796630859375">
        <ele>874.20001220703125</ele>
        <time>2022-05-02T14:38:55.000Z</time>
      </trkpt>
      <trkpt lat="40.93105263076722621917724609375" lon="-1.302520930767059326171875">
        <ele>874.20001220703125</ele>
        <time>2022-05-02T14:38:56.000Z</time>
      </trkpt>
      <trkpt lat="40.931000746786594390869140625" lon="-1.3025244511663913726806640625">
        <ele>874.20001220703125</ele>
        <time>2022-05-02T14:38:57.000Z</time>
      </trkpt>
      <trkpt lat="40.93089647591114044189453125" lon="-1.30253258161246776580810546875">
        <ele>874.20001220703125</ele>
        <time>2022-05-02T14:38:59.000Z</time>
      </trkpt>
      <trkpt lat="40.93079094775021076202392578125" lon="-1.30254146642982959747314453125">
        <ele>873.79998779296875</ele>
        <time>2022-05-02T14:39:01.000Z</time>
      </trkpt>
      <trkpt lat="40.93068885616958141326904296875" lon="-1.3025499321520328521728515625">
        <ele>873.4000244140625</ele>
        <time>2022-05-02T14:39:03.000Z</time>
      </trkpt>
      <trkpt lat="40.93058961443603038787841796875" lon="-1.3025579787790775299072265625">
        <ele>873.4000244140625</ele>
        <time>2022-05-02T14:39:05.000Z</time>
      </trkpt>
      <trkpt lat="40.93049238435924053192138671875" lon="-1.3025670312345027923583984375">
        <ele>873.5999755859375</ele>
        <time>2022-05-02T14:39:07.000Z</time>
      </trkpt>
      <trkpt lat="40.93040135689079761505126953125" lon="-1.30257633514702320098876953125">
        <ele>874</ele>
        <time>2022-05-02T14:39:09.000Z</time>
      </trkpt>
      <trkpt lat="40.93031753785908222198486328125" lon="-1.30258237011730670928955078125">
        <ele>874.20001220703125</ele>
        <time>2022-05-02T14:39:11.000Z</time>
      </trkpt>
      <trkpt lat="40.93023992143571376800537109375" lon="-1.3025905005633831024169921875">
        <ele>874.5999755859375</ele>
        <time>2022-05-02T14:39:13.000Z</time>
      </trkpt>
      <trkpt lat="40.93020035885274410247802734375" lon="-1.302593685686588287353515625">
        <ele>874.79998779296875</ele>
        <time>2022-05-02T14:39:14.000Z</time>
      </trkpt>
      <trkpt lat="40.93015979044139385223388671875" lon="-1.302596367895603179931640625">
        <ele>874.79998779296875</ele>
        <time>2022-05-02T14:39:15.000Z</time>
      </trkpt>
      <trkpt lat="40.93007831834256649017333984375" lon="-1.30260516889393329620361328125">
        <ele>875</ele>
        <time>2022-05-02T14:39:17.000Z</time>
      </trkpt>
      <trkpt lat="40.92999483458697795867919921875" lon="-1.30261690355837345123291015625">
        <ele>875</ele>
        <time>2022-05-02T14:39:19.000Z</time>
      </trkpt>
      <trkpt lat="40.9299102611839771270751953125" lon="-1.302622519433498382568359375">
        <ele>874.79998779296875</ele>
        <time>2022-05-02T14:39:21.000Z</time>
      </trkpt>
      <trkpt lat="40.92982434667646884918212890625" lon="-1.30262888967990875244140625">
        <ele>874.5999755859375</ele>
        <time>2022-05-02T14:39:23.000Z</time>
      </trkpt>
      <trkpt lat="40.92978126369416713714599609375" lon="-1.30263299681246280670166015625">
        <ele>874.5999755859375</ele>
        <time>2022-05-02T14:39:24.000Z</time>
      </trkpt>
      <trkpt lat="40.92973767779767513275146484375" lon="-1.302637942135334014892578125">
        <ele>874.5999755859375</ele>
        <time>2022-05-02T14:39:25.000Z</time>
      </trkpt>
      <trkpt lat="40.929650254547595977783203125" lon="-1.30264640785753726959228515625">
        <ele>874.79998779296875</ele>
        <time>2022-05-02T14:39:27.000Z</time>
      </trkpt>
      <trkpt lat="40.929561741650104522705078125" lon="-1.3026525266468524932861328125">
        <ele>874.79998779296875</ele>
        <time>2022-05-02T14:39:29.000Z</time>
      </trkpt>
      <trkpt lat="40.92947423458099365234375" lon="-1.30265973508358001708984375">
        <ele>874.79998779296875</ele>
        <time>2022-05-02T14:39:31.000Z</time>
      </trkpt>
      <trkpt lat="40.92938597314059734344482421875" lon="-1.30266870371997356414794921875">
        <ele>874.79998779296875</ele>
        <time>2022-05-02T14:39:33.000Z</time>
      </trkpt>
      <trkpt lat="40.92930014245212078094482421875" lon="-1.30267775617539882659912109375">
        <ele>875</ele>
        <time>2022-05-02T14:39:35.000Z</time>
      </trkpt>
      <trkpt lat="40.92921531759202480316162109375" lon="-1.302687563002109527587890625">
        <ele>875</ele>
        <time>2022-05-02T14:39:37.000Z</time>
      </trkpt>
      <trkpt lat="40.929129905998706817626953125" lon="-1.30269736982882022857666015625">
        <ele>875</ele>
        <time>2022-05-02T14:39:39.000Z</time>
      </trkpt>
      <trkpt lat="40.9290425665676593780517578125" lon="-1.30270508117973804473876953125">
        <ele>875</ele>
        <time>2022-05-02T14:39:41.000Z</time>
      </trkpt>
      <trkpt lat="40.92895447276532649993896484375" lon="-1.30271446891129016876220703125">
        <ele>874.79998779296875</ele>
        <time>2022-05-02T14:39:43.000Z</time>
      </trkpt>
      <trkpt lat="40.92886470258235931396484375" lon="-1.3027225993573665618896484375">
        <ele>874.4000244140625</ele>
        <time>2022-05-02T14:39:45.000Z</time>
      </trkpt>
      <trkpt lat="40.92877225019037723541259765625" lon="-1.30272653885185718536376953125">
        <ele>874.20001220703125</ele>
        <time>2022-05-02T14:39:47.000Z</time>
      </trkpt>
      <trkpt lat="40.92872598208487033843994140625" lon="-1.30272813141345977783203125">
        <ele>874</ele>
        <time>2022-05-02T14:39:48.000Z</time>
      </trkpt>
      <trkpt lat="40.92868122272193431854248046875" lon="-1.30273156799376010894775390625">
        <ele>874</ele>
        <time>2022-05-02T14:39:49.000Z</time>
      </trkpt>
      <trkpt lat="40.9285936318337917327880859375" lon="-1.3027433864772319793701171875">
        <ele>874.20001220703125</ele>
        <time>2022-05-02T14:39:51.000Z</time>
      </trkpt>
      <trkpt lat="40.92850805260241031646728515625" lon="-1.3027527742087841033935546875">
        <ele>874.20001220703125</ele>
        <time>2022-05-02T14:39:53.000Z</time>
      </trkpt>
      <trkpt lat="40.92842356301844120025634765625" lon="-1.30276006646454334259033203125">
        <ele>874.20001220703125</ele>
        <time>2022-05-02T14:39:55.000Z</time>
      </trkpt>
      <trkpt lat="40.92833907343447208404541015625" lon="-1.3027698732912540435791015625">
        <ele>874.4000244140625</ele>
        <time>2022-05-02T14:39:57.000Z</time>
      </trkpt>
      <trkpt lat="40.9282553382217884063720703125" lon="-1.30277900956571102142333984375">
        <ele>874.4000244140625</ele>
        <time>2022-05-02T14:39:59.000Z</time>
      </trkpt>
      <trkpt lat="40.92817009426653385162353515625" lon="-1.30278579890727996826171875">
        <ele>874.4000244140625</ele>
        <time>2022-05-02T14:40:01.000Z</time>
      </trkpt>
      <trkpt lat="40.92808593995869159698486328125" lon="-1.30279677920043468475341796875">
        <ele>874.5999755859375</ele>
        <time>2022-05-02T14:40:03.000Z</time>
      </trkpt>
      <trkpt lat="40.92799759469926357269287109375" lon="-1.3028067536652088165283203125">
        <ele>874.5999755859375</ele>
        <time>2022-05-02T14:40:05.000Z</time>
      </trkpt>
      <trkpt lat="40.92790790833532810211181640625" lon="-1.30281396210193634033203125">
        <ele>874.5999755859375</ele>
        <time>2022-05-02T14:40:07.000Z</time>
      </trkpt>
      <trkpt lat="40.9278617240488529205322265625" lon="-1.30281773395836353302001953125">
        <ele>874.5999755859375</ele>
        <time>2022-05-02T14:40:08.000Z</time>
      </trkpt>
      <trkpt lat="40.9278152883052825927734375" lon="-1.30282226018607616424560546875">
        <ele>874.79998779296875</ele>
        <time>2022-05-02T14:40:09.000Z</time>
      </trkpt>
      <trkpt lat="40.92772283591330051422119140625" lon="-1.3028305582702159881591796875">
        <ele>874.79998779296875</ele>
        <time>2022-05-02T14:40:11.000Z</time>
      </trkpt>
      <trkpt lat="40.92762962915003299713134765625" lon="-1.30283986218273639678955078125">
        <ele>874.79998779296875</ele>
        <time>2022-05-02T14:40:13.000Z</time>
      </trkpt>
      <trkpt lat="40.9275391884148120880126953125" lon="-1.30284455604851245880126953125">
        <ele>874.79998779296875</ele>
        <time>2022-05-02T14:40:15.000Z</time>
      </trkpt>
      <trkpt lat="40.92744925059378147125244140625" lon="-1.3028506748378276824951171875">
        <ele>875</ele>
        <time>2022-05-02T14:40:17.000Z</time>
      </trkpt>
      <trkpt lat="40.92736107297241687774658203125" lon="-1.3028617389500141143798828125">
        <ele>875.4000244140625</ele>
        <time>2022-05-02T14:40:19.000Z</time>
      </trkpt>
      <trkpt lat="40.9272726438939571380615234375" lon="-1.30287188105285167694091796875">
        <ele>876</ele>
        <time>2022-05-02T14:40:21.000Z</time>
      </trkpt>
      <trkpt lat="40.92718404717743396759033203125" lon="-1.30288026295602321624755859375">
        <ele>876.5999755859375</ele>
        <time>2022-05-02T14:40:23.000Z</time>
      </trkpt>
      <trkpt lat="40.927095115184783935546875" lon="-1.30288914777338504791259765625">
        <ele>876.79998779296875</ele>
        <time>2022-05-02T14:40:25.000Z</time>
      </trkpt>
      <trkpt lat="40.9270034171640872955322265625" lon="-1.30289887078106403350830078125">
        <ele>876.79998779296875</ele>
        <time>2022-05-02T14:40:27.000Z</time>
      </trkpt>
      <trkpt lat="40.92691314406692981719970703125" lon="-1.30290457047522068023681640625">
        <ele>877</ele>
        <time>2022-05-02T14:40:29.000Z</time>
      </trkpt>
      <trkpt lat="40.92682379297912120819091796875" lon="-1.3029086776077747344970703125">
        <ele>877.20001220703125</ele>
        <time>2022-05-02T14:40:31.000Z</time>
      </trkpt>
      <trkpt lat="40.92673528008162975311279296875" lon="-1.30291647277772426605224609375">
        <ele>877.20001220703125</ele>
        <time>2022-05-02T14:40:33.000Z</time>
      </trkpt>
      <trkpt lat="40.926643498241901397705078125" lon="-1.3029237650334835052490234375">
        <ele>877</ele>
        <time>2022-05-02T14:40:35.000Z</time>
      </trkpt>
      <trkpt lat="40.92659798450767993927001953125" lon="-1.3029281236231327056884765625">
        <ele>876.79998779296875</ele>
        <time>2022-05-02T14:40:36.000Z</time>
      </trkpt>
      <trkpt lat="40.9265534766018390655517578125" lon="-1.302931644022464752197265625">
        <ele>876.5999755859375</ele>
        <time>2022-05-02T14:40:37.000Z</time>
      </trkpt>
      <trkpt lat="40.92646404169499874114990234375" lon="-1.30294078029692173004150390625">
        <ele>876.4000244140625</ele>
        <time>2022-05-02T14:40:39.000Z</time>
      </trkpt>
      <trkpt lat="40.9263774566352367401123046875" lon="-1.30294849164783954620361328125">
        <ele>876.20001220703125</ele>
        <time>2022-05-02T14:40:41.000Z</time>
      </trkpt>
      <trkpt lat="40.92628936283290386199951171875" lon="-1.30295854993164539337158203125">
        <ele>876</ele>
        <time>2022-05-02T14:40:43.000Z</time>
      </trkpt>
      <trkpt lat="40.92620269395411014556884765625" lon="-1.30296684801578521728515625">
        <ele>875.79998779296875</ele>
        <time>2022-05-02T14:40:45.000Z</time>
      </trkpt>
      <trkpt lat="40.9261156059801578521728515625" lon="-1.30297623574733734130859375">
        <ele>875.5999755859375</ele>
        <time>2022-05-02T14:40:47.000Z</time>
      </trkpt>
      <trkpt lat="40.92603036202490329742431640625" lon="-1.30298285745084285736083984375">
        <ele>875.20001220703125</ele>
        <time>2022-05-02T14:40:49.000Z</time>
      </trkpt>
      <trkpt lat="40.925942771136760711669921875" lon="-1.30298721604049205780029296875">
        <ele>875</ele>
        <time>2022-05-02T14:40:51.000Z</time>
      </trkpt>
      <trkpt lat="40.92585316859185695648193359375" lon="-1.303002052009105682373046875">
        <ele>875.4000244140625</ele>
        <time>2022-05-02T14:40:53.000Z</time>
      </trkpt>
      <trkpt lat="40.9258078224956989288330078125" lon="-1.30300833843648433685302734375">
        <ele>875.5999755859375</ele>
        <time>2022-05-02T14:40:54.000Z</time>
      </trkpt>
      <trkpt lat="40.925761722028255462646484375" lon="-1.3030129484832286834716796875">
        <ele>875.5999755859375</ele>
        <time>2022-05-02T14:40:55.000Z</time>
      </trkpt>
      <trkpt lat="40.9256703592836856842041015625" lon="-1.30301906727254390716552734375">
        <ele>876</ele>
        <time>2022-05-02T14:40:57.000Z</time>
      </trkpt>
      <trkpt lat="40.92558025382459163665771484375" lon="-1.3030270300805568695068359375">
        <ele>875.5999755859375</ele>
        <time>2022-05-02T14:40:59.000Z</time>
      </trkpt>
      <trkpt lat="40.92548956163227558135986328125" lon="-1.303033567965030670166015625">
        <ele>875.20001220703125</ele>
        <time>2022-05-02T14:41:01.000Z</time>
      </trkpt>
      <trkpt lat="40.92544614337384700775146484375" lon="-1.3030417822301387786865234375">
        <ele>875</ele>
        <time>2022-05-02T14:41:02.000Z</time>
      </trkpt>
      <trkpt lat="40.9254038147628307342529296875" lon="-1.30305175669491291046142578125">
        <ele>874.79998779296875</ele>
        <time>2022-05-02T14:41:03.000Z</time>
      </trkpt>
      <trkpt lat="40.92536039650440216064453125" lon="-1.30305762402713298797607421875">
        <ele>874.5999755859375</ele>
        <time>2022-05-02T14:41:04.000Z</time>
      </trkpt>
      <trkpt lat="40.92531655915081501007080078125" lon="-1.3030613958835601806640625">
        <ele>874.4000244140625</ele>
        <time>2022-05-02T14:41:05.000Z</time>
      </trkpt>
      <trkpt lat="40.92523022554814815521240234375" lon="-1.30307137034833431243896484375">
        <ele>874.20001220703125</ele>
        <time>2022-05-02T14:41:07.000Z</time>
      </trkpt>
      <trkpt lat="40.92514514923095703125" lon="-1.30308042280375957489013671875">
        <ele>873.79998779296875</ele>
        <time>2022-05-02T14:41:09.000Z</time>
      </trkpt>
      <trkpt lat="40.92506309039890766143798828125" lon="-1.3030909001827239990234375">
        <ele>873.79998779296875</ele>
        <time>2022-05-02T14:41:11.000Z</time>
      </trkpt>
      <trkpt lat="40.92498631216585636138916015625" lon="-1.303094923496246337890625">
        <ele>874.20001220703125</ele>
        <time>2022-05-02T14:41:13.000Z</time>
      </trkpt>
      <trkpt lat="40.92492177151143550872802734375" lon="-1.303101964294910430908203125">
        <ele>874.4000244140625</ele>
        <time>2022-05-02T14:41:15.000Z</time>
      </trkpt>
      <trkpt lat="40.92486510984599590301513671875" lon="-1.3031098432838916778564453125">
        <ele>874.5999755859375</ele>
        <time>2022-05-02T14:41:17.000Z</time>
      </trkpt>
      <trkpt lat="40.92480610124766826629638671875" lon="-1.3031202368438243865966796875">
        <ele>874.79998779296875</ele>
        <time>2022-05-02T14:41:19.000Z</time>
      </trkpt>
      <trkpt lat="40.9247433207929134368896484375" lon="-1.3031316362321376800537109375">
        <ele>875.20001220703125</ele>
        <time>2022-05-02T14:41:21.000Z</time>
      </trkpt>
      <trkpt lat="40.92467769049108028411865234375" lon="-1.303144209086894989013671875">
        <ele>875.5999755859375</ele>
        <time>2022-05-02T14:41:23.000Z</time>
      </trkpt>
      <trkpt lat="40.9246102161705493927001953125" lon="-1.30315602757036685943603515625">
        <ele>875.79998779296875</ele>
        <time>2022-05-02T14:41:25.000Z</time>
      </trkpt>
      <trkpt lat="40.92457585036754608154296875" lon="-1.30316021852195262908935546875">
        <ele>876</ele>
        <time>2022-05-02T14:41:26.000Z</time>
      </trkpt>
      <trkpt lat="40.92454140074551105499267578125" lon="-1.30316474474966526031494140625">
        <ele>876</ele>
        <time>2022-05-02T14:41:27.000Z</time>
      </trkpt>
      <trkpt lat="40.92446965165436267852783203125" lon="-1.30317916162312030792236328125">
        <ele>876.4000244140625</ele>
        <time>2022-05-02T14:41:29.000Z</time>
      </trkpt>
      <trkpt lat="40.92439505271613597869873046875" lon="-1.3031981885433197021484375">
        <ele>876.5999755859375</ele>
        <time>2022-05-02T14:41:31.000Z</time>
      </trkpt>
      <trkpt lat="40.92431969940662384033203125" lon="-1.30321905948221683502197265625">
        <ele>876.79998779296875</ele>
        <time>2022-05-02T14:41:33.000Z</time>
      </trkpt>
      <trkpt lat="40.9242803044617176055908203125" lon="-1.30322895012795925140380859375">
        <ele>876.79998779296875</ele>
        <time>2022-05-02T14:41:34.000Z</time>
      </trkpt>
      <trkpt lat="40.9242390654981136322021484375" lon="-1.30323716439306735992431640625">
        <ele>876.5999755859375</ele>
        <time>2022-05-02T14:41:35.000Z</time>
      </trkpt>
      <trkpt lat="40.92415650375187397003173828125" lon="-1.303251497447490692138671875">
        <ele>876.4000244140625</ele>
        <time>2022-05-02T14:41:37.000Z</time>
      </trkpt>
      <trkpt lat="40.92407402582466602325439453125" lon="-1.30327069200575351715087890625">
        <ele>876.20001220703125</ele>
        <time>2022-05-02T14:41:39.000Z</time>
      </trkpt>
      <trkpt lat="40.92399188317358493804931640625" lon="-1.3032882101833820343017578125">
        <ele>876</ele>
        <time>2022-05-02T14:41:41.000Z</time>
      </trkpt>
      <trkpt lat="40.9239088185131549835205078125" lon="-1.303306482732295989990234375">
        <ele>876.20001220703125</ele>
        <time>2022-05-02T14:41:43.000Z</time>
      </trkpt>
      <trkpt lat="40.923828519880771636962890625" lon="-1.30333238281309604644775390625">
        <ele>876.4000244140625</ele>
        <time>2022-05-02T14:41:45.000Z</time>
      </trkpt>
      <trkpt lat="40.9237505681812763214111328125" lon="-1.30335233174264430999755859375">
        <ele>876.5999755859375</ele>
        <time>2022-05-02T14:41:47.000Z</time>
      </trkpt>
      <trkpt lat="40.923672951757907867431640625" lon="-1.3033698499202728271484375">
        <ele>877</ele>
        <time>2022-05-02T14:41:49.000Z</time>
      </trkpt>
      <trkpt lat="40.92359659262001514434814453125" lon="-1.3033918105065822601318359375">
        <ele>877.4000244140625</ele>
        <time>2022-05-02T14:41:51.000Z</time>
      </trkpt>
      <trkpt lat="40.92355820350348949432373046875" lon="-1.30340228788554668426513671875">
        <ele>877.5999755859375</ele>
        <time>2022-05-02T14:41:52.000Z</time>
      </trkpt>
      <trkpt lat="40.92352132312953472137451171875" lon="-1.303411424160003662109375">
        <ele>877.79998779296875</ele>
        <time>2022-05-02T14:41:53.000Z</time>
      </trkpt>
      <trkpt lat="40.92348477803170680999755859375" lon="-1.303422152996063232421875">
        <ele>877.79998779296875</ele>
        <time>2022-05-02T14:41:54.000Z</time>
      </trkpt>
      <trkpt lat="40.92344504781067371368408203125" lon="-1.3034330494701862335205078125">
        <ele>878</ele>
        <time>2022-05-02T14:41:55.000Z</time>
      </trkpt>
      <trkpt lat="40.92336592264473438262939453125" lon="-1.3034581951797008514404296875">
        <ele>878.4000244140625</ele>
        <time>2022-05-02T14:41:57.000Z</time>
      </trkpt>
      <trkpt lat="40.9232878871262073516845703125" lon="-1.30348384380340576171875">
        <ele>878.5999755859375</ele>
        <time>2022-05-02T14:41:59.000Z</time>
      </trkpt>
      <trkpt lat="40.9232104383409023284912109375" lon="-1.30351058207452297210693359375">
        <ele>878.79998779296875</ele>
        <time>2022-05-02T14:42:01.000Z</time>
      </trkpt>
      <trkpt lat="40.923130810260772705078125" lon="-1.30353606306016445159912109375">
        <ele>879</ele>
        <time>2022-05-02T14:42:03.000Z</time>
      </trkpt>
      <trkpt lat="40.9230530261993408203125" lon="-1.3035601191222667694091796875">
        <ele>879</ele>
        <time>2022-05-02T14:42:05.000Z</time>
      </trkpt>
      <trkpt lat="40.92297884635627269744873046875" lon="-1.30358434282243251800537109375">
        <ele>879</ele>
        <time>2022-05-02T14:42:07.000Z</time>
      </trkpt>
      <trkpt lat="40.9229026548564434051513671875" lon="-1.30361032672226428985595703125">
        <ele>879</ele>
        <time>2022-05-02T14:42:09.000Z</time>
      </trkpt>
      <trkpt lat="40.922826044261455535888671875" lon="-1.30363614298403263092041015625">
        <ele>879.20001220703125</ele>
        <time>2022-05-02T14:42:11.000Z</time>
      </trkpt>
      <trkpt lat="40.922750271856784820556640625" lon="-1.3036620430648326873779296875">
        <ele>879.4000244140625</ele>
        <time>2022-05-02T14:42:13.000Z</time>
      </trkpt>
      <trkpt lat="40.9226783551275730133056640625" lon="-1.30368811078369617462158203125">
        <ele>879.4000244140625</ele>
        <time>2022-05-02T14:42:15.000Z</time>
      </trkpt>
      <trkpt lat="40.9226056002080440521240234375" lon="-1.30371862091124057769775390625">
        <ele>879.5999755859375</ele>
        <time>2022-05-02T14:42:17.000Z</time>
      </trkpt>
      <trkpt lat="40.92254080809652805328369140625" lon="-1.30374963395297527313232421875">
        <ele>879.5999755859375</ele>
        <time>2022-05-02T14:42:19.000Z</time>
      </trkpt>
      <trkpt lat="40.922467969357967376708984375" lon="-1.3037787191569805145263671875">
        <ele>879.79998779296875</ele>
        <time>2022-05-02T14:42:21.000Z</time>
      </trkpt>
      <trkpt lat="40.922394208610057830810546875" lon="-1.3038058765232563018798828125">
        <ele>879.79998779296875</ele>
        <time>2022-05-02T14:42:23.000Z</time>
      </trkpt>
      <trkpt lat="40.9223206155002117156982421875" lon="-1.30384619347751140594482421875">
        <ele>880</ele>
        <time>2022-05-02T14:42:25.000Z</time>
      </trkpt>
      <trkpt lat="40.92224375344812870025634765625" lon="-1.30388223566114902496337890625">
        <ele>880.4000244140625</ele>
        <time>2022-05-02T14:42:27.000Z</time>
      </trkpt>
      <trkpt lat="40.9221653826534748077392578125" lon="-1.30391375161707401275634765625">
        <ele>880.5999755859375</ele>
        <time>2022-05-02T14:42:29.000Z</time>
      </trkpt>
      <trkpt lat="40.92212690971791744232177734375" lon="-1.3039312697947025299072265625">
        <ele>880.79998779296875</ele>
        <time>2022-05-02T14:42:30.000Z</time>
      </trkpt>
      <trkpt lat="40.9220875985920429229736328125" lon="-1.30394853651523590087890625">
        <ele>881</ele>
        <time>2022-05-02T14:42:31.000Z</time>
      </trkpt>
      <trkpt lat="40.92204627580940723419189453125" lon="-1.30396538414061069488525390625">
        <ele>881</ele>
        <time>2022-05-02T14:42:32.000Z</time>
      </trkpt>
      <trkpt lat="40.92200696468353271484375" lon="-1.3039845786988735198974609375">
        <ele>881</ele>
        <time>2022-05-02T14:42:33.000Z</time>
      </trkpt>
      <trkpt lat="40.9219280071556568145751953125" lon="-1.304021961987018585205078125">
        <ele>881</ele>
        <time>2022-05-02T14:42:35.000Z</time>
      </trkpt>
      <trkpt lat="40.92184779234230518341064453125" lon="-1.304050795733928680419921875">
        <ele>881</ele>
        <time>2022-05-02T14:42:37.000Z</time>
      </trkpt>
      <trkpt lat="40.92177134938538074493408203125" lon="-1.3040848262608051300048828125">
        <ele>881</ele>
        <time>2022-05-02T14:42:39.000Z</time>
      </trkpt>
      <trkpt lat="40.92169976793229579925537109375" lon="-1.30411994643509387969970703125">
        <ele>881</ele>
        <time>2022-05-02T14:42:41.000Z</time>
      </trkpt>
      <trkpt lat="40.921637825667858123779296875" lon="-1.30415280349552631378173828125">
        <ele>881</ele>
        <time>2022-05-02T14:42:43.000Z</time>
      </trkpt>
      <trkpt lat="40.9215823374688625335693359375" lon="-1.30418549291789531707763671875">
        <ele>881</ele>
        <time>2022-05-02T14:42:45.000Z</time>
      </trkpt>
      <trkpt lat="40.92152676545083522796630859375" lon="-1.3042174279689788818359375">
        <ele>881</ele>
        <time>2022-05-02T14:42:47.000Z</time>
      </trkpt>
      <trkpt lat="40.9214693494141101837158203125" lon="-1.3042442500591278076171875">
        <ele>881.20001220703125</ele>
        <time>2022-05-02T14:42:49.000Z</time>
      </trkpt>
      <trkpt lat="40.92141059227287769317626953125" lon="-1.30427316762506961822509765625">
        <ele>881.4000244140625</ele>
        <time>2022-05-02T14:42:51.000Z</time>
      </trkpt>
      <trkpt lat="40.921385698020458221435546875" lon="-1.3042876683175563812255859375">
        <ele>881.4000244140625</ele>
        <time>2022-05-02T14:42:52.000Z</time>
      </trkpt>
      <trkpt lat="40.92136432416737079620361328125" lon="-1.304300911724567413330078125">
        <ele>881.5999755859375</ele>
        <time>2022-05-02T14:42:53.000Z</time>
      </trkpt>
      <trkpt lat="40.92134588398039340972900390625" lon="-1.30431197583675384521484375">
        <ele>881.5999755859375</ele>
        <time>2022-05-02T14:42:54.000Z</time>
      </trkpt>
      <trkpt lat="40.92132635414600372314453125" lon="-1.304321698844432830810546875">
        <ele>881.5999755859375</ele>
        <time>2022-05-02T14:42:55.000Z</time>
      </trkpt>
      <trkpt lat="40.9212782420217990875244140625" lon="-1.30433083511888980865478515625">
        <ele>881.79998779296875</ele>
        <time>2022-05-02T14:42:57.000Z</time>
      </trkpt>
      <trkpt lat="40.92122753150761127471923828125" lon="-1.30430803634226322174072265625">
        <ele>882.20001220703125</ele>
        <time>2022-05-02T14:42:59.000Z</time>
      </trkpt>
      <trkpt lat="40.92118880711495876312255859375" lon="-1.30426428280770778656005859375">
        <ele>882.79998779296875</ele>
        <time>2022-05-02T14:43:01.000Z</time>
      </trkpt>
      <trkpt lat="40.92115092091262340545654296875" lon="-1.30419488064944744110107421875">
        <ele>883.20001220703125</ele>
        <time>2022-05-02T14:43:03.000Z</time>
      </trkpt>
      <trkpt lat="40.92113189399242401123046875" lon="-1.30414995364844799041748046875">
        <ele>883.20001220703125</ele>
        <time>2022-05-02T14:43:04.000Z</time>
      </trkpt>
      <trkpt lat="40.921111442148685455322265625" lon="-1.3041012547910213470458984375">
        <ele>883</ele>
        <time>2022-05-02T14:43:05.000Z</time>
      </trkpt>
      <trkpt lat="40.92106349766254425048828125" lon="-1.30400494672358036041259765625">
        <ele>882.5999755859375</ele>
        <time>2022-05-02T14:43:07.000Z</time>
      </trkpt>
      <trkpt lat="40.92101044021546840667724609375" lon="-1.3039238937199115753173828125">
        <ele>882.79998779296875</ele>
        <time>2022-05-02T14:43:09.000Z</time>
      </trkpt>
      <trkpt lat="40.92097900807857513427734375" lon="-1.30388944409787654876708984375">
        <ele>882.79998779296875</ele>
        <time>2022-05-02T14:43:10.000Z</time>
      </trkpt>
      <trkpt lat="40.920943804085254669189453125" lon="-1.30385826341807842254638671875">
        <ele>883</ele>
        <time>2022-05-02T14:43:11.000Z</time>
      </trkpt>
      <trkpt lat="40.9208675287663936614990234375" lon="-1.30379288457334041595458984375">
        <ele>882.79998779296875</ele>
        <time>2022-05-02T14:43:13.000Z</time>
      </trkpt>
      <trkpt lat="40.920788235962390899658203125" lon="-1.3037193752825260162353515625">
        <ele>882.5999755859375</ele>
        <time>2022-05-02T14:43:15.000Z</time>
      </trkpt>
      <trkpt lat="40.9207503497600555419921875" lon="-1.30367788486182689666748046875">
        <ele>882.79998779296875</ele>
        <time>2022-05-02T14:43:16.000Z</time>
      </trkpt>
      <trkpt lat="40.92071405611932277679443359375" lon="-1.3036362268030643463134765625">
        <ele>882.79998779296875</ele>
        <time>2022-05-02T14:43:17.000Z</time>
      </trkpt>
      <trkpt lat="40.92064834199845790863037109375" lon="-1.30355014465749263763427734375">
        <ele>883</ele>
        <time>2022-05-02T14:43:19.000Z</time>
      </trkpt>
      <trkpt lat="40.9205858968198299407958984375" lon="-1.30345459096133708953857421875">
        <ele>882.20001220703125</ele>
        <time>2022-05-02T14:43:21.000Z</time>
      </trkpt>
      <trkpt lat="40.920523367822170257568359375" lon="-1.3033586181700229644775390625">
        <ele>881.79998779296875</ele>
        <time>2022-05-02T14:43:23.000Z</time>
      </trkpt>
      <trkpt lat="40.92046394012868404388427734375" lon="-1.30326147191226482391357421875">
        <ele>881.79998779296875</ele>
        <time>2022-05-02T14:43:25.000Z</time>
      </trkpt>
      <trkpt lat="40.92040258459746837615966796875" lon="-1.30316893570125102996826171875">
        <ele>882</ele>
        <time>2022-05-02T14:43:27.000Z</time>
      </trkpt>
      <trkpt lat="40.9203408099710941314697265625" lon="-1.30307975225150585174560546875">
        <ele>882.20001220703125</ele>
        <time>2022-05-02T14:43:29.000Z</time>
      </trkpt>
      <trkpt lat="40.92027937062084674835205078125" lon="-1.30299098789691925048828125">
        <ele>882.4000244140625</ele>
        <time>2022-05-02T14:43:31.000Z</time>
      </trkpt>
      <trkpt lat="40.9202206134796142578125" lon="-1.30290825851261615753173828125">
        <ele>882.5999755859375</ele>
        <time>2022-05-02T14:43:33.000Z</time>
      </trkpt>
      <trkpt lat="40.9201862476766109466552734375" lon="-1.302843801677227020263671875">
        <ele>882.79998779296875</ele>
        <time>2022-05-02T14:43:35.000Z</time>
      </trkpt>
      <trkpt lat="40.92017711140215396881103515625" lon="-1.302825696766376495361328125">
        <ele>882.79998779296875</ele>
        <time>2022-05-02T14:43:36.000Z</time>
      </trkpt>
      <trkpt lat="40.920169651508331298828125" lon="-1.3028144650161266326904296875">
        <ele>882.79998779296875</ele>
        <time>2022-05-02T14:43:37.000Z</time>
      </trkpt>
      <trkpt lat="40.92015146277844905853271484375" lon="-1.3027931749820709228515625">
        <ele>882.79998779296875</ele>
        <time>2022-05-02T14:43:39.000Z</time>
      </trkpt>
      <trkpt lat="40.9201362915337085723876953125" lon="-1.30276157520711421966552734375">
        <ele>883</ele>
        <time>2022-05-02T14:43:41.000Z</time>
      </trkpt>
      <trkpt lat="40.9201279096305370330810546875" lon="-1.30274212919175624847412109375">
        <ele>883</ele>
        <time>2022-05-02T14:43:42.000Z</time>
      </trkpt>
      <trkpt lat="40.9201218746602535247802734375" lon="-1.30271983332931995391845703125">
        <ele>883</ele>
        <time>2022-05-02T14:43:43.000Z</time>
      </trkpt>
      <trkpt lat="40.9201114811003208160400390625" lon="-1.30266970954835414886474609375">
        <ele>883</ele>
        <time>2022-05-02T14:43:45.000Z</time>
      </trkpt>
      <trkpt lat="40.920110642910003662109375" lon="-1.30262712948024272918701171875">
        <ele>883</ele>
        <time>2022-05-02T14:43:47.000Z</time>
      </trkpt>
      <trkpt lat="40.92011533677577972412109375" lon="-1.3026042468845844268798828125">
        <ele>883</ele>
        <time>2022-05-02T14:43:48.000Z</time>
      </trkpt>
      <trkpt lat="40.92012531124055385589599609375" lon="-1.3025777600705623626708984375">
        <ele>883</ele>
        <time>2022-05-02T14:43:49.000Z</time>
      </trkpt>
      <trkpt lat="40.9201473556458950042724609375" lon="-1.30252403207123279571533203125">
        <ele>883</ele>
        <time>2022-05-02T14:43:51.000Z</time>
      </trkpt>
      <trkpt lat="40.9201768599450588226318359375" lon="-1.30246183834969997406005859375">
        <ele>883</ele>
        <time>2022-05-02T14:43:53.000Z</time>
      </trkpt>
      <trkpt lat="40.920192785561084747314453125" lon="-1.30242998711764812469482421875">
        <ele>883</ele>
        <time>2022-05-02T14:43:54.000Z</time>
      </trkpt>
      <trkpt lat="40.92020929791033267974853515625" lon="-1.30239813588559627532958984375">
        <ele>883.20001220703125</ele>
        <time>2022-05-02T14:43:55.000Z</time>
      </trkpt>
      <trkpt lat="40.92024047859013080596923828125" lon="-1.30233384668827056884765625">
        <ele>883.4000244140625</ele>
        <time>2022-05-02T14:43:57.000Z</time>
      </trkpt>
      <trkpt lat="40.92026445083320140838623046875" lon="-1.302271150052547454833984375">
        <ele>883.79998779296875</ele>
        <time>2022-05-02T14:43:59.000Z</time>
      </trkpt>
      <trkpt lat="40.92028557322919368743896484375" lon="-1.30221121944487094879150390625">
        <ele>884</ele>
        <time>2022-05-02T14:44:01.000Z</time>
      </trkpt>
      <trkpt lat="40.92031088657677173614501953125" lon="-1.30215606652200222015380859375">
        <ele>884.4000244140625</ele>
        <time>2022-05-02T14:44:03.000Z</time>
      </trkpt>
      <trkpt lat="40.9203344397246837615966796875" lon="-1.30209781229496002197265625">
        <ele>884.79998779296875</ele>
        <time>2022-05-02T14:44:05.000Z</time>
      </trkpt>
      <trkpt lat="40.920359753072261810302734375" lon="-1.3020389713346958160400390625">
        <ele>885</ele>
        <time>2022-05-02T14:44:07.000Z</time>
      </trkpt>
      <trkpt lat="40.920391939580440521240234375" lon="-1.3019823096692562103271484375">
        <ele>885.4000244140625</ele>
        <time>2022-05-02T14:44:09.000Z</time>
      </trkpt>
      <trkpt lat="40.9204222820699214935302734375" lon="-1.3019202835857868194580078125">
        <ele>885.5999755859375</ele>
        <time>2022-05-02T14:44:11.000Z</time>
      </trkpt>
      <trkpt lat="40.92043275944888591766357421875" lon="-1.30188348703086376190185546875">
        <ele>885.79998779296875</ele>
        <time>2022-05-02T14:44:12.000Z</time>
      </trkpt>
      <trkpt lat="40.9204420633614063262939453125" lon="-1.30184568464756011962890625">
        <ele>885.79998779296875</ele>
        <time>2022-05-02T14:44:13.000Z</time>
      </trkpt>
      <trkpt lat="40.9204544685781002044677734375" lon="-1.30176781676709651947021484375">
        <ele>886</ele>
        <time>2022-05-02T14:44:15.000Z</time>
      </trkpt>
      <trkpt lat="40.9204553067684173583984375" lon="-1.30172900855541229248046875">
        <ele>886.20001220703125</ele>
        <time>2022-05-02T14:44:16.000Z</time>
      </trkpt>
      <trkpt lat="40.9204578213393688201904296875" lon="-1.30169154144823551177978515625">
        <ele>886.20001220703125</ele>
        <time>2022-05-02T14:44:17.000Z</time>
      </trkpt>
      <trkpt lat="40.92045539058744907379150390625" lon="-1.30165834911167621612548828125">
        <ele>886.4000244140625</ele>
        <time>2022-05-02T14:44:18.000Z</time>
      </trkpt>
      <trkpt lat="40.92045195400714874267578125" lon="-1.30162800662219524383544921875">
        <ele>886.5999755859375</ele>
        <time>2022-05-02T14:44:19.000Z</time>
      </trkpt>
      <trkpt lat="40.920443236827850341796875" lon="-1.30155776627361774444580078125">
        <ele>886.5999755859375</ele>
        <time>2022-05-02T14:44:21.000Z</time>
      </trkpt>
      <trkpt lat="40.92043058015406131744384765625" lon="-1.30148786120116710662841796875">
        <ele>886.79998779296875</ele>
        <time>2022-05-02T14:44:23.000Z</time>
      </trkpt>
      <trkpt lat="40.92041574418544769287109375" lon="-1.301416195929050445556640625">
        <ele>886.79998779296875</ele>
        <time>2022-05-02T14:44:25.000Z</time>
      </trkpt>
      <trkpt lat="40.92039353214204311370849609375" lon="-1.30134838633239269256591796875">
        <ele>887</ele>
        <time>2022-05-02T14:44:27.000Z</time>
      </trkpt>
      <trkpt lat="40.92037274502217769622802734375" lon="-1.30128535442054271697998046875">
        <ele>887</ele>
        <time>2022-05-02T14:44:29.000Z</time>
      </trkpt>
      <trkpt lat="40.9203533828258514404296875" lon="-1.30122835747897624969482421875">
        <ele>886.79998779296875</ele>
        <time>2022-05-02T14:44:31.000Z</time>
      </trkpt>
      <trkpt lat="40.92034843750298023223876953125" lon="-1.30119734443724155426025390625">
        <ele>886.5999755859375</ele>
        <time>2022-05-02T14:44:32.000Z</time>
      </trkpt>
      <trkpt lat="40.920351706445217132568359375" lon="-1.30116976797580718994140625">
        <ele>886.5999755859375</ele>
        <time>2022-05-02T14:44:33.000Z</time>
      </trkpt>
      <trkpt lat="40.92035044915974140167236328125" lon="-1.301121152937412261962890625">
        <ele>886.4000244140625</ele>
        <time>2022-05-02T14:44:35.000Z</time>
      </trkpt>
      <trkpt lat="40.92033485881984233856201171875" lon="-1.3010874576866626739501953125">
        <ele>886.4000244140625</ele>
        <time>2022-05-02T14:44:37.000Z</time>
      </trkpt>
      <trkpt lat="40.92031859792768955230712890625" lon="-1.3010613061487674713134765625">
        <ele>886.5999755859375</ele>
        <time>2022-05-02T14:44:39.000Z</time>
      </trkpt>
      <trkpt lat="40.92029361985623836517333984375" lon="-1.30104630254209041595458984375">
        <ele>886.79998779296875</ele>
        <time>2022-05-02T14:44:41.000Z</time>
      </trkpt>
      <trkpt lat="40.92025757767260074615478515625" lon="-1.30102199502289295196533203125">
        <ele>887</ele>
        <time>2022-05-02T14:44:43.000Z</time>
      </trkpt>
      <trkpt lat="40.92020896263420581817626953125" lon="-1.3009987771511077880859375">
        <ele>887.4000244140625</ele>
        <time>2022-05-02T14:44:45.000Z</time>
      </trkpt>
      <trkpt lat="40.9201490320265293121337890625" lon="-1.3009825162589550018310546875">
        <ele>887.5999755859375</ele>
        <time>2022-05-02T14:44:47.000Z</time>
      </trkpt>
      <trkpt lat="40.92009329237043857574462890625" lon="-1.30095024593174457550048828125">
        <ele>887.5999755859375</ele>
        <time>2022-05-02T14:44:49.000Z</time>
      </trkpt>
      <trkpt lat="40.9200497902929782867431640625" lon="-1.3009050674736499786376953125">
        <ele>887.20001220703125</ele>
        <time>2022-05-02T14:44:51.000Z</time>
      </trkpt>
      <trkpt lat="40.9200300090014934539794921875" lon="-1.30087832920253276824951171875">
        <ele>887</ele>
        <time>2022-05-02T14:44:52.000Z</time>
      </trkpt>
      <trkpt lat="40.92000930570065975189208984375" lon="-1.300852261483669281005859375">
        <ele>887</ele>
        <time>2022-05-02T14:44:53.000Z</time>
      </trkpt>
      <trkpt lat="40.91996773146092891693115234375" lon="-1.3008007965981960296630859375">
        <ele>887</ele>
        <time>2022-05-02T14:44:55.000Z</time>
      </trkpt>
      <trkpt lat="40.91992632485926151275634765625" lon="-1.300723850727081298828125">
        <ele>887</ele>
        <time>2022-05-02T14:44:57.000Z</time>
      </trkpt>
      <trkpt lat="40.919906795024871826171875" lon="-1.300675570964813232421875">
        <ele>887</ele>
        <time>2022-05-02T14:44:58.000Z</time>
      </trkpt>
      <trkpt lat="40.91988743282854557037353515625" lon="-1.300623603165149688720703125">
        <ele>887</ele>
        <time>2022-05-02T14:44:59.000Z</time>
      </trkpt>
      <trkpt lat="40.91985155828297138214111328125" lon="-1.30052343942224979400634765625">
        <ele>887</ele>
        <time>2022-05-02T14:45:01.000Z</time>
      </trkpt>
      <trkpt lat="40.91982272453606128692626953125" lon="-1.30042939446866512298583984375">
        <ele>887.4000244140625</ele>
        <time>2022-05-02T14:45:03.000Z</time>
      </trkpt>
      <trkpt lat="40.9197928011417388916015625" lon="-1.30035026930272579193115234375">
        <ele>887.79998779296875</ele>
        <time>2022-05-02T14:45:05.000Z</time>
      </trkpt>
      <trkpt lat="40.9197570942342281341552734375" lon="-1.30027734674513339996337890625">
        <ele>888</ele>
        <time>2022-05-02T14:45:07.000Z</time>
      </trkpt>
      <trkpt lat="40.9197332896292209625244140625" lon="-1.300245411694049835205078125">
        <ele>888.20001220703125</ele>
        <time>2022-05-02T14:45:08.000Z</time>
      </trkpt>
      <trkpt lat="40.91970621608197689056396484375" lon="-1.300218589603900909423828125">
        <ele>888.4000244140625</ele>
        <time>2022-05-02T14:45:09.000Z</time>
      </trkpt>
      <trkpt lat="40.9196318686008453369140625" lon="-1.30018497817218303680419921875">
        <ele>888.79998779296875</ele>
        <time>2022-05-02T14:45:11.000Z</time>
      </trkpt>
      <trkpt lat="40.91959104873239994049072265625" lon="-1.3001859001815319061279296875">
        <ele>889</ele>
        <time>2022-05-02T14:45:12.000Z</time>
      </trkpt>
      <trkpt lat="40.91955098323523998260498046875" lon="-1.3001989759504795074462890625">
        <ele>889</ele>
        <time>2022-05-02T14:45:13.000Z</time>
      </trkpt>
      <trkpt lat="40.91947202570736408233642578125" lon="-1.300232671201229095458984375">
        <ele>889</ele>
        <time>2022-05-02T14:45:15.000Z</time>
      </trkpt>
      <trkpt lat="40.9193903021514415740966796875" lon="-1.3002532906830310821533203125">
        <ele>888.79998779296875</ele>
        <time>2022-05-02T14:45:17.000Z</time>
      </trkpt>
      <trkpt lat="40.9193460457026958465576171875" lon="-1.30025085993111133575439453125">
        <ele>888.79998779296875</ele>
        <time>2022-05-02T14:45:18.000Z</time>
      </trkpt>
      <trkpt lat="40.91930388472974300384521484375" lon="-1.300244070589542388916015625">
        <ele>889</ele>
        <time>2022-05-02T14:45:19.000Z</time>
      </trkpt>
      <trkpt lat="40.91922911815345287322998046875" lon="-1.30020341835916042327880859375">
        <ele>888.5999755859375</ele>
        <time>2022-05-02T14:45:21.000Z</time>
      </trkpt>
      <trkpt lat="40.9191938303411006927490234375" lon="-1.30017391405999660491943359375">
        <ele>888.5999755859375</ele>
        <time>2022-05-02T14:45:22.000Z</time>
      </trkpt>
      <trkpt lat="40.91915971599519252777099609375" lon="-1.3001463375985622406005859375">
        <ele>888.4000244140625</ele>
        <time>2022-05-02T14:45:23.000Z</time>
      </trkpt>
      <trkpt lat="40.91909601353108882904052734375" lon="-1.30009579472243785858154296875">
        <ele>888.20001220703125</ele>
        <time>2022-05-02T14:45:25.000Z</time>
      </trkpt>
      <trkpt lat="40.919034741818904876708984375" lon="-1.300051622092723846435546875">
        <ele>888.4000244140625</ele>
        <time>2022-05-02T14:45:27.000Z</time>
      </trkpt>
      <trkpt lat="40.91897095553576946258544921875" lon="-1.3000014983117580413818359375">
        <ele>888.79998779296875</ele>
        <time>2022-05-02T14:45:29.000Z</time>
      </trkpt>
      <trkpt lat="40.91891060583293437957763671875" lon="-1.29996637813746929168701171875">
        <ele>888.5999755859375</ele>
        <time>2022-05-02T14:45:31.000Z</time>
      </trkpt>
      <trkpt lat="40.91885277070105075836181640625" lon="-1.299938298761844635009765625">
        <ele>888.4000244140625</ele>
        <time>2022-05-02T14:45:33.000Z</time>
      </trkpt>
      <trkpt lat="40.918824188411235809326171875" lon="-1.29992011003196239471435546875">
        <ele>888.4000244140625</ele>
        <time>2022-05-02T14:45:34.000Z</time>
      </trkpt>
      <trkpt lat="40.91879225336015224456787109375" lon="-1.29990242421627044677734375">
        <ele>888.20001220703125</ele>
        <time>2022-05-02T14:45:35.000Z</time>
      </trkpt>
      <trkpt lat="40.91872620396316051483154296875" lon="-1.2998673878610134124755859375">
        <ele>888.5999755859375</ele>
        <time>2022-05-02T14:45:37.000Z</time>
      </trkpt>
      <trkpt lat="40.918663926422595977783203125" lon="-1.29983981139957904815673828125">
        <ele>889</ele>
        <time>2022-05-02T14:45:39.000Z</time>
      </trkpt>
      <trkpt lat="40.9186335839331150054931640625" lon="-1.29982572980225086212158203125">
        <ele>889.20001220703125</ele>
        <time>2022-05-02T14:45:40.000Z</time>
      </trkpt>
      <trkpt lat="40.91860164888203144073486328125" lon="-1.299810893833637237548828125">
        <ele>889.4000244140625</ele>
        <time>2022-05-02T14:45:41.000Z</time>
      </trkpt>
      <trkpt lat="40.918538533151149749755859375" lon="-1.29978549666702747344970703125">
        <ele>889.5999755859375</ele>
        <time>2022-05-02T14:45:43.000Z</time>
      </trkpt>
      <trkpt lat="40.91847508214414119720458984375" lon="-1.2997547350823879241943359375">
        <ele>889.5999755859375</ele>
        <time>2022-05-02T14:45:45.000Z</time>
      </trkpt>
      <trkpt lat="40.91840408742427825927734375" lon="-1.29972212947905063629150390625">
        <ele>890</ele>
        <time>2022-05-02T14:45:47.000Z</time>
      </trkpt>
      <trkpt lat="40.9183308295905590057373046875" lon="-1.29968893714249134063720703125">
        <ele>890</ele>
        <time>2022-05-02T14:45:49.000Z</time>
      </trkpt>
      <trkpt lat="40.91825698502361774444580078125" lon="-1.29965591244399547576904296875">
        <ele>890</ele>
        <time>2022-05-02T14:45:51.000Z</time>
      </trkpt>
      <trkpt lat="40.91819194145500659942626953125" lon="-1.2996303476393222808837890625">
        <ele>890.20001220703125</ele>
        <time>2022-05-02T14:45:53.000Z</time>
      </trkpt>
      <trkpt lat="40.91813276521861553192138671875" lon="-1.29958902485668659210205078125">
        <ele>890.20001220703125</ele>
        <time>2022-05-02T14:45:55.000Z</time>
      </trkpt>
      <trkpt lat="40.918073840439319610595703125" lon="-1.29955918528139591217041015625">
        <ele>890.4000244140625</ele>
        <time>2022-05-02T14:45:57.000Z</time>
      </trkpt>
      <trkpt lat="40.91801055707037448883056640625" lon="-1.29952691495418548583984375">
        <ele>890.5999755859375</ele>
        <time>2022-05-02T14:45:59.000Z</time>
      </trkpt>
      <trkpt lat="40.917947776615619659423828125" lon="-1.29949548281729221343994140625">
        <ele>890.5999755859375</ele>
        <time>2022-05-02T14:46:01.000Z</time>
      </trkpt>
      <trkpt lat="40.91788684017956256866455078125" lon="-1.29947318695485591888427734375">
        <ele>890.79998779296875</ele>
        <time>2022-05-02T14:46:03.000Z</time>
      </trkpt>
      <trkpt lat="40.91782732866704463958740234375" lon="-1.29945206455886363983154296875">
        <ele>891</ele>
        <time>2022-05-02T14:46:05.000Z</time>
      </trkpt>
      <trkpt lat="40.91777200810611248016357421875" lon="-1.29943077452480792999267578125">
        <ele>891</ele>
        <time>2022-05-02T14:46:07.000Z</time>
      </trkpt>
      <trkpt lat="40.9177192859351634979248046875" lon="-1.2994104065001010894775390625">
        <ele>891</ele>
        <time>2022-05-02T14:46:09.000Z</time>
      </trkpt>
      <trkpt lat="40.91767176054418087005615234375" lon="-1.29938936792314052581787109375">
        <ele>891</ele>
        <time>2022-05-02T14:46:11.000Z</time>
      </trkpt>
      <trkpt lat="40.91762951575219631195068359375" lon="-1.2993708439171314239501953125">
        <ele>891</ele>
        <time>2022-05-02T14:46:13.000Z</time>
      </trkpt>
      <trkpt lat="40.91759665869176387786865234375" lon="-1.2993601150810718536376953125">
        <ele>890.79998779296875</ele>
        <time>2022-05-02T14:46:15.000Z</time>
      </trkpt>
      <trkpt lat="40.9175922162830829620361328125" lon="-1.29931636154651641845703125">
        <ele>890.79998779296875</ele>
        <time>2022-05-02T14:46:17.000Z</time>
      </trkpt>
      <trkpt lat="40.91758869588375091552734375" lon="-1.29929129965603351593017578125">
        <ele>890.5999755859375</ele>
        <time>2022-05-02T14:46:18.000Z</time>
      </trkpt>
      <trkpt lat="40.91758626513183116912841796875" lon="-1.2992662377655506134033203125">
        <ele>890.5999755859375</ele>
        <time>2022-05-02T14:46:19.000Z</time>
      </trkpt>
      <trkpt lat="40.91758391819894313812255859375" lon="-1.29922860302031040191650390625">
        <ele>890.4000244140625</ele>
        <time>2022-05-02T14:46:21.000Z</time>
      </trkpt>
      <trkpt lat="40.9175774641335010528564453125" lon="-1.29921301268041133880615234375">
        <ele>890.4000244140625</ele>
        <time>2022-05-02T14:46:23.000Z</time>
      </trkpt>
      <trkpt lat="40.91757687740027904510498046875" lon="-1.29920513369143009185791015625">
        <ele>890.4000244140625</ele>
        <time>2022-05-02T14:46:24.000Z</time>
      </trkpt>
      <trkpt lat="40.91758207418024539947509765625" lon="-1.29902609623968601226806640625">
        <ele>889.4000244140625</ele>
        <time>2022-05-02T14:46:33.000Z</time>
      </trkpt>
      <trkpt lat="40.91759514994919300079345703125" lon="-1.2989281117916107177734375">
        <ele>888.5999755859375</ele>
        <time>2022-05-02T14:46:35.000Z</time>
      </trkpt>
      <trkpt lat="40.91760621406137943267822265625" lon="-1.2988100945949554443359375">
        <ele>888</ele>
        <time>2022-05-02T14:46:37.000Z</time>
      </trkpt>
      <trkpt lat="40.9176076389849185943603515625" lon="-1.29874496720731258392333984375">
        <ele>888</ele>
        <time>2022-05-02T14:46:38.000Z</time>
      </trkpt>
      <trkpt lat="40.9176126681268215179443359375" lon="-1.29867975600063800811767578125">
        <ele>888</ele>
        <time>2022-05-02T14:46:39.000Z</time>
      </trkpt>
      <trkpt lat="40.9176230616867542266845703125" lon="-1.2985571287572383880615234375">
        <ele>888</ele>
        <time>2022-05-02T14:46:41.000Z</time>
      </trkpt>
      <trkpt lat="40.91762532480061054229736328125" lon="-1.2984350882470607757568359375">
        <ele>888</ele>
        <time>2022-05-02T14:46:43.000Z</time>
      </trkpt>
      <trkpt lat="40.9176237322390079498291015625" lon="-1.29837968386709690093994140625">
        <ele>888</ele>
        <time>2022-05-02T14:46:44.000Z</time>
      </trkpt>
      <trkpt lat="40.9176213853061199188232421875" lon="-1.2983271293342113494873046875">
        <ele>888</ele>
        <time>2022-05-02T14:46:45.000Z</time>
      </trkpt>
      <trkpt lat="40.91762230731546878814697265625" lon="-1.298233084380626678466796875">
        <ele>888.20001220703125</ele>
        <time>2022-05-02T14:46:47.000Z</time>
      </trkpt>
      <trkpt lat="40.91762130148708820343017578125" lon="-1.29814867861568927764892578125">
        <ele>888.4000244140625</ele>
        <time>2022-05-02T14:46:49.000Z</time>
      </trkpt>
      <trkpt lat="40.91761677525937557220458984375" lon="-1.2981088645756244659423828125">
        <ele>888.5999755859375</ele>
        <time>2022-05-02T14:46:50.000Z</time>
      </trkpt>
      <trkpt lat="40.91761493124067783355712890625" lon="-1.298064775764942169189453125">
        <ele>888.79998779296875</ele>
        <time>2022-05-02T14:46:51.000Z</time>
      </trkpt>
      <trkpt lat="40.91760973446071147918701171875" lon="-1.29797458648681640625">
        <ele>889</ele>
        <time>2022-05-02T14:46:53.000Z</time>
      </trkpt>
      <trkpt lat="40.9176066331565380096435546875" lon="-1.29788984544575214385986328125">
        <ele>889.4000244140625</ele>
        <time>2022-05-02T14:46:55.000Z</time>
      </trkpt>
      <trkpt lat="40.91760478913784027099609375" lon="-1.29785028286278247833251953125">
        <ele>889.4000244140625</ele>
        <time>2022-05-02T14:46:56.000Z</time>
      </trkpt>
      <trkpt lat="40.9176042862236499786376953125" lon="-1.29781457595527172088623046875">
        <ele>889.5999755859375</ele>
        <time>2022-05-02T14:46:57.000Z</time>
      </trkpt>
      <trkpt lat="40.91760135255753993988037109375" lon="-1.29774726927280426025390625">
        <ele>889.79998779296875</ele>
        <time>2022-05-02T14:46:59.000Z</time>
      </trkpt>
      <trkpt lat="40.9176009334623813629150390625" lon="-1.2977132387459278106689453125">
        <ele>890</ele>
        <time>2022-05-02T14:47:00.000Z</time>
      </trkpt>
      <trkpt lat="40.91760202310979366302490234375" lon="-1.2976807169616222381591796875">
        <ele>890</ele>
        <time>2022-05-02T14:47:01.000Z</time>
      </trkpt>
      <trkpt lat="40.91759682632982730865478515625" lon="-1.29762254655361175537109375">
        <ele>890.20001220703125</ele>
        <time>2022-05-02T14:47:03.000Z</time>
      </trkpt>
      <trkpt lat="40.9175952337682247161865234375" lon="-1.2975640408694744110107421875">
        <ele>890.4000244140625</ele>
        <time>2022-05-02T14:47:05.000Z</time>
      </trkpt>
      <trkpt lat="40.917595736682415008544921875" lon="-1.2975157611072063446044921875">
        <ele>890.5999755859375</ele>
        <time>2022-05-02T14:47:07.000Z</time>
      </trkpt>
      <trkpt lat="40.91759582050144672393798828125" lon="-1.29749421961605548858642578125">
        <ele>890.5999755859375</ele>
        <time>2022-05-02T14:47:08.000Z</time>
      </trkpt>
      <trkpt lat="40.91759682632982730865478515625" lon="-1.29747393541038036346435546875">
        <ele>890.79998779296875</ele>
        <time>2022-05-02T14:47:09.000Z</time>
      </trkpt>
      <trkpt lat="40.91759799979627132415771484375" lon="-1.29745532758533954620361328125">
        <ele>890.79998779296875</ele>
        <time>2022-05-02T14:47:10.000Z</time>
      </trkpt>
      <trkpt lat="40.91759934090077877044677734375" lon="-1.29743437282741069793701171875">
        <ele>891</ele>
        <time>2022-05-02T14:47:11.000Z</time>
      </trkpt>
      <trkpt lat="40.917600095272064208984375" lon="-1.29737854935228824615478515625">
        <ele>891.20001220703125</ele>
        <time>2022-05-02T14:47:13.000Z</time>
      </trkpt>
      <trkpt lat="40.91759950853884220123291015625" lon="-1.29731300286948680877685546875">
        <ele>891.4000244140625</ele>
        <time>2022-05-02T14:47:15.000Z</time>
      </trkpt>
      <trkpt lat="40.9175969101488590240478515625" lon="-1.297279559075832366943359375">
        <ele>891.5999755859375</ele>
        <time>2022-05-02T14:47:16.000Z</time>
      </trkpt>
      <trkpt lat="40.9175935573875904083251953125" lon="-1.29724544472992420196533203125">
        <ele>891.5999755859375</ele>
        <time>2022-05-02T14:47:17.000Z</time>
      </trkpt>
      <trkpt lat="40.91758525930345058441162109375" lon="-1.297171600162982940673828125">
        <ele>891.79998779296875</ele>
        <time>2022-05-02T14:47:19.000Z</time>
      </trkpt>
      <trkpt lat="40.91758023016154766082763671875" lon="-1.29709607921540737152099609375">
        <ele>891.79998779296875</ele>
        <time>2022-05-02T14:47:21.000Z</time>
      </trkpt>
      <trkpt lat="40.9175764583051204681396484375" lon="-1.2970192171633243560791015625">
        <ele>891.79998779296875</ele>
        <time>2022-05-02T14:47:23.000Z</time>
      </trkpt>
      <trkpt lat="40.91756765730679035186767578125" lon="-1.2969333864748477935791015625">
        <ele>891.79998779296875</ele>
        <time>2022-05-02T14:47:25.000Z</time>
      </trkpt>
      <trkpt lat="40.91756195761263370513916015625" lon="-1.296888627111911773681640625">
        <ele>892</ele>
        <time>2022-05-02T14:47:26.000Z</time>
      </trkpt>
      <trkpt lat="40.91754938475787639617919921875" lon="-1.2968234159052371978759765625">
        <ele>892.20001220703125</ele>
        <time>2022-05-02T14:47:27.000Z</time>
      </trkpt>
      <trkpt lat="40.917542092502117156982421875" lon="-1.29672191105782985687255859375">
        <ele>892.5999755859375</ele>
        <time>2022-05-02T14:47:29.000Z</time>
      </trkpt>
      <trkpt lat="40.91754485853016376495361328125" lon="-1.2966375052928924560546875">
        <ele>893</ele>
        <time>2022-05-02T14:47:31.000Z</time>
      </trkpt>
      <trkpt lat="40.91756413690745830535888671875" lon="-1.29656081087887287139892578125">
        <ele>893.20001220703125</ele>
        <time>2022-05-02T14:47:33.000Z</time>
      </trkpt>
      <trkpt lat="40.91758945025503635406494140625" lon="-1.2964958511292934417724609375">
        <ele>893.4000244140625</ele>
        <time>2022-05-02T14:47:35.000Z</time>
      </trkpt>
      <trkpt lat="40.917599089443683624267578125" lon="-1.29642091691493988037109375">
        <ele>893.5999755859375</ele>
        <time>2022-05-02T14:47:37.000Z</time>
      </trkpt>
      <trkpt lat="40.91759380884468555450439453125" lon="-1.29634539596736431121826171875">
        <ele>894</ele>
        <time>2022-05-02T14:47:39.000Z</time>
      </trkpt>
      <trkpt lat="40.91759137809276580810546875" lon="-1.296271383762359619140625">
        <ele>894.4000244140625</ele>
        <time>2022-05-02T14:47:41.000Z</time>
      </trkpt>
      <trkpt lat="40.91758467257022857666015625" lon="-1.2961967848241329193115234375">
        <ele>895</ele>
        <time>2022-05-02T14:47:43.000Z</time>
      </trkpt>
      <trkpt lat="40.91758324764668941497802734375" lon="-1.29615814425051212310791015625">
        <ele>895.20001220703125</ele>
        <time>2022-05-02T14:47:44.000Z</time>
      </trkpt>
      <trkpt lat="40.9175838343799114227294921875" lon="-1.29611824639141559600830078125">
        <ele>895.5999755859375</ele>
        <time>2022-05-02T14:47:45.000Z</time>
      </trkpt>
      <trkpt lat="40.9175875224173069000244140625" lon="-1.2960801087319850921630859375">
        <ele>895.79998779296875</ele>
        <time>2022-05-02T14:47:46.000Z</time>
      </trkpt>
      <trkpt lat="40.91758869588375091552734375" lon="-1.29604297690093517303466796875">
        <ele>896</ele>
        <time>2022-05-02T14:47:47.000Z</time>
      </trkpt>
      <trkpt lat="40.91758911497890949249267578125" lon="-1.2959698028862476348876953125">
        <ele>896.20001220703125</ele>
        <time>2022-05-02T14:47:49.000Z</time>
      </trkpt>
      <trkpt lat="40.91758375056087970733642578125" lon="-1.29590014927089214324951171875">
        <ele>896.4000244140625</ele>
        <time>2022-05-02T14:47:51.000Z</time>
      </trkpt>
      <trkpt lat="40.91758006252348423004150390625" lon="-1.29586645402014255523681640625">
        <ele>896.5999755859375</ele>
        <time>2022-05-02T14:47:52.000Z</time>
      </trkpt>
      <trkpt lat="40.91757855378091335296630859375" lon="-1.2958336807787418365478515625">
        <ele>896.5999755859375</ele>
        <time>2022-05-02T14:47:53.000Z</time>
      </trkpt>
      <trkpt lat="40.91756883077323436737060546875" lon="-1.2957711517810821533203125">
        <ele>897</ele>
        <time>2022-05-02T14:47:55.000Z</time>
      </trkpt>
      <trkpt lat="40.91754988767206668853759765625" lon="-1.2957196868956089019775390625">
        <ele>897.20001220703125</ele>
        <time>2022-05-02T14:47:57.000Z</time>
      </trkpt>
      <trkpt lat="40.917537398636341094970703125" lon="-1.29566721618175506591796875">
        <ele>897.4000244140625</ele>
        <time>2022-05-02T14:47:59.000Z</time>
      </trkpt>
      <trkpt lat="40.9175358898937702178955078125" lon="-1.29564383067190647125244140625">
        <ele>897.4000244140625</ele>
        <time>2022-05-02T14:48:00.000Z</time>
      </trkpt>
      <trkpt lat="40.91753614135086536407470703125" lon="-1.29561834968626499176025390625">
        <ele>897.5999755859375</ele>
        <time>2022-05-02T14:48:01.000Z</time>
      </trkpt>
      <trkpt lat="40.91753932647407054901123046875" lon="-1.29557074047625064849853515625">
        <ele>897.79998779296875</ele>
        <time>2022-05-02T14:48:03.000Z</time>
      </trkpt>
      <trkpt lat="40.9175405837595462799072265625" lon="-1.295521371066570281982421875">
        <ele>898</ele>
        <time>2022-05-02T14:48:05.000Z</time>
      </trkpt>
      <trkpt lat="40.91754083521664142608642578125" lon="-1.29546915180981159210205078125">
        <ele>898.20001220703125</ele>
        <time>2022-05-02T14:48:07.000Z</time>
      </trkpt>
      <trkpt lat="40.91753999702632427215576171875" lon="-1.2954179383814334869384765625">
        <ele>898.20001220703125</ele>
        <time>2022-05-02T14:48:09.000Z</time>
      </trkpt>
      <trkpt lat="40.91756799258291721343994140625" lon="-1.2953850813210010528564453125">
        <ele>898.4000244140625</ele>
        <time>2022-05-02T14:48:11.000Z</time>
      </trkpt>
      <trkpt lat="40.91759003698825836181640625" lon="-1.2953740172088146209716796875">
        <ele>898.4000244140625</ele>
        <time>2022-05-02T14:48:12.000Z</time>
      </trkpt>
      <trkpt lat="40.917613841593265533447265625" lon="-1.29536655731499195098876953125">
        <ele>898.4000244140625</ele>
        <time>2022-05-02T14:48:13.000Z</time>
      </trkpt>
      <trkpt lat="40.91763856820762157440185546875" lon="-1.29536144435405731201171875">
        <ele>898.4000244140625</ele>
        <time>2022-05-02T14:48:14.000Z</time>
      </trkpt>
      <trkpt lat="40.917661450803279876708984375" lon="-1.29534459672868251800537109375">
        <ele>898.4000244140625</ele>
        <time>2022-05-02T14:48:15.000Z</time>
      </trkpt>
      <trkpt lat="40.91771182604134082794189453125" lon="-1.2952990829944610595703125">
        <ele>898.4000244140625</ele>
        <time>2022-05-02T14:48:17.000Z</time>
      </trkpt>
      <trkpt lat="40.91777267865836620330810546875" lon="-1.295264549553394317626953125">
        <ele>898.20001220703125</ele>
        <time>2022-05-02T14:48:19.000Z</time>
      </trkpt>
      <trkpt lat="40.91783269308507442474365234375" lon="-1.2952355481684207916259765625">
        <ele>898.20001220703125</ele>
        <time>2022-05-02T14:48:21.000Z</time>
      </trkpt>
      <trkpt lat="40.91786169447004795074462890625" lon="-1.295224316418170928955078125">
        <ele>898.20001220703125</ele>
        <time>2022-05-02T14:48:22.000Z</time>
      </trkpt>
      <trkpt lat="40.917891450226306915283203125" lon="-1.29520629532635211944580078125">
        <ele>898</ele>
        <time>2022-05-02T14:48:23.000Z</time>
      </trkpt>
      <trkpt lat="40.9179422445595264434814453125" lon="-1.29515868611633777618408203125">
        <ele>898</ele>
        <time>2022-05-02T14:48:25.000Z</time>
      </trkpt>
      <trkpt lat="40.91797887347638607025146484375" lon="-1.29508442245423793792724609375">
        <ele>898</ele>
        <time>2022-05-02T14:48:27.000Z</time>
      </trkpt>
      <trkpt lat="40.91801860369741916656494140625" lon="-1.2950092367827892303466796875">
        <ele>898</ele>
        <time>2022-05-02T14:48:29.000Z</time>
      </trkpt>
      <trkpt lat="40.91806051321327686309814453125" lon="-1.29493338055908679962158203125">
        <ele>898</ele>
        <time>2022-05-02T14:48:31.000Z</time>
      </trkpt>
      <trkpt lat="40.91811038553714752197265625" lon="-1.2948674149811267852783203125">
        <ele>898.20001220703125</ele>
        <time>2022-05-02T14:48:33.000Z</time>
      </trkpt>
      <trkpt lat="40.9181400574743747711181640625" lon="-1.2948389165103435516357421875">
        <ele>898.4000244140625</ele>
        <time>2022-05-02T14:48:34.000Z</time>
      </trkpt>
      <trkpt lat="40.91817065142095088958740234375" lon="-1.29481804557144641876220703125">
        <ele>898.4000244140625</ele>
        <time>2022-05-02T14:48:35.000Z</time>
      </trkpt>
      <trkpt lat="40.91823703609406948089599609375" lon="-1.29478585906326770782470703125">
        <ele>898.79998779296875</ele>
        <time>2022-05-02T14:48:37.000Z</time>
      </trkpt>
      <trkpt lat="40.91830392368137836456298828125" lon="-1.29476691596210002899169921875">
        <ele>899.20001220703125</ele>
        <time>2022-05-02T14:48:39.000Z</time>
      </trkpt>
      <trkpt lat="40.918335355818271636962890625" lon="-1.29475526511669158935546875">
        <ele>899.20001220703125</ele>
        <time>2022-05-02T14:48:40.000Z</time>
      </trkpt>
      <trkpt lat="40.9183673746883869171142578125" lon="-1.2947403453290462493896484375">
        <ele>899.4000244140625</ele>
        <time>2022-05-02T14:48:41.000Z</time>
      </trkpt>
      <trkpt lat="40.91844021342694759368896484375" lon="-1.294708661735057830810546875">
        <ele>899.5999755859375</ele>
        <time>2022-05-02T14:48:43.000Z</time>
      </trkpt>
      <trkpt lat="40.9185169078409671783447265625" lon="-1.294671781361103057861328125">
        <ele>899.79998779296875</ele>
        <time>2022-05-02T14:48:45.000Z</time>
      </trkpt>
      <trkpt lat="40.9185551293194293975830078125" lon="-1.2946499884128570556640625">
        <ele>899.5999755859375</ele>
        <time>2022-05-02T14:48:46.000Z</time>
      </trkpt>
      <trkpt lat="40.9185930155217647552490234375" lon="-1.29462878219783306121826171875">
        <ele>899.5999755859375</ele>
        <time>2022-05-02T14:48:47.000Z</time>
      </trkpt>
      <trkpt lat="40.9186661057174205780029296875" lon="-1.2946008704602718353271484375">
        <ele>899.4000244140625</ele>
        <time>2022-05-02T14:48:49.000Z</time>
      </trkpt>
      <trkpt lat="40.91873676516115665435791015625" lon="-1.2945603020489215850830078125">
        <ele>899.4000244140625</ele>
        <time>2022-05-02T14:48:51.000Z</time>
      </trkpt>
      <trkpt lat="40.91879895888268947601318359375" lon="-1.29452769644558429718017578125">
        <ele>899</ele>
        <time>2022-05-02T14:48:53.000Z</time>
      </trkpt>
      <trkpt lat="40.918856374919414520263671875" lon="-1.29445695318281650543212890625">
        <ele>898.79998779296875</ele>
        <time>2022-05-02T14:48:55.000Z</time>
      </trkpt>
      <trkpt lat="40.91888956725597381591796875" lon="-1.29441923461854457855224609375">
        <ele>898.79998779296875</ele>
        <time>2022-05-02T14:48:56.000Z</time>
      </trkpt>
      <trkpt lat="40.91892753727734088897705078125" lon="-1.2943844497203826904296875">
        <ele>898.5999755859375</ele>
        <time>2022-05-02T14:48:57.000Z</time>
      </trkpt>
      <trkpt lat="40.918966345489025115966796875" lon="-1.29435536451637744903564453125">
        <ele>898.4000244140625</ele>
        <time>2022-05-02T14:48:58.000Z</time>
      </trkpt>
      <trkpt lat="40.919006578624248504638671875" lon="-1.2943306379020214080810546875">
        <ele>898.20001220703125</ele>
        <time>2022-05-02T14:48:59.000Z</time>
      </trkpt>
      <trkpt lat="40.919085703790187835693359375" lon="-1.29429451189935207366943359375">
        <ele>897.4000244140625</ele>
        <time>2022-05-02T14:49:01.000Z</time>
      </trkpt>
      <trkpt lat="40.91915099881589412689208984375" lon="-1.29425712861120700836181640625">
        <ele>896.79998779296875</ele>
        <time>2022-05-02T14:49:03.000Z</time>
      </trkpt>
      <trkpt lat="40.91917010955512523651123046875" lon="-1.29423357546329498291015625">
        <ele>896.79998779296875</ele>
        <time>2022-05-02T14:49:04.000Z</time>
      </trkpt>
      <trkpt lat="40.91917614452540874481201171875" lon="-1.29421153105795383453369140625">
        <ele>896.79998779296875</ele>
        <time>2022-05-02T14:49:05.000Z</time>
      </trkpt>
      <trkpt lat="40.91917916201055049896240234375" lon="-1.29417129792273044586181640625">
        <ele>896.79998779296875</ele>
        <time>2022-05-02T14:49:07.000Z</time>
      </trkpt>
      <trkpt lat="40.9191804192960262298583984375" lon="-1.294158138334751129150390625">
        <ele>897</ele>
        <time>2022-05-02T14:49:08.000Z</time>
      </trkpt>
      <trkpt lat="40.9191784076392650604248046875" lon="-1.2941484153270721435546875">
        <ele>897</ele>
        <time>2022-05-02T14:49:09.000Z</time>
      </trkpt>
      <trkpt lat="40.91916759498417377471923828125" lon="-1.29415000788867473602294921875">
        <ele>897.20001220703125</ele>
        <time>2022-05-02T14:49:11.000Z</time>
      </trkpt>
      <trkpt lat="40.91915368102490901947021484375" lon="-1.29414648748934268951416015625">
        <ele>897.20001220703125</ele>
        <time>2022-05-02T14:49:13.000Z</time>
      </trkpt>
      <trkpt lat="40.91914764605462551116943359375" lon="-1.29414548166096210479736328125">
        <ele>897.4000244140625</ele>
        <time>2022-05-02T14:49:14.000Z</time>
      </trkpt>
      <trkpt lat="40.91918997466564178466796875" lon="-1.2941562943160533905029296875">
        <ele>896.79998779296875</ele>
        <time>2022-05-02T14:50:02.000Z</time>
      </trkpt>
      <trkpt lat="40.9191928245127201080322265625" lon="-1.29416425712406635284423828125">
        <ele>896.79998779296875</ele>
        <time>2022-05-02T14:50:03.000Z</time>
      </trkpt>
      <trkpt lat="40.918879173696041107177734375" lon="-1.293511055409908294677734375">
        <ele>896.5999755859375</ele>
        <time>2022-05-03T07:44:42.000Z</time>
      </trkpt>
      <trkpt lat="40.91887104324996471405029296875" lon="-1.29364139400422573089599609375">
        <ele>896.79998779296875</ele>
        <time>2022-05-03T07:44:47.000Z</time>
      </trkpt>
      <trkpt lat="40.91886919923126697540283203125" lon="-1.29367877729237079620361328125">
        <ele>896.79998779296875</ele>
        <time>2022-05-03T07:44:48.000Z</time>
      </trkpt>
      <trkpt lat="40.918868444859981536865234375" lon="-1.293717920780181884765625">
        <ele>896.79998779296875</ele>
        <time>2022-05-03T07:44:49.000Z</time>
      </trkpt>
      <trkpt lat="40.918862409889698028564453125" lon="-1.29380308091640472412109375">
        <ele>897</ele>
        <time>2022-05-03T07:44:51.000Z</time>
      </trkpt>
      <trkpt lat="40.9188535250723361968994140625" lon="-1.293893940746784210205078125">
        <ele>897.20001220703125</ele>
        <time>2022-05-03T07:44:53.000Z</time>
      </trkpt>
      <trkpt lat="40.918850339949131011962890625" lon="-1.2939447350800037384033203125">
        <ele>897.20001220703125</ele>
        <time>2022-05-03T07:44:54.000Z</time>
      </trkpt>
      <trkpt lat="40.9188474901020526885986328125" lon="-1.293997205793857574462890625">
        <ele>897.20001220703125</ele>
        <time>2022-05-03T07:44:55.000Z</time>
      </trkpt>
      <trkpt lat="40.9188414551317691802978515625" lon="-1.29409812390804290771484375">
        <ele>896.79998779296875</ele>
        <time>2022-05-03T07:44:57.000Z</time>
      </trkpt>
      <trkpt lat="40.91884271241724491119384765625" lon="-1.29419007338583469390869140625">
        <ele>896.4000244140625</ele>
        <time>2022-05-03T07:44:59.000Z</time>
      </trkpt>
      <trkpt lat="40.91885109432041645050048828125" lon="-1.29422846250236034393310546875">
        <ele>896.4000244140625</ele>
        <time>2022-05-03T07:45:00.000Z</time>
      </trkpt>
      <trkpt lat="40.9188592247664928436279296875" lon="-1.294265426695346832275390625">
        <ele>896.20001220703125</ele>
        <time>2022-05-03T07:45:01.000Z</time>
      </trkpt>
      <trkpt lat="40.91887121088802814483642578125" lon="-1.2943313084542751312255859375">
        <ele>895.79998779296875</ele>
        <time>2022-05-03T07:45:03.000Z</time>
      </trkpt>
      <trkpt lat="40.91887104324996471405029296875" lon="-1.29438805393874645233154296875">
        <ele>895.5999755859375</ele>
        <time>2022-05-03T07:45:05.000Z</time>
      </trkpt>
      <trkpt lat="40.9188669361174106597900390625" lon="-1.29441353492438793182373046875">
        <ele>895.5999755859375</ele>
        <time>2022-05-03T07:45:06.000Z</time>
      </trkpt>
      <trkpt lat="40.91886098496615886688232421875" lon="-1.29443666897714138031005859375">
        <ele>895.5999755859375</ele>
        <time>2022-05-03T07:45:07.000Z</time>
      </trkpt>
      <trkpt lat="40.91884774155914783477783203125" lon="-1.29447338171303272247314453125">
        <ele>895.4000244140625</ele>
        <time>2022-05-03T07:45:09.000Z</time>
      </trkpt>
      <trkpt lat="40.9188360907137393951416015625" lon="-1.2944902293384075164794921875">
        <ele>895.4000244140625</ele>
        <time>2022-05-03T07:45:10.000Z</time>
      </trkpt>
      <trkpt lat="40.91881035827100276947021484375" lon="-1.2945083342492580413818359375">
        <ele>895.4000244140625</ele>
        <time>2022-05-03T07:45:11.000Z</time>
      </trkpt>
      <trkpt lat="40.91878521256148815155029296875" lon="-1.29452057182788848876953125">
        <ele>895.5999755859375</ele>
        <time>2022-05-03T07:45:12.000Z</time>
      </trkpt>
      <trkpt lat="40.918762497603893280029296875" lon="-1.29452803172171115875244140625">
        <ele>895.5999755859375</ele>
        <time>2022-05-03T07:45:13.000Z</time>
      </trkpt>
      <trkpt lat="40.91871731914579868316650390625" lon="-1.29454345442354679107666015625">
        <ele>895.79998779296875</ele>
        <time>2022-05-03T07:45:15.000Z</time>
      </trkpt>
      <trkpt lat="40.9186811931431293487548828125" lon="-1.29456348717212677001953125">
        <ele>896</ele>
        <time>2022-05-03T07:45:17.000Z</time>
      </trkpt>
      <trkpt lat="40.9186409600079059600830078125" lon="-1.29458838142454624176025390625">
        <ele>896</ele>
        <time>2022-05-03T07:45:19.000Z</time>
      </trkpt>
      <trkpt lat="40.9185973741114139556884765625" lon="-1.294608078896999359130859375">
        <ele>896.20001220703125</ele>
        <time>2022-05-03T07:45:21.000Z</time>
      </trkpt>
      <trkpt lat="40.91857532970607280731201171875" lon="-1.29461889155209064483642578125">
        <ele>896.20001220703125</ele>
        <time>2022-05-03T07:45:22.000Z</time>
      </trkpt>
      <trkpt lat="40.91855471022427082061767578125" lon="-1.29462995566427707672119140625">
        <ele>896.20001220703125</ele>
        <time>2022-05-03T07:45:23.000Z</time>
      </trkpt>
      <trkpt lat="40.91853551566600799560546875" lon="-1.2946370802819728851318359375">
        <ele>896.4000244140625</ele>
        <time>2022-05-03T07:45:24.000Z</time>
      </trkpt>
      <trkpt lat="40.91852034442126750946044921875" lon="-1.29464303143322467803955078125">
        <ele>896.4000244140625</ele>
        <time>2022-05-03T07:45:25.000Z</time>
      </trkpt>
      <trkpt lat="40.91850039549171924591064453125" lon="-1.29465023986995220184326171875">
        <ele>896.4000244140625</ele>
        <time>2022-05-03T07:45:27.000Z</time>
      </trkpt>
      <trkpt lat="40.9184967912733554840087890625" lon="-1.29464588128030300140380859375">
        <ele>896.5999755859375</ele>
        <time>2022-05-03T07:45:29.000Z</time>
      </trkpt>
      <trkpt lat="40.9184897504746913909912109375" lon="-1.29478879272937774658203125">
        <ele>896</ele>
        <time>2022-05-03T07:45:39.000Z</time>
      </trkpt>
      <trkpt lat="40.91848145239055156707763671875" lon="-1.2948295287787914276123046875">
        <ele>896</ele>
        <time>2022-05-03T07:45:40.000Z</time>
      </trkpt>
      <trkpt lat="40.91847105883061885833740234375" lon="-1.29486833699047565460205078125">
        <ele>896</ele>
        <time>2022-05-03T07:45:41.000Z</time>
      </trkpt>
      <trkpt lat="40.9184615872800350189208984375" lon="-1.294903457164764404296875">
        <ele>895.79998779296875</ele>
        <time>2022-05-03T07:45:42.000Z</time>
      </trkpt>
      <trkpt lat="40.91845571994781494140625" lon="-1.29494779743254184722900390625">
        <ele>895.79998779296875</ele>
        <time>2022-05-03T07:45:43.000Z</time>
      </trkpt>
      <trkpt lat="40.918461419641971588134765625" lon="-1.295036561787128448486328125">
        <ele>895.5999755859375</ele>
        <time>2022-05-03T07:45:45.000Z</time>
      </trkpt>
      <trkpt lat="40.9184900857508182525634765625" lon="-1.2951259128749370574951171875">
        <ele>895.20001220703125</ele>
        <time>2022-05-03T07:45:47.000Z</time>
      </trkpt>
      <trkpt lat="40.91849955730140209197998046875" lon="-1.29518299363553524017333984375">
        <ele>895</ele>
        <time>2022-05-03T07:45:48.000Z</time>
      </trkpt>
      <trkpt lat="40.9185122139751911163330078125" lon="-1.2952499650418758392333984375">
        <ele>894.79998779296875</ele>
        <time>2022-05-03T07:45:49.000Z</time>
      </trkpt>
      <trkpt lat="40.9185430593788623809814453125" lon="-1.29539421759545803070068359375">
        <ele>894.5999755859375</ele>
        <time>2022-05-03T07:45:51.000Z</time>
      </trkpt>
      <trkpt lat="40.91856225393712520599365234375" lon="-1.29547183401882648468017578125">
        <ele>894.4000244140625</ele>
        <time>2022-05-03T07:45:52.000Z</time>
      </trkpt>
      <trkpt lat="40.9185762517154216766357421875" lon="-1.295556910336017608642578125">
        <ele>894.20001220703125</ele>
        <time>2022-05-03T07:45:53.000Z</time>
      </trkpt>
      <trkpt lat="40.9185879863798618316650390625" lon="-1.2956464290618896484375">
        <ele>894.20001220703125</ele>
        <time>2022-05-03T07:45:54.000Z</time>
      </trkpt>
      <trkpt lat="40.91859058476984500885009765625" lon="-1.295746006071567535400390625">
        <ele>894.20001220703125</ele>
        <time>2022-05-03T07:45:55.000Z</time>
      </trkpt>
      <trkpt lat="40.9186027385294437408447265625" lon="-1.2959356047213077545166015625">
        <ele>894</ele>
        <time>2022-05-03T07:45:57.000Z</time>
      </trkpt>
      <trkpt lat="40.9186218492686748504638671875" lon="-1.296126879751682281494140625">
        <ele>894.20001220703125</ele>
        <time>2022-05-03T07:45:59.000Z</time>
      </trkpt>
      <trkpt lat="40.91863718815147876739501953125" lon="-1.2962226010859012603759765625">
        <ele>894.4000244140625</ele>
        <time>2022-05-03T07:46:00.000Z</time>
      </trkpt>
      <trkpt lat="40.918654538691043853759765625" lon="-1.2963184900581836700439453125">
        <ele>894.4000244140625</ele>
        <time>2022-05-03T07:46:01.000Z</time>
      </trkpt>
      <trkpt lat="40.918673314154148101806640625" lon="-1.29641496576368808746337890625">
        <ele>894.4000244140625</ele>
        <time>2022-05-03T07:46:02.000Z</time>
      </trkpt>
      <trkpt lat="40.9186939336359500885009765625" lon="-1.29651303403079509735107421875">
        <ele>894.20001220703125</ele>
        <time>2022-05-03T07:46:03.000Z</time>
      </trkpt>
      <trkpt lat="40.918725617229938507080078125" lon="-1.2967053987085819244384765625">
        <ele>893.20001220703125</ele>
        <time>2022-05-03T07:46:05.000Z</time>
      </trkpt>
      <trkpt lat="40.91874967329204082489013671875" lon="-1.29678905010223388671875">
        <ele>892.79998779296875</ele>
        <time>2022-05-03T07:46:06.000Z</time>
      </trkpt>
      <trkpt lat="40.91876794584095478057861328125" lon="-1.29686708562076091766357421875">
        <ele>892.5999755859375</ele>
        <time>2022-05-03T07:46:07.000Z</time>
      </trkpt>
      <trkpt lat="40.91878672130405902862548828125" lon="-1.29699566401541233062744140625">
        <ele>892</ele>
        <time>2022-05-03T07:46:09.000Z</time>
      </trkpt>
      <trkpt lat="40.91879527084529399871826171875" lon="-1.29706003703176975250244140625">
        <ele>891.79998779296875</ele>
        <time>2022-05-03T07:46:11.000Z</time>
      </trkpt>
      <trkpt lat="40.91880801133811473846435546875" lon="-1.29709373228251934051513671875">
        <ele>891.79998779296875</ele>
        <time>2022-05-03T07:46:13.000Z</time>
      </trkpt>
      <trkpt lat="40.91880465857684612274169921875" lon="-1.29711653105914592742919921875">
        <ele>891.5999755859375</ele>
        <time>2022-05-03T07:46:14.000Z</time>
      </trkpt>
      <trkpt lat="40.91879242099821567535400390625" lon="-1.29714402370154857635498046875">
        <ele>891.5999755859375</ele>
        <time>2022-05-03T07:46:15.000Z</time>
      </trkpt>
      <trkpt lat="40.91877398081123828887939453125" lon="-1.2971694208681583404541015625">
        <ele>891.4000244140625</ele>
        <time>2022-05-03T07:46:16.000Z</time>
      </trkpt>
      <trkpt lat="40.91875352896749973297119140625" lon="-1.297191046178340911865234375">
        <ele>891.4000244140625</ele>
        <time>2022-05-03T07:46:17.000Z</time>
      </trkpt>
      <trkpt lat="40.918705500662326812744140625" lon="-1.29721946083009243011474609375">
        <ele>891.20001220703125</ele>
        <time>2022-05-03T07:46:19.000Z</time>
      </trkpt>
      <trkpt lat="40.91864204965531826019287109375" lon="-1.2972304411232471466064453125">
        <ele>891.20001220703125</ele>
        <time>2022-05-03T07:46:21.000Z</time>
      </trkpt>
      <trkpt lat="40.91861388646066188812255859375" lon="-1.2972342967987060546875">
        <ele>891.20001220703125</ele>
        <time>2022-05-03T07:46:22.000Z</time>
      </trkpt>
      <trkpt lat="40.91858119703829288482666015625" lon="-1.29723907448351383209228515625">
        <ele>891.20001220703125</ele>
        <time>2022-05-03T07:46:23.000Z</time>
      </trkpt>
      <trkpt lat="40.918511711061000823974609375" lon="-1.29724837839603424072265625">
        <ele>891.20001220703125</ele>
        <time>2022-05-03T07:46:25.000Z</time>
      </trkpt>
      <trkpt lat="40.9184441529214382171630859375" lon="-1.29726388491690158843994140625">
        <ele>891.20001220703125</ele>
        <time>2022-05-03T07:46:27.000Z</time>
      </trkpt>
      <trkpt lat="40.9183781035244464874267578125" lon="-1.2972763739526271820068359375">
        <ele>891</ele>
        <time>2022-05-03T07:46:29.000Z</time>
      </trkpt>
      <trkpt lat="40.9183023311197757720947265625" lon="-1.29728148691356182098388671875">
        <ele>891</ele>
        <time>2022-05-03T07:46:31.000Z</time>
      </trkpt>
      <trkpt lat="40.9182352758944034576416015625" lon="-1.297286935150623321533203125">
        <ele>891</ele>
        <time>2022-05-03T07:46:33.000Z</time>
      </trkpt>
      <trkpt lat="40.918173082172870635986328125" lon="-1.29729841835796833038330078125">
        <ele>891</ele>
        <time>2022-05-03T07:46:35.000Z</time>
      </trkpt>
      <trkpt lat="40.91810879297554492950439453125" lon="-1.29730068147182464599609375">
        <ele>891</ele>
        <time>2022-05-03T07:46:37.000Z</time>
      </trkpt>
      <trkpt lat="40.91804324649274349212646484375" lon="-1.2973129190504550933837890625">
        <ele>891</ele>
        <time>2022-05-03T07:46:39.000Z</time>
      </trkpt>
      <trkpt lat="40.91797870583832263946533203125" lon="-1.29732322879135608673095703125">
        <ele>890.79998779296875</ele>
        <time>2022-05-03T07:46:41.000Z</time>
      </trkpt>
      <trkpt lat="40.9179447591304779052734375" lon="-1.2973219715058803558349609375">
        <ele>890.79998779296875</ele>
        <time>2022-05-03T07:46:42.000Z</time>
      </trkpt>
      <trkpt lat="40.91791131533682346343994140625" lon="-1.2973226420581340789794921875">
        <ele>890.79998779296875</ele>
        <time>2022-05-03T07:46:43.000Z</time>
      </trkpt>
      <trkpt lat="40.91784744523465633392333984375" lon="-1.29732842557132244110107421875">
        <ele>890.5999755859375</ele>
        <time>2022-05-03T07:46:45.000Z</time>
      </trkpt>
      <trkpt lat="40.9177813120186328887939453125" lon="-1.29734401591122150421142578125">
        <ele>890.5999755859375</ele>
        <time>2022-05-03T07:46:47.000Z</time>
      </trkpt>
      <trkpt lat="40.91771367006003856658935546875" lon="-1.29735843278467655181884765625">
        <ele>890.4000244140625</ele>
        <time>2022-05-03T07:46:49.000Z</time>
      </trkpt>
      <trkpt lat="40.9176498837769031524658203125" lon="-1.29737318493425846099853515625">
        <ele>890.4000244140625</ele>
        <time>2022-05-03T07:46:51.000Z</time>
      </trkpt>
      <trkpt lat="40.917614512145519256591796875" lon="-1.2973850034177303314208984375">
        <ele>890.20001220703125</ele>
        <time>2022-05-03T07:46:52.000Z</time>
      </trkpt>
      <trkpt lat="40.91757587157189846038818359375" lon="-1.29739724099636077880859375">
        <ele>890.20001220703125</ele>
        <time>2022-05-03T07:46:53.000Z</time>
      </trkpt>
      <trkpt lat="40.9175486303865909576416015625" lon="-1.2974285893142223358154296875">
        <ele>890</ele>
        <time>2022-05-03T07:46:54.000Z</time>
      </trkpt>
      <trkpt lat="40.9175285138189792633056640625" lon="-1.29747100174427032470703125">
        <ele>890</ele>
        <time>2022-05-03T07:46:55.000Z</time>
      </trkpt>
      <trkpt lat="40.91751418076455593109130859375" lon="-1.29751953296363353729248046875">
        <ele>889.79998779296875</ele>
        <time>2022-05-03T07:46:56.000Z</time>
      </trkpt>
      <trkpt lat="40.91750579886138439178466796875" lon="-1.297573260962963104248046875">
        <ele>889.5999755859375</ele>
        <time>2022-05-03T07:46:57.000Z</time>
      </trkpt>
      <trkpt lat="40.91750311665236949920654296875" lon="-1.29763771779835224151611328125">
        <ele>889.5999755859375</ele>
        <time>2022-05-03T07:46:58.000Z</time>
      </trkpt>
      <trkpt lat="40.9175043739378452301025390625" lon="-1.2977139092981815338134765625">
        <ele>889.4000244140625</ele>
        <time>2022-05-03T07:46:59.000Z</time>
      </trkpt>
      <trkpt lat="40.917506553232669830322265625" lon="-1.2977983988821506500244140625">
        <ele>889.20001220703125</ele>
        <time>2022-05-03T07:47:00.000Z</time>
      </trkpt>
      <trkpt lat="40.91751099564135074615478515625" lon="-1.29788808524608612060546875">
        <ele>889</ele>
        <time>2022-05-03T07:47:01.000Z</time>
      </trkpt>
      <trkpt lat="40.91751451604068279266357421875" lon="-1.29797785542905330657958984375">
        <ele>888.79998779296875</ele>
        <time>2022-05-03T07:47:02.000Z</time>
      </trkpt>
      <trkpt lat="40.91752231121063232421875" lon="-1.29806511104106903076171875">
        <ele>888.79998779296875</ele>
        <time>2022-05-03T07:47:03.000Z</time>
      </trkpt>
      <trkpt lat="40.91753379441797733306884765625" lon="-1.29822495393455028533935546875">
        <ele>889</ele>
        <time>2022-05-03T07:47:05.000Z</time>
      </trkpt>
      <trkpt lat="40.9175409190356731414794921875" lon="-1.29828932695090770721435546875">
        <ele>889.20001220703125</ele>
        <time>2022-05-03T07:47:06.000Z</time>
      </trkpt>
      <trkpt lat="40.91754846274852752685546875" lon="-1.29833978600800037384033203125">
        <ele>889.20001220703125</ele>
        <time>2022-05-03T07:47:07.000Z</time>
      </trkpt>
      <trkpt lat="40.91757905669510364532470703125" lon="-1.2984159775078296661376953125">
        <ele>889.5999755859375</ele>
        <time>2022-05-03T07:47:09.000Z</time>
      </trkpt>
      <trkpt lat="40.91760152019560337066650390625" lon="-1.29843886010348796844482421875">
        <ele>889.5999755859375</ele>
        <time>2022-05-03T07:47:10.000Z</time>
      </trkpt>
      <trkpt lat="40.91762314550578594207763671875" lon="-1.2984585575759410858154296875">
        <ele>889.79998779296875</ele>
        <time>2022-05-03T07:47:11.000Z</time>
      </trkpt>
      <trkpt lat="40.9176770411431789398193359375" lon="-1.29848546348512172698974609375">
        <ele>890</ele>
        <time>2022-05-03T07:47:13.000Z</time>
      </trkpt>
      <trkpt lat="40.9177337028086185455322265625" lon="-1.2984729744493961334228515625">
        <ele>890</ele>
        <time>2022-05-03T07:47:15.000Z</time>
      </trkpt>
      <trkpt lat="40.917768068611621856689453125" lon="-1.29846015013754367828369140625">
        <ele>890</ele>
        <time>2022-05-03T07:47:16.000Z</time>
      </trkpt>
      <trkpt lat="40.91780955903232097625732421875" lon="-1.298446319997310638427734375">
        <ele>890.20001220703125</ele>
        <time>2022-05-03T07:47:17.000Z</time>
      </trkpt>
      <trkpt lat="40.9179036878049373626708984375" lon="-1.29842586815357208251953125">
        <ele>890.4000244140625</ele>
        <time>2022-05-03T07:47:19.000Z</time>
      </trkpt>
      <trkpt lat="40.91798968613147735595703125" lon="-1.2984216772019863128662109375">
        <ele>890.5999755859375</ele>
        <time>2022-05-03T07:47:21.000Z</time>
      </trkpt>
      <trkpt lat="40.91805581934750080108642578125" lon="-1.2984531931579113006591796875">
        <ele>890.79998779296875</ele>
        <time>2022-05-03T07:47:23.000Z</time>
      </trkpt>
      <trkpt lat="40.9180954657495021820068359375" lon="-1.298535168170928955078125">
        <ele>891</ele>
        <time>2022-05-03T07:47:25.000Z</time>
      </trkpt>
      <trkpt lat="40.91810309328138828277587890625" lon="-1.298581771552562713623046875">
        <ele>891</ele>
        <time>2022-05-03T07:47:26.000Z</time>
      </trkpt>
      <trkpt lat="40.9181092120707035064697265625" lon="-1.29862896166741847991943359375">
        <ele>891.20001220703125</ele>
        <time>2022-05-03T07:47:27.000Z</time>
      </trkpt>
      <trkpt lat="40.91811843216419219970703125" lon="-1.298719905316829681396484375">
        <ele>891.4000244140625</ele>
        <time>2022-05-03T07:47:29.000Z</time>
      </trkpt>
      <trkpt lat="40.91811751015484333038330078125" lon="-1.29881286062300205230712890625">
        <ele>891.5999755859375</ele>
        <time>2022-05-03T07:47:31.000Z</time>
      </trkpt>
      <trkpt lat="40.91811935417354106903076171875" lon="-1.2989004515111446380615234375">
        <ele>891.79998779296875</ele>
        <time>2022-05-03T07:47:33.000Z</time>
      </trkpt>
      <trkpt lat="40.9181152470409870147705078125" lon="-1.29894479177892208099365234375">
        <ele>891.79998779296875</ele>
        <time>2022-05-03T07:47:34.000Z</time>
      </trkpt>
      <trkpt lat="40.9181082062423229217529296875" lon="-1.2989795766770839691162109375">
        <ele>891.79998779296875</ele>
        <time>2022-05-03T07:47:35.000Z</time>
      </trkpt>
      <trkpt lat="40.9180901013314723968505859375" lon="-1.29900279454886913299560546875">
        <ele>891.79998779296875</ele>
        <time>2022-05-03T07:47:36.000Z</time>
      </trkpt>
      <trkpt lat="40.9180632792413234710693359375" lon="-1.29902425222098827362060546875">
        <ele>891.79998779296875</ele>
        <time>2022-05-03T07:47:37.000Z</time>
      </trkpt>
      <trkpt lat="40.91803570277988910675048828125" lon="-1.2990389205515384674072265625">
        <ele>891.79998779296875</ele>
        <time>2022-05-03T07:47:38.000Z</time>
      </trkpt>
      <trkpt lat="40.918012149631977081298828125" lon="-1.29904638044536113739013671875">
        <ele>891.79998779296875</ele>
        <time>2022-05-03T07:47:39.000Z</time>
      </trkpt>
      <trkpt lat="40.91795221902430057525634765625" lon="-1.2990590371191501617431640625">
        <ele>891.79998779296875</ele>
        <time>2022-05-03T07:47:41.000Z</time>
      </trkpt>
      <trkpt lat="40.9178937971591949462890625" lon="-1.29908703267574310302734375">
        <ele>891.5999755859375</ele>
        <time>2022-05-03T07:47:43.000Z</time>
      </trkpt>
      <trkpt lat="40.91783151961863040924072265625" lon="-1.2991056405007839202880859375">
        <ele>891.4000244140625</ele>
        <time>2022-05-03T07:47:45.000Z</time>
      </trkpt>
      <trkpt lat="40.91776580549776554107666015625" lon="-1.2991131842136383056640625">
        <ele>891.20001220703125</ele>
        <time>2022-05-03T07:47:47.000Z</time>
      </trkpt>
      <trkpt lat="40.917694978415966033935546875" lon="-1.29912986420094966888427734375">
        <ele>891.20001220703125</ele>
        <time>2022-05-03T07:47:49.000Z</time>
      </trkpt>
      <trkpt lat="40.91765977442264556884765625" lon="-1.29914327524602413177490234375">
        <ele>891</ele>
        <time>2022-05-03T07:47:50.000Z</time>
      </trkpt>
      <trkpt lat="40.917623229324817657470703125" lon="-1.2991542555391788482666015625">
        <ele>891</ele>
        <time>2022-05-03T07:47:51.000Z</time>
      </trkpt>
      <trkpt lat="40.9175446070730686187744140625" lon="-1.2991740368306636810302734375">
        <ele>890.79998779296875</ele>
        <time>2022-05-03T07:47:53.000Z</time>
      </trkpt>
      <trkpt lat="40.9174527414143085479736328125" lon="-1.29917688667774200439453125">
        <ele>890.5999755859375</ele>
        <time>2022-05-03T07:47:55.000Z</time>
      </trkpt>
      <trkpt lat="40.91740907169878482818603515625" lon="-1.2991780601441860198974609375">
        <ele>890.4000244140625</ele>
        <time>2022-05-03T07:47:56.000Z</time>
      </trkpt>
      <trkpt lat="40.9173628874123096466064453125" lon="-1.2991829216480255126953125">
        <ele>890.4000244140625</ele>
        <time>2022-05-03T07:47:57.000Z</time>
      </trkpt>
      <trkpt lat="40.9172794036567211151123046875" lon="-1.2992015294730663299560546875">
        <ele>890.20001220703125</ele>
        <time>2022-05-03T07:47:59.000Z</time>
      </trkpt>
      <trkpt lat="40.9171949140727519989013671875" lon="-1.2992223165929317474365234375">
        <ele>890</ele>
        <time>2022-05-03T07:48:01.000Z</time>
      </trkpt>
      <trkpt lat="40.91711419634521007537841796875" lon="-1.29924394190311431884765625">
        <ele>890.20001220703125</ele>
        <time>2022-05-03T07:48:03.000Z</time>
      </trkpt>
      <trkpt lat="40.9170366637408733367919921875" lon="-1.2992759607732295989990234375">
        <ele>890.4000244140625</ele>
        <time>2022-05-03T07:48:05.000Z</time>
      </trkpt>
      <trkpt lat="40.91696315445005893707275390625" lon="-1.29930823110044002532958984375">
        <ele>890.5999755859375</ele>
        <time>2022-05-03T07:48:07.000Z</time>
      </trkpt>
      <trkpt lat="40.91687816195189952850341796875" lon="-1.299327425658702850341796875">
        <ele>890.79998779296875</ele>
        <time>2022-05-03T07:48:09.000Z</time>
      </trkpt>
      <trkpt lat="40.9168375097215175628662109375" lon="-1.29933656193315982818603515625">
        <ele>891</ele>
        <time>2022-05-03T07:48:10.000Z</time>
      </trkpt>
      <trkpt lat="40.9167976118624210357666015625" lon="-1.29934511147439479827880859375">
        <ele>891</ele>
        <time>2022-05-03T07:48:11.000Z</time>
      </trkpt>
      <trkpt lat="40.91671756468713283538818359375" lon="-1.29936464130878448486328125">
        <ele>891.20001220703125</ele>
        <time>2022-05-03T07:48:13.000Z</time>
      </trkpt>
      <trkpt lat="40.91663785278797149658203125" lon="-1.29938283003866672515869140625">
        <ele>891.20001220703125</ele>
        <time>2022-05-03T07:48:15.000Z</time>
      </trkpt>
      <trkpt lat="40.916598625481128692626953125" lon="-1.29939146339893341064453125">
        <ele>891.20001220703125</ele>
        <time>2022-05-03T07:48:16.000Z</time>
      </trkpt>
      <trkpt lat="40.9165588952600955963134765625" lon="-1.29940219223499298095703125">
        <ele>891.4000244140625</ele>
        <time>2022-05-03T07:48:17.000Z</time>
      </trkpt>
      <trkpt lat="40.91647951863706111907958984375" lon="-1.2994285114109516143798828125">
        <ele>891.4000244140625</ele>
        <time>2022-05-03T07:48:19.000Z</time>
      </trkpt>
      <trkpt lat="40.91639284975826740264892578125" lon="-1.299441419541835784912109375">
        <ele>891.5999755859375</ele>
        <time>2022-05-03T07:48:21.000Z</time>
      </trkpt>
      <trkpt lat="40.916304253041744232177734375" lon="-1.29946178756654262542724609375">
        <ele>891.79998779296875</ele>
        <time>2022-05-03T07:48:23.000Z</time>
      </trkpt>
      <trkpt lat="40.9162169136106967926025390625" lon="-1.299460195004940032958984375">
        <ele>891.79998779296875</ele>
        <time>2022-05-03T07:48:25.000Z</time>
      </trkpt>
      <trkpt lat="40.91613284312188625335693359375" lon="-1.299452148377895355224609375">
        <ele>892</ele>
        <time>2022-05-03T07:48:27.000Z</time>
      </trkpt>
      <trkpt lat="40.91604751534759998321533203125" lon="-1.2994506396353244781494140625">
        <ele>892</ele>
        <time>2022-05-03T07:48:29.000Z</time>
      </trkpt>
      <trkpt lat="40.915968306362628936767578125" lon="-1.29944108426570892333984375">
        <ele>892</ele>
        <time>2022-05-03T07:48:31.000Z</time>
      </trkpt>
      <trkpt lat="40.91588683426380157470703125" lon="-1.2994362227618694305419921875">
        <ele>892.20001220703125</ele>
        <time>2022-05-03T07:48:33.000Z</time>
      </trkpt>
      <trkpt lat="40.91581013984978199005126953125" lon="-1.29942457191646099090576171875">
        <ele>892.4000244140625</ele>
        <time>2022-05-03T07:48:35.000Z</time>
      </trkpt>
      <trkpt lat="40.915724225342273712158203125" lon="-1.2994194589555263519287109375">
        <ele>892.5999755859375</ele>
        <time>2022-05-03T07:48:37.000Z</time>
      </trkpt>
      <trkpt lat="40.91568239964544773101806640625" lon="-1.29941535182297229766845703125">
        <ele>892.79998779296875</ele>
        <time>2022-05-03T07:48:38.000Z</time>
      </trkpt>
      <trkpt lat="40.9156399033963680267333984375" lon="-1.2994140945374965667724609375">
        <ele>892.79998779296875</ele>
        <time>2022-05-03T07:48:39.000Z</time>
      </trkpt>
      <trkpt lat="40.9155544079840183258056640625" lon="-1.2994181178510189056396484375">
        <ele>893</ele>
        <time>2022-05-03T07:48:41.000Z</time>
      </trkpt>
      <trkpt lat="40.915491878986358642578125" lon="-1.299415938556194305419921875">
        <ele>893</ele>
        <time>2022-05-03T07:48:43.000Z</time>
      </trkpt>
      <trkpt lat="40.9154669009149074554443359375" lon="-1.29942457191646099090576171875">
        <ele>892.79998779296875</ele>
        <time>2022-05-03T07:48:44.000Z</time>
      </trkpt>
      <trkpt lat="40.915443934500217437744140625" lon="-1.29944032989442348480224609375">
        <ele>892.79998779296875</ele>
        <time>2022-05-03T07:48:45.000Z</time>
      </trkpt>
      <trkpt lat="40.91542683541774749755859375" lon="-1.29946581088006496429443359375">
        <ele>892.79998779296875</ele>
        <time>2022-05-03T07:48:46.000Z</time>
      </trkpt>
      <trkpt lat="40.915417782962322235107421875" lon="-1.29949699155986309051513671875">
        <ele>892.79998779296875</ele>
        <time>2022-05-03T07:48:47.000Z</time>
      </trkpt>
      <trkpt lat="40.9154154360294342041015625" lon="-1.299528591334819793701171875">
        <ele>892.79998779296875</ele>
        <time>2022-05-03T07:48:48.000Z</time>
      </trkpt>
      <trkpt lat="40.91542004607617855072021484375" lon="-1.299569495022296905517578125">
        <ele>892.79998779296875</ele>
        <time>2022-05-03T07:48:49.000Z</time>
      </trkpt>
      <trkpt lat="40.91542423702776432037353515625" lon="-1.29965876229107379913330078125">
        <ele>892.79998779296875</ele>
        <time>2022-05-03T07:48:51.000Z</time>
      </trkpt>
      <trkpt lat="40.9154342114925384521484375" lon="-1.2997651286423206329345703125">
        <ele>892.79998779296875</ele>
        <time>2022-05-03T07:48:53.000Z</time>
      </trkpt>
      <trkpt lat="40.91543546877801418304443359375" lon="-1.29982329905033111572265625">
        <ele>892.79998779296875</ele>
        <time>2022-05-03T07:48:54.000Z</time>
      </trkpt>
      <trkpt lat="40.91543295420706272125244140625" lon="-1.2998868338763713836669921875">
        <ele>892.79998779296875</ele>
        <time>2022-05-03T07:48:55.000Z</time>
      </trkpt>
      <trkpt lat="40.915429852902889251708984375" lon="-1.30002915859222412109375">
        <ele>892.4000244140625</ele>
        <time>2022-05-03T07:48:57.000Z</time>
      </trkpt>
      <trkpt lat="40.915430523455142974853515625" lon="-1.300102584064006805419921875">
        <ele>892.20001220703125</ele>
        <time>2022-05-03T07:48:58.000Z</time>
      </trkpt>
      <trkpt lat="40.91543077491223812103271484375" lon="-1.30017776973545551300048828125">
        <ele>892</ele>
        <time>2022-05-03T07:48:59.000Z</time>
      </trkpt>
      <trkpt lat="40.9154313616454601287841796875" lon="-1.300331242382526397705078125">
        <ele>891.79998779296875</ele>
        <time>2022-05-03T07:49:01.000Z</time>
      </trkpt>
      <trkpt lat="40.91542792506515979766845703125" lon="-1.30041078664362430572509765625">
        <ele>891.5999755859375</ele>
        <time>2022-05-03T07:49:02.000Z</time>
      </trkpt>
      <trkpt lat="40.91542826034128665924072265625" lon="-1.30048957653343677520751953125">
        <ele>891.4000244140625</ele>
        <time>2022-05-03T07:49:03.000Z</time>
      </trkpt>
      <trkpt lat="40.91543018817901611328125" lon="-1.30056652240455150604248046875">
        <ele>891.20001220703125</ele>
        <time>2022-05-03T07:49:04.000Z</time>
      </trkpt>
      <trkpt lat="40.91543530113995075225830078125" lon="-1.3006401993334293365478515625">
        <ele>891</ele>
        <time>2022-05-03T07:49:05.000Z</time>
      </trkpt>
      <trkpt lat="40.91544318012893199920654296875" lon="-1.30077975802123546600341796875">
        <ele>891</ele>
        <time>2022-05-03T07:49:07.000Z</time>
      </trkpt>
      <trkpt lat="40.9154481254518032073974609375" lon="-1.30090825259685516357421875">
        <ele>890.79998779296875</ele>
        <time>2022-05-03T07:49:09.000Z</time>
      </trkpt>
      <trkpt lat="40.9154484607279300689697265625" lon="-1.30097153596580028533935546875">
        <ele>890.79998779296875</ele>
        <time>2022-05-03T07:49:10.000Z</time>
      </trkpt>
      <trkpt lat="40.9154477901756763458251953125" lon="-1.30103523842990398406982421875">
        <ele>890.5999755859375</ele>
        <time>2022-05-03T07:49:11.000Z</time>
      </trkpt>
      <trkpt lat="40.91544787399470806121826171875" lon="-1.301160715520381927490234375">
        <ele>890.5999755859375</ele>
        <time>2022-05-03T07:49:13.000Z</time>
      </trkpt>
      <trkpt lat="40.91545307077467441558837890625" lon="-1.30128418095409870147705078125">
        <ele>890.4000244140625</ele>
        <time>2022-05-03T07:49:15.000Z</time>
      </trkpt>
      <trkpt lat="40.9154591895639896392822265625" lon="-1.3014069758355617523193359375">
        <ele>890.20001220703125</ele>
        <time>2022-05-03T07:49:17.000Z</time>
      </trkpt>
      <trkpt lat="40.91546396724879741668701171875" lon="-1.30151719786226749420166015625">
        <ele>890</ele>
        <time>2022-05-03T07:49:19.000Z</time>
      </trkpt>
      <trkpt lat="40.91547243297100067138671875" lon="-1.30159766413271427154541015625">
        <ele>889.79998779296875</ele>
        <time>2022-05-03T07:49:21.000Z</time>
      </trkpt>
      <trkpt lat="40.915487520396709442138671875" lon="-1.30162498913705348968505859375">
        <ele>889.5999755859375</ele>
        <time>2022-05-03T07:49:22.000Z</time>
      </trkpt>
      <trkpt lat="40.91551006771624088287353515625" lon="-1.30164544098079204559326171875">
        <ele>889.4000244140625</ele>
        <time>2022-05-03T07:49:23.000Z</time>
      </trkpt>
      <trkpt lat="40.91557159088551998138427734375" lon="-1.30165533162653446197509765625">
        <ele>889.4000244140625</ele>
        <time>2022-05-03T07:49:25.000Z</time>
      </trkpt>
      <trkpt lat="40.9156057052314281463623046875" lon="-1.30164577625691890716552734375">
        <ele>889.20001220703125</ele>
        <time>2022-05-03T07:49:26.000Z</time>
      </trkpt>
      <trkpt lat="40.91564250178635120391845703125" lon="-1.3016317784786224365234375">
        <ele>889.20001220703125</ele>
        <time>2022-05-03T07:49:27.000Z</time>
      </trkpt>
      <trkpt lat="40.915720872581005096435546875" lon="-1.301601268351078033447265625">
        <ele>889</ele>
        <time>2022-05-03T07:49:29.000Z</time>
      </trkpt>
      <trkpt lat="40.91579991392791271209716796875" lon="-1.3015672378242015838623046875">
        <ele>888.79998779296875</ele>
        <time>2022-05-03T07:49:31.000Z</time>
      </trkpt>
      <trkpt lat="40.91583863832056522369384765625" lon="-1.30154536105692386627197265625">
        <ele>888.79998779296875</ele>
        <time>2022-05-03T07:49:32.000Z</time>
      </trkpt>
      <trkpt lat="40.91587753035128116607666015625" lon="-1.3015271723270416259765625">
        <ele>888.5999755859375</ele>
        <time>2022-05-03T07:49:33.000Z</time>
      </trkpt>
      <trkpt lat="40.91595699079334735870361328125" lon="-1.301485933363437652587890625">
        <ele>888.5999755859375</ele>
        <time>2022-05-03T07:49:35.000Z</time>
      </trkpt>
      <trkpt lat="40.91604986228048801422119140625" lon="-1.30144427530467510223388671875">
        <ele>888.4000244140625</ele>
        <time>2022-05-03T07:49:37.000Z</time>
      </trkpt>
      <trkpt lat="40.9160952083766460418701171875" lon="-1.30142013542354106903076171875">
        <ele>888.20001220703125</ele>
        <time>2022-05-03T07:49:38.000Z</time>
      </trkpt>
      <trkpt lat="40.91614323668181896209716796875" lon="-1.30140446126461029052734375">
        <ele>888.20001220703125</ele>
        <time>2022-05-03T07:49:39.000Z</time>
      </trkpt>
      <trkpt lat="40.916239880025386810302734375" lon="-1.3013608753681182861328125">
        <ele>888</ele>
        <time>2022-05-03T07:49:41.000Z</time>
      </trkpt>
      <trkpt lat="40.91633015312254428863525390625" lon="-1.301308237016201019287109375">
        <ele>887.79998779296875</ele>
        <time>2022-05-03T07:49:43.000Z</time>
      </trkpt>
      <trkpt lat="40.91642134822905063629150390625" lon="-1.3012658245861530303955078125">
        <ele>887.79998779296875</ele>
        <time>2022-05-03T07:49:45.000Z</time>
      </trkpt>
      <trkpt lat="40.91651874594390392303466796875" lon="-1.30122383125126361846923828125">
        <ele>887.79998779296875</ele>
        <time>2022-05-03T07:49:47.000Z</time>
      </trkpt>
      <trkpt lat="40.91656568460166454315185546875" lon="-1.3012064807116985321044921875">
        <ele>888</ele>
        <time>2022-05-03T07:49:48.000Z</time>
      </trkpt>
      <trkpt lat="40.916610024869441986083984375" lon="-1.3011957518756389617919921875">
        <ele>888</ele>
        <time>2022-05-03T07:49:49.000Z</time>
      </trkpt>
      <trkpt lat="40.9166430495679378509521484375" lon="-1.301212012767791748046875">
        <ele>888</ele>
        <time>2022-05-03T07:49:50.000Z</time>
      </trkpt>
      <trkpt lat="40.91667347587645053863525390625" lon="-1.3012158684432506561279296875">
        <ele>888</ele>
        <time>2022-05-03T07:49:51.000Z</time>
      </trkpt>
      <trkpt lat="40.91673374176025390625" lon="-1.301275379955768585205078125">
        <ele>887.5999755859375</ele>
        <time>2022-05-03T07:49:53.000Z</time>
      </trkpt>
      <trkpt lat="40.91678964905440807342529296875" lon="-1.30137537606060504913330078125">
        <ele>887.4000244140625</ele>
        <time>2022-05-03T07:49:55.000Z</time>
      </trkpt>
      <trkpt lat="40.9168536029756069183349609375" lon="-1.30147545598447322845458984375">
        <ele>887</ele>
        <time>2022-05-03T07:49:57.000Z</time>
      </trkpt>
      <trkpt lat="40.91688905842602252960205078125" lon="-1.30152775906026363372802734375">
        <ele>886.79998779296875</ele>
        <time>2022-05-03T07:49:58.000Z</time>
      </trkpt>
      <trkpt lat="40.91692887246608734130859375" lon="-1.301581822335720062255859375">
        <ele>886.79998779296875</ele>
        <time>2022-05-03T07:49:59.000Z</time>
      </trkpt>
      <trkpt lat="40.91697053052484989166259765625" lon="-1.3016399927437305450439453125">
        <ele>886.5999755859375</ele>
        <time>2022-05-03T07:50:00.000Z</time>
      </trkpt>
      <trkpt lat="40.91700975783169269561767578125" lon="-1.30169891752302646636962890625">
        <ele>886.4000244140625</ele>
        <time>2022-05-03T07:50:01.000Z</time>
      </trkpt>
      <trkpt lat="40.91710195876657962799072265625" lon="-1.30182397551834583282470703125">
        <ele>886.5999755859375</ele>
        <time>2022-05-03T07:50:03.000Z</time>
      </trkpt>
      <trkpt lat="40.9171496517956256866455078125" lon="-1.3018884323537349700927734375">
        <ele>886.79998779296875</ele>
        <time>2022-05-03T07:50:04.000Z</time>
      </trkpt>
      <trkpt lat="40.91719843447208404541015625" lon="-1.3019561581313610076904296875">
        <ele>887</ele>
        <time>2022-05-03T07:50:05.000Z</time>
      </trkpt>
      <trkpt lat="40.9172981791198253631591796875" lon="-1.302094794809818267822265625">
        <ele>887.20001220703125</ele>
        <time>2022-05-03T07:50:07.000Z</time>
      </trkpt>
      <trkpt lat="40.91739666648209095001220703125" lon="-1.30223284475505352020263671875">
        <ele>887.20001220703125</ele>
        <time>2022-05-03T07:50:09.000Z</time>
      </trkpt>
      <trkpt lat="40.917491801083087921142578125" lon="-1.30237701348960399627685546875">
        <ele>886.79998779296875</ele>
        <time>2022-05-03T07:50:11.000Z</time>
      </trkpt>
      <trkpt lat="40.91758090071380138397216796875" lon="-1.30252872593700885772705078125">
        <ele>886.4000244140625</ele>
        <time>2022-05-03T07:50:13.000Z</time>
      </trkpt>
      <trkpt lat="40.9176726825535297393798828125" lon="-1.3026689551770687103271484375">
        <ele>886.20001220703125</ele>
        <time>2022-05-03T07:50:15.000Z</time>
      </trkpt>
      <trkpt lat="40.9177618660032749176025390625" lon="-1.30280449055135250091552734375">
        <ele>886</ele>
        <time>2022-05-03T07:50:17.000Z</time>
      </trkpt>
      <trkpt lat="40.9178051166236400604248046875" lon="-1.30286886356770992279052734375">
        <ele>886</ele>
        <time>2022-05-03T07:50:18.000Z</time>
      </trkpt>
      <trkpt lat="40.9178520552814006805419921875" lon="-1.30292736925184726715087890625">
        <ele>886</ele>
        <time>2022-05-03T07:50:19.000Z</time>
      </trkpt>
      <trkpt lat="40.91794836334884166717529296875" lon="-1.30303113721311092376708984375">
        <ele>886</ele>
        <time>2022-05-03T07:50:21.000Z</time>
      </trkpt>
      <trkpt lat="40.91804291121661663055419921875" lon="-1.30312602035701274871826171875">
        <ele>886</ele>
        <time>2022-05-03T07:50:23.000Z</time>
      </trkpt>
      <trkpt lat="40.918138213455677032470703125" lon="-1.3032117672264575958251953125">
        <ele>886.20001220703125</ele>
        <time>2022-05-03T07:50:25.000Z</time>
      </trkpt>
      <trkpt lat="40.91823033057153224945068359375" lon="-1.30330036394298076629638671875">
        <ele>886.4000244140625</ele>
        <time>2022-05-03T07:50:27.000Z</time>
      </trkpt>
      <trkpt lat="40.91832018457353115081787109375" lon="-1.30338619463145732879638671875">
        <ele>886.5999755859375</ele>
        <time>2022-05-03T07:50:29.000Z</time>
      </trkpt>
      <trkpt lat="40.91841020621359348297119140625" lon="-1.3034659065306186676025390625">
        <ele>886.79998779296875</ele>
        <time>2022-05-03T07:50:31.000Z</time>
      </trkpt>
      <trkpt lat="40.918452031910419464111328125" lon="-1.3035047985613346099853515625">
        <ele>887</ele>
        <time>2022-05-03T07:50:32.000Z</time>
      </trkpt>
      <trkpt lat="40.9184937737882137298583984375" lon="-1.303541846573352813720703125">
        <ele>887</ele>
        <time>2022-05-03T07:50:33.000Z</time>
      </trkpt>
      <trkpt lat="40.91857499442994594573974609375" lon="-1.30361451767385005950927734375">
        <ele>887</ele>
        <time>2022-05-03T07:50:35.000Z</time>
      </trkpt>
      <trkpt lat="40.91865831054747104644775390625" lon="-1.30368241108953952789306640625">
        <ele>887</ele>
        <time>2022-05-03T07:50:37.000Z</time>
      </trkpt>
      <trkpt lat="40.91873936355113983154296875" lon="-1.3037616200745105743408203125">
        <ele>887</ele>
        <time>2022-05-03T07:50:39.000Z</time>
      </trkpt>
      <trkpt lat="40.9187774173915386199951171875" lon="-1.30380093120038509368896484375">
        <ele>887</ele>
        <time>2022-05-03T07:50:40.000Z</time>
      </trkpt>
      <trkpt lat="40.91881521977484226226806640625" lon="-1.3038414157927036285400390625">
        <ele>887</ele>
        <time>2022-05-03T07:50:41.000Z</time>
      </trkpt>
      <trkpt lat="40.91885126195847988128662109375" lon="-1.30388793535530567169189453125">
        <ele>887</ele>
        <time>2022-05-03T07:50:42.000Z</time>
      </trkpt>
      <trkpt lat="40.91888780705630779266357421875" lon="-1.30393445491790771484375">
        <ele>887</ele>
        <time>2022-05-03T07:50:43.000Z</time>
      </trkpt>
      <trkpt lat="40.9189598076045513153076171875" lon="-1.30403160117566585540771484375">
        <ele>886.79998779296875</ele>
        <time>2022-05-03T07:50:45.000Z</time>
      </trkpt>
      <trkpt lat="40.91899408958852291107177734375" lon="-1.30408532917499542236328125">
        <ele>886.5999755859375</ele>
        <time>2022-05-03T07:50:46.000Z</time>
      </trkpt>
      <trkpt lat="40.919025354087352752685546875" lon="-1.3041421584784984588623046875">
        <ele>886.4000244140625</ele>
        <time>2022-05-03T07:50:47.000Z</time>
      </trkpt>
      <trkpt lat="40.91908327303826808929443359375" lon="-1.3042588345706462860107421875">
        <ele>886</ele>
        <time>2022-05-03T07:50:49.000Z</time>
      </trkpt>
      <trkpt lat="40.9191314689815044403076171875" lon="-1.3043802045285701751708984375">
        <ele>885.5999755859375</ele>
        <time>2022-05-03T07:50:51.000Z</time>
      </trkpt>
      <trkpt lat="40.919176898896694183349609375" lon="-1.30449830554425716400146484375">
        <ele>885.4000244140625</ele>
        <time>2022-05-03T07:50:53.000Z</time>
      </trkpt>
      <trkpt lat="40.9191988594830036163330078125" lon="-1.30455580540001392364501953125">
        <ele>885.4000244140625</ele>
        <time>2022-05-03T07:50:54.000Z</time>
      </trkpt>
      <trkpt lat="40.9192203171551227569580078125" lon="-1.3046142272651195526123046875">
        <ele>885.4000244140625</ele>
        <time>2022-05-03T07:50:55.000Z</time>
      </trkpt>
      <trkpt lat="40.9192642383277416229248046875" lon="-1.30473350174725055694580078125">
        <ele>885.4000244140625</ele>
        <time>2022-05-03T07:50:57.000Z</time>
      </trkpt>
      <trkpt lat="40.91930522583425045013427734375" lon="-1.3048569671809673309326171875">
        <ele>885.79998779296875</ele>
        <time>2022-05-03T07:50:59.000Z</time>
      </trkpt>
      <trkpt lat="40.91934277676045894622802734375" lon="-1.30497674457728862762451171875">
        <ele>886.20001220703125</ele>
        <time>2022-05-03T07:51:01.000Z</time>
      </trkpt>
      <trkpt lat="40.91937915422022342681884765625" lon="-1.30509995855391025543212890625">
        <ele>886.5999755859375</ele>
        <time>2022-05-03T07:51:03.000Z</time>
      </trkpt>
      <trkpt lat="40.91940279118716716766357421875" lon="-1.3052338175475597381591796875">
        <ele>887.20001220703125</ele>
        <time>2022-05-03T07:51:05.000Z</time>
      </trkpt>
      <trkpt lat="40.9194164536893367767333984375" lon="-1.30535594187676906585693359375">
        <ele>888</ele>
        <time>2022-05-03T07:51:07.000Z</time>
      </trkpt>
      <trkpt lat="40.91941804625093936920166015625" lon="-1.305407993495464324951171875">
        <ele>888.20001220703125</ele>
        <time>2022-05-03T07:51:08.000Z</time>
      </trkpt>
      <trkpt lat="40.91941259801387786865234375" lon="-1.30545484833419322967529296875">
        <ele>888.5999755859375</ele>
        <time>2022-05-03T07:51:09.000Z</time>
      </trkpt>
      <trkpt lat="40.91937680728733539581298828125" lon="-1.30552743561565876007080078125">
        <ele>889</ele>
        <time>2022-05-03T07:51:11.000Z</time>
      </trkpt>
      <trkpt lat="40.9193493984639644622802734375" lon="-1.30555710755288600921630859375">
        <ele>889</ele>
        <time>2022-05-03T07:51:12.000Z</time>
      </trkpt>
      <trkpt lat="40.91931679286062717437744140625" lon="-1.3055865280330181121826171875">
        <ele>889.20001220703125</ele>
        <time>2022-05-03T07:51:13.000Z</time>
      </trkpt>
      <trkpt lat="40.91924135573208332061767578125" lon="-1.30564101040363311767578125">
        <ele>889.4000244140625</ele>
        <time>2022-05-03T07:51:15.000Z</time>
      </trkpt>
      <trkpt lat="40.91916508041322231292724609375" lon="-1.30568660795688629150390625">
        <ele>889.4000244140625</ele>
        <time>2022-05-03T07:51:17.000Z</time>
      </trkpt>
      <trkpt lat="40.91909081675112247467041015625" lon="-1.30573488771915435791015625">
        <ele>889.4000244140625</ele>
        <time>2022-05-03T07:51:19.000Z</time>
      </trkpt>
      <trkpt lat="40.91901789419353008270263671875" lon="-1.305790878832340240478515625">
        <ele>889.5999755859375</ele>
        <time>2022-05-03T07:51:21.000Z</time>
      </trkpt>
      <trkpt lat="40.91894899494946002960205078125" lon="-1.30584628321230411529541015625">
        <ele>889.5999755859375</ele>
        <time>2022-05-03T07:51:23.000Z</time>
      </trkpt>
      <trkpt lat="40.9189116954803466796875" lon="-1.30587461404502391815185546875">
        <ele>889.5999755859375</ele>
        <time>2022-05-03T07:51:24.000Z</time>
      </trkpt>
      <trkpt lat="40.91887456364929676055908203125" lon="-1.30590294487774372100830078125">
        <ele>889.5999755859375</ele>
        <time>2022-05-03T07:51:25.000Z</time>
      </trkpt>
      <trkpt lat="40.9188370965421199798583984375" lon="-1.30593337118625640869140625">
        <ele>889.5999755859375</ele>
        <time>2022-05-03T07:51:26.000Z</time>
      </trkpt>
      <trkpt lat="40.9188008867204189300537109375" lon="-1.30596480332314968109130859375">
        <ele>889.5999755859375</ele>
        <time>2022-05-03T07:51:27.000Z</time>
      </trkpt>
      <trkpt lat="40.918728299438953399658203125" lon="-1.30603185854852199554443359375">
        <ele>889.5999755859375</ele>
        <time>2022-05-03T07:51:29.000Z</time>
      </trkpt>
      <trkpt lat="40.91865680180490016937255859375" lon="-1.3060971535742282867431640625">
        <ele>889.5999755859375</ele>
        <time>2022-05-03T07:51:31.000Z</time>
      </trkpt>
      <trkpt lat="40.91861790977418422698974609375" lon="-1.30613059736788272857666015625">
        <ele>889.5999755859375</ele>
        <time>2022-05-03T07:51:32.000Z</time>
      </trkpt>
      <trkpt lat="40.9185779280960559844970703125" lon="-1.30616362206637859344482421875">
        <ele>889.4000244140625</ele>
        <time>2022-05-03T07:51:33.000Z</time>
      </trkpt>
      <trkpt lat="40.9184998087584972381591796875" lon="-1.3062272407114505767822265625">
        <ele>889.4000244140625</ele>
        <time>2022-05-03T07:51:35.000Z</time>
      </trkpt>
      <trkpt lat="40.9184213541448116302490234375" lon="-1.30628918297588825225830078125">
        <ele>889.4000244140625</ele>
        <time>2022-05-03T07:51:37.000Z</time>
      </trkpt>
      <trkpt lat="40.9183449111878871917724609375" lon="-1.306347437202930450439453125">
        <ele>889.4000244140625</ele>
        <time>2022-05-03T07:51:39.000Z</time>
      </trkpt>
      <trkpt lat="40.91827173717319965362548828125" lon="-1.30640217103064060211181640625">
        <ele>889.4000244140625</ele>
        <time>2022-05-03T07:51:41.000Z</time>
      </trkpt>
      <trkpt lat="40.91823720373213291168212890625" lon="-1.3064320944249629974365234375">
        <ele>889.4000244140625</ele>
        <time>2022-05-03T07:51:42.000Z</time>
      </trkpt>
      <trkpt lat="40.9182027541100978851318359375" lon="-1.30646302364766597747802734375">
        <ele>889.4000244140625</ele>
        <time>2022-05-03T07:51:43.000Z</time>
      </trkpt>
      <trkpt lat="40.91813452541828155517578125" lon="-1.30652354098856449127197265625">
        <ele>889.20001220703125</ele>
        <time>2022-05-03T07:51:45.000Z</time>
      </trkpt>
      <trkpt lat="40.918062441051006317138671875" lon="-1.30657198838889598846435546875">
        <ele>889.20001220703125</ele>
        <time>2022-05-03T07:51:47.000Z</time>
      </trkpt>
      <trkpt lat="40.9179925359785556793212890625" lon="-1.30663476884365081787109375">
        <ele>889.4000244140625</ele>
        <time>2022-05-03T07:51:49.000Z</time>
      </trkpt>
      <trkpt lat="40.9179352037608623504638671875" lon="-1.30672018043696880340576171875">
        <ele>889.5999755859375</ele>
        <time>2022-05-03T07:51:51.000Z</time>
      </trkpt>
      <trkpt lat="40.91786689125001430511474609375" lon="-1.30679863505065441131591796875">
        <ele>889.79998779296875</ele>
        <time>2022-05-03T07:51:53.000Z</time>
      </trkpt>
      <trkpt lat="40.91782984323799610137939453125" lon="-1.30683501251041889190673828125">
        <ele>889.79998779296875</ele>
        <time>2022-05-03T07:51:54.000Z</time>
      </trkpt>
      <trkpt lat="40.9177943877875804901123046875" lon="-1.3068696297705173492431640625">
        <ele>890</ele>
        <time>2022-05-03T07:51:55.000Z</time>
      </trkpt>
      <trkpt lat="40.91771836392581462860107421875" lon="-1.3069470785558223724365234375">
        <ele>890.20001220703125</ele>
        <time>2022-05-03T07:51:57.000Z</time>
      </trkpt>
      <trkpt lat="40.91763605363667011260986328125" lon="-1.30703181959688663482666015625">
        <ele>890.4000244140625</ele>
        <time>2022-05-03T07:51:59.000Z</time>
      </trkpt>
      <trkpt lat="40.91755240224301815032958984375" lon="-1.3071210868656635284423828125">
        <ele>890.5999755859375</ele>
        <time>2022-05-03T07:52:01.000Z</time>
      </trkpt>
      <trkpt lat="40.9174664877355098724365234375" lon="-1.30720716901123523712158203125">
        <ele>890.79998779296875</ele>
        <time>2022-05-03T07:52:03.000Z</time>
      </trkpt>
      <trkpt lat="40.917378477752208709716796875" lon="-1.307286210358142852783203125">
        <ele>891</ele>
        <time>2022-05-03T07:52:05.000Z</time>
      </trkpt>
      <trkpt lat="40.9172931499779224395751953125" lon="-1.307370364665985107421875">
        <ele>891</ele>
        <time>2022-05-03T07:52:07.000Z</time>
      </trkpt>
      <trkpt lat="40.91720941476523876190185546875" lon="-1.30745963193476200103759765625">
        <ele>890.79998779296875</ele>
        <time>2022-05-03T07:52:09.000Z</time>
      </trkpt>
      <trkpt lat="40.91716817580163478851318359375" lon="-1.307500787079334259033203125">
        <ele>890.5999755859375</ele>
        <time>2022-05-03T07:52:10.000Z</time>
      </trkpt>
      <trkpt lat="40.91712861321866512298583984375" lon="-1.30753934383392333984375">
        <ele>890.4000244140625</ele>
        <time>2022-05-03T07:52:11.000Z</time>
      </trkpt>
      <trkpt lat="40.9170517511665821075439453125" lon="-1.3076149486005306243896484375">
        <ele>890.20001220703125</ele>
        <time>2022-05-03T07:52:13.000Z</time>
      </trkpt>
      <trkpt lat="40.91697187162935733795166015625" lon="-1.30769231356680393218994140625">
        <ele>889.79998779296875</ele>
        <time>2022-05-03T07:52:15.000Z</time>
      </trkpt>
      <trkpt lat="40.9168878011405467987060546875" lon="-1.307770349085330963134765625">
        <ele>889.5999755859375</ele>
        <time>2022-05-03T07:52:17.000Z</time>
      </trkpt>
      <trkpt lat="40.91680423356592655181884765625" lon="-1.30784771405160427093505859375">
        <ele>889.4000244140625</ele>
        <time>2022-05-03T07:52:19.000Z</time>
      </trkpt>
      <trkpt lat="40.9167216718196868896484375" lon="-1.3079260848462581634521484375">
        <ele>889</ele>
        <time>2022-05-03T07:52:21.000Z</time>
      </trkpt>
      <trkpt lat="40.9166420437395572662353515625" lon="-1.30799992941319942474365234375">
        <ele>888.79998779296875</ele>
        <time>2022-05-03T07:52:23.000Z</time>
      </trkpt>
      <trkpt lat="40.9165649302303791046142578125" lon="-1.30807218141853809356689453125">
        <ele>888.4000244140625</ele>
        <time>2022-05-03T07:52:25.000Z</time>
      </trkpt>
      <trkpt lat="40.91648890636861324310302734375" lon="-1.3081443496048450469970703125">
        <ele>888.20001220703125</ele>
        <time>2022-05-03T07:52:27.000Z</time>
      </trkpt>
      <trkpt lat="40.9164204262197017669677734375" lon="-1.3082164339721202850341796875">
        <ele>888</ele>
        <time>2022-05-03T07:52:29.000Z</time>
      </trkpt>
      <trkpt lat="40.916383378207683563232421875" lon="-1.3082526437938213348388671875">
        <ele>888</ele>
        <time>2022-05-03T07:52:30.000Z</time>
      </trkpt>
      <trkpt lat="40.91634473763406276702880859375" lon="-1.30828558467328548431396484375">
        <ele>888</ele>
        <time>2022-05-03T07:52:31.000Z</time>
      </trkpt>
      <trkpt lat="40.91626695357263088226318359375" lon="-1.308352388441562652587890625">
        <ele>888.4000244140625</ele>
        <time>2022-05-03T07:52:33.000Z</time>
      </trkpt>
      <trkpt lat="40.9161931090056896209716796875" lon="-1.30842338316142559051513671875">
        <ele>888.5999755859375</ele>
        <time>2022-05-03T07:52:35.000Z</time>
      </trkpt>
      <trkpt lat="40.916115827858448028564453125" lon="-1.3084950484335422515869140625">
        <ele>889</ele>
        <time>2022-05-03T07:52:37.000Z</time>
      </trkpt>
      <trkpt lat="40.91603997163474559783935546875" lon="-1.3085679709911346435546875">
        <ele>889.20001220703125</ele>
        <time>2022-05-03T07:52:39.000Z</time>
      </trkpt>
      <trkpt lat="40.91600225307047367095947265625" lon="-1.308605857193470001220703125">
        <ele>889.4000244140625</ele>
        <time>2022-05-03T07:52:40.000Z</time>
      </trkpt>
      <trkpt lat="40.91596352867782115936279296875" lon="-1.3086432404816150665283203125">
        <ele>889.4000244140625</ele>
        <time>2022-05-03T07:52:41.000Z</time>
      </trkpt>
      <trkpt lat="40.915883816778659820556640625" lon="-1.308716498315334320068359375">
        <ele>889.79998779296875</ele>
        <time>2022-05-03T07:52:43.000Z</time>
      </trkpt>
      <trkpt lat="40.9158041886985301971435546875" lon="-1.308790929615497589111328125">
        <ele>890</ele>
        <time>2022-05-03T07:52:45.000Z</time>
      </trkpt>
      <trkpt lat="40.915727578103542327880859375" lon="-1.30886091850697994232177734375">
        <ele>890.4000244140625</ele>
        <time>2022-05-03T07:52:47.000Z</time>
      </trkpt>
      <trkpt lat="40.91565155424177646636962890625" lon="-1.30892495624721050262451171875">
        <ele>890.5999755859375</ele>
        <time>2022-05-03T07:52:49.000Z</time>
      </trkpt>
      <trkpt lat="40.9155808947980403900146484375" lon="-1.30899117328226566314697265625">
        <ele>891</ele>
        <time>2022-05-03T07:52:51.000Z</time>
      </trkpt>
      <trkpt lat="40.91551241464912891387939453125" lon="-1.3090573064982891082763671875">
        <ele>891</ele>
        <time>2022-05-03T07:52:53.000Z</time>
      </trkpt>
      <trkpt lat="40.9154441021382808685302734375" lon="-1.3091236911714076995849609375">
        <ele>890.79998779296875</ele>
        <time>2022-05-03T07:52:55.000Z</time>
      </trkpt>
      <trkpt lat="40.9154082275927066802978515625" lon="-1.30915763787925243377685546875">
        <ele>890.79998779296875</ele>
        <time>2022-05-03T07:52:56.000Z</time>
      </trkpt>
      <trkpt lat="40.91537293978035449981689453125" lon="-1.30919099785387516021728515625">
        <ele>890.79998779296875</ele>
        <time>2022-05-03T07:52:57.000Z</time>
      </trkpt>
      <trkpt lat="40.91530144214630126953125" lon="-1.30925595760345458984375">
        <ele>890.79998779296875</ele>
        <time>2022-05-03T07:52:59.000Z</time>
      </trkpt>
      <trkpt lat="40.915229357779026031494140625" lon="-1.30932142026722431182861328125">
        <ele>890.5999755859375</ele>
        <time>2022-05-03T07:53:01.000Z</time>
      </trkpt>
      <trkpt lat="40.91515635140240192413330078125" lon="-1.30939233116805553436279296875">
        <ele>890.5999755859375</ele>
        <time>2022-05-03T07:53:03.000Z</time>
      </trkpt>
      <trkpt lat="40.91508141718804836273193359375" lon="-1.30946173332631587982177734375">
        <ele>890.4000244140625</ele>
        <time>2022-05-03T07:53:05.000Z</time>
      </trkpt>
      <trkpt lat="40.915006734430789947509765625" lon="-1.3095310516655445098876953125">
        <ele>890.4000244140625</ele>
        <time>2022-05-03T07:53:07.000Z</time>
      </trkpt>
      <trkpt lat="40.91493104584515094757080078125" lon="-1.30960037000477313995361328125">
        <ele>890.20001220703125</ele>
        <time>2022-05-03T07:53:09.000Z</time>
      </trkpt>
      <trkpt lat="40.91485376469790935516357421875" lon="-1.309666000306606292724609375">
        <ele>890.20001220703125</ele>
        <time>2022-05-03T07:53:11.000Z</time>
      </trkpt>
      <trkpt lat="40.91477614827454090118408203125" lon="-1.3097352348268032073974609375">
        <ele>890</ele>
        <time>2022-05-03T07:53:13.000Z</time>
      </trkpt>
      <trkpt lat="40.9147018007934093475341796875" lon="-1.30980606190860271453857421875">
        <ele>890</ele>
        <time>2022-05-03T07:53:15.000Z</time>
      </trkpt>
      <trkpt lat="40.91462644748389720916748046875" lon="-1.309876553714275360107421875">
        <ele>889.79998779296875</ele>
        <time>2022-05-03T07:53:17.000Z</time>
      </trkpt>
      <trkpt lat="40.9145522676408290863037109375" lon="-1.30994620732963085174560546875">
        <ele>889.5999755859375</ele>
        <time>2022-05-03T07:53:19.000Z</time>
      </trkpt>
      <trkpt lat="40.9144764952361583709716796875" lon="-1.31001569330692291259765625">
        <ele>889.4000244140625</ele>
        <time>2022-05-03T07:53:21.000Z</time>
      </trkpt>
      <trkpt lat="40.91439896263182163238525390625" lon="-1.3100852631032466888427734375">
        <ele>889.20001220703125</ele>
        <time>2022-05-03T07:53:23.000Z</time>
      </trkpt>
      <trkpt lat="40.914321430027484893798828125" lon="-1.310154832899570465087890625">
        <ele>889</ele>
        <time>2022-05-03T07:53:25.000Z</time>
      </trkpt>
      <trkpt lat="40.9142433106899261474609375" lon="-1.31022490561008453369140625">
        <ele>889</ele>
        <time>2022-05-03T07:53:27.000Z</time>
      </trkpt>
      <trkpt lat="40.91416359879076480865478515625" lon="-1.31029590032994747161865234375">
        <ele>888.79998779296875</ele>
        <time>2022-05-03T07:53:29.000Z</time>
      </trkpt>
      <trkpt lat="40.91408480890095233917236328125" lon="-1.310366727411746978759765625">
        <ele>888.5999755859375</ele>
        <time>2022-05-03T07:53:31.000Z</time>
      </trkpt>
      <trkpt lat="40.91400518082082271575927734375" lon="-1.31043856032192707061767578125">
        <ele>888.4000244140625</ele>
        <time>2022-05-03T07:53:33.000Z</time>
      </trkpt>
      <trkpt lat="40.9139268100261688232421875" lon="-1.3105097226798534393310546875">
        <ele>888.20001220703125</ele>
        <time>2022-05-03T07:53:35.000Z</time>
      </trkpt>
      <trkpt lat="40.91388858854770660400390625" lon="-1.31054542958736419677734375">
        <ele>888</ele>
        <time>2022-05-03T07:53:36.000Z</time>
      </trkpt>
      <trkpt lat="40.913849361240863800048828125" lon="-1.3105801306664943695068359375">
        <ele>888</ele>
        <time>2022-05-03T07:53:37.000Z</time>
      </trkpt>
      <trkpt lat="40.91377048753201961517333984375" lon="-1.31064525805413722991943359375">
        <ele>887.79998779296875</ele>
        <time>2022-05-03T07:53:39.000Z</time>
      </trkpt>
      <trkpt lat="40.91369287110865116119384765625" lon="-1.310712732374668121337890625">
        <ele>887.5999755859375</ele>
        <time>2022-05-03T07:53:41.000Z</time>
      </trkpt>
      <trkpt lat="40.91361424885690212249755859375" lon="-1.310782469809055328369140625">
        <ele>887.5999755859375</ele>
        <time>2022-05-03T07:53:43.000Z</time>
      </trkpt>
      <trkpt lat="40.913535542786121368408203125" lon="-1.3108530454337596893310546875">
        <ele>887.5999755859375</ele>
        <time>2022-05-03T07:53:45.000Z</time>
      </trkpt>
      <trkpt lat="40.91349639929831027984619140625" lon="-1.310888417065143585205078125">
        <ele>887.5999755859375</ele>
        <time>2022-05-03T07:53:46.000Z</time>
      </trkpt>
      <trkpt lat="40.91345801018178462982177734375" lon="-1.31092353723943233489990234375">
        <ele>887.5999755859375</ele>
        <time>2022-05-03T07:53:47.000Z</time>
      </trkpt>
      <trkpt lat="40.91337922029197216033935546875" lon="-1.3109941966831684112548828125">
        <ele>887.5999755859375</ele>
        <time>2022-05-03T07:53:49.000Z</time>
      </trkpt>
      <trkpt lat="40.9133000113070011138916015625" lon="-1.31106418557465076446533203125">
        <ele>887.5999755859375</ele>
        <time>2022-05-03T07:53:51.000Z</time>
      </trkpt>
      <trkpt lat="40.91322164051234722137451171875" lon="-1.311132498085498809814453125">
        <ele>887.5999755859375</ele>
        <time>2022-05-03T07:53:53.000Z</time>
      </trkpt>
      <trkpt lat="40.9131464548408985137939453125" lon="-1.31120231933891773223876953125">
        <ele>887.5999755859375</ele>
        <time>2022-05-03T07:53:55.000Z</time>
      </trkpt>
      <trkpt lat="40.9130710177123546600341796875" lon="-1.3112748228013515472412109375">
        <ele>887.5999755859375</ele>
        <time>2022-05-03T07:53:57.000Z</time>
      </trkpt>
      <trkpt lat="40.91299667023122310638427734375" lon="-1.3113455660641193389892578125">
        <ele>887.79998779296875</ele>
        <time>2022-05-03T07:53:59.000Z</time>
      </trkpt>
      <trkpt lat="40.91292073018848896026611328125" lon="-1.311418153345584869384765625">
        <ele>888</ele>
        <time>2022-05-03T07:54:01.000Z</time>
      </trkpt>
      <trkpt lat="40.91284512542188167572021484375" lon="-1.31149048916995525360107421875">
        <ele>888.20001220703125</ele>
        <time>2022-05-03T07:54:03.000Z</time>
      </trkpt>
      <trkpt lat="40.91277069412171840667724609375" lon="-1.31156039424240589141845703125">
        <ele>888.4000244140625</ele>
        <time>2022-05-03T07:54:05.000Z</time>
      </trkpt>
      <trkpt lat="40.91273389756679534912109375" lon="-1.31159509532153606414794921875">
        <ele>888.4000244140625</ele>
        <time>2022-05-03T07:54:06.000Z</time>
      </trkpt>
      <trkpt lat="40.9126955084502696990966796875" lon="-1.311629377305507659912109375">
        <ele>888.4000244140625</ele>
        <time>2022-05-03T07:54:07.000Z</time>
      </trkpt>
      <trkpt lat="40.9126207418739795684814453125" lon="-1.3116979412734508514404296875">
        <ele>888.5999755859375</ele>
        <time>2022-05-03T07:54:09.000Z</time>
      </trkpt>
      <trkpt lat="40.9125432930886745452880859375" lon="-1.31176776252686977386474609375">
        <ele>888.5999755859375</ele>
        <time>2022-05-03T07:54:11.000Z</time>
      </trkpt>
      <trkpt lat="40.9124648384749889373779296875" lon="-1.311835236847400665283203125">
        <ele>888.79998779296875</ele>
        <time>2022-05-03T07:54:13.000Z</time>
      </trkpt>
      <trkpt lat="40.91238898225128650665283203125" lon="-1.31190220825374126434326171875">
        <ele>888.79998779296875</ele>
        <time>2022-05-03T07:54:15.000Z</time>
      </trkpt>
      <trkpt lat="40.9123515151441097259521484375" lon="-1.31193623878061771392822265625">
        <ele>888.79998779296875</ele>
        <time>2022-05-03T07:54:16.000Z</time>
      </trkpt>
      <trkpt lat="40.91231279075145721435546875" lon="-1.3119708560407161712646484375">
        <ele>889</ele>
        <time>2022-05-03T07:54:17.000Z</time>
      </trkpt>
      <trkpt lat="40.91223643161356449127197265625" lon="-1.31203715689480304718017578125">
        <ele>889</ele>
        <time>2022-05-03T07:54:19.000Z</time>
      </trkpt>
      <trkpt lat="40.912159569561481475830078125" lon="-1.3121026195585727691650390625">
        <ele>889</ele>
        <time>2022-05-03T07:54:21.000Z</time>
      </trkpt>
      <trkpt lat="40.91208388097584247589111328125" lon="-1.31216623820364475250244140625">
        <ele>888.79998779296875</ele>
        <time>2022-05-03T07:54:23.000Z</time>
      </trkpt>
      <trkpt lat="40.91200877912342548370361328125" lon="-1.31222977302968502044677734375">
        <ele>888.79998779296875</ele>
        <time>2022-05-03T07:54:25.000Z</time>
      </trkpt>
      <trkpt lat="40.91193049214780330657958984375" lon="-1.31229196675121784210205078125">
        <ele>888.5999755859375</ele>
        <time>2022-05-03T07:54:27.000Z</time>
      </trkpt>
      <trkpt lat="40.91189109720289707183837890625" lon="-1.31232297979295253753662109375">
        <ele>888.5999755859375</ele>
        <time>2022-05-03T07:54:28.000Z</time>
      </trkpt>
      <trkpt lat="40.9118516184389591217041015625" lon="-1.31235466338694095611572265625">
        <ele>888.5999755859375</ele>
        <time>2022-05-03T07:54:29.000Z</time>
      </trkpt>
      <trkpt lat="40.91177165508270263671875" lon="-1.3124164380133152008056640625">
        <ele>888.5999755859375</ele>
        <time>2022-05-03T07:54:31.000Z</time>
      </trkpt>
      <trkpt lat="40.91168942861258983612060546875" lon="-1.31247888319194316864013671875">
        <ele>888.5999755859375</ele>
        <time>2022-05-03T07:54:33.000Z</time>
      </trkpt>
      <trkpt lat="40.9116061963140964508056640625" lon="-1.31254040636122226715087890625">
        <ele>888.5999755859375</ele>
        <time>2022-05-03T07:54:35.000Z</time>
      </trkpt>
      <trkpt lat="40.911522544920444488525390625" lon="-1.3126008398830890655517578125">
        <ele>888.5999755859375</ele>
        <time>2022-05-03T07:54:37.000Z</time>
      </trkpt>
      <trkpt lat="40.9114378876984119415283203125" lon="-1.31265926174819469451904296875">
        <ele>888.4000244140625</ele>
        <time>2022-05-03T07:54:39.000Z</time>
      </trkpt>
      <trkpt lat="40.91135381720960140228271484375" lon="-1.31271374411880970001220703125">
        <ele>888.5999755859375</ele>
        <time>2022-05-03T07:54:41.000Z</time>
      </trkpt>
      <trkpt lat="40.91126941144466400146484375" lon="-1.31276587955653667449951171875">
        <ele>888.79998779296875</ele>
        <time>2022-05-03T07:54:43.000Z</time>
      </trkpt>
      <trkpt lat="40.91118534095585346221923828125" lon="-1.31281784735620021820068359375">
        <ele>888.79998779296875</ele>
        <time>2022-05-03T07:54:45.000Z</time>
      </trkpt>
      <trkpt lat="40.91110018081963062286376953125" lon="-1.31287266500294208526611328125">
        <ele>889</ele>
        <time>2022-05-03T07:54:47.000Z</time>
      </trkpt>
      <trkpt lat="40.91101485304534435272216796875" lon="-1.312924213707447052001953125">
        <ele>889.20001220703125</ele>
        <time>2022-05-03T07:54:49.000Z</time>
      </trkpt>
      <trkpt lat="40.910971350967884063720703125" lon="-1.312949359416961669921875">
        <ele>889.20001220703125</ele>
        <time>2022-05-03T07:54:50.000Z</time>
      </trkpt>
      <trkpt lat="40.91092818416655063629150390625" lon="-1.312973499298095703125">
        <ele>889.4000244140625</ele>
        <time>2022-05-03T07:54:51.000Z</time>
      </trkpt>
      <trkpt lat="40.9108421020209789276123046875" lon="-1.31302052177488803863525390625">
        <ele>889.5999755859375</ele>
        <time>2022-05-03T07:54:53.000Z</time>
      </trkpt>
      <trkpt lat="40.910757444798946380615234375" lon="-1.31306746043264865875244140625">
        <ele>889.5999755859375</ele>
        <time>2022-05-03T07:54:55.000Z</time>
      </trkpt>
      <trkpt lat="40.91067153029143810272216796875" lon="-1.31311590783298015594482421875">
        <ele>889.79998779296875</ele>
        <time>2022-05-03T07:54:57.000Z</time>
      </trkpt>
      <trkpt lat="40.91058544814586639404296875" lon="-1.31316234357655048370361328125">
        <ele>890</ele>
        <time>2022-05-03T07:54:59.000Z</time>
      </trkpt>
      <trkpt lat="40.910501293838024139404296875" lon="-1.31320626474916934967041015625">
        <ele>890</ele>
        <time>2022-05-03T07:55:01.000Z</time>
      </trkpt>
      <trkpt lat="40.91046013869345188140869140625" lon="-1.3132291473448276519775390625">
        <ele>890</ele>
        <time>2022-05-03T07:55:02.000Z</time>
      </trkpt>
      <trkpt lat="40.91041789390146732330322265625" lon="-1.31325152702629566192626953125">
        <ele>890</ele>
        <time>2022-05-03T07:55:03.000Z</time>
      </trkpt>
      <trkpt lat="40.91033357195556163787841796875" lon="-1.313295699656009674072265625">
        <ele>890</ele>
        <time>2022-05-03T07:55:05.000Z</time>
      </trkpt>
      <trkpt lat="40.9102510102093219757080078125" lon="-1.31334087811410427093505859375">
        <ele>889.79998779296875</ele>
        <time>2022-05-03T07:55:07.000Z</time>
      </trkpt>
      <trkpt lat="40.91021019034087657928466796875" lon="-1.313362754881381988525390625">
        <ele>889.79998779296875</ele>
        <time>2022-05-03T07:55:08.000Z</time>
      </trkpt>
      <trkpt lat="40.9101692028343677520751953125" lon="-1.313384212553501129150390625">
        <ele>889.79998779296875</ele>
        <time>2022-05-03T07:55:09.000Z</time>
      </trkpt>
      <trkpt lat="40.9100867249071598052978515625" lon="-1.313427798449993133544921875">
        <ele>889.79998779296875</ele>
        <time>2022-05-03T07:55:11.000Z</time>
      </trkpt>
      <trkpt lat="40.9100029058754444122314453125" lon="-1.31346962414681911468505859375">
        <ele>889.79998779296875</ele>
        <time>2022-05-03T07:55:13.000Z</time>
      </trkpt>
      <trkpt lat="40.90991757810115814208984375" lon="-1.31351572461426258087158203125">
        <ele>889.5999755859375</ele>
        <time>2022-05-03T07:55:15.000Z</time>
      </trkpt>
      <trkpt lat="40.90983099304139614105224609375" lon="-1.31356467492878437042236328125">
        <ele>889.5999755859375</ele>
        <time>2022-05-03T07:55:17.000Z</time>
      </trkpt>
      <trkpt lat="40.9097467549145221710205078125" lon="-1.313609182834625244140625">
        <ele>889.5999755859375</ele>
        <time>2022-05-03T07:55:19.000Z</time>
      </trkpt>
      <trkpt lat="40.90966184623539447784423828125" lon="-1.31365234963595867156982421875">
        <ele>889.5999755859375</ele>
        <time>2022-05-03T07:55:21.000Z</time>
      </trkpt>
      <trkpt lat="40.909574590623378753662109375" lon="-1.31369794718921184539794921875">
        <ele>889.5999755859375</ele>
        <time>2022-05-03T07:55:23.000Z</time>
      </trkpt>
      <trkpt lat="40.90948850847780704498291015625" lon="-1.313742287456989288330078125">
        <ele>889.79998779296875</ele>
        <time>2022-05-03T07:55:25.000Z</time>
      </trkpt>
      <trkpt lat="40.90940251015126705169677734375" lon="-1.3137848675251007080078125">
        <ele>889.79998779296875</ele>
        <time>2022-05-03T07:55:27.000Z</time>
      </trkpt>
      <trkpt lat="40.90931802056729793548583984375" lon="-1.31382870487868785858154296875">
        <ele>889.79998779296875</ele>
        <time>2022-05-03T07:55:29.000Z</time>
      </trkpt>
      <trkpt lat="40.90923118405044078826904296875" lon="-1.3138748891651630401611328125">
        <ele>889.79998779296875</ele>
        <time>2022-05-03T07:55:31.000Z</time>
      </trkpt>
      <trkpt lat="40.90914200060069561004638671875" lon="-1.3139167986810207366943359375">
        <ele>890</ele>
        <time>2022-05-03T07:55:33.000Z</time>
      </trkpt>
      <trkpt lat="40.909054577350616455078125" lon="-1.31396063603460788726806640625">
        <ele>890</ele>
        <time>2022-05-03T07:55:35.000Z</time>
      </trkpt>
      <trkpt lat="40.908967070281505584716796875" lon="-1.31400539539754390716552734375">
        <ele>890</ele>
        <time>2022-05-03T07:55:37.000Z</time>
      </trkpt>
      <trkpt lat="40.90887931175529956817626953125" lon="-1.314051412045955657958984375">
        <ele>890</ele>
        <time>2022-05-03T07:55:39.000Z</time>
      </trkpt>
      <trkpt lat="40.90879398398101329803466796875" lon="-1.3140971772372722625732421875">
        <ele>890.20001220703125</ele>
        <time>2022-05-03T07:55:41.000Z</time>
      </trkpt>
      <trkpt lat="40.90870882384479045867919921875" lon="-1.314142607152462005615234375">
        <ele>890.4000244140625</ele>
        <time>2022-05-03T07:55:43.000Z</time>
      </trkpt>
      <trkpt lat="40.90862349607050418853759765625" lon="-1.31419122219085693359375">
        <ele>890.5999755859375</ele>
        <time>2022-05-03T07:55:45.000Z</time>
      </trkpt>
      <trkpt lat="40.9085387550294399261474609375" lon="-1.31423824466764926910400390625">
        <ele>890.5999755859375</ele>
        <time>2022-05-03T07:55:47.000Z</time>
      </trkpt>
      <trkpt lat="40.90845309197902679443359375" lon="-1.3142837584018707275390625">
        <ele>890.79998779296875</ele>
        <time>2022-05-03T07:55:49.000Z</time>
      </trkpt>
      <trkpt lat="40.90836323797702789306640625" lon="-1.314327679574489593505859375">
        <ele>890.79998779296875</ele>
        <time>2022-05-03T07:55:51.000Z</time>
      </trkpt>
      <trkpt lat="40.90832023881375789642333984375" lon="-1.3143496401607990264892578125">
        <ele>891</ele>
        <time>2022-05-03T07:55:52.000Z</time>
      </trkpt>
      <trkpt lat="40.9082779102027416229248046875" lon="-1.31437185220420360565185546875">
        <ele>891</ele>
        <time>2022-05-03T07:55:53.000Z</time>
      </trkpt>
      <trkpt lat="40.90819316916167736053466796875" lon="-1.31441183388233184814453125">
        <ele>891</ele>
        <time>2022-05-03T07:55:55.000Z</time>
      </trkpt>
      <trkpt lat="40.9081090986728668212890625" lon="-1.3144495524466037750244140625">
        <ele>891.20001220703125</ele>
        <time>2022-05-03T07:55:57.000Z</time>
      </trkpt>
      <trkpt lat="40.9080231003463268280029296875" lon="-1.31449271924793720245361328125">
        <ele>891.4000244140625</ele>
        <time>2022-05-03T07:55:59.000Z</time>
      </trkpt>
      <trkpt lat="40.90798026882112026214599609375" lon="-1.31451241672039031982421875">
        <ele>891.5999755859375</ele>
        <time>2022-05-03T07:56:00.000Z</time>
      </trkpt>
      <trkpt lat="40.90793601237237453460693359375" lon="-1.314534209668636322021484375">
        <ele>891.5999755859375</ele>
        <time>2022-05-03T07:56:01.000Z</time>
      </trkpt>
      <trkpt lat="40.907849259674549102783203125" lon="-1.31458357907831668853759765625">
        <ele>892</ele>
        <time>2022-05-03T07:56:03.000Z</time>
      </trkpt>
      <trkpt lat="40.90775948949158191680908203125" lon="-1.31463110446929931640625">
        <ele>892.4000244140625</ele>
        <time>2022-05-03T07:56:05.000Z</time>
      </trkpt>
      <trkpt lat="40.90767332352697849273681640625" lon="-1.31467192433774471282958984375">
        <ele>892.5999755859375</ele>
        <time>2022-05-03T07:56:07.000Z</time>
      </trkpt>
      <trkpt lat="40.907589755952358245849609375" lon="-1.3147155940532684326171875">
        <ele>893</ele>
        <time>2022-05-03T07:56:09.000Z</time>
      </trkpt>
      <trkpt lat="40.90750820003449916839599609375" lon="-1.3147616945207118988037109375">
        <ele>893.20001220703125</ele>
        <time>2022-05-03T07:56:11.000Z</time>
      </trkpt>
      <trkpt lat="40.9074236266314983367919921875" lon="-1.31481123156845569610595703125">
        <ele>893.5999755859375</ele>
        <time>2022-05-03T07:56:13.000Z</time>
      </trkpt>
      <trkpt lat="40.9073357842862606048583984375" lon="-1.31485984660685062408447265625">
        <ele>894</ele>
        <time>2022-05-03T07:56:15.000Z</time>
      </trkpt>
      <trkpt lat="40.9072472713887691497802734375" lon="-1.314911060035228729248046875">
        <ele>894.4000244140625</ele>
        <time>2022-05-03T07:56:17.000Z</time>
      </trkpt>
      <trkpt lat="40.907158590853214263916015625" lon="-1.31495992653071880340576171875">
        <ele>894.20001220703125</ele>
        <time>2022-05-03T07:56:19.000Z</time>
      </trkpt>
      <trkpt lat="40.90707016177475452423095703125" lon="-1.31500753574073314666748046875">
        <ele>893.5999755859375</ele>
        <time>2022-05-03T07:56:21.000Z</time>
      </trkpt>
      <trkpt lat="40.9070243127644062042236328125" lon="-1.31503368727862834930419921875">
        <ele>893.4000244140625</ele>
        <time>2022-05-03T07:56:22.000Z</time>
      </trkpt>
      <trkpt lat="40.90697511099278926849365234375" lon="-1.315057240426540374755859375">
        <ele>893</ele>
        <time>2022-05-03T07:56:23.000Z</time>
      </trkpt>
      <trkpt lat="40.90687461197376251220703125" lon="-1.3151090405881404876708984375">
        <ele>892.5999755859375</ele>
        <time>2022-05-03T07:56:25.000Z</time>
      </trkpt>
      <trkpt lat="40.9067733585834503173828125" lon="-1.315160505473613739013671875">
        <ele>892.20001220703125</ele>
        <time>2022-05-03T07:56:27.000Z</time>
      </trkpt>
      <trkpt lat="40.90667705051600933074951171875" lon="-1.31521054543554782867431640625">
        <ele>891.79998779296875</ele>
        <time>2022-05-03T07:56:29.000Z</time>
      </trkpt>
      <trkpt lat="40.9065856039524078369140625" lon="-1.31526167504489421844482421875">
        <ele>891.4000244140625</ele>
        <time>2022-05-03T07:56:31.000Z</time>
      </trkpt>
      <trkpt lat="40.90649214573204517364501953125" lon="-1.31531112827360630035400390625">
        <ele>891</ele>
        <time>2022-05-03T07:56:33.000Z</time>
      </trkpt>
      <trkpt lat="40.90639810077846050262451171875" lon="-1.3153591565787792205810546875">
        <ele>890.5999755859375</ele>
        <time>2022-05-03T07:56:35.000Z</time>
      </trkpt>
      <trkpt lat="40.90630196034908294677734375" lon="-1.31541254930198192596435546875">
        <ele>890.4000244140625</ele>
        <time>2022-05-03T07:56:37.000Z</time>
      </trkpt>
      <trkpt lat="40.906257368624210357666015625" lon="-1.31543652154505252838134765625">
        <ele>890.4000244140625</ele>
        <time>2022-05-03T07:56:38.000Z</time>
      </trkpt>
      <trkpt lat="40.90621135197579860687255859375" lon="-1.31545932032167911529541015625">
        <ele>890.4000244140625</ele>
        <time>2022-05-03T07:56:39.000Z</time>
      </trkpt>
      <trkpt lat="40.90611965395510196685791015625" lon="-1.3155046664178371429443359375">
        <ele>890.20001220703125</ele>
        <time>2022-05-03T07:56:41.000Z</time>
      </trkpt>
      <trkpt lat="40.90602410025894641876220703125" lon="-1.31554774940013885498046875">
        <ele>890</ele>
        <time>2022-05-03T07:56:43.000Z</time>
      </trkpt>
      <trkpt lat="40.90593324042856693267822265625" lon="-1.3155958615243434906005859375">
        <ele>889.79998779296875</ele>
        <time>2022-05-03T07:56:45.000Z</time>
      </trkpt>
      <trkpt lat="40.9058887325227260589599609375" lon="-1.3156183250248432159423828125">
        <ele>889.79998779296875</ele>
        <time>2022-05-03T07:56:46.000Z</time>
      </trkpt>
      <trkpt lat="40.90584506280720233917236328125" lon="-1.31564003415405750274658203125">
        <ele>889.5999755859375</ele>
        <time>2022-05-03T07:56:47.000Z</time>
      </trkpt>
      <trkpt lat="40.90575956739485263824462890625" lon="-1.31568328477442264556884765625">
        <ele>889.4000244140625</ele>
        <time>2022-05-03T07:56:49.000Z</time>
      </trkpt>
      <trkpt lat="40.90567407198250293731689453125" lon="-1.3157276250422000885009765625">
        <ele>889.20001220703125</ele>
        <time>2022-05-03T07:56:51.000Z</time>
      </trkpt>
      <trkpt lat="40.90558857657015323638916015625" lon="-1.3157708756625652313232421875">
        <ele>889</ele>
        <time>2022-05-03T07:56:53.000Z</time>
      </trkpt>
      <trkpt lat="40.90550190769135951995849609375" lon="-1.31581856869161128997802734375">
        <ele>889</ele>
        <time>2022-05-03T07:56:55.000Z</time>
      </trkpt>
      <trkpt lat="40.90541792102158069610595703125" lon="-1.3158624060451984405517578125">
        <ele>889.20001220703125</ele>
        <time>2022-05-03T07:56:57.000Z</time>
      </trkpt>
      <trkpt lat="40.90537391602993011474609375" lon="-1.3158858753740787506103515625">
        <ele>889.20001220703125</ele>
        <time>2022-05-03T07:56:58.000Z</time>
      </trkpt>
      <trkpt lat="40.9053304977715015411376953125" lon="-1.3159103505313396453857421875">
        <ele>889.20001220703125</ele>
        <time>2022-05-03T07:56:59.000Z</time>
      </trkpt>
      <trkpt lat="40.90524592436850070953369140625" lon="-1.315960474312305450439453125">
        <ele>889.4000244140625</ele>
        <time>2022-05-03T07:57:01.000Z</time>
      </trkpt>
      <trkpt lat="40.905162356793880462646484375" lon="-1.31600439548492431640625">
        <ele>889.4000244140625</ele>
        <time>2022-05-03T07:57:03.000Z</time>
      </trkpt>
      <trkpt lat="40.90507795102894306182861328125" lon="-1.31605158559978008270263671875">
        <ele>889.5999755859375</ele>
        <time>2022-05-03T07:57:05.000Z</time>
      </trkpt>
      <trkpt lat="40.9049861691892147064208984375" lon="-1.31609919480979442596435546875">
        <ele>889.5999755859375</ele>
        <time>2022-05-03T07:57:07.000Z</time>
      </trkpt>
      <trkpt lat="40.90489572845399379730224609375" lon="-1.316146552562713623046875">
        <ele>889.79998779296875</ele>
        <time>2022-05-03T07:57:09.000Z</time>
      </trkpt>
      <trkpt lat="40.90480252169072628021240234375" lon="-1.31619751453399658203125">
        <ele>890</ele>
        <time>2022-05-03T07:57:11.000Z</time>
      </trkpt>
      <trkpt lat="40.9047563374042510986328125" lon="-1.3162221573293209075927734375">
        <ele>890</ele>
        <time>2022-05-03T07:57:12.000Z</time>
      </trkpt>
      <trkpt lat="40.90471032075583934783935546875" lon="-1.31624621339142322540283203125">
        <ele>890</ele>
        <time>2022-05-03T07:57:13.000Z</time>
      </trkpt>
      <trkpt lat="40.90461744926869869232177734375" lon="-1.3162927329540252685546875">
        <ele>890</ele>
        <time>2022-05-03T07:57:15.000Z</time>
      </trkpt>
      <trkpt lat="40.90453128330409526824951171875" lon="-1.3163418509066104888916015625">
        <ele>890</ele>
        <time>2022-05-03T07:57:17.000Z</time>
      </trkpt>
      <trkpt lat="40.90444184839725494384765625" lon="-1.31638904102146625518798828125">
        <ele>890</ele>
        <time>2022-05-03T07:57:19.000Z</time>
      </trkpt>
      <trkpt lat="40.90439666993916034698486328125" lon="-1.316411085426807403564453125">
        <ele>890</ele>
        <time>2022-05-03T07:57:20.000Z</time>
      </trkpt>
      <trkpt lat="40.90435258112847805023193359375" lon="-1.3164337165653705596923828125">
        <ele>890</ele>
        <time>2022-05-03T07:57:21.000Z</time>
      </trkpt>
      <trkpt lat="40.90426482260227203369140625" lon="-1.31647973321378231048583984375">
        <ele>890</ele>
        <time>2022-05-03T07:57:23.000Z</time>
      </trkpt>
      <trkpt lat="40.9041754715144634246826171875" lon="-1.3165285997092723846435546875">
        <ele>890</ele>
        <time>2022-05-03T07:57:25.000Z</time>
      </trkpt>
      <trkpt lat="40.90408469550311565399169921875" lon="-1.3165743649005889892578125">
        <ele>889.79998779296875</ele>
        <time>2022-05-03T07:57:27.000Z</time>
      </trkpt>
      <trkpt lat="40.9039972722530364990234375" lon="-1.316618621349334716796875">
        <ele>889.79998779296875</ele>
        <time>2022-05-03T07:57:29.000Z</time>
      </trkpt>
      <trkpt lat="40.90391303412616252899169921875" lon="-1.31666430272161960601806640625">
        <ele>889.79998779296875</ele>
        <time>2022-05-03T07:57:31.000Z</time>
      </trkpt>
      <trkpt lat="40.90382494032382965087890625" lon="-1.31670956499874591827392578125">
        <ele>889.79998779296875</ele>
        <time>2022-05-03T07:57:33.000Z</time>
      </trkpt>
      <trkpt lat="40.9037386067211627960205078125" lon="-1.31675750948488712310791015625">
        <ele>889.79998779296875</ele>
        <time>2022-05-03T07:57:35.000Z</time>
      </trkpt>
      <trkpt lat="40.903654284775257110595703125" lon="-1.3168048672378063201904296875">
        <ele>889.79998779296875</ele>
        <time>2022-05-03T07:57:37.000Z</time>
      </trkpt>
      <trkpt lat="40.9035609103739261627197265625" lon="-1.316851638257503509521484375">
        <ele>890</ele>
        <time>2022-05-03T07:57:39.000Z</time>
      </trkpt>
      <trkpt lat="40.90347331948578357696533203125" lon="-1.31689690053462982177734375">
        <ele>890</ele>
        <time>2022-05-03T07:57:41.000Z</time>
      </trkpt>
      <trkpt lat="40.90338866226375102996826171875" lon="-1.31694107316434383392333984375">
        <ele>890</ele>
        <time>2022-05-03T07:57:43.000Z</time>
      </trkpt>
      <trkpt lat="40.90334574691951274871826171875" lon="-1.31696219556033611297607421875">
        <ele>890</ele>
        <time>2022-05-03T07:57:44.000Z</time>
      </trkpt>
      <trkpt lat="40.9033027477562427520751953125" lon="-1.31698415614664554595947265625">
        <ele>890</ele>
        <time>2022-05-03T07:57:45.000Z</time>
      </trkpt>
      <trkpt lat="40.90321649797260761260986328125" lon="-1.31703075952827930450439453125">
        <ele>890</ele>
        <time>2022-05-03T07:57:47.000Z</time>
      </trkpt>
      <trkpt lat="40.9031324274837970733642578125" lon="-1.31707501597702503204345703125">
        <ele>890</ele>
        <time>2022-05-03T07:57:49.000Z</time>
      </trkpt>
      <trkpt lat="40.903046429157257080078125" lon="-1.31711927242577075958251953125">
        <ele>890</ele>
        <time>2022-05-03T07:57:51.000Z</time>
      </trkpt>
      <trkpt lat="40.90296126902103424072265625" lon="-1.31716067902743816375732421875">
        <ele>890.4000244140625</ele>
        <time>2022-05-03T07:57:53.000Z</time>
      </trkpt>
      <trkpt lat="40.90287434868514537811279296875" lon="-1.31720761768519878387451171875">
        <ele>890.5999755859375</ele>
        <time>2022-05-03T07:57:55.000Z</time>
      </trkpt>
      <trkpt lat="40.90278960764408111572265625" lon="-1.3172521255910396575927734375">
        <ele>891</ele>
        <time>2022-05-03T07:57:57.000Z</time>
      </trkpt>
      <trkpt lat="40.90270469896495342254638671875" lon="-1.31729914806783199310302734375">
        <ele>891.4000244140625</ele>
        <time>2022-05-03T07:57:59.000Z</time>
      </trkpt>
      <trkpt lat="40.9026218019425868988037109375" lon="-1.31734558381140232086181640625">
        <ele>891.5999755859375</ele>
        <time>2022-05-03T07:58:01.000Z</time>
      </trkpt>
      <trkpt lat="40.90253773145377635955810546875" lon="-1.3173859007656574249267578125">
        <ele>891.79998779296875</ele>
        <time>2022-05-03T07:58:03.000Z</time>
      </trkpt>
      <trkpt lat="40.90245273895561695098876953125" lon="-1.31743024103343486785888671875">
        <ele>892</ele>
        <time>2022-05-03T07:58:05.000Z</time>
      </trkpt>
      <trkpt lat="40.90237176977097988128662109375" lon="-1.3174740783870220184326171875">
        <ele>892.20001220703125</ele>
        <time>2022-05-03T07:58:07.000Z</time>
      </trkpt>
      <trkpt lat="40.9022905491292476654052734375" lon="-1.31751649081707000732421875">
        <ele>892.5999755859375</ele>
        <time>2022-05-03T07:58:09.000Z</time>
      </trkpt>
      <trkpt lat="40.9022090770304203033447265625" lon="-1.3175589032471179962158203125">
        <ele>892.79998779296875</ele>
        <time>2022-05-03T07:58:11.000Z</time>
      </trkpt>
      <trkpt lat="40.90216775424778461456298828125" lon="-1.31757994182407855987548828125">
        <ele>893</ele>
        <time>2022-05-03T07:58:12.000Z</time>
      </trkpt>
      <trkpt lat="40.90212651528418064117431640625" lon="-1.3175994716584682464599609375">
        <ele>893.20001220703125</ele>
        <time>2022-05-03T07:58:13.000Z</time>
      </trkpt>
      <trkpt lat="40.9020478092133998870849609375" lon="-1.31764247082173824310302734375">
        <ele>893.79998779296875</ele>
        <time>2022-05-03T07:58:15.000Z</time>
      </trkpt>
      <trkpt lat="40.9019690193235874176025390625" lon="-1.31768488325178623199462890625">
        <ele>894.20001220703125</ele>
        <time>2022-05-03T07:58:17.000Z</time>
      </trkpt>
      <trkpt lat="40.9018852002918720245361328125" lon="-1.31772729568183422088623046875">
        <ele>894.5999755859375</ele>
        <time>2022-05-03T07:58:19.000Z</time>
      </trkpt>
      <trkpt lat="40.901842452585697174072265625" lon="-1.317750178277492523193359375">
        <ele>894.79998779296875</ele>
        <time>2022-05-03T07:58:20.000Z</time>
      </trkpt>
      <trkpt lat="40.9017997048795223236083984375" lon="-1.31777389906346797943115234375">
        <ele>895</ele>
        <time>2022-05-03T07:58:21.000Z</time>
      </trkpt>
      <trkpt lat="40.9017135389149188995361328125" lon="-1.3178237713873386383056640625">
        <ele>895.4000244140625</ele>
        <time>2022-05-03T07:58:23.000Z</time>
      </trkpt>
      <trkpt lat="40.9016270376741886138916015625" lon="-1.31786878220736980438232421875">
        <ele>896</ele>
        <time>2022-05-03T07:58:25.000Z</time>
      </trkpt>
      <trkpt lat="40.90154229663312435150146484375" lon="-1.31791345775127410888671875">
        <ele>896.4000244140625</ele>
        <time>2022-05-03T07:58:27.000Z</time>
      </trkpt>
      <trkpt lat="40.90149938128888607025146484375" lon="-1.31793650798499584197998046875">
        <ele>896.5999755859375</ele>
        <time>2022-05-03T07:58:28.000Z</time>
      </trkpt>
      <trkpt lat="40.9014560468494892120361328125" lon="-1.31795863620936870574951171875">
        <ele>896.79998779296875</ele>
        <time>2022-05-03T07:58:29.000Z</time>
      </trkpt>
      <trkpt lat="40.901372730731964111328125" lon="-1.318002305924892425537109375">
        <ele>897</ele>
        <time>2022-05-03T07:58:31.000Z</time>
      </trkpt>
      <trkpt lat="40.9012900851666927337646484375" lon="-1.31804312579333782196044921875">
        <ele>897.4000244140625</ele>
        <time>2022-05-03T07:58:33.000Z</time>
      </trkpt>
      <trkpt lat="40.90120710432529449462890625" lon="-1.31808939389884471893310546875">
        <ele>897.5999755859375</ele>
        <time>2022-05-03T07:58:35.000Z</time>
      </trkpt>
      <trkpt lat="40.901124291121959686279296875" lon="-1.31813482381403446197509765625">
        <ele>898</ele>
        <time>2022-05-03T07:58:37.000Z</time>
      </trkpt>
      <trkpt lat="40.9010818786919116973876953125" lon="-1.3181567005813121795654296875">
        <ele>898.4000244140625</ele>
        <time>2022-05-03T07:58:38.000Z</time>
      </trkpt>
      <trkpt lat="40.9010387957096099853515625" lon="-1.31817757152020931243896484375">
        <ele>898.5999755859375</ele>
        <time>2022-05-03T07:58:39.000Z</time>
      </trkpt>
      <trkpt lat="40.900954641401767730712890625" lon="-1.31822325289249420166015625">
        <ele>899.4000244140625</ele>
        <time>2022-05-03T07:58:41.000Z</time>
      </trkpt>
      <trkpt lat="40.9008719958364963531494140625" lon="-1.3182686828076839447021484375">
        <ele>900</ele>
        <time>2022-05-03T07:58:43.000Z</time>
      </trkpt>
      <trkpt lat="40.9007875062525272369384765625" lon="-1.3183172978460788726806640625">
        <ele>900.79998779296875</ele>
        <time>2022-05-03T07:58:45.000Z</time>
      </trkpt>
      <trkpt lat="40.90070242993533611297607421875" lon="-1.31836197338998317718505859375">
        <ele>901.4000244140625</ele>
        <time>2022-05-03T07:58:47.000Z</time>
      </trkpt>
      <trkpt lat="40.9006601013243198394775390625" lon="-1.31838376633822917938232421875">
        <ele>901.79998779296875</ele>
        <time>2022-05-03T07:58:48.000Z</time>
      </trkpt>
      <trkpt lat="40.900619365274906158447265625" lon="-1.31840790621936321258544921875">
        <ele>902</ele>
        <time>2022-05-03T07:58:49.000Z</time>
      </trkpt>
      <trkpt lat="40.9005434252321720123291015625" lon="-1.318456269800662994384765625">
        <ele>902.5999755859375</ele>
        <time>2022-05-03T07:58:51.000Z</time>
      </trkpt>
      <trkpt lat="40.900468491017818450927734375" lon="-1.31850211881101131439208984375">
        <ele>902.79998779296875</ele>
        <time>2022-05-03T07:58:53.000Z</time>
      </trkpt>
      <trkpt lat="40.90039196424186229705810546875" lon="-1.318550147116184234619140625">
        <ele>902.79998779296875</ele>
        <time>2022-05-03T07:58:55.000Z</time>
      </trkpt>
      <trkpt lat="40.900353156030178070068359375" lon="-1.31857487373054027557373046875">
        <ele>903</ele>
        <time>2022-05-03T07:58:56.000Z</time>
      </trkpt>
      <trkpt lat="40.90031384490430355072021484375" lon="-1.318600438535213470458984375">
        <ele>903</ele>
        <time>2022-05-03T07:58:57.000Z</time>
      </trkpt>
      <trkpt lat="40.900274701416492462158203125" lon="-1.31862851791083812713623046875">
        <ele>903</ele>
        <time>2022-05-03T07:58:58.000Z</time>
      </trkpt>
      <trkpt lat="40.90023388154804706573486328125" lon="-1.31865735165774822235107421875">
        <ele>903.20001220703125</ele>
        <time>2022-05-03T07:58:59.000Z</time>
      </trkpt>
      <trkpt lat="40.90015844441950321197509765625" lon="-1.31871133111417293548583984375">
        <ele>903.4000244140625</ele>
        <time>2022-05-03T07:59:01.000Z</time>
      </trkpt>
      <trkpt lat="40.9000807441771030426025390625" lon="-1.31876774132251739501953125">
        <ele>903.5999755859375</ele>
        <time>2022-05-03T07:59:03.000Z</time>
      </trkpt>
      <trkpt lat="40.90000681579113006591796875" lon="-1.3188245706260204315185546875">
        <ele>903.79998779296875</ele>
        <time>2022-05-03T07:59:05.000Z</time>
      </trkpt>
      <trkpt lat="40.89993037283420562744140625" lon="-1.31887771189212799072265625">
        <ele>904</ele>
        <time>2022-05-03T07:59:07.000Z</time>
      </trkpt>
      <trkpt lat="40.8998559415340423583984375" lon="-1.31893546320497989654541015625">
        <ele>904.20001220703125</ele>
        <time>2022-05-03T07:59:09.000Z</time>
      </trkpt>
      <trkpt lat="40.899784527719020843505859375" lon="-1.3189952261745929718017578125">
        <ele>904.20001220703125</ele>
        <time>2022-05-03T07:59:11.000Z</time>
      </trkpt>
      <trkpt lat="40.8997142873704433441162109375" lon="-1.31904861889779567718505859375">
        <ele>904.20001220703125</ele>
        <time>2022-05-03T07:59:13.000Z</time>
      </trkpt>
      <trkpt lat="40.89964203536510467529296875" lon="-1.31910377182066440582275390625">
        <ele>904.20001220703125</ele>
        <time>2022-05-03T07:59:15.000Z</time>
      </trkpt>
      <trkpt lat="40.89956768788397312164306640625" lon="-1.3191600143909454345703125">
        <ele>904</ele>
        <time>2022-05-03T07:59:17.000Z</time>
      </trkpt>
      <trkpt lat="40.89949317276477813720703125" lon="-1.3192205317318439483642578125">
        <ele>904</ele>
        <time>2022-05-03T07:59:19.000Z</time>
      </trkpt>
      <trkpt lat="40.899454616010189056396484375" lon="-1.31925347261130809783935546875">
        <ele>904</ele>
        <time>2022-05-03T07:59:20.000Z</time>
      </trkpt>
      <trkpt lat="40.8994165621697902679443359375" lon="-1.3192835636436939239501953125">
        <ele>904</ele>
        <time>2022-05-03T07:59:21.000Z</time>
      </trkpt>
      <trkpt lat="40.89934171177446842193603515625" lon="-1.31934441626071929931640625">
        <ele>904</ele>
        <time>2022-05-03T07:59:23.000Z</time>
      </trkpt>
      <trkpt lat="40.89926409535109996795654296875" lon="-1.31940384395420551300048828125">
        <ele>904</ele>
        <time>2022-05-03T07:59:25.000Z</time>
      </trkpt>
      <trkpt lat="40.89922486804425716400146484375" lon="-1.319434940814971923828125">
        <ele>904</ele>
        <time>2022-05-03T07:59:26.000Z</time>
      </trkpt>
      <trkpt lat="40.89918681420385837554931640625" lon="-1.31946587003767490386962890625">
        <ele>904</ele>
        <time>2022-05-03T07:59:27.000Z</time>
      </trkpt>
      <trkpt lat="40.89910986833274364471435546875" lon="-1.3195246271789073944091796875">
        <ele>904</ele>
        <time>2022-05-03T07:59:29.000Z</time>
      </trkpt>
      <trkpt lat="40.89903795160353183746337890625" lon="-1.31958053447306156158447265625">
        <ele>904</ele>
        <time>2022-05-03T07:59:31.000Z</time>
      </trkpt>
      <trkpt lat="40.8989773504436016082763671875" lon="-1.31963334046304225921630859375">
        <ele>904</ele>
        <time>2022-05-03T07:59:33.000Z</time>
      </trkpt>
      <trkpt lat="40.89895069599151611328125" lon="-1.3196553848683834075927734375">
        <ele>904</ele>
        <time>2022-05-03T07:59:34.000Z</time>
      </trkpt>
      <trkpt lat="40.8989225327968597412109375" lon="-1.3196768425405025482177734375">
        <ele>904</ele>
        <time>2022-05-03T07:59:35.000Z</time>
      </trkpt>
      <trkpt lat="40.8988948725163936614990234375" lon="-1.31969704292714595794677734375">
        <ele>904</ele>
        <time>2022-05-03T07:59:36.000Z</time>
      </trkpt>
      <trkpt lat="40.8988690562546253204345703125" lon="-1.319717578589916229248046875">
        <ele>903.79998779296875</ele>
        <time>2022-05-03T07:59:37.000Z</time>
      </trkpt>
      <trkpt lat="40.8988217823207378387451171875" lon="-1.31974616087973117828369140625">
        <ele>903.5999755859375</ele>
        <time>2022-05-03T07:59:39.000Z</time>
      </trkpt>
      <trkpt lat="40.89880191721022129058837890625" lon="-1.319757811725139617919921875">
        <ele>903.4000244140625</ele>
        <time>2022-05-03T07:59:40.000Z</time>
      </trkpt>
      <trkpt lat="40.89878465048968791961669921875" lon="-1.31976812146604061126708984375">
        <ele>903.4000244140625</ele>
        <time>2022-05-03T07:59:41.000Z</time>
      </trkpt>
      <trkpt lat="40.89874475263059139251708984375" lon="-1.319778598845005035400390625">
        <ele>903</ele>
        <time>2022-05-03T07:59:43.000Z</time>
      </trkpt>
      <trkpt lat="40.8986937068402767181396484375" lon="-1.31977080367505550384521484375">
        <ele>902.79998779296875</ele>
        <time>2022-05-03T07:59:45.000Z</time>
      </trkpt>
      <trkpt lat="40.898663364350795745849609375" lon="-1.31977315060794353485107421875">
        <ele>902.5999755859375</ele>
        <time>2022-05-03T07:59:46.000Z</time>
      </trkpt>
      <trkpt lat="40.898631513118743896484375" lon="-1.319781281054019927978515625">
        <ele>902.4000244140625</ele>
        <time>2022-05-03T07:59:47.000Z</time>
      </trkpt>
      <trkpt lat="40.898559093475341796875" lon="-1.319823525846004486083984375">
        <ele>902</ele>
        <time>2022-05-03T07:59:49.000Z</time>
      </trkpt>
      <trkpt lat="40.8985196985304355621337890625" lon="-1.31985512562096118927001953125">
        <ele>902</ele>
        <time>2022-05-03T07:59:50.000Z</time>
      </trkpt>
      <trkpt lat="40.89847929775714874267578125" lon="-1.31988756358623504638671875">
        <ele>902</ele>
        <time>2022-05-03T07:59:51.000Z</time>
      </trkpt>
      <trkpt lat="40.89841433800756931304931640625" lon="-1.31994095630943775177001953125">
        <ele>902</ele>
        <time>2022-05-03T07:59:53.000Z</time>
      </trkpt>
      <trkpt lat="40.898357927799224853515625" lon="-1.32000021636486053466796875">
        <ele>902</ele>
        <time>2022-05-03T07:59:55.000Z</time>
      </trkpt>
      <trkpt lat="40.89830554090440273284912109375" lon="-1.3200719654560089111328125">
        <ele>902</ele>
        <time>2022-05-03T07:59:57.000Z</time>
      </trkpt>
      <trkpt lat="40.8982595242559909820556640625" lon="-1.32014907896518707275390625">
        <ele>902.20001220703125</ele>
        <time>2022-05-03T07:59:59.000Z</time>
      </trkpt>
      <trkpt lat="40.8982144296169281005859375" lon="-1.3202209956943988800048828125">
        <ele>902.4000244140625</ele>
        <time>2022-05-03T08:00:01.000Z</time>
      </trkpt>
      <trkpt lat="40.89815248735249042510986328125" lon="-1.32028595544397830963134765625">
        <ele>902.4000244140625</ele>
        <time>2022-05-03T08:00:03.000Z</time>
      </trkpt>
      <trkpt lat="40.89807637967169284820556640625" lon="-1.32034177891910076141357421875">
        <ele>902.20001220703125</ele>
        <time>2022-05-03T08:00:05.000Z</time>
      </trkpt>
      <trkpt lat="40.89803514070808887481689453125" lon="-1.32037044502794742584228515625">
        <ele>902.4000244140625</ele>
        <time>2022-05-03T08:00:06.000Z</time>
      </trkpt>
      <trkpt lat="40.89799390174448490142822265625" lon="-1.32040011696517467498779296875">
        <ele>902.4000244140625</ele>
        <time>2022-05-03T08:00:07.000Z</time>
      </trkpt>
      <trkpt lat="40.8979078195989131927490234375" lon="-1.32046046666800975799560546875">
        <ele>902.5999755859375</ele>
        <time>2022-05-03T08:00:09.000Z</time>
      </trkpt>
      <trkpt lat="40.89781871996819972991943359375" lon="-1.320527605712413787841796875">
        <ele>902.79998779296875</ele>
        <time>2022-05-03T08:00:11.000Z</time>
      </trkpt>
      <trkpt lat="40.89772869832813739776611328125" lon="-1.32059725932776927947998046875">
        <ele>903</ele>
        <time>2022-05-03T08:00:13.000Z</time>
      </trkpt>
      <trkpt lat="40.89768460951745510101318359375" lon="-1.32063053548336029052734375">
        <ele>903</ele>
        <time>2022-05-03T08:00:14.000Z</time>
      </trkpt>
      <trkpt lat="40.89764068834483623504638671875" lon="-1.32066532038152217864990234375">
        <ele>903.20001220703125</ele>
        <time>2022-05-03T08:00:15.000Z</time>
      </trkpt>
      <trkpt lat="40.8975537680089473724365234375" lon="-1.32073388434946537017822265625">
        <ele>903.5999755859375</ele>
        <time>2022-05-03T08:00:17.000Z</time>
      </trkpt>
      <trkpt lat="40.8974676020443439483642578125" lon="-1.3208003528416156768798828125">
        <ele>904</ele>
        <time>2022-05-03T08:00:19.000Z</time>
      </trkpt>
      <trkpt lat="40.89738436974585056304931640625" lon="-1.320867575705051422119140625">
        <ele>904.4000244140625</ele>
        <time>2022-05-03T08:00:21.000Z</time>
      </trkpt>
      <trkpt lat="40.89729887433350086212158203125" lon="-1.32093370892107486724853515625">
        <ele>904.5999755859375</ele>
        <time>2022-05-03T08:00:23.000Z</time>
      </trkpt>
      <trkpt lat="40.89725528843700885772705078125" lon="-1.32096589542925357818603515625">
        <ele>904.79998779296875</ele>
        <time>2022-05-03T08:00:24.000Z</time>
      </trkpt>
      <trkpt lat="40.89721270836889743804931640625" lon="-1.32099590264260768890380859375">
        <ele>904.79998779296875</ele>
        <time>2022-05-03T08:00:25.000Z</time>
      </trkpt>
      <trkpt lat="40.89713056571781635284423828125" lon="-1.32105725817382335662841796875">
        <ele>904.5999755859375</ele>
        <time>2022-05-03T08:00:27.000Z</time>
      </trkpt>
      <trkpt lat="40.8970488421618938446044921875" lon="-1.32111878134310245513916015625">
        <ele>904.5999755859375</ele>
        <time>2022-05-03T08:00:29.000Z</time>
      </trkpt>
      <trkpt lat="40.8969673700630664825439453125" lon="-1.32118483074009418487548828125">
        <ele>904.4000244140625</ele>
        <time>2022-05-03T08:00:31.000Z</time>
      </trkpt>
      <trkpt lat="40.89692655019462108612060546875" lon="-1.32121835835278034210205078125">
        <ele>904.4000244140625</ele>
        <time>2022-05-03T08:00:32.000Z</time>
      </trkpt>
      <trkpt lat="40.89688464067876338958740234375" lon="-1.3212526403367519378662109375">
        <ele>904.20001220703125</ele>
        <time>2022-05-03T08:00:33.000Z</time>
      </trkpt>
      <trkpt lat="40.89680316857993602752685546875" lon="-1.3213213719427585601806640625">
        <ele>904.20001220703125</ele>
        <time>2022-05-03T08:00:35.000Z</time>
      </trkpt>
      <trkpt lat="40.89672102592885494232177734375" lon="-1.3213870860636234283447265625">
        <ele>904</ele>
        <time>2022-05-03T08:00:37.000Z</time>
      </trkpt>
      <trkpt lat="40.8966391347348690032958984375" lon="-1.3214511238038539886474609375">
        <ele>903.79998779296875</ele>
        <time>2022-05-03T08:00:39.000Z</time>
      </trkpt>
      <trkpt lat="40.8965566568076610565185546875" lon="-1.321518681943416595458984375">
        <ele>903.5999755859375</ele>
        <time>2022-05-03T08:00:41.000Z</time>
      </trkpt>
      <trkpt lat="40.8964738436043262481689453125" lon="-1.32158481515944004058837890625">
        <ele>903.20001220703125</ele>
        <time>2022-05-03T08:00:43.000Z</time>
      </trkpt>
      <trkpt lat="40.896389186382293701171875" lon="-1.32165237329900264739990234375">
        <ele>902.79998779296875</ele>
        <time>2022-05-03T08:00:45.000Z</time>
      </trkpt>
      <trkpt lat="40.8963041938841342926025390625" lon="-1.32172177545726299285888671875">
        <ele>902.79998779296875</ele>
        <time>2022-05-03T08:00:47.000Z</time>
      </trkpt>
      <trkpt lat="40.89621894992887973785400390625" lon="-1.3217860646545886993408203125">
        <ele>902.5999755859375</ele>
        <time>2022-05-03T08:00:49.000Z</time>
      </trkpt>
      <trkpt lat="40.8961321972310543060302734375" lon="-1.32185454480350017547607421875">
        <ele>902.5999755859375</ele>
        <time>2022-05-03T08:00:51.000Z</time>
      </trkpt>
      <trkpt lat="40.89609037153422832489013671875" lon="-1.32188756950199604034423828125">
        <ele>902.5999755859375</ele>
        <time>2022-05-03T08:00:52.000Z</time>
      </trkpt>
      <trkpt lat="40.8960472047328948974609375" lon="-1.32191975601017475128173828125">
        <ele>902.4000244140625</ele>
        <time>2022-05-03T08:00:53.000Z</time>
      </trkpt>
      <trkpt lat="40.89596145786345005035400390625" lon="-1.32198429666459560394287109375">
        <ele>902.4000244140625</ele>
        <time>2022-05-03T08:00:55.000Z</time>
      </trkpt>
      <trkpt lat="40.8958777226507663726806640625" lon="-1.32204833440482616424560546875">
        <ele>902.20001220703125</ele>
        <time>2022-05-03T08:00:57.000Z</time>
      </trkpt>
      <trkpt lat="40.895798765122890472412109375" lon="-1.32211186923086643218994140625">
        <ele>902.20001220703125</ele>
        <time>2022-05-03T08:00:59.000Z</time>
      </trkpt>
      <trkpt lat="40.895717628300189971923828125" lon="-1.32217657752335071563720703125">
        <ele>902.20001220703125</ele>
        <time>2022-05-03T08:01:01.000Z</time>
      </trkpt>
      <trkpt lat="40.89563992805778980255126953125" lon="-1.3222403638064861297607421875">
        <ele>902</ele>
        <time>2022-05-03T08:01:03.000Z</time>
      </trkpt>
      <trkpt lat="40.89555879123508930206298828125" lon="-1.3223044015467166900634765625">
        <ele>902</ele>
        <time>2022-05-03T08:01:05.000Z</time>
      </trkpt>
      <trkpt lat="40.8954784087836742401123046875" lon="-1.3223664276301860809326171875">
        <ele>901.79998779296875</ele>
        <time>2022-05-03T08:01:07.000Z</time>
      </trkpt>
      <trkpt lat="40.8953979425132274627685546875" lon="-1.3224308006465435028076171875">
        <ele>901.5999755859375</ele>
        <time>2022-05-03T08:01:09.000Z</time>
      </trkpt>
      <trkpt lat="40.8953147940337657928466796875" lon="-1.3224985264241695404052734375">
        <ele>901.4000244140625</ele>
        <time>2022-05-03T08:01:11.000Z</time>
      </trkpt>
      <trkpt lat="40.89522955007851123809814453125" lon="-1.32256818003952503204345703125">
        <ele>901.4000244140625</ele>
        <time>2022-05-03T08:01:13.000Z</time>
      </trkpt>
      <trkpt lat="40.89514573104679584503173828125" lon="-1.32263255305588245391845703125">
        <ele>901.20001220703125</ele>
        <time>2022-05-03T08:01:15.000Z</time>
      </trkpt>
      <trkpt lat="40.895055793225765228271484375" lon="-1.322696506977081298828125">
        <ele>901</ele>
        <time>2022-05-03T08:01:17.000Z</time>
      </trkpt>
      <trkpt lat="40.89497038163244724273681640625" lon="-1.32276280783116817474365234375">
        <ele>900.79998779296875</ele>
        <time>2022-05-03T08:01:19.000Z</time>
      </trkpt>
      <trkpt lat="40.89489259757101535797119140625" lon="-1.32282651029527187347412109375">
        <ele>900.5999755859375</ele>
        <time>2022-05-03T08:01:21.000Z</time>
      </trkpt>
      <trkpt lat="40.89481632225215435028076171875" lon="-1.3228867761790752410888671875">
        <ele>900.5999755859375</ele>
        <time>2022-05-03T08:01:23.000Z</time>
      </trkpt>
      <trkpt lat="40.894737280905246734619140625" lon="-1.3229472935199737548828125">
        <ele>900.4000244140625</ele>
        <time>2022-05-03T08:01:25.000Z</time>
      </trkpt>
      <trkpt lat="40.89465974830090999603271484375" lon="-1.32300906814634799957275390625">
        <ele>900.20001220703125</ele>
        <time>2022-05-03T08:01:27.000Z</time>
      </trkpt>
      <trkpt lat="40.8945805393159389495849609375" lon="-1.3230708427727222442626953125">
        <ele>900.20001220703125</ele>
        <time>2022-05-03T08:01:29.000Z</time>
      </trkpt>
      <trkpt lat="40.89449965395033359527587890625" lon="-1.32313571870326995849609375">
        <ele>900.20001220703125</ele>
        <time>2022-05-03T08:01:31.000Z</time>
      </trkpt>
      <trkpt lat="40.89442321099340915679931640625" lon="-1.323197744786739349365234375">
        <ele>900</ele>
        <time>2022-05-03T08:01:33.000Z</time>
      </trkpt>
      <trkpt lat="40.894345007836818695068359375" lon="-1.3232545740902423858642578125">
        <ele>899.79998779296875</ele>
        <time>2022-05-03T08:01:35.000Z</time>
      </trkpt>
      <trkpt lat="40.89430770836770534515380859375" lon="-1.32328382693231105804443359375">
        <ele>899.5999755859375</ele>
        <time>2022-05-03T08:01:36.000Z</time>
      </trkpt>
      <trkpt lat="40.89427166618406772613525390625" lon="-1.32331081666052341461181640625">
        <ele>899.5999755859375</ele>
        <time>2022-05-03T08:01:37.000Z</time>
      </trkpt>
      <trkpt lat="40.8941976539790630340576171875" lon="-1.323367059230804443359375">
        <ele>899.4000244140625</ele>
        <time>2022-05-03T08:01:39.000Z</time>
      </trkpt>
      <trkpt lat="40.89412146247923374176025390625" lon="-1.32342682220041751861572265625">
        <ele>899.20001220703125</ele>
        <time>2022-05-03T08:01:41.000Z</time>
      </trkpt>
      <trkpt lat="40.89404686354100704193115234375" lon="-1.3234855793416500091552734375">
        <ele>899</ele>
        <time>2022-05-03T08:01:43.000Z</time>
      </trkpt>
      <trkpt lat="40.89397276751697063446044921875" lon="-1.32354366593062877655029296875">
        <ele>898.79998779296875</ele>
        <time>2022-05-03T08:01:45.000Z</time>
      </trkpt>
      <trkpt lat="40.8938959054648876190185546875" lon="-1.32360200397670269012451171875">
        <ele>898.5999755859375</ele>
        <time>2022-05-03T08:01:47.000Z</time>
      </trkpt>
      <trkpt lat="40.89382038451731204986572265625" lon="-1.323659755289554595947265625">
        <ele>898.5999755859375</ele>
        <time>2022-05-03T08:01:49.000Z</time>
      </trkpt>
      <trkpt lat="40.89374561794102191925048828125" lon="-1.32371918298304080963134765625">
        <ele>898.5999755859375</ele>
        <time>2022-05-03T08:01:51.000Z</time>
      </trkpt>
      <trkpt lat="40.89367018081247806549072265625" lon="-1.32377936504781246185302734375">
        <ele>898.79998779296875</ele>
        <time>2022-05-03T08:01:53.000Z</time>
      </trkpt>
      <trkpt lat="40.89359256438910961151123046875" lon="-1.3238403014838695526123046875">
        <ele>898.79998779296875</ele>
        <time>2022-05-03T08:01:55.000Z</time>
      </trkpt>
      <trkpt lat="40.89351444505155086517333984375" lon="-1.32390056736767292022705078125">
        <ele>899</ele>
        <time>2022-05-03T08:01:57.000Z</time>
      </trkpt>
      <trkpt lat="40.89343632571399211883544921875" lon="-1.32396225817501544952392578125">
        <ele>899</ele>
        <time>2022-05-03T08:01:59.000Z</time>
      </trkpt>
      <trkpt lat="40.8933587931096553802490234375" lon="-1.32402311079204082489013671875">
        <ele>899</ele>
        <time>2022-05-03T08:02:01.000Z</time>
      </trkpt>
      <trkpt lat="40.8932796679437160491943359375" lon="-1.32408228702843189239501953125">
        <ele>899.20001220703125</ele>
        <time>2022-05-03T08:02:03.000Z</time>
      </trkpt>
      <trkpt lat="40.89320045895874500274658203125" lon="-1.32414263673126697540283203125">
        <ele>899.20001220703125</ele>
        <time>2022-05-03T08:02:05.000Z</time>
      </trkpt>
      <trkpt lat="40.89312250725924968719482421875" lon="-1.3242070935666561126708984375">
        <ele>899.20001220703125</ele>
        <time>2022-05-03T08:02:07.000Z</time>
      </trkpt>
      <trkpt lat="40.89304556138813495635986328125" lon="-1.32426937110722064971923828125">
        <ele>899.4000244140625</ele>
        <time>2022-05-03T08:02:09.000Z</time>
      </trkpt>
      <trkpt lat="40.8929661847651004791259765625" lon="-1.3243301399052143096923828125">
        <ele>899.4000244140625</ele>
        <time>2022-05-03T08:02:11.000Z</time>
      </trkpt>
      <trkpt lat="40.89288890361785888671875" lon="-1.324386633932590484619140625">
        <ele>899.20001220703125</ele>
        <time>2022-05-03T08:02:13.000Z</time>
      </trkpt>
      <trkpt lat="40.89281539432704448699951171875" lon="-1.32444472052156925201416015625">
        <ele>899.20001220703125</ele>
        <time>2022-05-03T08:02:15.000Z</time>
      </trkpt>
      <trkpt lat="40.89277834631502628326416015625" lon="-1.32447539828717708587646484375">
        <ele>899.20001220703125</ele>
        <time>2022-05-03T08:02:16.000Z</time>
      </trkpt>
      <trkpt lat="40.89274146594107151031494140625" lon="-1.3245064951479434967041015625">
        <ele>899.20001220703125</ele>
        <time>2022-05-03T08:02:17.000Z</time>
      </trkpt>
      <trkpt lat="40.89266787283122539520263671875" lon="-1.32456307299435138702392578125">
        <ele>899.20001220703125</ele>
        <time>2022-05-03T08:02:19.000Z</time>
      </trkpt>
      <trkpt lat="40.89259495027363300323486328125" lon="-1.32461504079401493072509765625">
        <ele>899.20001220703125</ele>
        <time>2022-05-03T08:02:21.000Z</time>
      </trkpt>
      <trkpt lat="40.8925179205834865570068359375" lon="-1.3246734626591205596923828125">
        <ele>899.20001220703125</ele>
        <time>2022-05-03T08:02:23.000Z</time>
      </trkpt>
      <trkpt lat="40.8924793638288974761962890625" lon="-1.32470355369150638580322265625">
        <ele>899.20001220703125</ele>
        <time>2022-05-03T08:02:24.000Z</time>
      </trkpt>
      <trkpt lat="40.89244038797914981842041015625" lon="-1.32473423145711421966552734375">
        <ele>899.20001220703125</ele>
        <time>2022-05-03T08:02:25.000Z</time>
      </trkpt>
      <trkpt lat="40.892362855374813079833984375" lon="-1.3247955031692981719970703125">
        <ele>899.20001220703125</ele>
        <time>2022-05-03T08:02:27.000Z</time>
      </trkpt>
      <trkpt lat="40.892289765179157257080078125" lon="-1.32485878653824329376220703125">
        <ele>899.20001220703125</ele>
        <time>2022-05-03T08:02:29.000Z</time>
      </trkpt>
      <trkpt lat="40.89221793226897716522216796875" lon="-1.32492030970752239227294921875">
        <ele>899.20001220703125</ele>
        <time>2022-05-03T08:02:31.000Z</time>
      </trkpt>
      <trkpt lat="40.89217971079051494598388671875" lon="-1.32495098747313022613525390625">
        <ele>899</ele>
        <time>2022-05-03T08:02:32.000Z</time>
      </trkpt>
      <trkpt lat="40.89214115403592586517333984375" lon="-1.32498049177229404449462890625">
        <ele>899</ele>
        <time>2022-05-03T08:02:33.000Z</time>
      </trkpt>
      <trkpt lat="40.892067141830921173095703125" lon="-1.32503874599933624267578125">
        <ele>898.79998779296875</ele>
        <time>2022-05-03T08:02:35.000Z</time>
      </trkpt>
      <trkpt lat="40.891992710530757904052734375" lon="-1.3250984251499176025390625">
        <ele>898.79998779296875</ele>
        <time>2022-05-03T08:02:37.000Z</time>
      </trkpt>
      <trkpt lat="40.8919139206409454345703125" lon="-1.32515944540500640869140625">
        <ele>898.5999755859375</ele>
        <time>2022-05-03T08:02:39.000Z</time>
      </trkpt>
      <trkpt lat="40.8918322809040546417236328125" lon="-1.32522046566009521484375">
        <ele>898.5999755859375</ele>
        <time>2022-05-03T08:02:41.000Z</time>
      </trkpt>
      <trkpt lat="40.89175173081457614898681640625" lon="-1.32528509013354778289794921875">
        <ele>898.4000244140625</ele>
        <time>2022-05-03T08:02:43.000Z</time>
      </trkpt>
      <trkpt lat="40.89166992343962192535400390625" lon="-1.32535122334957122802734375">
        <ele>898.4000244140625</ele>
        <time>2022-05-03T08:02:45.000Z</time>
      </trkpt>
      <trkpt lat="40.89158576913177967071533203125" lon="-1.3254160992801189422607421875">
        <ele>898.20001220703125</ele>
        <time>2022-05-03T08:02:47.000Z</time>
      </trkpt>
      <trkpt lat="40.89150195010006427764892578125" lon="-1.32547955028712749481201171875">
        <ele>898.20001220703125</ele>
        <time>2022-05-03T08:02:49.000Z</time>
      </trkpt>
      <trkpt lat="40.89142098091542720794677734375" lon="-1.3255411572754383087158203125">
        <ele>898.20001220703125</ele>
        <time>2022-05-03T08:02:51.000Z</time>
      </trkpt>
      <trkpt lat="40.89133917354047298431396484375" lon="-1.325604021549224853515625">
        <ele>898.20001220703125</ele>
        <time>2022-05-03T08:02:53.000Z</time>
      </trkpt>
      <trkpt lat="40.89125921018421649932861328125" lon="-1.3256668858230113983154296875">
        <ele>898.20001220703125</ele>
        <time>2022-05-03T08:02:55.000Z</time>
      </trkpt>
      <trkpt lat="40.8911788277328014373779296875" lon="-1.3257275708019733428955078125">
        <ele>898.4000244140625</ele>
        <time>2022-05-03T08:02:57.000Z</time>
      </trkpt>
      <trkpt lat="40.89109961874783039093017578125" lon="-1.32578750140964984893798828125">
        <ele>898.79998779296875</ele>
        <time>2022-05-03T08:02:59.000Z</time>
      </trkpt>
      <trkpt lat="40.89101864956319332122802734375" lon="-1.32584449835121631622314453125">
        <ele>899</ele>
        <time>2022-05-03T08:03:01.000Z</time>
      </trkpt>
      <trkpt lat="40.890936590731143951416015625" lon="-1.32590116001665592193603515625">
        <ele>899.20001220703125</ele>
        <time>2022-05-03T08:03:03.000Z</time>
      </trkpt>
      <trkpt lat="40.89085738174617290496826171875" lon="-1.32595480419695377349853515625">
        <ele>899.4000244140625</ele>
        <time>2022-05-03T08:03:05.000Z</time>
      </trkpt>
      <trkpt lat="40.89078060351312160491943359375" lon="-1.32600526325404644012451171875">
        <ele>899.5999755859375</ele>
        <time>2022-05-03T08:03:07.000Z</time>
      </trkpt>
      <trkpt lat="40.89070248417556285858154296875" lon="-1.32605706341564655303955078125">
        <ele>899.79998779296875</ele>
        <time>2022-05-03T08:03:09.000Z</time>
      </trkpt>
      <trkpt lat="40.89061983861029148101806640625" lon="-1.3261101208627223968505859375">
        <ele>900</ele>
        <time>2022-05-03T08:03:11.000Z</time>
      </trkpt>
      <trkpt lat="40.89057759381830692291259765625" lon="-1.326135434210300445556640625">
        <ele>900.20001220703125</ele>
        <time>2022-05-03T08:03:12.000Z</time>
      </trkpt>
      <trkpt lat="40.89053618721663951873779296875" lon="-1.32616049610078334808349609375">
        <ele>900.20001220703125</ele>
        <time>2022-05-03T08:03:13.000Z</time>
      </trkpt>
      <trkpt lat="40.89045622386038303375244140625" lon="-1.3262088596820831298828125">
        <ele>900.5999755859375</ele>
        <time>2022-05-03T08:03:15.000Z</time>
      </trkpt>
      <trkpt lat="40.89037726633250713348388671875" lon="-1.326258145272731781005859375">
        <ele>900.79998779296875</ele>
        <time>2022-05-03T08:03:17.000Z</time>
      </trkpt>
      <trkpt lat="40.89029663242399692535400390625" lon="-1.32630282081663608551025390625">
        <ele>901</ele>
        <time>2022-05-03T08:03:19.000Z</time>
      </trkpt>
      <trkpt lat="40.89021566323935985565185546875" lon="-1.326349340379238128662109375">
        <ele>901.20001220703125</ele>
        <time>2022-05-03T08:03:21.000Z</time>
      </trkpt>
      <trkpt lat="40.8901369571685791015625" lon="-1.3263947702944278717041015625">
        <ele>901.4000244140625</ele>
        <time>2022-05-03T08:03:23.000Z</time>
      </trkpt>
      <trkpt lat="40.8900511264801025390625" lon="-1.32643525488674640655517578125">
        <ele>901.5999755859375</ele>
        <time>2022-05-03T08:03:25.000Z</time>
      </trkpt>
      <trkpt lat="40.889964960515499114990234375" lon="-1.326476074755191802978515625">
        <ele>901.79998779296875</ele>
        <time>2022-05-03T08:03:27.000Z</time>
      </trkpt>
      <trkpt lat="40.88992296718060970306396484375" lon="-1.3264980353415012359619140625">
        <ele>901.79998779296875</ele>
        <time>2022-05-03T08:03:28.000Z</time>
      </trkpt>
      <trkpt lat="40.88988239876925945281982421875" lon="-1.32652041502296924591064453125">
        <ele>901.79998779296875</ele>
        <time>2022-05-03T08:03:29.000Z</time>
      </trkpt>
      <trkpt lat="40.889800004661083221435546875" lon="-1.32656115107238292694091796875">
        <ele>902</ele>
        <time>2022-05-03T08:03:31.000Z</time>
      </trkpt>
      <trkpt lat="40.88971157558262348175048828125" lon="-1.326599456369876861572265625">
        <ele>902</ele>
        <time>2022-05-03T08:03:33.000Z</time>
      </trkpt>
      <trkpt lat="40.88962172158062458038330078125" lon="-1.3266415335237979888916015625">
        <ele>901.79998779296875</ele>
        <time>2022-05-03T08:03:35.000Z</time>
      </trkpt>
      <trkpt lat="40.88953136466443538665771484375" lon="-1.326683275401592254638671875">
        <ele>901.79998779296875</ele>
        <time>2022-05-03T08:03:37.000Z</time>
      </trkpt>
      <trkpt lat="40.88948677293956279754638671875" lon="-1.32670280523598194122314453125">
        <ele>901.79998779296875</ele>
        <time>2022-05-03T08:03:38.000Z</time>
      </trkpt>
      <trkpt lat="40.889442265033721923828125" lon="-1.32672225125133991241455078125">
        <ele>901.5999755859375</ele>
        <time>2022-05-03T08:03:39.000Z</time>
      </trkpt>
      <trkpt lat="40.889351405203342437744140625" lon="-1.32675963453948497772216796875">
        <ele>901.5999755859375</ele>
        <time>2022-05-03T08:03:41.000Z</time>
      </trkpt>
      <trkpt lat="40.88925861753523349761962890625" lon="-1.32679886184632778167724609375">
        <ele>901.4000244140625</ele>
        <time>2022-05-03T08:03:43.000Z</time>
      </trkpt>
      <trkpt lat="40.8891644887626171112060546875" lon="-1.326835490763187408447265625">
        <ele>901.4000244140625</ele>
        <time>2022-05-03T08:03:45.000Z</time>
      </trkpt>
      <trkpt lat="40.889073796570301055908203125" lon="-1.32687513716518878936767578125">
        <ele>901.20001220703125</ele>
        <time>2022-05-03T08:03:47.000Z</time>
      </trkpt>
      <trkpt lat="40.8890287019312381744384765625" lon="-1.326895840466022491455078125">
        <ele>901.20001220703125</ele>
        <time>2022-05-03T08:03:48.000Z</time>
      </trkpt>
      <trkpt lat="40.8889841102063655853271484375" lon="-1.32691361010074615478515625">
        <ele>901.20001220703125</ele>
        <time>2022-05-03T08:03:49.000Z</time>
      </trkpt>
      <trkpt lat="40.888898782432079315185546875" lon="-1.32695250213146209716796875">
        <ele>901</ele>
        <time>2022-05-03T08:03:51.000Z</time>
      </trkpt>
      <trkpt lat="40.88882024399936199188232421875" lon="-1.32698846049606800079345703125">
        <ele>901</ele>
        <time>2022-05-03T08:03:53.000Z</time>
      </trkpt>
      <trkpt lat="40.88873994536697864532470703125" lon="-1.32702668197453022003173828125">
        <ele>901.20001220703125</ele>
        <time>2022-05-03T08:03:55.000Z</time>
      </trkpt>
      <trkpt lat="40.8886531926691532135009765625" lon="-1.3270671665668487548828125">
        <ele>901.20001220703125</ele>
        <time>2022-05-03T08:03:57.000Z</time>
      </trkpt>
      <trkpt lat="40.88856509886682033538818359375" lon="-1.32710513658821582794189453125">
        <ele>901.4000244140625</ele>
        <time>2022-05-03T08:03:59.000Z</time>
      </trkpt>
      <trkpt lat="40.8884805254638195037841796875" lon="-1.32714386098086833953857421875">
        <ele>901.5999755859375</ele>
        <time>2022-05-03T08:04:01.000Z</time>
      </trkpt>
      <trkpt lat="40.88839544914662837982177734375" lon="-1.32718241773545742034912109375">
        <ele>901.5999755859375</ele>
        <time>2022-05-03T08:04:03.000Z</time>
      </trkpt>
      <trkpt lat="40.88835270144045352935791015625" lon="-1.32720136083662509918212890625">
        <ele>901.5999755859375</ele>
        <time>2022-05-03T08:04:04.000Z</time>
      </trkpt>
      <trkpt lat="40.88830995373427867889404296875" lon="-1.32722164504230022430419921875">
        <ele>901.79998779296875</ele>
        <time>2022-05-03T08:04:05.000Z</time>
      </trkpt>
      <trkpt lat="40.88822311721742153167724609375" lon="-1.3272597827017307281494140625">
        <ele>901.79998779296875</ele>
        <time>2022-05-03T08:04:07.000Z</time>
      </trkpt>
      <trkpt lat="40.8881351910531520843505859375" lon="-1.3272966630756855010986328125">
        <ele>902</ele>
        <time>2022-05-03T08:04:09.000Z</time>
      </trkpt>
      <trkpt lat="40.88805221021175384521484375" lon="-1.32733245380222797393798828125">
        <ele>902</ele>
        <time>2022-05-03T08:04:11.000Z</time>
      </trkpt>
      <trkpt lat="40.88796780444681644439697265625" lon="-1.3273731060326099395751953125">
        <ele>901.79998779296875</ele>
        <time>2022-05-03T08:04:13.000Z</time>
      </trkpt>
      <trkpt lat="40.88788314722478389739990234375" lon="-1.32741057313978672027587890625">
        <ele>901.5999755859375</ele>
        <time>2022-05-03T08:04:15.000Z</time>
      </trkpt>
      <trkpt lat="40.8877982385456562042236328125" lon="-1.32745097391307353973388671875">
        <ele>901.5999755859375</ele>
        <time>2022-05-03T08:04:17.000Z</time>
      </trkpt>
      <trkpt lat="40.8877122402191162109375" lon="-1.3274914585053920745849609375">
        <ele>901.4000244140625</ele>
        <time>2022-05-03T08:04:19.000Z</time>
      </trkpt>
      <trkpt lat="40.88762599043548107147216796875" lon="-1.327530853450298309326171875">
        <ele>901.20001220703125</ele>
        <time>2022-05-03T08:04:21.000Z</time>
      </trkpt>
      <trkpt lat="40.8875843323767185211181640625" lon="-1.32755004800856113433837890625">
        <ele>901.20001220703125</ele>
        <time>2022-05-03T08:04:22.000Z</time>
      </trkpt>
      <trkpt lat="40.8875427581369876861572265625" lon="-1.32756999693810939788818359375">
        <ele>901</ele>
        <time>2022-05-03T08:04:23.000Z</time>
      </trkpt>
      <trkpt lat="40.88746036402881145477294921875" lon="-1.32761023007333278656005859375">
        <ele>901</ele>
        <time>2022-05-03T08:04:25.000Z</time>
      </trkpt>
      <trkpt lat="40.887376628816127777099609375" lon="-1.327648200094699859619140625">
        <ele>900.79998779296875</ele>
        <time>2022-05-03T08:04:27.000Z</time>
      </trkpt>
      <trkpt lat="40.88729306124150753021240234375" lon="-1.3276867568492889404296875">
        <ele>900.5999755859375</ele>
        <time>2022-05-03T08:04:29.000Z</time>
      </trkpt>
      <trkpt lat="40.88720731437206268310546875" lon="-1.3277256488800048828125">
        <ele>900.5999755859375</ele>
        <time>2022-05-03T08:04:31.000Z</time>
      </trkpt>
      <trkpt lat="40.88712215423583984375" lon="-1.32776244543492794036865234375">
        <ele>900.79998779296875</ele>
        <time>2022-05-03T08:04:33.000Z</time>
      </trkpt>
      <trkpt lat="40.8870794065296649932861328125" lon="-1.32778105325996875762939453125">
        <ele>901</ele>
        <time>2022-05-03T08:04:34.000Z</time>
      </trkpt>
      <trkpt lat="40.887035988271236419677734375" lon="-1.327800415456295013427734375">
        <ele>901</ele>
        <time>2022-05-03T08:04:35.000Z</time>
      </trkpt>
      <trkpt lat="40.88695074431598186492919921875" lon="-1.32783805020153522491455078125">
        <ele>901.4000244140625</ele>
        <time>2022-05-03T08:04:37.000Z</time>
      </trkpt>
      <trkpt lat="40.8868660032749176025390625" lon="-1.32787291891872882843017578125">
        <ele>901.5999755859375</ele>
        <time>2022-05-03T08:04:39.000Z</time>
      </trkpt>
      <trkpt lat="40.8867826871573925018310546875" lon="-1.32790711708366870880126953125">
        <ele>901.79998779296875</ele>
        <time>2022-05-03T08:04:41.000Z</time>
      </trkpt>
      <trkpt lat="40.8866981975734233856201171875" lon="-1.32794299162924289703369140625">
        <ele>902</ele>
        <time>2022-05-03T08:04:43.000Z</time>
      </trkpt>
      <trkpt lat="40.88661395944654941558837890625" lon="-1.32798255421221256256103515625">
        <ele>902.20001220703125</ele>
        <time>2022-05-03T08:04:45.000Z</time>
      </trkpt>
      <trkpt lat="40.88652812875807285308837890625" lon="-1.32802027277648448944091796875">
        <ele>902.5999755859375</ele>
        <time>2022-05-03T08:04:47.000Z</time>
      </trkpt>
      <trkpt lat="40.8864427171647548675537109375" lon="-1.3280569016933441162109375">
        <ele>902.5999755859375</ele>
        <time>2022-05-03T08:04:49.000Z</time>
      </trkpt>
      <trkpt lat="40.8863599039614200592041015625" lon="-1.32809487171471118927001953125">
        <ele>902.79998779296875</ele>
        <time>2022-05-03T08:04:51.000Z</time>
      </trkpt>
      <trkpt lat="40.8862744085490703582763671875" lon="-1.3281388767063617706298828125">
        <ele>902.79998779296875</ele>
        <time>2022-05-03T08:04:53.000Z</time>
      </trkpt>
      <trkpt lat="40.8862281404435634613037109375" lon="-1.32816108874976634979248046875">
        <ele>902.79998779296875</ele>
        <time>2022-05-03T08:04:54.000Z</time>
      </trkpt>
      <trkpt lat="40.88618405163288116455078125" lon="-1.32818053476512432098388671875">
        <ele>902.79998779296875</ele>
        <time>2022-05-03T08:04:55.000Z</time>
      </trkpt>
      <trkpt lat="40.886144824326038360595703125" lon="-1.32820216007530689239501953125">
        <ele>902.79998779296875</ele>
        <time>2022-05-03T08:04:56.000Z</time>
      </trkpt>
      <trkpt lat="40.88610484264791011810302734375" lon="-1.32822864688932895660400390625">
        <ele>902.79998779296875</ele>
        <time>2022-05-03T08:04:57.000Z</time>
      </trkpt>
      <trkpt lat="40.8860135637223720550537109375" lon="-1.32828212343156337738037109375">
        <ele>902.79998779296875</ele>
        <time>2022-05-03T08:04:59.000Z</time>
      </trkpt>
      <trkpt lat="40.88592228479683399200439453125" lon="-1.32832688279449939727783203125">
        <ele>902.79998779296875</ele>
        <time>2022-05-03T08:05:01.000Z</time>
      </trkpt>
      <trkpt lat="40.8858288265764713287353515625" lon="-1.32836393080651760101318359375">
        <ele>902.79998779296875</ele>
        <time>2022-05-03T08:05:03.000Z</time>
      </trkpt>
      <trkpt lat="40.88573276996612548828125" lon="-1.32840366102755069732666015625">
        <ele>902.79998779296875</ele>
        <time>2022-05-03T08:05:05.000Z</time>
      </trkpt>
      <trkpt lat="40.8856849931180477142333984375" lon="-1.3284243643283843994140625">
        <ele>902.79998779296875</ele>
        <time>2022-05-03T08:05:06.000Z</time>
      </trkpt>
      <trkpt lat="40.885638557374477386474609375" lon="-1.3284449838101863861083984375">
        <ele>902.79998779296875</ele>
        <time>2022-05-03T08:05:07.000Z</time>
      </trkpt>
      <trkpt lat="40.88554761372506618499755859375" lon="-1.3284835405647754669189453125">
        <ele>902.79998779296875</ele>
        <time>2022-05-03T08:05:09.000Z</time>
      </trkpt>
      <trkpt lat="40.88545859791338443756103515625" lon="-1.328523270785808563232421875">
        <ele>902.4000244140625</ele>
        <time>2022-05-03T08:05:11.000Z</time>
      </trkpt>
      <trkpt lat="40.88536891154944896697998046875" lon="-1.32856316864490509033203125">
        <ele>902</ele>
        <time>2022-05-03T08:05:13.000Z</time>
      </trkpt>
      <trkpt lat="40.88527654297649860382080078125" lon="-1.32860315032303333282470703125">
        <ele>901.79998779296875</ele>
        <time>2022-05-03T08:05:15.000Z</time>
      </trkpt>
      <trkpt lat="40.88523094542324542999267578125" lon="-1.3286243565380573272705078125">
        <ele>901.5999755859375</ele>
        <time>2022-05-03T08:05:16.000Z</time>
      </trkpt>
      <trkpt lat="40.885185264050960540771484375" lon="-1.3286448083817958831787109375">
        <ele>901.4000244140625</ele>
        <time>2022-05-03T08:05:17.000Z</time>
      </trkpt>
      <trkpt lat="40.88509264402091503143310546875" lon="-1.3286863826215267181396484375">
        <ele>901</ele>
        <time>2022-05-03T08:05:19.000Z</time>
      </trkpt>
      <trkpt lat="40.8849980123341083526611328125" lon="-1.3287303037941455841064453125">
        <ele>900.79998779296875</ele>
        <time>2022-05-03T08:05:21.000Z</time>
      </trkpt>
      <trkpt lat="40.884902961552143096923828125" lon="-1.32877430878579616546630859375">
        <ele>900.4000244140625</ele>
        <time>2022-05-03T08:05:23.000Z</time>
      </trkpt>
      <trkpt lat="40.8848042227327823638916015625" lon="-1.32881655357778072357177734375">
        <ele>900.20001220703125</ele>
        <time>2022-05-03T08:05:25.000Z</time>
      </trkpt>
      <trkpt lat="40.8847093395888805389404296875" lon="-1.32885930128395557403564453125">
        <ele>900.20001220703125</ele>
        <time>2022-05-03T08:05:27.000Z</time>
      </trkpt>
      <trkpt lat="40.88461923412978649139404296875" lon="-1.32890045642852783203125">
        <ele>900</ele>
        <time>2022-05-03T08:05:29.000Z</time>
      </trkpt>
      <trkpt lat="40.884531475603580474853515625" lon="-1.3289378397166728973388671875">
        <ele>900</ele>
        <time>2022-05-03T08:05:31.000Z</time>
      </trkpt>
      <trkpt lat="40.88444204069674015045166015625" lon="-1.3289780728518962860107421875">
        <ele>900</ele>
        <time>2022-05-03T08:05:33.000Z</time>
      </trkpt>
      <trkpt lat="40.88435034267604351043701171875" lon="-1.32901788689196109771728515625">
        <ele>900</ele>
        <time>2022-05-03T08:05:35.000Z</time>
      </trkpt>
      <trkpt lat="40.88426769711077213287353515625" lon="-1.329056359827518463134765625">
        <ele>900.20001220703125</ele>
        <time>2022-05-03T08:05:37.000Z</time>
      </trkpt>
      <trkpt lat="40.88418739847838878631591796875" lon="-1.3290900550782680511474609375">
        <ele>900.20001220703125</ele>
        <time>2022-05-03T08:05:39.000Z</time>
      </trkpt>
      <trkpt lat="40.88414347730576992034912109375" lon="-1.3291081599891185760498046875">
        <ele>900.20001220703125</ele>
        <time>2022-05-03T08:05:40.000Z</time>
      </trkpt>
      <trkpt lat="40.88409771211445331573486328125" lon="-1.3291286118328571319580078125">
        <ele>900.20001220703125</ele>
        <time>2022-05-03T08:05:41.000Z</time>
      </trkpt>
      <trkpt lat="40.8840092830359935760498046875" lon="-1.32916674949228763580322265625">
        <ele>900.20001220703125</ele>
        <time>2022-05-03T08:05:43.000Z</time>
      </trkpt>
      <trkpt lat="40.88393392972648143768310546875" lon="-1.32920086383819580078125">
        <ele>900.20001220703125</ele>
        <time>2022-05-03T08:05:45.000Z</time>
      </trkpt>
      <trkpt lat="40.8838565647602081298828125" lon="-1.32923514582216739654541015625">
        <ele>900.20001220703125</ele>
        <time>2022-05-03T08:05:47.000Z</time>
      </trkpt>
      <trkpt lat="40.88377852924168109893798828125" lon="-1.32927085272967815399169921875">
        <ele>900.20001220703125</ele>
        <time>2022-05-03T08:05:49.000Z</time>
      </trkpt>
      <trkpt lat="40.883698649704456329345703125" lon="-1.329305805265903472900390625">
        <ele>900.20001220703125</ele>
        <time>2022-05-03T08:05:51.000Z</time>
      </trkpt>
      <trkpt lat="40.8836143277585506439208984375" lon="-1.3293441943824291229248046875">
        <ele>900.20001220703125</ele>
        <time>2022-05-03T08:05:53.000Z</time>
      </trkpt>
      <trkpt lat="40.8835295028984546661376953125" lon="-1.3293854333460330963134765625">
        <ele>900</ele>
        <time>2022-05-03T08:05:55.000Z</time>
      </trkpt>
      <trkpt lat="40.8834440074861049652099609375" lon="-1.32942558266222476959228515625">
        <ele>900</ele>
        <time>2022-05-03T08:05:57.000Z</time>
      </trkpt>
      <trkpt lat="40.8833585120737552642822265625" lon="-1.32946212776005268096923828125">
        <ele>900</ele>
        <time>2022-05-03T08:05:59.000Z</time>
      </trkpt>
      <trkpt lat="40.88327259756624698638916015625" lon="-1.32950219325721263885498046875">
        <ele>900</ele>
        <time>2022-05-03T08:06:01.000Z</time>
      </trkpt>
      <trkpt lat="40.88318743743002414703369140625" lon="-1.32954125292599201202392578125">
        <ele>900</ele>
        <time>2022-05-03T08:06:03.000Z</time>
      </trkpt>
      <trkpt lat="40.88310412131249904632568359375" lon="-1.32957796566188335418701171875">
        <ele>900</ele>
        <time>2022-05-03T08:06:05.000Z</time>
      </trkpt>
      <trkpt lat="40.88302063755691051483154296875" lon="-1.32961417548358440399169921875">
        <ele>900</ele>
        <time>2022-05-03T08:06:07.000Z</time>
      </trkpt>
      <trkpt lat="40.882934890687465667724609375" lon="-1.32965122349560260772705078125">
        <ele>899.79998779296875</ele>
        <time>2022-05-03T08:06:09.000Z</time>
      </trkpt>
      <trkpt lat="40.882847048342227935791015625" lon="-1.3296898640692234039306640625">
        <ele>899.79998779296875</ele>
        <time>2022-05-03T08:06:11.000Z</time>
      </trkpt>
      <trkpt lat="40.8827603794634342193603515625" lon="-1.329728923738002777099609375">
        <ele>899.5999755859375</ele>
        <time>2022-05-03T08:06:13.000Z</time>
      </trkpt>
      <trkpt lat="40.88267647661268711090087890625" lon="-1.32976672612130641937255859375">
        <ele>899.5999755859375</ele>
        <time>2022-05-03T08:06:15.000Z</time>
      </trkpt>
      <trkpt lat="40.882602632045745849609375" lon="-1.32979908026754856109619140625">
        <ele>899.4000244140625</ele>
        <time>2022-05-03T08:06:17.000Z</time>
      </trkpt>
      <trkpt lat="40.88253733702003955841064453125" lon="-1.3298271596431732177734375">
        <ele>899.4000244140625</ele>
        <time>2022-05-03T08:06:19.000Z</time>
      </trkpt>
      <trkpt lat="40.88247782550752162933349609375" lon="-1.32985331118106842041015625">
        <ele>899.4000244140625</ele>
        <time>2022-05-03T08:06:21.000Z</time>
      </trkpt>
      <trkpt lat="40.88242669589817523956298828125" lon="-1.32987803779542446136474609375">
        <ele>899.5999755859375</ele>
        <time>2022-05-03T08:06:23.000Z</time>
      </trkpt>
      <trkpt lat="40.88240339420735836029052734375" lon="-1.3298876769840717315673828125">
        <ele>899.5999755859375</ele>
        <time>2022-05-03T08:06:24.000Z</time>
      </trkpt>
      <trkpt lat="40.88238294236361980438232421875" lon="-1.3298967294394969940185546875">
        <ele>899.5999755859375</ele>
        <time>2022-05-03T08:06:25.000Z</time>
      </trkpt>
      <trkpt lat="40.882347486913204193115234375" lon="-1.3299134932458400726318359375">
        <ele>899.5999755859375</ele>
        <time>2022-05-03T08:06:27.000Z</time>
      </trkpt>
      <trkpt lat="40.88231672532856464385986328125" lon="-1.32993637584149837493896484375">
        <ele>899.5999755859375</ele>
        <time>2022-05-03T08:06:29.000Z</time>
      </trkpt>
      <trkpt lat="40.88228286243975162506103515625" lon="-1.329960934817790985107421875">
        <ele>899.5999755859375</ele>
        <time>2022-05-03T08:06:31.000Z</time>
      </trkpt>
      <trkpt lat="40.8822504244744777679443359375" lon="-1.32998381741344928741455078125">
        <ele>899.5999755859375</ele>
        <time>2022-05-03T08:06:33.000Z</time>
      </trkpt>
      <trkpt lat="40.8822088502347469329833984375" lon="-1.3300046883523464202880859375">
        <ele>899.5999755859375</ele>
        <time>2022-05-03T08:06:35.000Z</time>
      </trkpt>
      <trkpt lat="40.88219636119902133941650390625" lon="-1.33002321235835552215576171875">
        <ele>899.79998779296875</ele>
        <time>2022-05-03T08:06:36.000Z</time>
      </trkpt>
      <trkpt lat="40.88219518773257732391357421875" lon="-1.3300486095249652862548828125">
        <ele>899.79998779296875</ele>
        <time>2022-05-03T08:06:37.000Z</time>
      </trkpt>
      <trkpt lat="40.88221278972923755645751953125" lon="-1.3301089592278003692626953125">
        <ele>900</ele>
        <time>2022-05-03T08:06:39.000Z</time>
      </trkpt>
      <trkpt lat="40.88222444057464599609375" lon="-1.33014273829758167266845703125">
        <ele>900.20001220703125</ele>
        <time>2022-05-03T08:06:40.000Z</time>
      </trkpt>
      <trkpt lat="40.8822366781532764434814453125" lon="-1.3301780261099338531494140625">
        <ele>900.4000244140625</ele>
        <time>2022-05-03T08:06:41.000Z</time>
      </trkpt>
      <trkpt lat="40.8822494186460971832275390625" lon="-1.33025723509490489959716796875">
        <ele>900.5999755859375</ele>
        <time>2022-05-03T08:06:43.000Z</time>
      </trkpt>
      <trkpt lat="40.882247574627399444580078125" lon="-1.33034122176468372344970703125">
        <ele>901</ele>
        <time>2022-05-03T08:06:45.000Z</time>
      </trkpt>
      <trkpt lat="40.8822561241686344146728515625" lon="-1.330427639186382293701171875">
        <ele>901.20001220703125</ele>
        <time>2022-05-03T08:06:47.000Z</time>
      </trkpt>
      <trkpt lat="40.8822474069893360137939453125" lon="-1.33050600998103618621826171875">
        <ele>901.5999755859375</ele>
        <time>2022-05-03T08:06:49.000Z</time>
      </trkpt>
      <trkpt lat="40.88223290629684925079345703125" lon="-1.33053082041442394256591796875">
        <ele>901.5999755859375</ele>
        <time>2022-05-03T08:06:50.000Z</time>
      </trkpt>
      <trkpt lat="40.88221211917698383331298828125" lon="-1.3305374421179294586181640625">
        <ele>901.5999755859375</ele>
        <time>2022-05-03T08:06:51.000Z</time>
      </trkpt>
      <trkpt lat="40.88216342031955718994140625" lon="-1.33051087148487567901611328125">
        <ele>901.4000244140625</ele>
        <time>2022-05-03T08:06:53.000Z</time>
      </trkpt>
      <trkpt lat="40.88213793933391571044921875" lon="-1.33048958145081996917724609375">
        <ele>901.4000244140625</ele>
        <time>2022-05-03T08:06:54.000Z</time>
      </trkpt>
      <trkpt lat="40.8821116201579570770263671875" lon="-1.33046711795032024383544921875">
        <ele>901.20001220703125</ele>
        <time>2022-05-03T08:06:55.000Z</time>
      </trkpt>
      <trkpt lat="40.88205688633024692535400390625" lon="-1.3304150663316249847412109375">
        <ele>901</ele>
        <time>2022-05-03T08:06:57.000Z</time>
      </trkpt>
      <trkpt lat="40.88200273923575878143310546875" lon="-1.3303476758301258087158203125">
        <ele>900.5999755859375</ele>
        <time>2022-05-03T08:06:59.000Z</time>
      </trkpt>
      <trkpt lat="40.8819781802594661712646484375" lon="-1.33030819706618785858154296875">
        <ele>900.5999755859375</ele>
        <time>2022-05-03T08:07:00.000Z</time>
      </trkpt>
      <trkpt lat="40.88195697404444217681884765625" lon="-1.33026595227420330047607421875">
        <ele>900.4000244140625</ele>
        <time>2022-05-03T08:07:01.000Z</time>
      </trkpt>
      <trkpt lat="40.8819181658327579498291015625" lon="-1.33017827756702899932861328125">
        <ele>900</ele>
        <time>2022-05-03T08:07:03.000Z</time>
      </trkpt>
      <trkpt lat="40.88186242617666721343994140625" lon="-1.33012144826352596282958984375">
        <ele>899.79998779296875</ele>
        <time>2022-05-03T08:07:05.000Z</time>
      </trkpt>
      <trkpt lat="40.88178263045847415924072265625" lon="-1.33012614212930202484130859375">
        <ele>900</ele>
        <time>2022-05-03T08:07:07.000Z</time>
      </trkpt>
      <trkpt lat="40.88173694908618927001953125" lon="-1.330145336687564849853515625">
        <ele>900.20001220703125</ele>
        <time>2022-05-03T08:07:08.000Z</time>
      </trkpt>
      <trkpt lat="40.8816918544471263885498046875" lon="-1.33016603998839855194091796875">
        <ele>900.20001220703125</ele>
        <time>2022-05-03T08:07:09.000Z</time>
      </trkpt>
      <trkpt lat="40.88164768181741237640380859375" lon="-1.33018867112696170806884765625">
        <ele>900.4000244140625</ele>
        <time>2022-05-03T08:07:10.000Z</time>
      </trkpt>
      <trkpt lat="40.88160292245447635650634765625" lon="-1.3302112184464931488037109375">
        <ele>900.5999755859375</ele>
        <time>2022-05-03T08:07:11.000Z</time>
      </trkpt>
      <trkpt lat="40.88151298463344573974609375" lon="-1.33025052957236766815185546875">
        <ele>900.79998779296875</ele>
        <time>2022-05-03T08:07:13.000Z</time>
      </trkpt>
      <trkpt lat="40.88142044842243194580078125" lon="-1.33028908632695674896240234375">
        <ele>901</ele>
        <time>2022-05-03T08:07:15.000Z</time>
      </trkpt>
      <trkpt lat="40.88132497854530811309814453125" lon="-1.33032831363379955291748046875">
        <ele>901</ele>
        <time>2022-05-03T08:07:17.000Z</time>
      </trkpt>
      <trkpt lat="40.8812345378100872039794921875" lon="-1.33036787621676921844482421875">
        <ele>900.79998779296875</ele>
        <time>2022-05-03T08:07:19.000Z</time>
      </trkpt>
      <trkpt lat="40.8811436779797077178955078125" lon="-1.33041095919907093048095703125">
        <ele>900.5999755859375</ele>
        <time>2022-05-03T08:07:21.000Z</time>
      </trkpt>
      <trkpt lat="40.8810444362461566925048828125" lon="-1.3304603286087512969970703125">
        <ele>900.5999755859375</ele>
        <time>2022-05-03T08:07:23.000Z</time>
      </trkpt>
      <trkpt lat="40.88099204935133457183837890625" lon="-1.33048388175666332244873046875">
        <ele>900.5999755859375</ele>
        <time>2022-05-03T08:07:24.000Z</time>
      </trkpt>
      <trkpt lat="40.880938656628131866455078125" lon="-1.3305069319903850555419921875">
        <ele>900.4000244140625</ele>
        <time>2022-05-03T08:07:25.000Z</time>
      </trkpt>
      <trkpt lat="40.8808328770101070404052734375" lon="-1.33055244572460651397705078125">
        <ele>900.4000244140625</ele>
        <time>2022-05-03T08:07:27.000Z</time>
      </trkpt>
      <trkpt lat="40.88072718121111392974853515625" lon="-1.33059854619204998016357421875">
        <ele>900.20001220703125</ele>
        <time>2022-05-03T08:07:29.000Z</time>
      </trkpt>
      <trkpt lat="40.8806223236024379730224609375" lon="-1.3306437246501445770263671875">
        <ele>900.20001220703125</ele>
        <time>2022-05-03T08:07:31.000Z</time>
      </trkpt>
      <trkpt lat="40.880521237850189208984375" lon="-1.330687813460826873779296875">
        <ele>900.20001220703125</ele>
        <time>2022-05-03T08:07:33.000Z</time>
      </trkpt>
      <trkpt lat="40.88042677380144596099853515625" lon="-1.33072947151958942413330078125">
        <ele>900.5999755859375</ele>
        <time>2022-05-03T08:07:35.000Z</time>
      </trkpt>
      <trkpt lat="40.88033960200846195220947265625" lon="-1.33077221922576427459716796875">
        <ele>901</ele>
        <time>2022-05-03T08:07:37.000Z</time>
      </trkpt>
      <trkpt lat="40.88025108911097049713134765625" lon="-1.33081211708486080169677734375">
        <ele>901.5999755859375</ele>
        <time>2022-05-03T08:07:39.000Z</time>
      </trkpt>
      <trkpt lat="40.880167186260223388671875" lon="-1.330847404897212982177734375">
        <ele>902</ele>
        <time>2022-05-03T08:07:41.000Z</time>
      </trkpt>
      <trkpt lat="40.8801261149346828460693359375" lon="-1.3308656774461269378662109375">
        <ele>902.20001220703125</ele>
        <time>2022-05-03T08:07:42.000Z</time>
      </trkpt>
      <trkpt lat="40.8800852112472057342529296875" lon="-1.33088369853794574737548828125">
        <ele>902.20001220703125</ele>
        <time>2022-05-03T08:07:43.000Z</time>
      </trkpt>
      <trkpt lat="40.880001895129680633544921875" lon="-1.33092259056866168975830078125">
        <ele>902.5999755859375</ele>
        <time>2022-05-03T08:07:45.000Z</time>
      </trkpt>
      <trkpt lat="40.87991514243185520172119140625" lon="-1.3309590518474578857421875">
        <ele>903.20001220703125</ele>
        <time>2022-05-03T08:07:47.000Z</time>
      </trkpt>
      <trkpt lat="40.8798270486295223236083984375" lon="-1.33099718950688838958740234375">
        <ele>903.5999755859375</ele>
        <time>2022-05-03T08:07:49.000Z</time>
      </trkpt>
      <trkpt lat="40.8797371946275234222412109375" lon="-1.33103725500404834747314453125">
        <ele>904</ele>
        <time>2022-05-03T08:07:51.000Z</time>
      </trkpt>
      <trkpt lat="40.87964708916842937469482421875" lon="-1.331078745424747467041015625">
        <ele>904</ele>
        <time>2022-05-03T08:07:53.000Z</time>
      </trkpt>
      <trkpt lat="40.8795596659183502197265625" lon="-1.33112057112157344818115234375">
        <ele>904.20001220703125</ele>
        <time>2022-05-03T08:07:55.000Z</time>
      </trkpt>
      <trkpt lat="40.87947291322052478790283203125" lon="-1.3311575353145599365234375">
        <ele>904.4000244140625</ele>
        <time>2022-05-03T08:07:57.000Z</time>
      </trkpt>
      <trkpt lat="40.87938808836042881011962890625" lon="-1.3311977684497833251953125">
        <ele>904.4000244140625</ele>
        <time>2022-05-03T08:07:59.000Z</time>
      </trkpt>
      <trkpt lat="40.87930410169064998626708984375" lon="-1.33123590610921382904052734375">
        <ele>904.5999755859375</ele>
        <time>2022-05-03T08:08:01.000Z</time>
      </trkpt>
      <trkpt lat="40.87922237813472747802734375" lon="-1.33127463050186634063720703125">
        <ele>904.5999755859375</ele>
        <time>2022-05-03T08:08:03.000Z</time>
      </trkpt>
      <trkpt lat="40.87913948111236095428466796875" lon="-1.33131369017064571380615234375">
        <ele>904.79998779296875</ele>
        <time>2022-05-03T08:08:05.000Z</time>
      </trkpt>
      <trkpt lat="40.87905608117580413818359375" lon="-1.3313538394868373870849609375">
        <ele>904.79998779296875</ele>
        <time>2022-05-03T08:08:07.000Z</time>
      </trkpt>
      <trkpt lat="40.878969915211200714111328125" lon="-1.33138887584209442138671875">
        <ele>904.79998779296875</ele>
        <time>2022-05-03T08:08:09.000Z</time>
      </trkpt>
      <trkpt lat="40.87892691604793071746826171875" lon="-1.33140857331454753875732421875">
        <ele>904.79998779296875</ele>
        <time>2022-05-03T08:08:10.000Z</time>
      </trkpt>
      <trkpt lat="40.878884755074977874755859375" lon="-1.33142902515828609466552734375">
        <ele>904.79998779296875</ele>
        <time>2022-05-03T08:08:11.000Z</time>
      </trkpt>
      <trkpt lat="40.8788006007671356201171875" lon="-1.3314659893512725830078125">
        <ele>904.79998779296875</ele>
        <time>2022-05-03T08:08:13.000Z</time>
      </trkpt>
      <trkpt lat="40.87871636264026165008544921875" lon="-1.33150312118232250213623046875">
        <ele>904.79998779296875</ele>
        <time>2022-05-03T08:08:15.000Z</time>
      </trkpt>
      <trkpt lat="40.87862952612340450286865234375" lon="-1.33154402486979961395263671875">
        <ele>904.79998779296875</ele>
        <time>2022-05-03T08:08:17.000Z</time>
      </trkpt>
      <trkpt lat="40.87853883393108844757080078125" lon="-1.331581659615039825439453125">
        <ele>905</ele>
        <time>2022-05-03T08:08:19.000Z</time>
      </trkpt>
      <trkpt lat="40.878493823111057281494140625" lon="-1.33160001598298549652099609375">
        <ele>905</ele>
        <time>2022-05-03T08:08:20.000Z</time>
      </trkpt>
      <trkpt lat="40.87844998575747013092041015625" lon="-1.33161879144608974456787109375">
        <ele>905</ele>
        <time>2022-05-03T08:08:21.000Z</time>
      </trkpt>
      <trkpt lat="40.87835996411740779876708984375" lon="-1.331656090915203094482421875">
        <ele>905</ele>
        <time>2022-05-03T08:08:23.000Z</time>
      </trkpt>
      <trkpt lat="40.87827078066766262054443359375" lon="-1.33169406093657016754150390625">
        <ele>905.20001220703125</ele>
        <time>2022-05-03T08:08:25.000Z</time>
      </trkpt>
      <trkpt lat="40.87817941792309284210205078125" lon="-1.331735216081142425537109375">
        <ele>905.20001220703125</ele>
        <time>2022-05-03T08:08:27.000Z</time>
      </trkpt>
      <trkpt lat="40.8780852891504764556884765625" lon="-1.33177435956895351409912109375">
        <ele>905.20001220703125</ele>
        <time>2022-05-03T08:08:29.000Z</time>
      </trkpt>
      <trkpt lat="40.8780388534069061279296875" lon="-1.33179531432688236236572265625">
        <ele>905.20001220703125</ele>
        <time>2022-05-03T08:08:30.000Z</time>
      </trkpt>
      <trkpt lat="40.8779930882155895233154296875" lon="-1.33181693963706493377685546875">
        <ele>905.20001220703125</ele>
        <time>2022-05-03T08:08:31.000Z</time>
      </trkpt>
      <trkpt lat="40.8779012225568294525146484375" lon="-1.3318560831248760223388671875">
        <ele>905</ele>
        <time>2022-05-03T08:08:33.000Z</time>
      </trkpt>
      <trkpt lat="40.87781078182160854339599609375" lon="-1.33189422078430652618408203125">
        <ele>904.79998779296875</ele>
        <time>2022-05-03T08:08:35.000Z</time>
      </trkpt>
      <trkpt lat="40.87772570550441741943359375" lon="-1.3319325260818004608154296875">
        <ele>904.5999755859375</ele>
        <time>2022-05-03T08:08:37.000Z</time>
      </trkpt>
      <trkpt lat="40.87764264084398746490478515625" lon="-1.33196957409381866455078125">
        <ele>904.5999755859375</ele>
        <time>2022-05-03T08:08:39.000Z</time>
      </trkpt>
      <trkpt lat="40.87760056369006633758544921875" lon="-1.3319871760904788970947265625">
        <ele>904.4000244140625</ele>
        <time>2022-05-03T08:08:40.000Z</time>
      </trkpt>
      <trkpt lat="40.877559073269367218017578125" lon="-1.33200502954423427581787109375">
        <ele>904.4000244140625</ele>
        <time>2022-05-03T08:08:41.000Z</time>
      </trkpt>
      <trkpt lat="40.87747449986636638641357421875" lon="-1.33204040117561817169189453125">
        <ele>904.4000244140625</ele>
        <time>2022-05-03T08:08:43.000Z</time>
      </trkpt>
      <trkpt lat="40.8773910999298095703125" lon="-1.33207778446376323699951171875">
        <ele>904.5999755859375</ele>
        <time>2022-05-03T08:08:45.000Z</time>
      </trkpt>
      <trkpt lat="40.87731105275452136993408203125" lon="-1.33211533538997173309326171875">
        <ele>904.5999755859375</ele>
        <time>2022-05-03T08:08:47.000Z</time>
      </trkpt>
      <trkpt lat="40.8772350288927555084228515625" lon="-1.3321511261165142059326171875">
        <ele>904.79998779296875</ele>
        <time>2022-05-03T08:08:49.000Z</time>
      </trkpt>
      <trkpt lat="40.87719404138624668121337890625" lon="-1.33216998539865016937255859375">
        <ele>904.79998779296875</ele>
        <time>2022-05-03T08:08:50.000Z</time>
      </trkpt>
      <trkpt lat="40.87714693509042263031005859375" lon="-1.3321913592517375946044921875">
        <ele>904.5999755859375</ele>
        <time>2022-05-03T08:08:51.000Z</time>
      </trkpt>
      <trkpt lat="40.87704299949109554290771484375" lon="-1.33223569951951503753662109375">
        <ele>904.4000244140625</ele>
        <time>2022-05-03T08:08:53.000Z</time>
      </trkpt>
      <trkpt lat="40.876949541270732879638671875" lon="-1.33227827958762645721435546875">
        <ele>904.20001220703125</ele>
        <time>2022-05-03T08:08:55.000Z</time>
      </trkpt>
      <trkpt lat="40.87687351740896701812744140625" lon="-1.33231918327510356903076171875">
        <ele>904.20001220703125</ele>
        <time>2022-05-03T08:08:57.000Z</time>
      </trkpt>
      <trkpt lat="40.876800678670406341552734375" lon="-1.33235774002969264984130859375">
        <ele>904.20001220703125</ele>
        <time>2022-05-03T08:08:59.000Z</time>
      </trkpt>
      <trkpt lat="40.876721553504467010498046875" lon="-1.3323913514614105224609375">
        <ele>904.20001220703125</ele>
        <time>2022-05-03T08:09:01.000Z</time>
      </trkpt>
      <trkpt lat="40.8766392432153224945068359375" lon="-1.33242747746407985687255859375">
        <ele>904.4000244140625</ele>
        <time>2022-05-03T08:09:03.000Z</time>
      </trkpt>
      <trkpt lat="40.87655617855489253997802734375" lon="-1.33246335200965404510498046875">
        <ele>904.4000244140625</ele>
        <time>2022-05-03T08:09:05.000Z</time>
      </trkpt>
      <trkpt lat="40.876472778618335723876953125" lon="-1.33249989710748195648193359375">
        <ele>904.4000244140625</ele>
        <time>2022-05-03T08:09:07.000Z</time>
      </trkpt>
      <trkpt lat="40.8763908036053180694580078125" lon="-1.3325336761772632598876953125">
        <ele>904.4000244140625</ele>
        <time>2022-05-03T08:09:09.000Z</time>
      </trkpt>
      <trkpt lat="40.876309163868427276611328125" lon="-1.332565359771251678466796875">
        <ele>904.20001220703125</ele>
        <time>2022-05-03T08:09:11.000Z</time>
      </trkpt>
      <trkpt lat="40.876230709254741668701171875" lon="-1.33259511552751064300537109375">
        <ele>904</ele>
        <time>2022-05-03T08:09:13.000Z</time>
      </trkpt>
      <trkpt lat="40.8761916495859622955322265625" lon="-1.3326086103916168212890625">
        <ele>903.79998779296875</ele>
        <time>2022-05-03T08:09:14.000Z</time>
      </trkpt>
      <trkpt lat="40.8761514164507389068603515625" lon="-1.332620345056056976318359375">
        <ele>903.79998779296875</ele>
        <time>2022-05-03T08:09:15.000Z</time>
      </trkpt>
      <trkpt lat="40.8760722912847995758056640625" lon="-1.3326476700603961944580078125">
        <ele>903.5999755859375</ele>
        <time>2022-05-03T08:09:17.000Z</time>
      </trkpt>
      <trkpt lat="40.8759894780814647674560546875" lon="-1.33268027566373348236083984375">
        <ele>903.4000244140625</ele>
        <time>2022-05-03T08:09:19.000Z</time>
      </trkpt>
      <trkpt lat="40.87590557523071765899658203125" lon="-1.3327023200690746307373046875">
        <ele>903.5999755859375</ele>
        <time>2022-05-03T08:09:21.000Z</time>
      </trkpt>
      <trkpt lat="40.87582259438931941986083984375" lon="-1.3327301479876041412353515625">
        <ele>903.5999755859375</ele>
        <time>2022-05-03T08:09:23.000Z</time>
      </trkpt>
      <trkpt lat="40.8757360093295574188232421875" lon="-1.33275403641164302825927734375">
        <ele>903.79998779296875</ele>
        <time>2022-05-03T08:09:25.000Z</time>
      </trkpt>
      <trkpt lat="40.8756424672901630401611328125" lon="-1.332775242626667022705078125">
        <ele>904</ele>
        <time>2022-05-03T08:09:27.000Z</time>
      </trkpt>
      <trkpt lat="40.87555286474525928497314453125" lon="-1.3327988795936107635498046875">
        <ele>904</ele>
        <time>2022-05-03T08:09:29.000Z</time>
      </trkpt>
      <trkpt lat="40.875463597476482391357421875" lon="-1.33282025344669818878173828125">
        <ele>904.20001220703125</ele>
        <time>2022-05-03T08:09:31.000Z</time>
      </trkpt>
      <trkpt lat="40.875419341027736663818359375" lon="-1.33282913826406002044677734375">
        <ele>904.20001220703125</ele>
        <time>2022-05-03T08:09:32.000Z</time>
      </trkpt>
      <trkpt lat="40.87537600658833980560302734375" lon="-1.3328392803668975830078125">
        <ele>904.20001220703125</ele>
        <time>2022-05-03T08:09:33.000Z</time>
      </trkpt>
      <trkpt lat="40.8752947859466075897216796875" lon="-1.332859061658382415771484375">
        <ele>904.4000244140625</ele>
        <time>2022-05-03T08:09:35.000Z</time>
      </trkpt>
      <trkpt lat="40.87520903907716274261474609375" lon="-1.33287909440696239471435546875">
        <ele>904.4000244140625</ele>
        <time>2022-05-03T08:09:37.000Z</time>
      </trkpt>
      <trkpt lat="40.8751157484948635101318359375" lon="-1.33290222845971584320068359375">
        <ele>904.5999755859375</ele>
        <time>2022-05-03T08:09:39.000Z</time>
      </trkpt>
      <trkpt lat="40.87502530775964260101318359375" lon="-1.3329212553799152374267578125">
        <ele>904.5999755859375</ele>
        <time>2022-05-03T08:09:41.000Z</time>
      </trkpt>
      <trkpt lat="40.87493679486215114593505859375" lon="-1.3329390250146389007568359375">
        <ele>904.79998779296875</ele>
        <time>2022-05-03T08:09:43.000Z</time>
      </trkpt>
      <trkpt lat="40.87484593503177165985107421875" lon="-1.33295654319226741790771484375">
        <ele>904.79998779296875</ele>
        <time>2022-05-03T08:09:45.000Z</time>
      </trkpt>
      <trkpt lat="40.8748022653162479400634765625" lon="-1.332967691123485565185546875">
        <ele>905</ele>
        <time>2022-05-03T08:09:46.000Z</time>
      </trkpt>
      <trkpt lat="40.874760188162326812744140625" lon="-1.33297699503600597381591796875">
        <ele>905</ele>
        <time>2022-05-03T08:09:47.000Z</time>
      </trkpt>
      <trkpt lat="40.87467603385448455810546875" lon="-1.3329921662807464599609375">
        <ele>905</ele>
        <time>2022-05-03T08:09:49.000Z</time>
      </trkpt>
      <trkpt lat="40.87458886206150054931640625" lon="-1.33300867862999439239501953125">
        <ele>904.79998779296875</ele>
        <time>2022-05-03T08:09:51.000Z</time>
      </trkpt>
      <trkpt lat="40.87450169026851654052734375" lon="-1.33302728645503520965576171875">
        <ele>904.79998779296875</ele>
        <time>2022-05-03T08:09:53.000Z</time>
      </trkpt>
      <trkpt lat="40.87441426701843738555908203125" lon="-1.33304488845169544219970703125">
        <ele>904.5999755859375</ele>
        <time>2022-05-03T08:09:55.000Z</time>
      </trkpt>
      <trkpt lat="40.8743275143206119537353515625" lon="-1.333065591752529144287109375">
        <ele>904.5999755859375</ele>
        <time>2022-05-03T08:09:57.000Z</time>
      </trkpt>
      <trkpt lat="40.87424210272729396820068359375" lon="-1.333083696663379669189453125">
        <ele>904.4000244140625</ele>
        <time>2022-05-03T08:09:59.000Z</time>
      </trkpt>
      <trkpt lat="40.874158032238483428955078125" lon="-1.33310004137456417083740234375">
        <ele>904.4000244140625</ele>
        <time>2022-05-03T08:10:01.000Z</time>
      </trkpt>
      <trkpt lat="40.874116457998752593994140625" lon="-1.33311026729643344879150390625">
        <ele>904.20001220703125</ele>
        <time>2022-05-03T08:10:02.000Z</time>
      </trkpt>
      <trkpt lat="40.87407429702579975128173828125" lon="-1.33312032558023929595947265625">
        <ele>904.20001220703125</ele>
        <time>2022-05-03T08:10:03.000Z</time>
      </trkpt>
      <trkpt lat="40.87398863397538661956787109375" lon="-1.33313834667205810546875">
        <ele>904.20001220703125</ele>
        <time>2022-05-03T08:10:05.000Z</time>
      </trkpt>
      <trkpt lat="40.873903222382068634033203125" lon="-1.3331566192209720611572265625">
        <ele>904</ele>
        <time>2022-05-03T08:10:07.000Z</time>
      </trkpt>
      <trkpt lat="40.8738162182271480560302734375" lon="-1.3331733830273151397705078125">
        <ele>904.4000244140625</ele>
        <time>2022-05-03T08:10:09.000Z</time>
      </trkpt>
      <trkpt lat="40.87372913025319576263427734375" lon="-1.3331904821097850799560546875">
        <ele>904.5999755859375</ele>
        <time>2022-05-03T08:10:11.000Z</time>
      </trkpt>
      <trkpt lat="40.87363961152732372283935546875" lon="-1.3332089222967624664306640625">
        <ele>904.79998779296875</ele>
        <time>2022-05-03T08:10:13.000Z</time>
      </trkpt>
      <trkpt lat="40.8735503442585468292236328125" lon="-1.3332283683121204376220703125">
        <ele>905.20001220703125</ele>
        <time>2022-05-03T08:10:15.000Z</time>
      </trkpt>
      <trkpt lat="40.87346107698976993560791015625" lon="-1.3332491554319858551025390625">
        <ele>905.4000244140625</ele>
        <time>2022-05-03T08:10:17.000Z</time>
      </trkpt>
      <trkpt lat="40.87337390519678592681884765625" lon="-1.33326851762831211090087890625">
        <ele>905.79998779296875</ele>
        <time>2022-05-03T08:10:19.000Z</time>
      </trkpt>
      <trkpt lat="40.87328664958477020263671875" lon="-1.3332846947014331817626953125">
        <ele>906</ele>
        <time>2022-05-03T08:10:21.000Z</time>
      </trkpt>
      <trkpt lat="40.87320257909595966339111328125" lon="-1.333299614489078521728515625">
        <ele>906.20001220703125</ele>
        <time>2022-05-03T08:10:23.000Z</time>
      </trkpt>
      <trkpt lat="40.87312010116875171661376953125" lon="-1.33331746794283390045166015625">
        <ele>906.5999755859375</ele>
        <time>2022-05-03T08:10:25.000Z</time>
      </trkpt>
      <trkpt lat="40.8730377070605754852294921875" lon="-1.3333339802920818328857421875">
        <ele>906.79998779296875</ele>
        <time>2022-05-03T08:10:27.000Z</time>
      </trkpt>
      <trkpt lat="40.8729501999914646148681640625" lon="-1.333353929221630096435546875">
        <ele>907</ele>
        <time>2022-05-03T08:10:29.000Z</time>
      </trkpt>
      <trkpt lat="40.8728623576462268829345703125" lon="-1.3333698548376560211181640625">
        <ele>907</ele>
        <time>2022-05-03T08:10:31.000Z</time>
      </trkpt>
      <trkpt lat="40.87277409620583057403564453125" lon="-1.333383433520793914794921875">
        <ele>907.20001220703125</ele>
        <time>2022-05-03T08:10:33.000Z</time>
      </trkpt>
      <trkpt lat="40.87268449366092681884765625" lon="-1.333398520946502685546875">
        <ele>907.4000244140625</ele>
        <time>2022-05-03T08:10:35.000Z</time>
      </trkpt>
      <trkpt lat="40.8725939691066741943359375" lon="-1.333414614200592041015625">
        <ele>907.5999755859375</ele>
        <time>2022-05-03T08:10:37.000Z</time>
      </trkpt>
      <trkpt lat="40.8725049532949924468994140625" lon="-1.33342928253114223480224609375">
        <ele>907.79998779296875</ele>
        <time>2022-05-03T08:10:39.000Z</time>
      </trkpt>
      <trkpt lat="40.87246078066527843475341796875" lon="-1.33343665860593318939208984375">
        <ele>907.79998779296875</ele>
        <time>2022-05-03T08:10:40.000Z</time>
      </trkpt>
      <trkpt lat="40.87241769768297672271728515625" lon="-1.3334442861378192901611328125">
        <ele>907.79998779296875</ele>
        <time>2022-05-03T08:10:41.000Z</time>
      </trkpt>
      <trkpt lat="40.87233689613640308380126953125" lon="-1.33346079848706722259521484375">
        <ele>908</ele>
        <time>2022-05-03T08:10:43.000Z</time>
      </trkpt>
      <trkpt lat="40.87225240655243396759033203125" lon="-1.3334764726459980010986328125">
        <ele>908.20001220703125</ele>
        <time>2022-05-03T08:10:45.000Z</time>
      </trkpt>
      <trkpt lat="40.872168838977813720703125" lon="-1.3334908895194530487060546875">
        <ele>908.4000244140625</ele>
        <time>2022-05-03T08:10:47.000Z</time>
      </trkpt>
      <trkpt lat="40.87212793529033660888671875" lon="-1.33349801413714885711669921875">
        <ele>908.5999755859375</ele>
        <time>2022-05-03T08:10:48.000Z</time>
      </trkpt>
      <trkpt lat="40.87208661250770092010498046875" lon="-1.33350572548806667327880859375">
        <ele>908.5999755859375</ele>
        <time>2022-05-03T08:10:49.000Z</time>
      </trkpt>
      <trkpt lat="40.87200279347598552703857421875" lon="-1.333520896732807159423828125">
        <ele>909</ele>
        <time>2022-05-03T08:10:51.000Z</time>
      </trkpt>
      <trkpt lat="40.8719178847968578338623046875" lon="-1.33354009129106998443603515625">
        <ele>909.20001220703125</ele>
        <time>2022-05-03T08:10:53.000Z</time>
      </trkpt>
      <trkpt lat="40.87183230556547641754150390625" lon="-1.33355836383998394012451171875">
        <ele>909.4000244140625</ele>
        <time>2022-05-03T08:10:55.000Z</time>
      </trkpt>
      <trkpt lat="40.87174580432474613189697265625" lon="-1.33357462473213672637939453125">
        <ele>909.5999755859375</ele>
        <time>2022-05-03T08:10:57.000Z</time>
      </trkpt>
      <trkpt lat="40.87170121259987354278564453125" lon="-1.33358426392078399658203125">
        <ele>909.5999755859375</ele>
        <time>2022-05-03T08:10:58.000Z</time>
      </trkpt>
      <trkpt lat="40.87165745906531810760498046875" lon="-1.3335929811000823974609375">
        <ele>909.79998779296875</ele>
        <time>2022-05-03T08:10:59.000Z</time>
      </trkpt>
      <trkpt lat="40.87157271802425384521484375" lon="-1.33361016400158405303955078125">
        <ele>909.79998779296875</ele>
        <time>2022-05-03T08:11:01.000Z</time>
      </trkpt>
      <trkpt lat="40.871489234268665313720703125" lon="-1.33362743072211742401123046875">
        <ele>910</ele>
        <time>2022-05-03T08:11:03.000Z</time>
      </trkpt>
      <trkpt lat="40.871406756341457366943359375" lon="-1.33364302106201648712158203125">
        <ele>910</ele>
        <time>2022-05-03T08:11:05.000Z</time>
      </trkpt>
      <trkpt lat="40.87132587097585201263427734375" lon="-1.3336585275828838348388671875">
        <ele>910</ele>
        <time>2022-05-03T08:11:07.000Z</time>
      </trkpt>
      <trkpt lat="40.87124506942927837371826171875" lon="-1.33367386646568775177001953125">
        <ele>910</ele>
        <time>2022-05-03T08:11:09.000Z</time>
      </trkpt>
      <trkpt lat="40.8711672015488147735595703125" lon="-1.33368887007236480712890625">
        <ele>910</ele>
        <time>2022-05-03T08:11:11.000Z</time>
      </trkpt>
      <trkpt lat="40.87108857929706573486328125" lon="-1.3337007723748683929443359375">
        <ele>910</ele>
        <time>2022-05-03T08:11:13.000Z</time>
      </trkpt>
      <trkpt lat="40.87100274860858917236328125" lon="-1.33371376432478427886962890625">
        <ele>910</ele>
        <time>2022-05-03T08:11:15.000Z</time>
      </trkpt>
      <trkpt lat="40.870916582643985748291015625" lon="-1.33372667245566844940185546875">
        <ele>910</ele>
        <time>2022-05-03T08:11:17.000Z</time>
      </trkpt>
      <trkpt lat="40.8708329312503337860107421875" lon="-1.3337450288236141204833984375">
        <ele>910</ele>
        <time>2022-05-03T08:11:19.000Z</time>
      </trkpt>
      <trkpt lat="40.8707467652857303619384765625" lon="-1.333761624991893768310546875">
        <ele>910</ele>
        <time>2022-05-03T08:11:21.000Z</time>
      </trkpt>
      <trkpt lat="40.8706626109778881072998046875" lon="-1.33378031663596630096435546875">
        <ele>910.20001220703125</ele>
        <time>2022-05-03T08:11:23.000Z</time>
      </trkpt>
      <trkpt lat="40.87057736702263355255126953125" lon="-1.3337993435561656951904296875">
        <ele>910.5999755859375</ele>
        <time>2022-05-03T08:11:25.000Z</time>
      </trkpt>
      <trkpt lat="40.87049019522964954376220703125" lon="-1.33381652645766735076904296875">
        <ele>910.5999755859375</ele>
        <time>2022-05-03T08:11:27.000Z</time>
      </trkpt>
      <trkpt lat="40.87044677697122097015380859375" lon="-1.33382557891309261322021484375">
        <ele>910.5999755859375</ele>
        <time>2022-05-03T08:11:28.000Z</time>
      </trkpt>
      <trkpt lat="40.87040327489376068115234375" lon="-1.33383530192077159881591796875">
        <ele>910.5999755859375</ele>
        <time>2022-05-03T08:11:29.000Z</time>
      </trkpt>
      <trkpt lat="40.8703159354627132415771484375" lon="-1.33385323919355869293212890625">
        <ele>910.79998779296875</ele>
        <time>2022-05-03T08:11:31.000Z</time>
      </trkpt>
      <trkpt lat="40.8702287636697292327880859375" lon="-1.33386715315282344818115234375">
        <ele>910.79998779296875</ele>
        <time>2022-05-03T08:11:33.000Z</time>
      </trkpt>
      <trkpt lat="40.870144106447696685791015625" lon="-1.3338840007781982421875">
        <ele>910.79998779296875</ele>
        <time>2022-05-03T08:11:35.000Z</time>
      </trkpt>
      <trkpt lat="40.87005861103534698486328125" lon="-1.33390235714614391326904296875">
        <ele>910.79998779296875</ele>
        <time>2022-05-03T08:11:37.000Z</time>
      </trkpt>
      <trkpt lat="40.86997278034687042236328125" lon="-1.33391744457185268402099609375">
        <ele>910.79998779296875</ele>
        <time>2022-05-03T08:11:39.000Z</time>
      </trkpt>
      <trkpt lat="40.8698887936770915985107421875" lon="-1.333934962749481201171875">
        <ele>911</ele>
        <time>2022-05-03T08:11:41.000Z</time>
      </trkpt>
      <trkpt lat="40.86980455555021762847900390625" lon="-1.33395306766033172607421875">
        <ele>911</ele>
        <time>2022-05-03T08:11:43.000Z</time>
      </trkpt>
      <trkpt lat="40.8697617240250110626220703125" lon="-1.33396354503929615020751953125">
        <ele>911</ele>
        <time>2022-05-03T08:11:44.000Z</time>
      </trkpt>
      <trkpt lat="40.86971855722367763519287109375" lon="-1.33397377096116542816162109375">
        <ele>911</ele>
        <time>2022-05-03T08:11:45.000Z</time>
      </trkpt>
      <trkpt lat="40.86963138543069362640380859375" lon="-1.33398986421525478363037109375">
        <ele>910.79998779296875</ele>
        <time>2022-05-03T08:11:47.000Z</time>
      </trkpt>
      <trkpt lat="40.86954555474221706390380859375" lon="-1.3340087234973907470703125">
        <ele>910.79998779296875</ele>
        <time>2022-05-03T08:11:49.000Z</time>
      </trkpt>
      <trkpt lat="40.869460813701152801513671875" lon="-1.3340296782553195953369140625">
        <ele>910.5999755859375</ele>
        <time>2022-05-03T08:11:51.000Z</time>
      </trkpt>
      <trkpt lat="40.86937456391751766204833984375" lon="-1.33404803462326526641845703125">
        <ele>910.5999755859375</ele>
        <time>2022-05-03T08:11:53.000Z</time>
      </trkpt>
      <trkpt lat="40.86928688921034336090087890625" lon="-1.33406630717217922210693359375">
        <ele>910.4000244140625</ele>
        <time>2022-05-03T08:11:55.000Z</time>
      </trkpt>
      <trkpt lat="40.86920223198831081390380859375" lon="-1.33407955057919025421142578125">
        <ele>910.20001220703125</ele>
        <time>2022-05-03T08:11:57.000Z</time>
      </trkpt>
      <trkpt lat="40.86912143044173717498779296875" lon="-1.33409212343394756317138671875">
        <ele>910.20001220703125</ele>
        <time>2022-05-03T08:11:59.000Z</time>
      </trkpt>
      <trkpt lat="40.8690412156283855438232421875" lon="-1.3341121561825275421142578125">
        <ele>910</ele>
        <time>2022-05-03T08:12:01.000Z</time>
      </trkpt>
      <trkpt lat="40.86896033026278018951416015625" lon="-1.3341269083321094512939453125">
        <ele>910</ele>
        <time>2022-05-03T08:12:03.000Z</time>
      </trkpt>
      <trkpt lat="40.8688755892217159271240234375" lon="-1.33413637988269329071044921875">
        <ele>909.79998779296875</ele>
        <time>2022-05-03T08:12:05.000Z</time>
      </trkpt>
      <trkpt lat="40.868792943656444549560546875" lon="-1.33415021002292633056640625">
        <ele>909.79998779296875</ele>
        <time>2022-05-03T08:12:07.000Z</time>
      </trkpt>
      <trkpt lat="40.868711136281490325927734375" lon="-1.33417024277150630950927734375">
        <ele>909.79998779296875</ele>
        <time>2022-05-03T08:12:09.000Z</time>
      </trkpt>
      <trkpt lat="40.8686278201639652252197265625" lon="-1.33418516255915164947509765625">
        <ele>909.79998779296875</ele>
        <time>2022-05-03T08:12:11.000Z</time>
      </trkpt>
      <trkpt lat="40.8685403130948543548583984375" lon="-1.334204860031604766845703125">
        <ele>910.20001220703125</ele>
        <time>2022-05-03T08:12:13.000Z</time>
      </trkpt>
      <trkpt lat="40.8684477768838405609130859375" lon="-1.334224976599216461181640625">
        <ele>910.4000244140625</ele>
        <time>2022-05-03T08:12:15.000Z</time>
      </trkpt>
      <trkpt lat="40.8683555759489536285400390625" lon="-1.33424316532909870147705078125">
        <ele>910.5999755859375</ele>
        <time>2022-05-03T08:12:17.000Z</time>
      </trkpt>
      <trkpt lat="40.868263207376003265380859375" lon="-1.33426093496382236480712890625">
        <ele>910.79998779296875</ele>
        <time>2022-05-03T08:12:19.000Z</time>
      </trkpt>
      <trkpt lat="40.8681708388030529022216796875" lon="-1.3342801295220851898193359375">
        <ele>911.20001220703125</ele>
        <time>2022-05-03T08:12:21.000Z</time>
      </trkpt>
      <trkpt lat="40.868081152439117431640625" lon="-1.33429907262325286865234375">
        <ele>911.4000244140625</ele>
        <time>2022-05-03T08:12:23.000Z</time>
      </trkpt>
      <trkpt lat="40.867993645370006561279296875" lon="-1.334316171705722808837890625">
        <ele>911.4000244140625</ele>
        <time>2022-05-03T08:12:25.000Z</time>
      </trkpt>
      <trkpt lat="40.8679069764912128448486328125" lon="-1.3343361206352710723876953125">
        <ele>911.5999755859375</ele>
        <time>2022-05-03T08:12:27.000Z</time>
      </trkpt>
      <trkpt lat="40.86782156489789485931396484375" lon="-1.334355063736438751220703125">
        <ele>911.79998779296875</ele>
        <time>2022-05-03T08:12:29.000Z</time>
      </trkpt>
      <trkpt lat="40.8677366562187671661376953125" lon="-1.33437409065663814544677734375">
        <ele>911.79998779296875</ele>
        <time>2022-05-03T08:12:31.000Z</time>
      </trkpt>
      <trkpt lat="40.8676514960825443267822265625" lon="-1.3343927823007106781005859375">
        <ele>912</ele>
        <time>2022-05-03T08:12:33.000Z</time>
      </trkpt>
      <trkpt lat="40.86756692267954349517822265625" lon="-1.33440895937383174896240234375">
        <ele>912</ele>
        <time>2022-05-03T08:12:35.000Z</time>
      </trkpt>
      <trkpt lat="40.86748109199106693267822265625" lon="-1.334426142275333404541015625">
        <ele>912</ele>
        <time>2022-05-03T08:12:37.000Z</time>
      </trkpt>
      <trkpt lat="40.8673953451216220855712890625" lon="-1.33444382809102535247802734375">
        <ele>912.20001220703125</ele>
        <time>2022-05-03T08:12:39.000Z</time>
      </trkpt>
      <trkpt lat="40.8673091791570186614990234375" lon="-1.33445858024060726165771484375">
        <ele>912.20001220703125</ele>
        <time>2022-05-03T08:12:41.000Z</time>
      </trkpt>
      <trkpt lat="40.86722175590693950653076171875" lon="-1.33447618223726749420166015625">
        <ele>912.20001220703125</ele>
        <time>2022-05-03T08:12:43.000Z</time>
      </trkpt>
      <trkpt lat="40.86713441647589206695556640625" lon="-1.334494538605213165283203125">
        <ele>912.20001220703125</ele>
        <time>2022-05-03T08:12:45.000Z</time>
      </trkpt>
      <trkpt lat="40.86704690940678119659423828125" lon="-1.33451021276414394378662109375">
        <ele>912</ele>
        <time>2022-05-03T08:12:47.000Z</time>
      </trkpt>
      <trkpt lat="40.86696158163249492645263671875" lon="-1.33452798239886760711669921875">
        <ele>912</ele>
        <time>2022-05-03T08:12:49.000Z</time>
      </trkpt>
      <trkpt lat="40.86692034266889095306396484375" lon="-1.3345398008823394775390625">
        <ele>912</ele>
        <time>2022-05-03T08:12:50.000Z</time>
      </trkpt>
      <trkpt lat="40.86687927134335041046142578125" lon="-1.33455120027065277099609375">
        <ele>912</ele>
        <time>2022-05-03T08:12:51.000Z</time>
      </trkpt>
      <trkpt lat="40.86679796688258647918701171875" lon="-1.33457089774310588836669921875">
        <ele>912</ele>
        <time>2022-05-03T08:12:53.000Z</time>
      </trkpt>
      <trkpt lat="40.86671649478375911712646484375" lon="-1.33459009230136871337890625">
        <ele>911.79998779296875</ele>
        <time>2022-05-03T08:12:55.000Z</time>
      </trkpt>
      <trkpt lat="40.866637118160724639892578125" lon="-1.33461012504994869232177734375">
        <ele>911.79998779296875</ele>
        <time>2022-05-03T08:12:57.000Z</time>
      </trkpt>
      <trkpt lat="40.86660048924386501312255859375" lon="-1.3346211053431034088134765625">
        <ele>911.79998779296875</ele>
        <time>2022-05-03T08:12:58.000Z</time>
      </trkpt>
      <trkpt lat="40.86656545288860797882080078125" lon="-1.33463208563625812530517578125">
        <ele>911.79998779296875</ele>
        <time>2022-05-03T08:12:59.000Z</time>
      </trkpt>
      <trkpt lat="40.8664894290268421173095703125" lon="-1.3346462510526180267333984375">
        <ele>912</ele>
        <time>2022-05-03T08:13:01.000Z</time>
      </trkpt>
      <trkpt lat="40.86640703491866588592529296875" lon="-1.334659159183502197265625">
        <ele>912.20001220703125</ele>
        <time>2022-05-03T08:13:03.000Z</time>
      </trkpt>
      <trkpt lat="40.86632790975272655487060546875" lon="-1.33467818610370159149169921875">
        <ele>912.20001220703125</ele>
        <time>2022-05-03T08:13:05.000Z</time>
      </trkpt>
      <trkpt lat="40.8662560768425464630126953125" lon="-1.3346898369491100311279296875">
        <ele>912.20001220703125</ele>
        <time>2022-05-03T08:13:07.000Z</time>
      </trkpt>
      <trkpt lat="40.8662185259163379669189453125" lon="-1.3346985541284084320068359375">
        <ele>912.20001220703125</ele>
        <time>2022-05-03T08:13:08.000Z</time>
      </trkpt>
      <trkpt lat="40.86617988534271717071533203125" lon="-1.33470718748867511749267578125">
        <ele>912.20001220703125</ele>
        <time>2022-05-03T08:13:09.000Z</time>
      </trkpt>
      <trkpt lat="40.86609941907227039337158203125" lon="-1.33472478948533535003662109375">
        <ele>912</ele>
        <time>2022-05-03T08:13:11.000Z</time>
      </trkpt>
      <trkpt lat="40.86601878516376018524169921875" lon="-1.3347434811294078826904296875">
        <ele>912</ele>
        <time>2022-05-03T08:13:13.000Z</time>
      </trkpt>
      <trkpt lat="40.86593605577945709228515625" lon="-1.334760077297687530517578125">
        <ele>912</ele>
        <time>2022-05-03T08:13:15.000Z</time>
      </trkpt>
      <trkpt lat="40.8658507280051708221435546875" lon="-1.33477424271404743194580078125">
        <ele>912</ele>
        <time>2022-05-03T08:13:17.000Z</time>
      </trkpt>
      <trkpt lat="40.8657623827457427978515625" lon="-1.33478983305394649505615234375">
        <ele>912</ele>
        <time>2022-05-03T08:13:19.000Z</time>
      </trkpt>
      <trkpt lat="40.8656710200011730194091796875" lon="-1.33480944670736789703369140625">
        <ele>912</ele>
        <time>2022-05-03T08:13:21.000Z</time>
      </trkpt>
      <trkpt lat="40.865580998361110687255859375" lon="-1.3348279707133769989013671875">
        <ele>912</ele>
        <time>2022-05-03T08:13:23.000Z</time>
      </trkpt>
      <trkpt lat="40.8654933236539363861083984375" lon="-1.33484632708132266998291015625">
        <ele>911.79998779296875</ele>
        <time>2022-05-03T08:13:25.000Z</time>
      </trkpt>
      <trkpt lat="40.8654483966529369354248046875" lon="-1.3348561339080333709716796875">
        <ele>911.79998779296875</ele>
        <time>2022-05-03T08:13:26.000Z</time>
      </trkpt>
      <trkpt lat="40.8654017932713031768798828125" lon="-1.33486560545861721038818359375">
        <ele>911.5999755859375</ele>
        <time>2022-05-03T08:13:27.000Z</time>
      </trkpt>
      <trkpt lat="40.8653092570602893829345703125" lon="-1.33488438092172145843505859375">
        <ele>911.4000244140625</ele>
        <time>2022-05-03T08:13:29.000Z</time>
      </trkpt>
      <trkpt lat="40.865216888487339019775390625" lon="-1.33490332402288913726806640625">
        <ele>911.20001220703125</ele>
        <time>2022-05-03T08:13:31.000Z</time>
      </trkpt>
      <trkpt lat="40.86512628011405467987060546875" lon="-1.33492629043757915496826171875">
        <ele>911.20001220703125</ele>
        <time>2022-05-03T08:13:33.000Z</time>
      </trkpt>
      <trkpt lat="40.8650812692940235137939453125" lon="-1.33493668399751186370849609375">
        <ele>911</ele>
        <time>2022-05-03T08:13:34.000Z</time>
      </trkpt>
      <trkpt lat="40.86503642611205577850341796875" lon="-1.33494573645293712615966796875">
        <ele>911</ele>
        <time>2022-05-03T08:13:35.000Z</time>
      </trkpt>
      <trkpt lat="40.8649464882910251617431640625" lon="-1.33496384136378765106201171875">
        <ele>910.79998779296875</ele>
        <time>2022-05-03T08:13:37.000Z</time>
      </trkpt>
      <trkpt lat="40.8648562990128993988037109375" lon="-1.334978677332401275634765625">
        <ele>910.5999755859375</ele>
        <time>2022-05-03T08:13:39.000Z</time>
      </trkpt>
      <trkpt lat="40.86476569063961505889892578125" lon="-1.33499301038682460784912109375">
        <ele>910.4000244140625</ele>
        <time>2022-05-03T08:13:41.000Z</time>
      </trkpt>
      <trkpt lat="40.86467768065631389617919921875" lon="-1.33500717580318450927734375">
        <ele>910.4000244140625</ele>
        <time>2022-05-03T08:13:43.000Z</time>
      </trkpt>
      <trkpt lat="40.8646350167691707611083984375" lon="-1.33501362986862659454345703125">
        <ele>910.5999755859375</ele>
        <time>2022-05-03T08:13:44.000Z</time>
      </trkpt>
      <trkpt lat="40.86459235288202762603759765625" lon="-1.33502117358148097991943359375">
        <ele>910.79998779296875</ele>
        <time>2022-05-03T08:13:45.000Z</time>
      </trkpt>
      <trkpt lat="40.86450685746967792510986328125" lon="-1.33503844030201435089111328125">
        <ele>911</ele>
        <time>2022-05-03T08:13:47.000Z</time>
      </trkpt>
      <trkpt lat="40.86442085914313793182373046875" lon="-1.3350579701364040374755859375">
        <ele>911.4000244140625</ele>
        <time>2022-05-03T08:13:49.000Z</time>
      </trkpt>
      <trkpt lat="40.86433402262628078460693359375" lon="-1.33507749997079372406005859375">
        <ele>911.5999755859375</ele>
        <time>2022-05-03T08:13:51.000Z</time>
      </trkpt>
      <trkpt lat="40.86424467153847217559814453125" lon="-1.33509510196745395660400390625">
        <ele>911.79998779296875</ele>
        <time>2022-05-03T08:13:53.000Z</time>
      </trkpt>
      <trkpt lat="40.8641981519758701324462890625" lon="-1.33510465733706951141357421875">
        <ele>912</ele>
        <time>2022-05-03T08:13:54.000Z</time>
      </trkpt>
      <trkpt lat="40.86415129713714122772216796875" lon="-1.33511354215443134307861328125">
        <ele>912.20001220703125</ele>
        <time>2022-05-03T08:13:55.000Z</time>
      </trkpt>
      <trkpt lat="40.86405993439257144927978515625" lon="-1.3351298868656158447265625">
        <ele>912.4000244140625</ele>
        <time>2022-05-03T08:13:57.000Z</time>
      </trkpt>
      <trkpt lat="40.8639681525528430938720703125" lon="-1.3351481594145298004150390625">
        <ele>912.5999755859375</ele>
        <time>2022-05-03T08:13:59.000Z</time>
      </trkpt>
      <trkpt lat="40.86387435905635356903076171875" lon="-1.335167773067951202392578125">
        <ele>912.79998779296875</ele>
        <time>2022-05-03T08:14:01.000Z</time>
      </trkpt>
      <trkpt lat="40.86378064937889575958251953125" lon="-1.33518747054040431976318359375">
        <ele>913</ele>
        <time>2022-05-03T08:14:03.000Z</time>
      </trkpt>
      <trkpt lat="40.86373421363532543182373046875" lon="-1.335196606814861297607421875">
        <ele>913</ele>
        <time>2022-05-03T08:14:04.000Z</time>
      </trkpt>
      <trkpt lat="40.86368828080594539642333984375" lon="-1.335207335650920867919921875">
        <ele>913</ele>
        <time>2022-05-03T08:14:05.000Z</time>
      </trkpt>
      <trkpt lat="40.863596498966217041015625" lon="-1.3352289609611034393310546875">
        <ele>913</ele>
        <time>2022-05-03T08:14:07.000Z</time>
      </trkpt>
      <trkpt lat="40.86350589059293270111083984375" lon="-1.33524849079549312591552734375">
        <ele>913</ele>
        <time>2022-05-03T08:14:09.000Z</time>
      </trkpt>
      <trkpt lat="40.86341553367674350738525390625" lon="-1.335265338420867919921875">
        <ele>913.20001220703125</ele>
        <time>2022-05-03T08:14:11.000Z</time>
      </trkpt>
      <trkpt lat="40.8633250929415225982666015625" lon="-1.3352826051414012908935546875">
        <ele>913.20001220703125</ele>
        <time>2022-05-03T08:14:13.000Z</time>
      </trkpt>
      <trkpt lat="40.8632357418537139892578125" lon="-1.33529928512871265411376953125">
        <ele>913.4000244140625</ele>
        <time>2022-05-03T08:14:15.000Z</time>
      </trkpt>
      <trkpt lat="40.86319391615688800811767578125" lon="-1.33530758321285247802734375">
        <ele>913.4000244140625</ele>
        <time>2022-05-03T08:14:16.000Z</time>
      </trkpt>
      <trkpt lat="40.86315351538360118865966796875" lon="-1.3353171385824680328369140625">
        <ele>913.5999755859375</ele>
        <time>2022-05-03T08:14:17.000Z</time>
      </trkpt>
      <trkpt lat="40.86307103745639324188232421875" lon="-1.3353385962545871734619140625">
        <ele>913.5999755859375</ele>
        <time>2022-05-03T08:14:19.000Z</time>
      </trkpt>
      <trkpt lat="40.86299023590981960296630859375" lon="-1.33535728789865970611572265625">
        <ele>913.5999755859375</ele>
        <time>2022-05-03T08:14:21.000Z</time>
      </trkpt>
      <trkpt lat="40.8629123680293560028076171875" lon="-1.3353727944195270538330078125">
        <ele>913.5999755859375</ele>
        <time>2022-05-03T08:14:23.000Z</time>
      </trkpt>
      <trkpt lat="40.86283483542501926422119140625" lon="-1.3353905640542507171630859375">
        <ele>913.4000244140625</ele>
        <time>2022-05-03T08:14:25.000Z</time>
      </trkpt>
      <trkpt lat="40.86275788955390453338623046875" lon="-1.33540305308997631072998046875">
        <ele>913.4000244140625</ele>
        <time>2022-05-03T08:14:27.000Z</time>
      </trkpt>
      <trkpt lat="40.86267993785440921783447265625" lon="-1.33541679941117763519287109375">
        <ele>913.20001220703125</ele>
        <time>2022-05-03T08:14:29.000Z</time>
      </trkpt>
      <trkpt lat="40.86260349489748477935791015625" lon="-1.3354348205029964447021484375">
        <ele>913.20001220703125</ele>
        <time>2022-05-03T08:14:31.000Z</time>
      </trkpt>
      <trkpt lat="40.86253073997795581817626953125" lon="-1.3354529254138469696044921875">
        <ele>913.20001220703125</ele>
        <time>2022-05-03T08:14:33.000Z</time>
      </trkpt>
      <trkpt lat="40.8624969609081745147705078125" lon="-1.33546474389731884002685546875">
        <ele>913.20001220703125</ele>
        <time>2022-05-03T08:14:34.000Z</time>
      </trkpt>
      <trkpt lat="40.86246519349515438079833984375" lon="-1.335479579865932464599609375">
        <ele>913</ele>
        <time>2022-05-03T08:14:35.000Z</time>
      </trkpt>
      <trkpt lat="40.86240534670650959014892578125" lon="-1.335515789687633514404296875">
        <ele>913</ele>
        <time>2022-05-03T08:14:37.000Z</time>
      </trkpt>
      <trkpt lat="40.86233845911920070648193359375" lon="-1.3355541788041591644287109375">
        <ele>913</ele>
        <time>2022-05-03T08:14:39.000Z</time>
      </trkpt>
      <trkpt lat="40.86230074055492877960205078125" lon="-1.33557002060115337371826171875">
        <ele>913</ele>
        <time>2022-05-03T08:14:40.000Z</time>
      </trkpt>
      <trkpt lat="40.8622599206864833831787109375" lon="-1.3355843536555767059326171875">
        <ele>913</ele>
        <time>2022-05-03T08:14:41.000Z</time>
      </trkpt>
      <trkpt lat="40.86217283271253108978271484375" lon="-1.33561327122151851654052734375">
        <ele>913</ele>
        <time>2022-05-03T08:14:43.000Z</time>
      </trkpt>
      <trkpt lat="40.8620798774063587188720703125" lon="-1.3356356509029865264892578125">
        <ele>912.79998779296875</ele>
        <time>2022-05-03T08:14:45.000Z</time>
      </trkpt>
      <trkpt lat="40.8619843237102031707763671875" lon="-1.3356555998325347900390625">
        <ele>912.79998779296875</ele>
        <time>2022-05-03T08:14:47.000Z</time>
      </trkpt>
      <trkpt lat="40.861890949308872222900390625" lon="-1.3356789015233516693115234375">
        <ele>912.5999755859375</ele>
        <time>2022-05-03T08:14:49.000Z</time>
      </trkpt>
      <trkpt lat="40.86180101148784160614013671875" lon="-1.33570111356675624847412109375">
        <ele>912.5999755859375</ele>
        <time>2022-05-03T08:14:51.000Z</time>
      </trkpt>
      <trkpt lat="40.8617149293422698974609375" lon="-1.33572399616241455078125">
        <ele>912.4000244140625</ele>
        <time>2022-05-03T08:14:53.000Z</time>
      </trkpt>
      <trkpt lat="40.86162842810153961181640625" lon="-1.33574754931032657623291015625">
        <ele>912.4000244140625</ele>
        <time>2022-05-03T08:14:55.000Z</time>
      </trkpt>
      <trkpt lat="40.86158542893826961517333984375" lon="-1.33575978688895702362060546875">
        <ele>912.4000244140625</ele>
        <time>2022-05-03T08:14:56.000Z</time>
      </trkpt>
      <trkpt lat="40.86154234595596790313720703125" lon="-1.33577152155339717864990234375">
        <ele>912.4000244140625</ele>
        <time>2022-05-03T08:14:57.000Z</time>
      </trkpt>
      <trkpt lat="40.8614592812955379486083984375" lon="-1.335794068872928619384765625">
        <ele>912.20001220703125</ele>
        <time>2022-05-03T08:14:59.000Z</time>
      </trkpt>
      <trkpt lat="40.861384682357311248779296875" lon="-1.33581745438277721405029296875">
        <ele>912.20001220703125</ele>
        <time>2022-05-03T08:15:01.000Z</time>
      </trkpt>
      <trkpt lat="40.8613127656280994415283203125" lon="-1.3358331285417079925537109375">
        <ele>912.20001220703125</ele>
        <time>2022-05-03T08:15:03.000Z</time>
      </trkpt>
      <trkpt lat="40.86127496324479579925537109375" lon="-1.3358421809971332550048828125">
        <ele>912.20001220703125</ele>
        <time>2022-05-03T08:15:04.000Z</time>
      </trkpt>
      <trkpt lat="40.8612346462905406951904296875" lon="-1.335850395262241363525390625">
        <ele>912</ele>
        <time>2022-05-03T08:15:05.000Z</time>
      </trkpt>
      <trkpt lat="40.86114965379238128662109375" lon="-1.335863135755062103271484375">
        <ele>912</ele>
        <time>2022-05-03T08:15:07.000Z</time>
      </trkpt>
      <trkpt lat="40.86106474511325359344482421875" lon="-1.335876546800136566162109375">
        <ele>912</ele>
        <time>2022-05-03T08:15:09.000Z</time>
      </trkpt>
      <trkpt lat="40.860972292721271514892578125" lon="-1.3358931429684162139892578125">
        <ele>912</ele>
        <time>2022-05-03T08:15:11.000Z</time>
      </trkpt>
      <trkpt lat="40.8608772419393062591552734375" lon="-1.33591669611632823944091796875">
        <ele>912</ele>
        <time>2022-05-03T08:15:13.000Z</time>
      </trkpt>
      <trkpt lat="40.86078244261443614959716796875" lon="-1.33594301529228687286376953125">
        <ele>912</ele>
        <time>2022-05-03T08:15:15.000Z</time>
      </trkpt>
      <trkpt lat="40.8606861345469951629638671875" lon="-1.335971765220165252685546875">
        <ele>912</ele>
        <time>2022-05-03T08:15:17.000Z</time>
      </trkpt>
      <trkpt lat="40.86059099994599819183349609375" lon="-1.336016021668910980224609375">
        <ele>912</ele>
        <time>2022-05-03T08:15:19.000Z</time>
      </trkpt>
      <trkpt lat="40.86054104380309581756591796875" lon="-1.33603571914136409759521484375">
        <ele>912</ele>
        <time>2022-05-03T08:15:20.000Z</time>
      </trkpt>
      <trkpt lat="40.860490500926971435546875" lon="-1.3360453583300113677978515625">
        <ele>912</ele>
        <time>2022-05-03T08:15:21.000Z</time>
      </trkpt>
      <trkpt lat="40.8603924326598644256591796875" lon="-1.33605323731899261474609375">
        <ele>912.20001220703125</ele>
        <time>2022-05-03T08:15:23.000Z</time>
      </trkpt>
      <trkpt lat="40.86029076017439365386962890625" lon="-1.33606731891632080078125">
        <ele>912.4000244140625</ele>
        <time>2022-05-03T08:15:25.000Z</time>
      </trkpt>
      <trkpt lat="40.860191099345684051513671875" lon="-1.33609137497842311859130859375">
        <ele>912.4000244140625</ele>
        <time>2022-05-03T08:15:27.000Z</time>
      </trkpt>
      <trkpt lat="40.86009562946856021881103515625" lon="-1.3361155986785888671875">
        <ele>912.5999755859375</ele>
        <time>2022-05-03T08:15:29.000Z</time>
      </trkpt>
      <trkpt lat="40.86004802025854587554931640625" lon="-1.33612909354269504547119140625">
        <ele>912.5999755859375</ele>
        <time>2022-05-03T08:15:30.000Z</time>
      </trkpt>
      <trkpt lat="40.8600015006959438323974609375" lon="-1.33614267222583293914794921875">
        <ele>912.5999755859375</ele>
        <time>2022-05-03T08:15:31.000Z</time>
      </trkpt>
      <trkpt lat="40.8599124848842620849609375" lon="-1.33616765029728412628173828125">
        <ele>912.79998779296875</ele>
        <time>2022-05-03T08:15:33.000Z</time>
      </trkpt>
      <trkpt lat="40.85982657037675380706787109375" lon="-1.33619078435003757476806640625">
        <ele>912.79998779296875</ele>
        <time>2022-05-03T08:15:35.000Z</time>
      </trkpt>
      <trkpt lat="40.85974157787859439849853515625" lon="-1.33621023036539554595947265625">
        <ele>913</ele>
        <time>2022-05-03T08:15:37.000Z</time>
      </trkpt>
      <trkpt lat="40.85965826176106929779052734375" lon="-1.336234621703624725341796875">
        <ele>913</ele>
        <time>2022-05-03T08:15:39.000Z</time>
      </trkpt>
      <trkpt lat="40.85957276634871959686279296875" lon="-1.33626169525086879730224609375">
        <ele>913.20001220703125</ele>
        <time>2022-05-03T08:15:41.000Z</time>
      </trkpt>
      <trkpt lat="40.8594841696321964263916015625" lon="-1.33628516457974910736083984375">
        <ele>913.20001220703125</ele>
        <time>2022-05-03T08:15:43.000Z</time>
      </trkpt>
      <trkpt lat="40.85939683020114898681640625" lon="-1.33631098084151744842529296875">
        <ele>913.4000244140625</ele>
        <time>2022-05-03T08:15:45.000Z</time>
      </trkpt>
      <trkpt lat="40.8593108318746089935302734375" lon="-1.336338222026824951171875">
        <ele>913.4000244140625</ele>
        <time>2022-05-03T08:15:47.000Z</time>
      </trkpt>
      <trkpt lat="40.85922609083354473114013671875" lon="-1.33636730723083019256591796875">
        <ele>913.5999755859375</ele>
        <time>2022-05-03T08:15:49.000Z</time>
      </trkpt>
      <trkpt lat="40.85918451659381389617919921875" lon="-1.336381137371063232421875">
        <ele>913.5999755859375</ele>
        <time>2022-05-03T08:15:50.000Z</time>
      </trkpt>
      <trkpt lat="40.8591418527066707611083984375" lon="-1.33639412932097911834716796875">
        <ele>913.79998779296875</ele>
        <time>2022-05-03T08:15:51.000Z</time>
      </trkpt>
      <trkpt lat="40.85905828513205051422119140625" lon="-1.33642229251563549041748046875">
        <ele>913.79998779296875</ele>
        <time>2022-05-03T08:15:53.000Z</time>
      </trkpt>
      <trkpt lat="40.8589738793671131134033203125" lon="-1.33645162917673587799072265625">
        <ele>914</ele>
        <time>2022-05-03T08:15:55.000Z</time>
      </trkpt>
      <trkpt lat="40.85888779722154140472412109375" lon="-1.336482726037502288818359375">
        <ele>914</ele>
        <time>2022-05-03T08:15:57.000Z</time>
      </trkpt>
      <trkpt lat="40.85880062542855739593505859375" lon="-1.3365174271166324615478515625">
        <ele>914</ele>
        <time>2022-05-03T08:15:59.000Z</time>
      </trkpt>
      <trkpt lat="40.85875712335109710693359375" lon="-1.3365335203707218170166015625">
        <ele>914</ele>
        <time>2022-05-03T08:16:00.000Z</time>
      </trkpt>
      <trkpt lat="40.8587120287120342254638671875" lon="-1.3365499489009380340576171875">
        <ele>914</ele>
        <time>2022-05-03T08:16:01.000Z</time>
      </trkpt>
      <trkpt lat="40.85862393490970134735107421875" lon="-1.33657786063849925994873046875">
        <ele>914</ele>
        <time>2022-05-03T08:16:03.000Z</time>
      </trkpt>
      <trkpt lat="40.85853894241154193878173828125" lon="-1.33660887368023395538330078125">
        <ele>914</ele>
        <time>2022-05-03T08:16:05.000Z</time>
      </trkpt>
      <trkpt lat="40.8584531955420970916748046875" lon="-1.3366438262164592742919921875">
        <ele>914</ele>
        <time>2022-05-03T08:16:07.000Z</time>
      </trkpt>
      <trkpt lat="40.8583620004355907440185546875" lon="-1.33668246679008007049560546875">
        <ele>914</ele>
        <time>2022-05-03T08:16:09.000Z</time>
      </trkpt>
      <trkpt lat="40.8582620881497859954833984375" lon="-1.33672923780977725982666015625">
        <ele>914</ele>
        <time>2022-05-03T08:16:11.000Z</time>
      </trkpt>
      <trkpt lat="40.8581547997891902923583984375" lon="-1.33677969686686992645263671875">
        <ele>914</ele>
        <time>2022-05-03T08:16:13.000Z</time>
      </trkpt>
      <trkpt lat="40.8580454997718334197998046875" lon="-1.33684138767421245574951171875">
        <ele>914</ele>
        <time>2022-05-03T08:16:15.000Z</time>
      </trkpt>
      <trkpt lat="40.8579905144870281219482421875" lon="-1.33686653338372707366943359375">
        <ele>914</ele>
        <time>2022-05-03T08:16:16.000Z</time>
      </trkpt>
      <trkpt lat="40.85793695412576198577880859375" lon="-1.33688061498105525970458984375">
        <ele>914.20001220703125</ele>
        <time>2022-05-03T08:16:17.000Z</time>
      </trkpt>
      <trkpt lat="40.8578389696776866912841796875" lon="-1.3368969596922397613525390625">
        <ele>914.20001220703125</ele>
        <time>2022-05-03T08:16:19.000Z</time>
      </trkpt>
      <trkpt lat="40.85779580287635326385498046875" lon="-1.3369019888341426849365234375">
        <ele>914.4000244140625</ele>
        <time>2022-05-03T08:16:20.000Z</time>
      </trkpt>
      <trkpt lat="40.85775691084563732147216796875" lon="-1.3369066826999187469482421875">
        <ele>914.4000244140625</ele>
        <time>2022-05-03T08:16:21.000Z</time>
      </trkpt>
      <trkpt lat="40.85768767632544040679931640625" lon="-1.33691581897437572479248046875">
        <ele>914.4000244140625</ele>
        <time>2022-05-03T08:16:23.000Z</time>
      </trkpt>
      <trkpt lat="40.85762389004230499267578125" lon="-1.33693174459040164947509765625">
        <ele>914.5999755859375</ele>
        <time>2022-05-03T08:16:25.000Z</time>
      </trkpt>
      <trkpt lat="40.85759094916284084320068359375" lon="-1.3369415514171123504638671875">
        <ele>914.5999755859375</ele>
        <time>2022-05-03T08:16:26.000Z</time>
      </trkpt>
      <trkpt lat="40.8575573377311229705810546875" lon="-1.33695068769156932830810546875">
        <ele>914.5999755859375</ele>
        <time>2022-05-03T08:16:27.000Z</time>
      </trkpt>
      <trkpt lat="40.85752355866134166717529296875" lon="-1.3369591534137725830078125">
        <ele>914.5999755859375</ele>
        <time>2022-05-03T08:16:28.000Z</time>
      </trkpt>
      <trkpt lat="40.857490785419940948486328125" lon="-1.3369687087833881378173828125">
        <ele>914.5999755859375</ele>
        <time>2022-05-03T08:16:29.000Z</time>
      </trkpt>
      <trkpt lat="40.8574255742132663726806640625" lon="-1.33698656223714351654052734375">
        <ele>914.5999755859375</ele>
        <time>2022-05-03T08:16:31.000Z</time>
      </trkpt>
      <trkpt lat="40.85736094973981380462646484375" lon="-1.337007097899913787841796875">
        <ele>914.5999755859375</ele>
        <time>2022-05-03T08:16:33.000Z</time>
      </trkpt>
      <trkpt lat="40.8573280088603496551513671875" lon="-1.3370186649262905120849609375">
        <ele>914.5999755859375</ele>
        <time>2022-05-03T08:16:34.000Z</time>
      </trkpt>
      <trkpt lat="40.8572948165237903594970703125" lon="-1.3370310701429843902587890625">
        <ele>914.5999755859375</ele>
        <time>2022-05-03T08:16:35.000Z</time>
      </trkpt>
      <trkpt lat="40.85722801275551319122314453125" lon="-1.33705395273864269256591796875">
        <ele>914.5999755859375</ele>
        <time>2022-05-03T08:16:37.000Z</time>
      </trkpt>
      <trkpt lat="40.8571942336857318878173828125" lon="-1.33706652559340000152587890625">
        <ele>914.79998779296875</ele>
        <time>2022-05-03T08:16:38.000Z</time>
      </trkpt>
      <trkpt lat="40.85716011933982372283935546875" lon="-1.33707893081009387969970703125">
        <ele>914.79998779296875</ele>
        <time>2022-05-03T08:16:39.000Z</time>
      </trkpt>
      <trkpt lat="40.85709105245769023895263671875" lon="-1.33710089139640331268310546875">
        <ele>915</ele>
        <time>2022-05-03T08:16:41.000Z</time>
      </trkpt>
      <trkpt lat="40.8570208959281444549560546875" lon="-1.33712905459105968475341796875">
        <ele>915.20001220703125</ele>
        <time>2022-05-03T08:16:43.000Z</time>
      </trkpt>
      <trkpt lat="40.856948979198932647705078125" lon="-1.33715562522411346435546875">
        <ele>915.4000244140625</ele>
        <time>2022-05-03T08:16:45.000Z</time>
      </trkpt>
      <trkpt lat="40.8568760566413402557373046875" lon="-1.33717867545783519744873046875">
        <ele>915.5999755859375</ele>
        <time>2022-05-03T08:16:47.000Z</time>
      </trkpt>
      <trkpt lat="40.8568049781024456024169921875" lon="-1.3371990434825420379638671875">
        <ele>915.79998779296875</ele>
        <time>2022-05-03T08:16:49.000Z</time>
      </trkpt>
      <trkpt lat="40.85673901252448558807373046875" lon="-1.337222345173358917236328125">
        <ele>916</ele>
        <time>2022-05-03T08:16:51.000Z</time>
      </trkpt>
      <trkpt lat="40.8566722087562084197998046875" lon="-1.337244473397731781005859375">
        <ele>916.20001220703125</ele>
        <time>2022-05-03T08:16:53.000Z</time>
      </trkpt>
      <trkpt lat="40.85660490207374095916748046875" lon="-1.33726802654564380645751953125">
        <ele>916.4000244140625</ele>
        <time>2022-05-03T08:16:55.000Z</time>
      </trkpt>
      <trkpt lat="40.8565719611942768096923828125" lon="-1.33728026412427425384521484375">
        <ele>916.5999755859375</ele>
        <time>2022-05-03T08:16:56.000Z</time>
      </trkpt>
      <trkpt lat="40.85653868503868579864501953125" lon="-1.33729166351258754730224609375">
        <ele>916.5999755859375</ele>
        <time>2022-05-03T08:16:57.000Z</time>
      </trkpt>
      <trkpt lat="40.85647330619394779205322265625" lon="-1.3373167254030704498291015625">
        <ele>916.79998779296875</ele>
        <time>2022-05-03T08:16:59.000Z</time>
      </trkpt>
      <trkpt lat="40.8564056642353534698486328125" lon="-1.3373401947319507598876953125">
        <ele>917</ele>
        <time>2022-05-03T08:17:01.000Z</time>
      </trkpt>
      <trkpt lat="40.85633601061999797821044921875" lon="-1.3373653404414653778076171875">
        <ele>917.20001220703125</ele>
        <time>2022-05-03T08:17:03.000Z</time>
      </trkpt>
      <trkpt lat="40.85626493208110332489013671875" lon="-1.3373911567032337188720703125">
        <ele>917.4000244140625</ele>
        <time>2022-05-03T08:17:05.000Z</time>
      </trkpt>
      <trkpt lat="40.85622821934521198272705078125" lon="-1.33740498684346675872802734375">
        <ele>917.5999755859375</ele>
        <time>2022-05-03T08:17:06.000Z</time>
      </trkpt>
      <trkpt lat="40.85619167424738407135009765625" lon="-1.33741856552660465240478515625">
        <ele>917.5999755859375</ele>
        <time>2022-05-03T08:17:07.000Z</time>
      </trkpt>
      <trkpt lat="40.856118500232696533203125" lon="-1.3374419510364532470703125">
        <ele>917.79998779296875</ele>
        <time>2022-05-03T08:17:09.000Z</time>
      </trkpt>
      <trkpt lat="40.85604381747543811798095703125" lon="-1.33746433071792125701904296875">
        <ele>918</ele>
        <time>2022-05-03T08:17:11.000Z</time>
      </trkpt>
      <trkpt lat="40.85596770979464054107666015625" lon="-1.337488554418087005615234375">
        <ele>918.20001220703125</ele>
        <time>2022-05-03T08:17:13.000Z</time>
      </trkpt>
      <trkpt lat="40.8558916859328746795654296875" lon="-1.33751261048018932342529296875">
        <ele>918.4000244140625</ele>
        <time>2022-05-03T08:17:15.000Z</time>
      </trkpt>
      <trkpt lat="40.85581339895725250244140625" lon="-1.3375386781990528106689453125">
        <ele>918.5999755859375</ele>
        <time>2022-05-03T08:17:17.000Z</time>
      </trkpt>
      <trkpt lat="40.85573427379131317138671875" lon="-1.33755971677601337432861328125">
        <ele>918.79998779296875</ele>
        <time>2022-05-03T08:17:19.000Z</time>
      </trkpt>
      <trkpt lat="40.85565456189215183258056640625" lon="-1.3375825993716716766357421875">
        <ele>919.20001220703125</ele>
        <time>2022-05-03T08:17:21.000Z</time>
      </trkpt>
      <trkpt lat="40.8555741794407367706298828125" lon="-1.3376050628721714019775390625">
        <ele>919.4000244140625</ele>
        <time>2022-05-03T08:17:23.000Z</time>
      </trkpt>
      <trkpt lat="40.85549312643706798553466796875" lon="-1.3376302085816860198974609375">
        <ele>919.4000244140625</ele>
        <time>2022-05-03T08:17:25.000Z</time>
      </trkpt>
      <trkpt lat="40.855410061776638031005859375" lon="-1.3376546837389469146728515625">
        <ele>919.4000244140625</ele>
        <time>2022-05-03T08:17:27.000Z</time>
      </trkpt>
      <trkpt lat="40.855368487536907196044921875" lon="-1.33766591548919677734375">
        <ele>919.4000244140625</ele>
        <time>2022-05-03T08:17:28.000Z</time>
      </trkpt>
      <trkpt lat="40.85532766766846179962158203125" lon="-1.33767672814428806304931640625">
        <ele>919.4000244140625</ele>
        <time>2022-05-03T08:17:29.000Z</time>
      </trkpt>
      <trkpt lat="40.85524653084576129913330078125" lon="-1.337698437273502349853515625">
        <ele>919.4000244140625</ele>
        <time>2022-05-03T08:17:31.000Z</time>
      </trkpt>
      <trkpt lat="40.8551644720137119293212890625" lon="-1.337721236050128936767578125">
        <ele>919.4000244140625</ele>
        <time>2022-05-03T08:17:33.000Z</time>
      </trkpt>
      <trkpt lat="40.85508048534393310546875" lon="-1.33774026297032833099365234375">
        <ele>919.5999755859375</ele>
        <time>2022-05-03T08:17:35.000Z</time>
      </trkpt>
      <trkpt lat="40.85499507375061511993408203125" lon="-1.337762139737606048583984375">
        <ele>919.5999755859375</ele>
        <time>2022-05-03T08:17:37.000Z</time>
      </trkpt>
      <trkpt lat="40.8549083210527896881103515625" lon="-1.33778334595263004302978515625">
        <ele>919.5999755859375</ele>
        <time>2022-05-03T08:17:39.000Z</time>
      </trkpt>
      <trkpt lat="40.85481788031756877899169921875" lon="-1.337806396186351776123046875">
        <ele>919.5999755859375</ele>
        <time>2022-05-03T08:17:41.000Z</time>
      </trkpt>
      <trkpt lat="40.8547249250113964080810546875" lon="-1.33783011697232723236083984375">
        <ele>919.5999755859375</ele>
        <time>2022-05-03T08:17:43.000Z</time>
      </trkpt>
      <trkpt lat="40.85463314317166805267333984375" lon="-1.33785408921539783477783203125">
        <ele>919.4000244140625</ele>
        <time>2022-05-03T08:17:45.000Z</time>
      </trkpt>
      <trkpt lat="40.85454194806516170501708984375" lon="-1.337879486382007598876953125">
        <ele>919</ele>
        <time>2022-05-03T08:17:47.000Z</time>
      </trkpt>
      <trkpt lat="40.8544989489018917083740234375" lon="-1.33789583109319210052490234375">
        <ele>918.79998779296875</ele>
        <time>2022-05-03T08:17:48.000Z</time>
      </trkpt>
      <trkpt lat="40.8544583804905414581298828125" lon="-1.337916366755962371826171875">
        <ele>918.79998779296875</ele>
        <time>2022-05-03T08:17:49.000Z</time>
      </trkpt>
      <trkpt lat="40.85438068024814128875732421875" lon="-1.3379651494324207305908203125">
        <ele>918.5999755859375</ele>
        <time>2022-05-03T08:17:51.000Z</time>
      </trkpt>
      <trkpt lat="40.85434430278837680816650390625" lon="-1.33799440227448940277099609375">
        <ele>918.4000244140625</ele>
        <time>2022-05-03T08:17:52.000Z</time>
      </trkpt>
      <trkpt lat="40.854313373565673828125" lon="-1.3380285166203975677490234375">
        <ele>918.4000244140625</ele>
        <time>2022-05-03T08:17:53.000Z</time>
      </trkpt>
      <trkpt lat="40.85428428836166858673095703125" lon="-1.3380669057369232177734375">
        <ele>918.4000244140625</ele>
        <time>2022-05-03T08:17:54.000Z</time>
      </trkpt>
      <trkpt lat="40.85425461642444133758544921875" lon="-1.33810873143374919891357421875">
        <ele>918.20001220703125</ele>
        <time>2022-05-03T08:17:55.000Z</time>
      </trkpt>
      <trkpt lat="40.85419544018805027008056640625" lon="-1.33819908834993839263916015625">
        <ele>918.20001220703125</ele>
        <time>2022-05-03T08:17:57.000Z</time>
      </trkpt>
      <trkpt lat="40.85413190536201000213623046875" lon="-1.33829564787447452545166015625">
        <ele>918</ele>
        <time>2022-05-03T08:17:59.000Z</time>
      </trkpt>
      <trkpt lat="40.854067616164684295654296875" lon="-1.3383959792554378509521484375">
        <ele>918</ele>
        <time>2022-05-03T08:18:01.000Z</time>
      </trkpt>
      <trkpt lat="40.8540074340999126434326171875" lon="-1.33850117214024066925048828125">
        <ele>917.79998779296875</ele>
        <time>2022-05-03T08:18:03.000Z</time>
      </trkpt>
      <trkpt lat="40.853952281177043914794921875" lon="-1.338612399995326995849609375">
        <ele>917.79998779296875</ele>
        <time>2022-05-03T08:18:05.000Z</time>
      </trkpt>
      <trkpt lat="40.8538989722728729248046875" lon="-1.33872077800333499908447265625">
        <ele>917.79998779296875</ele>
        <time>2022-05-03T08:18:07.000Z</time>
      </trkpt>
      <trkpt lat="40.85384692065417766571044921875" lon="-1.33881934918463230133056640625">
        <ele>917.5999755859375</ele>
        <time>2022-05-03T08:18:09.000Z</time>
      </trkpt>
      <trkpt lat="40.85379025898873805999755859375" lon="-1.33891238830983638763427734375">
        <ele>917.5999755859375</ele>
        <time>2022-05-03T08:18:11.000Z</time>
      </trkpt>
      <trkpt lat="40.8537304960191249847412109375" lon="-1.33899453096091747283935546875">
        <ele>917.4000244140625</ele>
        <time>2022-05-03T08:18:13.000Z</time>
      </trkpt>
      <trkpt lat="40.85369805805385112762451171875" lon="-1.339028812944889068603515625">
        <ele>917.4000244140625</ele>
        <time>2022-05-03T08:18:14.000Z</time>
      </trkpt>
      <trkpt lat="40.85366318933665752410888671875" lon="-1.3390608318150043487548828125">
        <ele>917.4000244140625</ele>
        <time>2022-05-03T08:18:15.000Z</time>
      </trkpt>
      <trkpt lat="40.853624045848846435546875" lon="-1.33909109048545360565185546875">
        <ele>917.4000244140625</ele>
        <time>2022-05-03T08:18:16.000Z</time>
      </trkpt>
      <trkpt lat="40.85357903502881526947021484375" lon="-1.33911900222301483154296875">
        <ele>917.20001220703125</ele>
        <time>2022-05-03T08:18:17.000Z</time>
      </trkpt>
      <trkpt lat="40.853479541838169097900390625" lon="-1.339165270328521728515625">
        <ele>917</ele>
        <time>2022-05-03T08:18:19.000Z</time>
      </trkpt>
      <trkpt lat="40.85343034006655216217041015625" lon="-1.3391815312206745147705078125">
        <ele>916.79998779296875</ele>
        <time>2022-05-03T08:18:20.000Z</time>
      </trkpt>
      <trkpt lat="40.85338155739009380340576171875" lon="-1.3391909189522266387939453125">
        <ele>916.5999755859375</ele>
        <time>2022-05-03T08:18:21.000Z</time>
      </trkpt>
      <trkpt lat="40.853285752236843109130859375" lon="-1.33919133804738521575927734375">
        <ele>916.4000244140625</ele>
        <time>2022-05-03T08:18:23.000Z</time>
      </trkpt>
      <trkpt lat="40.8532418310642242431640625" lon="-1.33918530307710170745849609375">
        <ele>916.20001220703125</ele>
        <time>2022-05-03T08:18:24.000Z</time>
      </trkpt>
      <trkpt lat="40.853199250996112823486328125" lon="-1.33917708881199359893798828125">
        <ele>916</ele>
        <time>2022-05-03T08:18:25.000Z</time>
      </trkpt>
      <trkpt lat="40.8531105704605579376220703125" lon="-1.3391540385782718658447265625">
        <ele>915.5999755859375</ele>
        <time>2022-05-03T08:18:27.000Z</time>
      </trkpt>
      <trkpt lat="40.8530166931450366973876953125" lon="-1.33913501165807247161865234375">
        <ele>915.4000244140625</ele>
        <time>2022-05-03T08:18:29.000Z</time>
      </trkpt>
      <trkpt lat="40.8529186248779296875" lon="-1.33911556564271450042724609375">
        <ele>915.4000244140625</ele>
        <time>2022-05-03T08:18:31.000Z</time>
      </trkpt>
      <trkpt lat="40.85286774672567844390869140625" lon="-1.339106597006320953369140625">
        <ele>915.5999755859375</ele>
        <time>2022-05-03T08:18:32.000Z</time>
      </trkpt>
      <trkpt lat="40.85281670093536376953125" lon="-1.3390983827412128448486328125">
        <ele>915.79998779296875</ele>
        <time>2022-05-03T08:18:33.000Z</time>
      </trkpt>
      <trkpt lat="40.85271569900214672088623046875" lon="-1.33908145129680633544921875">
        <ele>916.20001220703125</ele>
        <time>2022-05-03T08:18:35.000Z</time>
      </trkpt>
      <trkpt lat="40.85261612199246883392333984375" lon="-1.33905999362468719482421875">
        <ele>916.4000244140625</ele>
        <time>2022-05-03T08:18:37.000Z</time>
      </trkpt>
      <trkpt lat="40.8525203168392181396484375" lon="-1.3390387035906314849853515625">
        <ele>916.79998779296875</ele>
        <time>2022-05-03T08:18:39.000Z</time>
      </trkpt>
      <trkpt lat="40.852475054562091827392578125" lon="-1.3390313275158405303955078125">
        <ele>917</ele>
        <time>2022-05-03T08:18:40.000Z</time>
      </trkpt>
      <trkpt lat="40.85243104957044124603271484375" lon="-1.339026130735874176025390625">
        <ele>917.20001220703125</ele>
        <time>2022-05-03T08:18:41.000Z</time>
      </trkpt>
      <trkpt lat="40.85238830186426639556884765625" lon="-1.3390256278216838836669921875">
        <ele>917.4000244140625</ele>
        <time>2022-05-03T08:18:42.000Z</time>
      </trkpt>
      <trkpt lat="40.8523464761674404144287109375" lon="-1.33903183043003082275390625">
        <ele>917.4000244140625</ele>
        <time>2022-05-03T08:18:43.000Z</time>
      </trkpt>
      <trkpt lat="40.8522653393447399139404296875" lon="-1.33906074799597263336181640625">
        <ele>917.79998779296875</ele>
        <time>2022-05-03T08:18:45.000Z</time>
      </trkpt>
      <trkpt lat="40.85220021195709705352783203125" lon="-1.339117325842380523681640625">
        <ele>917.79998779296875</ele>
        <time>2022-05-03T08:18:47.000Z</time>
      </trkpt>
      <trkpt lat="40.85214975290000438690185546875" lon="-1.33919770829379558563232421875">
        <ele>917.5999755859375</ele>
        <time>2022-05-03T08:18:49.000Z</time>
      </trkpt>
      <trkpt lat="40.85212804377079010009765625" lon="-1.33924230001866817474365234375">
        <ele>917.5999755859375</ele>
        <time>2022-05-03T08:18:50.000Z</time>
      </trkpt>
      <trkpt lat="40.85210365243256092071533203125" lon="-1.33928504772484302520751953125">
        <ele>917.4000244140625</ele>
        <time>2022-05-03T08:18:51.000Z</time>
      </trkpt>
      <trkpt lat="40.852036513388156890869140625" lon="-1.33935377933084964752197265625">
        <ele>917.4000244140625</ele>
        <time>2022-05-03T08:18:53.000Z</time>
      </trkpt>
      <trkpt lat="40.85199820809066295623779296875" lon="-1.3393793441355228424072265625">
        <ele>917.20001220703125</ele>
        <time>2022-05-03T08:18:54.000Z</time>
      </trkpt>
      <trkpt lat="40.85195646621286869049072265625" lon="-1.33940423838794231414794921875">
        <ele>917.20001220703125</ele>
        <time>2022-05-03T08:18:55.000Z</time>
      </trkpt>
      <trkpt lat="40.85187097080051898956298828125" lon="-1.33944279514253139495849609375">
        <ele>917</ele>
        <time>2022-05-03T08:18:57.000Z</time>
      </trkpt>
      <trkpt lat="40.85177944041788578033447265625" lon="-1.33946542628109455108642578125">
        <ele>916.79998779296875</ele>
        <time>2022-05-03T08:18:59.000Z</time>
      </trkpt>
      <trkpt lat="40.85173401050269603729248046875" lon="-1.33947447873651981353759765625">
        <ele>916.79998779296875</ele>
        <time>2022-05-03T08:19:00.000Z</time>
      </trkpt>
      <trkpt lat="40.8516879938542842864990234375" lon="-1.33948302827775478363037109375">
        <ele>916.79998779296875</ele>
        <time>2022-05-03T08:19:01.000Z</time>
      </trkpt>
      <trkpt lat="40.85159403271973133087158203125" lon="-1.339500881731510162353515625">
        <ele>916.79998779296875</ele>
        <time>2022-05-03T08:19:03.000Z</time>
      </trkpt>
      <trkpt lat="40.85149998776614665985107421875" lon="-1.33951923809945583343505859375">
        <ele>916.5999755859375</ele>
        <time>2022-05-03T08:19:05.000Z</time>
      </trkpt>
      <trkpt lat="40.85140694864094257354736328125" lon="-1.33953801356256008148193359375">
        <ele>916.5999755859375</ele>
        <time>2022-05-03T08:19:07.000Z</time>
      </trkpt>
      <trkpt lat="40.8513165079057216644287109375" lon="-1.3395570404827594757080078125">
        <ele>917</ele>
        <time>2022-05-03T08:19:09.000Z</time>
      </trkpt>
      <trkpt lat="40.851226486265659332275390625" lon="-1.3395805098116397857666015625">
        <ele>917.4000244140625</ele>
        <time>2022-05-03T08:19:11.000Z</time>
      </trkpt>
      <trkpt lat="40.85118281655013561248779296875" lon="-1.33959266357123851776123046875">
        <ele>917.5999755859375</ele>
        <time>2022-05-03T08:19:12.000Z</time>
      </trkpt>
      <trkpt lat="40.8511416614055633544921875" lon="-1.3396036438643932342529296875">
        <ele>917.5999755859375</ele>
        <time>2022-05-03T08:19:13.000Z</time>
      </trkpt>
      <trkpt lat="40.85110343992710113525390625" lon="-1.33961244486272335052490234375">
        <ele>917.79998779296875</ele>
        <time>2022-05-03T08:19:14.000Z</time>
      </trkpt>
      <trkpt lat="40.85106647573411464691162109375" lon="-1.3396207429468631744384765625">
        <ele>918</ele>
        <time>2022-05-03T08:19:15.000Z</time>
      </trkpt>
      <trkpt lat="40.85099439136683940887451171875" lon="-1.3396338187158107757568359375">
        <ele>918.4000244140625</ele>
        <time>2022-05-03T08:19:17.000Z</time>
      </trkpt>
      <trkpt lat="40.85092297755181789398193359375" lon="-1.3396381773054599761962890625">
        <ele>918.5999755859375</ele>
        <time>2022-05-03T08:19:19.000Z</time>
      </trkpt>
      <trkpt lat="40.85084594786167144775390625" lon="-1.3396485708653926849365234375">
        <ele>919</ele>
        <time>2022-05-03T08:19:21.000Z</time>
      </trkpt>
      <trkpt lat="40.850764475762844085693359375" lon="-1.33966005407273769378662109375">
        <ele>919.4000244140625</ele>
        <time>2022-05-03T08:19:23.000Z</time>
      </trkpt>
      <trkpt lat="40.8506841771304607391357421875" lon="-1.3396831043064594268798828125">
        <ele>919.5999755859375</ele>
        <time>2022-05-03T08:19:25.000Z</time>
      </trkpt>
      <trkpt lat="40.85064411163330078125" lon="-1.33969701826572418212890625">
        <ele>919.79998779296875</ele>
        <time>2022-05-03T08:19:26.000Z</time>
      </trkpt>
      <trkpt lat="40.8506023697555065155029296875" lon="-1.33970917202532291412353515625">
        <ele>919.79998779296875</ele>
        <time>2022-05-03T08:19:27.000Z</time>
      </trkpt>
      <trkpt lat="40.85051896981894969940185546875" lon="-1.339726857841014862060546875">
        <ele>920</ele>
        <time>2022-05-03T08:19:29.000Z</time>
      </trkpt>
      <trkpt lat="40.85043464787304401397705078125" lon="-1.33973616175353527069091796875">
        <ele>920.20001220703125</ele>
        <time>2022-05-03T08:19:31.000Z</time>
      </trkpt>
      <trkpt lat="40.850349403917789459228515625" lon="-1.33974269963800907135009765625">
        <ele>920.5999755859375</ele>
        <time>2022-05-03T08:19:33.000Z</time>
      </trkpt>
      <trkpt lat="40.85031084716320037841796875" lon="-1.3397417776286602020263671875">
        <ele>920.5999755859375</ele>
        <time>2022-05-03T08:19:34.000Z</time>
      </trkpt>
      <trkpt lat="40.85027438588440418243408203125" lon="-1.3397347368299961090087890625">
        <ele>920.5999755859375</ele>
        <time>2022-05-03T08:19:35.000Z</time>
      </trkpt>
      <trkpt lat="40.85020263679325580596923828125" lon="-1.339712440967559814453125">
        <ele>920.79998779296875</ele>
        <time>2022-05-03T08:19:37.000Z</time>
      </trkpt>
      <trkpt lat="40.85012937895953655242919921875" lon="-1.33968628942966461181640625">
        <ele>921</ele>
        <time>2022-05-03T08:19:39.000Z</time>
      </trkpt>
      <trkpt lat="40.8500920794904232025146484375" lon="-1.3396790809929370880126953125">
        <ele>921.20001220703125</ele>
        <time>2022-05-03T08:19:40.000Z</time>
      </trkpt>
      <trkpt lat="40.85005645640194416046142578125" lon="-1.33967430330812931060791015625">
        <ele>921.20001220703125</ele>
        <time>2022-05-03T08:19:41.000Z</time>
      </trkpt>
      <trkpt lat="40.849981270730495452880859375" lon="-1.339662484824657440185546875">
        <ele>921.4000244140625</ele>
        <time>2022-05-03T08:19:43.000Z</time>
      </trkpt>
      <trkpt lat="40.84990658797323703765869140625" lon="-1.33964546956121921539306640625">
        <ele>921.5999755859375</ele>
        <time>2022-05-03T08:19:45.000Z</time>
      </trkpt>
      <trkpt lat="40.84982729516923427581787109375" lon="-1.33962317369878292083740234375">
        <ele>921.5999755859375</ele>
        <time>2022-05-03T08:19:47.000Z</time>
      </trkpt>
      <trkpt lat="40.84978605620563030242919921875" lon="-1.33961110375821590423583984375">
        <ele>921.5999755859375</ele>
        <time>2022-05-03T08:19:48.000Z</time>
      </trkpt>
      <trkpt lat="40.8497440628707408905029296875" lon="-1.3395979441702365875244140625">
        <ele>921.79998779296875</ele>
        <time>2022-05-03T08:19:49.000Z</time>
      </trkpt>
      <trkpt lat="40.84965907037258148193359375" lon="-1.33957338519394397735595703125">
        <ele>921.79998779296875</ele>
        <time>2022-05-03T08:19:51.000Z</time>
      </trkpt>
      <trkpt lat="40.849573910236358642578125" lon="-1.33955075405538082122802734375">
        <ele>921.5999755859375</ele>
        <time>2022-05-03T08:19:53.000Z</time>
      </trkpt>
      <trkpt lat="40.8494902588427066802978515625" lon="-1.33953566662967205047607421875">
        <ele>921.5999755859375</ele>
        <time>2022-05-03T08:19:55.000Z</time>
      </trkpt>
      <trkpt lat="40.84940568543970584869384765625" lon="-1.3395241834223270416259765625">
        <ele>921.5999755859375</ele>
        <time>2022-05-03T08:19:57.000Z</time>
      </trkpt>
      <trkpt lat="40.84936310537159442901611328125" lon="-1.339518986642360687255859375">
        <ele>921.5999755859375</ele>
        <time>2022-05-03T08:19:58.000Z</time>
      </trkpt>
      <trkpt lat="40.84932002238929271697998046875" lon="-1.33951387368142604827880859375">
        <ele>921.5999755859375</ele>
        <time>2022-05-03T08:19:59.000Z</time>
      </trkpt>
      <trkpt lat="40.849232263863086700439453125" lon="-1.33950532414019107818603515625">
        <ele>921.5999755859375</ele>
        <time>2022-05-03T08:20:01.000Z</time>
      </trkpt>
      <trkpt lat="40.84914517588913440704345703125" lon="-1.33949845097959041595458984375">
        <ele>921.5999755859375</ele>
        <time>2022-05-03T08:20:03.000Z</time>
      </trkpt>
      <trkpt lat="40.84906253032386302947998046875" lon="-1.339490152895450592041015625">
        <ele>921.4000244140625</ele>
        <time>2022-05-03T08:20:05.000Z</time>
      </trkpt>
      <trkpt lat="40.84898524917662143707275390625" lon="-1.33947732858359813690185546875">
        <ele>921.4000244140625</ele>
        <time>2022-05-03T08:20:07.000Z</time>
      </trkpt>
      <trkpt lat="40.84894753061234951019287109375" lon="-1.3394742272794246673583984375">
        <ele>921.20001220703125</ele>
        <time>2022-05-03T08:20:08.000Z</time>
      </trkpt>
      <trkpt lat="40.84890947677195072174072265625" lon="-1.33947280235588550567626953125">
        <ele>921.20001220703125</ele>
        <time>2022-05-03T08:20:09.000Z</time>
      </trkpt>
      <trkpt lat="40.84882766939699649810791015625" lon="-1.33946324698626995086669921875">
        <ele>921</ele>
        <time>2022-05-03T08:20:11.000Z</time>
      </trkpt>
      <trkpt lat="40.84874032996594905853271484375" lon="-1.33944748900830745697021484375">
        <ele>920.79998779296875</ele>
        <time>2022-05-03T08:20:13.000Z</time>
      </trkpt>
      <trkpt lat="40.84865114651620388031005859375" lon="-1.3394313119351863861083984375">
        <ele>920.5999755859375</ele>
        <time>2022-05-03T08:20:15.000Z</time>
      </trkpt>
      <trkpt lat="40.84856213070452213287353515625" lon="-1.33940826170146465301513671875">
        <ele>920.20001220703125</ele>
        <time>2022-05-03T08:20:17.000Z</time>
      </trkpt>
      <trkpt lat="40.84847294725477695465087890625" lon="-1.3393920846283435821533203125">
        <ele>920</ele>
        <time>2022-05-03T08:20:19.000Z</time>
      </trkpt>
      <trkpt lat="40.8483851887285709381103515625" lon="-1.339376159012317657470703125">
        <ele>919.79998779296875</ele>
        <time>2022-05-03T08:20:21.000Z</time>
      </trkpt>
      <trkpt lat="40.84834101609885692596435546875" lon="-1.33936651982367038726806640625">
        <ele>919.79998779296875</ele>
        <time>2022-05-03T08:20:22.000Z</time>
      </trkpt>
      <trkpt lat="40.8482970111072063446044921875" lon="-1.339356042444705963134765625">
        <ele>919.79998779296875</ele>
        <time>2022-05-03T08:20:23.000Z</time>
      </trkpt>
      <trkpt lat="40.8482078276574611663818359375" lon="-1.339335925877094268798828125">
        <ele>919.5999755859375</ele>
        <time>2022-05-03T08:20:25.000Z</time>
      </trkpt>
      <trkpt lat="40.84811805747449398040771484375" lon="-1.339317820966243743896484375">
        <ele>919.4000244140625</ele>
        <time>2022-05-03T08:20:27.000Z</time>
      </trkpt>
      <trkpt lat="40.84802770055830478668212890625" lon="-1.339300386607646942138671875">
        <ele>919.4000244140625</ele>
        <time>2022-05-03T08:20:29.000Z</time>
      </trkpt>
      <trkpt lat="40.847937427461147308349609375" lon="-1.3392894901335239410400390625">
        <ele>919.4000244140625</ele>
        <time>2022-05-03T08:20:31.000Z</time>
      </trkpt>
      <trkpt lat="40.84784430451691150665283203125" lon="-1.3392884843051433563232421875">
        <ele>919.4000244140625</ele>
        <time>2022-05-03T08:20:33.000Z</time>
      </trkpt>
      <trkpt lat="40.84774355404078960418701171875" lon="-1.33929812349379062652587890625">
        <ele>919.4000244140625</ele>
        <time>2022-05-03T08:20:35.000Z</time>
      </trkpt>
      <trkpt lat="40.847636349499225616455078125" lon="-1.339319162070751190185546875">
        <ele>919.4000244140625</ele>
        <time>2022-05-03T08:20:37.000Z</time>
      </trkpt>
      <trkpt lat="40.8475265465676784515380859375" lon="-1.33934673853218555450439453125">
        <ele>919.4000244140625</ele>
        <time>2022-05-03T08:20:39.000Z</time>
      </trkpt>
      <trkpt lat="40.8474712260067462921142578125" lon="-1.33935780264437198638916015625">
        <ele>919.4000244140625</ele>
        <time>2022-05-03T08:20:40.000Z</time>
      </trkpt>
      <trkpt lat="40.84741682745516300201416015625" lon="-1.3393669389188289642333984375">
        <ele>919.4000244140625</ele>
        <time>2022-05-03T08:20:41.000Z</time>
      </trkpt>
      <trkpt lat="40.84731322713196277618408203125" lon="-1.33938177488744258880615234375">
        <ele>919.4000244140625</ele>
        <time>2022-05-03T08:20:43.000Z</time>
      </trkpt>
      <trkpt lat="40.84721314720809459686279296875" lon="-1.339401304721832275390625">
        <ele>919.5999755859375</ele>
        <time>2022-05-03T08:20:45.000Z</time>
      </trkpt>
      <trkpt lat="40.8471154980361461639404296875" lon="-1.3394172303378582000732421875">
        <ele>919.4000244140625</ele>
        <time>2022-05-03T08:20:47.000Z</time>
      </trkpt>
      <trkpt lat="40.84702053107321262359619140625" lon="-1.3394373469054698944091796875">
        <ele>919.4000244140625</ele>
        <time>2022-05-03T08:20:49.000Z</time>
      </trkpt>
      <trkpt lat="40.8469252288341522216796875" lon="-1.33945805020630359649658203125">
        <ele>919.20001220703125</ele>
        <time>2022-05-03T08:20:51.000Z</time>
      </trkpt>
      <trkpt lat="40.84682908840477466583251953125" lon="-1.339477412402629852294921875">
        <ele>919.20001220703125</ele>
        <time>2022-05-03T08:20:53.000Z</time>
      </trkpt>
      <trkpt lat="40.8467815630137920379638671875" lon="-1.33948671631515026092529296875">
        <ele>919</ele>
        <time>2022-05-03T08:20:54.000Z</time>
      </trkpt>
      <trkpt lat="40.84673420526087284088134765625" lon="-1.33949585258960723876953125">
        <ele>919</ele>
        <time>2022-05-03T08:20:55.000Z</time>
      </trkpt>
      <trkpt lat="40.84663865156471729278564453125" lon="-1.339516974985599517822265625">
        <ele>919</ele>
        <time>2022-05-03T08:20:57.000Z</time>
      </trkpt>
      <trkpt lat="40.8465408347547054290771484375" lon="-1.33953700773417949676513671875">
        <ele>919</ele>
        <time>2022-05-03T08:20:59.000Z</time>
      </trkpt>
      <trkpt lat="40.84644000045955181121826171875" lon="-1.339556872844696044921875">
        <ele>919</ele>
        <time>2022-05-03T08:21:01.000Z</time>
      </trkpt>
      <trkpt lat="40.8463378250598907470703125" lon="-1.33957539685070514678955078125">
        <ele>919</ele>
        <time>2022-05-03T08:21:03.000Z</time>
      </trkpt>
      <trkpt lat="40.8462377451360225677490234375" lon="-1.33959417231380939483642578125">
        <ele>919</ele>
        <time>2022-05-03T08:21:05.000Z</time>
      </trkpt>
      <trkpt lat="40.8461445383727550506591796875" lon="-1.33961177431046962738037109375">
        <ele>919</ele>
        <time>2022-05-03T08:21:07.000Z</time>
      </trkpt>
      <trkpt lat="40.84605149924755096435546875" lon="-1.339632309973239898681640625">
        <ele>919</ele>
        <time>2022-05-03T08:21:09.000Z</time>
      </trkpt>
      <trkpt lat="40.84595468826591968536376953125" lon="-1.33964697830379009246826171875">
        <ele>919</ele>
        <time>2022-05-03T08:21:11.000Z</time>
      </trkpt>
      <trkpt lat="40.8458588831126689910888671875" lon="-1.33966357447206974029541015625">
        <ele>919</ele>
        <time>2022-05-03T08:21:13.000Z</time>
      </trkpt>
      <trkpt lat="40.8457660116255283355712890625" lon="-1.33968419395387172698974609375">
        <ele>919</ele>
        <time>2022-05-03T08:21:15.000Z</time>
      </trkpt>
      <trkpt lat="40.84567607380449771881103515625" lon="-1.33970246650278568267822265625">
        <ele>919</ele>
        <time>2022-05-03T08:21:17.000Z</time>
      </trkpt>
      <trkpt lat="40.8455893211066722869873046875" lon="-1.33971939794719219207763671875">
        <ele>919</ele>
        <time>2022-05-03T08:21:19.000Z</time>
      </trkpt>
      <trkpt lat="40.84550189785659313201904296875" lon="-1.33973666466772556304931640625">
        <ele>919</ele>
        <time>2022-05-03T08:21:21.000Z</time>
      </trkpt>
      <trkpt lat="40.84545697085559368133544921875" lon="-1.33974672295153141021728515625">
        <ele>919</ele>
        <time>2022-05-03T08:21:22.000Z</time>
      </trkpt>
      <trkpt lat="40.845411457121372222900390625" lon="-1.339758373796939849853515625">
        <ele>919</ele>
        <time>2022-05-03T08:21:23.000Z</time>
      </trkpt>
      <trkpt lat="40.8453200943768024444580078125" lon="-1.33978460915386676788330078125">
        <ele>919</ele>
        <time>2022-05-03T08:21:25.000Z</time>
      </trkpt>
      <trkpt lat="40.8452288992702960968017578125" lon="-1.33980606682598590850830078125">
        <ele>919</ele>
        <time>2022-05-03T08:21:27.000Z</time>
      </trkpt>
      <trkpt lat="40.8451377041637897491455078125" lon="-1.33982366882264614105224609375">
        <ele>919</ele>
        <time>2022-05-03T08:21:29.000Z</time>
      </trkpt>
      <trkpt lat="40.84505229257047176361083984375" lon="-1.33983724750578403472900390625">
        <ele>919</ele>
        <time>2022-05-03T08:21:31.000Z</time>
      </trkpt>
      <trkpt lat="40.84497367031872272491455078125" lon="-1.3398494012653827667236328125">
        <ele>918.79998779296875</ele>
        <time>2022-05-03T08:21:33.000Z</time>
      </trkpt>
      <trkpt lat="40.84490125067532062530517578125" lon="-1.339860968291759490966796875">
        <ele>918.79998779296875</ele>
        <time>2022-05-03T08:21:35.000Z</time>
      </trkpt>
      <trkpt lat="40.84482413716614246368408203125" lon="-1.3398849405348300933837890625">
        <ele>918.79998779296875</ele>
        <time>2022-05-03T08:21:37.000Z</time>
      </trkpt>
      <trkpt lat="40.84478373639285564422607421875" lon="-1.33989742957055568695068359375">
        <ele>918.79998779296875</ele>
        <time>2022-05-03T08:21:38.000Z</time>
      </trkpt>
      <trkpt lat="40.8447404019534587860107421875" lon="-1.3399063982069492340087890625">
        <ele>918.79998779296875</ele>
        <time>2022-05-03T08:21:39.000Z</time>
      </trkpt>
      <trkpt lat="40.8446488715708255767822265625" lon="-1.33992844261229038238525390625">
        <ele>919</ele>
        <time>2022-05-03T08:21:41.000Z</time>
      </trkpt>
      <trkpt lat="40.84455390460789203643798828125" lon="-1.339948475360870361328125">
        <ele>919.20001220703125</ele>
        <time>2022-05-03T08:21:43.000Z</time>
      </trkpt>
      <trkpt lat="40.84446229040622711181640625" lon="-1.33997186087071895599365234375">
        <ele>919.4000244140625</ele>
        <time>2022-05-03T08:21:45.000Z</time>
      </trkpt>
      <trkpt lat="40.8443709276616573333740234375" lon="-1.33999097160995006561279296875">
        <ele>919.4000244140625</ele>
        <time>2022-05-03T08:21:47.000Z</time>
      </trkpt>
      <trkpt lat="40.84427746944129467010498046875" lon="-1.3400106690824031829833984375">
        <ele>919.5999755859375</ele>
        <time>2022-05-03T08:21:49.000Z</time>
      </trkpt>
      <trkpt lat="40.8442311175167560577392578125" lon="-1.34002248756587505340576171875">
        <ele>919.5999755859375</ele>
        <time>2022-05-03T08:21:50.000Z</time>
      </trkpt>
      <trkpt lat="40.84418510086834430694580078125" lon="-1.340037323534488677978515625">
        <ele>919.5999755859375</ele>
        <time>2022-05-03T08:21:51.000Z</time>
      </trkpt>
      <trkpt lat="40.844089798629283905029296875" lon="-1.34006305597722530364990234375">
        <ele>919.79998779296875</ele>
        <time>2022-05-03T08:21:53.000Z</time>
      </trkpt>
      <trkpt lat="40.8440403454005718231201171875" lon="-1.3400743715465068817138671875">
        <ele>919.79998779296875</ele>
        <time>2022-05-03T08:21:54.000Z</time>
      </trkpt>
      <trkpt lat="40.84399131126701831817626953125" lon="-1.340084262192249298095703125">
        <ele>919.79998779296875</ele>
        <time>2022-05-03T08:21:55.000Z</time>
      </trkpt>
      <trkpt lat="40.84389240480959415435791015625" lon="-1.3401032052934169769287109375">
        <ele>920</ele>
        <time>2022-05-03T08:21:57.000Z</time>
      </trkpt>
      <trkpt lat="40.84379517473280429840087890625" lon="-1.34012206457555294036865234375">
        <ele>920.20001220703125</ele>
        <time>2022-05-03T08:21:59.000Z</time>
      </trkpt>
      <trkpt lat="40.84370079450309276580810546875" lon="-1.34014486335217952728271484375">
        <ele>920.20001220703125</ele>
        <time>2022-05-03T08:22:01.000Z</time>
      </trkpt>
      <trkpt lat="40.843607671558856964111328125" lon="-1.340166069567203521728515625">
        <ele>920.4000244140625</ele>
        <time>2022-05-03T08:22:03.000Z</time>
      </trkpt>
      <trkpt lat="40.8435605652630329132080078125" lon="-1.34017587639391422271728515625">
        <ele>920.4000244140625</ele>
        <time>2022-05-03T08:22:04.000Z</time>
      </trkpt>
      <trkpt lat="40.84351320751011371612548828125" lon="-1.34018559940159320831298828125">
        <ele>920.4000244140625</ele>
        <time>2022-05-03T08:22:05.000Z</time>
      </trkpt>
      <trkpt lat="40.8434190787374973297119140625" lon="-1.3402024470269680023193359375">
        <ele>920.5999755859375</ele>
        <time>2022-05-03T08:22:07.000Z</time>
      </trkpt>
      <trkpt lat="40.843328051269054412841796875" lon="-1.34021879173815250396728515625">
        <ele>920.5999755859375</ele>
        <time>2022-05-03T08:22:09.000Z</time>
      </trkpt>
      <trkpt lat="40.84323585033416748046875" lon="-1.340239830315113067626953125">
        <ele>920.79998779296875</ele>
        <time>2022-05-03T08:22:11.000Z</time>
      </trkpt>
      <trkpt lat="40.84314356558024883270263671875" lon="-1.34025734849274158477783203125">
        <ele>920.79998779296875</ele>
        <time>2022-05-03T08:22:13.000Z</time>
      </trkpt>
      <trkpt lat="40.84305471740663051605224609375" lon="-1.34027629159390926361083984375">
        <ele>921</ele>
        <time>2022-05-03T08:22:15.000Z</time>
      </trkpt>
      <trkpt lat="40.8430107124149799346923828125" lon="-1.34028517641127109527587890625">
        <ele>921</ele>
        <time>2022-05-03T08:22:16.000Z</time>
      </trkpt>
      <trkpt lat="40.8429671265184879302978515625" lon="-1.34029339067637920379638671875">
        <ele>921.20001220703125</ele>
        <time>2022-05-03T08:22:17.000Z</time>
      </trkpt>
      <trkpt lat="40.8428799547255039215087890625" lon="-1.3403092324733734130859375">
        <ele>921.20001220703125</ele>
        <time>2022-05-03T08:22:19.000Z</time>
      </trkpt>
      <trkpt lat="40.842793285846710205078125" lon="-1.34032691828906536102294921875">
        <ele>921.4000244140625</ele>
        <time>2022-05-03T08:22:21.000Z</time>
      </trkpt>
      <trkpt lat="40.8427089639008045196533203125" lon="-1.3403429277241230010986328125">
        <ele>921.4000244140625</ele>
        <time>2022-05-03T08:22:23.000Z</time>
      </trkpt>
      <trkpt lat="40.842626653611660003662109375" lon="-1.3403601944446563720703125">
        <ele>921.5999755859375</ele>
        <time>2022-05-03T08:22:25.000Z</time>
      </trkpt>
      <trkpt lat="40.84254425950348377227783203125" lon="-1.3403764553368091583251953125">
        <ele>921.5999755859375</ele>
        <time>2022-05-03T08:22:27.000Z</time>
      </trkpt>
      <trkpt lat="40.84246295504271984100341796875" lon="-1.34039103984832763671875">
        <ele>921.79998779296875</ele>
        <time>2022-05-03T08:22:29.000Z</time>
      </trkpt>
      <trkpt lat="40.84238165058195590972900390625" lon="-1.3404069654643535614013671875">
        <ele>921.79998779296875</ele>
        <time>2022-05-03T08:22:31.000Z</time>
      </trkpt>
      <trkpt lat="40.84229833446443080902099609375" lon="-1.3404200412333011627197265625">
        <ele>922</ele>
        <time>2022-05-03T08:22:33.000Z</time>
      </trkpt>
      <trkpt lat="40.8422154374420642852783203125" lon="-1.34043286554515361785888671875">
        <ele>922</ele>
        <time>2022-05-03T08:22:35.000Z</time>
      </trkpt>
      <trkpt lat="40.84213388152420520782470703125" lon="-1.34044527076184749603271484375">
        <ele>922.20001220703125</ele>
        <time>2022-05-03T08:22:37.000Z</time>
      </trkpt>
      <trkpt lat="40.84205006249248981475830078125" lon="-1.34046572260558605194091796875">
        <ele>922.20001220703125</ele>
        <time>2022-05-03T08:22:39.000Z</time>
      </trkpt>
      <trkpt lat="40.8419690094888210296630859375" lon="-1.340483240783214569091796875">
        <ele>922.4000244140625</ele>
        <time>2022-05-03T08:22:41.000Z</time>
      </trkpt>
      <trkpt lat="40.841889716684818267822265625" lon="-1.34049958549439907073974609375">
        <ele>922.4000244140625</ele>
        <time>2022-05-03T08:22:43.000Z</time>
      </trkpt>
      <trkpt lat="40.84180966950953006744384765625" lon="-1.3405157625675201416015625">
        <ele>922.4000244140625</ele>
        <time>2022-05-03T08:22:45.000Z</time>
      </trkpt>
      <trkpt lat="40.84172652103006839752197265625" lon="-1.34053252637386322021484375">
        <ele>922.5999755859375</ele>
        <time>2022-05-03T08:22:47.000Z</time>
      </trkpt>
      <trkpt lat="40.841642282903194427490234375" lon="-1.3405454345047473907470703125">
        <ele>922.5999755859375</ele>
        <time>2022-05-03T08:22:49.000Z</time>
      </trkpt>
      <trkpt lat="40.84155586548149585723876953125" lon="-1.34055909700691699981689453125">
        <ele>922.79998779296875</ele>
        <time>2022-05-03T08:22:51.000Z</time>
      </trkpt>
      <trkpt lat="40.841511189937591552734375" lon="-1.34056379087269306182861328125">
        <ele>922.79998779296875</ele>
        <time>2022-05-03T08:22:52.000Z</time>
      </trkpt>
      <trkpt lat="40.8414654247462749481201171875" lon="-1.340566389262676239013671875">
        <ele>923</ele>
        <time>2022-05-03T08:22:53.000Z</time>
      </trkpt>
      <trkpt lat="40.8414204977452754974365234375" lon="-1.34057150222361087799072265625">
        <ele>923</ele>
        <time>2022-05-03T08:22:54.000Z</time>
      </trkpt>
      <trkpt lat="40.84137615747749805450439453125" lon="-1.34058055467903614044189453125">
        <ele>922.79998779296875</ele>
        <time>2022-05-03T08:22:55.000Z</time>
      </trkpt>
      <trkpt lat="40.8412883989512920379638671875" lon="-1.34059949778020381927490234375">
        <ele>922.79998779296875</ele>
        <time>2022-05-03T08:22:57.000Z</time>
      </trkpt>
      <trkpt lat="40.84120131097733974456787109375" lon="-1.3406202010810375213623046875">
        <ele>922.5999755859375</ele>
        <time>2022-05-03T08:22:59.000Z</time>
      </trkpt>
      <trkpt lat="40.8411123789846897125244140625" lon="-1.340648196637630462646484375">
        <ele>922.4000244140625</ele>
        <time>2022-05-03T08:23:01.000Z</time>
      </trkpt>
      <trkpt lat="40.84106661379337310791015625" lon="-1.340661607682704925537109375">
        <ele>922.4000244140625</ele>
        <time>2022-05-03T08:23:02.000Z</time>
      </trkpt>
      <trkpt lat="40.84101975895464420318603515625" lon="-1.340673677623271942138671875">
        <ele>922.20001220703125</ele>
        <time>2022-05-03T08:23:03.000Z</time>
      </trkpt>
      <trkpt lat="40.8409283123910427093505859375" lon="-1.3406927883625030517578125">
        <ele>922.20001220703125</ele>
        <time>2022-05-03T08:23:05.000Z</time>
      </trkpt>
      <trkpt lat="40.84083887748420238494873046875" lon="-1.34070879779756069183349609375">
        <ele>922</ele>
        <time>2022-05-03T08:23:07.000Z</time>
      </trkpt>
      <trkpt lat="40.8407445810735225677490234375" lon="-1.3407264836132526397705078125">
        <ele>921.79998779296875</ele>
        <time>2022-05-03T08:23:09.000Z</time>
      </trkpt>
      <trkpt lat="40.8406969718635082244873046875" lon="-1.34073645807802677154541015625">
        <ele>921.79998779296875</ele>
        <time>2022-05-03T08:23:10.000Z</time>
      </trkpt>
      <trkpt lat="40.84064944647252559661865234375" lon="-1.340747773647308349609375">
        <ele>921.79998779296875</ele>
        <time>2022-05-03T08:23:11.000Z</time>
      </trkpt>
      <trkpt lat="40.84055573679506778717041015625" lon="-1.34077333845198154449462890625">
        <ele>921.5999755859375</ele>
        <time>2022-05-03T08:23:13.000Z</time>
      </trkpt>
      <trkpt lat="40.840464793145656585693359375" lon="-1.340791694819927215576171875">
        <ele>921.4000244140625</ele>
        <time>2022-05-03T08:23:15.000Z</time>
      </trkpt>
      <trkpt lat="40.84037669934332370758056640625" lon="-1.3408096320927143096923828125">
        <ele>921.20001220703125</ele>
        <time>2022-05-03T08:23:17.000Z</time>
      </trkpt>
      <trkpt lat="40.8403338678181171417236328125" lon="-1.340817511081695556640625">
        <ele>921.20001220703125</ele>
        <time>2022-05-03T08:23:18.000Z</time>
      </trkpt>
      <trkpt lat="40.8402953110635280609130859375" lon="-1.34082212112843990325927734375">
        <ele>921.4000244140625</ele>
        <time>2022-05-03T08:23:19.000Z</time>
      </trkpt>
      <trkpt lat="40.8402218855917453765869140625" lon="-1.34082698263227939605712890625">
        <ele>921.4000244140625</ele>
        <time>2022-05-03T08:23:21.000Z</time>
      </trkpt>
      <trkpt lat="40.8401390723884105682373046875" lon="-1.3408456742763519287109375">
        <ele>921.5999755859375</ele>
        <time>2022-05-03T08:23:23.000Z</time>
      </trkpt>
      <trkpt lat="40.840052403509616851806640625" lon="-1.34087040089070796966552734375">
        <ele>921.5999755859375</ele>
        <time>2022-05-03T08:23:25.000Z</time>
      </trkpt>
      <trkpt lat="40.8399617113173007965087890625" lon="-1.34089135564863681793212890625">
        <ele>921.79998779296875</ele>
        <time>2022-05-03T08:23:27.000Z</time>
      </trkpt>
      <trkpt lat="40.83986892364919185638427734375" lon="-1.340911723673343658447265625">
        <ele>921.79998779296875</ele>
        <time>2022-05-03T08:23:29.000Z</time>
      </trkpt>
      <trkpt lat="40.8397776447236537933349609375" lon="-1.34093326516449451446533203125">
        <ele>922</ele>
        <time>2022-05-03T08:23:31.000Z</time>
      </trkpt>
      <trkpt lat="40.83973355591297149658203125" lon="-1.34094332344830036163330078125">
        <ele>922</ele>
        <time>2022-05-03T08:23:32.000Z</time>
      </trkpt>
      <trkpt lat="40.8396908082067966461181640625" lon="-1.340951956808567047119140625">
        <ele>922</ele>
        <time>2022-05-03T08:23:33.000Z</time>
      </trkpt>
      <trkpt lat="40.839608497917652130126953125" lon="-1.34096461348235607147216796875">
        <ele>922</ele>
        <time>2022-05-03T08:23:35.000Z</time>
      </trkpt>
      <trkpt lat="40.83952275104820728302001953125" lon="-1.34098271839320659637451171875">
        <ele>922</ele>
        <time>2022-05-03T08:23:37.000Z</time>
      </trkpt>
      <trkpt lat="40.83943289704620838165283203125" lon="-1.34100333787500858306884765625">
        <ele>922</ele>
        <time>2022-05-03T08:23:39.000Z</time>
      </trkpt>
      <trkpt lat="40.8393887244164943695068359375" lon="-1.3410161621868610382080078125">
        <ele>922</ele>
        <time>2022-05-03T08:23:40.000Z</time>
      </trkpt>
      <trkpt lat="40.839344970881938934326171875" lon="-1.34103049524128437042236328125">
        <ele>922</ele>
        <time>2022-05-03T08:23:41.000Z</time>
      </trkpt>
      <trkpt lat="40.83925486542284488677978515625" lon="-1.34105446748435497283935546875">
        <ele>922</ele>
        <time>2022-05-03T08:23:43.000Z</time>
      </trkpt>
      <trkpt lat="40.83916358649730682373046875" lon="-1.34107299149036407470703125">
        <ele>922</ele>
        <time>2022-05-03T08:23:45.000Z</time>
      </trkpt>
      <trkpt lat="40.8390735648572444915771484375" lon="-1.34109369479119777679443359375">
        <ele>922</ele>
        <time>2022-05-03T08:23:47.000Z</time>
      </trkpt>
      <trkpt lat="40.838985554873943328857421875" lon="-1.34111498482525348663330078125">
        <ele>922</ele>
        <time>2022-05-03T08:23:49.000Z</time>
      </trkpt>
      <trkpt lat="40.838897041976451873779296875" lon="-1.341134347021579742431640625">
        <ele>922</ele>
        <time>2022-05-03T08:23:51.000Z</time>
      </trkpt>
      <trkpt lat="40.83880878053605556488037109375" lon="-1.3411516137421131134033203125">
        <ele>922</ele>
        <time>2022-05-03T08:23:53.000Z</time>
      </trkpt>
      <trkpt lat="40.838720686733722686767578125" lon="-1.3411697186529636383056640625">
        <ele>922.20001220703125</ele>
        <time>2022-05-03T08:23:55.000Z</time>
      </trkpt>
      <trkpt lat="40.8386299945414066314697265625" lon="-1.34118271060287952423095703125">
        <ele>922.4000244140625</ele>
        <time>2022-05-03T08:23:57.000Z</time>
      </trkpt>
      <trkpt lat="40.838535614311695098876953125" lon="-1.3411901704967021942138671875">
        <ele>922.4000244140625</ele>
        <time>2022-05-03T08:23:59.000Z</time>
      </trkpt>
      <trkpt lat="40.8384422399103641510009765625" lon="-1.34120265953242778778076171875">
        <ele>922.5999755859375</ele>
        <time>2022-05-03T08:24:01.000Z</time>
      </trkpt>
      <trkpt lat="40.83835112862288951873779296875" lon="-1.34121590293943881988525390625">
        <ele>922.5999755859375</ele>
        <time>2022-05-03T08:24:03.000Z</time>
      </trkpt>
      <trkpt lat="40.83826261572539806365966796875" lon="-1.34123166091740131378173828125">
        <ele>922.79998779296875</ele>
        <time>2022-05-03T08:24:05.000Z</time>
      </trkpt>
      <trkpt lat="40.8381810598075389862060546875" lon="-1.3412461616098880767822265625">
        <ele>922.79998779296875</ele>
        <time>2022-05-03T08:24:07.000Z</time>
      </trkpt>
      <trkpt lat="40.8381072990596294403076171875" lon="-1.3412602432072162628173828125">
        <ele>923</ele>
        <time>2022-05-03T08:24:09.000Z</time>
      </trkpt>
      <trkpt lat="40.83803798072040081024169921875" lon="-1.34127474389970302581787109375">
        <ele>923</ele>
        <time>2022-05-03T08:24:11.000Z</time>
      </trkpt>
      <trkpt lat="40.837971009314060211181640625" lon="-1.3412907533347606658935546875">
        <ele>923.20001220703125</ele>
        <time>2022-05-03T08:24:13.000Z</time>
      </trkpt>
      <trkpt lat="40.83790085278451442718505859375" lon="-1.3413101993501186370849609375">
        <ele>923.20001220703125</ele>
        <time>2022-05-03T08:24:15.000Z</time>
      </trkpt>
      <trkpt lat="40.8378628827631473541259765625" lon="-1.34132017381489276885986328125">
        <ele>923.20001220703125</ele>
        <time>2022-05-03T08:24:16.000Z</time>
      </trkpt>
      <trkpt lat="40.8378218114376068115234375" lon="-1.34132855571806430816650390625">
        <ele>923.20001220703125</ele>
        <time>2022-05-03T08:24:17.000Z</time>
      </trkpt>
      <trkpt lat="40.83773438818752765655517578125" lon="-1.34134800173342227935791015625">
        <ele>923.4000244140625</ele>
        <time>2022-05-03T08:24:19.000Z</time>
      </trkpt>
      <trkpt lat="40.83764486946165561676025390625" lon="-1.3413682021200656890869140625">
        <ele>923.4000244140625</ele>
        <time>2022-05-03T08:24:21.000Z</time>
      </trkpt>
      <trkpt lat="40.83759357221424579620361328125" lon="-1.3413779251277446746826171875">
        <ele>923.5999755859375</ele>
        <time>2022-05-03T08:24:22.000Z</time>
      </trkpt>
      <trkpt lat="40.83753992803394794464111328125" lon="-1.34139058180153369903564453125">
        <ele>923.5999755859375</ele>
        <time>2022-05-03T08:24:23.000Z</time>
      </trkpt>
      <trkpt lat="40.8374297060072422027587890625" lon="-1.34142109192907810211181640625">
        <ele>923.79998779296875</ele>
        <time>2022-05-03T08:24:25.000Z</time>
      </trkpt>
      <trkpt lat="40.83732895553112030029296875" lon="-1.34144288487732410430908203125">
        <ele>923.79998779296875</ele>
        <time>2022-05-03T08:24:27.000Z</time>
      </trkpt>
      <trkpt lat="40.83728444762527942657470703125" lon="-1.3414503447711467742919921875">
        <ele>924</ele>
        <time>2022-05-03T08:24:28.000Z</time>
      </trkpt>
      <trkpt lat="40.8372451364994049072265625" lon="-1.34145495481789112091064453125">
        <ele>924</ele>
        <time>2022-05-03T08:24:29.000Z</time>
      </trkpt>
      <trkpt lat="40.837169699370861053466796875" lon="-1.341460905969142913818359375">
        <ele>924</ele>
        <time>2022-05-03T08:24:31.000Z</time>
      </trkpt>
      <trkpt lat="40.83709266968071460723876953125" lon="-1.3414694555103778839111328125">
        <ele>924</ele>
        <time>2022-05-03T08:24:33.000Z</time>
      </trkpt>
      <trkpt lat="40.83702025003731250762939453125" lon="-1.34147540666162967681884765625">
        <ele>924</ele>
        <time>2022-05-03T08:24:35.000Z</time>
      </trkpt>
      <trkpt lat="40.8369509316980838775634765625" lon="-1.34148068726062774658203125">
        <ele>924</ele>
        <time>2022-05-03T08:24:37.000Z</time>
      </trkpt>
      <trkpt lat="40.8368805237114429473876953125" lon="-1.34148714132606983184814453125">
        <ele>924</ele>
        <time>2022-05-03T08:24:39.000Z</time>
      </trkpt>
      <trkpt lat="40.8368050865828990936279296875" lon="-1.3414929248392581939697265625">
        <ele>924</ele>
        <time>2022-05-03T08:24:41.000Z</time>
      </trkpt>
      <trkpt lat="40.83672420121729373931884765625" lon="-1.34150273166596889495849609375">
        <ele>924</ele>
        <time>2022-05-03T08:24:43.000Z</time>
      </trkpt>
      <trkpt lat="40.8366830460727214813232421875" lon="-1.34150658734142780303955078125">
        <ele>924</ele>
        <time>2022-05-03T08:24:44.000Z</time>
      </trkpt>
      <trkpt lat="40.83664205856621265411376953125" lon="-1.341509856283664703369140625">
        <ele>924</ele>
        <time>2022-05-03T08:24:45.000Z</time>
      </trkpt>
      <trkpt lat="40.8365599997341632843017578125" lon="-1.34152150712907314300537109375">
        <ele>924</ele>
        <time>2022-05-03T08:24:47.000Z</time>
      </trkpt>
      <trkpt lat="40.8364795334637165069580078125" lon="-1.34153391234576702117919921875">
        <ele>924</ele>
        <time>2022-05-03T08:24:49.000Z</time>
      </trkpt>
      <trkpt lat="40.83640032447874546051025390625" lon="-1.34154715575277805328369140625">
        <ele>924</ele>
        <time>2022-05-03T08:24:51.000Z</time>
      </trkpt>
      <trkpt lat="40.83631935529410839080810546875" lon="-1.3415583036839962005615234375">
        <ele>923.79998779296875</ele>
        <time>2022-05-03T08:24:53.000Z</time>
      </trkpt>
      <trkpt lat="40.83624039776623249053955078125" lon="-1.34156811051070690155029296875">
        <ele>923.79998779296875</ele>
        <time>2022-05-03T08:24:55.000Z</time>
      </trkpt>
      <trkpt lat="40.83616747520864009857177734375" lon="-1.3415777496993541717529296875">
        <ele>923.5999755859375</ele>
        <time>2022-05-03T08:24:57.000Z</time>
      </trkpt>
      <trkpt lat="40.8360922895371913909912109375" lon="-1.34158537723124027252197265625">
        <ele>923.5999755859375</ele>
        <time>2022-05-03T08:24:59.000Z</time>
      </trkpt>
      <trkpt lat="40.83601257763803005218505859375" lon="-1.341590993106365203857421875">
        <ele>923.4000244140625</ele>
        <time>2022-05-03T08:25:01.000Z</time>
      </trkpt>
      <trkpt lat="40.83592976443469524383544921875" lon="-1.34160163812339305877685546875">
        <ele>923.20001220703125</ele>
        <time>2022-05-03T08:25:03.000Z</time>
      </trkpt>
      <trkpt lat="40.83584259264171123504638671875" lon="-1.34161345660686492919921875">
        <ele>923.20001220703125</ele>
        <time>2022-05-03T08:25:05.000Z</time>
      </trkpt>
      <trkpt lat="40.83575592376291751861572265625" lon="-1.341625191271305084228515625">
        <ele>923</ele>
        <time>2022-05-03T08:25:07.000Z</time>
      </trkpt>
      <trkpt lat="40.83566942252218723297119140625" lon="-1.34163483045995235443115234375">
        <ele>923</ele>
        <time>2022-05-03T08:25:09.000Z</time>
      </trkpt>
      <trkpt lat="40.835583843290805816650390625" lon="-1.341644637286663055419921875">
        <ele>922.79998779296875</ele>
        <time>2022-05-03T08:25:11.000Z</time>
      </trkpt>
      <trkpt lat="40.83550195209681987762451171875" lon="-1.3416525162756443023681640625">
        <ele>923</ele>
        <time>2022-05-03T08:25:13.000Z</time>
      </trkpt>
      <trkpt lat="40.8354250900447368621826171875" lon="-1.34165980853140354156494140625">
        <ele>923</ele>
        <time>2022-05-03T08:25:15.000Z</time>
      </trkpt>
      <trkpt lat="40.83534470759332180023193359375" lon="-1.34166684933006763458251953125">
        <ele>923.20001220703125</ele>
        <time>2022-05-03T08:25:17.000Z</time>
      </trkpt>
      <trkpt lat="40.83526105619966983795166015625" lon="-1.34167573414742946624755859375">
        <ele>923.20001220703125</ele>
        <time>2022-05-03T08:25:19.000Z</time>
      </trkpt>
      <trkpt lat="40.83517975173890590667724609375" lon="-1.3416813500225543975830078125">
        <ele>923.20001220703125</ele>
        <time>2022-05-03T08:25:21.000Z</time>
      </trkpt>
      <trkpt lat="40.835099704563617706298828125" lon="-1.34167774580419063568115234375">
        <ele>923.20001220703125</ele>
        <time>2022-05-03T08:25:23.000Z</time>
      </trkpt>
      <trkpt lat="40.83501546643674373626708984375" lon="-1.34167422540485858917236328125">
        <ele>923.20001220703125</ele>
        <time>2022-05-03T08:25:25.000Z</time>
      </trkpt>
      <trkpt lat="40.83497188054025173187255859375" lon="-1.34167908690869808197021484375">
        <ele>923.20001220703125</ele>
        <time>2022-05-03T08:25:26.000Z</time>
      </trkpt>
      <trkpt lat="40.8349285461008548736572265625" lon="-1.3416825234889984130859375">
        <ele>923.20001220703125</ele>
        <time>2022-05-03T08:25:27.000Z</time>
      </trkpt>
      <trkpt lat="40.83484430797398090362548828125" lon="-1.3416873849928379058837890625">
        <ele>923.20001220703125</ele>
        <time>2022-05-03T08:25:29.000Z</time>
      </trkpt>
      <trkpt lat="40.83476250059902667999267578125" lon="-1.341688893735408782958984375">
        <ele>923.20001220703125</ele>
        <time>2022-05-03T08:25:31.000Z</time>
      </trkpt>
      <trkpt lat="40.8346836268901824951171875" lon="-1.34168596006929874420166015625">
        <ele>923.20001220703125</ele>
        <time>2022-05-03T08:25:33.000Z</time>
      </trkpt>
      <trkpt lat="40.8346060104668140411376953125" lon="-1.3416920788586139678955078125">
        <ele>923.20001220703125</ele>
        <time>2022-05-03T08:25:35.000Z</time>
      </trkpt>
      <trkpt lat="40.83452294580638408660888671875" lon="-1.341694928705692291259765625">
        <ele>923.20001220703125</ele>
        <time>2022-05-03T08:25:37.000Z</time>
      </trkpt>
      <trkpt lat="40.834437198936939239501953125" lon="-1.34169937111437320709228515625">
        <ele>923.4000244140625</ele>
        <time>2022-05-03T08:25:39.000Z</time>
      </trkpt>
      <trkpt lat="40.83439461886882781982421875" lon="-1.3417018018662929534912109375">
        <ele>923.4000244140625</ele>
        <time>2022-05-03T08:25:40.000Z</time>
      </trkpt>
      <trkpt lat="40.83435346372425556182861328125" lon="-1.341702975332736968994140625">
        <ele>923.4000244140625</ele>
        <time>2022-05-03T08:25:41.000Z</time>
      </trkpt>
      <trkpt lat="40.83427232690155506134033203125" lon="-1.341702975332736968994140625">
        <ele>923.5999755859375</ele>
        <time>2022-05-03T08:25:43.000Z</time>
      </trkpt>
      <trkpt lat="40.83419387228786945343017578125" lon="-1.3417024724185466766357421875">
        <ele>923.5999755859375</ele>
        <time>2022-05-03T08:25:45.000Z</time>
      </trkpt>
      <trkpt lat="40.83411541767418384552001953125" lon="-1.3417101837694644927978515625">
        <ele>923.79998779296875</ele>
        <time>2022-05-03T08:25:47.000Z</time>
      </trkpt>
      <trkpt lat="40.83407409489154815673828125" lon="-1.34171714074909687042236328125">
        <ele>923.79998779296875</ele>
        <time>2022-05-03T08:25:48.000Z</time>
      </trkpt>
      <trkpt lat="40.83402958698570728302001953125" lon="-1.34172049351036548614501953125">
        <ele>923.79998779296875</ele>
        <time>2022-05-03T08:25:49.000Z</time>
      </trkpt>
      <trkpt lat="40.8339374698698520660400390625" lon="-1.3417225889861583709716796875">
        <ele>924</ele>
        <time>2022-05-03T08:25:51.000Z</time>
      </trkpt>
      <trkpt lat="40.83384300582110881805419921875" lon="-1.34172451682388782501220703125">
        <ele>924</ele>
        <time>2022-05-03T08:25:53.000Z</time>
      </trkpt>
      <trkpt lat="40.83374686539173126220703125" lon="-1.34172585792839527130126953125">
        <ele>924.20001220703125</ele>
        <time>2022-05-03T08:25:55.000Z</time>
      </trkpt>
      <trkpt lat="40.833699591457843780517578125" lon="-1.3417282886803150177001953125">
        <ele>924.20001220703125</ele>
        <time>2022-05-03T08:25:56.000Z</time>
      </trkpt>
      <trkpt lat="40.83365307189524173736572265625" lon="-1.34173021651804447174072265625">
        <ele>924.20001220703125</ele>
        <time>2022-05-03T08:25:57.000Z</time>
      </trkpt>
      <trkpt lat="40.8335646428167819976806640625" lon="-1.3417239300906658172607421875">
        <ele>924.4000244140625</ele>
        <time>2022-05-03T08:25:59.000Z</time>
      </trkpt>
      <trkpt lat="40.83347721956670284271240234375" lon="-1.34171009995043277740478515625">
        <ele>924.79998779296875</ele>
        <time>2022-05-03T08:26:01.000Z</time>
      </trkpt>
      <trkpt lat="40.833432041108608245849609375" lon="-1.3417064957320690155029296875">
        <ele>924.79998779296875</ele>
        <time>2022-05-03T08:26:02.000Z</time>
      </trkpt>
      <trkpt lat="40.8333862759172916412353515625" lon="-1.3417064957320690155029296875">
        <ele>925</ele>
        <time>2022-05-03T08:26:03.000Z</time>
      </trkpt>
      <trkpt lat="40.833292566239833831787109375" lon="-1.34171001613140106201171875">
        <ele>925.20001220703125</ele>
        <time>2022-05-03T08:26:05.000Z</time>
      </trkpt>
      <trkpt lat="40.83320111967623233795166015625" lon="-1.34171261452138423919677734375">
        <ele>925.4000244140625</ele>
        <time>2022-05-03T08:26:07.000Z</time>
      </trkpt>
      <trkpt lat="40.8331562764942646026611328125" lon="-1.341715045273303985595703125">
        <ele>925.4000244140625</ele>
        <time>2022-05-03T08:26:08.000Z</time>
      </trkpt>
      <trkpt lat="40.83311193622648715972900390625" lon="-1.34171697311103343963623046875">
        <ele>925.5999755859375</ele>
        <time>2022-05-03T08:26:09.000Z</time>
      </trkpt>
      <trkpt lat="40.83306767977774143218994140625" lon="-1.3417168892920017242431640625">
        <ele>925.5999755859375</ele>
        <time>2022-05-03T08:26:10.000Z</time>
      </trkpt>
      <trkpt lat="40.8330235071480274200439453125" lon="-1.34171647019684314727783203125">
        <ele>925.79998779296875</ele>
        <time>2022-05-03T08:26:11.000Z</time>
      </trkpt>
      <trkpt lat="40.83293616771697998046875" lon="-1.3417192362248897552490234375">
        <ele>925.79998779296875</ele>
        <time>2022-05-03T08:26:13.000Z</time>
      </trkpt>
      <trkpt lat="40.83284790627658367156982421875" lon="-1.341727785766124725341796875">
        <ele>925.5999755859375</ele>
        <time>2022-05-03T08:26:15.000Z</time>
      </trkpt>
      <trkpt lat="40.83280599676072597503662109375" lon="-1.3417393527925014495849609375">
        <ele>925.5999755859375</ele>
        <time>2022-05-03T08:26:16.000Z</time>
      </trkpt>
      <trkpt lat="40.8327666856348514556884765625" lon="-1.34175603277981281280517578125">
        <ele>925.5999755859375</ele>
        <time>2022-05-03T08:26:17.000Z</time>
      </trkpt>
      <trkpt lat="40.83273055963218212127685546875" lon="-1.34176961146295070648193359375">
        <ele>925.5999755859375</ele>
        <time>2022-05-03T08:26:18.000Z</time>
      </trkpt>
      <trkpt lat="40.8326956070959568023681640625" lon="-1.3417748920619487762451171875">
        <ele>925.4000244140625</ele>
        <time>2022-05-03T08:26:19.000Z</time>
      </trkpt>
      <trkpt lat="40.83261765539646148681640625" lon="-1.34177112020552158355712890625">
        <ele>925.4000244140625</ele>
        <time>2022-05-03T08:26:21.000Z</time>
      </trkpt>
      <trkpt lat="40.832576416432857513427734375" lon="-1.3417758978903293609619140625">
        <ele>925.20001220703125</ele>
        <time>2022-05-03T08:26:22.000Z</time>
      </trkpt>
      <trkpt lat="40.83253450691699981689453125" lon="-1.341778747737407684326171875">
        <ele>925.20001220703125</ele>
        <time>2022-05-03T08:26:23.000Z</time>
      </trkpt>
      <trkpt lat="40.83249117247760295867919921875" lon="-1.34177765808999538421630859375">
        <ele>925</ele>
        <time>2022-05-03T08:26:24.000Z</time>
      </trkpt>
      <trkpt lat="40.83244741894304752349853515625" lon="-1.34177514351904392242431640625">
        <ele>925</ele>
        <time>2022-05-03T08:26:25.000Z</time>
      </trkpt>
      <trkpt lat="40.83235756494104862213134765625" lon="-1.34176726453006267547607421875">
        <ele>924.5999755859375</ele>
        <time>2022-05-03T08:26:27.000Z</time>
      </trkpt>
      <trkpt lat="40.8323133923113346099853515625" lon="-1.3417571224272251129150390625">
        <ele>924.5999755859375</ele>
        <time>2022-05-03T08:26:28.000Z</time>
      </trkpt>
      <trkpt lat="40.8322704769670963287353515625" lon="-1.34174220263957977294921875">
        <ele>924.4000244140625</ele>
        <time>2022-05-03T08:26:29.000Z</time>
      </trkpt>
      <trkpt lat="40.8321839757263660430908203125" lon="-1.34172066114842891693115234375">
        <ele>924.20001220703125</ele>
        <time>2022-05-03T08:26:31.000Z</time>
      </trkpt>
      <trkpt lat="40.83209420554339885711669921875" lon="-1.34170825593173503875732421875">
        <ele>924.20001220703125</ele>
        <time>2022-05-03T08:26:33.000Z</time>
      </trkpt>
      <trkpt lat="40.83200208842754364013671875" lon="-1.3417007960379123687744140625">
        <ele>924</ele>
        <time>2022-05-03T08:26:35.000Z</time>
      </trkpt>
      <trkpt lat="40.83190997131168842315673828125" lon="-1.34169392287731170654296875">
        <ele>924</ele>
        <time>2022-05-03T08:26:37.000Z</time>
      </trkpt>
      <trkpt lat="40.8318175189197063446044921875" lon="-1.34168596006929874420166015625">
        <ele>924</ele>
        <time>2022-05-03T08:26:39.000Z</time>
      </trkpt>
      <trkpt lat="40.83172447979450225830078125" lon="-1.34167782962322235107421875">
        <ele>924</ele>
        <time>2022-05-03T08:26:41.000Z</time>
      </trkpt>
      <trkpt lat="40.8316311053931713104248046875" lon="-1.34167003445327281951904296875">
        <ele>924</ele>
        <time>2022-05-03T08:26:43.000Z</time>
      </trkpt>
      <trkpt lat="40.83153781481087207794189453125" lon="-1.3416608981788158416748046875">
        <ele>924</ele>
        <time>2022-05-03T08:26:45.000Z</time>
      </trkpt>
      <trkpt lat="40.83144393749535083770751953125" lon="-1.341650001704692840576171875">
        <ele>924</ele>
        <time>2022-05-03T08:26:47.000Z</time>
      </trkpt>
      <trkpt lat="40.8313970826566219329833984375" lon="-1.34164430201053619384765625">
        <ele>924</ele>
        <time>2022-05-03T08:26:48.000Z</time>
      </trkpt>
      <trkpt lat="40.83135039545595645904541015625" lon="-1.341638267040252685546875">
        <ele>924</ele>
        <time>2022-05-03T08:26:49.000Z</time>
      </trkpt>
      <trkpt lat="40.831256099045276641845703125" lon="-1.341627538204193115234375">
        <ele>924.20001220703125</ele>
        <time>2022-05-03T08:26:51.000Z</time>
      </trkpt>
      <trkpt lat="40.83116113208234310150146484375" lon="-1.3416159711778163909912109375">
        <ele>924.4000244140625</ele>
        <time>2022-05-03T08:26:53.000Z</time>
      </trkpt>
      <trkpt lat="40.83106691949069499969482421875" lon="-1.3416039012372493743896484375">
        <ele>924.5999755859375</ele>
        <time>2022-05-03T08:26:55.000Z</time>
      </trkpt>
      <trkpt lat="40.8309726230800151824951171875" lon="-1.3415914960205554962158203125">
        <ele>924.79998779296875</ele>
        <time>2022-05-03T08:26:57.000Z</time>
      </trkpt>
      <trkpt lat="40.8308807574212551116943359375" lon="-1.3415777496993541717529296875">
        <ele>925</ele>
        <time>2022-05-03T08:26:59.000Z</time>
      </trkpt>
      <trkpt lat="40.83079014904797077178955078125" lon="-1.34156358428299427032470703125">
        <ele>925.4000244140625</ele>
        <time>2022-05-03T08:27:01.000Z</time>
      </trkpt>
      <trkpt lat="40.83070029504597187042236328125" lon="-1.341552101075649261474609375">
        <ele>925.5999755859375</ele>
        <time>2022-05-03T08:27:03.000Z</time>
      </trkpt>
      <trkpt lat="40.83061077632009983062744140625" lon="-1.341542042791843414306640625">
        <ele>925.79998779296875</ele>
        <time>2022-05-03T08:27:05.000Z</time>
      </trkpt>
      <trkpt lat="40.83052217960357666015625" lon="-1.3415281288325786590576171875">
        <ele>926</ele>
        <time>2022-05-03T08:27:07.000Z</time>
      </trkpt>
      <trkpt lat="40.83043224178254604339599609375" lon="-1.341514550149440765380859375">
        <ele>926</ele>
        <time>2022-05-03T08:27:09.000Z</time>
      </trkpt>
      <trkpt lat="40.83038714714348316192626953125" lon="-1.34150759316980838775634765625">
        <ele>926</ele>
        <time>2022-05-03T08:27:10.000Z</time>
      </trkpt>
      <trkpt lat="40.83034255541861057281494140625" lon="-1.341499797999858856201171875">
        <ele>926</ele>
        <time>2022-05-03T08:27:11.000Z</time>
      </trkpt>
      <trkpt lat="40.83025320433080196380615234375" lon="-1.3414838723838329315185546875">
        <ele>926</ele>
        <time>2022-05-03T08:27:13.000Z</time>
      </trkpt>
      <trkpt lat="40.83016234450042247772216796875" lon="-1.341466940939426422119140625">
        <ele>926</ele>
        <time>2022-05-03T08:27:15.000Z</time>
      </trkpt>
      <trkpt lat="40.830072574317455291748046875" lon="-1.341450512409210205078125">
        <ele>926</ele>
        <time>2022-05-03T08:27:17.000Z</time>
      </trkpt>
      <trkpt lat="40.829984731972217559814453125" lon="-1.341434419155120849609375">
        <ele>925.79998779296875</ele>
        <time>2022-05-03T08:27:19.000Z</time>
      </trkpt>
      <trkpt lat="40.8298967219889163970947265625" lon="-1.34141958318650722503662109375">
        <ele>925.79998779296875</ele>
        <time>2022-05-03T08:27:21.000Z</time>
      </trkpt>
      <trkpt lat="40.82985221408307552337646484375" lon="-1.3414116203784942626953125">
        <ele>925.79998779296875</ele>
        <time>2022-05-03T08:27:22.000Z</time>
      </trkpt>
      <trkpt lat="40.82980804145336151123046875" lon="-1.3414044119417667388916015625">
        <ele>925.79998779296875</ele>
        <time>2022-05-03T08:27:23.000Z</time>
      </trkpt>
      <trkpt lat="40.8297190256416797637939453125" lon="-1.34138940833508968353271484375">
        <ele>926</ele>
        <time>2022-05-03T08:27:25.000Z</time>
      </trkpt>
      <trkpt lat="40.82963143475353717803955078125" lon="-1.34137331508100032806396484375">
        <ele>926</ele>
        <time>2022-05-03T08:27:27.000Z</time>
      </trkpt>
      <trkpt lat="40.8295436762273311614990234375" lon="-1.34135755710303783416748046875">
        <ele>926</ele>
        <time>2022-05-03T08:27:29.000Z</time>
      </trkpt>
      <trkpt lat="40.8294561691582202911376953125" lon="-1.3413417153060436248779296875">
        <ele>926.20001220703125</ele>
        <time>2022-05-03T08:27:31.000Z</time>
      </trkpt>
      <trkpt lat="40.82937084138393402099609375" lon="-1.34132939390838146209716796875">
        <ele>926.20001220703125</ele>
        <time>2022-05-03T08:27:33.000Z</time>
      </trkpt>
      <trkpt lat="40.829286016523838043212890625" lon="-1.34131371974945068359375">
        <ele>926.4000244140625</ele>
        <time>2022-05-03T08:27:35.000Z</time>
      </trkpt>
      <trkpt lat="40.82920144312083721160888671875" lon="-1.3412998057901859283447265625">
        <ele>926.4000244140625</ele>
        <time>2022-05-03T08:27:37.000Z</time>
      </trkpt>
      <trkpt lat="40.82912432961165904998779296875" lon="-1.3412907533347606658935546875">
        <ele>926.4000244140625</ele>
        <time>2022-05-03T08:27:39.000Z</time>
      </trkpt>
      <trkpt lat="40.82909398712217807769775390625" lon="-1.34128748439252376556396484375">
        <ele>926.5999755859375</ele>
        <time>2022-05-03T08:27:40.000Z</time>
      </trkpt>
      <trkpt lat="40.8290655724704265594482421875" lon="-1.341284215450286865234375">
        <ele>926.5999755859375</ele>
        <time>2022-05-03T08:27:41.000Z</time>
      </trkpt>
      <trkpt lat="40.82903556525707244873046875" lon="-1.3412830419838428497314453125">
        <ele>926.5999755859375</ele>
        <time>2022-05-03T08:27:42.000Z</time>
      </trkpt>
      <trkpt lat="40.82900497131049633026123046875" lon="-1.3412843830883502960205078125">
        <ele>926.5999755859375</ele>
        <time>2022-05-03T08:27:43.000Z</time>
      </trkpt>
      <trkpt lat="40.828947387635707855224609375" lon="-1.3412843830883502960205078125">
        <ele>926.79998779296875</ele>
        <time>2022-05-03T08:27:45.000Z</time>
      </trkpt>
      <trkpt lat="40.82888762466609477996826171875" lon="-1.34128178469836711883544921875">
        <ele>926.79998779296875</ele>
        <time>2022-05-03T08:27:47.000Z</time>
      </trkpt>
      <trkpt lat="40.82882794551551342010498046875" lon="-1.34127549827098846435546875">
        <ele>926.79998779296875</ele>
        <time>2022-05-03T08:27:49.000Z</time>
      </trkpt>
      <trkpt lat="40.82880028523504734039306640625" lon="-1.3412729837000370025634765625">
        <ele>926.79998779296875</ele>
        <time>2022-05-03T08:27:50.000Z</time>
      </trkpt>
      <trkpt lat="40.8287720382213592529296875" lon="-1.34127147495746612548828125">
        <ele>926.79998779296875</ele>
        <time>2022-05-03T08:27:51.000Z</time>
      </trkpt>
      <trkpt lat="40.8287108503282070159912109375" lon="-1.3412689603865146636962890625">
        <ele>927</ele>
        <time>2022-05-03T08:27:53.000Z</time>
      </trkpt>
      <trkpt lat="40.82863801158964633941650390625" lon="-1.3412709720432758331298828125">
        <ele>927</ele>
        <time>2022-05-03T08:27:55.000Z</time>
      </trkpt>
      <trkpt lat="40.82856374792754650115966796875" lon="-1.34128245525062084197998046875">
        <ele>927.20001220703125</ele>
        <time>2022-05-03T08:27:57.000Z</time>
      </trkpt>
      <trkpt lat="40.8284996263682842254638671875" lon="-1.34128228761255741119384765625">
        <ele>927.20001220703125</ele>
        <time>2022-05-03T08:27:59.000Z</time>
      </trkpt>
      <trkpt lat="40.82844682037830352783203125" lon="-1.341255046427249908447265625">
        <ele>927.20001220703125</ele>
        <time>2022-05-03T08:28:01.000Z</time>
      </trkpt>
      <trkpt lat="40.82841890864074230194091796875" lon="-1.34123920463025569915771484375">
        <ele>927.20001220703125</ele>
        <time>2022-05-03T08:28:02.000Z</time>
      </trkpt>
      <trkpt lat="40.8283883146941661834716796875" lon="-1.34122998453676700592041015625">
        <ele>927.4000244140625</ele>
        <time>2022-05-03T08:28:03.000Z</time>
      </trkpt>
      <trkpt lat="40.82832201384007930755615234375" lon="-1.3412330858409404754638671875">
        <ele>927.4000244140625</ele>
        <time>2022-05-03T08:28:05.000Z</time>
      </trkpt>
      <trkpt lat="40.8282867260277271270751953125" lon="-1.34124222211539745330810546875">
        <ele>927.4000244140625</ele>
        <time>2022-05-03T08:28:06.000Z</time>
      </trkpt>
      <trkpt lat="40.82824892364442348480224609375" lon="-1.34125496260821819305419921875">
        <ele>927.4000244140625</ele>
        <time>2022-05-03T08:28:07.000Z</time>
      </trkpt>
      <trkpt lat="40.8281663618981838226318359375" lon="-1.3412863947451114654541015625">
        <ele>927.5999755859375</ele>
        <time>2022-05-03T08:28:09.000Z</time>
      </trkpt>
      <trkpt lat="40.82808178849518299102783203125" lon="-1.3413212634623050689697265625">
        <ele>927.5999755859375</ele>
        <time>2022-05-03T08:28:11.000Z</time>
      </trkpt>
      <trkpt lat="40.827994532883167266845703125" lon="-1.3413526117801666259765625">
        <ele>927.79998779296875</ele>
        <time>2022-05-03T08:28:13.000Z</time>
      </trkpt>
      <trkpt lat="40.82790593616664409637451171875" lon="-1.34138622321188449859619140625">
        <ele>928</ele>
        <time>2022-05-03T08:28:15.000Z</time>
      </trkpt>
      <trkpt lat="40.827816836535930633544921875" lon="-1.34141991846263408660888671875">
        <ele>928.20001220703125</ele>
        <time>2022-05-03T08:28:17.000Z</time>
      </trkpt>
      <trkpt lat="40.8277258090674877166748046875" lon="-1.34145126678049564361572265625">
        <ele>928.4000244140625</ele>
        <time>2022-05-03T08:28:19.000Z</time>
      </trkpt>
      <trkpt lat="40.8276356197893619537353515625" lon="-1.341482363641262054443359375">
        <ele>928.5999755859375</ele>
        <time>2022-05-03T08:28:21.000Z</time>
      </trkpt>
      <trkpt lat="40.82754501141607761383056640625" lon="-1.341517902910709381103515625">
        <ele>928.5999755859375</ele>
        <time>2022-05-03T08:28:23.000Z</time>
      </trkpt>
      <trkpt lat="40.82745264284312725067138671875" lon="-1.3415596447885036468505859375">
        <ele>928.79998779296875</ele>
        <time>2022-05-03T08:28:25.000Z</time>
      </trkpt>
      <trkpt lat="40.82735809497535228729248046875" lon="-1.3416045717895030975341796875">
        <ele>928.79998779296875</ele>
        <time>2022-05-03T08:28:27.000Z</time>
      </trkpt>
      <trkpt lat="40.8272637985646724700927734375" lon="-1.34165025316178798675537109375">
        <ele>929</ele>
        <time>2022-05-03T08:28:29.000Z</time>
      </trkpt>
      <trkpt lat="40.827172435820102691650390625" lon="-1.341694928705692291259765625">
        <ele>929</ele>
        <time>2022-05-03T08:28:31.000Z</time>
      </trkpt>
      <trkpt lat="40.82708585076034069061279296875" lon="-1.3417442142963409423828125">
        <ele>928.79998779296875</ele>
        <time>2022-05-03T08:28:33.000Z</time>
      </trkpt>
      <trkpt lat="40.827000103890895843505859375" lon="-1.3417960144579410552978515625">
        <ele>928.79998779296875</ele>
        <time>2022-05-03T08:28:35.000Z</time>
      </trkpt>
      <trkpt lat="40.82691687159240245819091796875" lon="-1.34184706024825572967529296875">
        <ele>928.5999755859375</ele>
        <time>2022-05-03T08:28:37.000Z</time>
      </trkpt>
      <trkpt lat="40.8268376626074314117431640625" lon="-1.34189508855342864990234375">
        <ele>928.5999755859375</ele>
        <time>2022-05-03T08:28:39.000Z</time>
      </trkpt>
      <trkpt lat="40.82676147110760211944580078125" lon="-1.3419445417821407318115234375">
        <ele>928.4000244140625</ele>
        <time>2022-05-03T08:28:41.000Z</time>
      </trkpt>
      <trkpt lat="40.82672257907688617706298828125" lon="-1.341969184577465057373046875">
        <ele>928.4000244140625</ele>
        <time>2022-05-03T08:28:42.000Z</time>
      </trkpt>
      <trkpt lat="40.82668351940810680389404296875" lon="-1.34199324063956737518310546875">
        <ele>928.4000244140625</ele>
        <time>2022-05-03T08:28:43.000Z</time>
      </trkpt>
      <trkpt lat="40.8266053162515163421630859375" lon="-1.3420379161834716796875">
        <ele>928.20001220703125</ele>
        <time>2022-05-03T08:28:45.000Z</time>
      </trkpt>
      <trkpt lat="40.8265302143990993499755859375" lon="-1.34207420982420444488525390625">
        <ele>928.20001220703125</ele>
        <time>2022-05-03T08:28:47.000Z</time>
      </trkpt>
      <trkpt lat="40.8264541067183017730712890625" lon="-1.342092566192150115966796875">
        <ele>928</ele>
        <time>2022-05-03T08:28:49.000Z</time>
      </trkpt>
      <trkpt lat="40.826378501951694488525390625" lon="-1.34209516458213329315185546875">
        <ele>928</ele>
        <time>2022-05-03T08:28:51.000Z</time>
      </trkpt>
      <trkpt lat="40.8263434655964374542236328125" lon="-1.342087872326374053955078125">
        <ele>928.20001220703125</ele>
        <time>2022-05-03T08:28:52.000Z</time>
      </trkpt>
      <trkpt lat="40.826310776174068450927734375" lon="-1.342075802385807037353515625">
        <ele>928.20001220703125</ele>
        <time>2022-05-03T08:28:53.000Z</time>
      </trkpt>
      <trkpt lat="40.826281942427158355712890625" lon="-1.34205962531268596649169921875">
        <ele>928.20001220703125</ele>
        <time>2022-05-03T08:28:54.000Z</time>
      </trkpt>
      <trkpt lat="40.826256461441516876220703125" lon="-1.34204261004924774169921875">
        <ele>928.4000244140625</ele>
        <time>2022-05-03T08:28:55.000Z</time>
      </trkpt>
      <trkpt lat="40.8262145519256591796875" lon="-1.34201285429298877716064453125">
        <ele>928.4000244140625</ele>
        <time>2022-05-03T08:28:57.000Z</time>
      </trkpt>
      <trkpt lat="40.8261721394956111907958984375" lon="-1.34197932668030261993408203125">
        <ele>928.5999755859375</ele>
        <time>2022-05-03T08:28:59.000Z</time>
      </trkpt>
      <trkpt lat="40.82615160383284091949462890625" lon="-1.34195501916110515594482421875">
        <ele>928.5999755859375</ele>
        <time>2022-05-03T08:29:00.000Z</time>
      </trkpt>
      <trkpt lat="40.82613500766456127166748046875" lon="-1.3419237546622753143310546875">
        <ele>928.5999755859375</ele>
        <time>2022-05-03T08:29:01.000Z</time>
      </trkpt>
      <trkpt lat="40.826127715408802032470703125" lon="-1.3418479822576045989990234375">
        <ele>928.5999755859375</ele>
        <time>2022-05-03T08:29:03.000Z</time>
      </trkpt>
      <trkpt lat="40.8261345885694026947021484375" lon="-1.3418067432940006256103515625">
        <ele>928.5999755859375</ele>
        <time>2022-05-03T08:29:04.000Z</time>
      </trkpt>
      <trkpt lat="40.82614389248192310333251953125" lon="-1.34176206775009632110595703125">
        <ele>928.5999755859375</ele>
        <time>2022-05-03T08:29:05.000Z</time>
      </trkpt>
      <trkpt lat="40.82616216503083705902099609375" lon="-1.34166835807263851165771484375">
        <ele>928.5999755859375</ele>
        <time>2022-05-03T08:29:07.000Z</time>
      </trkpt>
      <trkpt lat="40.82617901265621185302734375" lon="-1.341572217643260955810546875">
        <ele>928.4000244140625</ele>
        <time>2022-05-03T08:29:09.000Z</time>
      </trkpt>
      <trkpt lat="40.82618043757975101470947265625" lon="-1.34147373028099536895751953125">
        <ele>928.20001220703125</ele>
        <time>2022-05-03T08:29:11.000Z</time>
      </trkpt>
      <trkpt lat="40.82616719417273998260498046875" lon="-1.34142679162323474884033203125">
        <ele>928.20001220703125</ele>
        <time>2022-05-03T08:29:12.000Z</time>
      </trkpt>
      <trkpt lat="40.8261443115770816802978515625" lon="-1.3413883186876773834228515625">
        <ele>928.20001220703125</ele>
        <time>2022-05-03T08:29:13.000Z</time>
      </trkpt>
      <trkpt lat="40.82607633434236049652099609375" lon="-1.34133609943091869354248046875">
        <ele>928.4000244140625</ele>
        <time>2022-05-03T08:29:15.000Z</time>
      </trkpt>
      <trkpt lat="40.8259944431483745574951171875" lon="-1.3412964530289173126220703125">
        <ele>928.4000244140625</ele>
        <time>2022-05-03T08:29:17.000Z</time>
      </trkpt>
      <trkpt lat="40.82590878009796142578125" lon="-1.3412640988826751708984375">
        <ele>928.5999755859375</ele>
        <time>2022-05-03T08:29:19.000Z</time>
      </trkpt>
      <trkpt lat="40.8258257992565631866455078125" lon="-1.34123719297349452972412109375">
        <ele>928.5999755859375</ele>
        <time>2022-05-03T08:29:21.000Z</time>
      </trkpt>
      <trkpt lat="40.82574508152902126312255859375" lon="-1.3412055931985378265380859375">
        <ele>928.5999755859375</ele>
        <time>2022-05-03T08:29:23.000Z</time>
      </trkpt>
      <trkpt lat="40.82567182369530200958251953125" lon="-1.34116418659687042236328125">
        <ele>928.5999755859375</ele>
        <time>2022-05-03T08:29:25.000Z</time>
      </trkpt>
      <trkpt lat="40.82561767660081386566162109375" lon="-1.34110224433243274688720703125">
        <ele>928.5999755859375</ele>
        <time>2022-05-03T08:29:27.000Z</time>
      </trkpt>
      <trkpt lat="40.82559957168996334075927734375" lon="-1.34106435813009738922119140625">
        <ele>928.5999755859375</ele>
        <time>2022-05-03T08:29:28.000Z</time>
      </trkpt>
      <trkpt lat="40.8255847357213497161865234375" lon="-1.34102228097617626190185546875">
        <ele>928.4000244140625</ele>
        <time>2022-05-03T08:29:29.000Z</time>
      </trkpt>
      <trkpt lat="40.82555917091667652130126953125" lon="-1.3409276492893695831298828125">
        <ele>928.4000244140625</ele>
        <time>2022-05-03T08:29:31.000Z</time>
      </trkpt>
      <trkpt lat="40.825536958873271942138671875" lon="-1.34082564152777194976806640625">
        <ele>928.20001220703125</ele>
        <time>2022-05-03T08:29:33.000Z</time>
      </trkpt>
      <trkpt lat="40.82551843486726284027099609375" lon="-1.34077652357518672943115234375">
        <ele>928.20001220703125</ele>
        <time>2022-05-03T08:29:34.000Z</time>
      </trkpt>
      <trkpt lat="40.82549513317644596099853515625" lon="-1.3407301716506481170654296875">
        <ele>928.20001220703125</ele>
        <time>2022-05-03T08:29:35.000Z</time>
      </trkpt>
      <trkpt lat="40.82543738186359405517578125" lon="-1.3406470231711864471435546875">
        <ele>928</ele>
        <time>2022-05-03T08:29:37.000Z</time>
      </trkpt>
      <trkpt lat="40.82536655478179454803466796875" lon="-1.3405943848192691802978515625">
        <ele>928</ele>
        <time>2022-05-03T08:29:39.000Z</time>
      </trkpt>
      <trkpt lat="40.82533285953104496002197265625" lon="-1.3405769504606723785400390625">
        <ele>928</ele>
        <time>2022-05-03T08:29:40.000Z</time>
      </trkpt>
      <trkpt lat="40.8253024332225322723388671875" lon="-1.34056379087269306182861328125">
        <ele>928</ele>
        <time>2022-05-03T08:29:41.000Z</time>
      </trkpt>
      <trkpt lat="40.82524736411869525909423828125" lon="-1.34055800735950469970703125">
        <ele>928</ele>
        <time>2022-05-03T08:29:43.000Z</time>
      </trkpt>
      <trkpt lat="40.82521953620016574859619140625" lon="-1.34055842645466327667236328125">
        <ele>928</ele>
        <time>2022-05-03T08:29:44.000Z</time>
      </trkpt>
      <trkpt lat="40.82519195973873138427734375" lon="-1.34055574424564838409423828125">
        <ele>928</ele>
        <time>2022-05-03T08:29:45.000Z</time>
      </trkpt>
      <trkpt lat="40.82514829002320766448974609375" lon="-1.3405457697808742523193359375">
        <ele>928</ele>
        <time>2022-05-03T08:29:47.000Z</time>
      </trkpt>
      <trkpt lat="40.825113840401172637939453125" lon="-1.34053730405867099761962890625">
        <ele>928</ele>
        <time>2022-05-03T08:29:49.000Z</time>
      </trkpt>
      <trkpt lat="40.82510017789900302886962890625" lon="-1.340535543859004974365234375">
        <ele>928</ele>
        <time>2022-05-03T08:29:50.000Z</time>
      </trkpt>
      <trkpt lat="40.825087018311023712158203125" lon="-1.3405340351164340972900390625">
        <ele>928</ele>
        <time>2022-05-03T08:29:51.000Z</time>
      </trkpt>
      <trkpt lat="40.825054831802845001220703125" lon="-1.3405303470790386199951171875">
        <ele>928</ele>
        <time>2022-05-03T08:29:53.000Z</time>
      </trkpt>
      <trkpt lat="40.8250151015818119049072265625" lon="-1.34052623994648456573486328125">
        <ele>928</ele>
        <time>2022-05-03T08:29:55.000Z</time>
      </trkpt>
      <trkpt lat="40.82496640272438526153564453125" lon="-1.340518109500408172607421875">
        <ele>928</ele>
        <time>2022-05-03T08:29:57.000Z</time>
      </trkpt>
      <trkpt lat="40.82490806467831134796142578125" lon="-1.34050679393112659454345703125">
        <ele>928</ele>
        <time>2022-05-03T08:29:59.000Z</time>
      </trkpt>
      <trkpt lat="40.82484193146228790283203125" lon="-1.34049556218087673187255859375">
        <ele>928</ele>
        <time>2022-05-03T08:30:01.000Z</time>
      </trkpt>
      <trkpt lat="40.8247690089046955108642578125" lon="-1.34047796018421649932861328125">
        <ele>927.79998779296875</ele>
        <time>2022-05-03T08:30:03.000Z</time>
      </trkpt>
      <trkpt lat="40.8247304521501064300537109375" lon="-1.3404693268239498138427734375">
        <ele>927.79998779296875</ele>
        <time>2022-05-03T08:30:04.000Z</time>
      </trkpt>
      <trkpt lat="40.8246898837387561798095703125" lon="-1.34046186693012714385986328125">
        <ele>927.79998779296875</ele>
        <time>2022-05-03T08:30:05.000Z</time>
      </trkpt>
      <trkpt lat="40.82460748963057994842529296875" lon="-1.34044594131410121917724609375">
        <ele>928</ele>
        <time>2022-05-03T08:30:07.000Z</time>
      </trkpt>
      <trkpt lat="40.82452543079853057861328125" lon="-1.34043135680258274078369140625">
        <ele>928.20001220703125</ele>
        <time>2022-05-03T08:30:09.000Z</time>
      </trkpt>
      <trkpt lat="40.82444353960454463958740234375" lon="-1.34041811339557170867919921875">
        <ele>928.4000244140625</ele>
        <time>2022-05-03T08:30:11.000Z</time>
      </trkpt>
      <trkpt lat="40.8243613131344318389892578125" lon="-1.3404116593301296234130859375">
        <ele>928.5999755859375</ele>
        <time>2022-05-03T08:30:13.000Z</time>
      </trkpt>
      <trkpt lat="40.8242774941027164459228515625" lon="-1.34041341952979564666748046875">
        <ele>928.79998779296875</ele>
        <time>2022-05-03T08:30:15.000Z</time>
      </trkpt>
      <trkpt lat="40.824196524918079376220703125" lon="-1.3404482044279575347900390625">
        <ele>929</ele>
        <time>2022-05-03T08:30:17.000Z</time>
      </trkpt>
      <trkpt lat="40.8241608180105686187744140625" lon="-1.34047779254615306854248046875">
        <ele>929.20001220703125</ele>
        <time>2022-05-03T08:30:18.000Z</time>
      </trkpt>
      <trkpt lat="40.82413156516849994659423828125" lon="-1.340516097843647003173828125">
        <ele>929.20001220703125</ele>
        <time>2022-05-03T08:30:19.000Z</time>
      </trkpt>
      <trkpt lat="40.82408647052943706512451171875" lon="-1.34061492048203945159912109375">
        <ele>929.4000244140625</ele>
        <time>2022-05-03T08:30:21.000Z</time>
      </trkpt>
      <trkpt lat="40.82407238893210887908935546875" lon="-1.34067024104297161102294921875">
        <ele>929.5999755859375</ele>
        <time>2022-05-03T08:30:22.000Z</time>
      </trkpt>
      <trkpt lat="40.82406300120055675506591796875" lon="-1.340727992355823516845703125">
        <ele>929.5999755859375</ele>
        <time>2022-05-03T08:30:23.000Z</time>
      </trkpt>
      <trkpt lat="40.82405579276382923126220703125" lon="-1.34078540839254856109619140625">
        <ele>929.5999755859375</ele>
        <time>2022-05-03T08:30:24.000Z</time>
      </trkpt>
      <trkpt lat="40.82404975779354572296142578125" lon="-1.3408424891531467437744140625">
        <ele>929.5999755859375</ele>
        <time>2022-05-03T08:30:25.000Z</time>
      </trkpt>
      <trkpt lat="40.8240401186048984527587890625" lon="-1.34095489047467708587646484375">
        <ele>929.5999755859375</ele>
        <time>2022-05-03T08:30:27.000Z</time>
      </trkpt>
      <trkpt lat="40.8240280486643314361572265625" lon="-1.34105949662625789642333984375">
        <ele>929.5999755859375</ele>
        <time>2022-05-03T08:30:29.000Z</time>
      </trkpt>
      <trkpt lat="40.8239978738129138946533203125" lon="-1.34115471504628658294677734375">
        <ele>929.79998779296875</ele>
        <time>2022-05-03T08:30:31.000Z</time>
      </trkpt>
      <trkpt lat="40.8239737339317798614501953125" lon="-1.3411978818476200103759765625">
        <ele>929.79998779296875</ele>
        <time>2022-05-03T08:30:32.000Z</time>
      </trkpt>
      <trkpt lat="40.8239440619945526123046875" lon="-1.341236941516399383544921875">
        <ele>929.79998779296875</ele>
        <time>2022-05-03T08:30:33.000Z</time>
      </trkpt>
      <trkpt lat="40.823873318731784820556640625" lon="-1.34129167534410953521728515625">
        <ele>930</ele>
        <time>2022-05-03T08:30:35.000Z</time>
      </trkpt>
      <trkpt lat="40.823796205222606658935546875" lon="-1.34131212718784809112548828125">
        <ele>930.20001220703125</ele>
        <time>2022-05-03T08:30:37.000Z</time>
      </trkpt>
      <trkpt lat="40.82371867261826992034912109375" lon="-1.3413088582456111907958984375">
        <ele>930.4000244140625</ele>
        <time>2022-05-03T08:30:39.000Z</time>
      </trkpt>
      <trkpt lat="40.8236790262162685394287109375" lon="-1.341303326189517974853515625">
        <ele>930.5999755859375</ele>
        <time>2022-05-03T08:30:40.000Z</time>
      </trkpt>
      <trkpt lat="40.8236384578049182891845703125" lon="-1.341297291219234466552734375">
        <ele>930.5999755859375</ele>
        <time>2022-05-03T08:30:41.000Z</time>
      </trkpt>
      <trkpt lat="40.8235566504299640655517578125" lon="-1.3412820361554622650146484375">
        <ele>930.79998779296875</ele>
        <time>2022-05-03T08:30:43.000Z</time>
      </trkpt>
      <trkpt lat="40.8235167525708675384521484375" lon="-1.34127206169068813323974609375">
        <ele>930.79998779296875</ele>
        <time>2022-05-03T08:30:44.000Z</time>
      </trkpt>
      <trkpt lat="40.8234778605401515960693359375" lon="-1.34126074612140655517578125">
        <ele>931</ele>
        <time>2022-05-03T08:30:45.000Z</time>
      </trkpt>
      <trkpt lat="40.823403932154178619384765625" lon="-1.3412236981093883514404296875">
        <ele>931.20001220703125</ele>
        <time>2022-05-03T08:30:47.000Z</time>
      </trkpt>
      <trkpt lat="40.82333897240459918975830078125" lon="-1.341161839663982391357421875">
        <ele>931.20001220703125</ele>
        <time>2022-05-03T08:30:49.000Z</time>
      </trkpt>
      <trkpt lat="40.8233137428760528564453125" lon="-1.34111984632909297943115234375">
        <ele>931.20001220703125</ele>
        <time>2022-05-03T08:30:50.000Z</time>
      </trkpt>
      <trkpt lat="40.8232954703271389007568359375" lon="-1.34106972254812717437744140625">
        <ele>931.20001220703125</ele>
        <time>2022-05-03T08:30:51.000Z</time>
      </trkpt>
      <trkpt lat="40.823286585509777069091796875" lon="-1.34096226654946804046630859375">
        <ele>931.20001220703125</ele>
        <time>2022-05-03T08:30:53.000Z</time>
      </trkpt>
      <trkpt lat="40.823289267718791961669921875" lon="-1.340909041464328765869140625">
        <ele>931</ele>
        <time>2022-05-03T08:30:54.000Z</time>
      </trkpt>
      <trkpt lat="40.82329320721328258514404296875" lon="-1.34085573256015777587890625">
        <ele>931</ele>
        <time>2022-05-03T08:30:55.000Z</time>
      </trkpt>
      <trkpt lat="40.82330343313515186309814453125" lon="-1.34074869565665721893310546875">
        <ele>930.79998779296875</ele>
        <time>2022-05-03T08:30:57.000Z</time>
      </trkpt>
      <trkpt lat="40.823309719562530517578125" lon="-1.34064140729606151580810546875">
        <ele>930.5999755859375</ele>
        <time>2022-05-03T08:30:59.000Z</time>
      </trkpt>
      <trkpt lat="40.823299996554851531982421875" lon="-1.34053789079189300537109375">
        <ele>930.5999755859375</ele>
        <time>2022-05-03T08:31:01.000Z</time>
      </trkpt>
      <trkpt lat="40.82327242009341716766357421875" lon="-1.3404384814202785491943359375">
        <ele>930.4000244140625</ele>
        <time>2022-05-03T08:31:03.000Z</time>
      </trkpt>
      <trkpt lat="40.82325280643999576568603515625" lon="-1.340390704572200775146484375">
        <ele>930.4000244140625</ele>
        <time>2022-05-03T08:31:04.000Z</time>
      </trkpt>
      <trkpt lat="40.8232305943965911865234375" lon="-1.34034401737153530120849609375">
        <ele>930.4000244140625</ele>
        <time>2022-05-03T08:31:05.000Z</time>
      </trkpt>
      <trkpt lat="40.8232036046683788299560546875" lon="-1.3403030298650264739990234375">
        <ele>930.4000244140625</ele>
        <time>2022-05-03T08:31:06.000Z</time>
      </trkpt>
      <trkpt lat="40.823169909417629241943359375" lon="-1.3402701728045940399169921875">
        <ele>930.4000244140625</ele>
        <time>2022-05-03T08:31:07.000Z</time>
      </trkpt>
      <trkpt lat="40.8230916224420070648193359375" lon="-1.3402349688112735748291015625">
        <ele>930.4000244140625</ele>
        <time>2022-05-03T08:31:09.000Z</time>
      </trkpt>
      <trkpt lat="40.82305029965937137603759765625" lon="-1.34022834710776805877685546875">
        <ele>930.5999755859375</ele>
        <time>2022-05-03T08:31:10.000Z</time>
      </trkpt>
      <trkpt lat="40.82300906069576740264892578125" lon="-1.34022315032780170440673828125">
        <ele>930.5999755859375</ele>
        <time>2022-05-03T08:31:11.000Z</time>
      </trkpt>
      <trkpt lat="40.82292809151113033294677734375" lon="-1.3402161933481693267822265625">
        <ele>930.5999755859375</ele>
        <time>2022-05-03T08:31:13.000Z</time>
      </trkpt>
      <trkpt lat="40.82284913398325443267822265625" lon="-1.3402135111391544342041015625">
        <ele>930.79998779296875</ele>
        <time>2022-05-03T08:31:15.000Z</time>
      </trkpt>
      <trkpt lat="40.822773277759552001953125" lon="-1.3402138464152812957763671875">
        <ele>930.79998779296875</ele>
        <time>2022-05-03T08:31:17.000Z</time>
      </trkpt>
      <trkpt lat="40.82273639738559722900390625" lon="-1.34021124802529811859130859375">
        <ele>930.79998779296875</ele>
        <time>2022-05-03T08:31:18.000Z</time>
      </trkpt>
      <trkpt lat="40.82270010374486446380615234375" lon="-1.340206973254680633544921875">
        <ele>931</ele>
        <time>2022-05-03T08:31:19.000Z</time>
      </trkpt>
      <trkpt lat="40.82266322337090969085693359375" lon="-1.34020403958857059478759765625">
        <ele>931</ele>
        <time>2022-05-03T08:31:20.000Z</time>
      </trkpt>
      <trkpt lat="40.8226255886256694793701171875" lon="-1.34020118974149227142333984375">
        <ele>931</ele>
        <time>2022-05-03T08:31:21.000Z</time>
      </trkpt>
      <trkpt lat="40.82254772074520587921142578125" lon="-1.340195573866367340087890625">
        <ele>931</ele>
        <time>2022-05-03T08:31:23.000Z</time>
      </trkpt>
      <trkpt lat="40.8224690146744251251220703125" lon="-1.34019096381962299346923828125">
        <ele>931.20001220703125</ele>
        <time>2022-05-03T08:31:25.000Z</time>
      </trkpt>
      <trkpt lat="40.8223895542323589324951171875" lon="-1.340186186134815216064453125">
        <ele>931.20001220703125</ele>
        <time>2022-05-03T08:31:27.000Z</time>
      </trkpt>
      <trkpt lat="40.82231185398995876312255859375" lon="-1.3401840068399906158447265625">
        <ele>931.4000244140625</ele>
        <time>2022-05-03T08:31:29.000Z</time>
      </trkpt>
      <trkpt lat="40.822231471538543701171875" lon="-1.34018023498356342315673828125">
        <ele>931.4000244140625</ele>
        <time>2022-05-03T08:31:31.000Z</time>
      </trkpt>
      <trkpt lat="40.82215092144906520843505859375" lon="-1.34017470292747020721435546875">
        <ele>931.5999755859375</ele>
        <time>2022-05-03T08:31:33.000Z</time>
      </trkpt>
      <trkpt lat="40.822070203721523284912109375" lon="-1.34016782976686954498291015625">
        <ele>931.79998779296875</ele>
        <time>2022-05-03T08:31:35.000Z</time>
      </trkpt>
      <trkpt lat="40.82198998890817165374755859375" lon="-1.34016481228172779083251953125">
        <ele>932</ele>
        <time>2022-05-03T08:31:37.000Z</time>
      </trkpt>
      <trkpt lat="40.8219097740948200225830078125" lon="-1.34016372263431549072265625">
        <ele>932.20001220703125</ele>
        <time>2022-05-03T08:31:39.000Z</time>
      </trkpt>
      <trkpt lat="40.82182737998664379119873046875" lon="-1.3401638902723789215087890625">
        <ele>932.4000244140625</ele>
        <time>2022-05-03T08:31:41.000Z</time>
      </trkpt>
      <trkpt lat="40.82174289040267467498779296875" lon="-1.34015877731144428253173828125">
        <ele>932.4000244140625</ele>
        <time>2022-05-03T08:31:43.000Z</time>
      </trkpt>
      <trkpt lat="40.82165789790451526641845703125" lon="-1.34015575982630252838134765625">
        <ele>932.5999755859375</ele>
        <time>2022-05-03T08:31:45.000Z</time>
      </trkpt>
      <trkpt lat="40.82157307304441928863525390625" lon="-1.340152658522129058837890625">
        <ele>932.5999755859375</ele>
        <time>2022-05-03T08:31:47.000Z</time>
      </trkpt>
      <trkpt lat="40.82148707471787929534912109375" lon="-1.34015140123665332794189453125">
        <ele>932.79998779296875</ele>
        <time>2022-05-03T08:31:49.000Z</time>
      </trkpt>
      <trkpt lat="40.82140224985778331756591796875" lon="-1.340157352387905120849609375">
        <ele>932.79998779296875</ele>
        <time>2022-05-03T08:31:51.000Z</time>
      </trkpt>
      <trkpt lat="40.82131977193057537078857421875" lon="-1.34016238152980804443359375">
        <ele>933</ele>
        <time>2022-05-03T08:31:53.000Z</time>
      </trkpt>
      <trkpt lat="40.82127853296697139739990234375" lon="-1.34016196243464946746826171875">
        <ele>933</ele>
        <time>2022-05-03T08:31:54.000Z</time>
      </trkpt>
      <trkpt lat="40.82123762927949428558349609375" lon="-1.34016104042530059814453125">
        <ele>933</ele>
        <time>2022-05-03T08:31:55.000Z</time>
      </trkpt>
      <trkpt lat="40.8211560733616352081298828125" lon="-1.3401622138917446136474609375">
        <ele>933.20001220703125</ele>
        <time>2022-05-03T08:31:57.000Z</time>
      </trkpt>
      <trkpt lat="40.82107535563409328460693359375" lon="-1.340166740119457244873046875">
        <ele>933.20001220703125</ele>
        <time>2022-05-03T08:31:59.000Z</time>
      </trkpt>
      <trkpt lat="40.82099572755396366119384765625" lon="-1.34016933850944042205810546875">
        <ele>933.4000244140625</ele>
        <time>2022-05-03T08:32:01.000Z</time>
      </trkpt>
      <trkpt lat="40.82091677002608776092529296875" lon="-1.34016984142363071441650390625">
        <ele>933.5999755859375</ele>
        <time>2022-05-03T08:32:03.000Z</time>
      </trkpt>
      <trkpt lat="40.8208382315933704376220703125" lon="-1.34017503820359706878662109375">
        <ele>933.79998779296875</ele>
        <time>2022-05-03T08:32:05.000Z</time>
      </trkpt>
      <trkpt lat="40.82076069898903369903564453125" lon="-1.340179480612277984619140625">
        <ele>934</ele>
        <time>2022-05-03T08:32:07.000Z</time>
      </trkpt>
      <trkpt lat="40.820684842765331268310546875" lon="-1.34018140845000743865966796875">
        <ele>934.20001220703125</ele>
        <time>2022-05-03T08:32:09.000Z</time>
      </trkpt>
      <trkpt lat="40.82064754329621791839599609375" lon="-1.3401816599071025848388671875">
        <ele>934.20001220703125</ele>
        <time>2022-05-03T08:32:10.000Z</time>
      </trkpt>
      <trkpt lat="40.82061074674129486083984375" lon="-1.3401830010116100311279296875">
        <ele>934.4000244140625</ele>
        <time>2022-05-03T08:32:11.000Z</time>
      </trkpt>
      <trkpt lat="40.820541344583034515380859375" lon="-1.34018660522997379302978515625">
        <ele>934.4000244140625</ele>
        <time>2022-05-03T08:32:13.000Z</time>
      </trkpt>
      <trkpt lat="40.82050882279872894287109375" lon="-1.34018844924867153167724609375">
        <ele>934.4000244140625</ele>
        <time>2022-05-03T08:32:14.000Z</time>
      </trkpt>
      <trkpt lat="40.820474959909915924072265625" lon="-1.34019129909574985504150390625">
        <ele>934.4000244140625</ele>
        <time>2022-05-03T08:32:15.000Z</time>
      </trkpt>
      <trkpt lat="40.82039943896234035491943359375" lon="-1.34019582532346248626708984375">
        <ele>934.4000244140625</ele>
        <time>2022-05-03T08:32:17.000Z</time>
      </trkpt>
      <trkpt lat="40.8203155361115932464599609375" lon="-1.3401984237134456634521484375">
        <ele>934.4000244140625</ele>
        <time>2022-05-03T08:32:19.000Z</time>
      </trkpt>
      <trkpt lat="40.82027220167219638824462890625" lon="-1.34020135737955570220947265625">
        <ele>934.4000244140625</ele>
        <time>2022-05-03T08:32:20.000Z</time>
      </trkpt>
      <trkpt lat="40.820228196680545806884765625" lon="-1.34020588360726833343505859375">
        <ele>934.4000244140625</ele>
        <time>2022-05-03T08:32:21.000Z</time>
      </trkpt>
      <trkpt lat="40.8201375044882297515869140625" lon="-1.34021644480526447296142578125">
        <ele>934.4000244140625</ele>
        <time>2022-05-03T08:32:23.000Z</time>
      </trkpt>
      <trkpt lat="40.82004220224916934967041015625" lon="-1.3402260839939117431640625">
        <ele>934.4000244140625</ele>
        <time>2022-05-03T08:32:25.000Z</time>
      </trkpt>
      <trkpt lat="40.81994715146720409393310546875" lon="-1.340231783688068389892578125">
        <ele>934.20001220703125</ele>
        <time>2022-05-03T08:32:27.000Z</time>
      </trkpt>
      <trkpt lat="40.8198590576648712158203125" lon="-1.34023756720125675201416015625">
        <ele>934.20001220703125</ele>
        <time>2022-05-03T08:32:29.000Z</time>
      </trkpt>
      <trkpt lat="40.8197764120995998382568359375" lon="-1.3402473740279674530029296875">
        <ele>934.20001220703125</ele>
        <time>2022-05-03T08:32:31.000Z</time>
      </trkpt>
      <trkpt lat="40.81969804130494594573974609375" lon="-1.3402582705020904541015625">
        <ele>934.20001220703125</ele>
        <time>2022-05-03T08:32:33.000Z</time>
      </trkpt>
      <trkpt lat="40.8196610771119594573974609375" lon="-1.340261958539485931396484375">
        <ele>934.20001220703125</ele>
        <time>2022-05-03T08:32:34.000Z</time>
      </trkpt>
      <trkpt lat="40.81962461583316326141357421875" lon="-1.3402651436626911163330078125">
        <ele>934.20001220703125</ele>
        <time>2022-05-03T08:32:35.000Z</time>
      </trkpt>
      <trkpt lat="40.8195521123707294464111328125" lon="-1.34027193300426006317138671875">
        <ele>934.4000244140625</ele>
        <time>2022-05-03T08:32:37.000Z</time>
      </trkpt>
      <trkpt lat="40.81948145292699337005615234375" lon="-1.3402783870697021484375">
        <ele>934.4000244140625</ele>
        <time>2022-05-03T08:32:39.000Z</time>
      </trkpt>
      <trkpt lat="40.81944675184786319732666015625" lon="-1.34028173983097076416015625">
        <ele>934.4000244140625</ele>
        <time>2022-05-03T08:32:40.000Z</time>
      </trkpt>
      <trkpt lat="40.81941171549260616302490234375" lon="-1.34028735570609569549560546875">
        <ele>934.5999755859375</ele>
        <time>2022-05-03T08:32:41.000Z</time>
      </trkpt>
      <trkpt lat="40.8193378709256649017333984375" lon="-1.3403026945888996124267578125">
        <ele>934.5999755859375</ele>
        <time>2022-05-03T08:32:43.000Z</time>
      </trkpt>
      <trkpt lat="40.8192989788949489593505859375" lon="-1.3403073884546756744384765625">
        <ele>934.79998779296875</ele>
        <time>2022-05-03T08:32:44.000Z</time>
      </trkpt>
      <trkpt lat="40.8192587457597255706787109375" lon="-1.3403117470443248748779296875">
        <ele>934.79998779296875</ele>
        <time>2022-05-03T08:32:45.000Z</time>
      </trkpt>
      <trkpt lat="40.81918020732700824737548828125" lon="-1.34032188914716243743896484375">
        <ele>935</ele>
        <time>2022-05-03T08:32:47.000Z</time>
      </trkpt>
      <trkpt lat="40.8191028423607349395751953125" lon="-1.34032976813614368438720703125">
        <ele>935.20001220703125</ele>
        <time>2022-05-03T08:32:49.000Z</time>
      </trkpt>
      <trkpt lat="40.81902648322284221649169921875" lon="-1.3403368927538394927978515625">
        <ele>935.4000244140625</ele>
        <time>2022-05-03T08:32:51.000Z</time>
      </trkpt>
      <trkpt lat="40.81895188428461551666259765625" lon="-1.3403446041047573089599609375">
        <ele>935.79998779296875</ele>
        <time>2022-05-03T08:32:53.000Z</time>
      </trkpt>
      <trkpt lat="40.81891517154872417449951171875" lon="-1.3403492979705333709716796875">
        <ele>935.79998779296875</ele>
        <time>2022-05-03T08:32:54.000Z</time>
      </trkpt>
      <trkpt lat="40.8188778720796108245849609375" lon="-1.340355165302753448486328125">
        <ele>936</ele>
        <time>2022-05-03T08:32:55.000Z</time>
      </trkpt>
      <trkpt lat="40.8188024349510669708251953125" lon="-1.3403734378516674041748046875">
        <ele>936.20001220703125</ele>
        <time>2022-05-03T08:32:57.000Z</time>
      </trkpt>
      <trkpt lat="40.8187253214418888092041015625" lon="-1.3403891958296298980712890625">
        <ele>936.4000244140625</ele>
        <time>2022-05-03T08:32:59.000Z</time>
      </trkpt>
      <trkpt lat="40.8186455257236957550048828125" lon="-1.3404004275798797607421875">
        <ele>936.5999755859375</ele>
        <time>2022-05-03T08:33:01.000Z</time>
      </trkpt>
      <trkpt lat="40.818565227091312408447265625" lon="-1.34041727520525455474853515625">
        <ele>936.79998779296875</ele>
        <time>2022-05-03T08:33:03.000Z</time>
      </trkpt>
      <trkpt lat="40.81848509609699249267578125" lon="-1.34043336845934391021728515625">
        <ele>937</ele>
        <time>2022-05-03T08:33:05.000Z</time>
      </trkpt>
      <trkpt lat="40.8184443600475788116455078125" lon="-1.3404401578009128570556640625">
        <ele>937</ele>
        <time>2022-05-03T08:33:06.000Z</time>
      </trkpt>
      <trkpt lat="40.81840387545526027679443359375" lon="-1.34044694714248180389404296875">
        <ele>937.20001220703125</ele>
        <time>2022-05-03T08:33:07.000Z</time>
      </trkpt>
      <trkpt lat="40.81832424737513065338134765625" lon="-1.3404621183872222900390625">
        <ele>937.4000244140625</ele>
        <time>2022-05-03T08:33:09.000Z</time>
      </trkpt>
      <trkpt lat="40.818247385323047637939453125" lon="-1.34048156440258026123046875">
        <ele>937.5999755859375</ele>
        <time>2022-05-03T08:33:11.000Z</time>
      </trkpt>
      <trkpt lat="40.818180330097675323486328125" lon="-1.340494640171527862548828125">
        <ele>937.5999755859375</ele>
        <time>2022-05-03T08:33:13.000Z</time>
      </trkpt>
      <trkpt lat="40.81813498400151729583740234375" lon="-1.34050277061760425567626953125">
        <ele>937.79998779296875</ele>
        <time>2022-05-03T08:33:15.000Z</time>
      </trkpt>
      <trkpt lat="40.81810346804559230804443359375" lon="-1.34050914086401462554931640625">
        <ele>937.79998779296875</ele>
        <time>2022-05-03T08:33:17.000Z</time>
      </trkpt>
      <trkpt lat="40.81808519549667835235595703125" lon="-1.34051517583429813385009765625">
        <ele>937.79998779296875</ele>
        <time>2022-05-03T08:33:18.000Z</time>
      </trkpt>
      <trkpt lat="40.81806390546262264251708984375" lon="-1.3405229710042476654052734375">
        <ele>937.79998779296875</ele>
        <time>2022-05-03T08:33:19.000Z</time>
      </trkpt>
      <trkpt lat="40.8180111832916736602783203125" lon="-1.34053629823029041290283203125">
        <ele>937.79998779296875</ele>
        <time>2022-05-03T08:33:21.000Z</time>
      </trkpt>
      <trkpt lat="40.81794706173241138458251953125" lon="-1.34054099209606647491455078125">
        <ele>937.79998779296875</ele>
        <time>2022-05-03T08:33:23.000Z</time>
      </trkpt>
      <trkpt lat="40.817912779748439788818359375" lon="-1.34054132737219333648681640625">
        <ele>937.79998779296875</ele>
        <time>2022-05-03T08:33:24.000Z</time>
      </trkpt>
      <trkpt lat="40.81787799485027790069580078125" lon="-1.3405437581241130828857421875">
        <ele>937.5999755859375</ele>
        <time>2022-05-03T08:33:25.000Z</time>
      </trkpt>
      <trkpt lat="40.81780515611171722412109375" lon="-1.34055390022695064544677734375">
        <ele>937.5999755859375</ele>
        <time>2022-05-03T08:33:27.000Z</time>
      </trkpt>
      <trkpt lat="40.8177280426025390625" lon="-1.34057837538421154022216796875">
        <ele>937.5999755859375</ele>
        <time>2022-05-03T08:33:29.000Z</time>
      </trkpt>
      <trkpt lat="40.81768848001956939697265625" lon="-1.34059933014214038848876953125">
        <ele>937.5999755859375</ele>
        <time>2022-05-03T08:33:30.000Z</time>
      </trkpt>
      <trkpt lat="40.81764916889369487762451171875" lon="-1.34062699042260646820068359375">
        <ele>937.5999755859375</ele>
        <time>2022-05-03T08:33:31.000Z</time>
      </trkpt>
      <trkpt lat="40.81758789718151092529296875" lon="-1.34071290493011474609375">
        <ele>937.79998779296875</ele>
        <time>2022-05-03T08:33:33.000Z</time>
      </trkpt>
      <trkpt lat="40.81756417639553546905517578125" lon="-1.34076328016817569732666015625">
        <ele>937.79998779296875</ele>
        <time>2022-05-03T08:33:34.000Z</time>
      </trkpt>
      <trkpt lat="40.8175424672663211822509765625" lon="-1.34081440977752208709716796875">
        <ele>938</ele>
        <time>2022-05-03T08:33:35.000Z</time>
      </trkpt>
      <trkpt lat="40.81750013865530490875244140625" lon="-1.340921781957149505615234375">
        <ele>938.4000244140625</ele>
        <time>2022-05-03T08:33:37.000Z</time>
      </trkpt>
      <trkpt lat="40.81747532822191715240478515625" lon="-1.3409739173948764801025390625">
        <ele>938.5999755859375</ele>
        <time>2022-05-03T08:33:38.000Z</time>
      </trkpt>
      <trkpt lat="40.817446075379848480224609375" lon="-1.34102202951908111572265625">
        <ele>938.5999755859375</ele>
        <time>2022-05-03T08:33:39.000Z</time>
      </trkpt>
      <trkpt lat="40.81737608648836612701416015625" lon="-1.3411046750843524932861328125">
        <ele>938.79998779296875</ele>
        <time>2022-05-03T08:33:41.000Z</time>
      </trkpt>
      <trkpt lat="40.81730148755013942718505859375" lon="-1.34117499925196170806884765625">
        <ele>939</ele>
        <time>2022-05-03T08:33:43.000Z</time>
      </trkpt>
      <trkpt lat="40.81726611591875553131103515625" lon="-1.3412010669708251953125">
        <ele>939</ele>
        <time>2022-05-03T08:33:44.000Z</time>
      </trkpt>
      <trkpt lat="40.81723007373511791229248046875" lon="-1.3412223570048809051513671875">
        <ele>939.20001220703125</ele>
        <time>2022-05-03T08:33:45.000Z</time>
      </trkpt>
      <trkpt lat="40.81715631298720836639404296875" lon="-1.34125865064561367034912109375">
        <ele>939.20001220703125</ele>
        <time>2022-05-03T08:33:47.000Z</time>
      </trkpt>
      <trkpt lat="40.81708640791475772857666015625" lon="-1.34129569865763187408447265625">
        <ele>939.20001220703125</ele>
        <time>2022-05-03T08:33:49.000Z</time>
      </trkpt>
      <trkpt lat="40.8170549757778644561767578125" lon="-1.34131698869168758392333984375">
        <ele>939.20001220703125</ele>
        <time>2022-05-03T08:33:50.000Z</time>
      </trkpt>
      <trkpt lat="40.8170237950980663299560546875" lon="-1.3413392007350921630859375">
        <ele>939.20001220703125</ele>
        <time>2022-05-03T08:33:51.000Z</time>
      </trkpt>
      <trkpt lat="40.81695757806301116943359375" lon="-1.34138857014477252960205078125">
        <ele>939.4000244140625</ele>
        <time>2022-05-03T08:33:53.000Z</time>
      </trkpt>
      <trkpt lat="40.81692673265933990478515625" lon="-1.34142159484326839447021484375">
        <ele>939.4000244140625</ele>
        <time>2022-05-03T08:33:54.000Z</time>
      </trkpt>
      <trkpt lat="40.81689781509339809417724609375" lon="-1.34145847521722316741943359375">
        <ele>939.5999755859375</ele>
        <time>2022-05-03T08:33:55.000Z</time>
      </trkpt>
      <trkpt lat="40.81683930940926074981689453125" lon="-1.34154371917247772216796875">
        <ele>939.79998779296875</ele>
        <time>2022-05-03T08:33:57.000Z</time>
      </trkpt>
      <trkpt lat="40.81678248010575771331787109375" lon="-1.34163449518382549285888671875">
        <ele>940</ele>
        <time>2022-05-03T08:33:59.000Z</time>
      </trkpt>
      <trkpt lat="40.81672615371644496917724609375" lon="-1.34172937832772731781005859375">
        <ele>940.4000244140625</ele>
        <time>2022-05-03T08:34:01.000Z</time>
      </trkpt>
      <trkpt lat="40.816676281392574310302734375" lon="-1.34181872941553592681884765625">
        <ele>940.5999755859375</ele>
        <time>2022-05-03T08:34:03.000Z</time>
      </trkpt>
      <trkpt lat="40.81662691198289394378662109375" lon="-1.341906823217868804931640625">
        <ele>940.79998779296875</ele>
        <time>2022-05-03T08:34:05.000Z</time>
      </trkpt>
      <trkpt lat="40.81660159863531589508056640625" lon="-1.34195384569466114044189453125">
        <ele>941</ele>
        <time>2022-05-03T08:34:06.000Z</time>
      </trkpt>
      <trkpt lat="40.8165762014687061309814453125" lon="-1.3420017063617706298828125">
        <ele>941.20001220703125</ele>
        <time>2022-05-03T08:34:07.000Z</time>
      </trkpt>
      <trkpt lat="40.8165466971695423126220703125" lon="-1.34204705245792865753173828125">
        <ele>941.20001220703125</ele>
        <time>2022-05-03T08:34:08.000Z</time>
      </trkpt>
      <trkpt lat="40.81651492975652217864990234375" lon="-1.34209156036376953125">
        <ele>941.4000244140625</ele>
        <time>2022-05-03T08:34:09.000Z</time>
      </trkpt>
      <trkpt lat="40.81645491532981395721435546875" lon="-1.34217663668096065521240234375">
        <ele>941.5999755859375</ele>
        <time>2022-05-03T08:34:11.000Z</time>
      </trkpt>
      <trkpt lat="40.81639875657856464385986328125" lon="-1.3422640599310398101806640625">
        <ele>941.79998779296875</ele>
        <time>2022-05-03T08:34:13.000Z</time>
      </trkpt>
      <trkpt lat="40.8163468725979328155517578125" lon="-1.34235500358045101165771484375">
        <ele>942</ele>
        <time>2022-05-03T08:34:15.000Z</time>
      </trkpt>
      <trkpt lat="40.816293396055698394775390625" lon="-1.3424477912485599517822265625">
        <ele>942</ele>
        <time>2022-05-03T08:34:17.000Z</time>
      </trkpt>
      <trkpt lat="40.8162670768797397613525390625" lon="-1.34249514900147914886474609375">
        <ele>942</ele>
        <time>2022-05-03T08:34:18.000Z</time>
      </trkpt>
      <trkpt lat="40.81624008715152740478515625" lon="-1.34253873489797115325927734375">
        <ele>942.20001220703125</ele>
        <time>2022-05-03T08:34:19.000Z</time>
      </trkpt>
      <trkpt lat="40.81618686206638813018798828125" lon="-1.34261970408260822296142578125">
        <ele>942.20001220703125</ele>
        <time>2022-05-03T08:34:21.000Z</time>
      </trkpt>
      <trkpt lat="40.81616096198558807373046875" lon="-1.342661865055561065673828125">
        <ele>942.20001220703125</ele>
        <time>2022-05-03T08:34:22.000Z</time>
      </trkpt>
      <trkpt lat="40.81613472662866115570068359375" lon="-1.34270302020013332366943359375">
        <ele>942.20001220703125</ele>
        <time>2022-05-03T08:34:23.000Z</time>
      </trkpt>
      <trkpt lat="40.816079489886760711669921875" lon="-1.34278826415538787841796875">
        <ele>942.20001220703125</ele>
        <time>2022-05-03T08:34:25.000Z</time>
      </trkpt>
      <trkpt lat="40.81602685153484344482421875" lon="-1.342874430119991302490234375">
        <ele>942.20001220703125</ele>
        <time>2022-05-03T08:34:27.000Z</time>
      </trkpt>
      <trkpt lat="40.8159780688583850860595703125" lon="-1.34295724332332611083984375">
        <ele>942.20001220703125</ele>
        <time>2022-05-03T08:34:29.000Z</time>
      </trkpt>
      <trkpt lat="40.8159294538199901580810546875" lon="-1.34303544647991657257080078125">
        <ele>942.4000244140625</ele>
        <time>2022-05-03T08:34:31.000Z</time>
      </trkpt>
      <trkpt lat="40.8159054815769195556640625" lon="-1.343074254691600799560546875">
        <ele>942.4000244140625</ele>
        <time>2022-05-03T08:34:32.000Z</time>
      </trkpt>
      <trkpt lat="40.81588268280029296875" lon="-1.34311339817941188812255859375">
        <ele>942.4000244140625</ele>
        <time>2022-05-03T08:34:33.000Z</time>
      </trkpt>
      <trkpt lat="40.81583566032350063323974609375" lon="-1.34318632073700428009033203125">
        <ele>942.5999755859375</ele>
        <time>2022-05-03T08:34:35.000Z</time>
      </trkpt>
      <trkpt lat="40.81577816046774387359619140625" lon="-1.34323074482381343841552734375">
        <ele>942.5999755859375</ele>
        <time>2022-05-03T08:34:37.000Z</time>
      </trkpt>
      <trkpt lat="40.81574547104537487030029296875" lon="-1.343239210546016693115234375">
        <ele>942.5999755859375</ele>
        <time>2022-05-03T08:34:38.000Z</time>
      </trkpt>
      <trkpt lat="40.81571278162300586700439453125" lon="-1.343235857784748077392578125">
        <ele>942.5999755859375</ele>
        <time>2022-05-03T08:34:39.000Z</time>
      </trkpt>
      <trkpt lat="40.81565310247242450714111328125" lon="-1.343197636306285858154296875">
        <ele>942.4000244140625</ele>
        <time>2022-05-03T08:34:41.000Z</time>
      </trkpt>
      <trkpt lat="40.81562393344938755035400390625" lon="-1.3431726582348346710205078125">
        <ele>942.20001220703125</ele>
        <time>2022-05-03T08:34:42.000Z</time>
      </trkpt>
      <trkpt lat="40.81559501588344573974609375" lon="-1.34314768016338348388671875">
        <ele>942</ele>
        <time>2022-05-03T08:34:43.000Z</time>
      </trkpt>
      <trkpt lat="40.81553994677960872650146484375" lon="-1.343097388744354248046875">
        <ele>942</ele>
        <time>2022-05-03T08:34:45.000Z</time>
      </trkpt>
      <trkpt lat="40.815490074455738067626953125" lon="-1.34304533712565898895263671875">
        <ele>941.79998779296875</ele>
        <time>2022-05-03T08:34:47.000Z</time>
      </trkpt>
      <trkpt lat="40.81544405780732631683349609375" lon="-1.34299571625888347625732421875">
        <ele>941.79998779296875</ele>
        <time>2022-05-03T08:34:49.000Z</time>
      </trkpt>
      <trkpt lat="40.8154003880918025970458984375" lon="-1.3429510407149791717529296875">
        <ele>941.79998779296875</ele>
        <time>2022-05-03T08:34:51.000Z</time>
      </trkpt>
      <trkpt lat="40.8153547905385494232177734375" lon="-1.342917345464229583740234375">
        <ele>941.79998779296875</ele>
        <time>2022-05-03T08:34:53.000Z</time>
      </trkpt>
      <trkpt lat="40.81531648524105548858642578125" lon="-1.34288884699344635009765625">
        <ele>941.5999755859375</ele>
        <time>2022-05-03T08:34:55.000Z</time>
      </trkpt>
      <trkpt lat="40.81529268063604831695556640625" lon="-1.3428675569593906402587890625">
        <ele>941.5999755859375</ele>
        <time>2022-05-03T08:34:57.000Z</time>
      </trkpt>
      <trkpt lat="40.81529167480766773223876953125" lon="-1.34286512620747089385986328125">
        <ele>941.5999755859375</ele>
        <time>2022-05-03T08:34:59.000Z</time>
      </trkpt>
      <trkpt lat="40.815241970121860504150390625" lon="-1.342867724597454071044921875">
        <ele>941.5999755859375</ele>
        <time>2022-05-03T08:44:09.000Z</time>
      </trkpt>
      <trkpt lat="40.8151737414300441741943359375" lon="-1.3428467698395252227783203125">
        <ele>941.5999755859375</ele>
        <time>2022-05-03T08:44:12.000Z</time>
      </trkpt>
      <trkpt lat="40.81511045806109905242919921875" lon="-1.34283126331865787506103515625">
        <ele>941.5999755859375</ele>
        <time>2022-05-03T08:44:14.000Z</time>
      </trkpt>
      <trkpt lat="40.8149886690080165863037109375" lon="-1.3428199477493762969970703125">
        <ele>941.5999755859375</ele>
        <time>2022-05-03T08:44:17.000Z</time>
      </trkpt>
      <trkpt lat="40.8148942887783050537109375" lon="-1.34282774291932582855224609375">
        <ele>941.5999755859375</ele>
        <time>2022-05-03T08:44:19.000Z</time>
      </trkpt>
      <trkpt lat="40.814790017902851104736328125" lon="-1.34283428080379962921142578125">
        <ele>941.5999755859375</ele>
        <time>2022-05-03T08:44:21.000Z</time>
      </trkpt>
      <trkpt lat="40.814680047333240509033203125" lon="-1.342838890850543975830078125">
        <ele>941.4000244140625</ele>
        <time>2022-05-03T08:44:23.000Z</time>
      </trkpt>
      <trkpt lat="40.81462430767714977264404296875" lon="-1.3428427465260028839111328125">
        <ele>941.4000244140625</ele>
        <time>2022-05-03T08:44:24.000Z</time>
      </trkpt>
      <trkpt lat="40.8145226351916790008544921875" lon="-1.34284995496273040771484375">
        <ele>941</ele>
        <time>2022-05-03T08:44:26.000Z</time>
      </trkpt>
      <trkpt lat="40.8144344575703144073486328125" lon="-1.34285121224820613861083984375">
        <ele>940.5999755859375</ele>
        <time>2022-05-03T08:44:28.000Z</time>
      </trkpt>
      <trkpt lat="40.81438709981739521026611328125" lon="-1.34285640902817249298095703125">
        <ele>940.4000244140625</ele>
        <time>2022-05-03T08:44:29.000Z</time>
      </trkpt>
      <trkpt lat="40.81422952003777027130126953125" lon="-1.34287769906222820281982421875">
        <ele>940</ele>
        <time>2022-05-03T08:44:32.000Z</time>
      </trkpt>
      <trkpt lat="40.81411921419203281402587890625" lon="-1.34289345704019069671630859375">
        <ele>939.5999755859375</ele>
        <time>2022-05-03T08:44:34.000Z</time>
      </trkpt>
      <trkpt lat="40.8140599541366100311279296875" lon="-1.3428997434675693511962890625">
        <ele>939.20001220703125</ele>
        <time>2022-05-03T08:44:35.000Z</time>
      </trkpt>
      <trkpt lat="40.8139395900070667266845703125" lon="-1.34292044676840305328369140625">
        <ele>938.79998779296875</ele>
        <time>2022-05-03T08:44:37.000Z</time>
      </trkpt>
      <trkpt lat="40.81376113928854465484619140625" lon="-1.3429560698568820953369140625">
        <ele>937.79998779296875</ele>
        <time>2022-05-03T08:44:40.000Z</time>
      </trkpt>
      <trkpt lat="40.81363675184547901153564453125" lon="-1.34298163466155529022216796875">
        <ele>937.20001220703125</ele>
        <time>2022-05-03T08:44:42.000Z</time>
      </trkpt>
      <trkpt lat="40.8135727979242801666259765625" lon="-1.342993117868900299072265625">
        <ele>936.79998779296875</ele>
        <time>2022-05-03T08:44:43.000Z</time>
      </trkpt>
      <trkpt lat="40.8134427107870578765869140625" lon="-1.34300225414335727691650390625">
        <ele>936</ele>
        <time>2022-05-03T08:44:45.000Z</time>
      </trkpt>
      <trkpt lat="40.81331052817404270172119140625" lon="-1.342997141182422637939453125">
        <ele>935.20001220703125</ele>
        <time>2022-05-03T08:44:47.000Z</time>
      </trkpt>
      <trkpt lat="40.8132455684244632720947265625" lon="-1.3429996557533740997314453125">
        <ele>934.79998779296875</ele>
        <time>2022-05-03T08:44:48.000Z</time>
      </trkpt>
      <trkpt lat="40.81312067806720733642578125" lon="-1.34302035905420780181884765625">
        <ele>934.20001220703125</ele>
        <time>2022-05-03T08:44:50.000Z</time>
      </trkpt>
      <trkpt lat="40.8129344321787357330322265625" lon="-1.34304751642048358917236328125">
        <ele>933.4000244140625</ele>
        <time>2022-05-03T08:44:53.000Z</time>
      </trkpt>
      <trkpt lat="40.8128717355430126190185546875" lon="-1.34305321611464023590087890625">
        <ele>933.20001220703125</ele>
        <time>2022-05-03T08:44:54.000Z</time>
      </trkpt>
      <trkpt lat="40.812749527394771575927734375" lon="-1.34306260384619235992431640625">
        <ele>932.79998779296875</ele>
        <time>2022-05-03T08:44:56.000Z</time>
      </trkpt>
      <trkpt lat="40.81256805919110774993896484375" lon="-1.34307383559644222259521484375">
        <ele>932</ele>
        <time>2022-05-03T08:44:59.000Z</time>
      </trkpt>
      <trkpt lat="40.81244316883385181427001953125" lon="-1.34308255277574062347412109375">
        <ele>931.5999755859375</ele>
        <time>2022-05-03T08:45:01.000Z</time>
      </trkpt>
      <trkpt lat="40.8123145066201686859130859375" lon="-1.34308774955570697784423828125">
        <ele>931.20001220703125</ele>
        <time>2022-05-03T08:45:03.000Z</time>
      </trkpt>
      <trkpt lat="40.81225088797509670257568359375" lon="-1.343091689050197601318359375">
        <ele>931</ele>
        <time>2022-05-03T08:45:04.000Z</time>
      </trkpt>
      <trkpt lat="40.81218936480581760406494140625" lon="-1.34309562854468822479248046875">
        <ele>930.79998779296875</ele>
        <time>2022-05-03T08:45:05.000Z</time>
      </trkpt>
      <trkpt lat="40.81206925213336944580078125" lon="-1.34310468100011348724365234375">
        <ele>930.5999755859375</ele>
        <time>2022-05-03T08:45:07.000Z</time>
      </trkpt>
      <trkpt lat="40.81201166845858097076416015625" lon="-1.3431206904351711273193359375">
        <ele>930.4000244140625</ele>
        <time>2022-05-03T08:45:08.000Z</time>
      </trkpt>
      <trkpt lat="40.8119611255824565887451171875" lon="-1.34314457885921001434326171875">
        <ele>930.4000244140625</ele>
        <time>2022-05-03T08:45:09.000Z</time>
      </trkpt>
      <trkpt lat="40.8119158633053302764892578125" lon="-1.34317047894001007080078125">
        <ele>930.20001220703125</ele>
        <time>2022-05-03T08:45:10.000Z</time>
      </trkpt>
      <trkpt lat="40.811832211911678314208984375" lon="-1.34321414865553379058837890625">
        <ele>930</ele>
        <time>2022-05-03T08:45:12.000Z</time>
      </trkpt>
      <trkpt lat="40.811788626015186309814453125" lon="-1.343233846127986907958984375">
        <ele>930</ele>
        <time>2022-05-03T08:45:13.000Z</time>
      </trkpt>
      <trkpt lat="40.811741687357425689697265625" lon="-1.34325454942882061004638671875">
        <ele>929.79998779296875</ele>
        <time>2022-05-03T08:45:14.000Z</time>
      </trkpt>
      <trkpt lat="40.8116945810616016387939453125" lon="-1.34327885694801807403564453125">
        <ele>929.79998779296875</ele>
        <time>2022-05-03T08:45:15.000Z</time>
      </trkpt>
      <trkpt lat="40.81164680421352386474609375" lon="-1.34330819360911846160888671875">
        <ele>929.5999755859375</ele>
        <time>2022-05-03T08:45:16.000Z</time>
      </trkpt>
      <trkpt lat="40.811545550823211669921875" lon="-1.34337860159575939178466796875">
        <ele>929.4000244140625</ele>
        <time>2022-05-03T08:45:18.000Z</time>
      </trkpt>
      <trkpt lat="40.811491571366786956787109375" lon="-1.34341581724584102630615234375">
        <ele>929.20001220703125</ele>
        <time>2022-05-03T08:45:19.000Z</time>
      </trkpt>
      <trkpt lat="40.8114377595484256744384765625" lon="-1.3434519432485103607177734375">
        <ele>929.20001220703125</ele>
        <time>2022-05-03T08:45:20.000Z</time>
      </trkpt>
      <trkpt lat="40.8113341592252254486083984375" lon="-1.343524195253849029541015625">
        <ele>929.20001220703125</ele>
        <time>2022-05-03T08:45:22.000Z</time>
      </trkpt>
      <trkpt lat="40.81128428690135478973388671875" lon="-1.34356266818940639495849609375">
        <ele>929.4000244140625</ele>
        <time>2022-05-03T08:45:23.000Z</time>
      </trkpt>
      <trkpt lat="40.811136849224567413330078125" lon="-1.34368202649056911468505859375">
        <ele>929.79998779296875</ele>
        <time>2022-05-03T08:45:26.000Z</time>
      </trkpt>
      <trkpt lat="40.8110853843390941619873046875" lon="-1.3437174819409847259521484375">
        <ele>930</ele>
        <time>2022-05-03T08:45:27.000Z</time>
      </trkpt>
      <trkpt lat="40.81103215925395488739013671875" lon="-1.3437503390014171600341796875">
        <ele>930.20001220703125</ele>
        <time>2022-05-03T08:45:28.000Z</time>
      </trkpt>
      <trkpt lat="40.8109787665307521820068359375" lon="-1.34378311224281787872314453125">
        <ele>930.4000244140625</ele>
        <time>2022-05-03T08:45:29.000Z</time>
      </trkpt>
      <trkpt lat="40.81087390892207622528076171875" lon="-1.34384899400174617767333984375">
        <ele>930.79998779296875</ele>
        <time>2022-05-03T08:45:31.000Z</time>
      </trkpt>
      <trkpt lat="40.81077248789370059967041015625" lon="-1.34390632621943950653076171875">
        <ele>931.20001220703125</ele>
        <time>2022-05-03T08:45:33.000Z</time>
      </trkpt>
      <trkpt lat="40.8106790296733379364013671875" lon="-1.34395234286785125732421875">
        <ele>931.5999755859375</ele>
        <time>2022-05-03T08:45:35.000Z</time>
      </trkpt>
      <trkpt lat="40.81059613265097141265869140625" lon="-1.34399467147886753082275390625">
        <ele>931.79998779296875</ele>
        <time>2022-05-03T08:45:37.000Z</time>
      </trkpt>
      <trkpt lat="40.8105227909982204437255859375" lon="-1.34403322823345661163330078125">
        <ele>932.20001220703125</ele>
        <time>2022-05-03T08:45:39.000Z</time>
      </trkpt>
      <trkpt lat="40.810489095747470855712890625" lon="-1.3440520875155925750732421875">
        <ele>932.4000244140625</ele>
        <time>2022-05-03T08:45:40.000Z</time>
      </trkpt>
      <trkpt lat="40.810426063835620880126953125" lon="-1.3440872915089130401611328125">
        <ele>932.79998779296875</ele>
        <time>2022-05-03T08:45:42.000Z</time>
      </trkpt>
      <trkpt lat="40.81039563752710819244384765625" lon="-1.34410531260073184967041015625">
        <ele>933</ele>
        <time>2022-05-03T08:45:43.000Z</time>
      </trkpt>
      <trkpt lat="40.81033461727201938629150390625" lon="-1.34414437226951122283935546875">
        <ele>933.20001220703125</ele>
        <time>2022-05-03T08:45:45.000Z</time>
      </trkpt>
      <trkpt lat="40.81030368804931640625" lon="-1.3441633991897106170654296875">
        <ele>933.4000244140625</ele>
        <time>2022-05-03T08:45:46.000Z</time>
      </trkpt>
      <trkpt lat="40.8102740161120891571044921875" lon="-1.3441845215857028961181640625">
        <ele>933.5999755859375</ele>
        <time>2022-05-03T08:45:47.000Z</time>
      </trkpt>
      <trkpt lat="40.81021894700825214385986328125" lon="-1.344230957329273223876953125">
        <ele>934</ele>
        <time>2022-05-03T08:45:49.000Z</time>
      </trkpt>
      <trkpt lat="40.8101630397140979766845703125" lon="-1.3442757166922092437744140625">
        <ele>934.20001220703125</ele>
        <time>2022-05-03T08:45:51.000Z</time>
      </trkpt>
      <trkpt lat="40.81010864116251468658447265625" lon="-1.3443216495215892791748046875">
        <ele>934.5999755859375</ele>
        <time>2022-05-03T08:45:53.000Z</time>
      </trkpt>
      <trkpt lat="40.81008265726268291473388671875" lon="-1.34434537030756473541259765625">
        <ele>934.5999755859375</ele>
        <time>2022-05-03T08:45:54.000Z</time>
      </trkpt>
      <trkpt lat="40.81002884544432163238525390625" lon="-1.34439515881240367889404296875">
        <ele>935</ele>
        <time>2022-05-03T08:45:56.000Z</time>
      </trkpt>
      <trkpt lat="40.80995089374482631683349609375" lon="-1.34446799755096435546875">
        <ele>935.4000244140625</ele>
        <time>2022-05-03T08:45:59.000Z</time>
      </trkpt>
      <trkpt lat="40.8099256642162799835205078125" lon="-1.344491131603717803955078125">
        <ele>935.5999755859375</ele>
        <time>2022-05-03T08:46:00.000Z</time>
      </trkpt>
      <trkpt lat="40.8098730258643627166748046875" lon="-1.3445379026234149932861328125">
        <ele>936</ele>
        <time>2022-05-03T08:46:02.000Z</time>
      </trkpt>
      <trkpt lat="40.80979750491678714752197265625" lon="-1.34461023844778537750244140625">
        <ele>936.4000244140625</ele>
        <time>2022-05-03T08:46:05.000Z</time>
      </trkpt>
      <trkpt lat="40.80974805168807506561279296875" lon="-1.34465600363910198211669921875">
        <ele>936.5999755859375</ele>
        <time>2022-05-03T08:46:07.000Z</time>
      </trkpt>
      <trkpt lat="40.8097015321254730224609375" lon="-1.34470026008784770965576171875">
        <ele>936.79998779296875</ele>
        <time>2022-05-03T08:46:09.000Z</time>
      </trkpt>
      <trkpt lat="40.8096775598824024200439453125" lon="-1.34472188539803028106689453125">
        <ele>936.79998779296875</ele>
        <time>2022-05-03T08:46:10.000Z</time>
      </trkpt>
      <trkpt lat="40.8096532523632049560546875" lon="-1.34474334307014942169189453125">
        <ele>936.79998779296875</ele>
        <time>2022-05-03T08:46:11.000Z</time>
      </trkpt>
      <trkpt lat="40.80960354767739772796630859375" lon="-1.344783492386341094970703125">
        <ele>936.79998779296875</ele>
        <time>2022-05-03T08:46:13.000Z</time>
      </trkpt>
      <trkpt lat="40.80957722850143909454345703125" lon="-1.34480503387749195098876953125">
        <ele>936.79998779296875</ele>
        <time>2022-05-03T08:46:14.000Z</time>
      </trkpt>
      <trkpt lat="40.80954889766871929168701171875" lon="-1.34482867084443569183349609375">
        <ele>937</ele>
        <time>2022-05-03T08:46:15.000Z</time>
      </trkpt>
      <trkpt lat="40.80945678055286407470703125" lon="-1.34490159340202808380126953125">
        <ele>937.20001220703125</ele>
        <time>2022-05-03T08:46:18.000Z</time>
      </trkpt>
      <trkpt lat="40.809422917664051055908203125" lon="-1.34492598474025726318359375">
        <ele>937.4000244140625</ele>
        <time>2022-05-03T08:46:19.000Z</time>
      </trkpt>
      <trkpt lat="40.80935007892549037933349609375" lon="-1.3449710793793201446533203125">
        <ele>937.5999755859375</ele>
        <time>2022-05-03T08:46:21.000Z</time>
      </trkpt>
      <trkpt lat="40.80923281610012054443359375" lon="-1.34505079127848148345947265625">
        <ele>937.79998779296875</ele>
        <time>2022-05-03T08:46:24.000Z</time>
      </trkpt>
      <trkpt lat="40.80919216386973857879638671875" lon="-1.34508130140602588653564453125">
        <ele>938</ele>
        <time>2022-05-03T08:46:25.000Z</time>
      </trkpt>
      <trkpt lat="40.80911136232316493988037109375" lon="-1.34514600969851016998291015625">
        <ele>938.4000244140625</ele>
        <time>2022-05-03T08:46:27.000Z</time>
      </trkpt>
      <trkpt lat="40.8090693689882755279541015625" lon="-1.34518004022538661956787109375">
        <ele>938.4000244140625</ele>
        <time>2022-05-03T08:46:28.000Z</time>
      </trkpt>
      <trkpt lat="40.808981359004974365234375" lon="-1.34525120258331298828125">
        <ele>938.79998779296875</ele>
        <time>2022-05-03T08:46:30.000Z</time>
      </trkpt>
      <trkpt lat="40.80889946781098842620849609375" lon="-1.34532806463539600372314453125">
        <ele>939.20001220703125</ele>
        <time>2022-05-03T08:46:32.000Z</time>
      </trkpt>
      <trkpt lat="40.8088215999305248260498046875" lon="-1.34540668688714504241943359375">
        <ele>939.20001220703125</ele>
        <time>2022-05-03T08:46:34.000Z</time>
      </trkpt>
      <trkpt lat="40.80878279171884059906005859375" lon="-1.34544373489916324615478515625">
        <ele>939</ele>
        <time>2022-05-03T08:46:35.000Z</time>
      </trkpt>
      <trkpt lat="40.8087076060473918914794921875" lon="-1.34551950730383396148681640625">
        <ele>939</ele>
        <time>2022-05-03T08:46:37.000Z</time>
      </trkpt>
      <trkpt lat="40.80858916975557804107666015625" lon="-1.345646493136882781982421875">
        <ele>938.79998779296875</ele>
        <time>2022-05-03T08:46:40.000Z</time>
      </trkpt>
      <trkpt lat="40.808546841144561767578125" lon="-1.3456905819475650787353515625">
        <ele>938.5999755859375</ele>
        <time>2022-05-03T08:46:41.000Z</time>
      </trkpt>
      <trkpt lat="40.80850484780967235565185546875" lon="-1.34573676623404026031494140625">
        <ele>938.4000244140625</ele>
        <time>2022-05-03T08:46:42.000Z</time>
      </trkpt>
      <trkpt lat="40.80846344120800495147705078125" lon="-1.34578286670148372650146484375">
        <ele>938.4000244140625</ele>
        <time>2022-05-03T08:46:43.000Z</time>
      </trkpt>
      <trkpt lat="40.808347351849079132080078125" lon="-1.34591463021934032440185546875">
        <ele>937.79998779296875</ele>
        <time>2022-05-03T08:46:46.000Z</time>
      </trkpt>
      <trkpt lat="40.80828054808080196380615234375" lon="-1.34600264020264148712158203125">
        <ele>937.5999755859375</ele>
        <time>2022-05-03T08:46:48.000Z</time>
      </trkpt>
      <trkpt lat="40.80824852921068668365478515625" lon="-1.34604672901332378387451171875">
        <ele>937.4000244140625</ele>
        <time>2022-05-03T08:46:49.000Z</time>
      </trkpt>
      <trkpt lat="40.80815398134291172027587890625" lon="-1.34618184529244899749755859375">
        <ele>937</ele>
        <time>2022-05-03T08:46:52.000Z</time>
      </trkpt>
      <trkpt lat="40.808120705187320709228515625" lon="-1.34622358717024326324462890625">
        <ele>936.79998779296875</ele>
        <time>2022-05-03T08:46:53.000Z</time>
      </trkpt>
      <trkpt lat="40.80804719589650630950927734375" lon="-1.34630153886973857879638671875">
        <ele>936.5999755859375</ele>
        <time>2022-05-03T08:46:55.000Z</time>
      </trkpt>
      <trkpt lat="40.80796681344509124755859375" lon="-1.346376724541187286376953125">
        <ele>936.5999755859375</ele>
        <time>2022-05-03T08:46:57.000Z</time>
      </trkpt>
      <trkpt lat="40.80788458697497844696044921875" lon="-1.3464570231735706329345703125">
        <ele>936.5999755859375</ele>
        <time>2022-05-03T08:46:59.000Z</time>
      </trkpt>
      <trkpt lat="40.80780898220837116241455078125" lon="-1.3465398363769054412841796875">
        <ele>936.5999755859375</ele>
        <time>2022-05-03T08:47:01.000Z</time>
      </trkpt>
      <trkpt lat="40.8077440224587917327880859375" lon="-1.34661720134317874908447265625">
        <ele>936.5999755859375</ele>
        <time>2022-05-03T08:47:03.000Z</time>
      </trkpt>
      <trkpt lat="40.80771242268383502960205078125" lon="-1.34664787910878658294677734375">
        <ele>936.5999755859375</ele>
        <time>2022-05-03T08:47:04.000Z</time>
      </trkpt>
      <trkpt lat="40.80768006853759288787841796875" lon="-1.34667973034083843231201171875">
        <ele>936.5999755859375</ele>
        <time>2022-05-03T08:47:05.000Z</time>
      </trkpt>
      <trkpt lat="40.80757789313793182373046875" lon="-1.34680084884166717529296875">
        <ele>936.5999755859375</ele>
        <time>2022-05-03T08:47:08.000Z</time>
      </trkpt>
      <trkpt lat="40.8075034618377685546875" lon="-1.34689028374850749969482421875">
        <ele>936.5999755859375</ele>
        <time>2022-05-03T08:47:10.000Z</time>
      </trkpt>
      <trkpt lat="40.807463228702545166015625" lon="-1.34693755768239498138427734375">
        <ele>936.79998779296875</ele>
        <time>2022-05-03T08:47:11.000Z</time>
      </trkpt>
      <trkpt lat="40.80738318152725696563720703125" lon="-1.3470360450446605682373046875">
        <ele>936.79998779296875</ele>
        <time>2022-05-03T08:47:13.000Z</time>
      </trkpt>
      <trkpt lat="40.807297267019748687744140625" lon="-1.34714023210108280181884765625">
        <ele>936.79998779296875</ele>
        <time>2022-05-03T08:47:15.000Z</time>
      </trkpt>
      <trkpt lat="40.80721043050289154052734375" lon="-1.34724752046167850494384765625">
        <ele>936.79998779296875</ele>
        <time>2022-05-03T08:47:17.000Z</time>
      </trkpt>
      <trkpt lat="40.8071680180728435516357421875" lon="-1.3472990691661834716796875">
        <ele>936.79998779296875</ele>
        <time>2022-05-03T08:47:18.000Z</time>
      </trkpt>
      <trkpt lat="40.80707967281341552734375" lon="-1.347395293414592742919921875">
        <ele>937</ele>
        <time>2022-05-03T08:47:20.000Z</time>
      </trkpt>
      <trkpt lat="40.806955955922603607177734375" lon="-1.347541473805904388427734375">
        <ele>937.20001220703125</ele>
        <time>2022-05-03T08:47:23.000Z</time>
      </trkpt>
      <trkpt lat="40.8068773336708545684814453125" lon="-1.34763493202626705169677734375">
        <ele>937.4000244140625</ele>
        <time>2022-05-03T08:47:25.000Z</time>
      </trkpt>
      <trkpt lat="40.8068394474685192108154296875" lon="-1.347678266465663909912109375">
        <ele>937.4000244140625</ele>
        <time>2022-05-03T08:47:26.000Z</time>
      </trkpt>
      <trkpt lat="40.80679980106651782989501953125" lon="-1.34772126562893390655517578125">
        <ele>937.4000244140625</ele>
        <time>2022-05-03T08:47:27.000Z</time>
      </trkpt>
      <trkpt lat="40.80669150687754154205322265625" lon="-1.347856633365154266357421875">
        <ele>937.79998779296875</ele>
        <time>2022-05-03T08:47:30.000Z</time>
      </trkpt>
      <trkpt lat="40.80665714107453823089599609375" lon="-1.34790122509002685546875">
        <ele>937.79998779296875</ele>
        <time>2022-05-03T08:47:31.000Z</time>
      </trkpt>
      <trkpt lat="40.806623362004756927490234375" lon="-1.3479439727962017059326171875">
        <ele>938</ele>
        <time>2022-05-03T08:47:32.000Z</time>
      </trkpt>
      <trkpt lat="40.80658975057303905487060546875" lon="-1.34798596613109111785888671875">
        <ele>938</ele>
        <time>2022-05-03T08:47:33.000Z</time>
      </trkpt>
      <trkpt lat="40.80655773170292377471923828125" lon="-1.3480277918279170989990234375">
        <ele>938.20001220703125</ele>
        <time>2022-05-03T08:47:34.000Z</time>
      </trkpt>
      <trkpt lat="40.80652638338506221771240234375" lon="-1.348070539534091949462890625">
        <ele>938.20001220703125</ele>
        <time>2022-05-03T08:47:35.000Z</time>
      </trkpt>
      <trkpt lat="40.8064666204154491424560546875" lon="-1.34816206991672515869140625">
        <ele>938.4000244140625</ele>
        <time>2022-05-03T08:47:37.000Z</time>
      </trkpt>
      <trkpt lat="40.80640434287488460540771484375" lon="-1.34824647568166255950927734375">
        <ele>938.4000244140625</ele>
        <time>2022-05-03T08:47:39.000Z</time>
      </trkpt>
      <trkpt lat="40.8063318394124507904052734375" lon="-1.348322667181491851806640625">
        <ele>938.20001220703125</ele>
        <time>2022-05-03T08:47:41.000Z</time>
      </trkpt>
      <trkpt lat="40.80626495182514190673828125" lon="-1.34840321727097034454345703125">
        <ele>938.20001220703125</ele>
        <time>2022-05-03T08:47:43.000Z</time>
      </trkpt>
      <trkpt lat="40.80619680695235729217529296875" lon="-1.3484810851514339447021484375">
        <ele>938.20001220703125</ele>
        <time>2022-05-03T08:47:45.000Z</time>
      </trkpt>
      <trkpt lat="40.80616571009159088134765625" lon="-1.34852140210568904876708984375">
        <ele>938.20001220703125</ele>
        <time>2022-05-03T08:47:46.000Z</time>
      </trkpt>
      <trkpt lat="40.8061367087066173553466796875" lon="-1.34856331162154674530029296875">
        <ele>938.20001220703125</ele>
        <time>2022-05-03T08:47:47.000Z</time>
      </trkpt>
      <trkpt lat="40.80610762350261211395263671875" lon="-1.3486041314899921417236328125">
        <ele>938.20001220703125</ele>
        <time>2022-05-03T08:47:48.000Z</time>
      </trkpt>
      <trkpt lat="40.80607728101313114166259765625" lon="-1.34864260442554950714111328125">
        <ele>938</ele>
        <time>2022-05-03T08:47:49.000Z</time>
      </trkpt>
      <trkpt lat="40.80599681474268436431884765625" lon="-1.34875752031803131103515625">
        <ele>938</ele>
        <time>2022-05-03T08:47:52.000Z</time>
      </trkpt>
      <trkpt lat="40.80597049556672573089599609375" lon="-1.34879599325358867645263671875">
        <ele>938</ele>
        <time>2022-05-03T08:47:53.000Z</time>
      </trkpt>
      <trkpt lat="40.80594384111464023590087890625" lon="-1.3488334603607654571533203125">
        <ele>938</ele>
        <time>2022-05-03T08:47:54.000Z</time>
      </trkpt>
      <trkpt lat="40.8058926276862621307373046875" lon="-1.348907388746738433837890625">
        <ele>938</ele>
        <time>2022-05-03T08:47:56.000Z</time>
      </trkpt>
      <trkpt lat="40.80584074370563030242919921875" lon="-1.34898156858980655670166015625">
        <ele>938.20001220703125</ele>
        <time>2022-05-03T08:47:58.000Z</time>
      </trkpt>
      <trkpt lat="40.8057900331914424896240234375" lon="-1.3490530662238597869873046875">
        <ele>938.5999755859375</ele>
        <time>2022-05-03T08:48:00.000Z</time>
      </trkpt>
      <trkpt lat="40.80573932267725467681884765625" lon="-1.34912523441016674041748046875">
        <ele>939.20001220703125</ele>
        <time>2022-05-03T08:48:02.000Z</time>
      </trkpt>
      <trkpt lat="40.80568559467792510986328125" lon="-1.349194049835205078125">
        <ele>939.5999755859375</ele>
        <time>2022-05-03T08:48:04.000Z</time>
      </trkpt>
      <trkpt lat="40.80563622526824474334716796875" lon="-1.34926588274538516998291015625">
        <ele>940.20001220703125</ele>
        <time>2022-05-03T08:48:06.000Z</time>
      </trkpt>
      <trkpt lat="40.80558576621115207672119140625" lon="-1.34934081695973873138427734375">
        <ele>940.5999755859375</ele>
        <time>2022-05-03T08:48:08.000Z</time>
      </trkpt>
      <trkpt lat="40.80553681589663028717041015625" lon="-1.34940887801349163055419921875">
        <ele>941.20001220703125</ele>
        <time>2022-05-03T08:48:10.000Z</time>
      </trkpt>
      <trkpt lat="40.805490128695964813232421875" lon="-1.34947291575372219085693359375">
        <ele>941.79998779296875</ele>
        <time>2022-05-03T08:48:12.000Z</time>
      </trkpt>
      <trkpt lat="40.8054483868181705474853515625" lon="-1.34953544475138187408447265625">
        <ele>942.20001220703125</ele>
        <time>2022-05-03T08:48:14.000Z</time>
      </trkpt>
      <trkpt lat="40.8054265938699245452880859375" lon="-1.34956444613635540008544921875">
        <ele>942.5999755859375</ele>
        <time>2022-05-03T08:48:15.000Z</time>
      </trkpt>
      <trkpt lat="40.80540454946458339691162109375" lon="-1.34959411807358264923095703125">
        <ele>942.79998779296875</ele>
        <time>2022-05-03T08:48:16.000Z</time>
      </trkpt>
      <trkpt lat="40.80536213703453540802001953125" lon="-1.34965212084352970123291015625">
        <ele>943.20001220703125</ele>
        <time>2022-05-03T08:48:18.000Z</time>
      </trkpt>
      <trkpt lat="40.80532223917543888092041015625" lon="-1.349706687033176422119140625">
        <ele>943.79998779296875</ele>
        <time>2022-05-03T08:48:20.000Z</time>
      </trkpt>
      <trkpt lat="40.80530229024589061737060546875" lon="-1.349734179675579071044921875">
        <ele>944</ele>
        <time>2022-05-03T08:48:21.000Z</time>
      </trkpt>
      <trkpt lat="40.80528334714472293853759765625" lon="-1.3497615046799182891845703125">
        <ele>944.20001220703125</ele>
        <time>2022-05-03T08:48:22.000Z</time>
      </trkpt>
      <trkpt lat="40.80524504184722900390625" lon="-1.34981456212699413299560546875">
        <ele>944.5999755859375</ele>
        <time>2022-05-03T08:48:24.000Z</time>
      </trkpt>
      <trkpt lat="40.8052264340221881866455078125" lon="-1.34984104894101619720458984375">
        <ele>944.79998779296875</ele>
        <time>2022-05-03T08:48:25.000Z</time>
      </trkpt>
      <trkpt lat="40.80520791001617908477783203125" lon="-1.349866949021816253662109375">
        <ele>945</ele>
        <time>2022-05-03T08:48:26.000Z</time>
      </trkpt>
      <trkpt lat="40.8051712810993194580078125" lon="-1.34991648606956005096435546875">
        <ele>945.4000244140625</ele>
        <time>2022-05-03T08:48:28.000Z</time>
      </trkpt>
      <trkpt lat="40.80513381399214267730712890625" lon="-1.34996996261179447174072265625">
        <ele>945.5999755859375</ele>
        <time>2022-05-03T08:48:30.000Z</time>
      </trkpt>
      <trkpt lat="40.80509592778980731964111328125" lon="-1.35002327151596546173095703125">
        <ele>946</ele>
        <time>2022-05-03T08:48:32.000Z</time>
      </trkpt>
      <trkpt lat="40.805077739059925079345703125" lon="-1.350049674510955810546875">
        <ele>946.20001220703125</ele>
        <time>2022-05-03T08:48:33.000Z</time>
      </trkpt>
      <trkpt lat="40.8050594665110111236572265625" lon="-1.35007574222981929779052734375">
        <ele>946.4000244140625</ele>
        <time>2022-05-03T08:48:34.000Z</time>
      </trkpt>
      <trkpt lat="40.805018730461597442626953125" lon="-1.3501299731433391571044921875">
        <ele>946.5999755859375</ele>
        <time>2022-05-03T08:48:36.000Z</time>
      </trkpt>
      <trkpt lat="40.804977826774120330810546875" lon="-1.35018537752330303192138671875">
        <ele>947</ele>
        <time>2022-05-03T08:48:38.000Z</time>
      </trkpt>
      <trkpt lat="40.80493767745792865753173828125" lon="-1.35024522431194782257080078125">
        <ele>947.4000244140625</ele>
        <time>2022-05-03T08:48:40.000Z</time>
      </trkpt>
      <trkpt lat="40.80489300191402435302734375" lon="-1.350307501852512359619140625">
        <ele>947.79998779296875</ele>
        <time>2022-05-03T08:48:42.000Z</time>
      </trkpt>
      <trkpt lat="40.80484740436077117919921875" lon="-1.35037195868790149688720703125">
        <ele>948.20001220703125</ele>
        <time>2022-05-03T08:48:44.000Z</time>
      </trkpt>
      <trkpt lat="40.8048244379460811614990234375" lon="-1.350406743586063385009765625">
        <ele>948.4000244140625</ele>
        <time>2022-05-03T08:48:45.000Z</time>
      </trkpt>
      <trkpt lat="40.80480021424591541290283203125" lon="-1.35044404305517673492431640625">
        <ele>948.5999755859375</ele>
        <time>2022-05-03T08:48:46.000Z</time>
      </trkpt>
      <trkpt lat="40.80475009046494960784912109375" lon="-1.35052333585917949676513671875">
        <ele>949.20001220703125</ele>
        <time>2022-05-03T08:48:48.000Z</time>
      </trkpt>
      <trkpt lat="40.80469426698982715606689453125" lon="-1.35060732252895832061767578125">
        <ele>949.5999755859375</ele>
        <time>2022-05-03T08:48:50.000Z</time>
      </trkpt>
      <trkpt lat="40.80463408492505550384521484375" lon="-1.35069499723613262176513671875">
        <ele>949.4000244140625</ele>
        <time>2022-05-03T08:48:52.000Z</time>
      </trkpt>
      <trkpt lat="40.80457256175577640533447265625" lon="-1.35078351013362407684326171875">
        <ele>949.20001220703125</ele>
        <time>2022-05-03T08:48:54.000Z</time>
      </trkpt>
      <trkpt lat="40.804509110748767852783203125" lon="-1.350870430469512939453125">
        <ele>949</ele>
        <time>2022-05-03T08:48:56.000Z</time>
      </trkpt>
      <trkpt lat="40.80444767139852046966552734375" lon="-1.35096036829054355621337890625">
        <ele>948.79998779296875</ele>
        <time>2022-05-03T08:48:58.000Z</time>
      </trkpt>
      <trkpt lat="40.80441447906196117401123046875" lon="-1.3510087318718433380126953125">
        <ele>948.79998779296875</ele>
        <time>2022-05-03T08:48:59.000Z</time>
      </trkpt>
      <trkpt lat="40.804381705820560455322265625" lon="-1.3510590232908725738525390625">
        <ele>948.5999755859375</ele>
        <time>2022-05-03T08:49:00.000Z</time>
      </trkpt>
      <trkpt lat="40.80431255511939525604248046875" lon="-1.35116354562342166900634765625">
        <ele>948.4000244140625</ele>
        <time>2022-05-03T08:49:02.000Z</time>
      </trkpt>
      <trkpt lat="40.80424181185662746429443359375" lon="-1.3512655533850193023681640625">
        <ele>948.20001220703125</ele>
        <time>2022-05-03T08:49:04.000Z</time>
      </trkpt>
      <trkpt lat="40.80417173914611339569091796875" lon="-1.3513651303946971893310546875">
        <ele>948</ele>
        <time>2022-05-03T08:49:06.000Z</time>
      </trkpt>
      <trkpt lat="40.80413552932441234588623046875" lon="-1.3514162600040435791015625">
        <ele>948</ele>
        <time>2022-05-03T08:49:07.000Z</time>
      </trkpt>
      <trkpt lat="40.804100073873996734619140625" lon="-1.35146680288016796112060546875">
        <ele>947.79998779296875</ele>
        <time>2022-05-03T08:49:08.000Z</time>
      </trkpt>
      <trkpt lat="40.8040315099060535430908203125" lon="-1.35156386531889438629150390625">
        <ele>947.4000244140625</ele>
        <time>2022-05-03T08:49:10.000Z</time>
      </trkpt>
      <trkpt lat="40.80396051518619060516357421875" lon="-1.35166578926146030426025390625">
        <ele>947</ele>
        <time>2022-05-03T08:49:12.000Z</time>
      </trkpt>
      <trkpt lat="40.80388222821056842803955078125" lon="-1.35177324526011943817138671875">
        <ele>946.79998779296875</ele>
        <time>2022-05-03T08:49:14.000Z</time>
      </trkpt>
      <trkpt lat="40.8038035221397876739501953125" lon="-1.351882629096508026123046875">
        <ele>946.4000244140625</ele>
        <time>2022-05-03T08:49:16.000Z</time>
      </trkpt>
      <trkpt lat="40.8037267439067363739013671875" lon="-1.35198849253356456756591796875">
        <ele>946.20001220703125</ele>
        <time>2022-05-03T08:49:18.000Z</time>
      </trkpt>
      <trkpt lat="40.8036563359200954437255859375" lon="-1.35209360159933567047119140625">
        <ele>946.20001220703125</ele>
        <time>2022-05-03T08:49:20.000Z</time>
      </trkpt>
      <trkpt lat="40.80358684994280338287353515625" lon="-1.35218513198196887969970703125">
        <ele>946</ele>
        <time>2022-05-03T08:49:22.000Z</time>
      </trkpt>
      <trkpt lat="40.80355550162494182586669921875" lon="-1.35222989134490489959716796875">
        <ele>945.79998779296875</ele>
        <time>2022-05-03T08:49:23.000Z</time>
      </trkpt>
      <trkpt lat="40.80352968536317348480224609375" lon="-1.352278254926204681396484375">
        <ele>945.79998779296875</ele>
        <time>2022-05-03T08:49:24.000Z</time>
      </trkpt>
      <trkpt lat="40.80346816219389438629150390625" lon="-1.35237439535558223724365234375">
        <ele>945.79998779296875</ele>
        <time>2022-05-03T08:49:26.000Z</time>
      </trkpt>
      <trkpt lat="40.80343228764832019805908203125" lon="-1.35242317803204059600830078125">
        <ele>945.79998779296875</ele>
        <time>2022-05-03T08:49:27.000Z</time>
      </trkpt>
      <trkpt lat="40.80339490436017513275146484375" lon="-1.3524725474417209625244140625">
        <ele>945.5999755859375</ele>
        <time>2022-05-03T08:49:28.000Z</time>
      </trkpt>
      <trkpt lat="40.803322233259677886962890625" lon="-1.3525784946978092193603515625">
        <ele>945.5999755859375</ele>
        <time>2022-05-03T08:49:30.000Z</time>
      </trkpt>
      <trkpt lat="40.803252160549163818359375" lon="-1.35268854908645153045654296875">
        <ele>945.5999755859375</ele>
        <time>2022-05-03T08:49:32.000Z</time>
      </trkpt>
      <trkpt lat="40.80318300984799861907958984375" lon="-1.3528029620647430419921875">
        <ele>945.5999755859375</ele>
        <time>2022-05-03T08:49:34.000Z</time>
      </trkpt>
      <trkpt lat="40.8031467162072658538818359375" lon="-1.35285585187375545501708984375">
        <ele>945.5999755859375</ele>
        <time>2022-05-03T08:49:35.000Z</time>
      </trkpt>
      <trkpt lat="40.803108327090740203857421875" lon="-1.35290312580764293670654296875">
        <ele>945.4000244140625</ele>
        <time>2022-05-03T08:49:36.000Z</time>
      </trkpt>
      <trkpt lat="40.8030706085264682769775390625" lon="-1.35294805280864238739013671875">
        <ele>945.4000244140625</ele>
        <time>2022-05-03T08:49:37.000Z</time>
      </trkpt>
      <trkpt lat="40.8030327223241329193115234375" lon="-1.35299096815288066864013671875">
        <ele>945.4000244140625</ele>
        <time>2022-05-03T08:49:38.000Z</time>
      </trkpt>
      <trkpt lat="40.80299265682697296142578125" lon="-1.35302768088877201080322265625">
        <ele>945.5999755859375</ele>
        <time>2022-05-03T08:49:39.000Z</time>
      </trkpt>
      <trkpt lat="40.802950076758861541748046875" lon="-1.35305978357791900634765625">
        <ele>945.79998779296875</ele>
        <time>2022-05-03T08:49:40.000Z</time>
      </trkpt>
      <trkpt lat="40.802866928279399871826171875" lon="-1.3531323708593845367431640625">
        <ele>946.20001220703125</ele>
        <time>2022-05-03T08:49:42.000Z</time>
      </trkpt>
      <trkpt lat="40.8028295449912548065185546875" lon="-1.35317017324268817901611328125">
        <ele>946.4000244140625</ele>
        <time>2022-05-03T08:49:43.000Z</time>
      </trkpt>
      <trkpt lat="40.802796520292758941650390625" lon="-1.35320722125470638275146484375">
        <ele>946.5999755859375</ele>
        <time>2022-05-03T08:49:44.000Z</time>
      </trkpt>
      <trkpt lat="40.8027641661465167999267578125" lon="-1.35324125178158283233642578125">
        <ele>947</ele>
        <time>2022-05-03T08:49:45.000Z</time>
      </trkpt>
      <trkpt lat="40.80273139290511608123779296875" lon="-1.353272013366222381591796875">
        <ele>947.20001220703125</ele>
        <time>2022-05-03T08:49:46.000Z</time>
      </trkpt>
      <trkpt lat="40.80266769044101238250732421875" lon="-1.35333177633583545684814453125">
        <ele>947.5999755859375</ele>
        <time>2022-05-03T08:49:48.000Z</time>
      </trkpt>
      <trkpt lat="40.80263885669410228729248046875" lon="-1.35336195118725299835205078125">
        <ele>947.79998779296875</ele>
        <time>2022-05-03T08:49:49.000Z</time>
      </trkpt>
      <trkpt lat="40.80255738459527492523193359375" lon="-1.35344660840928554534912109375">
        <ele>948.4000244140625</ele>
        <time>2022-05-03T08:49:52.000Z</time>
      </trkpt>
      <trkpt lat="40.80253391526639461517333984375" lon="-1.35347175411880016326904296875">
        <ele>948.5999755859375</ele>
        <time>2022-05-03T08:49:53.000Z</time>
      </trkpt>
      <trkpt lat="40.8025117032229900360107421875" lon="-1.35349505580961704254150390625">
        <ele>948.79998779296875</ele>
        <time>2022-05-03T08:49:54.000Z</time>
      </trkpt>
      <trkpt lat="40.8024892397224903106689453125" lon="-1.35351768694818019866943359375">
        <ele>949</ele>
        <time>2022-05-03T08:49:55.000Z</time>
      </trkpt>
      <trkpt lat="40.802467949688434600830078125" lon="-1.353540234267711639404296875">
        <ele>949</ele>
        <time>2022-05-03T08:49:56.000Z</time>
      </trkpt>
      <trkpt lat="40.80243165604770183563232421875" lon="-1.35358440689742565155029296875">
        <ele>949.4000244140625</ele>
        <time>2022-05-03T08:49:58.000Z</time>
      </trkpt>
      <trkpt lat="40.80239997245371341705322265625" lon="-1.35363000445067882537841796875">
        <ele>949.79998779296875</ele>
        <time>2022-05-03T08:50:00.000Z</time>
      </trkpt>
      <trkpt lat="40.8023842982947826385498046875" lon="-1.3536530546844005584716796875">
        <ele>949.79998779296875</ele>
        <time>2022-05-03T08:50:01.000Z</time>
      </trkpt>
      <trkpt lat="40.80236510373651981353759765625" lon="-1.3536748476326465606689453125">
        <ele>950</ele>
        <time>2022-05-03T08:50:02.000Z</time>
      </trkpt>
      <trkpt lat="40.80232906155288219451904296875" lon="-1.3537214510142803192138671875">
        <ele>950.4000244140625</ele>
        <time>2022-05-03T08:50:04.000Z</time>
      </trkpt>
      <trkpt lat="40.80231263302266597747802734375" lon="-1.353748105466365814208984375">
        <ele>950.5999755859375</ele>
        <time>2022-05-03T08:50:05.000Z</time>
      </trkpt>
      <trkpt lat="40.80229704268276691436767578125" lon="-1.353775598108768463134765625">
        <ele>950.79998779296875</ele>
        <time>2022-05-03T08:50:06.000Z</time>
      </trkpt>
      <trkpt lat="40.802266113460063934326171875" lon="-1.353830583393573760986328125">
        <ele>951</ele>
        <time>2022-05-03T08:50:08.000Z</time>
      </trkpt>
      <trkpt lat="40.80223602242767810821533203125" lon="-1.353886909782886505126953125">
        <ele>951.4000244140625</ele>
        <time>2022-05-03T08:50:10.000Z</time>
      </trkpt>
      <trkpt lat="40.80220878124237060546875" lon="-1.35394650511443614959716796875">
        <ele>951.79998779296875</ele>
        <time>2022-05-03T08:50:12.000Z</time>
      </trkpt>
      <trkpt lat="40.802182964980602264404296875" lon="-1.35400601662695407867431640625">
        <ele>952.20001220703125</ele>
        <time>2022-05-03T08:50:14.000Z</time>
      </trkpt>
      <trkpt lat="40.8021537959575653076171875" lon="-1.3540587387979030609130859375">
        <ele>952.4000244140625</ele>
        <time>2022-05-03T08:50:16.000Z</time>
      </trkpt>
      <trkpt lat="40.80212571658194065093994140625" lon="-1.35410458780825138092041015625">
        <ele>952.5999755859375</ele>
        <time>2022-05-03T08:50:18.000Z</time>
      </trkpt>
      <trkpt lat="40.80211414955556392669677734375" lon="-1.35412705130875110626220703125">
        <ele>952.5999755859375</ele>
        <time>2022-05-03T08:50:19.000Z</time>
      </trkpt>
      <trkpt lat="40.80209218896925449371337890625" lon="-1.3542059250175952911376953125">
        <ele>953</ele>
        <time>2022-05-03T08:50:22.000Z</time>
      </trkpt>
      <trkpt lat="40.80206922255456447601318359375" lon="-1.3542540371417999267578125">
        <ele>953.20001220703125</ele>
        <time>2022-05-03T08:50:24.000Z</time>
      </trkpt>
      <trkpt lat="40.802042819559574127197265625" lon="-1.35430156253278255462646484375">
        <ele>953.4000244140625</ele>
        <time>2022-05-03T08:50:26.000Z</time>
      </trkpt>
      <trkpt lat="40.80201222561299800872802734375" lon="-1.3543452322483062744140625">
        <ele>953.5999755859375</ele>
        <time>2022-05-03T08:50:28.000Z</time>
      </trkpt>
      <trkpt lat="40.80198171548545360565185546875" lon="-1.3543854653835296630859375">
        <ele>953.5999755859375</ele>
        <time>2022-05-03T08:50:30.000Z</time>
      </trkpt>
      <trkpt lat="40.80196595750749111175537109375" lon="-1.35440465994179248809814453125">
        <ele>953.79998779296875</ele>
        <time>2022-05-03T08:50:31.000Z</time>
      </trkpt>
      <trkpt lat="40.801948942244052886962890625" lon="-1.35442326776683330535888671875">
        <ele>953.79998779296875</ele>
        <time>2022-05-03T08:50:32.000Z</time>
      </trkpt>
      <trkpt lat="40.8019150793552398681640625" lon="-1.3544577173888683319091796875">
        <ele>954</ele>
        <time>2022-05-03T08:50:34.000Z</time>
      </trkpt>
      <trkpt lat="40.80187777988612651824951171875" lon="-1.354492418467998504638671875">
        <ele>954</ele>
        <time>2022-05-03T08:50:36.000Z</time>
      </trkpt>
      <trkpt lat="40.80183754675090312957763671875" lon="-1.3545308075845241546630859375">
        <ele>954.20001220703125</ele>
        <time>2022-05-03T08:50:38.000Z</time>
      </trkpt>
      <trkpt lat="40.80181525088846683502197265625" lon="-1.35454765520989894866943359375">
        <ele>954.20001220703125</ele>
        <time>2022-05-03T08:50:39.000Z</time>
      </trkpt>
      <trkpt lat="40.80176596529781818389892578125" lon="-1.354577578604221343994140625">
        <ele>954.4000244140625</ele>
        <time>2022-05-03T08:50:41.000Z</time>
      </trkpt>
      <trkpt lat="40.80174132250249385833740234375" lon="-1.35459266602993011474609375">
        <ele>954.4000244140625</ele>
        <time>2022-05-03T08:50:42.000Z</time>
      </trkpt>
      <trkpt lat="40.8017147518694400787353515625" lon="-1.35460750199854373931884765625">
        <ele>954.4000244140625</ele>
        <time>2022-05-03T08:50:43.000Z</time>
      </trkpt>
      <trkpt lat="40.80165750347077846527099609375" lon="-1.3546401076018810272216796875">
        <ele>954.5999755859375</ele>
        <time>2022-05-03T08:50:45.000Z</time>
      </trkpt>
      <trkpt lat="40.80154552124440670013427734375" lon="-1.35469819419085979461669921875">
        <ele>954.5999755859375</ele>
        <time>2022-05-03T08:50:48.000Z</time>
      </trkpt>
      <trkpt lat="40.8015062101185321807861328125" lon="-1.35472032241523265838623046875">
        <ele>954.79998779296875</ele>
        <time>2022-05-03T08:50:49.000Z</time>
      </trkpt>
      <trkpt lat="40.8013801462948322296142578125" lon="-1.35480045340955257415771484375">
        <ele>955</ele>
        <time>2022-05-03T08:50:52.000Z</time>
      </trkpt>
      <trkpt lat="40.8012902922928333282470703125" lon="-1.35486633516848087310791015625">
        <ele>954.5999755859375</ele>
        <time>2022-05-03T08:50:54.000Z</time>
      </trkpt>
      <trkpt lat="40.80124561674892902374267578125" lon="-1.354905478656291961669921875">
        <ele>954.5999755859375</ele>
        <time>2022-05-03T08:50:55.000Z</time>
      </trkpt>
      <trkpt lat="40.80120228230953216552734375" lon="-1.3549495674669742584228515625">
        <ele>954.5999755859375</ele>
        <time>2022-05-03T08:50:56.000Z</time>
      </trkpt>
      <trkpt lat="40.80116146244108676910400390625" lon="-1.35499826632440090179443359375">
        <ele>954.5999755859375</ele>
        <time>2022-05-03T08:50:57.000Z</time>
      </trkpt>
      <trkpt lat="40.8011199720203876495361328125" lon="-1.35504704900085926055908203125">
        <ele>954.5999755859375</ele>
        <time>2022-05-03T08:50:58.000Z</time>
      </trkpt>
      <trkpt lat="40.8010411821305751800537109375" lon="-1.3551440276205539703369140625">
        <ele>954.5999755859375</ele>
        <time>2022-05-03T08:51:00.000Z</time>
      </trkpt>
      <trkpt lat="40.80100505612790584564208984375" lon="-1.35519322939217090606689453125">
        <ele>954.5999755859375</ele>
        <time>2022-05-03T08:51:01.000Z</time>
      </trkpt>
      <trkpt lat="40.80097504891455173492431640625" lon="-1.3552415929734706878662109375">
        <ele>954.5999755859375</ele>
        <time>2022-05-03T08:51:02.000Z</time>
      </trkpt>
      <trkpt lat="40.80092777498066425323486328125" lon="-1.35532801039516925811767578125">
        <ele>954.5999755859375</ele>
        <time>2022-05-03T08:51:04.000Z</time>
      </trkpt>
      <trkpt lat="40.80090816132724285125732421875" lon="-1.3553666509687900543212890625">
        <ele>954.5999755859375</ele>
        <time>2022-05-03T08:51:05.000Z</time>
      </trkpt>
      <trkpt lat="40.80088712275028228759765625" lon="-1.35540596209466457366943359375">
        <ele>954.5999755859375</ele>
        <time>2022-05-03T08:51:06.000Z</time>
      </trkpt>
      <trkpt lat="40.80083976499736309051513671875" lon="-1.35548475198447704315185546875">
        <ele>954.5999755859375</ele>
        <time>2022-05-03T08:51:08.000Z</time>
      </trkpt>
      <trkpt lat="40.8007669262588024139404296875" lon="-1.35559153743088245391845703125">
        <ele>954.5999755859375</ele>
        <time>2022-05-03T08:51:11.000Z</time>
      </trkpt>
      <trkpt lat="40.8007129468023777008056640625" lon="-1.35565808974206447601318359375">
        <ele>954.5999755859375</ele>
        <time>2022-05-03T08:51:13.000Z</time>
      </trkpt>
      <trkpt lat="40.80068553797900676727294921875" lon="-1.3556932099163532257080078125">
        <ele>954.5999755859375</ele>
        <time>2022-05-03T08:51:14.000Z</time>
      </trkpt>
      <trkpt lat="40.8006281219422817230224609375" lon="-1.35576219297945499420166015625">
        <ele>954.79998779296875</ele>
        <time>2022-05-03T08:51:16.000Z</time>
      </trkpt>
      <trkpt lat="40.80056835897266864776611328125" lon="-1.35582447052001953125">
        <ele>954.79998779296875</ele>
        <time>2022-05-03T08:51:18.000Z</time>
      </trkpt>
      <trkpt lat="40.80051203258335590362548828125" lon="-1.3558735884726047515869140625">
        <ele>954.5999755859375</ele>
        <time>2022-05-03T08:51:20.000Z</time>
      </trkpt>
      <trkpt lat="40.80048303119838237762451171875" lon="-1.35589647106826305389404296875">
        <ele>954.5999755859375</ele>
        <time>2022-05-03T08:51:21.000Z</time>
      </trkpt>
      <trkpt lat="40.800454951822757720947265625" lon="-1.35591893456876277923583984375">
        <ele>954.4000244140625</ele>
        <time>2022-05-03T08:51:22.000Z</time>
      </trkpt>
      <trkpt lat="40.80042578279972076416015625" lon="-1.35594139806926250457763671875">
        <ele>954.4000244140625</ele>
        <time>2022-05-03T08:51:23.000Z</time>
      </trkpt>
      <trkpt lat="40.800369121134281158447265625" lon="-1.355985738337039947509765625">
        <ele>954.20001220703125</ele>
        <time>2022-05-03T08:51:25.000Z</time>
      </trkpt>
      <trkpt lat="40.80030483193695545196533203125" lon="-1.35602622292935848236083984375">
        <ele>954</ele>
        <time>2022-05-03T08:51:27.000Z</time>
      </trkpt>
      <trkpt lat="40.80023802816867828369140625" lon="-1.35606343857944011688232421875">
        <ele>953.5999755859375</ele>
        <time>2022-05-03T08:51:29.000Z</time>
      </trkpt>
      <trkpt lat="40.8001356013119220733642578125" lon="-1.356115825474262237548828125">
        <ele>953.20001220703125</ele>
        <time>2022-05-03T08:51:32.000Z</time>
      </trkpt>
      <trkpt lat="40.80006301403045654296875" lon="-1.35614859871566295623779296875">
        <ele>952.79998779296875</ele>
        <time>2022-05-03T08:51:34.000Z</time>
      </trkpt>
      <trkpt lat="40.80002076923847198486328125" lon="-1.35616980493068695068359375">
        <ele>952.79998779296875</ele>
        <time>2022-05-03T08:51:35.000Z</time>
      </trkpt>
      <trkpt lat="40.799972824752330780029296875" lon="-1.3561927713453769683837890625">
        <ele>952.5999755859375</ele>
        <time>2022-05-03T08:51:36.000Z</time>
      </trkpt>
      <trkpt lat="40.79986712895333766937255859375" lon="-1.3562480919063091278076171875">
        <ele>952.20001220703125</ele>
        <time>2022-05-03T08:51:38.000Z</time>
      </trkpt>
      <trkpt lat="40.79981013201177120208740234375" lon="-1.3562826253473758697509765625">
        <ele>952.20001220703125</ele>
        <time>2022-05-03T08:51:39.000Z</time>
      </trkpt>
      <trkpt lat="40.799689181149005889892578125" lon="-1.35636015795171260833740234375">
        <ele>951.5999755859375</ele>
        <time>2022-05-03T08:51:41.000Z</time>
      </trkpt>
      <trkpt lat="40.79962640069425106048583984375" lon="-1.35640055872499942779541015625">
        <ele>951.4000244140625</ele>
        <time>2022-05-03T08:51:42.000Z</time>
      </trkpt>
      <trkpt lat="40.7995029352605342864990234375" lon="-1.35648437775671482086181640625">
        <ele>950.79998779296875</ele>
        <time>2022-05-03T08:51:44.000Z</time>
      </trkpt>
      <trkpt lat="40.79944183118641376495361328125" lon="-1.35653014294803142547607421875">
        <ele>950.4000244140625</ele>
        <time>2022-05-03T08:51:45.000Z</time>
      </trkpt>
      <trkpt lat="40.79931627027690410614013671875" lon="-1.35661907494068145751953125">
        <ele>949.5999755859375</ele>
        <time>2022-05-03T08:51:47.000Z</time>
      </trkpt>
      <trkpt lat="40.7991951517760753631591796875" lon="-1.35670884512364864349365234375">
        <ele>948.79998779296875</ele>
        <time>2022-05-03T08:51:49.000Z</time>
      </trkpt>
      <trkpt lat="40.799000523984432220458984375" lon="-1.3568485714495182037353515625">
        <ele>947.79998779296875</ele>
        <time>2022-05-03T08:51:52.000Z</time>
      </trkpt>
      <trkpt lat="40.7989339716732501983642578125" lon="-1.35689609684050083160400390625">
        <ele>947.4000244140625</ele>
        <time>2022-05-03T08:51:53.000Z</time>
      </trkpt>
      <trkpt lat="40.79886750318109989166259765625" lon="-1.3569454662501811981201171875">
        <ele>947</ele>
        <time>2022-05-03T08:51:54.000Z</time>
      </trkpt>
      <trkpt lat="40.798799358308315277099609375" lon="-1.35699324309825897216796875">
        <ele>946.5999755859375</ele>
        <time>2022-05-03T08:51:55.000Z</time>
      </trkpt>
      <trkpt lat="40.798731632530689239501953125" lon="-1.35704143904149532318115234375">
        <ele>946.4000244140625</ele>
        <time>2022-05-03T08:51:56.000Z</time>
      </trkpt>
      <trkpt lat="40.79852988012135028839111328125" lon="-1.35718166828155517578125">
        <ele>945.79998779296875</ele>
        <time>2022-05-03T08:51:59.000Z</time>
      </trkpt>
      <trkpt lat="40.79833592288196086883544921875" lon="-1.35732357390224933624267578125">
        <ele>945</ele>
        <time>2022-05-03T08:52:02.000Z</time>
      </trkpt>
      <trkpt lat="40.7982721365988254547119140625" lon="-1.357369087636470794677734375">
        <ele>944.79998779296875</ele>
        <time>2022-05-03T08:52:03.000Z</time>
      </trkpt>
      <trkpt lat="40.79814992845058441162109375" lon="-1.35745885781943798065185546875">
        <ele>944.5999755859375</ele>
        <time>2022-05-03T08:52:05.000Z</time>
      </trkpt>
      <trkpt lat="40.79809184186160564422607421875" lon="-1.35750143788754940032958984375">
        <ele>944.4000244140625</ele>
        <time>2022-05-03T08:52:06.000Z</time>
      </trkpt>
      <trkpt lat="40.7979804463684558868408203125" lon="-1.3575841672718524932861328125">
        <ele>944.20001220703125</ele>
        <time>2022-05-03T08:52:08.000Z</time>
      </trkpt>
      <trkpt lat="40.7978734932839870452880859375" lon="-1.35766522027552127838134765625">
        <ele>944</ele>
        <time>2022-05-03T08:52:10.000Z</time>
      </trkpt>
      <trkpt lat="40.7978235371410846710205078125" lon="-1.3577025197446346282958984375">
        <ele>944</ele>
        <time>2022-05-03T08:52:11.000Z</time>
      </trkpt>
      <trkpt lat="40.7977749221026897430419921875" lon="-1.35773747228085994720458984375">
        <ele>943.79998779296875</ele>
        <time>2022-05-03T08:52:12.000Z</time>
      </trkpt>
      <trkpt lat="40.7977308332920074462890625" lon="-1.357768736779689788818359375">
        <ele>943.79998779296875</ele>
        <time>2022-05-03T08:52:13.000Z</time>
      </trkpt>
      <trkpt lat="40.7976019196212291717529296875" lon="-1.35785163380205631256103515625">
        <ele>943.5999755859375</ele>
        <time>2022-05-03T08:52:16.000Z</time>
      </trkpt>
      <trkpt lat="40.79751164652407169342041015625" lon="-1.35790963657200336456298828125">
        <ele>943.4000244140625</ele>
        <time>2022-05-03T08:52:18.000Z</time>
      </trkpt>
      <trkpt lat="40.797464288771152496337890625" lon="-1.3579402305185794830322265625">
        <ele>943.4000244140625</ele>
        <time>2022-05-03T08:52:19.000Z</time>
      </trkpt>
      <trkpt lat="40.7973097264766693115234375" lon="-1.358038298785686492919921875">
        <ele>943.20001220703125</ele>
        <time>2022-05-03T08:52:22.000Z</time>
      </trkpt>
      <trkpt lat="40.79719766043126583099365234375" lon="-1.35811038315296173095703125">
        <ele>943</ele>
        <time>2022-05-03T08:52:24.000Z</time>
      </trkpt>
      <trkpt lat="40.7971380650997161865234375" lon="-1.35814768262207508087158203125">
        <ele>942.5999755859375</ele>
        <time>2022-05-03T08:52:25.000Z</time>
      </trkpt>
      <trkpt lat="40.7970785535871982574462890625" lon="-1.3581866584718227386474609375">
        <ele>942.4000244140625</ele>
        <time>2022-05-03T08:52:26.000Z</time>
      </trkpt>
      <trkpt lat="40.79701912589371204376220703125" lon="-1.35822479613125324249267578125">
        <ele>942</ele>
        <time>2022-05-03T08:52:27.000Z</time>
      </trkpt>
      <trkpt lat="40.79684235155582427978515625" lon="-1.3583385385572910308837890625">
        <ele>941.20001220703125</ele>
        <time>2022-05-03T08:52:30.000Z</time>
      </trkpt>
      <trkpt lat="40.796785689890384674072265625" lon="-1.3583737425506114959716796875">
        <ele>941</ele>
        <time>2022-05-03T08:52:31.000Z</time>
      </trkpt>
      <trkpt lat="40.7966809161007404327392578125" lon="-1.35844088159501552581787109375">
        <ele>940.4000244140625</ele>
        <time>2022-05-03T08:52:33.000Z</time>
      </trkpt>
      <trkpt lat="40.7966286130249500274658203125" lon="-1.3584736548364162445068359375">
        <ele>940.20001220703125</ele>
        <time>2022-05-03T08:52:34.000Z</time>
      </trkpt>
      <trkpt lat="40.7965742982923984527587890625" lon="-1.35850458405911922454833984375">
        <ele>940</ele>
        <time>2022-05-03T08:52:35.000Z</time>
      </trkpt>
      <trkpt lat="40.79646709375083446502685546875" lon="-1.3585536181926727294921875">
        <ele>939.4000244140625</ele>
        <time>2022-05-03T08:52:37.000Z</time>
      </trkpt>
      <trkpt lat="40.7964143715798854827880859375" lon="-1.35857465676963329315185546875">
        <ele>939.20001220703125</ele>
        <time>2022-05-03T08:52:38.000Z</time>
      </trkpt>
      <trkpt lat="40.796315968036651611328125" lon="-1.35862109251320362091064453125">
        <ele>939.4000244140625</ele>
        <time>2022-05-03T08:52:40.000Z</time>
      </trkpt>
      <trkpt lat="40.79626978375017642974853515625" lon="-1.3586448132991790771484375">
        <ele>939.5999755859375</ele>
        <time>2022-05-03T08:52:41.000Z</time>
      </trkpt>
      <trkpt lat="40.79618747346103191375732421875" lon="-1.35868948884308338165283203125">
        <ele>940</ele>
        <time>2022-05-03T08:52:43.000Z</time>
      </trkpt>
      <trkpt lat="40.796066187322139739990234375" lon="-1.358749084174633026123046875">
        <ele>940.5999755859375</ele>
        <time>2022-05-03T08:52:46.000Z</time>
      </trkpt>
      <trkpt lat="40.7960257865488529205322265625" lon="-1.358766853809356689453125">
        <ele>940.79998779296875</ele>
        <time>2022-05-03T08:52:47.000Z</time>
      </trkpt>
      <trkpt lat="40.7959044165909290313720703125" lon="-1.35881890542805194854736328125">
        <ele>941.20001220703125</ele>
        <time>2022-05-03T08:52:50.000Z</time>
      </trkpt>
      <trkpt lat="40.79578396864235401153564453125" lon="-1.3588766567409038543701171875">
        <ele>941.79998779296875</ele>
        <time>2022-05-03T08:52:53.000Z</time>
      </trkpt>
      <trkpt lat="40.795704424381256103515625" lon="-1.35891697369515895843505859375">
        <ele>942.20001220703125</ele>
        <time>2022-05-03T08:52:55.000Z</time>
      </trkpt>
      <trkpt lat="40.7956643588840961456298828125" lon="-1.35893424041569232940673828125">
        <ele>942.4000244140625</ele>
        <time>2022-05-03T08:52:56.000Z</time>
      </trkpt>
      <trkpt lat="40.7956244610249996185302734375" lon="-1.35895234532654285430908203125">
        <ele>942.5999755859375</ele>
        <time>2022-05-03T08:52:57.000Z</time>
      </trkpt>
      <trkpt lat="40.79558431170880794525146484375" lon="-1.3589708693325519561767578125">
        <ele>942.79998779296875</ele>
        <time>2022-05-03T08:52:58.000Z</time>
      </trkpt>
      <trkpt lat="40.7955051027238368988037109375" lon="-1.35900213383138179779052734375">
        <ele>943</ele>
        <time>2022-05-03T08:53:00.000Z</time>
      </trkpt>
      <trkpt lat="40.79546528868377208709716796875" lon="-1.3590181432664394378662109375">
        <ele>943</ele>
        <time>2022-05-03T08:53:01.000Z</time>
      </trkpt>
      <trkpt lat="40.795384906232357025146484375" lon="-1.35905108414590358734130859375">
        <ele>943</ele>
        <time>2022-05-03T08:53:03.000Z</time>
      </trkpt>
      <trkpt lat="40.79534509219229221343994140625" lon="-1.35906994342803955078125">
        <ele>943</ele>
        <time>2022-05-03T08:53:04.000Z</time>
      </trkpt>
      <trkpt lat="40.795305781066417694091796875" lon="-1.3590900599956512451171875">
        <ele>943</ele>
        <time>2022-05-03T08:53:05.000Z</time>
      </trkpt>
      <trkpt lat="40.79518608748912811279296875" lon="-1.35914948768913745880126953125">
        <ele>943</ele>
        <time>2022-05-03T08:53:08.000Z</time>
      </trkpt>
      <trkpt lat="40.79514493234455585479736328125" lon="-1.35917010717093944549560546875">
        <ele>943</ele>
        <time>2022-05-03T08:53:09.000Z</time>
      </trkpt>
      <trkpt lat="40.79505859874188899993896484375" lon="-1.35920866392552852630615234375">
        <ele>943</ele>
        <time>2022-05-03T08:53:11.000Z</time>
      </trkpt>
      <trkpt lat="40.79501518048346042633056640625" lon="-1.3592280261218547821044921875">
        <ele>943</ele>
        <time>2022-05-03T08:53:12.000Z</time>
      </trkpt>
      <trkpt lat="40.7949721813201904296875" lon="-1.35924772359430789947509765625">
        <ele>943</ele>
        <time>2022-05-03T08:53:13.000Z</time>
      </trkpt>
      <trkpt lat="40.794890709221363067626953125" lon="-1.35928795672953128814697265625">
        <ele>943</ele>
        <time>2022-05-03T08:53:15.000Z</time>
      </trkpt>
      <trkpt lat="40.79477445222437381744384765625" lon="-1.35934310965240001678466796875">
        <ele>943</ele>
        <time>2022-05-03T08:53:18.000Z</time>
      </trkpt>
      <trkpt lat="40.7947356440126895904541015625" lon="-1.3593604601919651031494140625">
        <ele>943</ele>
        <time>2022-05-03T08:53:19.000Z</time>
      </trkpt>
      <trkpt lat="40.79461636953055858612060546875" lon="-1.35940949432551860809326171875">
        <ele>943</ele>
        <time>2022-05-03T08:53:22.000Z</time>
      </trkpt>
      <trkpt lat="40.79457588493824005126953125" lon="-1.35942676104605197906494140625">
        <ele>943</ele>
        <time>2022-05-03T08:53:23.000Z</time>
      </trkpt>
      <trkpt lat="40.794493742287158966064453125" lon="-1.35946045629680156707763671875">
        <ele>943.20001220703125</ele>
        <time>2022-05-03T08:53:25.000Z</time>
      </trkpt>
      <trkpt lat="40.794368349015712738037109375" lon="-1.3595116697251796722412109375">
        <ele>943.20001220703125</ele>
        <time>2022-05-03T08:53:28.000Z</time>
      </trkpt>
      <trkpt lat="40.79432652331888675689697265625" lon="-1.35952918790280818939208984375">
        <ele>943.4000244140625</ele>
        <time>2022-05-03T08:53:29.000Z</time>
      </trkpt>
      <trkpt lat="40.79428427852690219879150390625" lon="-1.3595462031662464141845703125">
        <ele>943.4000244140625</ele>
        <time>2022-05-03T08:53:30.000Z</time>
      </trkpt>
      <trkpt lat="40.7942411117255687713623046875" lon="-1.3595622964203357696533203125">
        <ele>943.4000244140625</ele>
        <time>2022-05-03T08:53:31.000Z</time>
      </trkpt>
      <trkpt lat="40.794156454503536224365234375" lon="-1.3595961593091487884521484375">
        <ele>943.4000244140625</ele>
        <time>2022-05-03T08:53:33.000Z</time>
      </trkpt>
      <trkpt lat="40.79401924274861812591552734375" lon="-1.35965391062200069427490234375">
        <ele>943.5999755859375</ele>
        <time>2022-05-03T08:53:36.000Z</time>
      </trkpt>
      <trkpt lat="40.79396928660571575164794921875" lon="-1.3596726022660732269287109375">
        <ele>943.5999755859375</ele>
        <time>2022-05-03T08:53:37.000Z</time>
      </trkpt>
      <trkpt lat="40.79386937431991100311279296875" lon="-1.35971090756356716156005859375">
        <ele>943.79998779296875</ele>
        <time>2022-05-03T08:53:39.000Z</time>
      </trkpt>
      <trkpt lat="40.7937697134912014007568359375" lon="-1.35974812321364879608154296875">
        <ele>943.79998779296875</ele>
        <time>2022-05-03T08:53:41.000Z</time>
      </trkpt>
      <trkpt lat="40.793628394603729248046875" lon="-1.35980193503201007843017578125">
        <ele>944</ele>
        <time>2022-05-03T08:53:44.000Z</time>
      </trkpt>
      <trkpt lat="40.79354197718203067779541015625" lon="-1.35983395390212535858154296875">
        <ele>944</ele>
        <time>2022-05-03T08:53:46.000Z</time>
      </trkpt>
      <trkpt lat="40.79350031912326812744140625" lon="-1.359848789870738983154296875">
        <ele>944</ele>
        <time>2022-05-03T08:53:47.000Z</time>
      </trkpt>
      <trkpt lat="40.7934203557670116424560546875" lon="-1.35987527668476104736328125">
        <ele>944</ele>
        <time>2022-05-03T08:53:49.000Z</time>
      </trkpt>
      <trkpt lat="40.79334248788654804229736328125" lon="-1.3598995842039585113525390625">
        <ele>944.20001220703125</ele>
        <time>2022-05-03T08:53:51.000Z</time>
      </trkpt>
      <trkpt lat="40.79326906241476535797119140625" lon="-1.3599240593612194061279296875">
        <ele>944.20001220703125</ele>
        <time>2022-05-03T08:53:53.000Z</time>
      </trkpt>
      <trkpt lat="40.7932010851800441741943359375" lon="-1.35994778014719486236572265625">
        <ele>944.20001220703125</ele>
        <time>2022-05-03T08:53:55.000Z</time>
      </trkpt>
      <trkpt lat="40.79313646070659160614013671875" lon="-1.359972171485424041748046875">
        <ele>944.20001220703125</ele>
        <time>2022-05-03T08:53:57.000Z</time>
      </trkpt>
      <trkpt lat="40.7931035198271274566650390625" lon="-1.3599844090640544891357421875">
        <ele>944.20001220703125</ele>
        <time>2022-05-03T08:53:58.000Z</time>
      </trkpt>
      <trkpt lat="40.79307242296636104583740234375" lon="-1.3599954731762409210205078125">
        <ele>944.20001220703125</ele>
        <time>2022-05-03T08:53:59.000Z</time>
      </trkpt>
      <trkpt lat="40.792984664440155029296875" lon="-1.36002355255186557769775390625">
        <ele>944.20001220703125</ele>
        <time>2022-05-03T08:54:02.000Z</time>
      </trkpt>
      <trkpt lat="40.7929556630551815032958984375" lon="-1.36003361083567142486572265625">
        <ele>944.20001220703125</ele>
        <time>2022-05-03T08:54:03.000Z</time>
      </trkpt>
      <trkpt lat="40.79289556480944156646728515625" lon="-1.36005205102264881134033203125">
        <ele>944.20001220703125</ele>
        <time>2022-05-03T08:54:05.000Z</time>
      </trkpt>
      <trkpt lat="40.792829096317291259765625" lon="-1.36007417924702167510986328125">
        <ele>944.4000244140625</ele>
        <time>2022-05-03T08:54:07.000Z</time>
      </trkpt>
      <trkpt lat="40.7927635498344898223876953125" lon="-1.36010066606104373931884765625">
        <ele>944.4000244140625</ele>
        <time>2022-05-03T08:54:09.000Z</time>
      </trkpt>
      <trkpt lat="40.79273060895502567291259765625" lon="-1.360113658010959625244140625">
        <ele>944.4000244140625</ele>
        <time>2022-05-03T08:54:10.000Z</time>
      </trkpt>
      <trkpt lat="40.79269741661846637725830078125" lon="-1.36012715287506580352783203125">
        <ele>944.5999755859375</ele>
        <time>2022-05-03T08:54:11.000Z</time>
      </trkpt>
      <trkpt lat="40.79259934835135936737060546875" lon="-1.36017979122698307037353515625">
        <ele>944.79998779296875</ele>
        <time>2022-05-03T08:54:14.000Z</time>
      </trkpt>
      <trkpt lat="40.792543776333332061767578125" lon="-1.36023662053048610687255859375">
        <ele>944.79998779296875</ele>
        <time>2022-05-03T08:54:16.000Z</time>
      </trkpt>
      <trkpt lat="40.79252089373767375946044921875" lon="-1.36027316562831401824951171875">
        <ele>944.79998779296875</ele>
        <time>2022-05-03T08:54:17.000Z</time>
      </trkpt>
      <trkpt lat="40.792503543198108673095703125" lon="-1.3603143207728862762451171875">
        <ele>944.79998779296875</ele>
        <time>2022-05-03T08:54:18.000Z</time>
      </trkpt>
      <trkpt lat="40.792491473257541656494140625" lon="-1.36035882867872714996337890625">
        <ele>944.5999755859375</ele>
        <time>2022-05-03T08:54:19.000Z</time>
      </trkpt>
      <trkpt lat="40.79248820431530475616455078125" lon="-1.36045941151678562164306640625">
        <ele>944.79998779296875</ele>
        <time>2022-05-03T08:54:21.000Z</time>
      </trkpt>
      <trkpt lat="40.79249759204685688018798828125" lon="-1.360562928020954132080078125">
        <ele>945</ele>
        <time>2022-05-03T08:54:23.000Z</time>
      </trkpt>
      <trkpt lat="40.79251326620578765869140625" lon="-1.3606683723628520965576171875">
        <ele>945</ele>
        <time>2022-05-03T08:54:25.000Z</time>
      </trkpt>
      <trkpt lat="40.7925362326204776763916015625" lon="-1.3608343340456485748291015625">
        <ele>945.20001220703125</ele>
        <time>2022-05-03T08:54:28.000Z</time>
      </trkpt>
      <trkpt lat="40.7925419323146343231201171875" lon="-1.360891498625278472900390625">
        <ele>945.20001220703125</ele>
        <time>2022-05-03T08:54:29.000Z</time>
      </trkpt>
      <trkpt lat="40.79254453070461750030517578125" lon="-1.3609479926526546478271484375">
        <ele>945.4000244140625</ele>
        <time>2022-05-03T08:54:30.000Z</time>
      </trkpt>
      <trkpt lat="40.792546458542346954345703125" lon="-1.3610036484897136688232421875">
        <ele>945.4000244140625</ele>
        <time>2022-05-03T08:54:31.000Z</time>
      </trkpt>
      <trkpt lat="40.7925479672849178314208984375" lon="-1.36110884137451648712158203125">
        <ele>945.5999755859375</ele>
        <time>2022-05-03T08:54:33.000Z</time>
      </trkpt>
      <trkpt lat="40.79254536889493465423583984375" lon="-1.36120791547000408172607421875">
        <ele>945.5999755859375</ele>
        <time>2022-05-03T08:54:35.000Z</time>
      </trkpt>
      <trkpt lat="40.79254419542849063873291015625" lon="-1.361308582127094268798828125">
        <ele>945.5999755859375</ele>
        <time>2022-05-03T08:54:37.000Z</time>
      </trkpt>
      <trkpt lat="40.79254603944718837738037109375" lon="-1.36135946027934551239013671875">
        <ele>945.5999755859375</ele>
        <time>2022-05-03T08:54:38.000Z</time>
      </trkpt>
      <trkpt lat="40.79255056567490100860595703125" lon="-1.3614110089838504791259765625">
        <ele>945.5999755859375</ele>
        <time>2022-05-03T08:54:39.000Z</time>
      </trkpt>
      <trkpt lat="40.79256716184318065643310546875" lon="-1.36151301674544811248779296875">
        <ele>945.5999755859375</ele>
        <time>2022-05-03T08:54:41.000Z</time>
      </trkpt>
      <trkpt lat="40.7925890386104583740234375" lon="-1.361611671745777130126953125">
        <ele>945.79998779296875</ele>
        <time>2022-05-03T08:54:43.000Z</time>
      </trkpt>
      <trkpt lat="40.7926126755774021148681640625" lon="-1.36171032674610614776611328125">
        <ele>945.79998779296875</ele>
        <time>2022-05-03T08:54:45.000Z</time>
      </trkpt>
      <trkpt lat="40.79263865947723388671875" lon="-1.361809484660625457763671875">
        <ele>945.79998779296875</ele>
        <time>2022-05-03T08:54:47.000Z</time>
      </trkpt>
      <trkpt lat="40.792675875127315521240234375" lon="-1.36195993982255458831787109375">
        <ele>946</ele>
        <time>2022-05-03T08:54:50.000Z</time>
      </trkpt>
      <trkpt lat="40.79268517903983592987060546875" lon="-1.36209891177713871002197265625">
        <ele>946.20001220703125</ele>
        <time>2022-05-03T08:54:53.000Z</time>
      </trkpt>
      <trkpt lat="40.79265584237873554229736328125" lon="-1.362164877355098724365234375">
        <ele>946.20001220703125</ele>
        <time>2022-05-03T08:54:55.000Z</time>
      </trkpt>
      <trkpt lat="40.7926244102418422698974609375" lon="-1.36219765059649944305419921875">
        <ele>946.4000244140625</ele>
        <time>2022-05-03T08:54:57.000Z</time>
      </trkpt>
      <trkpt lat="40.7926019467413425445556640625" lon="-1.3622082956135272979736328125">
        <ele>946.4000244140625</ele>
        <time>2022-05-03T08:55:00.000Z</time>
      </trkpt>
      <trkpt lat="40.7926016114652156829833984375" lon="-1.36220837943255901336669921875">
        <ele>946.4000244140625</ele>
        <time>2022-05-03T08:55:01.000Z</time>
      </trkpt>
      <trkpt lat="40.7925650663673877716064453125" lon="-1.36221458204090595245361328125">
        <ele>946.4000244140625</ele>
        <time>2022-05-03T09:03:57.000Z</time>
      </trkpt>
      <trkpt lat="40.7925640605390071868896484375" lon="-1.36225632391870021820068359375">
        <ele>946.5999755859375</ele>
        <time>2022-05-03T09:03:59.000Z</time>
      </trkpt>
      <trkpt lat="40.792563892900943756103515625" lon="-1.36228063143789768218994140625">
        <ele>946.5999755859375</ele>
        <time>2022-05-03T09:04:00.000Z</time>
      </trkpt>
      <trkpt lat="40.7925623841583728790283203125" lon="-1.36230795644223690032958984375">
        <ele>946.5999755859375</ele>
        <time>2022-05-03T09:04:01.000Z</time>
      </trkpt>
      <trkpt lat="40.79255911521613597869873046875" lon="-1.36237015016376972198486328125">
        <ele>946.5999755859375</ele>
        <time>2022-05-03T09:04:03.000Z</time>
      </trkpt>
      <trkpt lat="40.79255861230194568634033203125" lon="-1.36243888176977634429931640625">
        <ele>946.5999755859375</ele>
        <time>2022-05-03T09:04:05.000Z</time>
      </trkpt>
      <trkpt lat="40.79255743883550167083740234375" lon="-1.36247458867728710174560546875">
        <ele>946.5999755859375</ele>
        <time>2022-05-03T09:04:06.000Z</time>
      </trkpt>
      <trkpt lat="40.79255618155002593994140625" lon="-1.3625107146799564361572265625">
        <ele>946.5999755859375</ele>
        <time>2022-05-03T09:04:07.000Z</time>
      </trkpt>
      <trkpt lat="40.79255458898842334747314453125" lon="-1.36258824728429317474365234375">
        <ele>946.5999755859375</ele>
        <time>2022-05-03T09:04:09.000Z</time>
      </trkpt>
      <trkpt lat="40.79255140386521816253662109375" lon="-1.3626708090305328369140625">
        <ele>946.5999755859375</ele>
        <time>2022-05-03T09:04:11.000Z</time>
      </trkpt>
      <trkpt lat="40.79254687763750553131103515625" lon="-1.3627554662525653839111328125">
        <ele>946.5999755859375</ele>
        <time>2022-05-03T09:04:13.000Z</time>
      </trkpt>
      <trkpt lat="40.79254402779042720794677734375" lon="-1.362842805683612823486328125">
        <ele>946.5999755859375</ele>
        <time>2022-05-03T09:04:15.000Z</time>
      </trkpt>
      <trkpt lat="40.79254251904785633087158203125" lon="-1.36288681067526340484619140625">
        <ele>946.5999755859375</ele>
        <time>2022-05-03T09:04:16.000Z</time>
      </trkpt>
      <trkpt lat="40.79254151321947574615478515625" lon="-1.362931318581104278564453125">
        <ele>946.5999755859375</ele>
        <time>2022-05-03T09:04:17.000Z</time>
      </trkpt>
      <trkpt lat="40.79253866337239742279052734375" lon="-1.3630223460495471954345703125">
        <ele>946.5999755859375</ele>
        <time>2022-05-03T09:04:19.000Z</time>
      </trkpt>
      <trkpt lat="40.792533718049526214599609375" lon="-1.36316408403217792510986328125">
        <ele>946.5999755859375</ele>
        <time>2022-05-03T09:04:22.000Z</time>
      </trkpt>
      <trkpt lat="40.79253145493566989898681640625" lon="-1.36321320198476314544677734375">
        <ele>946.5999755859375</ele>
        <time>2022-05-03T09:04:23.000Z</time>
      </trkpt>
      <trkpt lat="40.79252575524151325225830078125" lon="-1.3633126951754093170166015625">
        <ele>946.5999755859375</ele>
        <time>2022-05-03T09:04:25.000Z</time>
      </trkpt>
      <trkpt lat="40.79252273775637149810791015625" lon="-1.3634129427373409271240234375">
        <ele>946.5999755859375</ele>
        <time>2022-05-03T09:04:27.000Z</time>
      </trkpt>
      <trkpt lat="40.792520307004451751708984375" lon="-1.3635118491947650909423828125">
        <ele>946.5999755859375</ele>
        <time>2022-05-03T09:04:29.000Z</time>
      </trkpt>
      <trkpt lat="40.7925164513289928436279296875" lon="-1.36361134238541126251220703125">
        <ele>946.5999755859375</ele>
        <time>2022-05-03T09:04:31.000Z</time>
      </trkpt>
      <trkpt lat="40.79251100309193134307861328125" lon="-1.36371108703315258026123046875">
        <ele>946.5999755859375</ele>
        <time>2022-05-03T09:04:33.000Z</time>
      </trkpt>
      <trkpt lat="40.79250932671129703521728515625" lon="-1.36381368152797222137451171875">
        <ele>946.4000244140625</ele>
        <time>2022-05-03T09:04:35.000Z</time>
      </trkpt>
      <trkpt lat="40.79250630922615528106689453125" lon="-1.36391711421310901641845703125">
        <ele>946.4000244140625</ele>
        <time>2022-05-03T09:04:37.000Z</time>
      </trkpt>
      <trkpt lat="40.79250345937907695770263671875" lon="-1.36402197182178497314453125">
        <ele>946.4000244140625</ele>
        <time>2022-05-03T09:04:39.000Z</time>
      </trkpt>
      <trkpt lat="40.79250178299844264984130859375" lon="-1.36413621716201305389404296875">
        <ele>946.79998779296875</ele>
        <time>2022-05-03T09:04:41.000Z</time>
      </trkpt>
      <trkpt lat="40.7925020344555377960205078125" lon="-1.36425892822444438934326171875">
        <ele>947.4000244140625</ele>
        <time>2022-05-03T09:04:43.000Z</time>
      </trkpt>
      <trkpt lat="40.79250278882682323455810546875" lon="-1.364319361746311187744140625">
        <ele>947.5999755859375</ele>
        <time>2022-05-03T09:04:44.000Z</time>
      </trkpt>
      <trkpt lat="40.79250345937907695770263671875" lon="-1.3643775321543216705322265625">
        <ele>947.79998779296875</ele>
        <time>2022-05-03T09:04:45.000Z</time>
      </trkpt>
      <trkpt lat="40.792510248720645904541015625" lon="-1.36453561484813690185546875">
        <ele>948.4000244140625</ele>
        <time>2022-05-03T09:04:48.000Z</time>
      </trkpt>
      <trkpt lat="40.792513601481914520263671875" lon="-1.36458515189588069915771484375">
        <ele>948.5999755859375</ele>
        <time>2022-05-03T09:04:49.000Z</time>
      </trkpt>
      <trkpt lat="40.79251888208091259002685546875" lon="-1.364683806896209716796875">
        <ele>949</ele>
        <time>2022-05-03T09:04:51.000Z</time>
      </trkpt>
      <trkpt lat="40.792522318661212921142578125" lon="-1.36473267339169979095458984375">
        <ele>949.20001220703125</ele>
        <time>2022-05-03T09:04:52.000Z</time>
      </trkpt>
      <trkpt lat="40.79252558760344982147216796875" lon="-1.3647825457155704498291015625">
        <ele>949.4000244140625</ele>
        <time>2022-05-03T09:04:53.000Z</time>
      </trkpt>
      <trkpt lat="40.79253204166889190673828125" lon="-1.3648807816207408905029296875">
        <ele>949.79998779296875</ele>
        <time>2022-05-03T09:04:55.000Z</time>
      </trkpt>
      <trkpt lat="40.79253531061112880706787109375" lon="-1.36497281491756439208984375">
        <ele>950</ele>
        <time>2022-05-03T09:04:57.000Z</time>
      </trkpt>
      <trkpt lat="40.79253531061112880706787109375" lon="-1.36505353264510631561279296875">
        <ele>950.20001220703125</ele>
        <time>2022-05-03T09:04:59.000Z</time>
      </trkpt>
      <trkpt lat="40.79253329895436763763427734375" lon="-1.3650928437709808349609375">
        <ele>950.20001220703125</ele>
        <time>2022-05-03T09:05:00.000Z</time>
      </trkpt>
      <trkpt lat="40.79253028146922588348388671875" lon="-1.36513316072523593902587890625">
        <ele>950.4000244140625</ele>
        <time>2022-05-03T09:05:01.000Z</time>
      </trkpt>
      <trkpt lat="40.79252609051764011383056640625" lon="-1.3652207516133785247802734375">
        <ele>950.5999755859375</ele>
        <time>2022-05-03T09:05:03.000Z</time>
      </trkpt>
      <trkpt lat="40.79252156428992748260498046875" lon="-1.3653132878243923187255859375">
        <ele>950.79998779296875</ele>
        <time>2022-05-03T09:05:05.000Z</time>
      </trkpt>
      <trkpt lat="40.7925141043961048126220703125" lon="-1.36540674604475498199462890625">
        <ele>951</ele>
        <time>2022-05-03T09:05:07.000Z</time>
      </trkpt>
      <trkpt lat="40.79251117072999477386474609375" lon="-1.3654534332454204559326171875">
        <ele>951</ele>
        <time>2022-05-03T09:05:08.000Z</time>
      </trkpt>
      <trkpt lat="40.79250848852097988128662109375" lon="-1.36549995280802249908447265625">
        <ele>951.20001220703125</ele>
        <time>2022-05-03T09:05:09.000Z</time>
      </trkpt>
      <trkpt lat="40.7925027050077915191650390625" lon="-1.36559282429516315460205078125">
        <ele>951.20001220703125</ele>
        <time>2022-05-03T09:05:11.000Z</time>
      </trkpt>
      <trkpt lat="40.79249641858041286468505859375" lon="-1.36568938381969928741455078125">
        <ele>951.4000244140625</ele>
        <time>2022-05-03T09:05:13.000Z</time>
      </trkpt>
      <trkpt lat="40.79249071888625621795654296875" lon="-1.365785859525203704833984375">
        <ele>951.5999755859375</ele>
        <time>2022-05-03T09:05:15.000Z</time>
      </trkpt>
      <trkpt lat="40.79248468391597270965576171875" lon="-1.3658785633742809295654296875">
        <ele>951.5999755859375</ele>
        <time>2022-05-03T09:05:17.000Z</time>
      </trkpt>
      <trkpt lat="40.79247999005019664764404296875" lon="-1.365968920290470123291015625">
        <ele>951.79998779296875</ele>
        <time>2022-05-03T09:05:19.000Z</time>
      </trkpt>
      <trkpt lat="40.79247772693634033203125" lon="-1.36601460166275501251220703125">
        <ele>951.79998779296875</ele>
        <time>2022-05-03T09:05:20.000Z</time>
      </trkpt>
      <trkpt lat="40.792475044727325439453125" lon="-1.3660611212253570556640625">
        <ele>951.79998779296875</ele>
        <time>2022-05-03T09:05:21.000Z</time>
      </trkpt>
      <trkpt lat="40.79246900975704193115234375" lon="-1.36615223251283168792724609375">
        <ele>952</ele>
        <time>2022-05-03T09:05:23.000Z</time>
      </trkpt>
      <trkpt lat="40.792465992271900177001953125" lon="-1.36619816534221172332763671875">
        <ele>952</ele>
        <time>2022-05-03T09:05:24.000Z</time>
      </trkpt>
      <trkpt lat="40.792461968958377838134765625" lon="-1.366244517266750335693359375">
        <ele>952.20001220703125</ele>
        <time>2022-05-03T09:05:25.000Z</time>
      </trkpt>
      <trkpt lat="40.79244495369493961334228515625" lon="-1.36638508178293704986572265625">
        <ele>952.5999755859375</ele>
        <time>2022-05-03T09:05:28.000Z</time>
      </trkpt>
      <trkpt lat="40.79243858344852924346923828125" lon="-1.3664317689836025238037109375">
        <ele>952.5999755859375</ele>
        <time>2022-05-03T09:05:29.000Z</time>
      </trkpt>
      <trkpt lat="40.79242584295570850372314453125" lon="-1.3665192760527133941650390625">
        <ele>952.79998779296875</ele>
        <time>2022-05-03T09:05:31.000Z</time>
      </trkpt>
      <trkpt lat="40.792404301464557647705078125" lon="-1.36660099960863590240478515625">
        <ele>953</ele>
        <time>2022-05-03T09:05:33.000Z</time>
      </trkpt>
      <trkpt lat="40.79239130951464176177978515625" lon="-1.3666419871151447296142578125">
        <ele>953</ele>
        <time>2022-05-03T09:05:34.000Z</time>
      </trkpt>
      <trkpt lat="40.79237638972699642181396484375" lon="-1.36668280698359012603759765625">
        <ele>953</ele>
        <time>2022-05-03T09:05:35.000Z</time>
      </trkpt>
      <trkpt lat="40.7923451252281665802001953125" lon="-1.36676327325403690338134765625">
        <ele>953.20001220703125</ele>
        <time>2022-05-03T09:05:37.000Z</time>
      </trkpt>
      <trkpt lat="40.792329870164394378662109375" lon="-1.36680283583700656890869140625">
        <ele>953.20001220703125</ele>
        <time>2022-05-03T09:05:38.000Z</time>
      </trkpt>
      <trkpt lat="40.792315118014812469482421875" lon="-1.3668411411345005035400390625">
        <ele>953.4000244140625</ele>
        <time>2022-05-03T09:05:39.000Z</time>
      </trkpt>
      <trkpt lat="40.7922820933163166046142578125" lon="-1.366917081177234649658203125">
        <ele>953.4000244140625</ele>
        <time>2022-05-03T09:05:41.000Z</time>
      </trkpt>
      <trkpt lat="40.79224898479878902435302734375" lon="-1.36699520051479339599609375">
        <ele>953.5999755859375</ele>
        <time>2022-05-03T09:05:43.000Z</time>
      </trkpt>
      <trkpt lat="40.79221780411899089813232421875" lon="-1.36707566678524017333984375">
        <ele>953.79998779296875</ele>
        <time>2022-05-03T09:05:45.000Z</time>
      </trkpt>
      <trkpt lat="40.79218947328627109527587890625" lon="-1.367160491645336151123046875">
        <ele>954</ele>
        <time>2022-05-03T09:05:47.000Z</time>
      </trkpt>
      <trkpt lat="40.792176984250545501708984375" lon="-1.36720449663698673248291015625">
        <ele>954</ele>
        <time>2022-05-03T09:05:48.000Z</time>
      </trkpt>
      <trkpt lat="40.7921598851680755615234375" lon="-1.36729133315384387969970703125">
        <ele>954.20001220703125</ele>
        <time>2022-05-03T09:05:50.000Z</time>
      </trkpt>
      <trkpt lat="40.792154185473918914794921875" lon="-1.36742225848138332366943359375">
        <ele>954.4000244140625</ele>
        <time>2022-05-03T09:05:53.000Z</time>
      </trkpt>
      <trkpt lat="40.7921523414552211761474609375" lon="-1.36750507168471813201904296875">
        <ele>954.5999755859375</ele>
        <time>2022-05-03T09:05:55.000Z</time>
      </trkpt>
      <trkpt lat="40.79214991070330142974853515625" lon="-1.367595009505748748779296875">
        <ele>954.5999755859375</ele>
        <time>2022-05-03T09:05:57.000Z</time>
      </trkpt>
      <trkpt lat="40.79214689321815967559814453125" lon="-1.3676924072206020355224609375">
        <ele>954.79998779296875</ele>
        <time>2022-05-03T09:05:59.000Z</time>
      </trkpt>
      <trkpt lat="40.79214722849428653717041015625" lon="-1.36774144135415554046630859375">
        <ele>954.79998779296875</ele>
        <time>2022-05-03T09:06:00.000Z</time>
      </trkpt>
      <trkpt lat="40.792148150503635406494140625" lon="-1.3677899725735187530517578125">
        <ele>954.79998779296875</ele>
        <time>2022-05-03T09:06:01.000Z</time>
      </trkpt>
      <trkpt lat="40.79215058125555515289306640625" lon="-1.36788845993578433990478515625">
        <ele>955</ele>
        <time>2022-05-03T09:06:03.000Z</time>
      </trkpt>
      <trkpt lat="40.7921510003507137298583984375" lon="-1.36799030005931854248046875">
        <ele>955.20001220703125</ele>
        <time>2022-05-03T09:06:05.000Z</time>
      </trkpt>
      <trkpt lat="40.792150162160396575927734375" lon="-1.36809247545897960662841796875">
        <ele>955.20001220703125</ele>
        <time>2022-05-03T09:06:07.000Z</time>
      </trkpt>
      <trkpt lat="40.7921483181416988372802734375" lon="-1.368195153772830963134765625">
        <ele>955.4000244140625</ele>
        <time>2022-05-03T09:06:09.000Z</time>
      </trkpt>
      <trkpt lat="40.79214504919946193695068359375" lon="-1.36829799972474575042724609375">
        <ele>955.4000244140625</ele>
        <time>2022-05-03T09:06:11.000Z</time>
      </trkpt>
      <trkpt lat="40.7921442948281764984130859375" lon="-1.368400342762470245361328125">
        <ele>955.5999755859375</ele>
        <time>2022-05-03T09:06:13.000Z</time>
      </trkpt>
      <trkpt lat="40.79214370809495449066162109375" lon="-1.36845138855278491973876953125">
        <ele>955.5999755859375</ele>
        <time>2022-05-03T09:06:14.000Z</time>
      </trkpt>
      <trkpt lat="40.7921437919139862060546875" lon="-1.36850201524794101715087890625">
        <ele>955.5999755859375</ele>
        <time>2022-05-03T09:06:15.000Z</time>
      </trkpt>
      <trkpt lat="40.79214446246623992919921875" lon="-1.3686023466289043426513671875">
        <ele>955.79998779296875</ele>
        <time>2022-05-03T09:06:17.000Z</time>
      </trkpt>
      <trkpt lat="40.79214354045689105987548828125" lon="-1.3687025941908359527587890625">
        <ele>956</ele>
        <time>2022-05-03T09:06:19.000Z</time>
      </trkpt>
      <trkpt lat="40.792141444981098175048828125" lon="-1.36880208738148212432861328125">
        <ele>956</ele>
        <time>2022-05-03T09:06:21.000Z</time>
      </trkpt>
      <trkpt lat="40.7921402715146541595458984375" lon="-1.3688997365534305572509765625">
        <ele>956.20001220703125</ele>
        <time>2022-05-03T09:06:23.000Z</time>
      </trkpt>
      <trkpt lat="40.7921406067907810211181640625" lon="-1.36899621225893497467041015625">
        <ele>956.4000244140625</ele>
        <time>2022-05-03T09:06:25.000Z</time>
      </trkpt>
      <trkpt lat="40.79213884659111499786376953125" lon="-1.36909394524991512298583984375">
        <ele>956.4000244140625</ele>
        <time>2022-05-03T09:06:27.000Z</time>
      </trkpt>
      <trkpt lat="40.79213767312467098236083984375" lon="-1.3691434822976589202880859375">
        <ele>956.4000244140625</ele>
        <time>2022-05-03T09:06:28.000Z</time>
      </trkpt>
      <trkpt lat="40.792137086391448974609375" lon="-1.3691937737166881561279296875">
        <ele>956.4000244140625</ele>
        <time>2022-05-03T09:06:29.000Z</time>
      </trkpt>
      <trkpt lat="40.79213582910597324371337890625" lon="-1.36929628439247608184814453125">
        <ele>956.4000244140625</ele>
        <time>2022-05-03T09:06:31.000Z</time>
      </trkpt>
      <trkpt lat="40.79213532619178295135498046875" lon="-1.36944799683988094329833984375">
        <ele>956.4000244140625</ele>
        <time>2022-05-03T09:06:34.000Z</time>
      </trkpt>
      <trkpt lat="40.792135410010814666748046875" lon="-1.369498036801815032958984375">
        <ele>956.4000244140625</ele>
        <time>2022-05-03T09:06:35.000Z</time>
      </trkpt>
      <trkpt lat="40.79213415272533893585205078125" lon="-1.36959920637309551239013671875">
        <ele>956.4000244140625</ele>
        <time>2022-05-03T09:06:37.000Z</time>
      </trkpt>
      <trkpt lat="40.792132057249546051025390625" lon="-1.3697027228772640228271484375">
        <ele>956.5999755859375</ele>
        <time>2022-05-03T09:06:39.000Z</time>
      </trkpt>
      <trkpt lat="40.79213130287826061248779296875" lon="-1.36975578032433986663818359375">
        <ele>956.5999755859375</ele>
        <time>2022-05-03T09:06:40.000Z</time>
      </trkpt>
      <trkpt lat="40.792130716145038604736328125" lon="-1.3698096759617328643798828125">
        <ele>956.5999755859375</ele>
        <time>2022-05-03T09:06:41.000Z</time>
      </trkpt>
      <trkpt lat="40.79212996177375316619873046875" lon="-1.36991746723651885986328125">
        <ele>956.5999755859375</ele>
        <time>2022-05-03T09:06:43.000Z</time>
      </trkpt>
      <trkpt lat="40.79212878830730915069580078125" lon="-1.37002215720713138580322265625">
        <ele>956.79998779296875</ele>
        <time>2022-05-03T09:06:45.000Z</time>
      </trkpt>
      <trkpt lat="40.7921261899173259735107421875" lon="-1.37012458406388759613037109375">
        <ele>957</ele>
        <time>2022-05-03T09:06:47.000Z</time>
      </trkpt>
      <trkpt lat="40.79212476499378681182861328125" lon="-1.3702265918254852294921875">
        <ele>957.4000244140625</ele>
        <time>2022-05-03T09:06:49.000Z</time>
      </trkpt>
      <trkpt lat="40.79212300479412078857421875" lon="-1.37032918632030487060546875">
        <ele>957.5999755859375</ele>
        <time>2022-05-03T09:06:51.000Z</time>
      </trkpt>
      <trkpt lat="40.79212292097508907318115234375" lon="-1.37038174085319042205810546875">
        <ele>957.79998779296875</ele>
        <time>2022-05-03T09:06:52.000Z</time>
      </trkpt>
      <trkpt lat="40.79212325625121593475341796875" lon="-1.3704349659383296966552734375">
        <ele>957.79998779296875</ele>
        <time>2022-05-03T09:06:53.000Z</time>
      </trkpt>
      <trkpt lat="40.79212510026991367340087890625" lon="-1.37053982354700565338134765625">
        <ele>958</ele>
        <time>2022-05-03T09:06:55.000Z</time>
      </trkpt>
      <trkpt lat="40.7921285368502140045166015625" lon="-1.37064292095601558685302734375">
        <ele>958.4000244140625</ele>
        <time>2022-05-03T09:06:57.000Z</time>
      </trkpt>
      <trkpt lat="40.79213063232600688934326171875" lon="-1.37069488875567913055419921875">
        <ele>958.4000244140625</ele>
        <time>2022-05-03T09:06:58.000Z</time>
      </trkpt>
      <trkpt lat="40.7921330630779266357421875" lon="-1.3707461021840572357177734375">
        <ele>958.20001220703125</ele>
        <time>2022-05-03T09:06:59.000Z</time>
      </trkpt>
      <trkpt lat="40.79214043915271759033203125" lon="-1.370846517384052276611328125">
        <ele>958.20001220703125</ele>
        <time>2022-05-03T09:07:01.000Z</time>
      </trkpt>
      <trkpt lat="40.7921506650745868682861328125" lon="-1.37094668112695217132568359375">
        <ele>958.20001220703125</ele>
        <time>2022-05-03T09:07:03.000Z</time>
      </trkpt>
      <trkpt lat="40.79216063953936100006103515625" lon="-1.37104826979339122772216796875">
        <ele>958.20001220703125</ele>
        <time>2022-05-03T09:07:05.000Z</time>
      </trkpt>
      <trkpt lat="40.79217187128961086273193359375" lon="-1.3711480982601642608642578125">
        <ele>958.20001220703125</ele>
        <time>2022-05-03T09:07:07.000Z</time>
      </trkpt>
      <trkpt lat="40.79218427650630474090576171875" lon="-1.37124725617468357086181640625">
        <ele>958.20001220703125</ele>
        <time>2022-05-03T09:07:09.000Z</time>
      </trkpt>
      <trkpt lat="40.792196430265903472900390625" lon="-1.3713485933840274810791015625">
        <ele>958</ele>
        <time>2022-05-03T09:07:11.000Z</time>
      </trkpt>
      <trkpt lat="40.7922076620161533355712890625" lon="-1.3714531995356082916259765625">
        <ele>958</ele>
        <time>2022-05-03T09:07:13.000Z</time>
      </trkpt>
      <trkpt lat="40.7922215759754180908203125" lon="-1.371560655534267425537109375">
        <ele>957.79998779296875</ele>
        <time>2022-05-03T09:07:15.000Z</time>
      </trkpt>
      <trkpt lat="40.79224194400012493133544921875" lon="-1.37172485701739788055419921875">
        <ele>957.5999755859375</ele>
        <time>2022-05-03T09:07:18.000Z</time>
      </trkpt>
      <trkpt lat="40.79224898479878902435302734375" lon="-1.37178017757833003997802734375">
        <ele>957.5999755859375</ele>
        <time>2022-05-03T09:07:19.000Z</time>
      </trkpt>
      <trkpt lat="40.79226323403418064117431640625" lon="-1.371891237795352935791015625">
        <ele>957.4000244140625</ele>
        <time>2022-05-03T09:07:21.000Z</time>
      </trkpt>
      <trkpt lat="40.79227723181247711181640625" lon="-1.3720023818314075469970703125">
        <ele>957.20001220703125</ele>
        <time>2022-05-03T09:07:23.000Z</time>
      </trkpt>
      <trkpt lat="40.79228393733501434326171875" lon="-1.3720583729445934295654296875">
        <ele>957.20001220703125</ele>
        <time>2022-05-03T09:07:24.000Z</time>
      </trkpt>
      <trkpt lat="40.79228988848626613616943359375" lon="-1.372114531695842742919921875">
        <ele>957.20001220703125</ele>
        <time>2022-05-03T09:07:25.000Z</time>
      </trkpt>
      <trkpt lat="40.79230011440813541412353515625" lon="-1.37222894467413425445556640625">
        <ele>957</ele>
        <time>2022-05-03T09:07:27.000Z</time>
      </trkpt>
      <trkpt lat="40.792313106358051300048828125" lon="-1.37234352529048919677734375">
        <ele>957</ele>
        <time>2022-05-03T09:07:29.000Z</time>
      </trkpt>
      <trkpt lat="40.792324505746364593505859375" lon="-1.37245894409716129302978515625">
        <ele>957.4000244140625</ele>
        <time>2022-05-03T09:07:31.000Z</time>
      </trkpt>
      <trkpt lat="40.7923377491533756256103515625" lon="-1.37257494963705539703369140625">
        <ele>957.79998779296875</ele>
        <time>2022-05-03T09:07:33.000Z</time>
      </trkpt>
      <trkpt lat="40.7923514954745769500732421875" lon="-1.3726890273392200469970703125">
        <ele>958.20001220703125</ele>
        <time>2022-05-03T09:07:35.000Z</time>
      </trkpt>
      <trkpt lat="40.7923625595867633819580078125" lon="-1.37280444614589214324951171875">
        <ele>958.5999755859375</ele>
        <time>2022-05-03T09:07:37.000Z</time>
      </trkpt>
      <trkpt lat="40.792378485202789306640625" lon="-1.37297761626541614532470703125">
        <ele>959.20001220703125</ele>
        <time>2022-05-03T09:07:40.000Z</time>
      </trkpt>
      <trkpt lat="40.792388878762722015380859375" lon="-1.37309052050113677978515625">
        <ele>959.79998779296875</ele>
        <time>2022-05-03T09:07:42.000Z</time>
      </trkpt>
      <trkpt lat="40.79239524900913238525390625" lon="-1.3731460087001323699951171875">
        <ele>960</ele>
        <time>2022-05-03T09:07:43.000Z</time>
      </trkpt>
      <trkpt lat="40.79240857623517513275146484375" lon="-1.3732569850981235504150390625">
        <ele>960.20001220703125</ele>
        <time>2022-05-03T09:07:45.000Z</time>
      </trkpt>
      <trkpt lat="40.79242098145186901092529296875" lon="-1.37336737476289272308349609375">
        <ele>960.20001220703125</ele>
        <time>2022-05-03T09:07:47.000Z</time>
      </trkpt>
      <trkpt lat="40.79243305139243602752685546875" lon="-1.37347566895186901092529296875">
        <ele>960.4000244140625</ele>
        <time>2022-05-03T09:07:49.000Z</time>
      </trkpt>
      <trkpt lat="40.7924467138946056365966796875" lon="-1.37358295731246471405029296875">
        <ele>960.5999755859375</ele>
        <time>2022-05-03T09:07:51.000Z</time>
      </trkpt>
      <trkpt lat="40.79246004112064838409423828125" lon="-1.37369158677756786346435546875">
        <ele>960.5999755859375</ele>
        <time>2022-05-03T09:07:53.000Z</time>
      </trkpt>
      <trkpt lat="40.79247437417507171630859375" lon="-1.3738046586513519287109375">
        <ele>960.79998779296875</ele>
        <time>2022-05-03T09:07:55.000Z</time>
      </trkpt>
      <trkpt lat="40.79248770140111446380615234375" lon="-1.3739151321351528167724609375">
        <ele>961</ele>
        <time>2022-05-03T09:07:57.000Z</time>
      </trkpt>
      <trkpt lat="40.79250161536037921905517578125" lon="-1.37402661144733428955078125">
        <ele>961</ele>
        <time>2022-05-03T09:07:59.000Z</time>
      </trkpt>
      <trkpt lat="40.79252089373767375946044921875" lon="-1.37419114820659160614013671875">
        <ele>960.79998779296875</ele>
        <time>2022-05-03T09:08:02.000Z</time>
      </trkpt>
      <trkpt lat="40.79252743162214756011962890625" lon="-1.3742460496723651885986328125">
        <ele>960.5999755859375</ele>
        <time>2022-05-03T09:08:03.000Z</time>
      </trkpt>
      <trkpt lat="40.79253983683884143829345703125" lon="-1.374354176223278045654296875">
        <ele>960.5999755859375</ele>
        <time>2022-05-03T09:08:05.000Z</time>
      </trkpt>
      <trkpt lat="40.79255207441747188568115234375" lon="-1.37446020729839801788330078125">
        <ele>960.4000244140625</ele>
        <time>2022-05-03T09:08:07.000Z</time>
      </trkpt>
      <trkpt lat="40.792563892900943756103515625" lon="-1.374565064907073974609375">
        <ele>960.4000244140625</ele>
        <time>2022-05-03T09:08:09.000Z</time>
      </trkpt>
      <trkpt lat="40.79257001169025897979736328125" lon="-1.3746175356209278106689453125">
        <ele>960.4000244140625</ele>
        <time>2022-05-03T09:08:10.000Z</time>
      </trkpt>
      <trkpt lat="40.79257604666054248809814453125" lon="-1.3746705092489719390869140625">
        <ele>960.4000244140625</ele>
        <time>2022-05-03T09:08:11.000Z</time>
      </trkpt>
      <trkpt lat="40.79259079881012439727783203125" lon="-1.374775953590869903564453125">
        <ele>960.4000244140625</ele>
        <time>2022-05-03T09:08:13.000Z</time>
      </trkpt>
      <trkpt lat="40.7926002703607082366943359375" lon="-1.37487997300922870635986328125">
        <ele>960.4000244140625</ele>
        <time>2022-05-03T09:08:15.000Z</time>
      </trkpt>
      <trkpt lat="40.79260990954935550689697265625" lon="-1.37498416006565093994140625">
        <ele>960.4000244140625</ele>
        <time>2022-05-03T09:08:17.000Z</time>
      </trkpt>
      <trkpt lat="40.79262332059442996978759765625" lon="-1.37508683837950229644775390625">
        <ele>960.4000244140625</ele>
        <time>2022-05-03T09:08:19.000Z</time>
      </trkpt>
      <trkpt lat="40.792635641992092132568359375" lon="-1.3751901872456073760986328125">
        <ele>960.5999755859375</ele>
        <time>2022-05-03T09:08:21.000Z</time>
      </trkpt>
      <trkpt lat="40.792651064693927764892578125" lon="-1.3753444142639636993408203125">
        <ele>960.79998779296875</ele>
        <time>2022-05-03T09:08:24.000Z</time>
      </trkpt>
      <trkpt lat="40.79265684820711612701416015625" lon="-1.375394873321056365966796875">
        <ele>961</ele>
        <time>2022-05-03T09:08:25.000Z</time>
      </trkpt>
      <trkpt lat="40.7926690019667148590087890625" lon="-1.37549570761620998382568359375">
        <ele>961.20001220703125</ele>
        <time>2022-05-03T09:08:27.000Z</time>
      </trkpt>
      <trkpt lat="40.79268082045018672943115234375" lon="-1.37559394352138042449951171875">
        <ele>961.5999755859375</ele>
        <time>2022-05-03T09:08:29.000Z</time>
      </trkpt>
      <trkpt lat="40.792691297829151153564453125" lon="-1.37568916194140911102294921875">
        <ele>961.79998779296875</ele>
        <time>2022-05-03T09:08:31.000Z</time>
      </trkpt>
      <trkpt lat="40.79269590787589550018310546875" lon="-1.375735513865947723388671875">
        <ele>962</ele>
        <time>2022-05-03T09:08:32.000Z</time>
      </trkpt>
      <trkpt lat="40.79269976355135440826416015625" lon="-1.37578220106661319732666015625">
        <ele>962.20001220703125</ele>
        <time>2022-05-03T09:08:33.000Z</time>
      </trkpt>
      <trkpt lat="40.792711079120635986328125" lon="-1.37587591074407100677490234375">
        <ele>962.5999755859375</ele>
        <time>2022-05-03T09:08:35.000Z</time>
      </trkpt>
      <trkpt lat="40.792721807956695556640625" lon="-1.37596677057445049285888671875">
        <ele>963</ele>
        <time>2022-05-03T09:08:37.000Z</time>
      </trkpt>
      <trkpt lat="40.792729519307613372802734375" lon="-1.37605838477611541748046875">
        <ele>962.79998779296875</ele>
        <time>2022-05-03T09:08:39.000Z</time>
      </trkpt>
      <trkpt lat="40.792739577591419219970703125" lon="-1.37615201063454151153564453125">
        <ele>962.79998779296875</ele>
        <time>2022-05-03T09:08:41.000Z</time>
      </trkpt>
      <trkpt lat="40.7927499711513519287109375" lon="-1.37624739669263362884521484375">
        <ele>962.5999755859375</ele>
        <time>2022-05-03T09:08:43.000Z</time>
      </trkpt>
      <trkpt lat="40.7927548326551914215087890625" lon="-1.3762945868074893951416015625">
        <ele>962.5999755859375</ele>
        <time>2022-05-03T09:08:44.000Z</time>
      </trkpt>
      <trkpt lat="40.79276111908257007598876953125" lon="-1.3763420283794403076171875">
        <ele>962.5999755859375</ele>
        <time>2022-05-03T09:08:45.000Z</time>
      </trkpt>
      <trkpt lat="40.79276782460510730743408203125" lon="-1.376388967037200927734375">
        <ele>962.4000244140625</ele>
        <time>2022-05-03T09:08:46.000Z</time>
      </trkpt>
      <trkpt lat="40.7927739433944225311279296875" lon="-1.37643531896173954010009765625">
        <ele>962.4000244140625</ele>
        <time>2022-05-03T09:08:47.000Z</time>
      </trkpt>
      <trkpt lat="40.79278542660176753997802734375" lon="-1.37652735225856304168701171875">
        <ele>962.4000244140625</ele>
        <time>2022-05-03T09:08:49.000Z</time>
      </trkpt>
      <trkpt lat="40.79279615543782711029052734375" lon="-1.37661972083151340484619140625">
        <ele>962.79998779296875</ele>
        <time>2022-05-03T09:08:51.000Z</time>
      </trkpt>
      <trkpt lat="40.792807303369045257568359375" lon="-1.3767135143280029296875">
        <ele>963.20001220703125</ele>
        <time>2022-05-03T09:08:53.000Z</time>
      </trkpt>
      <trkpt lat="40.7928175292909145355224609375" lon="-1.3768089003860950469970703125">
        <ele>963.4000244140625</ele>
        <time>2022-05-03T09:08:55.000Z</time>
      </trkpt>
      <trkpt lat="40.79282582737505435943603515625" lon="-1.3769044540822505950927734375">
        <ele>963.79998779296875</ele>
        <time>2022-05-03T09:08:57.000Z</time>
      </trkpt>
      <trkpt lat="40.792836137115955352783203125" lon="-1.37699992395937442779541015625">
        <ele>964.20001220703125</ele>
        <time>2022-05-03T09:08:59.000Z</time>
      </trkpt>
      <trkpt lat="40.79284795559942722320556640625" lon="-1.37709505856037139892578125">
        <ele>964.4000244140625</ele>
        <time>2022-05-03T09:09:01.000Z</time>
      </trkpt>
      <trkpt lat="40.7928580977022647857666015625" lon="-1.37718985788524150848388671875">
        <ele>964.79998779296875</ele>
        <time>2022-05-03T09:09:03.000Z</time>
      </trkpt>
      <trkpt lat="40.7928681559860706329345703125" lon="-1.37728138826787471771240234375">
        <ele>965.20001220703125</ele>
        <time>2022-05-03T09:09:05.000Z</time>
      </trkpt>
      <trkpt lat="40.7928782142698764801025390625" lon="-1.37737409211695194244384765625">
        <ele>965.20001220703125</ele>
        <time>2022-05-03T09:09:07.000Z</time>
      </trkpt>
      <trkpt lat="40.79289011657238006591796875" lon="-1.37746595777571201324462890625">
        <ele>965.4000244140625</ele>
        <time>2022-05-03T09:09:09.000Z</time>
      </trkpt>
      <trkpt lat="40.7928979955613613128662109375" lon="-1.3775569014251232147216796875">
        <ele>965.5999755859375</ele>
        <time>2022-05-03T09:09:11.000Z</time>
      </trkpt>
      <trkpt lat="40.7929073832929134368896484375" lon="-1.3776477612555027008056640625">
        <ele>965.79998779296875</ele>
        <time>2022-05-03T09:09:13.000Z</time>
      </trkpt>
      <trkpt lat="40.79291836358606815338134765625" lon="-1.37774038128554821014404296875">
        <ele>966</ele>
        <time>2022-05-03T09:09:15.000Z</time>
      </trkpt>
      <trkpt lat="40.7929281704127788543701171875" lon="-1.37783576734364032745361328125">
        <ele>966.20001220703125</ele>
        <time>2022-05-03T09:09:17.000Z</time>
      </trkpt>
      <trkpt lat="40.79293705523014068603515625" lon="-1.37792930938303470611572265625">
        <ele>966.4000244140625</ele>
        <time>2022-05-03T09:09:19.000Z</time>
      </trkpt>
      <trkpt lat="40.79294602386653423309326171875" lon="-1.3780209235846996307373046875">
        <ele>966.79998779296875</ele>
        <time>2022-05-03T09:09:21.000Z</time>
      </trkpt>
      <trkpt lat="40.79295490868389606475830078125" lon="-1.37811253778636455535888671875">
        <ele>967</ele>
        <time>2022-05-03T09:09:23.000Z</time>
      </trkpt>
      <trkpt lat="40.792961530387401580810546875" lon="-1.3782066665589809417724609375">
        <ele>967.20001220703125</ele>
        <time>2022-05-03T09:09:25.000Z</time>
      </trkpt>
      <trkpt lat="40.792971588671207427978515625" lon="-1.37830180115997791290283203125">
        <ele>967.4000244140625</ele>
        <time>2022-05-03T09:09:27.000Z</time>
      </trkpt>
      <trkpt lat="40.79298240132629871368408203125" lon="-1.37839299626648426055908203125">
        <ele>967.5999755859375</ele>
        <time>2022-05-03T09:09:29.000Z</time>
      </trkpt>
      <trkpt lat="40.79298709519207477569580078125" lon="-1.37843750417232513427734375">
        <ele>967.5999755859375</ele>
        <time>2022-05-03T09:09:30.000Z</time>
      </trkpt>
      <trkpt lat="40.7929913699626922607421875" lon="-1.37848201207816600799560546875">
        <ele>967.79998779296875</ele>
        <time>2022-05-03T09:09:31.000Z</time>
      </trkpt>
      <trkpt lat="40.7930039428174495697021484375" lon="-1.3785736262798309326171875">
        <ele>968</ele>
        <time>2022-05-03T09:09:33.000Z</time>
      </trkpt>
      <trkpt lat="40.79301006160676479339599609375" lon="-1.3786200620234012603759765625">
        <ele>968.20001220703125</ele>
        <time>2022-05-03T09:09:34.000Z</time>
      </trkpt>
      <trkpt lat="40.79301483929157257080078125" lon="-1.37866683304309844970703125">
        <ele>968.20001220703125</ele>
        <time>2022-05-03T09:09:35.000Z</time>
      </trkpt>
      <trkpt lat="40.79302548430860042572021484375" lon="-1.37875945307314395904541015625">
        <ele>968.4000244140625</ele>
        <time>2022-05-03T09:09:37.000Z</time>
      </trkpt>
      <trkpt lat="40.79303068108856678009033203125" lon="-1.37880538590252399444580078125">
        <ele>968.5999755859375</ele>
        <time>2022-05-03T09:09:38.000Z</time>
      </trkpt>
      <trkpt lat="40.79303554259240627288818359375" lon="-1.378851234912872314453125">
        <ele>968.5999755859375</ele>
        <time>2022-05-03T09:09:39.000Z</time>
      </trkpt>
      <trkpt lat="40.79304635524749755859375" lon="-1.37894444167613983154296875">
        <ele>969</ele>
        <time>2022-05-03T09:09:41.000Z</time>
      </trkpt>
      <trkpt lat="40.793056748807430267333984375" lon="-1.3790398277342319488525390625">
        <ele>969.20001220703125</ele>
        <time>2022-05-03T09:09:43.000Z</time>
      </trkpt>
      <trkpt lat="40.79306714236736297607421875" lon="-1.37913479469716548919677734375">
        <ele>969.5999755859375</ele>
        <time>2022-05-03T09:09:45.000Z</time>
      </trkpt>
      <trkpt lat="40.7930723391473293304443359375" lon="-1.3791826553642749786376953125">
        <ele>969.79998779296875</ele>
        <time>2022-05-03T09:09:46.000Z</time>
      </trkpt>
      <trkpt lat="40.79307711683213710784912109375" lon="-1.3792299292981624603271484375">
        <ele>970</ele>
        <time>2022-05-03T09:09:47.000Z</time>
      </trkpt>
      <trkpt lat="40.79308784566819667816162109375" lon="-1.37932531535625457763671875">
        <ele>970.4000244140625</ele>
        <time>2022-05-03T09:09:49.000Z</time>
      </trkpt>
      <trkpt lat="40.79309890978038311004638671875" lon="-1.379422210156917572021484375">
        <ele>970.79998779296875</ele>
        <time>2022-05-03T09:09:51.000Z</time>
      </trkpt>
      <trkpt lat="40.7931098900735378265380859375" lon="-1.37951910495758056640625">
        <ele>971</ele>
        <time>2022-05-03T09:09:53.000Z</time>
      </trkpt>
      <trkpt lat="40.793121121823787689208984375" lon="-1.37961591593921184539794921875">
        <ele>971.4000244140625</ele>
        <time>2022-05-03T09:09:55.000Z</time>
      </trkpt>
      <trkpt lat="40.79313218593597412109375" lon="-1.37971113435924053192138671875">
        <ele>971.79998779296875</ele>
        <time>2022-05-03T09:09:57.000Z</time>
      </trkpt>
      <trkpt lat="40.7931437529623508453369140625" lon="-1.37980719096958637237548828125">
        <ele>972</ele>
        <time>2022-05-03T09:09:59.000Z</time>
      </trkpt>
      <trkpt lat="40.79315339215099811553955078125" lon="-1.3799061812460422515869140625">
        <ele>972.20001220703125</ele>
        <time>2022-05-03T09:10:01.000Z</time>
      </trkpt>
      <trkpt lat="40.79316227696835994720458984375" lon="-1.3800060935318470001220703125">
        <ele>972.20001220703125</ele>
        <time>2022-05-03T09:10:03.000Z</time>
      </trkpt>
      <trkpt lat="40.793172754347324371337890625" lon="-1.3801046647131443023681640625">
        <ele>972.4000244140625</ele>
        <time>2022-05-03T09:10:05.000Z</time>
      </trkpt>
      <trkpt lat="40.7931836508214473724365234375" lon="-1.3802022300660610198974609375">
        <ele>972.4000244140625</ele>
        <time>2022-05-03T09:10:07.000Z</time>
      </trkpt>
      <trkpt lat="40.7931947149336338043212890625" lon="-1.38029736466705799102783203125">
        <ele>972.5999755859375</ele>
        <time>2022-05-03T09:10:09.000Z</time>
      </trkpt>
      <trkpt lat="40.79320452176034450531005859375" lon="-1.38038881123065948486328125">
        <ele>972.5999755859375</ele>
        <time>2022-05-03T09:10:11.000Z</time>
      </trkpt>
      <trkpt lat="40.79321374185383319854736328125" lon="-1.38048042543232440948486328125">
        <ele>972.79998779296875</ele>
        <time>2022-05-03T09:10:13.000Z</time>
      </trkpt>
      <trkpt lat="40.79321843571960926055908203125" lon="-1.3805261068046092987060546875">
        <ele>972.79998779296875</ele>
        <time>2022-05-03T09:10:14.000Z</time>
      </trkpt>
      <trkpt lat="40.79322312958538532257080078125" lon="-1.38057245872914791107177734375">
        <ele>973</ele>
        <time>2022-05-03T09:10:15.000Z</time>
      </trkpt>
      <trkpt lat="40.79323419369757175445556640625" lon="-1.38066097162663936614990234375">
        <ele>973</ele>
        <time>2022-05-03T09:10:17.000Z</time>
      </trkpt>
      <trkpt lat="40.79324475489556789398193359375" lon="-1.3807480596005916595458984375">
        <ele>973.20001220703125</ele>
        <time>2022-05-03T09:10:19.000Z</time>
      </trkpt>
      <trkpt lat="40.7932543940842151641845703125" lon="-1.38083481229841709136962890625">
        <ele>973.20001220703125</ele>
        <time>2022-05-03T09:10:21.000Z</time>
      </trkpt>
      <trkpt lat="40.79326353035867214202880859375" lon="-1.38091997243463993072509765625">
        <ele>973.4000244140625</ele>
        <time>2022-05-03T09:10:23.000Z</time>
      </trkpt>
      <trkpt lat="40.79326822422444820404052734375" lon="-1.3809619657695293426513671875">
        <ele>973.4000244140625</ele>
        <time>2022-05-03T09:10:24.000Z</time>
      </trkpt>
      <trkpt lat="40.7932735048234462738037109375" lon="-1.38100312091410160064697265625">
        <ele>973.4000244140625</ele>
        <time>2022-05-03T09:10:25.000Z</time>
      </trkpt>
      <trkpt lat="40.79328264109790325164794921875" lon="-1.38108643703162670135498046875">
        <ele>973.5999755859375</ele>
        <time>2022-05-03T09:10:27.000Z</time>
      </trkpt>
      <trkpt lat="40.7932919450104236602783203125" lon="-1.38116941787302494049072265625">
        <ele>973.5999755859375</ele>
        <time>2022-05-03T09:10:29.000Z</time>
      </trkpt>
      <trkpt lat="40.79329655505716800689697265625" lon="-1.38121099211275577545166015625">
        <ele>973.5999755859375</ele>
        <time>2022-05-03T09:10:30.000Z</time>
      </trkpt>
      <trkpt lat="40.7933016680181026458740234375" lon="-1.3812526501715183258056640625">
        <ele>973.79998779296875</ele>
        <time>2022-05-03T09:10:31.000Z</time>
      </trkpt>
      <trkpt lat="40.79331046901643276214599609375" lon="-1.3813368044793605804443359375">
        <ele>973.79998779296875</ele>
        <time>2022-05-03T09:10:33.000Z</time>
      </trkpt>
      <trkpt lat="40.79331549815833568572998046875" lon="-1.3813793845474720001220703125">
        <ele>973.79998779296875</ele>
        <time>2022-05-03T09:10:34.000Z</time>
      </trkpt>
      <trkpt lat="40.79332052730023860931396484375" lon="-1.3814219646155834197998046875">
        <ele>974</ele>
        <time>2022-05-03T09:10:35.000Z</time>
      </trkpt>
      <trkpt lat="40.79333025030791759490966796875" lon="-1.381509304046630859375">
        <ele>974.20001220703125</ele>
        <time>2022-05-03T09:10:37.000Z</time>
      </trkpt>
      <trkpt lat="40.79334064386785030364990234375" lon="-1.381598822772502899169921875">
        <ele>974.4000244140625</ele>
        <time>2022-05-03T09:10:39.000Z</time>
      </trkpt>
      <trkpt lat="40.79334609210491180419921875" lon="-1.3816432468593120574951171875">
        <ele>974.5999755859375</ele>
        <time>2022-05-03T09:10:40.000Z</time>
      </trkpt>
      <trkpt lat="40.79335103742778301239013671875" lon="-1.38168700039386749267578125">
        <ele>974.79998779296875</ele>
        <time>2022-05-03T09:10:41.000Z</time>
      </trkpt>
      <trkpt lat="40.7933610118925571441650390625" lon="-1.381774507462978363037109375">
        <ele>975</ele>
        <time>2022-05-03T09:10:43.000Z</time>
      </trkpt>
      <trkpt lat="40.79337014816701412200927734375" lon="-1.38186268508434295654296875">
        <ele>975.4000244140625</ele>
        <time>2022-05-03T09:10:45.000Z</time>
      </trkpt>
      <trkpt lat="40.7933749258518218994140625" lon="-1.38190635479986667633056640625">
        <ele>975.5999755859375</ele>
        <time>2022-05-03T09:10:46.000Z</time>
      </trkpt>
      <trkpt lat="40.793379954993724822998046875" lon="-1.38194994069635868072509765625">
        <ele>975.5999755859375</ele>
        <time>2022-05-03T09:10:47.000Z</time>
      </trkpt>
      <trkpt lat="40.79338967800140380859375" lon="-1.3820398785173892974853515625">
        <ele>976</ele>
        <time>2022-05-03T09:10:49.000Z</time>
      </trkpt>
      <trkpt lat="40.7933955453336238861083984375" lon="-1.3820848055183887481689453125">
        <ele>976.20001220703125</ele>
        <time>2022-05-03T09:10:50.000Z</time>
      </trkpt>
      <trkpt lat="40.7934009097516536712646484375" lon="-1.38212956488132476806640625">
        <ele>976.4000244140625</ele>
        <time>2022-05-03T09:10:51.000Z</time>
      </trkpt>
      <trkpt lat="40.7934099622070789337158203125" lon="-1.38222050853073596954345703125">
        <ele>976.5999755859375</ele>
        <time>2022-05-03T09:10:53.000Z</time>
      </trkpt>
      <trkpt lat="40.79341960139572620391845703125" lon="-1.38231371529400348663330078125">
        <ele>977</ele>
        <time>2022-05-03T09:10:55.000Z</time>
      </trkpt>
      <trkpt lat="40.79343058168888092041015625" lon="-1.382406838238239288330078125">
        <ele>976.79998779296875</ele>
        <time>2022-05-03T09:10:57.000Z</time>
      </trkpt>
      <trkpt lat="40.79343519173562526702880859375" lon="-1.3824539445340633392333984375">
        <ele>976.79998779296875</ele>
        <time>2022-05-03T09:10:58.000Z</time>
      </trkpt>
      <trkpt lat="40.7934401370584964752197265625" lon="-1.3825012184679508209228515625">
        <ele>976.79998779296875</ele>
        <time>2022-05-03T09:10:59.000Z</time>
      </trkpt>
      <trkpt lat="40.7934522069990634918212890625" lon="-1.3825981132686138153076171875">
        <ele>976.5999755859375</ele>
        <time>2022-05-03T09:11:01.000Z</time>
      </trkpt>
      <trkpt lat="40.79345866106450557708740234375" lon="-1.3826470635831356048583984375">
        <ele>976.5999755859375</ele>
        <time>2022-05-03T09:11:02.000Z</time>
      </trkpt>
      <trkpt lat="40.79346477985382080078125" lon="-1.38269660063087940216064453125">
        <ele>976.5999755859375</ele>
        <time>2022-05-03T09:11:03.000Z</time>
      </trkpt>
      <trkpt lat="40.79347592778503894805908203125" lon="-1.38279743492603302001953125">
        <ele>976.79998779296875</ele>
        <time>2022-05-03T09:11:05.000Z</time>
      </trkpt>
      <trkpt lat="40.7934875786304473876953125" lon="-1.3829008676111698150634765625">
        <ele>977.20001220703125</ele>
        <time>2022-05-03T09:11:07.000Z</time>
      </trkpt>
      <trkpt lat="40.79350107349455356597900390625" lon="-1.383010335266590118408203125">
        <ele>977.5999755859375</ele>
        <time>2022-05-03T09:11:09.000Z</time>
      </trkpt>
      <trkpt lat="40.79351481981575489044189453125" lon="-1.38312508352100849151611328125">
        <ele>978.20001220703125</ele>
        <time>2022-05-03T09:11:11.000Z</time>
      </trkpt>
      <trkpt lat="40.793528147041797637939453125" lon="-1.38324134051799774169921875">
        <ele>978.20001220703125</ele>
        <time>2022-05-03T09:11:13.000Z</time>
      </trkpt>
      <trkpt lat="40.793538875877857208251953125" lon="-1.38335290364921092987060546875">
        <ele>978.20001220703125</ele>
        <time>2022-05-03T09:11:15.000Z</time>
      </trkpt>
      <trkpt lat="40.79354935325682163238525390625" lon="-1.3834570907056331634521484375">
        <ele>978</ele>
        <time>2022-05-03T09:11:17.000Z</time>
      </trkpt>
      <trkpt lat="40.79355522058904170989990234375" lon="-1.38351031579077243804931640625">
        <ele>978</ele>
        <time>2022-05-03T09:11:18.000Z</time>
      </trkpt>
      <trkpt lat="40.79356259666383266448974609375" lon="-1.38356546871364116668701171875">
        <ele>978</ele>
        <time>2022-05-03T09:11:19.000Z</time>
      </trkpt>
      <trkpt lat="40.79357617534697055816650390625" lon="-1.383678205311298370361328125">
        <ele>977.79998779296875</ele>
        <time>2022-05-03T09:11:21.000Z</time>
      </trkpt>
      <trkpt lat="40.79358522780239582061767578125" lon="-1.38379194773733615875244140625">
        <ele>977.79998779296875</ele>
        <time>2022-05-03T09:11:23.000Z</time>
      </trkpt>
      <trkpt lat="40.7935957051813602447509765625" lon="-1.38390409760177135467529296875">
        <ele>977.79998779296875</ele>
        <time>2022-05-03T09:11:25.000Z</time>
      </trkpt>
      <trkpt lat="40.79360626637935638427734375" lon="-1.384014151990413665771484375">
        <ele>977.79998779296875</ele>
        <time>2022-05-03T09:11:27.000Z</time>
      </trkpt>
      <trkpt lat="40.7936201803386211395263671875" lon="-1.3841222785413265228271484375">
        <ele>978</ele>
        <time>2022-05-03T09:11:29.000Z</time>
      </trkpt>
      <trkpt lat="40.79363451339304447174072265625" lon="-1.38422696851193904876708984375">
        <ele>978.4000244140625</ele>
        <time>2022-05-03T09:11:31.000Z</time>
      </trkpt>
      <trkpt lat="40.7936456613242626190185546875" lon="-1.3843294791877269744873046875">
        <ele>978.4000244140625</ele>
        <time>2022-05-03T09:11:33.000Z</time>
      </trkpt>
      <trkpt lat="40.79365563578903675079345703125" lon="-1.38442880474030971527099609375">
        <ele>978.4000244140625</ele>
        <time>2022-05-03T09:11:35.000Z</time>
      </trkpt>
      <trkpt lat="40.793663598597049713134765625" lon="-1.384525783360004425048828125">
        <ele>978.4000244140625</ele>
        <time>2022-05-03T09:11:37.000Z</time>
      </trkpt>
      <trkpt lat="40.7936741597950458526611328125" lon="-1.38461991213262081146240234375">
        <ele>978.4000244140625</ele>
        <time>2022-05-03T09:11:39.000Z</time>
      </trkpt>
      <trkpt lat="40.79368673264980316162109375" lon="-1.38471253216266632080078125">
        <ele>978.5999755859375</ele>
        <time>2022-05-03T09:11:41.000Z</time>
      </trkpt>
      <trkpt lat="40.79369838349521160125732421875" lon="-1.3848008774220943450927734375">
        <ele>978.5999755859375</ele>
        <time>2022-05-03T09:11:43.000Z</time>
      </trkpt>
      <trkpt lat="40.7937090285122394561767578125" lon="-1.384886540472507476806640625">
        <ele>978.5999755859375</ele>
        <time>2022-05-03T09:11:45.000Z</time>
      </trkpt>
      <trkpt lat="40.7937130518257617950439453125" lon="-1.384928785264492034912109375">
        <ele>978.79998779296875</ele>
        <time>2022-05-03T09:11:46.000Z</time>
      </trkpt>
      <trkpt lat="40.793717242777347564697265625" lon="-1.38497128151357173919677734375">
        <ele>978.79998779296875</ele>
        <time>2022-05-03T09:11:47.000Z</time>
      </trkpt>
      <trkpt lat="40.7937262952327728271484375" lon="-1.3850546814501285552978515625">
        <ele>979</ele>
        <time>2022-05-03T09:11:49.000Z</time>
      </trkpt>
      <trkpt lat="40.79373341985046863555908203125" lon="-1.385136656463146209716796875">
        <ele>979.20001220703125</ele>
        <time>2022-05-03T09:11:51.000Z</time>
      </trkpt>
      <trkpt lat="40.7937378622591495513916015625" lon="-1.3851777277886867523193359375">
        <ele>979.4000244140625</ele>
        <time>2022-05-03T09:11:52.000Z</time>
      </trkpt>
      <trkpt lat="40.793741382658481597900390625" lon="-1.38521921820938587188720703125">
        <ele>979.4000244140625</ele>
        <time>2022-05-03T09:11:53.000Z</time>
      </trkpt>
      <trkpt lat="40.79374867491424083709716796875" lon="-1.38530286960303783416748046875">
        <ele>979.5999755859375</ele>
        <time>2022-05-03T09:11:55.000Z</time>
      </trkpt>
      <trkpt lat="40.7937539555132389068603515625" lon="-1.38534477911889553070068359375">
        <ele>979.79998779296875</ele>
        <time>2022-05-03T09:11:56.000Z</time>
      </trkpt>
      <trkpt lat="40.79375957138836383819580078125" lon="-1.38538710772991180419921875">
        <ele>980</ele>
        <time>2022-05-03T09:11:57.000Z</time>
      </trkpt>
      <trkpt lat="40.79377130605280399322509765625" lon="-1.385473944246768951416015625">
        <ele>980.20001220703125</ele>
        <time>2022-05-03T09:11:59.000Z</time>
      </trkpt>
      <trkpt lat="40.79378086142241954803466796875" lon="-1.3855626247823238372802734375">
        <ele>980.4000244140625</ele>
        <time>2022-05-03T09:12:01.000Z</time>
      </trkpt>
      <trkpt lat="40.7937905006110668182373046875" lon="-1.3856561668217182159423828125">
        <ele>980.5999755859375</ele>
        <time>2022-05-03T09:12:03.000Z</time>
      </trkpt>
      <trkpt lat="40.7938035763800144195556640625" lon="-1.3857540674507617950439453125">
        <ele>980.79998779296875</ele>
        <time>2022-05-03T09:12:05.000Z</time>
      </trkpt>
      <trkpt lat="40.79380952753126621246337890625" lon="-1.3858023472130298614501953125">
        <ele>981</ele>
        <time>2022-05-03T09:12:06.000Z</time>
      </trkpt>
      <trkpt lat="40.7938148081302642822265625" lon="-1.385851800441741943359375">
        <ele>981</ele>
        <time>2022-05-03T09:12:07.000Z</time>
      </trkpt>
      <trkpt lat="40.79382578842341899871826171875" lon="-1.3859538920223712921142578125">
        <ele>981.20001220703125</ele>
        <time>2022-05-03T09:12:09.000Z</time>
      </trkpt>
      <trkpt lat="40.7938367687165737152099609375" lon="-1.3860569894313812255859375">
        <ele>981.4000244140625</ele>
        <time>2022-05-03T09:12:11.000Z</time>
      </trkpt>
      <trkpt lat="40.7938485033810138702392578125" lon="-1.38616268523037433624267578125">
        <ele>981.4000244140625</ele>
        <time>2022-05-03T09:12:13.000Z</time>
      </trkpt>
      <trkpt lat="40.79385881312191486358642578125" lon="-1.3862680457532405853271484375">
        <ele>981.5999755859375</ele>
        <time>2022-05-03T09:12:15.000Z</time>
      </trkpt>
      <trkpt lat="40.79387021251022815704345703125" lon="-1.3863743282854557037353515625">
        <ele>981.79998779296875</ele>
        <time>2022-05-03T09:12:17.000Z</time>
      </trkpt>
      <trkpt lat="40.79387624748051166534423828125" lon="-1.386427469551563262939453125">
        <ele>982</ele>
        <time>2022-05-03T09:12:18.000Z</time>
      </trkpt>
      <trkpt lat="40.79388211481273174285888671875" lon="-1.38648102991282939910888671875">
        <ele>982</ele>
        <time>2022-05-03T09:12:19.000Z</time>
      </trkpt>
      <trkpt lat="40.79389460384845733642578125" lon="-1.38658697716891765594482421875">
        <ele>982.20001220703125</ele>
        <time>2022-05-03T09:12:21.000Z</time>
      </trkpt>
      <trkpt lat="40.79390390776097774505615234375" lon="-1.3866918347775936126708984375">
        <ele>982.5999755859375</ele>
        <time>2022-05-03T09:12:23.000Z</time>
      </trkpt>
      <trkpt lat="40.79391530714929103851318359375" lon="-1.38679954223334789276123046875">
        <ele>982.79998779296875</ele>
        <time>2022-05-03T09:12:25.000Z</time>
      </trkpt>
      <trkpt lat="40.79392821528017520904541015625" lon="-1.3869127817451953887939453125">
        <ele>983</ele>
        <time>2022-05-03T09:12:27.000Z</time>
      </trkpt>
      <trkpt lat="40.7939420454204082489013671875" lon="-1.387028284370899200439453125">
        <ele>983.4000244140625</ele>
        <time>2022-05-03T09:12:29.000Z</time>
      </trkpt>
      <trkpt lat="40.79395570792257785797119140625" lon="-1.38714739121496677398681640625">
        <ele>983.5999755859375</ele>
        <time>2022-05-03T09:12:31.000Z</time>
      </trkpt>
      <trkpt lat="40.7939702086150646209716796875" lon="-1.387268006801605224609375">
        <ele>983.79998779296875</ele>
        <time>2022-05-03T09:12:33.000Z</time>
      </trkpt>
      <trkpt lat="40.793981440365314483642578125" lon="-1.38738795183598995208740234375">
        <ele>983.79998779296875</ele>
        <time>2022-05-03T09:12:35.000Z</time>
      </trkpt>
      <trkpt lat="40.79399409703910350799560546875" lon="-1.3875072263181209564208984375">
        <ele>983.79998779296875</ele>
        <time>2022-05-03T09:12:37.000Z</time>
      </trkpt>
      <trkpt lat="40.79400683753192424774169921875" lon="-1.387623064219951629638671875">
        <ele>983.79998779296875</ele>
        <time>2022-05-03T09:12:39.000Z</time>
      </trkpt>
      <trkpt lat="40.79401739872992038726806640625" lon="-1.3877318613231182098388671875">
        <ele>983.5999755859375</ele>
        <time>2022-05-03T09:12:41.000Z</time>
      </trkpt>
      <trkpt lat="40.7940288819372653961181640625" lon="-1.387841999530792236328125">
        <ele>983.5999755859375</ele>
        <time>2022-05-03T09:12:43.000Z</time>
      </trkpt>
      <trkpt lat="40.79403969459235668182373046875" lon="-1.387953646481037139892578125">
        <ele>983.5999755859375</ele>
        <time>2022-05-03T09:12:45.000Z</time>
      </trkpt>
      <trkpt lat="40.79405159689486026763916015625" lon="-1.38806638307869434356689453125">
        <ele>983.5999755859375</ele>
        <time>2022-05-03T09:12:47.000Z</time>
      </trkpt>
      <trkpt lat="40.79406299628317356109619140625" lon="-1.38817685656249523162841796875">
        <ele>983.79998779296875</ele>
        <time>2022-05-03T09:12:49.000Z</time>
      </trkpt>
      <trkpt lat="40.79407338984310626983642578125" lon="-1.38828179799020290374755859375">
        <ele>984</ele>
        <time>2022-05-03T09:12:51.000Z</time>
      </trkpt>
      <trkpt lat="40.794078670442104339599609375" lon="-1.38833242468535900115966796875">
        <ele>984</ele>
        <time>2022-05-03T09:12:52.000Z</time>
      </trkpt>
      <trkpt lat="40.794083364307880401611328125" lon="-1.3883819617331027984619140625">
        <ele>984</ele>
        <time>2022-05-03T09:12:53.000Z</time>
      </trkpt>
      <trkpt lat="40.79409183003008365631103515625" lon="-1.3884798623621463775634765625">
        <ele>984.20001220703125</ele>
        <time>2022-05-03T09:12:55.000Z</time>
      </trkpt>
      <trkpt lat="40.7941023074090480804443359375" lon="-1.38857583515346050262451171875">
        <ele>984.20001220703125</ele>
        <time>2022-05-03T09:12:57.000Z</time>
      </trkpt>
      <trkpt lat="40.79411094076931476593017578125" lon="-1.3886699639260768890380859375">
        <ele>984.4000244140625</ele>
        <time>2022-05-03T09:12:59.000Z</time>
      </trkpt>
      <trkpt lat="40.79411932267248630523681640625" lon="-1.38876778073608875274658203125">
        <ele>984.5999755859375</ele>
        <time>2022-05-03T09:13:01.000Z</time>
      </trkpt>
      <trkpt lat="40.7941318117082118988037109375" lon="-1.388866938650608062744140625">
        <ele>984.79998779296875</ele>
        <time>2022-05-03T09:13:03.000Z</time>
      </trkpt>
      <trkpt lat="40.7941445522010326385498046875" lon="-1.388966850936412811279296875">
        <ele>985.20001220703125</ele>
        <time>2022-05-03T09:13:05.000Z</time>
      </trkpt>
      <trkpt lat="40.794157125055789947509765625" lon="-1.3890716247260570526123046875">
        <ele>985.4000244140625</ele>
        <time>2022-05-03T09:13:07.000Z</time>
      </trkpt>
      <trkpt lat="40.7941634953022003173828125" lon="-1.3891254365444183349609375">
        <ele>985.5999755859375</ele>
        <time>2022-05-03T09:13:08.000Z</time>
      </trkpt>
      <trkpt lat="40.79416944645345211029052734375" lon="-1.389180086553096771240234375">
        <ele>985.5999755859375</ele>
        <time>2022-05-03T09:13:09.000Z</time>
      </trkpt>
      <trkpt lat="40.7941794209182262420654296875" lon="-1.38929047621786594390869140625">
        <ele>985.79998779296875</ele>
        <time>2022-05-03T09:13:11.000Z</time>
      </trkpt>
      <trkpt lat="40.794189982116222381591796875" lon="-1.3894008658826351165771484375">
        <ele>985.79998779296875</ele>
        <time>2022-05-03T09:13:13.000Z</time>
      </trkpt>
      <trkpt lat="40.7942012138664722442626953125" lon="-1.38951100409030914306640625">
        <ele>986</ele>
        <time>2022-05-03T09:13:15.000Z</time>
      </trkpt>
      <trkpt lat="40.7942116074264049530029296875" lon="-1.38962256722152233123779296875">
        <ele>986.4000244140625</ele>
        <time>2022-05-03T09:13:17.000Z</time>
      </trkpt>
      <trkpt lat="40.79422309063374996185302734375" lon="-1.3897342979907989501953125">
        <ele>986.5999755859375</ele>
        <time>2022-05-03T09:13:19.000Z</time>
      </trkpt>
      <trkpt lat="40.7942334003746509552001953125" lon="-1.38984066434204578399658203125">
        <ele>986.79998779296875</ele>
        <time>2022-05-03T09:13:21.000Z</time>
      </trkpt>
      <trkpt lat="40.7942444644868373870849609375" lon="-1.38994510285556316375732421875">
        <ele>986.79998779296875</ele>
        <time>2022-05-03T09:13:23.000Z</time>
      </trkpt>
      <trkpt lat="40.79425494186580181121826171875" lon="-1.39004669152200222015380859375">
        <ele>986.79998779296875</ele>
        <time>2022-05-03T09:13:25.000Z</time>
      </trkpt>
      <trkpt lat="40.79426474869251251220703125" lon="-1.3901473581790924072265625">
        <ele>987</ele>
        <time>2022-05-03T09:13:27.000Z</time>
      </trkpt>
      <trkpt lat="40.7942709513008594512939453125" lon="-1.390196979045867919921875">
        <ele>987</ele>
        <time>2022-05-03T09:13:28.000Z</time>
      </trkpt>
      <trkpt lat="40.79427639953792095184326171875" lon="-1.39024618081748485565185546875">
        <ele>987</ele>
        <time>2022-05-03T09:13:29.000Z</time>
      </trkpt>
      <trkpt lat="40.79428662545979022979736328125" lon="-1.39034651219844818115234375">
        <ele>987</ele>
        <time>2022-05-03T09:13:31.000Z</time>
      </trkpt>
      <trkpt lat="40.7942981086671352386474609375" lon="-1.3904445804655551910400390625">
        <ele>987.20001220703125</ele>
        <time>2022-05-03T09:13:33.000Z</time>
      </trkpt>
      <trkpt lat="40.7943095080554485321044921875" lon="-1.390539295971393585205078125">
        <ele>987.4000244140625</ele>
        <time>2022-05-03T09:13:35.000Z</time>
      </trkpt>
      <trkpt lat="40.79431973397731781005859375" lon="-1.39063292182981967926025390625">
        <ele>987.5999755859375</ele>
        <time>2022-05-03T09:13:37.000Z</time>
      </trkpt>
      <trkpt lat="40.79432970844209194183349609375" lon="-1.39072696678340435028076171875">
        <ele>987.79998779296875</ele>
        <time>2022-05-03T09:13:39.000Z</time>
      </trkpt>
      <trkpt lat="40.79434026964008808135986328125" lon="-1.39082126319408416748046875">
        <ele>988</ele>
        <time>2022-05-03T09:13:41.000Z</time>
      </trkpt>
      <trkpt lat="40.794344879686832427978515625" lon="-1.39086744748055934906005859375">
        <ele>988.20001220703125</ele>
        <time>2022-05-03T09:13:42.000Z</time>
      </trkpt>
      <trkpt lat="40.79434999264776706695556640625" lon="-1.3909132964909076690673828125">
        <ele>988.4000244140625</ele>
        <time>2022-05-03T09:13:43.000Z</time>
      </trkpt>
      <trkpt lat="40.79436155967414379119873046875" lon="-1.3910044915974140167236328125">
        <ele>988.5999755859375</ele>
        <time>2022-05-03T09:13:45.000Z</time>
      </trkpt>
      <trkpt lat="40.7943713665008544921875" lon="-1.39109409414231777191162109375">
        <ele>988.4000244140625</ele>
        <time>2022-05-03T09:13:47.000Z</time>
      </trkpt>
      <trkpt lat="40.79438150860369205474853515625" lon="-1.391185037791728973388671875">
        <ele>988.4000244140625</ele>
        <time>2022-05-03T09:13:49.000Z</time>
      </trkpt>
      <trkpt lat="40.7943923212587833404541015625" lon="-1.39127589762210845947265625">
        <ele>988.20001220703125</ele>
        <time>2022-05-03T09:13:51.000Z</time>
      </trkpt>
      <trkpt lat="40.7943973504006862640380859375" lon="-1.39132174663245677947998046875">
        <ele>988.20001220703125</ele>
        <time>2022-05-03T09:13:52.000Z</time>
      </trkpt>
      <trkpt lat="40.79440212808549404144287109375" lon="-1.3913677632808685302734375">
        <ele>988.20001220703125</ele>
        <time>2022-05-03T09:13:53.000Z</time>
      </trkpt>
      <trkpt lat="40.7944121025502681732177734375" lon="-1.39145837165415287017822265625">
        <ele>988</ele>
        <time>2022-05-03T09:13:55.000Z</time>
      </trkpt>
      <trkpt lat="40.79442023299634456634521484375" lon="-1.39154705218970775604248046875">
        <ele>988.20001220703125</ele>
        <time>2022-05-03T09:13:57.000Z</time>
      </trkpt>
      <trkpt lat="40.794425345957279205322265625" lon="-1.39158946461975574493408203125">
        <ele>988.20001220703125</ele>
        <time>2022-05-03T09:13:58.000Z</time>
      </trkpt>
      <trkpt lat="40.79443062655627727508544921875" lon="-1.39163305051624774932861328125">
        <ele>988.4000244140625</ele>
        <time>2022-05-03T09:13:59.000Z</time>
      </trkpt>
      <trkpt lat="40.7944352366030216217041015625" lon="-1.39167747460305690765380859375">
        <ele>988.4000244140625</ele>
        <time>2022-05-03T09:14:00.000Z</time>
      </trkpt>
      <trkpt lat="40.7944395951926708221435546875" lon="-1.3917209766805171966552734375">
        <ele>988.5999755859375</ele>
        <time>2022-05-03T09:14:01.000Z</time>
      </trkpt>
      <trkpt lat="40.79444848001003265380859375" lon="-1.39180890284478664398193359375">
        <ele>988.79998779296875</ele>
        <time>2022-05-03T09:14:03.000Z</time>
      </trkpt>
      <trkpt lat="40.79445761628448963165283203125" lon="-1.39189951121807098388671875">
        <ele>989.20001220703125</ele>
        <time>2022-05-03T09:14:05.000Z</time>
      </trkpt>
      <trkpt lat="40.79446700401604175567626953125" lon="-1.391990371048450469970703125">
        <ele>989.5999755859375</ele>
        <time>2022-05-03T09:14:07.000Z</time>
      </trkpt>
      <trkpt lat="40.794478319585323333740234375" lon="-1.3920800574123859405517578125">
        <ele>989.79998779296875</ele>
        <time>2022-05-03T09:14:09.000Z</time>
      </trkpt>
      <trkpt lat="40.7944882102310657501220703125" lon="-1.392170749604701995849609375">
        <ele>990.20001220703125</ele>
        <time>2022-05-03T09:14:11.000Z</time>
      </trkpt>
      <trkpt lat="40.794492065906524658203125" lon="-1.39221668243408203125">
        <ele>990.4000244140625</ele>
        <time>2022-05-03T09:14:12.000Z</time>
      </trkpt>
      <trkpt lat="40.79449675977230072021484375" lon="-1.39226152561604976654052734375">
        <ele>990.5999755859375</ele>
        <time>2022-05-03T09:14:13.000Z</time>
      </trkpt>
      <trkpt lat="40.79450589604675769805908203125" lon="-1.39235054142773151397705078125">
        <ele>990.79998779296875</ele>
        <time>2022-05-03T09:14:15.000Z</time>
      </trkpt>
      <trkpt lat="40.79451494850218296051025390625" lon="-1.392439305782318115234375">
        <ele>991</ele>
        <time>2022-05-03T09:14:17.000Z</time>
      </trkpt>
      <trkpt lat="40.79452483914792537689208984375" lon="-1.39252941124141216278076171875">
        <ele>991.4000244140625</ele>
        <time>2022-05-03T09:14:19.000Z</time>
      </trkpt>
      <trkpt lat="40.7945331372320652008056640625" lon="-1.392622701823711395263671875">
        <ele>991.5999755859375</ele>
        <time>2022-05-03T09:14:21.000Z</time>
      </trkpt>
      <trkpt lat="40.794543363153934478759765625" lon="-1.3927137292921543121337890625">
        <ele>992</ele>
        <time>2022-05-03T09:14:23.000Z</time>
      </trkpt>
      <trkpt lat="40.7945537567138671875" lon="-1.39280215837061405181884765625">
        <ele>992.4000244140625</ele>
        <time>2022-05-03T09:14:25.000Z</time>
      </trkpt>
      <trkpt lat="40.79456289298832416534423828125" lon="-1.3928884081542491912841796875">
        <ele>992.5999755859375</ele>
        <time>2022-05-03T09:14:27.000Z</time>
      </trkpt>
      <trkpt lat="40.7945713587105274200439453125" lon="-1.39297482557594776153564453125">
        <ele>993</ele>
        <time>2022-05-03T09:14:29.000Z</time>
      </trkpt>
      <trkpt lat="40.79458057880401611328125" lon="-1.393063254654407501220703125">
        <ele>993.4000244140625</ele>
        <time>2022-05-03T09:14:31.000Z</time>
      </trkpt>
      <trkpt lat="40.79459005035459995269775390625" lon="-1.39315185137093067169189453125">
        <ele>993.79998779296875</ele>
        <time>2022-05-03T09:14:33.000Z</time>
      </trkpt>
      <trkpt lat="40.7946005277335643768310546875" lon="-1.393240280449390411376953125">
        <ele>994</ele>
        <time>2022-05-03T09:14:35.000Z</time>
      </trkpt>
      <trkpt lat="40.7946105860173702239990234375" lon="-1.393330134451389312744140625">
        <ele>994</ele>
        <time>2022-05-03T09:14:37.000Z</time>
      </trkpt>
      <trkpt lat="40.79461938701570034027099609375" lon="-1.39342342503368854522705078125">
        <ele>994</ele>
        <time>2022-05-03T09:14:39.000Z</time>
      </trkpt>
      <trkpt lat="40.79462927766144275665283203125" lon="-1.39351797290146350860595703125">
        <ele>993.79998779296875</ele>
        <time>2022-05-03T09:14:41.000Z</time>
      </trkpt>
      <trkpt lat="40.794640593230724334716796875" lon="-1.39360950328409671783447265625">
        <ele>993.5999755859375</ele>
        <time>2022-05-03T09:14:43.000Z</time>
      </trkpt>
      <trkpt lat="40.7946498133242130279541015625" lon="-1.3937012851238250732421875">
        <ele>993.4000244140625</ele>
        <time>2022-05-03T09:14:45.000Z</time>
      </trkpt>
      <trkpt lat="40.79465626738965511322021484375" lon="-1.393746547400951385498046875">
        <ele>993.4000244140625</ele>
        <time>2022-05-03T09:14:46.000Z</time>
      </trkpt>
      <trkpt lat="40.79466171562671661376953125" lon="-1.3937916420400142669677734375">
        <ele>993.4000244140625</ele>
        <time>2022-05-03T09:14:47.000Z</time>
      </trkpt>
      <trkpt lat="40.794670768082141876220703125" lon="-1.393881998956203460693359375">
        <ele>993.20001220703125</ele>
        <time>2022-05-03T09:14:49.000Z</time>
      </trkpt>
      <trkpt lat="40.7946783117949962615966796875" lon="-1.3939720205962657928466796875">
        <ele>993.20001220703125</ele>
        <time>2022-05-03T09:14:51.000Z</time>
      </trkpt>
      <trkpt lat="40.7946850173175334930419921875" lon="-1.39406195841729640960693359375">
        <ele>993.4000244140625</ele>
        <time>2022-05-03T09:14:53.000Z</time>
      </trkpt>
      <trkpt lat="40.7946964167058467864990234375" lon="-1.39415348879992961883544921875">
        <ele>993.5999755859375</ele>
        <time>2022-05-03T09:14:55.000Z</time>
      </trkpt>
      <trkpt lat="40.79470102675259113311767578125" lon="-1.39419925399124622344970703125">
        <ele>993.79998779296875</ele>
        <time>2022-05-03T09:14:56.000Z</time>
      </trkpt>
      <trkpt lat="40.7947044633328914642333984375" lon="-1.39424585737287998199462890625">
        <ele>994</ele>
        <time>2022-05-03T09:14:57.000Z</time>
      </trkpt>
      <trkpt lat="40.79471410252153873443603515625" lon="-1.39434023760259151458740234375">
        <ele>994.20001220703125</ele>
        <time>2022-05-03T09:14:59.000Z</time>
      </trkpt>
      <trkpt lat="40.794723741710186004638671875" lon="-1.39443361200392246246337890625">
        <ele>994.5999755859375</ele>
        <time>2022-05-03T09:15:01.000Z</time>
      </trkpt>
      <trkpt lat="40.794728435575962066650390625" lon="-1.39447971247136592864990234375">
        <ele>994.79998779296875</ele>
        <time>2022-05-03T09:15:02.000Z</time>
      </trkpt>
      <trkpt lat="40.7947316206991672515869140625" lon="-1.3945258967578411102294921875">
        <ele>995</ele>
        <time>2022-05-03T09:15:03.000Z</time>
      </trkpt>
      <trkpt lat="40.79474075697362422943115234375" lon="-1.3946170918643474578857421875">
        <ele>995.4000244140625</ele>
        <time>2022-05-03T09:15:05.000Z</time>
      </trkpt>
      <trkpt lat="40.7947535812854766845703125" lon="-1.3947049342095851898193359375">
        <ele>995.5999755859375</ele>
        <time>2022-05-03T09:15:07.000Z</time>
      </trkpt>
      <trkpt lat="40.79476523213088512420654296875" lon="-1.39479160308837890625">
        <ele>996</ele>
        <time>2022-05-03T09:15:09.000Z</time>
      </trkpt>
      <trkpt lat="40.79477227292954921722412109375" lon="-1.39487785287201404571533203125">
        <ele>996</ele>
        <time>2022-05-03T09:15:11.000Z</time>
      </trkpt>
      <trkpt lat="40.79477570950984954833984375" lon="-1.39492034912109375">
        <ele>996.20001220703125</ele>
        <time>2022-05-03T09:15:12.000Z</time>
      </trkpt>
      <trkpt lat="40.7947790622711181640625" lon="-1.39496393501758575439453125">
        <ele>996.20001220703125</ele>
        <time>2022-05-03T09:15:13.000Z</time>
      </trkpt>
      <trkpt lat="40.79478518106043338775634765625" lon="-1.39505370520055294036865234375">
        <ele>996.4000244140625</ele>
        <time>2022-05-03T09:15:15.000Z</time>
      </trkpt>
      <trkpt lat="40.7947825826704502105712890625" lon="-1.3951443135738372802734375">
        <ele>996.79998779296875</ele>
        <time>2022-05-03T09:15:17.000Z</time>
      </trkpt>
      <trkpt lat="40.79477562569081783294677734375" lon="-1.39523760415613651275634765625">
        <ele>997</ele>
        <time>2022-05-03T09:15:19.000Z</time>
      </trkpt>
      <trkpt lat="40.79476288519799709320068359375" lon="-1.39533198438584804534912109375">
        <ele>997.20001220703125</ele>
        <time>2022-05-03T09:15:21.000Z</time>
      </trkpt>
      <trkpt lat="40.794743858277797698974609375" lon="-1.3954237662255764007568359375">
        <ele>997.4000244140625</ele>
        <time>2022-05-03T09:15:23.000Z</time>
      </trkpt>
      <trkpt lat="40.794717036187648773193359375" lon="-1.39551253058016300201416015625">
        <ele>997.5999755859375</ele>
        <time>2022-05-03T09:15:25.000Z</time>
      </trkpt>
      <trkpt lat="40.7946907170116901397705078125" lon="-1.3955964334309101104736328125">
        <ele>998</ele>
        <time>2022-05-03T09:15:27.000Z</time>
      </trkpt>
      <trkpt lat="40.79466498456895351409912109375" lon="-1.39567530713975429534912109375">
        <ele>998</ele>
        <time>2022-05-03T09:15:29.000Z</time>
      </trkpt>
      <trkpt lat="40.79463698901236057281494140625" lon="-1.3957583718001842498779296875">
        <ele>998.20001220703125</ele>
        <time>2022-05-03T09:15:31.000Z</time>
      </trkpt>
      <trkpt lat="40.79460497014224529266357421875" lon="-1.39584906399250030517578125">
        <ele>998.20001220703125</ele>
        <time>2022-05-03T09:15:33.000Z</time>
      </trkpt>
      <trkpt lat="40.79458502121269702911376953125" lon="-1.39589441008865833282470703125">
        <ele>998.20001220703125</ele>
        <time>2022-05-03T09:15:34.000Z</time>
      </trkpt>
      <trkpt lat="40.7945653237402439117431640625" lon="-1.3959410972893238067626953125">
        <ele>998.4000244140625</ele>
        <time>2022-05-03T09:15:35.000Z</time>
      </trkpt>
      <trkpt lat="40.79453003592789173126220703125" lon="-1.39604075811803340911865234375">
        <ele>998.4000244140625</ele>
        <time>2022-05-03T09:15:37.000Z</time>
      </trkpt>
      <trkpt lat="40.79449483193457126617431640625" lon="-1.3961412571370601654052734375">
        <ele>998.5999755859375</ele>
        <time>2022-05-03T09:15:39.000Z</time>
      </trkpt>
      <trkpt lat="40.79446130432188510894775390625" lon="-1.39624091796576976776123046875">
        <ele>998.79998779296875</ele>
        <time>2022-05-03T09:15:41.000Z</time>
      </trkpt>
      <trkpt lat="40.79442836344242095947265625" lon="-1.3963377289474010467529296875">
        <ele>998.79998779296875</ele>
        <time>2022-05-03T09:15:43.000Z</time>
      </trkpt>
      <trkpt lat="40.794395171105861663818359375" lon="-1.39643252827227115631103515625">
        <ele>999</ele>
        <time>2022-05-03T09:15:45.000Z</time>
      </trkpt>
      <trkpt lat="40.79436608590185642242431640625" lon="-1.39652808196842670440673828125">
        <ele>999</ele>
        <time>2022-05-03T09:15:47.000Z</time>
      </trkpt>
      <trkpt lat="40.79433456994593143463134765625" lon="-1.39662019908428192138671875">
        <ele>999.20001220703125</ele>
        <time>2022-05-03T09:15:49.000Z</time>
      </trkpt>
      <trkpt lat="40.7943021319806575775146484375" lon="-1.39671416021883487701416015625">
        <ele>999.20001220703125</ele>
        <time>2022-05-03T09:15:51.000Z</time>
      </trkpt>
      <trkpt lat="40.79428729601204395294189453125" lon="-1.39676093123853206634521484375">
        <ele>999.4000244140625</ele>
        <time>2022-05-03T09:15:52.000Z</time>
      </trkpt>
      <trkpt lat="40.794274471700191497802734375" lon="-1.3968074508011341094970703125">
        <ele>999.4000244140625</ele>
        <time>2022-05-03T09:15:53.000Z</time>
      </trkpt>
      <trkpt lat="40.79424572177231311798095703125" lon="-1.396901495754718780517578125">
        <ele>999.5999755859375</ele>
        <time>2022-05-03T09:15:55.000Z</time>
      </trkpt>
      <trkpt lat="40.79421378672122955322265625" lon="-1.39699445106089115142822265625">
        <ele>999.5999755859375</ele>
        <time>2022-05-03T09:15:57.000Z</time>
      </trkpt>
      <trkpt lat="40.79418168403208255767822265625" lon="-1.39709218405187129974365234375">
        <ele>999.5999755859375</ele>
        <time>2022-05-03T09:15:59.000Z</time>
      </trkpt>
      <trkpt lat="40.79416441731154918670654296875" lon="-1.39714214019477367401123046875">
        <ele>999.5999755859375</ele>
        <time>2022-05-03T09:16:00.000Z</time>
      </trkpt>
      <trkpt lat="40.79414966516196727752685546875" lon="-1.39719226397573947906494140625">
        <ele>999.5999755859375</ele>
        <time>2022-05-03T09:16:01.000Z</time>
      </trkpt>
      <trkpt lat="40.79412401653826236724853515625" lon="-1.39729854650795459747314453125">
        <ele>999.79998779296875</ele>
        <time>2022-05-03T09:16:03.000Z</time>
      </trkpt>
      <trkpt lat="40.7940919138491153717041015625" lon="-1.39740449376404285430908203125">
        <ele>1000</ele>
        <time>2022-05-03T09:16:05.000Z</time>
      </trkpt>
      <trkpt lat="40.7940758205950260162353515625" lon="-1.397456713020801544189453125">
        <ele>1000.20001220703125</ele>
        <time>2022-05-03T09:16:06.000Z</time>
      </trkpt>
      <trkpt lat="40.79405981115996837615966796875" lon="-1.397507004439830780029296875">
        <ele>1000.20001220703125</ele>
        <time>2022-05-03T09:16:07.000Z</time>
      </trkpt>
      <trkpt lat="40.7940267026424407958984375" lon="-1.3976040668785572052001953125">
        <ele>1000.5999755859375</ele>
        <time>2022-05-03T09:16:09.000Z</time>
      </trkpt>
      <trkpt lat="40.79399225302040576934814453125" lon="-1.3976999558508396148681640625">
        <ele>1000.79998779296875</ele>
        <time>2022-05-03T09:16:11.000Z</time>
      </trkpt>
      <trkpt lat="40.793958641588687896728515625" lon="-1.3978028856217861175537109375">
        <ele>1001</ele>
        <time>2022-05-03T09:16:13.000Z</time>
      </trkpt>
      <trkpt lat="40.79392771236598491668701171875" lon="-1.39790363609790802001953125">
        <ele>1001.4000244140625</ele>
        <time>2022-05-03T09:16:15.000Z</time>
      </trkpt>
      <trkpt lat="40.79389636404812335968017578125" lon="-1.3980063982307910919189453125">
        <ele>1001.5999755859375</ele>
        <time>2022-05-03T09:16:17.000Z</time>
      </trkpt>
      <trkpt lat="40.7938662730157375335693359375" lon="-1.398107819259166717529296875">
        <ele>1002</ele>
        <time>2022-05-03T09:16:19.000Z</time>
      </trkpt>
      <trkpt lat="40.79383467324078083038330078125" lon="-1.39820463024079799652099609375">
        <ele>1002</ele>
        <time>2022-05-03T09:16:21.000Z</time>
      </trkpt>
      <trkpt lat="40.79380298964679241180419921875" lon="-1.398296244442462921142578125">
        <ele>1002</ele>
        <time>2022-05-03T09:16:23.000Z</time>
      </trkpt>
      <trkpt lat="40.793772228062152862548828125" lon="-1.39838383533060550689697265625">
        <ele>1002</ele>
        <time>2022-05-03T09:16:25.000Z</time>
      </trkpt>
      <trkpt lat="40.79374314285814762115478515625" lon="-1.398473940789699554443359375">
        <ele>1002</ele>
        <time>2022-05-03T09:16:27.000Z</time>
      </trkpt>
      <trkpt lat="40.79371313564479351043701171875" lon="-1.39856521971523761749267578125">
        <ele>1002</ele>
        <time>2022-05-03T09:16:29.000Z</time>
      </trkpt>
      <trkpt lat="40.793682038784027099609375" lon="-1.3986580073833465576171875">
        <ele>1002</ele>
        <time>2022-05-03T09:16:31.000Z</time>
      </trkpt>
      <trkpt lat="40.79364675097167491912841796875" lon="-1.39874995686113834381103515625">
        <ele>1002</ele>
        <time>2022-05-03T09:16:33.000Z</time>
      </trkpt>
      <trkpt lat="40.7936163246631622314453125" lon="-1.398847103118896484375">
        <ele>1002</ele>
        <time>2022-05-03T09:16:35.000Z</time>
      </trkpt>
      <trkpt lat="40.7935873232781887054443359375" lon="-1.39894307591021060943603515625">
        <ele>1002</ele>
        <time>2022-05-03T09:16:37.000Z</time>
      </trkpt>
      <trkpt lat="40.7935537956655025482177734375" lon="-1.39903628267347812652587890625">
        <ele>1002</ele>
        <time>2022-05-03T09:16:39.000Z</time>
      </trkpt>
      <trkpt lat="40.7935206033289432525634765625" lon="-1.399134434759616851806640625">
        <ele>1002</ele>
        <time>2022-05-03T09:16:41.000Z</time>
      </trkpt>
      <trkpt lat="40.7935041747987270355224609375" lon="-1.39918598346412181854248046875">
        <ele>1002</ele>
        <time>2022-05-03T09:16:42.000Z</time>
      </trkpt>
      <trkpt lat="40.7934864051640033721923828125" lon="-1.3992385379970073699951171875">
        <ele>1002</ele>
        <time>2022-05-03T09:16:43.000Z</time>
      </trkpt>
      <trkpt lat="40.7934500277042388916015625" lon="-1.39933937229216098785400390625">
        <ele>1002</ele>
        <time>2022-05-03T09:16:45.000Z</time>
      </trkpt>
      <trkpt lat="40.793414153158664703369140625" lon="-1.3994397036731243133544921875">
        <ele>1002</ele>
        <time>2022-05-03T09:16:47.000Z</time>
      </trkpt>
      <trkpt lat="40.79338070936501026153564453125" lon="-1.39953550882637500762939453125">
        <ele>1002</ele>
        <time>2022-05-03T09:16:49.000Z</time>
      </trkpt>
      <trkpt lat="40.7933660410344600677490234375" lon="-1.3995842076838016510009765625">
        <ele>1002.20001220703125</ele>
        <time>2022-05-03T09:16:50.000Z</time>
      </trkpt>
      <trkpt lat="40.7933512888848781585693359375" lon="-1.3996343314647674560546875">
        <ele>1002.20001220703125</ele>
        <time>2022-05-03T09:16:51.000Z</time>
      </trkpt>
      <trkpt lat="40.79331985674798488616943359375" lon="-1.399734914302825927734375">
        <ele>1002.20001220703125</ele>
        <time>2022-05-03T09:16:53.000Z</time>
      </trkpt>
      <trkpt lat="40.7932875864207744598388671875" lon="-1.399834491312503814697265625">
        <ele>1002.4000244140625</ele>
        <time>2022-05-03T09:16:55.000Z</time>
      </trkpt>
      <trkpt lat="40.79325682483613491058349609375" lon="-1.3999312184751033782958984375">
        <ele>1002.5999755859375</ele>
        <time>2022-05-03T09:16:57.000Z</time>
      </trkpt>
      <trkpt lat="40.79322799108922481536865234375" lon="-1.40002098865807056427001953125">
        <ele>1003</ele>
        <time>2022-05-03T09:16:59.000Z</time>
      </trkpt>
      <trkpt lat="40.7931960560381412506103515625" lon="-1.40010916627943515777587890625">
        <ele>1003.20001220703125</ele>
        <time>2022-05-03T09:17:01.000Z</time>
      </trkpt>
      <trkpt lat="40.7931645400822162628173828125" lon="-1.40020304359495639801025390625">
        <ele>1003.5999755859375</ele>
        <time>2022-05-03T09:17:03.000Z</time>
      </trkpt>
      <trkpt lat="40.79312992282211780548095703125" lon="-1.40029893256723880767822265625">
        <ele>1003.79998779296875</ele>
        <time>2022-05-03T09:17:05.000Z</time>
      </trkpt>
      <trkpt lat="40.79311450012028217315673828125" lon="-1.4003451168537139892578125">
        <ele>1004</ele>
        <time>2022-05-03T09:17:06.000Z</time>
      </trkpt>
      <trkpt lat="40.79309974797070026397705078125" lon="-1.40039004385471343994140625">
        <ele>1004.20001220703125</ele>
        <time>2022-05-03T09:17:07.000Z</time>
      </trkpt>
      <trkpt lat="40.7930740155279636383056640625" lon="-1.4004820771515369415283203125">
        <ele>1004.4000244140625</ele>
        <time>2022-05-03T09:17:09.000Z</time>
      </trkpt>
      <trkpt lat="40.79305482096970081329345703125" lon="-1.4005715958774089813232421875">
        <ele>1004.79998779296875</ele>
        <time>2022-05-03T09:17:11.000Z</time>
      </trkpt>
      <trkpt lat="40.79304325394332408905029296875" lon="-1.4006088115274906158447265625">
        <ele>1004.79998779296875</ele>
        <time>2022-05-03T09:17:12.000Z</time>
      </trkpt>
      <trkpt lat="40.7930287532508373260498046875" lon="-1.4006446860730648040771484375">
        <ele>1004.79998779296875</ele>
        <time>2022-05-03T09:17:13.000Z</time>
      </trkpt>
      <trkpt lat="40.79299983568489551544189453125" lon="-1.40072322450578212738037109375">
        <ele>1004.79998779296875</ele>
        <time>2022-05-03T09:17:15.000Z</time>
      </trkpt>
      <trkpt lat="40.7929707504808902740478515625" lon="-1.40080134384334087371826171875">
        <ele>1004.5999755859375</ele>
        <time>2022-05-03T09:17:17.000Z</time>
      </trkpt>
      <trkpt lat="40.7929412461817264556884765625" lon="-1.40087543986737728118896484375">
        <ele>1004.4000244140625</ele>
        <time>2022-05-03T09:17:19.000Z</time>
      </trkpt>
      <trkpt lat="40.79292766749858856201171875" lon="-1.40090594999492168426513671875">
        <ele>1004.4000244140625</ele>
        <time>2022-05-03T09:17:20.000Z</time>
      </trkpt>
      <trkpt lat="40.7929184474050998687744140625" lon="-1.40092858113348484039306640625">
        <ele>1004.4000244140625</ele>
        <time>2022-05-03T09:17:21.000Z</time>
      </trkpt>
      <trkpt lat="40.79291517846286296844482421875" lon="-1.400944925844669342041015625">
        <ele>1004.4000244140625</ele>
        <time>2022-05-03T09:17:22.000Z</time>
      </trkpt>
      <trkpt lat="40.79291769303381443023681640625" lon="-1.4009566605091094970703125">
        <ele>1004.4000244140625</ele>
        <time>2022-05-03T09:17:23.000Z</time>
      </trkpt>
      <trkpt lat="40.7929184474050998687744140625" lon="-1.40095992945134639739990234375">
        <ele>1004.4000244140625</ele>
        <time>2022-05-03T09:17:24.000Z</time>
      </trkpt>
      <trkpt lat="40.79291827976703643798828125" lon="-1.4009591750800609588623046875">
        <ele>1004.4000244140625</ele>
        <time>2022-05-03T09:17:25.000Z</time>
      </trkpt>
      <trkpt lat="40.792910568416118621826171875" lon="-1.40098038129508495330810546875">
        <ele>1004.20001220703125</ele>
        <time>2022-05-03T09:18:14.000Z</time>
      </trkpt>
      <trkpt lat="40.7929036952555179595947265625" lon="-1.40099714510142803192138671875">
        <ele>1004.20001220703125</ele>
        <time>2022-05-03T09:18:15.000Z</time>
      </trkpt>
      <trkpt lat="40.79289615154266357421875" lon="-1.401013992726802825927734375">
        <ele>1004.20001220703125</ele>
        <time>2022-05-03T09:18:16.000Z</time>
      </trkpt>
      <trkpt lat="40.7928892783820629119873046875" lon="-1.40103318728506565093994140625">
        <ele>1004.20001220703125</ele>
        <time>2022-05-03T09:18:17.000Z</time>
      </trkpt>
      <trkpt lat="40.792873017489910125732421875" lon="-1.4010825566947460174560546875">
        <ele>1004</ele>
        <time>2022-05-03T09:18:19.000Z</time>
      </trkpt>
      <trkpt lat="40.79285734333097934722900390625" lon="-1.40114508569240570068359375">
        <ele>1004</ele>
        <time>2022-05-03T09:18:21.000Z</time>
      </trkpt>
      <trkpt lat="40.7928473688662052154541015625" lon="-1.40117852948606014251708984375">
        <ele>1003.79998779296875</ele>
        <time>2022-05-03T09:18:22.000Z</time>
      </trkpt>
      <trkpt lat="40.79283605329692363739013671875" lon="-1.40121289528906345367431640625">
        <ele>1003.79998779296875</ele>
        <time>2022-05-03T09:18:23.000Z</time>
      </trkpt>
      <trkpt lat="40.792814008891582489013671875" lon="-1.40128548257052898406982421875">
        <ele>1003.5999755859375</ele>
        <time>2022-05-03T09:18:25.000Z</time>
      </trkpt>
      <trkpt lat="40.79278760589659214019775390625" lon="-1.401360668241977691650390625">
        <ele>1003.5999755859375</ele>
        <time>2022-05-03T09:18:27.000Z</time>
      </trkpt>
      <trkpt lat="40.79276229254901409149169921875" lon="-1.40144004486501216888427734375">
        <ele>1003.4000244140625</ele>
        <time>2022-05-03T09:18:29.000Z</time>
      </trkpt>
      <trkpt lat="40.79273329116404056549072265625" lon="-1.401524282991886138916015625">
        <ele>1003.20001220703125</ele>
        <time>2022-05-03T09:18:31.000Z</time>
      </trkpt>
      <trkpt lat="40.7927102409303188323974609375" lon="-1.40160617418587207794189453125">
        <ele>1003.4000244140625</ele>
        <time>2022-05-03T09:18:33.000Z</time>
      </trkpt>
      <trkpt lat="40.79269431531429290771484375" lon="-1.40167213976383209228515625">
        <ele>1003.4000244140625</ele>
        <time>2022-05-03T09:18:35.000Z</time>
      </trkpt>
      <trkpt lat="40.79267084598541259765625" lon="-1.40173207037150859832763671875">
        <ele>1003.4000244140625</ele>
        <time>2022-05-03T09:18:37.000Z</time>
      </trkpt>
      <trkpt lat="40.7926453649997711181640625" lon="-1.40180096961557865142822265625">
        <ele>1003.4000244140625</ele>
        <time>2022-05-03T09:18:39.000Z</time>
      </trkpt>
      <trkpt lat="40.79261745326220989227294921875" lon="-1.401876993477344512939453125">
        <ele>1003.4000244140625</ele>
        <time>2022-05-03T09:18:41.000Z</time>
      </trkpt>
      <trkpt lat="40.79259163700044155120849609375" lon="-1.40195821411907672882080078125">
        <ele>1003.4000244140625</ele>
        <time>2022-05-03T09:18:43.000Z</time>
      </trkpt>
      <trkpt lat="40.79257638193666934967041015625" lon="-1.402001045644283294677734375">
        <ele>1003.5999755859375</ele>
        <time>2022-05-03T09:18:44.000Z</time>
      </trkpt>
      <trkpt lat="40.79256012104451656341552734375" lon="-1.4020454697310924530029296875">
        <ele>1003.5999755859375</ele>
        <time>2022-05-03T09:18:45.000Z</time>
      </trkpt>
      <trkpt lat="40.792527683079242706298828125" lon="-1.40213943086564540863037109375">
        <ele>1003.5999755859375</ele>
        <time>2022-05-03T09:18:47.000Z</time>
      </trkpt>
      <trkpt lat="40.792496502399444580078125" lon="-1.4022342301905155181884765625">
        <ele>1003.79998779296875</ele>
        <time>2022-05-03T09:18:49.000Z</time>
      </trkpt>
      <trkpt lat="40.792467333376407623291015625" lon="-1.4023234136402606964111328125">
        <ele>1003.79998779296875</ele>
        <time>2022-05-03T09:18:51.000Z</time>
      </trkpt>
      <trkpt lat="40.792434476315975189208984375" lon="-1.4024077355861663818359375">
        <ele>1003.5999755859375</ele>
        <time>2022-05-03T09:18:53.000Z</time>
      </trkpt>
      <trkpt lat="40.79239985905587673187255859375" lon="-1.4024984277784824371337890625">
        <ele>1003.4000244140625</ele>
        <time>2022-05-03T09:18:55.000Z</time>
      </trkpt>
      <trkpt lat="40.79236867837607860565185546875" lon="-1.40259423293173313140869140625">
        <ele>1003.20001220703125</ele>
        <time>2022-05-03T09:18:57.000Z</time>
      </trkpt>
      <trkpt lat="40.79233883880078792572021484375" lon="-1.40268643386662006378173828125">
        <ele>1003</ele>
        <time>2022-05-03T09:18:59.000Z</time>
      </trkpt>
      <trkpt lat="40.79231184907257556915283203125" lon="-1.4027710072696208953857421875">
        <ele>1002.79998779296875</ele>
        <time>2022-05-03T09:19:01.000Z</time>
      </trkpt>
      <trkpt lat="40.792281925678253173828125" lon="-1.40285993926227092742919921875">
        <ele>1002.5999755859375</ele>
        <time>2022-05-03T09:19:03.000Z</time>
      </trkpt>
      <trkpt lat="40.79224982298910617828369140625" lon="-1.40295582823455333709716796875">
        <ele>1002.4000244140625</ele>
        <time>2022-05-03T09:19:05.000Z</time>
      </trkpt>
      <trkpt lat="40.7922188937664031982421875" lon="-1.403055489063262939453125">
        <ele>1002.20001220703125</ele>
        <time>2022-05-03T09:19:07.000Z</time>
      </trkpt>
      <trkpt lat="40.79218528233468532562255859375" lon="-1.403157077729701995849609375">
        <ele>1002</ele>
        <time>2022-05-03T09:19:09.000Z</time>
      </trkpt>
      <trkpt lat="40.79215376637876033782958984375" lon="-1.4032584987580776214599609375">
        <ele>1001.79998779296875</ele>
        <time>2022-05-03T09:19:11.000Z</time>
      </trkpt>
      <trkpt lat="40.7921250164508819580078125" lon="-1.4033590815961360931396484375">
        <ele>1001.5999755859375</ele>
        <time>2022-05-03T09:19:13.000Z</time>
      </trkpt>
      <trkpt lat="40.79209190793335437774658203125" lon="-1.40345991589128971099853515625">
        <ele>1001.4000244140625</ele>
        <time>2022-05-03T09:19:15.000Z</time>
      </trkpt>
      <trkpt lat="40.79205770976841449737548828125" lon="-1.4035622589290142059326171875">
        <ele>1001.20001220703125</ele>
        <time>2022-05-03T09:19:17.000Z</time>
      </trkpt>
      <trkpt lat="40.792024433612823486328125" lon="-1.40366594307124614715576171875">
        <ele>1001</ele>
        <time>2022-05-03T09:19:19.000Z</time>
      </trkpt>
      <trkpt lat="40.79198897816240787506103515625" lon="-1.40377172268927097320556640625">
        <ele>1000.79998779296875</ele>
        <time>2022-05-03T09:19:21.000Z</time>
      </trkpt>
      <trkpt lat="40.7919565401971340179443359375" lon="-1.403874568641185760498046875">
        <ele>1000.5999755859375</ele>
        <time>2022-05-03T09:19:23.000Z</time>
      </trkpt>
      <trkpt lat="40.7919260300695896148681640625" lon="-1.40397213399410247802734375">
        <ele>1000.4000244140625</ele>
        <time>2022-05-03T09:19:25.000Z</time>
      </trkpt>
      <trkpt lat="40.7918918319046497344970703125" lon="-1.40407129190862178802490234375">
        <ele>1000.5999755859375</ele>
        <time>2022-05-03T09:19:27.000Z</time>
      </trkpt>
      <trkpt lat="40.7918579690158367156982421875" lon="-1.4041714556515216827392578125">
        <ele>1000.79998779296875</ele>
        <time>2022-05-03T09:19:29.000Z</time>
      </trkpt>
      <trkpt lat="40.79182553105056285858154296875" lon="-1.40427111648023128509521484375">
        <ele>1001.20001220703125</ele>
        <time>2022-05-03T09:19:31.000Z</time>
      </trkpt>
      <trkpt lat="40.79179233871400356292724609375" lon="-1.404369436204433441162109375">
        <ele>1001.4000244140625</ele>
        <time>2022-05-03T09:19:33.000Z</time>
      </trkpt>
      <trkpt lat="40.7917593978345394134521484375" lon="-1.40446809120476245880126953125">
        <ele>1001.79998779296875</ele>
        <time>2022-05-03T09:19:35.000Z</time>
      </trkpt>
      <trkpt lat="40.79172763042151927947998046875" lon="-1.40456733293831348419189453125">
        <ele>1002</ele>
        <time>2022-05-03T09:19:37.000Z</time>
      </trkpt>
      <trkpt lat="40.79169611446559429168701171875" lon="-1.40466741286218166351318359375">
        <ele>1002.20001220703125</ele>
        <time>2022-05-03T09:19:39.000Z</time>
      </trkpt>
      <trkpt lat="40.79168119467794895172119140625" lon="-1.4047172851860523223876953125">
        <ele>1002.4000244140625</ele>
        <time>2022-05-03T09:19:40.000Z</time>
      </trkpt>
      <trkpt lat="40.79166493378579616546630859375" lon="-1.4047652296721935272216796875">
        <ele>1002.5999755859375</ele>
        <time>2022-05-03T09:19:41.000Z</time>
      </trkpt>
      <trkpt lat="40.79163341782987117767333984375" lon="-1.40486002899706363677978515625">
        <ele>1002.79998779296875</ele>
        <time>2022-05-03T09:19:43.000Z</time>
      </trkpt>
      <trkpt lat="40.79160265624523162841796875" lon="-1.40496061183512210845947265625">
        <ele>1003</ele>
        <time>2022-05-03T09:19:45.000Z</time>
      </trkpt>
      <trkpt lat="40.79156904481351375579833984375" lon="-1.4050632901489734649658203125">
        <ele>1003</ele>
        <time>2022-05-03T09:19:47.000Z</time>
      </trkpt>
      <trkpt lat="40.79153266735374927520751953125" lon="-1.40516445972025394439697265625">
        <ele>1003.20001220703125</ele>
        <time>2022-05-03T09:19:49.000Z</time>
      </trkpt>
      <trkpt lat="40.7914978824555873870849609375" lon="-1.4052669703960418701171875">
        <ele>1003.4000244140625</ele>
        <time>2022-05-03T09:19:51.000Z</time>
      </trkpt>
      <trkpt lat="40.791460163891315460205078125" lon="-1.40537065453827381134033203125">
        <ele>1003.5999755859375</ele>
        <time>2022-05-03T09:19:53.000Z</time>
      </trkpt>
      <trkpt lat="40.79142051748931407928466796875" lon="-1.40547459013760089874267578125">
        <ele>1003.79998779296875</ele>
        <time>2022-05-03T09:19:55.000Z</time>
      </trkpt>
      <trkpt lat="40.7913828827440738677978515625" lon="-1.40558472834527492523193359375">
        <ele>1004</ele>
        <time>2022-05-03T09:19:57.000Z</time>
      </trkpt>
      <trkpt lat="40.79136469401419162750244140625" lon="-1.40564155764877796173095703125">
        <ele>1004</ele>
        <time>2022-05-03T09:19:58.000Z</time>
      </trkpt>
      <trkpt lat="40.79134440980851650238037109375" lon="-1.4057006500661373138427734375">
        <ele>1003.79998779296875</ele>
        <time>2022-05-03T09:19:59.000Z</time>
      </trkpt>
      <trkpt lat="40.7913050986826419830322265625" lon="-1.40581808052957057952880859375">
        <ele>1003.5999755859375</ele>
        <time>2022-05-03T09:20:01.000Z</time>
      </trkpt>
      <trkpt lat="40.791268050670623779296875" lon="-1.40593425370752811431884765625">
        <ele>1003.4000244140625</ele>
        <time>2022-05-03T09:20:03.000Z</time>
      </trkpt>
      <trkpt lat="40.79122873954474925994873046875" lon="-1.40605092979967594146728515625">
        <ele>1003</ele>
        <time>2022-05-03T09:20:05.000Z</time>
      </trkpt>
      <trkpt lat="40.7911890931427478790283203125" lon="-1.40617146156728267669677734375">
        <ele>1002.79998779296875</ele>
        <time>2022-05-03T09:20:07.000Z</time>
      </trkpt>
      <trkpt lat="40.79114735126495361328125" lon="-1.40629601664841175079345703125">
        <ele>1002.4000244140625</ele>
        <time>2022-05-03T09:20:09.000Z</time>
      </trkpt>
      <trkpt lat="40.79112631268799304962158203125" lon="-1.40636005438864231109619140625">
        <ele>1002.20001220703125</ele>
        <time>2022-05-03T09:20:10.000Z</time>
      </trkpt>
      <trkpt lat="40.79110435210168361663818359375" lon="-1.406425349414348602294921875">
        <ele>1002.20001220703125</ele>
        <time>2022-05-03T09:20:11.000Z</time>
      </trkpt>
      <trkpt lat="40.79105959273874759674072265625" lon="-1.406561471521854400634765625">
        <ele>1001.79998779296875</ele>
        <time>2022-05-03T09:20:13.000Z</time>
      </trkpt>
      <trkpt lat="40.7910124026238918304443359375" lon="-1.40670790337026119232177734375">
        <ele>1001.4000244140625</ele>
        <time>2022-05-03T09:20:15.000Z</time>
      </trkpt>
      <trkpt lat="40.7909877598285675048828125" lon="-1.40678577125072479248046875">
        <ele>1001.20001220703125</ele>
        <time>2022-05-03T09:20:16.000Z</time>
      </trkpt>
      <trkpt lat="40.79096219502389430999755859375" lon="-1.4068660698831081390380859375">
        <ele>1001</ele>
        <time>2022-05-03T09:20:17.000Z</time>
      </trkpt>
      <trkpt lat="40.7909081317484378814697265625" lon="-1.407030187547206878662109375">
        <ele>1000.5999755859375</ele>
        <time>2022-05-03T09:20:19.000Z</time>
      </trkpt>
      <trkpt lat="40.79084669239819049835205078125" lon="-1.40719539485871791839599609375">
        <ele>999.79998779296875</ele>
        <time>2022-05-03T09:20:21.000Z</time>
      </trkpt>
      <trkpt lat="40.79081408679485321044921875" lon="-1.40727820806205272674560546875">
        <ele>999.5999755859375</ele>
        <time>2022-05-03T09:20:22.000Z</time>
      </trkpt>
      <trkpt lat="40.7907850854098796844482421875" lon="-1.4073619432747364044189453125">
        <ele>999.4000244140625</ele>
        <time>2022-05-03T09:20:23.000Z</time>
      </trkpt>
      <trkpt lat="40.790736638009548187255859375" lon="-1.4075232110917568206787109375">
        <ele>999</ele>
        <time>2022-05-03T09:20:25.000Z</time>
      </trkpt>
      <trkpt lat="40.79068961553275585174560546875" lon="-1.407675929367542266845703125">
        <ele>998.79998779296875</ele>
        <time>2022-05-03T09:20:27.000Z</time>
      </trkpt>
      <trkpt lat="40.79067184589803218841552734375" lon="-1.40775178559124469757080078125">
        <ele>998.5999755859375</ele>
        <time>2022-05-03T09:20:28.000Z</time>
      </trkpt>
      <trkpt lat="40.79065055586397647857666015625" lon="-1.40782780945301055908203125">
        <ele>998.5999755859375</ele>
        <time>2022-05-03T09:20:29.000Z</time>
      </trkpt>
      <trkpt lat="40.79060043208301067352294921875" lon="-1.40797859989106655120849609375">
        <ele>998.20001220703125</ele>
        <time>2022-05-03T09:20:31.000Z</time>
      </trkpt>
      <trkpt lat="40.79055198468267917633056640625" lon="-1.40812779776751995086669921875">
        <ele>998</ele>
        <time>2022-05-03T09:20:33.000Z</time>
      </trkpt>
      <trkpt lat="40.79052843153476715087890625" lon="-1.40819954685866832733154296875">
        <ele>998.20001220703125</ele>
        <time>2022-05-03T09:20:34.000Z</time>
      </trkpt>
      <trkpt lat="40.7905049622058868408203125" lon="-1.40827045775949954986572265625">
        <ele>998.4000244140625</ele>
        <time>2022-05-03T09:20:35.000Z</time>
      </trkpt>
      <trkpt lat="40.79045844264328479766845703125" lon="-1.40840674750506877899169921875">
        <ele>998.79998779296875</ele>
        <time>2022-05-03T09:20:37.000Z</time>
      </trkpt>
      <trkpt lat="40.79041837714612483978271484375" lon="-1.40853859484195709228515625">
        <ele>999.20001220703125</ele>
        <time>2022-05-03T09:20:39.000Z</time>
      </trkpt>
      <trkpt lat="40.79037948511540889739990234375" lon="-1.40866331756114959716796875">
        <ele>999.5999755859375</ele>
        <time>2022-05-03T09:20:41.000Z</time>
      </trkpt>
      <trkpt lat="40.7903606258332729339599609375" lon="-1.408722661435604095458984375">
        <ele>999.79998779296875</ele>
        <time>2022-05-03T09:20:42.000Z</time>
      </trkpt>
      <trkpt lat="40.7903425209224224090576171875" lon="-1.4087808318436145782470703125">
        <ele>1000</ele>
        <time>2022-05-03T09:20:43.000Z</time>
      </trkpt>
      <trkpt lat="40.790307819843292236328125" lon="-1.4088901318609714508056640625">
        <ele>1000.4000244140625</ele>
        <time>2022-05-03T09:20:45.000Z</time>
      </trkpt>
      <trkpt lat="40.790274627506732940673828125" lon="-1.4089917205274105072021484375">
        <ele>1000.5999755859375</ele>
        <time>2022-05-03T09:20:47.000Z</time>
      </trkpt>
      <trkpt lat="40.79024034552276134490966796875" lon="-1.40908802859485149383544921875">
        <ele>1000.79998779296875</ele>
        <time>2022-05-03T09:20:49.000Z</time>
      </trkpt>
      <trkpt lat="40.79022441990673542022705078125" lon="-1.40913647599518299102783203125">
        <ele>1000.79998779296875</ele>
        <time>2022-05-03T09:20:50.000Z</time>
      </trkpt>
      <trkpt lat="40.790208913385868072509765625" lon="-1.40918492339551448822021484375">
        <ele>1000.79998779296875</ele>
        <time>2022-05-03T09:20:51.000Z</time>
      </trkpt>
      <trkpt lat="40.790177397429943084716796875" lon="-1.40928081236779689788818359375">
        <ele>1001</ele>
        <time>2022-05-03T09:20:53.000Z</time>
      </trkpt>
      <trkpt lat="40.79014646820724010467529296875" lon="-1.4093752764165401458740234375">
        <ele>1001</ele>
        <time>2022-05-03T09:20:55.000Z</time>
      </trkpt>
      <trkpt lat="40.7901160418987274169921875" lon="-1.40946990810334682464599609375">
        <ele>1001</ele>
        <time>2022-05-03T09:20:57.000Z</time>
      </trkpt>
      <trkpt lat="40.79008460976183414459228515625" lon="-1.409564204514026641845703125">
        <ele>1001</ele>
        <time>2022-05-03T09:20:59.000Z</time>
      </trkpt>
      <trkpt lat="40.79005141742527484893798828125" lon="-1.409660093486309051513671875">
        <ele>1001</ele>
        <time>2022-05-03T09:21:01.000Z</time>
      </trkpt>
      <trkpt lat="40.79003565944731235504150390625" lon="-1.40970803797245025634765625">
        <ele>1001</ele>
        <time>2022-05-03T09:21:02.000Z</time>
      </trkpt>
      <trkpt lat="40.79002073965966701507568359375" lon="-1.40975631773471832275390625">
        <ele>1001</ele>
        <time>2022-05-03T09:21:03.000Z</time>
      </trkpt>
      <trkpt lat="40.78998930752277374267578125" lon="-1.40985480509698390960693359375">
        <ele>1001</ele>
        <time>2022-05-03T09:21:05.000Z</time>
      </trkpt>
      <trkpt lat="40.78995686955749988555908203125" lon="-1.4099553041160106658935546875">
        <ele>1001.20001220703125</ele>
        <time>2022-05-03T09:21:07.000Z</time>
      </trkpt>
      <trkpt lat="40.7899244315922260284423828125" lon="-1.410054378211498260498046875">
        <ele>1001.20001220703125</ele>
        <time>2022-05-03T09:21:09.000Z</time>
      </trkpt>
      <trkpt lat="40.7898932509124279022216796875" lon="-1.4101507700979709625244140625">
        <ele>1001.4000244140625</ele>
        <time>2022-05-03T09:21:11.000Z</time>
      </trkpt>
      <trkpt lat="40.7898612320423126220703125" lon="-1.41024556942284107208251953125">
        <ele>1001.5999755859375</ele>
        <time>2022-05-03T09:21:13.000Z</time>
      </trkpt>
      <trkpt lat="40.78983013518154621124267578125" lon="-1.4103418774902820587158203125">
        <ele>1001.5999755859375</ele>
        <time>2022-05-03T09:21:15.000Z</time>
      </trkpt>
      <trkpt lat="40.7897968590259552001953125" lon="-1.410438604652881622314453125">
        <ele>1001.79998779296875</ele>
        <time>2022-05-03T09:21:17.000Z</time>
      </trkpt>
      <trkpt lat="40.789764337241649627685546875" lon="-1.410536505281925201416015625">
        <ele>1001.79998779296875</ele>
        <time>2022-05-03T09:21:19.000Z</time>
      </trkpt>
      <trkpt lat="40.78973206691443920135498046875" lon="-1.41063348390161991119384765625">
        <ele>1002</ele>
        <time>2022-05-03T09:21:21.000Z</time>
      </trkpt>
      <trkpt lat="40.78971664421260356903076171875" lon="-1.41068167984485626220703125">
        <ele>1002.20001220703125</ele>
        <time>2022-05-03T09:21:22.000Z</time>
      </trkpt>
      <trkpt lat="40.78970122151076793670654296875" lon="-1.41072987578809261322021484375">
        <ele>1002.20001220703125</ele>
        <time>2022-05-03T09:21:23.000Z</time>
      </trkpt>
      <trkpt lat="40.78966903500258922576904296875" lon="-1.41082660295069217681884765625">
        <ele>1002.5999755859375</ele>
        <time>2022-05-03T09:21:25.000Z</time>
      </trkpt>
      <trkpt lat="40.7896381057798862457275390625" lon="-1.4109252579510211944580078125">
        <ele>1003</ele>
        <time>2022-05-03T09:21:27.000Z</time>
      </trkpt>
      <trkpt lat="40.789606086909770965576171875" lon="-1.41102139838039875030517578125">
        <ele>1003.4000244140625</ele>
        <time>2022-05-03T09:21:29.000Z</time>
      </trkpt>
      <trkpt lat="40.7895755767822265625" lon="-1.41111887991428375244140625">
        <ele>1003.79998779296875</ele>
        <time>2022-05-03T09:21:31.000Z</time>
      </trkpt>
      <trkpt lat="40.789544396102428436279296875" lon="-1.4112146012485027313232421875">
        <ele>1004.20001220703125</ele>
        <time>2022-05-03T09:21:33.000Z</time>
      </trkpt>
      <trkpt lat="40.78951321542263031005859375" lon="-1.41131040640175342559814453125">
        <ele>1004.5999755859375</ele>
        <time>2022-05-03T09:21:35.000Z</time>
      </trkpt>
      <trkpt lat="40.789482034742832183837890625" lon="-1.41140696592628955841064453125">
        <ele>1005</ele>
        <time>2022-05-03T09:21:37.000Z</time>
      </trkpt>
      <trkpt lat="40.789449848234653472900390625" lon="-1.411505453288555145263671875">
        <ele>1005.20001220703125</ele>
        <time>2022-05-03T09:21:39.000Z</time>
      </trkpt>
      <trkpt lat="40.78941824845969676971435546875" lon="-1.4116036891937255859375">
        <ele>1005.20001220703125</ele>
        <time>2022-05-03T09:21:41.000Z</time>
      </trkpt>
      <trkpt lat="40.78940265811979770660400390625" lon="-1.41165154986083507537841796875">
        <ele>1005.20001220703125</ele>
        <time>2022-05-03T09:21:42.000Z</time>
      </trkpt>
      <trkpt lat="40.78938706777989864349365234375" lon="-1.4116994105279445648193359375">
        <ele>1005.20001220703125</ele>
        <time>2022-05-03T09:21:43.000Z</time>
      </trkpt>
      <trkpt lat="40.7893561385571956634521484375" lon="-1.4117936231195926666259765625">
        <ele>1005</ele>
        <time>2022-05-03T09:21:45.000Z</time>
      </trkpt>
      <trkpt lat="40.78932420350611209869384765625" lon="-1.41188599169254302978515625">
        <ele>1005</ele>
        <time>2022-05-03T09:21:47.000Z</time>
      </trkpt>
      <trkpt lat="40.78929352574050426483154296875" lon="-1.4119805395603179931640625">
        <ele>1005</ele>
        <time>2022-05-03T09:21:49.000Z</time>
      </trkpt>
      <trkpt lat="40.789262764155864715576171875" lon="-1.412076093256473541259765625">
        <ele>1004.79998779296875</ele>
        <time>2022-05-03T09:21:51.000Z</time>
      </trkpt>
      <trkpt lat="40.78924708999693393707275390625" lon="-1.4121228642761707305908203125">
        <ele>1004.79998779296875</ele>
        <time>2022-05-03T09:21:52.000Z</time>
      </trkpt>
      <trkpt lat="40.78923200257122516632080078125" lon="-1.4121698029339313507080078125">
        <ele>1004.79998779296875</ele>
        <time>2022-05-03T09:21:53.000Z</time>
      </trkpt>
      <trkpt lat="40.78920073807239532470703125" lon="-1.41226418316364288330078125">
        <ele>1004.5999755859375</ele>
        <time>2022-05-03T09:21:55.000Z</time>
      </trkpt>
      <trkpt lat="40.78917031176388263702392578125" lon="-1.41235948540270328521728515625">
        <ele>1004.5999755859375</ele>
        <time>2022-05-03T09:21:57.000Z</time>
      </trkpt>
      <trkpt lat="40.78913980163633823394775390625" lon="-1.41245570965111255645751953125">
        <ele>1004.5999755859375</ele>
        <time>2022-05-03T09:21:59.000Z</time>
      </trkpt>
      <trkpt lat="40.7891080342233180999755859375" lon="-1.41255411319434642791748046875">
        <ele>1004.4000244140625</ele>
        <time>2022-05-03T09:22:01.000Z</time>
      </trkpt>
      <trkpt lat="40.7890765182673931121826171875" lon="-1.41265301965177059173583984375">
        <ele>1004.4000244140625</ele>
        <time>2022-05-03T09:22:03.000Z</time>
      </trkpt>
      <trkpt lat="40.78904542140662670135498046875" lon="-1.4127508364617824554443359375">
        <ele>1004.20001220703125</ele>
        <time>2022-05-03T09:22:05.000Z</time>
      </trkpt>
      <trkpt lat="40.78902865760028362274169921875" lon="-1.41279970295727252960205078125">
        <ele>1004.20001220703125</ele>
        <time>2022-05-03T09:22:06.000Z</time>
      </trkpt>
      <trkpt lat="40.789011977612972259521484375" lon="-1.412849240005016326904296875">
        <ele>1004.20001220703125</ele>
        <time>2022-05-03T09:22:07.000Z</time>
      </trkpt>
      <trkpt lat="40.788978450000286102294921875" lon="-1.4129513315856456756591796875">
        <ele>1004.20001220703125</ele>
        <time>2022-05-03T09:22:09.000Z</time>
      </trkpt>
      <trkpt lat="40.788944922387599945068359375" lon="-1.413057111203670501708984375">
        <ele>1004</ele>
        <time>2022-05-03T09:22:11.000Z</time>
      </trkpt>
      <trkpt lat="40.788909383118152618408203125" lon="-1.41316431574523448944091796875">
        <ele>1004</ele>
        <time>2022-05-03T09:22:13.000Z</time>
      </trkpt>
      <trkpt lat="40.7888736762106418609619140625" lon="-1.41327462159097194671630859375">
        <ele>1004.20001220703125</ele>
        <time>2022-05-03T09:22:15.000Z</time>
      </trkpt>
      <trkpt lat="40.78883687965571880340576171875" lon="-1.41338878311216831207275390625">
        <ele>1004.4000244140625</ele>
        <time>2022-05-03T09:22:17.000Z</time>
      </trkpt>
      <trkpt lat="40.78880050219595432281494140625" lon="-1.41350177116692066192626953125">
        <ele>1004.5999755859375</ele>
        <time>2022-05-03T09:22:19.000Z</time>
      </trkpt>
      <trkpt lat="40.788763873279094696044921875" lon="-1.41361157409846782684326171875">
        <ele>1004.5999755859375</ele>
        <time>2022-05-03T09:22:21.000Z</time>
      </trkpt>
      <trkpt lat="40.7887274958193302154541015625" lon="-1.4137186110019683837890625">
        <ele>1004.79998779296875</ele>
        <time>2022-05-03T09:22:23.000Z</time>
      </trkpt>
      <trkpt lat="40.788690783083438873291015625" lon="-1.4138290844857692718505859375">
        <ele>1005</ele>
        <time>2022-05-03T09:22:25.000Z</time>
      </trkpt>
      <trkpt lat="40.788652561604976654052734375" lon="-1.4139465987682342529296875">
        <ele>1005.20001220703125</ele>
        <time>2022-05-03T09:22:27.000Z</time>
      </trkpt>
      <trkpt lat="40.78861325047910213470458984375" lon="-1.41407073475420475006103515625">
        <ele>1005.20001220703125</ele>
        <time>2022-05-03T09:22:29.000Z</time>
      </trkpt>
      <trkpt lat="40.78857301734387874603271484375" lon="-1.41419269144535064697265625">
        <ele>1005.20001220703125</ele>
        <time>2022-05-03T09:22:31.000Z</time>
      </trkpt>
      <trkpt lat="40.78853261657059192657470703125" lon="-1.41431565396487712860107421875">
        <ele>1005</ele>
        <time>2022-05-03T09:22:33.000Z</time>
      </trkpt>
      <trkpt lat="40.7884907908737659454345703125" lon="-1.4144439809024333953857421875">
        <ele>1005</ele>
        <time>2022-05-03T09:22:35.000Z</time>
      </trkpt>
      <trkpt lat="40.78846908174455165863037109375" lon="-1.41450961120426654815673828125">
        <ele>1004.79998779296875</ele>
        <time>2022-05-03T09:22:36.000Z</time>
      </trkpt>
      <trkpt lat="40.78844678588211536407470703125" lon="-1.414575912058353424072265625">
        <ele>1004.79998779296875</ele>
        <time>2022-05-03T09:22:37.000Z</time>
      </trkpt>
      <trkpt lat="40.78840236179530620574951171875" lon="-1.41471111215651035308837890625">
        <ele>1004.79998779296875</ele>
        <time>2022-05-03T09:22:39.000Z</time>
      </trkpt>
      <trkpt lat="40.78835592605173587799072265625" lon="-1.414848156273365020751953125">
        <ele>1004.5999755859375</ele>
        <time>2022-05-03T09:22:41.000Z</time>
      </trkpt>
      <trkpt lat="40.7883130945265293121337890625" lon="-1.414984948933124542236328125">
        <ele>1004.4000244140625</ele>
        <time>2022-05-03T09:22:43.000Z</time>
      </trkpt>
      <trkpt lat="40.78829146921634674072265625" lon="-1.41505242325365543365478515625">
        <ele>1004.4000244140625</ele>
        <time>2022-05-03T09:22:44.000Z</time>
      </trkpt>
      <trkpt lat="40.78826959244906902313232421875" lon="-1.4151187241077423095703125">
        <ele>1004.4000244140625</ele>
        <time>2022-05-03T09:22:45.000Z</time>
      </trkpt>
      <trkpt lat="40.78822583891451358795166015625" lon="-1.41525057144463062286376953125">
        <ele>1004.20001220703125</ele>
        <time>2022-05-03T09:22:47.000Z</time>
      </trkpt>
      <trkpt lat="40.78820320777595043182373046875" lon="-1.4153153635561466217041015625">
        <ele>1004.20001220703125</ele>
        <time>2022-05-03T09:22:48.000Z</time>
      </trkpt>
      <trkpt lat="40.78818191774189472198486328125" lon="-1.4153794012963771820068359375">
        <ele>1004.20001220703125</ele>
        <time>2022-05-03T09:22:49.000Z</time>
      </trkpt>
      <trkpt lat="40.78813933767378330230712890625" lon="-1.415508650243282318115234375">
        <ele>1004</ele>
        <time>2022-05-03T09:22:51.000Z</time>
      </trkpt>
      <trkpt lat="40.7880981825292110443115234375" lon="-1.41564150340855121612548828125">
        <ele>1004</ele>
        <time>2022-05-03T09:22:53.000Z</time>
      </trkpt>
      <trkpt lat="40.78805400989949703216552734375" lon="-1.41577921807765960693359375">
        <ele>1003.79998779296875</ele>
        <time>2022-05-03T09:22:55.000Z</time>
      </trkpt>
      <trkpt lat="40.78800790943205356597900390625" lon="-1.41591726802289485931396484375">
        <ele>1003.79998779296875</ele>
        <time>2022-05-03T09:22:57.000Z</time>
      </trkpt>
      <trkpt lat="40.78796331770718097686767578125" lon="-1.4160536415874958038330078125">
        <ele>1003.79998779296875</ele>
        <time>2022-05-03T09:22:59.000Z</time>
      </trkpt>
      <trkpt lat="40.78792006708681583404541015625" lon="-1.4161867462098598480224609375">
        <ele>1003.5999755859375</ele>
        <time>2022-05-03T09:23:01.000Z</time>
      </trkpt>
      <trkpt lat="40.78787933103740215301513671875" lon="-1.41631758771836757659912109375">
        <ele>1003.5999755859375</ele>
        <time>2022-05-03T09:23:03.000Z</time>
      </trkpt>
      <trkpt lat="40.7878393493592739105224609375" lon="-1.4164489321410655975341796875">
        <ele>1003.5999755859375</ele>
        <time>2022-05-03T09:23:05.000Z</time>
      </trkpt>
      <trkpt lat="40.78779769130051136016845703125" lon="-1.416575498878955841064453125">
        <ele>1003.4000244140625</ele>
        <time>2022-05-03T09:23:07.000Z</time>
      </trkpt>
      <trkpt lat="40.78775594942271709442138671875" lon="-1.41669812612235546112060546875">
        <ele>1003.20001220703125</ele>
        <time>2022-05-03T09:23:09.000Z</time>
      </trkpt>
      <trkpt lat="40.78771345317363739013671875" lon="-1.41682125627994537353515625">
        <ele>1003</ele>
        <time>2022-05-03T09:23:11.000Z</time>
      </trkpt>
      <trkpt lat="40.78767397440969944000244140625" lon="-1.4169479906558990478515625">
        <ele>1002.79998779296875</ele>
        <time>2022-05-03T09:23:13.000Z</time>
      </trkpt>
      <trkpt lat="40.787634663283824920654296875" lon="-1.417075060307979583740234375">
        <ele>1002.79998779296875</ele>
        <time>2022-05-03T09:23:15.000Z</time>
      </trkpt>
      <trkpt lat="40.7875976152718067169189453125" lon="-1.4171942509710788726806640625">
        <ele>1002.5999755859375</ele>
        <time>2022-05-03T09:23:17.000Z</time>
      </trkpt>
      <trkpt lat="40.78755930997431278228759765625" lon="-1.41730698756873607635498046875">
        <ele>1002.5999755859375</ele>
        <time>2022-05-03T09:23:19.000Z</time>
      </trkpt>
      <trkpt lat="40.78752259723842144012451171875" lon="-1.41742098145186901092529296875">
        <ele>1002.5999755859375</ele>
        <time>2022-05-03T09:23:21.000Z</time>
      </trkpt>
      <trkpt lat="40.78748571686446666717529296875" lon="-1.41753665171563625335693359375">
        <ele>1002.5999755859375</ele>
        <time>2022-05-03T09:23:23.000Z</time>
      </trkpt>
      <trkpt lat="40.78745118342339992523193359375" lon="-1.417654417455196380615234375">
        <ele>1002.79998779296875</ele>
        <time>2022-05-03T09:23:25.000Z</time>
      </trkpt>
      <trkpt lat="40.787410028278827667236328125" lon="-1.41776983626186847686767578125">
        <ele>1002.79998779296875</ele>
        <time>2022-05-03T09:23:27.000Z</time>
      </trkpt>
      <trkpt lat="40.78736870549619197845458984375" lon="-1.4178832434117794036865234375">
        <ele>1002.79998779296875</ele>
        <time>2022-05-03T09:23:29.000Z</time>
      </trkpt>
      <trkpt lat="40.78732788562774658203125" lon="-1.41799732111394405364990234375">
        <ele>1002.79998779296875</ele>
        <time>2022-05-03T09:23:31.000Z</time>
      </trkpt>
      <trkpt lat="40.78729243017733097076416015625" lon="-1.418114416301250457763671875">
        <ele>1002.79998779296875</ele>
        <time>2022-05-03T09:23:33.000Z</time>
      </trkpt>
      <trkpt lat="40.78725772909820079803466796875" lon="-1.41822916455566883087158203125">
        <ele>1002.79998779296875</ele>
        <time>2022-05-03T09:23:35.000Z</time>
      </trkpt>
      <trkpt lat="40.78721816651523113250732421875" lon="-1.41834349371492862701416015625">
        <ele>1003</ele>
        <time>2022-05-03T09:23:37.000Z</time>
      </trkpt>
      <trkpt lat="40.787179358303546905517578125" lon="-1.418457068502902984619140625">
        <ele>1003</ele>
        <time>2022-05-03T09:23:39.000Z</time>
      </trkpt>
      <trkpt lat="40.78714214265346527099609375" lon="-1.4185708947479724884033203125">
        <ele>1003</ele>
        <time>2022-05-03T09:23:41.000Z</time>
      </trkpt>
      <trkpt lat="40.78712328337132930755615234375" lon="-1.4186282269656658172607421875">
        <ele>1003.20001220703125</ele>
        <time>2022-05-03T09:23:42.000Z</time>
      </trkpt>
      <trkpt lat="40.7871050946414470672607421875" lon="-1.41868430189788341522216796875">
        <ele>1003.20001220703125</ele>
        <time>2022-05-03T09:23:43.000Z</time>
      </trkpt>
      <trkpt lat="40.787068717181682586669921875" lon="-1.418800055980682373046875">
        <ele>1003.20001220703125</ele>
        <time>2022-05-03T09:23:45.000Z</time>
      </trkpt>
      <trkpt lat="40.78703175298869609832763671875" lon="-1.41891698352992534637451171875">
        <ele>1003.20001220703125</ele>
        <time>2022-05-03T09:23:47.000Z</time>
      </trkpt>
      <trkpt lat="40.78699386678636074066162109375" lon="-1.41903433017432689666748046875">
        <ele>1003.20001220703125</ele>
        <time>2022-05-03T09:23:49.000Z</time>
      </trkpt>
      <trkpt lat="40.78695396892726421356201171875" lon="-1.41915352083742618560791015625">
        <ele>1003.20001220703125</ele>
        <time>2022-05-03T09:23:51.000Z</time>
      </trkpt>
      <trkpt lat="40.78691474162042140960693359375" lon="-1.4192706160247325897216796875">
        <ele>1003</ele>
        <time>2022-05-03T09:23:53.000Z</time>
      </trkpt>
      <trkpt lat="40.78687652014195919036865234375" lon="-1.41938410699367523193359375">
        <ele>1002.79998779296875</ele>
        <time>2022-05-03T09:23:55.000Z</time>
      </trkpt>
      <trkpt lat="40.78683880157768726348876953125" lon="-1.4194996096193790435791015625">
        <ele>1002.5999755859375</ele>
        <time>2022-05-03T09:23:57.000Z</time>
      </trkpt>
      <trkpt lat="40.78680242411792278289794921875" lon="-1.41961620189249515533447265625">
        <ele>1002.4000244140625</ele>
        <time>2022-05-03T09:23:59.000Z</time>
      </trkpt>
      <trkpt lat="40.78676403500139713287353515625" lon="-1.41973547637462615966796875">
        <ele>1002.20001220703125</ele>
        <time>2022-05-03T09:24:01.000Z</time>
      </trkpt>
      <trkpt lat="40.7867248915135860443115234375" lon="-1.4198566786944866180419921875">
        <ele>1002.20001220703125</ele>
        <time>2022-05-03T09:24:03.000Z</time>
      </trkpt>
      <trkpt lat="40.7867054454982280731201171875" lon="-1.41991895623505115509033203125">
        <ele>1002.20001220703125</ele>
        <time>2022-05-03T09:24:04.000Z</time>
      </trkpt>
      <trkpt lat="40.7866856642067432403564453125" lon="-1.4199803955852985382080078125">
        <ele>1002</ele>
        <time>2022-05-03T09:24:05.000Z</time>
      </trkpt>
      <trkpt lat="40.7866452634334564208984375" lon="-1.42010428011417388916015625">
        <ele>1002</ele>
        <time>2022-05-03T09:24:07.000Z</time>
      </trkpt>
      <trkpt lat="40.78660310246050357818603515625" lon="-1.4202288351953029632568359375">
        <ele>1002</ele>
        <time>2022-05-03T09:24:09.000Z</time>
      </trkpt>
      <trkpt lat="40.78656270168721675872802734375" lon="-1.42035531811416149139404296875">
        <ele>1002</ele>
        <time>2022-05-03T09:24:11.000Z</time>
      </trkpt>
      <trkpt lat="40.786521546542644500732421875" lon="-1.42048004083335399627685546875">
        <ele>1001.79998779296875</ele>
        <time>2022-05-03T09:24:13.000Z</time>
      </trkpt>
      <trkpt lat="40.7864816486835479736328125" lon="-1.42060585319995880126953125">
        <ele>1002</ele>
        <time>2022-05-03T09:24:15.000Z</time>
      </trkpt>
      <trkpt lat="40.78643881715834140777587890625" lon="-1.42072361893951892852783203125">
        <ele>1002</ele>
        <time>2022-05-03T09:24:17.000Z</time>
      </trkpt>
      <trkpt lat="40.78640176914632320404052734375" lon="-1.4208326674997806549072265625">
        <ele>1002.20001220703125</ele>
        <time>2022-05-03T09:24:19.000Z</time>
      </trkpt>
      <trkpt lat="40.78636832535266876220703125" lon="-1.4209409616887569427490234375">
        <ele>1002.4000244140625</ele>
        <time>2022-05-03T09:24:21.000Z</time>
      </trkpt>
      <trkpt lat="40.78635030426084995269775390625" lon="-1.420996449887752532958984375">
        <ele>1002.4000244140625</ele>
        <time>2022-05-03T09:24:22.000Z</time>
      </trkpt>
      <trkpt lat="40.7863316126167774200439453125" lon="-1.42105286009609699249267578125">
        <ele>1002.4000244140625</ele>
        <time>2022-05-03T09:24:23.000Z</time>
      </trkpt>
      <trkpt lat="40.78629230149090290069580078125" lon="-1.4211689494550228118896484375">
        <ele>1002.5999755859375</ele>
        <time>2022-05-03T09:24:25.000Z</time>
      </trkpt>
      <trkpt lat="40.78625240363180637359619140625" lon="-1.42128604464232921600341796875">
        <ele>1002.5999755859375</ele>
        <time>2022-05-03T09:24:27.000Z</time>
      </trkpt>
      <trkpt lat="40.78623295761644840240478515625" lon="-1.4213453046977519989013671875">
        <ele>1002.5999755859375</ele>
        <time>2022-05-03T09:24:28.000Z</time>
      </trkpt>
      <trkpt lat="40.7862132601439952850341796875" lon="-1.4214056544005870819091796875">
        <ele>1002.79998779296875</ele>
        <time>2022-05-03T09:24:29.000Z</time>
      </trkpt>
      <trkpt lat="40.78617344610393047332763671875" lon="-1.4215263538062572479248046875">
        <ele>1002.79998779296875</ele>
        <time>2022-05-03T09:24:31.000Z</time>
      </trkpt>
      <trkpt lat="40.78613354824483394622802734375" lon="-1.4216473884880542755126953125">
        <ele>1002.79998779296875</ele>
        <time>2022-05-03T09:24:33.000Z</time>
      </trkpt>
      <trkpt lat="40.786093734204769134521484375" lon="-1.42177018336951732635498046875">
        <ele>1002.5999755859375</ele>
        <time>2022-05-03T09:24:35.000Z</time>
      </trkpt>
      <trkpt lat="40.786052159965038299560546875" lon="-1.4218939840793609619140625">
        <ele>1002.4000244140625</ele>
        <time>2022-05-03T09:24:37.000Z</time>
      </trkpt>
      <trkpt lat="40.78601050190627574920654296875" lon="-1.422017030417919158935546875">
        <ele>1002</ele>
        <time>2022-05-03T09:24:39.000Z</time>
      </trkpt>
      <trkpt lat="40.785971693694591522216796875" lon="-1.4221362210810184478759765625">
        <ele>1001.5999755859375</ele>
        <time>2022-05-03T09:24:41.000Z</time>
      </trkpt>
      <trkpt lat="40.78593707643449306488037109375" lon="-1.42224929295480251312255859375">
        <ele>1001.4000244140625</ele>
        <time>2022-05-03T09:24:43.000Z</time>
      </trkpt>
      <trkpt lat="40.7859001122415065765380859375" lon="-1.42235926352441310882568359375">
        <ele>1001.20001220703125</ele>
        <time>2022-05-03T09:24:45.000Z</time>
      </trkpt>
      <trkpt lat="40.78586264513432979583740234375" lon="-1.422470323741436004638671875">
        <ele>1001.4000244140625</ele>
        <time>2022-05-03T09:24:47.000Z</time>
      </trkpt>
      <trkpt lat="40.785829536616802215576171875" lon="-1.4225834794342517852783203125">
        <ele>1001.5999755859375</ele>
        <time>2022-05-03T09:24:49.000Z</time>
      </trkpt>
      <trkpt lat="40.7857901416718959808349609375" lon="-1.422694288194179534912109375">
        <ele>1001.79998779296875</ele>
        <time>2022-05-03T09:24:51.000Z</time>
      </trkpt>
      <trkpt lat="40.7857535965740680694580078125" lon="-1.42280903644859790802001953125">
        <ele>1002</ele>
        <time>2022-05-03T09:24:53.000Z</time>
      </trkpt>
      <trkpt lat="40.78571596182882785797119140625" lon="-1.42292168922722339630126953125">
        <ele>1002.4000244140625</ele>
        <time>2022-05-03T09:24:55.000Z</time>
      </trkpt>
      <trkpt lat="40.785678662359714508056640625" lon="-1.42303434200584888458251953125">
        <ele>1002.5999755859375</ele>
        <time>2022-05-03T09:24:57.000Z</time>
      </trkpt>
      <trkpt lat="40.78563968650996685028076171875" lon="-1.4231487549841403961181640625">
        <ele>1002.5999755859375</ele>
        <time>2022-05-03T09:24:59.000Z</time>
      </trkpt>
      <trkpt lat="40.78562057577073574066162109375" lon="-1.42320617102086544036865234375">
        <ele>1002.79998779296875</ele>
        <time>2022-05-03T09:25:00.000Z</time>
      </trkpt>
      <trkpt lat="40.78560180030763149261474609375" lon="-1.42326300032436847686767578125">
        <ele>1003</ele>
        <time>2022-05-03T09:25:01.000Z</time>
      </trkpt>
      <trkpt lat="40.78556408174335956573486328125" lon="-1.42337615601718425750732421875">
        <ele>1003.4000244140625</ele>
        <time>2022-05-03T09:25:03.000Z</time>
      </trkpt>
      <trkpt lat="40.7855267822742462158203125" lon="-1.42348696477711200714111328125">
        <ele>1003.79998779296875</ele>
        <time>2022-05-03T09:25:05.000Z</time>
      </trkpt>
      <trkpt lat="40.78549484722316265106201171875" lon="-1.42359115183353424072265625">
        <ele>1004</ele>
        <time>2022-05-03T09:25:07.000Z</time>
      </trkpt>
      <trkpt lat="40.7854625768959522247314453125" lon="-1.4236925728619098663330078125">
        <ele>1004.20001220703125</ele>
        <time>2022-05-03T09:25:09.000Z</time>
      </trkpt>
      <trkpt lat="40.78542795963585376739501953125" lon="-1.42379374243319034576416015625">
        <ele>1004.4000244140625</ele>
        <time>2022-05-03T09:25:11.000Z</time>
      </trkpt>
      <trkpt lat="40.7853958569467067718505859375" lon="-1.42389365471899509429931640625">
        <ele>1004.5999755859375</ele>
        <time>2022-05-03T09:25:13.000Z</time>
      </trkpt>
      <trkpt lat="40.7853690348565578460693359375" lon="-1.423977725207805633544921875">
        <ele>1004.79998779296875</ele>
        <time>2022-05-03T09:25:15.000Z</time>
      </trkpt>
      <trkpt lat="40.7853539474308490753173828125" lon="-1.42401971854269504547119140625">
        <ele>1004.79998779296875</ele>
        <time>2022-05-03T09:25:16.000Z</time>
      </trkpt>
      <trkpt lat="40.78533894382417201995849609375" lon="-1.424062550067901611328125">
        <ele>1004.79998779296875</ele>
        <time>2022-05-03T09:25:17.000Z</time>
      </trkpt>
      <trkpt lat="40.78530726023018360137939453125" lon="-1.42415299080312252044677734375">
        <ele>1004.79998779296875</ele>
        <time>2022-05-03T09:25:19.000Z</time>
      </trkpt>
      <trkpt lat="40.7852761633694171905517578125" lon="-1.4242477901279926300048828125">
        <ele>1004.5999755859375</ele>
        <time>2022-05-03T09:25:21.000Z</time>
      </trkpt>
      <trkpt lat="40.7852453179657459259033203125" lon="-1.42434577457606792449951171875">
        <ele>1004.79998779296875</ele>
        <time>2022-05-03T09:25:23.000Z</time>
      </trkpt>
      <trkpt lat="40.78521992079913616180419921875" lon="-1.42442808486521244049072265625">
        <ele>1004.79998779296875</ele>
        <time>2022-05-03T09:25:25.000Z</time>
      </trkpt>
      <trkpt lat="40.7851973734796047210693359375" lon="-1.42450033687055110931396484375">
        <ele>1004.79998779296875</ele>
        <time>2022-05-03T09:25:27.000Z</time>
      </trkpt>
      <trkpt lat="40.78516309149563312530517578125" lon="-1.42459672875702381134033203125">
        <ele>1004.79998779296875</ele>
        <time>2022-05-03T09:25:29.000Z</time>
      </trkpt>
      <trkpt lat="40.78514616005122661590576171875" lon="-1.42464819364249706268310546875">
        <ele>1004.79998779296875</ele>
        <time>2022-05-03T09:25:30.000Z</time>
      </trkpt>
      <trkpt lat="40.7851293124258518218994140625" lon="-1.42470016144216060638427734375">
        <ele>1004.79998779296875</ele>
        <time>2022-05-03T09:25:31.000Z</time>
      </trkpt>
      <trkpt lat="40.78509586863219738006591796875" lon="-1.42480459995567798614501953125">
        <ele>1004.79998779296875</ele>
        <time>2022-05-03T09:25:33.000Z</time>
      </trkpt>
      <trkpt lat="40.7850625924766063690185546875" lon="-1.42491239123046398162841796875">
        <ele>1005</ele>
        <time>2022-05-03T09:25:35.000Z</time>
      </trkpt>
      <trkpt lat="40.78503199853003025054931640625" lon="-1.4250214397907257080078125">
        <ele>1005</ele>
        <time>2022-05-03T09:25:37.000Z</time>
      </trkpt>
      <trkpt lat="40.7850037515163421630859375" lon="-1.4251206815242767333984375">
        <ele>1005</ele>
        <time>2022-05-03T09:25:39.000Z</time>
      </trkpt>
      <trkpt lat="40.78498941846191883087158203125" lon="-1.4251649379730224609375">
        <ele>1005</ele>
        <time>2022-05-03T09:25:40.000Z</time>
      </trkpt>
      <trkpt lat="40.7849720679223537445068359375" lon="-1.42520860768854618072509765625">
        <ele>1005</ele>
        <time>2022-05-03T09:25:41.000Z</time>
      </trkpt>
      <trkpt lat="40.7849318347871303558349609375" lon="-1.4253030717372894287109375">
        <ele>1005.20001220703125</ele>
        <time>2022-05-03T09:25:43.000Z</time>
      </trkpt>
      <trkpt lat="40.78489704988896846771240234375" lon="-1.42541103065013885498046875">
        <ele>1005.20001220703125</ele>
        <time>2022-05-03T09:25:45.000Z</time>
      </trkpt>
      <trkpt lat="40.7848615944385528564453125" lon="-1.42552368342876434326171875">
        <ele>1005.20001220703125</ele>
        <time>2022-05-03T09:25:47.000Z</time>
      </trkpt>
      <trkpt lat="40.78482563607394695281982421875" lon="-1.4256354980170726776123046875">
        <ele>1005</ele>
        <time>2022-05-03T09:25:49.000Z</time>
      </trkpt>
      <trkpt lat="40.784790851175785064697265625" lon="-1.4257444627583026885986328125">
        <ele>1004.79998779296875</ele>
        <time>2022-05-03T09:25:51.000Z</time>
      </trkpt>
      <trkpt lat="40.78475757502019405364990234375" lon="-1.4258517511188983917236328125">
        <ele>1004.79998779296875</ele>
        <time>2022-05-03T09:25:53.000Z</time>
      </trkpt>
      <trkpt lat="40.78472320921719074249267578125" lon="-1.42595820128917694091796875">
        <ele>1004.5999755859375</ele>
        <time>2022-05-03T09:25:55.000Z</time>
      </trkpt>
      <trkpt lat="40.78468984924256801605224609375" lon="-1.42606590874493122100830078125">
        <ele>1004.4000244140625</ele>
        <time>2022-05-03T09:25:57.000Z</time>
      </trkpt>
      <trkpt lat="40.7846550643444061279296875" lon="-1.42617487348616123199462890625">
        <ele>1004.20001220703125</ele>
        <time>2022-05-03T09:25:59.000Z</time>
      </trkpt>
      <trkpt lat="40.78461843542754650115966796875" lon="-1.42628601752221584320068359375">
        <ele>1004</ele>
        <time>2022-05-03T09:26:01.000Z</time>
      </trkpt>
      <trkpt lat="40.7845811359584331512451171875" lon="-1.4263985864818096160888671875">
        <ele>1003.79998779296875</ele>
        <time>2022-05-03T09:26:03.000Z</time>
      </trkpt>
      <trkpt lat="40.78456294722855091094970703125" lon="-1.426455080509185791015625">
        <ele>1003.5999755859375</ele>
        <time>2022-05-03T09:26:04.000Z</time>
      </trkpt>
      <trkpt lat="40.7845450937747955322265625" lon="-1.42651140689849853515625">
        <ele>1003.5999755859375</ele>
        <time>2022-05-03T09:26:05.000Z</time>
      </trkpt>
      <trkpt lat="40.78450812958180904388427734375" lon="-1.42662548460066318511962890625">
        <ele>1003.5999755859375</ele>
        <time>2022-05-03T09:26:07.000Z</time>
      </trkpt>
      <trkpt lat="40.784469656646251678466796875" lon="-1.42674031667411327362060546875">
        <ele>1003.4000244140625</ele>
        <time>2022-05-03T09:26:09.000Z</time>
      </trkpt>
      <trkpt lat="40.78443168662488460540771484375" lon="-1.42685632221400737762451171875">
        <ele>1003.4000244140625</ele>
        <time>2022-05-03T09:26:11.000Z</time>
      </trkpt>
      <trkpt lat="40.78439095057547092437744140625" lon="-1.4269739203155040740966796875">
        <ele>1003.20001220703125</ele>
        <time>2022-05-03T09:26:13.000Z</time>
      </trkpt>
      <trkpt lat="40.784351639449596405029296875" lon="-1.4270921051502227783203125">
        <ele>1003.20001220703125</ele>
        <time>2022-05-03T09:26:15.000Z</time>
      </trkpt>
      <trkpt lat="40.7843129150569438934326171875" lon="-1.42720802687108516693115234375">
        <ele>1003</ele>
        <time>2022-05-03T09:26:17.000Z</time>
      </trkpt>
      <trkpt lat="40.7842767052352428436279296875" lon="-1.42731917090713977813720703125">
        <ele>1003</ele>
        <time>2022-05-03T09:26:19.000Z</time>
      </trkpt>
      <trkpt lat="40.78424460254609584808349609375" lon="-1.42742495052516460418701171875">
        <ele>1003</ele>
        <time>2022-05-03T09:26:21.000Z</time>
      </trkpt>
      <trkpt lat="40.784215517342090606689453125" lon="-1.427510865032672882080078125">
        <ele>1003</ele>
        <time>2022-05-03T09:26:23.000Z</time>
      </trkpt>
      <trkpt lat="40.78417570330202579498291015625" lon="-1.42757347784936428070068359375">
        <ele>1003</ele>
        <time>2022-05-03T09:26:25.000Z</time>
      </trkpt>
      <trkpt lat="40.78413379378616809844970703125" lon="-1.42764522694051265716552734375">
        <ele>1003</ele>
        <time>2022-05-03T09:26:27.000Z</time>
      </trkpt>
      <trkpt lat="40.7841033674776554107666015625" lon="-1.42773558385670185089111328125">
        <ele>1003</ele>
        <time>2022-05-03T09:26:29.000Z</time>
      </trkpt>
      <trkpt lat="40.78407377935945987701416015625" lon="-1.4278342388570308685302734375">
        <ele>1003</ele>
        <time>2022-05-03T09:26:31.000Z</time>
      </trkpt>
      <trkpt lat="40.78404192812740802764892578125" lon="-1.4279396831989288330078125">
        <ele>1003.20001220703125</ele>
        <time>2022-05-03T09:26:33.000Z</time>
      </trkpt>
      <trkpt lat="40.7840074785053730010986328125" lon="-1.4280468039214611053466796875">
        <ele>1003.20001220703125</ele>
        <time>2022-05-03T09:26:35.000Z</time>
      </trkpt>
      <trkpt lat="40.78397269360721111297607421875" lon="-1.42815182916820049285888671875">
        <ele>1003.20001220703125</ele>
        <time>2022-05-03T09:26:37.000Z</time>
      </trkpt>
      <trkpt lat="40.7839384116232395172119140625" lon="-1.42825727351009845733642578125">
        <ele>1003</ele>
        <time>2022-05-03T09:26:39.000Z</time>
      </trkpt>
      <trkpt lat="40.783903039991855621337890625" lon="-1.42836540006101131439208984375">
        <ele>1003</ele>
        <time>2022-05-03T09:26:41.000Z</time>
      </trkpt>
      <trkpt lat="40.78386590816080570220947265625" lon="-1.4284783042967319488525390625">
        <ele>1003</ele>
        <time>2022-05-03T09:26:43.000Z</time>
      </trkpt>
      <trkpt lat="40.7838291116058826446533203125" lon="-1.428587436676025390625">
        <ele>1003</ele>
        <time>2022-05-03T09:26:45.000Z</time>
      </trkpt>
      <trkpt lat="40.78379147686064243316650390625" lon="-1.428694389760494232177734375">
        <ele>1003</ele>
        <time>2022-05-03T09:26:47.000Z</time>
      </trkpt>
      <trkpt lat="40.78375644050538539886474609375" lon="-1.42880042083561420440673828125">
        <ele>1003</ele>
        <time>2022-05-03T09:26:49.000Z</time>
      </trkpt>
      <trkpt lat="40.78372023068368434906005859375" lon="-1.428905613720417022705078125">
        <ele>1003</ele>
        <time>2022-05-03T09:26:51.000Z</time>
      </trkpt>
      <trkpt lat="40.7836866192519664764404296875" lon="-1.42900996841490268707275390625">
        <ele>1003</ele>
        <time>2022-05-03T09:26:53.000Z</time>
      </trkpt>
      <trkpt lat="40.78365284018218517303466796875" lon="-1.42911356873810291290283203125">
        <ele>1003.20001220703125</ele>
        <time>2022-05-03T09:26:55.000Z</time>
      </trkpt>
      <trkpt lat="40.78363641165196895599365234375" lon="-1.42916587181389331817626953125">
        <ele>1003.20001220703125</ele>
        <time>2022-05-03T09:26:56.000Z</time>
      </trkpt>
      <trkpt lat="40.7836202345788478851318359375" lon="-1.42921867780387401580810546875">
        <ele>1003.20001220703125</ele>
        <time>2022-05-03T09:26:57.000Z</time>
      </trkpt>
      <trkpt lat="40.78359383158385753631591796875" lon="-1.4293232001364231109619140625">
        <ele>1003.4000244140625</ele>
        <time>2022-05-03T09:26:59.000Z</time>
      </trkpt>
      <trkpt lat="40.78358645550906658172607421875" lon="-1.42937642522156238555908203125">
        <ele>1003.4000244140625</ele>
        <time>2022-05-03T09:27:00.000Z</time>
      </trkpt>
      <trkpt lat="40.78358352184295654296875" lon="-1.42943107523024082183837890625">
        <ele>1003.5999755859375</ele>
        <time>2022-05-03T09:27:01.000Z</time>
      </trkpt>
      <trkpt lat="40.78357991762459278106689453125" lon="-1.429531574249267578125">
        <ele>1003.5999755859375</ele>
        <time>2022-05-03T09:27:03.000Z</time>
      </trkpt>
      <trkpt lat="40.7835687696933746337890625" lon="-1.429628469049930572509765625">
        <ele>1003.79998779296875</ele>
        <time>2022-05-03T09:27:05.000Z</time>
      </trkpt>
      <trkpt lat="40.7835605554282665252685546875" lon="-1.4296789281070232391357421875">
        <ele>1003.79998779296875</ele>
        <time>2022-05-03T09:27:06.000Z</time>
      </trkpt>
      <trkpt lat="40.78355192206799983978271484375" lon="-1.42973198555409908294677734375">
        <ele>1003.79998779296875</ele>
        <time>2022-05-03T09:27:07.000Z</time>
      </trkpt>
      <trkpt lat="40.7835337333381175994873046875" lon="-1.42983734607696533203125">
        <ele>1004</ele>
        <time>2022-05-03T09:27:09.000Z</time>
      </trkpt>
      <trkpt lat="40.78352727927267551422119140625" lon="-1.429889984428882598876953125">
        <ele>1004.20001220703125</ele>
        <time>2022-05-03T09:27:10.000Z</time>
      </trkpt>
      <trkpt lat="40.7835209928452968597412109375" lon="-1.4299434609711170196533203125">
        <ele>1004.20001220703125</ele>
        <time>2022-05-03T09:27:11.000Z</time>
      </trkpt>
      <trkpt lat="40.78350640833377838134765625" lon="-1.4300505816936492919921875">
        <ele>1004.5999755859375</ele>
        <time>2022-05-03T09:27:13.000Z</time>
      </trkpt>
      <trkpt lat="40.78348897397518157958984375" lon="-1.430162899196147918701171875">
        <ele>1004.79998779296875</ele>
        <time>2022-05-03T09:27:15.000Z</time>
      </trkpt>
      <trkpt lat="40.78347246162593364715576171875" lon="-1.43027697689831256866455078125">
        <ele>1005</ele>
        <time>2022-05-03T09:27:17.000Z</time>
      </trkpt>
      <trkpt lat="40.7834559492766857147216796875" lon="-1.43039080314338207244873046875">
        <ele>1005</ele>
        <time>2022-05-03T09:27:19.000Z</time>
      </trkpt>
      <trkpt lat="40.78344027511775493621826171875" lon="-1.43050312064588069915771484375">
        <ele>1005</ele>
        <time>2022-05-03T09:27:21.000Z</time>
      </trkpt>
      <trkpt lat="40.78342485241591930389404296875" lon="-1.4306151866912841796875">
        <ele>1005</ele>
        <time>2022-05-03T09:27:23.000Z</time>
      </trkpt>
      <trkpt lat="40.7834096811711788177490234375" lon="-1.43072641454637050628662109375">
        <ele>1005</ele>
        <time>2022-05-03T09:27:25.000Z</time>
      </trkpt>
      <trkpt lat="40.78339233063161373138427734375" lon="-1.4308389835059642791748046875">
        <ele>1005</ele>
        <time>2022-05-03T09:27:27.000Z</time>
      </trkpt>
      <trkpt lat="40.783376656472682952880859375" lon="-1.43095138482749462127685546875">
        <ele>1004.79998779296875</ele>
        <time>2022-05-03T09:27:29.000Z</time>
      </trkpt>
      <trkpt lat="40.783360563218593597412109375" lon="-1.43106034956872463226318359375">
        <ele>1004.79998779296875</ele>
        <time>2022-05-03T09:27:31.000Z</time>
      </trkpt>
      <trkpt lat="40.7833516784012317657470703125" lon="-1.43111583776772022247314453125">
        <ele>1004.79998779296875</ele>
        <time>2022-05-03T09:27:32.000Z</time>
      </trkpt>
      <trkpt lat="40.78334220685064792633056640625" lon="-1.43117149360477924346923828125">
        <ele>1004.5999755859375</ele>
        <time>2022-05-03T09:27:33.000Z</time>
      </trkpt>
      <trkpt lat="40.7833235152065753936767578125" lon="-1.43127978779375553131103515625">
        <ele>1004.79998779296875</ele>
        <time>2022-05-03T09:27:35.000Z</time>
      </trkpt>
      <trkpt lat="40.78330750577151775360107421875" lon="-1.431389339268207550048828125">
        <ele>1004.79998779296875</ele>
        <time>2022-05-03T09:27:37.000Z</time>
      </trkpt>
      <trkpt lat="40.7832993753254413604736328125" lon="-1.43144457601010799407958984375">
        <ele>1005</ele>
        <time>2022-05-03T09:27:38.000Z</time>
      </trkpt>
      <trkpt lat="40.7832898199558258056640625" lon="-1.43149972893297672271728515625">
        <ele>1005</ele>
        <time>2022-05-03T09:27:39.000Z</time>
      </trkpt>
      <trkpt lat="40.78327280469238758087158203125" lon="-1.43161003477871417999267578125">
        <ele>1005.20001220703125</ele>
        <time>2022-05-03T09:27:41.000Z</time>
      </trkpt>
      <trkpt lat="40.78325620852410793304443359375" lon="-1.43171849660575389862060546875">
        <ele>1005.20001220703125</ele>
        <time>2022-05-03T09:27:43.000Z</time>
      </trkpt>
      <trkpt lat="40.7832393608987331390380859375" lon="-1.431827545166015625">
        <ele>1005.4000244140625</ele>
        <time>2022-05-03T09:27:45.000Z</time>
      </trkpt>
      <trkpt lat="40.78322251327335834503173828125" lon="-1.43194044940173625946044921875">
        <ele>1005.5999755859375</ele>
        <time>2022-05-03T09:27:47.000Z</time>
      </trkpt>
      <trkpt lat="40.7832054980099201202392578125" lon="-1.4320526830852031707763671875">
        <ele>1005.5999755859375</ele>
        <time>2022-05-03T09:27:49.000Z</time>
      </trkpt>
      <trkpt lat="40.783186219632625579833984375" lon="-1.43216374330222606658935546875">
        <ele>1005.79998779296875</ele>
        <time>2022-05-03T09:27:51.000Z</time>
      </trkpt>
      <trkpt lat="40.7831629179418087005615234375" lon="-1.43227505497634410858154296875">
        <ele>1006</ele>
        <time>2022-05-03T09:27:53.000Z</time>
      </trkpt>
      <trkpt lat="40.783143304288387298583984375" lon="-1.4323909766972064971923828125">
        <ele>1006.20001220703125</ele>
        <time>2022-05-03T09:27:55.000Z</time>
      </trkpt>
      <trkpt lat="40.783125869929790496826171875" lon="-1.432505138218402862548828125">
        <ele>1006.4000244140625</ele>
        <time>2022-05-03T09:27:57.000Z</time>
      </trkpt>
      <trkpt lat="40.78310751356184482574462890625" lon="-1.43261804245412349700927734375">
        <ele>1006.4000244140625</ele>
        <time>2022-05-03T09:27:59.000Z</time>
      </trkpt>
      <trkpt lat="40.7830988802015781402587890625" lon="-1.4326751232147216796875">
        <ele>1006.4000244140625</ele>
        <time>2022-05-03T09:28:00.000Z</time>
      </trkpt>
      <trkpt lat="40.7830908335745334625244140625" lon="-1.432731784880161285400390625">
        <ele>1006.5999755859375</ele>
        <time>2022-05-03T09:28:01.000Z</time>
      </trkpt>
      <trkpt lat="40.78307432122528553009033203125" lon="-1.43284401856362819671630859375">
        <ele>1006.5999755859375</ele>
        <time>2022-05-03T09:28:03.000Z</time>
      </trkpt>
      <trkpt lat="40.78305772505700588226318359375" lon="-1.43295474350452423095703125">
        <ele>1006.79998779296875</ele>
        <time>2022-05-03T09:28:05.000Z</time>
      </trkpt>
      <trkpt lat="40.78303970396518707275390625" lon="-1.43306605517864227294921875">
        <ele>1006.79998779296875</ele>
        <time>2022-05-03T09:28:07.000Z</time>
      </trkpt>
      <trkpt lat="40.7830197550356388092041015625" lon="-1.43318180926144123077392578125">
        <ele>1007</ele>
        <time>2022-05-03T09:28:09.000Z</time>
      </trkpt>
      <trkpt lat="40.7830113731324672698974609375" lon="-1.43324014730751514434814453125">
        <ele>1007</ele>
        <time>2022-05-03T09:28:10.000Z</time>
      </trkpt>
      <trkpt lat="40.7830028235912322998046875" lon="-1.43329815007746219635009765625">
        <ele>1007</ele>
        <time>2022-05-03T09:28:11.000Z</time>
      </trkpt>
      <trkpt lat="40.7829838804900646209716796875" lon="-1.4334145747125148773193359375">
        <ele>1007</ele>
        <time>2022-05-03T09:28:13.000Z</time>
      </trkpt>
      <trkpt lat="40.7829640991985797882080078125" lon="-1.43353150226175785064697265625">
        <ele>1007</ele>
        <time>2022-05-03T09:28:15.000Z</time>
      </trkpt>
      <trkpt lat="40.78294523991644382476806640625" lon="-1.4336469210684299468994140625">
        <ele>1006.79998779296875</ele>
        <time>2022-05-03T09:28:17.000Z</time>
      </trkpt>
      <trkpt lat="40.7829262129962444305419921875" lon="-1.43376074731349945068359375">
        <ele>1006.79998779296875</ele>
        <time>2022-05-03T09:28:19.000Z</time>
      </trkpt>
      <trkpt lat="40.78291741199791431427001953125" lon="-1.43381631933152675628662109375">
        <ele>1006.79998779296875</ele>
        <time>2022-05-03T09:28:20.000Z</time>
      </trkpt>
      <trkpt lat="40.78290852718055248260498046875" lon="-1.43387298099696636199951171875">
        <ele>1006.79998779296875</ele>
        <time>2022-05-03T09:28:21.000Z</time>
      </trkpt>
      <trkpt lat="40.78289226628839969635009765625" lon="-1.4339878968894481658935546875">
        <ele>1006.79998779296875</ele>
        <time>2022-05-03T09:28:23.000Z</time>
      </trkpt>
      <trkpt lat="40.78287600539624691009521484375" lon="-1.43410230986773967742919921875">
        <ele>1007</ele>
        <time>2022-05-03T09:28:25.000Z</time>
      </trkpt>
      <trkpt lat="40.7828568108379840850830078125" lon="-1.43421697430312633514404296875">
        <ele>1007</ele>
        <time>2022-05-03T09:28:27.000Z</time>
      </trkpt>
      <trkpt lat="40.78283719718456268310546875" lon="-1.4343325607478618621826171875">
        <ele>1007.20001220703125</ele>
        <time>2022-05-03T09:28:29.000Z</time>
      </trkpt>
      <trkpt lat="40.782816074788570404052734375" lon="-1.43445066176354885101318359375">
        <ele>1007.20001220703125</ele>
        <time>2022-05-03T09:28:31.000Z</time>
      </trkpt>
      <trkpt lat="40.78280928544700145721435546875" lon="-1.43450799398124217987060546875">
        <ele>1007.4000244140625</ele>
        <time>2022-05-03T09:28:32.000Z</time>
      </trkpt>
      <trkpt lat="40.782802999019622802734375" lon="-1.43456549383699893951416015625">
        <ele>1007.4000244140625</ele>
        <time>2022-05-03T09:28:33.000Z</time>
      </trkpt>
      <trkpt lat="40.78278766013681888580322265625" lon="-1.4346799068152904510498046875">
        <ele>1007.5999755859375</ele>
        <time>2022-05-03T09:28:35.000Z</time>
      </trkpt>
      <trkpt lat="40.7827693037688732147216796875" lon="-1.43479063175618648529052734375">
        <ele>1007.5999755859375</ele>
        <time>2022-05-03T09:28:37.000Z</time>
      </trkpt>
      <trkpt lat="40.78276083804666996002197265625" lon="-1.43484595231711864471435546875">
        <ele>1007.5999755859375</ele>
        <time>2022-05-03T09:28:38.000Z</time>
      </trkpt>
      <trkpt lat="40.78275245614349842071533203125" lon="-1.4349008537828922271728515625">
        <ele>1007.79998779296875</ele>
        <time>2022-05-03T09:28:39.000Z</time>
      </trkpt>
      <trkpt lat="40.7827354408800601959228515625" lon="-1.43500872887670993804931640625">
        <ele>1007.79998779296875</ele>
        <time>2022-05-03T09:28:41.000Z</time>
      </trkpt>
      <trkpt lat="40.7827265560626983642578125" lon="-1.43506187014281749725341796875">
        <ele>1008</ele>
        <time>2022-05-03T09:28:42.000Z</time>
      </trkpt>
      <trkpt lat="40.7827176712453365325927734375" lon="-1.4351157657802104949951171875">
        <ele>1008</ele>
        <time>2022-05-03T09:28:43.000Z</time>
      </trkpt>
      <trkpt lat="40.7827009074389934539794921875" lon="-1.4352217130362987518310546875">
        <ele>1008</ele>
        <time>2022-05-03T09:28:45.000Z</time>
      </trkpt>
      <trkpt lat="40.78268540091812610626220703125" lon="-1.43532824702560901641845703125">
        <ele>1008</ele>
        <time>2022-05-03T09:28:47.000Z</time>
      </trkpt>
      <trkpt lat="40.782667212188243865966796875" lon="-1.4354379661381244659423828125">
        <ele>1008</ele>
        <time>2022-05-03T09:28:49.000Z</time>
      </trkpt>
      <trkpt lat="40.78265120275318622589111328125" lon="-1.43554969690740108489990234375">
        <ele>1008</ele>
        <time>2022-05-03T09:28:51.000Z</time>
      </trkpt>
      <trkpt lat="40.78263360075652599334716796875" lon="-1.43566151149570941925048828125">
        <ele>1008</ele>
        <time>2022-05-03T09:28:53.000Z</time>
      </trkpt>
      <trkpt lat="40.7826164178550243377685546875" lon="-1.435774080455303192138671875">
        <ele>1007.79998779296875</ele>
        <time>2022-05-03T09:28:55.000Z</time>
      </trkpt>
      <trkpt lat="40.782599486410617828369140625" lon="-1.43588782288134098052978515625">
        <ele>1007.79998779296875</ele>
        <time>2022-05-03T09:28:57.000Z</time>
      </trkpt>
      <trkpt lat="40.7825788669288158416748046875" lon="-1.43600299023091793060302734375">
        <ele>1007.5999755859375</ele>
        <time>2022-05-03T09:28:59.000Z</time>
      </trkpt>
      <trkpt lat="40.782558582723140716552734375" lon="-1.43612100742757320404052734375">
        <ele>1007.4000244140625</ele>
        <time>2022-05-03T09:29:01.000Z</time>
      </trkpt>
      <trkpt lat="40.78254089690744876861572265625" lon="-1.4362392760813236236572265625">
        <ele>1007.20001220703125</ele>
        <time>2022-05-03T09:29:03.000Z</time>
      </trkpt>
      <trkpt lat="40.7825245521962642669677734375" lon="-1.43635586835443973541259765625">
        <ele>1007</ele>
        <time>2022-05-03T09:29:05.000Z</time>
      </trkpt>
      <trkpt lat="40.78250468708574771881103515625" lon="-1.43646969459950923919677734375">
        <ele>1006.5999755859375</ele>
        <time>2022-05-03T09:29:07.000Z</time>
      </trkpt>
      <trkpt lat="40.78248792327940464019775390625" lon="-1.43658469431102275848388671875">
        <ele>1006.5999755859375</ele>
        <time>2022-05-03T09:29:09.000Z</time>
      </trkpt>
      <trkpt lat="40.78247115947306156158447265625" lon="-1.4367006160318851470947265625">
        <ele>1006.5999755859375</ele>
        <time>2022-05-03T09:29:11.000Z</time>
      </trkpt>
      <trkpt lat="40.78245204873383045196533203125" lon="-1.43681787885725498199462890625">
        <ele>1006.79998779296875</ele>
        <time>2022-05-03T09:29:13.000Z</time>
      </trkpt>
      <trkpt lat="40.7824363745748996734619140625" lon="-1.43693639896810054779052734375">
        <ele>1006.79998779296875</ele>
        <time>2022-05-03T09:29:15.000Z</time>
      </trkpt>
      <trkpt lat="40.78242707066237926483154296875" lon="-1.43699591048061847686767578125">
        <ele>1006.79998779296875</ele>
        <time>2022-05-03T09:29:16.000Z</time>
      </trkpt>
      <trkpt lat="40.78241734765470027923583984375" lon="-1.437055170536041259765625">
        <ele>1006.79998779296875</ele>
        <time>2022-05-03T09:29:17.000Z</time>
      </trkpt>
      <trkpt lat="40.78239991329610347747802734375" lon="-1.43717612139880657196044921875">
        <ele>1006.79998779296875</ele>
        <time>2022-05-03T09:29:19.000Z</time>
      </trkpt>
      <trkpt lat="40.7823820598423480987548828125" lon="-1.4372960664331912994384765625">
        <ele>1007.20001220703125</ele>
        <time>2022-05-03T09:29:21.000Z</time>
      </trkpt>
      <trkpt lat="40.78236185945570468902587890625" lon="-1.4374154247343540191650390625">
        <ele>1007.4000244140625</ele>
        <time>2022-05-03T09:29:23.000Z</time>
      </trkpt>
      <trkpt lat="40.78234492801129817962646484375" lon="-1.43753553740680217742919921875">
        <ele>1007.5999755859375</ele>
        <time>2022-05-03T09:29:25.000Z</time>
      </trkpt>
      <trkpt lat="40.78232766129076480865478515625" lon="-1.437654979526996612548828125">
        <ele>1008</ele>
        <time>2022-05-03T09:29:27.000Z</time>
      </trkpt>
      <trkpt lat="40.7823086343705654144287109375" lon="-1.43777358345687389373779296875">
        <ele>1008.20001220703125</ele>
        <time>2022-05-03T09:29:29.000Z</time>
      </trkpt>
      <trkpt lat="40.78229195438325405120849609375" lon="-1.43789143301546573638916015625">
        <ele>1008.4000244140625</ele>
        <time>2022-05-03T09:29:31.000Z</time>
      </trkpt>
      <trkpt lat="40.7822727598249912261962890625" lon="-1.4380086958408355712890625">
        <ele>1008.79998779296875</ele>
        <time>2022-05-03T09:29:33.000Z</time>
      </trkpt>
      <trkpt lat="40.78225457109510898590087890625" lon="-1.438126377761363983154296875">
        <ele>1009</ele>
        <time>2022-05-03T09:29:35.000Z</time>
      </trkpt>
      <trkpt lat="40.78223663382232189178466796875" lon="-1.4382438920438289642333984375">
        <ele>1009</ele>
        <time>2022-05-03T09:29:37.000Z</time>
      </trkpt>
      <trkpt lat="40.78221769072115421295166015625" lon="-1.43835830502212047576904296875">
        <ele>1009</ele>
        <time>2022-05-03T09:29:39.000Z</time>
      </trkpt>
      <trkpt lat="40.782201848924160003662109375" lon="-1.4384738914668560028076171875">
        <ele>1009</ele>
        <time>2022-05-03T09:29:41.000Z</time>
      </trkpt>
      <trkpt lat="40.782183073461055755615234375" lon="-1.43859115429222583770751953125">
        <ele>1009</ele>
        <time>2022-05-03T09:29:43.000Z</time>
      </trkpt>
      <trkpt lat="40.78216320835053920745849609375" lon="-1.4387065730988979339599609375">
        <ele>1009</ele>
        <time>2022-05-03T09:29:45.000Z</time>
      </trkpt>
      <trkpt lat="40.7821466960012912750244140625" lon="-1.4388229139149188995361328125">
        <ele>1009</ele>
        <time>2022-05-03T09:29:47.000Z</time>
      </trkpt>
      <trkpt lat="40.7821272499859333038330078125" lon="-1.4389399252831935882568359375">
        <ele>1008.79998779296875</ele>
        <time>2022-05-03T09:29:49.000Z</time>
      </trkpt>
      <trkpt lat="40.7821176946163177490234375" lon="-1.43899901770055294036865234375">
        <ele>1008.79998779296875</ele>
        <time>2022-05-03T09:29:50.000Z</time>
      </trkpt>
      <trkpt lat="40.78210889361798763275146484375" lon="-1.439058780670166015625">
        <ele>1008.79998779296875</ele>
        <time>2022-05-03T09:29:51.000Z</time>
      </trkpt>
      <trkpt lat="40.78209078870713710784912109375" lon="-1.4391779713332653045654296875">
        <ele>1008.79998779296875</ele>
        <time>2022-05-03T09:29:53.000Z</time>
      </trkpt>
      <trkpt lat="40.782071761786937713623046875" lon="-1.43929657526314258575439453125">
        <ele>1008.79998779296875</ele>
        <time>2022-05-03T09:29:55.000Z</time>
      </trkpt>
      <trkpt lat="40.78205256722867488861083984375" lon="-1.43941559828817844390869140625">
        <ele>1009</ele>
        <time>2022-05-03T09:29:57.000Z</time>
      </trkpt>
      <trkpt lat="40.7820333726704120635986328125" lon="-1.4395326934754848480224609375">
        <ele>1009</ele>
        <time>2022-05-03T09:29:59.000Z</time>
      </trkpt>
      <trkpt lat="40.78201468102633953094482421875" lon="-1.4396488666534423828125">
        <ele>1009</ele>
        <time>2022-05-03T09:30:01.000Z</time>
      </trkpt>
      <trkpt lat="40.78199523501098155975341796875" lon="-1.43976395018398761749267578125">
        <ele>1009.20001220703125</ele>
        <time>2022-05-03T09:30:03.000Z</time>
      </trkpt>
      <trkpt lat="40.78197662718594074249267578125" lon="-1.4398790337145328521728515625">
        <ele>1009.20001220703125</ele>
        <time>2022-05-03T09:30:05.000Z</time>
      </trkpt>
      <trkpt lat="40.7819602824747562408447265625" lon="-1.4399926923215389251708984375">
        <ele>1009.4000244140625</ele>
        <time>2022-05-03T09:30:07.000Z</time>
      </trkpt>
      <trkpt lat="40.78194309957325458526611328125" lon="-1.44010459072887897491455078125">
        <ele>1009.5999755859375</ele>
        <time>2022-05-03T09:30:09.000Z</time>
      </trkpt>
      <trkpt lat="40.7819250784814357757568359375" lon="-1.44022009335458278656005859375">
        <ele>1009.5999755859375</ele>
        <time>2022-05-03T09:30:11.000Z</time>
      </trkpt>
      <trkpt lat="40.78190873377025127410888671875" lon="-1.44033509306609630584716796875">
        <ele>1009.5999755859375</ele>
        <time>2022-05-03T09:30:13.000Z</time>
      </trkpt>
      <trkpt lat="40.7819006033241748809814453125" lon="-1.44039250910282135009765625">
        <ele>1009.5999755859375</ele>
        <time>2022-05-03T09:30:14.000Z</time>
      </trkpt>
      <trkpt lat="40.7818918861448764801025390625" lon="-1.440449170768260955810546875">
        <ele>1009.5999755859375</ele>
        <time>2022-05-03T09:30:15.000Z</time>
      </trkpt>
      <trkpt lat="40.78187369741499423980712890625" lon="-1.44056190736591815948486328125">
        <ele>1009.5999755859375</ele>
        <time>2022-05-03T09:30:17.000Z</time>
      </trkpt>
      <trkpt lat="40.7818570174276828765869140625" lon="-1.4406759850680828094482421875">
        <ele>1009.5999755859375</ele>
        <time>2022-05-03T09:30:19.000Z</time>
      </trkpt>
      <trkpt lat="40.78184033744037151336669921875" lon="-1.4407901465892791748046875">
        <ele>1009.5999755859375</ele>
        <time>2022-05-03T09:30:21.000Z</time>
      </trkpt>
      <trkpt lat="40.78182307071983814239501953125" lon="-1.440903134644031524658203125">
        <ele>1009.5999755859375</ele>
        <time>2022-05-03T09:30:23.000Z</time>
      </trkpt>
      <trkpt lat="40.78180588781833648681640625" lon="-1.441014446318149566650390625">
        <ele>1009.5999755859375</ele>
        <time>2022-05-03T09:30:25.000Z</time>
      </trkpt>
      <trkpt lat="40.78179775737226009368896484375" lon="-1.44106901250779628753662109375">
        <ele>1009.5999755859375</ele>
        <time>2022-05-03T09:30:26.000Z</time>
      </trkpt>
      <trkpt lat="40.78178870491683483123779296875" lon="-1.44112399779260158538818359375">
        <ele>1009.4000244140625</ele>
        <time>2022-05-03T09:30:27.000Z</time>
      </trkpt>
      <trkpt lat="40.7817708514630794525146484375" lon="-1.4412355609238147735595703125">
        <ele>1009.4000244140625</ele>
        <time>2022-05-03T09:30:29.000Z</time>
      </trkpt>
      <trkpt lat="40.78175299800932407379150390625" lon="-1.44134628586471080780029296875">
        <ele>1009.20001220703125</ele>
        <time>2022-05-03T09:30:31.000Z</time>
      </trkpt>
      <trkpt lat="40.781734474003314971923828125" lon="-1.4414555020630359649658203125">
        <ele>1009</ele>
        <time>2022-05-03T09:30:33.000Z</time>
      </trkpt>
      <trkpt lat="40.781715698540210723876953125" lon="-1.44156388007104396820068359375">
        <ele>1009</ele>
        <time>2022-05-03T09:30:35.000Z</time>
      </trkpt>
      <trkpt lat="40.78170672990381717681884765625" lon="-1.44161903299391269683837890625">
        <ele>1009.20001220703125</ele>
        <time>2022-05-03T09:30:36.000Z</time>
      </trkpt>
      <trkpt lat="40.78169784508645534515380859375" lon="-1.44167460501194000244140625">
        <ele>1009.20001220703125</ele>
        <time>2022-05-03T09:30:37.000Z</time>
      </trkpt>
      <trkpt lat="40.78168057836592197418212890625" lon="-1.44178633578121662139892578125">
        <ele>1009.4000244140625</ele>
        <time>2022-05-03T09:30:39.000Z</time>
      </trkpt>
      <trkpt lat="40.78166238963603973388671875" lon="-1.441897563636302947998046875">
        <ele>1009.4000244140625</ele>
        <time>2022-05-03T09:30:41.000Z</time>
      </trkpt>
      <trkpt lat="40.78164554201066493988037109375" lon="-1.442006528377532958984375">
        <ele>1009.5999755859375</ele>
        <time>2022-05-03T09:30:43.000Z</time>
      </trkpt>
      <trkpt lat="40.78163062222301959991455078125" lon="-1.44211255945265293121337890625">
        <ele>1009.79998779296875</ele>
        <time>2022-05-03T09:30:45.000Z</time>
      </trkpt>
      <trkpt lat="40.78161888755857944488525390625" lon="-1.44221481867134571075439453125">
        <ele>1010</ele>
        <time>2022-05-03T09:30:47.000Z</time>
      </trkpt>
      <trkpt lat="40.7816048897802829742431640625" lon="-1.44231154583394527435302734375">
        <ele>1010.20001220703125</ele>
        <time>2022-05-03T09:30:49.000Z</time>
      </trkpt>
      <trkpt lat="40.78159139491617679595947265625" lon="-1.44240860827267169952392578125">
        <ele>1010.20001220703125</ele>
        <time>2022-05-03T09:30:51.000Z</time>
      </trkpt>
      <trkpt lat="40.78157446347177028656005859375" lon="-1.44250533543527126312255859375">
        <ele>1010.20001220703125</ele>
        <time>2022-05-03T09:30:53.000Z</time>
      </trkpt>
      <trkpt lat="40.78155920840799808502197265625" lon="-1.4426044933497905731201171875">
        <ele>1010.20001220703125</ele>
        <time>2022-05-03T09:30:55.000Z</time>
      </trkpt>
      <trkpt lat="40.781546048820018768310546875" lon="-1.44270314835011959075927734375">
        <ele>1010.20001220703125</ele>
        <time>2022-05-03T09:30:57.000Z</time>
      </trkpt>
      <trkpt lat="40.781532637774944305419921875" lon="-1.44280205480754375457763671875">
        <ele>1010.20001220703125</ele>
        <time>2022-05-03T09:30:59.000Z</time>
      </trkpt>
      <trkpt lat="40.781519226729869842529296875" lon="-1.4429035596549510955810546875">
        <ele>1010.20001220703125</ele>
        <time>2022-05-03T09:31:01.000Z</time>
      </trkpt>
      <trkpt lat="40.781503133475780487060546875" lon="-1.443003974854946136474609375">
        <ele>1010.20001220703125</ele>
        <time>2022-05-03T09:31:03.000Z</time>
      </trkpt>
      <trkpt lat="40.78148536384105682373046875" lon="-1.44310363568365573883056640625">
        <ele>1010.20001220703125</ele>
        <time>2022-05-03T09:31:05.000Z</time>
      </trkpt>
      <trkpt lat="40.78146818093955516815185546875" lon="-1.443205140531063079833984375">
        <ele>1010.20001220703125</ele>
        <time>2022-05-03T09:31:07.000Z</time>
      </trkpt>
      <trkpt lat="40.78145175240933895111083984375" lon="-1.4433114230632781982421875">
        <ele>1010.4000244140625</ele>
        <time>2022-05-03T09:31:09.000Z</time>
      </trkpt>
      <trkpt lat="40.7814426161348819732666015625" lon="-1.4433638937771320343017578125">
        <ele>1010.5999755859375</ele>
        <time>2022-05-03T09:31:10.000Z</time>
      </trkpt>
      <trkpt lat="40.78143364749848842620849609375" lon="-1.44341611303389072418212890625">
        <ele>1010.5999755859375</ele>
        <time>2022-05-03T09:31:11.000Z</time>
      </trkpt>
      <trkpt lat="40.78141830861568450927734375" lon="-1.443519629538059234619140625">
        <ele>1011</ele>
        <time>2022-05-03T09:31:13.000Z</time>
      </trkpt>
      <trkpt lat="40.7814060710370540618896484375" lon="-1.4436203800141811370849609375">
        <ele>1011.20001220703125</ele>
        <time>2022-05-03T09:31:15.000Z</time>
      </trkpt>
      <trkpt lat="40.781397186219692230224609375" lon="-1.44372054375708103179931640625">
        <ele>1011.4000244140625</ele>
        <time>2022-05-03T09:31:17.000Z</time>
      </trkpt>
      <trkpt lat="40.7813923247158527374267578125" lon="-1.4437687397003173828125">
        <ele>1011.4000244140625</ele>
        <time>2022-05-03T09:31:18.000Z</time>
      </trkpt>
      <trkpt lat="40.78138570301234722137451171875" lon="-1.44381609745323657989501953125">
        <ele>1011.5999755859375</ele>
        <time>2022-05-03T09:31:19.000Z</time>
      </trkpt>
      <trkpt lat="40.78137748874723911285400390625" lon="-1.44386320374906063079833984375">
        <ele>1011.5999755859375</ele>
        <time>2022-05-03T09:31:20.000Z</time>
      </trkpt>
      <trkpt lat="40.78136944212019443511962890625" lon="-1.44391031004488468170166015625">
        <ele>1011.79998779296875</ele>
        <time>2022-05-03T09:31:21.000Z</time>
      </trkpt>
      <trkpt lat="40.781353600323200225830078125" lon="-1.444010473787784576416015625">
        <ele>1012</ele>
        <time>2022-05-03T09:31:23.000Z</time>
      </trkpt>
      <trkpt lat="40.7813386805355548858642578125" lon="-1.4441105537116527557373046875">
        <ele>1012.20001220703125</ele>
        <time>2022-05-03T09:31:25.000Z</time>
      </trkpt>
      <trkpt lat="40.78133004717528820037841796875" lon="-1.4442118071019649505615234375">
        <ele>1012.20001220703125</ele>
        <time>2022-05-03T09:31:27.000Z</time>
      </trkpt>
      <trkpt lat="40.78132233582437038421630859375" lon="-1.44431549124419689178466796875">
        <ele>1012.20001220703125</ele>
        <time>2022-05-03T09:31:29.000Z</time>
      </trkpt>
      <trkpt lat="40.78130708076059818267822265625" lon="-1.44441221840679645538330078125">
        <ele>1012.20001220703125</ele>
        <time>2022-05-03T09:31:31.000Z</time>
      </trkpt>
      <trkpt lat="40.78129266388714313507080078125" lon="-1.4445055089890956878662109375">
        <ele>1012.20001220703125</ele>
        <time>2022-05-03T09:31:33.000Z</time>
      </trkpt>
      <trkpt lat="40.7812783308327198028564453125" lon="-1.4445863105356693267822265625">
        <ele>1012.20001220703125</ele>
        <time>2022-05-03T09:31:35.000Z</time>
      </trkpt>
      <trkpt lat="40.78127221204340457916259765625" lon="-1.44463920034468173980712890625">
        <ele>1012.20001220703125</ele>
        <time>2022-05-03T09:31:37.000Z</time>
      </trkpt>
      <trkpt lat="40.78127154149115085601806640625" lon="-1.44464490003883838653564453125">
        <ele>1012.20001220703125</ele>
        <time>2022-05-03T09:31:39.000Z</time>
      </trkpt>
      <trkpt lat="40.7812565378844738006591796875" lon="-1.444724611937999725341796875">
        <ele>1012.20001220703125</ele>
        <time>2022-05-03T09:34:45.000Z</time>
      </trkpt>
      <trkpt lat="40.781253017485141754150390625" lon="-1.4447428844869136810302734375">
        <ele>1012.4000244140625</ele>
        <time>2022-05-03T09:34:46.000Z</time>
      </trkpt>
      <trkpt lat="40.7812494970858097076416015625" lon="-1.44476526416838169097900390625">
        <ele>1012.4000244140625</ele>
        <time>2022-05-03T09:34:47.000Z</time>
      </trkpt>
      <trkpt lat="40.78124136663973331451416015625" lon="-1.4448199979960918426513671875">
        <ele>1012.4000244140625</ele>
        <time>2022-05-03T09:34:49.000Z</time>
      </trkpt>
      <trkpt lat="40.78123147599399089813232421875" lon="-1.444883532822132110595703125">
        <ele>1012.20001220703125</ele>
        <time>2022-05-03T09:34:51.000Z</time>
      </trkpt>
      <trkpt lat="40.7812206633388996124267578125" lon="-1.44495184533298015594482421875">
        <ele>1012.20001220703125</ele>
        <time>2022-05-03T09:34:53.000Z</time>
      </trkpt>
      <trkpt lat="40.7812112756073474884033203125" lon="-1.44502325914800167083740234375">
        <ele>1012.20001220703125</ele>
        <time>2022-05-03T09:34:55.000Z</time>
      </trkpt>
      <trkpt lat="40.78119979240000247955322265625" lon="-1.44509735517203807830810546875">
        <ele>1012.20001220703125</ele>
        <time>2022-05-03T09:34:57.000Z</time>
      </trkpt>
      <trkpt lat="40.7811878062784671783447265625" lon="-1.44517631269991397857666015625">
        <ele>1012</ele>
        <time>2022-05-03T09:34:59.000Z</time>
      </trkpt>
      <trkpt lat="40.7811747305095195770263671875" lon="-1.44525929354131221771240234375">
        <ele>1012</ele>
        <time>2022-05-03T09:35:01.000Z</time>
      </trkpt>
      <trkpt lat="40.78116827644407749176025390625" lon="-1.44530170597136020660400390625">
        <ele>1012</ele>
        <time>2022-05-03T09:35:02.000Z</time>
      </trkpt>
      <trkpt lat="40.7811616547405719757080078125" lon="-1.4453445374965667724609375">
        <ele>1012</ele>
        <time>2022-05-03T09:35:03.000Z</time>
      </trkpt>
      <trkpt lat="40.7811485789716243743896484375" lon="-1.44543129019439220428466796875">
        <ele>1011.79998779296875</ele>
        <time>2022-05-03T09:35:05.000Z</time>
      </trkpt>
      <trkpt lat="40.7811361737549304962158203125" lon="-1.4455177076160907745361328125">
        <ele>1011.79998779296875</ele>
        <time>2022-05-03T09:35:07.000Z</time>
      </trkpt>
      <trkpt lat="40.7811234332621097564697265625" lon="-1.445606388151645660400390625">
        <ele>1011.5999755859375</ele>
        <time>2022-05-03T09:35:09.000Z</time>
      </trkpt>
      <trkpt lat="40.78110742382705211639404296875" lon="-1.4456940628588199615478515625">
        <ele>1011.5999755859375</ele>
        <time>2022-05-03T09:35:11.000Z</time>
      </trkpt>
      <trkpt lat="40.78109334222972393035888671875" lon="-1.44578567706048488616943359375">
        <ele>1011.79998779296875</ele>
        <time>2022-05-03T09:35:13.000Z</time>
      </trkpt>
      <trkpt lat="40.78108613379299640655517578125" lon="-1.44583228044211864471435546875">
        <ele>1012</ele>
        <time>2022-05-03T09:35:14.000Z</time>
      </trkpt>
      <trkpt lat="40.78107842244207859039306640625" lon="-1.445879302918910980224609375">
        <ele>1012</ele>
        <time>2022-05-03T09:35:15.000Z</time>
      </trkpt>
      <trkpt lat="40.7810624130070209503173828125" lon="-1.4459736831486225128173828125">
        <ele>1012.20001220703125</ele>
        <time>2022-05-03T09:35:17.000Z</time>
      </trkpt>
      <trkpt lat="40.78104623593389987945556640625" lon="-1.44606948830187320709228515625">
        <ele>1012.4000244140625</ele>
        <time>2022-05-03T09:35:19.000Z</time>
      </trkpt>
      <trkpt lat="40.78103064559400081634521484375" lon="-1.4461654610931873321533203125">
        <ele>1012.79998779296875</ele>
        <time>2022-05-03T09:35:21.000Z</time>
      </trkpt>
      <trkpt lat="40.78101522289216518402099609375" lon="-1.44626361317932605743408203125">
        <ele>1013.20001220703125</ele>
        <time>2022-05-03T09:35:23.000Z</time>
      </trkpt>
      <trkpt lat="40.78099879436194896697998046875" lon="-1.44636310636997222900390625">
        <ele>1013.5999755859375</ele>
        <time>2022-05-03T09:35:25.000Z</time>
      </trkpt>
      <trkpt lat="40.7809842936694622039794921875" lon="-1.4464625157415866851806640625">
        <ele>1013.79998779296875</ele>
        <time>2022-05-03T09:35:27.000Z</time>
      </trkpt>
      <trkpt lat="40.78097582794725894927978515625" lon="-1.4465121366083621978759765625">
        <ele>1014</ele>
        <time>2022-05-03T09:35:28.000Z</time>
      </trkpt>
      <trkpt lat="40.780967362225055694580078125" lon="-1.44656293094158172607421875">
        <ele>1014</ele>
        <time>2022-05-03T09:35:29.000Z</time>
      </trkpt>
      <trkpt lat="40.78094766475260257720947265625" lon="-1.4466683752834796905517578125">
        <ele>1014</ele>
        <time>2022-05-03T09:35:31.000Z</time>
      </trkpt>
      <trkpt lat="40.780926458537578582763671875" lon="-1.4467780105769634246826171875">
        <ele>1014</ele>
        <time>2022-05-03T09:35:33.000Z</time>
      </trkpt>
      <trkpt lat="40.78090826980769634246826171875" lon="-1.4468899928033351898193359375">
        <ele>1014</ele>
        <time>2022-05-03T09:35:35.000Z</time>
      </trkpt>
      <trkpt lat="40.780899636447429656982421875" lon="-1.44694556482136249542236328125">
        <ele>1014</ele>
        <time>2022-05-03T09:35:36.000Z</time>
      </trkpt>
      <trkpt lat="40.7808907516300678253173828125" lon="-1.447000466287136077880859375">
        <ele>1014</ele>
        <time>2022-05-03T09:35:37.000Z</time>
      </trkpt>
      <trkpt lat="40.78087373636662960052490234375" lon="-1.4471119455993175506591796875">
        <ele>1014</ele>
        <time>2022-05-03T09:35:39.000Z</time>
      </trkpt>
      <trkpt lat="40.78085764311254024505615234375" lon="-1.4472222514450550079345703125">
        <ele>1014</ele>
        <time>2022-05-03T09:35:41.000Z</time>
      </trkpt>
      <trkpt lat="40.78084154985845088958740234375" lon="-1.4473342336714267730712890625">
        <ele>1014</ele>
        <time>2022-05-03T09:35:43.000Z</time>
      </trkpt>
      <trkpt lat="40.7808260433375835418701171875" lon="-1.44744697026908397674560546875">
        <ele>1014</ele>
        <time>2022-05-03T09:35:45.000Z</time>
      </trkpt>
      <trkpt lat="40.780810452997684478759765625" lon="-1.44756213761866092681884765625">
        <ele>1014</ele>
        <time>2022-05-03T09:35:47.000Z</time>
      </trkpt>
      <trkpt lat="40.780802406370639801025390625" lon="-1.44761972129344940185546875">
        <ele>1014</ele>
        <time>2022-05-03T09:35:48.000Z</time>
      </trkpt>
      <trkpt lat="40.78079360537230968475341796875" lon="-1.4476772211492061614990234375">
        <ele>1014</ele>
        <time>2022-05-03T09:35:49.000Z</time>
      </trkpt>
      <trkpt lat="40.78077600337564945220947265625" lon="-1.44779297523200511932373046875">
        <ele>1014</ele>
        <time>2022-05-03T09:35:51.000Z</time>
      </trkpt>
      <trkpt lat="40.7807583175599575042724609375" lon="-1.4479095675051212310791015625">
        <ele>1014</ele>
        <time>2022-05-03T09:35:53.000Z</time>
      </trkpt>
      <trkpt lat="40.78074163757264614105224609375" lon="-1.44802766852080821990966796875">
        <ele>1014</ele>
        <time>2022-05-03T09:35:55.000Z</time>
      </trkpt>
      <trkpt lat="40.78072370029985904693603515625" lon="-1.44814677536487579345703125">
        <ele>1014</ele>
        <time>2022-05-03T09:35:57.000Z</time>
      </trkpt>
      <trkpt lat="40.78070710413157939910888671875" lon="-1.4482642896473407745361328125">
        <ele>1014.20001220703125</ele>
        <time>2022-05-03T09:35:59.000Z</time>
      </trkpt>
      <trkpt lat="40.7806882448494434356689453125" lon="-1.44838021136820316314697265625">
        <ele>1014.5999755859375</ele>
        <time>2022-05-03T09:36:01.000Z</time>
      </trkpt>
      <trkpt lat="40.78066888265311717987060546875" lon="-1.44849739037454128265380859375">
        <ele>1014.79998779296875</ele>
        <time>2022-05-03T09:36:03.000Z</time>
      </trkpt>
      <trkpt lat="40.780651867389678955078125" lon="-1.4486146531999111175537109375">
        <ele>1015</ele>
        <time>2022-05-03T09:36:05.000Z</time>
      </trkpt>
      <trkpt lat="40.78063384629786014556884765625" lon="-1.44873174838721752166748046875">
        <ele>1015.4000244140625</ele>
        <time>2022-05-03T09:36:07.000Z</time>
      </trkpt>
      <trkpt lat="40.7806148193776607513427734375" lon="-1.44884959794580936431884765625">
        <ele>1015.5999755859375</ele>
        <time>2022-05-03T09:36:09.000Z</time>
      </trkpt>
      <trkpt lat="40.78060559928417205810546875" lon="-1.44890944473445415496826171875">
        <ele>1015.79998779296875</ele>
        <time>2022-05-03T09:36:10.000Z</time>
      </trkpt>
      <trkpt lat="40.78059621155261993408203125" lon="-1.448969878256320953369140625">
        <ele>1015.79998779296875</ele>
        <time>2022-05-03T09:36:11.000Z</time>
      </trkpt>
      <trkpt lat="40.78057634644210338592529296875" lon="-1.44909300841391086578369140625">
        <ele>1015.79998779296875</ele>
        <time>2022-05-03T09:36:13.000Z</time>
      </trkpt>
      <trkpt lat="40.78055757097899913787841796875" lon="-1.4492149651050567626953125">
        <ele>1015.79998779296875</ele>
        <time>2022-05-03T09:36:15.000Z</time>
      </trkpt>
      <trkpt lat="40.78053946606814861297607421875" lon="-1.44933474250137805938720703125">
        <ele>1015.5999755859375</ele>
        <time>2022-05-03T09:36:17.000Z</time>
      </trkpt>
      <trkpt lat="40.78052110970020294189453125" lon="-1.44945343025028705596923828125">
        <ele>1015.4000244140625</ele>
        <time>2022-05-03T09:36:19.000Z</time>
      </trkpt>
      <trkpt lat="40.780501328408718109130859375" lon="-1.44956926815211772918701171875">
        <ele>1015.4000244140625</ele>
        <time>2022-05-03T09:36:21.000Z</time>
      </trkpt>
      <trkpt lat="40.78049135394394397735595703125" lon="-1.44962710328400135040283203125">
        <ele>1015.20001220703125</ele>
        <time>2022-05-03T09:36:22.000Z</time>
      </trkpt>
      <trkpt lat="40.7804820500314235687255859375" lon="-1.44968560896813869476318359375">
        <ele>1015.20001220703125</ele>
        <time>2022-05-03T09:36:23.000Z</time>
      </trkpt>
      <trkpt lat="40.7804632745683193206787109375" lon="-1.44980169832706451416015625">
        <ele>1015</ele>
        <time>2022-05-03T09:36:25.000Z</time>
      </trkpt>
      <trkpt lat="40.78045447356998920440673828125" lon="-1.44985936582088470458984375">
        <ele>1015</ele>
        <time>2022-05-03T09:36:26.000Z</time>
      </trkpt>
      <trkpt lat="40.7804461754858493804931640625" lon="-1.4499165304005146026611328125">
        <ele>1015.20001220703125</ele>
        <time>2022-05-03T09:36:27.000Z</time>
      </trkpt>
      <trkpt lat="40.7804267294704914093017578125" lon="-1.4500301890075206756591796875">
        <ele>1015.20001220703125</ele>
        <time>2022-05-03T09:36:29.000Z</time>
      </trkpt>
      <trkpt lat="40.7804086245596408843994140625" lon="-1.45014376379549503326416015625">
        <ele>1015.20001220703125</ele>
        <time>2022-05-03T09:36:31.000Z</time>
      </trkpt>
      <trkpt lat="40.780399404466152191162109375" lon="-1.4502008445560932159423828125">
        <ele>1015.20001220703125</ele>
        <time>2022-05-03T09:36:32.000Z</time>
      </trkpt>
      <trkpt lat="40.78039093874394893646240234375" lon="-1.45025926642119884490966796875">
        <ele>1015.20001220703125</ele>
        <time>2022-05-03T09:36:33.000Z</time>
      </trkpt>
      <trkpt lat="40.780372917652130126953125" lon="-1.4503755234181880950927734375">
        <ele>1015.20001220703125</ele>
        <time>2022-05-03T09:36:35.000Z</time>
      </trkpt>
      <trkpt lat="40.780353806912899017333984375" lon="-1.4504925347864627838134765625">
        <ele>1015.20001220703125</ele>
        <time>2022-05-03T09:36:37.000Z</time>
      </trkpt>
      <trkpt lat="40.78033394180238246917724609375" lon="-1.450608707964420318603515625">
        <ele>1015.20001220703125</ele>
        <time>2022-05-03T09:36:39.000Z</time>
      </trkpt>
      <trkpt lat="40.7803177647292613983154296875" lon="-1.450721360743045806884765625">
        <ele>1015.20001220703125</ele>
        <time>2022-05-03T09:36:41.000Z</time>
      </trkpt>
      <trkpt lat="40.7803023420274257659912109375" lon="-1.450831331312656402587890625">
        <ele>1014.79998779296875</ele>
        <time>2022-05-03T09:36:43.000Z</time>
      </trkpt>
      <trkpt lat="40.78028666786849498748779296875" lon="-1.4509396255016326904296875">
        <ele>1014.79998779296875</ele>
        <time>2022-05-03T09:36:45.000Z</time>
      </trkpt>
      <trkpt lat="40.78026956878602504730224609375" lon="-1.4510487578809261322021484375">
        <ele>1014.79998779296875</ele>
        <time>2022-05-03T09:36:47.000Z</time>
      </trkpt>
      <trkpt lat="40.78025347553193569183349609375" lon="-1.45115998573601245880126953125">
        <ele>1014.79998779296875</ele>
        <time>2022-05-03T09:36:49.000Z</time>
      </trkpt>
      <trkpt lat="40.7802362926304340362548828125" lon="-1.451271213591098785400390625">
        <ele>1015</ele>
        <time>2022-05-03T09:36:51.000Z</time>
      </trkpt>
      <trkpt lat="40.7802195288240909576416015625" lon="-1.45138093270361423492431640625">
        <ele>1015</ele>
        <time>2022-05-03T09:36:53.000Z</time>
      </trkpt>
      <trkpt lat="40.78021139837801456451416015625" lon="-1.45143591798841953277587890625">
        <ele>1015.20001220703125</ele>
        <time>2022-05-03T09:36:54.000Z</time>
      </trkpt>
      <trkpt lat="40.78020326793193817138671875" lon="-1.45149140618741512298583984375">
        <ele>1015.20001220703125</ele>
        <time>2022-05-03T09:36:55.000Z</time>
      </trkpt>
      <trkpt lat="40.780185498297214508056640625" lon="-1.4516009576618671417236328125">
        <ele>1015.5999755859375</ele>
        <time>2022-05-03T09:36:57.000Z</time>
      </trkpt>
      <trkpt lat="40.78016865067183971405029296875" lon="-1.45171117968857288360595703125">
        <ele>1015.79998779296875</ele>
        <time>2022-05-03T09:36:59.000Z</time>
      </trkpt>
      <trkpt lat="40.7801511324942111968994140625" lon="-1.45182014442980289459228515625">
        <ele>1016.20001220703125</ele>
        <time>2022-05-03T09:37:01.000Z</time>
      </trkpt>
      <trkpt lat="40.78013529069721698760986328125" lon="-1.45192776806652545928955078125">
        <ele>1016.5999755859375</ele>
        <time>2022-05-03T09:37:03.000Z</time>
      </trkpt>
      <trkpt lat="40.7801196165382862091064453125" lon="-1.45203203894197940826416015625">
        <ele>1016.5999755859375</ele>
        <time>2022-05-03T09:37:05.000Z</time>
      </trkpt>
      <trkpt lat="40.78010327182710170745849609375" lon="-1.4521373994648456573486328125">
        <ele>1016.79998779296875</ele>
        <time>2022-05-03T09:37:07.000Z</time>
      </trkpt>
      <trkpt lat="40.78009522520005702972412109375" lon="-1.45219062454998493194580078125">
        <ele>1016.79998779296875</ele>
        <time>2022-05-03T09:37:08.000Z</time>
      </trkpt>
      <trkpt lat="40.78008751384913921356201171875" lon="-1.45224544219672679901123046875">
        <ele>1017</ele>
        <time>2022-05-03T09:37:09.000Z</time>
      </trkpt>
      <trkpt lat="40.78006991185247898101806640625" lon="-1.452357508242130279541015625">
        <ele>1017</ele>
        <time>2022-05-03T09:37:11.000Z</time>
      </trkpt>
      <trkpt lat="40.78005214221775531768798828125" lon="-1.45247527398169040679931640625">
        <ele>1017.4000244140625</ele>
        <time>2022-05-03T09:37:13.000Z</time>
      </trkpt>
      <trkpt lat="40.780035965144634246826171875" lon="-1.45259320735931396484375">
        <ele>1017.5999755859375</ele>
        <time>2022-05-03T09:37:15.000Z</time>
      </trkpt>
      <trkpt lat="40.78002247028052806854248046875" lon="-1.45270921289920806884765625">
        <ele>1018</ele>
        <time>2022-05-03T09:37:17.000Z</time>
      </trkpt>
      <trkpt lat="40.78000453300774097442626953125" lon="-1.45282412879168987274169921875">
        <ele>1018.20001220703125</ele>
        <time>2022-05-03T09:37:19.000Z</time>
      </trkpt>
      <trkpt lat="40.7799865119159221649169921875" lon="-1.45293728448450565338134765625">
        <ele>1018.4000244140625</ele>
        <time>2022-05-03T09:37:21.000Z</time>
      </trkpt>
      <trkpt lat="40.77997134067118167877197265625" lon="-1.45304457284510135650634765625">
        <ele>1018.4000244140625</ele>
        <time>2022-05-03T09:37:23.000Z</time>
      </trkpt>
      <trkpt lat="40.7799558341503143310546875" lon="-1.45314750261604785919189453125">
        <ele>1018.4000244140625</ele>
        <time>2022-05-03T09:37:25.000Z</time>
      </trkpt>
      <trkpt lat="40.77993848361074924468994140625" lon="-1.453251354396343231201171875">
        <ele>1018.5999755859375</ele>
        <time>2022-05-03T09:37:27.000Z</time>
      </trkpt>
      <trkpt lat="40.77992163598537445068359375" lon="-1.45335688255727291107177734375">
        <ele>1018.79998779296875</ele>
        <time>2022-05-03T09:37:29.000Z</time>
      </trkpt>
      <trkpt lat="40.7799050398170948028564453125" lon="-1.4534610696136951446533203125">
        <ele>1019</ele>
        <time>2022-05-03T09:37:31.000Z</time>
      </trkpt>
      <trkpt lat="40.77988852746784687042236328125" lon="-1.45356483757495880126953125">
        <ele>1019</ele>
        <time>2022-05-03T09:37:33.000Z</time>
      </trkpt>
      <trkpt lat="40.7798695005476474761962890625" lon="-1.45366944372653961181640625">
        <ele>1019.20001220703125</ele>
        <time>2022-05-03T09:37:35.000Z</time>
      </trkpt>
      <trkpt lat="40.7798530720174312591552734375" lon="-1.45377564243972301483154296875">
        <ele>1019.4000244140625</ele>
        <time>2022-05-03T09:37:37.000Z</time>
      </trkpt>
      <trkpt lat="40.7798460312187671661376953125" lon="-1.45383062772452831268310546875">
        <ele>1019.4000244140625</ele>
        <time>2022-05-03T09:37:38.000Z</time>
      </trkpt>
      <trkpt lat="40.7798376493155956268310546875" lon="-1.4538841880857944488525390625">
        <ele>1019.5999755859375</ele>
        <time>2022-05-03T09:37:39.000Z</time>
      </trkpt>
      <trkpt lat="40.77981879003345966339111328125" lon="-1.45399038679897785186767578125">
        <ele>1019.79998779296875</ele>
        <time>2022-05-03T09:37:41.000Z</time>
      </trkpt>
      <trkpt lat="40.77980169095098972320556640625" lon="-1.4541011117398738861083984375">
        <ele>1019.79998779296875</ele>
        <time>2022-05-03T09:37:43.000Z</time>
      </trkpt>
      <trkpt lat="40.77978459186851978302001953125" lon="-1.45421049557626247406005859375">
        <ele>1019.79998779296875</ele>
        <time>2022-05-03T09:37:45.000Z</time>
      </trkpt>
      <trkpt lat="40.7797662355005741119384765625" lon="-1.45431878976523876190185546875">
        <ele>1019.79998779296875</ele>
        <time>2022-05-03T09:37:47.000Z</time>
      </trkpt>
      <trkpt lat="40.779750645160675048828125" lon="-1.45442272536456584930419921875">
        <ele>1020</ele>
        <time>2022-05-03T09:37:49.000Z</time>
      </trkpt>
      <trkpt lat="40.7797363959252834320068359375" lon="-1.454522721469402313232421875">
        <ele>1020</ele>
        <time>2022-05-03T09:37:51.000Z</time>
      </trkpt>
      <trkpt lat="40.77972139231860637664794921875" lon="-1.45462590269744396209716796875">
        <ele>1020</ele>
        <time>2022-05-03T09:37:53.000Z</time>
      </trkpt>
      <trkpt lat="40.77970437705516815185546875" lon="-1.4547314308583736419677734375">
        <ele>1020</ele>
        <time>2022-05-03T09:37:55.000Z</time>
      </trkpt>
      <trkpt lat="40.77968702651560306549072265625" lon="-1.454838216304779052734375">
        <ele>1020</ele>
        <time>2022-05-03T09:37:57.000Z</time>
      </trkpt>
      <trkpt lat="40.77966959215700626373291015625" lon="-1.45494558848440647125244140625">
        <ele>1020</ele>
        <time>2022-05-03T09:37:59.000Z</time>
      </trkpt>
      <trkpt lat="40.77965131960809230804443359375" lon="-1.45505212247371673583984375">
        <ele>1019.79998779296875</ele>
        <time>2022-05-03T09:38:01.000Z</time>
      </trkpt>
      <trkpt lat="40.77963405288755893707275390625" lon="-1.45515664480626583099365234375">
        <ele>1019.5999755859375</ele>
        <time>2022-05-03T09:38:03.000Z</time>
      </trkpt>
      <trkpt lat="40.77961779199540615081787109375" lon="-1.45525974221527576446533203125">
        <ele>1019.5999755859375</ele>
        <time>2022-05-03T09:38:05.000Z</time>
      </trkpt>
      <trkpt lat="40.7796006090939044952392578125" lon="-1.45536250434815883636474609375">
        <ele>1019.4000244140625</ele>
        <time>2022-05-03T09:38:07.000Z</time>
      </trkpt>
      <trkpt lat="40.77958527021110057830810546875" lon="-1.45546778105199337005615234375">
        <ele>1019.4000244140625</ele>
        <time>2022-05-03T09:38:09.000Z</time>
      </trkpt>
      <trkpt lat="40.77956900931894779205322265625" lon="-1.4555723033845424652099609375">
        <ele>1019.20001220703125</ele>
        <time>2022-05-03T09:38:11.000Z</time>
      </trkpt>
      <trkpt lat="40.779551826417446136474609375" lon="-1.45567615516483783721923828125">
        <ele>1019.20001220703125</ele>
        <time>2022-05-03T09:38:13.000Z</time>
      </trkpt>
      <trkpt lat="40.77952994965016841888427734375" lon="-1.45577690564095973968505859375">
        <ele>1019.4000244140625</ele>
        <time>2022-05-03T09:38:15.000Z</time>
      </trkpt>
      <trkpt lat="40.7795201428234577178955078125" lon="-1.45582434721291065216064453125">
        <ele>1019.4000244140625</ele>
        <time>2022-05-03T09:38:16.000Z</time>
      </trkpt>
      <trkpt lat="40.779512934386730194091796875" lon="-1.4558723755180835723876953125">
        <ele>1019.5999755859375</ele>
        <time>2022-05-03T09:38:17.000Z</time>
      </trkpt>
      <trkpt lat="40.7795020379126071929931640625" lon="-1.45597455091774463653564453125">
        <ele>1019.79998779296875</ele>
        <time>2022-05-03T09:38:19.000Z</time>
      </trkpt>
      <trkpt lat="40.77948887832462787628173828125" lon="-1.45607815124094486236572265625">
        <ele>1020</ele>
        <time>2022-05-03T09:38:21.000Z</time>
      </trkpt>
      <trkpt lat="40.77947236597537994384765625" lon="-1.45618074573576450347900390625">
        <ele>1020.20001220703125</ele>
        <time>2022-05-03T09:38:23.000Z</time>
      </trkpt>
      <trkpt lat="40.7794557698071002960205078125" lon="-1.456283591687679290771484375">
        <ele>1020.4000244140625</ele>
        <time>2022-05-03T09:38:25.000Z</time>
      </trkpt>
      <trkpt lat="40.77944076620042324066162109375" lon="-1.45638610236346721649169921875">
        <ele>1020.79998779296875</ele>
        <time>2022-05-03T09:38:27.000Z</time>
      </trkpt>
      <trkpt lat="40.77942467294633388519287109375" lon="-1.45648718811571598052978515625">
        <ele>1021</ele>
        <time>2022-05-03T09:38:29.000Z</time>
      </trkpt>
      <trkpt lat="40.779408998787403106689453125" lon="-1.4565878547728061676025390625">
        <ele>1021</ele>
        <time>2022-05-03T09:38:31.000Z</time>
      </trkpt>
      <trkpt lat="40.7793925702571868896484375" lon="-1.4566867612302303314208984375">
        <ele>1021</ele>
        <time>2022-05-03T09:38:33.000Z</time>
      </trkpt>
      <trkpt lat="40.77937714755535125732421875" lon="-1.45678709261119365692138671875">
        <ele>1021</ele>
        <time>2022-05-03T09:38:35.000Z</time>
      </trkpt>
      <trkpt lat="40.779360719025135040283203125" lon="-1.45688549615442752838134765625">
        <ele>1021</ele>
        <time>2022-05-03T09:38:37.000Z</time>
      </trkpt>
      <trkpt lat="40.77934630215167999267578125" lon="-1.45698138512670993804931640625">
        <ele>1021.20001220703125</ele>
        <time>2022-05-03T09:38:39.000Z</time>
      </trkpt>
      <trkpt lat="40.77933431603014469146728515625" lon="-1.45707928575575351715087890625">
        <ele>1021.20001220703125</ele>
        <time>2022-05-03T09:38:41.000Z</time>
      </trkpt>
      <trkpt lat="40.7793189771473407745361328125" lon="-1.4571786113083362579345703125">
        <ele>1021.4000244140625</ele>
        <time>2022-05-03T09:38:43.000Z</time>
      </trkpt>
      <trkpt lat="40.77930464409291744232177734375" lon="-1.4572751708328723907470703125">
        <ele>1021.4000244140625</ele>
        <time>2022-05-03T09:38:45.000Z</time>
      </trkpt>
      <trkpt lat="40.77928821556270122528076171875" lon="-1.45737089216709136962890625">
        <ele>1021.5999755859375</ele>
        <time>2022-05-03T09:38:47.000Z</time>
      </trkpt>
      <trkpt lat="40.7792706973850727081298828125" lon="-1.4574625901877880096435546875">
        <ele>1022</ele>
        <time>2022-05-03T09:38:49.000Z</time>
      </trkpt>
      <trkpt lat="40.779256112873554229736328125" lon="-1.45755588077008724212646484375">
        <ele>1022.20001220703125</ele>
        <time>2022-05-03T09:38:51.000Z</time>
      </trkpt>
      <trkpt lat="40.77923909761011600494384765625" lon="-1.45764975808560848236083984375">
        <ele>1022.5999755859375</ele>
        <time>2022-05-03T09:38:53.000Z</time>
      </trkpt>
      <trkpt lat="40.77922266907989978790283203125" lon="-1.457745730876922607421875">
        <ele>1023</ele>
        <time>2022-05-03T09:38:55.000Z</time>
      </trkpt>
      <trkpt lat="40.77920657582581043243408203125" lon="-1.45784170366823673248291015625">
        <ele>1023.20001220703125</ele>
        <time>2022-05-03T09:38:57.000Z</time>
      </trkpt>
      <trkpt lat="40.779189728200435638427734375" lon="-1.45794094540178775787353515625">
        <ele>1023.4000244140625</ele>
        <time>2022-05-03T09:38:59.000Z</time>
      </trkpt>
      <trkpt lat="40.77917405404150485992431640625" lon="-1.45804756321012973785400390625">
        <ele>1023.5999755859375</ele>
        <time>2022-05-03T09:39:01.000Z</time>
      </trkpt>
      <trkpt lat="40.77915561385452747344970703125" lon="-1.45815317519009113311767578125">
        <ele>1023.5999755859375</ele>
        <time>2022-05-03T09:39:03.000Z</time>
      </trkpt>
      <trkpt lat="40.77914672903716564178466796875" lon="-1.45820279605686664581298828125">
        <ele>1023.5999755859375</ele>
        <time>2022-05-03T09:39:04.000Z</time>
      </trkpt>
      <trkpt lat="40.7791377604007720947265625" lon="-1.4582521654665470123291015625">
        <ele>1023.5999755859375</ele>
        <time>2022-05-03T09:39:05.000Z</time>
      </trkpt>
      <trkpt lat="40.77913038432598114013671875" lon="-1.4583017863333225250244140625">
        <ele>1023.5999755859375</ele>
        <time>2022-05-03T09:39:06.000Z</time>
      </trkpt>
      <trkpt lat="40.779122672975063323974609375" lon="-1.4583504013717174530029296875">
        <ele>1023.79998779296875</ele>
        <time>2022-05-03T09:39:07.000Z</time>
      </trkpt>
      <trkpt lat="40.77911118976771831512451171875" lon="-1.4584483020007610321044921875">
        <ele>1023.79998779296875</ele>
        <time>2022-05-03T09:39:09.000Z</time>
      </trkpt>
      <trkpt lat="40.77909694053232669830322265625" lon="-1.4585410058498382568359375">
        <ele>1023.79998779296875</ele>
        <time>2022-05-03T09:39:11.000Z</time>
      </trkpt>
      <trkpt lat="40.77909073792397975921630859375" lon="-1.45858861505985260009765625">
        <ele>1023.79998779296875</ele>
        <time>2022-05-03T09:39:12.000Z</time>
      </trkpt>
      <trkpt lat="40.77908369712531566619873046875" lon="-1.45863714627921581268310546875">
        <ele>1023.79998779296875</ele>
        <time>2022-05-03T09:39:13.000Z</time>
      </trkpt>
      <trkpt lat="40.779069028794765472412109375" lon="-1.45873404107987880706787109375">
        <ele>1023.79998779296875</ele>
        <time>2022-05-03T09:39:15.000Z</time>
      </trkpt>
      <trkpt lat="40.77905368991196155548095703125" lon="-1.458829343318939208984375">
        <ele>1023.79998779296875</ele>
        <time>2022-05-03T09:39:17.000Z</time>
      </trkpt>
      <trkpt lat="40.77904044650495052337646484375" lon="-1.45892481319606304168701171875">
        <ele>1023.79998779296875</ele>
        <time>2022-05-03T09:39:19.000Z</time>
      </trkpt>
      <trkpt lat="40.77902485616505146026611328125" lon="-1.4590192772448062896728515625">
        <ele>1023.79998779296875</ele>
        <time>2022-05-03T09:39:21.000Z</time>
      </trkpt>
      <trkpt lat="40.77901010401546955108642578125" lon="-1.45911307074129581451416015625">
        <ele>1024</ele>
        <time>2022-05-03T09:39:23.000Z</time>
      </trkpt>
      <trkpt lat="40.778997279703617095947265625" lon="-1.45920577459037303924560546875">
        <ele>1024.199951171875</ele>
        <time>2022-05-03T09:39:25.000Z</time>
      </trkpt>
      <trkpt lat="40.7789833657443523406982421875" lon="-1.45929764024913311004638671875">
        <ele>1024.199951171875</ele>
        <time>2022-05-03T09:39:27.000Z</time>
      </trkpt>
      <trkpt lat="40.77896433882415294647216796875" lon="-1.45938866771757602691650390625">
        <ele>1024.4000244140625</ele>
        <time>2022-05-03T09:39:29.000Z</time>
      </trkpt>
      <trkpt lat="40.77895612455904483795166015625" lon="-1.459435187280178070068359375">
        <ele>1024.4000244140625</ele>
        <time>2022-05-03T09:39:30.000Z</time>
      </trkpt>
      <trkpt lat="40.7789481617510318756103515625" lon="-1.45948153920471668243408203125">
        <ele>1024.5999755859375</ele>
        <time>2022-05-03T09:39:31.000Z</time>
      </trkpt>
      <trkpt lat="40.77893500216305255889892578125" lon="-1.4595755003392696380615234375">
        <ele>1024.5999755859375</ele>
        <time>2022-05-03T09:39:33.000Z</time>
      </trkpt>
      <trkpt lat="40.77892108820378780364990234375" lon="-1.4596683718264102935791015625">
        <ele>1024.800048828125</ele>
        <time>2022-05-03T09:39:35.000Z</time>
      </trkpt>
      <trkpt lat="40.778911449015140533447265625" lon="-1.45975805819034576416015625">
        <ele>1024.800048828125</ele>
        <time>2022-05-03T09:39:37.000Z</time>
      </trkpt>
      <trkpt lat="40.77890113927423954010009765625" lon="-1.45984866656363010406494140625">
        <ele>1025</ele>
        <time>2022-05-03T09:39:39.000Z</time>
      </trkpt>
      <trkpt lat="40.77888898551464080810546875" lon="-1.45993667654693126678466796875">
        <ele>1025.199951171875</ele>
        <time>2022-05-03T09:39:41.000Z</time>
      </trkpt>
      <trkpt lat="40.7788760773837566375732421875" lon="-1.46002736873924732208251953125">
        <ele>1025.199951171875</ele>
        <time>2022-05-03T09:39:43.000Z</time>
      </trkpt>
      <trkpt lat="40.77886325307190418243408203125" lon="-1.4601166360080242156982421875">
        <ele>1025.4000244140625</ele>
        <time>2022-05-03T09:39:45.000Z</time>
      </trkpt>
      <trkpt lat="40.77885185368359088897705078125" lon="-1.46020523272454738616943359375">
        <ele>1025.5999755859375</ele>
        <time>2022-05-03T09:39:47.000Z</time>
      </trkpt>
      <trkpt lat="40.778845734894275665283203125" lon="-1.46024831570684909820556640625">
        <ele>1025.5999755859375</ele>
        <time>2022-05-03T09:39:48.000Z</time>
      </trkpt>
      <trkpt lat="40.778840370476245880126953125" lon="-1.46029181778430938720703125">
        <ele>1025.5999755859375</ele>
        <time>2022-05-03T09:39:49.000Z</time>
      </trkpt>
      <trkpt lat="40.778828971087932586669921875" lon="-1.4603778161108493804931640625">
        <ele>1025.800048828125</ele>
        <time>2022-05-03T09:39:51.000Z</time>
      </trkpt>
      <trkpt lat="40.77881966717541217803955078125" lon="-1.46046339534223079681396484375">
        <ele>1026</ele>
        <time>2022-05-03T09:39:53.000Z</time>
      </trkpt>
      <trkpt lat="40.77880726195871829986572265625" lon="-1.4605474658310413360595703125">
        <ele>1026</ele>
        <time>2022-05-03T09:39:55.000Z</time>
      </trkpt>
      <trkpt lat="40.77880189754068851470947265625" lon="-1.4605897106230258941650390625">
        <ele>1026.199951171875</ele>
        <time>2022-05-03T09:39:56.000Z</time>
      </trkpt>
      <trkpt lat="40.77879301272332668304443359375" lon="-1.4606306143105030059814453125">
        <ele>1026.199951171875</ele>
        <time>2022-05-03T09:39:57.000Z</time>
      </trkpt>
      <trkpt lat="40.77877541072666645050048828125" lon="-1.4607070572674274444580078125">
        <ele>1026.4000244140625</ele>
        <time>2022-05-03T09:39:59.000Z</time>
      </trkpt>
      <trkpt lat="40.778764598071575164794921875" lon="-1.4607757888734340667724609375">
        <ele>1026.4000244140625</ele>
        <time>2022-05-03T09:40:01.000Z</time>
      </trkpt>
      <trkpt lat="40.7787553779780864715576171875" lon="-1.4608394913375377655029296875">
        <ele>1026.5999755859375</ele>
        <time>2022-05-03T09:40:03.000Z</time>
      </trkpt>
      <trkpt lat="40.778746493160724639892578125" lon="-1.46091350354254245758056640625">
        <ele>1026.800048828125</ele>
        <time>2022-05-03T09:40:05.000Z</time>
      </trkpt>
      <trkpt lat="40.77873853035271167755126953125" lon="-1.4610051177442073822021484375">
        <ele>1027</ele>
        <time>2022-05-03T09:40:07.000Z</time>
      </trkpt>
      <trkpt lat="40.7787305675446987152099609375" lon="-1.46109438501298427581787109375">
        <ele>1027.199951171875</ele>
        <time>2022-05-03T09:40:09.000Z</time>
      </trkpt>
      <trkpt lat="40.77872294001281261444091796875" lon="-1.46118675358593463897705078125">
        <ele>1027.4000244140625</ele>
        <time>2022-05-03T09:40:11.000Z</time>
      </trkpt>
      <trkpt lat="40.77871690504252910614013671875" lon="-1.46128096617758274078369140625">
        <ele>1027.5999755859375</ele>
        <time>2022-05-03T09:40:13.000Z</time>
      </trkpt>
      <trkpt lat="40.7787097804248332977294921875" lon="-1.4613695628941059112548828125">
        <ele>1028</ele>
        <time>2022-05-03T09:40:15.000Z</time>
      </trkpt>
      <trkpt lat="40.77870416454970836639404296875" lon="-1.461452879011631011962890625">
        <ele>1028.199951171875</ele>
        <time>2022-05-03T09:40:17.000Z</time>
      </trkpt>
      <trkpt lat="40.77870164997875690460205078125" lon="-1.4614932797849178314208984375">
        <ele>1028.199951171875</ele>
        <time>2022-05-03T09:40:18.000Z</time>
      </trkpt>
      <trkpt lat="40.77869947068393230438232421875" lon="-1.461534015834331512451171875">
        <ele>1028.4000244140625</ele>
        <time>2022-05-03T09:40:19.000Z</time>
      </trkpt>
      <trkpt lat="40.7786933518946170806884765625" lon="-1.461613476276397705078125">
        <ele>1028.5999755859375</ele>
        <time>2022-05-03T09:40:21.000Z</time>
      </trkpt>
      <trkpt lat="40.77868916094303131103515625" lon="-1.46169603802263736724853515625">
        <ele>1028.800048828125</ele>
        <time>2022-05-03T09:40:23.000Z</time>
      </trkpt>
      <trkpt lat="40.7786866463720798492431640625" lon="-1.46178287453949451446533203125">
        <ele>1029</ele>
        <time>2022-05-03T09:40:25.000Z</time>
      </trkpt>
      <trkpt lat="40.778683461248874664306640625" lon="-1.4618671126663684844970703125">
        <ele>1029.199951171875</ele>
        <time>2022-05-03T09:40:27.000Z</time>
      </trkpt>
      <trkpt lat="40.778681449592113494873046875" lon="-1.4619090221822261810302734375">
        <ele>1029.199951171875</ele>
        <time>2022-05-03T09:40:28.000Z</time>
      </trkpt>
      <trkpt lat="40.7786796055734157562255859375" lon="-1.4619509316980838775634765625">
        <ele>1029.4000244140625</ele>
        <time>2022-05-03T09:40:29.000Z</time>
      </trkpt>
      <trkpt lat="40.77867482788860797882080078125" lon="-1.46203458309173583984375">
        <ele>1029.5999755859375</ele>
        <time>2022-05-03T09:40:31.000Z</time>
      </trkpt>
      <trkpt lat="40.77866896055638790130615234375" lon="-1.46212267689406871795654296875">
        <ele>1029.800048828125</ele>
        <time>2022-05-03T09:40:33.000Z</time>
      </trkpt>
      <trkpt lat="40.7786630094051361083984375" lon="-1.46221588365733623504638671875">
        <ele>1030</ele>
        <time>2022-05-03T09:40:35.000Z</time>
      </trkpt>
      <trkpt lat="40.778658650815486907958984375" lon="-1.46230758167803287506103515625">
        <ele>1030.199951171875</ele>
        <time>2022-05-03T09:40:37.000Z</time>
      </trkpt>
      <trkpt lat="40.77865420840680599212646484375" lon="-1.4623965136706829071044921875">
        <ele>1030.4000244140625</ele>
        <time>2022-05-03T09:40:39.000Z</time>
      </trkpt>
      <trkpt lat="40.77864884398877620697021484375" lon="-1.4624836854636669158935546875">
        <ele>1030.4000244140625</ele>
        <time>2022-05-03T09:40:41.000Z</time>
      </trkpt>
      <trkpt lat="40.7786442339420318603515625" lon="-1.46257077343761920928955078125">
        <ele>1030.5999755859375</ele>
        <time>2022-05-03T09:40:43.000Z</time>
      </trkpt>
      <trkpt lat="40.778641216456890106201171875" lon="-1.46261385641992092132568359375">
        <ele>1030.5999755859375</ele>
        <time>2022-05-03T09:40:44.000Z</time>
      </trkpt>
      <trkpt lat="40.77863912098109722137451171875" lon="-1.46265643648803234100341796875">
        <ele>1030.800048828125</ele>
        <time>2022-05-03T09:40:45.000Z</time>
      </trkpt>
      <trkpt lat="40.77863744460046291351318359375" lon="-1.46274494938552379608154296875">
        <ele>1031</ele>
        <time>2022-05-03T09:40:47.000Z</time>
      </trkpt>
      <trkpt lat="40.77863392420113086700439453125" lon="-1.4628352224826812744140625">
        <ele>1031.199951171875</ele>
        <time>2022-05-03T09:40:49.000Z</time>
      </trkpt>
      <trkpt lat="40.77862923033535480499267578125" lon="-1.462927758693695068359375">
        <ele>1031.4000244140625</ele>
        <time>2022-05-03T09:40:51.000Z</time>
      </trkpt>
      <trkpt lat="40.7786227762699127197265625" lon="-1.46301954053342342376708984375">
        <ele>1031.5999755859375</ele>
        <time>2022-05-03T09:40:53.000Z</time>
      </trkpt>
      <trkpt lat="40.77861732803285121917724609375" lon="-1.46310889162123203277587890625">
        <ele>1031.800048828125</ele>
        <time>2022-05-03T09:40:55.000Z</time>
      </trkpt>
      <trkpt lat="40.77861481346189975738525390625" lon="-1.4631522260606288909912109375">
        <ele>1032</ele>
        <time>2022-05-03T09:40:56.000Z</time>
      </trkpt>
      <trkpt lat="40.778613053262233734130859375" lon="-1.4631951414048671722412109375">
        <ele>1032</ele>
        <time>2022-05-03T09:40:57.000Z</time>
      </trkpt>
      <trkpt lat="40.77861146070063114166259765625" lon="-1.463237889111042022705078125">
        <ele>1032</ele>
        <time>2022-05-03T09:40:58.000Z</time>
      </trkpt>
      <trkpt lat="40.77861003577709197998046875" lon="-1.46328021772205829620361328125">
        <ele>1032.199951171875</ele>
        <time>2022-05-03T09:40:59.000Z</time>
      </trkpt>
      <trkpt lat="40.77860525809228420257568359375" lon="-1.46336495876312255859375">
        <ele>1032.199951171875</ele>
        <time>2022-05-03T09:41:01.000Z</time>
      </trkpt>
      <trkpt lat="40.7785994745790958404541015625" lon="-1.4634546451270580291748046875">
        <ele>1032.4000244140625</ele>
        <time>2022-05-03T09:41:03.000Z</time>
      </trkpt>
      <trkpt lat="40.77859369106590747833251953125" lon="-1.46354810334742069244384765625">
        <ele>1032.4000244140625</ele>
        <time>2022-05-03T09:41:05.000Z</time>
      </trkpt>
      <trkpt lat="40.7785884104669094085693359375" lon="-1.463641226291656494140625">
        <ele>1032.5999755859375</ele>
        <time>2022-05-03T09:41:07.000Z</time>
      </trkpt>
      <trkpt lat="40.77857960946857929229736328125" lon="-1.4637337625026702880859375">
        <ele>1032.5999755859375</ele>
        <time>2022-05-03T09:41:09.000Z</time>
      </trkpt>
      <trkpt lat="40.7785716466605663299560546875" lon="-1.46382587961852550506591796875">
        <ele>1032.800048828125</ele>
        <time>2022-05-03T09:41:11.000Z</time>
      </trkpt>
      <trkpt lat="40.77856468968093395233154296875" lon="-1.46391925401985645294189453125">
        <ele>1033</ele>
        <time>2022-05-03T09:41:13.000Z</time>
      </trkpt>
      <trkpt lat="40.778560750186443328857421875" lon="-1.46396501921117305755615234375">
        <ele>1033</ele>
        <time>2022-05-03T09:41:14.000Z</time>
      </trkpt>
      <trkpt lat="40.778557397425174713134765625" lon="-1.46400994621217250823974609375">
        <ele>1033</ele>
        <time>2022-05-03T09:41:15.000Z</time>
      </trkpt>
      <trkpt lat="40.778550021350383758544921875" lon="-1.46409460343420505523681640625">
        <ele>1033.5999755859375</ele>
        <time>2022-05-03T09:41:17.000Z</time>
      </trkpt>
      <trkpt lat="40.77854339964687824249267578125" lon="-1.464176662266254425048828125">
        <ele>1034</ele>
        <time>2022-05-03T09:41:19.000Z</time>
      </trkpt>
      <trkpt lat="40.77853753231465816497802734375" lon="-1.4642579667270183563232421875">
        <ele>1034.5999755859375</ele>
        <time>2022-05-03T09:41:21.000Z</time>
      </trkpt>
      <trkpt lat="40.7785320840775966644287109375" lon="-1.4643426239490509033203125">
        <ele>1035</ele>
        <time>2022-05-03T09:41:23.000Z</time>
      </trkpt>
      <trkpt lat="40.7785267196595668792724609375" lon="-1.4644282869994640350341796875">
        <ele>1035.4000244140625</ele>
        <time>2022-05-03T09:41:25.000Z</time>
      </trkpt>
      <trkpt lat="40.77852127142250537872314453125" lon="-1.4645154587924480438232421875">
        <ele>1035.5999755859375</ele>
        <time>2022-05-03T09:41:27.000Z</time>
      </trkpt>
      <trkpt lat="40.77851674519479274749755859375" lon="-1.46460304968059062957763671875">
        <ele>1035.800048828125</ele>
        <time>2022-05-03T09:41:29.000Z</time>
      </trkpt>
      <trkpt lat="40.77851104550063610076904296875" lon="-1.46469055674970149993896484375">
        <ele>1036</ele>
        <time>2022-05-03T09:41:31.000Z</time>
      </trkpt>
      <trkpt lat="40.77850450761616230010986328125" lon="-1.4647752977907657623291015625">
        <ele>1036.199951171875</ele>
        <time>2022-05-03T09:41:33.000Z</time>
      </trkpt>
      <trkpt lat="40.7784985564649105072021484375" lon="-1.46485936827957630157470703125">
        <ele>1036.4000244140625</ele>
        <time>2022-05-03T09:41:35.000Z</time>
      </trkpt>
      <trkpt lat="40.7784926891326904296875" lon="-1.4649402536451816558837890625">
        <ele>1036.4000244140625</ele>
        <time>2022-05-03T09:41:37.000Z</time>
      </trkpt>
      <trkpt lat="40.77848992310464382171630859375" lon="-1.4649798162281513214111328125">
        <ele>1036.4000244140625</ele>
        <time>2022-05-03T09:41:38.000Z</time>
      </trkpt>
      <trkpt lat="40.77848690561950206756591796875" lon="-1.46502055227756500244140625">
        <ele>1036.4000244140625</ele>
        <time>2022-05-03T09:41:39.000Z</time>
      </trkpt>
      <trkpt lat="40.77848263084888458251953125" lon="-1.4651025272905826568603515625">
        <ele>1036.4000244140625</ele>
        <time>2022-05-03T09:41:41.000Z</time>
      </trkpt>
      <trkpt lat="40.77847952954471111297607421875" lon="-1.465185843408107757568359375">
        <ele>1036.4000244140625</ele>
        <time>2022-05-03T09:41:43.000Z</time>
      </trkpt>
      <trkpt lat="40.77847416512668132781982421875" lon="-1.4652711711823940277099609375">
        <ele>1036.4000244140625</ele>
        <time>2022-05-03T09:41:45.000Z</time>
      </trkpt>
      <trkpt lat="40.7784713990986347198486328125" lon="-1.46531282924115657806396484375">
        <ele>1036.4000244140625</ele>
        <time>2022-05-03T09:41:46.000Z</time>
      </trkpt>
      <trkpt lat="40.77846863307058811187744140625" lon="-1.46535323001444339752197265625">
        <ele>1036.4000244140625</ele>
        <time>2022-05-03T09:41:47.000Z</time>
      </trkpt>
      <trkpt lat="40.77846360392868518829345703125" lon="-1.46543419919908046722412109375">
        <ele>1036.4000244140625</ele>
        <time>2022-05-03T09:41:49.000Z</time>
      </trkpt>
      <trkpt lat="40.77845983207225799560546875" lon="-1.46551801823079586029052734375">
        <ele>1036.5999755859375</ele>
        <time>2022-05-03T09:41:51.000Z</time>
      </trkpt>
      <trkpt lat="40.7784546352922916412353515625" lon="-1.46560535766184329986572265625">
        <ele>1036.5999755859375</ele>
        <time>2022-05-03T09:41:53.000Z</time>
      </trkpt>
      <trkpt lat="40.77844901941716670989990234375" lon="-1.4656944572925567626953125">
        <ele>1036.5999755859375</ele>
        <time>2022-05-03T09:41:55.000Z</time>
      </trkpt>
      <trkpt lat="40.7784430682659149169921875" lon="-1.46578540094196796417236328125">
        <ele>1036.5999755859375</ele>
        <time>2022-05-03T09:41:57.000Z</time>
      </trkpt>
      <trkpt lat="40.77843837440013885498046875" lon="-1.46587592549622058868408203125">
        <ele>1036.5999755859375</ele>
        <time>2022-05-03T09:41:59.000Z</time>
      </trkpt>
      <trkpt lat="40.77843577601015567779541015625" lon="-1.46592177450656890869140625">
        <ele>1036.5999755859375</ele>
        <time>2022-05-03T09:42:00.000Z</time>
      </trkpt>
      <trkpt lat="40.77843300998210906982421875" lon="-1.46596779115498065948486328125">
        <ele>1036.5999755859375</ele>
        <time>2022-05-03T09:42:01.000Z</time>
      </trkpt>
      <trkpt lat="40.7784274779260158538818359375" lon="-1.46605856716632843017578125">
        <ele>1036.5999755859375</ele>
        <time>2022-05-03T09:42:03.000Z</time>
      </trkpt>
      <trkpt lat="40.77842202968895435333251953125" lon="-1.4661495946347713470458984375">
        <ele>1036.800048828125</ele>
        <time>2022-05-03T09:42:05.000Z</time>
      </trkpt>
      <trkpt lat="40.77841716818511486053466796875" lon="-1.46624020300805568695068359375">
        <ele>1037</ele>
        <time>2022-05-03T09:42:07.000Z</time>
      </trkpt>
      <trkpt lat="40.77841079793870449066162109375" lon="-1.466332487761974334716796875">
        <ele>1037.199951171875</ele>
        <time>2022-05-03T09:42:09.000Z</time>
      </trkpt>
      <trkpt lat="40.77840811572968959808349609375" lon="-1.4663792587816715240478515625">
        <ele>1037.199951171875</ele>
        <time>2022-05-03T09:42:10.000Z</time>
      </trkpt>
      <trkpt lat="40.7784063555300235748291015625" lon="-1.46642611362040042877197265625">
        <ele>1037.4000244140625</ele>
        <time>2022-05-03T09:42:11.000Z</time>
      </trkpt>
      <trkpt lat="40.77839923091232776641845703125" lon="-1.4665190689265727996826171875">
        <ele>1037.5999755859375</ele>
        <time>2022-05-03T09:42:13.000Z</time>
      </trkpt>
      <trkpt lat="40.77839118428528308868408203125" lon="-1.46661303006112575531005859375">
        <ele>1037.5999755859375</ele>
        <time>2022-05-03T09:42:15.000Z</time>
      </trkpt>
      <trkpt lat="40.77838514931499958038330078125" lon="-1.466706655919551849365234375">
        <ele>1037.5999755859375</ele>
        <time>2022-05-03T09:42:17.000Z</time>
      </trkpt>
      <trkpt lat="40.7783798687160015106201171875" lon="-1.4667976833879947662353515625">
        <ele>1037.5999755859375</ele>
        <time>2022-05-03T09:42:19.000Z</time>
      </trkpt>
      <trkpt lat="40.77837727032601833343505859375" lon="-1.46684319712221622467041015625">
        <ele>1037.5999755859375</ele>
        <time>2022-05-03T09:42:20.000Z</time>
      </trkpt>
      <trkpt lat="40.77837492339313030242919921875" lon="-1.466889046132564544677734375">
        <ele>1037.5999755859375</ele>
        <time>2022-05-03T09:42:21.000Z</time>
      </trkpt>
      <trkpt lat="40.77837307937443256378173828125" lon="-1.466933973133563995361328125">
        <ele>1037.5999755859375</ele>
        <time>2022-05-03T09:42:22.000Z</time>
      </trkpt>
      <trkpt lat="40.77837090007960796356201171875" lon="-1.46697764284908771514892578125">
        <ele>1037.5999755859375</ele>
        <time>2022-05-03T09:42:23.000Z</time>
      </trkpt>
      <trkpt lat="40.7783681340515613555908203125" lon="-1.46706481464207172393798828125">
        <ele>1037.800048828125</ele>
        <time>2022-05-03T09:42:25.000Z</time>
      </trkpt>
      <trkpt lat="40.778364948928356170654296875" lon="-1.4671530760824680328369140625">
        <ele>1038.199951171875</ele>
        <time>2022-05-03T09:42:27.000Z</time>
      </trkpt>
      <trkpt lat="40.778361260890960693359375" lon="-1.4672415889799594879150390625">
        <ele>1038.4000244140625</ele>
        <time>2022-05-03T09:42:29.000Z</time>
      </trkpt>
      <trkpt lat="40.7783572375774383544921875" lon="-1.46733119152486324310302734375">
        <ele>1038.800048828125</ele>
        <time>2022-05-03T09:42:31.000Z</time>
      </trkpt>
      <trkpt lat="40.7783523760735988616943359375" lon="-1.46742104552686214447021484375">
        <ele>1039</ele>
        <time>2022-05-03T09:42:33.000Z</time>
      </trkpt>
      <trkpt lat="40.778346844017505645751953125" lon="-1.46751307882368564605712890625">
        <ele>1039.4000244140625</ele>
        <time>2022-05-03T09:42:35.000Z</time>
      </trkpt>
      <trkpt lat="40.77834139578044414520263671875" lon="-1.46760527975857257843017578125">
        <ele>1039.800048828125</ele>
        <time>2022-05-03T09:42:37.000Z</time>
      </trkpt>
      <trkpt lat="40.778337456285953521728515625" lon="-1.46769882179796695709228515625">
        <ele>1040</ele>
        <time>2022-05-03T09:42:39.000Z</time>
      </trkpt>
      <trkpt lat="40.7783346064388751983642578125" lon="-1.46774508990347385406494140625">
        <ele>1040.199951171875</ele>
        <time>2022-05-03T09:42:40.000Z</time>
      </trkpt>
      <trkpt lat="40.77833167277276515960693359375" lon="-1.4677911065518856048583984375">
        <ele>1040.4000244140625</ele>
        <time>2022-05-03T09:42:41.000Z</time>
      </trkpt>
      <trkpt lat="40.77832647599279880523681640625" lon="-1.46788355894386768341064453125">
        <ele>1040.5999755859375</ele>
        <time>2022-05-03T09:42:43.000Z</time>
      </trkpt>
      <trkpt lat="40.77832094393670558929443359375" lon="-1.46797542460262775421142578125">
        <ele>1040.800048828125</ele>
        <time>2022-05-03T09:42:45.000Z</time>
      </trkpt>
      <trkpt lat="40.7783181779086589813232421875" lon="-1.4680221118032932281494140625">
        <ele>1041</ele>
        <time>2022-05-03T09:42:46.000Z</time>
      </trkpt>
      <trkpt lat="40.778315328061580657958984375" lon="-1.46806846372783184051513671875">
        <ele>1041.199951171875</ele>
        <time>2022-05-03T09:42:47.000Z</time>
      </trkpt>
      <trkpt lat="40.7783104665577411651611328125" lon="-1.46815949119627475738525390625">
        <ele>1041.4000244140625</ele>
        <time>2022-05-03T09:42:49.000Z</time>
      </trkpt>
      <trkpt lat="40.77830560505390167236328125" lon="-1.46824833936989307403564453125">
        <ele>1041.800048828125</ele>
        <time>2022-05-03T09:42:51.000Z</time>
      </trkpt>
      <trkpt lat="40.7783034257590770721435546875" lon="-1.4682910032570362091064453125">
        <ele>1042</ele>
        <time>2022-05-03T09:42:52.000Z</time>
      </trkpt>
      <trkpt lat="40.77830116264522075653076171875" lon="-1.46833433769643306732177734375">
        <ele>1042.199951171875</ele>
        <time>2022-05-03T09:42:53.000Z</time>
      </trkpt>
      <trkpt lat="40.77829630114138126373291015625" lon="-1.468421928584575653076171875">
        <ele>1042.5999755859375</ele>
        <time>2022-05-03T09:42:55.000Z</time>
      </trkpt>
      <trkpt lat="40.7782910205423831939697265625" lon="-1.46851052530109882354736328125">
        <ele>1043</ele>
        <time>2022-05-03T09:42:57.000Z</time>
      </trkpt>
      <trkpt lat="40.7782869972288608551025390625" lon="-1.4686007983982563018798828125">
        <ele>1043.4000244140625</ele>
        <time>2022-05-03T09:42:59.000Z</time>
      </trkpt>
      <trkpt lat="40.7782819680869579315185546875" lon="-1.46869207732379436492919921875">
        <ele>1043.800048828125</ele>
        <time>2022-05-03T09:43:01.000Z</time>
      </trkpt>
      <trkpt lat="40.77827685512602329254150390625" lon="-1.46878511644899845123291015625">
        <ele>1044.199951171875</ele>
        <time>2022-05-03T09:43:03.000Z</time>
      </trkpt>
      <trkpt lat="40.7782749272882938385009765625" lon="-1.4688321389257907867431640625">
        <ele>1044.4000244140625</ele>
        <time>2022-05-03T09:43:04.000Z</time>
      </trkpt>
      <trkpt lat="40.77827165834605693817138671875" lon="-1.468878574669361114501953125">
        <ele>1044.4000244140625</ele>
        <time>2022-05-03T09:43:05.000Z</time>
      </trkpt>
      <trkpt lat="40.7782641984522342681884765625" lon="-1.468970775604248046875">
        <ele>1044.5999755859375</ele>
        <time>2022-05-03T09:43:07.000Z</time>
      </trkpt>
      <trkpt lat="40.77826059423387050628662109375" lon="-1.46901729516685009002685546875">
        <ele>1044.800048828125</ele>
        <time>2022-05-03T09:43:08.000Z</time>
      </trkpt>
      <trkpt lat="40.7782578282058238983154296875" lon="-1.469063647091388702392578125">
        <ele>1045</ele>
        <time>2022-05-03T09:43:09.000Z</time>
      </trkpt>
      <trkpt lat="40.77825154177844524383544921875" lon="-1.46915509365499019622802734375">
        <ele>1045.199951171875</ele>
        <time>2022-05-03T09:43:11.000Z</time>
      </trkpt>
      <trkpt lat="40.7782467640936374664306640625" lon="-1.4692445285618305206298828125">
        <ele>1045.4000244140625</ele>
        <time>2022-05-03T09:43:13.000Z</time>
      </trkpt>
      <trkpt lat="40.7782424055039882659912109375" lon="-1.46933354437351226806640625">
        <ele>1045.5999755859375</ele>
        <time>2022-05-03T09:43:15.000Z</time>
      </trkpt>
      <trkpt lat="40.77823511324822902679443359375" lon="-1.4694222249090671539306640625">
        <ele>1045.800048828125</ele>
        <time>2022-05-03T09:43:17.000Z</time>
      </trkpt>
      <trkpt lat="40.77822974883019924163818359375" lon="-1.46950797177851200103759765625">
        <ele>1046</ele>
        <time>2022-05-03T09:43:19.000Z</time>
      </trkpt>
      <trkpt lat="40.77822455205023288726806640625" lon="-1.46959095261991024017333984375">
        <ele>1046.199951171875</ele>
        <time>2022-05-03T09:43:21.000Z</time>
      </trkpt>
      <trkpt lat="40.7782182656228542327880859375" lon="-1.4696760289371013641357421875">
        <ele>1046.4000244140625</ele>
        <time>2022-05-03T09:43:23.000Z</time>
      </trkpt>
      <trkpt lat="40.7782123982906341552734375" lon="-1.46976093761622905731201171875">
        <ele>1046.5999755859375</ele>
        <time>2022-05-03T09:43:25.000Z</time>
      </trkpt>
      <trkpt lat="40.7782095484435558319091796875" lon="-1.46980368532240390777587890625">
        <ele>1046.800048828125</ele>
        <time>2022-05-03T09:43:26.000Z</time>
      </trkpt>
      <trkpt lat="40.7782070338726043701171875" lon="-1.46984727121889591217041015625">
        <ele>1046.800048828125</ele>
        <time>2022-05-03T09:43:27.000Z</time>
      </trkpt>
      <trkpt lat="40.77820225618779659271240234375" lon="-1.46993477828800678253173828125">
        <ele>1047</ele>
        <time>2022-05-03T09:43:29.000Z</time>
      </trkpt>
      <trkpt lat="40.77819697558879852294921875" lon="-1.4700213633477687835693359375">
        <ele>1047</ele>
        <time>2022-05-03T09:43:31.000Z</time>
      </trkpt>
      <trkpt lat="40.7781922817230224609375" lon="-1.47010727785527706146240234375">
        <ele>1047.199951171875</ele>
        <time>2022-05-03T09:43:33.000Z</time>
      </trkpt>
      <trkpt lat="40.778187252581119537353515625" lon="-1.470192857086658477783203125">
        <ele>1047.199951171875</ele>
        <time>2022-05-03T09:43:35.000Z</time>
      </trkpt>
      <trkpt lat="40.778184570372104644775390625" lon="-1.47023434750735759735107421875">
        <ele>1047.4000244140625</ele>
        <time>2022-05-03T09:43:36.000Z</time>
      </trkpt>
      <trkpt lat="40.77818197198212146759033203125" lon="-1.4702758379280567169189453125">
        <ele>1047.4000244140625</ele>
        <time>2022-05-03T09:43:37.000Z</time>
      </trkpt>
      <trkpt lat="40.77817744575440883636474609375" lon="-1.470358483493328094482421875">
        <ele>1047.4000244140625</ele>
        <time>2022-05-03T09:43:39.000Z</time>
      </trkpt>
      <trkpt lat="40.77817342244088649749755859375" lon="-1.470440961420536041259765625">
        <ele>1047.5999755859375</ele>
        <time>2022-05-03T09:43:41.000Z</time>
      </trkpt>
      <trkpt lat="40.7781683094799518585205078125" lon="-1.47052067331969738006591796875">
        <ele>1047.5999755859375</ele>
        <time>2022-05-03T09:43:43.000Z</time>
      </trkpt>
      <trkpt lat="40.77816504053771495819091796875" lon="-1.47059996612370014190673828125">
        <ele>1048</ele>
        <time>2022-05-03T09:43:45.000Z</time>
      </trkpt>
      <trkpt lat="40.77816336415708065032958984375" lon="-1.47063843905925750732421875">
        <ele>1048</ele>
        <time>2022-05-03T09:43:46.000Z</time>
      </trkpt>
      <trkpt lat="40.778162777423858642578125" lon="-1.47067640908062458038330078125">
        <ele>1048.199951171875</ele>
        <time>2022-05-03T09:43:47.000Z</time>
      </trkpt>
      <trkpt lat="40.7781579159200191497802734375" lon="-1.47075385786592960357666015625">
        <ele>1048.199951171875</ele>
        <time>2022-05-03T09:43:49.000Z</time>
      </trkpt>
      <trkpt lat="40.77815271914005279541015625" lon="-1.470829211175441741943359375">
        <ele>1048.4000244140625</ele>
        <time>2022-05-03T09:43:51.000Z</time>
      </trkpt>
      <trkpt lat="40.77814928255975246429443359375" lon="-1.47090087644755840301513671875">
        <ele>1048.4000244140625</ele>
        <time>2022-05-03T09:43:53.000Z</time>
      </trkpt>
      <trkpt lat="40.7781465165317058563232421875" lon="-1.47097363136708736419677734375">
        <ele>1048.4000244140625</ele>
        <time>2022-05-03T09:43:55.000Z</time>
      </trkpt>
      <trkpt lat="40.77814509160816669464111328125" lon="-1.471011601388454437255859375">
        <ele>1048.5999755859375</ele>
        <time>2022-05-03T09:43:56.000Z</time>
      </trkpt>
      <trkpt lat="40.77814341522753238677978515625" lon="-1.47104990668594837188720703125">
        <ele>1048.5999755859375</ele>
        <time>2022-05-03T09:43:57.000Z</time>
      </trkpt>
      <trkpt lat="40.77814039774239063262939453125" lon="-1.4711277745664119720458984375">
        <ele>1048.5999755859375</ele>
        <time>2022-05-03T09:43:59.000Z</time>
      </trkpt>
      <trkpt lat="40.778136961162090301513671875" lon="-1.4712045527994632720947265625">
        <ele>1048.800048828125</ele>
        <time>2022-05-03T09:44:01.000Z</time>
      </trkpt>
      <trkpt lat="40.77812950126826763153076171875" lon="-1.471277140080928802490234375">
        <ele>1048.800048828125</ele>
        <time>2022-05-03T09:44:03.000Z</time>
      </trkpt>
      <trkpt lat="40.77812665142118930816650390625" lon="-1.4713128469884395599365234375">
        <ele>1048.800048828125</ele>
        <time>2022-05-03T09:44:04.000Z</time>
      </trkpt>
      <trkpt lat="40.77812480740249156951904296875" lon="-1.47134863771498203277587890625">
        <ele>1049</ele>
        <time>2022-05-03T09:44:05.000Z</time>
      </trkpt>
      <trkpt lat="40.77812396921217441558837890625" lon="-1.47142122499644756317138671875">
        <ele>1049</ele>
        <time>2022-05-03T09:44:07.000Z</time>
      </trkpt>
      <trkpt lat="40.77812095172703266143798828125" lon="-1.47149272263050079345703125">
        <ele>1049</ele>
        <time>2022-05-03T09:44:09.000Z</time>
      </trkpt>
      <trkpt lat="40.778116174042224884033203125" lon="-1.47156220860779285430908203125">
        <ele>1049.199951171875</ele>
        <time>2022-05-03T09:44:11.000Z</time>
      </trkpt>
      <trkpt lat="40.778113491833209991455078125" lon="-1.47159657441079616546630859375">
        <ele>1049.199951171875</ele>
        <time>2022-05-03T09:44:12.000Z</time>
      </trkpt>
      <trkpt lat="40.7781104743480682373046875" lon="-1.47163085639476776123046875">
        <ele>1049.4000244140625</ele>
        <time>2022-05-03T09:44:13.000Z</time>
      </trkpt>
      <trkpt lat="40.77810703776776790618896484375" lon="-1.4716970734298229217529296875">
        <ele>1049.4000244140625</ele>
        <time>2022-05-03T09:44:15.000Z</time>
      </trkpt>
      <trkpt lat="40.77810167334973812103271484375" lon="-1.471763290464878082275390625">
        <ele>1049.5999755859375</ele>
        <time>2022-05-03T09:44:17.000Z</time>
      </trkpt>
      <trkpt lat="40.7780972309410572052001953125" lon="-1.4718288369476795196533203125">
        <ele>1049.800048828125</ele>
        <time>2022-05-03T09:44:19.000Z</time>
      </trkpt>
      <trkpt lat="40.7780955545604228973388671875" lon="-1.47186261601746082305908203125">
        <ele>1049.800048828125</ele>
        <time>2022-05-03T09:44:20.000Z</time>
      </trkpt>
      <trkpt lat="40.7780945487320423126220703125" lon="-1.471897400915622711181640625">
        <ele>1050</ele>
        <time>2022-05-03T09:44:21.000Z</time>
      </trkpt>
      <trkpt lat="40.77808834612369537353515625" lon="-1.4719706587493419647216796875">
        <ele>1050.199951171875</ele>
        <time>2022-05-03T09:44:23.000Z</time>
      </trkpt>
      <trkpt lat="40.778081305325031280517578125" lon="-1.472044922411441802978515625">
        <ele>1050.4000244140625</ele>
        <time>2022-05-03T09:44:25.000Z</time>
      </trkpt>
      <trkpt lat="40.77807652764022350311279296875" lon="-1.47211977280676364898681640625">
        <ele>1050.4000244140625</ele>
        <time>2022-05-03T09:44:27.000Z</time>
      </trkpt>
      <trkpt lat="40.7780717499554157257080078125" lon="-1.47219479084014892578125">
        <ele>1050.5999755859375</ele>
        <time>2022-05-03T09:44:29.000Z</time>
      </trkpt>
      <trkpt lat="40.77806563116610050201416015625" lon="-1.47226930595934391021728515625">
        <ele>1050.800048828125</ele>
        <time>2022-05-03T09:44:31.000Z</time>
      </trkpt>
      <trkpt lat="40.778060853481292724609375" lon="-1.47234356962144374847412109375">
        <ele>1051</ele>
        <time>2022-05-03T09:44:33.000Z</time>
      </trkpt>
      <trkpt lat="40.778053812682628631591796875" lon="-1.4724205993115901947021484375">
        <ele>1050.800048828125</ele>
        <time>2022-05-03T09:44:35.000Z</time>
      </trkpt>
      <trkpt lat="40.77805054374039173126220703125" lon="-1.47246024571359157562255859375">
        <ele>1050.800048828125</ele>
        <time>2022-05-03T09:44:36.000Z</time>
      </trkpt>
      <trkpt lat="40.77804786153137683868408203125" lon="-1.47250114940106868743896484375">
        <ele>1050.800048828125</ele>
        <time>2022-05-03T09:44:37.000Z</time>
      </trkpt>
      <trkpt lat="40.7780420780181884765625" lon="-1.47258463315665721893310546875">
        <ele>1050.800048828125</ele>
        <time>2022-05-03T09:44:39.000Z</time>
      </trkpt>
      <trkpt lat="40.778039731085300445556640625" lon="-1.47266861982643604278564453125">
        <ele>1050.5999755859375</ele>
        <time>2022-05-03T09:44:41.000Z</time>
      </trkpt>
      <trkpt lat="40.77803478576242923736572265625" lon="-1.47275528870522975921630859375">
        <ele>1050.5999755859375</ele>
        <time>2022-05-03T09:44:43.000Z</time>
      </trkpt>
      <trkpt lat="40.77802891843020915985107421875" lon="-1.4728430472314357757568359375">
        <ele>1050.4000244140625</ele>
        <time>2022-05-03T09:44:45.000Z</time>
      </trkpt>
      <trkpt lat="40.778024978935718536376953125" lon="-1.4728862978518009185791015625">
        <ele>1050.4000244140625</ele>
        <time>2022-05-03T09:44:46.000Z</time>
      </trkpt>
      <trkpt lat="40.77802120707929134368896484375" lon="-1.47292929701507091522216796875">
        <ele>1050.4000244140625</ele>
        <time>2022-05-03T09:44:47.000Z</time>
      </trkpt>
      <trkpt lat="40.7780150882899761199951171875" lon="-1.4730155467987060546875">
        <ele>1050.199951171875</ele>
        <time>2022-05-03T09:44:49.000Z</time>
      </trkpt>
      <trkpt lat="40.77801248989999294281005859375" lon="-1.4730579592287540435791015625">
        <ele>1050.199951171875</ele>
        <time>2022-05-03T09:44:50.000Z</time>
      </trkpt>
      <trkpt lat="40.778009891510009765625" lon="-1.47310062311589717864990234375">
        <ele>1050.199951171875</ele>
        <time>2022-05-03T09:44:51.000Z</time>
      </trkpt>
      <trkpt lat="40.77800544910132884979248046875" lon="-1.47318494506180286407470703125">
        <ele>1050.199951171875</ele>
        <time>2022-05-03T09:44:53.000Z</time>
      </trkpt>
      <trkpt lat="40.7780006714165210723876953125" lon="-1.4732690155506134033203125">
        <ele>1050.4000244140625</ele>
        <time>2022-05-03T09:44:55.000Z</time>
      </trkpt>
      <trkpt lat="40.77799589373171329498291015625" lon="-1.47335493005812168121337890625">
        <ele>1050.5999755859375</ele>
        <time>2022-05-03T09:44:57.000Z</time>
      </trkpt>
      <trkpt lat="40.77799455262720584869384765625" lon="-1.4733996056020259857177734375">
        <ele>1050.5999755859375</ele>
        <time>2022-05-03T09:44:58.000Z</time>
      </trkpt>
      <trkpt lat="40.77799254097044467926025390625" lon="-1.47344444878399372100830078125">
        <ele>1050.800048828125</ele>
        <time>2022-05-03T09:44:59.000Z</time>
      </trkpt>
      <trkpt lat="40.77798642218112945556640625" lon="-1.47353296168148517608642578125">
        <ele>1051</ele>
        <time>2022-05-03T09:45:01.000Z</time>
      </trkpt>
      <trkpt lat="40.7779817283153533935546875" lon="-1.47361963056027889251708984375">
        <ele>1051.199951171875</ele>
        <time>2022-05-03T09:45:03.000Z</time>
      </trkpt>
      <trkpt lat="40.77797896228730678558349609375" lon="-1.4736634679138660430908203125">
        <ele>1051.199951171875</ele>
        <time>2022-05-03T09:45:04.000Z</time>
      </trkpt>
      <trkpt lat="40.77797569334506988525390625" lon="-1.47370747290551662445068359375">
        <ele>1051.4000244140625</ele>
        <time>2022-05-03T09:45:05.000Z</time>
      </trkpt>
      <trkpt lat="40.7779704965651035308837890625" lon="-1.4737948961555957794189453125">
        <ele>1051.5999755859375</ele>
        <time>2022-05-03T09:45:07.000Z</time>
      </trkpt>
      <trkpt lat="40.777966976165771484375" lon="-1.47388248704373836517333984375">
        <ele>1051.800048828125</ele>
        <time>2022-05-03T09:45:09.000Z</time>
      </trkpt>
      <trkpt lat="40.777964293956756591796875" lon="-1.47392590530216693878173828125">
        <ele>1052</ele>
        <time>2022-05-03T09:45:10.000Z</time>
      </trkpt>
      <trkpt lat="40.77796136029064655303955078125" lon="-1.47396915592253208160400390625">
        <ele>1052</ele>
        <time>2022-05-03T09:45:11.000Z</time>
      </trkpt>
      <trkpt lat="40.77795733697712421417236328125" lon="-1.47405331023037433624267578125">
        <ele>1052.4000244140625</ele>
        <time>2022-05-03T09:45:13.000Z</time>
      </trkpt>
      <trkpt lat="40.77795423567295074462890625" lon="-1.4741380512714385986328125">
        <ele>1052.4000244140625</ele>
        <time>2022-05-03T09:45:15.000Z</time>
      </trkpt>
      <trkpt lat="40.7779517211019992828369140625" lon="-1.4741809666156768798828125">
        <ele>1052.4000244140625</ele>
        <time>2022-05-03T09:45:16.000Z</time>
      </trkpt>
      <trkpt lat="40.77794895507395267486572265625" lon="-1.47422295995056629180908203125">
        <ele>1052.4000244140625</ele>
        <time>2022-05-03T09:45:17.000Z</time>
      </trkpt>
      <trkpt lat="40.77794409357011318206787109375" lon="-1.474304683506488800048828125">
        <ele>1052.4000244140625</ele>
        <time>2022-05-03T09:45:19.000Z</time>
      </trkpt>
      <trkpt lat="40.7779423333704471588134765625" lon="-1.474344246089458465576171875">
        <ele>1052.4000244140625</ele>
        <time>2022-05-03T09:45:20.000Z</time>
      </trkpt>
      <trkpt lat="40.7779403217136859893798828125" lon="-1.474383808672428131103515625">
        <ele>1052.199951171875</ele>
        <time>2022-05-03T09:45:21.000Z</time>
      </trkpt>
      <trkpt lat="40.77793554402887821197509765625" lon="-1.47446134127676486968994140625">
        <ele>1052.199951171875</ele>
        <time>2022-05-03T09:45:23.000Z</time>
      </trkpt>
      <trkpt lat="40.77793168835341930389404296875" lon="-1.47453560493886470794677734375">
        <ele>1052.199951171875</ele>
        <time>2022-05-03T09:45:25.000Z</time>
      </trkpt>
      <trkpt lat="40.7779272459447383880615234375" lon="-1.47460567764937877655029296875">
        <ele>1052.199951171875</ele>
        <time>2022-05-03T09:45:27.000Z</time>
      </trkpt>
      <trkpt lat="40.777923725545406341552734375" lon="-1.4746743254363536834716796875">
        <ele>1052</ele>
        <time>2022-05-03T09:45:29.000Z</time>
      </trkpt>
      <trkpt lat="40.77791945077478885650634765625" lon="-1.47474364377558231353759765625">
        <ele>1052</ele>
        <time>2022-05-03T09:45:31.000Z</time>
      </trkpt>
      <trkpt lat="40.7779151760041713714599609375" lon="-1.474815644323825836181640625">
        <ele>1052</ele>
        <time>2022-05-03T09:45:33.000Z</time>
      </trkpt>
      <trkpt lat="40.77790922485291957855224609375" lon="-1.474892757833003997802734375">
        <ele>1052</ele>
        <time>2022-05-03T09:45:35.000Z</time>
      </trkpt>
      <trkpt lat="40.77790386043488979339599609375" lon="-1.474976576864719390869140625">
        <ele>1052.199951171875</ele>
        <time>2022-05-03T09:45:37.000Z</time>
      </trkpt>
      <trkpt lat="40.77789866365492343902587890625" lon="-1.4750645868480205535888671875">
        <ele>1052.5999755859375</ele>
        <time>2022-05-03T09:45:39.000Z</time>
      </trkpt>
      <trkpt lat="40.7778953947126865386962890625" lon="-1.4751091785728931427001953125">
        <ele>1052.800048828125</ele>
        <time>2022-05-03T09:45:40.000Z</time>
      </trkpt>
      <trkpt lat="40.7778923772275447845458984375" lon="-1.47515586577355861663818359375">
        <ele>1053</ele>
        <time>2022-05-03T09:45:41.000Z</time>
      </trkpt>
      <trkpt lat="40.7778863422572612762451171875" lon="-1.47525175474584102630615234375">
        <ele>1053.199951171875</ele>
        <time>2022-05-03T09:45:43.000Z</time>
      </trkpt>
      <trkpt lat="40.7778816483914852142333984375" lon="-1.47535300813615322113037109375">
        <ele>1053.5999755859375</ele>
        <time>2022-05-03T09:45:45.000Z</time>
      </trkpt>
      <trkpt lat="40.7778752781450748443603515625" lon="-1.4754615537822246551513671875">
        <ele>1054.199951171875</ele>
        <time>2022-05-03T09:45:47.000Z</time>
      </trkpt>
      <trkpt lat="40.7778715901076793670654296875" lon="-1.47551871836185455322265625">
        <ele>1054.4000244140625</ele>
        <time>2022-05-03T09:45:48.000Z</time>
      </trkpt>
      <trkpt lat="40.77786748297512531280517578125" lon="-1.4755765534937381744384765625">
        <ele>1054.5999755859375</ele>
        <time>2022-05-03T09:45:49.000Z</time>
      </trkpt>
      <trkpt lat="40.77786094509065151214599609375" lon="-1.4756952412426471710205078125">
        <ele>1054.800048828125</ele>
        <time>2022-05-03T09:45:51.000Z</time>
      </trkpt>
      <trkpt lat="40.777856670320034027099609375" lon="-1.47581820376217365264892578125">
        <ele>1054.4000244140625</ele>
        <time>2022-05-03T09:45:53.000Z</time>
      </trkpt>
      <trkpt lat="40.77784786932170391082763671875" lon="-1.47594653069972991943359375">
        <ele>1054.199951171875</ele>
        <time>2022-05-03T09:45:55.000Z</time>
      </trkpt>
      <trkpt lat="40.77783730812370777130126953125" lon="-1.47607670165598392486572265625">
        <ele>1054.199951171875</ele>
        <time>2022-05-03T09:45:57.000Z</time>
      </trkpt>
      <trkpt lat="40.77782951295375823974609375" lon="-1.47620410658419132232666015625">
        <ele>1054.199951171875</ele>
        <time>2022-05-03T09:45:59.000Z</time>
      </trkpt>
      <trkpt lat="40.77782356180250644683837890625" lon="-1.4763289131224155426025390625">
        <ele>1054.199951171875</ele>
        <time>2022-05-03T09:46:01.000Z</time>
      </trkpt>
      <trkpt lat="40.777815766632556915283203125" lon="-1.47645237855613231658935546875">
        <ele>1054.199951171875</ele>
        <time>2022-05-03T09:46:03.000Z</time>
      </trkpt>
      <trkpt lat="40.7778082229197025299072265625" lon="-1.47657559253275394439697265625">
        <ele>1054.199951171875</ele>
        <time>2022-05-03T09:46:05.000Z</time>
      </trkpt>
      <trkpt lat="40.77780009247362613677978515625" lon="-1.47670090198516845703125">
        <ele>1054</ele>
        <time>2022-05-03T09:46:07.000Z</time>
      </trkpt>
      <trkpt lat="40.77779221348464488983154296875" lon="-1.47682352922856807708740234375">
        <ele>1054</ele>
        <time>2022-05-03T09:46:09.000Z</time>
      </trkpt>
      <trkpt lat="40.77778584323823451995849609375" lon="-1.47694841958582401275634765625">
        <ele>1053.800048828125</ele>
        <time>2022-05-03T09:46:11.000Z</time>
      </trkpt>
      <trkpt lat="40.777780227363109588623046875" lon="-1.4770732261240482330322265625">
        <ele>1053.5999755859375</ele>
        <time>2022-05-03T09:46:13.000Z</time>
      </trkpt>
      <trkpt lat="40.77777385711669921875" lon="-1.477191410958766937255859375">
        <ele>1053.4000244140625</ele>
        <time>2022-05-03T09:46:15.000Z</time>
      </trkpt>
      <trkpt lat="40.77776555903255939483642578125" lon="-1.47730599157512187957763671875">
        <ele>1053.4000244140625</ele>
        <time>2022-05-03T09:46:17.000Z</time>
      </trkpt>
      <trkpt lat="40.77776254154741764068603515625" lon="-1.4773632399737834930419921875">
        <ele>1053.4000244140625</ele>
        <time>2022-05-03T09:46:18.000Z</time>
      </trkpt>
      <trkpt lat="40.77775969170033931732177734375" lon="-1.47742040455341339111328125">
        <ele>1053.5999755859375</ele>
        <time>2022-05-03T09:46:19.000Z</time>
      </trkpt>
      <trkpt lat="40.7777537405490875244140625" lon="-1.47753414697945117950439453125">
        <ele>1053.800048828125</ele>
        <time>2022-05-03T09:46:21.000Z</time>
      </trkpt>
      <trkpt lat="40.77774879522621631622314453125" lon="-1.4776544272899627685546875">
        <ele>1054.199951171875</ele>
        <time>2022-05-03T09:46:23.000Z</time>
      </trkpt>
      <trkpt lat="40.77774041332304477691650390625" lon="-1.47777873091399669647216796875">
        <ele>1054.800048828125</ele>
        <time>2022-05-03T09:46:25.000Z</time>
      </trkpt>
      <trkpt lat="40.7777321152389049530029296875" lon="-1.47790093906223773956298828125">
        <ele>1055.4000244140625</ele>
        <time>2022-05-03T09:46:27.000Z</time>
      </trkpt>
      <trkpt lat="40.77772893011569976806640625" lon="-1.4779590256512165069580078125">
        <ele>1055.5999755859375</ele>
        <time>2022-05-03T09:46:28.000Z</time>
      </trkpt>
      <trkpt lat="40.7777260802686214447021484375" lon="-1.47801359184086322784423828125">
        <ele>1056</ele>
        <time>2022-05-03T09:46:29.000Z</time>
      </trkpt>
      <trkpt lat="40.77772012911736965179443359375" lon="-1.4781199581921100616455078125">
        <ele>1056.4000244140625</ele>
        <time>2022-05-03T09:46:31.000Z</time>
      </trkpt>
      <trkpt lat="40.77771409414708614349365234375" lon="-1.47822104394435882568359375">
        <ele>1056.5999755859375</ele>
        <time>2022-05-03T09:46:33.000Z</time>
      </trkpt>
      <trkpt lat="40.77770705334842205047607421875" lon="-1.47831819020211696624755859375">
        <ele>1056.800048828125</ele>
        <time>2022-05-03T09:46:35.000Z</time>
      </trkpt>
      <trkpt lat="40.77770118601620197296142578125" lon="-1.478413157165050506591796875">
        <ele>1056.800048828125</ele>
        <time>2022-05-03T09:46:37.000Z</time>
      </trkpt>
      <trkpt lat="40.7776987552642822265625" lon="-1.47845950908958911895751953125">
        <ele>1057</ele>
        <time>2022-05-03T09:46:38.000Z</time>
      </trkpt>
      <trkpt lat="40.77769531868398189544677734375" lon="-1.478505022823810577392578125">
        <ele>1057</ele>
        <time>2022-05-03T09:46:39.000Z</time>
      </trkpt>
      <trkpt lat="40.77769129537045955657958984375" lon="-1.4785937033593654632568359375">
        <ele>1057</ele>
        <time>2022-05-03T09:46:41.000Z</time>
      </trkpt>
      <trkpt lat="40.7776878587901592254638671875" lon="-1.47868330590426921844482421875">
        <ele>1057.199951171875</ele>
        <time>2022-05-03T09:46:43.000Z</time>
      </trkpt>
      <trkpt lat="40.7776848413050174713134765625" lon="-1.47877399809658527374267578125">
        <ele>1057.199951171875</ele>
        <time>2022-05-03T09:46:45.000Z</time>
      </trkpt>
      <trkpt lat="40.77768006362020969390869140625" lon="-1.47886536084115505218505859375">
        <ele>1057.4000244140625</ele>
        <time>2022-05-03T09:46:47.000Z</time>
      </trkpt>
      <trkpt lat="40.77767419628798961639404296875" lon="-1.47895504720509052276611328125">
        <ele>1057.5999755859375</ele>
        <time>2022-05-03T09:46:49.000Z</time>
      </trkpt>
      <trkpt lat="40.77767101116478443145751953125" lon="-1.479042470455169677734375">
        <ele>1057.5999755859375</ele>
        <time>2022-05-03T09:46:51.000Z</time>
      </trkpt>
      <trkpt lat="40.77766581438481807708740234375" lon="-1.4791318215429782867431640625">
        <ele>1057.800048828125</ele>
        <time>2022-05-03T09:46:53.000Z</time>
      </trkpt>
      <trkpt lat="40.7776627130806446075439453125" lon="-1.479176916182041168212890625">
        <ele>1058</ele>
        <time>2022-05-03T09:46:54.000Z</time>
      </trkpt>
      <trkpt lat="40.77765977941453456878662109375" lon="-1.4792223460972309112548828125">
        <ele>1058</ele>
        <time>2022-05-03T09:46:55.000Z</time>
      </trkpt>
      <trkpt lat="40.777656845748424530029296875" lon="-1.47926752455532550811767578125">
        <ele>1058.199951171875</ele>
        <time>2022-05-03T09:46:56.000Z</time>
      </trkpt>
      <trkpt lat="40.77765391208231449127197265625" lon="-1.47931228391826152801513671875">
        <ele>1058.199951171875</ele>
        <time>2022-05-03T09:46:57.000Z</time>
      </trkpt>
      <trkpt lat="40.77764854766428470611572265625" lon="-1.47940029390156269073486328125">
        <ele>1058.5999755859375</ele>
        <time>2022-05-03T09:46:59.000Z</time>
      </trkpt>
      <trkpt lat="40.77764653600752353668212890625" lon="-1.47944413125514984130859375">
        <ele>1058.800048828125</ele>
        <time>2022-05-03T09:47:00.000Z</time>
      </trkpt>
      <trkpt lat="40.7776442728936672210693359375" lon="-1.47948696278035640716552734375">
        <ele>1059</ele>
        <time>2022-05-03T09:47:01.000Z</time>
      </trkpt>
      <trkpt lat="40.777638070285320281982421875" lon="-1.47957245819270610809326171875">
        <ele>1059.4000244140625</ele>
        <time>2022-05-03T09:47:03.000Z</time>
      </trkpt>
      <trkpt lat="40.7776352204382419586181640625" lon="-1.4796538464725017547607421875">
        <ele>1060</ele>
        <time>2022-05-03T09:47:05.000Z</time>
      </trkpt>
      <trkpt lat="40.77763102948665618896484375" lon="-1.47973339073359966278076171875">
        <ele>1060.4000244140625</ele>
        <time>2022-05-03T09:47:07.000Z</time>
      </trkpt>
      <trkpt lat="40.77762708999216556549072265625" lon="-1.47981469519436359405517578125">
        <ele>1060.800048828125</ele>
        <time>2022-05-03T09:47:09.000Z</time>
      </trkpt>
      <trkpt lat="40.77761954627931118011474609375" lon="-1.4798969216644763946533203125">
        <ele>1061</ele>
        <time>2022-05-03T09:47:11.000Z</time>
      </trkpt>
      <trkpt lat="40.77761233784258365631103515625" lon="-1.47997830994427204132080078125">
        <ele>1061</ele>
        <time>2022-05-03T09:47:13.000Z</time>
      </trkpt>
      <trkpt lat="40.77760663814842700958251953125" lon="-1.4800571836531162261962890625">
        <ele>1061.199951171875</ele>
        <time>2022-05-03T09:47:15.000Z</time>
      </trkpt>
      <trkpt lat="40.77760219573974609375" lon="-1.48013840429484844207763671875">
        <ele>1061.199951171875</ele>
        <time>2022-05-03T09:47:17.000Z</time>
      </trkpt>
      <trkpt lat="40.77759892679750919342041015625" lon="-1.48022063076496124267578125">
        <ele>1061.4000244140625</ele>
        <time>2022-05-03T09:47:19.000Z</time>
      </trkpt>
      <trkpt lat="40.7775956578552722930908203125" lon="-1.48030646145343780517578125">
        <ele>1061.4000244140625</ele>
        <time>2022-05-03T09:47:21.000Z</time>
      </trkpt>
      <trkpt lat="40.77759222127497196197509765625" lon="-1.48039639927446842193603515625">
        <ele>1061.4000244140625</ele>
        <time>2022-05-03T09:47:23.000Z</time>
      </trkpt>
      <trkpt lat="40.7775862701237201690673828125" lon="-1.48049212060868740081787109375">
        <ele>1061.4000244140625</ele>
        <time>2022-05-03T09:47:25.000Z</time>
      </trkpt>
      <trkpt lat="40.777583085000514984130859375" lon="-1.4805429987609386444091796875">
        <ele>1061.4000244140625</ele>
        <time>2022-05-03T09:47:26.000Z</time>
      </trkpt>
      <trkpt lat="40.77758031897246837615966796875" lon="-1.48059622384607791900634765625">
        <ele>1061.4000244140625</ele>
        <time>2022-05-03T09:47:27.000Z</time>
      </trkpt>
      <trkpt lat="40.77757713384926319122314453125" lon="-1.4807116426527500152587890625">
        <ele>1061</ele>
        <time>2022-05-03T09:47:29.000Z</time>
      </trkpt>
      <trkpt lat="40.77757193706929683685302734375" lon="-1.4808474294841289520263671875">
        <ele>1060.4000244140625</ele>
        <time>2022-05-03T09:47:31.000Z</time>
      </trkpt>
      <trkpt lat="40.7775681652128696441650390625" lon="-1.4809240400791168212890625">
        <ele>1060</ele>
        <time>2022-05-03T09:47:32.000Z</time>
      </trkpt>
      <trkpt lat="40.7775641418993473052978515625" lon="-1.48100576363503932952880859375">
        <ele>1059.5999755859375</ele>
        <time>2022-05-03T09:47:33.000Z</time>
      </trkpt>
      <trkpt lat="40.7775552570819854736328125" lon="-1.48118161596357822418212890625">
        <ele>1058.5999755859375</ele>
        <time>2022-05-03T09:47:35.000Z</time>
      </trkpt>
      <trkpt lat="40.77755081467330455780029296875" lon="-1.4812745712697505950927734375">
        <ele>1057.800048828125</ele>
        <time>2022-05-03T09:47:36.000Z</time>
      </trkpt>
      <trkpt lat="40.777546875178813934326171875" lon="-1.481370292603969573974609375">
        <ele>1057</ele>
        <time>2022-05-03T09:47:37.000Z</time>
      </trkpt>
      <trkpt lat="40.7775436900556087493896484375" lon="-1.4814676903188228607177734375">
        <ele>1056.199951171875</ele>
        <time>2022-05-03T09:47:38.000Z</time>
      </trkpt>
      <trkpt lat="40.7775403372943401336669921875" lon="-1.4815659262239933013916015625">
        <ele>1055.800048828125</ele>
        <time>2022-05-03T09:47:39.000Z</time>
      </trkpt>
      <trkpt lat="40.777533464133739471435546875" lon="-1.48175996728241443634033203125">
        <ele>1055.4000244140625</ele>
        <time>2022-05-03T09:47:41.000Z</time>
      </trkpt>
      <trkpt lat="40.77752164565026760101318359375" lon="-1.48194654844701290130615234375">
        <ele>1055</ele>
        <time>2022-05-03T09:47:43.000Z</time>
      </trkpt>
      <trkpt lat="40.7775145210325717926025390625" lon="-1.48211904801428318023681640625">
        <ele>1054.5999755859375</ele>
        <time>2022-05-03T09:47:45.000Z</time>
      </trkpt>
      <trkpt lat="40.77751108445227146148681640625" lon="-1.4821989275515079498291015625">
        <ele>1054.5999755859375</ele>
        <time>2022-05-03T09:47:46.000Z</time>
      </trkpt>
      <trkpt lat="40.77750773169100284576416015625" lon="-1.48227386176586151123046875">
        <ele>1054.4000244140625</ele>
        <time>2022-05-03T09:47:47.000Z</time>
      </trkpt>
      <trkpt lat="40.777501948177814483642578125" lon="-1.48241274990141391754150390625">
        <ele>1054.5999755859375</ele>
        <time>2022-05-03T09:47:49.000Z</time>
      </trkpt>
      <trkpt lat="40.77749800868332386016845703125" lon="-1.48254208266735076904296875">
        <ele>1054.800048828125</ele>
        <time>2022-05-03T09:47:51.000Z</time>
      </trkpt>
      <trkpt lat="40.77749331481754779815673828125" lon="-1.4826646260917186737060546875">
        <ele>1055.199951171875</ele>
        <time>2022-05-03T09:47:53.000Z</time>
      </trkpt>
      <trkpt lat="40.77748862095177173614501953125" lon="-1.482781805098056793212890625">
        <ele>1055.4000244140625</ele>
        <time>2022-05-03T09:47:55.000Z</time>
      </trkpt>
      <trkpt lat="40.7774830050766468048095703125" lon="-1.4828939549624919891357421875">
        <ele>1055.5999755859375</ele>
        <time>2022-05-03T09:47:57.000Z</time>
      </trkpt>
      <trkpt lat="40.77747671864926815032958984375" lon="-1.48300183005630970001220703125">
        <ele>1055.800048828125</ele>
        <time>2022-05-03T09:47:59.000Z</time>
      </trkpt>
      <trkpt lat="40.7774732820689678192138671875" lon="-1.48310794495046138763427734375">
        <ele>1056</ele>
        <time>2022-05-03T09:48:01.000Z</time>
      </trkpt>
      <trkpt lat="40.77747068367898464202880859375" lon="-1.4832101203501224517822265625">
        <ele>1056.4000244140625</ele>
        <time>2022-05-03T09:48:03.000Z</time>
      </trkpt>
      <trkpt lat="40.77746867202222347259521484375" lon="-1.4832617528736591339111328125">
        <ele>1056.800048828125</ele>
        <time>2022-05-03T09:48:04.000Z</time>
      </trkpt>
      <trkpt lat="40.7774665765464305877685546875" lon="-1.48331263102591037750244140625">
        <ele>1057</ele>
        <time>2022-05-03T09:48:05.000Z</time>
      </trkpt>
      <trkpt lat="40.77746096067130565643310546875" lon="-1.48341405205428600311279296875">
        <ele>1057.800048828125</ele>
        <time>2022-05-03T09:48:07.000Z</time>
      </trkpt>
      <trkpt lat="40.77745710499584674835205078125" lon="-1.48351497016847133636474609375">
        <ele>1058.5999755859375</ele>
        <time>2022-05-03T09:48:09.000Z</time>
      </trkpt>
      <trkpt lat="40.7774514891207218170166015625" lon="-1.48361555300652980804443359375">
        <ele>1059.199951171875</ele>
        <time>2022-05-03T09:48:11.000Z</time>
      </trkpt>
      <trkpt lat="40.77744704671204090118408203125" lon="-1.483714878559112548828125">
        <ele>1060</ele>
        <time>2022-05-03T09:48:13.000Z</time>
      </trkpt>
      <trkpt lat="40.7774421013891696929931640625" lon="-1.48381236009299755096435546875">
        <ele>1060.5999755859375</ele>
        <time>2022-05-03T09:48:15.000Z</time>
      </trkpt>
      <trkpt lat="40.7774387486279010772705078125" lon="-1.4839098416268825531005859375">
        <ele>1060.800048828125</ele>
        <time>2022-05-03T09:48:17.000Z</time>
      </trkpt>
      <trkpt lat="40.77743413858115673065185546875" lon="-1.48400522768497467041015625">
        <ele>1061.199951171875</ele>
        <time>2022-05-03T09:48:19.000Z</time>
      </trkpt>
      <trkpt lat="40.7774291932582855224609375" lon="-1.4841022901237010955810546875">
        <ele>1061.199951171875</ele>
        <time>2022-05-03T09:48:21.000Z</time>
      </trkpt>
      <trkpt lat="40.77742491848766803741455078125" lon="-1.48420027457177639007568359375">
        <ele>1061.199951171875</ele>
        <time>2022-05-03T09:48:23.000Z</time>
      </trkpt>
      <trkpt lat="40.77742340974509716033935546875" lon="-1.4842491410672664642333984375">
        <ele>1061.199951171875</ele>
        <time>2022-05-03T09:48:24.000Z</time>
      </trkpt>
      <trkpt lat="40.7774223200976848602294921875" lon="-1.48429867811501026153564453125">
        <ele>1061.199951171875</ele>
        <time>2022-05-03T09:48:25.000Z</time>
      </trkpt>
      <trkpt lat="40.77741905115544795989990234375" lon="-1.48439842276275157928466796875">
        <ele>1061.199951171875</ele>
        <time>2022-05-03T09:48:27.000Z</time>
      </trkpt>
      <trkpt lat="40.77741645276546478271484375" lon="-1.48449934087693691253662109375">
        <ele>1061.199951171875</ele>
        <time>2022-05-03T09:48:29.000Z</time>
      </trkpt>
      <trkpt lat="40.777413435280323028564453125" lon="-1.4845959842205047607421875">
        <ele>1061.199951171875</ele>
        <time>2022-05-03T09:48:31.000Z</time>
      </trkpt>
      <trkpt lat="40.77741620130836963653564453125" lon="-1.484690196812152862548828125">
        <ele>1061.4000244140625</ele>
        <time>2022-05-03T09:48:33.000Z</time>
      </trkpt>
      <trkpt lat="40.777414776384830474853515625" lon="-1.484737135469913482666015625">
        <ele>1061.4000244140625</ele>
        <time>2022-05-03T09:48:34.000Z</time>
      </trkpt>
      <trkpt lat="40.7774132676422595977783203125" lon="-1.48478399030864238739013671875">
        <ele>1061.4000244140625</ele>
        <time>2022-05-03T09:48:35.000Z</time>
      </trkpt>
      <trkpt lat="40.7774095796048641204833984375" lon="-1.4848777838051319122314453125">
        <ele>1061.5999755859375</ele>
        <time>2022-05-03T09:48:37.000Z</time>
      </trkpt>
      <trkpt lat="40.77740438282489776611328125" lon="-1.48497107438743114471435546875">
        <ele>1061.800048828125</ele>
        <time>2022-05-03T09:48:39.000Z</time>
      </trkpt>
      <trkpt lat="40.7773981802165508270263671875" lon="-1.4850645326077938079833984375">
        <ele>1062.199951171875</ele>
        <time>2022-05-03T09:48:41.000Z</time>
      </trkpt>
      <trkpt lat="40.77738954685628414154052734375" lon="-1.48515849374234676361083984375">
        <ele>1062.4000244140625</ele>
        <time>2022-05-03T09:48:43.000Z</time>
      </trkpt>
      <trkpt lat="40.77738694846630096435546875" lon="-1.4852040074765682220458984375">
        <ele>1062.4000244140625</ele>
        <time>2022-05-03T09:48:44.000Z</time>
      </trkpt>
      <trkpt lat="40.777385272085666656494140625" lon="-1.48524868302047252655029296875">
        <ele>1062.5999755859375</ele>
        <time>2022-05-03T09:48:45.000Z</time>
      </trkpt>
      <trkpt lat="40.77738217078149318695068359375" lon="-1.48533216677606105804443359375">
        <ele>1062.800048828125</ele>
        <time>2022-05-03T09:48:47.000Z</time>
      </trkpt>
      <trkpt lat="40.77737965621054172515869140625" lon="-1.48541313596069812774658203125">
        <ele>1063</ele>
        <time>2022-05-03T09:48:49.000Z</time>
      </trkpt>
      <trkpt lat="40.777379237115383148193359375" lon="-1.48549611680209636688232421875">
        <ele>1063.199951171875</ele>
        <time>2022-05-03T09:48:51.000Z</time>
      </trkpt>
      <trkpt lat="40.77737831510603427886962890625" lon="-1.48553542792797088623046875">
        <ele>1063.199951171875</ele>
        <time>2022-05-03T09:48:52.000Z</time>
      </trkpt>
      <trkpt lat="40.7773783989250659942626953125" lon="-1.48557423613965511322021484375">
        <ele>1063.4000244140625</ele>
        <time>2022-05-03T09:48:53.000Z</time>
      </trkpt>
      <trkpt lat="40.77737881802022457122802734375" lon="-1.48565185256302356719970703125">
        <ele>1063.5999755859375</ele>
        <time>2022-05-03T09:48:55.000Z</time>
      </trkpt>
      <trkpt lat="40.77737546525895595550537109375" lon="-1.4857305586338043212890625">
        <ele>1063.800048828125</ele>
        <time>2022-05-03T09:48:57.000Z</time>
      </trkpt>
      <trkpt lat="40.7773728668689727783203125" lon="-1.4857702888548374176025390625">
        <ele>1064</ele>
        <time>2022-05-03T09:48:58.000Z</time>
      </trkpt>
      <trkpt lat="40.77737093903124332427978515625" lon="-1.48580968379974365234375">
        <ele>1064.199951171875</ele>
        <time>2022-05-03T09:48:59.000Z</time>
      </trkpt>
      <trkpt lat="40.777368843555450439453125" lon="-1.4858494140207767486572265625">
        <ele>1064.199951171875</ele>
        <time>2022-05-03T09:49:00.000Z</time>
      </trkpt>
      <trkpt lat="40.77736708335578441619873046875" lon="-1.4858889766037464141845703125">
        <ele>1064.4000244140625</ele>
        <time>2022-05-03T09:49:01.000Z</time>
      </trkpt>
      <trkpt lat="40.7773648202419281005859375" lon="-1.48596684448421001434326171875">
        <ele>1064.800048828125</ele>
        <time>2022-05-03T09:49:03.000Z</time>
      </trkpt>
      <trkpt lat="40.7773629762232303619384765625" lon="-1.486046724021434783935546875">
        <ele>1065</ele>
        <time>2022-05-03T09:49:05.000Z</time>
      </trkpt>
      <trkpt lat="40.77735903672873973846435546875" lon="-1.48613062687218189239501953125">
        <ele>1065.4000244140625</ele>
        <time>2022-05-03T09:49:07.000Z</time>
      </trkpt>
      <trkpt lat="40.77735618688166141510009765625" lon="-1.4862155355513095855712890625">
        <ele>1065.5999755859375</ele>
        <time>2022-05-03T09:49:09.000Z</time>
      </trkpt>
      <trkpt lat="40.77735300175845623016357421875" lon="-1.48629776202142238616943359375">
        <ele>1066</ele>
        <time>2022-05-03T09:49:11.000Z</time>
      </trkpt>
      <trkpt lat="40.77734730206429958343505859375" lon="-1.4863794855773448944091796875">
        <ele>1066.199951171875</ele>
        <time>2022-05-03T09:49:13.000Z</time>
      </trkpt>
      <trkpt lat="40.7773455418646335601806640625" lon="-1.48645970039069652557373046875">
        <ele>1066.5999755859375</ele>
        <time>2022-05-03T09:49:15.000Z</time>
      </trkpt>
      <trkpt lat="40.77734260819852352142333984375" lon="-1.4865380711853504180908203125">
        <ele>1066.800048828125</ele>
        <time>2022-05-03T09:49:17.000Z</time>
      </trkpt>
      <trkpt lat="40.7773415185511112213134765625" lon="-1.4866175316274166107177734375">
        <ele>1067</ele>
        <time>2022-05-03T09:49:19.000Z</time>
      </trkpt>
      <trkpt lat="40.7773379981517791748046875" lon="-1.48669774644076824188232421875">
        <ele>1067.199951171875</ele>
        <time>2022-05-03T09:49:21.000Z</time>
      </trkpt>
      <trkpt lat="40.77733338810503482818603515625" lon="-1.48677594959735870361328125">
        <ele>1067.4000244140625</ele>
        <time>2022-05-03T09:49:23.000Z</time>
      </trkpt>
      <trkpt lat="40.77733087353408336639404296875" lon="-1.48685163818299770355224609375">
        <ele>1067.5999755859375</ele>
        <time>2022-05-03T09:49:25.000Z</time>
      </trkpt>
      <trkpt lat="40.77732928097248077392578125" lon="-1.48688952438533306121826171875">
        <ele>1067.5999755859375</ele>
        <time>2022-05-03T09:49:26.000Z</time>
      </trkpt>
      <trkpt lat="40.777327604591846466064453125" lon="-1.48692841641604900360107421875">
        <ele>1067.800048828125</ele>
        <time>2022-05-03T09:49:27.000Z</time>
      </trkpt>
      <trkpt lat="40.777326263487339019775390625" lon="-1.4870046079158782958984375">
        <ele>1068</ele>
        <time>2022-05-03T09:49:29.000Z</time>
      </trkpt>
      <trkpt lat="40.7773247547447681427001953125" lon="-1.4870802126824855804443359375">
        <ele>1068.199951171875</ele>
        <time>2022-05-03T09:49:31.000Z</time>
      </trkpt>
      <trkpt lat="40.777322240173816680908203125" lon="-1.48715942166745662689208984375">
        <ele>1068.4000244140625</ele>
        <time>2022-05-03T09:49:33.000Z</time>
      </trkpt>
      <trkpt lat="40.77731813304126262664794921875" lon="-1.487239636480808258056640625">
        <ele>1068.5999755859375</ele>
        <time>2022-05-03T09:49:35.000Z</time>
      </trkpt>
      <trkpt lat="40.77731545083224773406982421875" lon="-1.4873142354190349578857421875">
        <ele>1069</ele>
        <time>2022-05-03T09:49:37.000Z</time>
      </trkpt>
      <trkpt lat="40.77731377445161342620849609375" lon="-1.48738807998597621917724609375">
        <ele>1069</ele>
        <time>2022-05-03T09:49:39.000Z</time>
      </trkpt>
      <trkpt lat="40.7773123495280742645263671875" lon="-1.48742646910250186920166015625">
        <ele>1069.199951171875</ele>
        <time>2022-05-03T09:49:40.000Z</time>
      </trkpt>
      <trkpt lat="40.7773103378713130950927734375" lon="-1.4874647743999958038330078125">
        <ele>1069.199951171875</ele>
        <time>2022-05-03T09:49:41.000Z</time>
      </trkpt>
      <trkpt lat="40.77730572782456874847412109375" lon="-1.48754306137561798095703125">
        <ele>1069.199951171875</ele>
        <time>2022-05-03T09:49:43.000Z</time>
      </trkpt>
      <trkpt lat="40.77729935757815837860107421875" lon="-1.48762143217027187347412109375">
        <ele>1069.4000244140625</ele>
        <time>2022-05-03T09:49:45.000Z</time>
      </trkpt>
      <trkpt lat="40.77729566954076290130615234375" lon="-1.48766133002936840057373046875">
        <ele>1069.4000244140625</ele>
        <time>2022-05-03T09:49:46.000Z</time>
      </trkpt>
      <trkpt lat="40.777292735874652862548828125" lon="-1.4877008087933063507080078125">
        <ele>1069.4000244140625</ele>
        <time>2022-05-03T09:49:47.000Z</time>
      </trkpt>
      <trkpt lat="40.77729097567498683929443359375" lon="-1.4877772517502307891845703125">
        <ele>1069.5999755859375</ele>
        <time>2022-05-03T09:49:49.000Z</time>
      </trkpt>
      <trkpt lat="40.7772882096469402313232421875" lon="-1.4878533594310283660888671875">
        <ele>1069.5999755859375</ele>
        <time>2022-05-03T09:49:51.000Z</time>
      </trkpt>
      <trkpt lat="40.77728494070470333099365234375" lon="-1.48793055675923824310302734375">
        <ele>1069.800048828125</ele>
        <time>2022-05-03T09:49:53.000Z</time>
      </trkpt>
      <trkpt lat="40.77728234231472015380859375" lon="-1.48800800554454326629638671875">
        <ele>1069.800048828125</ele>
        <time>2022-05-03T09:49:55.000Z</time>
      </trkpt>
      <trkpt lat="40.77727756462991237640380859375" lon="-1.48808863945305347442626953125">
        <ele>1070</ele>
        <time>2022-05-03T09:49:57.000Z</time>
      </trkpt>
      <trkpt lat="40.777273960411548614501953125" lon="-1.48816692642867565155029296875">
        <ele>1070</ele>
        <time>2022-05-03T09:49:59.000Z</time>
      </trkpt>
      <trkpt lat="40.77727253548800945281982421875" lon="-1.488244123756885528564453125">
        <ele>1070.199951171875</ele>
        <time>2022-05-03T09:50:01.000Z</time>
      </trkpt>
      <trkpt lat="40.7772751338779926300048828125" lon="-1.48832081817090511322021484375">
        <ele>1070.4000244140625</ele>
        <time>2022-05-03T09:50:03.000Z</time>
      </trkpt>
      <trkpt lat="40.777275301516056060791015625" lon="-1.4883995242416858673095703125">
        <ele>1070.800048828125</ele>
        <time>2022-05-03T09:50:05.000Z</time>
      </trkpt>
      <trkpt lat="40.7772709429264068603515625" lon="-1.48847957141697406768798828125">
        <ele>1071</ele>
        <time>2022-05-03T09:50:07.000Z</time>
      </trkpt>
      <trkpt lat="40.7772654108703136444091796875" lon="-1.4885594509541988372802734375">
        <ele>1071.4000244140625</ele>
        <time>2022-05-03T09:50:09.000Z</time>
      </trkpt>
      <trkpt lat="40.77726348303258419036865234375" lon="-1.48859926499426364898681640625">
        <ele>1071.5999755859375</ele>
        <time>2022-05-03T09:50:10.000Z</time>
      </trkpt>
      <trkpt lat="40.777260549366474151611328125" lon="-1.48863832466304302215576171875">
        <ele>1071.5999755859375</ele>
        <time>2022-05-03T09:50:11.000Z</time>
      </trkpt>
      <trkpt lat="40.777256190776824951171875" lon="-1.48871711455285549163818359375">
        <ele>1072</ele>
        <time>2022-05-03T09:50:13.000Z</time>
      </trkpt>
      <trkpt lat="40.7772516645491123199462890625" lon="-1.48879456333816051483154296875">
        <ele>1072.199951171875</ele>
        <time>2022-05-03T09:50:15.000Z</time>
      </trkpt>
      <trkpt lat="40.777248479425907135009765625" lon="-1.488868407905101776123046875">
        <ele>1072.4000244140625</ele>
        <time>2022-05-03T09:50:17.000Z</time>
      </trkpt>
      <trkpt lat="40.77724613249301910400390625" lon="-1.48890453390777111053466796875">
        <ele>1072.5999755859375</ele>
        <time>2022-05-03T09:50:18.000Z</time>
      </trkpt>
      <trkpt lat="40.777244456112384796142578125" lon="-1.4889413304626941680908203125">
        <ele>1072.800048828125</ele>
        <time>2022-05-03T09:50:19.000Z</time>
      </trkpt>
      <trkpt lat="40.77724353410303592681884765625" lon="-1.4890167675912380218505859375">
        <ele>1073</ele>
        <time>2022-05-03T09:50:21.000Z</time>
      </trkpt>
      <trkpt lat="40.77724001370370388031005859375" lon="-1.48909631185233592987060546875">
        <ele>1073.4000244140625</ele>
        <time>2022-05-03T09:50:23.000Z</time>
      </trkpt>
      <trkpt lat="40.777235068380832672119140625" lon="-1.4891773648560047149658203125">
        <ele>1073.800048828125</ele>
        <time>2022-05-03T09:50:25.000Z</time>
      </trkpt>
      <trkpt lat="40.77723196707665920257568359375" lon="-1.48925657384097576141357421875">
        <ele>1074.199951171875</ele>
        <time>2022-05-03T09:50:27.000Z</time>
      </trkpt>
      <trkpt lat="40.77722911722958087921142578125" lon="-1.489295549690723419189453125">
        <ele>1074.4000244140625</ele>
        <time>2022-05-03T09:50:28.000Z</time>
      </trkpt>
      <trkpt lat="40.777227021753787994384765625" lon="-1.489331759512424468994140625">
        <ele>1074.5999755859375</ele>
        <time>2022-05-03T09:50:29.000Z</time>
      </trkpt>
      <trkpt lat="40.77722593210637569427490234375" lon="-1.489401496946811676025390625">
        <ele>1075</ele>
        <time>2022-05-03T09:50:31.000Z</time>
      </trkpt>
      <trkpt lat="40.77722542919218540191650390625" lon="-1.48946997709572315216064453125">
        <ele>1075.199951171875</ele>
        <time>2022-05-03T09:50:33.000Z</time>
      </trkpt>
      <trkpt lat="40.7772248424589633941650390625" lon="-1.48950467817485332489013671875">
        <ele>1075.4000244140625</ele>
        <time>2022-05-03T09:50:34.000Z</time>
      </trkpt>
      <trkpt lat="40.77722467482089996337890625" lon="-1.489538960158824920654296875">
        <ele>1075.5999755859375</ele>
        <time>2022-05-03T09:50:35.000Z</time>
      </trkpt>
      <trkpt lat="40.77721939422190189361572265625" lon="-1.48960811085999011993408203125">
        <ele>1076</ele>
        <time>2022-05-03T09:50:37.000Z</time>
      </trkpt>
      <trkpt lat="40.77721268869936466217041015625" lon="-1.4896735735237598419189453125">
        <ele>1076.199951171875</ele>
        <time>2022-05-03T09:50:39.000Z</time>
      </trkpt>
      <trkpt lat="40.77721235342323780059814453125" lon="-1.48974121548235416412353515625">
        <ele>1076.5999755859375</ele>
        <time>2022-05-03T09:50:41.000Z</time>
      </trkpt>
      <trkpt lat="40.7772107608616352081298828125" lon="-1.48977424018085002899169921875">
        <ele>1076.800048828125</ele>
        <time>2022-05-03T09:50:42.000Z</time>
      </trkpt>
      <trkpt lat="40.77720900066196918487548828125" lon="-1.48980760015547275543212890625">
        <ele>1076.800048828125</ele>
        <time>2022-05-03T09:50:43.000Z</time>
      </trkpt>
      <trkpt lat="40.77720682136714458465576171875" lon="-1.489872895181179046630859375">
        <ele>1077.199951171875</ele>
        <time>2022-05-03T09:50:45.000Z</time>
      </trkpt>
      <trkpt lat="40.77720430679619312286376953125" lon="-1.489936597645282745361328125">
        <ele>1077.5999755859375</ele>
        <time>2022-05-03T09:50:47.000Z</time>
      </trkpt>
      <trkpt lat="40.777205564081668853759765625" lon="-1.489999294281005859375">
        <ele>1077.800048828125</ele>
        <time>2022-05-03T09:50:49.000Z</time>
      </trkpt>
      <trkpt lat="40.77720464207231998443603515625" lon="-1.490061990916728973388671875">
        <ele>1078.199951171875</ele>
        <time>2022-05-03T09:50:51.000Z</time>
      </trkpt>
      <trkpt lat="40.777197182178497314453125" lon="-1.4901235140860080718994140625">
        <ele>1078.4000244140625</ele>
        <time>2022-05-03T09:50:53.000Z</time>
      </trkpt>
      <trkpt lat="40.77719341032207012176513671875" lon="-1.49018377996981143951416015625">
        <ele>1078.5999755859375</ele>
        <time>2022-05-03T09:50:55.000Z</time>
      </trkpt>
      <trkpt lat="40.77719072811305522918701171875" lon="-1.490245051681995391845703125">
        <ele>1079</ele>
        <time>2022-05-03T09:50:57.000Z</time>
      </trkpt>
      <trkpt lat="40.77719056047499179840087890625" lon="-1.4902770705521106719970703125">
        <ele>1079.199951171875</ele>
        <time>2022-05-03T09:50:58.000Z</time>
      </trkpt>
      <trkpt lat="40.777190811932086944580078125" lon="-1.4903082512319087982177734375">
        <ele>1079.199951171875</ele>
        <time>2022-05-03T09:50:59.000Z</time>
      </trkpt>
      <trkpt lat="40.7771913148462772369384765625" lon="-1.4903706125915050506591796875">
        <ele>1079.5999755859375</ele>
        <time>2022-05-03T09:51:01.000Z</time>
      </trkpt>
      <trkpt lat="40.7771896384656429290771484375" lon="-1.4904029667377471923828125">
        <ele>1079.800048828125</ele>
        <time>2022-05-03T09:51:02.000Z</time>
      </trkpt>
      <trkpt lat="40.7771882973611354827880859375" lon="-1.49043389596045017242431640625">
        <ele>1079.800048828125</ele>
        <time>2022-05-03T09:51:03.000Z</time>
      </trkpt>
      <trkpt lat="40.77718368731439113616943359375" lon="-1.49049709551036357879638671875">
        <ele>1080.199951171875</ele>
        <time>2022-05-03T09:51:05.000Z</time>
      </trkpt>
      <trkpt lat="40.77717781998217105865478515625" lon="-1.490559875965118408203125">
        <ele>1080.4000244140625</ele>
        <time>2022-05-03T09:51:07.000Z</time>
      </trkpt>
      <trkpt lat="40.77717731706798076629638671875" lon="-1.4905918948352336883544921875">
        <ele>1080.5999755859375</ele>
        <time>2022-05-03T09:51:08.000Z</time>
      </trkpt>
      <trkpt lat="40.77717714942991733551025390625" lon="-1.49062332697212696075439453125">
        <ele>1080.800048828125</ele>
        <time>2022-05-03T09:51:09.000Z</time>
      </trkpt>
      <trkpt lat="40.77717530541121959686279296875" lon="-1.49068434722721576690673828125">
        <ele>1081.199951171875</ele>
        <time>2022-05-03T09:51:11.000Z</time>
      </trkpt>
      <trkpt lat="40.777174048125743865966796875" lon="-1.49073966778814792633056640625">
        <ele>1081.4000244140625</ele>
        <time>2022-05-03T09:51:13.000Z</time>
      </trkpt>
      <trkpt lat="40.77717178501188755035400390625" lon="-1.49076632224023342132568359375">
        <ele>1081.5999755859375</ele>
        <time>2022-05-03T09:51:14.000Z</time>
      </trkpt>
      <trkpt lat="40.7771690189838409423828125" lon="-1.4907927252352237701416015625">
        <ele>1081.800048828125</ele>
        <time>2022-05-03T09:51:15.000Z</time>
      </trkpt>
      <trkpt lat="40.777164995670318603515625" lon="-1.4908493869006633758544921875">
        <ele>1082</ele>
        <time>2022-05-03T09:51:17.000Z</time>
      </trkpt>
      <trkpt lat="40.7771621458232402801513671875" lon="-1.49090495891869068145751953125">
        <ele>1082.199951171875</ele>
        <time>2022-05-03T09:51:19.000Z</time>
      </trkpt>
      <trkpt lat="40.77716088853776454925537109375" lon="-1.4909600280225276947021484375">
        <ele>1082.5999755859375</ele>
        <time>2022-05-03T09:51:21.000Z</time>
      </trkpt>
      <trkpt lat="40.77715787105262279510498046875" lon="-1.4910126663744449615478515625">
        <ele>1082.800048828125</ele>
        <time>2022-05-03T09:51:23.000Z</time>
      </trkpt>
      <trkpt lat="40.7771557755768299102783203125" lon="-1.49106857366859912872314453125">
        <ele>1083</ele>
        <time>2022-05-03T09:51:25.000Z</time>
      </trkpt>
      <trkpt lat="40.77715225517749786376953125" lon="-1.4911249838769435882568359375">
        <ele>1083.4000244140625</ele>
        <time>2022-05-03T09:51:27.000Z</time>
      </trkpt>
      <trkpt lat="40.777148902416229248046875" lon="-1.49118055589497089385986328125">
        <ele>1083.5999755859375</ele>
        <time>2022-05-03T09:51:29.000Z</time>
      </trkpt>
      <trkpt lat="40.77714881859719753265380859375" lon="-1.49120922200381755828857421875">
        <ele>1083.800048828125</ele>
        <time>2022-05-03T09:51:30.000Z</time>
      </trkpt>
      <trkpt lat="40.77714965678751468658447265625" lon="-1.49123855866491794586181640625">
        <ele>1084</ele>
        <time>2022-05-03T09:51:31.000Z</time>
      </trkpt>
      <trkpt lat="40.7771487347781658172607421875" lon="-1.491298489272594451904296875">
        <ele>1084.199951171875</ele>
        <time>2022-05-03T09:51:33.000Z</time>
      </trkpt>
      <trkpt lat="40.77714630402624607086181640625" lon="-1.49135858751833438873291015625">
        <ele>1084.4000244140625</ele>
        <time>2022-05-03T09:51:35.000Z</time>
      </trkpt>
      <trkpt lat="40.7771447114646434783935546875" lon="-1.49138792417943477630615234375">
        <ele>1084.5999755859375</ele>
        <time>2022-05-03T09:51:36.000Z</time>
      </trkpt>
      <trkpt lat="40.77714278362691402435302734375" lon="-1.49141675792634487152099609375">
        <ele>1084.800048828125</ele>
        <time>2022-05-03T09:51:37.000Z</time>
      </trkpt>
      <trkpt lat="40.7771396823227405548095703125" lon="-1.491474173963069915771484375">
        <ele>1085</ele>
        <time>2022-05-03T09:51:39.000Z</time>
      </trkpt>
      <trkpt lat="40.777136497199535369873046875" lon="-1.491530835628509521484375">
        <ele>1085.4000244140625</ele>
        <time>2022-05-03T09:51:41.000Z</time>
      </trkpt>
      <trkpt lat="40.77713440172374248504638671875" lon="-1.4915846474468708038330078125">
        <ele>1085.800048828125</ele>
        <time>2022-05-03T09:51:43.000Z</time>
      </trkpt>
      <trkpt lat="40.77713188715279102325439453125" lon="-1.49163879454135894775390625">
        <ele>1086.199951171875</ele>
        <time>2022-05-03T09:51:45.000Z</time>
      </trkpt>
      <trkpt lat="40.77713138423860073089599609375" lon="-1.491665951907634735107421875">
        <ele>1086.4000244140625</ele>
        <time>2022-05-03T09:51:46.000Z</time>
      </trkpt>
      <trkpt lat="40.77713121660053730010986328125" lon="-1.491693444550037384033203125">
        <ele>1086.5999755859375</ele>
        <time>2022-05-03T09:51:47.000Z</time>
      </trkpt>
      <trkpt lat="40.77712987549602985382080078125" lon="-1.491749100387096405029296875">
        <ele>1087.199951171875</ele>
        <time>2022-05-03T09:51:49.000Z</time>
      </trkpt>
      <trkpt lat="40.77712769620120525360107421875" lon="-1.491805426776409149169921875">
        <ele>1087.5999755859375</ele>
        <time>2022-05-03T09:51:51.000Z</time>
      </trkpt>
      <trkpt lat="40.777127109467983245849609375" lon="-1.4918605796992778778076171875">
        <ele>1088</ele>
        <time>2022-05-03T09:51:53.000Z</time>
      </trkpt>
      <trkpt lat="40.77712476253509521484375" lon="-1.4919165708124637603759765625">
        <ele>1088.5999755859375</ele>
        <time>2022-05-03T09:51:55.000Z</time>
      </trkpt>
      <trkpt lat="40.777123756706714630126953125" lon="-1.49194414727389812469482421875">
        <ele>1088.800048828125</ele>
        <time>2022-05-03T09:51:56.000Z</time>
      </trkpt>
      <trkpt lat="40.7771234214305877685546875" lon="-1.4919705502688884735107421875">
        <ele>1089</ele>
        <time>2022-05-03T09:51:57.000Z</time>
      </trkpt>
      <trkpt lat="40.777122415602207183837890625" lon="-1.49202729575335979461669921875">
        <ele>1089.4000244140625</ele>
        <time>2022-05-03T09:51:59.000Z</time>
      </trkpt>
      <trkpt lat="40.7771229185163974761962890625" lon="-1.49205529130995273590087890625">
        <ele>1089.5999755859375</ele>
        <time>2022-05-03T09:52:00.000Z</time>
      </trkpt>
      <trkpt lat="40.7771235890686511993408203125" lon="-1.49208278395235538482666015625">
        <ele>1090</ele>
        <time>2022-05-03T09:52:01.000Z</time>
      </trkpt>
      <trkpt lat="40.777122080326080322265625" lon="-1.49213978089392185211181640625">
        <ele>1090.4000244140625</ele>
        <time>2022-05-03T09:52:03.000Z</time>
      </trkpt>
      <trkpt lat="40.7771185599267482757568359375" lon="-1.49219292216002941131591796875">
        <ele>1090.800048828125</ele>
        <time>2022-05-03T09:52:05.000Z</time>
      </trkpt>
      <trkpt lat="40.7771178893744945526123046875" lon="-1.492246650159358978271484375">
        <ele>1091.199951171875</ele>
        <time>2022-05-03T09:52:07.000Z</time>
      </trkpt>
      <trkpt lat="40.77711679972708225250244140625" lon="-1.492272801697254180908203125">
        <ele>1091.5999755859375</ele>
        <time>2022-05-03T09:52:08.000Z</time>
      </trkpt>
      <trkpt lat="40.77711470425128936767578125" lon="-1.4922992885112762451171875">
        <ele>1091.800048828125</ele>
        <time>2022-05-03T09:52:09.000Z</time>
      </trkpt>
      <trkpt lat="40.77711193822324275970458984375" lon="-1.49235385470092296600341796875">
        <ele>1092</ele>
        <time>2022-05-03T09:52:11.000Z</time>
      </trkpt>
      <trkpt lat="40.777110345661640167236328125" lon="-1.4924084208905696868896484375">
        <ele>1092</ele>
        <time>2022-05-03T09:52:13.000Z</time>
      </trkpt>
      <trkpt lat="40.77711009420454502105712890625" lon="-1.492464579641819000244140625">
        <ele>1092.199951171875</ele>
        <time>2022-05-03T09:52:15.000Z</time>
      </trkpt>
      <trkpt lat="40.77710690908133983612060546875" lon="-1.492520235478878021240234375">
        <ele>1092.4000244140625</ele>
        <time>2022-05-03T09:52:17.000Z</time>
      </trkpt>
      <trkpt lat="40.77710590325295925140380859375" lon="-1.49254697374999523162841796875">
        <ele>1092.5999755859375</ele>
        <time>2022-05-03T09:52:18.000Z</time>
      </trkpt>
      <trkpt lat="40.77710506506264209747314453125" lon="-1.4925730414688587188720703125">
        <ele>1092.5999755859375</ele>
        <time>2022-05-03T09:52:19.000Z</time>
      </trkpt>
      <trkpt lat="40.77710439451038837432861328125" lon="-1.49262576363980770111083984375">
        <ele>1092.800048828125</ele>
        <time>2022-05-03T09:52:21.000Z</time>
      </trkpt>
      <trkpt lat="40.77710137702524662017822265625" lon="-1.4926810003817081451416015625">
        <ele>1093</ele>
        <time>2022-05-03T09:52:23.000Z</time>
      </trkpt>
      <trkpt lat="40.777097605168819427490234375" lon="-1.49273707531392574310302734375">
        <ele>1093.199951171875</ele>
        <time>2022-05-03T09:52:25.000Z</time>
      </trkpt>
      <trkpt lat="40.77709366567432880401611328125" lon="-1.492794491350650787353515625">
        <ele>1093.4000244140625</ele>
        <time>2022-05-03T09:52:27.000Z</time>
      </trkpt>
      <trkpt lat="40.7770920731127262115478515625" lon="-1.4928228221833705902099609375">
        <ele>1093.4000244140625</ele>
        <time>2022-05-03T09:52:28.000Z</time>
      </trkpt>
      <trkpt lat="40.77708913944661617279052734375" lon="-1.492850482463836669921875">
        <ele>1093.5999755859375</ele>
        <time>2022-05-03T09:52:29.000Z</time>
      </trkpt>
      <trkpt lat="40.77708075754344463348388671875" lon="-1.49290353991091251373291015625">
        <ele>1093.800048828125</ele>
        <time>2022-05-03T09:52:31.000Z</time>
      </trkpt>
      <trkpt lat="40.777068771421909332275390625" lon="-1.49295441806316375732421875">
        <ele>1093.800048828125</ele>
        <time>2022-05-03T09:52:33.000Z</time>
      </trkpt>
      <trkpt lat="40.777046978473663330078125" lon="-1.49299557320773601531982421875">
        <ele>1094</ele>
        <time>2022-05-03T09:52:35.000Z</time>
      </trkpt>
      <trkpt lat="40.77703063376247882843017578125" lon="-1.4930092357099056243896484375">
        <ele>1094</ele>
        <time>2022-05-03T09:52:36.000Z</time>
      </trkpt>
      <trkpt lat="40.77701286412775516510009765625" lon="-1.4930152706801891326904296875">
        <ele>1094</ele>
        <time>2022-05-03T09:52:37.000Z</time>
      </trkpt>
      <trkpt lat="40.7769717089831829071044921875" lon="-1.49300831370055675506591796875">
        <ele>1093.800048828125</ele>
        <time>2022-05-03T09:52:39.000Z</time>
      </trkpt>
      <trkpt lat="40.77692334540188312530517578125" lon="-1.49298685602843761444091796875">
        <ele>1093.5999755859375</ele>
        <time>2022-05-03T09:52:41.000Z</time>
      </trkpt>
      <trkpt lat="40.77687489800155162811279296875" lon="-1.49296606890857219696044921875">
        <ele>1093.4000244140625</ele>
        <time>2022-05-03T09:52:43.000Z</time>
      </trkpt>
      <trkpt lat="40.77683885581791400909423828125" lon="-1.4929502271115779876708984375">
        <ele>1093.4000244140625</ele>
        <time>2022-05-03T09:52:45.000Z</time>
      </trkpt>
      <trkpt lat="40.77683784998953342437744140625" lon="-1.49294947274029254913330078125">
        <ele>1093.4000244140625</ele>
        <time>2022-05-03T09:52:47.000Z</time>
      </trkpt>
      <trkpt lat="40.776804573833942413330078125" lon="-1.49293027818202972412109375">
        <ele>1093.199951171875</ele>
        <time>2022-05-03T09:52:52.000Z</time>
      </trkpt>
      <trkpt lat="40.77678772620856761932373046875" lon="-1.49292315356433391571044921875">
        <ele>1093.199951171875</ele>
        <time>2022-05-03T09:52:53.000Z</time>
      </trkpt>
      <trkpt lat="40.77674246393144130706787109375" lon="-1.492913849651813507080078125">
        <ele>1093</ele>
        <time>2022-05-03T09:52:55.000Z</time>
      </trkpt>
      <trkpt lat="40.77668982557952404022216796875" lon="-1.4929086528718471527099609375">
        <ele>1092.800048828125</ele>
        <time>2022-05-03T09:52:57.000Z</time>
      </trkpt>
      <trkpt lat="40.7766625843942165374755859375" lon="-1.49290253408253192901611328125">
        <ele>1092.800048828125</ele>
        <time>2022-05-03T09:52:58.000Z</time>
      </trkpt>
      <trkpt lat="40.776634253561496734619140625" lon="-1.4928975887596607208251953125">
        <ele>1092.5999755859375</ele>
        <time>2022-05-03T09:52:59.000Z</time>
      </trkpt>
      <trkpt lat="40.7765740714967250823974609375" lon="-1.49289515800774097442626953125">
        <ele>1092.5999755859375</ele>
        <time>2022-05-03T09:53:01.000Z</time>
      </trkpt>
      <trkpt lat="40.77651514671742916107177734375" lon="-1.4928898774087429046630859375">
        <ele>1092.5999755859375</ele>
        <time>2022-05-03T09:53:03.000Z</time>
      </trkpt>
      <trkpt lat="40.7764580659568309783935546875" lon="-1.492893397808074951171875">
        <ele>1092.5999755859375</ele>
        <time>2022-05-03T09:53:05.000Z</time>
      </trkpt>
      <trkpt lat="40.7763990573585033416748046875" lon="-1.49290186353027820587158203125">
        <ele>1092.5999755859375</ele>
        <time>2022-05-03T09:53:07.000Z</time>
      </trkpt>
      <trkpt lat="40.7763299904763698577880859375" lon="-1.49290437810122966766357421875">
        <ele>1092.4000244140625</ele>
        <time>2022-05-03T09:53:09.000Z</time>
      </trkpt>
      <trkpt lat="40.7762569002807140350341796875" lon="-1.49291242472827434539794921875">
        <ele>1092</ele>
        <time>2022-05-03T09:53:11.000Z</time>
      </trkpt>
      <trkpt lat="40.77618121169507503509521484375" lon="-1.4929217286407947540283203125">
        <ele>1091.5999755859375</ele>
        <time>2022-05-03T09:53:13.000Z</time>
      </trkpt>
      <trkpt lat="40.77609973959624767303466796875" lon="-1.49292499758303165435791015625">
        <ele>1091</ele>
        <time>2022-05-03T09:53:15.000Z</time>
      </trkpt>
      <trkpt lat="40.77601843513548374176025390625" lon="-1.49292751215398311614990234375">
        <ele>1090.5999755859375</ele>
        <time>2022-05-03T09:53:17.000Z</time>
      </trkpt>
      <trkpt lat="40.77593386173248291015625" lon="-1.49291946552693843841552734375">
        <ele>1090</ele>
        <time>2022-05-03T09:53:19.000Z</time>
      </trkpt>
      <trkpt lat="40.7758901081979274749755859375" lon="-1.49291150271892547607421875">
        <ele>1089.800048828125</ele>
        <time>2022-05-03T09:53:20.000Z</time>
      </trkpt>
      <trkpt lat="40.7758458517491817474365234375" lon="-1.49290102533996105194091796875">
        <ele>1089.4000244140625</ele>
        <time>2022-05-03T09:53:21.000Z</time>
      </trkpt>
      <trkpt lat="40.7757593505084514617919921875" lon="-1.49286925792694091796875">
        <ele>1089.199951171875</ele>
        <time>2022-05-03T09:53:23.000Z</time>
      </trkpt>
      <trkpt lat="40.77566958032548427581787109375" lon="-1.492831707000732421875">
        <ele>1089</ele>
        <time>2022-05-03T09:53:25.000Z</time>
      </trkpt>
      <trkpt lat="40.77562280930578708648681640625" lon="-1.492812931537628173828125">
        <ele>1089</ele>
        <time>2022-05-03T09:53:26.000Z</time>
      </trkpt>
      <trkpt lat="40.77557469718158245086669921875" lon="-1.49279407225549221038818359375">
        <ele>1089</ele>
        <time>2022-05-03T09:53:27.000Z</time>
      </trkpt>
      <trkpt lat="40.7755253277719020843505859375" lon="-1.49277680553495883941650390625">
        <ele>1088.800048828125</ele>
        <time>2022-05-03T09:53:28.000Z</time>
      </trkpt>
      <trkpt lat="40.77547629363834857940673828125" lon="-1.4927641488611698150634765625">
        <ele>1088.5999755859375</ele>
        <time>2022-05-03T09:53:29.000Z</time>
      </trkpt>
      <trkpt lat="40.7753638923168182373046875" lon="-1.49273824878036975860595703125">
        <ele>1088</ele>
        <time>2022-05-03T09:53:31.000Z</time>
      </trkpt>
      <trkpt lat="40.77529616653919219970703125" lon="-1.49272383190691471099853515625">
        <ele>1087.5999755859375</ele>
        <time>2022-05-03T09:53:32.000Z</time>
      </trkpt>
      <trkpt lat="40.77521880157291889190673828125" lon="-1.49271125905215740203857421875">
        <ele>1087.199951171875</ele>
        <time>2022-05-03T09:53:33.000Z</time>
      </trkpt>
      <trkpt lat="40.77513850294053554534912109375" lon="-1.49270321242511272430419921875">
        <ele>1086.5999755859375</ele>
        <time>2022-05-03T09:53:34.000Z</time>
      </trkpt>
      <trkpt lat="40.775057114660739898681640625" lon="-1.49270203895866870880126953125">
        <ele>1086.199951171875</ele>
        <time>2022-05-03T09:53:35.000Z</time>
      </trkpt>
      <trkpt lat="40.7749784924089908599853515625" lon="-1.49271109141409397125244140625">
        <ele>1085.5999755859375</ele>
        <time>2022-05-03T09:53:36.000Z</time>
      </trkpt>
      <trkpt lat="40.7749052345752716064453125" lon="-1.49272902868688106536865234375">
        <ele>1085.199951171875</ele>
        <time>2022-05-03T09:53:37.000Z</time>
      </trkpt>
      <trkpt lat="40.7748349942266941070556640625" lon="-1.49275098927319049835205078125">
        <ele>1084.800048828125</ele>
        <time>2022-05-03T09:53:38.000Z</time>
      </trkpt>
      <trkpt lat="40.7747686095535755157470703125" lon="-1.4927748776972293853759765625">
        <ele>1084.199951171875</ele>
        <time>2022-05-03T09:53:39.000Z</time>
      </trkpt>
      <trkpt lat="40.77470608055591583251953125" lon="-1.4927960000932216644287109375">
        <ele>1083.800048828125</ele>
        <time>2022-05-03T09:53:40.000Z</time>
      </trkpt>
      <trkpt lat="40.7746469043195247650146484375" lon="-1.4928114227950572967529296875">
        <ele>1083.5999755859375</ele>
        <time>2022-05-03T09:53:41.000Z</time>
      </trkpt>
      <trkpt lat="40.7745899073779582977294921875" lon="-1.492819972336292266845703125">
        <ele>1083.199951171875</ele>
        <time>2022-05-03T09:53:42.000Z</time>
      </trkpt>
      <trkpt lat="40.7745342515408992767333984375" lon="-1.4928228221833705902099609375">
        <ele>1083</ele>
        <time>2022-05-03T09:53:43.000Z</time>
      </trkpt>
      <trkpt lat="40.774419419467449188232421875" lon="-1.49281033314764499664306640625">
        <ele>1082.4000244140625</ele>
        <time>2022-05-03T09:53:45.000Z</time>
      </trkpt>
      <trkpt lat="40.77429033815860748291015625" lon="-1.49277194403111934661865234375">
        <ele>1082</ele>
        <time>2022-05-03T09:53:47.000Z</time>
      </trkpt>
      <trkpt lat="40.77415262348949909210205078125" lon="-1.49272735230624675750732421875">
        <ele>1080.800048828125</ele>
        <time>2022-05-03T09:53:49.000Z</time>
      </trkpt>
      <trkpt lat="40.77409545890986919403076171875" lon="-1.49271528236567974090576171875">
        <ele>1080.199951171875</ele>
        <time>2022-05-03T09:53:50.000Z</time>
      </trkpt>
      <trkpt lat="40.77404701150953769683837890625" lon="-1.4927091635763645172119140625">
        <ele>1079.800048828125</ele>
        <time>2022-05-03T09:53:51.000Z</time>
      </trkpt>
      <trkpt lat="40.77397693879902362823486328125" lon="-1.492705978453159332275390625">
        <ele>1079.199951171875</ele>
        <time>2022-05-03T09:53:53.000Z</time>
      </trkpt>
      <trkpt lat="40.77394978143274784088134765625" lon="-1.49270807392895221710205078125">
        <ele>1079</ele>
        <time>2022-05-03T09:53:54.000Z</time>
      </trkpt>
      <trkpt lat="40.77392262406647205352783203125" lon="-1.492711342871189117431640625">
        <ele>1078.800048828125</ele>
        <time>2022-05-03T09:53:55.000Z</time>
      </trkpt>
      <trkpt lat="40.773897059261798858642578125" lon="-1.4927151985466480255126953125">
        <ele>1078.5999755859375</ele>
        <time>2022-05-03T09:53:56.000Z</time>
      </trkpt>
      <trkpt lat="40.7738717459142208099365234375" lon="-1.49271729402244091033935546875">
        <ele>1078.5999755859375</ele>
        <time>2022-05-03T09:53:57.000Z</time>
      </trkpt>
      <trkpt lat="40.77381919138133525848388671875" lon="-1.49272098205983638763427734375">
        <ele>1079</ele>
        <time>2022-05-03T09:53:59.000Z</time>
      </trkpt>
      <trkpt lat="40.77376839704811573028564453125" lon="-1.49272550828754901885986328125">
        <ele>1079.4000244140625</ele>
        <time>2022-05-03T09:54:01.000Z</time>
      </trkpt>
      <trkpt lat="40.77372313477098941802978515625" lon="-1.49272441864013671875">
        <ele>1079.800048828125</ele>
        <time>2022-05-03T09:54:03.000Z</time>
      </trkpt>
      <trkpt lat="40.773673765361309051513671875" lon="-1.4927208982408046722412109375">
        <ele>1080.199951171875</ele>
        <time>2022-05-03T09:54:05.000Z</time>
      </trkpt>
      <trkpt lat="40.77361567877233028411865234375" lon="-1.49272701703011989593505859375">
        <ele>1080.5999755859375</ele>
        <time>2022-05-03T09:54:07.000Z</time>
      </trkpt>
      <trkpt lat="40.77354879118502140045166015625" lon="-1.49273858405649662017822265625">
        <ele>1081.199951171875</ele>
        <time>2022-05-03T09:54:09.000Z</time>
      </trkpt>
      <trkpt lat="40.77347201295197010040283203125" lon="-1.49275467731058597564697265625">
        <ele>1082</ele>
        <time>2022-05-03T09:54:11.000Z</time>
      </trkpt>
      <trkpt lat="40.773389451205730438232421875" lon="-1.4927812479436397552490234375">
        <ele>1082.5999755859375</ele>
        <time>2022-05-03T09:54:13.000Z</time>
      </trkpt>
      <trkpt lat="40.77335734851658344268798828125" lon="-1.49280781857669353485107421875">
        <ele>1082.800048828125</ele>
        <time>2022-05-03T09:54:14.000Z</time>
      </trkpt>
      <trkpt lat="40.773334465920925140380859375" lon="-1.49284285493195056915283203125">
        <ele>1083</ele>
        <time>2022-05-03T09:54:15.000Z</time>
      </trkpt>
      <trkpt lat="40.77332080341875553131103515625" lon="-1.49288258515298366546630859375">
        <ele>1083.4000244140625</ele>
        <time>2022-05-03T09:54:16.000Z</time>
      </trkpt>
      <trkpt lat="40.77331694774329662322998046875" lon="-1.4929257519543170928955078125">
        <ele>1083.4000244140625</ele>
        <time>2022-05-03T09:54:17.000Z</time>
      </trkpt>
      <trkpt lat="40.77332549728453159332275390625" lon="-1.49301216937601566314697265625">
        <ele>1083.4000244140625</ele>
        <time>2022-05-03T09:54:19.000Z</time>
      </trkpt>
      <trkpt lat="40.77333153225481510162353515625" lon="-1.493054665625095367431640625">
        <ele>1083.4000244140625</ele>
        <time>2022-05-03T09:54:20.000Z</time>
      </trkpt>
      <trkpt lat="40.77333815395832061767578125" lon="-1.49309682659804821014404296875">
        <ele>1083.4000244140625</ele>
        <time>2022-05-03T09:54:21.000Z</time>
      </trkpt>
      <trkpt lat="40.7733467034995555877685546875" lon="-1.4931832440197467803955078125">
        <ele>1083.4000244140625</ele>
        <time>2022-05-03T09:54:23.000Z</time>
      </trkpt>
      <trkpt lat="40.7733477093279361724853515625" lon="-1.49327435530722141265869140625">
        <ele>1083.5999755859375</ele>
        <time>2022-05-03T09:54:25.000Z</time>
      </trkpt>
      <trkpt lat="40.7733510620892047882080078125" lon="-1.4933679811656475067138671875">
        <ele>1083.5999755859375</ele>
        <time>2022-05-03T09:54:27.000Z</time>
      </trkpt>
      <trkpt lat="40.77335500158369541168212890625" lon="-1.49341617710888385772705078125">
        <ele>1083.800048828125</ele>
        <time>2022-05-03T09:54:28.000Z</time>
      </trkpt>
      <trkpt lat="40.77335952781140804290771484375" lon="-1.4934628643095493316650390625">
        <ele>1083.800048828125</ele>
        <time>2022-05-03T09:54:29.000Z</time>
      </trkpt>
      <trkpt lat="40.77336966991424560546875" lon="-1.49355665780603885650634765625">
        <ele>1083.800048828125</ele>
        <time>2022-05-03T09:54:31.000Z</time>
      </trkpt>
      <trkpt lat="40.773380734026432037353515625" lon="-1.4936492778360843658447265625">
        <ele>1083.800048828125</ele>
        <time>2022-05-03T09:54:33.000Z</time>
      </trkpt>
      <trkpt lat="40.773388445377349853515625" lon="-1.49373519234359264373779296875">
        <ele>1083.800048828125</ele>
        <time>2022-05-03T09:54:35.000Z</time>
      </trkpt>
      <trkpt lat="40.773392133414745330810546875" lon="-1.493817754089832305908203125">
        <ele>1083.800048828125</ele>
        <time>2022-05-03T09:54:37.000Z</time>
      </trkpt>
      <trkpt lat="40.7733986712992191314697265625" lon="-1.49389679543673992156982421875">
        <ele>1084</ele>
        <time>2022-05-03T09:54:39.000Z</time>
      </trkpt>
      <trkpt lat="40.77340680174529552459716796875" lon="-1.49397491477429866790771484375">
        <ele>1084</ele>
        <time>2022-05-03T09:54:41.000Z</time>
      </trkpt>
      <trkpt lat="40.7734187878668308258056640625" lon="-1.49405588395893573760986328125">
        <ele>1084</ele>
        <time>2022-05-03T09:54:43.000Z</time>
      </trkpt>
      <trkpt lat="40.77343496493995189666748046875" lon="-1.49413165636360645294189453125">
        <ele>1083.800048828125</ele>
        <time>2022-05-03T09:54:45.000Z</time>
      </trkpt>
      <trkpt lat="40.77344099991023540496826171875" lon="-1.494169794023036956787109375">
        <ele>1083.800048828125</ele>
        <time>2022-05-03T09:54:46.000Z</time>
      </trkpt>
      <trkpt lat="40.77344820834696292877197265625" lon="-1.49420876987278461456298828125">
        <ele>1083.800048828125</ele>
        <time>2022-05-03T09:54:47.000Z</time>
      </trkpt>
      <trkpt lat="40.77346530742943286895751953125" lon="-1.49428739212453365325927734375">
        <ele>1083.800048828125</ele>
        <time>2022-05-03T09:54:49.000Z</time>
      </trkpt>
      <trkpt lat="40.77349095605313777923583984375" lon="-1.494366936385631561279296875">
        <ele>1083.800048828125</ele>
        <time>2022-05-03T09:54:51.000Z</time>
      </trkpt>
      <trkpt lat="40.7735203765332698822021484375" lon="-1.4944477379322052001953125">
        <ele>1083.5999755859375</ele>
        <time>2022-05-03T09:54:53.000Z</time>
      </trkpt>
      <trkpt lat="40.773536972701549530029296875" lon="-1.4944884739816188812255859375">
        <ele>1083.5999755859375</ele>
        <time>2022-05-03T09:54:54.000Z</time>
      </trkpt>
      <trkpt lat="40.77355583198368549346923828125" lon="-1.49452887475490570068359375">
        <ele>1083.5999755859375</ele>
        <time>2022-05-03T09:54:55.000Z</time>
      </trkpt>
      <trkpt lat="40.77359992079436779022216796875" lon="-1.49460992775857448577880859375">
        <ele>1083.4000244140625</ele>
        <time>2022-05-03T09:54:57.000Z</time>
      </trkpt>
      <trkpt lat="40.77364132739603519439697265625" lon="-1.49468855001032352447509765625">
        <ele>1083.4000244140625</ele>
        <time>2022-05-03T09:54:59.000Z</time>
      </trkpt>
      <trkpt lat="40.77367745339870452880859375" lon="-1.494760215282440185546875">
        <ele>1083.199951171875</ele>
        <time>2022-05-03T09:55:01.000Z</time>
      </trkpt>
      <trkpt lat="40.7736967317759990692138671875" lon="-1.49482400156557559967041015625">
        <ele>1083.199951171875</ele>
        <time>2022-05-03T09:55:03.000Z</time>
      </trkpt>
      <trkpt lat="40.77370385639369487762451171875" lon="-1.49489767849445343017578125">
        <ele>1083.4000244140625</ele>
        <time>2022-05-03T09:55:05.000Z</time>
      </trkpt>
      <trkpt lat="40.7737064547836780548095703125" lon="-1.49493698962032794952392578125">
        <ele>1083.4000244140625</ele>
        <time>2022-05-03T09:55:06.000Z</time>
      </trkpt>
      <trkpt lat="40.7737101428210735321044921875" lon="-1.49497856386005878448486328125">
        <ele>1083.4000244140625</ele>
        <time>2022-05-03T09:55:07.000Z</time>
      </trkpt>
      <trkpt lat="40.7737262360751628875732421875" lon="-1.49507378228008747100830078125">
        <ele>1083.199951171875</ele>
        <time>2022-05-03T09:55:09.000Z</time>
      </trkpt>
      <trkpt lat="40.77374844811856746673583984375" lon="-1.49519364349544048309326171875">
        <ele>1083</ele>
        <time>2022-05-03T09:55:11.000Z</time>
      </trkpt>
      <trkpt lat="40.77376320026814937591552734375" lon="-1.49526019580662250518798828125">
        <ele>1083</ele>
        <time>2022-05-03T09:55:12.000Z</time>
      </trkpt>
      <trkpt lat="40.77377476729452610015869140625" lon="-1.4953310228884220123291015625">
        <ele>1082.800048828125</ele>
        <time>2022-05-03T09:55:13.000Z</time>
      </trkpt>
      <trkpt lat="40.7737771980464458465576171875" lon="-1.49548030458390712738037109375">
        <ele>1082.800048828125</ele>
        <time>2022-05-03T09:55:15.000Z</time>
      </trkpt>
      <trkpt lat="40.77376923523843288421630859375" lon="-1.49561860598623752593994140625">
        <ele>1083</ele>
        <time>2022-05-03T09:55:17.000Z</time>
      </trkpt>
      <trkpt lat="40.77376504428684711456298828125" lon="-1.49574886076152324676513671875">
        <ele>1082.800048828125</ele>
        <time>2022-05-03T09:55:19.000Z</time>
      </trkpt>
      <trkpt lat="40.7737599313259124755859375" lon="-1.49587559513747692108154296875">
        <ele>1082.5999755859375</ele>
        <time>2022-05-03T09:55:21.000Z</time>
      </trkpt>
      <trkpt lat="40.7737547345459461212158203125" lon="-1.495936699211597442626953125">
        <ele>1082.5999755859375</ele>
        <time>2022-05-03T09:55:22.000Z</time>
      </trkpt>
      <trkpt lat="40.77374593354761600494384765625" lon="-1.495995707809925079345703125">
        <ele>1082.5999755859375</ele>
        <time>2022-05-03T09:55:23.000Z</time>
      </trkpt>
      <trkpt lat="40.77371726743876934051513671875" lon="-1.496101655066013336181640625">
        <ele>1082.5999755859375</ele>
        <time>2022-05-03T09:55:25.000Z</time>
      </trkpt>
      <trkpt lat="40.7736933790147304534912109375" lon="-1.49619544856250286102294921875">
        <ele>1082.800048828125</ele>
        <time>2022-05-03T09:55:27.000Z</time>
      </trkpt>
      <trkpt lat="40.77368675731122493743896484375" lon="-1.496282704174518585205078125">
        <ele>1082.5999755859375</ele>
        <time>2022-05-03T09:55:29.000Z</time>
      </trkpt>
      <trkpt lat="40.77367401681840419769287109375" lon="-1.49636660702526569366455078125">
        <ele>1082.5999755859375</ele>
        <time>2022-05-03T09:55:31.000Z</time>
      </trkpt>
      <trkpt lat="40.77366328798234462738037109375" lon="-1.49640910327434539794921875">
        <ele>1082.5999755859375</ele>
        <time>2022-05-03T09:55:32.000Z</time>
      </trkpt>
      <trkpt lat="40.7736521400511264801025390625" lon="-1.4964518509805202484130859375">
        <ele>1082.5999755859375</ele>
        <time>2022-05-03T09:55:33.000Z</time>
      </trkpt>
      <trkpt lat="40.77362640760838985443115234375" lon="-1.4965390227735042572021484375">
        <ele>1082.5999755859375</ele>
        <time>2022-05-03T09:55:35.000Z</time>
      </trkpt>
      <trkpt lat="40.77360260300338268280029296875" lon="-1.49663231335580348968505859375">
        <ele>1082.4000244140625</ele>
        <time>2022-05-03T09:55:37.000Z</time>
      </trkpt>
      <trkpt lat="40.7735750265419483184814453125" lon="-1.49672560393810272216796875">
        <ele>1082.199951171875</ele>
        <time>2022-05-03T09:55:39.000Z</time>
      </trkpt>
      <trkpt lat="40.77356304042041301727294921875" lon="-1.49677078239619731903076171875">
        <ele>1082</ele>
        <time>2022-05-03T09:55:40.000Z</time>
      </trkpt>
      <trkpt lat="40.77355138957500457763671875" lon="-1.4968152903020381927490234375">
        <ele>1081.800048828125</ele>
        <time>2022-05-03T09:55:41.000Z</time>
      </trkpt>
      <trkpt lat="40.77353051863610744476318359375" lon="-1.4969031326472759246826171875">
        <ele>1082</ele>
        <time>2022-05-03T09:55:43.000Z</time>
      </trkpt>
      <trkpt lat="40.7735133357346057891845703125" lon="-1.4969958364963531494140625">
        <ele>1082.4000244140625</ele>
        <time>2022-05-03T09:55:45.000Z</time>
      </trkpt>
      <trkpt lat="40.7735042832791805267333984375" lon="-1.4970910549163818359375">
        <ele>1082.5999755859375</ele>
        <time>2022-05-03T09:55:47.000Z</time>
      </trkpt>
      <trkpt lat="40.7734945602715015411376953125" lon="-1.49718853645026683807373046875">
        <ele>1083</ele>
        <time>2022-05-03T09:55:49.000Z</time>
      </trkpt>
      <trkpt lat="40.77348659746348857879638671875" lon="-1.49728744290769100189208984375">
        <ele>1083.4000244140625</ele>
        <time>2022-05-03T09:55:51.000Z</time>
      </trkpt>
      <trkpt lat="40.77347695827484130859375" lon="-1.49738534353673458099365234375">
        <ele>1083.5999755859375</ele>
        <time>2022-05-03T09:55:53.000Z</time>
      </trkpt>
      <trkpt lat="40.77346564270555973052978515625" lon="-1.497479975223541259765625">
        <ele>1083.5999755859375</ele>
        <time>2022-05-03T09:55:55.000Z</time>
      </trkpt>
      <trkpt lat="40.7734560035169124603271484375" lon="-1.4975787140429019927978515625">
        <ele>1083.4000244140625</ele>
        <time>2022-05-03T09:55:57.000Z</time>
      </trkpt>
      <trkpt lat="40.77344971708953380584716796875" lon="-1.49767837487161159515380859375">
        <ele>1083.4000244140625</ele>
        <time>2022-05-03T09:55:59.000Z</time>
      </trkpt>
      <trkpt lat="40.773443765938282012939453125" lon="-1.497769318521022796630859375">
        <ele>1083.4000244140625</ele>
        <time>2022-05-03T09:56:01.000Z</time>
      </trkpt>
      <trkpt lat="40.77343647368252277374267578125" lon="-1.49785992689430713653564453125">
        <ele>1084</ele>
        <time>2022-05-03T09:56:03.000Z</time>
      </trkpt>
      <trkpt lat="40.77343337237834930419921875" lon="-1.49790602736175060272216796875">
        <ele>1084.199951171875</ele>
        <time>2022-05-03T09:56:04.000Z</time>
      </trkpt>
      <trkpt lat="40.77342976815998554229736328125" lon="-1.497952044010162353515625">
        <ele>1084.4000244140625</ele>
        <time>2022-05-03T09:56:05.000Z</time>
      </trkpt>
      <trkpt lat="40.7734191231429576873779296875" lon="-1.4980434067547321319580078125">
        <ele>1085</ele>
        <time>2022-05-03T09:56:07.000Z</time>
      </trkpt>
      <trkpt lat="40.77340613119304180145263671875" lon="-1.49813502095639705657958984375">
        <ele>1085.4000244140625</ele>
        <time>2022-05-03T09:56:09.000Z</time>
      </trkpt>
      <trkpt lat="40.77339825220406055450439453125" lon="-1.49822789244353771209716796875">
        <ele>1085.5999755859375</ele>
        <time>2022-05-03T09:56:11.000Z</time>
      </trkpt>
      <trkpt lat="40.77339590527117252349853515625" lon="-1.49832009337842464447021484375">
        <ele>1085.800048828125</ele>
        <time>2022-05-03T09:56:13.000Z</time>
      </trkpt>
      <trkpt lat="40.77339037321507930755615234375" lon="-1.49841095320880413055419921875">
        <ele>1086</ele>
        <time>2022-05-03T09:56:15.000Z</time>
      </trkpt>
      <trkpt lat="40.77337964437901973724365234375" lon="-1.49850332178175449371337890625">
        <ele>1086.199951171875</ele>
        <time>2022-05-03T09:56:17.000Z</time>
      </trkpt>
      <trkpt lat="40.7733735255897045135498046875" lon="-1.4985483326017856597900390625">
        <ele>1086.199951171875</ele>
        <time>2022-05-03T09:56:18.000Z</time>
      </trkpt>
      <trkpt lat="40.77336497604846954345703125" lon="-1.49859300814568996429443359375">
        <ele>1086.4000244140625</ele>
        <time>2022-05-03T09:56:19.000Z</time>
      </trkpt>
      <trkpt lat="40.77334544621407985687255859375" lon="-1.49868227541446685791015625">
        <ele>1086.4000244140625</ele>
        <time>2022-05-03T09:56:21.000Z</time>
      </trkpt>
      <trkpt lat="40.7733118347823619842529296875" lon="-1.4987669326364994049072265625">
        <ele>1086.4000244140625</ele>
        <time>2022-05-03T09:56:23.000Z</time>
      </trkpt>
      <trkpt lat="40.773272104561328887939453125" lon="-1.498847901821136474609375">
        <ele>1086.199951171875</ele>
        <time>2022-05-03T09:56:25.000Z</time>
      </trkpt>
      <trkpt lat="40.773232541978359222412109375" lon="-1.49892174638807773590087890625">
        <ele>1086.199951171875</ele>
        <time>2022-05-03T09:56:27.000Z</time>
      </trkpt>
      <trkpt lat="40.7731951586902141571044921875" lon="-1.498987376689910888671875">
        <ele>1086</ele>
        <time>2022-05-03T09:56:29.000Z</time>
      </trkpt>
      <trkpt lat="40.77316490001976490020751953125" lon="-1.49905350990593433380126953125">
        <ele>1086</ele>
        <time>2022-05-03T09:56:31.000Z</time>
      </trkpt>
      <trkpt lat="40.7731522433459758758544921875" lon="-1.49908821098506450653076171875">
        <ele>1085.800048828125</ele>
        <time>2022-05-03T09:56:32.000Z</time>
      </trkpt>
      <trkpt lat="40.77313975431025028228759765625" lon="-1.499122492969036102294921875">
        <ele>1085.800048828125</ele>
        <time>2022-05-03T09:56:33.000Z</time>
      </trkpt>
      <trkpt lat="40.77311578206717967987060546875" lon="-1.49918854236602783203125">
        <ele>1085.800048828125</ele>
        <time>2022-05-03T09:56:35.000Z</time>
      </trkpt>
      <trkpt lat="40.77309415675699710845947265625" lon="-1.499257273972034454345703125">
        <ele>1085.5999755859375</ele>
        <time>2022-05-03T09:56:37.000Z</time>
      </trkpt>
      <trkpt lat="40.773076303303241729736328125" lon="-1.49932776577770709991455078125">
        <ele>1085.5999755859375</ele>
        <time>2022-05-03T09:56:39.000Z</time>
      </trkpt>
      <trkpt lat="40.773058868944644927978515625" lon="-1.4993969164788722991943359375">
        <ele>1085.5999755859375</ele>
        <time>2022-05-03T09:56:41.000Z</time>
      </trkpt>
      <trkpt lat="40.7730464637279510498046875" lon="-1.49947084486484527587890625">
        <ele>1085.5999755859375</ele>
        <time>2022-05-03T09:56:43.000Z</time>
      </trkpt>
      <trkpt lat="40.77303104102611541748046875" lon="-1.4995447732508182525634765625">
        <ele>1085.5999755859375</ele>
        <time>2022-05-03T09:56:45.000Z</time>
      </trkpt>
      <trkpt lat="40.7730204798281192779541015625" lon="-1.49961761198937892913818359375">
        <ele>1085.800048828125</ele>
        <time>2022-05-03T09:56:47.000Z</time>
      </trkpt>
      <trkpt lat="40.77300681732594966888427734375" lon="-1.49968768469989299774169921875">
        <ele>1086</ele>
        <time>2022-05-03T09:56:49.000Z</time>
      </trkpt>
      <trkpt lat="40.7729866169393062591552734375" lon="-1.49974904023110866546630859375">
        <ele>1086</ele>
        <time>2022-05-03T09:56:51.000Z</time>
      </trkpt>
      <trkpt lat="40.77297848649322986602783203125" lon="-1.49977955035865306854248046875">
        <ele>1086</ele>
        <time>2022-05-03T09:56:52.000Z</time>
      </trkpt>
      <trkpt lat="40.77297111041843891143798828125" lon="-1.4998113177716732025146484375">
        <ele>1086.199951171875</ele>
        <time>2022-05-03T09:56:53.000Z</time>
      </trkpt>
      <trkpt lat="40.77296105213463306427001953125" lon="-1.49987476877868175506591796875">
        <ele>1086.199951171875</ele>
        <time>2022-05-03T09:56:55.000Z</time>
      </trkpt>
      <trkpt lat="40.7729537598788738250732421875" lon="-1.4999450929462909698486328125">
        <ele>1086.4000244140625</ele>
        <time>2022-05-03T09:56:57.000Z</time>
      </trkpt>
      <trkpt lat="40.7729472219944000244140625" lon="-1.50002078153192996978759765625">
        <ele>1086.5999755859375</ele>
        <time>2022-05-03T09:56:59.000Z</time>
      </trkpt>
      <trkpt lat="40.77294277958571910858154296875" lon="-1.500094793736934661865234375">
        <ele>1087</ele>
        <time>2022-05-03T09:57:01.000Z</time>
      </trkpt>
      <trkpt lat="40.77294076792895793914794921875" lon="-1.50017098523676395416259765625">
        <ele>1087.199951171875</ele>
        <time>2022-05-03T09:57:03.000Z</time>
      </trkpt>
      <trkpt lat="40.77293355949223041534423828125" lon="-1.50024927221238613128662109375">
        <ele>1087.4000244140625</ele>
        <time>2022-05-03T09:57:05.000Z</time>
      </trkpt>
      <trkpt lat="40.77292299829423427581787109375" lon="-1.50032722391188144683837890625">
        <ele>1087.800048828125</ele>
        <time>2022-05-03T09:57:07.000Z</time>
      </trkpt>
      <trkpt lat="40.7729188911616802215576171875" lon="-1.50036628358066082000732421875">
        <ele>1088</ele>
        <time>2022-05-03T09:57:08.000Z</time>
      </trkpt>
      <trkpt lat="40.77291436493396759033203125" lon="-1.5004049241542816162109375">
        <ele>1088</ele>
        <time>2022-05-03T09:57:09.000Z</time>
      </trkpt>
      <trkpt lat="40.77290204353630542755126953125" lon="-1.50048203766345977783203125">
        <ele>1088.4000244140625</ele>
        <time>2022-05-03T09:57:11.000Z</time>
      </trkpt>
      <trkpt lat="40.77288779430091381072998046875" lon="-1.50056007318198680877685546875">
        <ele>1088.5999755859375</ele>
        <time>2022-05-03T09:57:13.000Z</time>
      </trkpt>
      <trkpt lat="40.77286901883780956268310546875" lon="-1.50063618086278438568115234375">
        <ele>1088.800048828125</ele>
        <time>2022-05-03T09:57:15.000Z</time>
      </trkpt>
      <trkpt lat="40.772849656641483306884765625" lon="-1.50071027688682079315185546875">
        <ele>1089.199951171875</ele>
        <time>2022-05-03T09:57:17.000Z</time>
      </trkpt>
      <trkpt lat="40.77282727696001529693603515625" lon="-1.50078202597796916961669921875">
        <ele>1089.199951171875</ele>
        <time>2022-05-03T09:57:19.000Z</time>
      </trkpt>
      <trkpt lat="40.7728095911443233489990234375" lon="-1.5008555352687835693359375">
        <ele>1089.4000244140625</ele>
        <time>2022-05-03T09:57:21.000Z</time>
      </trkpt>
      <trkpt lat="40.77279173769056797027587890625" lon="-1.5009261108934879302978515625">
        <ele>1089.5999755859375</ele>
        <time>2022-05-03T09:57:23.000Z</time>
      </trkpt>
      <trkpt lat="40.77277145348489284515380859375" lon="-1.50098956190049648284912109375">
        <ele>1089.800048828125</ele>
        <time>2022-05-03T09:57:25.000Z</time>
      </trkpt>
      <trkpt lat="40.77276156283915042877197265625" lon="-1.50102091021835803985595703125">
        <ele>1090</ele>
        <time>2022-05-03T09:57:26.000Z</time>
      </trkpt>
      <trkpt lat="40.7727525942027568817138671875" lon="-1.50105158798396587371826171875">
        <ele>1090</ele>
        <time>2022-05-03T09:57:27.000Z</time>
      </trkpt>
      <trkpt lat="40.77274538576602935791015625" lon="-1.5010823495686054229736328125">
        <ele>1090.199951171875</ele>
        <time>2022-05-03T09:57:28.000Z</time>
      </trkpt>
      <trkpt lat="40.77273742295801639556884765625" lon="-1.50111227296292781829833984375">
        <ele>1090.199951171875</ele>
        <time>2022-05-03T09:57:29.000Z</time>
      </trkpt>
      <trkpt lat="40.772726275026798248291015625" lon="-1.5011775679886341094970703125">
        <ele>1090.4000244140625</ele>
        <time>2022-05-03T09:57:31.000Z</time>
      </trkpt>
      <trkpt lat="40.77272116206586360931396484375" lon="-1.5012149512767791748046875">
        <ele>1090.5999755859375</ele>
        <time>2022-05-03T09:57:32.000Z</time>
      </trkpt>
      <trkpt lat="40.7727150432765483856201171875" lon="-1.501252837479114532470703125">
        <ele>1090.800048828125</ele>
        <time>2022-05-03T09:57:33.000Z</time>
      </trkpt>
      <trkpt lat="40.772703476250171661376953125" lon="-1.501329950988292694091796875">
        <ele>1091</ele>
        <time>2022-05-03T09:57:35.000Z</time>
      </trkpt>
      <trkpt lat="40.77269149012863636016845703125" lon="-1.5014042146503925323486328125">
        <ele>1091.199951171875</ele>
        <time>2022-05-03T09:57:37.000Z</time>
      </trkpt>
      <trkpt lat="40.77268109656870365142822265625" lon="-1.5014762990176677703857421875">
        <ele>1091.4000244140625</ele>
        <time>2022-05-03T09:57:39.000Z</time>
      </trkpt>
      <trkpt lat="40.7726674340665340423583984375" lon="-1.50154662318527698516845703125">
        <ele>1091.5999755859375</ele>
        <time>2022-05-03T09:57:41.000Z</time>
      </trkpt>
      <trkpt lat="40.7726613990962505340576171875" lon="-1.50158350355923175811767578125">
        <ele>1091.5999755859375</ele>
        <time>2022-05-03T09:57:42.000Z</time>
      </trkpt>
      <trkpt lat="40.77265595085918903350830078125" lon="-1.50162055157124996185302734375">
        <ele>1091.5999755859375</ele>
        <time>2022-05-03T09:57:43.000Z</time>
      </trkpt>
      <trkpt lat="40.77264337800443172454833984375" lon="-1.50169397704303264617919921875">
        <ele>1091.800048828125</ele>
        <time>2022-05-03T09:57:45.000Z</time>
      </trkpt>
      <trkpt lat="40.772631056606769561767578125" lon="-1.50176807306706905364990234375">
        <ele>1091.800048828125</ele>
        <time>2022-05-03T09:57:47.000Z</time>
      </trkpt>
      <trkpt lat="40.77261974103748798370361328125" lon="-1.5018407441675662994384765625">
        <ele>1091.800048828125</ele>
        <time>2022-05-03T09:57:49.000Z</time>
      </trkpt>
      <trkpt lat="40.772614963352680206298828125" lon="-1.50187619961798191070556640625">
        <ele>1092</ele>
        <time>2022-05-03T09:57:50.000Z</time>
      </trkpt>
      <trkpt lat="40.772609598934650421142578125" lon="-1.5019118227064609527587890625">
        <ele>1092</ele>
        <time>2022-05-03T09:57:51.000Z</time>
      </trkpt>
      <trkpt lat="40.77259643934667110443115234375" lon="-1.50198130868375301361083984375">
        <ele>1092</ele>
        <time>2022-05-03T09:57:53.000Z</time>
      </trkpt>
      <trkpt lat="40.77258436940610408782958984375" lon="-1.5020553208887577056884765625">
        <ele>1092.199951171875</ele>
        <time>2022-05-03T09:57:55.000Z</time>
      </trkpt>
      <trkpt lat="40.7725732214748859405517578125" lon="-1.50212899781763553619384765625">
        <ele>1092.199951171875</ele>
        <time>2022-05-03T09:57:57.000Z</time>
      </trkpt>
      <trkpt lat="40.772562660276889801025390625" lon="-1.50220057927072048187255859375">
        <ele>1092.199951171875</ele>
        <time>2022-05-03T09:57:59.000Z</time>
      </trkpt>
      <trkpt lat="40.77255427837371826171875" lon="-1.50226763449609279632568359375">
        <ele>1092.4000244140625</ele>
        <time>2022-05-03T09:58:01.000Z</time>
      </trkpt>
      <trkpt lat="40.77254690229892730712890625" lon="-1.50233653374016284942626953125">
        <ele>1092.4000244140625</ele>
        <time>2022-05-03T09:58:03.000Z</time>
      </trkpt>
      <trkpt lat="40.772538520395755767822265625" lon="-1.50240476243197917938232421875">
        <ele>1092.800048828125</ele>
        <time>2022-05-03T09:58:05.000Z</time>
      </trkpt>
      <trkpt lat="40.77253089286386966705322265625" lon="-1.50247299112379550933837890625">
        <ele>1093.199951171875</ele>
        <time>2022-05-03T09:58:07.000Z</time>
      </trkpt>
      <trkpt lat="40.7725249417126178741455078125" lon="-1.50254490785300731658935546875">
        <ele>1093.5999755859375</ele>
        <time>2022-05-03T09:58:09.000Z</time>
      </trkpt>
      <trkpt lat="40.7725175656378269195556640625" lon="-1.5026159025728702545166015625">
        <ele>1094</ele>
        <time>2022-05-03T09:58:11.000Z</time>
      </trkpt>
      <trkpt lat="40.7725061662495136260986328125" lon="-1.50268455035984516143798828125">
        <ele>1094.4000244140625</ele>
        <time>2022-05-03T09:58:13.000Z</time>
      </trkpt>
      <trkpt lat="40.77249032445251941680908203125" lon="-1.50275227613747119903564453125">
        <ele>1094.800048828125</ele>
        <time>2022-05-03T09:58:15.000Z</time>
      </trkpt>
      <trkpt lat="40.77247221954166889190673828125" lon="-1.50281983427703380584716796875">
        <ele>1095.199951171875</ele>
        <time>2022-05-03T09:58:17.000Z</time>
      </trkpt>
      <trkpt lat="40.77245344407856464385986328125" lon="-1.5028861351311206817626953125">
        <ele>1095.5999755859375</ele>
        <time>2022-05-03T09:58:19.000Z</time>
      </trkpt>
      <trkpt lat="40.77243424952030181884765625" lon="-1.50295008905231952667236328125">
        <ele>1096</ele>
        <time>2022-05-03T09:58:21.000Z</time>
      </trkpt>
      <trkpt lat="40.7724156416952610015869140625" lon="-1.50300960056483745574951171875">
        <ele>1096.199951171875</ele>
        <time>2022-05-03T09:58:23.000Z</time>
      </trkpt>
      <trkpt lat="40.77239661477506160736083984375" lon="-1.50306659750640392303466796875">
        <ele>1096.4000244140625</ele>
        <time>2022-05-03T09:58:25.000Z</time>
      </trkpt>
      <trkpt lat="40.772373564541339874267578125" lon="-1.50312267243862152099609375">
        <ele>1096.5999755859375</ele>
        <time>2022-05-03T09:58:27.000Z</time>
      </trkpt>
      <trkpt lat="40.772347748279571533203125" lon="-1.50318260304629802703857421875">
        <ele>1097</ele>
        <time>2022-05-03T09:58:29.000Z</time>
      </trkpt>
      <trkpt lat="40.77233660034835338592529296875" lon="-1.50321462191641330718994140625">
        <ele>1097.199951171875</ele>
        <time>2022-05-03T09:58:30.000Z</time>
      </trkpt>
      <trkpt lat="40.77232620678842067718505859375" lon="-1.50324680842459201812744140625">
        <ele>1097.5999755859375</ele>
        <time>2022-05-03T09:58:31.000Z</time>
      </trkpt>
      <trkpt lat="40.77231631614267826080322265625" lon="-1.50327882729470729827880859375">
        <ele>1097.800048828125</ele>
        <time>2022-05-03T09:58:32.000Z</time>
      </trkpt>
      <trkpt lat="40.77230692841112613677978515625" lon="-1.503310762345790863037109375">
        <ele>1098</ele>
        <time>2022-05-03T09:58:33.000Z</time>
      </trkpt>
      <trkpt lat="40.77229033224284648895263671875" lon="-1.50337153114378452301025390625">
        <ele>1098.5999755859375</ele>
        <time>2022-05-03T09:58:35.000Z</time>
      </trkpt>
      <trkpt lat="40.772273652255535125732421875" lon="-1.50343271903693675994873046875">
        <ele>1099.199951171875</ele>
        <time>2022-05-03T09:58:37.000Z</time>
      </trkpt>
      <trkpt lat="40.77225915156304836273193359375" lon="-1.50349608622491359710693359375">
        <ele>1099.800048828125</ele>
        <time>2022-05-03T09:58:39.000Z</time>
      </trkpt>
      <trkpt lat="40.77225361950695514678955078125" lon="-1.5035283565521240234375">
        <ele>1100</ele>
        <time>2022-05-03T09:58:40.000Z</time>
      </trkpt>
      <trkpt lat="40.77224741689860820770263671875" lon="-1.50355945341289043426513671875">
        <ele>1100.199951171875</ele>
        <time>2022-05-03T09:58:41.000Z</time>
      </trkpt>
      <trkpt lat="40.77223970554769039154052734375" lon="-1.5036244131624698638916015625">
        <ele>1100.800048828125</ele>
        <time>2022-05-03T09:58:43.000Z</time>
      </trkpt>
      <trkpt lat="40.772229731082916259765625" lon="-1.50368937291204929351806640625">
        <ele>1101.4000244140625</ele>
        <time>2022-05-03T09:58:45.000Z</time>
      </trkpt>
      <trkpt lat="40.772217996418476104736328125" lon="-1.5037534944713115692138671875">
        <ele>1102</ele>
        <time>2022-05-03T09:58:47.000Z</time>
      </trkpt>
      <trkpt lat="40.77220232225954532623291015625" lon="-1.50380604900419712066650390625">
        <ele>1102.4000244140625</ele>
        <time>2022-05-03T09:58:49.000Z</time>
      </trkpt>
      <trkpt lat="40.772182457149028778076171875" lon="-1.50385282002389430999755859375">
        <ele>1102.800048828125</ele>
        <time>2022-05-03T09:58:51.000Z</time>
      </trkpt>
      <trkpt lat="40.77216410078108310699462890625" lon="-1.5038990043103694915771484375">
        <ele>1103.199951171875</ele>
        <time>2022-05-03T09:58:53.000Z</time>
      </trkpt>
      <trkpt lat="40.7721564732491970062255859375" lon="-1.5039224736392498016357421875">
        <ele>1103.4000244140625</ele>
        <time>2022-05-03T09:58:54.000Z</time>
      </trkpt>
      <trkpt lat="40.7721474207937717437744140625" lon="-1.5039456076920032501220703125">
        <ele>1103.5999755859375</ele>
        <time>2022-05-03T09:58:55.000Z</time>
      </trkpt>
      <trkpt lat="40.77212437056005001068115234375" lon="-1.5039883553981781005859375">
        <ele>1104.199951171875</ele>
        <time>2022-05-03T09:58:57.000Z</time>
      </trkpt>
      <trkpt lat="40.7721068523824214935302734375" lon="-1.50403403677046298980712890625">
        <ele>1104.800048828125</ele>
        <time>2022-05-03T09:58:59.000Z</time>
      </trkpt>
      <trkpt lat="40.77208933420479297637939453125" lon="-1.50408013723790645599365234375">
        <ele>1105.5999755859375</ele>
        <time>2022-05-03T09:59:01.000Z</time>
      </trkpt>
      <trkpt lat="40.772079192101955413818359375" lon="-1.504102014005184173583984375">
        <ele>1106</ele>
        <time>2022-05-03T09:59:02.000Z</time>
      </trkpt>
      <trkpt lat="40.7720676250755786895751953125" lon="-1.50412372313439846038818359375">
        <ele>1106.4000244140625</ele>
        <time>2022-05-03T09:59:03.000Z</time>
      </trkpt>
      <trkpt lat="40.77205605804920196533203125" lon="-1.5041454322636127471923828125">
        <ele>1106.800048828125</ele>
        <time>2022-05-03T09:59:04.000Z</time>
      </trkpt>
      <trkpt lat="40.77204390428960323333740234375" lon="-1.5041665546596050262451171875">
        <ele>1107.199951171875</ele>
        <time>2022-05-03T09:59:05.000Z</time>
      </trkpt>
      <trkpt lat="40.77201859094202518463134765625" lon="-1.5042047761380672454833984375">
        <ele>1107.800048828125</ele>
        <time>2022-05-03T09:59:07.000Z</time>
      </trkpt>
      <trkpt lat="40.77199562452733516693115234375" lon="-1.50424291379749774932861328125">
        <ele>1108.5999755859375</ele>
        <time>2022-05-03T09:59:09.000Z</time>
      </trkpt>
      <trkpt lat="40.7719673775136470794677734375" lon="-1.504276357591152191162109375">
        <ele>1109.199951171875</ele>
        <time>2022-05-03T09:59:11.000Z</time>
      </trkpt>
      <trkpt lat="40.77193913049995899200439453125" lon="-1.50431198067963123321533203125">
        <ele>1109.800048828125</ele>
        <time>2022-05-03T09:59:13.000Z</time>
      </trkpt>
      <trkpt lat="40.771907866001129150390625" lon="-1.5043412335216999053955078125">
        <ele>1110.4000244140625</ele>
        <time>2022-05-03T09:59:15.000Z</time>
      </trkpt>
      <trkpt lat="40.7718738354742527008056640625" lon="-1.50436663068830966949462890625">
        <ele>1111</ele>
        <time>2022-05-03T09:59:17.000Z</time>
      </trkpt>
      <trkpt lat="40.77184257097542285919189453125" lon="-1.50439328514039516448974609375">
        <ele>1111.4000244140625</ele>
        <time>2022-05-03T09:59:19.000Z</time>
      </trkpt>
      <trkpt lat="40.7718074508011341094970703125" lon="-1.5044146589934825897216796875">
        <ele>1112</ele>
        <time>2022-05-03T09:59:21.000Z</time>
      </trkpt>
      <trkpt lat="40.77177174389362335205078125" lon="-1.50443921796977519989013671875">
        <ele>1112.4000244140625</ele>
        <time>2022-05-03T09:59:23.000Z</time>
      </trkpt>
      <trkpt lat="40.77175456099212169647216796875" lon="-1.50445313192903995513916015625">
        <ele>1112.800048828125</ele>
        <time>2022-05-03T09:59:24.000Z</time>
      </trkpt>
      <trkpt lat="40.7717373780906200408935546875" lon="-1.50446604005992412567138671875">
        <ele>1113</ele>
        <time>2022-05-03T09:59:25.000Z</time>
      </trkpt>
      <trkpt lat="40.77172053046524524688720703125" lon="-1.5044766850769519805908203125">
        <ele>1113.199951171875</ele>
        <time>2022-05-03T09:59:26.000Z</time>
      </trkpt>
      <trkpt lat="40.77170527540147304534912109375" lon="-1.50448531843721866607666015625">
        <ele>1113.4000244140625</ele>
        <time>2022-05-03T09:59:27.000Z</time>
      </trkpt>
      <trkpt lat="40.7716758549213409423828125" lon="-1.50450359098613262176513671875">
        <ele>1113.800048828125</ele>
        <time>2022-05-03T09:59:29.000Z</time>
      </trkpt>
      <trkpt lat="40.77165984548628330230712890625" lon="-1.5045140683650970458984375">
        <ele>1114</ele>
        <time>2022-05-03T09:59:30.000Z</time>
      </trkpt>
      <trkpt lat="40.7716461829841136932373046875" lon="-1.50452320463955402374267578125">
        <ele>1114.199951171875</ele>
        <time>2022-05-03T09:59:31.000Z</time>
      </trkpt>
      <trkpt lat="40.77161340974271297454833984375" lon="-1.50454114191234111785888671875">
        <ele>1114.5999755859375</ele>
        <time>2022-05-03T09:59:33.000Z</time>
      </trkpt>
      <trkpt lat="40.77159664593636989593505859375" lon="-1.50455203838646411895751953125">
        <ele>1114.800048828125</ele>
        <time>2022-05-03T09:59:34.000Z</time>
      </trkpt>
      <trkpt lat="40.77158021740615367889404296875" lon="-1.50456167757511138916015625">
        <ele>1115</ele>
        <time>2022-05-03T09:59:35.000Z</time>
      </trkpt>
      <trkpt lat="40.77154618687927722930908203125" lon="-1.50457818992435932159423828125">
        <ele>1115.4000244140625</ele>
        <time>2022-05-03T09:59:37.000Z</time>
      </trkpt>
      <trkpt lat="40.77151433564722537994384765625" lon="-1.5045950375497341156005859375">
        <ele>1115.5999755859375</ele>
        <time>2022-05-03T09:59:39.000Z</time>
      </trkpt>
      <trkpt lat="40.77148650772869586944580078125" lon="-1.504612974822521209716796875">
        <ele>1116</ele>
        <time>2022-05-03T09:59:41.000Z</time>
      </trkpt>
      <trkpt lat="40.77145717106759548187255859375" lon="-1.50462797842919826507568359375">
        <ele>1116.4000244140625</ele>
        <time>2022-05-03T09:59:43.000Z</time>
      </trkpt>
      <trkpt lat="40.7714371383190155029296875" lon="-1.504644490778446197509765625">
        <ele>1116.5999755859375</ele>
        <time>2022-05-03T09:59:45.000Z</time>
      </trkpt>
      <trkpt lat="40.77141794376075267791748046875" lon="-1.5046560578048229217529296875">
        <ele>1117</ele>
        <time>2022-05-03T09:59:47.000Z</time>
      </trkpt>
      <trkpt lat="40.77139380387961864471435546875" lon="-1.5046704746782779693603515625">
        <ele>1117.199951171875</ele>
        <time>2022-05-03T09:59:49.000Z</time>
      </trkpt>
      <trkpt lat="40.7713632099330425262451171875" lon="-1.50468413718044757843017578125">
        <ele>1117.4000244140625</ele>
        <time>2022-05-03T09:59:51.000Z</time>
      </trkpt>
      <trkpt lat="40.77133563347160816192626953125" lon="-1.504693441092967987060546875">
        <ele>1117.199951171875</ele>
        <time>2022-05-03T09:59:53.000Z</time>
      </trkpt>
      <trkpt lat="40.77131979167461395263671875" lon="-1.50469704531133174896240234375">
        <ele>1117.199951171875</ele>
        <time>2022-05-03T09:59:54.000Z</time>
      </trkpt>
      <trkpt lat="40.77130596153438091278076171875" lon="-1.50470249354839324951171875">
        <ele>1117.199951171875</ele>
        <time>2022-05-03T09:59:55.000Z</time>
      </trkpt>
      <trkpt lat="40.77127821743488311767578125" lon="-1.504710875451564788818359375">
        <ele>1117</ele>
        <time>2022-05-03T09:59:57.000Z</time>
      </trkpt>
      <trkpt lat="40.77125005424022674560546875" lon="-1.5047194249927997589111328125">
        <ele>1117</ele>
        <time>2022-05-03T09:59:59.000Z</time>
      </trkpt>
      <trkpt lat="40.7712223939597606658935546875" lon="-1.504747085273265838623046875">
        <ele>1117.199951171875</ele>
        <time>2022-05-03T10:00:01.000Z</time>
      </trkpt>
      <trkpt lat="40.77120621688663959503173828125" lon="-1.50478673167526721954345703125">
        <ele>1117.800048828125</ele>
        <time>2022-05-03T10:00:03.000Z</time>
      </trkpt>
      <trkpt lat="40.7711965776979923248291015625" lon="-1.5048149786889553070068359375">
        <ele>1118.199951171875</ele>
        <time>2022-05-03T10:00:04.000Z</time>
      </trkpt>
      <trkpt lat="40.77119079418480396270751953125" lon="-1.5048431418836116790771484375">
        <ele>1118.4000244140625</ele>
        <time>2022-05-03T10:00:05.000Z</time>
      </trkpt>
      <trkpt lat="40.77119062654674053192138671875" lon="-1.50487071834504604339599609375">
        <ele>1118.5999755859375</ele>
        <time>2022-05-03T10:00:06.000Z</time>
      </trkpt>
      <trkpt lat="40.7711838372051715850830078125" lon="-1.50489351712167263031005859375">
        <ele>1118.5999755859375</ele>
        <time>2022-05-03T10:00:07.000Z</time>
      </trkpt>
      <trkpt lat="40.77117034234106540679931640625" lon="-1.50491438806056976318359375">
        <ele>1118.5999755859375</ele>
        <time>2022-05-03T10:00:08.000Z</time>
      </trkpt>
      <trkpt lat="40.77115978114306926727294921875" lon="-1.50493710301816463470458984375">
        <ele>1118.5999755859375</ele>
        <time>2022-05-03T10:00:09.000Z</time>
      </trkpt>
      <trkpt lat="40.771149806678295135498046875" lon="-1.50495772249996662139892578125">
        <ele>1118.5999755859375</ele>
        <time>2022-05-03T10:00:10.000Z</time>
      </trkpt>
      <trkpt lat="40.77114284969866275787353515625" lon="-1.504975073039531707763671875">
        <ele>1118.5999755859375</ele>
        <time>2022-05-03T10:00:11.000Z</time>
      </trkpt>
      <trkpt lat="40.7711368985474109649658203125" lon="-1.50499426759779453277587890625">
        <ele>1118.800048828125</ele>
        <time>2022-05-03T10:00:12.000Z</time>
      </trkpt>
      <trkpt lat="40.7711328752338886260986328125" lon="-1.50501840747892856597900390625">
        <ele>1118.800048828125</ele>
        <time>2022-05-03T10:00:13.000Z</time>
      </trkpt>
      <trkpt lat="40.77112667262554168701171875" lon="-1.50504447519779205322265625">
        <ele>1118.800048828125</ele>
        <time>2022-05-03T10:00:14.000Z</time>
      </trkpt>
      <trkpt lat="40.771119296550750732421875" lon="-1.505069620907306671142578125">
        <ele>1119</ele>
        <time>2022-05-03T10:00:15.000Z</time>
      </trkpt>
      <trkpt lat="40.77110948972404003143310546875" lon="-1.505093760788440704345703125">
        <ele>1119</ele>
        <time>2022-05-03T10:00:16.000Z</time>
      </trkpt>
      <trkpt lat="40.7710991799831390380859375" lon="-1.50511463172733783721923828125">
        <ele>1119</ele>
        <time>2022-05-03T10:00:17.000Z</time>
      </trkpt>
      <trkpt lat="40.77108065597712993621826171875" lon="-1.505150087177753448486328125">
        <ele>1119</ele>
        <time>2022-05-03T10:00:19.000Z</time>
      </trkpt>
      <trkpt lat="40.7710721902549266815185546875" lon="-1.50516425259411334991455078125">
        <ele>1119</ele>
        <time>2022-05-03T10:00:20.000Z</time>
      </trkpt>
      <trkpt lat="40.77106422744691371917724609375" lon="-1.50517514906823635101318359375">
        <ele>1119</ele>
        <time>2022-05-03T10:00:21.000Z</time>
      </trkpt>
      <trkpt lat="40.7710500620305538177490234375" lon="-1.5051926672458648681640625">
        <ele>1119</ele>
        <time>2022-05-03T10:00:23.000Z</time>
      </trkpt>
      <trkpt lat="40.77103723771870136260986328125" lon="-1.5052116103470325469970703125">
        <ele>1119</ele>
        <time>2022-05-03T10:00:25.000Z</time>
      </trkpt>
      <trkpt lat="40.7710232399404048919677734375" lon="-1.505243293941020965576171875">
        <ele>1119.199951171875</ele>
        <time>2022-05-03T10:00:27.000Z</time>
      </trkpt>
      <trkpt lat="40.77100588940083980560302734375" lon="-1.5052863769233226776123046875">
        <ele>1119.4000244140625</ele>
        <time>2022-05-03T10:00:29.000Z</time>
      </trkpt>
      <trkpt lat="40.7709877006709575653076171875" lon="-1.50533549487590789794921875">
        <ele>1119.5999755859375</ele>
        <time>2022-05-03T10:00:31.000Z</time>
      </trkpt>
      <trkpt lat="40.7709843479096889495849609375" lon="-1.50535804219543933868408203125">
        <ele>1119.5999755859375</ele>
        <time>2022-05-03T10:00:32.000Z</time>
      </trkpt>
      <trkpt lat="40.770979821681976318359375" lon="-1.5053839422762393951416015625">
        <ele>1119.800048828125</ele>
        <time>2022-05-03T10:00:33.000Z</time>
      </trkpt>
      <trkpt lat="40.77097604982554912567138671875" lon="-1.50541084818542003631591796875">
        <ele>1120</ele>
        <time>2022-05-03T10:00:34.000Z</time>
      </trkpt>
      <trkpt lat="40.77097286470234394073486328125" lon="-1.50543875992298126220703125">
        <ele>1120.199951171875</ele>
        <time>2022-05-03T10:00:35.000Z</time>
      </trkpt>
      <trkpt lat="40.770968087017536163330078125" lon="-1.50546432472765445709228515625">
        <ele>1120.4000244140625</ele>
        <time>2022-05-03T10:00:36.000Z</time>
      </trkpt>
      <trkpt lat="40.770961381494998931884765625" lon="-1.50548527948558330535888671875">
        <ele>1120.4000244140625</ele>
        <time>2022-05-03T10:00:37.000Z</time>
      </trkpt>
      <trkpt lat="40.77095358632504940032958984375" lon="-1.50551193393766880035400390625">
        <ele>1120.5999755859375</ele>
        <time>2022-05-03T10:00:39.000Z</time>
      </trkpt>
      <trkpt lat="40.77095459215342998504638671875" lon="-1.50551293976604938507080078125">
        <ele>1120.5999755859375</ele>
        <time>2022-05-03T10:00:40.000Z</time>
      </trkpt>
      <trkpt lat="40.77097781002521514892578125" lon="-1.505448818206787109375">
        <ele>1120.4000244140625</ele>
        <time>2022-05-03T10:00:53.000Z</time>
      </trkpt>
      <trkpt lat="40.7709823362529277801513671875" lon="-1.5054077468812465667724609375">
        <ele>1120</ele>
        <time>2022-05-03T10:00:55.000Z</time>
      </trkpt>
      <trkpt lat="40.77098174951970577239990234375" lon="-1.5053701959550380706787109375">
        <ele>1119.800048828125</ele>
        <time>2022-05-03T10:00:57.000Z</time>
      </trkpt>
      <trkpt lat="40.77098879031836986541748046875" lon="-1.5053530968725681304931640625">
        <ele>1119.5999755859375</ele>
        <time>2022-05-03T10:00:58.000Z</time>
      </trkpt>
      <trkpt lat="40.771001614630222320556640625" lon="-1.5053443796932697296142578125">
        <ele>1119.800048828125</ele>
        <time>2022-05-03T10:00:59.000Z</time>
      </trkpt>
      <trkpt lat="40.7710299454629421234130859375" lon="-1.50535753928124904632568359375">
        <ele>1120.199951171875</ele>
        <time>2022-05-03T10:01:01.000Z</time>
      </trkpt>
      <trkpt lat="40.7710514031350612640380859375" lon="-1.5053963474929332733154296875">
        <ele>1120.800048828125</ele>
        <time>2022-05-03T10:01:03.000Z</time>
      </trkpt>
      <trkpt lat="40.77106221579015254974365234375" lon="-1.50541654787957668304443359375">
        <ele>1121</ele>
        <time>2022-05-03T10:01:04.000Z</time>
      </trkpt>
      <trkpt lat="40.77107227407395839691162109375" lon="-1.50543800555169582366943359375">
        <ele>1121.4000244140625</ele>
        <time>2022-05-03T10:01:05.000Z</time>
      </trkpt>
      <trkpt lat="40.77110161073505878448486328125" lon="-1.50548460893332958221435546875">
        <ele>1122.199951171875</ele>
        <time>2022-05-03T10:01:07.000Z</time>
      </trkpt>
      <trkpt lat="40.7711152732372283935546875" lon="-1.5055110119283199310302734375">
        <ele>1122.5999755859375</ele>
        <time>2022-05-03T10:01:08.000Z</time>
      </trkpt>
      <trkpt lat="40.77112457714974880218505859375" lon="-1.50553674437105655670166015625">
        <ele>1122.800048828125</ele>
        <time>2022-05-03T10:01:09.000Z</time>
      </trkpt>
      <trkpt lat="40.77113337814807891845703125" lon="-1.505583263933658599853515625">
        <ele>1123.4000244140625</ele>
        <time>2022-05-03T10:01:11.000Z</time>
      </trkpt>
      <trkpt lat="40.77113597653806209564208984375" lon="-1.50560849346220493316650390625">
        <ele>1123.5999755859375</ele>
        <time>2022-05-03T10:01:12.000Z</time>
      </trkpt>
      <trkpt lat="40.7711405865848064422607421875" lon="-1.50563187897205352783203125">
        <ele>1123.800048828125</ele>
        <time>2022-05-03T10:01:13.000Z</time>
      </trkpt>
      <trkpt lat="40.77114871703088283538818359375" lon="-1.50567471049726009368896484375">
        <ele>1124.199951171875</ele>
        <time>2022-05-03T10:01:15.000Z</time>
      </trkpt>
      <trkpt lat="40.7711516506969928741455078125" lon="-1.505694575607776641845703125">
        <ele>1124.4000244140625</ele>
        <time>2022-05-03T10:01:16.000Z</time>
      </trkpt>
      <trkpt lat="40.77115559019148349761962890625" lon="-1.5057135187089443206787109375">
        <ele>1124.4000244140625</ele>
        <time>2022-05-03T10:01:17.000Z</time>
      </trkpt>
      <trkpt lat="40.7711630500853061676025390625" lon="-1.50575199164450168609619140625">
        <ele>1124.5999755859375</ele>
        <time>2022-05-03T10:01:19.000Z</time>
      </trkpt>
      <trkpt lat="40.77118811197578907012939453125" lon="-1.50580697692930698394775390625">
        <ele>1124.800048828125</ele>
        <time>2022-05-03T10:01:21.000Z</time>
      </trkpt>
      <trkpt lat="40.77121384441852569580078125" lon="-1.50586095638573169708251953125">
        <ele>1124.800048828125</ele>
        <time>2022-05-03T10:01:23.000Z</time>
      </trkpt>
      <trkpt lat="40.77122457325458526611328125" lon="-1.50588660500943660736083984375">
        <ele>1124.4000244140625</ele>
        <time>2022-05-03T10:01:24.000Z</time>
      </trkpt>
      <trkpt lat="40.77123664319515228271484375" lon="-1.50591082870960235595703125">
        <ele>1124.199951171875</ele>
        <time>2022-05-03T10:01:25.000Z</time>
      </trkpt>
      <trkpt lat="40.77126254327595233917236328125" lon="-1.5059570968151092529296875">
        <ele>1123.4000244140625</ele>
        <time>2022-05-03T10:01:27.000Z</time>
      </trkpt>
      <trkpt lat="40.77129506506025791168212890625" lon="-1.50598349981009960174560546875">
        <ele>1123</ele>
        <time>2022-05-03T10:01:29.000Z</time>
      </trkpt>
      <trkpt lat="40.77131182886660099029541015625" lon="-1.5059777162969112396240234375">
        <ele>1123</ele>
        <time>2022-05-03T10:01:30.000Z</time>
      </trkpt>
      <trkpt lat="40.77132440172135829925537109375" lon="-1.5059629641473293304443359375">
        <ele>1123.199951171875</ele>
        <time>2022-05-03T10:01:31.000Z</time>
      </trkpt>
      <trkpt lat="40.77134191989898681640625" lon="-1.50593698024749755859375">
        <ele>1123.5999755859375</ele>
        <time>2022-05-03T10:01:33.000Z</time>
      </trkpt>
      <trkpt lat="40.77135239727795124053955078125" lon="-1.505924575030803680419921875">
        <ele>1123.5999755859375</ele>
        <time>2022-05-03T10:01:34.000Z</time>
      </trkpt>
      <trkpt lat="40.77135927043855190277099609375" lon="-1.5059143491089344024658203125">
        <ele>1123.800048828125</ele>
        <time>2022-05-03T10:01:35.000Z</time>
      </trkpt>
      <trkpt lat="40.771376788616180419921875" lon="-1.50589548982679843902587890625">
        <ele>1124</ele>
        <time>2022-05-03T10:01:37.000Z</time>
      </trkpt>
      <trkpt lat="40.77139363624155521392822265625" lon="-1.5058954060077667236328125">
        <ele>1123.800048828125</ele>
        <time>2022-05-03T10:01:38.000Z</time>
      </trkpt>
      <trkpt lat="40.77140989713370800018310546875" lon="-1.50589398108422756195068359375">
        <ele>1123.800048828125</ele>
        <time>2022-05-03T10:01:39.000Z</time>
      </trkpt>
      <trkpt lat="40.77143152244389057159423828125" lon="-1.50589616037905216217041015625">
        <ele>1123.4000244140625</ele>
        <time>2022-05-03T10:01:41.000Z</time>
      </trkpt>
      <trkpt lat="40.7714242301881313323974609375" lon="-1.50588258169591426849365234375">
        <ele>1123.800048828125</ele>
        <time>2022-05-03T10:01:43.000Z</time>
      </trkpt>
      <trkpt lat="40.771428756415843963623046875" lon="-1.5058573521673679351806640625">
        <ele>1124</ele>
        <time>2022-05-03T10:01:45.000Z</time>
      </trkpt>
      <trkpt lat="40.77143806032836437225341796875" lon="-1.50583731941878795623779296875">
        <ele>1124.199951171875</ele>
        <time>2022-05-03T10:01:46.000Z</time>
      </trkpt>
      <trkpt lat="40.7714446820318698883056640625" lon="-1.50581552647054195404052734375">
        <ele>1124.4000244140625</ele>
        <time>2022-05-03T10:01:47.000Z</time>
      </trkpt>
      <trkpt lat="40.77145147137343883514404296875" lon="-1.50576590560376644134521484375">
        <ele>1125</ele>
        <time>2022-05-03T10:01:49.000Z</time>
      </trkpt>
      <trkpt lat="40.7714537344872951507568359375" lon="-1.5057242475450038909912109375">
        <ele>1125.5999755859375</ele>
        <time>2022-05-03T10:01:51.000Z</time>
      </trkpt>
      <trkpt lat="40.7714532315731048583984375" lon="-1.5056888759136199951171875">
        <ele>1126</ele>
        <time>2022-05-03T10:01:53.000Z</time>
      </trkpt>
      <trkpt lat="40.77145314775407314300537109375" lon="-1.505672447383403778076171875">
        <ele>1126.199951171875</ele>
        <time>2022-05-03T10:01:54.000Z</time>
      </trkpt>
      <trkpt lat="40.77146002091467380523681640625" lon="-1.50565576739609241485595703125">
        <ele>1126.199951171875</ele>
        <time>2022-05-03T10:01:55.000Z</time>
      </trkpt>
      <trkpt lat="40.7714773714542388916015625" lon="-1.50561771355569362640380859375">
        <ele>1126</ele>
        <time>2022-05-03T10:01:57.000Z</time>
      </trkpt>
      <trkpt lat="40.771486759185791015625" lon="-1.505578570067882537841796875">
        <ele>1125.800048828125</ele>
        <time>2022-05-03T10:01:59.000Z</time>
      </trkpt>
      <trkpt lat="40.77149069868028163909912109375" lon="-1.5055224113166332244873046875">
        <ele>1125.4000244140625</ele>
        <time>2022-05-03T10:02:01.000Z</time>
      </trkpt>
      <trkpt lat="40.771505199372768402099609375" lon="-1.505478657782077789306640625">
        <ele>1125</ele>
        <time>2022-05-03T10:02:03.000Z</time>
      </trkpt>
      <trkpt lat="40.77152070589363574981689453125" lon="-1.50546155869960784912109375">
        <ele>1124.800048828125</ele>
        <time>2022-05-03T10:02:04.000Z</time>
      </trkpt>
      <trkpt lat="40.7715372182428836822509765625" lon="-1.50545124895870685577392578125">
        <ele>1124.5999755859375</ele>
        <time>2022-05-03T10:02:05.000Z</time>
      </trkpt>
      <trkpt lat="40.77154618687927722930908203125" lon="-1.50545108132064342498779296875">
        <ele>1124.5999755859375</ele>
        <time>2022-05-03T10:02:06.000Z</time>
      </trkpt>
      <trkpt lat="40.77155473642051219940185546875" lon="-1.50555417872965335845947265625">
        <ele>1125</ele>
        <time>2022-05-03T10:14:24.000Z</time>
      </trkpt>
      <trkpt lat="40.7715526409447193145751953125" lon="-1.5055696852505207061767578125">
        <ele>1125</ele>
        <time>2022-05-03T10:14:25.000Z</time>
      </trkpt>
      <trkpt lat="40.771534033119678497314453125" lon="-1.50560413487255573272705078125">
        <ele>1125.4000244140625</ele>
        <time>2022-05-03T10:14:27.000Z</time>
      </trkpt>
      <trkpt lat="40.7715285010635852813720703125" lon="-1.50562441907823085784912109375">
        <ele>1125.4000244140625</ele>
        <time>2022-05-03T10:14:28.000Z</time>
      </trkpt>
      <trkpt lat="40.7715264894068241119384765625" lon="-1.50564721785485744476318359375">
        <ele>1125.5999755859375</ele>
        <time>2022-05-03T10:14:29.000Z</time>
      </trkpt>
      <trkpt lat="40.77152707614004611968994140625" lon="-1.5056950785219669342041015625">
        <ele>1125.199951171875</ele>
        <time>2022-05-03T10:14:31.000Z</time>
      </trkpt>
      <trkpt lat="40.77152607031166553497314453125" lon="-1.50574696250259876251220703125">
        <ele>1124.5999755859375</ele>
        <time>2022-05-03T10:14:33.000Z</time>
      </trkpt>
      <trkpt lat="40.77152707614004611968994140625" lon="-1.50577847845852375030517578125">
        <ele>1124.199951171875</ele>
        <time>2022-05-03T10:14:34.000Z</time>
      </trkpt>
      <trkpt lat="40.7715228013694286346435546875" lon="-1.505806557834148406982421875">
        <ele>1123.800048828125</ele>
        <time>2022-05-03T10:14:35.000Z</time>
      </trkpt>
      <trkpt lat="40.77150486409664154052734375" lon="-1.50584779679775238037109375">
        <ele>1123.4000244140625</ele>
        <time>2022-05-03T10:14:37.000Z</time>
      </trkpt>
      <trkpt lat="40.7714909501373767852783203125" lon="-1.5058578550815582275390625">
        <ele>1123.4000244140625</ele>
        <time>2022-05-03T10:14:38.000Z</time>
      </trkpt>
      <trkpt lat="40.7714621163904666900634765625" lon="-1.505864560604095458984375">
        <ele>1123.5999755859375</ele>
        <time>2022-05-03T10:14:39.000Z</time>
      </trkpt>
      <trkpt lat="40.771399922668933868408203125" lon="-1.50587998330593109130859375">
        <ele>1124</ele>
        <time>2022-05-03T10:14:41.000Z</time>
      </trkpt>
      <trkpt lat="40.77135474421083927154541015625" lon="-1.50588727556169033050537109375">
        <ele>1124.199951171875</ele>
        <time>2022-05-03T10:14:43.000Z</time>
      </trkpt>
      <trkpt lat="40.7713256590068340301513671875" lon="-1.50589414872229099273681640625">
        <ele>1124.199951171875</ele>
        <time>2022-05-03T10:14:44.000Z</time>
      </trkpt>
      <trkpt lat="40.7712974958121776580810546875" lon="-1.505903787910938262939453125">
        <ele>1124</ele>
        <time>2022-05-03T10:14:45.000Z</time>
      </trkpt>
      <trkpt lat="40.771271847188472747802734375" lon="-1.5059039555490016937255859375">
        <ele>1124.199951171875</ele>
        <time>2022-05-03T10:14:46.000Z</time>
      </trkpt>
      <trkpt lat="40.77124594710767269134521484375" lon="-1.50588643737137317657470703125">
        <ele>1124.4000244140625</ele>
        <time>2022-05-03T10:14:47.000Z</time>
      </trkpt>
      <trkpt lat="40.77121895737946033477783203125" lon="-1.50585374794900417327880859375">
        <ele>1125</ele>
        <time>2022-05-03T10:14:48.000Z</time>
      </trkpt>
      <trkpt lat="40.77119163237512111663818359375" lon="-1.505811922252178192138671875">
        <ele>1125</ele>
        <time>2022-05-03T10:14:49.000Z</time>
      </trkpt>
      <trkpt lat="40.771162211894989013671875" lon="-1.50576305575668811798095703125">
        <ele>1124.5999755859375</ele>
        <time>2022-05-03T10:14:50.000Z</time>
      </trkpt>
      <trkpt lat="40.77113949693739414215087890625" lon="-1.5057078190147876739501953125">
        <ele>1124.199951171875</ele>
        <time>2022-05-03T10:14:51.000Z</time>
      </trkpt>
      <trkpt lat="40.77112038619816303253173828125" lon="-1.50565476156771183013916015625">
        <ele>1123.800048828125</ele>
        <time>2022-05-03T10:14:52.000Z</time>
      </trkpt>
      <trkpt lat="40.7710990123450756072998046875" lon="-1.505602039396762847900390625">
        <ele>1123</ele>
        <time>2022-05-03T10:14:53.000Z</time>
      </trkpt>
      <trkpt lat="40.77105291187763214111328125" lon="-1.50549869053065776824951171875">
        <ele>1121.5999755859375</ele>
        <time>2022-05-03T10:14:55.000Z</time>
      </trkpt>
      <trkpt lat="40.77103405259549617767333984375" lon="-1.5054496563971042633056640625">
        <ele>1121</ele>
        <time>2022-05-03T10:14:56.000Z</time>
      </trkpt>
      <trkpt lat="40.771017372608184814453125" lon="-1.50540363974869251251220703125">
        <ele>1120.4000244140625</ele>
        <time>2022-05-03T10:14:57.000Z</time>
      </trkpt>
      <trkpt lat="40.77099717222154140472412109375" lon="-1.50536038912832736968994140625">
        <ele>1119.800048828125</ele>
        <time>2022-05-03T10:14:58.000Z</time>
      </trkpt>
      <trkpt lat="40.77097957022488117218017578125" lon="-1.5053229220211505889892578125">
        <ele>1119.4000244140625</ele>
        <time>2022-05-03T10:14:59.000Z</time>
      </trkpt>
      <trkpt lat="40.77098091132938861846923828125" lon="-1.50524740107357501983642578125">
        <ele>1118.800048828125</ele>
        <time>2022-05-03T10:15:01.000Z</time>
      </trkpt>
      <trkpt lat="40.77101578004658222198486328125" lon="-1.505184955894947052001953125">
        <ele>1118.5999755859375</ele>
        <time>2022-05-03T10:15:03.000Z</time>
      </trkpt>
      <trkpt lat="40.77104746364057064056396484375" lon="-1.50513810105621814727783203125">
        <ele>1118.5999755859375</ele>
        <time>2022-05-03T10:15:05.000Z</time>
      </trkpt>
      <trkpt lat="40.77106238342821598052978515625" lon="-1.50510893203318119049072265625">
        <ele>1118.5999755859375</ele>
        <time>2022-05-03T10:15:06.000Z</time>
      </trkpt>
      <trkpt lat="40.7710762135684490203857421875" lon="-1.505074314773082733154296875">
        <ele>1118.5999755859375</ele>
        <time>2022-05-03T10:15:07.000Z</time>
      </trkpt>
      <trkpt lat="40.77108551748096942901611328125" lon="-1.50503466837108135223388671875">
        <ele>1118.5999755859375</ele>
        <time>2022-05-03T10:15:08.000Z</time>
      </trkpt>
      <trkpt lat="40.77109255827963352203369140625" lon="-1.50499611161649227142333984375">
        <ele>1118.4000244140625</ele>
        <time>2022-05-03T10:15:09.000Z</time>
      </trkpt>
      <trkpt lat="40.77110060490667819976806640625" lon="-1.50495889596641063690185546875">
        <ele>1118.199951171875</ele>
        <time>2022-05-03T10:15:10.000Z</time>
      </trkpt>
      <trkpt lat="40.771116949617862701416015625" lon="-1.50492109358310699462890625">
        <ele>1118.199951171875</ele>
        <time>2022-05-03T10:15:11.000Z</time>
      </trkpt>
      <trkpt lat="40.771163888275623321533203125" lon="-1.50483392179012298583984375">
        <ele>1118.199951171875</ele>
        <time>2022-05-03T10:15:13.000Z</time>
      </trkpt>
      <trkpt lat="40.77121459878981113433837890625" lon="-1.50475068949162960052490234375">
        <ele>1117.199951171875</ele>
        <time>2022-05-03T10:15:15.000Z</time>
      </trkpt>
      <trkpt lat="40.7712716795504093170166015625" lon="-1.5046803653240203857421875">
        <ele>1116.5999755859375</ele>
        <time>2022-05-03T10:15:17.000Z</time>
      </trkpt>
      <trkpt lat="40.77134937979280948638916015625" lon="-1.50464775972068309783935546875">
        <ele>1116.5999755859375</ele>
        <time>2022-05-03T10:15:19.000Z</time>
      </trkpt>
      <trkpt lat="40.771389864385128021240234375" lon="-1.50463543832302093505859375">
        <ele>1116.5999755859375</ele>
        <time>2022-05-03T10:15:20.000Z</time>
      </trkpt>
      <trkpt lat="40.77142531983554363250732421875" lon="-1.5046195127069950103759765625">
        <ele>1116.199951171875</ele>
        <time>2022-05-03T10:15:21.000Z</time>
      </trkpt>
      <trkpt lat="40.77150008641183376312255859375" lon="-1.50458447635173797607421875">
        <ele>1115.5999755859375</ele>
        <time>2022-05-03T10:15:23.000Z</time>
      </trkpt>
      <trkpt lat="40.77158306725323200225830078125" lon="-1.504549272358417510986328125">
        <ele>1114.800048828125</ele>
        <time>2022-05-03T10:15:25.000Z</time>
      </trkpt>
      <trkpt lat="40.7716304250061511993408203125" lon="-1.50452739559113979339599609375">
        <ele>1114.199951171875</ele>
        <time>2022-05-03T10:15:26.000Z</time>
      </trkpt>
      <trkpt lat="40.77168230898678302764892578125" lon="-1.50449931621551513671875">
        <ele>1113.5999755859375</ele>
        <time>2022-05-03T10:15:27.000Z</time>
      </trkpt>
      <trkpt lat="40.7717916928231716156005859375" lon="-1.50443905033171176910400390625">
        <ele>1112.4000244140625</ele>
        <time>2022-05-03T10:15:29.000Z</time>
      </trkpt>
      <trkpt lat="40.77189587987959384918212890625" lon="-1.50436897762119770050048828125">
        <ele>1110.800048828125</ele>
        <time>2022-05-03T10:15:31.000Z</time>
      </trkpt>
      <trkpt lat="40.77194097451865673065185546875" lon="-1.50433100759983062744140625">
        <ele>1110.199951171875</ele>
        <time>2022-05-03T10:15:32.000Z</time>
      </trkpt>
      <trkpt lat="40.771981962025165557861328125" lon="-1.50428943336009979248046875">
        <ele>1109.4000244140625</ele>
        <time>2022-05-03T10:15:33.000Z</time>
      </trkpt>
      <trkpt lat="40.7720508612692356109619140625" lon="-1.50419681333005428314208984375">
        <ele>1107.5999755859375</ele>
        <time>2022-05-03T10:15:35.000Z</time>
      </trkpt>
      <trkpt lat="40.77210073359310626983642578125" lon="-1.50409086607396602630615234375">
        <ele>1105.800048828125</ele>
        <time>2022-05-03T10:15:37.000Z</time>
      </trkpt>
      <trkpt lat="40.7721192575991153717041015625" lon="-1.50403856299817562103271484375">
        <ele>1104.800048828125</ele>
        <time>2022-05-03T10:15:38.000Z</time>
      </trkpt>
      <trkpt lat="40.77213585376739501953125" lon="-1.50398961268365383148193359375">
        <ele>1104</ele>
        <time>2022-05-03T10:15:39.000Z</time>
      </trkpt>
      <trkpt lat="40.7721517793834209442138671875" lon="-1.50394267402589321136474609375">
        <ele>1103.5999755859375</ele>
        <time>2022-05-03T10:15:40.000Z</time>
      </trkpt>
      <trkpt lat="40.77216644771397113800048828125" lon="-1.503897495567798614501953125">
        <ele>1103.199951171875</ele>
        <time>2022-05-03T10:15:41.000Z</time>
      </trkpt>
      <trkpt lat="40.77218103222548961639404296875" lon="-1.5038554184138774871826171875">
        <ele>1102.800048828125</ele>
        <time>2022-05-03T10:15:42.000Z</time>
      </trkpt>
      <trkpt lat="40.772197544574737548828125" lon="-1.50381593964993953704833984375">
        <ele>1102.4000244140625</ele>
        <time>2022-05-03T10:15:43.000Z</time>
      </trkpt>
      <trkpt lat="40.77224238775670528411865234375" lon="-1.50374687276780605316162109375">
        <ele>1101.800048828125</ele>
        <time>2022-05-03T10:15:45.000Z</time>
      </trkpt>
      <trkpt lat="40.77229921706020832061767578125" lon="-1.50369876064360141754150390625">
        <ele>1101.4000244140625</ele>
        <time>2022-05-03T10:15:47.000Z</time>
      </trkpt>
      <trkpt lat="40.77233073301613330841064453125" lon="-1.50368652306497097015380859375">
        <ele>1101.199951171875</ele>
        <time>2022-05-03T10:15:48.000Z</time>
      </trkpt>
      <trkpt lat="40.7723623327910900115966796875" lon="-1.5036840923130512237548828125">
        <ele>1101.199951171875</ele>
        <time>2022-05-03T10:15:49.000Z</time>
      </trkpt>
      <trkpt lat="40.77241874299943447113037109375" lon="-1.50370747782289981842041015625">
        <ele>1101.199951171875</ele>
        <time>2022-05-03T10:15:51.000Z</time>
      </trkpt>
      <trkpt lat="40.77244355343282222747802734375" lon="-1.50372608564794063568115234375">
        <ele>1101.4000244140625</ele>
        <time>2022-05-03T10:15:52.000Z</time>
      </trkpt>
      <trkpt lat="40.7724662683904170989990234375" lon="-1.5037491358816623687744140625">
        <ele>1101.5999755859375</ele>
        <time>2022-05-03T10:15:53.000Z</time>
      </trkpt>
      <trkpt lat="40.7725085131824016571044921875" lon="-1.5037920512259006500244140625">
        <ele>1101.4000244140625</ele>
        <time>2022-05-03T10:15:55.000Z</time>
      </trkpt>
      <trkpt lat="40.77254966832697391510009765625" lon="-1.50382616557180881500244140625">
        <ele>1101.4000244140625</ele>
        <time>2022-05-03T10:15:57.000Z</time>
      </trkpt>
      <trkpt lat="40.77257313765585422515869140625" lon="-1.5038470365107059478759765625">
        <ele>1101.199951171875</ele>
        <time>2022-05-03T10:15:58.000Z</time>
      </trkpt>
      <trkpt lat="40.7725973613560199737548828125" lon="-1.5038698352873325347900390625">
        <ele>1101.199951171875</ele>
        <time>2022-05-03T10:15:59.000Z</time>
      </trkpt>
      <trkpt lat="40.77265226282179355621337890625" lon="-1.5039213001728057861328125">
        <ele>1101</ele>
        <time>2022-05-03T10:16:01.000Z</time>
      </trkpt>
      <trkpt lat="40.772707164287567138671875" lon="-1.50398223660886287689208984375">
        <ele>1101</ele>
        <time>2022-05-03T10:16:03.000Z</time>
      </trkpt>
      <trkpt lat="40.772761143743991851806640625" lon="-1.50404828600585460662841796875">
        <ele>1101.4000244140625</ele>
        <time>2022-05-03T10:16:05.000Z</time>
      </trkpt>
      <trkpt lat="40.772787630558013916015625" lon="-1.504081226885318756103515625">
        <ele>1101.800048828125</ele>
        <time>2022-05-03T10:16:06.000Z</time>
      </trkpt>
      <trkpt lat="40.7728136144578456878662109375" lon="-1.50411584414541721343994140625">
        <ele>1102.199951171875</ele>
        <time>2022-05-03T10:16:07.000Z</time>
      </trkpt>
      <trkpt lat="40.772862732410430908203125" lon="-1.504188515245914459228515625">
        <ele>1103</ele>
        <time>2022-05-03T10:16:09.000Z</time>
      </trkpt>
      <trkpt lat="40.77291294001042842864990234375" lon="-1.5042681433260440826416015625">
        <ele>1102.4000244140625</ele>
        <time>2022-05-03T10:16:11.000Z</time>
      </trkpt>
      <trkpt lat="40.77296373434364795684814453125" lon="-1.5043576620519161224365234375">
        <ele>1101.800048828125</ele>
        <time>2022-05-03T10:16:13.000Z</time>
      </trkpt>
      <trkpt lat="40.77298678457736968994140625" lon="-1.50440501980483531951904296875">
        <ele>1101.5999755859375</ele>
        <time>2022-05-03T10:16:14.000Z</time>
      </trkpt>
      <trkpt lat="40.77300799079239368438720703125" lon="-1.5044508688151836395263671875">
        <ele>1101.4000244140625</ele>
        <time>2022-05-03T10:16:15.000Z</time>
      </trkpt>
      <trkpt lat="40.77304386533796787261962890625" lon="-1.50453879497945308685302734375">
        <ele>1101</ele>
        <time>2022-05-03T10:16:17.000Z</time>
      </trkpt>
      <trkpt lat="40.77307638712227344512939453125" lon="-1.5046258829534053802490234375">
        <ele>1101.199951171875</ele>
        <time>2022-05-03T10:16:19.000Z</time>
      </trkpt>
      <trkpt lat="40.77310387976467609405517578125" lon="-1.5047133900225162506103515625">
        <ele>1101.4000244140625</ele>
        <time>2022-05-03T10:16:21.000Z</time>
      </trkpt>
      <trkpt lat="40.77312533743679523468017578125" lon="-1.50479813106358051300048828125">
        <ele>1101.800048828125</ele>
        <time>2022-05-03T10:16:23.000Z</time>
      </trkpt>
      <trkpt lat="40.77314478345215320587158203125" lon="-1.50488195009529590606689453125">
        <ele>1101.800048828125</ele>
        <time>2022-05-03T10:16:25.000Z</time>
      </trkpt>
      <trkpt lat="40.7731643132865428924560546875" lon="-1.5049638412892818450927734375">
        <ele>1101.800048828125</ele>
        <time>2022-05-03T10:16:27.000Z</time>
      </trkpt>
      <trkpt lat="40.7731840945780277252197265625" lon="-1.5050466544926166534423828125">
        <ele>1101.5999755859375</ele>
        <time>2022-05-03T10:16:29.000Z</time>
      </trkpt>
      <trkpt lat="40.773192308843135833740234375" lon="-1.5050892345607280731201171875">
        <ele>1101.5999755859375</ele>
        <time>2022-05-03T10:16:30.000Z</time>
      </trkpt>
      <trkpt lat="40.77319960109889507293701171875" lon="-1.5051324851810932159423828125">
        <ele>1101.4000244140625</ele>
        <time>2022-05-03T10:16:31.000Z</time>
      </trkpt>
      <trkpt lat="40.77321167103946208953857421875" lon="-1.5052179805934429168701171875">
        <ele>1101.4000244140625</ele>
        <time>2022-05-03T10:16:33.000Z</time>
      </trkpt>
      <trkpt lat="40.773215107619762420654296875" lon="-1.5053074993193149566650390625">
        <ele>1101.199951171875</ele>
        <time>2022-05-03T10:16:35.000Z</time>
      </trkpt>
      <trkpt lat="40.77320999465882778167724609375" lon="-1.50540028698742389678955078125">
        <ele>1101.199951171875</ele>
        <time>2022-05-03T10:16:37.000Z</time>
      </trkpt>
      <trkpt lat="40.77320429496467113494873046875" lon="-1.5054474771022796630859375">
        <ele>1101</ele>
        <time>2022-05-03T10:16:38.000Z</time>
      </trkpt>
      <trkpt lat="40.7731993496417999267578125" lon="-1.5054939128458499908447265625">
        <ele>1101</ele>
        <time>2022-05-03T10:16:39.000Z</time>
      </trkpt>
      <trkpt lat="40.77319205738604068756103515625" lon="-1.50558267720043659210205078125">
        <ele>1101.199951171875</ele>
        <time>2022-05-03T10:16:41.000Z</time>
      </trkpt>
      <trkpt lat="40.77318518422544002532958984375" lon="-1.505672447383403778076171875">
        <ele>1101.4000244140625</ele>
        <time>2022-05-03T10:16:43.000Z</time>
      </trkpt>
      <trkpt lat="40.77318032272160053253173828125" lon="-1.5057577751576900482177734375">
        <ele>1101.5999755859375</ele>
        <time>2022-05-03T10:16:45.000Z</time>
      </trkpt>
      <trkpt lat="40.77317881397902965545654296875" lon="-1.50579926557838916778564453125">
        <ele>1101.5999755859375</ele>
        <time>2022-05-03T10:16:46.000Z</time>
      </trkpt>
      <trkpt lat="40.7731743715703487396240234375" lon="-1.505840085446834564208984375">
        <ele>1101.800048828125</ele>
        <time>2022-05-03T10:16:47.000Z</time>
      </trkpt>
      <trkpt lat="40.77315752394497394561767578125" lon="-1.50591812096536159515380859375">
        <ele>1101.800048828125</ele>
        <time>2022-05-03T10:16:49.000Z</time>
      </trkpt>
      <trkpt lat="40.77313556335866451263427734375" lon="-1.505990959703922271728515625">
        <ele>1102</ele>
        <time>2022-05-03T10:16:51.000Z</time>
      </trkpt>
      <trkpt lat="40.7731227390468120574951171875" lon="-1.506025493144989013671875">
        <ele>1102</ele>
        <time>2022-05-03T10:16:52.000Z</time>
      </trkpt>
      <trkpt lat="40.77310857363045215606689453125" lon="-1.50605835020542144775390625">
        <ele>1102</ele>
        <time>2022-05-03T10:16:53.000Z</time>
      </trkpt>
      <trkpt lat="40.7730761356651782989501953125" lon="-1.5061181969940662384033203125">
        <ele>1102.199951171875</ele>
        <time>2022-05-03T10:16:55.000Z</time>
      </trkpt>
      <trkpt lat="40.77304353006184101104736328125" lon="-1.50616873987019062042236328125">
        <ele>1102.199951171875</ele>
        <time>2022-05-03T10:16:57.000Z</time>
      </trkpt>
      <trkpt lat="40.77303648926317691802978515625" lon="-1.5061922930181026458740234375">
        <ele>1102.4000244140625</ele>
        <time>2022-05-03T10:16:58.000Z</time>
      </trkpt>
      <trkpt lat="40.77303715981543064117431640625" lon="-1.506214253604412078857421875">
        <ele>1102.4000244140625</ele>
        <time>2022-05-03T10:16:59.000Z</time>
      </trkpt>
      <trkpt lat="40.7730563543736934661865234375" lon="-1.50625188834965229034423828125">
        <ele>1102.4000244140625</ele>
        <time>2022-05-03T10:17:01.000Z</time>
      </trkpt>
      <trkpt lat="40.77307269908487796783447265625" lon="-1.5062709152698516845703125">
        <ele>1102.5999755859375</ele>
        <time>2022-05-03T10:17:02.000Z</time>
      </trkpt>
      <trkpt lat="40.7730947434902191162109375" lon="-1.50628977455198764801025390625">
        <ele>1102.5999755859375</ele>
        <time>2022-05-03T10:17:03.000Z</time>
      </trkpt>
      <trkpt lat="40.77315266244113445281982421875" lon="-1.5063237212598323822021484375">
        <ele>1102.800048828125</ele>
        <time>2022-05-03T10:17:05.000Z</time>
      </trkpt>
      <trkpt lat="40.773224495351314544677734375" lon="-1.50635314173996448516845703125">
        <ele>1103</ele>
        <time>2022-05-03T10:17:07.000Z</time>
      </trkpt>
      <trkpt lat="40.77330303378403186798095703125" lon="-1.50637040846049785614013671875">
        <ele>1103.199951171875</ele>
        <time>2022-05-03T10:17:09.000Z</time>
      </trkpt>
      <trkpt lat="40.773383416235446929931640625" lon="-1.50636705569922924041748046875">
        <ele>1103.199951171875</ele>
        <time>2022-05-03T10:17:11.000Z</time>
      </trkpt>
      <trkpt lat="40.77342339791357517242431640625" lon="-1.50636143982410430908203125">
        <ele>1103.199951171875</ele>
        <time>2022-05-03T10:17:12.000Z</time>
      </trkpt>
      <trkpt lat="40.77346262522041797637939453125" lon="-1.50635347701609134674072265625">
        <ele>1103.4000244140625</ele>
        <time>2022-05-03T10:17:13.000Z</time>
      </trkpt>
      <trkpt lat="40.77353487722575664520263671875" lon="-1.5063300915062427520751953125">
        <ele>1103.4000244140625</ele>
        <time>2022-05-03T10:17:15.000Z</time>
      </trkpt>
      <trkpt lat="40.77360243536531925201416015625" lon="-1.5063099749386310577392578125">
        <ele>1103.4000244140625</ele>
        <time>2022-05-03T10:17:17.000Z</time>
      </trkpt>
      <trkpt lat="40.773669071495532989501953125" lon="-1.5062885172665119171142578125">
        <ele>1103.4000244140625</ele>
        <time>2022-05-03T10:17:19.000Z</time>
      </trkpt>
      <trkpt lat="40.773731432855129241943359375" lon="-1.50625792331993579864501953125">
        <ele>1103.5999755859375</ele>
        <time>2022-05-03T10:17:21.000Z</time>
      </trkpt>
      <trkpt lat="40.7737934589385986328125" lon="-1.50622389279305934906005859375">
        <ele>1103.5999755859375</ele>
        <time>2022-05-03T10:17:23.000Z</time>
      </trkpt>
      <trkpt lat="40.7738549821078777313232421875" lon="-1.50618902407586574554443359375">
        <ele>1103.5999755859375</ele>
        <time>2022-05-03T10:17:25.000Z</time>
      </trkpt>
      <trkpt lat="40.773884318768978118896484375" lon="-1.50617544539272785186767578125">
        <ele>1103.5999755859375</ele>
        <time>2022-05-03T10:17:26.000Z</time>
      </trkpt>
      <trkpt lat="40.77391357161104679107666015625" lon="-1.5061584301292896270751953125">
        <ele>1103.800048828125</ele>
        <time>2022-05-03T10:17:27.000Z</time>
      </trkpt>
      <trkpt lat="40.7739733345806598663330078125" lon="-1.50612599216401576995849609375">
        <ele>1104</ele>
        <time>2022-05-03T10:17:29.000Z</time>
      </trkpt>
      <trkpt lat="40.774033181369304656982421875" lon="-1.5060943923890590667724609375">
        <ele>1104.199951171875</ele>
        <time>2022-05-03T10:17:31.000Z</time>
      </trkpt>
      <trkpt lat="40.77408942393958568572998046875" lon="-1.50606446899473667144775390625">
        <ele>1104.4000244140625</ele>
        <time>2022-05-03T10:17:33.000Z</time>
      </trkpt>
      <trkpt lat="40.7741423137485980987548828125" lon="-1.5060300193727016448974609375">
        <ele>1104.5999755859375</ele>
        <time>2022-05-03T10:17:35.000Z</time>
      </trkpt>
      <trkpt lat="40.7741939462721347808837890625" lon="-1.50599355809390544891357421875">
        <ele>1105</ele>
        <time>2022-05-03T10:17:37.000Z</time>
      </trkpt>
      <trkpt lat="40.77424633316695690155029296875" lon="-1.50595818646252155303955078125">
        <ele>1105.199951171875</ele>
        <time>2022-05-03T10:17:39.000Z</time>
      </trkpt>
      <trkpt lat="40.7742891646921634674072265625" lon="-1.50592382065951824188232421875">
        <ele>1105.199951171875</ele>
        <time>2022-05-03T10:17:41.000Z</time>
      </trkpt>
      <trkpt lat="40.7743277214467525482177734375" lon="-1.505895741283893585205078125">
        <ele>1105.4000244140625</ele>
        <time>2022-05-03T10:17:43.000Z</time>
      </trkpt>
      <trkpt lat="40.77436367981135845184326171875" lon="-1.50586531497538089752197265625">
        <ele>1105.5999755859375</ele>
        <time>2022-05-03T10:17:45.000Z</time>
      </trkpt>
      <trkpt lat="40.77439033426344394683837890625" lon="-1.5058305300772190093994140625">
        <ele>1105.5999755859375</ele>
        <time>2022-05-03T10:17:47.000Z</time>
      </trkpt>
      <trkpt lat="40.7744122110307216644287109375" lon="-1.5058070607483386993408203125">
        <ele>1105.800048828125</ele>
        <time>2022-05-03T10:17:49.000Z</time>
      </trkpt>
      <trkpt lat="40.77441246248781681060791015625" lon="-1.50580245070159435272216796875">
        <ele>1105.800048828125</ele>
        <time>2022-05-03T10:17:51.000Z</time>
      </trkpt>
      <trkpt lat="40.77445420436561107635498046875" lon="-1.505779735743999481201171875">
        <ele>1105.800048828125</ele>
        <time>2022-05-03T10:17:57.000Z</time>
      </trkpt>
      <trkpt lat="40.774485133588314056396484375" lon="-1.50578032247722148895263671875">
        <ele>1106</ele>
        <time>2022-05-03T10:17:59.000Z</time>
      </trkpt>
      <trkpt lat="40.77451430261135101318359375" lon="-1.50581619702279567718505859375">
        <ele>1106.199951171875</ele>
        <time>2022-05-03T10:18:01.000Z</time>
      </trkpt>
      <trkpt lat="40.77453148551285266876220703125" lon="-1.5058781392872333526611328125">
        <ele>1106.4000244140625</ele>
        <time>2022-05-03T10:18:03.000Z</time>
      </trkpt>
      <trkpt lat="40.774538107216358184814453125" lon="-1.505950056016445159912109375">
        <ele>1106.800048828125</ele>
        <time>2022-05-03T10:18:05.000Z</time>
      </trkpt>
      <trkpt lat="40.77453978359699249267578125" lon="-1.50602540932595729827880859375">
        <ele>1107.199951171875</ele>
        <time>2022-05-03T10:18:07.000Z</time>
      </trkpt>
      <trkpt lat="40.77454171143472194671630859375" lon="-1.506104283034801483154296875">
        <ele>1107.5999755859375</ele>
        <time>2022-05-03T10:18:09.000Z</time>
      </trkpt>
      <trkpt lat="40.77454322017729282379150390625" lon="-1.50614283978939056396484375">
        <ele>1107.800048828125</ele>
        <time>2022-05-03T10:18:10.000Z</time>
      </trkpt>
      <trkpt lat="40.77454506419599056243896484375" lon="-1.50618164800107479095458984375">
        <ele>1108</ele>
        <time>2022-05-03T10:18:11.000Z</time>
      </trkpt>
      <trkpt lat="40.77454791404306888580322265625" lon="-1.50625683367252349853515625">
        <ele>1108.4000244140625</ele>
        <time>2022-05-03T10:18:13.000Z</time>
      </trkpt>
      <trkpt lat="40.77454992569983005523681640625" lon="-1.50632866658270359039306640625">
        <ele>1108.800048828125</ele>
        <time>2022-05-03T10:18:15.000Z</time>
      </trkpt>
      <trkpt lat="40.77455210499465465545654296875" lon="-1.50640209205448627471923828125">
        <ele>1109.199951171875</ele>
        <time>2022-05-03T10:18:17.000Z</time>
      </trkpt>
      <trkpt lat="40.774554200470447540283203125" lon="-1.50647434405982494354248046875">
        <ele>1109.5999755859375</ele>
        <time>2022-05-03T10:18:19.000Z</time>
      </trkpt>
      <trkpt lat="40.7745557092130184173583984375" lon="-1.506509967148303985595703125">
        <ele>1109.800048828125</ele>
        <time>2022-05-03T10:18:20.000Z</time>
      </trkpt>
      <trkpt lat="40.77455629594624042510986328125" lon="-1.50654408149421215057373046875">
        <ele>1109.800048828125</ele>
        <time>2022-05-03T10:18:21.000Z</time>
      </trkpt>
      <trkpt lat="40.7745607383549213409423828125" lon="-1.50661231018602848052978515625">
        <ele>1110</ele>
        <time>2022-05-03T10:18:23.000Z</time>
      </trkpt>
      <trkpt lat="40.77456417493522167205810546875" lon="-1.5066804550588130950927734375">
        <ele>1110.199951171875</ele>
        <time>2022-05-03T10:18:25.000Z</time>
      </trkpt>
      <trkpt lat="40.77456668950617313385009765625" lon="-1.50674692355096340179443359375">
        <ele>1110.4000244140625</ele>
        <time>2022-05-03T10:18:27.000Z</time>
      </trkpt>
      <trkpt lat="40.77456886880099773406982421875" lon="-1.50678112171590328216552734375">
        <ele>1110.4000244140625</ele>
        <time>2022-05-03T10:18:28.000Z</time>
      </trkpt>
      <trkpt lat="40.77457121573388576507568359375" lon="-1.5068165771663188934326171875">
        <ele>1110.5999755859375</ele>
        <time>2022-05-03T10:18:29.000Z</time>
      </trkpt>
      <trkpt lat="40.77457574196159839630126953125" lon="-1.50688639841973781585693359375">
        <ele>1110.800048828125</ele>
        <time>2022-05-03T10:18:31.000Z</time>
      </trkpt>
      <trkpt lat="40.7745785079896450042724609375" lon="-1.50695613585412502288818359375">
        <ele>1111</ele>
        <time>2022-05-03T10:18:33.000Z</time>
      </trkpt>
      <trkpt lat="40.77458135783672332763671875" lon="-1.507026292383670806884765625">
        <ele>1111.199951171875</ele>
        <time>2022-05-03T10:18:35.000Z</time>
      </trkpt>
      <trkpt lat="40.77458429150283336639404296875" lon="-1.5070609934628009796142578125">
        <ele>1111.199951171875</ele>
        <time>2022-05-03T10:18:36.000Z</time>
      </trkpt>
      <trkpt lat="40.77458663843572139739990234375" lon="-1.5070943534374237060546875">
        <ele>1111.4000244140625</ele>
        <time>2022-05-03T10:18:37.000Z</time>
      </trkpt>
      <trkpt lat="40.77459166757762432098388671875" lon="-1.50716115720570087432861328125">
        <ele>1111.5999755859375</ele>
        <time>2022-05-03T10:18:39.000Z</time>
      </trkpt>
      <trkpt lat="40.7745940983295440673828125" lon="-1.50722938589751720428466796875">
        <ele>1111.800048828125</ele>
        <time>2022-05-03T10:18:41.000Z</time>
      </trkpt>
      <trkpt lat="40.77459904365241527557373046875" lon="-1.507297866046428680419921875">
        <ele>1112</ele>
        <time>2022-05-03T10:18:43.000Z</time>
      </trkpt>
      <trkpt lat="40.774600803852081298828125" lon="-1.50733172893524169921875">
        <ele>1112</ele>
        <time>2022-05-03T10:18:44.000Z</time>
      </trkpt>
      <trkpt lat="40.77460222877562046051025390625" lon="-1.5073650889098644256591796875">
        <ele>1112.199951171875</ele>
        <time>2022-05-03T10:18:45.000Z</time>
      </trkpt>
      <trkpt lat="40.7746043242514133453369140625" lon="-1.50743122212588787078857421875">
        <ele>1112.4000244140625</ele>
        <time>2022-05-03T10:18:47.000Z</time>
      </trkpt>
      <trkpt lat="40.7746060006320476531982421875" lon="-1.50749878026545047760009765625">
        <ele>1112.5999755859375</ele>
        <time>2022-05-03T10:18:49.000Z</time>
      </trkpt>
      <trkpt lat="40.77460809610784053802490234375" lon="-1.5075672604143619537353515625">
        <ele>1112.800048828125</ele>
        <time>2022-05-03T10:18:51.000Z</time>
      </trkpt>
      <trkpt lat="40.7746110297739505767822265625" lon="-1.50763641111552715301513671875">
        <ele>1113</ele>
        <time>2022-05-03T10:18:53.000Z</time>
      </trkpt>
      <trkpt lat="40.7746117003262042999267578125" lon="-1.50770480744540691375732421875">
        <ele>1113.199951171875</ele>
        <time>2022-05-03T10:18:55.000Z</time>
      </trkpt>
      <trkpt lat="40.7746184058487415313720703125" lon="-1.50777404196560382843017578125">
        <ele>1113.4000244140625</ele>
        <time>2022-05-03T10:18:57.000Z</time>
      </trkpt>
      <trkpt lat="40.77462452463805675506591796875" lon="-1.50784201920032501220703125">
        <ele>1113.5999755859375</ele>
        <time>2022-05-03T10:18:59.000Z</time>
      </trkpt>
      <trkpt lat="40.7746294699609279632568359375" lon="-1.50791033171117305755615234375">
        <ele>1113.800048828125</ele>
        <time>2022-05-03T10:19:01.000Z</time>
      </trkpt>
      <trkpt lat="40.77463223598897457122802734375" lon="-1.50798015296459197998046875">
        <ele>1114</ele>
        <time>2022-05-03T10:19:03.000Z</time>
      </trkpt>
      <trkpt lat="40.7746341638267040252685546875" lon="-1.5080503933131694793701171875">
        <ele>1114.199951171875</ele>
        <time>2022-05-03T10:19:05.000Z</time>
      </trkpt>
      <trkpt lat="40.77463692985475063323974609375" lon="-1.508119963109493255615234375">
        <ele>1114.4000244140625</ele>
        <time>2022-05-03T10:19:07.000Z</time>
      </trkpt>
      <trkpt lat="40.7746381871402263641357421875" lon="-1.5081549994647502899169921875">
        <ele>1114.4000244140625</ele>
        <time>2022-05-03T10:19:08.000Z</time>
      </trkpt>
      <trkpt lat="40.77464028261601924896240234375" lon="-1.50819011963903903961181640625">
        <ele>1114.5999755859375</ele>
        <time>2022-05-03T10:19:09.000Z</time>
      </trkpt>
      <trkpt lat="40.77464464120566844940185546875" lon="-1.508257426321506500244140625">
        <ele>1115.199951171875</ele>
        <time>2022-05-03T10:19:11.000Z</time>
      </trkpt>
      <trkpt lat="40.77464866451919078826904296875" lon="-1.50832590647041797637939453125">
        <ele>1115.5999755859375</ele>
        <time>2022-05-03T10:19:13.000Z</time>
      </trkpt>
      <trkpt lat="40.7746526040136814117431640625" lon="-1.5083947218954563140869140625">
        <ele>1115.800048828125</ele>
        <time>2022-05-03T10:19:15.000Z</time>
      </trkpt>
      <trkpt lat="40.77465436421334743499755859375" lon="-1.5084644593298435211181640625">
        <ele>1116.199951171875</ele>
        <time>2022-05-03T10:19:17.000Z</time>
      </trkpt>
      <trkpt lat="40.77465654350817203521728515625" lon="-1.508498825132846832275390625">
        <ele>1116.4000244140625</ele>
        <time>2022-05-03T10:19:18.000Z</time>
      </trkpt>
      <trkpt lat="40.77465905807912349700927734375" lon="-1.5085318498313426971435546875">
        <ele>1116.5999755859375</ele>
        <time>2022-05-03T10:19:19.000Z</time>
      </trkpt>
      <trkpt lat="40.77466224320232868194580078125" lon="-1.50859664194285869598388671875">
        <ele>1116.800048828125</ele>
        <time>2022-05-03T10:19:21.000Z</time>
      </trkpt>
      <trkpt lat="40.7746660150587558746337890625" lon="-1.50865799747407436370849609375">
        <ele>1117.199951171875</ele>
        <time>2022-05-03T10:19:23.000Z</time>
      </trkpt>
      <trkpt lat="40.77466811053454875946044921875" lon="-1.50872102938592433929443359375">
        <ele>1117.4000244140625</ele>
        <time>2022-05-03T10:19:25.000Z</time>
      </trkpt>
      <trkpt lat="40.7746723853051662445068359375" lon="-1.50878707878291606903076171875">
        <ele>1117.800048828125</ele>
        <time>2022-05-03T10:19:27.000Z</time>
      </trkpt>
      <trkpt lat="40.7746745645999908447265625" lon="-1.50881993584334850311279296875">
        <ele>1118</ele>
        <time>2022-05-03T10:19:28.000Z</time>
      </trkpt>
      <trkpt lat="40.7746767438948154449462890625" lon="-1.5088517032563686370849609375">
        <ele>1118.199951171875</ele>
        <time>2022-05-03T10:19:29.000Z</time>
      </trkpt>
      <trkpt lat="40.77467984519898891448974609375" lon="-1.508911885321140289306640625">
        <ele>1118.4000244140625</ele>
        <time>2022-05-03T10:19:31.000Z</time>
      </trkpt>
      <trkpt lat="40.77468395233154296875" lon="-1.50897433049976825714111328125">
        <ele>1118.800048828125</ele>
        <time>2022-05-03T10:19:33.000Z</time>
      </trkpt>
      <trkpt lat="40.774688310921192169189453125" lon="-1.50903786532580852508544921875">
        <ele>1119.199951171875</ele>
        <time>2022-05-03T10:19:35.000Z</time>
      </trkpt>
      <trkpt lat="40.7746904902160167694091796875" lon="-1.5090684592723846435546875">
        <ele>1119.199951171875</ele>
        <time>2022-05-03T10:19:36.000Z</time>
      </trkpt>
      <trkpt lat="40.77469208277761936187744140625" lon="-1.5090988017618656158447265625">
        <ele>1119.4000244140625</ele>
        <time>2022-05-03T10:19:37.000Z</time>
      </trkpt>
      <trkpt lat="40.7746968604624271392822265625" lon="-1.5091609954833984375">
        <ele>1119.5999755859375</ele>
        <time>2022-05-03T10:19:39.000Z</time>
      </trkpt>
      <trkpt lat="40.774701721966266632080078125" lon="-1.50922662578523159027099609375">
        <ele>1119.800048828125</ele>
        <time>2022-05-03T10:19:41.000Z</time>
      </trkpt>
      <trkpt lat="40.77470448799431324005126953125" lon="-1.50929845869541168212890625">
        <ele>1120</ele>
        <time>2022-05-03T10:19:43.000Z</time>
      </trkpt>
      <trkpt lat="40.7747085951268672943115234375" lon="-1.5093673579394817352294921875">
        <ele>1120.4000244140625</ele>
        <time>2022-05-03T10:19:45.000Z</time>
      </trkpt>
      <trkpt lat="40.774715803563594818115234375" lon="-1.5094347484409809112548828125">
        <ele>1120.5999755859375</ele>
        <time>2022-05-03T10:19:47.000Z</time>
      </trkpt>
      <trkpt lat="40.77472058124840259552001953125" lon="-1.509505994617938995361328125">
        <ele>1120.800048828125</ele>
        <time>2022-05-03T10:19:49.000Z</time>
      </trkpt>
      <trkpt lat="40.77472192235291004180908203125" lon="-1.5095417015254497528076171875">
        <ele>1121</ele>
        <time>2022-05-03T10:19:50.000Z</time>
      </trkpt>
      <trkpt lat="40.77472343109548091888427734375" lon="-1.50957682169973850250244140625">
        <ele>1121.199951171875</ele>
        <time>2022-05-03T10:19:51.000Z</time>
      </trkpt>
      <trkpt lat="40.77472628094255924224853515625" lon="-1.50964605621993541717529296875">
        <ele>1121.4000244140625</ele>
        <time>2022-05-03T10:19:53.000Z</time>
      </trkpt>
      <trkpt lat="40.7747308909893035888671875" lon="-1.50971294380724430084228515625">
        <ele>1121.5999755859375</ele>
        <time>2022-05-03T10:19:55.000Z</time>
      </trkpt>
      <trkpt lat="40.77473868615925312042236328125" lon="-1.5097792446613311767578125">
        <ele>1121.800048828125</ele>
        <time>2022-05-03T10:19:57.000Z</time>
      </trkpt>
      <trkpt lat="40.77474120073020458221435546875" lon="-1.509812772274017333984375">
        <ele>1122</ele>
        <time>2022-05-03T10:19:58.000Z</time>
      </trkpt>
      <trkpt lat="40.77474388293921947479248046875" lon="-1.50984705425798892974853515625">
        <ele>1122</ele>
        <time>2022-05-03T10:19:59.000Z</time>
      </trkpt>
      <trkpt lat="40.774751007556915283203125" lon="-1.5099131874740123748779296875">
        <ele>1122</ele>
        <time>2022-05-03T10:20:01.000Z</time>
      </trkpt>
      <trkpt lat="40.7747577130794525146484375" lon="-1.5099804103374481201171875">
        <ele>1121.800048828125</ele>
        <time>2022-05-03T10:20:03.000Z</time>
      </trkpt>
      <trkpt lat="40.7747632451355457305908203125" lon="-1.51004813611507415771484375">
        <ele>1121.800048828125</ele>
        <time>2022-05-03T10:20:05.000Z</time>
      </trkpt>
      <trkpt lat="40.77477154321968555450439453125" lon="-1.51011678390204906463623046875">
        <ele>1121.5999755859375</ele>
        <time>2022-05-03T10:20:07.000Z</time>
      </trkpt>
      <trkpt lat="40.77478118240833282470703125" lon="-1.51018626987934112548828125">
        <ele>1121.5999755859375</ele>
        <time>2022-05-03T10:20:09.000Z</time>
      </trkpt>
      <trkpt lat="40.77478847466409206390380859375" lon="-1.510255672037601470947265625">
        <ele>1121.4000244140625</ele>
        <time>2022-05-03T10:20:11.000Z</time>
      </trkpt>
      <trkpt lat="40.774798281490802764892578125" lon="-1.51032834313809871673583984375">
        <ele>1121.4000244140625</ele>
        <time>2022-05-03T10:20:13.000Z</time>
      </trkpt>
      <trkpt lat="40.77481060288846492767333984375" lon="-1.51040143333375453948974609375">
        <ele>1121.4000244140625</ele>
        <time>2022-05-03T10:20:15.000Z</time>
      </trkpt>
      <trkpt lat="40.77481596730649471282958984375" lon="-1.5104382298886775970458984375">
        <ele>1121.199951171875</ele>
        <time>2022-05-03T10:20:16.000Z</time>
      </trkpt>
      <trkpt lat="40.77482049353420734405517578125" lon="-1.51047670282423496246337890625">
        <ele>1121.199951171875</ele>
        <time>2022-05-03T10:20:17.000Z</time>
      </trkpt>
      <trkpt lat="40.774831809103488922119140625" lon="-1.5105559118092060089111328125">
        <ele>1121.199951171875</ele>
        <time>2022-05-03T10:20:19.000Z</time>
      </trkpt>
      <trkpt lat="40.77484287321567535400390625" lon="-1.51064249686896800994873046875">
        <ele>1120.5999755859375</ele>
        <time>2022-05-03T10:20:21.000Z</time>
      </trkpt>
      <trkpt lat="40.77485469169914722442626953125" lon="-1.5107346139848232269287109375">
        <ele>1120</ele>
        <time>2022-05-03T10:20:23.000Z</time>
      </trkpt>
      <trkpt lat="40.7748685218393802642822265625" lon="-1.5108318440616130828857421875">
        <ele>1119.199951171875</ele>
        <time>2022-05-03T10:20:25.000Z</time>
      </trkpt>
      <trkpt lat="40.77488285489380359649658203125" lon="-1.5109381265938282012939453125">
        <ele>1118.5999755859375</ele>
        <time>2022-05-03T10:20:27.000Z</time>
      </trkpt>
      <trkpt lat="40.77489777468144893646240234375" lon="-1.51105304248631000518798828125">
        <ele>1117.800048828125</ele>
        <time>2022-05-03T10:20:29.000Z</time>
      </trkpt>
      <trkpt lat="40.7749111019074916839599609375" lon="-1.51118044741451740264892578125">
        <ele>1117</ele>
        <time>2022-05-03T10:20:31.000Z</time>
      </trkpt>
      <trkpt lat="40.77491889707744121551513671875" lon="-1.51124968193471431732177734375">
        <ele>1116.5999755859375</ele>
        <time>2022-05-03T10:20:32.000Z</time>
      </trkpt>
      <trkpt lat="40.77492736279964447021484375" lon="-1.51132260449230670928955078125">
        <ele>1116</ele>
        <time>2022-05-03T10:20:33.000Z</time>
      </trkpt>
      <trkpt lat="40.77494840137660503387451171875" lon="-1.51147498749196529388427734375">
        <ele>1115.199951171875</ele>
        <time>2022-05-03T10:20:35.000Z</time>
      </trkpt>
      <trkpt lat="40.7749694399535655975341796875" lon="-1.51164078153669834136962890625">
        <ele>1114.800048828125</ele>
        <time>2022-05-03T10:20:37.000Z</time>
      </trkpt>
      <trkpt lat="40.774980671703815460205078125" lon="-1.51172745041549205780029296875">
        <ele>1114.4000244140625</ele>
        <time>2022-05-03T10:20:38.000Z</time>
      </trkpt>
      <trkpt lat="40.77499181963503360748291015625" lon="-1.51181696914136409759521484375">
        <ele>1114.199951171875</ele>
        <time>2022-05-03T10:20:39.000Z</time>
      </trkpt>
      <trkpt lat="40.7750143669545650482177734375" lon="-1.51200321502983570098876953125">
        <ele>1113.800048828125</ele>
        <time>2022-05-03T10:20:41.000Z</time>
      </trkpt>
      <trkpt lat="40.77502660453319549560546875" lon="-1.5120988525450229644775390625">
        <ele>1113.4000244140625</ele>
        <time>2022-05-03T10:20:42.000Z</time>
      </trkpt>
      <trkpt lat="40.77503808774054050445556640625" lon="-1.51219616644084453582763671875">
        <ele>1113.199951171875</ele>
        <time>2022-05-03T10:20:43.000Z</time>
      </trkpt>
      <trkpt lat="40.77506105415523052215576171875" lon="-1.5123942308127880096435546875">
        <ele>1112.5999755859375</ele>
        <time>2022-05-03T10:20:45.000Z</time>
      </trkpt>
      <trkpt lat="40.77507329173386096954345703125" lon="-1.51249422691762447357177734375">
        <ele>1112.5999755859375</ele>
        <time>2022-05-03T10:20:46.000Z</time>
      </trkpt>
      <trkpt lat="40.775085948407649993896484375" lon="-1.5125940553843975067138671875">
        <ele>1112.4000244140625</ele>
        <time>2022-05-03T10:20:47.000Z</time>
      </trkpt>
      <trkpt lat="40.7750983536243438720703125" lon="-1.51269338093698024749755859375">
        <ele>1112.199951171875</ele>
        <time>2022-05-03T10:20:48.000Z</time>
      </trkpt>
      <trkpt lat="40.7751099206507205963134765625" lon="-1.5127915330231189727783203125">
        <ele>1112</ele>
        <time>2022-05-03T10:20:49.000Z</time>
      </trkpt>
      <trkpt lat="40.77513431198894977569580078125" lon="-1.5129833109676837921142578125">
        <ele>1112</ele>
        <time>2022-05-03T10:20:51.000Z</time>
      </trkpt>
      <trkpt lat="40.77514587901532649993896484375" lon="-1.51307710446417331695556640625">
        <ele>1112</ele>
        <time>2022-05-03T10:20:52.000Z</time>
      </trkpt>
      <trkpt lat="40.77515761367976665496826171875" lon="-1.5131690539419651031494140625">
        <ele>1112</ele>
        <time>2022-05-03T10:20:53.000Z</time>
      </trkpt>
      <trkpt lat="40.77517949044704437255859375" lon="-1.513345576822757720947265625">
        <ele>1112</ele>
        <time>2022-05-03T10:20:55.000Z</time>
      </trkpt>
      <trkpt lat="40.77519985847175121307373046875" lon="-1.51351078413426876068115234375">
        <ele>1112.199951171875</ele>
        <time>2022-05-03T10:20:57.000Z</time>
      </trkpt>
      <trkpt lat="40.77522165141999721527099609375" lon="-1.5136655978858470916748046875">
        <ele>1112.5999755859375</ele>
        <time>2022-05-03T10:20:59.000Z</time>
      </trkpt>
      <trkpt lat="40.7752416841685771942138671875" lon="-1.5138131193816661834716796875">
        <ele>1113</ele>
        <time>2022-05-03T10:21:01.000Z</time>
      </trkpt>
      <trkpt lat="40.77525920234620571136474609375" lon="-1.5139552764594554901123046875">
        <ele>1113.199951171875</ele>
        <time>2022-05-03T10:21:03.000Z</time>
      </trkpt>
      <trkpt lat="40.77527630142867565155029296875" lon="-1.51409533806145191192626953125">
        <ele>1113.4000244140625</ele>
        <time>2022-05-03T10:21:05.000Z</time>
      </trkpt>
      <trkpt lat="40.7752954959869384765625" lon="-1.51423506438732147216796875">
        <ele>1113.5999755859375</ele>
        <time>2022-05-03T10:21:07.000Z</time>
      </trkpt>
      <trkpt lat="40.7753107510507106781005859375" lon="-1.5143753774464130401611328125">
        <ele>1114</ele>
        <time>2022-05-03T10:21:09.000Z</time>
      </trkpt>
      <trkpt lat="40.77532709576189517974853515625" lon="-1.5145131759345531463623046875">
        <ele>1114.5999755859375</ele>
        <time>2022-05-03T10:21:11.000Z</time>
      </trkpt>
      <trkpt lat="40.77534436248242855072021484375" lon="-1.5146496333181858062744140625">
        <ele>1115</ele>
        <time>2022-05-03T10:21:13.000Z</time>
      </trkpt>
      <trkpt lat="40.77535274438560009002685546875" lon="-1.51471660472452640533447265625">
        <ele>1115.4000244140625</ele>
        <time>2022-05-03T10:21:14.000Z</time>
      </trkpt>
      <trkpt lat="40.77536146156489849090576171875" lon="-1.51478198356926441192626953125">
        <ele>1115.5999755859375</ele>
        <time>2022-05-03T10:21:15.000Z</time>
      </trkpt>
      <trkpt lat="40.77537789009511470794677734375" lon="-1.51491098105907440185546875">
        <ele>1115.800048828125</ele>
        <time>2022-05-03T10:21:17.000Z</time>
      </trkpt>
      <trkpt lat="40.77539197169244289398193359375" lon="-1.51503972709178924560546875">
        <ele>1116.199951171875</ele>
        <time>2022-05-03T10:21:19.000Z</time>
      </trkpt>
      <trkpt lat="40.77540881931781768798828125" lon="-1.5151678025722503662109375">
        <ele>1116.800048828125</ele>
        <time>2022-05-03T10:21:21.000Z</time>
      </trkpt>
      <trkpt lat="40.77542365528643131256103515625" lon="-1.5152967162430286407470703125">
        <ele>1117.199951171875</ele>
        <time>2022-05-03T10:21:23.000Z</time>
      </trkpt>
      <trkpt lat="40.77543161809444427490234375" lon="-1.5153610892593860626220703125">
        <ele>1117.4000244140625</ele>
        <time>2022-05-03T10:21:24.000Z</time>
      </trkpt>
      <trkpt lat="40.77543966472148895263671875" lon="-1.51542604900896549224853515625">
        <ele>1117.800048828125</ele>
        <time>2022-05-03T10:21:25.000Z</time>
      </trkpt>
      <trkpt lat="40.77545634470880031585693359375" lon="-1.51555462740361690521240234375">
        <ele>1118.199951171875</ele>
        <time>2022-05-03T10:21:27.000Z</time>
      </trkpt>
      <trkpt lat="40.77547361142933368682861328125" lon="-1.51567951776087284088134765625">
        <ele>1118.800048828125</ele>
        <time>2022-05-03T10:21:29.000Z</time>
      </trkpt>
      <trkpt lat="40.7754897885024547576904296875" lon="-1.5158061683177947998046875">
        <ele>1119.199951171875</ele>
        <time>2022-05-03T10:21:31.000Z</time>
      </trkpt>
      <trkpt lat="40.77550596557557582855224609375" lon="-1.5159290470182895660400390625">
        <ele>1119.5999755859375</ele>
        <time>2022-05-03T10:21:33.000Z</time>
      </trkpt>
      <trkpt lat="40.77551350928843021392822265625" lon="-1.515988223254680633544921875">
        <ele>1120</ele>
        <time>2022-05-03T10:21:34.000Z</time>
      </trkpt>
      <trkpt lat="40.77552038244903087615966796875" lon="-1.5160477347671985626220703125">
        <ele>1120.199951171875</ele>
        <time>2022-05-03T10:21:35.000Z</time>
      </trkpt>
      <trkpt lat="40.77553488314151763916015625" lon="-1.51616248302161693572998046875">
        <ele>1120.800048828125</ele>
        <time>2022-05-03T10:21:37.000Z</time>
      </trkpt>
      <trkpt lat="40.77554921619594097137451171875" lon="-1.51627128012478351593017578125">
        <ele>1121.199951171875</ele>
        <time>2022-05-03T10:21:39.000Z</time>
      </trkpt>
      <trkpt lat="40.77556304633617401123046875" lon="-1.5163749642670154571533203125">
        <ele>1121.4000244140625</ele>
        <time>2022-05-03T10:21:41.000Z</time>
      </trkpt>
      <trkpt lat="40.775574781000614166259765625" lon="-1.51647596620023250579833984375">
        <ele>1121.800048828125</ele>
        <time>2022-05-03T10:21:43.000Z</time>
      </trkpt>
      <trkpt lat="40.77558710239827632904052734375" lon="-1.5165791474282741546630859375">
        <ele>1121.5999755859375</ele>
        <time>2022-05-03T10:21:45.000Z</time>
      </trkpt>
      <trkpt lat="40.7755933888256549835205078125" lon="-1.5166307799518108367919921875">
        <ele>1121.5999755859375</ele>
        <time>2022-05-03T10:21:46.000Z</time>
      </trkpt>
      <trkpt lat="40.77560051344335079193115234375" lon="-1.5166814066469669342041015625">
        <ele>1121.4000244140625</ele>
        <time>2022-05-03T10:21:47.000Z</time>
      </trkpt>
      <trkpt lat="40.77561509795486927032470703125" lon="-1.5167819894850254058837890625">
        <ele>1121</ele>
        <time>2022-05-03T10:21:49.000Z</time>
      </trkpt>
      <trkpt lat="40.7756272517144680023193359375" lon="-1.5168870985507965087890625">
        <ele>1120.800048828125</ele>
        <time>2022-05-03T10:21:51.000Z</time>
      </trkpt>
      <trkpt lat="40.775641165673732757568359375" lon="-1.51699597947299480438232421875">
        <ele>1120.4000244140625</ele>
        <time>2022-05-03T10:21:53.000Z</time>
      </trkpt>
      <trkpt lat="40.77565549872815608978271484375" lon="-1.5171008370816707611083984375">
        <ele>1120.199951171875</ele>
        <time>2022-05-03T10:21:55.000Z</time>
      </trkpt>
      <trkpt lat="40.77566706575453281402587890625" lon="-1.51720435358583927154541015625">
        <ele>1119.800048828125</ele>
        <time>2022-05-03T10:21:57.000Z</time>
      </trkpt>
      <trkpt lat="40.7756777107715606689453125" lon="-1.51731080375611782073974609375">
        <ele>1120.4000244140625</ele>
        <time>2022-05-03T10:21:59.000Z</time>
      </trkpt>
      <trkpt lat="40.7756845839321613311767578125" lon="-1.51736310683190822601318359375">
        <ele>1120.5999755859375</ele>
        <time>2022-05-03T10:22:00.000Z</time>
      </trkpt>
      <trkpt lat="40.7756909541785717010498046875" lon="-1.51741473935544490814208984375">
        <ele>1120.5999755859375</ele>
        <time>2022-05-03T10:22:01.000Z</time>
      </trkpt>
      <trkpt lat="40.7757030241191387176513671875" lon="-1.517517752945423126220703125">
        <ele>1120.800048828125</ele>
        <time>2022-05-03T10:22:03.000Z</time>
      </trkpt>
      <trkpt lat="40.7757177762687206268310546875" lon="-1.51762059889733791351318359375">
        <ele>1121</ele>
        <time>2022-05-03T10:22:05.000Z</time>
      </trkpt>
      <trkpt lat="40.77573210932314395904541015625" lon="-1.517725288867950439453125">
        <ele>1121.199951171875</ele>
        <time>2022-05-03T10:22:07.000Z</time>
      </trkpt>
      <trkpt lat="40.7757378928363323211669921875" lon="-1.51777901686728000640869140625">
        <ele>1121.199951171875</ele>
        <time>2022-05-03T10:22:08.000Z</time>
      </trkpt>
      <trkpt lat="40.77574384398758411407470703125" lon="-1.51783333159983158111572265625">
        <ele>1121.4000244140625</ele>
        <time>2022-05-03T10:22:09.000Z</time>
      </trkpt>
      <trkpt lat="40.77575775794684886932373046875" lon="-1.517937183380126953125">
        <ele>1121.4000244140625</ele>
        <time>2022-05-03T10:22:11.000Z</time>
      </trkpt>
      <trkpt lat="40.775767900049686431884765625" lon="-1.51804246008396148681640625">
        <ele>1121.5999755859375</ele>
        <time>2022-05-03T10:22:13.000Z</time>
      </trkpt>
      <trkpt lat="40.77578038908541202545166015625" lon="-1.51814840734004974365234375">
        <ele>1121.800048828125</ele>
        <time>2022-05-03T10:22:15.000Z</time>
      </trkpt>
      <trkpt lat="40.7757865078747272491455078125" lon="-1.5182025544345378875732421875">
        <ele>1121.800048828125</ele>
        <time>2022-05-03T10:22:16.000Z</time>
      </trkpt>
      <trkpt lat="40.77579195611178874969482421875" lon="-1.51825678534805774688720703125">
        <ele>1121.800048828125</ele>
        <time>2022-05-03T10:22:17.000Z</time>
      </trkpt>
      <trkpt lat="40.775806121528148651123046875" lon="-1.51836507953703403472900390625">
        <ele>1122</ele>
        <time>2022-05-03T10:22:19.000Z</time>
      </trkpt>
      <trkpt lat="40.775821544229984283447265625" lon="-1.51847161352634429931640625">
        <ele>1122</ele>
        <time>2022-05-03T10:22:21.000Z</time>
      </trkpt>
      <trkpt lat="40.77582749538123607635498046875" lon="-1.51852332986891269683837890625">
        <ele>1122</ele>
        <time>2022-05-03T10:22:22.000Z</time>
      </trkpt>
      <trkpt lat="40.77583336271345615386962890625" lon="-1.51857554912567138671875">
        <ele>1122</ele>
        <time>2022-05-03T10:22:23.000Z</time>
      </trkpt>
      <trkpt lat="40.775845013558864593505859375" lon="-1.51867923326790332794189453125">
        <ele>1122</ele>
        <time>2022-05-03T10:22:25.000Z</time>
      </trkpt>
      <trkpt lat="40.7758520543575286865234375" lon="-1.5187296085059642791748046875">
        <ele>1122.199951171875</ele>
        <time>2022-05-03T10:22:26.000Z</time>
      </trkpt>
      <trkpt lat="40.77585917897522449493408203125" lon="-1.5187798999249935150146484375">
        <ele>1122.4000244140625</ele>
        <time>2022-05-03T10:22:27.000Z</time>
      </trkpt>
      <trkpt lat="40.77587007544934749603271484375" lon="-1.51887956075370311737060546875">
        <ele>1122.5999755859375</ele>
        <time>2022-05-03T10:22:29.000Z</time>
      </trkpt>
      <trkpt lat="40.7758823968470096588134765625" lon="-1.5189760364592075347900390625">
        <ele>1123</ele>
        <time>2022-05-03T10:22:31.000Z</time>
      </trkpt>
      <trkpt lat="40.7758941315114498138427734375" lon="-1.51907301507890224456787109375">
        <ele>1123.199951171875</ele>
        <time>2022-05-03T10:22:33.000Z</time>
      </trkpt>
      <trkpt lat="40.7759055308997631072998046875" lon="-1.519172675907611846923828125">
        <ele>1123.5999755859375</ele>
        <time>2022-05-03T10:22:35.000Z</time>
      </trkpt>
      <trkpt lat="40.77591039240360260009765625" lon="-1.51922338642179965972900390625">
        <ele>1123.800048828125</ele>
        <time>2022-05-03T10:22:36.000Z</time>
      </trkpt>
      <trkpt lat="40.77591466717422008514404296875" lon="-1.5192724205553531646728515625">
        <ele>1123.800048828125</ele>
        <time>2022-05-03T10:22:37.000Z</time>
      </trkpt>
      <trkpt lat="40.7759236358106136322021484375" lon="-1.51936948299407958984375">
        <ele>1124.199951171875</ele>
        <time>2022-05-03T10:22:39.000Z</time>
      </trkpt>
      <trkpt lat="40.77593696303665637969970703125" lon="-1.5194635279476642608642578125">
        <ele>1124.4000244140625</ele>
        <time>2022-05-03T10:22:41.000Z</time>
      </trkpt>
      <trkpt lat="40.77595154754817485809326171875" lon="-1.51955547742545604705810546875">
        <ele>1125</ele>
        <time>2022-05-03T10:22:43.000Z</time>
      </trkpt>
      <trkpt lat="40.77595724724233150482177734375" lon="-1.51960216462612152099609375">
        <ele>1125.199951171875</ele>
        <time>2022-05-03T10:22:44.000Z</time>
      </trkpt>
      <trkpt lat="40.77596143819391727447509765625" lon="-1.51964985765516757965087890625">
        <ele>1125.4000244140625</ele>
        <time>2022-05-03T10:22:45.000Z</time>
      </trkpt>
      <trkpt lat="40.77597384341061115264892578125" lon="-1.51974775828421115875244140625">
        <ele>1125.800048828125</ele>
        <time>2022-05-03T10:22:47.000Z</time>
      </trkpt>
      <trkpt lat="40.77598691917955875396728515625" lon="-1.51984758675098419189453125">
        <ele>1126.199951171875</ele>
        <time>2022-05-03T10:22:49.000Z</time>
      </trkpt>
      <trkpt lat="40.77599823474884033203125" lon="-1.5199466608464717864990234375">
        <ele>1126.4000244140625</ele>
        <time>2022-05-03T10:22:51.000Z</time>
      </trkpt>
      <trkpt lat="40.776002593338489532470703125" lon="-1.51999720372259616851806640625">
        <ele>1126.4000244140625</ele>
        <time>2022-05-03T10:22:52.000Z</time>
      </trkpt>
      <trkpt lat="40.7760081253945827484130859375" lon="-1.52004648931324481964111328125">
        <ele>1126.5999755859375</ele>
        <time>2022-05-03T10:22:53.000Z</time>
      </trkpt>
      <trkpt lat="40.7760218717157840728759765625" lon="-1.5201459825038909912109375">
        <ele>1126.800048828125</ele>
        <time>2022-05-03T10:22:55.000Z</time>
      </trkpt>
      <trkpt lat="40.7760356180369853973388671875" lon="-1.5202505886554718017578125">
        <ele>1126.5999755859375</ele>
        <time>2022-05-03T10:22:57.000Z</time>
      </trkpt>
      <trkpt lat="40.7760486938059329986572265625" lon="-1.52036047540605068206787109375">
        <ele>1125.800048828125</ele>
        <time>2022-05-03T10:22:59.000Z</time>
      </trkpt>
      <trkpt lat="40.7760634459555149078369140625" lon="-1.52046809904277324676513671875">
        <ele>1125.199951171875</ele>
        <time>2022-05-03T10:23:01.000Z</time>
      </trkpt>
      <trkpt lat="40.776075012981891632080078125" lon="-1.5205763094127178192138671875">
        <ele>1124.5999755859375</ele>
        <time>2022-05-03T10:23:03.000Z</time>
      </trkpt>
      <trkpt lat="40.7760889269411563873291015625" lon="-1.52067714370787143707275390625">
        <ele>1124</ele>
        <time>2022-05-03T10:23:05.000Z</time>
      </trkpt>
      <trkpt lat="40.7761030085384845733642578125" lon="-1.52077202685177326202392578125">
        <ele>1124.199951171875</ele>
        <time>2022-05-03T10:23:07.000Z</time>
      </trkpt>
      <trkpt lat="40.7761157490313053131103515625" lon="-1.52086925692856311798095703125">
        <ele>1124.4000244140625</ele>
        <time>2022-05-03T10:23:09.000Z</time>
      </trkpt>
      <trkpt lat="40.7761294953525066375732421875" lon="-1.52097277343273162841796875">
        <ele>1124.4000244140625</ele>
        <time>2022-05-03T10:23:11.000Z</time>
      </trkpt>
      <trkpt lat="40.7761419005692005157470703125" lon="-1.5210778824985027313232421875">
        <ele>1124</ele>
        <time>2022-05-03T10:23:13.000Z</time>
      </trkpt>
      <trkpt lat="40.77615338377654552459716796875" lon="-1.52118290774524211883544921875">
        <ele>1123.5999755859375</ele>
        <time>2022-05-03T10:23:15.000Z</time>
      </trkpt>
      <trkpt lat="40.77616092748939990997314453125" lon="-1.52123537845909595489501953125">
        <ele>1123.199951171875</ele>
        <time>2022-05-03T10:23:16.000Z</time>
      </trkpt>
      <trkpt lat="40.77616847120225429534912109375" lon="-1.52128902263939380645751953125">
        <ele>1123</ele>
        <time>2022-05-03T10:23:17.000Z</time>
      </trkpt>
      <trkpt lat="40.7761838100850582122802734375" lon="-1.52139647863805294036865234375">
        <ele>1122.5999755859375</ele>
        <time>2022-05-03T10:23:19.000Z</time>
      </trkpt>
      <trkpt lat="40.7761953771114349365234375" lon="-1.52150544337928295135498046875">
        <ele>1122.199951171875</ele>
        <time>2022-05-03T10:23:21.000Z</time>
      </trkpt>
      <trkpt lat="40.77620769850909709930419921875" lon="-1.521613486111164093017578125">
        <ele>1122.199951171875</ele>
        <time>2022-05-03T10:23:23.000Z</time>
      </trkpt>
      <trkpt lat="40.77621926553547382354736328125" lon="-1.5217216126620769500732421875">
        <ele>1122.4000244140625</ele>
        <time>2022-05-03T10:23:25.000Z</time>
      </trkpt>
      <trkpt lat="40.77623250894248485565185546875" lon="-1.5218282304704189300537109375">
        <ele>1122.5999755859375</ele>
        <time>2022-05-03T10:23:27.000Z</time>
      </trkpt>
      <trkpt lat="40.77624776400625705718994140625" lon="-1.521936021745204925537109375">
        <ele>1122.800048828125</ele>
        <time>2022-05-03T10:23:29.000Z</time>
      </trkpt>
      <trkpt lat="40.77625430189073085784912109375" lon="-1.52199226431548595428466796875">
        <ele>1123</ele>
        <time>2022-05-03T10:23:30.000Z</time>
      </trkpt>
      <trkpt lat="40.77626083977520465850830078125" lon="-1.5220498479902744293212890625">
        <ele>1123</ele>
        <time>2022-05-03T10:23:31.000Z</time>
      </trkpt>
      <trkpt lat="40.77626653946936130523681640625" lon="-1.52210826985538005828857421875">
        <ele>1123.199951171875</ele>
        <time>2022-05-03T10:23:32.000Z</time>
      </trkpt>
      <trkpt lat="40.77627307735383510589599609375" lon="-1.52216711081564426422119140625">
        <ele>1123.199951171875</ele>
        <time>2022-05-03T10:23:33.000Z</time>
      </trkpt>
      <trkpt lat="40.77628883533179759979248046875" lon="-1.5222823619842529296875">
        <ele>1123.4000244140625</ele>
        <time>2022-05-03T10:23:35.000Z</time>
      </trkpt>
      <trkpt lat="40.7763026654720306396484375" lon="-1.5223931707441806793212890625">
        <ele>1123.5999755859375</ele>
        <time>2022-05-03T10:23:37.000Z</time>
      </trkpt>
      <trkpt lat="40.77631817199289798736572265625" lon="-1.52249735780060291290283203125">
        <ele>1123.5999755859375</ele>
        <time>2022-05-03T10:23:39.000Z</time>
      </trkpt>
      <trkpt lat="40.77633493579924106597900390625" lon="-1.52260380797088146209716796875">
        <ele>1123.4000244140625</ele>
        <time>2022-05-03T10:23:41.000Z</time>
      </trkpt>
      <trkpt lat="40.77635354362428188323974609375" lon="-1.5227187238633632659912109375">
        <ele>1123.199951171875</ele>
        <time>2022-05-03T10:23:43.000Z</time>
      </trkpt>
      <trkpt lat="40.77637416310608386993408203125" lon="-1.52283850125968456268310546875">
        <ele>1123</ele>
        <time>2022-05-03T10:23:45.000Z</time>
      </trkpt>
      <trkpt lat="40.7763846404850482940673828125" lon="-1.522896923124790191650390625">
        <ele>1123</ele>
        <time>2022-05-03T10:23:46.000Z</time>
      </trkpt>
      <trkpt lat="40.776394866406917572021484375" lon="-1.522955596446990966796875">
        <ele>1123</ele>
        <time>2022-05-03T10:23:47.000Z</time>
      </trkpt>
      <trkpt lat="40.77641657553613185882568359375" lon="-1.52307017706334590911865234375">
        <ele>1122.800048828125</ele>
        <time>2022-05-03T10:23:49.000Z</time>
      </trkpt>
      <trkpt lat="40.77644012868404388427734375" lon="-1.52317997999489307403564453125">
        <ele>1122.800048828125</ele>
        <time>2022-05-03T10:23:51.000Z</time>
      </trkpt>
      <trkpt lat="40.77646602876484394073486328125" lon="-1.523282825946807861328125">
        <ele>1122.800048828125</ele>
        <time>2022-05-03T10:23:53.000Z</time>
      </trkpt>
      <trkpt lat="40.77649402432143688201904296875" lon="-1.5233914554119110107421875">
        <ele>1122.800048828125</ele>
        <time>2022-05-03T10:23:55.000Z</time>
      </trkpt>
      <trkpt lat="40.77652621082961559295654296875" lon="-1.52350620366632938385009765625">
        <ele>1122.800048828125</ele>
        <time>2022-05-03T10:23:57.000Z</time>
      </trkpt>
      <trkpt lat="40.77656024135649204254150390625" lon="-1.523623801767826080322265625">
        <ele>1122.5999755859375</ele>
        <time>2022-05-03T10:23:59.000Z</time>
      </trkpt>
      <trkpt lat="40.7765938527882099151611328125" lon="-1.52374240569770336151123046875">
        <ele>1122.5999755859375</ele>
        <time>2022-05-03T10:24:01.000Z</time>
      </trkpt>
      <trkpt lat="40.77663048170506954193115234375" lon="-1.5238593332469463348388671875">
        <ele>1122.4000244140625</ele>
        <time>2022-05-03T10:24:03.000Z</time>
      </trkpt>
      <trkpt lat="40.77666752971708774566650390625" lon="-1.52397860772907733917236328125">
        <ele>1122</ele>
        <time>2022-05-03T10:24:05.000Z</time>
      </trkpt>
      <trkpt lat="40.776706673204898834228515625" lon="-1.52409830130636692047119140625">
        <ele>1121.800048828125</ele>
        <time>2022-05-03T10:24:07.000Z</time>
      </trkpt>
      <trkpt lat="40.776745565235614776611328125" lon="-1.52421749196946620941162109375">
        <ele>1121.5999755859375</ele>
        <time>2022-05-03T10:24:09.000Z</time>
      </trkpt>
      <trkpt lat="40.77678571455180644989013671875" lon="-1.52433760464191436767578125">
        <ele>1121.4000244140625</ele>
        <time>2022-05-03T10:24:11.000Z</time>
      </trkpt>
      <trkpt lat="40.7768272049725055694580078125" lon="-1.52446408756077289581298828125">
        <ele>1121.4000244140625</ele>
        <time>2022-05-03T10:24:13.000Z</time>
      </trkpt>
      <trkpt lat="40.776868946850299835205078125" lon="-1.5245909057557582855224609375">
        <ele>1121.199951171875</ele>
        <time>2022-05-03T10:24:15.000Z</time>
      </trkpt>
      <trkpt lat="40.776909850537776947021484375" lon="-1.52471135370433330535888671875">
        <ele>1121</ele>
        <time>2022-05-03T10:24:17.000Z</time>
      </trkpt>
      <trkpt lat="40.77695167623460292816162109375" lon="-1.5248269401490688323974609375">
        <ele>1120.800048828125</ele>
        <time>2022-05-03T10:24:19.000Z</time>
      </trkpt>
      <trkpt lat="40.776992328464984893798828125" lon="-1.52494386769831180572509765625">
        <ele>1120.800048828125</ele>
        <time>2022-05-03T10:24:21.000Z</time>
      </trkpt>
      <trkpt lat="40.7770333997905254364013671875" lon="-1.52505786158144474029541015625">
        <ele>1121</ele>
        <time>2022-05-03T10:24:23.000Z</time>
      </trkpt>
      <trkpt lat="40.7770538516342639923095703125" lon="-1.52511410415172576904296875">
        <ele>1121.199951171875</ele>
        <time>2022-05-03T10:24:24.000Z</time>
      </trkpt>
      <trkpt lat="40.7770736329257488250732421875" lon="-1.525170095264911651611328125">
        <ele>1121.5999755859375</ele>
        <time>2022-05-03T10:24:25.000Z</time>
      </trkpt>
      <trkpt lat="40.77711394988000392913818359375" lon="-1.52528232894837856292724609375">
        <ele>1122</ele>
        <time>2022-05-03T10:24:27.000Z</time>
      </trkpt>
      <trkpt lat="40.77715317718684673309326171875" lon="-1.5253935568034648895263671875">
        <ele>1122.5999755859375</ele>
        <time>2022-05-03T10:24:29.000Z</time>
      </trkpt>
      <trkpt lat="40.7771926559507846832275390625" lon="-1.525502018630504608154296875">
        <ele>1123</ele>
        <time>2022-05-03T10:24:31.000Z</time>
      </trkpt>
      <trkpt lat="40.77723096124827861785888671875" lon="-1.525609306991100311279296875">
        <ele>1123.5999755859375</ele>
        <time>2022-05-03T10:24:33.000Z</time>
      </trkpt>
      <trkpt lat="40.77725023962557315826416015625" lon="-1.525662280619144439697265625">
        <ele>1123.800048828125</ele>
        <time>2022-05-03T10:24:34.000Z</time>
      </trkpt>
      <trkpt lat="40.77726935036480426788330078125" lon="-1.52571584098041057586669921875">
        <ele>1123.800048828125</ele>
        <time>2022-05-03T10:24:35.000Z</time>
      </trkpt>
      <trkpt lat="40.77730782330036163330078125" lon="-1.52582061477005481719970703125">
        <ele>1123.5999755859375</ele>
        <time>2022-05-03T10:24:37.000Z</time>
      </trkpt>
      <trkpt lat="40.7773448713123798370361328125" lon="-1.52592304162681102752685546875">
        <ele>1123.4000244140625</ele>
        <time>2022-05-03T10:24:39.000Z</time>
      </trkpt>
      <trkpt lat="40.777378566563129425048828125" lon="-1.526022367179393768310546875">
        <ele>1123.199951171875</ele>
        <time>2022-05-03T10:24:41.000Z</time>
      </trkpt>
      <trkpt lat="40.777412764728069305419921875" lon="-1.5261174179613590240478515625">
        <ele>1123</ele>
        <time>2022-05-03T10:24:43.000Z</time>
      </trkpt>
      <trkpt lat="40.77744553796947002410888671875" lon="-1.52621154673397541046142578125">
        <ele>1122.800048828125</ele>
        <time>2022-05-03T10:24:45.000Z</time>
      </trkpt>
      <trkpt lat="40.77747940085828304290771484375" lon="-1.52630508877336978912353515625">
        <ele>1123</ele>
        <time>2022-05-03T10:24:47.000Z</time>
      </trkpt>
      <trkpt lat="40.7774954102933406829833984375" lon="-1.526350937783718109130859375">
        <ele>1123.199951171875</ele>
        <time>2022-05-03T10:24:48.000Z</time>
      </trkpt>
      <trkpt lat="40.7775115035474300384521484375" lon="-1.5263960324227809906005859375">
        <ele>1123.199951171875</ele>
        <time>2022-05-03T10:24:49.000Z</time>
      </trkpt>
      <trkpt lat="40.7775445282459259033203125" lon="-1.5264878980815410614013671875">
        <ele>1123.5999755859375</ele>
        <time>2022-05-03T10:24:51.000Z</time>
      </trkpt>
      <trkpt lat="40.777578391134738922119140625" lon="-1.5265827812254428863525390625">
        <ele>1123.4000244140625</ele>
        <time>2022-05-03T10:24:53.000Z</time>
      </trkpt>
      <trkpt lat="40.77761183492839336395263671875" lon="-1.52668428607285022735595703125">
        <ele>1123.4000244140625</ele>
        <time>2022-05-03T10:24:55.000Z</time>
      </trkpt>
      <trkpt lat="40.77762960456311702728271484375" lon="-1.52673709206283092498779296875">
        <ele>1123.199951171875</ele>
        <time>2022-05-03T10:24:56.000Z</time>
      </trkpt>
      <trkpt lat="40.77764838002622127532958984375" lon="-1.52679157443344593048095703125">
        <ele>1123.199951171875</ele>
        <time>2022-05-03T10:24:57.000Z</time>
      </trkpt>
      <trkpt lat="40.77768794260919094085693359375" lon="-1.52690137736499309539794921875">
        <ele>1122.800048828125</ele>
        <time>2022-05-03T10:24:59.000Z</time>
      </trkpt>
      <trkpt lat="40.77772901393473148345947265625" lon="-1.5270122699439525604248046875">
        <ele>1122.4000244140625</ele>
        <time>2022-05-03T10:25:01.000Z</time>
      </trkpt>
      <trkpt lat="40.7777693308889865875244140625" lon="-1.52712852694094181060791015625">
        <ele>1121.800048828125</ele>
        <time>2022-05-03T10:25:03.000Z</time>
      </trkpt>
      <trkpt lat="40.7778127491474151611328125" lon="-1.5272499807178974151611328125">
        <ele>1121.199951171875</ele>
        <time>2022-05-03T10:25:05.000Z</time>
      </trkpt>
      <trkpt lat="40.77785901725292205810546875" lon="-1.5273830853402614593505859375">
        <ele>1120.5999755859375</ele>
        <time>2022-05-03T10:25:07.000Z</time>
      </trkpt>
      <trkpt lat="40.777909643948078155517578125" lon="-1.52752683497965335845947265625">
        <ele>1120.4000244140625</ele>
        <time>2022-05-03T10:25:09.000Z</time>
      </trkpt>
      <trkpt lat="40.77796161174774169921875" lon="-1.5276741050183773040771484375">
        <ele>1120</ele>
        <time>2022-05-03T10:25:11.000Z</time>
      </trkpt>
      <trkpt lat="40.77798533253371715545654296875" lon="-1.5277446806430816650390625">
        <ele>1119.800048828125</ele>
        <time>2022-05-03T10:25:12.000Z</time>
      </trkpt>
      <trkpt lat="40.77800762839615345001220703125" lon="-1.52781114913523197174072265625">
        <ele>1119.5999755859375</ele>
        <time>2022-05-03T10:25:13.000Z</time>
      </trkpt>
      <trkpt lat="40.7780506275594234466552734375" lon="-1.52793578803539276123046875">
        <ele>1119.199951171875</ele>
        <time>2022-05-03T10:25:15.000Z</time>
      </trkpt>
      <trkpt lat="40.77809664420783519744873046875" lon="-1.52806780301034450531005859375">
        <ele>1118.800048828125</ele>
        <time>2022-05-03T10:25:17.000Z</time>
      </trkpt>
      <trkpt lat="40.77812078408896923065185546875" lon="-1.52813770808279514312744140625">
        <ele>1118.5999755859375</ele>
        <time>2022-05-03T10:25:18.000Z</time>
      </trkpt>
      <trkpt lat="40.7781458459794521331787109375" lon="-1.5282087028026580810546875">
        <ele>1118.800048828125</ele>
        <time>2022-05-03T10:25:19.000Z</time>
      </trkpt>
      <trkpt lat="40.77819739468395709991455078125" lon="-1.5283540450036525726318359375">
        <ele>1119.199951171875</ele>
        <time>2022-05-03T10:25:21.000Z</time>
      </trkpt>
      <trkpt lat="40.77824936248362064361572265625" lon="-1.52850198559463024139404296875">
        <ele>1119.5999755859375</ele>
        <time>2022-05-03T10:25:23.000Z</time>
      </trkpt>
      <trkpt lat="40.7783004082739353179931640625" lon="-1.52864648960530757904052734375">
        <ele>1120</ele>
        <time>2022-05-03T10:25:25.000Z</time>
      </trkpt>
      <trkpt lat="40.778350867331027984619140625" lon="-1.52878546155989170074462890625">
        <ele>1120.199951171875</ele>
        <time>2022-05-03T10:25:27.000Z</time>
      </trkpt>
      <trkpt lat="40.7783758454024791717529296875" lon="-1.52885503135621547698974609375">
        <ele>1120.199951171875</ele>
        <time>2022-05-03T10:25:28.000Z</time>
      </trkpt>
      <trkpt lat="40.77840149402618408203125" lon="-1.52892543934285640716552734375">
        <ele>1120.199951171875</ele>
        <time>2022-05-03T10:25:29.000Z</time>
      </trkpt>
      <trkpt lat="40.77845220454037189483642578125" lon="-1.5290691889822483062744140625">
        <ele>1120</ele>
        <time>2022-05-03T10:25:31.000Z</time>
      </trkpt>
      <trkpt lat="40.7785039208829402923583984375" lon="-1.52921712957322597503662109375">
        <ele>1119.800048828125</ele>
        <time>2022-05-03T10:25:33.000Z</time>
      </trkpt>
      <trkpt lat="40.77855697833001613616943359375" lon="-1.52936917729675769805908203125">
        <ele>1119.4000244140625</ele>
        <time>2022-05-03T10:25:35.000Z</time>
      </trkpt>
      <trkpt lat="40.778610371053218841552734375" lon="-1.5295208059251308441162109375">
        <ele>1119.199951171875</ele>
        <time>2022-05-03T10:25:37.000Z</time>
      </trkpt>
      <trkpt lat="40.77866594307124614715576171875" lon="-1.52967075817286968231201171875">
        <ele>1119</ele>
        <time>2022-05-03T10:25:39.000Z</time>
      </trkpt>
      <trkpt lat="40.77871925197541713714599609375" lon="-1.52982012368738651275634765625">
        <ele>1119</ele>
        <time>2022-05-03T10:25:41.000Z</time>
      </trkpt>
      <trkpt lat="40.7787734828889369964599609375" lon="-1.52996982447803020477294921875">
        <ele>1119.199951171875</ele>
        <time>2022-05-03T10:25:43.000Z</time>
      </trkpt>
      <trkpt lat="40.7788277976214885711669921875" lon="-1.5301192738115787506103515625">
        <ele>1119.4000244140625</ele>
        <time>2022-05-03T10:25:45.000Z</time>
      </trkpt>
      <trkpt lat="40.7788824476301670074462890625" lon="-1.5302691422402858734130859375">
        <ele>1119.5999755859375</ele>
        <time>2022-05-03T10:25:47.000Z</time>
      </trkpt>
      <trkpt lat="40.778908766806125640869140625" lon="-1.53034432791173458099365234375">
        <ele>1119.5999755859375</ele>
        <time>2022-05-03T10:25:48.000Z</time>
      </trkpt>
      <trkpt lat="40.77893433161079883575439453125" lon="-1.53041875921189785003662109375">
        <ele>1119.800048828125</ele>
        <time>2022-05-03T10:25:49.000Z</time>
      </trkpt>
      <trkpt lat="40.77898361720144748687744140625" lon="-1.530562341213226318359375">
        <ele>1119.800048828125</ele>
        <time>2022-05-03T10:25:51.000Z</time>
      </trkpt>
      <trkpt lat="40.7790313102304935455322265625" lon="-1.530698798596858978271484375">
        <ele>1119.800048828125</ele>
        <time>2022-05-03T10:25:53.000Z</time>
      </trkpt>
      <trkpt lat="40.7790775783360004425048828125" lon="-1.5308319032192230224609375">
        <ele>1120.4000244140625</ele>
        <time>2022-05-03T10:25:55.000Z</time>
      </trkpt>
      <trkpt lat="40.77910113148391246795654296875" lon="-1.53089820407330989837646484375">
        <ele>1120.5999755859375</ele>
        <time>2022-05-03T10:25:56.000Z</time>
      </trkpt>
      <trkpt lat="40.77912476845085620880126953125" lon="-1.530964337289333343505859375">
        <ele>1120.800048828125</ele>
        <time>2022-05-03T10:25:57.000Z</time>
      </trkpt>
      <trkpt lat="40.7791717909276485443115234375" lon="-1.53109811246395111083984375">
        <ele>1121.199951171875</ele>
        <time>2022-05-03T10:25:59.000Z</time>
      </trkpt>
      <trkpt lat="40.779219232499599456787109375" lon="-1.531233228743076324462890625">
        <ele>1121.199951171875</ele>
        <time>2022-05-03T10:26:01.000Z</time>
      </trkpt>
      <trkpt lat="40.7792673446238040924072265625" lon="-1.531368009746074676513671875">
        <ele>1121</ele>
        <time>2022-05-03T10:26:03.000Z</time>
      </trkpt>
      <trkpt lat="40.7793159596621990203857421875" lon="-1.531503461301326751708984375">
        <ele>1120.800048828125</ele>
        <time>2022-05-03T10:26:05.000Z</time>
      </trkpt>
      <trkpt lat="40.77936708927154541015625" lon="-1.53163899667561054229736328125">
        <ele>1120.800048828125</ele>
        <time>2022-05-03T10:26:07.000Z</time>
      </trkpt>
      <trkpt lat="40.7794202305376529693603515625" lon="-1.5317768789827823638916015625">
        <ele>1120.800048828125</ele>
        <time>2022-05-03T10:26:09.000Z</time>
      </trkpt>
      <trkpt lat="40.77947697602212429046630859375" lon="-1.53191509656608104705810546875">
        <ele>1120.4000244140625</ele>
        <time>2022-05-03T10:26:11.000Z</time>
      </trkpt>
      <trkpt lat="40.779533721506595611572265625" lon="-1.53205356560647487640380859375">
        <ele>1120</ele>
        <time>2022-05-03T10:26:13.000Z</time>
      </trkpt>
      <trkpt lat="40.7795918919146060943603515625" lon="-1.53218700550496578216552734375">
        <ele>1119.4000244140625</ele>
        <time>2022-05-03T10:26:15.000Z</time>
      </trkpt>
      <trkpt lat="40.77965316362679004669189453125" lon="-1.5323133207857608795166015625">
        <ele>1118.800048828125</ele>
        <time>2022-05-03T10:26:17.000Z</time>
      </trkpt>
      <trkpt lat="40.77968434430658817291259765625" lon="-1.5323740057647228240966796875">
        <ele>1119</ele>
        <time>2022-05-03T10:26:18.000Z</time>
      </trkpt>
      <trkpt lat="40.7797159440815448760986328125" lon="-1.53243175707757472991943359375">
        <ele>1119</ele>
        <time>2022-05-03T10:26:19.000Z</time>
      </trkpt>
      <trkpt lat="40.77978123910725116729736328125" lon="-1.5325389616191387176513671875">
        <ele>1120</ele>
        <time>2022-05-03T10:26:21.000Z</time>
      </trkpt>
      <trkpt lat="40.7798453606665134429931640625" lon="-1.53263929300010204315185546875">
        <ele>1121</ele>
        <time>2022-05-03T10:26:23.000Z</time>
      </trkpt>
      <trkpt lat="40.77991358935832977294921875" lon="-1.53273333795368671417236328125">
        <ele>1122</ele>
        <time>2022-05-03T10:26:25.000Z</time>
      </trkpt>
      <trkpt lat="40.779983997344970703125" lon="-1.5328296460211277008056640625">
        <ele>1123</ele>
        <time>2022-05-03T10:26:27.000Z</time>
      </trkpt>
      <trkpt lat="40.7800589315593242645263671875" lon="-1.53292469680309295654296875">
        <ele>1123.4000244140625</ele>
        <time>2022-05-03T10:26:29.000Z</time>
      </trkpt>
      <trkpt lat="40.78013327904045581817626953125" lon="-1.5330187417566776275634765625">
        <ele>1123.199951171875</ele>
        <time>2022-05-03T10:26:31.000Z</time>
      </trkpt>
      <trkpt lat="40.78020871616899967193603515625" lon="-1.5331090986728668212890625">
        <ele>1123.199951171875</ele>
        <time>2022-05-03T10:26:33.000Z</time>
      </trkpt>
      <trkpt lat="40.78028398565948009490966796875" lon="-1.533196605741977691650390625">
        <ele>1123.4000244140625</ele>
        <time>2022-05-03T10:26:35.000Z</time>
      </trkpt>
      <trkpt lat="40.7803610153496265411376953125" lon="-1.533282436430454254150390625">
        <ele>1124.4000244140625</ele>
        <time>2022-05-03T10:26:37.000Z</time>
      </trkpt>
      <trkpt lat="40.78043737448751926422119140625" lon="-1.53336768038570880889892578125">
        <ele>1124.5999755859375</ele>
        <time>2022-05-03T10:26:39.000Z</time>
      </trkpt>
      <trkpt lat="40.7805118896067142486572265625" lon="-1.53345309197902679443359375">
        <ele>1124</ele>
        <time>2022-05-03T10:26:41.000Z</time>
      </trkpt>
      <trkpt lat="40.7805883325636386871337890625" lon="-1.5335377492010593414306640625">
        <ele>1124.199951171875</ele>
        <time>2022-05-03T10:26:43.000Z</time>
      </trkpt>
      <trkpt lat="40.780628062784671783447265625" lon="-1.53358225710690021514892578125">
        <ele>1124.5999755859375</ele>
        <time>2022-05-03T10:26:44.000Z</time>
      </trkpt>
      <trkpt lat="40.78066569752991199493408203125" lon="-1.53362852521240711212158203125">
        <ele>1125.199951171875</ele>
        <time>2022-05-03T10:26:45.000Z</time>
      </trkpt>
      <trkpt lat="40.7807382009923458099365234375" lon="-1.53372139669954776763916015625">
        <ele>1126</ele>
        <time>2022-05-03T10:26:47.000Z</time>
      </trkpt>
      <trkpt lat="40.78080366365611553192138671875" lon="-1.53381259180605411529541015625">
        <ele>1126.5999755859375</ele>
        <time>2022-05-03T10:26:49.000Z</time>
      </trkpt>
      <trkpt lat="40.78086434863507747650146484375" lon="-1.533906050026416778564453125">
        <ele>1126.5999755859375</ele>
        <time>2022-05-03T10:26:51.000Z</time>
      </trkpt>
      <trkpt lat="40.78089435584843158721923828125" lon="-1.5339538268744945526123046875">
        <ele>1126.5999755859375</ele>
        <time>2022-05-03T10:26:52.000Z</time>
      </trkpt>
      <trkpt lat="40.7809232734143733978271484375" lon="-1.53400219045579433441162109375">
        <ele>1126.5999755859375</ele>
        <time>2022-05-03T10:26:53.000Z</time>
      </trkpt>
      <trkpt lat="40.78095152042806148529052734375" lon="-1.534051559865474700927734375">
        <ele>1127</ele>
        <time>2022-05-03T10:26:54.000Z</time>
      </trkpt>
      <trkpt lat="40.7809789292514324188232421875" lon="-1.534101180732250213623046875">
        <ele>1127.199951171875</ele>
        <time>2022-05-03T10:26:55.000Z</time>
      </trkpt>
      <trkpt lat="40.7810313999652862548828125" lon="-1.53420369140803813934326171875">
        <ele>1128</ele>
        <time>2022-05-03T10:26:57.000Z</time>
      </trkpt>
      <trkpt lat="40.781074650585651397705078125" lon="-1.534316428005695343017578125">
        <ele>1128.5999755859375</ele>
        <time>2022-05-03T10:26:59.000Z</time>
      </trkpt>
      <trkpt lat="40.78109267167747020721435546875" lon="-1.53437585569918155670166015625">
        <ele>1128.199951171875</ele>
        <time>2022-05-03T10:27:00.000Z</time>
      </trkpt>
      <trkpt lat="40.7811086811125278472900390625" lon="-1.53443637304008007049560546875">
        <ele>1127.5999755859375</ele>
        <time>2022-05-03T10:27:01.000Z</time>
      </trkpt>
      <trkpt lat="40.78113659285008907318115234375" lon="-1.5345539711415767669677734375">
        <ele>1126.800048828125</ele>
        <time>2022-05-03T10:27:03.000Z</time>
      </trkpt>
      <trkpt lat="40.781156457960605621337890625" lon="-1.5346659533679485321044921875">
        <ele>1126.199951171875</ele>
        <time>2022-05-03T10:27:05.000Z</time>
      </trkpt>
      <trkpt lat="40.78117531724274158477783203125" lon="-1.534773074090480804443359375">
        <ele>1125.4000244140625</ele>
        <time>2022-05-03T10:27:07.000Z</time>
      </trkpt>
      <trkpt lat="40.78118990175426006317138671875" lon="-1.5348838828504085540771484375">
        <ele>1124.800048828125</ele>
        <time>2022-05-03T10:27:09.000Z</time>
      </trkpt>
      <trkpt lat="40.7811981998383998870849609375" lon="-1.5350008942186832427978515625">
        <ele>1124.4000244140625</ele>
        <time>2022-05-03T10:27:11.000Z</time>
      </trkpt>
      <trkpt lat="40.7811992056667804718017578125" lon="-1.53512218035757541656494140625">
        <ele>1125.199951171875</ele>
        <time>2022-05-03T10:27:13.000Z</time>
      </trkpt>
      <trkpt lat="40.7811925001442432403564453125" lon="-1.53524505905807018280029296875">
        <ele>1126</ele>
        <time>2022-05-03T10:27:15.000Z</time>
      </trkpt>
      <trkpt lat="40.78117825090885162353515625" lon="-1.53536676429212093353271484375">
        <ele>1127</ele>
        <time>2022-05-03T10:27:17.000Z</time>
      </trkpt>
      <trkpt lat="40.78115737996995449066162109375" lon="-1.535489894449710845947265625">
        <ele>1128</ele>
        <time>2022-05-03T10:27:19.000Z</time>
      </trkpt>
      <trkpt lat="40.7811301387846469879150390625" lon="-1.5356181375682353973388671875">
        <ele>1129.199951171875</ele>
        <time>2022-05-03T10:27:21.000Z</time>
      </trkpt>
      <trkpt lat="40.78109535388648509979248046875" lon="-1.53574545867741107940673828125">
        <ele>1129.199951171875</ele>
        <time>2022-05-03T10:27:23.000Z</time>
      </trkpt>
      <trkpt lat="40.7810520194470882415771484375" lon="-1.53587110340595245361328125">
        <ele>1128.800048828125</ele>
        <time>2022-05-03T10:27:25.000Z</time>
      </trkpt>
      <trkpt lat="40.78100256621837615966796875" lon="-1.53598920442163944244384765625">
        <ele>1128.4000244140625</ele>
        <time>2022-05-03T10:27:27.000Z</time>
      </trkpt>
      <trkpt lat="40.78094498254358768463134765625" lon="-1.53610068373382091522216796875">
        <ele>1128</ele>
        <time>2022-05-03T10:27:29.000Z</time>
      </trkpt>
      <trkpt lat="40.78091262839734554290771484375" lon="-1.53615566901862621307373046875">
        <ele>1128.199951171875</ele>
        <time>2022-05-03T10:27:30.000Z</time>
      </trkpt>
      <trkpt lat="40.7808786816895008087158203125" lon="-1.53620512224733829498291015625">
        <ele>1128.5999755859375</ele>
        <time>2022-05-03T10:27:31.000Z</time>
      </trkpt>
      <trkpt lat="40.7808062620460987091064453125" lon="-1.536300592124462127685546875">
        <ele>1129</ele>
        <time>2022-05-03T10:27:33.000Z</time>
      </trkpt>
      <trkpt lat="40.78072956763207912445068359375" lon="-1.5363869257271289825439453125">
        <ele>1129</ele>
        <time>2022-05-03T10:27:35.000Z</time>
      </trkpt>
      <trkpt lat="40.78064708970487117767333984375" lon="-1.53646982274949550628662109375">
        <ele>1129</ele>
        <time>2022-05-03T10:27:37.000Z</time>
      </trkpt>
      <trkpt lat="40.7805618457496166229248046875" lon="-1.5365535579621791839599609375">
        <ele>1128.5999755859375</ele>
        <time>2022-05-03T10:27:39.000Z</time>
      </trkpt>
      <trkpt lat="40.78047039918601512908935546875" lon="-1.53663293458521366119384765625">
        <ele>1128.5999755859375</ele>
        <time>2022-05-03T10:27:41.000Z</time>
      </trkpt>
      <trkpt lat="40.7803715765476226806640625" lon="-1.5367007441818714141845703125">
        <ele>1128.800048828125</ele>
        <time>2022-05-03T10:27:43.000Z</time>
      </trkpt>
      <trkpt lat="40.78032019548118114471435546875" lon="-1.53673200868070125579833984375">
        <ele>1128.800048828125</ele>
        <time>2022-05-03T10:27:44.000Z</time>
      </trkpt>
      <trkpt lat="40.78026956878602504730224609375" lon="-1.53676201589405536651611328125">
        <ele>1128.800048828125</ele>
        <time>2022-05-03T10:27:45.000Z</time>
      </trkpt>
      <trkpt lat="40.7801678963005542755126953125" lon="-1.53681968338787555694580078125">
        <ele>1129</ele>
        <time>2022-05-03T10:27:47.000Z</time>
      </trkpt>
      <trkpt lat="40.7800706662237644195556640625" lon="-1.53686880134046077728271484375">
        <ele>1129.199951171875</ele>
        <time>2022-05-03T10:27:49.000Z</time>
      </trkpt>
      <trkpt lat="40.7799808122217655181884765625" lon="-1.53691205196082592010498046875">
        <ele>1129.199951171875</ele>
        <time>2022-05-03T10:27:51.000Z</time>
      </trkpt>
      <trkpt lat="40.779936052858829498291015625" lon="-1.53693116270005702972412109375">
        <ele>1129.4000244140625</ele>
        <time>2022-05-03T10:27:52.000Z</time>
      </trkpt>
      <trkpt lat="40.77989137731492519378662109375" lon="-1.53694909997284412384033203125">
        <ele>1129.4000244140625</ele>
        <time>2022-05-03T10:27:53.000Z</time>
      </trkpt>
      <trkpt lat="40.7798011042177677154541015625" lon="-1.5369837172329425811767578125">
        <ele>1129.4000244140625</ele>
        <time>2022-05-03T10:27:55.000Z</time>
      </trkpt>
      <trkpt lat="40.77971451915800571441650390625" lon="-1.537019424140453338623046875">
        <ele>1129.4000244140625</ele>
        <time>2022-05-03T10:27:57.000Z</time>
      </trkpt>
      <trkpt lat="40.779632292687892913818359375" lon="-1.5370527841150760650634765625">
        <ele>1130</ele>
        <time>2022-05-03T10:27:59.000Z</time>
      </trkpt>
      <trkpt lat="40.7795513235032558441162109375" lon="-1.5370819531381130218505859375">
        <ele>1130.4000244140625</ele>
        <time>2022-05-03T10:28:01.000Z</time>
      </trkpt>
      <trkpt lat="40.77947412617504596710205078125" lon="-1.537112630903720855712890625">
        <ele>1130.800048828125</ele>
        <time>2022-05-03T10:28:03.000Z</time>
      </trkpt>
      <trkpt lat="40.7793981023132801055908203125" lon="-1.53714339248836040496826171875">
        <ele>1131.199951171875</ele>
        <time>2022-05-03T10:28:05.000Z</time>
      </trkpt>
      <trkpt lat="40.7793270237743854522705078125" lon="-1.53717289678752422332763671875">
        <ele>1131.5999755859375</ele>
        <time>2022-05-03T10:28:07.000Z</time>
      </trkpt>
      <trkpt lat="40.77925837598741054534912109375" lon="-1.53720105998218059539794921875">
        <ele>1132</ele>
        <time>2022-05-03T10:28:09.000Z</time>
      </trkpt>
      <trkpt lat="40.77922484837472438812255859375" lon="-1.53721799142658710479736328125">
        <ele>1132.199951171875</ele>
        <time>2022-05-03T10:28:10.000Z</time>
      </trkpt>
      <trkpt lat="40.779193080961704254150390625" lon="-1.5372365154325962066650390625">
        <ele>1132.4000244140625</ele>
        <time>2022-05-03T10:28:11.000Z</time>
      </trkpt>
      <trkpt lat="40.7791282050311565399169921875" lon="-1.537274904549121856689453125">
        <ele>1132.800048828125</ele>
        <time>2022-05-03T10:28:13.000Z</time>
      </trkpt>
      <trkpt lat="40.77905955724418163299560546875" lon="-1.5373109467327594757080078125">
        <ele>1133.199951171875</ele>
        <time>2022-05-03T10:28:15.000Z</time>
      </trkpt>
      <trkpt lat="40.77899015508592128753662109375" lon="-1.53734774328768253326416015625">
        <ele>1133.800048828125</ele>
        <time>2022-05-03T10:28:17.000Z</time>
      </trkpt>
      <trkpt lat="40.77892159111797809600830078125" lon="-1.53738898225128650665283203125">
        <ele>1134.5999755859375</ele>
        <time>2022-05-03T10:28:19.000Z</time>
      </trkpt>
      <trkpt lat="40.7788542844355106353759765625" lon="-1.53743525035679340362548828125">
        <ele>1135</ele>
        <time>2022-05-03T10:28:21.000Z</time>
      </trkpt>
      <trkpt lat="40.778791420161724090576171875" lon="-1.5374836139380931854248046875">
        <ele>1135</ele>
        <time>2022-05-03T10:28:23.000Z</time>
      </trkpt>
      <trkpt lat="40.77873073518276214599609375" lon="-1.5375308878719806671142578125">
        <ele>1135</ele>
        <time>2022-05-03T10:28:25.000Z</time>
      </trkpt>
      <trkpt lat="40.77867197804152965545654296875" lon="-1.537580005824565887451171875">
        <ele>1135.199951171875</ele>
        <time>2022-05-03T10:28:27.000Z</time>
      </trkpt>
      <trkpt lat="40.77864297665655612945556640625" lon="-1.53760741464793682098388671875">
        <ele>1135.199951171875</ele>
        <time>2022-05-03T10:28:28.000Z</time>
      </trkpt>
      <trkpt lat="40.7786148972809314727783203125" lon="-1.53763641603291034698486328125">
        <ele>1135.4000244140625</ele>
        <time>2022-05-03T10:28:29.000Z</time>
      </trkpt>
      <trkpt lat="40.77855865471065044403076171875" lon="-1.537696011364459991455078125">
        <ele>1135.5999755859375</ele>
        <time>2022-05-03T10:28:31.000Z</time>
      </trkpt>
      <trkpt lat="40.7785039208829402923583984375" lon="-1.53775560669600963592529296875">
        <ele>1135.800048828125</ele>
        <time>2022-05-03T10:28:33.000Z</time>
      </trkpt>
      <trkpt lat="40.778451450169086456298828125" lon="-1.53781704604625701904296875">
        <ele>1136.199951171875</ele>
        <time>2022-05-03T10:28:35.000Z</time>
      </trkpt>
      <trkpt lat="40.778401158750057220458984375" lon="-1.53787882067263126373291015625">
        <ele>1136.5999755859375</ele>
        <time>2022-05-03T10:28:37.000Z</time>
      </trkpt>
      <trkpt lat="40.77837760560214519500732421875" lon="-1.53791184537112712860107421875">
        <ele>1136.800048828125</ele>
        <time>2022-05-03T10:28:38.000Z</time>
      </trkpt>
      <trkpt lat="40.7783540524542331695556640625" lon="-1.5379449538886547088623046875">
        <ele>1137</ele>
        <time>2022-05-03T10:28:39.000Z</time>
      </trkpt>
      <trkpt lat="40.77830837108194828033447265625" lon="-1.53801108710467815399169921875">
        <ele>1137.4000244140625</ele>
        <time>2022-05-03T10:28:41.000Z</time>
      </trkpt>
      <trkpt lat="40.7782641984522342681884765625" lon="-1.53808057308197021484375">
        <ele>1137.800048828125</ele>
        <time>2022-05-03T10:28:43.000Z</time>
      </trkpt>
      <trkpt lat="40.77822111546993255615234375" lon="-1.53815374709665775299072265625">
        <ele>1138.4000244140625</ele>
        <time>2022-05-03T10:28:45.000Z</time>
      </trkpt>
      <trkpt lat="40.77817962504923343658447265625" lon="-1.53822465799748897552490234375">
        <ele>1139</ele>
        <time>2022-05-03T10:28:47.000Z</time>
      </trkpt>
      <trkpt lat="40.77813955955207347869873046875" lon="-1.53829623945057392120361328125">
        <ele>1139.4000244140625</ele>
        <time>2022-05-03T10:28:49.000Z</time>
      </trkpt>
      <trkpt lat="40.7781005837023258209228515625" lon="-1.5383697487413883209228515625">
        <ele>1139.800048828125</ele>
        <time>2022-05-03T10:28:51.000Z</time>
      </trkpt>
      <trkpt lat="40.7780573330819606781005859375" lon="-1.53844342567026615142822265625">
        <ele>1140.4000244140625</ele>
        <time>2022-05-03T10:28:53.000Z</time>
      </trkpt>
      <trkpt lat="40.77801567502319812774658203125" lon="-1.53852003626525402069091796875">
        <ele>1140.5999755859375</ele>
        <time>2022-05-03T10:28:55.000Z</time>
      </trkpt>
      <trkpt lat="40.777975022792816162109375" lon="-1.53860159218311309814453125">
        <ele>1141</ele>
        <time>2022-05-03T10:28:57.000Z</time>
      </trkpt>
      <trkpt lat="40.7779329456388950347900390625" lon="-1.5386835671961307525634765625">
        <ele>1141.199951171875</ele>
        <time>2022-05-03T10:28:59.000Z</time>
      </trkpt>
      <trkpt lat="40.77789061702787876129150390625" lon="-1.5387658774852752685546875">
        <ele>1141.4000244140625</ele>
        <time>2022-05-03T10:29:01.000Z</time>
      </trkpt>
      <trkpt lat="40.77784870751202106475830078125" lon="-1.5388505347073078155517578125">
        <ele>1141.800048828125</ele>
        <time>2022-05-03T10:29:03.000Z</time>
      </trkpt>
      <trkpt lat="40.77780512161552906036376953125" lon="-1.53893192298710346221923828125">
        <ele>1142</ele>
        <time>2022-05-03T10:29:05.000Z</time>
      </trkpt>
      <trkpt lat="40.777764804661273956298828125" lon="-1.53901305980980396270751953125">
        <ele>1142.4000244140625</ele>
        <time>2022-05-03T10:29:07.000Z</time>
      </trkpt>
      <trkpt lat="40.77772088348865509033203125" lon="-1.5390939451754093170166015625">
        <ele>1142.4000244140625</ele>
        <time>2022-05-03T10:29:09.000Z</time>
      </trkpt>
      <trkpt lat="40.77767620794475078582763671875" lon="-1.5391764231026172637939453125">
        <ele>1142.4000244140625</ele>
        <time>2022-05-03T10:29:11.000Z</time>
      </trkpt>
      <trkpt lat="40.77763413079082965850830078125" lon="-1.5392609126865863800048828125">
        <ele>1142.5999755859375</ele>
        <time>2022-05-03T10:29:13.000Z</time>
      </trkpt>
      <trkpt lat="40.7775914669036865234375" lon="-1.5393450669944286346435546875">
        <ele>1142.5999755859375</ele>
        <time>2022-05-03T10:29:15.000Z</time>
      </trkpt>
      <trkpt lat="40.7775705121457576751708984375" lon="-1.53938739560544490814208984375">
        <ele>1142.5999755859375</ele>
        <time>2022-05-03T10:29:16.000Z</time>
      </trkpt>
      <trkpt lat="40.77754947356879711151123046875" lon="-1.539429724216461181640625">
        <ele>1142.800048828125</ele>
        <time>2022-05-03T10:29:17.000Z</time>
      </trkpt>
      <trkpt lat="40.77750655822455883026123046875" lon="-1.5395150519907474517822265625">
        <ele>1142.800048828125</ele>
        <time>2022-05-03T10:29:19.000Z</time>
      </trkpt>
      <trkpt lat="40.77746582217514514923095703125" lon="-1.53960063122212886810302734375">
        <ele>1143</ele>
        <time>2022-05-03T10:29:21.000Z</time>
      </trkpt>
      <trkpt lat="40.7774283550679683685302734375" lon="-1.539687551558017730712890625">
        <ele>1143.5999755859375</ele>
        <time>2022-05-03T10:29:23.000Z</time>
      </trkpt>
      <trkpt lat="40.77739139087498188018798828125" lon="-1.53977639973163604736328125">
        <ele>1144.199951171875</ele>
        <time>2022-05-03T10:29:25.000Z</time>
      </trkpt>
      <trkpt lat="40.7773592881858348846435546875" lon="-1.53986759483814239501953125">
        <ele>1144.5999755859375</ele>
        <time>2022-05-03T10:29:27.000Z</time>
      </trkpt>
      <trkpt lat="40.77733062207698822021484375" lon="-1.53996105305850505828857421875">
        <ele>1144.5999755859375</ele>
        <time>2022-05-03T10:29:29.000Z</time>
      </trkpt>
      <trkpt lat="40.77730539254844188690185546875" lon="-1.54005467891693115234375">
        <ele>1144.5999755859375</ele>
        <time>2022-05-03T10:29:31.000Z</time>
      </trkpt>
      <trkpt lat="40.777279995381832122802734375" lon="-1.5401498973369598388671875">
        <ele>1144.4000244140625</ele>
        <time>2022-05-03T10:29:33.000Z</time>
      </trkpt>
      <trkpt lat="40.77726851217448711395263671875" lon="-1.540198512375354766845703125">
        <ele>1144.4000244140625</ele>
        <time>2022-05-03T10:29:34.000Z</time>
      </trkpt>
      <trkpt lat="40.77725761570036411285400390625" lon="-1.540247462689876556396484375">
        <ele>1144.5999755859375</ele>
        <time>2022-05-03T10:29:35.000Z</time>
      </trkpt>
      <trkpt lat="40.77723816968500614166259765625" lon="-1.54034544713795185089111328125">
        <ele>1144.5999755859375</ele>
        <time>2022-05-03T10:29:37.000Z</time>
      </trkpt>
      <trkpt lat="40.77722107060253620147705078125" lon="-1.54044351540505886077880859375">
        <ele>1144.800048828125</ele>
        <time>2022-05-03T10:29:39.000Z</time>
      </trkpt>
      <trkpt lat="40.77720799483358860015869140625" lon="-1.5405443497002124786376953125">
        <ele>1145.199951171875</ele>
        <time>2022-05-03T10:29:41.000Z</time>
      </trkpt>
      <trkpt lat="40.77719248831272125244140625" lon="-1.540647447109222412109375">
        <ele>1145.4000244140625</ele>
        <time>2022-05-03T10:29:43.000Z</time>
      </trkpt>
      <trkpt lat="40.77718100510537624359130859375" lon="-1.54075833968818187713623046875">
        <ele>1145.5999755859375</ele>
        <time>2022-05-03T10:29:45.000Z</time>
      </trkpt>
      <trkpt lat="40.77717513777315616607666015625" lon="-1.5408162586390972137451171875">
        <ele>1145.5999755859375</ele>
        <time>2022-05-03T10:29:46.000Z</time>
      </trkpt>
      <trkpt lat="40.777169354259967803955078125" lon="-1.54087451286613941192626953125">
        <ele>1145.5999755859375</ele>
        <time>2022-05-03T10:29:47.000Z</time>
      </trkpt>
      <trkpt lat="40.7771571166813373565673828125" lon="-1.54099655337631702423095703125">
        <ele>1145.5999755859375</ele>
        <time>2022-05-03T10:29:49.000Z</time>
      </trkpt>
      <trkpt lat="40.77714563347399234771728515625" lon="-1.54112177900969982147216796875">
        <ele>1145.5999755859375</ele>
        <time>2022-05-03T10:29:51.000Z</time>
      </trkpt>
      <trkpt lat="40.77713272534310817718505859375" lon="-1.541249938309192657470703125">
        <ele>1145.5999755859375</ele>
        <time>2022-05-03T10:29:53.000Z</time>
      </trkpt>
      <trkpt lat="40.77711847610771656036376953125" lon="-1.54137943871319293975830078125">
        <ele>1145.4000244140625</ele>
        <time>2022-05-03T10:29:55.000Z</time>
      </trkpt>
      <trkpt lat="40.777105987071990966796875" lon="-1.5415116213262081146240234375">
        <ele>1145.4000244140625</ele>
        <time>2022-05-03T10:29:57.000Z</time>
      </trkpt>
      <trkpt lat="40.777092911303043365478515625" lon="-1.541645564138889312744140625">
        <ele>1145</ele>
        <time>2022-05-03T10:29:59.000Z</time>
      </trkpt>
      <trkpt lat="40.7770783267915248870849609375" lon="-1.5417828597128391265869140625">
        <ele>1144.5999755859375</ele>
        <time>2022-05-03T10:30:01.000Z</time>
      </trkpt>
      <trkpt lat="40.7770642451941967010498046875" lon="-1.54191370122134685516357421875">
        <ele>1144</ele>
        <time>2022-05-03T10:30:03.000Z</time>
      </trkpt>
      <trkpt lat="40.77705041505396366119384765625" lon="-1.54204093851149082183837890625">
        <ele>1143.5999755859375</ele>
        <time>2022-05-03T10:30:05.000Z</time>
      </trkpt>
      <trkpt lat="40.7770330645143985748291015625" lon="-1.54217404313385486602783203125">
        <ele>1143</ele>
        <time>2022-05-03T10:30:07.000Z</time>
      </trkpt>
      <trkpt lat="40.77701621688902378082275390625" lon="-1.54231284745037555694580078125">
        <ele>1142.4000244140625</ele>
        <time>2022-05-03T10:30:09.000Z</time>
      </trkpt>
      <trkpt lat="40.77700012363493442535400390625" lon="-1.54245785437524318695068359375">
        <ele>1142.4000244140625</ele>
        <time>2022-05-03T10:30:11.000Z</time>
      </trkpt>
      <trkpt lat="40.77698587439954280853271484375" lon="-1.54260403476655483245849609375">
        <ele>1142.199951171875</ele>
        <time>2022-05-03T10:30:13.000Z</time>
      </trkpt>
      <trkpt lat="40.77697900123894214630126953125" lon="-1.5426743589341640472412109375">
        <ele>1142</ele>
        <time>2022-05-03T10:30:14.000Z</time>
      </trkpt>
      <trkpt lat="40.7769727148115634918212890625" lon="-1.54274367727339267730712890625">
        <ele>1142</ele>
        <time>2022-05-03T10:30:15.000Z</time>
      </trkpt>
      <trkpt lat="40.77695838175714015960693359375" lon="-1.542881391942501068115234375">
        <ele>1141.5999755859375</ele>
        <time>2022-05-03T10:30:17.000Z</time>
      </trkpt>
      <trkpt lat="40.77694547362625598907470703125" lon="-1.54301877133548259735107421875">
        <ele>1141.199951171875</ele>
        <time>2022-05-03T10:30:19.000Z</time>
      </trkpt>
      <trkpt lat="40.77693021856248378753662109375" lon="-1.54315522871911525726318359375">
        <ele>1141</ele>
        <time>2022-05-03T10:30:21.000Z</time>
      </trkpt>
      <trkpt lat="40.77691814862191677093505859375" lon="-1.54329202137887477874755859375">
        <ele>1141.4000244140625</ele>
        <time>2022-05-03T10:30:23.000Z</time>
      </trkpt>
      <trkpt lat="40.7769116945564746856689453125" lon="-1.543359495699405670166015625">
        <ele>1141.5999755859375</ele>
        <time>2022-05-03T10:30:24.000Z</time>
      </trkpt>
      <trkpt lat="40.77690473757684230804443359375" lon="-1.5434260480105876922607421875">
        <ele>1141.800048828125</ele>
        <time>2022-05-03T10:30:25.000Z</time>
      </trkpt>
      <trkpt lat="40.7768927514553070068359375" lon="-1.54355068691074848175048828125">
        <ele>1142.4000244140625</ele>
        <time>2022-05-03T10:30:27.000Z</time>
      </trkpt>
      <trkpt lat="40.77688579447567462921142578125" lon="-1.543668620288372039794921875">
        <ele>1143.199951171875</ele>
        <time>2022-05-03T10:30:29.000Z</time>
      </trkpt>
      <trkpt lat="40.7768811844289302825927734375" lon="-1.54378185980021953582763671875">
        <ele>1144</ele>
        <time>2022-05-03T10:30:31.000Z</time>
      </trkpt>
      <trkpt lat="40.77687003649771213531494140625" lon="-1.54389384202659130096435546875">
        <ele>1144.5999755859375</ele>
        <time>2022-05-03T10:30:33.000Z</time>
      </trkpt>
      <trkpt lat="40.776858218014240264892578125" lon="-1.54401294887065887451171875">
        <ele>1145.4000244140625</ele>
        <time>2022-05-03T10:30:35.000Z</time>
      </trkpt>
      <trkpt lat="40.77684103511273860931396484375" lon="-1.5441334806382656097412109375">
        <ele>1146</ele>
        <time>2022-05-03T10:30:37.000Z</time>
      </trkpt>
      <trkpt lat="40.7768161408603191375732421875" lon="-1.54424856416881084442138671875">
        <ele>1146.5999755859375</ele>
        <time>2022-05-03T10:30:39.000Z</time>
      </trkpt>
      <trkpt lat="40.7767846249043941497802734375" lon="-1.54436255805194377899169921875">
        <ele>1147</ele>
        <time>2022-05-03T10:30:41.000Z</time>
      </trkpt>
      <trkpt lat="40.776747576892375946044921875" lon="-1.54447370208799839019775390625">
        <ele>1147.199951171875</ele>
        <time>2022-05-03T10:30:43.000Z</time>
      </trkpt>
      <trkpt lat="40.776725448668003082275390625" lon="-1.54452634043991565704345703125">
        <ele>1147.4000244140625</ele>
        <time>2022-05-03T10:30:44.000Z</time>
      </trkpt>
      <trkpt lat="40.7767001353204250335693359375" lon="-1.5445768833160400390625">
        <ele>1147.5999755859375</ele>
        <time>2022-05-03T10:30:45.000Z</time>
      </trkpt>
      <trkpt lat="40.77667155303061008453369140625" lon="-1.54462558217346668243408203125">
        <ele>1147.5999755859375</ele>
        <time>2022-05-03T10:30:46.000Z</time>
      </trkpt>
      <trkpt lat="40.7766397856175899505615234375" lon="-1.544673107564449310302734375">
        <ele>1147.5999755859375</ele>
        <time>2022-05-03T10:30:47.000Z</time>
      </trkpt>
      <trkpt lat="40.77660650946199893951416015625" lon="-1.5447198785841464996337890625">
        <ele>1147.5999755859375</ele>
        <time>2022-05-03T10:30:48.000Z</time>
      </trkpt>
      <trkpt lat="40.776572562754154205322265625" lon="-1.5447664819657802581787109375">
        <ele>1147.5999755859375</ele>
        <time>2022-05-03T10:30:49.000Z</time>
      </trkpt>
      <trkpt lat="40.776498131453990936279296875" lon="-1.54485373757779598236083984375">
        <ele>1147.4000244140625</ele>
        <time>2022-05-03T10:30:51.000Z</time>
      </trkpt>
      <trkpt lat="40.77641590498387813568115234375" lon="-1.5449297614395618438720703125">
        <ele>1147.199951171875</ele>
        <time>2022-05-03T10:30:53.000Z</time>
      </trkpt>
      <trkpt lat="40.77632890082895755767822265625" lon="-1.5449968166649341583251953125">
        <ele>1147</ele>
        <time>2022-05-03T10:30:55.000Z</time>
      </trkpt>
      <trkpt lat="40.77628481201827526092529296875" lon="-1.54502606950700283050537109375">
        <ele>1147</ele>
        <time>2022-05-03T10:30:56.000Z</time>
      </trkpt>
      <trkpt lat="40.77623896300792694091796875" lon="-1.54504853300750255584716796875">
        <ele>1146.800048828125</ele>
        <time>2022-05-03T10:30:57.000Z</time>
      </trkpt>
      <trkpt lat="40.7761489413678646087646484375" lon="-1.545083485543727874755859375">
        <ele>1146.4000244140625</ele>
        <time>2022-05-03T10:30:59.000Z</time>
      </trkpt>
      <trkpt lat="40.77606084756553173065185546875" lon="-1.54510620050132274627685546875">
        <ele>1146.199951171875</ele>
        <time>2022-05-03T10:31:01.000Z</time>
      </trkpt>
      <trkpt lat="40.77602011151611804962158203125" lon="-1.54511399567127227783203125">
        <ele>1146.199951171875</ele>
        <time>2022-05-03T10:31:02.000Z</time>
      </trkpt>
      <trkpt lat="40.77597870491445064544677734375" lon="-1.54511810280382633209228515625">
        <ele>1146</ele>
        <time>2022-05-03T10:31:03.000Z</time>
      </trkpt>
      <trkpt lat="40.77589094638824462890625" lon="-1.5451181866228580474853515625">
        <ele>1145.800048828125</ele>
        <time>2022-05-03T10:31:05.000Z</time>
      </trkpt>
      <trkpt lat="40.7758022658526897430419921875" lon="-1.5451111458241939544677734375">
        <ele>1145.5999755859375</ele>
        <time>2022-05-03T10:31:07.000Z</time>
      </trkpt>
      <trkpt lat="40.77571350149810314178466796875" lon="-1.54510058462619781494140625">
        <ele>1145.199951171875</ele>
        <time>2022-05-03T10:31:09.000Z</time>
      </trkpt>
      <trkpt lat="40.77562398277223110198974609375" lon="-1.54508356936275959014892578125">
        <ele>1145</ele>
        <time>2022-05-03T10:31:11.000Z</time>
      </trkpt>
      <trkpt lat="40.77553211711347103118896484375" lon="-1.5450615249574184417724609375">
        <ele>1144.5999755859375</ele>
        <time>2022-05-03T10:31:13.000Z</time>
      </trkpt>
      <trkpt lat="40.77543723396956920623779296875" lon="-1.5450340323150157928466796875">
        <ele>1144.800048828125</ele>
        <time>2022-05-03T10:31:15.000Z</time>
      </trkpt>
      <trkpt lat="40.77534453012049198150634765625" lon="-1.54500494711101055145263671875">
        <ele>1145</ele>
        <time>2022-05-03T10:31:17.000Z</time>
      </trkpt>
      <trkpt lat="40.77525417320430278778076171875" lon="-1.544978208839893341064453125">
        <ele>1145.199951171875</ele>
        <time>2022-05-03T10:31:19.000Z</time>
      </trkpt>
      <trkpt lat="40.77516163699328899383544921875" lon="-1.544952057301998138427734375">
        <ele>1145.5999755859375</ele>
        <time>2022-05-03T10:31:21.000Z</time>
      </trkpt>
      <trkpt lat="40.77507195062935352325439453125" lon="-1.54493001289665699005126953125">
        <ele>1145.800048828125</ele>
        <time>2022-05-03T10:31:23.000Z</time>
      </trkpt>
      <trkpt lat="40.77498394064605236053466796875" lon="-1.544909141957759857177734375">
        <ele>1146.199951171875</ele>
        <time>2022-05-03T10:31:25.000Z</time>
      </trkpt>
      <trkpt lat="40.77489308081567287445068359375" lon="-1.54488659463822841644287109375">
        <ele>1146.4000244140625</ele>
        <time>2022-05-03T10:31:27.000Z</time>
      </trkpt>
      <trkpt lat="40.7748075015842914581298828125" lon="-1.54486698098480701446533203125">
        <ele>1146.800048828125</ele>
        <time>2022-05-03T10:31:29.000Z</time>
      </trkpt>
      <trkpt lat="40.77471949160099029541015625" lon="-1.54485558159649372100830078125">
        <ele>1147</ele>
        <time>2022-05-03T10:31:31.000Z</time>
      </trkpt>
      <trkpt lat="40.774632990360260009765625" lon="-1.5448462776839733123779296875">
        <ele>1147</ele>
        <time>2022-05-03T10:31:33.000Z</time>
      </trkpt>
      <trkpt lat="40.7745439745485782623291015625" lon="-1.54484569095075130462646484375">
        <ele>1146.800048828125</ele>
        <time>2022-05-03T10:31:35.000Z</time>
      </trkpt>
      <trkpt lat="40.7745017297565937042236328125" lon="-1.54484602622687816619873046875">
        <ele>1146.800048828125</ele>
        <time>2022-05-03T10:31:36.000Z</time>
      </trkpt>
      <trkpt lat="40.77445956878364086151123046875" lon="-1.544845439493656158447265625">
        <ele>1146.800048828125</ele>
        <time>2022-05-03T10:31:37.000Z</time>
      </trkpt>
      <trkpt lat="40.77437792904675006866455078125" lon="-1.5448536537587642669677734375">
        <ele>1146.800048828125</ele>
        <time>2022-05-03T10:31:39.000Z</time>
      </trkpt>
      <trkpt lat="40.774295367300510406494140625" lon="-1.544868908822536468505859375">
        <ele>1146.800048828125</ele>
        <time>2022-05-03T10:31:41.000Z</time>
      </trkpt>
      <trkpt lat="40.7742090336978435516357421875" lon="-1.54488575644791126251220703125">
        <ele>1146.800048828125</ele>
        <time>2022-05-03T10:31:43.000Z</time>
      </trkpt>
      <trkpt lat="40.774123705923557281494140625" lon="-1.54490419663488864898681640625">
        <ele>1146.800048828125</ele>
        <time>2022-05-03T10:31:45.000Z</time>
      </trkpt>
      <trkpt lat="40.77403728850185871124267578125" lon="-1.54493235982954502105712890625">
        <ele>1147</ele>
        <time>2022-05-03T10:31:47.000Z</time>
      </trkpt>
      <trkpt lat="40.77395296655595302581787109375" lon="-1.54496655799448490142822265625">
        <ele>1147.199951171875</ele>
        <time>2022-05-03T10:31:49.000Z</time>
      </trkpt>
      <trkpt lat="40.77387132681906223297119140625" lon="-1.54500260017812252044677734375">
        <ele>1147.4000244140625</ele>
        <time>2022-05-03T10:31:51.000Z</time>
      </trkpt>
      <trkpt lat="40.7737909443676471710205078125" lon="-1.54504786245524883270263671875">
        <ele>1147.199951171875</ele>
        <time>2022-05-03T10:31:53.000Z</time>
      </trkpt>
      <trkpt lat="40.773750878870487213134765625" lon="-1.54506999067962169647216796875">
        <ele>1147</ele>
        <time>2022-05-03T10:31:54.000Z</time>
      </trkpt>
      <trkpt lat="40.77371089719235897064208984375" lon="-1.5450953878462314605712890625">
        <ele>1147</ele>
        <time>2022-05-03T10:31:55.000Z</time>
      </trkpt>
      <trkpt lat="40.7736357115209102630615234375" lon="-1.54515045695006847381591796875">
        <ele>1146.800048828125</ele>
        <time>2022-05-03T10:31:57.000Z</time>
      </trkpt>
      <trkpt lat="40.7735679857432842254638671875" lon="-1.545210890471935272216796875">
        <ele>1146.800048828125</ele>
        <time>2022-05-03T10:31:59.000Z</time>
      </trkpt>
      <trkpt lat="40.77350218780338764190673828125" lon="-1.54527316801249980926513671875">
        <ele>1147</ele>
        <time>2022-05-03T10:32:01.000Z</time>
      </trkpt>
      <trkpt lat="40.77343630604445934295654296875" lon="-1.54534257017076015472412109375">
        <ele>1147</ele>
        <time>2022-05-03T10:32:03.000Z</time>
      </trkpt>
      <trkpt lat="40.77337310649454593658447265625" lon="-1.545416750013828277587890625">
        <ele>1147.199951171875</ele>
        <time>2022-05-03T10:32:05.000Z</time>
      </trkpt>
      <trkpt lat="40.77331309206783771514892578125" lon="-1.54549210332334041595458984375">
        <ele>1147.4000244140625</ele>
        <time>2022-05-03T10:32:07.000Z</time>
      </trkpt>
      <trkpt lat="40.773255340754985809326171875" lon="-1.5455741621553897857666015625">
        <ele>1147.5999755859375</ele>
        <time>2022-05-03T10:32:09.000Z</time>
      </trkpt>
      <trkpt lat="40.7731995172798633575439453125" lon="-1.54565890319645404815673828125">
        <ele>1148</ele>
        <time>2022-05-03T10:32:11.000Z</time>
      </trkpt>
      <trkpt lat="40.77314595691859722137451171875" lon="-1.54574297368526458740234375">
        <ele>1147.800048828125</ele>
        <time>2022-05-03T10:32:13.000Z</time>
      </trkpt>
      <trkpt lat="40.77309717424213886260986328125" lon="-1.54582880437374114990234375">
        <ele>1147.800048828125</ele>
        <time>2022-05-03T10:32:15.000Z</time>
      </trkpt>
      <trkpt lat="40.7730758003890514373779296875" lon="-1.54587046243250370025634765625">
        <ele>1147.5999755859375</ele>
        <time>2022-05-03T10:32:16.000Z</time>
      </trkpt>
      <trkpt lat="40.7730543427169322967529296875" lon="-1.54591069556772708892822265625">
        <ele>1147.5999755859375</ele>
        <time>2022-05-03T10:32:17.000Z</time>
      </trkpt>
      <trkpt lat="40.77301628887653350830078125" lon="-1.54599116183817386627197265625">
        <ele>1147.5999755859375</ele>
        <time>2022-05-03T10:32:19.000Z</time>
      </trkpt>
      <trkpt lat="40.77298276126384735107421875" lon="-1.546075902879238128662109375">
        <ele>1147.5999755859375</ele>
        <time>2022-05-03T10:32:21.000Z</time>
      </trkpt>
      <trkpt lat="40.7729530893266201019287109375" lon="-1.54616005718708038330078125">
        <ele>1147.800048828125</ele>
        <time>2022-05-03T10:32:23.000Z</time>
      </trkpt>
      <trkpt lat="40.77292777597904205322265625" lon="-1.54624597169458866119384765625">
        <ele>1147.800048828125</ele>
        <time>2022-05-03T10:32:25.000Z</time>
      </trkpt>
      <trkpt lat="40.772903300821781158447265625" lon="-1.54633414931595325469970703125">
        <ele>1148</ele>
        <time>2022-05-03T10:32:27.000Z</time>
      </trkpt>
      <trkpt lat="40.7728810049593448638916015625" lon="-1.54641880653798580169677734375">
        <ele>1148</ele>
        <time>2022-05-03T10:32:29.000Z</time>
      </trkpt>
      <trkpt lat="40.77285812236368656158447265625" lon="-1.54650581069290637969970703125">
        <ele>1148</ele>
        <time>2022-05-03T10:32:31.000Z</time>
      </trkpt>
      <trkpt lat="40.772846639156341552734375" lon="-1.546548642218112945556640625">
        <ele>1148</ele>
        <time>2022-05-03T10:32:32.000Z</time>
      </trkpt>
      <trkpt lat="40.77283482067286968231201171875" lon="-1.54659264720976352691650390625">
        <ele>1148</ele>
        <time>2022-05-03T10:32:33.000Z</time>
      </trkpt>
      <trkpt lat="40.77281084842979907989501953125" lon="-1.54667906463146209716796875">
        <ele>1147.800048828125</ele>
        <time>2022-05-03T10:32:35.000Z</time>
      </trkpt>
      <trkpt lat="40.7727874629199504852294921875" lon="-1.5467653982341289520263671875">
        <ele>1147.800048828125</ele>
        <time>2022-05-03T10:32:37.000Z</time>
      </trkpt>
      <trkpt lat="40.77276374213397502899169921875" lon="-1.546850390732288360595703125">
        <ele>1148</ele>
        <time>2022-05-03T10:32:39.000Z</time>
      </trkpt>
      <trkpt lat="40.77274194918572902679443359375" lon="-1.546936891973018646240234375">
        <ele>1148.4000244140625</ele>
        <time>2022-05-03T10:32:41.000Z</time>
      </trkpt>
      <trkpt lat="40.772719569504261016845703125" lon="-1.54702431522309780120849609375">
        <ele>1148.800048828125</ele>
        <time>2022-05-03T10:32:43.000Z</time>
      </trkpt>
      <trkpt lat="40.7726989500224590301513671875" lon="-1.547108553349971771240234375">
        <ele>1149.199951171875</ele>
        <time>2022-05-03T10:32:45.000Z</time>
      </trkpt>
      <trkpt lat="40.77267791144549846649169921875" lon="-1.5471888519823551177978515625">
        <ele>1149.4000244140625</ele>
        <time>2022-05-03T10:32:47.000Z</time>
      </trkpt>
      <trkpt lat="40.77265611849725246429443359375" lon="-1.54727049171924591064453125">
        <ele>1149.800048828125</ele>
        <time>2022-05-03T10:32:49.000Z</time>
      </trkpt>
      <trkpt lat="40.77263541519641876220703125" lon="-1.5473538078367710113525390625">
        <ele>1150.199951171875</ele>
        <time>2022-05-03T10:32:51.000Z</time>
      </trkpt>
      <trkpt lat="40.77262577600777149200439453125" lon="-1.5473953820765018463134765625">
        <ele>1150.199951171875</ele>
        <time>2022-05-03T10:32:52.000Z</time>
      </trkpt>
      <trkpt lat="40.7726146280765533447265625" lon="-1.54743636958301067352294921875">
        <ele>1150.4000244140625</ele>
        <time>2022-05-03T10:32:53.000Z</time>
      </trkpt>
      <trkpt lat="40.77259375713765621185302734375" lon="-1.54751365073025226593017578125">
        <ele>1150.5999755859375</ele>
        <time>2022-05-03T10:32:55.000Z</time>
      </trkpt>
      <trkpt lat="40.77256894670426845550537109375" lon="-1.5475874952971935272216796875">
        <ele>1150.800048828125</ele>
        <time>2022-05-03T10:32:57.000Z</time>
      </trkpt>
      <trkpt lat="40.772557295858860015869140625" lon="-1.547626219689846038818359375">
        <ele>1150.800048828125</ele>
        <time>2022-05-03T10:32:58.000Z</time>
      </trkpt>
      <trkpt lat="40.77254715375602245330810546875" lon="-1.5476667881011962890625">
        <ele>1151</ele>
        <time>2022-05-03T10:32:59.000Z</time>
      </trkpt>
      <trkpt lat="40.7725376822054386138916015625" lon="-1.547710038721561431884765625">
        <ele>1151.199951171875</ele>
        <time>2022-05-03T10:33:00.000Z</time>
      </trkpt>
      <trkpt lat="40.772528462111949920654296875" lon="-1.547753624618053436279296875">
        <ele>1151.199951171875</ele>
        <time>2022-05-03T10:33:01.000Z</time>
      </trkpt>
      <trkpt lat="40.7725088484585285186767578125" lon="-1.54784088023006916046142578125">
        <ele>1151.5999755859375</ele>
        <time>2022-05-03T10:33:03.000Z</time>
      </trkpt>
      <trkpt lat="40.7724863849580287933349609375" lon="-1.547929309308528900146484375">
        <ele>1151.800048828125</ele>
        <time>2022-05-03T10:33:05.000Z</time>
      </trkpt>
      <trkpt lat="40.77246719039976596832275390625" lon="-1.5480166487395763397216796875">
        <ele>1152.4000244140625</ele>
        <time>2022-05-03T10:33:07.000Z</time>
      </trkpt>
      <trkpt lat="40.77244807966053485870361328125" lon="-1.548105664551258087158203125">
        <ele>1152.800048828125</ele>
        <time>2022-05-03T10:33:09.000Z</time>
      </trkpt>
      <trkpt lat="40.77242947183549404144287109375" lon="-1.54819627292454242706298828125">
        <ele>1153.199951171875</ele>
        <time>2022-05-03T10:33:11.000Z</time>
      </trkpt>
      <trkpt lat="40.7724153064191341400146484375" lon="-1.54828847385942935943603515625">
        <ele>1153.4000244140625</ele>
        <time>2022-05-03T10:33:13.000Z</time>
      </trkpt>
      <trkpt lat="40.77240080572664737701416015625" lon="-1.54837899841368198394775390625">
        <ele>1153.4000244140625</ele>
        <time>2022-05-03T10:33:15.000Z</time>
      </trkpt>
      <trkpt lat="40.772384963929653167724609375" lon="-1.54847002588212490081787109375">
        <ele>1153.5999755859375</ele>
        <time>2022-05-03T10:33:17.000Z</time>
      </trkpt>
      <trkpt lat="40.77237113378942012786865234375" lon="-1.548566333949565887451171875">
        <ele>1153.5999755859375</ele>
        <time>2022-05-03T10:33:19.000Z</time>
      </trkpt>
      <trkpt lat="40.77235923148691654205322265625" lon="-1.54866800643503665924072265625">
        <ele>1153.800048828125</ele>
        <time>2022-05-03T10:33:21.000Z</time>
      </trkpt>
      <trkpt lat="40.7723479159176349639892578125" lon="-1.54877512715756893157958984375">
        <ele>1154.199951171875</ele>
        <time>2022-05-03T10:33:23.000Z</time>
      </trkpt>
      <trkpt lat="40.772342719137668609619140625" lon="-1.54887872748076915740966796875">
        <ele>1154.4000244140625</ele>
        <time>2022-05-03T10:33:25.000Z</time>
      </trkpt>
      <trkpt lat="40.7723395340144634246826171875" lon="-1.548984088003635406494140625">
        <ele>1154.199951171875</ele>
        <time>2022-05-03T10:33:27.000Z</time>
      </trkpt>
      <trkpt lat="40.7723334990441799163818359375" lon="-1.54908827506005764007568359375">
        <ele>1154</ele>
        <time>2022-05-03T10:33:29.000Z</time>
      </trkpt>
      <trkpt lat="40.772333331406116485595703125" lon="-1.549141667783260345458984375">
        <ele>1153.800048828125</ele>
        <time>2022-05-03T10:33:30.000Z</time>
      </trkpt>
      <trkpt lat="40.77233425341546535491943359375" lon="-1.549195311963558197021484375">
        <ele>1153.800048828125</ele>
        <time>2022-05-03T10:33:31.000Z</time>
      </trkpt>
      <trkpt lat="40.7723361812531948089599609375" lon="-1.54930469579994678497314453125">
        <ele>1153.4000244140625</ele>
        <time>2022-05-03T10:33:33.000Z</time>
      </trkpt>
      <trkpt lat="40.772336013615131378173828125" lon="-1.54941952787339687347412109375">
        <ele>1153.199951171875</ele>
        <time>2022-05-03T10:33:35.000Z</time>
      </trkpt>
      <trkpt lat="40.772339366376399993896484375" lon="-1.54953519813716411590576171875">
        <ele>1153</ele>
        <time>2022-05-03T10:33:37.000Z</time>
      </trkpt>
      <trkpt lat="40.77234213240444660186767578125" lon="-1.54964198358356952667236328125">
        <ele>1152.800048828125</ele>
        <time>2022-05-03T10:33:39.000Z</time>
      </trkpt>
      <trkpt lat="40.7723475806415081024169921875" lon="-1.54975044541060924530029296875">
        <ele>1152.4000244140625</ele>
        <time>2022-05-03T10:33:41.000Z</time>
      </trkpt>
      <trkpt lat="40.77235453762114048004150390625" lon="-1.54986091889441013336181640625">
        <ele>1151.800048828125</ele>
        <time>2022-05-03T10:33:43.000Z</time>
      </trkpt>
      <trkpt lat="40.77236258424818515777587890625" lon="-1.549975164234638214111328125">
        <ele>1151.5999755859375</ele>
        <time>2022-05-03T10:33:45.000Z</time>
      </trkpt>
      <trkpt lat="40.77237063087522983551025390625" lon="-1.5500910021364688873291015625">
        <ele>1151.4000244140625</ele>
        <time>2022-05-03T10:33:47.000Z</time>
      </trkpt>
      <trkpt lat="40.77237683348357677459716796875" lon="-1.55020256526768207550048828125">
        <ele>1151.199951171875</ele>
        <time>2022-05-03T10:33:49.000Z</time>
      </trkpt>
      <trkpt lat="40.77238261699676513671875" lon="-1.55030968599021434783935546875">
        <ele>1150.800048828125</ele>
        <time>2022-05-03T10:33:51.000Z</time>
      </trkpt>
      <trkpt lat="40.7723904959857463836669921875" lon="-1.55041806399822235107421875">
        <ele>1150.5999755859375</ele>
        <time>2022-05-03T10:33:53.000Z</time>
      </trkpt>
      <trkpt lat="40.77239762060344219207763671875" lon="-1.550529710948467254638671875">
        <ele>1150.5999755859375</ele>
        <time>2022-05-03T10:33:55.000Z</time>
      </trkpt>
      <trkpt lat="40.77240608632564544677734375" lon="-1.55064647085964679718017578125">
        <ele>1150.4000244140625</ele>
        <time>2022-05-03T10:33:57.000Z</time>
      </trkpt>
      <trkpt lat="40.77241019345819950103759765625" lon="-1.55070598237216472625732421875">
        <ele>1150.5999755859375</ele>
        <time>2022-05-03T10:33:58.000Z</time>
      </trkpt>
      <trkpt lat="40.77241505496203899383544921875" lon="-1.5507639013230800628662109375">
        <ele>1150.5999755859375</ele>
        <time>2022-05-03T10:33:59.000Z</time>
      </trkpt>
      <trkpt lat="40.7724243588745594024658203125" lon="-1.55087932012975215911865234375">
        <ele>1151</ele>
        <time>2022-05-03T10:34:01.000Z</time>
      </trkpt>
      <trkpt lat="40.77243416570127010345458984375" lon="-1.5509928949177265167236328125">
        <ele>1151.4000244140625</ele>
        <time>2022-05-03T10:34:03.000Z</time>
      </trkpt>
      <trkpt lat="40.772441960871219635009765625" lon="-1.551105715334415435791015625">
        <ele>1151.5999755859375</ele>
        <time>2022-05-03T10:34:05.000Z</time>
      </trkpt>
      <trkpt lat="40.7724478282034397125244140625" lon="-1.551220379769802093505859375">
        <ele>1152</ele>
        <time>2022-05-03T10:34:07.000Z</time>
      </trkpt>
      <trkpt lat="40.77245545573532581329345703125" lon="-1.55133361928164958953857421875">
        <ele>1152.199951171875</ele>
        <time>2022-05-03T10:34:09.000Z</time>
      </trkpt>
      <trkpt lat="40.77246232889592647552490234375" lon="-1.55144493095576763153076171875">
        <ele>1152.199951171875</ele>
        <time>2022-05-03T10:34:11.000Z</time>
      </trkpt>
      <trkpt lat="40.7724706269800662994384765625" lon="-1.55155188404023647308349609375">
        <ele>1152.4000244140625</ele>
        <time>2022-05-03T10:34:13.000Z</time>
      </trkpt>
      <trkpt lat="40.77247758395969867706298828125" lon="-1.5516600944101810455322265625">
        <ele>1152.800048828125</ele>
        <time>2022-05-03T10:34:15.000Z</time>
      </trkpt>
      <trkpt lat="40.77248579822480678558349609375" lon="-1.55176847241818904876708984375">
        <ele>1153.199951171875</ele>
        <time>2022-05-03T10:34:17.000Z</time>
      </trkpt>
      <trkpt lat="40.77249367721378803253173828125" lon="-1.551877520978450775146484375">
        <ele>1153.5999755859375</ele>
        <time>2022-05-03T10:34:19.000Z</time>
      </trkpt>
      <trkpt lat="40.77250239439308643341064453125" lon="-1.551990509033203125">
        <ele>1154.199951171875</ele>
        <time>2022-05-03T10:34:21.000Z</time>
      </trkpt>
      <trkpt lat="40.7725162245333194732666015625" lon="-1.55210651457309722900390625">
        <ele>1154.199951171875</ele>
        <time>2022-05-03T10:34:23.000Z</time>
      </trkpt>
      <trkpt lat="40.7725316472351551055908203125" lon="-1.552224867045879364013671875">
        <ele>1154.199951171875</ele>
        <time>2022-05-03T10:34:25.000Z</time>
      </trkpt>
      <trkpt lat="40.7725520990788936614990234375" lon="-1.55233986675739288330078125">
        <ele>1154</ele>
        <time>2022-05-03T10:34:27.000Z</time>
      </trkpt>
      <trkpt lat="40.77257447876036167144775390625" lon="-1.55245243571698665618896484375">
        <ele>1154.5999755859375</ele>
        <time>2022-05-03T10:34:29.000Z</time>
      </trkpt>
      <trkpt lat="40.77258621342480182647705078125" lon="-1.55250658281147480010986328125">
        <ele>1154.800048828125</ele>
        <time>2022-05-03T10:34:30.000Z</time>
      </trkpt>
      <trkpt lat="40.77259794808924198150634765625" lon="-1.552560143172740936279296875">
        <ele>1155</ele>
        <time>2022-05-03T10:34:31.000Z</time>
      </trkpt>
      <trkpt lat="40.772621668875217437744140625" lon="-1.55266433022916316986083984375">
        <ele>1155.5999755859375</ele>
        <time>2022-05-03T10:34:33.000Z</time>
      </trkpt>
      <trkpt lat="40.77264756895601749420166015625" lon="-1.552768014371395111083984375">
        <ele>1156</ele>
        <time>2022-05-03T10:34:35.000Z</time>
      </trkpt>
      <trkpt lat="40.7726768217980861663818359375" lon="-1.5528637357056140899658203125">
        <ele>1156</ele>
        <time>2022-05-03T10:34:37.000Z</time>
      </trkpt>
      <trkpt lat="40.77269031666219234466552734375" lon="-1.55291176401078701019287109375">
        <ele>1156</ele>
        <time>2022-05-03T10:34:38.000Z</time>
      </trkpt>
      <trkpt lat="40.7727049849927425384521484375" lon="-1.55295970849692821502685546875">
        <ele>1156</ele>
        <time>2022-05-03T10:34:39.000Z</time>
      </trkpt>
      <trkpt lat="40.77273390255868434906005859375" lon="-1.5530541725456714630126953125">
        <ele>1156</ele>
        <time>2022-05-03T10:34:41.000Z</time>
      </trkpt>
      <trkpt lat="40.77276458032429218292236328125" lon="-1.5531500615179538726806640625">
        <ele>1156</ele>
        <time>2022-05-03T10:34:43.000Z</time>
      </trkpt>
      <trkpt lat="40.77279232442378997802734375" lon="-1.55324888415634632110595703125">
        <ele>1156</ele>
        <time>2022-05-03T10:34:45.000Z</time>
      </trkpt>
      <trkpt lat="40.77281914651393890380859375" lon="-1.55334980227053165435791015625">
        <ele>1156</ele>
        <time>2022-05-03T10:34:47.000Z</time>
      </trkpt>
      <trkpt lat="40.77283331193029880523681640625" lon="-1.5533988364040851593017578125">
        <ele>1156</ele>
        <time>2022-05-03T10:34:48.000Z</time>
      </trkpt>
      <trkpt lat="40.77284722588956356048583984375" lon="-1.55344820581376552581787109375">
        <ele>1156.199951171875</ele>
        <time>2022-05-03T10:34:49.000Z</time>
      </trkpt>
      <trkpt lat="40.77287404797971248626708984375" lon="-1.5535436756908893585205078125">
        <ele>1156.5999755859375</ele>
        <time>2022-05-03T10:34:51.000Z</time>
      </trkpt>
      <trkpt lat="40.77288695611059665679931640625" lon="-1.55359245836734771728515625">
        <ele>1156.5999755859375</ele>
        <time>2022-05-03T10:34:52.000Z</time>
      </trkpt>
      <trkpt lat="40.772899948060512542724609375" lon="-1.5536419115960597991943359375">
        <ele>1156.800048828125</ele>
        <time>2022-05-03T10:34:53.000Z</time>
      </trkpt>
      <trkpt lat="40.772928781807422637939453125" lon="-1.5537398122251033782958984375">
        <ele>1157.199951171875</ele>
        <time>2022-05-03T10:34:55.000Z</time>
      </trkpt>
      <trkpt lat="40.77295652590692043304443359375" lon="-1.55383653938770294189453125">
        <ele>1157.4000244140625</ele>
        <time>2022-05-03T10:34:57.000Z</time>
      </trkpt>
      <trkpt lat="40.77297060750424861907958984375" lon="-1.5538836456835269927978515625">
        <ele>1157.5999755859375</ele>
        <time>2022-05-03T10:34:58.000Z</time>
      </trkpt>
      <trkpt lat="40.7729842700064182281494140625" lon="-1.55393100343644618988037109375">
        <ele>1157.800048828125</ele>
        <time>2022-05-03T10:34:59.000Z</time>
      </trkpt>
      <trkpt lat="40.7730124332010746002197265625" lon="-1.554022617638111114501953125">
        <ele>1158</ele>
        <time>2022-05-03T10:35:01.000Z</time>
      </trkpt>
      <trkpt lat="40.7730392552912235260009765625" lon="-1.55411356128752231597900390625">
        <ele>1158.199951171875</ele>
        <time>2022-05-03T10:35:03.000Z</time>
      </trkpt>
      <trkpt lat="40.77306456863880157470703125" lon="-1.554204337298870086669921875">
        <ele>1158.4000244140625</ele>
        <time>2022-05-03T10:35:05.000Z</time>
      </trkpt>
      <trkpt lat="40.7730888761579990386962890625" lon="-1.554294191300868988037109375">
        <ele>1158.5999755859375</ele>
        <time>2022-05-03T10:35:07.000Z</time>
      </trkpt>
      <trkpt lat="40.773111842572689056396484375" lon="-1.55438597314059734344482421875">
        <ele>1158.800048828125</ele>
        <time>2022-05-03T10:35:09.000Z</time>
      </trkpt>
      <trkpt lat="40.77313925139605998992919921875" lon="-1.5544754080474376678466796875">
        <ele>1159</ele>
        <time>2022-05-03T10:35:11.000Z</time>
      </trkpt>
      <trkpt lat="40.7731663249433040618896484375" lon="-1.554563753306865692138671875">
        <ele>1159.199951171875</ele>
        <time>2022-05-03T10:35:13.000Z</time>
      </trkpt>
      <trkpt lat="40.77318929135799407958984375" lon="-1.554653607308864593505859375">
        <ele>1159.4000244140625</ele>
        <time>2022-05-03T10:35:15.000Z</time>
      </trkpt>
      <trkpt lat="40.773213095963001251220703125" lon="-1.5547416172921657562255859375">
        <ele>1159.4000244140625</ele>
        <time>2022-05-03T10:35:17.000Z</time>
      </trkpt>
      <trkpt lat="40.7732270099222660064697265625" lon="-1.55478470027446746826171875">
        <ele>1159.4000244140625</ele>
        <time>2022-05-03T10:35:18.000Z</time>
      </trkpt>
      <trkpt lat="40.7732407562434673309326171875" lon="-1.554827280342578887939453125">
        <ele>1159.5999755859375</ele>
        <time>2022-05-03T10:35:19.000Z</time>
      </trkpt>
      <trkpt lat="40.77326598577201366424560546875" lon="-1.55491470359265804290771484375">
        <ele>1159.800048828125</ele>
        <time>2022-05-03T10:35:21.000Z</time>
      </trkpt>
      <trkpt lat="40.77329180203378200531005859375" lon="-1.55500254593789577484130859375">
        <ele>1160</ele>
        <time>2022-05-03T10:35:23.000Z</time>
      </trkpt>
      <trkpt lat="40.77331711538136005401611328125" lon="-1.5550899691879749298095703125">
        <ele>1160.199951171875</ele>
        <time>2022-05-03T10:35:25.000Z</time>
      </trkpt>
      <trkpt lat="40.773341841995716094970703125" lon="-1.5551764704287052154541015625">
        <ele>1160.4000244140625</ele>
        <time>2022-05-03T10:35:27.000Z</time>
      </trkpt>
      <trkpt lat="40.77336489222943782806396484375" lon="-1.5552623011171817779541015625">
        <ele>1160.800048828125</ele>
        <time>2022-05-03T10:35:29.000Z</time>
      </trkpt>
      <trkpt lat="40.77339037321507930755615234375" lon="-1.55534796416759490966796875">
        <ele>1161</ele>
        <time>2022-05-03T10:35:31.000Z</time>
      </trkpt>
      <trkpt lat="40.77340252697467803955078125" lon="-1.55539163388311862945556640625">
        <ele>1161.199951171875</ele>
        <time>2022-05-03T10:35:32.000Z</time>
      </trkpt>
      <trkpt lat="40.77341434545814990997314453125" lon="-1.55543488450348377227783203125">
        <ele>1161.4000244140625</ele>
        <time>2022-05-03T10:35:33.000Z</time>
      </trkpt>
      <trkpt lat="40.77343747951090335845947265625" lon="-1.5555218048393726348876953125">
        <ele>1161.800048828125</ele>
        <time>2022-05-03T10:35:35.000Z</time>
      </trkpt>
      <trkpt lat="40.77346161939203739166259765625" lon="-1.555608473718166351318359375">
        <ele>1162.199951171875</ele>
        <time>2022-05-03T10:35:37.000Z</time>
      </trkpt>
      <trkpt lat="40.77348710037767887115478515625" lon="-1.55569723807275295257568359375">
        <ele>1162.5999755859375</ele>
        <time>2022-05-03T10:35:39.000Z</time>
      </trkpt>
      <trkpt lat="40.7735113240778446197509765625" lon="-1.55578692443668842315673828125">
        <ele>1162.800048828125</ele>
        <time>2022-05-03T10:35:41.000Z</time>
      </trkpt>
      <trkpt lat="40.77353822998702526092529296875" lon="-1.555876024067401885986328125">
        <ele>1162.800048828125</ele>
        <time>2022-05-03T10:35:43.000Z</time>
      </trkpt>
      <trkpt lat="40.7735616154968738555908203125" lon="-1.55596495606005191802978515625">
        <ele>1163</ele>
        <time>2022-05-03T10:35:45.000Z</time>
      </trkpt>
      <trkpt lat="40.773587264120578765869140625" lon="-1.55605346895754337310791015625">
        <ele>1163.199951171875</ele>
        <time>2022-05-03T10:35:47.000Z</time>
      </trkpt>
      <trkpt lat="40.77361165545880794525146484375" lon="-1.55614315532147884368896484375">
        <ele>1163.199951171875</ele>
        <time>2022-05-03T10:35:49.000Z</time>
      </trkpt>
      <trkpt lat="40.77362355776131153106689453125" lon="-1.55618615448474884033203125">
        <ele>1163.199951171875</ele>
        <time>2022-05-03T10:35:50.000Z</time>
      </trkpt>
      <trkpt lat="40.7736357115209102630615234375" lon="-1.55622898600995540618896484375">
        <ele>1163.199951171875</ele>
        <time>2022-05-03T10:35:51.000Z</time>
      </trkpt>
      <trkpt lat="40.77364853583276271820068359375" lon="-1.5562701411545276641845703125">
        <ele>1163.199951171875</ele>
        <time>2022-05-03T10:35:52.000Z</time>
      </trkpt>
      <trkpt lat="40.7736606895923614501953125" lon="-1.55631163157522678375244140625">
        <ele>1163.199951171875</ele>
        <time>2022-05-03T10:35:53.000Z</time>
      </trkpt>
      <trkpt lat="40.77368281781673431396484375" lon="-1.55639444477856159210205078125">
        <ele>1163.4000244140625</ele>
        <time>2022-05-03T10:35:55.000Z</time>
      </trkpt>
      <trkpt lat="40.7737064547836780548095703125" lon="-1.55647985637187957763671875">
        <ele>1163.4000244140625</ele>
        <time>2022-05-03T10:35:57.000Z</time>
      </trkpt>
      <trkpt lat="40.77372975647449493408203125" lon="-1.55656711198389530181884765625">
        <ele>1163.4000244140625</ele>
        <time>2022-05-03T10:35:59.000Z</time>
      </trkpt>
      <trkpt lat="40.77374073676764965057373046875" lon="-1.556610278785228729248046875">
        <ele>1163.4000244140625</ele>
        <time>2022-05-03T10:36:00.000Z</time>
      </trkpt>
      <trkpt lat="40.77375247143208980560302734375" lon="-1.55665093101561069488525390625">
        <ele>1163.4000244140625</ele>
        <time>2022-05-03T10:36:01.000Z</time>
      </trkpt>
      <trkpt lat="40.77377560548484325408935546875" lon="-1.55673441477119922637939453125">
        <ele>1163.5999755859375</ele>
        <time>2022-05-03T10:36:03.000Z</time>
      </trkpt>
      <trkpt lat="40.77379773370921611785888671875" lon="-1.5568176470696926116943359375">
        <ele>1163.800048828125</ele>
        <time>2022-05-03T10:36:05.000Z</time>
      </trkpt>
      <trkpt lat="40.7738227955996990203857421875" lon="-1.556903310120105743408203125">
        <ele>1164</ele>
        <time>2022-05-03T10:36:07.000Z</time>
      </trkpt>
      <trkpt lat="40.77384534291923046112060546875" lon="-1.556989811360836029052734375">
        <ele>1164.199951171875</ele>
        <time>2022-05-03T10:36:09.000Z</time>
      </trkpt>
      <trkpt lat="40.7738566584885120391845703125" lon="-1.55703348107635974884033203125">
        <ele>1164.199951171875</ele>
        <time>2022-05-03T10:36:10.000Z</time>
      </trkpt>
      <trkpt lat="40.7738690637052059173583984375" lon="-1.55707740224897861480712890625">
        <ele>1164.4000244140625</ele>
        <time>2022-05-03T10:36:11.000Z</time>
      </trkpt>
      <trkpt lat="40.77389395795762538909912109375" lon="-1.55716717243194580078125">
        <ele>1164.5999755859375</ele>
        <time>2022-05-03T10:36:13.000Z</time>
      </trkpt>
      <trkpt lat="40.77391742728650569915771484375" lon="-1.5572578646242618560791015625">
        <ele>1164.800048828125</ele>
        <time>2022-05-03T10:36:15.000Z</time>
      </trkpt>
      <trkpt lat="40.77394441701471805572509765625" lon="-1.55734620988368988037109375">
        <ele>1165</ele>
        <time>2022-05-03T10:36:17.000Z</time>
      </trkpt>
      <trkpt lat="40.7739565707743167877197265625" lon="-1.5573911368846893310546875">
        <ele>1165.199951171875</ele>
        <time>2022-05-03T10:36:18.000Z</time>
      </trkpt>
      <trkpt lat="40.77396822161972522735595703125" lon="-1.557435728609561920166015625">
        <ele>1165.4000244140625</ele>
        <time>2022-05-03T10:36:19.000Z</time>
      </trkpt>
      <trkpt lat="40.77399353496730327606201171875" lon="-1.5575247444212436676025390625">
        <ele>1165.800048828125</ele>
        <time>2022-05-03T10:36:21.000Z</time>
      </trkpt>
      <trkpt lat="40.7740206085145473480224609375" lon="-1.55761518515646457672119140625">
        <ele>1166.4000244140625</ele>
        <time>2022-05-03T10:36:23.000Z</time>
      </trkpt>
      <trkpt lat="40.77404550276696681976318359375" lon="-1.55770361423492431640625">
        <ele>1166.800048828125</ele>
        <time>2022-05-03T10:36:25.000Z</time>
      </trkpt>
      <trkpt lat="40.774058997631072998046875" lon="-1.5577490441501140594482421875">
        <ele>1167</ele>
        <time>2022-05-03T10:36:26.000Z</time>
      </trkpt>
      <trkpt lat="40.7740724086761474609375" lon="-1.5577959828078746795654296875">
        <ele>1167.199951171875</ele>
        <time>2022-05-03T10:36:27.000Z</time>
      </trkpt>
      <trkpt lat="40.77409830875694751739501953125" lon="-1.5578868426382541656494140625">
        <ele>1167.5999755859375</ele>
        <time>2022-05-03T10:36:29.000Z</time>
      </trkpt>
      <trkpt lat="40.77412278391420841217041015625" lon="-1.55797694809734821319580078125">
        <ele>1168</ele>
        <time>2022-05-03T10:36:31.000Z</time>
      </trkpt>
      <trkpt lat="40.7741483487188816070556640625" lon="-1.5580652095377445220947265625">
        <ele>1168.199951171875</ele>
        <time>2022-05-03T10:36:33.000Z</time>
      </trkpt>
      <trkpt lat="40.77417257241904735565185546875" lon="-1.55815414153039455413818359375">
        <ele>1168.5999755859375</ele>
        <time>2022-05-03T10:36:35.000Z</time>
      </trkpt>
      <trkpt lat="40.77419637702405452728271484375" lon="-1.55824181623756885528564453125">
        <ele>1168.800048828125</ele>
        <time>2022-05-03T10:36:37.000Z</time>
      </trkpt>
      <trkpt lat="40.77422068454325199127197265625" lon="-1.55832731164991855621337890625">
        <ele>1169.199951171875</ele>
        <time>2022-05-03T10:36:39.000Z</time>
      </trkpt>
      <trkpt lat="40.7742425613105297088623046875" lon="-1.55841414816677570343017578125">
        <ele>1169.4000244140625</ele>
        <time>2022-05-03T10:36:41.000Z</time>
      </trkpt>
      <trkpt lat="40.77426309697329998016357421875" lon="-1.55849981121718883514404296875">
        <ele>1169.800048828125</ele>
        <time>2022-05-03T10:36:43.000Z</time>
      </trkpt>
      <trkpt lat="40.77427290380001068115234375" lon="-1.55854406766593456268310546875">
        <ele>1169.800048828125</ele>
        <time>2022-05-03T10:36:44.000Z</time>
      </trkpt>
      <trkpt lat="40.77428388409316539764404296875" lon="-1.55858949758112430572509765625">
        <ele>1170</ele>
        <time>2022-05-03T10:36:45.000Z</time>
      </trkpt>
      <trkpt lat="40.7742963731288909912109375" lon="-1.5586351789534091949462890625">
        <ele>1170.199951171875</ele>
        <time>2022-05-03T10:36:46.000Z</time>
      </trkpt>
      <trkpt lat="40.77431045472621917724609375" lon="-1.5586787648499011993408203125">
        <ele>1170.199951171875</ele>
        <time>2022-05-03T10:36:47.000Z</time>
      </trkpt>
      <trkpt lat="40.77433669008314609527587890625" lon="-1.55876300297677516937255859375">
        <ele>1170.5999755859375</ele>
        <time>2022-05-03T10:36:49.000Z</time>
      </trkpt>
      <trkpt lat="40.77435672283172607421875" lon="-1.55884766019880771636962890625">
        <ele>1170.800048828125</ele>
        <time>2022-05-03T10:36:51.000Z</time>
      </trkpt>
      <trkpt lat="40.7743766717612743377685546875" lon="-1.55893181450664997100830078125">
        <ele>1171.199951171875</ele>
        <time>2022-05-03T10:36:53.000Z</time>
      </trkpt>
      <trkpt lat="40.774386562407016754150390625" lon="-1.5589748136699199676513671875">
        <ele>1171.199951171875</ele>
        <time>2022-05-03T10:36:54.000Z</time>
      </trkpt>
      <trkpt lat="40.77439854852855205535888671875" lon="-1.5590163879096508026123046875">
        <ele>1171.4000244140625</ele>
        <time>2022-05-03T10:36:55.000Z</time>
      </trkpt>
      <trkpt lat="40.77442386187613010406494140625" lon="-1.55909894965589046478271484375">
        <ele>1171.5999755859375</ele>
        <time>2022-05-03T10:36:57.000Z</time>
      </trkpt>
      <trkpt lat="40.77444464899599552154541015625" lon="-1.5591850318014621734619140625">
        <ele>1172</ele>
        <time>2022-05-03T10:36:59.000Z</time>
      </trkpt>
      <trkpt lat="40.77445521019399166107177734375" lon="-1.55922903679311275482177734375">
        <ele>1172</ele>
        <time>2022-05-03T10:37:00.000Z</time>
      </trkpt>
      <trkpt lat="40.77446593903005123138427734375" lon="-1.55927061103284358978271484375">
        <ele>1172.199951171875</ele>
        <time>2022-05-03T10:37:01.000Z</time>
      </trkpt>
      <trkpt lat="40.77447633258998394012451171875" lon="-1.55931268818676471710205078125">
        <ele>1172.199951171875</ele>
        <time>2022-05-03T10:37:02.000Z</time>
      </trkpt>
      <trkpt lat="40.77448756434023380279541015625" lon="-1.55935375951230525970458984375">
        <ele>1172.4000244140625</ele>
        <time>2022-05-03T10:37:03.000Z</time>
      </trkpt>
      <trkpt lat="40.77451053075492382049560546875" lon="-1.5594341419637203216552734375">
        <ele>1172.5999755859375</ele>
        <time>2022-05-03T10:37:05.000Z</time>
      </trkpt>
      <trkpt lat="40.77453265897929668426513671875" lon="-1.559512428939342498779296875">
        <ele>1172.5999755859375</ele>
        <time>2022-05-03T10:37:07.000Z</time>
      </trkpt>
      <trkpt lat="40.774555206298828125" lon="-1.55958694405853748321533203125">
        <ele>1172.800048828125</ele>
        <time>2022-05-03T10:37:09.000Z</time>
      </trkpt>
      <trkpt lat="40.7745771668851375579833984375" lon="-1.55966388992965221405029296875">
        <ele>1172.800048828125</ele>
        <time>2022-05-03T10:37:11.000Z</time>
      </trkpt>
      <trkpt lat="40.7745873928070068359375" lon="-1.559701859951019287109375">
        <ele>1173</ele>
        <time>2022-05-03T10:37:12.000Z</time>
      </trkpt>
      <trkpt lat="40.7745972834527492523193359375" lon="-1.55974033288657665252685546875">
        <ele>1173</ele>
        <time>2022-05-03T10:37:13.000Z</time>
      </trkpt>
      <trkpt lat="40.7746182382106781005859375" lon="-1.559816859662532806396484375">
        <ele>1173.199951171875</ele>
        <time>2022-05-03T10:37:15.000Z</time>
      </trkpt>
      <trkpt lat="40.77463977970182895660400390625" lon="-1.5598944760859012603759765625">
        <ele>1173.4000244140625</ele>
        <time>2022-05-03T10:37:17.000Z</time>
      </trkpt>
      <trkpt lat="40.7746638357639312744140625" lon="-1.55997301451861858367919921875">
        <ele>1173.5999755859375</ele>
        <time>2022-05-03T10:37:19.000Z</time>
      </trkpt>
      <trkpt lat="40.77468437142670154571533203125" lon="-1.56005264259874820709228515625">
        <ele>1173.5999755859375</ele>
        <time>2022-05-03T10:37:21.000Z</time>
      </trkpt>
      <trkpt lat="40.774695016443729400634765625" lon="-1.56009237281978130340576171875">
        <ele>1173.800048828125</ele>
        <time>2022-05-03T10:37:22.000Z</time>
      </trkpt>
      <trkpt lat="40.774706415832042694091796875" lon="-1.5601318515837192535400390625">
        <ele>1173.800048828125</ele>
        <time>2022-05-03T10:37:23.000Z</time>
      </trkpt>
      <trkpt lat="40.77472980134189128875732421875" lon="-1.5602129884064197540283203125">
        <ele>1173.800048828125</ele>
        <time>2022-05-03T10:37:25.000Z</time>
      </trkpt>
      <trkpt lat="40.774752013385295867919921875" lon="-1.5602931194007396697998046875">
        <ele>1173.800048828125</ele>
        <time>2022-05-03T10:37:27.000Z</time>
      </trkpt>
      <trkpt lat="40.774773471057415008544921875" lon="-1.56036998145282268524169921875">
        <ele>1174</ele>
        <time>2022-05-03T10:37:29.000Z</time>
      </trkpt>
      <trkpt lat="40.77479652129113674163818359375" lon="-1.56044877134263515472412109375">
        <ele>1174</ele>
        <time>2022-05-03T10:37:31.000Z</time>
      </trkpt>
      <trkpt lat="40.77480808831751346588134765625" lon="-1.5604885853826999664306640625">
        <ele>1174</ele>
        <time>2022-05-03T10:37:32.000Z</time>
      </trkpt>
      <trkpt lat="40.77482141554355621337890625" lon="-1.5605288185179233551025390625">
        <ele>1174</ele>
        <time>2022-05-03T10:37:33.000Z</time>
      </trkpt>
      <trkpt lat="40.77484689652919769287109375" lon="-1.56060752458870410919189453125">
        <ele>1174.199951171875</ele>
        <time>2022-05-03T10:37:35.000Z</time>
      </trkpt>
      <trkpt lat="40.77487179078161716461181640625" lon="-1.5606850571930408477783203125">
        <ele>1174.199951171875</ele>
        <time>2022-05-03T10:37:37.000Z</time>
      </trkpt>
      <trkpt lat="40.77489785850048065185546875" lon="-1.56075973995029926300048828125">
        <ele>1174.5999755859375</ele>
        <time>2022-05-03T10:37:39.000Z</time>
      </trkpt>
      <trkpt lat="40.77492333948612213134765625" lon="-1.56083199195563793182373046875">
        <ele>1174.800048828125</ele>
        <time>2022-05-03T10:37:41.000Z</time>
      </trkpt>
      <trkpt lat="40.7749349065124988555908203125" lon="-1.5608691237866878509521484375">
        <ele>1174.800048828125</ele>
        <time>2022-05-03T10:37:42.000Z</time>
      </trkpt>
      <trkpt lat="40.7749456353485584259033203125" lon="-1.5609080158174037933349609375">
        <ele>1175</ele>
        <time>2022-05-03T10:37:43.000Z</time>
      </trkpt>
      <trkpt lat="40.774968601763248443603515625" lon="-1.560985632240772247314453125">
        <ele>1175.199951171875</ele>
        <time>2022-05-03T10:37:45.000Z</time>
      </trkpt>
      <trkpt lat="40.77499316073954105377197265625" lon="-1.56106316484510898590087890625">
        <ele>1175.5999755859375</ele>
        <time>2022-05-03T10:37:47.000Z</time>
      </trkpt>
      <trkpt lat="40.77501721680164337158203125" lon="-1.56114195473492145538330078125">
        <ele>1175.800048828125</ele>
        <time>2022-05-03T10:37:49.000Z</time>
      </trkpt>
      <trkpt lat="40.775030292570590972900390625" lon="-1.56117967329919338226318359375">
        <ele>1175.800048828125</ele>
        <time>2022-05-03T10:37:50.000Z</time>
      </trkpt>
      <trkpt lat="40.77504227869212627410888671875" lon="-1.56121755950152873992919921875">
        <ele>1176</ele>
        <time>2022-05-03T10:37:51.000Z</time>
      </trkpt>
      <trkpt lat="40.775067843496799468994140625" lon="-1.56129333190619945526123046875">
        <ele>1176</ele>
        <time>2022-05-03T10:37:53.000Z</time>
      </trkpt>
      <trkpt lat="40.77509340830147266387939453125" lon="-1.5613680146634578704833984375">
        <ele>1176.199951171875</ele>
        <time>2022-05-03T10:37:55.000Z</time>
      </trkpt>
      <trkpt lat="40.775118134915828704833984375" lon="-1.56144730746746063232421875">
        <ele>1176.4000244140625</ele>
        <time>2022-05-03T10:37:57.000Z</time>
      </trkpt>
      <trkpt lat="40.77514487318694591522216796875" lon="-1.5615222416818141937255859375">
        <ele>1176.4000244140625</ele>
        <time>2022-05-03T10:37:59.000Z</time>
      </trkpt>
      <trkpt lat="40.77516733668744564056396484375" lon="-1.5616000257432460784912109375">
        <ele>1176.199951171875</ele>
        <time>2022-05-03T10:38:01.000Z</time>
      </trkpt>
      <trkpt lat="40.77519265003502368927001953125" lon="-1.56168158166110515594482421875">
        <ele>1176.199951171875</ele>
        <time>2022-05-03T10:38:03.000Z</time>
      </trkpt>
      <trkpt lat="40.77521796338260173797607421875" lon="-1.56176556833088397979736328125">
        <ele>1176</ele>
        <time>2022-05-03T10:38:05.000Z</time>
      </trkpt>
      <trkpt lat="40.77523774467408657073974609375" lon="-1.56184972263872623443603515625">
        <ele>1176</ele>
        <time>2022-05-03T10:38:07.000Z</time>
      </trkpt>
      <trkpt lat="40.7752611301839351654052734375" lon="-1.56193102709949016571044921875">
        <ele>1176.4000244140625</ele>
        <time>2022-05-03T10:38:09.000Z</time>
      </trkpt>
      <trkpt lat="40.7752834260463714599609375" lon="-1.5620107389986515045166015625">
        <ele>1176.800048828125</ele>
        <time>2022-05-03T10:38:11.000Z</time>
      </trkpt>
      <trkpt lat="40.7753073982894420623779296875" lon="-1.56209212727844715118408203125">
        <ele>1177</ele>
        <time>2022-05-03T10:38:13.000Z</time>
      </trkpt>
      <trkpt lat="40.7753305323421955108642578125" lon="-1.5621706657111644744873046875">
        <ele>1177.4000244140625</ele>
        <time>2022-05-03T10:38:15.000Z</time>
      </trkpt>
      <trkpt lat="40.77535383403301239013671875" lon="-1.562252305448055267333984375">
        <ele>1177.800048828125</ele>
        <time>2022-05-03T10:38:17.000Z</time>
      </trkpt>
      <trkpt lat="40.77537596225738525390625" lon="-1.5623376332223415374755859375">
        <ele>1178.199951171875</ele>
        <time>2022-05-03T10:38:19.000Z</time>
      </trkpt>
      <trkpt lat="40.7754006050527095794677734375" lon="-1.562421619892120361328125">
        <ele>1178.5999755859375</ele>
        <time>2022-05-03T10:38:21.000Z</time>
      </trkpt>
      <trkpt lat="40.77542415820062160491943359375" lon="-1.5625066123902797698974609375">
        <ele>1179</ele>
        <time>2022-05-03T10:38:23.000Z</time>
      </trkpt>
      <trkpt lat="40.77544905245304107666015625" lon="-1.56259269453585147857666015625">
        <ele>1179.199951171875</ele>
        <time>2022-05-03T10:38:25.000Z</time>
      </trkpt>
      <trkpt lat="40.77547185122966766357421875" lon="-1.56267886050045490264892578125">
        <ele>1179.4000244140625</ele>
        <time>2022-05-03T10:38:27.000Z</time>
      </trkpt>
      <trkpt lat="40.77549557201564311981201171875" lon="-1.562764942646026611328125">
        <ele>1179.800048828125</ele>
        <time>2022-05-03T10:38:29.000Z</time>
      </trkpt>
      <trkpt lat="40.775518454611301422119140625" lon="-1.562852449715137481689453125">
        <ele>1180</ele>
        <time>2022-05-03T10:38:31.000Z</time>
      </trkpt>
      <trkpt lat="40.77552876435220241546630859375" lon="-1.56289712525904178619384765625">
        <ele>1180</ele>
        <time>2022-05-03T10:38:32.000Z</time>
      </trkpt>
      <trkpt lat="40.77554024755954742431640625" lon="-1.56294138170778751373291015625">
        <ele>1180.199951171875</ele>
        <time>2022-05-03T10:38:33.000Z</time>
      </trkpt>
      <trkpt lat="40.77556245960295200347900390625" lon="-1.563030816614627838134765625">
        <ele>1180.4000244140625</ele>
        <time>2022-05-03T10:38:35.000Z</time>
      </trkpt>
      <trkpt lat="40.77558509074151515960693359375" lon="-1.56311857514083385467529296875">
        <ele>1180.5999755859375</ele>
        <time>2022-05-03T10:38:37.000Z</time>
      </trkpt>
      <trkpt lat="40.7756111584603786468505859375" lon="-1.56320658512413501739501953125">
        <ele>1181</ele>
        <time>2022-05-03T10:38:39.000Z</time>
      </trkpt>
      <trkpt lat="40.77563680708408355712890625" lon="-1.5632935054600238800048828125">
        <ele>1181.199951171875</ele>
        <time>2022-05-03T10:38:41.000Z</time>
      </trkpt>
      <trkpt lat="40.775659270584583282470703125" lon="-1.56338076107203960418701171875">
        <ele>1181.5999755859375</ele>
        <time>2022-05-03T10:38:43.000Z</time>
      </trkpt>
      <trkpt lat="40.77568215318024158477783203125" lon="-1.56346944160759449005126953125">
        <ele>1182</ele>
        <time>2022-05-03T10:38:45.000Z</time>
      </trkpt>
      <trkpt lat="40.77570461668074131011962890625" lon="-1.563556529581546783447265625">
        <ele>1182.199951171875</ele>
        <time>2022-05-03T10:38:47.000Z</time>
      </trkpt>
      <trkpt lat="40.775726325809955596923828125" lon="-1.5636428631842136383056640625">
        <ele>1182.5999755859375</ele>
        <time>2022-05-03T10:38:49.000Z</time>
      </trkpt>
      <trkpt lat="40.775749795138835906982421875" lon="-1.56373045407235622406005859375">
        <ele>1183</ele>
        <time>2022-05-03T10:38:51.000Z</time>
      </trkpt>
      <trkpt lat="40.77577603049576282501220703125" lon="-1.563818044960498809814453125">
        <ele>1183.199951171875</ele>
        <time>2022-05-03T10:38:53.000Z</time>
      </trkpt>
      <trkpt lat="40.77578977681696414947509765625" lon="-1.56386263668537139892578125">
        <ele>1183.4000244140625</ele>
        <time>2022-05-03T10:38:54.000Z</time>
      </trkpt>
      <trkpt lat="40.77580302022397518157958984375" lon="-1.5639070607721805572509765625">
        <ele>1183.5999755859375</ele>
        <time>2022-05-03T10:38:55.000Z</time>
      </trkpt>
      <trkpt lat="40.77582598663866519927978515625" lon="-1.56399565748870372772216796875">
        <ele>1184</ele>
        <time>2022-05-03T10:38:57.000Z</time>
      </trkpt>
      <trkpt lat="40.7758535631000995635986328125" lon="-1.5640859305858612060546875">
        <ele>1184.199951171875</ele>
        <time>2022-05-03T10:38:59.000Z</time>
      </trkpt>
      <trkpt lat="40.775879882276058197021484375" lon="-1.564176790416240692138671875">
        <ele>1184.4000244140625</ele>
        <time>2022-05-03T10:39:01.000Z</time>
      </trkpt>
      <trkpt lat="40.77589153312146663665771484375" lon="-1.5642218850553035736083984375">
        <ele>1184.5999755859375</ele>
        <time>2022-05-03T10:39:02.000Z</time>
      </trkpt>
      <trkpt lat="40.775903351604938507080078125" lon="-1.5642664767801761627197265625">
        <ele>1184.5999755859375</ele>
        <time>2022-05-03T10:39:03.000Z</time>
      </trkpt>
      <trkpt lat="40.7759283296763896942138671875" lon="-1.5643559955060482025146484375">
        <ele>1184.800048828125</ele>
        <time>2022-05-03T10:39:05.000Z</time>
      </trkpt>
      <trkpt lat="40.77594115398824214935302734375" lon="-1.56439773738384246826171875">
        <ele>1185</ele>
        <time>2022-05-03T10:39:06.000Z</time>
      </trkpt>
      <trkpt lat="40.77595355920493602752685546875" lon="-1.56443989835679531097412109375">
        <ele>1185</ele>
        <time>2022-05-03T10:39:07.000Z</time>
      </trkpt>
      <trkpt lat="40.77597719617187976837158203125" lon="-1.5645243041217327117919921875">
        <ele>1185.199951171875</ele>
        <time>2022-05-03T10:39:09.000Z</time>
      </trkpt>
      <trkpt lat="40.77600158751010894775390625" lon="-1.564607955515384674072265625">
        <ele>1185.199951171875</ele>
        <time>2022-05-03T10:39:11.000Z</time>
      </trkpt>
      <trkpt lat="40.77602128498256206512451171875" lon="-1.564691103994846343994140625">
        <ele>1185.4000244140625</ele>
        <time>2022-05-03T10:39:13.000Z</time>
      </trkpt>
      <trkpt lat="40.77603335492312908172607421875" lon="-1.56473209150135517120361328125">
        <ele>1185.4000244140625</ele>
        <time>2022-05-03T10:39:14.000Z</time>
      </trkpt>
      <trkpt lat="40.7760470174252986907958984375" lon="-1.5647734142839908599853515625">
        <ele>1185.4000244140625</ele>
        <time>2022-05-03T10:39:15.000Z</time>
      </trkpt>
      <trkpt lat="40.7760718278586864471435546875" lon="-1.56485245563089847564697265625">
        <ele>1185.5999755859375</ele>
        <time>2022-05-03T10:39:17.000Z</time>
      </trkpt>
      <trkpt lat="40.77609085477888584136962890625" lon="-1.56493225134909152984619140625">
        <ele>1185.800048828125</ele>
        <time>2022-05-03T10:39:19.000Z</time>
      </trkpt>
      <trkpt lat="40.776113569736480712890625" lon="-1.565011627972126007080078125">
        <ele>1186</ele>
        <time>2022-05-03T10:39:21.000Z</time>
      </trkpt>
      <trkpt lat="40.77612522058188915252685546875" lon="-1.56505211256444454193115234375">
        <ele>1186.199951171875</ele>
        <time>2022-05-03T10:39:22.000Z</time>
      </trkpt>
      <trkpt lat="40.77613703906536102294921875" lon="-1.565091423690319061279296875">
        <ele>1186.4000244140625</ele>
        <time>2022-05-03T10:39:23.000Z</time>
      </trkpt>
      <trkpt lat="40.77616025693714618682861328125" lon="-1.56517230905592441558837890625">
        <ele>1186.5999755859375</ele>
        <time>2022-05-03T10:39:25.000Z</time>
      </trkpt>
      <trkpt lat="40.7761844806373119354248046875" lon="-1.56525478698313236236572265625">
        <ele>1187</ele>
        <time>2022-05-03T10:39:27.000Z</time>
      </trkpt>
      <trkpt lat="40.7762076146900653839111328125" lon="-1.56533407978713512420654296875">
        <ele>1187.199951171875</ele>
        <time>2022-05-03T10:39:29.000Z</time>
      </trkpt>
      <trkpt lat="40.7762193493545055389404296875" lon="-1.565373055636882781982421875">
        <ele>1187.4000244140625</ele>
        <time>2022-05-03T10:39:30.000Z</time>
      </trkpt>
      <trkpt lat="40.776231251657009124755859375" lon="-1.5654117800295352935791015625">
        <ele>1187.4000244140625</ele>
        <time>2022-05-03T10:39:31.000Z</time>
      </trkpt>
      <trkpt lat="40.776252038776874542236328125" lon="-1.565491072833538055419921875">
        <ele>1187.800048828125</ele>
        <time>2022-05-03T10:39:33.000Z</time>
      </trkpt>
      <trkpt lat="40.77627223916351795196533203125" lon="-1.565569527447223663330078125">
        <ele>1188</ele>
        <time>2022-05-03T10:39:35.000Z</time>
      </trkpt>
      <trkpt lat="40.7762947864830493927001953125" lon="-1.5656491555273532867431640625">
        <ele>1188.199951171875</ele>
        <time>2022-05-03T10:39:37.000Z</time>
      </trkpt>
      <trkpt lat="40.77631884254515171051025390625" lon="-1.56572903506457805633544921875">
        <ele>1188.5999755859375</ele>
        <time>2022-05-03T10:39:39.000Z</time>
      </trkpt>
      <trkpt lat="40.77634063549339771270751953125" lon="-1.56581151299178600311279296875">
        <ele>1188.5999755859375</ele>
        <time>2022-05-03T10:39:41.000Z</time>
      </trkpt>
      <trkpt lat="40.77636226080358028411865234375" lon="-1.5658949129283428192138671875">
        <ele>1188.5999755859375</ele>
        <time>2022-05-03T10:39:43.000Z</time>
      </trkpt>
      <trkpt lat="40.77638573013246059417724609375" lon="-1.5659777261316776275634765625">
        <ele>1188.5999755859375</ele>
        <time>2022-05-03T10:39:45.000Z</time>
      </trkpt>
      <trkpt lat="40.77640852890908718109130859375" lon="-1.56606514938175678253173828125">
        <ele>1188.800048828125</ele>
        <time>2022-05-03T10:39:47.000Z</time>
      </trkpt>
      <trkpt lat="40.776434428989887237548828125" lon="-1.5661570988595485687255859375">
        <ele>1189</ele>
        <time>2022-05-03T10:39:49.000Z</time>
      </trkpt>
      <trkpt lat="40.7764480076730251312255859375" lon="-1.56620227731764316558837890625">
        <ele>1189</ele>
        <time>2022-05-03T10:39:50.000Z</time>
      </trkpt>
      <trkpt lat="40.77645999379456043243408203125" lon="-1.566248796880245208740234375">
        <ele>1189</ele>
        <time>2022-05-03T10:39:51.000Z</time>
      </trkpt>
      <trkpt lat="40.7764828763902187347412109375" lon="-1.56634460203349590301513671875">
        <ele>1189.199951171875</ele>
        <time>2022-05-03T10:39:53.000Z</time>
      </trkpt>
      <trkpt lat="40.77650994993746280670166015625" lon="-1.56644300557672977447509765625">
        <ele>1189.199951171875</ele>
        <time>2022-05-03T10:39:55.000Z</time>
      </trkpt>
      <trkpt lat="40.7765378616750240325927734375" lon="-1.56654509715735912322998046875">
        <ele>1189.199951171875</ele>
        <time>2022-05-03T10:39:57.000Z</time>
      </trkpt>
      <trkpt lat="40.776565857231616973876953125" lon="-1.566650457680225372314453125">
        <ele>1189.199951171875</ele>
        <time>2022-05-03T10:39:59.000Z</time>
      </trkpt>
      <trkpt lat="40.77657985500991344451904296875" lon="-1.56670351512730121612548828125">
        <ele>1189.199951171875</ele>
        <time>2022-05-03T10:40:00.000Z</time>
      </trkpt>
      <trkpt lat="40.77659494243562221527099609375" lon="-1.56675514765083789825439453125">
        <ele>1189.199951171875</ele>
        <time>2022-05-03T10:40:01.000Z</time>
      </trkpt>
      <trkpt lat="40.776622183620929718017578125" lon="-1.5668595023453235626220703125">
        <ele>1189.4000244140625</ele>
        <time>2022-05-03T10:40:03.000Z</time>
      </trkpt>
      <trkpt lat="40.77664976008236408233642578125" lon="-1.56696863472461700439453125">
        <ele>1189.4000244140625</ele>
        <time>2022-05-03T10:40:05.000Z</time>
      </trkpt>
      <trkpt lat="40.7766783423721790313720703125" lon="-1.56708204187452793121337890625">
        <ele>1189.5999755859375</ele>
        <time>2022-05-03T10:40:07.000Z</time>
      </trkpt>
      <trkpt lat="40.77670793049037456512451171875" lon="-1.56719972379505634307861328125">
        <ele>1189.4000244140625</ele>
        <time>2022-05-03T10:40:09.000Z</time>
      </trkpt>
      <trkpt lat="40.7767400331795215606689453125" lon="-1.567318327724933624267578125">
        <ele>1189.4000244140625</ele>
        <time>2022-05-03T10:40:11.000Z</time>
      </trkpt>
      <trkpt lat="40.77677263878285884857177734375" lon="-1.5674331597983837127685546875">
        <ele>1189.199951171875</ele>
        <time>2022-05-03T10:40:13.000Z</time>
      </trkpt>
      <trkpt lat="40.77680331654846668243408203125" lon="-1.56754723750054836273193359375">
        <ele>1189.199951171875</ele>
        <time>2022-05-03T10:40:15.000Z</time>
      </trkpt>
      <trkpt lat="40.77683298848569393157958984375" lon="-1.5676645003259181976318359375">
        <ele>1189.199951171875</ele>
        <time>2022-05-03T10:40:17.000Z</time>
      </trkpt>
      <trkpt lat="40.77685075812041759490966796875" lon="-1.5677255205810070037841796875">
        <ele>1189.199951171875</ele>
        <time>2022-05-03T10:40:18.000Z</time>
      </trkpt>
      <trkpt lat="40.77686802484095096588134765625" lon="-1.5677873790264129638671875">
        <ele>1189.199951171875</ele>
        <time>2022-05-03T10:40:19.000Z</time>
      </trkpt>
      <trkpt lat="40.77690172009170055389404296875" lon="-1.567911095917224884033203125">
        <ele>1189.5999755859375</ele>
        <time>2022-05-03T10:40:21.000Z</time>
      </trkpt>
      <trkpt lat="40.77693633735179901123046875" lon="-1.5680326335132122039794921875">
        <ele>1189.800048828125</ele>
        <time>2022-05-03T10:40:23.000Z</time>
      </trkpt>
      <trkpt lat="40.77696927823126316070556640625" lon="-1.568152494728565216064453125">
        <ele>1190</ele>
        <time>2022-05-03T10:40:25.000Z</time>
      </trkpt>
      <trkpt lat="40.776998698711395263671875" lon="-1.56826808117330074310302734375">
        <ele>1190.5999755859375</ele>
        <time>2022-05-03T10:40:27.000Z</time>
      </trkpt>
      <trkpt lat="40.7770313881337642669677734375" lon="-1.5683806501328945159912109375">
        <ele>1191</ele>
        <time>2022-05-03T10:40:29.000Z</time>
      </trkpt>
      <trkpt lat="40.777062736451625823974609375" lon="-1.56849171034991741180419921875">
        <ele>1191.199951171875</ele>
        <time>2022-05-03T10:40:31.000Z</time>
      </trkpt>
      <trkpt lat="40.77709031291306018829345703125" lon="-1.568601764738559722900390625">
        <ele>1191.4000244140625</ele>
        <time>2022-05-03T10:40:33.000Z</time>
      </trkpt>
      <trkpt lat="40.7771195657551288604736328125" lon="-1.56870938837528228759765625">
        <ele>1191.5999755859375</ele>
        <time>2022-05-03T10:40:35.000Z</time>
      </trkpt>
      <trkpt lat="40.77713289298117160797119140625" lon="-1.56876261346042156219482421875">
        <ele>1191.5999755859375</ele>
        <time>2022-05-03T10:40:36.000Z</time>
      </trkpt>
      <trkpt lat="40.777146555483341217041015625" lon="-1.5688155032694339752197265625">
        <ele>1191.800048828125</ele>
        <time>2022-05-03T10:40:37.000Z</time>
      </trkpt>
      <trkpt lat="40.77717128209769725799560546875" lon="-1.56891751103103160858154296875">
        <ele>1192</ele>
        <time>2022-05-03T10:40:39.000Z</time>
      </trkpt>
      <trkpt lat="40.77719156630337238311767578125" lon="-1.569009125232696533203125">
        <ele>1192.199951171875</ele>
        <time>2022-05-03T10:40:41.000Z</time>
      </trkpt>
      <trkpt lat="40.77721528708934783935546875" lon="-1.569080539047718048095703125">
        <ele>1192.199951171875</ele>
        <time>2022-05-03T10:40:43.000Z</time>
      </trkpt>
      <trkpt lat="40.77724479138851165771484375" lon="-1.5691231191158294677734375">
        <ele>1192.199951171875</ele>
        <time>2022-05-03T10:40:45.000Z</time>
      </trkpt>
      <trkpt lat="40.77728996984660625457763671875" lon="-1.5691507793962955474853515625">
        <ele>1192</ele>
        <time>2022-05-03T10:40:47.000Z</time>
      </trkpt>
      <trkpt lat="40.77733573503792285919189453125" lon="-1.56916997395455837249755859375">
        <ele>1191.800048828125</ele>
        <time>2022-05-03T10:40:49.000Z</time>
      </trkpt>
      <trkpt lat="40.777367167174816131591796875" lon="-1.56917265616357326507568359375">
        <ele>1191.5999755859375</ele>
        <time>2022-05-03T10:40:51.000Z</time>
      </trkpt>
      <trkpt lat="40.77737630344927310943603515625" lon="-1.569170057773590087890625">
        <ele>1191.5999755859375</ele>
        <time>2022-05-03T10:40:52.000Z</time>
      </trkpt>
      <trkpt lat="40.77738183550536632537841796875" lon="-1.5691685490310192108154296875">
        <ele>1191.5999755859375</ele>
        <time>2022-05-03T10:40:53.000Z</time>
      </trkpt>
      <trkpt lat="40.7773884572088718414306640625" lon="-1.5691645257174968719482421875">
        <ele>1191.5999755859375</ele>
        <time>2022-05-03T10:40:55.000Z</time>
      </trkpt>
      <trkpt lat="40.7773881219327449798583984375" lon="-1.569162346422672271728515625">
        <ele>1191.4000244140625</ele>
        <time>2022-05-03T10:40:56.000Z</time>
      </trkpt>
      <trkpt lat="40.7773606292903423309326171875" lon="-1.56934104859828948974609375">
        <ele>1192.4000244140625</ele>
        <time>2022-05-03T10:49:15.000Z</time>
      </trkpt>
      <trkpt lat="40.77734193764626979827880859375" lon="-1.5693707205355167388916015625">
        <ele>1192.5999755859375</ele>
        <time>2022-05-03T10:49:17.000Z</time>
      </trkpt>
      <trkpt lat="40.77733464539051055908203125" lon="-1.5693848021328449249267578125">
        <ele>1192.5999755859375</ele>
        <time>2022-05-03T10:49:18.000Z</time>
      </trkpt>
      <trkpt lat="40.77733330428600311279296875" lon="-1.5693998895585536956787109375">
        <ele>1192.5999755859375</ele>
        <time>2022-05-03T10:49:19.000Z</time>
      </trkpt>
      <trkpt lat="40.777336321771144866943359375" lon="-1.569414474070072174072265625">
        <ele>1192.800048828125</ele>
        <time>2022-05-03T10:49:20.000Z</time>
      </trkpt>
      <trkpt lat="40.777342021465301513671875" lon="-1.5694315731525421142578125">
        <ele>1192.800048828125</ele>
        <time>2022-05-03T10:49:21.000Z</time>
      </trkpt>
      <trkpt lat="40.7773540914058685302734375" lon="-1.5694756619632244110107421875">
        <ele>1192.800048828125</ele>
        <time>2022-05-03T10:49:23.000Z</time>
      </trkpt>
      <trkpt lat="40.77736171893775463104248046875" lon="-1.56952938996255397796630859375">
        <ele>1193</ele>
        <time>2022-05-03T10:49:25.000Z</time>
      </trkpt>
      <trkpt lat="40.77736574225127696990966796875" lon="-1.56955604441463947296142578125">
        <ele>1193</ele>
        <time>2022-05-03T10:49:26.000Z</time>
      </trkpt>
      <trkpt lat="40.7773701846599578857421875" lon="-1.56958487816154956817626953125">
        <ele>1193.199951171875</ele>
        <time>2022-05-03T10:49:27.000Z</time>
      </trkpt>
      <trkpt lat="40.77737462706863880157470703125" lon="-1.5696151368319988250732421875">
        <ele>1193.199951171875</ele>
        <time>2022-05-03T10:49:28.000Z</time>
      </trkpt>
      <trkpt lat="40.7773794047534465789794921875" lon="-1.5696459822356700897216796875">
        <ele>1193.199951171875</ele>
        <time>2022-05-03T10:49:29.000Z</time>
      </trkpt>
      <trkpt lat="40.77738937921822071075439453125" lon="-1.56970842741429805755615234375">
        <ele>1193.4000244140625</ele>
        <time>2022-05-03T10:49:31.000Z</time>
      </trkpt>
      <trkpt lat="40.777400024235248565673828125" lon="-1.56977095641195774078369140625">
        <ele>1193.4000244140625</ele>
        <time>2022-05-03T10:49:33.000Z</time>
      </trkpt>
      <trkpt lat="40.77740974724292755126953125" lon="-1.56983633525669574737548828125">
        <ele>1193.4000244140625</ele>
        <time>2022-05-03T10:49:35.000Z</time>
      </trkpt>
      <trkpt lat="40.777416117489337921142578125" lon="-1.56986902467906475067138671875">
        <ele>1193.199951171875</ele>
        <time>2022-05-03T10:49:36.000Z</time>
      </trkpt>
      <trkpt lat="40.7774253375828266143798828125" lon="-1.5699011273682117462158203125">
        <ele>1193.199951171875</ele>
        <time>2022-05-03T10:49:37.000Z</time>
      </trkpt>
      <trkpt lat="40.7774387486279010772705078125" lon="-1.569969691336154937744140625">
        <ele>1193.199951171875</ele>
        <time>2022-05-03T10:49:39.000Z</time>
      </trkpt>
      <trkpt lat="40.77744729816913604736328125" lon="-1.57003951258957386016845703125">
        <ele>1193</ele>
        <time>2022-05-03T10:49:41.000Z</time>
      </trkpt>
      <trkpt lat="40.7774521596729755401611328125" lon="-1.5700751356780529022216796875">
        <ele>1193</ele>
        <time>2022-05-03T10:49:42.000Z</time>
      </trkpt>
      <trkpt lat="40.77745760791003704071044921875" lon="-1.57011142931878566741943359375">
        <ele>1193</ele>
        <time>2022-05-03T10:49:43.000Z</time>
      </trkpt>
      <trkpt lat="40.77746515162289142608642578125" lon="-1.57018728554248809814453125">
        <ele>1192.800048828125</ele>
        <time>2022-05-03T10:49:45.000Z</time>
      </trkpt>
      <trkpt lat="40.77747001312673091888427734375" lon="-1.570265404880046844482421875">
        <ele>1192.800048828125</ele>
        <time>2022-05-03T10:49:47.000Z</time>
      </trkpt>
      <trkpt lat="40.77747520990669727325439453125" lon="-1.5703453682363033294677734375">
        <ele>1192.800048828125</ele>
        <time>2022-05-03T10:49:49.000Z</time>
      </trkpt>
      <trkpt lat="40.77748057432472705841064453125" lon="-1.57042474485933780670166015625">
        <ele>1192.800048828125</ele>
        <time>2022-05-03T10:49:51.000Z</time>
      </trkpt>
      <trkpt lat="40.7774828374385833740234375" lon="-1.57046464271843433380126953125">
        <ele>1193</ele>
        <time>2022-05-03T10:49:52.000Z</time>
      </trkpt>
      <trkpt lat="40.77748225070536136627197265625" lon="-1.57050487585365772247314453125">
        <ele>1193.199951171875</ele>
        <time>2022-05-03T10:49:53.000Z</time>
      </trkpt>
      <trkpt lat="40.77747839502990245819091796875" lon="-1.57058425247669219970703125">
        <ele>1193.5999755859375</ele>
        <time>2022-05-03T10:49:55.000Z</time>
      </trkpt>
      <trkpt lat="40.777470432221889495849609375" lon="-1.57066379673779010772705078125">
        <ele>1194</ele>
        <time>2022-05-03T10:49:57.000Z</time>
      </trkpt>
      <trkpt lat="40.7774612121284008026123046875" lon="-1.57074392773211002349853515625">
        <ele>1194.199951171875</ele>
        <time>2022-05-03T10:49:59.000Z</time>
      </trkpt>
      <trkpt lat="40.777451992034912109375" lon="-1.57082791440188884735107421875">
        <ele>1194.199951171875</ele>
        <time>2022-05-03T10:50:01.000Z</time>
      </trkpt>
      <trkpt lat="40.77744034118950366973876953125" lon="-1.57091927714645862579345703125">
        <ele>1194.199951171875</ele>
        <time>2022-05-03T10:50:03.000Z</time>
      </trkpt>
      <trkpt lat="40.7774266786873340606689453125" lon="-1.57101214863359928131103515625">
        <ele>1194.199951171875</ele>
        <time>2022-05-03T10:50:05.000Z</time>
      </trkpt>
      <trkpt lat="40.777410082519054412841796875" lon="-1.5711010806262493133544921875">
        <ele>1194.199951171875</ele>
        <time>2022-05-03T10:50:07.000Z</time>
      </trkpt>
      <trkpt lat="40.77739206142723560333251953125" lon="-1.57118833623826503753662109375">
        <ele>1194.4000244140625</ele>
        <time>2022-05-03T10:50:09.000Z</time>
      </trkpt>
      <trkpt lat="40.7773720286786556243896484375" lon="-1.57127626240253448486328125">
        <ele>1194.4000244140625</ele>
        <time>2022-05-03T10:50:11.000Z</time>
      </trkpt>
      <trkpt lat="40.7773460447788238525390625" lon="-1.5713622607290744781494140625">
        <ele>1194.5999755859375</ele>
        <time>2022-05-03T10:50:13.000Z</time>
      </trkpt>
      <trkpt lat="40.77731980942189693450927734375" lon="-1.57145186327397823333740234375">
        <ele>1194.5999755859375</ele>
        <time>2022-05-03T10:50:15.000Z</time>
      </trkpt>
      <trkpt lat="40.777290724217891693115234375" lon="-1.57154490239918231964111328125">
        <ele>1194.800048828125</ele>
        <time>2022-05-03T10:50:17.000Z</time>
      </trkpt>
      <trkpt lat="40.77727496623992919921875" lon="-1.57159318216145038604736328125">
        <ele>1194.800048828125</ele>
        <time>2022-05-03T10:50:18.000Z</time>
      </trkpt>
      <trkpt lat="40.77725795097649097442626953125" lon="-1.57164263539016246795654296875">
        <ele>1195</ele>
        <time>2022-05-03T10:50:19.000Z</time>
      </trkpt>
      <trkpt lat="40.777222327888011932373046875" lon="-1.5717414580285549163818359375">
        <ele>1195.199951171875</ele>
        <time>2022-05-03T10:50:21.000Z</time>
      </trkpt>
      <trkpt lat="40.7771839387714862823486328125" lon="-1.5718401968479156494140625">
        <ele>1195.5999755859375</ele>
        <time>2022-05-03T10:50:23.000Z</time>
      </trkpt>
      <trkpt lat="40.77714278362691402435302734375" lon="-1.5719396062195301055908203125">
        <ele>1196</ele>
        <time>2022-05-03T10:50:25.000Z</time>
      </trkpt>
      <trkpt lat="40.777104310691356658935546875" lon="-1.5720401890575885772705078125">
        <ele>1196.199951171875</ele>
        <time>2022-05-03T10:50:27.000Z</time>
      </trkpt>
      <trkpt lat="40.77708461321890354156494140625" lon="-1.57209022901952266693115234375">
        <ele>1196.4000244140625</ele>
        <time>2022-05-03T10:50:28.000Z</time>
      </trkpt>
      <trkpt lat="40.7770659215748310089111328125" lon="-1.57214052043855190277099609375">
        <ele>1196.5999755859375</ele>
        <time>2022-05-03T10:50:29.000Z</time>
      </trkpt>
      <trkpt lat="40.77702694572508335113525390625" lon="-1.5722376666963100433349609375">
        <ele>1197</ele>
        <time>2022-05-03T10:50:31.000Z</time>
      </trkpt>
      <trkpt lat="40.7769871316850185394287109375" lon="-1.5723323822021484375">
        <ele>1197.4000244140625</ele>
        <time>2022-05-03T10:50:33.000Z</time>
      </trkpt>
      <trkpt lat="40.776948742568492889404296875" lon="-1.57242852263152599334716796875">
        <ele>1197.5999755859375</ele>
        <time>2022-05-03T10:50:35.000Z</time>
      </trkpt>
      <trkpt lat="40.77691127546131610870361328125" lon="-1.57252424396574497222900390625">
        <ele>1197.800048828125</ele>
        <time>2022-05-03T10:50:37.000Z</time>
      </trkpt>
      <trkpt lat="40.7768748141825199127197265625" lon="-1.57261862419545650482177734375">
        <ele>1198</ele>
        <time>2022-05-03T10:50:39.000Z</time>
      </trkpt>
      <trkpt lat="40.77683717943727970123291015625" lon="-1.57271166332066059112548828125">
        <ele>1198.199951171875</ele>
        <time>2022-05-03T10:50:41.000Z</time>
      </trkpt>
      <trkpt lat="40.77681873925030231475830078125" lon="-1.57275726087391376495361328125">
        <ele>1198.4000244140625</ele>
        <time>2022-05-03T10:50:42.000Z</time>
      </trkpt>
      <trkpt lat="40.77680088579654693603515625" lon="-1.57280218787491321563720703125">
        <ele>1198.5999755859375</ele>
        <time>2022-05-03T10:50:43.000Z</time>
      </trkpt>
      <trkpt lat="40.77676425687968730926513671875" lon="-1.57288961112499237060546875">
        <ele>1198.800048828125</ele>
        <time>2022-05-03T10:50:45.000Z</time>
      </trkpt>
      <trkpt lat="40.7767306454479694366455078125" lon="-1.57297544181346893310546875">
        <ele>1199</ele>
        <time>2022-05-03T10:50:47.000Z</time>
      </trkpt>
      <trkpt lat="40.776698291301727294921875" lon="-1.57306051813066005706787109375">
        <ele>1199.4000244140625</ele>
        <time>2022-05-03T10:50:49.000Z</time>
      </trkpt>
      <trkpt lat="40.77666501514613628387451171875" lon="-1.5731402300298213958740234375">
        <ele>1199.5999755859375</ele>
        <time>2022-05-03T10:50:51.000Z</time>
      </trkpt>
      <trkpt lat="40.77663199044764041900634765625" lon="-1.57322010956704616546630859375">
        <ele>1199.800048828125</ele>
        <time>2022-05-03T10:50:53.000Z</time>
      </trkpt>
      <trkpt lat="40.77660064212977886199951171875" lon="-1.5733011625707149505615234375">
        <ele>1199.800048828125</ele>
        <time>2022-05-03T10:50:55.000Z</time>
      </trkpt>
      <trkpt lat="40.77658471651375293731689453125" lon="-1.57334097661077976226806640625">
        <ele>1199.800048828125</ele>
        <time>2022-05-03T10:50:56.000Z</time>
      </trkpt>
      <trkpt lat="40.7765690423548221588134765625" lon="-1.5733809582889080047607421875">
        <ele>1199.800048828125</ele>
        <time>2022-05-03T10:50:57.000Z</time>
      </trkpt>
      <trkpt lat="40.77653693966567516326904296875" lon="-1.5734627656638622283935546875">
        <ele>1200</ele>
        <time>2022-05-03T10:50:59.000Z</time>
      </trkpt>
      <trkpt lat="40.7765036635100841522216796875" lon="-1.57354633323848247528076171875">
        <ele>1200</ele>
        <time>2022-05-03T10:51:01.000Z</time>
      </trkpt>
      <trkpt lat="40.77646904624998569488525390625" lon="-1.5736314095556735992431640625">
        <ele>1200</ele>
        <time>2022-05-03T10:51:03.000Z</time>
      </trkpt>
      <trkpt lat="40.77643702737987041473388671875" lon="-1.57371707260608673095703125">
        <ele>1200</ele>
        <time>2022-05-03T10:51:05.000Z</time>
      </trkpt>
      <trkpt lat="40.7764054276049137115478515625" lon="-1.57380424439907073974609375">
        <ele>1200.199951171875</ele>
        <time>2022-05-03T10:51:07.000Z</time>
      </trkpt>
      <trkpt lat="40.77637039124965667724609375" lon="-1.57389342784881591796875">
        <ele>1200.199951171875</ele>
        <time>2022-05-03T10:51:09.000Z</time>
      </trkpt>
      <trkpt lat="40.77633426524698734283447265625" lon="-1.5739851258695125579833984375">
        <ele>1200.5999755859375</ele>
        <time>2022-05-03T10:51:11.000Z</time>
      </trkpt>
      <trkpt lat="40.77631666325032711029052734375" lon="-1.5740297175943851470947265625">
        <ele>1200.5999755859375</ele>
        <time>2022-05-03T10:51:12.000Z</time>
      </trkpt>
      <trkpt lat="40.77629889361560344696044921875" lon="-1.57407389022409915924072265625">
        <ele>1200.5999755859375</ele>
        <time>2022-05-03T10:51:13.000Z</time>
      </trkpt>
      <trkpt lat="40.77626234851777553558349609375" lon="-1.5741608105599880218505859375">
        <ele>1200.800048828125</ele>
        <time>2022-05-03T10:51:15.000Z</time>
      </trkpt>
      <trkpt lat="40.7762277312576770782470703125" lon="-1.57425074838101863861083984375">
        <ele>1201</ele>
        <time>2022-05-03T10:51:17.000Z</time>
      </trkpt>
      <trkpt lat="40.77619328163564205169677734375" lon="-1.57434043474495410919189453125">
        <ele>1201.199951171875</ele>
        <time>2022-05-03T10:51:19.000Z</time>
      </trkpt>
      <trkpt lat="40.77615849673748016357421875" lon="-1.57443062402307987213134765625">
        <ele>1201.5999755859375</ele>
        <time>2022-05-03T10:51:21.000Z</time>
      </trkpt>
      <trkpt lat="40.7761419005692005157470703125" lon="-1.574475131928920745849609375">
        <ele>1201.5999755859375</ele>
        <time>2022-05-03T10:51:22.000Z</time>
      </trkpt>
      <trkpt lat="40.776123963296413421630859375" lon="-1.5745197236537933349609375">
        <ele>1201.800048828125</ele>
        <time>2022-05-03T10:51:23.000Z</time>
      </trkpt>
      <trkpt lat="40.77608917839825153350830078125" lon="-1.57461217604577541351318359375">
        <ele>1202.199951171875</ele>
        <time>2022-05-03T10:51:25.000Z</time>
      </trkpt>
      <trkpt lat="40.7760540582239627838134765625" lon="-1.5747039578855037689208984375">
        <ele>1202.4000244140625</ele>
        <time>2022-05-03T10:51:27.000Z</time>
      </trkpt>
      <trkpt lat="40.7760161720216274261474609375" lon="-1.57479540444910526275634765625">
        <ele>1202.5999755859375</ele>
        <time>2022-05-03T10:51:29.000Z</time>
      </trkpt>
      <trkpt lat="40.77597878873348236083984375" lon="-1.574886180460453033447265625">
        <ele>1203</ele>
        <time>2022-05-03T10:51:31.000Z</time>
      </trkpt>
      <trkpt lat="40.775940902531147003173828125" lon="-1.57497905194759368896484375">
        <ele>1203.199951171875</ele>
        <time>2022-05-03T10:51:33.000Z</time>
      </trkpt>
      <trkpt lat="40.77590368688106536865234375" lon="-1.575071923434734344482421875">
        <ele>1203.199951171875</ele>
        <time>2022-05-03T10:51:35.000Z</time>
      </trkpt>
      <trkpt lat="40.77586655505001544952392578125" lon="-1.57516404055058956146240234375">
        <ele>1203.4000244140625</ele>
        <time>2022-05-03T10:51:37.000Z</time>
      </trkpt>
      <trkpt lat="40.7758300937712192535400390625" lon="-1.575254984200000762939453125">
        <ele>1203.5999755859375</ele>
        <time>2022-05-03T10:51:39.000Z</time>
      </trkpt>
      <trkpt lat="40.77579145319759845733642578125" lon="-1.57536000944674015045166015625">
        <ele>1203.800048828125</ele>
        <time>2022-05-03T10:51:41.000Z</time>
      </trkpt>
      <trkpt lat="40.77576982788741588592529296875" lon="-1.57541625201702117919921875">
        <ele>1204</ele>
        <time>2022-05-03T10:51:42.000Z</time>
      </trkpt>
      <trkpt lat="40.77574736438691616058349609375" lon="-1.575470231473445892333984375">
        <ele>1204</ele>
        <time>2022-05-03T10:51:43.000Z</time>
      </trkpt>
      <trkpt lat="40.775704868137836456298828125" lon="-1.575571484863758087158203125">
        <ele>1204.5999755859375</ele>
        <time>2022-05-03T10:51:45.000Z</time>
      </trkpt>
      <trkpt lat="40.7756654731929302215576171875" lon="-1.575668044388294219970703125">
        <ele>1205</ele>
        <time>2022-05-03T10:51:47.000Z</time>
      </trkpt>
      <trkpt lat="40.77564493753015995025634765625" lon="-1.575714647769927978515625">
        <ele>1205.199951171875</ele>
        <time>2022-05-03T10:51:48.000Z</time>
      </trkpt>
      <trkpt lat="40.77562515623867511749267578125" lon="-1.57576032914221286773681640625">
        <ele>1205.199951171875</ele>
        <time>2022-05-03T10:51:49.000Z</time>
      </trkpt>
      <trkpt lat="40.77560596168041229248046875" lon="-1.5758073516190052032470703125">
        <ele>1205.199951171875</ele>
        <time>2022-05-03T10:51:50.000Z</time>
      </trkpt>
      <trkpt lat="40.7755883596837520599365234375" lon="-1.5758549608290195465087890625">
        <ele>1205.199951171875</ele>
        <time>2022-05-03T10:51:51.000Z</time>
      </trkpt>
      <trkpt lat="40.775552652776241302490234375" lon="-1.57594959251582622528076171875">
        <ele>1205.4000244140625</ele>
        <time>2022-05-03T10:51:53.000Z</time>
      </trkpt>
      <trkpt lat="40.775517784059047698974609375" lon="-1.57604254782199859619140625">
        <ele>1205.5999755859375</ele>
        <time>2022-05-03T10:51:55.000Z</time>
      </trkpt>
      <trkpt lat="40.7754834182560443878173828125" lon="-1.57613508403301239013671875">
        <ele>1205.800048828125</ele>
        <time>2022-05-03T10:51:57.000Z</time>
      </trkpt>
      <trkpt lat="40.7754653133451938629150390625" lon="-1.5761808492243289947509765625">
        <ele>1205.800048828125</ele>
        <time>2022-05-03T10:51:58.000Z</time>
      </trkpt>
      <trkpt lat="40.7754465378820896148681640625" lon="-1.5762256085872650146484375">
        <ele>1206</ele>
        <time>2022-05-03T10:51:59.000Z</time>
      </trkpt>
      <trkpt lat="40.7754284329712390899658203125" lon="-1.5762703679502010345458984375">
        <ele>1206.199951171875</ele>
        <time>2022-05-03T10:52:00.000Z</time>
      </trkpt>
      <trkpt lat="40.77541192062199115753173828125" lon="-1.57631554640829563140869140625">
        <ele>1206.199951171875</ele>
        <time>2022-05-03T10:52:01.000Z</time>
      </trkpt>
      <trkpt lat="40.7753774709999561309814453125" lon="-1.57640489749610424041748046875">
        <ele>1206.4000244140625</ele>
        <time>2022-05-03T10:52:03.000Z</time>
      </trkpt>
      <trkpt lat="40.7753429375588893890380859375" lon="-1.57649458386003971099853515625">
        <ele>1206.800048828125</ele>
        <time>2022-05-03T10:52:05.000Z</time>
      </trkpt>
      <trkpt lat="40.77531066723167896270751953125" lon="-1.57658359967172145843505859375">
        <ele>1207</ele>
        <time>2022-05-03T10:52:07.000Z</time>
      </trkpt>
      <trkpt lat="40.77529348433017730712890625" lon="-1.57662735320627689361572265625">
        <ele>1207</ele>
        <time>2022-05-03T10:52:08.000Z</time>
      </trkpt>
      <trkpt lat="40.77527529560029506683349609375" lon="-1.5766700170934200286865234375">
        <ele>1207.199951171875</ele>
        <time>2022-05-03T10:52:09.000Z</time>
      </trkpt>
      <trkpt lat="40.775241851806640625" lon="-1.57675241120159626007080078125">
        <ele>1207.4000244140625</ele>
        <time>2022-05-03T10:52:11.000Z</time>
      </trkpt>
      <trkpt lat="40.77520991675555706024169921875" lon="-1.5768344700336456298828125">
        <ele>1207.5999755859375</ele>
        <time>2022-05-03T10:52:13.000Z</time>
      </trkpt>
      <trkpt lat="40.77517739497125148773193359375" lon="-1.57691418193280696868896484375">
        <ele>1208</ele>
        <time>2022-05-03T10:52:15.000Z</time>
      </trkpt>
      <trkpt lat="40.775147639214992523193359375" lon="-1.576993055641651153564453125">
        <ele>1208.4000244140625</ele>
        <time>2022-05-03T10:52:17.000Z</time>
      </trkpt>
      <trkpt lat="40.77511805109679698944091796875" lon="-1.57707385718822479248046875">
        <ele>1208.800048828125</ele>
        <time>2022-05-03T10:52:19.000Z</time>
      </trkpt>
      <trkpt lat="40.77508619986474514007568359375" lon="-1.5771548263728618621826171875">
        <ele>1209.4000244140625</ele>
        <time>2022-05-03T10:52:21.000Z</time>
      </trkpt>
      <trkpt lat="40.77505342662334442138671875" lon="-1.57723478972911834716796875">
        <ele>1209.800048828125</ele>
        <time>2022-05-03T10:52:23.000Z</time>
      </trkpt>
      <trkpt lat="40.7750393450260162353515625" lon="-1.57727510668337345123291015625">
        <ele>1210</ele>
        <time>2022-05-03T10:52:24.000Z</time>
      </trkpt>
      <trkpt lat="40.7750259339809417724609375" lon="-1.57731466926634311676025390625">
        <ele>1210.199951171875</ele>
        <time>2022-05-03T10:52:25.000Z</time>
      </trkpt>
      <trkpt lat="40.7750123552978038787841796875" lon="-1.5773533098399639129638671875">
        <ele>1210.4000244140625</ele>
        <time>2022-05-03T10:52:26.000Z</time>
      </trkpt>
      <trkpt lat="40.774998776614665985107421875" lon="-1.57739144749939441680908203125">
        <ele>1210.800048828125</ele>
        <time>2022-05-03T10:52:27.000Z</time>
      </trkpt>
      <trkpt lat="40.77496885322034358978271484375" lon="-1.5774647891521453857421875">
        <ele>1211.4000244140625</ele>
        <time>2022-05-03T10:52:29.000Z</time>
      </trkpt>
      <trkpt lat="40.7749553583562374114990234375" lon="-1.5774998255074024200439453125">
        <ele>1211.800048828125</ele>
        <time>2022-05-03T10:52:30.000Z</time>
      </trkpt>
      <trkpt lat="40.774941779673099517822265625" lon="-1.577535532414913177490234375">
        <ele>1212</ele>
        <time>2022-05-03T10:52:31.000Z</time>
      </trkpt>
      <trkpt lat="40.77491286210715770721435546875" lon="-1.57760560512542724609375">
        <ele>1212.800048828125</ele>
        <time>2022-05-03T10:52:33.000Z</time>
      </trkpt>
      <trkpt lat="40.77488453127443790435791015625" lon="-1.57767727039754390716552734375">
        <ele>1213.4000244140625</ele>
        <time>2022-05-03T10:52:35.000Z</time>
      </trkpt>
      <trkpt lat="40.7748581282794475555419921875" lon="-1.5777475945651531219482421875">
        <ele>1214</ele>
        <time>2022-05-03T10:52:37.000Z</time>
      </trkpt>
      <trkpt lat="40.774829797446727752685546875" lon="-1.57781758345663547515869140625">
        <ele>1214.5999755859375</ele>
        <time>2022-05-03T10:52:39.000Z</time>
      </trkpt>
      <trkpt lat="40.77480305917561054229736328125" lon="-1.577887237071990966796875">
        <ele>1215.4000244140625</ele>
        <time>2022-05-03T10:52:41.000Z</time>
      </trkpt>
      <trkpt lat="40.774778164923191070556640625" lon="-1.57796024344861507415771484375">
        <ele>1216</ele>
        <time>2022-05-03T10:52:43.000Z</time>
      </trkpt>
      <trkpt lat="40.7747659273445606231689453125" lon="-1.5779960341751575469970703125">
        <ele>1216.4000244140625</ele>
        <time>2022-05-03T10:52:44.000Z</time>
      </trkpt>
      <trkpt lat="40.77475301921367645263671875" lon="-1.57803132198750972747802734375">
        <ele>1216.5999755859375</ele>
        <time>2022-05-03T10:52:45.000Z</time>
      </trkpt>
      <trkpt lat="40.77472619712352752685546875" lon="-1.5780986286699771881103515625">
        <ele>1217.199951171875</ele>
        <time>2022-05-03T10:52:47.000Z</time>
      </trkpt>
      <trkpt lat="40.77469803392887115478515625" lon="-1.57816409133374691009521484375">
        <ele>1217.800048828125</ele>
        <time>2022-05-03T10:52:49.000Z</time>
      </trkpt>
      <trkpt lat="40.7746703736484050750732421875" lon="-1.57822762615978717803955078125">
        <ele>1218</ele>
        <time>2022-05-03T10:52:51.000Z</time>
      </trkpt>
      <trkpt lat="40.77464698813855648040771484375" lon="-1.5782924182713031768798828125">
        <ele>1218.4000244140625</ele>
        <time>2022-05-03T10:52:53.000Z</time>
      </trkpt>
      <trkpt lat="40.7746348343789577484130859375" lon="-1.5783235989511013031005859375">
        <ele>1218.4000244140625</ele>
        <time>2022-05-03T10:52:54.000Z</time>
      </trkpt>
      <trkpt lat="40.77462268061935901641845703125" lon="-1.57835352234542369842529296875">
        <ele>1218.5999755859375</ele>
        <time>2022-05-03T10:52:55.000Z</time>
      </trkpt>
      <trkpt lat="40.77459812164306640625" lon="-1.5784141235053539276123046875">
        <ele>1218.800048828125</ele>
        <time>2022-05-03T10:52:57.000Z</time>
      </trkpt>
      <trkpt lat="40.77457289211452007293701171875" lon="-1.578479669988155364990234375">
        <ele>1219.199951171875</ele>
        <time>2022-05-03T10:52:59.000Z</time>
      </trkpt>
      <trkpt lat="40.7745458185672760009765625" lon="-1.578546054661273956298828125">
        <ele>1219.4000244140625</ele>
        <time>2022-05-03T10:53:01.000Z</time>
      </trkpt>
      <trkpt lat="40.77453433535993099212646484375" lon="-1.57857815735042095184326171875">
        <ele>1219.5999755859375</ele>
        <time>2022-05-03T10:53:02.000Z</time>
      </trkpt>
      <trkpt lat="40.77452477999031543731689453125" lon="-1.5786082483828067779541015625">
        <ele>1219.800048828125</ele>
        <time>2022-05-03T10:53:03.000Z</time>
      </trkpt>
      <trkpt lat="40.77450047247111797332763671875" lon="-1.57866700552403926849365234375">
        <ele>1220</ele>
        <time>2022-05-03T10:53:05.000Z</time>
      </trkpt>
      <trkpt lat="40.7744775898754596710205078125" lon="-1.57872919924557209014892578125">
        <ele>1220.199951171875</ele>
        <time>2022-05-03T10:53:07.000Z</time>
      </trkpt>
      <trkpt lat="40.77445571310818195343017578125" lon="-1.57879122532904148101806640625">
        <ele>1220.5999755859375</ele>
        <time>2022-05-03T10:53:09.000Z</time>
      </trkpt>
      <trkpt lat="40.77443107031285762786865234375" lon="-1.57885258086025714874267578125">
        <ele>1220.800048828125</ele>
        <time>2022-05-03T10:53:11.000Z</time>
      </trkpt>
      <trkpt lat="40.77440743334591388702392578125" lon="-1.5789167024195194244384765625">
        <ele>1221.199951171875</ele>
        <time>2022-05-03T10:53:13.000Z</time>
      </trkpt>
      <trkpt lat="40.77438496984541416168212890625" lon="-1.5789783932268619537353515625">
        <ele>1221.4000244140625</ele>
        <time>2022-05-03T10:53:15.000Z</time>
      </trkpt>
      <trkpt lat="40.77437348663806915283203125" lon="-1.5790115855634212493896484375">
        <ele>1221.5999755859375</ele>
        <time>2022-05-03T10:53:16.000Z</time>
      </trkpt>
      <trkpt lat="40.774362087249755859375" lon="-1.579046286642551422119140625">
        <ele>1221.5999755859375</ele>
        <time>2022-05-03T10:53:17.000Z</time>
      </trkpt>
      <trkpt lat="40.774341635406017303466796875" lon="-1.5791161917150020599365234375">
        <ele>1222</ele>
        <time>2022-05-03T10:53:19.000Z</time>
      </trkpt>
      <trkpt lat="40.77431774698197841644287109375" lon="-1.57918383367359638214111328125">
        <ele>1222.199951171875</ele>
        <time>2022-05-03T10:53:21.000Z</time>
      </trkpt>
      <trkpt lat="40.77429578639566898345947265625" lon="-1.57924803905189037322998046875">
        <ele>1222.4000244140625</ele>
        <time>2022-05-03T10:53:23.000Z</time>
      </trkpt>
      <trkpt lat="40.77427650801837444305419921875" lon="-1.5793129988014698028564453125">
        <ele>1222.5999755859375</ele>
        <time>2022-05-03T10:53:25.000Z</time>
      </trkpt>
      <trkpt lat="40.77426678501069545745849609375" lon="-1.57934434711933135986328125">
        <ele>1222.800048828125</ele>
        <time>2022-05-03T10:53:26.000Z</time>
      </trkpt>
      <trkpt lat="40.77425555326044559478759765625" lon="-1.57937561161816120147705078125">
        <ele>1222.800048828125</ele>
        <time>2022-05-03T10:53:27.000Z</time>
      </trkpt>
      <trkpt lat="40.7742373645305633544921875" lon="-1.57943713478744029998779296875">
        <ele>1223.199951171875</ele>
        <time>2022-05-03T10:53:29.000Z</time>
      </trkpt>
      <trkpt lat="40.77421699650585651397705078125" lon="-1.579504273831844329833984375">
        <ele>1223.4000244140625</ele>
        <time>2022-05-03T10:53:31.000Z</time>
      </trkpt>
      <trkpt lat="40.77419587410986423492431640625" lon="-1.57957359217107295989990234375">
        <ele>1223.800048828125</ele>
        <time>2022-05-03T10:53:33.000Z</time>
      </trkpt>
      <trkpt lat="40.7741755060851573944091796875" lon="-1.57963939011096954345703125">
        <ele>1224.199951171875</ele>
        <time>2022-05-03T10:53:35.000Z</time>
      </trkpt>
      <trkpt lat="40.77415631152689456939697265625" lon="-1.57970644533634185791015625">
        <ele>1224.4000244140625</ele>
        <time>2022-05-03T10:53:37.000Z</time>
      </trkpt>
      <trkpt lat="40.7741372846066951751708984375" lon="-1.579772494733333587646484375">
        <ele>1224.800048828125</ele>
        <time>2022-05-03T10:53:39.000Z</time>
      </trkpt>
      <trkpt lat="40.77412026934325695037841796875" lon="-1.5798367001116275787353515625">
        <ele>1225.199951171875</ele>
        <time>2022-05-03T10:53:41.000Z</time>
      </trkpt>
      <trkpt lat="40.7741059362888336181640625" lon="-1.5799030847847461700439453125">
        <ele>1225.5999755859375</ele>
        <time>2022-05-03T10:53:43.000Z</time>
      </trkpt>
      <trkpt lat="40.77408757992088794708251953125" lon="-1.579970307648181915283203125">
        <ele>1225.800048828125</ele>
        <time>2022-05-03T10:53:45.000Z</time>
      </trkpt>
      <trkpt lat="40.7740688882768154144287109375" lon="-1.58004348166286945343017578125">
        <ele>1226</ele>
        <time>2022-05-03T10:53:47.000Z</time>
      </trkpt>
      <trkpt lat="40.7740527950227260589599609375" lon="-1.580115817487239837646484375">
        <ele>1226.199951171875</ele>
        <time>2022-05-03T10:53:49.000Z</time>
      </trkpt>
      <trkpt lat="40.7740367017686367034912109375" lon="-1.58019150607287883758544921875">
        <ele>1226.5999755859375</ele>
        <time>2022-05-03T10:53:51.000Z</time>
      </trkpt>
      <trkpt lat="40.774022452533245086669921875" lon="-1.58026610501110553741455078125">
        <ele>1226.800048828125</ele>
        <time>2022-05-03T10:53:53.000Z</time>
      </trkpt>
      <trkpt lat="40.7740071974694728851318359375" lon="-1.580339781939983367919921875">
        <ele>1227.199951171875</ele>
        <time>2022-05-03T10:53:55.000Z</time>
      </trkpt>
      <trkpt lat="40.77399931848049163818359375" lon="-1.58037557266652584075927734375">
        <ele>1227.4000244140625</ele>
        <time>2022-05-03T10:53:56.000Z</time>
      </trkpt>
      <trkpt lat="40.77399236150085926055908203125" lon="-1.580411531031131744384765625">
        <ele>1227.4000244140625</ele>
        <time>2022-05-03T10:53:57.000Z</time>
      </trkpt>
      <trkpt lat="40.77398163266479969024658203125" lon="-1.580484621226787567138671875">
        <ele>1227.800048828125</ele>
        <time>2022-05-03T10:53:59.000Z</time>
      </trkpt>
      <trkpt lat="40.773968808352947235107421875" lon="-1.580559723079204559326171875">
        <ele>1228.199951171875</ele>
        <time>2022-05-03T10:54:01.000Z</time>
      </trkpt>
      <trkpt lat="40.77395715750753879547119140625" lon="-1.580635495483875274658203125">
        <ele>1228.5999755859375</ele>
        <time>2022-05-03T10:54:03.000Z</time>
      </trkpt>
      <trkpt lat="40.77394642867147922515869140625" lon="-1.58071386627852916717529296875">
        <ele>1228.800048828125</ele>
        <time>2022-05-03T10:54:05.000Z</time>
      </trkpt>
      <trkpt lat="40.7739391364157199859619140625" lon="-1.580751836299896240234375">
        <ele>1228.800048828125</ele>
        <time>2022-05-03T10:54:06.000Z</time>
      </trkpt>
      <trkpt lat="40.77393217943608760833740234375" lon="-1.5807905606925487518310546875">
        <ele>1228.800048828125</ele>
        <time>2022-05-03T10:54:07.000Z</time>
      </trkpt>
      <trkpt lat="40.77392513863742351531982421875" lon="-1.58086926676332950592041015625">
        <ele>1229</ele>
        <time>2022-05-03T10:54:09.000Z</time>
      </trkpt>
      <trkpt lat="40.77391675673425197601318359375" lon="-1.5809441171586513519287109375">
        <ele>1229</ele>
        <time>2022-05-03T10:54:11.000Z</time>
      </trkpt>
      <trkpt lat="40.77391072176396846771240234375" lon="-1.58101863227784633636474609375">
        <ele>1229.199951171875</ele>
        <time>2022-05-03T10:54:13.000Z</time>
      </trkpt>
      <trkpt lat="40.77390837483108043670654296875" lon="-1.5810560993850231170654296875">
        <ele>1229.199951171875</ele>
        <time>2022-05-03T10:54:14.000Z</time>
      </trkpt>
      <trkpt lat="40.7739052735269069671630859375" lon="-1.5810936503112316131591796875">
        <ele>1229.199951171875</ele>
        <time>2022-05-03T10:54:15.000Z</time>
      </trkpt>
      <trkpt lat="40.77389915473759174346923828125" lon="-1.58116690814495086669921875">
        <ele>1229.4000244140625</ele>
        <time>2022-05-03T10:54:17.000Z</time>
      </trkpt>
      <trkpt lat="40.77389647252857685089111328125" lon="-1.5812388248741626739501953125">
        <ele>1229.5999755859375</ele>
        <time>2022-05-03T10:54:19.000Z</time>
      </trkpt>
      <trkpt lat="40.7738952152431011199951171875" lon="-1.581311412155628204345703125">
        <ele>1229.5999755859375</ele>
        <time>2022-05-03T10:54:21.000Z</time>
      </trkpt>
      <trkpt lat="40.7738948799669742584228515625" lon="-1.58134770579636096954345703125">
        <ele>1229.800048828125</ele>
        <time>2022-05-03T10:54:22.000Z</time>
      </trkpt>
      <trkpt lat="40.77389479614794254302978515625" lon="-1.5813839994370937347412109375">
        <ele>1229.800048828125</ele>
        <time>2022-05-03T10:54:23.000Z</time>
      </trkpt>
      <trkpt lat="40.77389471232891082763671875" lon="-1.58141995780169963836669921875">
        <ele>1230</ele>
        <time>2022-05-03T10:54:24.000Z</time>
      </trkpt>
      <trkpt lat="40.773895047605037689208984375" lon="-1.58145532943308353424072265625">
        <ele>1230</ele>
        <time>2022-05-03T10:54:25.000Z</time>
      </trkpt>
      <trkpt lat="40.77389244921505451202392578125" lon="-1.5815248154103755950927734375">
        <ele>1230.199951171875</ele>
        <time>2022-05-03T10:54:27.000Z</time>
      </trkpt>
      <trkpt lat="40.7738918624818325042724609375" lon="-1.5815942175686359405517578125">
        <ele>1230.199951171875</ele>
        <time>2022-05-03T10:54:29.000Z</time>
      </trkpt>
      <trkpt lat="40.77389412559568881988525390625" lon="-1.5816652961075305938720703125">
        <ele>1230.199951171875</ele>
        <time>2022-05-03T10:54:31.000Z</time>
      </trkpt>
      <trkpt lat="40.77389848418533802032470703125" lon="-1.58173595555126667022705078125">
        <ele>1230.4000244140625</ele>
        <time>2022-05-03T10:54:33.000Z</time>
      </trkpt>
      <trkpt lat="40.7739015854895114898681640625" lon="-1.5818072855472564697265625">
        <ele>1230.5999755859375</ele>
        <time>2022-05-03T10:54:35.000Z</time>
      </trkpt>
      <trkpt lat="40.77390485443174839019775390625" lon="-1.58184274099767208099365234375">
        <ele>1230.5999755859375</ele>
        <time>2022-05-03T10:54:36.000Z</time>
      </trkpt>
      <trkpt lat="40.77390770427882671356201171875" lon="-1.58187811262905597686767578125">
        <ele>1230.5999755859375</ele>
        <time>2022-05-03T10:54:37.000Z</time>
      </trkpt>
      <trkpt lat="40.77390946447849273681640625" lon="-1.5819502808153629302978515625">
        <ele>1230.800048828125</ele>
        <time>2022-05-03T10:54:39.000Z</time>
      </trkpt>
      <trkpt lat="40.77391625382006168365478515625" lon="-1.5820213593542575836181640625">
        <ele>1230.800048828125</ele>
        <time>2022-05-03T10:54:41.000Z</time>
      </trkpt>
      <trkpt lat="40.77392010949552059173583984375" lon="-1.58205647952854633331298828125">
        <ele>1231</ele>
        <time>2022-05-03T10:54:42.000Z</time>
      </trkpt>
      <trkpt lat="40.773923881351947784423828125" lon="-1.58209185115993022918701171875">
        <ele>1231</ele>
        <time>2022-05-03T10:54:43.000Z</time>
      </trkpt>
      <trkpt lat="40.773927234113216400146484375" lon="-1.582126803696155548095703125">
        <ele>1231</ele>
        <time>2022-05-03T10:54:44.000Z</time>
      </trkpt>
      <trkpt lat="40.77393117360770702362060546875" lon="-1.58216209150850772857666015625">
        <ele>1231.199951171875</ele>
        <time>2022-05-03T10:54:45.000Z</time>
      </trkpt>
      <trkpt lat="40.77394022606313228607177734375" lon="-1.58223166130483150482177734375">
        <ele>1231.4000244140625</ele>
        <time>2022-05-03T10:54:47.000Z</time>
      </trkpt>
      <trkpt lat="40.7739503681659698486328125" lon="-1.582302153110504150390625">
        <ele>1231.4000244140625</ele>
        <time>2022-05-03T10:54:49.000Z</time>
      </trkpt>
      <trkpt lat="40.77396101318299770355224609375" lon="-1.5823740698397159576416015625">
        <ele>1231.4000244140625</ele>
        <time>2022-05-03T10:54:51.000Z</time>
      </trkpt>
      <trkpt lat="40.7739664614200592041015625" lon="-1.58241086639463901519775390625">
        <ele>1231.4000244140625</ele>
        <time>2022-05-03T10:54:52.000Z</time>
      </trkpt>
      <trkpt lat="40.77397174201905727386474609375" lon="-1.582447998225688934326171875">
        <ele>1231.4000244140625</ele>
        <time>2022-05-03T10:54:53.000Z</time>
      </trkpt>
      <trkpt lat="40.77398498542606830596923828125" lon="-1.582522429525852203369140625">
        <ele>1231.199951171875</ele>
        <time>2022-05-03T10:54:55.000Z</time>
      </trkpt>
      <trkpt lat="40.773998312652111053466796875" lon="-1.58259677700698375701904296875">
        <ele>1231.199951171875</ele>
        <time>2022-05-03T10:54:57.000Z</time>
      </trkpt>
      <trkpt lat="40.7740108855068683624267578125" lon="-1.58267087303102016448974609375">
        <ele>1231.199951171875</ele>
        <time>2022-05-03T10:54:59.000Z</time>
      </trkpt>
      <trkpt lat="40.7740266434848308563232421875" lon="-1.58274807035923004150390625">
        <ele>1231.199951171875</ele>
        <time>2022-05-03T10:55:01.000Z</time>
      </trkpt>
      <trkpt lat="40.77404181472957134246826171875" lon="-1.58282727934420108795166015625">
        <ele>1231.199951171875</ele>
        <time>2022-05-03T10:55:03.000Z</time>
      </trkpt>
      <trkpt lat="40.7740574888885021209716796875" lon="-1.58290741033852100372314453125">
        <ele>1231.199951171875</ele>
        <time>2022-05-03T10:55:05.000Z</time>
      </trkpt>
      <trkpt lat="40.77407442033290863037109375" lon="-1.582989133894443511962890625">
        <ele>1231.199951171875</ele>
        <time>2022-05-03T10:55:07.000Z</time>
      </trkpt>
      <trkpt lat="40.774094201624393463134765625" lon="-1.58307404257357120513916015625">
        <ele>1231</ele>
        <time>2022-05-03T10:55:09.000Z</time>
      </trkpt>
      <trkpt lat="40.77411255799233913421630859375" lon="-1.58316113054752349853515625">
        <ele>1230.800048828125</ele>
        <time>2022-05-03T10:55:11.000Z</time>
      </trkpt>
      <trkpt lat="40.77413141727447509765625" lon="-1.5832488052546977996826171875">
        <ele>1231</ele>
        <time>2022-05-03T10:55:13.000Z</time>
      </trkpt>
      <trkpt lat="40.77415195293724536895751953125" lon="-1.583335138857364654541015625">
        <ele>1231.4000244140625</ele>
        <time>2022-05-03T10:55:15.000Z</time>
      </trkpt>
      <trkpt lat="40.77417190186679363250732421875" lon="-1.58342306502163410186767578125">
        <ele>1231.5999755859375</ele>
        <time>2022-05-03T10:55:17.000Z</time>
      </trkpt>
      <trkpt lat="40.7741922698915004730224609375" lon="-1.5835104882717132568359375">
        <ele>1232</ele>
        <time>2022-05-03T10:55:19.000Z</time>
      </trkpt>
      <trkpt lat="40.77421297319233417510986328125" lon="-1.58359606750309467315673828125">
        <ele>1232.199951171875</ele>
        <time>2022-05-03T10:55:21.000Z</time>
      </trkpt>
      <trkpt lat="40.774230323731899261474609375" lon="-1.5836833231151103973388671875">
        <ele>1232.4000244140625</ele>
        <time>2022-05-03T10:55:23.000Z</time>
      </trkpt>
      <trkpt lat="40.774247758090496063232421875" lon="-1.58376554958522319793701171875">
        <ele>1232.199951171875</ele>
        <time>2022-05-03T10:55:25.000Z</time>
      </trkpt>
      <trkpt lat="40.77426309697329998016357421875" lon="-1.583844758570194244384765625">
        <ele>1232</ele>
        <time>2022-05-03T10:55:27.000Z</time>
      </trkpt>
      <trkpt lat="40.7742797769606113433837890625" lon="-1.5839233808219432830810546875">
        <ele>1231.800048828125</ele>
        <time>2022-05-03T10:55:29.000Z</time>
      </trkpt>
      <trkpt lat="40.7742958702147006988525390625" lon="-1.58400074578821659088134765625">
        <ele>1231.5999755859375</ele>
        <time>2022-05-03T10:55:31.000Z</time>
      </trkpt>
      <trkpt lat="40.77431238256394863128662109375" lon="-1.58407987095415592193603515625">
        <ele>1231.5999755859375</ele>
        <time>2022-05-03T10:55:33.000Z</time>
      </trkpt>
      <trkpt lat="40.77433115802705287933349609375" lon="-1.5841560624539852142333984375">
        <ele>1231.5999755859375</ele>
        <time>2022-05-03T10:55:35.000Z</time>
      </trkpt>
      <trkpt lat="40.7743414677679538726806640625" lon="-1.5841952897608280181884765625">
        <ele>1231.5999755859375</ele>
        <time>2022-05-03T10:55:36.000Z</time>
      </trkpt>
      <trkpt lat="40.77435043640434741973876953125" lon="-1.58423401415348052978515625">
        <ele>1231.5999755859375</ele>
        <time>2022-05-03T10:55:37.000Z</time>
      </trkpt>
      <trkpt lat="40.77436468563973903656005859375" lon="-1.5843092836439609527587890625">
        <ele>1231.800048828125</ele>
        <time>2022-05-03T10:55:39.000Z</time>
      </trkpt>
      <trkpt lat="40.77438111416995525360107421875" lon="-1.5843817032873630523681640625">
        <ele>1232</ele>
        <time>2022-05-03T10:55:41.000Z</time>
      </trkpt>
      <trkpt lat="40.7743904180824756622314453125" lon="-1.58441749401390552520751953125">
        <ele>1232</ele>
        <time>2022-05-03T10:55:42.000Z</time>
      </trkpt>
      <trkpt lat="40.77439988963305950164794921875" lon="-1.58445261418819427490234375">
        <ele>1232.199951171875</ele>
        <time>2022-05-03T10:55:43.000Z</time>
      </trkpt>
      <trkpt lat="40.77440843917429447174072265625" lon="-1.584488488733768463134765625">
        <ele>1232.4000244140625</ele>
        <time>2022-05-03T10:55:44.000Z</time>
      </trkpt>
      <trkpt lat="40.77441698871552944183349609375" lon="-1.58452528528869152069091796875">
        <ele>1232.4000244140625</ele>
        <time>2022-05-03T10:55:45.000Z</time>
      </trkpt>
      <trkpt lat="40.774432159960269927978515625" lon="-1.58459938131272792816162109375">
        <ele>1232.800048828125</ele>
        <time>2022-05-03T10:55:47.000Z</time>
      </trkpt>
      <trkpt lat="40.77444733120501041412353515625" lon="-1.58467398025095462799072265625">
        <ele>1233</ele>
        <time>2022-05-03T10:55:49.000Z</time>
      </trkpt>
      <trkpt lat="40.77446401119232177734375" lon="-1.58474757336080074310302734375">
        <ele>1233.4000244140625</ele>
        <time>2022-05-03T10:55:51.000Z</time>
      </trkpt>
      <trkpt lat="40.77447968535125255584716796875" lon="-1.58481982536613941192626953125">
        <ele>1233.5999755859375</ele>
        <time>2022-05-03T10:55:53.000Z</time>
      </trkpt>
      <trkpt lat="40.77448722906410694122314453125" lon="-1.58485687337815761566162109375">
        <ele>1233.800048828125</ele>
        <time>2022-05-03T10:55:54.000Z</time>
      </trkpt>
      <trkpt lat="40.7744946889579296112060546875" lon="-1.584894172847270965576171875">
        <ele>1233.800048828125</ele>
        <time>2022-05-03T10:55:55.000Z</time>
      </trkpt>
      <trkpt lat="40.77451103366911411285400390625" lon="-1.5849677659571170806884765625">
        <ele>1234</ele>
        <time>2022-05-03T10:55:57.000Z</time>
      </trkpt>
      <trkpt lat="40.77452771365642547607421875" lon="-1.585038006305694580078125">
        <ele>1234.199951171875</ele>
        <time>2022-05-03T10:55:59.000Z</time>
      </trkpt>
      <trkpt lat="40.77453534118831157684326171875" lon="-1.58507220447063446044921875">
        <ele>1234.4000244140625</ele>
        <time>2022-05-03T10:56:00.000Z</time>
      </trkpt>
      <trkpt lat="40.7745431363582611083984375" lon="-1.58510648645460605621337890625">
        <ele>1234.5999755859375</ele>
        <time>2022-05-03T10:56:01.000Z</time>
      </trkpt>
      <trkpt lat="40.774558223783969879150390625" lon="-1.58517672680318355560302734375">
        <ele>1234.800048828125</ele>
        <time>2022-05-03T10:56:03.000Z</time>
      </trkpt>
      <trkpt lat="40.7745728082954883575439453125" lon="-1.58524596132338047027587890625">
        <ele>1235.199951171875</ele>
        <time>2022-05-03T10:56:05.000Z</time>
      </trkpt>
      <trkpt lat="40.77457909472286701202392578125" lon="-1.58528066240251064300537109375">
        <ele>1235.199951171875</ele>
        <time>2022-05-03T10:56:06.000Z</time>
      </trkpt>
      <trkpt lat="40.77458512969315052032470703125" lon="-1.58531494438648223876953125">
        <ele>1235.4000244140625</ele>
        <time>2022-05-03T10:56:07.000Z</time>
      </trkpt>
      <trkpt lat="40.77459937892854213714599609375" lon="-1.5853821672499179840087890625">
        <ele>1235.5999755859375</ele>
        <time>2022-05-03T10:56:09.000Z</time>
      </trkpt>
      <trkpt lat="40.774614550173282623291015625" lon="-1.58544913865625858306884765625">
        <ele>1236</ele>
        <time>2022-05-03T10:56:11.000Z</time>
      </trkpt>
      <trkpt lat="40.774629972875118255615234375" lon="-1.58551803790032863616943359375">
        <ele>1236.199951171875</ele>
        <time>2022-05-03T10:56:13.000Z</time>
      </trkpt>
      <trkpt lat="40.7746448926627635955810546875" lon="-1.58558811061084270477294921875">
        <ele>1236.5999755859375</ele>
        <time>2022-05-03T10:56:15.000Z</time>
      </trkpt>
      <trkpt lat="40.7746512629091739654541015625" lon="-1.585623063147068023681640625">
        <ele>1236.5999755859375</ele>
        <time>2022-05-03T10:56:16.000Z</time>
      </trkpt>
      <trkpt lat="40.77465889044106006622314453125" lon="-1.58565700985491275787353515625">
        <ele>1236.800048828125</ele>
        <time>2022-05-03T10:56:17.000Z</time>
      </trkpt>
      <trkpt lat="40.7746740616858005523681640625" lon="-1.5857268311083316802978515625">
        <ele>1237.199951171875</ele>
        <time>2022-05-03T10:56:19.000Z</time>
      </trkpt>
      <trkpt lat="40.7746906578540802001953125" lon="-1.58579782582819461822509765625">
        <ele>1237.5999755859375</ele>
        <time>2022-05-03T10:56:21.000Z</time>
      </trkpt>
      <trkpt lat="40.77469803392887115478515625" lon="-1.58583261072635650634765625">
        <ele>1237.800048828125</ele>
        <time>2022-05-03T10:56:22.000Z</time>
      </trkpt>
      <trkpt lat="40.77470465563237667083740234375" lon="-1.58586722798645496368408203125">
        <ele>1237.800048828125</ele>
        <time>2022-05-03T10:56:23.000Z</time>
      </trkpt>
      <trkpt lat="40.77471974305808544158935546875" lon="-1.58593679778277873992919921875">
        <ele>1238.199951171875</ele>
        <time>2022-05-03T10:56:25.000Z</time>
      </trkpt>
      <trkpt lat="40.77473214827477931976318359375" lon="-1.5860074572265148162841796875">
        <ele>1238.5999755859375</ele>
        <time>2022-05-03T10:56:27.000Z</time>
      </trkpt>
      <trkpt lat="40.77473717741668224334716796875" lon="-1.58604048192501068115234375">
        <ele>1238.800048828125</ele>
        <time>2022-05-03T10:56:28.000Z</time>
      </trkpt>
      <trkpt lat="40.774742625653743743896484375" lon="-1.58607291989028453826904296875">
        <ele>1239</ele>
        <time>2022-05-03T10:56:29.000Z</time>
      </trkpt>
      <trkpt lat="40.7747555337846279144287109375" lon="-1.5861365385353565216064453125">
        <ele>1239.199951171875</ele>
        <time>2022-05-03T10:56:31.000Z</time>
      </trkpt>
      <trkpt lat="40.77476936392486095428466796875" lon="-1.5862034261226654052734375">
        <ele>1239.5999755859375</ele>
        <time>2022-05-03T10:56:33.000Z</time>
      </trkpt>
      <trkpt lat="40.77478562481701374053955078125" lon="-1.58627274446189403533935546875">
        <ele>1240</ele>
        <time>2022-05-03T10:56:35.000Z</time>
      </trkpt>
      <trkpt lat="40.77479233033955097198486328125" lon="-1.586307696998119354248046875">
        <ele>1240.199951171875</ele>
        <time>2022-05-03T10:56:36.000Z</time>
      </trkpt>
      <trkpt lat="40.77479861676692962646484375" lon="-1.58634214662015438079833984375">
        <ele>1240.199951171875</ele>
        <time>2022-05-03T10:56:37.000Z</time>
      </trkpt>
      <trkpt lat="40.7748126983642578125" lon="-1.58641071058809757232666015625">
        <ele>1240.5999755859375</ele>
        <time>2022-05-03T10:56:39.000Z</time>
      </trkpt>
      <trkpt lat="40.77483122237026691436767578125" lon="-1.58647960983216762542724609375">
        <ele>1241</ele>
        <time>2022-05-03T10:56:41.000Z</time>
      </trkpt>
      <trkpt lat="40.77483910135924816131591796875" lon="-1.5865137241780757904052734375">
        <ele>1241.4000244140625</ele>
        <time>2022-05-03T10:56:42.000Z</time>
      </trkpt>
      <trkpt lat="40.77484513632953166961669921875" lon="-1.58654834143817424774169921875">
        <ele>1241.5999755859375</ele>
        <time>2022-05-03T10:56:43.000Z</time>
      </trkpt>
      <trkpt lat="40.7748574577271938323974609375" lon="-1.58661657012999057769775390625">
        <ele>1242</ele>
        <time>2022-05-03T10:56:45.000Z</time>
      </trkpt>
      <trkpt lat="40.77487430535256862640380859375" lon="-1.58668630756437778472900390625">
        <ele>1242.5999755859375</ele>
        <time>2022-05-03T10:56:47.000Z</time>
      </trkpt>
      <trkpt lat="40.77488352544605731964111328125" lon="-1.5867219306528568267822265625">
        <ele>1243</ele>
        <time>2022-05-03T10:56:48.000Z</time>
      </trkpt>
      <trkpt lat="40.77489140443503856658935546875" lon="-1.58675688318908214569091796875">
        <ele>1243.199951171875</ele>
        <time>2022-05-03T10:56:49.000Z</time>
      </trkpt>
      <trkpt lat="40.77490816824138164520263671875" lon="-1.5868225134909152984619140625">
        <ele>1243.5999755859375</ele>
        <time>2022-05-03T10:56:51.000Z</time>
      </trkpt>
      <trkpt lat="40.77491923235356807708740234375" lon="-1.58688529394567012786865234375">
        <ele>1244.199951171875</ele>
        <time>2022-05-03T10:56:53.000Z</time>
      </trkpt>
      <trkpt lat="40.774931721389293670654296875" lon="-1.58694882877171039581298828125">
        <ele>1244.5999755859375</ele>
        <time>2022-05-03T10:56:55.000Z</time>
      </trkpt>
      <trkpt lat="40.7749396003782749176025390625" lon="-1.5869807638227939605712890625">
        <ele>1245</ele>
        <time>2022-05-03T10:56:56.000Z</time>
      </trkpt>
      <trkpt lat="40.77494538389146327972412109375" lon="-1.58701387234032154083251953125">
        <ele>1245.199951171875</ele>
        <time>2022-05-03T10:56:57.000Z</time>
      </trkpt>
      <trkpt lat="40.77495745383203029632568359375" lon="-1.5870793350040912628173828125">
        <ele>1245.5999755859375</ele>
        <time>2022-05-03T10:56:59.000Z</time>
      </trkpt>
      <trkpt lat="40.7749727927148342132568359375" lon="-1.58714379183948040008544921875">
        <ele>1246.199951171875</ele>
        <time>2022-05-03T10:57:01.000Z</time>
      </trkpt>
      <trkpt lat="40.77497958205640316009521484375" lon="-1.58717614598572254180908203125">
        <ele>1246.4000244140625</ele>
        <time>2022-05-03T10:57:02.000Z</time>
      </trkpt>
      <trkpt lat="40.77498796395957469940185546875" lon="-1.5872080810368061065673828125">
        <ele>1246.5999755859375</ele>
        <time>2022-05-03T10:57:03.000Z</time>
      </trkpt>
      <trkpt lat="40.77500187791883945465087890625" lon="-1.587274968624114990234375">
        <ele>1247.199951171875</ele>
        <time>2022-05-03T10:57:05.000Z</time>
      </trkpt>
      <trkpt lat="40.7750096730887889862060546875" lon="-1.5873089991509914398193359375">
        <ele>1247.4000244140625</ele>
        <time>2022-05-03T10:57:06.000Z</time>
      </trkpt>
      <trkpt lat="40.7750180549919605255126953125" lon="-1.5873431973159313201904296875">
        <ele>1247.800048828125</ele>
        <time>2022-05-03T10:57:07.000Z</time>
      </trkpt>
      <trkpt lat="40.77503196895122528076171875" lon="-1.587413437664508819580078125">
        <ele>1248</ele>
        <time>2022-05-03T10:57:09.000Z</time>
      </trkpt>
      <trkpt lat="40.77504462562501430511474609375" lon="-1.58748610876500606536865234375">
        <ele>1248.199951171875</ele>
        <time>2022-05-03T10:57:11.000Z</time>
      </trkpt>
      <trkpt lat="40.77505149878561496734619140625" lon="-1.5875229053199291229248046875">
        <ele>1248.4000244140625</ele>
        <time>2022-05-03T10:57:12.000Z</time>
      </trkpt>
      <trkpt lat="40.77505879104137420654296875" lon="-1.5875591151416301727294921875">
        <ele>1248.5999755859375</ele>
        <time>2022-05-03T10:57:13.000Z</time>
      </trkpt>
      <trkpt lat="40.7750733755528926849365234375" lon="-1.58762977458536624908447265625">
        <ele>1248.800048828125</ele>
        <time>2022-05-03T10:57:15.000Z</time>
      </trkpt>
      <trkpt lat="40.7750864513218402862548828125" lon="-1.58770118840038776397705078125">
        <ele>1249.199951171875</ele>
        <time>2022-05-03T10:57:17.000Z</time>
      </trkpt>
      <trkpt lat="40.7750938273966312408447265625" lon="-1.5877374820411205291748046875">
        <ele>1249.4000244140625</ele>
        <time>2022-05-03T10:57:18.000Z</time>
      </trkpt>
      <trkpt lat="40.77510095201432704925537109375" lon="-1.58777528442442417144775390625">
        <ele>1249.4000244140625</ele>
        <time>2022-05-03T10:57:19.000Z</time>
      </trkpt>
      <trkpt lat="40.775115787982940673828125" lon="-1.58785340376198291778564453125">
        <ele>1249.5999755859375</ele>
        <time>2022-05-03T10:57:21.000Z</time>
      </trkpt>
      <trkpt lat="40.77513079158961772918701171875" lon="-1.587937138974666595458984375">
        <ele>1249.4000244140625</ele>
        <time>2022-05-03T10:57:23.000Z</time>
      </trkpt>
      <trkpt lat="40.77514705248177051544189453125" lon="-1.58802757970988750457763671875">
        <ele>1249.4000244140625</ele>
        <time>2022-05-03T10:57:25.000Z</time>
      </trkpt>
      <trkpt lat="40.77516180463135242462158203125" lon="-1.588120870292186737060546875">
        <ele>1249.4000244140625</ele>
        <time>2022-05-03T10:57:27.000Z</time>
      </trkpt>
      <trkpt lat="40.7751695998013019561767578125" lon="-1.58816822804510593414306640625">
        <ele>1249.4000244140625</ele>
        <time>2022-05-03T10:57:28.000Z</time>
      </trkpt>
      <trkpt lat="40.77517814934253692626953125" lon="-1.58821575343608856201171875">
        <ele>1249.4000244140625</ele>
        <time>2022-05-03T10:57:29.000Z</time>
      </trkpt>
      <trkpt lat="40.77519549988210201263427734375" lon="-1.5883143246173858642578125">
        <ele>1249.199951171875</ele>
        <time>2022-05-03T10:57:31.000Z</time>
      </trkpt>
      <trkpt lat="40.77521293424069881439208984375" lon="-1.58841566182672977447509765625">
        <ele>1249.199951171875</ele>
        <time>2022-05-03T10:57:33.000Z</time>
      </trkpt>
      <trkpt lat="40.775230117142200469970703125" lon="-1.588521860539913177490234375">
        <ele>1249</ele>
        <time>2022-05-03T10:57:35.000Z</time>
      </trkpt>
      <trkpt lat="40.77524721622467041015625" lon="-1.58863015472888946533203125">
        <ele>1248.5999755859375</ele>
        <time>2022-05-03T10:57:37.000Z</time>
      </trkpt>
      <trkpt lat="40.77525685541331768035888671875" lon="-1.58868572674691677093505859375">
        <ele>1248.4000244140625</ele>
        <time>2022-05-03T10:57:38.000Z</time>
      </trkpt>
      <trkpt lat="40.77526590786874294281005859375" lon="-1.58874012529850006103515625">
        <ele>1248.4000244140625</ele>
        <time>2022-05-03T10:57:39.000Z</time>
      </trkpt>
      <trkpt lat="40.77528384514153003692626953125" lon="-1.5888579748570919036865234375">
        <ele>1248</ele>
        <time>2022-05-03T10:57:41.000Z</time>
      </trkpt>
      <trkpt lat="40.77530195005238056182861328125" lon="-1.5889853797852993011474609375">
        <ele>1247.5999755859375</ele>
        <time>2022-05-03T10:57:43.000Z</time>
      </trkpt>
      <trkpt lat="40.7753211446106433868408203125" lon="-1.58912259154021739959716796875">
        <ele>1247.199951171875</ele>
        <time>2022-05-03T10:57:45.000Z</time>
      </trkpt>
      <trkpt lat="40.77533078379929065704345703125" lon="-1.5891935862600803375244140625">
        <ele>1246.800048828125</ele>
        <time>2022-05-03T10:57:46.000Z</time>
      </trkpt>
      <trkpt lat="40.77534134499728679656982421875" lon="-1.58926625736057758331298828125">
        <ele>1246.5999755859375</ele>
        <time>2022-05-03T10:57:47.000Z</time>
      </trkpt>
      <trkpt lat="40.7753630541265010833740234375" lon="-1.58942031674087047576904296875">
        <ele>1245.800048828125</ele>
        <time>2022-05-03T10:57:49.000Z</time>
      </trkpt>
      <trkpt lat="40.77538560144603252410888671875" lon="-1.58958527259528636932373046875">
        <ele>1244.800048828125</ele>
        <time>2022-05-03T10:57:51.000Z</time>
      </trkpt>
      <trkpt lat="40.775407813489437103271484375" lon="-1.58976129256188869476318359375">
        <ele>1244</ele>
        <time>2022-05-03T10:57:53.000Z</time>
      </trkpt>
      <trkpt lat="40.77542885206639766693115234375" lon="-1.58995390869677066802978515625">
        <ele>1242.800048828125</ele>
        <time>2022-05-03T10:57:55.000Z</time>
      </trkpt>
      <trkpt lat="40.7754389941692352294921875" lon="-1.590055413544178009033203125">
        <ele>1242.199951171875</ele>
        <time>2022-05-03T10:57:56.000Z</time>
      </trkpt>
      <trkpt lat="40.7754502259194850921630859375" lon="-1.5901596844196319580078125">
        <ele>1241.800048828125</ele>
        <time>2022-05-03T10:57:57.000Z</time>
      </trkpt>
      <trkpt lat="40.7754738628864288330078125" lon="-1.59037761390209197998046875">
        <ele>1240.5999755859375</ele>
        <time>2022-05-03T10:57:59.000Z</time>
      </trkpt>
      <trkpt lat="40.775498338043689727783203125" lon="-1.59060803242027759552001953125">
        <ele>1239.4000244140625</ele>
        <time>2022-05-03T10:58:01.000Z</time>
      </trkpt>
      <trkpt lat="40.77551132999360561370849609375" lon="-1.59072638489305973052978515625">
        <ele>1238.800048828125</ele>
        <time>2022-05-03T10:58:02.000Z</time>
      </trkpt>
      <trkpt lat="40.77552541159093379974365234375" lon="-1.59084725193679332733154296875">
        <ele>1237.800048828125</ele>
        <time>2022-05-03T10:58:03.000Z</time>
      </trkpt>
      <trkpt lat="40.7755528204143047332763671875" lon="-1.5910957753658294677734375">
        <ele>1236</ele>
        <time>2022-05-03T10:58:05.000Z</time>
      </trkpt>
      <trkpt lat="40.775566734373569488525390625" lon="-1.5912236832082271575927734375">
        <ele>1235.199951171875</ele>
        <time>2022-05-03T10:58:06.000Z</time>
      </trkpt>
      <trkpt lat="40.77557989396154880523681640625" lon="-1.59135418944060802459716796875">
        <ele>1234.199951171875</ele>
        <time>2022-05-03T10:58:07.000Z</time>
      </trkpt>
      <trkpt lat="40.77560889534652233123779296875" lon="-1.59162215888500213623046875">
        <ele>1232.4000244140625</ele>
        <time>2022-05-03T10:58:09.000Z</time>
      </trkpt>
      <trkpt lat="40.7756403274834156036376953125" lon="-1.59189985133707523345947265625">
        <ele>1231.199951171875</ele>
        <time>2022-05-03T10:58:11.000Z</time>
      </trkpt>
      <trkpt lat="40.7756560854613780975341796875" lon="-1.59204284660518169403076171875">
        <ele>1230.4000244140625</ele>
        <time>2022-05-03T10:58:12.000Z</time>
      </trkpt>
      <trkpt lat="40.7756723463535308837890625" lon="-1.5921869315207004547119140625">
        <ele>1229.800048828125</ele>
        <time>2022-05-03T10:58:13.000Z</time>
      </trkpt>
      <trkpt lat="40.77568911015987396240234375" lon="-1.59233202226459980010986328125">
        <ele>1229.199951171875</ele>
        <time>2022-05-03T10:58:14.000Z</time>
      </trkpt>
      <trkpt lat="40.77570511959493160247802734375" lon="-1.5924779511988162994384765625">
        <ele>1228.800048828125</ele>
        <time>2022-05-03T10:58:15.000Z</time>
      </trkpt>
      <trkpt lat="40.775720961391925811767578125" lon="-1.59262538887560367584228515625">
        <ele>1228.5999755859375</ele>
        <time>2022-05-03T10:58:16.000Z</time>
      </trkpt>
      <trkpt lat="40.7757368870079517364501953125" lon="-1.59277148544788360595703125">
        <ele>1228.199951171875</ele>
        <time>2022-05-03T10:58:17.000Z</time>
      </trkpt>
      <trkpt lat="40.7757528126239776611328125" lon="-1.592916660010814666748046875">
        <ele>1227.800048828125</ele>
        <time>2022-05-03T10:58:18.000Z</time>
      </trkpt>
      <trkpt lat="40.77576823532581329345703125" lon="-1.59306141547858715057373046875">
        <ele>1227.5999755859375</ele>
        <time>2022-05-03T10:58:19.000Z</time>
      </trkpt>
      <trkpt lat="40.77579773962497711181640625" lon="-1.593347489833831787109375">
        <ele>1227.5999755859375</ele>
        <time>2022-05-03T10:58:21.000Z</time>
      </trkpt>
      <trkpt lat="40.77581324614584445953369140625" lon="-1.59348805435001850128173828125">
        <ele>1227.5999755859375</ele>
        <time>2022-05-03T10:58:22.000Z</time>
      </trkpt>
      <trkpt lat="40.77582917176187038421630859375" lon="-1.5936262719333171844482421875">
        <ele>1227.800048828125</ele>
        <time>2022-05-03T10:58:23.000Z</time>
      </trkpt>
      <trkpt lat="40.77585884369909763336181640625" lon="-1.59389407373964786529541015625">
        <ele>1228</ele>
        <time>2022-05-03T10:58:25.000Z</time>
      </trkpt>
      <trkpt lat="40.77588449232280254364013671875" lon="-1.5941499732434749603271484375">
        <ele>1227.800048828125</ele>
        <time>2022-05-03T10:58:27.000Z</time>
      </trkpt>
      <trkpt lat="40.77591081149876117706298828125" lon="-1.59439614973962306976318359375">
        <ele>1227.5999755859375</ele>
        <time>2022-05-03T10:58:29.000Z</time>
      </trkpt>
      <trkpt lat="40.77592371962964534759521484375" lon="-1.59451584331691265106201171875">
        <ele>1227.4000244140625</ele>
        <time>2022-05-03T10:58:30.000Z</time>
      </trkpt>
      <trkpt lat="40.77593679539859294891357421875" lon="-1.59463335759937763214111328125">
        <ele>1227.199951171875</ele>
        <time>2022-05-03T10:58:31.000Z</time>
      </trkpt>
      <trkpt lat="40.77596227638423442840576171875" lon="-1.59486084245145320892333984375">
        <ele>1227</ele>
        <time>2022-05-03T10:58:33.000Z</time>
      </trkpt>
      <trkpt lat="40.77598624862730503082275390625" lon="-1.5950788557529449462890625">
        <ele>1227.199951171875</ele>
        <time>2022-05-03T10:58:35.000Z</time>
      </trkpt>
      <trkpt lat="40.77600887976586818695068359375" lon="-1.5952882356941699981689453125">
        <ele>1227.5999755859375</ele>
        <time>2022-05-03T10:58:37.000Z</time>
      </trkpt>
      <trkpt lat="40.7760309241712093353271484375" lon="-1.59548764117062091827392578125">
        <ele>1227.800048828125</ele>
        <time>2022-05-03T10:58:39.000Z</time>
      </trkpt>
      <trkpt lat="40.7760517112910747528076171875" lon="-1.595678664743900299072265625">
        <ele>1228</ele>
        <time>2022-05-03T10:58:41.000Z</time>
      </trkpt>
      <trkpt lat="40.77607124112546443939208984375" lon="-1.5958607196807861328125">
        <ele>1228.4000244140625</ele>
        <time>2022-05-03T10:58:43.000Z</time>
      </trkpt>
      <trkpt lat="40.7760909385979175567626953125" lon="-1.5960342250764369964599609375">
        <ele>1228.800048828125</ele>
        <time>2022-05-03T10:58:45.000Z</time>
      </trkpt>
      <trkpt lat="40.77610979788005352020263671875" lon="-1.59620228223502635955810546875">
        <ele>1229</ele>
        <time>2022-05-03T10:58:47.000Z</time>
      </trkpt>
      <trkpt lat="40.77612739987671375274658203125" lon="-1.59636522643268108367919921875">
        <ele>1229.199951171875</ele>
        <time>2022-05-03T10:58:49.000Z</time>
      </trkpt>
      <trkpt lat="40.7761445827782154083251953125" lon="-1.59652532078325748443603515625">
        <ele>1229.199951171875</ele>
        <time>2022-05-03T10:58:51.000Z</time>
      </trkpt>
      <trkpt lat="40.7761610113084316253662109375" lon="-1.59668147563934326171875">
        <ele>1229.4000244140625</ele>
        <time>2022-05-03T10:58:53.000Z</time>
      </trkpt>
      <trkpt lat="40.77617785893380641937255859375" lon="-1.596831344068050384521484375">
        <ele>1229.4000244140625</ele>
        <time>2022-05-03T10:58:55.000Z</time>
      </trkpt>
      <trkpt lat="40.7761948741972446441650390625" lon="-1.59697442315518856048583984375">
        <ele>1229.4000244140625</ele>
        <time>2022-05-03T10:58:57.000Z</time>
      </trkpt>
      <trkpt lat="40.7762109674513339996337890625" lon="-1.59711607731878757476806640625">
        <ele>1229.4000244140625</ele>
        <time>2022-05-03T10:58:59.000Z</time>
      </trkpt>
      <trkpt lat="40.77622530050575733184814453125" lon="-1.59726074896752834320068359375">
        <ele>1229.4000244140625</ele>
        <time>2022-05-03T10:59:01.000Z</time>
      </trkpt>
      <trkpt lat="40.7762434892356395721435546875" lon="-1.59740575589239597320556640625">
        <ele>1229.199951171875</ele>
        <time>2022-05-03T10:59:03.000Z</time>
      </trkpt>
      <trkpt lat="40.77625195495784282684326171875" lon="-1.5974796004593372344970703125">
        <ele>1228.800048828125</ele>
        <time>2022-05-03T10:59:04.000Z</time>
      </trkpt>
      <trkpt lat="40.77626033686101436614990234375" lon="-1.597554199397563934326171875">
        <ele>1228.800048828125</ele>
        <time>2022-05-03T10:59:05.000Z</time>
      </trkpt>
      <trkpt lat="40.77627643011510372161865234375" lon="-1.59770213998854160308837890625">
        <ele>1228.5999755859375</ele>
        <time>2022-05-03T10:59:07.000Z</time>
      </trkpt>
      <trkpt lat="40.7762934453785419464111328125" lon="-1.59784781746566295623779296875">
        <ele>1228.4000244140625</ele>
        <time>2022-05-03T10:59:09.000Z</time>
      </trkpt>
      <trkpt lat="40.7763078622519969940185546875" lon="-1.5979915671050548553466796875">
        <ele>1228.199951171875</ele>
        <time>2022-05-03T10:59:11.000Z</time>
      </trkpt>
      <trkpt lat="40.77632336877286434173583984375" lon="-1.59813112579286098480224609375">
        <ele>1228</ele>
        <time>2022-05-03T10:59:13.000Z</time>
      </trkpt>
      <trkpt lat="40.776336193084716796875" lon="-1.59826355986297130584716796875">
        <ele>1228.199951171875</ele>
        <time>2022-05-03T10:59:15.000Z</time>
      </trkpt>
      <trkpt lat="40.77634298242628574371337890625" lon="-1.59832742996513843536376953125">
        <ele>1228.4000244140625</ele>
        <time>2022-05-03T10:59:16.000Z</time>
      </trkpt>
      <trkpt lat="40.7763504423201084136962890625" lon="-1.59838912077248096466064453125">
        <ele>1228.5999755859375</ele>
        <time>2022-05-03T10:59:17.000Z</time>
      </trkpt>
      <trkpt lat="40.7763645239174365997314453125" lon="-1.5985105745494365692138671875">
        <ele>1228.800048828125</ele>
        <time>2022-05-03T10:59:19.000Z</time>
      </trkpt>
      <trkpt lat="40.7763782702386379241943359375" lon="-1.59863001666963100433349609375">
        <ele>1229</ele>
        <time>2022-05-03T10:59:21.000Z</time>
      </trkpt>
      <trkpt lat="40.7763923518359661102294921875" lon="-1.598749123513698577880859375">
        <ele>1229.4000244140625</ele>
        <time>2022-05-03T10:59:23.000Z</time>
      </trkpt>
      <trkpt lat="40.77639914117753505706787109375" lon="-1.598808802664279937744140625">
        <ele>1229.5999755859375</ele>
        <time>2022-05-03T10:59:24.000Z</time>
      </trkpt>
      <trkpt lat="40.77640601433813571929931640625" lon="-1.59886755980551242828369140625">
        <ele>1229.5999755859375</ele>
        <time>2022-05-03T10:59:25.000Z</time>
      </trkpt>
      <trkpt lat="40.77641875483095645904541015625" lon="-1.5989833138883113861083984375">
        <ele>1230</ele>
        <time>2022-05-03T10:59:27.000Z</time>
      </trkpt>
      <trkpt lat="40.776424705982208251953125" lon="-1.59903989173471927642822265625">
        <ele>1230</ele>
        <time>2022-05-03T10:59:28.000Z</time>
      </trkpt>
      <trkpt lat="40.77643132768571376800537109375" lon="-1.59909588284790515899658203125">
        <ele>1230.199951171875</ele>
        <time>2022-05-03T10:59:29.000Z</time>
      </trkpt>
      <trkpt lat="40.77644406817853450775146484375" lon="-1.59920744597911834716796875">
        <ele>1230.4000244140625</ele>
        <time>2022-05-03T10:59:31.000Z</time>
      </trkpt>
      <trkpt lat="40.776450522243976593017578125" lon="-1.5992622636258602142333984375">
        <ele>1230.5999755859375</ele>
        <time>2022-05-03T10:59:32.000Z</time>
      </trkpt>
      <trkpt lat="40.77645714394748210906982421875" lon="-1.5993165783584117889404296875">
        <ele>1230.800048828125</ele>
        <time>2022-05-03T10:59:33.000Z</time>
      </trkpt>
      <trkpt lat="40.77646887861192226409912109375" lon="-1.59942612983286380767822265625">
        <ele>1231</ele>
        <time>2022-05-03T10:59:35.000Z</time>
      </trkpt>
      <trkpt lat="40.7764808647334575653076171875" lon="-1.59953526221215724945068359375">
        <ele>1231.199951171875</ele>
        <time>2022-05-03T10:59:37.000Z</time>
      </trkpt>
      <trkpt lat="40.776492767035961151123046875" lon="-1.599646322429180145263671875">
        <ele>1231.5999755859375</ele>
        <time>2022-05-03T10:59:39.000Z</time>
      </trkpt>
      <trkpt lat="40.77649905346333980560302734375" lon="-1.599702648818492889404296875">
        <ele>1231.5999755859375</ele>
        <time>2022-05-03T10:59:40.000Z</time>
      </trkpt>
      <trkpt lat="40.7765056751668453216552734375" lon="-1.599758304655551910400390625">
        <ele>1231.800048828125</ele>
        <time>2022-05-03T10:59:41.000Z</time>
      </trkpt>
      <trkpt lat="40.776518248021602630615234375" lon="-1.59987020306289196014404296875">
        <ele>1232</ele>
        <time>2022-05-03T10:59:43.000Z</time>
      </trkpt>
      <trkpt lat="40.7765293121337890625" lon="-1.59998201765120029449462890625">
        <ele>1232.4000244140625</ele>
        <time>2022-05-03T10:59:45.000Z</time>
      </trkpt>
      <trkpt lat="40.7765418849885463714599609375" lon="-1.60009182058274745941162109375">
        <ele>1232.5999755859375</ele>
        <time>2022-05-03T10:59:47.000Z</time>
      </trkpt>
      <trkpt lat="40.77655420638620853424072265625" lon="-1.600200869143009185791015625">
        <ele>1232.800048828125</ele>
        <time>2022-05-03T10:59:49.000Z</time>
      </trkpt>
      <trkpt lat="40.77656594105064868927001953125" lon="-1.6003120131790637969970703125">
        <ele>1233.199951171875</ele>
        <time>2022-05-03T10:59:51.000Z</time>
      </trkpt>
      <trkpt lat="40.776571892201900482177734375" lon="-1.6003683395683765411376953125">
        <ele>1233.199951171875</ele>
        <time>2022-05-03T10:59:52.000Z</time>
      </trkpt>
      <trkpt lat="40.776577927172183990478515625" lon="-1.60042491741478443145751953125">
        <ele>1233.4000244140625</ele>
        <time>2022-05-03T10:59:53.000Z</time>
      </trkpt>
      <trkpt lat="40.776589997112751007080078125" lon="-1.6005389951169490814208984375">
        <ele>1233.5999755859375</ele>
        <time>2022-05-03T10:59:55.000Z</time>
      </trkpt>
      <trkpt lat="40.77660215087234973907470703125" lon="-1.6006565093994140625">
        <ele>1233.800048828125</ele>
        <time>2022-05-03T10:59:57.000Z</time>
      </trkpt>
      <trkpt lat="40.77661757357418537139892578125" lon="-1.600777544081211090087890625">
        <ele>1233.5999755859375</ele>
        <time>2022-05-03T10:59:59.000Z</time>
      </trkpt>
      <trkpt lat="40.77663123607635498046875" lon="-1.60090100951492786407470703125">
        <ele>1233.4000244140625</ele>
        <time>2022-05-03T11:00:01.000Z</time>
      </trkpt>
      <trkpt lat="40.776638276875019073486328125" lon="-1.6009636223316192626953125">
        <ele>1233.4000244140625</ele>
        <time>2022-05-03T11:00:02.000Z</time>
      </trkpt>
      <trkpt lat="40.7766444794833660125732421875" lon="-1.6010274924337863922119140625">
        <ele>1233.199951171875</ele>
        <time>2022-05-03T11:00:03.000Z</time>
      </trkpt>
      <trkpt lat="40.776655040681362152099609375" lon="-1.6011582501232624053955078125">
        <ele>1233</ele>
        <time>2022-05-03T11:00:05.000Z</time>
      </trkpt>
      <trkpt lat="40.7766709662973880767822265625" lon="-1.60129127092659473419189453125">
        <ele>1233</ele>
        <time>2022-05-03T11:00:07.000Z</time>
      </trkpt>
      <trkpt lat="40.77668555080890655517578125" lon="-1.6014190949499607086181640625">
        <ele>1233</ele>
        <time>2022-05-03T11:00:09.000Z</time>
      </trkpt>
      <trkpt lat="40.7766904123127460479736328125" lon="-1.60148137249052524566650390625">
        <ele>1233</ele>
        <time>2022-05-03T11:00:10.000Z</time>
      </trkpt>
      <trkpt lat="40.776695944368839263916015625" lon="-1.60154239274561405181884765625">
        <ele>1233</ele>
        <time>2022-05-03T11:00:11.000Z</time>
      </trkpt>
      <trkpt lat="40.77671279199421405792236328125" lon="-1.60166594199836254119873046875">
        <ele>1233.4000244140625</ele>
        <time>2022-05-03T11:00:13.000Z</time>
      </trkpt>
      <trkpt lat="40.77672787941992282867431640625" lon="-1.601796448230743408203125">
        <ele>1233.5999755859375</ele>
        <time>2022-05-03T11:00:15.000Z</time>
      </trkpt>
      <trkpt lat="40.7767443917691707611083984375" lon="-1.6019320674240589141845703125">
        <ele>1234</ele>
        <time>2022-05-03T11:00:17.000Z</time>
      </trkpt>
      <trkpt lat="40.77675771899521350860595703125" lon="-1.60207548178732395172119140625">
        <ele>1234</ele>
        <time>2022-05-03T11:00:19.000Z</time>
      </trkpt>
      <trkpt lat="40.776771046221256256103515625" lon="-1.602222919464111328125">
        <ele>1234</ele>
        <time>2022-05-03T11:00:21.000Z</time>
      </trkpt>
      <trkpt lat="40.7767854630947113037109375" lon="-1.60237018950283527374267578125">
        <ele>1234</ele>
        <time>2022-05-03T11:00:23.000Z</time>
      </trkpt>
      <trkpt lat="40.77680130489170551300048828125" lon="-1.602517627179622650146484375">
        <ele>1233.800048828125</ele>
        <time>2022-05-03T11:00:25.000Z</time>
      </trkpt>
      <trkpt lat="40.77681974507868289947509765625" lon="-1.60266623832285404205322265625">
        <ele>1233.5999755859375</ele>
        <time>2022-05-03T11:00:27.000Z</time>
      </trkpt>
      <trkpt lat="40.77683600597083568572998046875" lon="-1.60281308926641941070556640625">
        <ele>1233.4000244140625</ele>
        <time>2022-05-03T11:00:29.000Z</time>
      </trkpt>
      <trkpt lat="40.7768498361110687255859375" lon="-1.60296094603836536407470703125">
        <ele>1233.4000244140625</ele>
        <time>2022-05-03T11:00:31.000Z</time>
      </trkpt>
      <trkpt lat="40.776865594089031219482421875" lon="-1.6031122393906116485595703125">
        <ele>1233.4000244140625</ele>
        <time>2022-05-03T11:00:33.000Z</time>
      </trkpt>
      <trkpt lat="40.77688378281891345977783203125" lon="-1.60326688550412654876708984375">
        <ele>1233.5999755859375</ele>
        <time>2022-05-03T11:00:35.000Z</time>
      </trkpt>
      <trkpt lat="40.776902139186859130859375" lon="-1.60342496819794178009033203125">
        <ele>1234</ele>
        <time>2022-05-03T11:00:37.000Z</time>
      </trkpt>
      <trkpt lat="40.77691898681223392486572265625" lon="-1.6035819612443447113037109375">
        <ele>1234.199951171875</ele>
        <time>2022-05-03T11:00:39.000Z</time>
      </trkpt>
      <trkpt lat="40.77693541534245014190673828125" lon="-1.60374029539525508880615234375">
        <ele>1234.4000244140625</ele>
        <time>2022-05-03T11:00:41.000Z</time>
      </trkpt>
      <trkpt lat="40.7769442163407802581787109375" lon="-1.60381925292313098907470703125">
        <ele>1234.4000244140625</ele>
        <time>2022-05-03T11:00:42.000Z</time>
      </trkpt>
      <trkpt lat="40.77695184387266635894775390625" lon="-1.60389862954616546630859375">
        <ele>1234.4000244140625</ele>
        <time>2022-05-03T11:00:43.000Z</time>
      </trkpt>
      <trkpt lat="40.77696860767900943756103515625" lon="-1.6040575504302978515625">
        <ele>1234.5999755859375</ele>
        <time>2022-05-03T11:00:45.000Z</time>
      </trkpt>
      <trkpt lat="40.7769767381250858306884765625" lon="-1.604136340320110321044921875">
        <ele>1234.4000244140625</ele>
        <time>2022-05-03T11:00:46.000Z</time>
      </trkpt>
      <trkpt lat="40.77698537148535251617431640625" lon="-1.604214124381542205810546875">
        <ele>1234.4000244140625</ele>
        <time>2022-05-03T11:00:47.000Z</time>
      </trkpt>
      <trkpt lat="40.77700280584394931793212890625" lon="-1.604363657534122467041015625">
        <ele>1234.800048828125</ele>
        <time>2022-05-03T11:00:49.000Z</time>
      </trkpt>
      <trkpt lat="40.7770188152790069580078125" lon="-1.60451092757284641265869140625">
        <ele>1235.4000244140625</ele>
        <time>2022-05-03T11:00:51.000Z</time>
      </trkpt>
      <trkpt lat="40.7770330645143985748291015625" lon="-1.60465576685965061187744140625">
        <ele>1235.800048828125</ele>
        <time>2022-05-03T11:00:53.000Z</time>
      </trkpt>
      <trkpt lat="40.7770478166639804840087890625" lon="-1.60479406826198101043701171875">
        <ele>1236.4000244140625</ele>
        <time>2022-05-03T11:00:55.000Z</time>
      </trkpt>
      <trkpt lat="40.777062065899372100830078125" lon="-1.6049291007220745086669921875">
        <ele>1236.800048828125</ele>
        <time>2022-05-03T11:00:57.000Z</time>
      </trkpt>
      <trkpt lat="40.7770751416683197021484375" lon="-1.60506346262991428375244140625">
        <ele>1237</ele>
        <time>2022-05-03T11:00:59.000Z</time>
      </trkpt>
      <trkpt lat="40.7770907320082187652587890625" lon="-1.605195142328739166259765625">
        <ele>1237</ele>
        <time>2022-05-03T11:01:01.000Z</time>
      </trkpt>
      <trkpt lat="40.7771044783294200897216796875" lon="-1.60532330162823200225830078125">
        <ele>1237</ele>
        <time>2022-05-03T11:01:03.000Z</time>
      </trkpt>
      <trkpt lat="40.7771135307848453521728515625" lon="-1.60538800992071628570556640625">
        <ele>1237</ele>
        <time>2022-05-03T11:01:04.000Z</time>
      </trkpt>
      <trkpt lat="40.77712182886898517608642578125" lon="-1.605452634394168853759765625">
        <ele>1237</ele>
        <time>2022-05-03T11:01:05.000Z</time>
      </trkpt>
      <trkpt lat="40.77713725157082080841064453125" lon="-1.6055822186172008514404296875">
        <ele>1237</ele>
        <time>2022-05-03T11:01:07.000Z</time>
      </trkpt>
      <trkpt lat="40.77714412473142147064208984375" lon="-1.605647094547748565673828125">
        <ele>1237</ele>
        <time>2022-05-03T11:01:08.000Z</time>
      </trkpt>
      <trkpt lat="40.777151249349117279052734375" lon="-1.60571188665926456451416015625">
        <ele>1237</ele>
        <time>2022-05-03T11:01:09.000Z</time>
      </trkpt>
      <trkpt lat="40.777165330946445465087890625" lon="-1.60584180615842342376708984375">
        <ele>1236.4000244140625</ele>
        <time>2022-05-03T11:01:11.000Z</time>
      </trkpt>
      <trkpt lat="40.77718066982924938201904296875" lon="-1.60597256384789943695068359375">
        <ele>1236</ele>
        <time>2022-05-03T11:01:13.000Z</time>
      </trkpt>
      <trkpt lat="40.7771933265030384063720703125" lon="-1.60610181279480457305908203125">
        <ele>1235.5999755859375</ele>
        <time>2022-05-03T11:01:15.000Z</time>
      </trkpt>
      <trkpt lat="40.77719944529235363006591796875" lon="-1.60616517998278141021728515625">
        <ele>1235.199951171875</ele>
        <time>2022-05-03T11:01:16.000Z</time>
      </trkpt>
      <trkpt lat="40.7772053964436054229736328125" lon="-1.6062289662659168243408203125">
        <ele>1235</ele>
        <time>2022-05-03T11:01:17.000Z</time>
      </trkpt>
      <trkpt lat="40.777218639850616455078125" lon="-1.6063548624515533447265625">
        <ele>1234.5999755859375</ele>
        <time>2022-05-03T11:01:19.000Z</time>
      </trkpt>
      <trkpt lat="40.777231715619564056396484375" lon="-1.606483273208141326904296875">
        <ele>1234</ele>
        <time>2022-05-03T11:01:21.000Z</time>
      </trkpt>
      <trkpt lat="40.77724705450236797332763671875" lon="-1.60660925321280956268310546875">
        <ele>1234.4000244140625</ele>
        <time>2022-05-03T11:01:23.000Z</time>
      </trkpt>
      <trkpt lat="40.7772613875567913055419921875" lon="-1.6067348979413509368896484375">
        <ele>1234.800048828125</ele>
        <time>2022-05-03T11:01:25.000Z</time>
      </trkpt>
      <trkpt lat="40.77727689407765865325927734375" lon="-1.60685886628925800323486328125">
        <ele>1235.4000244140625</ele>
        <time>2022-05-03T11:01:27.000Z</time>
      </trkpt>
      <trkpt lat="40.77729131095111370086669921875" lon="-1.606980822980403900146484375">
        <ele>1235.800048828125</ele>
        <time>2022-05-03T11:01:29.000Z</time>
      </trkpt>
      <trkpt lat="40.77730245888233184814453125" lon="-1.6071013547480106353759765625">
        <ele>1236.4000244140625</ele>
        <time>2022-05-03T11:01:31.000Z</time>
      </trkpt>
      <trkpt lat="40.77731545083224773406982421875" lon="-1.60721786320209503173828125">
        <ele>1236.800048828125</ele>
        <time>2022-05-03T11:01:33.000Z</time>
      </trkpt>
      <trkpt lat="40.77732986770570278167724609375" lon="-1.6073290072381496429443359375">
        <ele>1237</ele>
        <time>2022-05-03T11:01:35.000Z</time>
      </trkpt>
      <trkpt lat="40.7773398421704769134521484375" lon="-1.6074326075613498687744140625">
        <ele>1237.4000244140625</ele>
        <time>2022-05-03T11:01:37.000Z</time>
      </trkpt>
      <trkpt lat="40.77735149301588535308837890625" lon="-1.60753126256167888641357421875">
        <ele>1237.800048828125</ele>
        <time>2022-05-03T11:01:39.000Z</time>
      </trkpt>
      <trkpt lat="40.77736238949000835418701171875" lon="-1.60762229003012180328369140625">
        <ele>1238.4000244140625</ele>
        <time>2022-05-03T11:01:41.000Z</time>
      </trkpt>
      <trkpt lat="40.77737295068800449371337890625" lon="-1.607713736593723297119140625">
        <ele>1238.800048828125</ele>
        <time>2022-05-03T11:01:43.000Z</time>
      </trkpt>
      <trkpt lat="40.7773824222385883331298828125" lon="-1.6078054346144199371337890625">
        <ele>1239.199951171875</ele>
        <time>2022-05-03T11:01:45.000Z</time>
      </trkpt>
      <trkpt lat="40.7773914746940135955810546875" lon="-1.60789671353995800018310546875">
        <ele>1239.5999755859375</ele>
        <time>2022-05-03T11:01:47.000Z</time>
      </trkpt>
      <trkpt lat="40.77739658765494823455810546875" lon="-1.6079422272741794586181640625">
        <ele>1239.800048828125</ele>
        <time>2022-05-03T11:01:48.000Z</time>
      </trkpt>
      <trkpt lat="40.77740161679685115814208984375" lon="-1.60798765718936920166015625">
        <ele>1240</ele>
        <time>2022-05-03T11:01:49.000Z</time>
      </trkpt>
      <trkpt lat="40.77740949578583240509033203125" lon="-1.60807759501039981842041015625">
        <ele>1240.4000244140625</ele>
        <time>2022-05-03T11:01:51.000Z</time>
      </trkpt>
      <trkpt lat="40.77741888351738452911376953125" lon="-1.60816669464111328125">
        <ele>1241</ele>
        <time>2022-05-03T11:01:53.000Z</time>
      </trkpt>
      <trkpt lat="40.777428857982158660888671875" lon="-1.60825411789119243621826171875">
        <ele>1241.4000244140625</ele>
        <time>2022-05-03T11:01:55.000Z</time>
      </trkpt>
      <trkpt lat="40.7774387486279010772705078125" lon="-1.60833994857966899871826171875">
        <ele>1242</ele>
        <time>2022-05-03T11:01:57.000Z</time>
      </trkpt>
      <trkpt lat="40.77744319103658199310302734375" lon="-1.60838303156197071075439453125">
        <ele>1242.199951171875</ele>
        <time>2022-05-03T11:01:58.000Z</time>
      </trkpt>
      <trkpt lat="40.77744822017848491668701171875" lon="-1.60842485725879669189453125">
        <ele>1242.4000244140625</ele>
        <time>2022-05-03T11:01:59.000Z</time>
      </trkpt>
      <trkpt lat="40.7774571888148784637451171875" lon="-1.6085095144808292388916015625">
        <ele>1243</ele>
        <time>2022-05-03T11:02:01.000Z</time>
      </trkpt>
      <trkpt lat="40.7774672470986843109130859375" lon="-1.60859291441738605499267578125">
        <ele>1243.4000244140625</ele>
        <time>2022-05-03T11:02:03.000Z</time>
      </trkpt>
      <trkpt lat="40.77747118659317493438720703125" lon="-1.6086347401142120361328125">
        <ele>1243.800048828125</ele>
        <time>2022-05-03T11:02:04.000Z</time>
      </trkpt>
      <trkpt lat="40.7774756290018558502197265625" lon="-1.6086758114397525787353515625">
        <ele>1244</ele>
        <time>2022-05-03T11:02:05.000Z</time>
      </trkpt>
      <trkpt lat="40.7774836756289005279541015625" lon="-1.608753092586994171142578125">
        <ele>1244.4000244140625</ele>
        <time>2022-05-03T11:02:07.000Z</time>
      </trkpt>
      <trkpt lat="40.7774927280843257904052734375" lon="-1.60882995463907718658447265625">
        <ele>1244.5999755859375</ele>
        <time>2022-05-03T11:02:09.000Z</time>
      </trkpt>
      <trkpt lat="40.7774964161217212677001953125" lon="-1.608869768679141998291015625">
        <ele>1244.800048828125</ele>
        <time>2022-05-03T11:02:10.000Z</time>
      </trkpt>
      <trkpt lat="40.7775004394352436065673828125" lon="-1.60890907980501651763916015625">
        <ele>1245</ele>
        <time>2022-05-03T11:02:11.000Z</time>
      </trkpt>
      <trkpt lat="40.777509324252605438232421875" lon="-1.60898820497095584869384765625">
        <ele>1245.199951171875</ele>
        <time>2022-05-03T11:02:13.000Z</time>
      </trkpt>
      <trkpt lat="40.77751695178449153900146484375" lon="-1.60906749777495861053466796875">
        <ele>1245.5999755859375</ele>
        <time>2022-05-03T11:02:15.000Z</time>
      </trkpt>
      <trkpt lat="40.777522064745426177978515625" lon="-1.609106473624706268310546875">
        <ele>1245.800048828125</ele>
        <time>2022-05-03T11:02:16.000Z</time>
      </trkpt>
      <trkpt lat="40.77752751298248767852783203125" lon="-1.60914578475058078765869140625">
        <ele>1246.199951171875</ele>
        <time>2022-05-03T11:02:17.000Z</time>
      </trkpt>
      <trkpt lat="40.77753656543791294097900390625" lon="-1.60922407172620296478271484375">
        <ele>1246.800048828125</ele>
        <time>2022-05-03T11:02:19.000Z</time>
      </trkpt>
      <trkpt lat="40.77753983438014984130859375" lon="-1.609263382852077484130859375">
        <ele>1247</ele>
        <time>2022-05-03T11:02:20.000Z</time>
      </trkpt>
      <trkpt lat="40.77754394151270389556884765625" lon="-1.609301269054412841796875">
        <ele>1247.199951171875</ele>
        <time>2022-05-03T11:02:21.000Z</time>
      </trkpt>
      <trkpt lat="40.777553580701351165771484375" lon="-1.60937662236392498016357421875">
        <ele>1247.800048828125</ele>
        <time>2022-05-03T11:02:23.000Z</time>
      </trkpt>
      <trkpt lat="40.7775611244142055511474609375" lon="-1.6094549931585788726806640625">
        <ele>1248.4000244140625</ele>
        <time>2022-05-03T11:02:25.000Z</time>
      </trkpt>
      <trkpt lat="40.77757093124091625213623046875" lon="-1.60953034646809101104736328125">
        <ele>1248.800048828125</ele>
        <time>2022-05-03T11:02:27.000Z</time>
      </trkpt>
      <trkpt lat="40.77757914550602436065673828125" lon="-1.6096041910350322723388671875">
        <ele>1249.199951171875</ele>
        <time>2022-05-03T11:02:29.000Z</time>
      </trkpt>
      <trkpt lat="40.7775822468101978302001953125" lon="-1.6096405684947967529296875">
        <ele>1249.4000244140625</ele>
        <time>2022-05-03T11:02:30.000Z</time>
      </trkpt>
      <trkpt lat="40.777585096657276153564453125" lon="-1.60967686213552951812744140625">
        <ele>1249.5999755859375</ele>
        <time>2022-05-03T11:02:31.000Z</time>
      </trkpt>
      <trkpt lat="40.77759339474141597747802734375" lon="-1.6097500361502170562744140625">
        <ele>1250</ele>
        <time>2022-05-03T11:02:33.000Z</time>
      </trkpt>
      <trkpt lat="40.777601189911365509033203125" lon="-1.60982228815555572509765625">
        <ele>1250.4000244140625</ele>
        <time>2022-05-03T11:02:35.000Z</time>
      </trkpt>
      <trkpt lat="40.777608565986156463623046875" lon="-1.60989345051348209381103515625">
        <ele>1250.5999755859375</ele>
        <time>2022-05-03T11:02:37.000Z</time>
      </trkpt>
      <trkpt lat="40.7776161096990108489990234375" lon="-1.60996670834720134735107421875">
        <ele>1250.800048828125</ele>
        <time>2022-05-03T11:02:39.000Z</time>
      </trkpt>
      <trkpt lat="40.77762507833540439605712890625" lon="-1.61003845743834972381591796875">
        <ele>1251</ele>
        <time>2022-05-03T11:02:41.000Z</time>
      </trkpt>
      <trkpt lat="40.77763429842889308929443359375" lon="-1.6101094521582126617431640625">
        <ele>1251.199951171875</ele>
        <time>2022-05-03T11:02:43.000Z</time>
      </trkpt>
      <trkpt lat="40.7776412554085254669189453125" lon="-1.6101825423538684844970703125">
        <ele>1251.199951171875</ele>
        <time>2022-05-03T11:02:45.000Z</time>
      </trkpt>
      <trkpt lat="40.7776486314833164215087890625" lon="-1.61025722511112689971923828125">
        <ele>1251.4000244140625</ele>
        <time>2022-05-03T11:02:47.000Z</time>
      </trkpt>
      <trkpt lat="40.777656845748424530029296875" lon="-1.61032998003065586090087890625">
        <ele>1251.800048828125</ele>
        <time>2022-05-03T11:02:49.000Z</time>
      </trkpt>
      <trkpt lat="40.77766179107129573822021484375" lon="-1.6103652678430080413818359375">
        <ele>1252</ele>
        <time>2022-05-03T11:02:50.000Z</time>
      </trkpt>
      <trkpt lat="40.77766648493707180023193359375" lon="-1.6103991307318210601806640625">
        <ele>1252.199951171875</ele>
        <time>2022-05-03T11:02:51.000Z</time>
      </trkpt>
      <trkpt lat="40.7776759564876556396484375" lon="-1.610466353595256805419921875">
        <ele>1252.5999755859375</ele>
        <time>2022-05-03T11:02:53.000Z</time>
      </trkpt>
      <trkpt lat="40.7776841707527637481689453125" lon="-1.6105377674102783203125">
        <ele>1253.199951171875</ele>
        <time>2022-05-03T11:02:55.000Z</time>
      </trkpt>
      <trkpt lat="40.77769096009433269500732421875" lon="-1.61060976795852184295654296875">
        <ele>1253.5999755859375</ele>
        <time>2022-05-03T11:02:57.000Z</time>
      </trkpt>
      <trkpt lat="40.77769406139850616455078125" lon="-1.610645391047000885009765625">
        <ele>1253.800048828125</ele>
        <time>2022-05-03T11:02:58.000Z</time>
      </trkpt>
      <trkpt lat="40.7776965759694576263427734375" lon="-1.6106814332306385040283203125">
        <ele>1254</ele>
        <time>2022-05-03T11:02:59.000Z</time>
      </trkpt>
      <trkpt lat="40.77770571224391460418701171875" lon="-1.6107535175979137420654296875">
        <ele>1254</ele>
        <time>2022-05-03T11:03:01.000Z</time>
      </trkpt>
      <trkpt lat="40.77771493233740329742431640625" lon="-1.61082769744098186492919921875">
        <ele>1254.199951171875</ele>
        <time>2022-05-03T11:03:03.000Z</time>
      </trkpt>
      <trkpt lat="40.7777220569550991058349609375" lon="-1.61090212874114513397216796875">
        <ele>1254.199951171875</ele>
        <time>2022-05-03T11:03:05.000Z</time>
      </trkpt>
      <trkpt lat="40.77772616408765316009521484375" lon="-1.61094001494348049163818359375">
        <ele>1254.4000244140625</ele>
        <time>2022-05-03T11:03:06.000Z</time>
      </trkpt>
      <trkpt lat="40.7777301035821437835693359375" lon="-1.61097756586968898773193359375">
        <ele>1254.4000244140625</ele>
        <time>2022-05-03T11:03:07.000Z</time>
      </trkpt>
      <trkpt lat="40.77773437835276126861572265625" lon="-1.61101394332945346832275390625">
        <ele>1254.4000244140625</ele>
        <time>2022-05-03T11:03:08.000Z</time>
      </trkpt>
      <trkpt lat="40.7777398265898227691650390625" lon="-1.61104965023696422576904296875">
        <ele>1254.5999755859375</ele>
        <time>2022-05-03T11:03:09.000Z</time>
      </trkpt>
      <trkpt lat="40.777750052511692047119140625" lon="-1.61112341098487377166748046875">
        <ele>1254.800048828125</ele>
        <time>2022-05-03T11:03:11.000Z</time>
      </trkpt>
      <trkpt lat="40.77776052989065647125244140625" lon="-1.6111987642943859100341796875">
        <ele>1255.199951171875</ele>
        <time>2022-05-03T11:03:13.000Z</time>
      </trkpt>
      <trkpt lat="40.777764804661273956298828125" lon="-1.61123690195381641387939453125">
        <ele>1255.4000244140625</ele>
        <time>2022-05-03T11:03:14.000Z</time>
      </trkpt>
      <trkpt lat="40.77776782214641571044921875" lon="-1.61127562634646892547607421875">
        <ele>1255.4000244140625</ele>
        <time>2022-05-03T11:03:15.000Z</time>
      </trkpt>
      <trkpt lat="40.77777444384992122650146484375" lon="-1.61135206930339336395263671875">
        <ele>1255.800048828125</ele>
        <time>2022-05-03T11:03:17.000Z</time>
      </trkpt>
      <trkpt lat="40.77778399921953678131103515625" lon="-1.6114307753741741180419921875">
        <ele>1256</ele>
        <time>2022-05-03T11:03:19.000Z</time>
      </trkpt>
      <trkpt lat="40.77779405750334262847900390625" lon="-1.611515767872333526611328125">
        <ele>1256.4000244140625</ele>
        <time>2022-05-03T11:03:21.000Z</time>
      </trkpt>
      <trkpt lat="40.77779891900718212127685546875" lon="-1.61155994050204753875732421875">
        <ele>1256.4000244140625</ele>
        <time>2022-05-03T11:03:22.000Z</time>
      </trkpt>
      <trkpt lat="40.7778045348823070526123046875" lon="-1.61160528659820556640625">
        <ele>1256.199951171875</ele>
        <time>2022-05-03T11:03:23.000Z</time>
      </trkpt>
      <trkpt lat="40.77781534753739833831787109375" lon="-1.6116976551711559295654296875">
        <ele>1256</ele>
        <time>2022-05-03T11:03:25.000Z</time>
      </trkpt>
      <trkpt lat="40.7778249867260456085205078125" lon="-1.61179371178150177001953125">
        <ele>1256</ele>
        <time>2022-05-03T11:03:27.000Z</time>
      </trkpt>
      <trkpt lat="40.77783009968698024749755859375" lon="-1.6118421591818332672119140625">
        <ele>1256</ele>
        <time>2022-05-03T11:03:28.000Z</time>
      </trkpt>
      <trkpt lat="40.77783479355275630950927734375" lon="-1.6118890978395938873291015625">
        <ele>1256.199951171875</ele>
        <time>2022-05-03T11:03:29.000Z</time>
      </trkpt>
      <trkpt lat="40.7778449356555938720703125" lon="-1.6119833104312419891357421875">
        <ele>1256.4000244140625</ele>
        <time>2022-05-03T11:03:31.000Z</time>
      </trkpt>
      <trkpt lat="40.77785692177712917327880859375" lon="-1.6120838932693004608154296875">
        <ele>1256.5999755859375</ele>
        <time>2022-05-03T11:03:33.000Z</time>
      </trkpt>
      <trkpt lat="40.77786647714674472808837890625" lon="-1.61218799650669097900390625">
        <ele>1256.800048828125</ele>
        <time>2022-05-03T11:03:35.000Z</time>
      </trkpt>
      <trkpt lat="40.77787519432604312896728515625" lon="-1.61229285411536693572998046875">
        <ele>1257</ele>
        <time>2022-05-03T11:03:37.000Z</time>
      </trkpt>
      <trkpt lat="40.77788759954273700714111328125" lon="-1.612396873533725738525390625">
        <ele>1257</ele>
        <time>2022-05-03T11:03:39.000Z</time>
      </trkpt>
      <trkpt lat="40.77790050767362117767333984375" lon="-1.61250307224690914154052734375">
        <ele>1256.800048828125</ele>
        <time>2022-05-03T11:03:41.000Z</time>
      </trkpt>
      <trkpt lat="40.777911655604839324951171875" lon="-1.612613461911678314208984375">
        <ele>1256.800048828125</ele>
        <time>2022-05-03T11:03:43.000Z</time>
      </trkpt>
      <trkpt lat="40.77792196534574031829833984375" lon="-1.612729467451572418212890625">
        <ele>1256.5999755859375</ele>
        <time>2022-05-03T11:03:45.000Z</time>
      </trkpt>
      <trkpt lat="40.7779339514672756195068359375" lon="-1.61284572444856166839599609375">
        <ele>1256.5999755859375</ele>
        <time>2022-05-03T11:03:47.000Z</time>
      </trkpt>
      <trkpt lat="40.77794325537979602813720703125" lon="-1.61296508274972438812255859375">
        <ele>1256.5999755859375</ele>
        <time>2022-05-03T11:03:49.000Z</time>
      </trkpt>
      <trkpt lat="40.77795557677745819091796875" lon="-1.613086201250553131103515625">
        <ele>1256.4000244140625</ele>
        <time>2022-05-03T11:03:51.000Z</time>
      </trkpt>
      <trkpt lat="40.77796764671802520751953125" lon="-1.613211594521999359130859375">
        <ele>1256.4000244140625</ele>
        <time>2022-05-03T11:03:53.000Z</time>
      </trkpt>
      <trkpt lat="40.77798097394406795501708984375" lon="-1.61333690397441387176513671875">
        <ele>1256.5999755859375</ele>
        <time>2022-05-03T11:03:55.000Z</time>
      </trkpt>
      <trkpt lat="40.7779949717223644256591796875" lon="-1.613463051617145538330078125">
        <ele>1256.4000244140625</ele>
        <time>2022-05-03T11:03:57.000Z</time>
      </trkpt>
      <trkpt lat="40.7780077122151851654052734375" lon="-1.613591797649860382080078125">
        <ele>1256.4000244140625</ele>
        <time>2022-05-03T11:03:59.000Z</time>
      </trkpt>
      <trkpt lat="40.7780214585363864898681640625" lon="-1.61372398026287555694580078125">
        <ele>1256.199951171875</ele>
        <time>2022-05-03T11:04:01.000Z</time>
      </trkpt>
      <trkpt lat="40.77803470194339752197265625" lon="-1.61385591141879558563232421875">
        <ele>1256.199951171875</ele>
        <time>2022-05-03T11:04:03.000Z</time>
      </trkpt>
      <trkpt lat="40.7780487835407257080078125" lon="-1.61399052478373050689697265625">
        <ele>1256</ele>
        <time>2022-05-03T11:04:05.000Z</time>
      </trkpt>
      <trkpt lat="40.77805708162486553192138671875" lon="-1.61405908875167369842529296875">
        <ele>1256.199951171875</ele>
        <time>2022-05-03T11:04:06.000Z</time>
      </trkpt>
      <trkpt lat="40.7780647091567516326904296875" lon="-1.61412882618606090545654296875">
        <ele>1256.199951171875</ele>
        <time>2022-05-03T11:04:07.000Z</time>
      </trkpt>
      <trkpt lat="40.77807988040149211883544921875" lon="-1.614269055426120758056640625">
        <ele>1256.5999755859375</ele>
        <time>2022-05-03T11:04:09.000Z</time>
      </trkpt>
      <trkpt lat="40.7780958898365497589111328125" lon="-1.61440928466618061065673828125">
        <ele>1256.800048828125</ele>
        <time>2022-05-03T11:04:11.000Z</time>
      </trkpt>
      <trkpt lat="40.7781099714338779449462890625" lon="-1.61455043591558933258056640625">
        <ele>1257.199951171875</ele>
        <time>2022-05-03T11:04:13.000Z</time>
      </trkpt>
      <trkpt lat="40.77811776660382747650146484375" lon="-1.61462067626416683197021484375">
        <ele>1257.4000244140625</ele>
        <time>2022-05-03T11:04:14.000Z</time>
      </trkpt>
      <trkpt lat="40.7781250588595867156982421875" lon="-1.61469125188887119293212890625">
        <ele>1257.4000244140625</ele>
        <time>2022-05-03T11:04:15.000Z</time>
      </trkpt>
      <trkpt lat="40.778138637542724609375" lon="-1.61483072675764560699462890625">
        <ele>1258</ele>
        <time>2022-05-03T11:04:17.000Z</time>
      </trkpt>
      <trkpt lat="40.7781455107033252716064453125" lon="-1.614897362887859344482421875">
        <ele>1258.4000244140625</ele>
        <time>2022-05-03T11:04:18.000Z</time>
      </trkpt>
      <trkpt lat="40.77815263532102108001708984375" lon="-1.6149608977138996124267578125">
        <ele>1258.5999755859375</ele>
        <time>2022-05-03T11:04:19.000Z</time>
      </trkpt>
      <trkpt lat="40.7781662978231906890869140625" lon="-1.61507748998701572418212890625">
        <ele>1259.199951171875</ele>
        <time>2022-05-03T11:04:21.000Z</time>
      </trkpt>
      <trkpt lat="40.77817979268729686737060546875" lon="-1.61518762819468975067138671875">
        <ele>1259.800048828125</ele>
        <time>2022-05-03T11:04:23.000Z</time>
      </trkpt>
      <trkpt lat="40.7781904377043247222900390625" lon="-1.615299023687839508056640625">
        <ele>1260.4000244140625</ele>
        <time>2022-05-03T11:04:25.000Z</time>
      </trkpt>
      <trkpt lat="40.77820091508328914642333984375" lon="-1.61540488712489604949951171875">
        <ele>1260.800048828125</ele>
        <time>2022-05-03T11:04:27.000Z</time>
      </trkpt>
      <trkpt lat="40.778210721909999847412109375" lon="-1.61550697870552539825439453125">
        <ele>1261.4000244140625</ele>
        <time>2022-05-03T11:04:29.000Z</time>
      </trkpt>
      <trkpt lat="40.7782231271266937255859375" lon="-1.6156052984297275543212890625">
        <ele>1262.199951171875</ele>
        <time>2022-05-03T11:04:31.000Z</time>
      </trkpt>
      <trkpt lat="40.77823586761951446533203125" lon="-1.61570428870618343353271484375">
        <ele>1263</ele>
        <time>2022-05-03T11:04:33.000Z</time>
      </trkpt>
      <trkpt lat="40.7782420702278614044189453125" lon="-1.6157551668584346771240234375">
        <ele>1263</ele>
        <time>2022-05-03T11:04:34.000Z</time>
      </trkpt>
      <trkpt lat="40.77824802137911319732666015625" lon="-1.61580621264874935150146484375">
        <ele>1263</ele>
        <time>2022-05-03T11:04:35.000Z</time>
      </trkpt>
      <trkpt lat="40.77826059423387050628662109375" lon="-1.6159087233245372772216796875">
        <ele>1263</ele>
        <time>2022-05-03T11:04:37.000Z</time>
      </trkpt>
      <trkpt lat="40.77826713211834430694580078125" lon="-1.61595926620066165924072265625">
        <ele>1263.199951171875</ele>
        <time>2022-05-03T11:04:38.000Z</time>
      </trkpt>
      <trkpt lat="40.77827517874538898468017578125" lon="-1.61601073108613491058349609375">
        <ele>1263.199951171875</ele>
        <time>2022-05-03T11:04:39.000Z</time>
      </trkpt>
      <trkpt lat="40.7782900147140026092529296875" lon="-1.61611466668546199798583984375">
        <ele>1263.199951171875</ele>
        <time>2022-05-03T11:04:41.000Z</time>
      </trkpt>
      <trkpt lat="40.778307281434535980224609375" lon="-1.61621826700866222381591796875">
        <ele>1263.4000244140625</ele>
        <time>2022-05-03T11:04:43.000Z</time>
      </trkpt>
      <trkpt lat="40.77832438051700592041015625" lon="-1.61632396280765533447265625">
        <ele>1263.199951171875</ele>
        <time>2022-05-03T11:04:45.000Z</time>
      </trkpt>
      <trkpt lat="40.77834240160882472991943359375" lon="-1.61642882041633129119873046875">
        <ele>1262.800048828125</ele>
        <time>2022-05-03T11:04:47.000Z</time>
      </trkpt>
      <trkpt lat="40.77836369164288043975830078125" lon="-1.61653183400630950927734375">
        <ele>1262.4000244140625</ele>
        <time>2022-05-03T11:04:49.000Z</time>
      </trkpt>
      <trkpt lat="40.77839034609496593475341796875" lon="-1.61663736216723918914794921875">
        <ele>1262.4000244140625</ele>
        <time>2022-05-03T11:04:51.000Z</time>
      </trkpt>
      <trkpt lat="40.77841968275606632232666015625" lon="-1.6167485900223255157470703125">
        <ele>1262.4000244140625</ele>
        <time>2022-05-03T11:04:53.000Z</time>
      </trkpt>
      <trkpt lat="40.7784537971019744873046875" lon="-1.6168632544577121734619140625">
        <ele>1262.5999755859375</ele>
        <time>2022-05-03T11:04:55.000Z</time>
      </trkpt>
      <trkpt lat="40.77847215346992015838623046875" lon="-1.61692067049443721771240234375">
        <ele>1262.5999755859375</ele>
        <time>2022-05-03T11:04:56.000Z</time>
      </trkpt>
      <trkpt lat="40.77849076129496097564697265625" lon="-1.6169782541692256927490234375">
        <ele>1262.4000244140625</ele>
        <time>2022-05-03T11:04:57.000Z</time>
      </trkpt>
      <trkpt lat="40.77852948568761348724365234375" lon="-1.6170952655375003814697265625">
        <ele>1261.800048828125</ele>
        <time>2022-05-03T11:04:59.000Z</time>
      </trkpt>
      <trkpt lat="40.77857089228928089141845703125" lon="-1.617213450372219085693359375">
        <ele>1261.199951171875</ele>
        <time>2022-05-03T11:05:01.000Z</time>
      </trkpt>
      <trkpt lat="40.77861129306256771087646484375" lon="-1.61733356304466724395751953125">
        <ele>1260.5999755859375</ele>
        <time>2022-05-03T11:05:03.000Z</time>
      </trkpt>
      <trkpt lat="40.77865161001682281494140625" lon="-1.6174546815454959869384765625">
        <ele>1260.800048828125</ele>
        <time>2022-05-03T11:05:05.000Z</time>
      </trkpt>
      <trkpt lat="40.77869318425655364990234375" lon="-1.61757412366569042205810546875">
        <ele>1261.199951171875</ele>
        <time>2022-05-03T11:05:07.000Z</time>
      </trkpt>
      <trkpt lat="40.77871338464319705963134765625" lon="-1.61763447336852550506591796875">
        <ele>1261.199951171875</ele>
        <time>2022-05-03T11:05:08.000Z</time>
      </trkpt>
      <trkpt lat="40.77873316593468189239501953125" lon="-1.6176940687000751495361328125">
        <ele>1261.199951171875</ele>
        <time>2022-05-03T11:05:09.000Z</time>
      </trkpt>
      <trkpt lat="40.778773985803127288818359375" lon="-1.6178127564489841461181640625">
        <ele>1261.199951171875</ele>
        <time>2022-05-03T11:05:11.000Z</time>
      </trkpt>
      <trkpt lat="40.7788145542144775390625" lon="-1.6179280914366245269775390625">
        <ele>1261.199951171875</ele>
        <time>2022-05-03T11:05:13.000Z</time>
      </trkpt>
      <trkpt lat="40.778853110969066619873046875" lon="-1.61804594099521636962890625">
        <ele>1261.199951171875</ele>
        <time>2022-05-03T11:05:15.000Z</time>
      </trkpt>
      <trkpt lat="40.77889242209494113922119140625" lon="-1.618164293467998504638671875">
        <ele>1261</ele>
        <time>2022-05-03T11:05:17.000Z</time>
      </trkpt>
      <trkpt lat="40.77893349342048168182373046875" lon="-1.6182804666459560394287109375">
        <ele>1261.4000244140625</ele>
        <time>2022-05-03T11:05:19.000Z</time>
      </trkpt>
      <trkpt lat="40.778977163136005401611328125" lon="-1.61839462816715240478515625">
        <ele>1261.5999755859375</ele>
        <time>2022-05-03T11:05:21.000Z</time>
      </trkpt>
      <trkpt lat="40.77901848591864109039306640625" lon="-1.6185141541063785552978515625">
        <ele>1261.800048828125</ele>
        <time>2022-05-03T11:05:23.000Z</time>
      </trkpt>
      <trkpt lat="40.7790588028728961944580078125" lon="-1.6186321713030338287353515625">
        <ele>1262.199951171875</ele>
        <time>2022-05-03T11:05:25.000Z</time>
      </trkpt>
      <trkpt lat="40.7790987007319927215576171875" lon="-1.618748009204864501953125">
        <ele>1262.4000244140625</ele>
        <time>2022-05-03T11:05:27.000Z</time>
      </trkpt>
      <trkpt lat="40.77913817949593067169189453125" lon="-1.6188594885170459747314453125">
        <ele>1262.5999755859375</ele>
        <time>2022-05-03T11:05:29.000Z</time>
      </trkpt>
      <trkpt lat="40.7791744731366634368896484375" lon="-1.61896954290568828582763671875">
        <ele>1262.4000244140625</ele>
        <time>2022-05-03T11:05:31.000Z</time>
      </trkpt>
      <trkpt lat="40.77920959331095218658447265625" lon="-1.61907699890434741973876953125">
        <ele>1262.4000244140625</ele>
        <time>2022-05-03T11:05:33.000Z</time>
      </trkpt>
      <trkpt lat="40.77922719530761241912841796875" lon="-1.6191290505230426788330078125">
        <ele>1262.5999755859375</ele>
        <time>2022-05-03T11:05:34.000Z</time>
      </trkpt>
      <trkpt lat="40.779244713485240936279296875" lon="-1.6191793419420719146728515625">
        <ele>1262.5999755859375</ele>
        <time>2022-05-03T11:05:35.000Z</time>
      </trkpt>
      <trkpt lat="40.77927933074533939361572265625" lon="-1.61927900277078151702880859375">
        <ele>1262.800048828125</ele>
        <time>2022-05-03T11:05:37.000Z</time>
      </trkpt>
      <trkpt lat="40.7793142832815647125244140625" lon="-1.6193768195807933807373046875">
        <ele>1263</ele>
        <time>2022-05-03T11:05:39.000Z</time>
      </trkpt>
      <trkpt lat="40.779348313808441162109375" lon="-1.61947513930499553680419921875">
        <ele>1263.199951171875</ele>
        <time>2022-05-03T11:05:41.000Z</time>
      </trkpt>
      <trkpt lat="40.7793791592121124267578125" lon="-1.61957077682018280029296875">
        <ele>1263.5999755859375</ele>
        <time>2022-05-03T11:05:43.000Z</time>
      </trkpt>
      <trkpt lat="40.77941176481544971466064453125" lon="-1.61965970881283283233642578125">
        <ele>1263.800048828125</ele>
        <time>2022-05-03T11:05:45.000Z</time>
      </trkpt>
      <trkpt lat="40.779428444802761077880859375" lon="-1.61970463581383228302001953125">
        <ele>1264</ele>
        <time>2022-05-03T11:05:46.000Z</time>
      </trkpt>
      <trkpt lat="40.77944495715200901031494140625" lon="-1.61975048482418060302734375">
        <ele>1264.199951171875</ele>
        <time>2022-05-03T11:05:47.000Z</time>
      </trkpt>
      <trkpt lat="40.77947613783180713653564453125" lon="-1.6198428533971309661865234375">
        <ele>1264.4000244140625</ele>
        <time>2022-05-03T11:05:49.000Z</time>
      </trkpt>
      <trkpt lat="40.7795087434351444244384765625" lon="-1.6199357248842716217041015625">
        <ele>1265</ele>
        <time>2022-05-03T11:05:51.000Z</time>
      </trkpt>
      <trkpt lat="40.7795426063239574432373046875" lon="-1.620029769837856292724609375">
        <ele>1265.4000244140625</ele>
        <time>2022-05-03T11:05:53.000Z</time>
      </trkpt>
      <trkpt lat="40.779577977955341339111328125" lon="-1.6201261617243289947509765625">
        <ele>1265.4000244140625</ele>
        <time>2022-05-03T11:05:55.000Z</time>
      </trkpt>
      <trkpt lat="40.779595077037811279296875" lon="-1.62017486058175563812255859375">
        <ele>1265.5999755859375</ele>
        <time>2022-05-03T11:05:56.000Z</time>
      </trkpt>
      <trkpt lat="40.7796116732060909271240234375" lon="-1.62022389471530914306640625">
        <ele>1265.5999755859375</ele>
        <time>2022-05-03T11:05:57.000Z</time>
      </trkpt>
      <trkpt lat="40.77964427880942821502685546875" lon="-1.6203226335346698760986328125">
        <ele>1265.5999755859375</ele>
        <time>2022-05-03T11:05:59.000Z</time>
      </trkpt>
      <trkpt lat="40.77967830933630466461181640625" lon="-1.62041843868792057037353515625">
        <ele>1265.800048828125</ele>
        <time>2022-05-03T11:06:01.000Z</time>
      </trkpt>
      <trkpt lat="40.77971083112061023712158203125" lon="-1.6205167584121227264404296875">
        <ele>1265.800048828125</ele>
        <time>2022-05-03T11:06:03.000Z</time>
      </trkpt>
      <trkpt lat="40.77974653802812099456787109375" lon="-1.6206170059740543365478515625">
        <ele>1266</ele>
        <time>2022-05-03T11:06:05.000Z</time>
      </trkpt>
      <trkpt lat="40.77978190965950489044189453125" lon="-1.62071499042212963104248046875">
        <ele>1266</ele>
        <time>2022-05-03T11:06:07.000Z</time>
      </trkpt>
      <trkpt lat="40.77979884110391139984130859375" lon="-1.6207625158131122589111328125">
        <ele>1266.199951171875</ele>
        <time>2022-05-03T11:06:08.000Z</time>
      </trkpt>
      <trkpt lat="40.77981434762477874755859375" lon="-1.62080995738506317138671875">
        <ele>1266.4000244140625</ele>
        <time>2022-05-03T11:06:09.000Z</time>
      </trkpt>
      <trkpt lat="40.77984712086617946624755859375" lon="-1.62090576253831386566162109375">
        <ele>1266.800048828125</ele>
        <time>2022-05-03T11:06:11.000Z</time>
      </trkpt>
      <trkpt lat="40.7798805646598339080810546875" lon="-1.6209997236728668212890625">
        <ele>1267.4000244140625</ele>
        <time>2022-05-03T11:06:13.000Z</time>
      </trkpt>
      <trkpt lat="40.7799097336828708648681640625" lon="-1.6210930980741977691650390625">
        <ele>1267.800048828125</ele>
        <time>2022-05-03T11:06:15.000Z</time>
      </trkpt>
      <trkpt lat="40.779941417276859283447265625" lon="-1.62118420936167240142822265625">
        <ele>1268.199951171875</ele>
        <time>2022-05-03T11:06:17.000Z</time>
      </trkpt>
      <trkpt lat="40.77997150830924510955810546875" lon="-1.621272303164005279541015625">
        <ele>1268.5999755859375</ele>
        <time>2022-05-03T11:06:19.000Z</time>
      </trkpt>
      <trkpt lat="40.77998693101108074188232421875" lon="-1.62131630815565586090087890625">
        <ele>1268.5999755859375</ele>
        <time>2022-05-03T11:06:20.000Z</time>
      </trkpt>
      <trkpt lat="40.7800026051700115203857421875" lon="-1.62135922349989414215087890625">
        <ele>1268.800048828125</ele>
        <time>2022-05-03T11:06:21.000Z</time>
      </trkpt>
      <trkpt lat="40.7800327800214290618896484375" lon="-1.62144438363611698150634765625">
        <ele>1269.199951171875</ele>
        <time>2022-05-03T11:06:23.000Z</time>
      </trkpt>
      <trkpt lat="40.78006245195865631103515625" lon="-1.621528454124927520751953125">
        <ele>1269.5999755859375</ele>
        <time>2022-05-03T11:06:25.000Z</time>
      </trkpt>
      <trkpt lat="40.78009195625782012939453125" lon="-1.6216127760708332061767578125">
        <ele>1270.199951171875</ele>
        <time>2022-05-03T11:06:27.000Z</time>
      </trkpt>
      <trkpt lat="40.78012020327150821685791015625" lon="-1.62169952876865863800048828125">
        <ele>1270.800048828125</ele>
        <time>2022-05-03T11:06:29.000Z</time>
      </trkpt>
      <trkpt lat="40.7801489531993865966796875" lon="-1.6217847727239131927490234375">
        <ele>1271.4000244140625</ele>
        <time>2022-05-03T11:06:31.000Z</time>
      </trkpt>
      <trkpt lat="40.7801782898604869842529296875" lon="-1.621871106326580047607421875">
        <ele>1272</ele>
        <time>2022-05-03T11:06:33.000Z</time>
      </trkpt>
      <trkpt lat="40.7802081294357776641845703125" lon="-1.62195517681539058685302734375">
        <ele>1272.4000244140625</ele>
        <time>2022-05-03T11:06:35.000Z</time>
      </trkpt>
      <trkpt lat="40.78023486770689487457275390625" lon="-1.622040756046772003173828125">
        <ele>1272.5999755859375</ele>
        <time>2022-05-03T11:06:37.000Z</time>
      </trkpt>
      <trkpt lat="40.78026319853961467742919921875" lon="-1.6221250779926776885986328125">
        <ele>1273</ele>
        <time>2022-05-03T11:06:39.000Z</time>
      </trkpt>
      <trkpt lat="40.7802919484674930572509765625" lon="-1.62221015430986881256103515625">
        <ele>1273.199951171875</ele>
        <time>2022-05-03T11:06:41.000Z</time>
      </trkpt>
      <trkpt lat="40.78032036311924457550048828125" lon="-1.62229112349450588226318359375">
        <ele>1273.5999755859375</ele>
        <time>2022-05-03T11:06:43.000Z</time>
      </trkpt>
      <trkpt lat="40.78033427707850933074951171875" lon="-1.622331440448760986328125">
        <ele>1273.5999755859375</ele>
        <time>2022-05-03T11:06:44.000Z</time>
      </trkpt>
      <trkpt lat="40.78034810721874237060546875" lon="-1.6223715059459209442138671875">
        <ele>1273.800048828125</ele>
        <time>2022-05-03T11:06:45.000Z</time>
      </trkpt>
      <trkpt lat="40.78037585131824016571044921875" lon="-1.622452475130558013916015625">
        <ele>1273.5999755859375</ele>
        <time>2022-05-03T11:06:47.000Z</time>
      </trkpt>
      <trkpt lat="40.7804005779325962066650390625" lon="-1.62253327667713165283203125">
        <ele>1273.5999755859375</ele>
        <time>2022-05-03T11:06:49.000Z</time>
      </trkpt>
      <trkpt lat="40.78042714856564998626708984375" lon="-1.62261432968080043792724609375">
        <ele>1273.800048828125</ele>
        <time>2022-05-03T11:06:51.000Z</time>
      </trkpt>
      <trkpt lat="40.780440308153629302978515625" lon="-1.6226546466350555419921875">
        <ele>1273.800048828125</ele>
        <time>2022-05-03T11:06:52.000Z</time>
      </trkpt>
      <trkpt lat="40.780453048646450042724609375" lon="-1.6226950474083423614501953125">
        <ele>1274</ele>
        <time>2022-05-03T11:06:53.000Z</time>
      </trkpt>
      <trkpt lat="40.78048045746982097625732421875" lon="-1.62277777679264545440673828125">
        <ele>1274</ele>
        <time>2022-05-03T11:06:55.000Z</time>
      </trkpt>
      <trkpt lat="40.7805095426738262176513671875" lon="-1.6228586621582508087158203125">
        <ele>1274.199951171875</ele>
        <time>2022-05-03T11:06:57.000Z</time>
      </trkpt>
      <trkpt lat="40.78053812496364116668701171875" lon="-1.62294088862836360931396484375">
        <ele>1274.4000244140625</ele>
        <time>2022-05-03T11:06:59.000Z</time>
      </trkpt>
      <trkpt lat="40.78056444413959980010986328125" lon="-1.6230242885649204254150390625">
        <ele>1274.5999755859375</ele>
        <time>2022-05-03T11:07:01.000Z</time>
      </trkpt>
      <trkpt lat="40.78057902865111827850341796875" lon="-1.62306569516658782958984375">
        <ele>1274.5999755859375</ele>
        <time>2022-05-03T11:07:02.000Z</time>
      </trkpt>
      <trkpt lat="40.780592858791351318359375" lon="-1.62310735322535037994384765625">
        <ele>1274.5999755859375</ele>
        <time>2022-05-03T11:07:03.000Z</time>
      </trkpt>
      <trkpt lat="40.780621357262134552001953125" lon="-1.62319133989512920379638671875">
        <ele>1274.800048828125</ele>
        <time>2022-05-03T11:07:05.000Z</time>
      </trkpt>
      <trkpt lat="40.7806532084941864013671875" lon="-1.62327549420297145843505859375">
        <ele>1274.800048828125</ele>
        <time>2022-05-03T11:07:07.000Z</time>
      </trkpt>
      <trkpt lat="40.78068447299301624298095703125" lon="-1.6233609057962894439697265625">
        <ele>1274.800048828125</ele>
        <time>2022-05-03T11:07:09.000Z</time>
      </trkpt>
      <trkpt lat="40.780713222920894622802734375" lon="-1.62344749085605144500732421875">
        <ele>1275</ele>
        <time>2022-05-03T11:07:11.000Z</time>
      </trkpt>
      <trkpt lat="40.78072763979434967041015625" lon="-1.62349124439060688018798828125">
        <ele>1275</ele>
        <time>2022-05-03T11:07:12.000Z</time>
      </trkpt>
      <trkpt lat="40.780742727220058441162109375" lon="-1.62353466264903545379638671875">
        <ele>1275</ele>
        <time>2022-05-03T11:07:13.000Z</time>
      </trkpt>
      <trkpt lat="40.7807723991572856903076171875" lon="-1.62362166680395603179931640625">
        <ele>1275</ele>
        <time>2022-05-03T11:07:15.000Z</time>
      </trkpt>
      <trkpt lat="40.78080274164676666259765625" lon="-1.62370783276855945587158203125">
        <ele>1275</ele>
        <time>2022-05-03T11:07:17.000Z</time>
      </trkpt>
      <trkpt lat="40.78083467669785022735595703125" lon="-1.62379634566605091094970703125">
        <ele>1275</ele>
        <time>2022-05-03T11:07:19.000Z</time>
      </trkpt>
      <trkpt lat="40.78086870722472667694091796875" lon="-1.6238872893154621124267578125">
        <ele>1275</ele>
        <time>2022-05-03T11:07:21.000Z</time>
      </trkpt>
      <trkpt lat="40.78090625815093517303466796875" lon="-1.62398493848741054534912109375">
        <ele>1275</ele>
        <time>2022-05-03T11:07:23.000Z</time>
      </trkpt>
      <trkpt lat="40.7809430547058582305908203125" lon="-1.62408568896353244781494140625">
        <ele>1275</ele>
        <time>2022-05-03T11:07:25.000Z</time>
      </trkpt>
      <trkpt lat="40.78098136000335216522216796875" lon="-1.62418685853481292724609375">
        <ele>1274.800048828125</ele>
        <time>2022-05-03T11:07:27.000Z</time>
      </trkpt>
      <trkpt lat="40.78102477826178073883056640625" lon="-1.62429858930408954620361328125">
        <ele>1274.5999755859375</ele>
        <time>2022-05-03T11:07:29.000Z</time>
      </trkpt>
      <trkpt lat="40.78107054345309734344482421875" lon="-1.62441962398588657379150390625">
        <ele>1274</ele>
        <time>2022-05-03T11:07:31.000Z</time>
      </trkpt>
      <trkpt lat="40.7810945995151996612548828125" lon="-1.624483577907085418701171875">
        <ele>1273.800048828125</ele>
        <time>2022-05-03T11:07:32.000Z</time>
      </trkpt>
      <trkpt lat="40.7811204157769680023193359375" lon="-1.62455021403729915618896484375">
        <ele>1273.4000244140625</ele>
        <time>2022-05-03T11:07:33.000Z</time>
      </trkpt>
      <trkpt lat="40.7811767421662807464599609375" lon="-1.62468767724931240081787109375">
        <ele>1272.5999755859375</ele>
        <time>2022-05-03T11:07:35.000Z</time>
      </trkpt>
      <trkpt lat="40.781234912574291229248046875" lon="-1.62483151070773601531982421875">
        <ele>1271.800048828125</ele>
        <time>2022-05-03T11:07:37.000Z</time>
      </trkpt>
      <trkpt lat="40.78129618428647518157958984375" lon="-1.6249833069741725921630859375">
        <ele>1271</ele>
        <time>2022-05-03T11:07:39.000Z</time>
      </trkpt>
      <trkpt lat="40.78136038966476917266845703125" lon="-1.6251479275524616241455078125">
        <ele>1270.4000244140625</ele>
        <time>2022-05-03T11:07:41.000Z</time>
      </trkpt>
      <trkpt lat="40.78142979182302951812744140625" lon="-1.62531900219619274139404296875">
        <ele>1269.5999755859375</ele>
        <time>2022-05-03T11:07:43.000Z</time>
      </trkpt>
      <trkpt lat="40.78149936161935329437255859375" lon="-1.6254915855824947357177734375">
        <ele>1268.800048828125</ele>
        <time>2022-05-03T11:07:45.000Z</time>
      </trkpt>
      <trkpt lat="40.78153473325073719024658203125" lon="-1.6255774162709712982177734375">
        <ele>1268.4000244140625</ele>
        <time>2022-05-03T11:07:46.000Z</time>
      </trkpt>
      <trkpt lat="40.78156876377761363983154296875" lon="-1.6256612353026866912841796875">
        <ele>1267.5999755859375</ele>
        <time>2022-05-03T11:07:47.000Z</time>
      </trkpt>
      <trkpt lat="40.78163087368011474609375" lon="-1.62581839598715305328369140625">
        <ele>1267.4000244140625</ele>
        <time>2022-05-03T11:07:49.000Z</time>
      </trkpt>
      <trkpt lat="40.78169063664972782135009765625" lon="-1.6259671747684478759765625">
        <ele>1267.4000244140625</ele>
        <time>2022-05-03T11:07:51.000Z</time>
      </trkpt>
      <trkpt lat="40.78172014094889163970947265625" lon="-1.62603850476443767547607421875">
        <ele>1267.4000244140625</ele>
        <time>2022-05-03T11:07:52.000Z</time>
      </trkpt>
      <trkpt lat="40.781748555600643157958984375" lon="-1.62610874511301517486572265625">
        <ele>1267.4000244140625</ele>
        <time>2022-05-03T11:07:53.000Z</time>
      </trkpt>
      <trkpt lat="40.78180211596190929412841796875" lon="-1.62624419666826725006103515625">
        <ele>1267.5999755859375</ele>
        <time>2022-05-03T11:07:55.000Z</time>
      </trkpt>
      <trkpt lat="40.7818519882857799530029296875" lon="-1.62637461908161640167236328125">
        <ele>1268</ele>
        <time>2022-05-03T11:07:57.000Z</time>
      </trkpt>
      <trkpt lat="40.78190068714320659637451171875" lon="-1.62650001235306262969970703125">
        <ele>1268.199951171875</ele>
        <time>2022-05-03T11:07:59.000Z</time>
      </trkpt>
      <trkpt lat="40.7819250784814357757568359375" lon="-1.6265634633600711822509765625">
        <ele>1268.199951171875</ele>
        <time>2022-05-03T11:08:00.000Z</time>
      </trkpt>
      <trkpt lat="40.781949050724506378173828125" lon="-1.62662775255739688873291015625">
        <ele>1268</ele>
        <time>2022-05-03T11:08:01.000Z</time>
      </trkpt>
      <trkpt lat="40.78199540264904499053955078125" lon="-1.6267584264278411865234375">
        <ele>1267.800048828125</ele>
        <time>2022-05-03T11:08:03.000Z</time>
      </trkpt>
      <trkpt lat="40.78203898854553699493408203125" lon="-1.6268994100391864776611328125">
        <ele>1267.4000244140625</ele>
        <time>2022-05-03T11:08:05.000Z</time>
      </trkpt>
      <trkpt lat="40.7820839993655681610107421875" lon="-1.6270486079156398773193359375">
        <ele>1267</ele>
        <time>2022-05-03T11:08:07.000Z</time>
      </trkpt>
      <trkpt lat="40.7821044512093067169189453125" lon="-1.62712463177740573883056640625">
        <ele>1267</ele>
        <time>2022-05-03T11:08:08.000Z</time>
      </trkpt>
      <trkpt lat="40.78212448395788669586181640625" lon="-1.627202667295932769775390625">
        <ele>1266.800048828125</ele>
        <time>2022-05-03T11:08:09.000Z</time>
      </trkpt>
      <trkpt lat="40.78216186724603176116943359375" lon="-1.6273641027510166168212890625">
        <ele>1266.4000244140625</ele>
        <time>2022-05-03T11:08:11.000Z</time>
      </trkpt>
      <trkpt lat="40.78219505958259105682373046875" lon="-1.6275327466428279876708984375">
        <ele>1266</ele>
        <time>2022-05-03T11:08:13.000Z</time>
      </trkpt>
      <trkpt lat="40.78222691081464290618896484375" lon="-1.6277050785720348358154296875">
        <ele>1265.5999755859375</ele>
        <time>2022-05-03T11:08:15.000Z</time>
      </trkpt>
      <trkpt lat="40.78225842677056789398193359375" lon="-1.62788134999573230743408203125">
        <ele>1265.199951171875</ele>
        <time>2022-05-03T11:08:17.000Z</time>
      </trkpt>
      <trkpt lat="40.7822888530790805816650390625" lon="-1.6280655004084110260009765625">
        <ele>1264.5999755859375</ele>
        <time>2022-05-03T11:08:19.000Z</time>
      </trkpt>
      <trkpt lat="40.78231810592114925384521484375" lon="-1.6282539255917072296142578125">
        <ele>1264.4000244140625</ele>
        <time>2022-05-03T11:08:21.000Z</time>
      </trkpt>
      <trkpt lat="40.78233269043266773223876953125" lon="-1.6283489763736724853515625">
        <ele>1264.199951171875</ele>
        <time>2022-05-03T11:08:22.000Z</time>
      </trkpt>
      <trkpt lat="40.7823485322296619415283203125" lon="-1.6284446977078914642333984375">
        <ele>1264.199951171875</ele>
        <time>2022-05-03T11:08:23.000Z</time>
      </trkpt>
      <trkpt lat="40.782364793121814727783203125" lon="-1.62854201160371303558349609375">
        <ele>1264</ele>
        <time>2022-05-03T11:08:24.000Z</time>
      </trkpt>
      <trkpt lat="40.7823810540139675140380859375" lon="-1.628640331327915191650390625">
        <ele>1264</ele>
        <time>2022-05-03T11:08:25.000Z</time>
      </trkpt>
      <trkpt lat="40.7824100553989410400390625" lon="-1.628835462033748626708984375">
        <ele>1263.800048828125</ele>
        <time>2022-05-03T11:08:27.000Z</time>
      </trkpt>
      <trkpt lat="40.78244131989777088165283203125" lon="-1.62902556359767913818359375">
        <ele>1263.5999755859375</ele>
        <time>2022-05-03T11:08:29.000Z</time>
      </trkpt>
      <trkpt lat="40.78247099183499813079833984375" lon="-1.6292138211429119110107421875">
        <ele>1264.199951171875</ele>
        <time>2022-05-03T11:08:31.000Z</time>
      </trkpt>
      <trkpt lat="40.7824880070984363555908203125" lon="-1.62930828519165515899658203125">
        <ele>1264.4000244140625</ele>
        <time>2022-05-03T11:08:32.000Z</time>
      </trkpt>
      <trkpt lat="40.7825054414570331573486328125" lon="-1.6294035874307155609130859375">
        <ele>1264.5999755859375</ele>
        <time>2022-05-03T11:08:33.000Z</time>
      </trkpt>
      <trkpt lat="40.78253947198390960693359375" lon="-1.6295940242707729339599609375">
        <ele>1265.199951171875</ele>
        <time>2022-05-03T11:08:35.000Z</time>
      </trkpt>
      <trkpt lat="40.78257123939692974090576171875" lon="-1.62978504784405231475830078125">
        <ele>1265.5999755859375</ele>
        <time>2022-05-03T11:08:37.000Z</time>
      </trkpt>
      <trkpt lat="40.78260250389575958251953125" lon="-1.6299745626747608184814453125">
        <ele>1265.5999755859375</ele>
        <time>2022-05-03T11:08:39.000Z</time>
      </trkpt>
      <trkpt lat="40.78263427130877971649169921875" lon="-1.630163155496120452880859375">
        <ele>1265.199951171875</ele>
        <time>2022-05-03T11:08:41.000Z</time>
      </trkpt>
      <trkpt lat="40.7826496101915836334228515625" lon="-1.6302565298974514007568359375">
        <ele>1265</ele>
        <time>2022-05-03T11:08:42.000Z</time>
      </trkpt>
      <trkpt lat="40.782665200531482696533203125" lon="-1.63034864701330661773681640625">
        <ele>1265.199951171875</ele>
        <time>2022-05-03T11:08:43.000Z</time>
      </trkpt>
      <trkpt lat="40.782695710659027099609375" lon="-1.630528271198272705078125">
        <ele>1265.4000244140625</ele>
        <time>2022-05-03T11:08:45.000Z</time>
      </trkpt>
      <trkpt lat="40.78272479586303234100341796875" lon="-1.630704291164875030517578125">
        <ele>1265.800048828125</ele>
        <time>2022-05-03T11:08:47.000Z</time>
      </trkpt>
      <trkpt lat="40.78275379724800586700439453125" lon="-1.6308788023889064788818359375">
        <ele>1265.4000244140625</ele>
        <time>2022-05-03T11:08:49.000Z</time>
      </trkpt>
      <trkpt lat="40.78278279863297939300537109375" lon="-1.6310518048703670501708984375">
        <ele>1265.5999755859375</ele>
        <time>2022-05-03T11:08:51.000Z</time>
      </trkpt>
      <trkpt lat="40.782811380922794342041015625" lon="-1.6312217898666858673095703125">
        <ele>1266</ele>
        <time>2022-05-03T11:08:53.000Z</time>
      </trkpt>
      <trkpt lat="40.7828380353748798370361328125" lon="-1.6313870809972286224365234375">
        <ele>1266.4000244140625</ele>
        <time>2022-05-03T11:08:55.000Z</time>
      </trkpt>
      <trkpt lat="40.78285194933414459228515625" lon="-1.631466709077358245849609375">
        <ele>1266.5999755859375</ele>
        <time>2022-05-03T11:08:56.000Z</time>
      </trkpt>
      <trkpt lat="40.78286510892212390899658203125" lon="-1.63154424168169498443603515625">
        <ele>1266.800048828125</ele>
        <time>2022-05-03T11:08:57.000Z</time>
      </trkpt>
      <trkpt lat="40.78289075754582881927490234375" lon="-1.63169478066265583038330078125">
        <ele>1267</ele>
        <time>2022-05-03T11:08:59.000Z</time>
      </trkpt>
      <trkpt lat="40.78291498124599456787109375" lon="-1.6318380273878574371337890625">
        <ele>1267.800048828125</ele>
        <time>2022-05-03T11:09:01.000Z</time>
      </trkpt>
      <trkpt lat="40.78293954022228717803955078125" lon="-1.6319724731147289276123046875">
        <ele>1268.5999755859375</ele>
        <time>2022-05-03T11:09:03.000Z</time>
      </trkpt>
      <trkpt lat="40.7829496823251247406005859375" lon="-1.63203860633075237274169921875">
        <ele>1269</ele>
        <time>2022-05-03T11:09:04.000Z</time>
      </trkpt>
      <trkpt lat="40.782960243523120880126953125" lon="-1.63210398517549037933349609375">
        <ele>1269.4000244140625</ele>
        <time>2022-05-03T11:09:05.000Z</time>
      </trkpt>
      <trkpt lat="40.78298195265233516693115234375" lon="-1.63223407231271266937255859375">
        <ele>1270.199951171875</ele>
        <time>2022-05-03T11:09:07.000Z</time>
      </trkpt>
      <trkpt lat="40.7829919271171092987060546875" lon="-1.63229861296713352203369140625">
        <ele>1270.4000244140625</ele>
        <time>2022-05-03T11:09:08.000Z</time>
      </trkpt>
      <trkpt lat="40.78300240449607372283935546875" lon="-1.63236348889768123626708984375">
        <ele>1270.800048828125</ele>
        <time>2022-05-03T11:09:09.000Z</time>
      </trkpt>
      <trkpt lat="40.7830242812633514404296875" lon="-1.63249022327363491058349609375">
        <ele>1271</ele>
        <time>2022-05-03T11:09:11.000Z</time>
      </trkpt>
      <trkpt lat="40.78304531984031200408935546875" lon="-1.63261360488831996917724609375">
        <ele>1271.4000244140625</ele>
        <time>2022-05-03T11:09:13.000Z</time>
      </trkpt>
      <trkpt lat="40.78306711278855800628662109375" lon="-1.63273279555141925811767578125">
        <ele>1271.5999755859375</ele>
        <time>2022-05-03T11:09:15.000Z</time>
      </trkpt>
      <trkpt lat="40.78307834453880786895751953125" lon="-1.63279113359749317169189453125">
        <ele>1271.5999755859375</ele>
        <time>2022-05-03T11:09:16.000Z</time>
      </trkpt>
      <trkpt lat="40.78308857046067714691162109375" lon="-1.63284913636744022369384765625">
        <ele>1271.5999755859375</ele>
        <time>2022-05-03T11:09:17.000Z</time>
      </trkpt>
      <trkpt lat="40.7831075973808765411376953125" lon="-1.63296430371701717376708984375">
        <ele>1271.800048828125</ele>
        <time>2022-05-03T11:09:19.000Z</time>
      </trkpt>
      <trkpt lat="40.78311673365533351898193359375" lon="-1.63302205502986907958984375">
        <ele>1272</ele>
        <time>2022-05-03T11:09:20.000Z</time>
      </trkpt>
      <trkpt lat="40.78312612138688564300537109375" lon="-1.63307972252368927001953125">
        <ele>1272</ele>
        <time>2022-05-03T11:09:21.000Z</time>
      </trkpt>
      <trkpt lat="40.783145315945148468017578125" lon="-1.63319396786391735076904296875">
        <ele>1272.4000244140625</ele>
        <time>2022-05-03T11:09:23.000Z</time>
      </trkpt>
      <trkpt lat="40.7831632532179355621337890625" lon="-1.63330611772835254669189453125">
        <ele>1272.5999755859375</ele>
        <time>2022-05-03T11:09:25.000Z</time>
      </trkpt>
      <trkpt lat="40.78317255713045597076416015625" lon="-1.63336093537509441375732421875">
        <ele>1272.5999755859375</ele>
        <time>2022-05-03T11:09:26.000Z</time>
      </trkpt>
      <trkpt lat="40.78318186104297637939453125" lon="-1.633415333926677703857421875">
        <ele>1272.800048828125</ele>
        <time>2022-05-03T11:09:27.000Z</time>
      </trkpt>
      <trkpt lat="40.78320222906768321990966796875" lon="-1.633525975048542022705078125">
        <ele>1273</ele>
        <time>2022-05-03T11:09:29.000Z</time>
      </trkpt>
      <trkpt lat="40.78322075307369232177734375" lon="-1.6336377896368503570556640625">
        <ele>1273.199951171875</ele>
        <time>2022-05-03T11:09:31.000Z</time>
      </trkpt>
      <trkpt lat="40.7832403667271137237548828125" lon="-1.63375019095838069915771484375">
        <ele>1273.4000244140625</ele>
        <time>2022-05-03T11:09:33.000Z</time>
      </trkpt>
      <trkpt lat="40.78325838781893253326416015625" lon="-1.6338607482612133026123046875">
        <ele>1273.4000244140625</ele>
        <time>2022-05-03T11:09:35.000Z</time>
      </trkpt>
      <trkpt lat="40.7832665182650089263916015625" lon="-1.63391590118408203125">
        <ele>1273.4000244140625</ele>
        <time>2022-05-03T11:09:36.000Z</time>
      </trkpt>
      <trkpt lat="40.78327414579689502716064453125" lon="-1.633969880640506744384765625">
        <ele>1273.4000244140625</ele>
        <time>2022-05-03T11:09:37.000Z</time>
      </trkpt>
      <trkpt lat="40.78329342417418956756591796875" lon="-1.6340786777436733245849609375">
        <ele>1273.199951171875</ele>
        <time>2022-05-03T11:09:39.000Z</time>
      </trkpt>
      <trkpt lat="40.78331387601792812347412109375" lon="-1.63418990559875965118408203125">
        <ele>1273</ele>
        <time>2022-05-03T11:09:41.000Z</time>
      </trkpt>
      <trkpt lat="40.7833305560052394866943359375" lon="-1.63430373184382915496826171875">
        <ele>1272.5999755859375</ele>
        <time>2022-05-03T11:09:43.000Z</time>
      </trkpt>
      <trkpt lat="40.78334824182093143463134765625" lon="-1.63441873155534267425537109375">
        <ele>1272.4000244140625</ele>
        <time>2022-05-03T11:09:45.000Z</time>
      </trkpt>
      <trkpt lat="40.78335880301892757415771484375" lon="-1.63447857834398746490478515625">
        <ele>1272.199951171875</ele>
        <time>2022-05-03T11:09:46.000Z</time>
      </trkpt>
      <trkpt lat="40.7833701185882091522216796875" lon="-1.63454152643680572509765625">
        <ele>1272.199951171875</ele>
        <time>2022-05-03T11:09:47.000Z</time>
      </trkpt>
      <trkpt lat="40.7833895646035671234130859375" lon="-1.63466499187052249908447265625">
        <ele>1271.5999755859375</ele>
        <time>2022-05-03T11:09:49.000Z</time>
      </trkpt>
      <trkpt lat="40.783409178256988525390625" lon="-1.6347938217222690582275390625">
        <ele>1270.800048828125</ele>
        <time>2022-05-03T11:09:51.000Z</time>
      </trkpt>
      <trkpt lat="40.78343071974813938140869140625" lon="-1.63493572734296321868896484375">
        <ele>1270.4000244140625</ele>
        <time>2022-05-03T11:09:53.000Z</time>
      </trkpt>
      <trkpt lat="40.7834427058696746826171875" lon="-1.63501133210957050323486328125">
        <ele>1270.199951171875</ele>
        <time>2022-05-03T11:09:54.000Z</time>
      </trkpt>
      <trkpt lat="40.78345519490540027618408203125" lon="-1.63508869707584381103515625">
        <ele>1270</ele>
        <time>2022-05-03T11:09:55.000Z</time>
      </trkpt>
      <trkpt lat="40.783479921519756317138671875" lon="-1.63524585776031017303466796875">
        <ele>1269.5999755859375</ele>
        <time>2022-05-03T11:09:57.000Z</time>
      </trkpt>
      <trkpt lat="40.78350716270506381988525390625" lon="-1.635411567986011505126953125">
        <ele>1269.199951171875</ele>
        <time>2022-05-03T11:09:59.000Z</time>
      </trkpt>
      <trkpt lat="40.78353549353778362274169921875" lon="-1.6355840675532817840576171875">
        <ele>1268.5999755859375</ele>
        <time>2022-05-03T11:10:01.000Z</time>
      </trkpt>
      <trkpt lat="40.78356273472309112548828125" lon="-1.6357574053108692169189453125">
        <ele>1268.199951171875</ele>
        <time>2022-05-03T11:10:03.000Z</time>
      </trkpt>
      <trkpt lat="40.78359148465096950531005859375" lon="-1.63592512719333171844482421875">
        <ele>1268</ele>
        <time>2022-05-03T11:10:05.000Z</time>
      </trkpt>
      <trkpt lat="40.78361964784562587738037109375" lon="-1.63609293289482593536376953125">
        <ele>1268.5999755859375</ele>
        <time>2022-05-03T11:10:07.000Z</time>
      </trkpt>
      <trkpt lat="40.78364563174545764923095703125" lon="-1.63625805638730525970458984375">
        <ele>1269.199951171875</ele>
        <time>2022-05-03T11:10:09.000Z</time>
      </trkpt>
      <trkpt lat="40.7836732082068920135498046875" lon="-1.6364235989749431610107421875">
        <ele>1269.800048828125</ele>
        <time>2022-05-03T11:10:11.000Z</time>
      </trkpt>
      <trkpt lat="40.78370095230638980865478515625" lon="-1.63658964447677135467529296875">
        <ele>1270.5999755859375</ele>
        <time>2022-05-03T11:10:13.000Z</time>
      </trkpt>
      <trkpt lat="40.783728696405887603759765625" lon="-1.6367598809301853179931640625">
        <ele>1271</ele>
        <time>2022-05-03T11:10:15.000Z</time>
      </trkpt>
      <trkpt lat="40.783742778003215789794921875" lon="-1.636845879256725311279296875">
        <ele>1271.199951171875</ele>
        <time>2022-05-03T11:10:16.000Z</time>
      </trkpt>
      <trkpt lat="40.7837560214102268218994140625" lon="-1.6369320452213287353515625">
        <ele>1271.5999755859375</ele>
        <time>2022-05-03T11:10:17.000Z</time>
      </trkpt>
      <trkpt lat="40.78378292731940746307373046875" lon="-1.63710211403667926788330078125">
        <ele>1272</ele>
        <time>2022-05-03T11:10:19.000Z</time>
      </trkpt>
      <trkpt lat="40.78380958177149295806884765625" lon="-1.6372619569301605224609375">
        <ele>1272.5999755859375</ele>
        <time>2022-05-03T11:10:21.000Z</time>
      </trkpt>
      <trkpt lat="40.78383606858551502227783203125" lon="-1.6374123282730579376220703125">
        <ele>1272.800048828125</ele>
        <time>2022-05-03T11:10:23.000Z</time>
      </trkpt>
      <trkpt lat="40.78384864144027233123779296875" lon="-1.63748323917388916015625">
        <ele>1273</ele>
        <time>2022-05-03T11:10:24.000Z</time>
      </trkpt>
      <trkpt lat="40.78385987319052219390869140625" lon="-1.637551300227642059326171875">
        <ele>1273</ele>
        <time>2022-05-03T11:10:25.000Z</time>
      </trkpt>
      <trkpt lat="40.78388015739619731903076171875" lon="-1.63767979480326175689697265625">
        <ele>1273</ele>
        <time>2022-05-03T11:10:27.000Z</time>
      </trkpt>
      <trkpt lat="40.783901698887348175048828125" lon="-1.63780636154115200042724609375">
        <ele>1273</ele>
        <time>2022-05-03T11:10:29.000Z</time>
      </trkpt>
      <trkpt lat="40.7839219830930233001708984375" lon="-1.63792940787971019744873046875">
        <ele>1273</ele>
        <time>2022-05-03T11:10:31.000Z</time>
      </trkpt>
      <trkpt lat="40.78394067473709583282470703125" lon="-1.6380476765334606170654296875">
        <ele>1273.199951171875</ele>
        <time>2022-05-03T11:10:33.000Z</time>
      </trkpt>
      <trkpt lat="40.783960036933422088623046875" lon="-1.63816225714981555938720703125">
        <ele>1273.4000244140625</ele>
        <time>2022-05-03T11:10:35.000Z</time>
      </trkpt>
      <trkpt lat="40.78398174606263637542724609375" lon="-1.63827625103294849395751953125">
        <ele>1273.5999755859375</ele>
        <time>2022-05-03T11:10:37.000Z</time>
      </trkpt>
      <trkpt lat="40.78400270082056522369384765625" lon="-1.6383913345634937286376953125">
        <ele>1274</ele>
        <time>2022-05-03T11:10:39.000Z</time>
      </trkpt>
      <trkpt lat="40.7840212248265743255615234375" lon="-1.63849904201924800872802734375">
        <ele>1274.4000244140625</ele>
        <time>2022-05-03T11:10:41.000Z</time>
      </trkpt>
      <trkpt lat="40.784039832651615142822265625" lon="-1.6386022232472896575927734375">
        <ele>1274.800048828125</ele>
        <time>2022-05-03T11:10:43.000Z</time>
      </trkpt>
      <trkpt lat="40.7840587757527828216552734375" lon="-1.6387024708092212677001953125">
        <ele>1275</ele>
        <time>2022-05-03T11:10:45.000Z</time>
      </trkpt>
      <trkpt lat="40.7840695045888423919677734375" lon="-1.63874932564795017242431640625">
        <ele>1275.199951171875</ele>
        <time>2022-05-03T11:10:46.000Z</time>
      </trkpt>
      <trkpt lat="40.78408517874777317047119140625" lon="-1.63879190571606159210205078125">
        <ele>1275.4000244140625</ele>
        <time>2022-05-03T11:10:47.000Z</time>
      </trkpt>
      <trkpt lat="40.7841268368065357208251953125" lon="-1.63886382244527339935302734375">
        <ele>1275.5999755859375</ele>
        <time>2022-05-03T11:10:49.000Z</time>
      </trkpt>
      <trkpt lat="40.7841667346656322479248046875" lon="-1.6389262676239013671875">
        <ele>1276</ele>
        <time>2022-05-03T11:10:51.000Z</time>
      </trkpt>
      <trkpt lat="40.784200765192508697509765625" lon="-1.63898594677448272705078125">
        <ele>1276.199951171875</ele>
        <time>2022-05-03T11:10:53.000Z</time>
      </trkpt>
      <trkpt lat="40.784213840961456298828125" lon="-1.63901503197848796844482421875">
        <ele>1276.199951171875</ele>
        <time>2022-05-03T11:10:54.000Z</time>
      </trkpt>
      <trkpt lat="40.784224234521389007568359375" lon="-1.63904638029634952545166015625">
        <ele>1276.4000244140625</ele>
        <time>2022-05-03T11:10:55.000Z</time>
      </trkpt>
      <trkpt lat="40.78423236496746540069580078125" lon="-1.6390773095190525054931640625">
        <ele>1276.4000244140625</ele>
        <time>2022-05-03T11:10:56.000Z</time>
      </trkpt>
      <trkpt lat="40.78423839993774890899658203125" lon="-1.63910807110369205474853515625">
        <ele>1276.5999755859375</ele>
        <time>2022-05-03T11:10:57.000Z</time>
      </trkpt>
      <trkpt lat="40.78424594365060329437255859375" lon="-1.639165990054607391357421875">
        <ele>1276.800048828125</ele>
        <time>2022-05-03T11:10:59.000Z</time>
      </trkpt>
      <trkpt lat="40.78425114043056964874267578125" lon="-1.63921334780752658843994140625">
        <ele>1277</ele>
        <time>2022-05-03T11:11:01.000Z</time>
      </trkpt>
      <trkpt lat="40.784256421029567718505859375" lon="-1.63924704305827617645263671875">
        <ele>1277.199951171875</ele>
        <time>2022-05-03T11:11:03.000Z</time>
      </trkpt>
      <trkpt lat="40.78426337800920009613037109375" lon="-1.63928224705159664154052734375">
        <ele>1277.4000244140625</ele>
        <time>2022-05-03T11:11:05.000Z</time>
      </trkpt>
      <trkpt lat="40.78426287509500980377197265625" lon="-1.63928928785026073455810546875">
        <ele>1277.4000244140625</ele>
        <time>2022-05-03T11:11:07.000Z</time>
      </trkpt>
      <trkpt lat="40.78426304273307323455810546875" lon="-1.63931912742555141448974609375">
        <ele>1277.4000244140625</ele>
        <time>2022-05-03T11:11:54.000Z</time>
      </trkpt>
      <trkpt lat="40.7842661440372467041015625" lon="-1.6393381543457508087158203125">
        <ele>1277.5999755859375</ele>
        <time>2022-05-03T11:11:55.000Z</time>
      </trkpt>
      <trkpt lat="40.78427083790302276611328125" lon="-1.63938559591770172119140625">
        <ele>1277.800048828125</ele>
        <time>2022-05-03T11:11:57.000Z</time>
      </trkpt>
      <trkpt lat="40.78427352011203765869140625" lon="-1.63944150321185588836669921875">
        <ele>1278</ele>
        <time>2022-05-03T11:11:59.000Z</time>
      </trkpt>
      <trkpt lat="40.78427486121654510498046875" lon="-1.639507971704006195068359375">
        <ele>1278</ele>
        <time>2022-05-03T11:12:01.000Z</time>
      </trkpt>
      <trkpt lat="40.784275196492671966552734375" lon="-1.6395445168018341064453125">
        <ele>1278</ele>
        <time>2022-05-03T11:12:02.000Z</time>
      </trkpt>
      <trkpt lat="40.78427528031170368194580078125" lon="-1.63958148099482059478759765625">
        <ele>1277.800048828125</ele>
        <time>2022-05-03T11:12:03.000Z</time>
      </trkpt>
      <trkpt lat="40.78427620232105255126953125" lon="-1.639653481543064117431640625">
        <ele>1277.800048828125</ele>
        <time>2022-05-03T11:12:05.000Z</time>
      </trkpt>
      <trkpt lat="40.7842787168920040130615234375" lon="-1.6397297568619251251220703125">
        <ele>1277.5999755859375</ele>
        <time>2022-05-03T11:12:07.000Z</time>
      </trkpt>
      <trkpt lat="40.78428198583424091339111328125" lon="-1.63980536162853240966796875">
        <ele>1277.5999755859375</ele>
        <time>2022-05-03T11:12:09.000Z</time>
      </trkpt>
      <trkpt lat="40.7842877693474292755126953125" lon="-1.63987920619547367095947265625">
        <ele>1277.4000244140625</ele>
        <time>2022-05-03T11:12:11.000Z</time>
      </trkpt>
      <trkpt lat="40.78428869135677814483642578125" lon="-1.63991658948361873626708984375">
        <ele>1277.4000244140625</ele>
        <time>2022-05-03T11:12:12.000Z</time>
      </trkpt>
      <trkpt lat="40.7842902839183807373046875" lon="-1.63995481096208095550537109375">
        <ele>1277.199951171875</ele>
        <time>2022-05-03T11:12:13.000Z</time>
      </trkpt>
      <trkpt lat="40.78429271467030048370361328125" lon="-1.64003728888928890228271484375">
        <ele>1277</ele>
        <time>2022-05-03T11:12:15.000Z</time>
      </trkpt>
      <trkpt lat="40.78430411405861377716064453125" lon="-1.64012529887259006500244140625">
        <ele>1276.800048828125</ele>
        <time>2022-05-03T11:12:17.000Z</time>
      </trkpt>
      <trkpt lat="40.78431199304759502410888671875" lon="-1.64017106406390666961669921875">
        <ele>1276.800048828125</ele>
        <time>2022-05-03T11:12:18.000Z</time>
      </trkpt>
      <trkpt lat="40.78431953676044940948486328125" lon="-1.64021900855004787445068359375">
        <ele>1276.5999755859375</ele>
        <time>2022-05-03T11:12:19.000Z</time>
      </trkpt>
      <trkpt lat="40.78433579765260219573974609375" lon="-1.64032277651131153106689453125">
        <ele>1276.4000244140625</ele>
        <time>2022-05-03T11:12:21.000Z</time>
      </trkpt>
      <trkpt lat="40.7843531481921672821044921875" lon="-1.64043358527123928070068359375">
        <ele>1276.4000244140625</ele>
        <time>2022-05-03T11:12:23.000Z</time>
      </trkpt>
      <trkpt lat="40.78437049873173236846923828125" lon="-1.64055109955370426177978515625">
        <ele>1276.199951171875</ele>
        <time>2022-05-03T11:12:25.000Z</time>
      </trkpt>
      <trkpt lat="40.78438156284391880035400390625" lon="-1.64061044342815876007080078125">
        <ele>1276</ele>
        <time>2022-05-03T11:12:26.000Z</time>
      </trkpt>
      <trkpt lat="40.784390866756439208984375" lon="-1.64067280478775501251220703125">
        <ele>1276</ele>
        <time>2022-05-03T11:12:27.000Z</time>
      </trkpt>
      <trkpt lat="40.78441140241920948028564453125" lon="-1.64079786278307437896728515625">
        <ele>1275.800048828125</ele>
        <time>2022-05-03T11:12:29.000Z</time>
      </trkpt>
      <trkpt lat="40.78443520702421665191650390625" lon="-1.64092459715902805328369140625">
        <ele>1275.800048828125</ele>
        <time>2022-05-03T11:12:31.000Z</time>
      </trkpt>
      <trkpt lat="40.78446102328598499298095703125" lon="-1.641050912439823150634765625">
        <ele>1275.800048828125</ele>
        <time>2022-05-03T11:12:33.000Z</time>
      </trkpt>
      <trkpt lat="40.78448298387229442596435546875" lon="-1.6411804966628551483154296875">
        <ele>1276</ele>
        <time>2022-05-03T11:12:35.000Z</time>
      </trkpt>
      <trkpt lat="40.78449455089867115020751953125" lon="-1.6412472166121006011962890625">
        <ele>1276.199951171875</ele>
        <time>2022-05-03T11:12:36.000Z</time>
      </trkpt>
      <trkpt lat="40.78450544737279415130615234375" lon="-1.64131368510425090789794921875">
        <ele>1276.199951171875</ele>
        <time>2022-05-03T11:12:37.000Z</time>
      </trkpt>
      <trkpt lat="40.78452690504491329193115234375" lon="-1.641447544097900390625">
        <ele>1276.4000244140625</ele>
        <time>2022-05-03T11:12:39.000Z</time>
      </trkpt>
      <trkpt lat="40.7845504581928253173828125" lon="-1.64158500730991363525390625">
        <ele>1276.4000244140625</ele>
        <time>2022-05-03T11:12:41.000Z</time>
      </trkpt>
      <trkpt lat="40.784573592245578765869140625" lon="-1.64172758348286151885986328125">
        <ele>1275.800048828125</ele>
        <time>2022-05-03T11:12:43.000Z</time>
      </trkpt>
      <trkpt lat="40.78458675183355808258056640625" lon="-1.6418007574975490570068359375">
        <ele>1275.5999755859375</ele>
        <time>2022-05-03T11:12:44.000Z</time>
      </trkpt>
      <trkpt lat="40.7846002466976642608642578125" lon="-1.6418755240738391876220703125">
        <ele>1275.199951171875</ele>
        <time>2022-05-03T11:12:45.000Z</time>
      </trkpt>
      <trkpt lat="40.78463050536811351776123046875" lon="-1.64202681742608547210693359375">
        <ele>1274.4000244140625</ele>
        <time>2022-05-03T11:12:47.000Z</time>
      </trkpt>
      <trkpt lat="40.78464559279382228851318359375" lon="-1.64210510440170764923095703125">
        <ele>1274.199951171875</ele>
        <time>2022-05-03T11:12:48.000Z</time>
      </trkpt>
      <trkpt lat="40.78466109931468963623046875" lon="-1.64218523539602756500244140625">
        <ele>1273.800048828125</ele>
        <time>2022-05-03T11:12:49.000Z</time>
      </trkpt>
      <trkpt lat="40.78468968160450458526611328125" lon="-1.64235169999301433563232421875">
        <ele>1273</ele>
        <time>2022-05-03T11:12:51.000Z</time>
      </trkpt>
      <trkpt lat="40.78471876680850982666015625" lon="-1.6425205953419208526611328125">
        <ele>1272.5999755859375</ele>
        <time>2022-05-03T11:12:53.000Z</time>
      </trkpt>
      <trkpt lat="40.78474852256476879119873046875" lon="-1.6426919214427471160888671875">
        <ele>1272.199951171875</ele>
        <time>2022-05-03T11:12:55.000Z</time>
      </trkpt>
      <trkpt lat="40.78477802686393260955810546875" lon="-1.64286098442971706390380859375">
        <ele>1271.800048828125</ele>
        <time>2022-05-03T11:12:57.000Z</time>
      </trkpt>
      <trkpt lat="40.7848057709634304046630859375" lon="-1.6430255211889743804931640625">
        <ele>1271.199951171875</ele>
        <time>2022-05-03T11:12:59.000Z</time>
      </trkpt>
      <trkpt lat="40.78483351506292819976806640625" lon="-1.64318268187344074249267578125">
        <ele>1271</ele>
        <time>2022-05-03T11:13:01.000Z</time>
      </trkpt>
      <trkpt lat="40.78486016951501369476318359375" lon="-1.6433333046734333038330078125">
        <ele>1271</ele>
        <time>2022-05-03T11:13:03.000Z</time>
      </trkpt>
      <trkpt lat="40.784885399043560028076171875" lon="-1.6434825025498867034912109375">
        <ele>1271</ele>
        <time>2022-05-03T11:13:05.000Z</time>
      </trkpt>
      <trkpt lat="40.78490878455340862274169921875" lon="-1.64363262243568897247314453125">
        <ele>1271</ele>
        <time>2022-05-03T11:13:07.000Z</time>
      </trkpt>
      <trkpt lat="40.7849331758916378021240234375" lon="-1.64378249086439609527587890625">
        <ele>1271</ele>
        <time>2022-05-03T11:13:09.000Z</time>
      </trkpt>
      <trkpt lat="40.78495941124856472015380859375" lon="-1.6439300961792469024658203125">
        <ele>1271.4000244140625</ele>
        <time>2022-05-03T11:13:11.000Z</time>
      </trkpt>
      <trkpt lat="40.78498430550098419189453125" lon="-1.6440776176750659942626953125">
        <ele>1271.800048828125</ele>
        <time>2022-05-03T11:13:13.000Z</time>
      </trkpt>
      <trkpt lat="40.7850076071918010711669921875" lon="-1.64422371424734592437744140625">
        <ele>1272.4000244140625</ele>
        <time>2022-05-03T11:13:15.000Z</time>
      </trkpt>
      <trkpt lat="40.78503149561583995819091796875" lon="-1.64436511695384979248046875">
        <ele>1273</ele>
        <time>2022-05-03T11:13:17.000Z</time>
      </trkpt>
      <trkpt lat="40.7850555516779422760009765625" lon="-1.64450283162295818328857421875">
        <ele>1273.5999755859375</ele>
        <time>2022-05-03T11:13:19.000Z</time>
      </trkpt>
      <trkpt lat="40.78508094884455204010009765625" lon="-1.64463643915951251983642578125">
        <ele>1274</ele>
        <time>2022-05-03T11:13:21.000Z</time>
      </trkpt>
      <trkpt lat="40.78510357998311519622802734375" lon="-1.64476585574448108673095703125">
        <ele>1274.199951171875</ele>
        <time>2022-05-03T11:13:23.000Z</time>
      </trkpt>
      <trkpt lat="40.785124786198139190673828125" lon="-1.64489007554948329925537109375">
        <ele>1274.5999755859375</ele>
        <time>2022-05-03T11:13:25.000Z</time>
      </trkpt>
      <trkpt lat="40.78514523804187774658203125" lon="-1.64501697756350040435791015625">
        <ele>1274.800048828125</ele>
        <time>2022-05-03T11:13:27.000Z</time>
      </trkpt>
      <trkpt lat="40.7851544581353664398193359375" lon="-1.64507883600890636444091796875">
        <ele>1274.800048828125</ele>
        <time>2022-05-03T11:13:28.000Z</time>
      </trkpt>
      <trkpt lat="40.78516258858144283294677734375" lon="-1.6451384313404560089111328125">
        <ele>1274.800048828125</ele>
        <time>2022-05-03T11:13:29.000Z</time>
      </trkpt>
      <trkpt lat="40.7851816155016422271728515625" lon="-1.64525485597550868988037109375">
        <ele>1275</ele>
        <time>2022-05-03T11:13:31.000Z</time>
      </trkpt>
      <trkpt lat="40.78520198352634906768798828125" lon="-1.64537186734378337860107421875">
        <ele>1275.4000244140625</ele>
        <time>2022-05-03T11:13:33.000Z</time>
      </trkpt>
      <trkpt lat="40.785223357379436492919921875" lon="-1.6454911418259143829345703125">
        <ele>1275.800048828125</ele>
        <time>2022-05-03T11:13:35.000Z</time>
      </trkpt>
      <trkpt lat="40.78524255193769931793212890625" lon="-1.645609997212886810302734375">
        <ele>1276</ele>
        <time>2022-05-03T11:13:37.000Z</time>
      </trkpt>
      <trkpt lat="40.785258226096630096435546875" lon="-1.64572893641889095306396484375">
        <ele>1276.4000244140625</ele>
        <time>2022-05-03T11:13:39.000Z</time>
      </trkpt>
      <trkpt lat="40.78526727855205535888671875" lon="-1.6457875259220600128173828125">
        <ele>1276.4000244140625</ele>
        <time>2022-05-03T11:13:40.000Z</time>
      </trkpt>
      <trkpt lat="40.78527725301682949066162109375" lon="-1.64584594778716564178466796875">
        <ele>1276.5999755859375</ele>
        <time>2022-05-03T11:13:41.000Z</time>
      </trkpt>
      <trkpt lat="40.78529686667025089263916015625" lon="-1.6459642164409160614013671875">
        <ele>1276.5999755859375</ele>
        <time>2022-05-03T11:13:43.000Z</time>
      </trkpt>
      <trkpt lat="40.785313546657562255859375" lon="-1.64608550257980823516845703125">
        <ele>1276.5999755859375</ele>
        <time>2022-05-03T11:13:45.000Z</time>
      </trkpt>
      <trkpt lat="40.78532922081649303436279296875" lon="-1.64620720781385898590087890625">
        <ele>1276.4000244140625</ele>
        <time>2022-05-03T11:13:47.000Z</time>
      </trkpt>
      <trkpt lat="40.785346068441867828369140625" lon="-1.646334193646907806396484375">
        <ele>1276.199951171875</ele>
        <time>2022-05-03T11:13:49.000Z</time>
      </trkpt>
      <trkpt lat="40.78536274842917919158935546875" lon="-1.6464651189744472503662109375">
        <ele>1276</ele>
        <time>2022-05-03T11:13:51.000Z</time>
      </trkpt>
      <trkpt lat="40.7853827811777591705322265625" lon="-1.646597050130367279052734375">
        <ele>1275.800048828125</ele>
        <time>2022-05-03T11:13:53.000Z</time>
      </trkpt>
      <trkpt lat="40.785397030413150787353515625" lon="-1.64673375897109508514404296875">
        <ele>1275.5999755859375</ele>
        <time>2022-05-03T11:13:55.000Z</time>
      </trkpt>
      <trkpt lat="40.78541287221014499664306640625" lon="-1.6468768380582332611083984375">
        <ele>1275.4000244140625</ele>
        <time>2022-05-03T11:13:57.000Z</time>
      </trkpt>
      <trkpt lat="40.785430558025836944580078125" lon="-1.64702226407825946807861328125">
        <ele>1275.199951171875</ele>
        <time>2022-05-03T11:13:59.000Z</time>
      </trkpt>
      <trkpt lat="40.78544824384152889251708984375" lon="-1.6471727192401885986328125">
        <ele>1275.199951171875</ele>
        <time>2022-05-03T11:14:01.000Z</time>
      </trkpt>
      <trkpt lat="40.7854682765901088714599609375" lon="-1.6473308019340038299560546875">
        <ele>1275</ele>
        <time>2022-05-03T11:14:03.000Z</time>
      </trkpt>
      <trkpt lat="40.7854779995977878570556640625" lon="-1.6474142856895923614501953125">
        <ele>1274.800048828125</ele>
        <time>2022-05-03T11:14:04.000Z</time>
      </trkpt>
      <trkpt lat="40.78548780642449855804443359375" lon="-1.64750070311129093170166015625">
        <ele>1274.4000244140625</ele>
        <time>2022-05-03T11:14:05.000Z</time>
      </trkpt>
      <trkpt lat="40.7855095155537128448486328125" lon="-1.6476823389530181884765625">
        <ele>1273.4000244140625</ele>
        <time>2022-05-03T11:14:07.000Z</time>
      </trkpt>
      <trkpt lat="40.78553088940680027008056640625" lon="-1.64787721820175647735595703125">
        <ele>1272.5999755859375</ele>
        <time>2022-05-03T11:14:09.000Z</time>
      </trkpt>
      <trkpt lat="40.78554312698543071746826171875" lon="-1.6479792259633541107177734375">
        <ele>1272</ele>
        <time>2022-05-03T11:14:10.000Z</time>
      </trkpt>
      <trkpt lat="40.78555561602115631103515625" lon="-1.64808291010558605194091796875">
        <ele>1271.5999755859375</ele>
        <time>2022-05-03T11:14:11.000Z</time>
      </trkpt>
      <trkpt lat="40.785580761730670928955078125" lon="-1.64829991757869720458984375">
        <ele>1270.5999755859375</ele>
        <time>2022-05-03T11:14:13.000Z</time>
      </trkpt>
      <trkpt lat="40.78560699708759784698486328125" lon="-1.64852798916399478912353515625">
        <ele>1270</ele>
        <time>2022-05-03T11:14:15.000Z</time>
      </trkpt>
      <trkpt lat="40.78563365153968334197998046875" lon="-1.64876586757600307464599609375">
        <ele>1269.199951171875</ele>
        <time>2022-05-03T11:14:17.000Z</time>
      </trkpt>
      <trkpt lat="40.7856473140418529510498046875" lon="-1.64888774044811725616455078125">
        <ele>1268.800048828125</ele>
        <time>2022-05-03T11:14:18.000Z</time>
      </trkpt>
      <trkpt lat="40.78566265292465686798095703125" lon="-1.649011708796024322509765625">
        <ele>1268.4000244140625</ele>
        <time>2022-05-03T11:14:19.000Z</time>
      </trkpt>
      <trkpt lat="40.7856791652739048004150390625" lon="-1.64913819171488285064697265625">
        <ele>1267.800048828125</ele>
        <time>2022-05-03T11:14:20.000Z</time>
      </trkpt>
      <trkpt lat="40.78569483943283557891845703125" lon="-1.64926727302372455596923828125">
        <ele>1267.199951171875</ele>
        <time>2022-05-03T11:14:21.000Z</time>
      </trkpt>
      <trkpt lat="40.78571110032498836517333984375" lon="-1.64939752779901027679443359375">
        <ele>1266.5999755859375</ele>
        <time>2022-05-03T11:14:22.000Z</time>
      </trkpt>
      <trkpt lat="40.78572727739810943603515625" lon="-1.64952862076461315155029296875">
        <ele>1266</ele>
        <time>2022-05-03T11:14:23.000Z</time>
      </trkpt>
      <trkpt lat="40.78575703315436840057373046875" lon="-1.64979097433388233184814453125">
        <ele>1264.5999755859375</ele>
        <time>2022-05-03T11:14:25.000Z</time>
      </trkpt>
      <trkpt lat="40.7857869565486907958984375" lon="-1.65005207061767578125">
        <ele>1264</ele>
        <time>2022-05-03T11:14:27.000Z</time>
      </trkpt>
      <trkpt lat="40.78581579029560089111328125" lon="-1.65030562318861484527587890625">
        <ele>1263.800048828125</ele>
        <time>2022-05-03T11:14:29.000Z</time>
      </trkpt>
      <trkpt lat="40.7858434505760669708251953125" lon="-1.65055163204669952392578125">
        <ele>1263.800048828125</ele>
        <time>2022-05-03T11:14:31.000Z</time>
      </trkpt>
      <trkpt lat="40.78587119467556476593017578125" lon="-1.6507868282496929168701171875">
        <ele>1264.199951171875</ele>
        <time>2022-05-03T11:14:33.000Z</time>
      </trkpt>
      <trkpt lat="40.785885192453861236572265625" lon="-1.6508998163044452667236328125">
        <ele>1264.5999755859375</ele>
        <time>2022-05-03T11:14:34.000Z</time>
      </trkpt>
      <trkpt lat="40.785897932946681976318359375" lon="-1.6510084457695484161376953125">
        <ele>1265</ele>
        <time>2022-05-03T11:14:35.000Z</time>
      </trkpt>
      <trkpt lat="40.78592014499008655548095703125" lon="-1.651215143501758575439453125">
        <ele>1265.800048828125</ele>
        <time>2022-05-03T11:14:37.000Z</time>
      </trkpt>
      <trkpt lat="40.78594294376671314239501953125" lon="-1.6514077596366405487060546875">
        <ele>1266.5999755859375</ele>
        <time>2022-05-03T11:14:39.000Z</time>
      </trkpt>
      <trkpt lat="40.78595467843115329742431640625" lon="-1.651497781276702880859375">
        <ele>1266.800048828125</ele>
        <time>2022-05-03T11:14:40.000Z</time>
      </trkpt>
      <trkpt lat="40.78596490435302257537841796875" lon="-1.65158336050808429718017578125">
        <ele>1267.199951171875</ele>
        <time>2022-05-03T11:14:41.000Z</time>
      </trkpt>
      <trkpt lat="40.78598183579742908477783203125" lon="-1.65174144320189952850341796875">
        <ele>1267.5999755859375</ele>
        <time>2022-05-03T11:14:43.000Z</time>
      </trkpt>
      <trkpt lat="40.78599759377539157867431640625" lon="-1.6518826782703399658203125">
        <ele>1268</ele>
        <time>2022-05-03T11:14:45.000Z</time>
      </trkpt>
      <trkpt lat="40.78600530512630939483642578125" lon="-1.651950068771839141845703125">
        <ele>1268</ele>
        <time>2022-05-03T11:14:46.000Z</time>
      </trkpt>
      <trkpt lat="40.786012597382068634033203125" lon="-1.652015782892704010009765625">
        <ele>1268.199951171875</ele>
        <time>2022-05-03T11:14:47.000Z</time>
      </trkpt>
      <trkpt lat="40.78602642752230167388916015625" lon="-1.6521433554589748382568359375">
        <ele>1268.4000244140625</ele>
        <time>2022-05-03T11:14:49.000Z</time>
      </trkpt>
      <trkpt lat="40.7860412634909152984619140625" lon="-1.65226782672107219696044921875">
        <ele>1268.4000244140625</ele>
        <time>2022-05-03T11:14:51.000Z</time>
      </trkpt>
      <trkpt lat="40.78605316579341888427734375" lon="-1.652388274669647216796875">
        <ele>1268.800048828125</ele>
        <time>2022-05-03T11:14:53.000Z</time>
      </trkpt>
      <trkpt lat="40.78606548719108104705810546875" lon="-1.652503274381160736083984375">
        <ele>1269.199951171875</ele>
        <time>2022-05-03T11:14:55.000Z</time>
      </trkpt>
      <trkpt lat="40.78607822768390178680419921875" lon="-1.65261425077915191650390625">
        <ele>1269.5999755859375</ele>
        <time>2022-05-03T11:14:57.000Z</time>
      </trkpt>
      <trkpt lat="40.7860851846635341644287109375" lon="-1.65266982279717922210693359375">
        <ele>1269.800048828125</ele>
        <time>2022-05-03T11:14:58.000Z</time>
      </trkpt>
      <trkpt lat="40.7860922254621982574462890625" lon="-1.65272598154842853546142578125">
        <ele>1269.800048828125</ele>
        <time>2022-05-03T11:14:59.000Z</time>
      </trkpt>
      <trkpt lat="40.7861061394214630126953125" lon="-1.65283762849867343902587890625">
        <ele>1270</ele>
        <time>2022-05-03T11:15:01.000Z</time>
      </trkpt>
      <trkpt lat="40.786117203533649444580078125" lon="-1.65294793434441089630126953125">
        <ele>1270</ele>
        <time>2022-05-03T11:15:03.000Z</time>
      </trkpt>
      <trkpt lat="40.7861324585974216461181640625" lon="-1.6530556418001651763916015625">
        <ele>1270.199951171875</ele>
        <time>2022-05-03T11:15:05.000Z</time>
      </trkpt>
      <trkpt lat="40.7861391641199588775634765625" lon="-1.653109453618526458740234375">
        <ele>1270.199951171875</ele>
        <time>2022-05-03T11:15:06.000Z</time>
      </trkpt>
      <trkpt lat="40.78614578582346439361572265625" lon="-1.653163433074951171875">
        <ele>1270.199951171875</ele>
        <time>2022-05-03T11:15:07.000Z</time>
      </trkpt>
      <trkpt lat="40.7861592806875705718994140625" lon="-1.65327449329197406768798828125">
        <ele>1270.4000244140625</ele>
        <time>2022-05-03T11:15:09.000Z</time>
      </trkpt>
      <trkpt lat="40.78617118299007415771484375" lon="-1.6533927619457244873046875">
        <ele>1270.4000244140625</ele>
        <time>2022-05-03T11:15:11.000Z</time>
      </trkpt>
      <trkpt lat="40.786183588206768035888671875" lon="-1.65351555682718753814697265625">
        <ele>1270.5999755859375</ele>
        <time>2022-05-03T11:15:13.000Z</time>
      </trkpt>
      <trkpt lat="40.78619272448122501373291015625" lon="-1.65364296175539493560791015625">
        <ele>1270.800048828125</ele>
        <time>2022-05-03T11:15:15.000Z</time>
      </trkpt>
      <trkpt lat="40.78620026819407939910888671875" lon="-1.6537768207490444183349609375">
        <ele>1271</ele>
        <time>2022-05-03T11:15:17.000Z</time>
      </trkpt>
      <trkpt lat="40.78620512969791889190673828125" lon="-1.6539169661700725555419921875">
        <ele>1271</ele>
        <time>2022-05-03T11:15:19.000Z</time>
      </trkpt>
      <trkpt lat="40.78620647080242633819580078125" lon="-1.65406306274235248565673828125">
        <ele>1271</ele>
        <time>2022-05-03T11:15:21.000Z</time>
      </trkpt>
      <trkpt lat="40.78620194457471370697021484375" lon="-1.65420974604785442352294921875">
        <ele>1270.5999755859375</ele>
        <time>2022-05-03T11:15:23.000Z</time>
      </trkpt>
      <trkpt lat="40.78619540669023990631103515625" lon="-1.6543622128665447235107421875">
        <ele>1270</ele>
        <time>2022-05-03T11:15:25.000Z</time>
      </trkpt>
      <trkpt lat="40.78618593513965606689453125" lon="-1.65452272631227970123291015625">
        <ele>1269.4000244140625</ele>
        <time>2022-05-03T11:15:27.000Z</time>
      </trkpt>
      <trkpt lat="40.78617126680910587310791015625" lon="-1.654691956937313079833984375">
        <ele>1268.800048828125</ele>
        <time>2022-05-03T11:15:29.000Z</time>
      </trkpt>
      <trkpt lat="40.786156095564365386962890625" lon="-1.65487426333129405975341796875">
        <ele>1268.199951171875</ele>
        <time>2022-05-03T11:15:31.000Z</time>
      </trkpt>
      <trkpt lat="40.7861405052244663238525390625" lon="-1.65507023222744464874267578125">
        <ele>1268</ele>
        <time>2022-05-03T11:15:33.000Z</time>
      </trkpt>
      <trkpt lat="40.78612566925585269927978515625" lon="-1.65528346784412860870361328125">
        <ele>1266.800048828125</ele>
        <time>2022-05-03T11:15:35.000Z</time>
      </trkpt>
      <trkpt lat="40.7861177064478397369384765625" lon="-1.65539461188018321990966796875">
        <ele>1266</ele>
        <time>2022-05-03T11:15:36.000Z</time>
      </trkpt>
      <trkpt lat="40.7861093245446681976318359375" lon="-1.6555088572204113006591796875">
        <ele>1265.199951171875</ele>
        <time>2022-05-03T11:15:37.000Z</time>
      </trkpt>
      <trkpt lat="40.786091722548007965087890625" lon="-1.6557490825653076171875">
        <ele>1263.4000244140625</ele>
        <time>2022-05-03T11:15:39.000Z</time>
      </trkpt>
      <trkpt lat="40.7860731147229671478271484375" lon="-1.6560054011642932891845703125">
        <ele>1260.800048828125</ele>
        <time>2022-05-03T11:15:41.000Z</time>
      </trkpt>
      <trkpt lat="40.7860630564391613006591796875" lon="-1.65613875724375247955322265625">
        <ele>1260.4000244140625</ele>
        <time>2022-05-03T11:15:42.000Z</time>
      </trkpt>
      <trkpt lat="40.7860524952411651611328125" lon="-1.656275801360607147216796875">
        <ele>1259.800048828125</ele>
        <time>2022-05-03T11:15:43.000Z</time>
      </trkpt>
      <trkpt lat="40.786041431128978729248046875" lon="-1.65641586296260356903076171875">
        <ele>1259.4000244140625</ele>
        <time>2022-05-03T11:15:44.000Z</time>
      </trkpt>
      <trkpt lat="40.78603011555969715118408203125" lon="-1.65655919350683689117431640625">
        <ele>1259</ele>
        <time>2022-05-03T11:15:45.000Z</time>
      </trkpt>
      <trkpt lat="40.78600622713565826416015625" lon="-1.65685356594622135162353515625">
        <ele>1258.199951171875</ele>
        <time>2022-05-03T11:15:47.000Z</time>
      </trkpt>
      <trkpt lat="40.78598351217806339263916015625" lon="-1.65715715847909450531005859375">
        <ele>1257.800048828125</ele>
        <time>2022-05-03T11:15:49.000Z</time>
      </trkpt>
      <trkpt lat="40.7859720289707183837890625" lon="-1.65731088258326053619384765625">
        <ele>1257.5999755859375</ele>
        <time>2022-05-03T11:15:50.000Z</time>
      </trkpt>
      <trkpt lat="40.78596004284918308258056640625" lon="-1.65746561251580715179443359375">
        <ele>1257.4000244140625</ele>
        <time>2022-05-03T11:15:51.000Z</time>
      </trkpt>
      <trkpt lat="40.78593640588223934173583984375" lon="-1.65777624584734439849853515625">
        <ele>1257</ele>
        <time>2022-05-03T11:15:53.000Z</time>
      </trkpt>
      <trkpt lat="40.78591310419142246246337890625" lon="-1.65808402933180332183837890625">
        <ele>1256.5999755859375</ele>
        <time>2022-05-03T11:15:55.000Z</time>
      </trkpt>
      <trkpt lat="40.78588862903416156768798828125" lon="-1.658385358750820159912109375">
        <ele>1256</ele>
        <time>2022-05-03T11:15:57.000Z</time>
      </trkpt>
      <trkpt lat="40.78586448915302753448486328125" lon="-1.6586775518953800201416015625">
        <ele>1255.199951171875</ele>
        <time>2022-05-03T11:15:59.000Z</time>
      </trkpt>
      <trkpt lat="40.7858521677553653717041015625" lon="-1.6588207148015499114990234375">
        <ele>1255.4000244140625</ele>
        <time>2022-05-03T11:16:00.000Z</time>
      </trkpt>
      <trkpt lat="40.785841606557369232177734375" lon="-1.6589625366032123565673828125">
        <ele>1255.5999755859375</ele>
        <time>2022-05-03T11:16:01.000Z</time>
      </trkpt>
      <trkpt lat="40.785820819437503814697265625" lon="-1.65924224071204662322998046875">
        <ele>1256.199951171875</ele>
        <time>2022-05-03T11:16:03.000Z</time>
      </trkpt>
      <trkpt lat="40.78579860739409923553466796875" lon="-1.6595160774886608123779296875">
        <ele>1256.5999755859375</ele>
        <time>2022-05-03T11:16:05.000Z</time>
      </trkpt>
      <trkpt lat="40.7857770659029483795166015625" lon="-1.65978572331368923187255859375">
        <ele>1257</ele>
        <time>2022-05-03T11:16:07.000Z</time>
      </trkpt>
      <trkpt lat="40.7857566140592098236083984375" lon="-1.66005059145390987396240234375">
        <ele>1257</ele>
        <time>2022-05-03T11:16:09.000Z</time>
      </trkpt>
      <trkpt lat="40.7857467234134674072265625" lon="-1.66018101386725902557373046875">
        <ele>1257</ele>
        <time>2022-05-03T11:16:10.000Z</time>
      </trkpt>
      <trkpt lat="40.78573574312031269073486328125" lon="-1.66030808351933956146240234375">
        <ele>1257</ele>
        <time>2022-05-03T11:16:11.000Z</time>
      </trkpt>
      <trkpt lat="40.7857173867523670196533203125" lon="-1.660552583634853363037109375">
        <ele>1256.800048828125</ele>
        <time>2022-05-03T11:16:13.000Z</time>
      </trkpt>
      <trkpt lat="40.785696767270565032958984375" lon="-1.66078568436205387115478515625">
        <ele>1256.4000244140625</ele>
        <time>2022-05-03T11:16:15.000Z</time>
      </trkpt>
      <trkpt lat="40.78567790798842906951904296875" lon="-1.661017276346683502197265625">
        <ele>1255.5999755859375</ele>
        <time>2022-05-03T11:16:17.000Z</time>
      </trkpt>
      <trkpt lat="40.78566265292465686798095703125" lon="-1.66124668903648853302001953125">
        <ele>1255</ele>
        <time>2022-05-03T11:16:19.000Z</time>
      </trkpt>
      <trkpt lat="40.7856466434895992279052734375" lon="-1.6614750958979129791259765625">
        <ele>1254.4000244140625</ele>
        <time>2022-05-03T11:16:21.000Z</time>
      </trkpt>
      <trkpt lat="40.78562677837908267974853515625" lon="-1.6616977192461490631103515625">
        <ele>1252.800048828125</ele>
        <time>2022-05-03T11:16:23.000Z</time>
      </trkpt>
      <trkpt lat="40.785616301000118255615234375" lon="-1.66180752217769622802734375">
        <ele>1252</ele>
        <time>2022-05-03T11:16:24.000Z</time>
      </trkpt>
      <trkpt lat="40.78560532070696353912353515625" lon="-1.661917157471179962158203125">
        <ele>1251.199951171875</ele>
        <time>2022-05-03T11:16:25.000Z</time>
      </trkpt>
      <trkpt lat="40.78559207729995250701904296875" lon="-1.6621352545917034149169921875">
        <ele>1249.5999755859375</ele>
        <time>2022-05-03T11:16:27.000Z</time>
      </trkpt>
      <trkpt lat="40.78557682223618030548095703125" lon="-1.66235242970287799835205078125">
        <ele>1248.199951171875</ele>
        <time>2022-05-03T11:16:29.000Z</time>
      </trkpt>
      <trkpt lat="40.785561986267566680908203125" lon="-1.6625687666237354278564453125">
        <ele>1248.4000244140625</ele>
        <time>2022-05-03T11:16:31.000Z</time>
      </trkpt>
      <trkpt lat="40.7855547778308391571044921875" lon="-1.66267731226980686187744140625">
        <ele>1248.4000244140625</ele>
        <time>2022-05-03T11:16:32.000Z</time>
      </trkpt>
      <trkpt lat="40.78554698266088962554931640625" lon="-1.66278476826846599578857421875">
        <ele>1248.5999755859375</ele>
        <time>2022-05-03T11:16:33.000Z</time>
      </trkpt>
      <trkpt lat="40.785528123378753662109375" lon="-1.662997417151927947998046875">
        <ele>1248.800048828125</ele>
        <time>2022-05-03T11:16:35.000Z</time>
      </trkpt>
      <trkpt lat="40.78551529906690120697021484375" lon="-1.663205288350582122802734375">
        <ele>1249.199951171875</ele>
        <time>2022-05-03T11:16:37.000Z</time>
      </trkpt>
      <trkpt lat="40.78550155274569988250732421875" lon="-1.66340586729347705841064453125">
        <ele>1250.800048828125</ele>
        <time>2022-05-03T11:16:39.000Z</time>
      </trkpt>
      <trkpt lat="40.78549350611865520477294921875" lon="-1.66350309737026691436767578125">
        <ele>1251.5999755859375</ele>
        <time>2022-05-03T11:16:40.000Z</time>
      </trkpt>
      <trkpt lat="40.78548445366322994232177734375" lon="-1.66359865106642246246337890625">
        <ele>1252.4000244140625</ele>
        <time>2022-05-03T11:16:41.000Z</time>
      </trkpt>
      <trkpt lat="40.78546978533267974853515625" lon="-1.66378322057425975799560546875">
        <ele>1254</ele>
        <time>2022-05-03T11:16:43.000Z</time>
      </trkpt>
      <trkpt lat="40.7854635827243328094482421875" lon="-1.66387290693819522857666015625">
        <ele>1254.800048828125</ele>
        <time>2022-05-03T11:16:44.000Z</time>
      </trkpt>
      <trkpt lat="40.7854572124779224395751953125" lon="-1.663961671292781829833984375">
        <ele>1255.5999755859375</ele>
        <time>2022-05-03T11:16:45.000Z</time>
      </trkpt>
      <trkpt lat="40.78544422052800655364990234375" lon="-1.66413341648876667022705078125">
        <ele>1256.4000244140625</ele>
        <time>2022-05-03T11:16:47.000Z</time>
      </trkpt>
      <trkpt lat="40.78543759882450103759765625" lon="-1.6642149724066257476806640625">
        <ele>1256.800048828125</ele>
        <time>2022-05-03T11:16:48.000Z</time>
      </trkpt>
      <trkpt lat="40.7854313962161540985107421875" lon="-1.66429418139159679412841796875">
        <ele>1257.199951171875</ele>
        <time>2022-05-03T11:16:49.000Z</time>
      </trkpt>
      <trkpt lat="40.78542108647525310516357421875" lon="-1.66444547474384307861328125">
        <ele>1257.800048828125</ele>
        <time>2022-05-03T11:16:51.000Z</time>
      </trkpt>
      <trkpt lat="40.7854112796485424041748046875" lon="-1.6645837761461734771728515625">
        <ele>1258.5999755859375</ele>
        <time>2022-05-03T11:16:53.000Z</time>
      </trkpt>
      <trkpt lat="40.78540214337408542633056640625" lon="-1.66471503674983978271484375">
        <ele>1259.199951171875</ele>
        <time>2022-05-03T11:16:55.000Z</time>
      </trkpt>
      <trkpt lat="40.78539359383285045623779296875" lon="-1.664845459163188934326171875">
        <ele>1259.800048828125</ele>
        <time>2022-05-03T11:16:57.000Z</time>
      </trkpt>
      <trkpt lat="40.78538370318710803985595703125" lon="-1.6649750433862209320068359375">
        <ele>1260</ele>
        <time>2022-05-03T11:16:59.000Z</time>
      </trkpt>
      <trkpt lat="40.78537414781749248504638671875" lon="-1.66510202921926975250244140625">
        <ele>1260.5999755859375</ele>
        <time>2022-05-03T11:17:01.000Z</time>
      </trkpt>
      <trkpt lat="40.78536492772400379180908203125" lon="-1.6652234829962253570556640625">
        <ele>1261</ele>
        <time>2022-05-03T11:17:03.000Z</time>
      </trkpt>
      <trkpt lat="40.78535486944019794464111328125" lon="-1.66534359566867351531982421875">
        <ele>1261.5999755859375</ele>
        <time>2022-05-03T11:17:05.000Z</time>
      </trkpt>
      <trkpt lat="40.7853452302515506744384765625" lon="-1.6654615290462970733642578125">
        <ele>1262.199951171875</ele>
        <time>2022-05-03T11:17:07.000Z</time>
      </trkpt>
      <trkpt lat="40.78533642925322055816650390625" lon="-1.66557678021490573883056640625">
        <ele>1262.5999755859375</ele>
        <time>2022-05-03T11:17:09.000Z</time>
      </trkpt>
      <trkpt lat="40.78533123247325420379638671875" lon="-1.66563277132809162139892578125">
        <ele>1263</ele>
        <time>2022-05-03T11:17:10.000Z</time>
      </trkpt>
      <trkpt lat="40.785326622426509857177734375" lon="-1.66568792425096035003662109375">
        <ele>1263.199951171875</ele>
        <time>2022-05-03T11:17:11.000Z</time>
      </trkpt>
      <trkpt lat="40.78531849198043346405029296875" lon="-1.6657978110015392303466796875">
        <ele>1263.199951171875</ele>
        <time>2022-05-03T11:17:13.000Z</time>
      </trkpt>
      <trkpt lat="40.7853120379149913787841796875" lon="-1.66590350680053234100341796875">
        <ele>1263.199951171875</ele>
        <time>2022-05-03T11:17:15.000Z</time>
      </trkpt>
      <trkpt lat="40.785304494202136993408203125" lon="-1.66600383818149566650390625">
        <ele>1263.199951171875</ele>
        <time>2022-05-03T11:17:17.000Z</time>
      </trkpt>
      <trkpt lat="40.78529602847993373870849609375" lon="-1.66610165499150753021240234375">
        <ele>1263.199951171875</ele>
        <time>2022-05-03T11:17:19.000Z</time>
      </trkpt>
      <trkpt lat="40.785289071500301361083984375" lon="-1.66620056144893169403076171875">
        <ele>1263.4000244140625</ele>
        <time>2022-05-03T11:17:21.000Z</time>
      </trkpt>
      <trkpt lat="40.78528177924454212188720703125" lon="-1.6663000546395778656005859375">
        <ele>1263.4000244140625</ele>
        <time>2022-05-03T11:17:23.000Z</time>
      </trkpt>
      <trkpt lat="40.785274319350719451904296875" lon="-1.666401810944080352783203125">
        <ele>1263.5999755859375</ele>
        <time>2022-05-03T11:17:25.000Z</time>
      </trkpt>
      <trkpt lat="40.78526937402784824371337890625" lon="-1.66645386256277561187744140625">
        <ele>1263.5999755859375</ele>
        <time>2022-05-03T11:17:26.000Z</time>
      </trkpt>
      <trkpt lat="40.78526518307626247406005859375" lon="-1.66650633327662944793701171875">
        <ele>1263.5999755859375</ele>
        <time>2022-05-03T11:17:27.000Z</time>
      </trkpt>
      <trkpt lat="40.78525680117309093475341796875" lon="-1.66661244817078113555908203125">
        <ele>1263.5999755859375</ele>
        <time>2022-05-03T11:17:29.000Z</time>
      </trkpt>
      <trkpt lat="40.78525126911699771881103515625" lon="-1.66672023944556713104248046875">
        <ele>1263.4000244140625</ele>
        <time>2022-05-03T11:17:31.000Z</time>
      </trkpt>
      <trkpt lat="40.78524355776607990264892578125" lon="-1.66682920418679714202880859375">
        <ele>1263.199951171875</ele>
        <time>2022-05-03T11:17:33.000Z</time>
      </trkpt>
      <trkpt lat="40.78523534350097179412841796875" lon="-1.6669387556612491607666015625">
        <ele>1262.800048828125</ele>
        <time>2022-05-03T11:17:35.000Z</time>
      </trkpt>
      <trkpt lat="40.78522838652133941650390625" lon="-1.66704981587827205657958984375">
        <ele>1262.5999755859375</ele>
        <time>2022-05-03T11:17:37.000Z</time>
      </trkpt>
      <trkpt lat="40.78521841205656528472900390625" lon="-1.66716129519045352935791015625">
        <ele>1262.199951171875</ele>
        <time>2022-05-03T11:17:39.000Z</time>
      </trkpt>
      <trkpt lat="40.78520667739212512969970703125" lon="-1.66727864183485507965087890625">
        <ele>1262</ele>
        <time>2022-05-03T11:17:41.000Z</time>
      </trkpt>
      <trkpt lat="40.7851960323750972747802734375" lon="-1.66740219108760356903076171875">
        <ele>1261.800048828125</ele>
        <time>2022-05-03T11:17:43.000Z</time>
      </trkpt>
      <trkpt lat="40.78518739901483058929443359375" lon="-1.66753127239644527435302734375">
        <ele>1262.199951171875</ele>
        <time>2022-05-03T11:17:45.000Z</time>
      </trkpt>
      <trkpt lat="40.78517465852200984954833984375" lon="-1.6676647961139678955078125">
        <ele>1262.4000244140625</ele>
        <time>2022-05-03T11:17:47.000Z</time>
      </trkpt>
      <trkpt lat="40.78516325913369655609130859375" lon="-1.66780360043048858642578125">
        <ele>1262.5999755859375</ele>
        <time>2022-05-03T11:17:49.000Z</time>
      </trkpt>
      <trkpt lat="40.785152614116668701171875" lon="-1.667947433888912200927734375">
        <ele>1262.5999755859375</ele>
        <time>2022-05-03T11:17:51.000Z</time>
      </trkpt>
      <trkpt lat="40.785142891108989715576171875" lon="-1.668095290660858154296875">
        <ele>1262.5999755859375</ele>
        <time>2022-05-03T11:17:53.000Z</time>
      </trkpt>
      <trkpt lat="40.7851373590528964996337890625" lon="-1.6681705601513385772705078125">
        <ele>1262.5999755859375</ele>
        <time>2022-05-03T11:17:54.000Z</time>
      </trkpt>
      <trkpt lat="40.78513124026358127593994140625" lon="-1.6682466678321361541748046875">
        <ele>1262.5999755859375</ele>
        <time>2022-05-03T11:17:55.000Z</time>
      </trkpt>
      <trkpt lat="40.78511833213269710540771484375" lon="-1.6684008948504924774169921875">
        <ele>1263</ele>
        <time>2022-05-03T11:17:57.000Z</time>
      </trkpt>
      <trkpt lat="40.785108692944049835205078125" lon="-1.66855285875499248504638671875">
        <ele>1263.4000244140625</ele>
        <time>2022-05-03T11:17:59.000Z</time>
      </trkpt>
      <trkpt lat="40.78510366380214691162109375" lon="-1.668628044426441192626953125">
        <ele>1263.5999755859375</ele>
        <time>2022-05-03T11:18:00.000Z</time>
      </trkpt>
      <trkpt lat="40.78510039485991001129150390625" lon="-1.66870348155498504638671875">
        <ele>1263.5999755859375</ele>
        <time>2022-05-03T11:18:01.000Z</time>
      </trkpt>
      <trkpt lat="40.7850964553654193878173828125" lon="-1.6688618995249271392822265625">
        <ele>1263.800048828125</ele>
        <time>2022-05-03T11:18:03.000Z</time>
      </trkpt>
      <trkpt lat="40.7850951142609119415283203125" lon="-1.669029705226421356201171875">
        <ele>1264</ele>
        <time>2022-05-03T11:18:05.000Z</time>
      </trkpt>
      <trkpt lat="40.78509871847927570343017578125" lon="-1.6692022047936916351318359375">
        <ele>1264</ele>
        <time>2022-05-03T11:18:07.000Z</time>
      </trkpt>
      <trkpt lat="40.785110034048557281494140625" lon="-1.6693733632564544677734375">
        <ele>1264</ele>
        <time>2022-05-03T11:18:09.000Z</time>
      </trkpt>
      <trkpt lat="40.7851189188659191131591796875" lon="-1.66945827193558216094970703125">
        <ele>1264</ele>
        <time>2022-05-03T11:18:10.000Z</time>
      </trkpt>
      <trkpt lat="40.78512956388294696807861328125" lon="-1.66954276151955127716064453125">
        <ele>1264.199951171875</ele>
        <time>2022-05-03T11:18:11.000Z</time>
      </trkpt>
      <trkpt lat="40.78515605069696903228759765625" lon="-1.66971274651587009429931640625">
        <ele>1264.800048828125</ele>
        <time>2022-05-03T11:18:13.000Z</time>
      </trkpt>
      <trkpt lat="40.7851903326809406280517578125" lon="-1.669885329902172088623046875">
        <ele>1265.199951171875</ele>
        <time>2022-05-03T11:18:15.000Z</time>
      </trkpt>
      <trkpt lat="40.78523567877709865570068359375" lon="-1.670062355697154998779296875">
        <ele>1265.199951171875</ele>
        <time>2022-05-03T11:18:17.000Z</time>
      </trkpt>
      <trkpt lat="40.7852899096906185150146484375" lon="-1.6702450811862945556640625">
        <ele>1264.5999755859375</ele>
        <time>2022-05-03T11:18:19.000Z</time>
      </trkpt>
      <trkpt lat="40.7853562943637371063232421875" lon="-1.6704313270747661590576171875">
        <ele>1263.199951171875</ele>
        <time>2022-05-03T11:18:21.000Z</time>
      </trkpt>
      <trkpt lat="40.78542661853134632110595703125" lon="-1.67062637396156787872314453125">
        <ele>1261.800048828125</ele>
        <time>2022-05-03T11:18:23.000Z</time>
      </trkpt>
      <trkpt lat="40.78550222329795360565185546875" lon="-1.67082888074219226837158203125">
        <ele>1260.5999755859375</ele>
        <time>2022-05-03T11:18:25.000Z</time>
      </trkpt>
      <trkpt lat="40.78557967208325862884521484375" lon="-1.67103909887373447418212890625">
        <ele>1259</ele>
        <time>2022-05-03T11:18:27.000Z</time>
      </trkpt>
      <trkpt lat="40.7856600545346736907958984375" lon="-1.67125560343265533447265625">
        <ele>1258</ele>
        <time>2022-05-03T11:18:29.000Z</time>
      </trkpt>
      <trkpt lat="40.78570120967924594879150390625" lon="-1.6713667474687099456787109375">
        <ele>1257.5999755859375</ele>
        <time>2022-05-03T11:18:30.000Z</time>
      </trkpt>
      <trkpt lat="40.78574429266154766082763671875" lon="-1.67147797532379627227783203125">
        <ele>1256.4000244140625</ele>
        <time>2022-05-03T11:18:31.000Z</time>
      </trkpt>
      <trkpt lat="40.78578737564384937286376953125" lon="-1.67159029282629489898681640625">
        <ele>1255.5999755859375</ele>
        <time>2022-05-03T11:18:32.000Z</time>
      </trkpt>
      <trkpt lat="40.78583112917840480804443359375" lon="-1.6717047058045864105224609375">
        <ele>1255.199951171875</ele>
        <time>2022-05-03T11:18:33.000Z</time>
      </trkpt>
      <trkpt lat="40.7859188877046108245849609375" lon="-1.6719393990933895111083984375">
        <ele>1254.5999755859375</ele>
        <time>2022-05-03T11:18:35.000Z</time>
      </trkpt>
      <trkpt lat="40.78600823879241943359375" lon="-1.67217828333377838134765625">
        <ele>1253.5999755859375</ele>
        <time>2022-05-03T11:18:37.000Z</time>
      </trkpt>
      <trkpt lat="40.7860526628792285919189453125" lon="-1.67230040766298770904541015625">
        <ele>1253</ele>
        <time>2022-05-03T11:18:38.000Z</time>
      </trkpt>
      <trkpt lat="40.7860965840518474578857421875" lon="-1.672422699630260467529296875">
        <ele>1252.5999755859375</ele>
        <time>2022-05-03T11:18:39.000Z</time>
      </trkpt>
      <trkpt lat="40.78617847524583339691162109375" lon="-1.67267189361155033111572265625">
        <ele>1251.800048828125</ele>
        <time>2022-05-03T11:18:41.000Z</time>
      </trkpt>
      <trkpt lat="40.78624754212796688079833984375" lon="-1.6729219257831573486328125">
        <ele>1250.5999755859375</ele>
        <time>2022-05-03T11:18:43.000Z</time>
      </trkpt>
      <trkpt lat="40.78627671115100383758544921875" lon="-1.6730479896068572998046875">
        <ele>1250</ele>
        <time>2022-05-03T11:18:44.000Z</time>
      </trkpt>
      <trkpt lat="40.78630319796502590179443359375" lon="-1.67317472398281097412109375">
        <ele>1249.4000244140625</ele>
        <time>2022-05-03T11:18:45.000Z</time>
      </trkpt>
      <trkpt lat="40.78634561039507389068603515625" lon="-1.6734273545444011688232421875">
        <ele>1248</ele>
        <time>2022-05-03T11:18:47.000Z</time>
      </trkpt>
      <trkpt lat="40.7863825745880603790283203125" lon="-1.67368166148662567138671875">
        <ele>1246.5999755859375</ele>
        <time>2022-05-03T11:18:49.000Z</time>
      </trkpt>
      <trkpt lat="40.7864006794989109039306640625" lon="-1.67381200008094310760498046875">
        <ele>1246</ele>
        <time>2022-05-03T11:18:50.000Z</time>
      </trkpt>
      <trkpt lat="40.78641886822879314422607421875" lon="-1.67394443415105342864990234375">
        <ele>1245.4000244140625</ele>
        <time>2022-05-03T11:18:51.000Z</time>
      </trkpt>
      <trkpt lat="40.7864546589553356170654296875" lon="-1.6742093861103057861328125">
        <ele>1244.4000244140625</ele>
        <time>2022-05-03T11:18:53.000Z</time>
      </trkpt>
      <trkpt lat="40.78648827038705348968505859375" lon="-1.67446964420378208160400390625">
        <ele>1243.199951171875</ele>
        <time>2022-05-03T11:18:55.000Z</time>
      </trkpt>
      <trkpt lat="40.7865036092698574066162109375" lon="-1.67459621094167232513427734375">
        <ele>1242.5999755859375</ele>
        <time>2022-05-03T11:18:56.000Z</time>
      </trkpt>
      <trkpt lat="40.7865190319716930389404296875" lon="-1.67472177185118198394775390625">
        <ele>1242</ele>
        <time>2022-05-03T11:18:57.000Z</time>
      </trkpt>
      <trkpt lat="40.78654996119439601898193359375" lon="-1.674966774880886077880859375">
        <ele>1241.5999755859375</ele>
        <time>2022-05-03T11:18:59.000Z</time>
      </trkpt>
      <trkpt lat="40.7865663059055805206298828125" lon="-1.675085127353668212890625">
        <ele>1241.5999755859375</ele>
        <time>2022-05-03T11:19:00.000Z</time>
      </trkpt>
      <trkpt lat="40.78658181242644786834716796875" lon="-1.67520054616034030914306640625">
        <ele>1241.800048828125</ele>
        <time>2022-05-03T11:19:01.000Z</time>
      </trkpt>
      <trkpt lat="40.78661031089723110198974609375" lon="-1.67542585171759128570556640625">
        <ele>1241.800048828125</ele>
        <time>2022-05-03T11:19:03.000Z</time>
      </trkpt>
      <trkpt lat="40.78664115630090236663818359375" lon="-1.67564512230455875396728515625">
        <ele>1242</ele>
        <time>2022-05-03T11:19:05.000Z</time>
      </trkpt>
      <trkpt lat="40.786671750247478485107421875" lon="-1.6758574359118938446044921875">
        <ele>1241.5999755859375</ele>
        <time>2022-05-03T11:19:07.000Z</time>
      </trkpt>
      <trkpt lat="40.7866873405873775482177734375" lon="-1.67595961131155490875244140625">
        <ele>1241.4000244140625</ele>
        <time>2022-05-03T11:19:08.000Z</time>
      </trkpt>
      <trkpt lat="40.78670335002243518829345703125" lon="-1.6760602779686450958251953125">
        <ele>1241.199951171875</ele>
        <time>2022-05-03T11:19:09.000Z</time>
      </trkpt>
      <trkpt lat="40.78673771582543849945068359375" lon="-1.6762601025402545928955078125">
        <ele>1241.199951171875</ele>
        <time>2022-05-03T11:19:11.000Z</time>
      </trkpt>
      <trkpt lat="40.786772668361663818359375" lon="-1.67646118439733982086181640625">
        <ele>1241.4000244140625</ele>
        <time>2022-05-03T11:19:13.000Z</time>
      </trkpt>
      <trkpt lat="40.78681114129722118377685546875" lon="-1.67666335590183734893798828125">
        <ele>1240.800048828125</ele>
        <time>2022-05-03T11:19:15.000Z</time>
      </trkpt>
      <trkpt lat="40.78685388900339603424072265625" lon="-1.676871478557586669921875">
        <ele>1239.800048828125</ele>
        <time>2022-05-03T11:19:17.000Z</time>
      </trkpt>
      <trkpt lat="40.786875598132610321044921875" lon="-1.67697767727077007293701171875">
        <ele>1238.800048828125</ele>
        <time>2022-05-03T11:19:18.000Z</time>
      </trkpt>
      <trkpt lat="40.78689873218536376953125" lon="-1.67708672583103179931640625">
        <ele>1237.800048828125</ele>
        <time>2022-05-03T11:19:19.000Z</time>
      </trkpt>
      <trkpt lat="40.78692329116165637969970703125" lon="-1.67719895951449871063232421875">
        <ele>1236.800048828125</ele>
        <time>2022-05-03T11:19:20.000Z</time>
      </trkpt>
      <trkpt lat="40.786949358880519866943359375" lon="-1.67731278575956821441650390625">
        <ele>1235.800048828125</ele>
        <time>2022-05-03T11:19:21.000Z</time>
      </trkpt>
      <trkpt lat="40.78700526617467403411865234375" lon="-1.6775458864867687225341796875">
        <ele>1234</ele>
        <time>2022-05-03T11:19:23.000Z</time>
      </trkpt>
      <trkpt lat="40.7870635204017162322998046875" lon="-1.67778787203133106231689453125">
        <ele>1232</ele>
        <time>2022-05-03T11:19:25.000Z</time>
      </trkpt>
      <trkpt lat="40.78712202608585357666015625" lon="-1.678036563098430633544921875">
        <ele>1230.199951171875</ele>
        <time>2022-05-03T11:19:27.000Z</time>
      </trkpt>
      <trkpt lat="40.787182040512561798095703125" lon="-1.67829095385968685150146484375">
        <ele>1228.199951171875</ele>
        <time>2022-05-03T11:19:29.000Z</time>
      </trkpt>
      <trkpt lat="40.7872138917446136474609375" lon="-1.67841978371143341064453125">
        <ele>1228</ele>
        <time>2022-05-03T11:19:30.000Z</time>
      </trkpt>
      <trkpt lat="40.7872459106147289276123046875" lon="-1.6785497032105922698974609375">
        <ele>1227.5999755859375</ele>
        <time>2022-05-03T11:19:31.000Z</time>
      </trkpt>
      <trkpt lat="40.78730969689786434173583984375" lon="-1.67880828492343425750732421875">
        <ele>1227</ele>
        <time>2022-05-03T11:19:33.000Z</time>
      </trkpt>
      <trkpt lat="40.78737172298133373260498046875" lon="-1.6790673695504665374755859375">
        <ele>1226.4000244140625</ele>
        <time>2022-05-03T11:19:35.000Z</time>
      </trkpt>
      <trkpt lat="40.7874346710741519927978515625" lon="-1.6793305613100528717041015625">
        <ele>1223.5999755859375</ele>
        <time>2022-05-03T11:19:37.000Z</time>
      </trkpt>
      <trkpt lat="40.78749812208116054534912109375" lon="-1.679594255983829498291015625">
        <ele>1221.199951171875</ele>
        <time>2022-05-03T11:19:39.000Z</time>
      </trkpt>
      <trkpt lat="40.78752997331321239471435546875" lon="-1.6797266900539398193359375">
        <ele>1222.199951171875</ele>
        <time>2022-05-03T11:19:40.000Z</time>
      </trkpt>
      <trkpt lat="40.787562243640422821044921875" lon="-1.6798608005046844482421875">
        <ele>1223.199951171875</ele>
        <time>2022-05-03T11:19:41.000Z</time>
      </trkpt>
      <trkpt lat="40.7875949330627918243408203125" lon="-1.67999616824090480804443359375">
        <ele>1226.199951171875</ele>
        <time>2022-05-03T11:19:42.000Z</time>
      </trkpt>
      <trkpt lat="40.7876277901232242584228515625" lon="-1.680133379995822906494140625">
        <ele>1229.4000244140625</ele>
        <time>2022-05-03T11:19:43.000Z</time>
      </trkpt>
      <trkpt lat="40.7876948453485965728759765625" lon="-1.68041274882853031158447265625">
        <ele>1232.5999755859375</ele>
        <time>2022-05-03T11:19:45.000Z</time>
      </trkpt>
      <trkpt lat="40.787729211151599884033203125" lon="-1.6805554926395416259765625">
        <ele>1233</ele>
        <time>2022-05-03T11:19:46.000Z</time>
      </trkpt>
      <trkpt lat="40.7877632416784763336181640625" lon="-1.68069991283118724822998046875">
        <ele>1233.199951171875</ele>
        <time>2022-05-03T11:19:47.000Z</time>
      </trkpt>
      <trkpt lat="40.787833817303180694580078125" lon="-1.6809935308992862701416015625">
        <ele>1231.199951171875</ele>
        <time>2022-05-03T11:19:49.000Z</time>
      </trkpt>
      <trkpt lat="40.787906236946582794189453125" lon="-1.68129553087055683135986328125">
        <ele>1227</ele>
        <time>2022-05-03T11:19:51.000Z</time>
      </trkpt>
      <trkpt lat="40.78798276372253894805908203125" lon="-1.68159828521311283111572265625">
        <ele>1225</ele>
        <time>2022-05-03T11:19:53.000Z</time>
      </trkpt>
      <trkpt lat="40.78802484087646007537841796875" lon="-1.68174882419407367706298828125">
        <ele>1224.199951171875</ele>
        <time>2022-05-03T11:19:54.000Z</time>
      </trkpt>
      <trkpt lat="40.78807127662003040313720703125" lon="-1.68189651332795619964599609375">
        <ele>1223.5999755859375</ele>
        <time>2022-05-03T11:19:55.000Z</time>
      </trkpt>
      <trkpt lat="40.7881789840757846832275390625" lon="-1.68218116275966167449951171875">
        <ele>1223</ele>
        <time>2022-05-03T11:19:57.000Z</time>
      </trkpt>
      <trkpt lat="40.78824126161634922027587890625" lon="-1.682315357029438018798828125">
        <ele>1220.800048828125</ele>
        <time>2022-05-03T11:19:58.000Z</time>
      </trkpt>
      <trkpt lat="40.78830680809915065765380859375" lon="-1.6824442707002162933349609375">
        <ele>1218.5999755859375</ele>
        <time>2022-05-03T11:19:59.000Z</time>
      </trkpt>
      <trkpt lat="40.788446031510829925537109375" lon="-1.68268575333058834075927734375">
        <ele>1215.5999755859375</ele>
        <time>2022-05-03T11:20:01.000Z</time>
      </trkpt>
      <trkpt lat="40.78858575783669948577880859375" lon="-1.68290317989885807037353515625">
        <ele>1214.199951171875</ele>
        <time>2022-05-03T11:20:03.000Z</time>
      </trkpt>
      <trkpt lat="40.78865432180464267730712890625" lon="-1.6830035112798213958740234375">
        <ele>1213.800048828125</ele>
        <time>2022-05-03T11:20:04.000Z</time>
      </trkpt>
      <trkpt lat="40.7887214608490467071533203125" lon="-1.683101914823055267333984375">
        <ele>1213.4000244140625</ele>
        <time>2022-05-03T11:20:05.000Z</time>
      </trkpt>
      <trkpt lat="40.788852386176586151123046875" lon="-1.68329746462404727935791015625">
        <ele>1213</ele>
        <time>2022-05-03T11:20:07.000Z</time>
      </trkpt>
      <trkpt lat="40.7889172621071338653564453125" lon="-1.68339570052921772003173828125">
        <ele>1213.5999755859375</ele>
        <time>2022-05-03T11:20:08.000Z</time>
      </trkpt>
      <trkpt lat="40.788980461657047271728515625" lon="-1.68349142186343669891357421875">
        <ele>1214.800048828125</ele>
        <time>2022-05-03T11:20:09.000Z</time>
      </trkpt>
      <trkpt lat="40.7890416495501995086669921875" lon="-1.683580689132213592529296875">
        <ele>1216</ele>
        <time>2022-05-03T11:20:10.000Z</time>
      </trkpt>
      <trkpt lat="40.78910308890044689178466796875" lon="-1.68366442434489727020263671875">
        <ele>1217</ele>
        <time>2022-05-03T11:20:11.000Z</time>
      </trkpt>
      <trkpt lat="40.78922579996287822723388671875" lon="-1.68383290059864521026611328125">
        <ele>1218.199951171875</ele>
        <time>2022-05-03T11:20:13.000Z</time>
      </trkpt>
      <trkpt lat="40.789345912635326385498046875" lon="-1.68400372378528118133544921875">
        <ele>1218.5999755859375</ele>
        <time>2022-05-03T11:20:15.000Z</time>
      </trkpt>
      <trkpt lat="40.78946099616587162017822265625" lon="-1.68417588807642459869384765625">
        <ele>1218.4000244140625</ele>
        <time>2022-05-03T11:20:17.000Z</time>
      </trkpt>
      <trkpt lat="40.789520926773548126220703125" lon="-1.68425920419394969940185546875">
        <ele>1217.800048828125</ele>
        <time>2022-05-03T11:20:18.000Z</time>
      </trkpt>
      <trkpt lat="40.78957834281027317047119140625" lon="-1.68434168212115764617919921875">
        <ele>1216.4000244140625</ele>
        <time>2022-05-03T11:20:19.000Z</time>
      </trkpt>
      <trkpt lat="40.78968797810375690460205078125" lon="-1.68450839817523956298828125">
        <ele>1213.4000244140625</ele>
        <time>2022-05-03T11:20:21.000Z</time>
      </trkpt>
      <trkpt lat="40.789792500436305999755859375" lon="-1.68466798961162567138671875">
        <ele>1211.5999755859375</ele>
        <time>2022-05-03T11:20:23.000Z</time>
      </trkpt>
      <trkpt lat="40.789844132959842681884765625" lon="-1.684744767844676971435546875">
        <ele>1210.800048828125</ele>
        <time>2022-05-03T11:20:24.000Z</time>
      </trkpt>
      <trkpt lat="40.78989467583596706390380859375" lon="-1.68481844477355480194091796875">
        <ele>1210</ele>
        <time>2022-05-03T11:20:25.000Z</time>
      </trkpt>
      <trkpt lat="40.78999006189405918121337890625" lon="-1.68496043421328067779541015625">
        <ele>1209.4000244140625</ele>
        <time>2022-05-03T11:20:27.000Z</time>
      </trkpt>
      <trkpt lat="40.79007656313478946685791015625" lon="-1.6850989870727062225341796875">
        <ele>1209</ele>
        <time>2022-05-03T11:20:29.000Z</time>
      </trkpt>
      <trkpt lat="40.79011897556483745574951171875" lon="-1.68516419827938079833984375">
        <ele>1208.800048828125</ele>
        <time>2022-05-03T11:20:30.000Z</time>
      </trkpt>
      <trkpt lat="40.79016096889972686767578125" lon="-1.6852280683815479278564453125">
        <ele>1208.800048828125</ele>
        <time>2022-05-03T11:20:31.000Z</time>
      </trkpt>
      <trkpt lat="40.79024302773177623748779296875" lon="-1.685350276529788970947265625">
        <ele>1208.800048828125</ele>
        <time>2022-05-03T11:20:33.000Z</time>
      </trkpt>
      <trkpt lat="40.79032382927834987640380859375" lon="-1.6854708082973957061767578125">
        <ele>1208.800048828125</ele>
        <time>2022-05-03T11:20:35.000Z</time>
      </trkpt>
      <trkpt lat="40.79040211625397205352783203125" lon="-1.68558890931308269500732421875">
        <ele>1208.800048828125</ele>
        <time>2022-05-03T11:20:37.000Z</time>
      </trkpt>
      <trkpt lat="40.79048023559153079986572265625" lon="-1.6857034899294376373291015625">
        <ele>1208.800048828125</ele>
        <time>2022-05-03T11:20:39.000Z</time>
      </trkpt>
      <trkpt lat="40.79051745124161243438720703125" lon="-1.68576157651841640472412109375">
        <ele>1209.199951171875</ele>
        <time>2022-05-03T11:20:40.000Z</time>
      </trkpt>
      <trkpt lat="40.79055399633944034576416015625" lon="-1.68581840582191944122314453125">
        <ele>1210.5999755859375</ele>
        <time>2022-05-03T11:20:41.000Z</time>
      </trkpt>
      <trkpt lat="40.79062239266932010650634765625" lon="-1.685926951467990875244140625">
        <ele>1212.5999755859375</ele>
        <time>2022-05-03T11:20:43.000Z</time>
      </trkpt>
      <trkpt lat="40.7906885258853435516357421875" lon="-1.6860245168209075927734375">
        <ele>1214.4000244140625</ele>
        <time>2022-05-03T11:20:45.000Z</time>
      </trkpt>
      <trkpt lat="40.79075683839619159698486328125" lon="-1.68611747212707996368408203125">
        <ele>1216.199951171875</ele>
        <time>2022-05-03T11:20:47.000Z</time>
      </trkpt>
      <trkpt lat="40.7908286713063716888427734375" lon="-1.68621537275612354278564453125">
        <ele>1218.199951171875</ele>
        <time>2022-05-03T11:20:49.000Z</time>
      </trkpt>
      <trkpt lat="40.79089857637882232666015625" lon="-1.68631947599351406097412109375">
        <ele>1219</ele>
        <time>2022-05-03T11:20:51.000Z</time>
      </trkpt>
      <trkpt lat="40.7909689843654632568359375" lon="-1.686415784060955047607421875">
        <ele>1219.199951171875</ele>
        <time>2022-05-03T11:20:53.000Z</time>
      </trkpt>
      <trkpt lat="40.79103562049567699432373046875" lon="-1.6865001060068607330322265625">
        <ele>1219.5999755859375</ele>
        <time>2022-05-03T11:20:55.000Z</time>
      </trkpt>
      <trkpt lat="40.79109345562756061553955078125" lon="-1.68657780624926090240478515625">
        <ele>1219.800048828125</ele>
        <time>2022-05-03T11:20:57.000Z</time>
      </trkpt>
      <trkpt lat="40.79114592634141445159912109375" lon="-1.68665190227329730987548828125">
        <ele>1220.199951171875</ele>
        <time>2022-05-03T11:20:59.000Z</time>
      </trkpt>
      <trkpt lat="40.79119806177914142608642578125" lon="-1.68672658503055572509765625">
        <ele>1220.5999755859375</ele>
        <time>2022-05-03T11:21:01.000Z</time>
      </trkpt>
      <trkpt lat="40.79122387804090976715087890625" lon="-1.6867649741470813751220703125">
        <ele>1220.5999755859375</ele>
        <time>2022-05-03T11:21:02.000Z</time>
      </trkpt>
      <trkpt lat="40.79125019721686840057373046875" lon="-1.6868038661777973175048828125">
        <ele>1220.4000244140625</ele>
        <time>2022-05-03T11:21:03.000Z</time>
      </trkpt>
      <trkpt lat="40.7913040928542613983154296875" lon="-1.68688978068530559539794921875">
        <ele>1220.199951171875</ele>
        <time>2022-05-03T11:21:05.000Z</time>
      </trkpt>
      <trkpt lat="40.79136016778647899627685546875" lon="-1.68698265217244625091552734375">
        <ele>1220</ele>
        <time>2022-05-03T11:21:07.000Z</time>
      </trkpt>
      <trkpt lat="40.79141884110867977142333984375" lon="-1.687068901956081390380859375">
        <ele>1220.4000244140625</ele>
        <time>2022-05-03T11:21:09.000Z</time>
      </trkpt>
      <trkpt lat="40.79144583083689212799072265625" lon="-1.6871079616248607635498046875">
        <ele>1220.5999755859375</ele>
        <time>2022-05-03T11:21:10.000Z</time>
      </trkpt>
      <trkpt lat="40.79147080890834331512451171875" lon="-1.68714408762753009796142578125">
        <ele>1221</ele>
        <time>2022-05-03T11:21:11.000Z</time>
      </trkpt>
      <trkpt lat="40.7915153168141841888427734375" lon="-1.68721742928028106689453125">
        <ele>1221.4000244140625</ele>
        <time>2022-05-03T11:21:13.000Z</time>
      </trkpt>
      <trkpt lat="40.7915558852255344390869140625" lon="-1.6872863285243511199951171875">
        <ele>1220.5999755859375</ele>
        <time>2022-05-03T11:21:15.000Z</time>
      </trkpt>
      <trkpt lat="40.791581533849239349365234375" lon="-1.68733402155339717864990234375">
        <ele>1220</ele>
        <time>2022-05-03T11:21:17.000Z</time>
      </trkpt>
      <trkpt lat="40.79160869121551513671875" lon="-1.6873683035373687744140625">
        <ele>1219.4000244140625</ele>
        <time>2022-05-03T11:21:19.000Z</time>
      </trkpt>
      <trkpt lat="40.7916383631527423858642578125" lon="-1.6873924434185028076171875">
        <ele>1219</ele>
        <time>2022-05-03T11:21:21.000Z</time>
      </trkpt>
      <trkpt lat="40.79164381138980388641357421875" lon="-1.6873936168849468231201171875">
        <ele>1219</ele>
        <time>2022-05-03T11:21:22.000Z</time>
      </trkpt>
      <trkpt lat="40.7916423864662647247314453125" lon="-1.6873919405043125152587890625">
        <ele>1219</ele>
        <time>2022-05-03T11:21:23.000Z</time>
      </trkpt>
      <trkpt lat="40.79159134067595005035400390625" lon="-1.687415577471256256103515625">
        <ele>1218.800048828125</ele>
        <time>2022-05-03T11:23:31.000Z</time>
      </trkpt>
      <trkpt lat="40.79155513085424900054931640625" lon="-1.687396466732025146484375">
        <ele>1219.199951171875</ele>
        <time>2022-05-03T11:23:33.000Z</time>
      </trkpt>
      <trkpt lat="40.79152193851768970489501953125" lon="-1.68737039901316165924072265625">
        <ele>1219.5999755859375</ele>
        <time>2022-05-03T11:23:35.000Z</time>
      </trkpt>
      <trkpt lat="40.79147525131702423095703125" lon="-1.6873520426452159881591796875">
        <ele>1220</ele>
        <time>2022-05-03T11:23:37.000Z</time>
      </trkpt>
      <trkpt lat="40.79141934402287006378173828125" lon="-1.68735296465456485748291015625">
        <ele>1220</ele>
        <time>2022-05-03T11:23:39.000Z</time>
      </trkpt>
      <trkpt lat="40.7913927733898162841796875" lon="-1.687358580529689788818359375">
        <ele>1220</ele>
        <time>2022-05-03T11:23:40.000Z</time>
      </trkpt>
      <trkpt lat="40.79136796295642852783203125" lon="-1.68736763298511505126953125">
        <ele>1220</ele>
        <time>2022-05-03T11:23:41.000Z</time>
      </trkpt>
      <trkpt lat="40.79131641425192356109619140625" lon="-1.68740007095038890838623046875">
        <ele>1220.199951171875</ele>
        <time>2022-05-03T11:23:43.000Z</time>
      </trkpt>
      <trkpt lat="40.79125036485493183135986328125" lon="-1.687445752322673797607421875">
        <ele>1220.4000244140625</ele>
        <time>2022-05-03T11:23:45.000Z</time>
      </trkpt>
      <trkpt lat="40.791171491146087646484375" lon="-1.68748087249696254730224609375">
        <ele>1220.5999755859375</ele>
        <time>2022-05-03T11:23:47.000Z</time>
      </trkpt>
      <trkpt lat="40.79109194688498973846435546875" lon="-1.68751507066190242767333984375">
        <ele>1220.800048828125</ele>
        <time>2022-05-03T11:23:49.000Z</time>
      </trkpt>
      <trkpt lat="40.7910092175006866455078125" lon="-1.6875485144555568695068359375">
        <ele>1221.199951171875</ele>
        <time>2022-05-03T11:23:51.000Z</time>
      </trkpt>
      <trkpt lat="40.790919363498687744140625" lon="-1.6875807009637355804443359375">
        <ele>1221.4000244140625</ele>
        <time>2022-05-03T11:23:53.000Z</time>
      </trkpt>
      <trkpt lat="40.7908293418586254119873046875" lon="-1.687619425356388092041015625">
        <ele>1221.5999755859375</ele>
        <time>2022-05-03T11:23:55.000Z</time>
      </trkpt>
      <trkpt lat="40.7907425053417682647705078125" lon="-1.68766669929027557373046875">
        <ele>1222</ele>
        <time>2022-05-03T11:23:57.000Z</time>
      </trkpt>
      <trkpt lat="40.7906694151461124420166015625" lon="-1.68771271593868732452392578125">
        <ele>1222.199951171875</ele>
        <time>2022-05-03T11:23:59.000Z</time>
      </trkpt>
      <trkpt lat="40.7906310260295867919921875" lon="-1.68773551471531391143798828125">
        <ele>1222.199951171875</ele>
        <time>2022-05-03T11:24:00.000Z</time>
      </trkpt>
      <trkpt lat="40.7905919663608074188232421875" lon="-1.68775915168225765228271484375">
        <ele>1222.4000244140625</ele>
        <time>2022-05-03T11:24:01.000Z</time>
      </trkpt>
      <trkpt lat="40.79050831496715545654296875" lon="-1.687819249927997589111328125">
        <ele>1221.800048828125</ele>
        <time>2022-05-03T11:24:03.000Z</time>
      </trkpt>
      <trkpt lat="40.7904243282973766326904296875" lon="-1.68788253329694271087646484375">
        <ele>1220.5999755859375</ele>
        <time>2022-05-03T11:24:05.000Z</time>
      </trkpt>
      <trkpt lat="40.79033891670405864715576171875" lon="-1.6879448108375072479248046875">
        <ele>1219.199951171875</ele>
        <time>2022-05-03T11:24:07.000Z</time>
      </trkpt>
      <trkpt lat="40.7902503199875354766845703125" lon="-1.688010692596435546875">
        <ele>1218</ele>
        <time>2022-05-03T11:24:09.000Z</time>
      </trkpt>
      <trkpt lat="40.79020614735782146453857421875" lon="-1.6880463995039463043212890625">
        <ele>1217.199951171875</ele>
        <time>2022-05-03T11:24:10.000Z</time>
      </trkpt>
      <trkpt lat="40.79016490839421749114990234375" lon="-1.68808453716337680816650390625">
        <ele>1216.5999755859375</ele>
        <time>2022-05-03T11:24:11.000Z</time>
      </trkpt>
      <trkpt lat="40.7901255972683429718017578125" lon="-1.6881261952221393585205078125">
        <ele>1216</ele>
        <time>2022-05-03T11:24:12.000Z</time>
      </trkpt>
      <trkpt lat="40.790088213980197906494140625" lon="-1.6881707869470119476318359375">
        <ele>1215.4000244140625</ele>
        <time>2022-05-03T11:24:13.000Z</time>
      </trkpt>
      <trkpt lat="40.79005175270140171051025390625" lon="-1.68821697123348712921142578125">
        <ele>1215</ele>
        <time>2022-05-03T11:24:14.000Z</time>
      </trkpt>
      <trkpt lat="40.7900176383554935455322265625" lon="-1.68826508335769176483154296875">
        <ele>1215</ele>
        <time>2022-05-03T11:24:15.000Z</time>
      </trkpt>
      <trkpt lat="40.7899572886526584625244140625" lon="-1.68837421573698520660400390625">
        <ele>1215.4000244140625</ele>
        <time>2022-05-03T11:24:17.000Z</time>
      </trkpt>
      <trkpt lat="40.78990372829139232635498046875" lon="-1.688497178256511688232421875">
        <ele>1216</ele>
        <time>2022-05-03T11:24:19.000Z</time>
      </trkpt>
      <trkpt lat="40.78987942077219486236572265625" lon="-1.6885610483586788177490234375">
        <ele>1216.199951171875</ele>
        <time>2022-05-03T11:24:20.000Z</time>
      </trkpt>
      <trkpt lat="40.78985695727169513702392578125" lon="-1.68862558901309967041015625">
        <ele>1216.5999755859375</ele>
        <time>2022-05-03T11:24:21.000Z</time>
      </trkpt>
      <trkpt lat="40.78983566723763942718505859375" lon="-1.68869004584848880767822265625">
        <ele>1217</ele>
        <time>2022-05-03T11:24:22.000Z</time>
      </trkpt>
      <trkpt lat="40.78981496393680572509765625" lon="-1.688754670321941375732421875">
        <ele>1217.4000244140625</ele>
        <time>2022-05-03T11:24:23.000Z</time>
      </trkpt>
      <trkpt lat="40.78977263532578945159912109375" lon="-1.68888509273529052734375">
        <ele>1218.199951171875</ele>
        <time>2022-05-03T11:24:25.000Z</time>
      </trkpt>
      <trkpt lat="40.78972821123898029327392578125" lon="-1.68902012519538402557373046875">
        <ele>1219</ele>
        <time>2022-05-03T11:24:27.000Z</time>
      </trkpt>
      <trkpt lat="40.7896815240383148193359375" lon="-1.68915289454162120819091796875">
        <ele>1219.4000244140625</ele>
        <time>2022-05-03T11:24:29.000Z</time>
      </trkpt>
      <trkpt lat="40.78963316045701503753662109375" lon="-1.68928415514528751373291015625">
        <ele>1219.800048828125</ele>
        <time>2022-05-03T11:24:31.000Z</time>
      </trkpt>
      <trkpt lat="40.7895822823047637939453125" lon="-1.68941541574895381927490234375">
        <ele>1220</ele>
        <time>2022-05-03T11:24:33.000Z</time>
      </trkpt>
      <trkpt lat="40.7895291410386562347412109375" lon="-1.68954499997198581695556640625">
        <ele>1220.199951171875</ele>
        <time>2022-05-03T11:24:35.000Z</time>
      </trkpt>
      <trkpt lat="40.78947155736386775970458984375" lon="-1.68966938741505146026611328125">
        <ele>1220.4000244140625</ele>
        <time>2022-05-03T11:24:37.000Z</time>
      </trkpt>
      <trkpt lat="40.7894107885658740997314453125" lon="-1.68978002853691577911376953125">
        <ele>1220.4000244140625</ele>
        <time>2022-05-03T11:24:39.000Z</time>
      </trkpt>
      <trkpt lat="40.7893467508256435394287109375" lon="-1.68988061137497425079345703125">
        <ele>1220.199951171875</ele>
        <time>2022-05-03T11:24:41.000Z</time>
      </trkpt>
      <trkpt lat="40.7893118821084499359130859375" lon="-1.6899252869188785552978515625">
        <ele>1220</ele>
        <time>2022-05-03T11:24:42.000Z</time>
      </trkpt>
      <trkpt lat="40.78927357681095600128173828125" lon="-1.6899665258824825286865234375">
        <ele>1219.5999755859375</ele>
        <time>2022-05-03T11:24:43.000Z</time>
      </trkpt>
      <trkpt lat="40.7891938649117946624755859375" lon="-1.69004623778164386749267578125">
        <ele>1219</ele>
        <time>2022-05-03T11:24:45.000Z</time>
      </trkpt>
      <trkpt lat="40.78910694457590579986572265625" lon="-1.69012150727212429046630859375">
        <ele>1218.199951171875</ele>
        <time>2022-05-03T11:24:47.000Z</time>
      </trkpt>
      <trkpt lat="40.7890165038406848907470703125" lon="-1.69019208289682865142822265625">
        <ele>1217.4000244140625</ele>
        <time>2022-05-03T11:24:49.000Z</time>
      </trkpt>
      <trkpt lat="40.78892321325838565826416015625" lon="-1.69025897048413753509521484375">
        <ele>1216.4000244140625</ele>
        <time>2022-05-03T11:24:51.000Z</time>
      </trkpt>
      <trkpt lat="40.7888741791248321533203125" lon="-1.6902897320687770843505859375">
        <ele>1216</ele>
        <time>2022-05-03T11:24:52.000Z</time>
      </trkpt>
      <trkpt lat="40.78882983885705471038818359375" lon="-1.6903212480247020721435546875">
        <ele>1215.4000244140625</ele>
        <time>2022-05-03T11:24:53.000Z</time>
      </trkpt>
      <trkpt lat="40.78878809697926044464111328125" lon="-1.6903584636747837066650390625">
        <ele>1214.800048828125</ele>
        <time>2022-05-03T11:24:54.000Z</time>
      </trkpt>
      <trkpt lat="40.788750462234020233154296875" lon="-1.6904023848474025726318359375">
        <ele>1214.4000244140625</ele>
        <time>2022-05-03T11:24:55.000Z</time>
      </trkpt>
      <trkpt lat="40.7887154258787631988525390625" lon="-1.69044840149581432342529296875">
        <ele>1214</ele>
        <time>2022-05-03T11:24:56.000Z</time>
      </trkpt>
      <trkpt lat="40.78868047334253787994384765625" lon="-1.690496094524860382080078125">
        <ele>1213.5999755859375</ele>
        <time>2022-05-03T11:24:57.000Z</time>
      </trkpt>
      <trkpt lat="40.78864912502467632293701171875" lon="-1.69054747559130191802978515625">
        <ele>1213.4000244140625</ele>
        <time>2022-05-03T11:24:58.000Z</time>
      </trkpt>
      <trkpt lat="40.78862406313419342041015625" lon="-1.6906038857996463775634765625">
        <ele>1213.199951171875</ele>
        <time>2022-05-03T11:24:59.000Z</time>
      </trkpt>
      <trkpt lat="40.7885994203388690948486328125" lon="-1.690726093947887420654296875">
        <ele>1213</ele>
        <time>2022-05-03T11:25:01.000Z</time>
      </trkpt>
      <trkpt lat="40.78861140646040439605712890625" lon="-1.6908493079245090484619140625">
        <ele>1212</ele>
        <time>2022-05-03T11:25:03.000Z</time>
      </trkpt>
      <trkpt lat="40.7886421680450439453125" lon="-1.6909703426063060760498046875">
        <ele>1211.800048828125</ele>
        <time>2022-05-03T11:25:05.000Z</time>
      </trkpt>
      <trkpt lat="40.78865499235689640045166015625" lon="-1.6910330392420291900634765625">
        <ele>1212.199951171875</ele>
        <time>2022-05-03T11:25:06.000Z</time>
      </trkpt>
      <trkpt lat="40.788663960993289947509765625" lon="-1.69109548442065715789794921875">
        <ele>1212.5999755859375</ele>
        <time>2022-05-03T11:25:07.000Z</time>
      </trkpt>
      <trkpt lat="40.7886842451989650726318359375" lon="-1.69121601618826389312744140625">
        <ele>1213.5999755859375</ele>
        <time>2022-05-03T11:25:09.000Z</time>
      </trkpt>
      <trkpt lat="40.78872389160096645355224609375" lon="-1.69131877832114696502685546875">
        <ele>1215</ele>
        <time>2022-05-03T11:25:11.000Z</time>
      </trkpt>
      <trkpt lat="40.78877351246774196624755859375" lon="-1.69140703976154327392578125">
        <ele>1216.5999755859375</ele>
        <time>2022-05-03T11:25:13.000Z</time>
      </trkpt>
      <trkpt lat="40.78879899345338344573974609375" lon="-1.69144668616354465484619140625">
        <ele>1217.4000244140625</ele>
        <time>2022-05-03T11:25:14.000Z</time>
      </trkpt>
      <trkpt lat="40.78882464207708835601806640625" lon="-1.691483817994594573974609375">
        <ele>1218.199951171875</ele>
        <time>2022-05-03T11:25:15.000Z</time>
      </trkpt>
      <trkpt lat="40.78887753188610076904296875" lon="-1.69154726900160312652587890625">
        <ele>1219.800048828125</ele>
        <time>2022-05-03T11:25:17.000Z</time>
      </trkpt>
      <trkpt lat="40.78892857767641544342041015625" lon="-1.69161214493215084075927734375">
        <ele>1220.4000244140625</ele>
        <time>2022-05-03T11:25:19.000Z</time>
      </trkpt>
      <trkpt lat="40.78898540697991847991943359375" lon="-1.69168389402329921722412109375">
        <ele>1220.800048828125</ele>
        <time>2022-05-03T11:25:21.000Z</time>
      </trkpt>
      <trkpt lat="40.78903980553150177001953125" lon="-1.691746674478054046630859375">
        <ele>1221.4000244140625</ele>
        <time>2022-05-03T11:25:23.000Z</time>
      </trkpt>
      <trkpt lat="40.78909168951213359832763671875" lon="-1.69180937111377716064453125">
        <ele>1222</ele>
        <time>2022-05-03T11:25:25.000Z</time>
      </trkpt>
      <trkpt lat="40.78913242556154727935791015625" lon="-1.69186661951243877410888671875">
        <ele>1222.4000244140625</ele>
        <time>2022-05-03T11:25:27.000Z</time>
      </trkpt>
      <trkpt lat="40.7891777716577053070068359375" lon="-1.691925711929798126220703125">
        <ele>1222.800048828125</ele>
        <time>2022-05-03T11:25:29.000Z</time>
      </trkpt>
      <trkpt lat="40.7892025820910930633544921875" lon="-1.6919513605535030364990234375">
        <ele>1223.199951171875</ele>
        <time>2022-05-03T11:25:30.000Z</time>
      </trkpt>
      <trkpt lat="40.7892273925244808197021484375" lon="-1.6919768415391445159912109375">
        <ele>1223.4000244140625</ele>
        <time>2022-05-03T11:25:31.000Z</time>
      </trkpt>
      <trkpt lat="40.7892496883869171142578125" lon="-1.69200106523931026458740234375">
        <ele>1223.5999755859375</ele>
        <time>2022-05-03T11:25:32.000Z</time>
      </trkpt>
      <trkpt lat="40.78926938585937023162841796875" lon="-1.6920234449207782745361328125">
        <ele>1223.800048828125</ele>
        <time>2022-05-03T11:25:33.000Z</time>
      </trkpt>
      <trkpt lat="40.78930811025202274322509765625" lon="-1.692066527903079986572265625">
        <ele>1224.199951171875</ele>
        <time>2022-05-03T11:25:35.000Z</time>
      </trkpt>
      <trkpt lat="40.7893464155495166778564453125" lon="-1.69210533611476421356201171875">
        <ele>1224.5999755859375</ele>
        <time>2022-05-03T11:25:37.000Z</time>
      </trkpt>
      <trkpt lat="40.7893837988376617431640625" lon="-1.69214724563062191009521484375">
        <ele>1224.800048828125</ele>
        <time>2022-05-03T11:25:39.000Z</time>
      </trkpt>
      <trkpt lat="40.78942310996353626251220703125" lon="-1.6921907477080821990966796875">
        <ele>1225.199951171875</ele>
        <time>2022-05-03T11:25:41.000Z</time>
      </trkpt>
      <trkpt lat="40.78946300782263278961181640625" lon="-1.692240200936794281005859375">
        <ele>1225.5999755859375</ele>
        <time>2022-05-03T11:25:43.000Z</time>
      </trkpt>
      <trkpt lat="40.78949418850243091583251953125" lon="-1.6922879777848720550537109375">
        <ele>1225.5999755859375</ele>
        <time>2022-05-03T11:25:45.000Z</time>
      </trkpt>
      <trkpt lat="40.78950927592813968658447265625" lon="-1.69230884872376918792724609375">
        <ele>1225.800048828125</ele>
        <time>2022-05-03T11:25:46.000Z</time>
      </trkpt>
      <trkpt lat="40.78952402807772159576416015625" lon="-1.69233106076717376708984375">
        <ele>1225.800048828125</ele>
        <time>2022-05-03T11:25:47.000Z</time>
      </trkpt>
      <trkpt lat="40.78955068252980709075927734375" lon="-1.6923788376152515411376953125">
        <ele>1226</ele>
        <time>2022-05-03T11:25:49.000Z</time>
      </trkpt>
      <trkpt lat="40.7895754091441631317138671875" lon="-1.69243298470973968505859375">
        <ele>1226.4000244140625</ele>
        <time>2022-05-03T11:25:51.000Z</time>
      </trkpt>
      <trkpt lat="40.78958421014249324798583984375" lon="-1.69246156699955463409423828125">
        <ele>1226.5999755859375</ele>
        <time>2022-05-03T11:25:52.000Z</time>
      </trkpt>
      <trkpt lat="40.7895904965698719024658203125" lon="-1.692492663860321044921875">
        <ele>1226.5999755859375</ele>
        <time>2022-05-03T11:25:53.000Z</time>
      </trkpt>
      <trkpt lat="40.7895928435027599334716796875" lon="-1.69256508350372314453125">
        <ele>1225.5999755859375</ele>
        <time>2022-05-03T11:25:55.000Z</time>
      </trkpt>
      <trkpt lat="40.78956895507872104644775390625" lon="-1.6926576197147369384765625">
        <ele>1224.199951171875</ele>
        <time>2022-05-03T11:25:57.000Z</time>
      </trkpt>
      <trkpt lat="40.7895217649638652801513671875" lon="-1.69277630746364593505859375">
        <ele>1222.4000244140625</ele>
        <time>2022-05-03T11:25:59.000Z</time>
      </trkpt>
      <trkpt lat="40.78949552960693836212158203125" lon="-1.6928465478122234344482421875">
        <ele>1221.4000244140625</ele>
        <time>2022-05-03T11:26:00.000Z</time>
      </trkpt>
      <trkpt lat="40.78946937806904315948486328125" lon="-1.6929260082542896270751953125">
        <ele>1220.199951171875</ele>
        <time>2022-05-03T11:26:01.000Z</time>
      </trkpt>
      <trkpt lat="40.7894134707748889923095703125" lon="-1.693091131746768951416015625">
        <ele>1217.5999755859375</ele>
        <time>2022-05-03T11:26:03.000Z</time>
      </trkpt>
      <trkpt lat="40.78935907222330570220947265625" lon="-1.69325265102088451385498046875">
        <ele>1216.4000244140625</ele>
        <time>2022-05-03T11:26:05.000Z</time>
      </trkpt>
      <trkpt lat="40.78932990320026874542236328125" lon="-1.6933254897594451904296875">
        <ele>1216.800048828125</ele>
        <time>2022-05-03T11:26:06.000Z</time>
      </trkpt>
      <trkpt lat="40.78929729759693145751953125" lon="-1.69338508509099483489990234375">
        <ele>1217</ele>
        <time>2022-05-03T11:26:07.000Z</time>
      </trkpt>
      <trkpt lat="40.789238624274730682373046875" lon="-1.69348281808197498321533203125">
        <ele>1217.5999755859375</ele>
        <time>2022-05-03T11:26:09.000Z</time>
      </trkpt>
      <trkpt lat="40.78921171836555004119873046875" lon="-1.69356445781886577606201171875">
        <ele>1218</ele>
        <time>2022-05-03T11:26:11.000Z</time>
      </trkpt>
      <trkpt lat="40.7892015762627124786376953125" lon="-1.6936270706355571746826171875">
        <ele>1218.5999755859375</ele>
        <time>2022-05-03T11:26:13.000Z</time>
      </trkpt>
      <trkpt lat="40.7892163284122943878173828125" lon="-1.69367392547428607940673828125">
        <ele>1219</ele>
        <time>2022-05-03T11:26:15.000Z</time>
      </trkpt>
      <trkpt lat="40.789245665073394775390625" lon="-1.69370745308697223663330078125">
        <ele>1219.199951171875</ele>
        <time>2022-05-03T11:26:17.000Z</time>
      </trkpt>
      <trkpt lat="40.78927986323833465576171875" lon="-1.6937470994889736175537109375">
        <ele>1219.4000244140625</ele>
        <time>2022-05-03T11:26:19.000Z</time>
      </trkpt>
      <trkpt lat="40.78929771669209003448486328125" lon="-1.693765036761760711669921875">
        <ele>1219.4000244140625</ele>
        <time>2022-05-03T11:26:20.000Z</time>
      </trkpt>
      <trkpt lat="40.7893148995935916900634765625" lon="-1.69378213584423065185546875">
        <ele>1219.4000244140625</ele>
        <time>2022-05-03T11:26:21.000Z</time>
      </trkpt>
      <trkpt lat="40.789332501590251922607421875" lon="-1.6938014142215251922607421875">
        <ele>1219.4000244140625</ele>
        <time>2022-05-03T11:26:22.000Z</time>
      </trkpt>
      <trkpt lat="40.78934851102530956268310546875" lon="-1.69382329098880290985107421875">
        <ele>1219.4000244140625</ele>
        <time>2022-05-03T11:26:23.000Z</time>
      </trkpt>
      <trkpt lat="40.78936100006103515625" lon="-1.69384877197444438934326171875">
        <ele>1219.5999755859375</ele>
        <time>2022-05-03T11:26:24.000Z</time>
      </trkpt>
      <trkpt lat="40.78937164507806301116943359375" lon="-1.6938765160739421844482421875">
        <ele>1219.5999755859375</ele>
        <time>2022-05-03T11:26:25.000Z</time>
      </trkpt>
      <trkpt lat="40.789391510188579559326171875" lon="-1.69393493793904781341552734375">
        <ele>1219.800048828125</ele>
        <time>2022-05-03T11:26:27.000Z</time>
      </trkpt>
      <trkpt lat="40.7894010655581951141357421875" lon="-1.69396377168595790863037109375">
        <ele>1219.800048828125</ele>
        <time>2022-05-03T11:26:28.000Z</time>
      </trkpt>
      <trkpt lat="40.78941120766103267669677734375" lon="-1.6939908452332019805908203125">
        <ele>1220</ele>
        <time>2022-05-03T11:26:29.000Z</time>
      </trkpt>
      <trkpt lat="40.78941992484033107757568359375" lon="-1.69401456601917743682861328125">
        <ele>1220</ele>
        <time>2022-05-03T11:26:30.000Z</time>
      </trkpt>
      <trkpt lat="40.78942864201962947845458984375" lon="-1.69403719715774059295654296875">
        <ele>1220</ele>
        <time>2022-05-03T11:26:31.000Z</time>
      </trkpt>
      <trkpt lat="40.78944372944533824920654296875" lon="-1.69408463872969150543212890625">
        <ele>1220.199951171875</ele>
        <time>2022-05-03T11:26:33.000Z</time>
      </trkpt>
      <trkpt lat="40.78946066088974475860595703125" lon="-1.69413618743419647216796875">
        <ele>1220.4000244140625</ele>
        <time>2022-05-03T11:26:35.000Z</time>
      </trkpt>
      <trkpt lat="40.7894677855074405670166015625" lon="-1.69416158460080623626708984375">
        <ele>1220.4000244140625</ele>
        <time>2022-05-03T11:26:36.000Z</time>
      </trkpt>
      <trkpt lat="40.78947625122964382171630859375" lon="-1.69418580830097198486328125">
        <ele>1220.5999755859375</ele>
        <time>2022-05-03T11:26:37.000Z</time>
      </trkpt>
      <trkpt lat="40.78949267975986003875732421875" lon="-1.69423517771065235137939453125">
        <ele>1220.800048828125</ele>
        <time>2022-05-03T11:26:39.000Z</time>
      </trkpt>
      <trkpt lat="40.7895107008516788482666015625" lon="-1.6942855529487133026123046875">
        <ele>1221</ele>
        <time>2022-05-03T11:26:41.000Z</time>
      </trkpt>
      <trkpt lat="40.7895237766206264495849609375" lon="-1.6943348385393619537353515625">
        <ele>1221</ele>
        <time>2022-05-03T11:26:43.000Z</time>
      </trkpt>
      <trkpt lat="40.78953735530376434326171875" lon="-1.69438236393034458160400390625">
        <ele>1221.199951171875</ele>
        <time>2022-05-03T11:26:45.000Z</time>
      </trkpt>
      <trkpt lat="40.78954498283565044403076171875" lon="-1.69440750963985919952392578125">
        <ele>1221.4000244140625</ele>
        <time>2022-05-03T11:26:46.000Z</time>
      </trkpt>
      <trkpt lat="40.78955403529107570648193359375" lon="-1.6944337449967861175537109375">
        <ele>1221.4000244140625</ele>
        <time>2022-05-03T11:26:47.000Z</time>
      </trkpt>
      <trkpt lat="40.78957096673548221588134765625" lon="-1.69448814354836940765380859375">
        <ele>1221.5999755859375</ele>
        <time>2022-05-03T11:26:49.000Z</time>
      </trkpt>
      <trkpt lat="40.78958890400826930999755859375" lon="-1.694542877376079559326171875">
        <ele>1221.800048828125</ele>
        <time>2022-05-03T11:26:51.000Z</time>
      </trkpt>
      <trkpt lat="40.78960767947137355804443359375" lon="-1.69460163451731204986572265625">
        <ele>1222</ele>
        <time>2022-05-03T11:26:53.000Z</time>
      </trkpt>
      <trkpt lat="40.7896240241825580596923828125" lon="-1.6946639120578765869140625">
        <ele>1222.199951171875</ele>
        <time>2022-05-03T11:26:55.000Z</time>
      </trkpt>
      <trkpt lat="40.78963768668472766876220703125" lon="-1.69472535140812397003173828125">
        <ele>1222.4000244140625</ele>
        <time>2022-05-03T11:26:57.000Z</time>
      </trkpt>
      <trkpt lat="40.78964740969240665435791015625" lon="-1.6947877965867519378662109375">
        <ele>1222.800048828125</ele>
        <time>2022-05-03T11:26:59.000Z</time>
      </trkpt>
      <trkpt lat="40.78965109772980213165283203125" lon="-1.694848649203777313232421875">
        <ele>1223</ele>
        <time>2022-05-03T11:27:01.000Z</time>
      </trkpt>
      <trkpt lat="40.78965134918689727783203125" lon="-1.6948786564171314239501953125">
        <ele>1223</ele>
        <time>2022-05-03T11:27:02.000Z</time>
      </trkpt>
      <trkpt lat="40.78965243883430957794189453125" lon="-1.6949078254401683807373046875">
        <ele>1223</ele>
        <time>2022-05-03T11:27:03.000Z</time>
      </trkpt>
      <trkpt lat="40.78965478576719760894775390625" lon="-1.69496423564851284027099609375">
        <ele>1223.4000244140625</ele>
        <time>2022-05-03T11:27:05.000Z</time>
      </trkpt>
      <trkpt lat="40.78965713270008563995361328125" lon="-1.69501989148557186126708984375">
        <ele>1223.800048828125</ele>
        <time>2022-05-03T11:27:07.000Z</time>
      </trkpt>
      <trkpt lat="40.789658725261688232421875" lon="-1.695075295865535736083984375">
        <ele>1224.4000244140625</ele>
        <time>2022-05-03T11:27:09.000Z</time>
      </trkpt>
      <trkpt lat="40.78965830616652965545654296875" lon="-1.695102117955684661865234375">
        <ele>1224.5999755859375</ele>
        <time>2022-05-03T11:27:10.000Z</time>
      </trkpt>
      <trkpt lat="40.789658389985561370849609375" lon="-1.69512868858873844146728515625">
        <ele>1224.800048828125</ele>
        <time>2022-05-03T11:27:11.000Z</time>
      </trkpt>
      <trkpt lat="40.78965830616652965545654296875" lon="-1.6951837576925754547119140625">
        <ele>1225.199951171875</ele>
        <time>2022-05-03T11:27:13.000Z</time>
      </trkpt>
      <trkpt lat="40.78965813852846622467041015625" lon="-1.69521041214466094970703125">
        <ele>1225.4000244140625</ele>
        <time>2022-05-03T11:27:14.000Z</time>
      </trkpt>
      <trkpt lat="40.7896575517952442169189453125" lon="-1.695237569510936737060546875">
        <ele>1225.800048828125</ele>
        <time>2022-05-03T11:27:15.000Z</time>
      </trkpt>
      <trkpt lat="40.78965797089040279388427734375" lon="-1.6952933929860591888427734375">
        <ele>1226.199951171875</ele>
        <time>2022-05-03T11:27:17.000Z</time>
      </trkpt>
      <trkpt lat="40.78965939581394195556640625" lon="-1.69534980319440364837646484375">
        <ele>1226.5999755859375</ele>
        <time>2022-05-03T11:27:19.000Z</time>
      </trkpt>
      <trkpt lat="40.78966098837554454803466796875" lon="-1.69540294446051120758056640625">
        <ele>1227.199951171875</ele>
        <time>2022-05-03T11:27:21.000Z</time>
      </trkpt>
      <trkpt lat="40.78965897671878337860107421875" lon="-1.69545357115566730499267578125">
        <ele>1227.5999755859375</ele>
        <time>2022-05-03T11:27:23.000Z</time>
      </trkpt>
      <trkpt lat="40.78966098837554454803466796875" lon="-1.69550369493663311004638671875">
        <ele>1228</ele>
        <time>2022-05-03T11:27:25.000Z</time>
      </trkpt>
      <trkpt lat="40.7896612398326396942138671875" lon="-1.69552959501743316650390625">
        <ele>1228.199951171875</ele>
        <time>2022-05-03T11:27:26.000Z</time>
      </trkpt>
      <trkpt lat="40.78966216184198856353759765625" lon="-1.6955555789172649383544921875">
        <ele>1228.4000244140625</ele>
        <time>2022-05-03T11:27:27.000Z</time>
      </trkpt>
      <trkpt lat="40.7896639220416545867919921875" lon="-1.69561148621141910552978515625">
        <ele>1228.800048828125</ele>
        <time>2022-05-03T11:27:29.000Z</time>
      </trkpt>
      <trkpt lat="40.78966752626001834869384765625" lon="-1.69567083008587360382080078125">
        <ele>1229.4000244140625</ele>
        <time>2022-05-03T11:27:31.000Z</time>
      </trkpt>
      <trkpt lat="40.78967012465000152587890625" lon="-1.6957369633018970489501953125">
        <ele>1229.800048828125</ele>
        <time>2022-05-03T11:27:33.000Z</time>
      </trkpt>
      <trkpt lat="40.78967238776385784149169921875" lon="-1.69580477289855480194091796875">
        <ele>1229.4000244140625</ele>
        <time>2022-05-03T11:27:35.000Z</time>
      </trkpt>
      <trkpt lat="40.78967775218188762664794921875" lon="-1.695877276360988616943359375">
        <ele>1229</ele>
        <time>2022-05-03T11:27:37.000Z</time>
      </trkpt>
      <trkpt lat="40.78968479298055171966552734375" lon="-1.6959515400230884552001953125">
        <ele>1228.5999755859375</ele>
        <time>2022-05-03T11:27:39.000Z</time>
      </trkpt>
      <trkpt lat="40.78969149850308895111083984375" lon="-1.6960286535322666168212890625">
        <ele>1228</ele>
        <time>2022-05-03T11:27:41.000Z</time>
      </trkpt>
      <trkpt lat="40.78969552181661128997802734375" lon="-1.6961114667356014251708984375">
        <ele>1227.5999755859375</ele>
        <time>2022-05-03T11:27:43.000Z</time>
      </trkpt>
      <trkpt lat="40.78969971276819705963134765625" lon="-1.69619604013860225677490234375">
        <ele>1227</ele>
        <time>2022-05-03T11:27:45.000Z</time>
      </trkpt>
      <trkpt lat="40.78970289789140224456787109375" lon="-1.69627726078033447265625">
        <ele>1226.5999755859375</ele>
        <time>2022-05-03T11:27:47.000Z</time>
      </trkpt>
      <trkpt lat="40.7897056639194488525390625" lon="-1.696360409259796142578125">
        <ele>1226</ele>
        <time>2022-05-03T11:27:49.000Z</time>
      </trkpt>
      <trkpt lat="40.78970901668071746826171875" lon="-1.69644464738667011260986328125">
        <ele>1225.5999755859375</ele>
        <time>2022-05-03T11:27:51.000Z</time>
      </trkpt>
      <trkpt lat="40.7897101901471614837646484375" lon="-1.69652461074292659759521484375">
        <ele>1225</ele>
        <time>2022-05-03T11:27:53.000Z</time>
      </trkpt>
      <trkpt lat="40.7897081784904003143310546875" lon="-1.69656492769718170166015625">
        <ele>1225</ele>
        <time>2022-05-03T11:27:54.000Z</time>
      </trkpt>
      <trkpt lat="40.78970407135784626007080078125" lon="-1.69660457409918308258056640625">
        <ele>1224.800048828125</ele>
        <time>2022-05-03T11:27:55.000Z</time>
      </trkpt>
      <trkpt lat="40.78969166614115238189697265625" lon="-1.6966824419796466827392578125">
        <ele>1224.5999755859375</ele>
        <time>2022-05-03T11:27:57.000Z</time>
      </trkpt>
      <trkpt lat="40.78967641107738018035888671875" lon="-1.69676047749817371368408203125">
        <ele>1224.4000244140625</ele>
        <time>2022-05-03T11:27:59.000Z</time>
      </trkpt>
      <trkpt lat="40.78965612687170505523681640625" lon="-1.69683256186544895172119140625">
        <ele>1224.4000244140625</ele>
        <time>2022-05-03T11:28:01.000Z</time>
      </trkpt>
      <trkpt lat="40.7896438054740428924560546875" lon="-1.6968675144016742706298828125">
        <ele>1224.4000244140625</ele>
        <time>2022-05-03T11:28:02.000Z</time>
      </trkpt>
      <trkpt lat="40.789628215134143829345703125" lon="-1.6969003714621067047119140625">
        <ele>1224.4000244140625</ele>
        <time>2022-05-03T11:28:03.000Z</time>
      </trkpt>
      <trkpt lat="40.78959326259791851043701171875" lon="-1.69696030206978321075439453125">
        <ele>1224.800048828125</ele>
        <time>2022-05-03T11:28:05.000Z</time>
      </trkpt>
      <trkpt lat="40.78955906443297863006591796875" lon="-1.69701042585074901580810546875">
        <ele>1225</ele>
        <time>2022-05-03T11:28:07.000Z</time>
      </trkpt>
      <trkpt lat="40.78952251933515071868896484375" lon="-1.6970566101372241973876953125">
        <ele>1225.199951171875</ele>
        <time>2022-05-03T11:28:09.000Z</time>
      </trkpt>
      <trkpt lat="40.78948161564767360687255859375" lon="-1.69710061512887477874755859375">
        <ele>1225.5999755859375</ele>
        <time>2022-05-03T11:28:11.000Z</time>
      </trkpt>
      <trkpt lat="40.78943853266537189483642578125" lon="-1.6971424408257007598876953125">
        <ele>1226</ele>
        <time>2022-05-03T11:28:13.000Z</time>
      </trkpt>
      <trkpt lat="40.789395868778228759765625" lon="-1.69717781245708465576171875">
        <ele>1226.4000244140625</ele>
        <time>2022-05-03T11:28:15.000Z</time>
      </trkpt>
      <trkpt lat="40.789356641471385955810546875" lon="-1.6972182132303714752197265625">
        <ele>1226.800048828125</ele>
        <time>2022-05-03T11:28:17.000Z</time>
      </trkpt>
      <trkpt lat="40.78931699506938457489013671875" lon="-1.69726691208779811859130859375">
        <ele>1227.199951171875</ele>
        <time>2022-05-03T11:28:19.000Z</time>
      </trkpt>
      <trkpt lat="40.78927743248641490936279296875" lon="-1.69731787405908107757568359375">
        <ele>1227.5999755859375</ele>
        <time>2022-05-03T11:28:21.000Z</time>
      </trkpt>
      <trkpt lat="40.78923937864601612091064453125" lon="-1.697371266782283782958984375">
        <ele>1227.800048828125</ele>
        <time>2022-05-03T11:28:23.000Z</time>
      </trkpt>
      <trkpt lat="40.78920543193817138671875" lon="-1.6974291019141674041748046875">
        <ele>1228.199951171875</ele>
        <time>2022-05-03T11:28:25.000Z</time>
      </trkpt>
      <trkpt lat="40.78917249105870723724365234375" lon="-1.697491295635700225830078125">
        <ele>1228.4000244140625</ele>
        <time>2022-05-03T11:28:27.000Z</time>
      </trkpt>
      <trkpt lat="40.7891442440450191497802734375" lon="-1.6975555010139942169189453125">
        <ele>1228.5999755859375</ele>
        <time>2022-05-03T11:28:29.000Z</time>
      </trkpt>
      <trkpt lat="40.78913292847573757171630859375" lon="-1.69758894480764865875244140625">
        <ele>1228.5999755859375</ele>
        <time>2022-05-03T11:28:30.000Z</time>
      </trkpt>
      <trkpt lat="40.78912136144936084747314453125" lon="-1.697622053325176239013671875">
        <ele>1228.5999755859375</ele>
        <time>2022-05-03T11:28:31.000Z</time>
      </trkpt>
      <trkpt lat="40.78909805975854396820068359375" lon="-1.697689779102802276611328125">
        <ele>1228.800048828125</ele>
        <time>2022-05-03T11:28:33.000Z</time>
      </trkpt>
      <trkpt lat="40.78907794319093227386474609375" lon="-1.69775960035622119903564453125">
        <ele>1228.800048828125</ele>
        <time>2022-05-03T11:28:35.000Z</time>
      </trkpt>
      <trkpt lat="40.7890577428042888641357421875" lon="-1.69782866723835468292236328125">
        <ele>1228.800048828125</ele>
        <time>2022-05-03T11:28:37.000Z</time>
      </trkpt>
      <trkpt lat="40.78904039226472377777099609375" lon="-1.6979018412530422210693359375">
        <ele>1228.800048828125</ele>
        <time>2022-05-03T11:28:39.000Z</time>
      </trkpt>
      <trkpt lat="40.78903335146605968475341796875" lon="-1.697939224541187286376953125">
        <ele>1228.800048828125</ele>
        <time>2022-05-03T11:28:40.000Z</time>
      </trkpt>
      <trkpt lat="40.78902505338191986083984375" lon="-1.69797576963901519775390625">
        <ele>1228.800048828125</ele>
        <time>2022-05-03T11:28:41.000Z</time>
      </trkpt>
      <trkpt lat="40.78900284133851528167724609375" lon="-1.69804609380662441253662109375">
        <ele>1228.800048828125</ele>
        <time>2022-05-03T11:28:43.000Z</time>
      </trkpt>
      <trkpt lat="40.788982473313808441162109375" lon="-1.6981157474219799041748046875">
        <ele>1229</ele>
        <time>2022-05-03T11:28:45.000Z</time>
      </trkpt>
      <trkpt lat="40.78896126709878444671630859375" lon="-1.69818255119025707244873046875">
        <ele>1229.4000244140625</ele>
        <time>2022-05-03T11:28:47.000Z</time>
      </trkpt>
      <trkpt lat="40.7889373786747455596923828125" lon="-1.69825329445302486419677734375">
        <ele>1229.199951171875</ele>
        <time>2022-05-03T11:28:49.000Z</time>
      </trkpt>
      <trkpt lat="40.788909383118152618408203125" lon="-1.69832822866737842559814453125">
        <ele>1228.800048828125</ele>
        <time>2022-05-03T11:28:51.000Z</time>
      </trkpt>
      <trkpt lat="40.788883231580257415771484375" lon="-1.6984034143388271331787109375">
        <ele>1228.199951171875</ele>
        <time>2022-05-03T11:28:53.000Z</time>
      </trkpt>
      <trkpt lat="40.78885984607040882110595703125" lon="-1.69847860001027584075927734375">
        <ele>1227.5999755859375</ele>
        <time>2022-05-03T11:28:55.000Z</time>
      </trkpt>
      <trkpt lat="40.78883838839828968048095703125" lon="-1.69855537824332714080810546875">
        <ele>1226.800048828125</ele>
        <time>2022-05-03T11:28:57.000Z</time>
      </trkpt>
      <trkpt lat="40.7888129912316799163818359375" lon="-1.69863785617053508758544921875">
        <ele>1226</ele>
        <time>2022-05-03T11:28:59.000Z</time>
      </trkpt>
      <trkpt lat="40.78878122381865978240966796875" lon="-1.69873273931443691253662109375">
        <ele>1225.199951171875</ele>
        <time>2022-05-03T11:29:01.000Z</time>
      </trkpt>
      <trkpt lat="40.78874115832149982452392578125" lon="-1.69884690083563327789306640625">
        <ele>1224</ele>
        <time>2022-05-03T11:29:03.000Z</time>
      </trkpt>
      <trkpt lat="40.78872204758226871490478515625" lon="-1.69891479425132274627685546875">
        <ele>1223.4000244140625</ele>
        <time>2022-05-03T11:29:04.000Z</time>
      </trkpt>
      <trkpt lat="40.78870025463402271270751953125" lon="-1.69898972846567630767822265625">
        <ele>1222.800048828125</ele>
        <time>2022-05-03T11:29:05.000Z</time>
      </trkpt>
      <trkpt lat="40.7886540703475475311279296875" lon="-1.6991638205945491790771484375">
        <ele>1222</ele>
        <time>2022-05-03T11:29:07.000Z</time>
      </trkpt>
      <trkpt lat="40.7886386476457118988037109375" lon="-1.69926230795681476593017578125">
        <ele>1221.800048828125</ele>
        <time>2022-05-03T11:29:08.000Z</time>
      </trkpt>
      <trkpt lat="40.78863051719963550567626953125" lon="-1.69936507008969783782958984375">
        <ele>1221</ele>
        <time>2022-05-03T11:29:09.000Z</time>
      </trkpt>
      <trkpt lat="40.78863152302801609039306640625" lon="-1.69946976006031036376953125">
        <ele>1219.800048828125</ele>
        <time>2022-05-03T11:29:10.000Z</time>
      </trkpt>
      <trkpt lat="40.78864141367375850677490234375" lon="-1.6995752044022083282470703125">
        <ele>1218.5999755859375</ele>
        <time>2022-05-03T11:29:11.000Z</time>
      </trkpt>
      <trkpt lat="40.78865834511816501617431640625" lon="-1.6996791400015354156494140625">
        <ele>1217.4000244140625</ele>
        <time>2022-05-03T11:29:12.000Z</time>
      </trkpt>
      <trkpt lat="40.78868114389479160308837890625" lon="-1.69978148303925991058349609375">
        <ele>1216.199951171875</ele>
        <time>2022-05-03T11:29:13.000Z</time>
      </trkpt>
      <trkpt lat="40.78872757963836193084716796875" lon="-1.6999808885157108306884765625">
        <ele>1214</ele>
        <time>2022-05-03T11:29:15.000Z</time>
      </trkpt>
      <trkpt lat="40.78877292573451995849609375" lon="-1.700178869068622589111328125">
        <ele>1213.4000244140625</ele>
        <time>2022-05-03T11:29:17.000Z</time>
      </trkpt>
      <trkpt lat="40.78879631124436855316162109375" lon="-1.70028003863990306854248046875">
        <ele>1213.199951171875</ele>
        <time>2022-05-03T11:29:18.000Z</time>
      </trkpt>
      <trkpt lat="40.78881793655455112457275390625" lon="-1.70038347132503986358642578125">
        <ele>1212.800048828125</ele>
        <time>2022-05-03T11:29:19.000Z</time>
      </trkpt>
      <trkpt lat="40.78887292183935642242431640625" lon="-1.7006051726639270782470703125">
        <ele>1212.199951171875</ele>
        <time>2022-05-03T11:29:21.000Z</time>
      </trkpt>
      <trkpt lat="40.7889454253017902374267578125" lon="-1.70083860866725444793701171875">
        <ele>1212.5999755859375</ele>
        <time>2022-05-03T11:29:23.000Z</time>
      </trkpt>
      <trkpt lat="40.788988508284091949462890625" lon="-1.70095411129295825958251953125">
        <ele>1213</ele>
        <time>2022-05-03T11:29:24.000Z</time>
      </trkpt>
      <trkpt lat="40.78903469257056713104248046875" lon="-1.70106592588126659393310546875">
        <ele>1213.5999755859375</ele>
        <time>2022-05-03T11:29:25.000Z</time>
      </trkpt>
      <trkpt lat="40.78913041390478610992431640625" lon="-1.701278574764728546142578125">
        <ele>1214.4000244140625</ele>
        <time>2022-05-03T11:29:27.000Z</time>
      </trkpt>
      <trkpt lat="40.78917835839092731475830078125" lon="-1.70138075016438961029052734375">
        <ele>1214.800048828125</ele>
        <time>2022-05-03T11:29:28.000Z</time>
      </trkpt>
      <trkpt lat="40.7892257161438465118408203125" lon="-1.70148150064051151275634765625">
        <ele>1215.199951171875</ele>
        <time>2022-05-03T11:29:29.000Z</time>
      </trkpt>
      <trkpt lat="40.78927374444901943206787109375" lon="-1.70158057473599910736083984375">
        <ele>1215.5999755859375</ele>
        <time>2022-05-03T11:29:30.000Z</time>
      </trkpt>
      <trkpt lat="40.78932009637355804443359375" lon="-1.701678223907947540283203125">
        <ele>1215.800048828125</ele>
        <time>2022-05-03T11:29:31.000Z</time>
      </trkpt>
      <trkpt lat="40.78940684907138347625732421875" lon="-1.7018621228635311126708984375">
        <ele>1216.4000244140625</ele>
        <time>2022-05-03T11:29:33.000Z</time>
      </trkpt>
      <trkpt lat="40.78944020904600620269775390625" lon="-1.7019539885222911834716796875">
        <ele>1216.5999755859375</ele>
        <time>2022-05-03T11:29:34.000Z</time>
      </trkpt>
      <trkpt lat="40.789463259279727935791015625" lon="-1.7020480334758758544921875">
        <ele>1216.5999755859375</ele>
        <time>2022-05-03T11:29:35.000Z</time>
      </trkpt>
      <trkpt lat="40.7894751615822315216064453125" lon="-1.70222665183246135711669921875">
        <ele>1216.800048828125</ele>
        <time>2022-05-03T11:29:37.000Z</time>
      </trkpt>
      <trkpt lat="40.789467282593250274658203125" lon="-1.70231156051158905029296875">
        <ele>1217</ele>
        <time>2022-05-03T11:29:38.000Z</time>
      </trkpt>
      <trkpt lat="40.78945345245301723480224609375" lon="-1.70239227823913097381591796875">
        <ele>1217</ele>
        <time>2022-05-03T11:29:39.000Z</time>
      </trkpt>
      <trkpt lat="40.7894366048276424407958984375" lon="-1.7024672962725162506103515625">
        <ele>1216.800048828125</ele>
        <time>2022-05-03T11:29:40.000Z</time>
      </trkpt>
      <trkpt lat="40.78941791318356990814208984375" lon="-1.70253686606884002685546875">
        <ele>1216.5999755859375</ele>
        <time>2022-05-03T11:29:41.000Z</time>
      </trkpt>
      <trkpt lat="40.78938446938991546630859375" lon="-1.70265546999871730804443359375">
        <ele>1216.4000244140625</ele>
        <time>2022-05-03T11:29:43.000Z</time>
      </trkpt>
      <trkpt lat="40.7893531210720539093017578125" lon="-1.7027646861970424652099609375">
        <ele>1216.199951171875</ele>
        <time>2022-05-03T11:29:45.000Z</time>
      </trkpt>
      <trkpt lat="40.7893373630940914154052734375" lon="-1.7028179951012134552001953125">
        <ele>1216.199951171875</ele>
        <time>2022-05-03T11:29:46.000Z</time>
      </trkpt>
      <trkpt lat="40.78932143747806549072265625" lon="-1.702869795262813568115234375">
        <ele>1216.199951171875</ele>
        <time>2022-05-03T11:29:47.000Z</time>
      </trkpt>
      <trkpt lat="40.78929151408374309539794921875" lon="-1.7029749043285846710205078125">
        <ele>1216.199951171875</ele>
        <time>2022-05-03T11:29:49.000Z</time>
      </trkpt>
      <trkpt lat="40.7892625965178012847900390625" lon="-1.703081019222736358642578125">
        <ele>1216.199951171875</ele>
        <time>2022-05-03T11:29:51.000Z</time>
      </trkpt>
      <trkpt lat="40.78922814689576625823974609375" lon="-1.7031931690871715545654296875">
        <ele>1216.199951171875</ele>
        <time>2022-05-03T11:29:53.000Z</time>
      </trkpt>
      <trkpt lat="40.7891895063221454620361328125" lon="-1.70331428758800029754638671875">
        <ele>1216.5999755859375</ele>
        <time>2022-05-03T11:29:55.000Z</time>
      </trkpt>
      <trkpt lat="40.7891522906720638275146484375" lon="-1.70344479382038116455078125">
        <ele>1216.800048828125</ele>
        <time>2022-05-03T11:29:57.000Z</time>
      </trkpt>
      <trkpt lat="40.78911566175520420074462890625" lon="-1.70357580296695232391357421875">
        <ele>1217.199951171875</ele>
        <time>2022-05-03T11:29:59.000Z</time>
      </trkpt>
      <trkpt lat="40.78909814357757568359375" lon="-1.7036404274404048919677734375">
        <ele>1217.4000244140625</ele>
        <time>2022-05-03T11:30:00.000Z</time>
      </trkpt>
      <trkpt lat="40.7890807092189788818359375" lon="-1.70370236970484256744384765625">
        <ele>1217.5999755859375</ele>
        <time>2022-05-03T11:30:01.000Z</time>
      </trkpt>
      <trkpt lat="40.789047181606292724609375" lon="-1.70382105745375156402587890625">
        <ele>1217.800048828125</ele>
        <time>2022-05-03T11:30:03.000Z</time>
      </trkpt>
      <trkpt lat="40.789020024240016937255859375" lon="-1.70393656007945537567138671875">
        <ele>1218</ele>
        <time>2022-05-03T11:30:05.000Z</time>
      </trkpt>
      <trkpt lat="40.7889895141124725341796875" lon="-1.7040491290390491485595703125">
        <ele>1218</ele>
        <time>2022-05-03T11:30:07.000Z</time>
      </trkpt>
      <trkpt lat="40.78897409141063690185546875" lon="-1.704104952514171600341796875">
        <ele>1218</ele>
        <time>2022-05-03T11:30:08.000Z</time>
      </trkpt>
      <trkpt lat="40.78895690850913524627685546875" lon="-1.70416035689413547515869140625">
        <ele>1218.199951171875</ele>
        <time>2022-05-03T11:30:09.000Z</time>
      </trkpt>
      <trkpt lat="40.78892254270613193511962890625" lon="-1.704268567264080047607421875">
        <ele>1218.199951171875</ele>
        <time>2022-05-03T11:30:11.000Z</time>
      </trkpt>
      <trkpt lat="40.7888941280543804168701171875" lon="-1.70437107793986797332763671875">
        <ele>1218.4000244140625</ele>
        <time>2022-05-03T11:30:13.000Z</time>
      </trkpt>
      <trkpt lat="40.7888642884790897369384765625" lon="-1.7044727504253387451171875">
        <ele>1218.4000244140625</ele>
        <time>2022-05-03T11:30:15.000Z</time>
      </trkpt>
      <trkpt lat="40.78884936869144439697265625" lon="-1.70452262274920940399169921875">
        <ele>1218.4000244140625</ele>
        <time>2022-05-03T11:30:16.000Z</time>
      </trkpt>
      <trkpt lat="40.788834951817989349365234375" lon="-1.70457266271114349365234375">
        <ele>1218.4000244140625</ele>
        <time>2022-05-03T11:30:17.000Z</time>
      </trkpt>
      <trkpt lat="40.78880553133785724639892578125" lon="-1.7046712338924407958984375">
        <ele>1218.4000244140625</ele>
        <time>2022-05-03T11:30:19.000Z</time>
      </trkpt>
      <trkpt lat="40.78877502121031284332275390625" lon="-1.7047651112079620361328125">
        <ele>1218.4000244140625</ele>
        <time>2022-05-03T11:30:21.000Z</time>
      </trkpt>
      <trkpt lat="40.7887454330921173095703125" lon="-1.704859323799610137939453125">
        <ele>1218.5999755859375</ele>
        <time>2022-05-03T11:30:23.000Z</time>
      </trkpt>
      <trkpt lat="40.78871986828744411468505859375" lon="-1.70495378784835338592529296875">
        <ele>1217.800048828125</ele>
        <time>2022-05-03T11:30:25.000Z</time>
      </trkpt>
      <trkpt lat="40.78869572840631008148193359375" lon="-1.705050431191921234130859375">
        <ele>1217</ele>
        <time>2022-05-03T11:30:27.000Z</time>
      </trkpt>
      <trkpt lat="40.788667984306812286376953125" lon="-1.70515059493482112884521484375">
        <ele>1216.4000244140625</ele>
        <time>2022-05-03T11:30:29.000Z</time>
      </trkpt>
      <trkpt lat="40.78863889910280704498291015625" lon="-1.7052532732486724853515625">
        <ele>1215.800048828125</ele>
        <time>2022-05-03T11:30:31.000Z</time>
      </trkpt>
      <trkpt lat="40.78860905952751636505126953125" lon="-1.70535762794315814971923828125">
        <ele>1215.199951171875</ele>
        <time>2022-05-03T11:30:33.000Z</time>
      </trkpt>
      <trkpt lat="40.788578130304813385009765625" lon="-1.70547028072178363800048828125">
        <ele>1214.5999755859375</ele>
        <time>2022-05-03T11:30:35.000Z</time>
      </trkpt>
      <trkpt lat="40.78854493796825408935546875" lon="-1.705593578517436981201171875">
        <ele>1214</ele>
        <time>2022-05-03T11:30:37.000Z</time>
      </trkpt>
      <trkpt lat="40.78850797377526760101318359375" lon="-1.70571385882794857025146484375">
        <ele>1213.199951171875</ele>
        <time>2022-05-03T11:30:39.000Z</time>
      </trkpt>
      <trkpt lat="40.78846514225006103515625" lon="-1.70583237893879413604736328125">
        <ele>1212.800048828125</ele>
        <time>2022-05-03T11:30:41.000Z</time>
      </trkpt>
      <trkpt lat="40.7884428463876247406005859375" lon="-1.70589289627969264984130859375">
        <ele>1212.5999755859375</ele>
        <time>2022-05-03T11:30:42.000Z</time>
      </trkpt>
      <trkpt lat="40.78842164017260074615478515625" lon="-1.705955006182193756103515625">
        <ele>1212.4000244140625</ele>
        <time>2022-05-03T11:30:43.000Z</time>
      </trkpt>
      <trkpt lat="40.7883791439235210418701171875" lon="-1.70607612468302249908447265625">
        <ele>1212</ele>
        <time>2022-05-03T11:30:45.000Z</time>
      </trkpt>
      <trkpt lat="40.78833346255123615264892578125" lon="-1.70619271695613861083984375">
        <ele>1211.4000244140625</ele>
        <time>2022-05-03T11:30:47.000Z</time>
      </trkpt>
      <trkpt lat="40.788285098969936370849609375" lon="-1.706303693354129791259765625">
        <ele>1211</ele>
        <time>2022-05-03T11:30:49.000Z</time>
      </trkpt>
      <trkpt lat="40.7882624678313732147216796875" lon="-1.70635775662958621978759765625">
        <ele>1210.800048828125</ele>
        <time>2022-05-03T11:30:50.000Z</time>
      </trkpt>
      <trkpt lat="40.78824545256793498992919921875" lon="-1.70641131699085235595703125">
        <ele>1210.5999755859375</ele>
        <time>2022-05-03T11:30:51.000Z</time>
      </trkpt>
      <trkpt lat="40.78823807649314403533935546875" lon="-1.70646370388567447662353515625">
        <ele>1210.4000244140625</ele>
        <time>2022-05-03T11:30:52.000Z</time>
      </trkpt>
      <trkpt lat="40.78823774121701717376708984375" lon="-1.70651416294276714324951171875">
        <ele>1210.4000244140625</ele>
        <time>2022-05-03T11:30:53.000Z</time>
      </trkpt>
      <trkpt lat="40.78824042342603206634521484375" lon="-1.70656311325728893280029296875">
        <ele>1210.4000244140625</ele>
        <time>2022-05-03T11:30:54.000Z</time>
      </trkpt>
      <trkpt lat="40.7882433570921421051025390625" lon="-1.7066089622676372528076171875">
        <ele>1210.5999755859375</ele>
        <time>2022-05-03T11:30:55.000Z</time>
      </trkpt>
      <trkpt lat="40.78822650946676731109619140625" lon="-1.7066961340606212615966796875">
        <ele>1210.5999755859375</ele>
        <time>2022-05-03T11:30:57.000Z</time>
      </trkpt>
      <trkpt lat="40.78818661160767078399658203125" lon="-1.706762351095676422119140625">
        <ele>1210.5999755859375</ele>
        <time>2022-05-03T11:30:59.000Z</time>
      </trkpt>
      <trkpt lat="40.7881313748657703399658203125" lon="-1.70679898001253604888916015625">
        <ele>1210.199951171875</ele>
        <time>2022-05-03T11:31:01.000Z</time>
      </trkpt>
      <trkpt lat="40.78809591941535472869873046875" lon="-1.70679621398448944091796875">
        <ele>1210</ele>
        <time>2022-05-03T11:31:02.000Z</time>
      </trkpt>
      <trkpt lat="40.7880545966327190399169921875" lon="-1.706785149872303009033203125">
        <ele>1209.5999755859375</ele>
        <time>2022-05-03T11:31:03.000Z</time>
      </trkpt>
      <trkpt lat="40.78796365298330783843994140625" lon="-1.706743575632572174072265625">
        <ele>1208.4000244140625</ele>
        <time>2022-05-03T11:31:05.000Z</time>
      </trkpt>
      <trkpt lat="40.78791595995426177978515625" lon="-1.70671482570469379425048828125">
        <ele>1207.5999755859375</ele>
        <time>2022-05-03T11:31:06.000Z</time>
      </trkpt>
      <trkpt lat="40.78786768019199371337890625" lon="-1.7066850699484348297119140625">
        <ele>1207</ele>
        <time>2022-05-03T11:31:07.000Z</time>
      </trkpt>
      <trkpt lat="40.78781663440167903900146484375" lon="-1.7066626064479351043701171875">
        <ele>1206.5999755859375</ele>
        <time>2022-05-03T11:31:08.000Z</time>
      </trkpt>
      <trkpt lat="40.78776466660201549530029296875" lon="-1.706652380526065826416015625">
        <ele>1206.199951171875</ele>
        <time>2022-05-03T11:31:09.000Z</time>
      </trkpt>
      <trkpt lat="40.78771303407847881317138671875" lon="-1.70665414072573184967041015625">
        <ele>1205.5999755859375</ele>
        <time>2022-05-03T11:31:10.000Z</time>
      </trkpt>
      <trkpt lat="40.78766190446913242340087890625" lon="-1.70666503719985485076904296875">
        <ele>1205.199951171875</ele>
        <time>2022-05-03T11:31:11.000Z</time>
      </trkpt>
      <trkpt lat="40.78755964525043964385986328125" lon="-1.706713736057281494140625">
        <ele>1204</ele>
        <time>2022-05-03T11:31:13.000Z</time>
      </trkpt>
      <trkpt lat="40.78750885091722011566162109375" lon="-1.70675086788833141326904296875">
        <ele>1203.5999755859375</ele>
        <time>2022-05-03T11:31:14.000Z</time>
      </trkpt>
      <trkpt lat="40.7874581404030323028564453125" lon="-1.706792525947093963623046875">
        <ele>1203</ele>
        <time>2022-05-03T11:31:15.000Z</time>
      </trkpt>
      <trkpt lat="40.7873568870127201080322265625" lon="-1.7068721540272235870361328125">
        <ele>1202</ele>
        <time>2022-05-03T11:31:17.000Z</time>
      </trkpt>
      <trkpt lat="40.7873062603175640106201171875" lon="-1.70690291561186313629150390625">
        <ele>1201.4000244140625</ele>
        <time>2022-05-03T11:31:18.000Z</time>
      </trkpt>
      <trkpt lat="40.78725638799369335174560546875" lon="-1.7069268040359020233154296875">
        <ele>1201</ele>
        <time>2022-05-03T11:31:19.000Z</time>
      </trkpt>
      <trkpt lat="40.78720827586948871612548828125" lon="-1.7069492675364017486572265625">
        <ele>1200.4000244140625</ele>
        <time>2022-05-03T11:31:20.000Z</time>
      </trkpt>
      <trkpt lat="40.78716351650655269622802734375" lon="-1.70697215013206005096435546875">
        <ele>1200.199951171875</ele>
        <time>2022-05-03T11:31:21.000Z</time>
      </trkpt>
      <trkpt lat="40.78712026588618755340576171875" lon="-1.7069952003657817840576171875">
        <ele>1199.800048828125</ele>
        <time>2022-05-03T11:31:22.000Z</time>
      </trkpt>
      <trkpt lat="40.78707701526582241058349609375" lon="-1.7070153169333934783935546875">
        <ele>1199.4000244140625</ele>
        <time>2022-05-03T11:31:23.000Z</time>
      </trkpt>
      <trkpt lat="40.786997973918914794921875" lon="-1.70705814845860004425048828125">
        <ele>1198.800048828125</ele>
        <time>2022-05-03T11:31:25.000Z</time>
      </trkpt>
      <trkpt lat="40.7869671285152435302734375" lon="-1.707082875072956085205078125">
        <ele>1198.5999755859375</ele>
        <time>2022-05-03T11:31:26.000Z</time>
      </trkpt>
      <trkpt lat="40.78693024814128875732421875" lon="-1.70709771104156970977783203125">
        <ele>1198.199951171875</ele>
        <time>2022-05-03T11:31:27.000Z</time>
      </trkpt>
      <trkpt lat="40.78685740940272808074951171875" lon="-1.70711615122854709625244140625">
        <ele>1197.800048828125</ele>
        <time>2022-05-03T11:31:29.000Z</time>
      </trkpt>
      <trkpt lat="40.786825977265834808349609375" lon="-1.7071316577494144439697265625">
        <ele>1197.4000244140625</ele>
        <time>2022-05-03T11:31:30.000Z</time>
      </trkpt>
      <trkpt lat="40.7867983169853687286376953125" lon="-1.707142554223537445068359375">
        <ele>1197.199951171875</ele>
        <time>2022-05-03T11:31:31.000Z</time>
      </trkpt>
      <trkpt lat="40.78674643300473690032958984375" lon="-1.7071772553026676177978515625">
        <ele>1196.800048828125</ele>
        <time>2022-05-03T11:31:33.000Z</time>
      </trkpt>
      <trkpt lat="40.78672480769455432891845703125" lon="-1.70719477348029613494873046875">
        <ele>1196.5999755859375</ele>
        <time>2022-05-03T11:31:34.000Z</time>
      </trkpt>
      <trkpt lat="40.78670217655599117279052734375" lon="-1.707217991352081298828125">
        <ele>1196.4000244140625</ele>
        <time>2022-05-03T11:31:35.000Z</time>
      </trkpt>
      <trkpt lat="40.78668189235031604766845703125" lon="-1.70724288560450077056884765625">
        <ele>1196.4000244140625</ele>
        <time>2022-05-03T11:31:36.000Z</time>
      </trkpt>
      <trkpt lat="40.78666646964848041534423828125" lon="-1.70726937241852283477783203125">
        <ele>1196.199951171875</ele>
        <time>2022-05-03T11:31:37.000Z</time>
      </trkpt>
      <trkpt lat="40.78663780353963375091552734375" lon="-1.7073304764926433563232421875">
        <ele>1195.800048828125</ele>
        <time>2022-05-03T11:31:39.000Z</time>
      </trkpt>
      <trkpt lat="40.78660964034497737884521484375" lon="-1.70739526860415935516357421875">
        <ele>1195.4000244140625</ele>
        <time>2022-05-03T11:31:41.000Z</time>
      </trkpt>
      <trkpt lat="40.7865901105105876922607421875" lon="-1.7074344120919704437255859375">
        <ele>1194.800048828125</ele>
        <time>2022-05-03T11:31:42.000Z</time>
      </trkpt>
      <trkpt lat="40.7865706644952297210693359375" lon="-1.707477830350399017333984375">
        <ele>1194.199951171875</ele>
        <time>2022-05-03T11:31:43.000Z</time>
      </trkpt>
      <trkpt lat="40.7865461893379688262939453125" lon="-1.70751613564789295196533203125">
        <ele>1193.5999755859375</ele>
        <time>2022-05-03T11:31:44.000Z</time>
      </trkpt>
      <trkpt lat="40.786520540714263916015625" lon="-1.707550249993801116943359375">
        <ele>1193</ele>
        <time>2022-05-03T11:31:45.000Z</time>
      </trkpt>
      <trkpt lat="40.78649229370057582855224609375" lon="-1.7075782455503940582275390625">
        <ele>1192.5999755859375</ele>
        <time>2022-05-03T11:31:46.000Z</time>
      </trkpt>
      <trkpt lat="40.786463879048824310302734375" lon="-1.70760397799313068389892578125">
        <ele>1192</ele>
        <time>2022-05-03T11:31:47.000Z</time>
      </trkpt>
      <trkpt lat="40.78639674000442028045654296875" lon="-1.7076511681079864501953125">
        <ele>1191</ele>
        <time>2022-05-03T11:31:49.000Z</time>
      </trkpt>
      <trkpt lat="40.7863580994307994842529296875" lon="-1.70767053030431270599365234375">
        <ele>1190.5999755859375</ele>
        <time>2022-05-03T11:31:50.000Z</time>
      </trkpt>
      <trkpt lat="40.78632180579006671905517578125" lon="-1.70768477953970432281494140625">
        <ele>1190</ele>
        <time>2022-05-03T11:31:51.000Z</time>
      </trkpt>
      <trkpt lat="40.7862907089293003082275390625" lon="-1.70768997631967067718505859375">
        <ele>1189.800048828125</ele>
        <time>2022-05-03T11:31:52.000Z</time>
      </trkpt>
      <trkpt lat="40.78626313246786594390869140625" lon="-1.7076939158141613006591796875">
        <ele>1189.4000244140625</ele>
        <time>2022-05-03T11:31:53.000Z</time>
      </trkpt>
      <trkpt lat="40.78621619381010532379150390625" lon="-1.70767639763653278350830078125">
        <ele>1189.199951171875</ele>
        <time>2022-05-03T11:31:55.000Z</time>
      </trkpt>
      <trkpt lat="40.78621217049658298492431640625" lon="-1.7076486535370349884033203125">
        <ele>1189.5999755859375</ele>
        <time>2022-05-03T11:31:56.000Z</time>
      </trkpt>
      <trkpt lat="40.7862122543156147003173828125" lon="-1.70763264410197734832763671875">
        <ele>1189.800048828125</ele>
        <time>2022-05-03T11:31:57.000Z</time>
      </trkpt>
      <trkpt lat="40.78621502034366130828857421875" lon="-1.7076345719397068023681640625">
        <ele>1189.800048828125</ele>
        <time>2022-05-03T11:31:59.000Z</time>
      </trkpt>
      <trkpt lat="40.786243937909603118896484375" lon="-1.70767329633235931396484375">
        <ele>1189.5999755859375</ele>
        <time>2022-05-03T11:33:50.000Z</time>
      </trkpt>
      <trkpt lat="40.78626179136335849761962890625" lon="-1.7076744697988033294677734375">
        <ele>1189.5999755859375</ele>
        <time>2022-05-03T11:33:51.000Z</time>
      </trkpt>
      <trkpt lat="40.78629515133798122406005859375" lon="-1.70767371542751789093017578125">
        <ele>1190</ele>
        <time>2022-05-03T11:33:53.000Z</time>
      </trkpt>
      <trkpt lat="40.78631375916302204132080078125" lon="-1.7076677642762660980224609375">
        <ele>1190.199951171875</ele>
        <time>2022-05-03T11:33:54.000Z</time>
      </trkpt>
      <trkpt lat="40.7863366417586803436279296875" lon="-1.70765778981149196624755859375">
        <ele>1190.4000244140625</ele>
        <time>2022-05-03T11:33:55.000Z</time>
      </trkpt>
      <trkpt lat="40.78638215549290180206298828125" lon="-1.70762459747493267059326171875">
        <ele>1191.199951171875</ele>
        <time>2022-05-03T11:33:57.000Z</time>
      </trkpt>
      <trkpt lat="40.78642859123647212982177734375" lon="-1.7076050676405429840087890625">
        <ele>1191.800048828125</ele>
        <time>2022-05-03T11:33:59.000Z</time>
      </trkpt>
      <trkpt lat="40.78647368587553501129150390625" lon="-1.70761101879179477691650390625">
        <ele>1192</ele>
        <time>2022-05-03T11:34:01.000Z</time>
      </trkpt>
      <trkpt lat="40.7865183614194393157958984375" lon="-1.707617975771427154541015625">
        <ele>1192.199951171875</ele>
        <time>2022-05-03T11:34:03.000Z</time>
      </trkpt>
      <trkpt lat="40.78654040582478046417236328125" lon="-1.70763683505356311798095703125">
        <ele>1192.199951171875</ele>
        <time>2022-05-03T11:34:04.000Z</time>
      </trkpt>
      <trkpt lat="40.78656253404915332794189453125" lon="-1.70766449533402919769287109375">
        <ele>1192</ele>
        <time>2022-05-03T11:34:05.000Z</time>
      </trkpt>
      <trkpt lat="40.786603353917598724365234375" lon="-1.7077254317700862884521484375">
        <ele>1191.800048828125</ele>
        <time>2022-05-03T11:34:07.000Z</time>
      </trkpt>
      <trkpt lat="40.78663922846317291259765625" lon="-1.70778687112033367156982421875">
        <ele>1191.4000244140625</ele>
        <time>2022-05-03T11:34:09.000Z</time>
      </trkpt>
      <trkpt lat="40.78665666282176971435546875" lon="-1.70781671069562435150146484375">
        <ele>1191.199951171875</ele>
        <time>2022-05-03T11:34:10.000Z</time>
      </trkpt>
      <trkpt lat="40.7866729237139225006103515625" lon="-1.707845628261566162109375">
        <ele>1191</ele>
        <time>2022-05-03T11:34:11.000Z</time>
      </trkpt>
      <trkpt lat="40.7867098040878772735595703125" lon="-1.70790262520313262939453125">
        <ele>1190.4000244140625</ele>
        <time>2022-05-03T11:34:13.000Z</time>
      </trkpt>
      <trkpt lat="40.7867547310888767242431640625" lon="-1.70795870013535022735595703125">
        <ele>1189.800048828125</ele>
        <time>2022-05-03T11:34:15.000Z</time>
      </trkpt>
      <trkpt lat="40.7868023402988910675048828125" lon="-1.708014942705631256103515625">
        <ele>1189.199951171875</ele>
        <time>2022-05-03T11:34:17.000Z</time>
      </trkpt>
      <trkpt lat="40.78685807995498180389404296875" lon="-1.70808107592165470123291015625">
        <ele>1188.4000244140625</ele>
        <time>2022-05-03T11:34:19.000Z</time>
      </trkpt>
      <trkpt lat="40.78692295588552951812744140625" lon="-1.7081753723323345184326171875">
        <ele>1187.4000244140625</ele>
        <time>2022-05-03T11:34:21.000Z</time>
      </trkpt>
      <trkpt lat="40.78695832751691341400146484375" lon="-1.7082310281693935394287109375">
        <ele>1186.800048828125</ele>
        <time>2022-05-03T11:34:22.000Z</time>
      </trkpt>
      <trkpt lat="40.78699654899537563323974609375" lon="-1.7082930542528629302978515625">
        <ele>1186.199951171875</ele>
        <time>2022-05-03T11:34:23.000Z</time>
      </trkpt>
      <trkpt lat="40.78709185123443603515625" lon="-1.70843303203582763671875">
        <ele>1184.800048828125</ele>
        <time>2022-05-03T11:34:25.000Z</time>
      </trkpt>
      <trkpt lat="40.78715027309954166412353515625" lon="-1.7084987461566925048828125">
        <ele>1184</ele>
        <time>2022-05-03T11:34:26.000Z</time>
      </trkpt>
      <trkpt lat="40.78721481375396251678466796875" lon="-1.70856119133532047271728515625">
        <ele>1183.199951171875</ele>
        <time>2022-05-03T11:34:27.000Z</time>
      </trkpt>
      <trkpt lat="40.7872868143022060394287109375" lon="-1.708615086972713470458984375">
        <ele>1183.800048828125</ele>
        <time>2022-05-03T11:34:28.000Z</time>
      </trkpt>
      <trkpt lat="40.78736183233559131622314453125" lon="-1.70866864733397960662841796875">
        <ele>1184.4000244140625</ele>
        <time>2022-05-03T11:34:29.000Z</time>
      </trkpt>
      <trkpt lat="40.7874365150928497314453125" lon="-1.7087201960384845733642578125">
        <ele>1185.199951171875</ele>
        <time>2022-05-03T11:34:30.000Z</time>
      </trkpt>
      <trkpt lat="40.7875091023743152618408203125" lon="-1.70877107419073581695556640625">
        <ele>1185.199951171875</ele>
        <time>2022-05-03T11:34:31.000Z</time>
      </trkpt>
      <trkpt lat="40.78764614649116992950439453125" lon="-1.70886109583079814910888671875">
        <ele>1183</ele>
        <time>2022-05-03T11:34:33.000Z</time>
      </trkpt>
      <trkpt lat="40.7877816818654537200927734375" lon="-1.70895128510892391204833984375">
        <ele>1180.800048828125</ele>
        <time>2022-05-03T11:34:35.000Z</time>
      </trkpt>
      <trkpt lat="40.78791151754558086395263671875" lon="-1.7090397141873836517333984375">
        <ele>1178.5999755859375</ele>
        <time>2022-05-03T11:34:37.000Z</time>
      </trkpt>
      <trkpt lat="40.7880321331322193145751953125" lon="-1.7091215215623378753662109375">
        <ele>1178.800048828125</ele>
        <time>2022-05-03T11:34:39.000Z</time>
      </trkpt>
      <trkpt lat="40.78813766129314899444580078125" lon="-1.709199808537960052490234375">
        <ele>1179.5999755859375</ele>
        <time>2022-05-03T11:34:41.000Z</time>
      </trkpt>
      <trkpt lat="40.7881803251802921295166015625" lon="-1.7092444002628326416015625">
        <ele>1180</ele>
        <time>2022-05-03T11:34:42.000Z</time>
      </trkpt>
      <trkpt lat="40.78821226023137569427490234375" lon="-1.70929200947284698486328125">
        <ele>1180.199951171875</ele>
        <time>2022-05-03T11:34:43.000Z</time>
      </trkpt>
      <trkpt lat="40.78824126161634922027587890625" lon="-1.70940139330923557281494140625">
        <ele>1180.199951171875</ele>
        <time>2022-05-03T11:34:45.000Z</time>
      </trkpt>
      <trkpt lat="40.788220055401325225830078125" lon="-1.70952276326715946197509765625">
        <ele>1179.5999755859375</ele>
        <time>2022-05-03T11:34:47.000Z</time>
      </trkpt>
      <trkpt lat="40.78820069320499897003173828125" lon="-1.709589064121246337890625">
        <ele>1179</ele>
        <time>2022-05-03T11:34:48.000Z</time>
      </trkpt>
      <trkpt lat="40.78817856498062610626220703125" lon="-1.70965570025146007537841796875">
        <ele>1178.4000244140625</ele>
        <time>2022-05-03T11:34:49.000Z</time>
      </trkpt>
      <trkpt lat="40.78813053667545318603515625" lon="-1.7097974382340908050537109375">
        <ele>1177.199951171875</ele>
        <time>2022-05-03T11:34:51.000Z</time>
      </trkpt>
      <trkpt lat="40.78808083198964595794677734375" lon="-1.70993573963642120361328125">
        <ele>1176.4000244140625</ele>
        <time>2022-05-03T11:34:53.000Z</time>
      </trkpt>
      <trkpt lat="40.78803171403706073760986328125" lon="-1.710061468183994293212890625">
        <ele>1177</ele>
        <time>2022-05-03T11:34:55.000Z</time>
      </trkpt>
      <trkpt lat="40.78801092691719532012939453125" lon="-1.710116453468799591064453125">
        <ele>1177.4000244140625</ele>
        <time>2022-05-03T11:34:56.000Z</time>
      </trkpt>
      <trkpt lat="40.78799114562571048736572265625" lon="-1.71016431413590908050537109375">
        <ele>1177.5999755859375</ele>
        <time>2022-05-03T11:34:57.000Z</time>
      </trkpt>
      <trkpt lat="40.7879587076604366302490234375" lon="-1.7102393321692943572998046875">
        <ele>1177.800048828125</ele>
        <time>2022-05-03T11:34:59.000Z</time>
      </trkpt>
      <trkpt lat="40.78794554807245731353759765625" lon="-1.71027327887713909149169921875">
        <ele>1178</ele>
        <time>2022-05-03T11:35:00.000Z</time>
      </trkpt>
      <trkpt lat="40.78793364576995372772216796875" lon="-1.71030596829950809478759765625">
        <ele>1178</ele>
        <time>2022-05-03T11:35:01.000Z</time>
      </trkpt>
      <trkpt lat="40.78792132437229156494140625" lon="-1.7103368975222110748291015625">
        <ele>1178.199951171875</ele>
        <time>2022-05-03T11:35:02.000Z</time>
      </trkpt>
      <trkpt lat="40.787912271916866302490234375" lon="-1.7103690840303897857666015625">
        <ele>1178.4000244140625</ele>
        <time>2022-05-03T11:35:03.000Z</time>
      </trkpt>
      <trkpt lat="40.7879097573459148406982421875" lon="-1.71044276095926761627197265625">
        <ele>1178.800048828125</ele>
        <time>2022-05-03T11:35:05.000Z</time>
      </trkpt>
      <trkpt lat="40.78791704960167407989501953125" lon="-1.710477881133556365966796875">
        <ele>1179</ele>
        <time>2022-05-03T11:35:06.000Z</time>
      </trkpt>
      <trkpt lat="40.787929706275463104248046875" lon="-1.71050839126110076904296875">
        <ele>1179.199951171875</ele>
        <time>2022-05-03T11:35:07.000Z</time>
      </trkpt>
      <trkpt lat="40.78796616755425930023193359375" lon="-1.7105586826801300048828125">
        <ele>1179.800048828125</ele>
        <time>2022-05-03T11:35:09.000Z</time>
      </trkpt>
      <trkpt lat="40.7880096696317195892333984375" lon="-1.71060453169047832489013671875">
        <ele>1180.199951171875</ele>
        <time>2022-05-03T11:35:11.000Z</time>
      </trkpt>
      <trkpt lat="40.78805551864206790924072265625" lon="-1.71064225025475025177001953125">
        <ele>1180.5999755859375</ele>
        <time>2022-05-03T11:35:13.000Z</time>
      </trkpt>
      <trkpt lat="40.78809273429214954376220703125" lon="-1.71067334711551666259765625">
        <ele>1181</ele>
        <time>2022-05-03T11:35:15.000Z</time>
      </trkpt>
      <trkpt lat="40.7881119288504123687744140625" lon="-1.7106845788657665252685546875">
        <ele>1181</ele>
        <time>2022-05-03T11:35:16.000Z</time>
      </trkpt>
      <trkpt lat="40.7881307043135166168212890625" lon="-1.710696481168270111083984375">
        <ele>1181.199951171875</ele>
        <time>2022-05-03T11:35:17.000Z</time>
      </trkpt>
      <trkpt lat="40.788174457848072052001953125" lon="-1.71072640456259250640869140625">
        <ele>1181.4000244140625</ele>
        <time>2022-05-03T11:35:19.000Z</time>
      </trkpt>
      <trkpt lat="40.78822030685842037200927734375" lon="-1.7107556574046611785888671875">
        <ele>1181.800048828125</ele>
        <time>2022-05-03T11:35:21.000Z</time>
      </trkpt>
      <trkpt lat="40.78826188109815120697021484375" lon="-1.7107880115509033203125">
        <ele>1182</ele>
        <time>2022-05-03T11:35:23.000Z</time>
      </trkpt>
      <trkpt lat="40.7882916368544101715087890625" lon="-1.7108096368610858917236328125">
        <ele>1182.199951171875</ele>
        <time>2022-05-03T11:35:25.000Z</time>
      </trkpt>
      <trkpt lat="40.7883060537278652191162109375" lon="-1.71081776730716228485107421875">
        <ele>1182.4000244140625</ele>
        <time>2022-05-03T11:35:27.000Z</time>
      </trkpt>
      <trkpt lat="40.78830580227077007293701171875" lon="-1.71081843785941600799560546875">
        <ele>1182.4000244140625</ele>
        <time>2022-05-03T11:35:28.000Z</time>
      </trkpt>
      <trkpt lat="40.78836598433554172515869140625" lon="-1.7108401469886302947998046875">
        <ele>1182.5999755859375</ele>
        <time>2022-05-03T11:36:01.000Z</time>
      </trkpt>
      <trkpt lat="40.788380317389965057373046875" lon="-1.71084500849246978759765625">
        <ele>1182.5999755859375</ele>
        <time>2022-05-03T11:36:02.000Z</time>
      </trkpt>
      <trkpt lat="40.78839666210114955902099609375" lon="-1.71085062436759471893310546875">
        <ele>1182.800048828125</ele>
        <time>2022-05-03T11:36:03.000Z</time>
      </trkpt>
      <trkpt lat="40.7884307764470577239990234375" lon="-1.71087224967777729034423828125">
        <ele>1183</ele>
        <time>2022-05-03T11:36:05.000Z</time>
      </trkpt>
      <trkpt lat="40.78846514225006103515625" lon="-1.7109038494527339935302734375">
        <ele>1183.199951171875</ele>
        <time>2022-05-03T11:36:07.000Z</time>
      </trkpt>
      <trkpt lat="40.78848551027476787567138671875" lon="-1.7109239660203456878662109375">
        <ele>1183.4000244140625</ele>
        <time>2022-05-03T11:36:08.000Z</time>
      </trkpt>
      <trkpt lat="40.78850897960364818572998046875" lon="-1.71094567514955997467041015625">
        <ele>1183.5999755859375</ele>
        <time>2022-05-03T11:36:09.000Z</time>
      </trkpt>
      <trkpt lat="40.78856362961232662200927734375" lon="-1.71099076978862285614013671875">
        <ele>1184</ele>
        <time>2022-05-03T11:36:11.000Z</time>
      </trkpt>
      <trkpt lat="40.7886212132871150970458984375" lon="-1.71103469096124172210693359375">
        <ele>1184.5999755859375</ele>
        <time>2022-05-03T11:36:13.000Z</time>
      </trkpt>
      <trkpt lat="40.788650214672088623046875" lon="-1.7110547237098217010498046875">
        <ele>1184.800048828125</ele>
        <time>2022-05-03T11:36:14.000Z</time>
      </trkpt>
      <trkpt lat="40.78867829404771327972412109375" lon="-1.71107475645840167999267578125">
        <ele>1185.199951171875</ele>
        <time>2022-05-03T11:36:15.000Z</time>
      </trkpt>
      <trkpt lat="40.78870494849979877471923828125" lon="-1.7110951244831085205078125">
        <ele>1185.4000244140625</ele>
        <time>2022-05-03T11:36:16.000Z</time>
      </trkpt>
      <trkpt lat="40.7887308485805988311767578125" lon="-1.71111767180263996124267578125">
        <ele>1185.800048828125</ele>
        <time>2022-05-03T11:36:17.000Z</time>
      </trkpt>
      <trkpt lat="40.7887854985892772674560546875" lon="-1.71116025187075138092041015625">
        <ele>1186.4000244140625</ele>
        <time>2022-05-03T11:36:19.000Z</time>
      </trkpt>
      <trkpt lat="40.7888428308069705963134765625" lon="-1.71120484359562397003173828125">
        <ele>1187</ele>
        <time>2022-05-03T11:36:21.000Z</time>
      </trkpt>
      <trkpt lat="40.788893960416316986083984375" lon="-1.71124390326440334320068359375">
        <ele>1187.800048828125</ele>
        <time>2022-05-03T11:36:23.000Z</time>
      </trkpt>
      <trkpt lat="40.78894190490245819091796875" lon="-1.71128011308610439300537109375">
        <ele>1188.800048828125</ele>
        <time>2022-05-03T11:36:25.000Z</time>
      </trkpt>
      <trkpt lat="40.7889839820563793182373046875" lon="-1.71131229959428310394287109375">
        <ele>1189.5999755859375</ele>
        <time>2022-05-03T11:36:27.000Z</time>
      </trkpt>
      <trkpt lat="40.7890268974006175994873046875" lon="-1.71134549193084239959716796875">
        <ele>1190.5999755859375</ele>
        <time>2022-05-03T11:36:29.000Z</time>
      </trkpt>
      <trkpt lat="40.78907140530645847320556640625" lon="-1.7113806121051311492919921875">
        <ele>1191.199951171875</ele>
        <time>2022-05-03T11:36:31.000Z</time>
      </trkpt>
      <trkpt lat="40.78909386880695819854736328125" lon="-1.71139796264469623565673828125">
        <ele>1191.4000244140625</ele>
        <time>2022-05-03T11:36:32.000Z</time>
      </trkpt>
      <trkpt lat="40.78911666758358478546142578125" lon="-1.711413301527500152587890625">
        <ele>1191.5999755859375</ele>
        <time>2022-05-03T11:36:33.000Z</time>
      </trkpt>
      <trkpt lat="40.78915840946137905120849609375" lon="-1.71144356019794940948486328125">
        <ele>1192.199951171875</ele>
        <time>2022-05-03T11:36:35.000Z</time>
      </trkpt>
      <trkpt lat="40.78917869366705417633056640625" lon="-1.711458228528499603271484375">
        <ele>1192.4000244140625</ele>
        <time>2022-05-03T11:36:36.000Z</time>
      </trkpt>
      <trkpt lat="40.78919931314885616302490234375" lon="-1.711472310125827789306640625">
        <ele>1192.5999755859375</ele>
        <time>2022-05-03T11:36:37.000Z</time>
      </trkpt>
      <trkpt lat="40.7892397977411746978759765625" lon="-1.71150139532983303070068359375">
        <ele>1193</ele>
        <time>2022-05-03T11:36:39.000Z</time>
      </trkpt>
      <trkpt lat="40.789277516305446624755859375" lon="-1.71153299510478973388671875">
        <ele>1193.4000244140625</ele>
        <time>2022-05-03T11:36:41.000Z</time>
      </trkpt>
      <trkpt lat="40.789314396679401397705078125" lon="-1.71156191267073154449462890625">
        <ele>1193.5999755859375</ele>
        <time>2022-05-03T11:36:43.000Z</time>
      </trkpt>
      <trkpt lat="40.7893514446914196014404296875" lon="-1.7115878127515316009521484375">
        <ele>1194</ele>
        <time>2022-05-03T11:36:45.000Z</time>
      </trkpt>
      <trkpt lat="40.78938522376120090484619140625" lon="-1.71161354519426822662353515625">
        <ele>1194.4000244140625</ele>
        <time>2022-05-03T11:36:47.000Z</time>
      </trkpt>
      <trkpt lat="40.7894040830433368682861328125" lon="-1.71162695623934268951416015625">
        <ele>1194.4000244140625</ele>
        <time>2022-05-03T11:36:48.000Z</time>
      </trkpt>
      <trkpt lat="40.78942394815385341644287109375" lon="-1.71163969673216342926025390625">
        <ele>1194.5999755859375</ele>
        <time>2022-05-03T11:36:49.000Z</time>
      </trkpt>
      <trkpt lat="40.7894610799849033355712890625" lon="-1.71167037449777126312255859375">
        <ele>1195</ele>
        <time>2022-05-03T11:36:51.000Z</time>
      </trkpt>
      <trkpt lat="40.78949787653982639312744140625" lon="-1.711700297892093658447265625">
        <ele>1195.4000244140625</ele>
        <time>2022-05-03T11:36:53.000Z</time>
      </trkpt>
      <trkpt lat="40.78951589763164520263671875" lon="-1.71171328984200954437255859375">
        <ele>1195.5999755859375</ele>
        <time>2022-05-03T11:36:54.000Z</time>
      </trkpt>
      <trkpt lat="40.78953308053314685821533203125" lon="-1.71172477304935455322265625">
        <ele>1195.5999755859375</ele>
        <time>2022-05-03T11:36:55.000Z</time>
      </trkpt>
      <trkpt lat="40.7895697094500064849853515625" lon="-1.711745560169219970703125">
        <ele>1195.4000244140625</ele>
        <time>2022-05-03T11:36:57.000Z</time>
      </trkpt>
      <trkpt lat="40.78960466198623180389404296875" lon="-1.71176902949810028076171875">
        <ele>1195.199951171875</ele>
        <time>2022-05-03T11:36:59.000Z</time>
      </trkpt>
      <trkpt lat="40.789640285074710845947265625" lon="-1.7117973603308200836181640625">
        <ele>1194.800048828125</ele>
        <time>2022-05-03T11:37:01.000Z</time>
      </trkpt>
      <trkpt lat="40.7896790094673633575439453125" lon="-1.7118288762867450714111328125">
        <ele>1194.5999755859375</ele>
        <time>2022-05-03T11:37:03.000Z</time>
      </trkpt>
      <trkpt lat="40.78972200863063335418701171875" lon="-1.7118590511381626129150390625">
        <ele>1194.199951171875</ele>
        <time>2022-05-03T11:37:05.000Z</time>
      </trkpt>
      <trkpt lat="40.7897634990513324737548828125" lon="-1.71189241111278533935546875">
        <ele>1194</ele>
        <time>2022-05-03T11:37:07.000Z</time>
      </trkpt>
      <trkpt lat="40.78980431891977787017822265625" lon="-1.7119204066693782806396484375">
        <ele>1193.800048828125</ele>
        <time>2022-05-03T11:37:09.000Z</time>
      </trkpt>
      <trkpt lat="40.78984572552144527435302734375" lon="-1.71194680966436862945556640625">
        <ele>1193.5999755859375</ele>
        <time>2022-05-03T11:37:11.000Z</time>
      </trkpt>
      <trkpt lat="40.7898898981511592864990234375" lon="-1.71197044663131237030029296875">
        <ele>1193.4000244140625</ele>
        <time>2022-05-03T11:37:13.000Z</time>
      </trkpt>
      <trkpt lat="40.78993407078087329864501953125" lon="-1.71198955737054347991943359375">
        <ele>1193.199951171875</ele>
        <time>2022-05-03T11:37:15.000Z</time>
      </trkpt>
      <trkpt lat="40.78997849486768245697021484375" lon="-1.7120042257010936737060546875">
        <ele>1193</ele>
        <time>2022-05-03T11:37:17.000Z</time>
      </trkpt>
      <trkpt lat="40.79002543352544307708740234375" lon="-1.7120176367461681365966796875">
        <ele>1193</ele>
        <time>2022-05-03T11:37:19.000Z</time>
      </trkpt>
      <trkpt lat="40.790075473487377166748046875" lon="-1.71202844940125942230224609375">
        <ele>1193.199951171875</ele>
        <time>2022-05-03T11:37:21.000Z</time>
      </trkpt>
      <trkpt lat="40.7901245914399623870849609375" lon="-1.71203515492379665374755859375">
        <ele>1194</ele>
        <time>2022-05-03T11:37:23.000Z</time>
      </trkpt>
      <trkpt lat="40.79017437994480133056640625" lon="-1.71204186044633388519287109375">
        <ele>1194.800048828125</ele>
        <time>2022-05-03T11:37:25.000Z</time>
      </trkpt>
      <trkpt lat="40.79019851982593536376953125" lon="-1.71204554848372936248779296875">
        <ele>1195.199951171875</ele>
        <time>2022-05-03T11:37:26.000Z</time>
      </trkpt>
      <trkpt lat="40.7902211509644985198974609375" lon="-1.712049655616283416748046875">
        <ele>1195.5999755859375</ele>
        <time>2022-05-03T11:37:27.000Z</time>
      </trkpt>
      <trkpt lat="40.79026867635548114776611328125" lon="-1.712056361138820648193359375">
        <ele>1196.4000244140625</ele>
        <time>2022-05-03T11:37:29.000Z</time>
      </trkpt>
      <trkpt lat="40.79031293280422687530517578125" lon="-1.712061725556850433349609375">
        <ele>1197.199951171875</ele>
        <time>2022-05-03T11:37:31.000Z</time>
      </trkpt>
      <trkpt lat="40.7903572730720043182373046875" lon="-1.7120672576129436492919921875">
        <ele>1197.800048828125</ele>
        <time>2022-05-03T11:37:33.000Z</time>
      </trkpt>
      <trkpt lat="40.79039968550205230712890625" lon="-1.7120741307735443115234375">
        <ele>1198.5999755859375</ele>
        <time>2022-05-03T11:37:35.000Z</time>
      </trkpt>
      <trkpt lat="40.790442936122417449951171875" lon="-1.712077818810939788818359375">
        <ele>1199.199951171875</ele>
        <time>2022-05-03T11:37:37.000Z</time>
      </trkpt>
      <trkpt lat="40.7904638908803462982177734375" lon="-1.71207941137254238128662109375">
        <ele>1199.5999755859375</ele>
        <time>2022-05-03T11:37:38.000Z</time>
      </trkpt>
      <trkpt lat="40.79048459418118000030517578125" lon="-1.7120821774005889892578125">
        <ele>1200</ele>
        <time>2022-05-03T11:37:39.000Z</time>
      </trkpt>
      <trkpt lat="40.7905302755534648895263671875" lon="-1.71208879910409450531005859375">
        <ele>1200.800048828125</ele>
        <time>2022-05-03T11:37:41.000Z</time>
      </trkpt>
      <trkpt lat="40.79057193361222743988037109375" lon="-1.71209433116018772125244140625">
        <ele>1201.199951171875</ele>
        <time>2022-05-03T11:37:43.000Z</time>
      </trkpt>
      <trkpt lat="40.7906120829284191131591796875" lon="-1.71209894120693206787109375">
        <ele>1201.199951171875</ele>
        <time>2022-05-03T11:37:45.000Z</time>
      </trkpt>
      <trkpt lat="40.790635049343109130859375" lon="-1.712103970348834991455078125">
        <ele>1201.4000244140625</ele>
        <time>2022-05-03T11:37:46.000Z</time>
      </trkpt>
      <trkpt lat="40.79065625555813312530517578125" lon="-1.71210832893848419189453125">
        <ele>1201.5999755859375</ele>
        <time>2022-05-03T11:37:47.000Z</time>
      </trkpt>
      <trkpt lat="40.79067754559218883514404296875" lon="-1.71211327426135540008544921875">
        <ele>1201.5999755859375</ele>
        <time>2022-05-03T11:37:48.000Z</time>
      </trkpt>
      <trkpt lat="40.7906979136168956756591796875" lon="-1.7121165432035923004150390625">
        <ele>1201.800048828125</ele>
        <time>2022-05-03T11:37:49.000Z</time>
      </trkpt>
      <trkpt lat="40.7907383143901824951171875" lon="-1.71212232671678066253662109375">
        <ele>1202</ele>
        <time>2022-05-03T11:37:51.000Z</time>
      </trkpt>
      <trkpt lat="40.7907572574913501739501953125" lon="-1.71212375164031982421875">
        <ele>1202</ele>
        <time>2022-05-03T11:37:52.000Z</time>
      </trkpt>
      <trkpt lat="40.79077544622123241424560546875" lon="-1.712124757468700408935546875">
        <ele>1202</ele>
        <time>2022-05-03T11:37:53.000Z</time>
      </trkpt>
      <trkpt lat="40.790813751518726348876953125" lon="-1.712128110229969024658203125">
        <ele>1202.199951171875</ele>
        <time>2022-05-03T11:37:55.000Z</time>
      </trkpt>
      <trkpt lat="40.79083311371505260467529296875" lon="-1.7121302895247936248779296875">
        <ele>1202.4000244140625</ele>
        <time>2022-05-03T11:37:56.000Z</time>
      </trkpt>
      <trkpt lat="40.79085155390202999114990234375" lon="-1.7121331393718719482421875">
        <ele>1202.4000244140625</ele>
        <time>2022-05-03T11:37:57.000Z</time>
      </trkpt>
      <trkpt lat="40.7908886857330799102783203125" lon="-1.712138168513774871826171875">
        <ele>1202.5999755859375</ele>
        <time>2022-05-03T11:37:59.000Z</time>
      </trkpt>
      <trkpt lat="40.79092414118349552154541015625" lon="-1.71214445494115352630615234375">
        <ele>1202.800048828125</ele>
        <time>2022-05-03T11:38:01.000Z</time>
      </trkpt>
      <trkpt lat="40.7909580878913402557373046875" lon="-1.712148226797580718994140625">
        <ele>1202.800048828125</ele>
        <time>2022-05-03T11:38:03.000Z</time>
      </trkpt>
      <trkpt lat="40.79097610898315906524658203125" lon="-1.71215116046369075775146484375">
        <ele>1203</ele>
        <time>2022-05-03T11:38:04.000Z</time>
      </trkpt>
      <trkpt lat="40.7909931242465972900390625" lon="-1.71215719543397426605224609375">
        <ele>1203</ele>
        <time>2022-05-03T11:38:05.000Z</time>
      </trkpt>
      <trkpt lat="40.79100980423390865325927734375" lon="-1.71216457150876522064208984375">
        <ele>1203.199951171875</ele>
        <time>2022-05-03T11:38:06.000Z</time>
      </trkpt>
      <trkpt lat="40.79102589748799800872802734375" lon="-1.71217194758355617523193359375">
        <ele>1203.4000244140625</ele>
        <time>2022-05-03T11:38:07.000Z</time>
      </trkpt>
      <trkpt lat="40.79105590470135211944580078125" lon="-1.71218611299991607666015625">
        <ele>1203.5999755859375</ele>
        <time>2022-05-03T11:38:09.000Z</time>
      </trkpt>
      <trkpt lat="40.7910848222672939300537109375" lon="-1.7122057266533374786376953125">
        <ele>1203.800048828125</ele>
        <time>2022-05-03T11:38:11.000Z</time>
      </trkpt>
      <trkpt lat="40.79109781421720981597900390625" lon="-1.7122147791087627410888671875">
        <ele>1203.800048828125</ele>
        <time>2022-05-03T11:38:12.000Z</time>
      </trkpt>
      <trkpt lat="40.7911116443574428558349609375" lon="-1.7122214846312999725341796875">
        <ele>1204</ele>
        <time>2022-05-03T11:38:13.000Z</time>
      </trkpt>
      <trkpt lat="40.79112413339316844940185546875" lon="-1.71222995035350322723388671875">
        <ele>1204</ele>
        <time>2022-05-03T11:38:14.000Z</time>
      </trkpt>
      <trkpt lat="40.7911357842385768890380859375" lon="-1.71224101446568965911865234375">
        <ele>1204.199951171875</ele>
        <time>2022-05-03T11:38:15.000Z</time>
      </trkpt>
      <trkpt lat="40.79115849919617176055908203125" lon="-1.71226146630942821502685546875">
        <ele>1204.4000244140625</ele>
        <time>2022-05-03T11:38:17.000Z</time>
      </trkpt>
      <trkpt lat="40.79116889275610446929931640625" lon="-1.712273620069026947021484375">
        <ele>1204.5999755859375</ele>
        <time>2022-05-03T11:38:18.000Z</time>
      </trkpt>
      <trkpt lat="40.791177190840244293212890625" lon="-1.71228845603764057159423828125">
        <ele>1204.5999755859375</ele>
        <time>2022-05-03T11:38:19.000Z</time>
      </trkpt>
      <trkpt lat="40.79119688831269741058349609375" lon="-1.7123220674693584442138671875">
        <ele>1205</ele>
        <time>2022-05-03T11:38:21.000Z</time>
      </trkpt>
      <trkpt lat="40.7912242971360683441162109375" lon="-1.7123485542833805084228515625">
        <ele>1205.199951171875</ele>
        <time>2022-05-03T11:38:23.000Z</time>
      </trkpt>
      <trkpt lat="40.79125254414975643157958984375" lon="-1.712373532354831695556640625">
        <ele>1205.5999755859375</ele>
        <time>2022-05-03T11:38:25.000Z</time>
      </trkpt>
      <trkpt lat="40.79127768985927104949951171875" lon="-1.71240529976785182952880859375">
        <ele>1205.800048828125</ele>
        <time>2022-05-03T11:38:27.000Z</time>
      </trkpt>
      <trkpt lat="40.79130266793072223663330078125" lon="-1.7124360613524913787841796875">
        <ele>1206.199951171875</ele>
        <time>2022-05-03T11:38:29.000Z</time>
      </trkpt>
      <trkpt lat="40.7913284003734588623046875" lon="-1.712470091879367828369140625">
        <ele>1206.4000244140625</ele>
        <time>2022-05-03T11:38:31.000Z</time>
      </trkpt>
      <trkpt lat="40.79136033542454242706298828125" lon="-1.7125086486339569091796875">
        <ele>1206.4000244140625</ele>
        <time>2022-05-03T11:38:33.000Z</time>
      </trkpt>
      <trkpt lat="40.79140174202620983123779296875" lon="-1.71255650930106639862060546875">
        <ele>1206.800048828125</ele>
        <time>2022-05-03T11:38:35.000Z</time>
      </trkpt>
      <trkpt lat="40.79145018942654132843017578125" lon="-1.71261727809906005859375">
        <ele>1207</ele>
        <time>2022-05-03T11:38:37.000Z</time>
      </trkpt>
      <trkpt lat="40.79150333069264888763427734375" lon="-1.7126881889998912811279296875">
        <ele>1207.4000244140625</ele>
        <time>2022-05-03T11:38:39.000Z</time>
      </trkpt>
      <trkpt lat="40.7915572263300418853759765625" lon="-1.712762452661991119384765625">
        <ele>1207.800048828125</ele>
        <time>2022-05-03T11:38:41.000Z</time>
      </trkpt>
      <trkpt lat="40.791611038148403167724609375" lon="-1.71283311210572719573974609375">
        <ele>1208.199951171875</ele>
        <time>2022-05-03T11:38:43.000Z</time>
      </trkpt>
      <trkpt lat="40.79166191630065441131591796875" lon="-1.71289832331240177154541015625">
        <ele>1208.5999755859375</ele>
        <time>2022-05-03T11:38:45.000Z</time>
      </trkpt>
      <trkpt lat="40.7917138002812862396240234375" lon="-1.71296336688101291656494140625">
        <ele>1209</ele>
        <time>2022-05-03T11:38:47.000Z</time>
      </trkpt>
      <trkpt lat="40.79176400788128376007080078125" lon="-1.71302991919219493865966796875">
        <ele>1209.5999755859375</ele>
        <time>2022-05-03T11:38:49.000Z</time>
      </trkpt>
      <trkpt lat="40.79181429930031299591064453125" lon="-1.7130918614566326141357421875">
        <ele>1210</ele>
        <time>2022-05-03T11:38:51.000Z</time>
      </trkpt>
      <trkpt lat="40.79186291433870792388916015625" lon="-1.71315430663526058197021484375">
        <ele>1210.5999755859375</ele>
        <time>2022-05-03T11:38:53.000Z</time>
      </trkpt>
      <trkpt lat="40.79190901480615139007568359375" lon="-1.71321415342390537261962890625">
        <ele>1210.800048828125</ele>
        <time>2022-05-03T11:38:55.000Z</time>
      </trkpt>
      <trkpt lat="40.7919317297637462615966796875" lon="-1.71324265189468860626220703125">
        <ele>1210.800048828125</ele>
        <time>2022-05-03T11:38:56.000Z</time>
      </trkpt>
      <trkpt lat="40.7919533550739288330078125" lon="-1.7132703959941864013671875">
        <ele>1210.5999755859375</ele>
        <time>2022-05-03T11:38:57.000Z</time>
      </trkpt>
      <trkpt lat="40.79199451021850109100341796875" lon="-1.71332244761288166046142578125">
        <ele>1210.4000244140625</ele>
        <time>2022-05-03T11:38:59.000Z</time>
      </trkpt>
      <trkpt lat="40.7920324802398681640625" lon="-1.713371314108371734619140625">
        <ele>1210.4000244140625</ele>
        <time>2022-05-03T11:39:01.000Z</time>
      </trkpt>
      <trkpt lat="40.79206894151866436004638671875" lon="-1.71341716311872005462646484375">
        <ele>1210.4000244140625</ele>
        <time>2022-05-03T11:39:03.000Z</time>
      </trkpt>
      <trkpt lat="40.79210414551198482513427734375" lon="-1.71346225775778293609619140625">
        <ele>1210.4000244140625</ele>
        <time>2022-05-03T11:39:05.000Z</time>
      </trkpt>
      <trkpt lat="40.79212191514670848846435546875" lon="-1.71348438598215579986572265625">
        <ele>1210.4000244140625</ele>
        <time>2022-05-03T11:39:06.000Z</time>
      </trkpt>
      <trkpt lat="40.79213867895305156707763671875" lon="-1.71350668184459209442138671875">
        <ele>1210.4000244140625</ele>
        <time>2022-05-03T11:39:07.000Z</time>
      </trkpt>
      <trkpt lat="40.7921717874705791473388671875" lon="-1.713550351560115814208984375">
        <ele>1210.4000244140625</ele>
        <time>2022-05-03T11:39:09.000Z</time>
      </trkpt>
      <trkpt lat="40.79220640473067760467529296875" lon="-1.713593266904354095458984375">
        <ele>1210.5999755859375</ele>
        <time>2022-05-03T11:39:11.000Z</time>
      </trkpt>
      <trkpt lat="40.7922435365617275238037109375" lon="-1.71363777481019496917724609375">
        <ele>1210.4000244140625</ele>
        <time>2022-05-03T11:39:13.000Z</time>
      </trkpt>
      <trkpt lat="40.792278237640857696533203125" lon="-1.71368144452571868896484375">
        <ele>1210.199951171875</ele>
        <time>2022-05-03T11:39:15.000Z</time>
      </trkpt>
      <trkpt lat="40.79231302253901958465576171875" lon="-1.7137241922318935394287109375">
        <ele>1210.199951171875</ele>
        <time>2022-05-03T11:39:17.000Z</time>
      </trkpt>
      <trkpt lat="40.79234990291297435760498046875" lon="-1.71376132406294345855712890625">
        <ele>1210</ele>
        <time>2022-05-03T11:39:19.000Z</time>
      </trkpt>
      <trkpt lat="40.7923873700201511383056640625" lon="-1.7137969471514225006103515625">
        <ele>1209.800048828125</ele>
        <time>2022-05-03T11:39:21.000Z</time>
      </trkpt>
      <trkpt lat="40.7924215681850910186767578125" lon="-1.7138388566672801971435546875">
        <ele>1209.800048828125</ele>
        <time>2022-05-03T11:39:23.000Z</time>
      </trkpt>
      <trkpt lat="40.79243724234402179718017578125" lon="-1.71385981142520904541015625">
        <ele>1210</ele>
        <time>2022-05-03T11:39:24.000Z</time>
      </trkpt>
      <trkpt lat="40.79245534725487232208251953125" lon="-1.71387800015509128570556640625">
        <ele>1210.199951171875</ele>
        <time>2022-05-03T11:39:25.000Z</time>
      </trkpt>
      <trkpt lat="40.7924919761717319488525390625" lon="-1.71390884555876255035400390625">
        <ele>1210.800048828125</ele>
        <time>2022-05-03T11:39:27.000Z</time>
      </trkpt>
      <trkpt lat="40.7925298623740673065185546875" lon="-1.713941283524036407470703125">
        <ele>1211.199951171875</ele>
        <time>2022-05-03T11:39:29.000Z</time>
      </trkpt>
      <trkpt lat="40.79256732948124408721923828125" lon="-1.71397782862186431884765625">
        <ele>1211.5999755859375</ele>
        <time>2022-05-03T11:39:31.000Z</time>
      </trkpt>
      <trkpt lat="40.792605467140674591064453125" lon="-1.71401093713939189910888671875">
        <ele>1212.199951171875</ele>
        <time>2022-05-03T11:39:33.000Z</time>
      </trkpt>
      <trkpt lat="40.7926237396895885467529296875" lon="-1.714027784764766693115234375">
        <ele>1212.4000244140625</ele>
        <time>2022-05-03T11:39:34.000Z</time>
      </trkpt>
      <trkpt lat="40.79264243133366107940673828125" lon="-1.71404362656176090240478515625">
        <ele>1212.5999755859375</ele>
        <time>2022-05-03T11:39:35.000Z</time>
      </trkpt>
      <trkpt lat="40.792680568993091583251953125" lon="-1.71407363377511501312255859375">
        <ele>1213</ele>
        <time>2022-05-03T11:39:37.000Z</time>
      </trkpt>
      <trkpt lat="40.79272088594734668731689453125" lon="-1.7140965163707733154296875">
        <ele>1213.5999755859375</ele>
        <time>2022-05-03T11:39:39.000Z</time>
      </trkpt>
      <trkpt lat="40.79275994561612606048583984375" lon="-1.71412124298512935638427734375">
        <ele>1214</ele>
        <time>2022-05-03T11:39:41.000Z</time>
      </trkpt>
      <trkpt lat="40.792799927294254302978515625" lon="-1.71414907090365886688232421875">
        <ele>1214.4000244140625</ele>
        <time>2022-05-03T11:39:43.000Z</time>
      </trkpt>
      <trkpt lat="40.79283890314400196075439453125" lon="-1.71417673118412494659423828125">
        <ele>1215</ele>
        <time>2022-05-03T11:39:45.000Z</time>
      </trkpt>
      <trkpt lat="40.792875029146671295166015625" lon="-1.71420472674071788787841796875">
        <ele>1215.4000244140625</ele>
        <time>2022-05-03T11:39:47.000Z</time>
      </trkpt>
      <trkpt lat="40.79291568137705326080322265625" lon="-1.714226938784122467041015625">
        <ele>1215.4000244140625</ele>
        <time>2022-05-03T11:39:49.000Z</time>
      </trkpt>
      <trkpt lat="40.79293512739241123199462890625" lon="-1.7142395116388797760009765625">
        <ele>1215.4000244140625</ele>
        <time>2022-05-03T11:39:50.000Z</time>
      </trkpt>
      <trkpt lat="40.7929553277790546417236328125" lon="-1.7142535932362079620361328125">
        <ele>1215.5999755859375</ele>
        <time>2022-05-03T11:39:51.000Z</time>
      </trkpt>
      <trkpt lat="40.79299480654299259185791015625" lon="-1.71427949331700801849365234375">
        <ele>1215.5999755859375</ele>
        <time>2022-05-03T11:39:53.000Z</time>
      </trkpt>
      <trkpt lat="40.793032608926296234130859375" lon="-1.7143052257597446441650390625">
        <ele>1215.5999755859375</ele>
        <time>2022-05-03T11:39:55.000Z</time>
      </trkpt>
      <trkpt lat="40.79304761253297328948974609375" lon="-1.71432224102318286895751953125">
        <ele>1215.5999755859375</ele>
        <time>2022-05-03T11:39:56.000Z</time>
      </trkpt>
      <trkpt lat="40.79305968247354030609130859375" lon="-1.7143432796001434326171875">
        <ele>1215.800048828125</ele>
        <time>2022-05-03T11:39:57.000Z</time>
      </trkpt>
      <trkpt lat="40.793090276420116424560546875" lon="-1.714377142488956451416015625">
        <ele>1216</ele>
        <time>2022-05-03T11:39:59.000Z</time>
      </trkpt>
      <trkpt lat="40.79311014153063297271728515625" lon="-1.714384853839874267578125">
        <ele>1216.199951171875</ele>
        <time>2022-05-03T11:40:00.000Z</time>
      </trkpt>
      <trkpt lat="40.79313042573630809783935546875" lon="-1.71438912861049175262451171875">
        <ele>1216.4000244140625</ele>
        <time>2022-05-03T11:40:01.000Z</time>
      </trkpt>
      <trkpt lat="40.793150626122951507568359375" lon="-1.71439466066658496856689453125">
        <ele>1216.5999755859375</ele>
        <time>2022-05-03T11:40:02.000Z</time>
      </trkpt>
      <trkpt lat="40.79316982068121433258056640625" lon="-1.71440304256975650787353515625">
        <ele>1216.800048828125</ele>
        <time>2022-05-03T11:40:03.000Z</time>
      </trkpt>
      <trkpt lat="40.79318809323012828826904296875" lon="-1.714413352310657501220703125">
        <ele>1217</ele>
        <time>2022-05-03T11:40:04.000Z</time>
      </trkpt>
      <trkpt lat="40.79320502467453479766845703125" lon="-1.71442466787993907928466796875">
        <ele>1217.199951171875</ele>
        <time>2022-05-03T11:40:05.000Z</time>
      </trkpt>
      <trkpt lat="40.793239139020442962646484375" lon="-1.71444579027593135833740234375">
        <ele>1217.5999755859375</ele>
        <time>2022-05-03T11:40:07.000Z</time>
      </trkpt>
      <trkpt lat="40.79327166080474853515625" lon="-1.714465655386447906494140625">
        <ele>1217.800048828125</ele>
        <time>2022-05-03T11:40:09.000Z</time>
      </trkpt>
      <trkpt lat="40.79330359585583209991455078125" lon="-1.7144866101443767547607421875">
        <ele>1218.199951171875</ele>
        <time>2022-05-03T11:40:11.000Z</time>
      </trkpt>
      <trkpt lat="40.7933187671005725860595703125" lon="-1.7144970037043094635009765625">
        <ele>1218.4000244140625</ele>
        <time>2022-05-03T11:40:12.000Z</time>
      </trkpt>
      <trkpt lat="40.7933338545262813568115234375" lon="-1.714507229626178741455078125">
        <ele>1218.5999755859375</ele>
        <time>2022-05-03T11:40:13.000Z</time>
      </trkpt>
      <trkpt lat="40.7933660410344600677490234375" lon="-1.71453111805021762847900390625">
        <ele>1218.800048828125</ele>
        <time>2022-05-03T11:40:15.000Z</time>
      </trkpt>
      <trkpt lat="40.793401412665843963623046875" lon="-1.71455450356006622314453125">
        <ele>1219.199951171875</ele>
        <time>2022-05-03T11:40:17.000Z</time>
      </trkpt>
      <trkpt lat="40.7934334315359592437744140625" lon="-1.71457864344120025634765625">
        <ele>1219.4000244140625</ele>
        <time>2022-05-03T11:40:19.000Z</time>
      </trkpt>
      <trkpt lat="40.79344742931425571441650390625" lon="-1.71459532342851161956787109375">
        <ele>1219.5999755859375</ele>
        <time>2022-05-03T11:40:20.000Z</time>
      </trkpt>
      <trkpt lat="40.793461762368679046630859375" lon="-1.714613176882266998291015625">
        <ele>1219.800048828125</ele>
        <time>2022-05-03T11:40:21.000Z</time>
      </trkpt>
      <trkpt lat="40.7934914343059062957763671875" lon="-1.71464460901916027069091796875">
        <ele>1220</ele>
        <time>2022-05-03T11:40:23.000Z</time>
      </trkpt>
      <trkpt lat="40.79352253116667270660400390625" lon="-1.71466824598610401153564453125">
        <ele>1220.4000244140625</ele>
        <time>2022-05-03T11:40:25.000Z</time>
      </trkpt>
      <trkpt lat="40.7935541309416294097900390625" lon="-1.71468584798276424407958984375">
        <ele>1220.5999755859375</ele>
        <time>2022-05-03T11:40:27.000Z</time>
      </trkpt>
      <trkpt lat="40.7935702241957187652587890625" lon="-1.71469506807625293731689453125">
        <ele>1220.800048828125</ele>
        <time>2022-05-03T11:40:28.000Z</time>
      </trkpt>
      <trkpt lat="40.79358656890690326690673828125" lon="-1.71470512636005878448486328125">
        <ele>1221</ele>
        <time>2022-05-03T11:40:29.000Z</time>
      </trkpt>
      <trkpt lat="40.79361607320606708526611328125" lon="-1.7147268354892730712890625">
        <ele>1221.199951171875</ele>
        <time>2022-05-03T11:40:31.000Z</time>
      </trkpt>
      <trkpt lat="40.793646164238452911376953125" lon="-1.714746952056884765625">
        <ele>1221.5999755859375</ele>
        <time>2022-05-03T11:40:33.000Z</time>
      </trkpt>
      <trkpt lat="40.7936775125563144683837890625" lon="-1.714764721691608428955078125">
        <ele>1222</ele>
        <time>2022-05-03T11:40:35.000Z</time>
      </trkpt>
      <trkpt lat="40.79369268380105495452880859375" lon="-1.71477553434669971466064453125">
        <ele>1222</ele>
        <time>2022-05-03T11:40:36.000Z</time>
      </trkpt>
      <trkpt lat="40.79370810650289058685302734375" lon="-1.71478626318275928497314453125">
        <ele>1222.199951171875</ele>
        <time>2022-05-03T11:40:37.000Z</time>
      </trkpt>
      <trkpt lat="40.7937415502965450286865234375" lon="-1.7148046195507049560546875">
        <ele>1222.5999755859375</ele>
        <time>2022-05-03T11:40:39.000Z</time>
      </trkpt>
      <trkpt lat="40.7937730662524700164794921875" lon="-1.7148326151072978973388671875">
        <ele>1222.800048828125</ele>
        <time>2022-05-03T11:40:41.000Z</time>
      </trkpt>
      <trkpt lat="40.79380877315998077392578125" lon="-1.7148554138839244842529296875">
        <ele>1223.199951171875</ele>
        <time>2022-05-03T11:40:43.000Z</time>
      </trkpt>
      <trkpt lat="40.79384339042007923126220703125" lon="-1.71487460844218730926513671875">
        <ele>1223.5999755859375</ele>
        <time>2022-05-03T11:40:45.000Z</time>
      </trkpt>
      <trkpt lat="40.7938790135085582733154296875" lon="-1.71489807777106761932373046875">
        <ele>1224</ele>
        <time>2022-05-03T11:40:47.000Z</time>
      </trkpt>
      <trkpt lat="40.79391472041606903076171875" lon="-1.71492489986121654510498046875">
        <ele>1224</ele>
        <time>2022-05-03T11:40:49.000Z</time>
      </trkpt>
      <trkpt lat="40.793952606618404388427734375" lon="-1.7149506323039531707763671875">
        <ele>1224</ele>
        <time>2022-05-03T11:40:51.000Z</time>
      </trkpt>
      <trkpt lat="40.7939906604588031768798828125" lon="-1.71497569419443607330322265625">
        <ele>1223.800048828125</ele>
        <time>2022-05-03T11:40:53.000Z</time>
      </trkpt>
      <trkpt lat="40.79402762465178966522216796875" lon="-1.71500151045620441436767578125">
        <ele>1223.800048828125</ele>
        <time>2022-05-03T11:40:55.000Z</time>
      </trkpt>
      <trkpt lat="40.7940449751913547515869140625" lon="-1.7150151729583740234375">
        <ele>1223.800048828125</ele>
        <time>2022-05-03T11:40:56.000Z</time>
      </trkpt>
      <trkpt lat="40.79406383447349071502685546875" lon="-1.715028919279575347900390625">
        <ele>1223.800048828125</ele>
        <time>2022-05-03T11:40:57.000Z</time>
      </trkpt>
      <trkpt lat="40.79410021193325519561767578125" lon="-1.715057082474231719970703125">
        <ele>1223.5999755859375</ele>
        <time>2022-05-03T11:40:59.000Z</time>
      </trkpt>
      <trkpt lat="40.79413491301238536834716796875" lon="-1.71508616767823696136474609375">
        <ele>1223.5999755859375</ele>
        <time>2022-05-03T11:41:01.000Z</time>
      </trkpt>
      <trkpt lat="40.79417196102440357208251953125" lon="-1.71512036584317684173583984375">
        <ele>1223.5999755859375</ele>
        <time>2022-05-03T11:41:03.000Z</time>
      </trkpt>
      <trkpt lat="40.794206745922565460205078125" lon="-1.71515506692230701446533203125">
        <ele>1223.5999755859375</ele>
        <time>2022-05-03T11:41:05.000Z</time>
      </trkpt>
      <trkpt lat="40.79422392882406711578369140625" lon="-1.7151735909283161163330078125">
        <ele>1223.5999755859375</ele>
        <time>2022-05-03T11:41:06.000Z</time>
      </trkpt>
      <trkpt lat="40.7942407764494419097900390625" lon="-1.7151916958391666412353515625">
        <ele>1223.4000244140625</ele>
        <time>2022-05-03T11:41:07.000Z</time>
      </trkpt>
      <trkpt lat="40.79427279531955718994140625" lon="-1.715232096612453460693359375">
        <ele>1223.4000244140625</ele>
        <time>2022-05-03T11:41:09.000Z</time>
      </trkpt>
      <trkpt lat="40.79430305399000644683837890625" lon="-1.71527291648089885711669921875">
        <ele>1223.4000244140625</ele>
        <time>2022-05-03T11:41:11.000Z</time>
      </trkpt>
      <trkpt lat="40.7943353243172168731689453125" lon="-1.7153142392635345458984375">
        <ele>1223.5999755859375</ele>
        <time>2022-05-03T11:41:13.000Z</time>
      </trkpt>
      <trkpt lat="40.79436893574893474578857421875" lon="-1.71535111963748931884765625">
        <ele>1223.800048828125</ele>
        <time>2022-05-03T11:41:15.000Z</time>
      </trkpt>
      <trkpt lat="40.79440346919000148773193359375" lon="-1.7153839766979217529296875">
        <ele>1223.800048828125</ele>
        <time>2022-05-03T11:41:17.000Z</time>
      </trkpt>
      <trkpt lat="40.79443464986979961395263671875" lon="-1.7154193483293056488037109375">
        <ele>1224</ele>
        <time>2022-05-03T11:41:19.000Z</time>
      </trkpt>
      <trkpt lat="40.794466920197010040283203125" lon="-1.71545430086553096771240234375">
        <ele>1224.199951171875</ele>
        <time>2022-05-03T11:41:21.000Z</time>
      </trkpt>
      <trkpt lat="40.7944987714290618896484375" lon="-1.71548631973564624786376953125">
        <ele>1224.199951171875</ele>
        <time>2022-05-03T11:41:23.000Z</time>
      </trkpt>
      <trkpt lat="40.794530622661113739013671875" lon="-1.71551431529223918914794921875">
        <ele>1224.4000244140625</ele>
        <time>2022-05-03T11:41:25.000Z</time>
      </trkpt>
      <trkpt lat="40.79454545862972736358642578125" lon="-1.7155296541750431060791015625">
        <ele>1224.4000244140625</ele>
        <time>2022-05-03T11:41:26.000Z</time>
      </trkpt>
      <trkpt lat="40.794560126960277557373046875" lon="-1.71554650180041790008544921875">
        <ele>1224.4000244140625</ele>
        <time>2022-05-03T11:41:27.000Z</time>
      </trkpt>
      <trkpt lat="40.794590972363948822021484375" lon="-1.7155799455940723419189453125">
        <ele>1224.5999755859375</ele>
        <time>2022-05-03T11:41:29.000Z</time>
      </trkpt>
      <trkpt lat="40.79462148249149322509765625" lon="-1.71561104245483875274658203125">
        <ele>1224.5999755859375</ele>
        <time>2022-05-03T11:41:31.000Z</time>
      </trkpt>
      <trkpt lat="40.79465174116194248199462890625" lon="-1.715644486248493194580078125">
        <ele>1224.800048828125</ele>
        <time>2022-05-03T11:41:33.000Z</time>
      </trkpt>
      <trkpt lat="40.79468225128948688507080078125" lon="-1.71567826531827449798583984375">
        <ele>1225</ele>
        <time>2022-05-03T11:41:35.000Z</time>
      </trkpt>
      <trkpt lat="40.79469733871519565582275390625" lon="-1.715695448219776153564453125">
        <ele>1225</ele>
        <time>2022-05-03T11:41:36.000Z</time>
      </trkpt>
      <trkpt lat="40.79471225850284099578857421875" lon="-1.715712882578372955322265625">
        <ele>1225</ele>
        <time>2022-05-03T11:41:37.000Z</time>
      </trkpt>
      <trkpt lat="40.79474218189716339111328125" lon="-1.7157445661723613739013671875">
        <ele>1224.800048828125</ele>
        <time>2022-05-03T11:41:39.000Z</time>
      </trkpt>
      <trkpt lat="40.79477059654891490936279296875" lon="-1.71577415429055690765380859375">
        <ele>1224.5999755859375</ele>
        <time>2022-05-03T11:41:41.000Z</time>
      </trkpt>
      <trkpt lat="40.7947939820587635040283203125" lon="-1.7158002220094203948974609375">
        <ele>1224.5999755859375</ele>
        <time>2022-05-03T11:41:43.000Z</time>
      </trkpt>
      <trkpt lat="40.7948057167232036590576171875" lon="-1.715811789035797119140625">
        <ele>1224.4000244140625</ele>
        <time>2022-05-03T11:41:44.000Z</time>
      </trkpt>
      <trkpt lat="40.79481602646410465240478515625" lon="-1.7158223502337932586669921875">
        <ele>1224.4000244140625</ele>
        <time>2022-05-03T11:41:45.000Z</time>
      </trkpt>
      <trkpt lat="40.794824995100498199462890625" lon="-1.715829558670520782470703125">
        <ele>1224.4000244140625</ele>
        <time>2022-05-03T11:41:47.000Z</time>
      </trkpt>
      <trkpt lat="40.7948244921863079071044921875" lon="-1.71582863666117191314697265625">
        <ele>1224.4000244140625</ele>
        <time>2022-05-03T11:41:48.000Z</time>
      </trkpt>
      <trkpt lat="40.79485005699098110198974609375" lon="-1.7158555425703525543212890625">
        <ele>1224.199951171875</ele>
        <time>2022-05-03T11:43:04.000Z</time>
      </trkpt>
      <trkpt lat="40.79486179165542125701904296875" lon="-1.71586719341576099395751953125">
        <ele>1224.199951171875</ele>
        <time>2022-05-03T11:43:05.000Z</time>
      </trkpt>
      <trkpt lat="40.7948868535459041595458984375" lon="-1.71589636243879795074462890625">
        <ele>1224</ele>
        <time>2022-05-03T11:43:07.000Z</time>
      </trkpt>
      <trkpt lat="40.794915854930877685546875" lon="-1.7159289680421352386474609375">
        <ele>1224</ele>
        <time>2022-05-03T11:43:09.000Z</time>
      </trkpt>
      <trkpt lat="40.794948376715183258056640625" lon="-1.7159712128341197967529296875">
        <ele>1223.800048828125</ele>
        <time>2022-05-03T11:43:11.000Z</time>
      </trkpt>
      <trkpt lat="40.79496673308312892913818359375" lon="-1.71599526889622211456298828125">
        <ele>1223.5999755859375</ele>
        <time>2022-05-03T11:43:12.000Z</time>
      </trkpt>
      <trkpt lat="40.794986598193645477294921875" lon="-1.71602007932960987091064453125">
        <ele>1223.5999755859375</ele>
        <time>2022-05-03T11:43:13.000Z</time>
      </trkpt>
      <trkpt lat="40.79503194428980350494384765625" lon="-1.71607087366282939910888671875">
        <ele>1223.199951171875</ele>
        <time>2022-05-03T11:43:15.000Z</time>
      </trkpt>
      <trkpt lat="40.7950789667665958404541015625" lon="-1.71612820588052272796630859375">
        <ele>1223</ele>
        <time>2022-05-03T11:43:17.000Z</time>
      </trkpt>
      <trkpt lat="40.79512950964272022247314453125" lon="-1.71619241125881671905517578125">
        <ele>1222.800048828125</ele>
        <time>2022-05-03T11:43:19.000Z</time>
      </trkpt>
      <trkpt lat="40.79515784047544002532958984375" lon="-1.71622627414762973785400390625">
        <ele>1222.5999755859375</ele>
        <time>2022-05-03T11:43:20.000Z</time>
      </trkpt>
      <trkpt lat="40.79518650658428668975830078125" lon="-1.716262735426425933837890625">
        <ele>1222.4000244140625</ele>
        <time>2022-05-03T11:43:21.000Z</time>
      </trkpt>
      <trkpt lat="40.79525004141032695770263671875" lon="-1.7163393460214138031005859375">
        <ele>1222</ele>
        <time>2022-05-03T11:43:23.000Z</time>
      </trkpt>
      <trkpt lat="40.795315839350223541259765625" lon="-1.716423667967319488525390625">
        <ele>1221.5999755859375</ele>
        <time>2022-05-03T11:43:25.000Z</time>
      </trkpt>
      <trkpt lat="40.795386247336864471435546875" lon="-1.71651109121739864349365234375">
        <ele>1221.199951171875</ele>
        <time>2022-05-03T11:43:27.000Z</time>
      </trkpt>
      <trkpt lat="40.7954601757228374481201171875" lon="-1.71660211868584156036376953125">
        <ele>1220.800048828125</ele>
        <time>2022-05-03T11:43:29.000Z</time>
      </trkpt>
      <trkpt lat="40.7955342717468738555908203125" lon="-1.7166944034397602081298828125">
        <ele>1220</ele>
        <time>2022-05-03T11:43:31.000Z</time>
      </trkpt>
      <trkpt lat="40.7956053502857685089111328125" lon="-1.71678350307047367095947265625">
        <ele>1219.199951171875</ele>
        <time>2022-05-03T11:43:33.000Z</time>
      </trkpt>
      <trkpt lat="40.79567433334887027740478515625" lon="-1.71686790883541107177734375">
        <ele>1218.4000244140625</ele>
        <time>2022-05-03T11:43:35.000Z</time>
      </trkpt>
      <trkpt lat="40.79570752568542957305908203125" lon="-1.716907136142253875732421875">
        <ele>1218.199951171875</ele>
        <time>2022-05-03T11:43:36.000Z</time>
      </trkpt>
      <trkpt lat="40.7957394607365131378173828125" lon="-1.716947369277477264404296875">
        <ele>1217.800048828125</ele>
        <time>2022-05-03T11:43:37.000Z</time>
      </trkpt>
      <trkpt lat="40.79580240882933139801025390625" lon="-1.71702221967279911041259765625">
        <ele>1217.199951171875</ele>
        <time>2022-05-03T11:43:39.000Z</time>
      </trkpt>
      <trkpt lat="40.79585990868508815765380859375" lon="-1.7170960642397403717041015625">
        <ele>1216.800048828125</ele>
        <time>2022-05-03T11:43:41.000Z</time>
      </trkpt>
      <trkpt lat="40.79591355286538600921630859375" lon="-1.71716303564608097076416015625">
        <ele>1216.5999755859375</ele>
        <time>2022-05-03T11:43:43.000Z</time>
      </trkpt>
      <trkpt lat="40.79593836329877376556396484375" lon="-1.7171939648687839508056640625">
        <ele>1216.5999755859375</ele>
        <time>2022-05-03T11:43:44.000Z</time>
      </trkpt>
      <trkpt lat="40.7959620840847492218017578125" lon="-1.71722539700567722320556640625">
        <ele>1216.5999755859375</ele>
        <time>2022-05-03T11:43:45.000Z</time>
      </trkpt>
      <trkpt lat="40.79600659199059009552001953125" lon="-1.71728432178497314453125">
        <ele>1216.4000244140625</ele>
        <time>2022-05-03T11:43:47.000Z</time>
      </trkpt>
      <trkpt lat="40.79604975879192352294921875" lon="-1.71734265983104705810546875">
        <ele>1216.199951171875</ele>
        <time>2022-05-03T11:43:49.000Z</time>
      </trkpt>
      <trkpt lat="40.7960925064980983734130859375" lon="-1.7174088768661022186279296875">
        <ele>1216</ele>
        <time>2022-05-03T11:43:51.000Z</time>
      </trkpt>
      <trkpt lat="40.79611471854150295257568359375" lon="-1.71744232065975666046142578125">
        <ele>1215.800048828125</ele>
        <time>2022-05-03T11:43:52.000Z</time>
      </trkpt>
      <trkpt lat="40.79613751731812953948974609375" lon="-1.71747584827244281768798828125">
        <ele>1215.5999755859375</ele>
        <time>2022-05-03T11:43:53.000Z</time>
      </trkpt>
      <trkpt lat="40.79618160612881183624267578125" lon="-1.717543490231037139892578125">
        <ele>1215</ele>
        <time>2022-05-03T11:43:55.000Z</time>
      </trkpt>
      <trkpt lat="40.7962256111204624176025390625" lon="-1.71761398203670978546142578125">
        <ele>1215</ele>
        <time>2022-05-03T11:43:57.000Z</time>
      </trkpt>
      <trkpt lat="40.79626710154116153717041015625" lon="-1.71768866479396820068359375">
        <ele>1215</ele>
        <time>2022-05-03T11:43:59.000Z</time>
      </trkpt>
      <trkpt lat="40.79628839157521724700927734375" lon="-1.7177282273769378662109375">
        <ele>1215</ele>
        <time>2022-05-03T11:44:00.000Z</time>
      </trkpt>
      <trkpt lat="40.79631068743765354156494140625" lon="-1.71777038834989070892333984375">
        <ele>1215</ele>
        <time>2022-05-03T11:44:01.000Z</time>
      </trkpt>
      <trkpt lat="40.7963342405855655670166015625" lon="-1.7178145609796047210693359375">
        <ele>1215</ele>
        <time>2022-05-03T11:44:02.000Z</time>
      </trkpt>
      <trkpt lat="40.796358548104763031005859375" lon="-1.71786057762801647186279296875">
        <ele>1215</ele>
        <time>2022-05-03T11:44:03.000Z</time>
      </trkpt>
      <trkpt lat="40.79641194082796573638916015625" lon="-1.71795847825706005096435546875">
        <ele>1215.199951171875</ele>
        <time>2022-05-03T11:44:05.000Z</time>
      </trkpt>
      <trkpt lat="40.79647128470242023468017578125" lon="-1.71806543134152889251708984375">
        <ele>1215.4000244140625</ele>
        <time>2022-05-03T11:44:07.000Z</time>
      </trkpt>
      <trkpt lat="40.7965384237468242645263671875" lon="-1.7181786708533763885498046875">
        <ele>1215.199951171875</ele>
        <time>2022-05-03T11:44:09.000Z</time>
      </trkpt>
      <trkpt lat="40.7966069877147674560546875" lon="-1.71829777769744396209716796875">
        <ele>1214.4000244140625</ele>
        <time>2022-05-03T11:44:11.000Z</time>
      </trkpt>
      <trkpt lat="40.79667764715850353240966796875" lon="-1.7184281162917613983154296875">
        <ele>1213.4000244140625</ele>
        <time>2022-05-03T11:44:13.000Z</time>
      </trkpt>
      <trkpt lat="40.79671561717987060546875" lon="-1.71849760226905345916748046875">
        <ele>1212.800048828125</ele>
        <time>2022-05-03T11:44:14.000Z</time>
      </trkpt>
      <trkpt lat="40.7967536710202693939208984375" lon="-1.7185704410076141357421875">
        <ele>1212.199951171875</ele>
        <time>2022-05-03T11:44:15.000Z</time>
      </trkpt>
      <trkpt lat="40.796792395412921905517578125" lon="-1.71864395029842853546142578125">
        <ele>1211.800048828125</ele>
        <time>2022-05-03T11:44:16.000Z</time>
      </trkpt>
      <trkpt lat="40.79683271236717700958251953125" lon="-1.7187164537608623504638671875">
        <ele>1211.800048828125</ele>
        <time>2022-05-03T11:44:17.000Z</time>
      </trkpt>
      <trkpt lat="40.79691435210406780242919921875" lon="-1.718861125409603118896484375">
        <ele>1212</ele>
        <time>2022-05-03T11:44:19.000Z</time>
      </trkpt>
      <trkpt lat="40.79699884168803691864013671875" lon="-1.71900772489607334136962890625">
        <ele>1212.199951171875</ele>
        <time>2022-05-03T11:44:21.000Z</time>
      </trkpt>
      <trkpt lat="40.79709305427968502044677734375" lon="-1.71915155835449695587158203125">
        <ele>1213.5999755859375</ele>
        <time>2022-05-03T11:44:23.000Z</time>
      </trkpt>
      <trkpt lat="40.7971439324319362640380859375" lon="-1.719222553074359893798828125">
        <ele>1213.4000244140625</ele>
        <time>2022-05-03T11:44:24.000Z</time>
      </trkpt>
      <trkpt lat="40.797196738421916961669921875" lon="-1.7192946374416351318359375">
        <ele>1213.4000244140625</ele>
        <time>2022-05-03T11:44:25.000Z</time>
      </trkpt>
      <trkpt lat="40.79730478115379810333251953125" lon="-1.719440482556819915771484375">
        <ele>1213.199951171875</ele>
        <time>2022-05-03T11:44:27.000Z</time>
      </trkpt>
      <trkpt lat="40.79741299152374267578125" lon="-1.719585992395877838134765625">
        <ele>1213.199951171875</ele>
        <time>2022-05-03T11:44:29.000Z</time>
      </trkpt>
      <trkpt lat="40.79746638424694538116455078125" lon="-1.7196579091250896453857421875">
        <ele>1213.199951171875</ele>
        <time>2022-05-03T11:44:30.000Z</time>
      </trkpt>
      <trkpt lat="40.7975194416940212249755859375" lon="-1.719728149473667144775390625">
        <ele>1213.4000244140625</ele>
        <time>2022-05-03T11:44:31.000Z</time>
      </trkpt>
      <trkpt lat="40.79762295819818973541259765625" lon="-1.719865612685680389404296875">
        <ele>1214</ele>
        <time>2022-05-03T11:44:33.000Z</time>
      </trkpt>
      <trkpt lat="40.7976733334362506866455078125" lon="-1.71993099153041839599609375">
        <ele>1214.5999755859375</ele>
        <time>2022-05-03T11:44:34.000Z</time>
      </trkpt>
      <trkpt lat="40.79772236756980419158935546875" lon="-1.71999393962323665618896484375">
        <ele>1215.4000244140625</ele>
        <time>2022-05-03T11:44:35.000Z</time>
      </trkpt>
      <trkpt lat="40.79777131788432598114013671875" lon="-1.72005630098283290863037109375">
        <ele>1216.199951171875</ele>
        <time>2022-05-03T11:44:36.000Z</time>
      </trkpt>
      <trkpt lat="40.79782026819884777069091796875" lon="-1.720119416713714599609375">
        <ele>1216.800048828125</ele>
        <time>2022-05-03T11:44:37.000Z</time>
      </trkpt>
      <trkpt lat="40.797916240990161895751953125" lon="-1.720245145261287689208984375">
        <ele>1215.4000244140625</ele>
        <time>2022-05-03T11:44:39.000Z</time>
      </trkpt>
      <trkpt lat="40.7980089448392391204833984375" lon="-1.72036559320986270904541015625">
        <ele>1214</ele>
        <time>2022-05-03T11:44:41.000Z</time>
      </trkpt>
      <trkpt lat="40.79805328510701656341552734375" lon="-1.72042242251336574554443359375">
        <ele>1213.4000244140625</ele>
        <time>2022-05-03T11:44:42.000Z</time>
      </trkpt>
      <trkpt lat="40.79809519462287425994873046875" lon="-1.72047623433172702789306640625">
        <ele>1213</ele>
        <time>2022-05-03T11:44:43.000Z</time>
      </trkpt>
      <trkpt lat="40.79813542775809764862060546875" lon="-1.7205272801220417022705078125">
        <ele>1212.5999755859375</ele>
        <time>2022-05-03T11:44:44.000Z</time>
      </trkpt>
      <trkpt lat="40.79817473888397216796875" lon="-1.72057799063622951507568359375">
        <ele>1212.199951171875</ele>
        <time>2022-05-03T11:44:45.000Z</time>
      </trkpt>
      <trkpt lat="40.79825185239315032958984375" lon="-1.7206794954836368560791015625">
        <ele>1211.5999755859375</ele>
        <time>2022-05-03T11:44:47.000Z</time>
      </trkpt>
      <trkpt lat="40.7983294688165187835693359375" lon="-1.72078200615942478179931640625">
        <ele>1211.199951171875</ele>
        <time>2022-05-03T11:44:49.000Z</time>
      </trkpt>
      <trkpt lat="40.79840951599180698394775390625" lon="-1.7208850197494029998779296875">
        <ele>1210.5999755859375</ele>
        <time>2022-05-03T11:44:51.000Z</time>
      </trkpt>
      <trkpt lat="40.79849266447126865386962890625" lon="-1.72099105082452297210693359375">
        <ele>1210</ele>
        <time>2022-05-03T11:44:53.000Z</time>
      </trkpt>
      <trkpt lat="40.7985789142549037933349609375" lon="-1.7211046256124973297119140625">
        <ele>1209.5999755859375</ele>
        <time>2022-05-03T11:44:55.000Z</time>
      </trkpt>
      <trkpt lat="40.79862191341817378997802734375" lon="-1.72116338275372982025146484375">
        <ele>1209.5999755859375</ele>
        <time>2022-05-03T11:44:56.000Z</time>
      </trkpt>
      <trkpt lat="40.7986654154956340789794921875" lon="-1.72122105024755001068115234375">
        <ele>1209.4000244140625</ele>
        <time>2022-05-03T11:44:57.000Z</time>
      </trkpt>
      <trkpt lat="40.79875116236507892608642578125" lon="-1.72133722342550754547119140625">
        <ele>1209.4000244140625</ele>
        <time>2022-05-03T11:44:59.000Z</time>
      </trkpt>
      <trkpt lat="40.79883531667292118072509765625" lon="-1.7214502952992916107177734375">
        <ele>1209.199951171875</ele>
        <time>2022-05-03T11:45:01.000Z</time>
      </trkpt>
      <trkpt lat="40.79890857450664043426513671875" lon="-1.721550710499286651611328125">
        <ele>1209.199951171875</ele>
        <time>2022-05-03T11:45:03.000Z</time>
      </trkpt>
      <trkpt lat="40.798942856490612030029296875" lon="-1.721598319709300994873046875">
        <ele>1209.199951171875</ele>
        <time>2022-05-03T11:45:04.000Z</time>
      </trkpt>
      <trkpt lat="40.798975042998790740966796875" lon="-1.72164517454802989959716796875">
        <ele>1209.199951171875</ele>
        <time>2022-05-03T11:45:05.000Z</time>
      </trkpt>
      <trkpt lat="40.79903849400579929351806640625" lon="-1.72173871658742427825927734375">
        <ele>1209.4000244140625</ele>
        <time>2022-05-03T11:45:07.000Z</time>
      </trkpt>
      <trkpt lat="40.79910211265087127685546875" lon="-1.721840389072895050048828125">
        <ele>1209.4000244140625</ele>
        <time>2022-05-03T11:45:09.000Z</time>
      </trkpt>
      <trkpt lat="40.79916707240045070648193359375" lon="-1.7219485156238079071044921875">
        <ele>1209.5999755859375</ele>
        <time>2022-05-03T11:45:11.000Z</time>
      </trkpt>
      <trkpt lat="40.7992001809179782867431640625" lon="-1.72200392000377178192138671875">
        <ele>1209.5999755859375</ele>
        <time>2022-05-03T11:45:12.000Z</time>
      </trkpt>
      <trkpt lat="40.79923211596906185150146484375" lon="-1.7220588214695453643798828125">
        <ele>1209.5999755859375</ele>
        <time>2022-05-03T11:45:13.000Z</time>
      </trkpt>
      <trkpt lat="40.79926413483917713165283203125" lon="-1.72211355529725551605224609375">
        <ele>1209.4000244140625</ele>
        <time>2022-05-03T11:45:14.000Z</time>
      </trkpt>
      <trkpt lat="40.79929531551897525787353515625" lon="-1.72216904349625110626220703125">
        <ele>1209.199951171875</ele>
        <time>2022-05-03T11:45:15.000Z</time>
      </trkpt>
      <trkpt lat="40.79935516230762004852294921875" lon="-1.722279600799083709716796875">
        <ele>1208.800048828125</ele>
        <time>2022-05-03T11:45:17.000Z</time>
      </trkpt>
      <trkpt lat="40.7994127459824085235595703125" lon="-1.7223880626261234283447265625">
        <ele>1208.5999755859375</ele>
        <time>2022-05-03T11:45:19.000Z</time>
      </trkpt>
      <trkpt lat="40.7994657196104526519775390625" lon="-1.722490824759006500244140625">
        <ele>1208.5999755859375</ele>
        <time>2022-05-03T11:45:21.000Z</time>
      </trkpt>
      <trkpt lat="40.79948893748223781585693359375" lon="-1.7225422896444797515869140625">
        <ele>1208.5999755859375</ele>
        <time>2022-05-03T11:45:22.000Z</time>
      </trkpt>
      <trkpt lat="40.799511484801769256591796875" lon="-1.72259400598704814910888671875">
        <ele>1208.5999755859375</ele>
        <time>2022-05-03T11:45:23.000Z</time>
      </trkpt>
      <trkpt lat="40.79955540597438812255859375" lon="-1.722704060375690460205078125">
        <ele>1208.199951171875</ele>
        <time>2022-05-03T11:45:25.000Z</time>
      </trkpt>
      <trkpt lat="40.7996001653373241424560546875" lon="-1.72281059436500072479248046875">
        <ele>1207.800048828125</ele>
        <time>2022-05-03T11:45:27.000Z</time>
      </trkpt>
      <trkpt lat="40.7996432483196258544921875" lon="-1.7229191400110721588134765625">
        <ele>1207.199951171875</ele>
        <time>2022-05-03T11:45:29.000Z</time>
      </trkpt>
      <trkpt lat="40.79966411925852298736572265625" lon="-1.7229714430868625640869140625">
        <ele>1207</ele>
        <time>2022-05-03T11:45:30.000Z</time>
      </trkpt>
      <trkpt lat="40.79968272708356380462646484375" lon="-1.72302382998168468475341796875">
        <ele>1206.800048828125</ele>
        <time>2022-05-03T11:45:31.000Z</time>
      </trkpt>
      <trkpt lat="40.79971441067755222320556640625" lon="-1.7231330461800098419189453125">
        <ele>1206.4000244140625</ele>
        <time>2022-05-03T11:45:33.000Z</time>
      </trkpt>
      <trkpt lat="40.79974089749157428741455078125" lon="-1.72324377112090587615966796875">
        <ele>1206</ele>
        <time>2022-05-03T11:45:35.000Z</time>
      </trkpt>
      <trkpt lat="40.79977937042713165283203125" lon="-1.72335684299468994140625">
        <ele>1206</ele>
        <time>2022-05-03T11:45:37.000Z</time>
      </trkpt>
      <trkpt lat="40.799817927181720733642578125" lon="-1.72347377054393291473388671875">
        <ele>1206</ele>
        <time>2022-05-03T11:45:39.000Z</time>
      </trkpt>
      <trkpt lat="40.7998499460518360137939453125" lon="-1.72359162010252475738525390625">
        <ele>1205.800048828125</ele>
        <time>2022-05-03T11:45:41.000Z</time>
      </trkpt>
      <trkpt lat="40.79987919889390468597412109375" lon="-1.723705865442752838134765625">
        <ele>1205.800048828125</ele>
        <time>2022-05-03T11:45:43.000Z</time>
      </trkpt>
      <trkpt lat="40.799905769526958465576171875" lon="-1.7238123156130313873291015625">
        <ele>1205.5999755859375</ele>
        <time>2022-05-03T11:45:45.000Z</time>
      </trkpt>
      <trkpt lat="40.7999304123222827911376953125" lon="-1.72390007413923740386962890625">
        <ele>1204.800048828125</ele>
        <time>2022-05-03T11:45:47.000Z</time>
      </trkpt>
      <trkpt lat="40.79994223080575466156005859375" lon="-1.723939888179302215576171875">
        <ele>1204.199951171875</ele>
        <time>2022-05-03T11:45:48.000Z</time>
      </trkpt>
      <trkpt lat="40.799956060945987701416015625" lon="-1.72397534362971782684326171875">
        <ele>1203.800048828125</ele>
        <time>2022-05-03T11:45:49.000Z</time>
      </trkpt>
      <trkpt lat="40.79996938817203044891357421875" lon="-1.72400618903338909149169921875">
        <ele>1203.4000244140625</ele>
        <time>2022-05-03T11:45:50.000Z</time>
      </trkpt>
      <trkpt lat="40.79997961409389972686767578125" lon="-1.72403234057128429412841796875">
        <ele>1203</ele>
        <time>2022-05-03T11:45:51.000Z</time>
      </trkpt>
      <trkpt lat="40.79998321831226348876953125" lon="-1.72408179379999637603759765625">
        <ele>1202.800048828125</ele>
        <time>2022-05-03T11:45:53.000Z</time>
      </trkpt>
      <trkpt lat="40.79997961409389972686767578125" lon="-1.72411398030817508697509765625">
        <ele>1202.800048828125</ele>
        <time>2022-05-03T11:45:54.000Z</time>
      </trkpt>
      <trkpt lat="40.799979865550994873046875" lon="-1.7241546325385570526123046875">
        <ele>1202.5999755859375</ele>
        <time>2022-05-03T11:45:55.000Z</time>
      </trkpt>
      <trkpt lat="40.79999017529189586639404296875" lon="-1.724247001111507415771484375">
        <ele>1202.199951171875</ele>
        <time>2022-05-03T11:45:57.000Z</time>
      </trkpt>
      <trkpt lat="40.79999436624348163604736328125" lon="-1.72435521148145198822021484375">
        <ele>1201.800048828125</ele>
        <time>2022-05-03T11:45:59.000Z</time>
      </trkpt>
      <trkpt lat="40.79999528825283050537109375" lon="-1.7244131304323673248291015625">
        <ele>1201.5999755859375</ele>
        <time>2022-05-03T11:46:00.000Z</time>
      </trkpt>
      <trkpt lat="40.799995623528957366943359375" lon="-1.72447264194488525390625">
        <ele>1201.4000244140625</ele>
        <time>2022-05-03T11:46:01.000Z</time>
      </trkpt>
      <trkpt lat="40.79999151639640331268310546875" lon="-1.7245982028543949127197265625">
        <ele>1201</ele>
        <time>2022-05-03T11:46:03.000Z</time>
      </trkpt>
      <trkpt lat="40.7999837212264537811279296875" lon="-1.72473038546741008758544921875">
        <ele>1200.4000244140625</ele>
        <time>2022-05-03T11:46:05.000Z</time>
      </trkpt>
      <trkpt lat="40.7999785244464874267578125" lon="-1.72479794360697269439697265625">
        <ele>1200</ele>
        <time>2022-05-03T11:46:06.000Z</time>
      </trkpt>
      <trkpt lat="40.799970813095569610595703125" lon="-1.72486483119428157806396484375">
        <ele>1199.800048828125</ele>
        <time>2022-05-03T11:46:07.000Z</time>
      </trkpt>
      <trkpt lat="40.799957402050495147705078125" lon="-1.72499860636889934539794921875">
        <ele>1199.4000244140625</ele>
        <time>2022-05-03T11:46:09.000Z</time>
      </trkpt>
      <trkpt lat="40.799941979348659515380859375" lon="-1.72513238154351711273193359375">
        <ele>1199.199951171875</ele>
        <time>2022-05-03T11:46:11.000Z</time>
      </trkpt>
      <trkpt lat="40.79992127604782581329345703125" lon="-1.72526431269943714141845703125">
        <ele>1198.800048828125</ele>
        <time>2022-05-03T11:46:13.000Z</time>
      </trkpt>
      <trkpt lat="40.79990400932729244232177734375" lon="-1.72539867460727691650390625">
        <ele>1198.5999755859375</ele>
        <time>2022-05-03T11:46:15.000Z</time>
      </trkpt>
      <trkpt lat="40.7998895086348056793212890625" lon="-1.72553303651511669158935546875">
        <ele>1198.199951171875</ele>
        <time>2022-05-03T11:46:17.000Z</time>
      </trkpt>
      <trkpt lat="40.79987484030425548553466796875" lon="-1.725664548575878143310546875">
        <ele>1199</ele>
        <time>2022-05-03T11:46:19.000Z</time>
      </trkpt>
      <trkpt lat="40.79985874705016613006591796875" lon="-1.72578935511410236358642578125">
        <ele>1199</ele>
        <time>2022-05-03T11:46:21.000Z</time>
      </trkpt>
      <trkpt lat="40.7998422347009181976318359375" lon="-1.7259104736149311065673828125">
        <ele>1198.5999755859375</ele>
        <time>2022-05-03T11:46:23.000Z</time>
      </trkpt>
      <trkpt lat="40.799825973808765411376953125" lon="-1.726017929613590240478515625">
        <ele>1198.4000244140625</ele>
        <time>2022-05-03T11:46:25.000Z</time>
      </trkpt>
      <trkpt lat="40.7998083718121051788330078125" lon="-1.72612018883228302001953125">
        <ele>1198.199951171875</ele>
        <time>2022-05-03T11:46:27.000Z</time>
      </trkpt>
      <trkpt lat="40.79978632740676403045654296875" lon="-1.7262206040322780609130859375">
        <ele>1197.800048828125</ele>
        <time>2022-05-03T11:46:29.000Z</time>
      </trkpt>
      <trkpt lat="40.79975933767855167388916015625" lon="-1.72631959430873394012451171875">
        <ele>1197.5999755859375</ele>
        <time>2022-05-03T11:46:31.000Z</time>
      </trkpt>
      <trkpt lat="40.7997439987957477569580078125" lon="-1.726368628442287445068359375">
        <ele>1197.4000244140625</ele>
        <time>2022-05-03T11:46:32.000Z</time>
      </trkpt>
      <trkpt lat="40.799728073179721832275390625" lon="-1.7264184169471263885498046875">
        <ele>1197.199951171875</ele>
        <time>2022-05-03T11:46:33.000Z</time>
      </trkpt>
      <trkpt lat="40.79971038736402988433837890625" lon="-1.72646845690906047821044921875">
        <ele>1197</ele>
        <time>2022-05-03T11:46:34.000Z</time>
      </trkpt>
      <trkpt lat="40.7996913604438304901123046875" lon="-1.72651849687099456787109375">
        <ele>1197</ele>
        <time>2022-05-03T11:46:35.000Z</time>
      </trkpt>
      <trkpt lat="40.799649618566036224365234375" lon="-1.72661765478551387786865234375">
        <ele>1197</ele>
        <time>2022-05-03T11:46:37.000Z</time>
      </trkpt>
      <trkpt lat="40.79960770905017852783203125" lon="-1.726717986166477203369140625">
        <ele>1197.4000244140625</ele>
        <time>2022-05-03T11:46:39.000Z</time>
      </trkpt>
      <trkpt lat="40.79956470988690853118896484375" lon="-1.7268168926239013671875">
        <ele>1197.800048828125</ele>
        <time>2022-05-03T11:46:41.000Z</time>
      </trkpt>
      <trkpt lat="40.7995225489139556884765625" lon="-1.7269186489284038543701171875">
        <ele>1198.199951171875</ele>
        <time>2022-05-03T11:46:43.000Z</time>
      </trkpt>
      <trkpt lat="40.7995012588798999786376953125" lon="-1.72697019763290882110595703125">
        <ele>1198.4000244140625</ele>
        <time>2022-05-03T11:46:44.000Z</time>
      </trkpt>
      <trkpt lat="40.79947921447455883026123046875" lon="-1.7270222492516040802001953125">
        <ele>1198.5999755859375</ele>
        <time>2022-05-03T11:46:45.000Z</time>
      </trkpt>
      <trkpt lat="40.7994345389306545257568359375" lon="-1.72712945379316806793212890625">
        <ele>1199</ele>
        <time>2022-05-03T11:46:47.000Z</time>
      </trkpt>
      <trkpt lat="40.79938651062548160552978515625" lon="-1.7272381670773029327392578125">
        <ele>1199.4000244140625</ele>
        <time>2022-05-03T11:46:49.000Z</time>
      </trkpt>
      <trkpt lat="40.79933823086321353912353515625" lon="-1.7273533344268798828125">
        <ele>1199.800048828125</ele>
        <time>2022-05-03T11:46:51.000Z</time>
      </trkpt>
      <trkpt lat="40.7992870174348354339599609375" lon="-1.72746799886226654052734375">
        <ele>1200</ele>
        <time>2022-05-03T11:46:53.000Z</time>
      </trkpt>
      <trkpt lat="40.7992357201874256134033203125" lon="-1.727586351335048675537109375">
        <ele>1200.4000244140625</ele>
        <time>2022-05-03T11:46:55.000Z</time>
      </trkpt>
      <trkpt lat="40.79918249510228633880615234375" lon="-1.72770260833203792572021484375">
        <ele>1200.5999755859375</ele>
        <time>2022-05-03T11:46:57.000Z</time>
      </trkpt>
      <trkpt lat="40.7991542480885982513427734375" lon="-1.72775977291166782379150390625">
        <ele>1200.800048828125</ele>
        <time>2022-05-03T11:46:58.000Z</time>
      </trkpt>
      <trkpt lat="40.7991255819797515869140625" lon="-1.7278160154819488525390625">
        <ele>1200.800048828125</ele>
        <time>2022-05-03T11:46:59.000Z</time>
      </trkpt>
      <trkpt lat="40.799068249762058258056640625" lon="-1.7279221303761005401611328125">
        <ele>1201</ele>
        <time>2022-05-03T11:47:01.000Z</time>
      </trkpt>
      <trkpt lat="40.7990097440779209136962890625" lon="-1.7280257306993007659912109375">
        <ele>1201</ele>
        <time>2022-05-03T11:47:03.000Z</time>
      </trkpt>
      <trkpt lat="40.7989483885467052459716796875" lon="-1.7281259782612323760986328125">
        <ele>1201.199951171875</ele>
        <time>2022-05-03T11:47:05.000Z</time>
      </trkpt>
      <trkpt lat="40.79891779460012912750244140625" lon="-1.728177107870578765869140625">
        <ele>1201.199951171875</ele>
        <time>2022-05-03T11:47:06.000Z</time>
      </trkpt>
      <trkpt lat="40.7988870330154895782470703125" lon="-1.72823016531765460968017578125">
        <ele>1201.199951171875</ele>
        <time>2022-05-03T11:47:07.000Z</time>
      </trkpt>
      <trkpt lat="40.798826515674591064453125" lon="-1.72833795659244060516357421875">
        <ele>1200.800048828125</ele>
        <time>2022-05-03T11:47:09.000Z</time>
      </trkpt>
      <trkpt lat="40.79876692034304141998291015625" lon="-1.728450022637844085693359375">
        <ele>1200.4000244140625</ele>
        <time>2022-05-03T11:47:11.000Z</time>
      </trkpt>
      <trkpt lat="40.7987361587584018707275390625" lon="-1.72850945033133029937744140625">
        <ele>1200.4000244140625</ele>
        <time>2022-05-03T11:47:12.000Z</time>
      </trkpt>
      <trkpt lat="40.79870640300214290618896484375" lon="-1.7285729013383388519287109375">
        <ele>1200.199951171875</ele>
        <time>2022-05-03T11:47:13.000Z</time>
      </trkpt>
      <trkpt lat="40.7986798323690891265869140625" lon="-1.7286386154592037200927734375">
        <ele>1200.199951171875</ele>
        <time>2022-05-03T11:47:14.000Z</time>
      </trkpt>
      <trkpt lat="40.79865393228828907012939453125" lon="-1.7287053354084491729736328125">
        <ele>1200</ele>
        <time>2022-05-03T11:47:15.000Z</time>
      </trkpt>
      <trkpt lat="40.79860799945890903472900390625" lon="-1.7288433015346527099609375">
        <ele>1200</ele>
        <time>2022-05-03T11:47:17.000Z</time>
      </trkpt>
      <trkpt lat="40.7985872961580753326416015625" lon="-1.728911362588405609130859375">
        <ele>1200</ele>
        <time>2022-05-03T11:47:18.000Z</time>
      </trkpt>
      <trkpt lat="40.79856910742819309234619140625" lon="-1.72897615469992160797119140625">
        <ele>1200</ele>
        <time>2022-05-03T11:47:19.000Z</time>
      </trkpt>
      <trkpt lat="40.79853574745357036590576171875" lon="-1.72910506837069988250732421875">
        <ele>1199.800048828125</ele>
        <time>2022-05-03T11:47:21.000Z</time>
      </trkpt>
      <trkpt lat="40.79851697199046611785888671875" lon="-1.72917078249156475067138671875">
        <ele>1199.5999755859375</ele>
        <time>2022-05-03T11:47:22.000Z</time>
      </trkpt>
      <trkpt lat="40.79849668778479099273681640625" lon="-1.72923691570758819580078125">
        <ele>1199.4000244140625</ele>
        <time>2022-05-03T11:47:23.000Z</time>
      </trkpt>
      <trkpt lat="40.79845570027828216552734375" lon="-1.729369349777698516845703125">
        <ele>1198.800048828125</ele>
        <time>2022-05-03T11:47:25.000Z</time>
      </trkpt>
      <trkpt lat="40.79841420985758304595947265625" lon="-1.72948761843144893646240234375">
        <ele>1198.4000244140625</ele>
        <time>2022-05-03T11:47:27.000Z</time>
      </trkpt>
      <trkpt lat="40.79837582074105739593505859375" lon="-1.7295964993536472320556640625">
        <ele>1198.199951171875</ele>
        <time>2022-05-03T11:47:29.000Z</time>
      </trkpt>
      <trkpt lat="40.79836090095341205596923828125" lon="-1.729648299515247344970703125">
        <ele>1198.199951171875</ele>
        <time>2022-05-03T11:47:30.000Z</time>
      </trkpt>
      <trkpt lat="40.79834883101284503936767578125" lon="-1.72969481907784938812255859375">
        <ele>1198.199951171875</ele>
        <time>2022-05-03T11:47:31.000Z</time>
      </trkpt>
      <trkpt lat="40.79832184128463268280029296875" lon="-1.7297859303653240203857421875">
        <ele>1198.199951171875</ele>
        <time>2022-05-03T11:47:33.000Z</time>
      </trkpt>
      <trkpt lat="40.7982972823083400726318359375" lon="-1.72988575883209705352783203125">
        <ele>1198.199951171875</ele>
        <time>2022-05-03T11:47:35.000Z</time>
      </trkpt>
      <trkpt lat="40.79827196896076202392578125" lon="-1.7299927957355976104736328125">
        <ele>1197.800048828125</ele>
        <time>2022-05-03T11:47:37.000Z</time>
      </trkpt>
      <trkpt lat="40.798248164355754852294921875" lon="-1.73010452650487422943115234375">
        <ele>1197.5999755859375</ele>
        <time>2022-05-03T11:47:39.000Z</time>
      </trkpt>
      <trkpt lat="40.79823332838714122772216796875" lon="-1.73016303218901157379150390625">
        <ele>1197.4000244140625</ele>
        <time>2022-05-03T11:47:40.000Z</time>
      </trkpt>
      <trkpt lat="40.79821606166660785675048828125" lon="-1.73022103495895862579345703125">
        <ele>1197.199951171875</ele>
        <time>2022-05-03T11:47:41.000Z</time>
      </trkpt>
      <trkpt lat="40.79819795675575733184814453125" lon="-1.73028004355728626251220703125">
        <ele>1197</ele>
        <time>2022-05-03T11:47:42.000Z</time>
      </trkpt>
      <trkpt lat="40.798179097473621368408203125" lon="-1.73034072853624820709228515625">
        <ele>1196.800048828125</ele>
        <time>2022-05-03T11:47:43.000Z</time>
      </trkpt>
      <trkpt lat="40.7981604896485805511474609375" lon="-1.73040325753390789031982421875">
        <ele>1196.4000244140625</ele>
        <time>2022-05-03T11:47:44.000Z</time>
      </trkpt>
      <trkpt lat="40.7981423847377300262451171875" lon="-1.73046679235994815826416015625">
        <ele>1196.199951171875</ele>
        <time>2022-05-03T11:47:45.000Z</time>
      </trkpt>
      <trkpt lat="40.79810743220150470733642578125" lon="-1.7305939458310604095458984375">
        <ele>1195.800048828125</ele>
        <time>2022-05-03T11:47:47.000Z</time>
      </trkpt>
      <trkpt lat="40.7980756647884845733642578125" lon="-1.7307179979979991912841796875">
        <ele>1195.4000244140625</ele>
        <time>2022-05-03T11:47:49.000Z</time>
      </trkpt>
      <trkpt lat="40.7980434782803058624267578125" lon="-1.73083106987178325653076171875">
        <ele>1195.199951171875</ele>
        <time>2022-05-03T11:47:51.000Z</time>
      </trkpt>
      <trkpt lat="40.79801305197179317474365234375" lon="-1.73092938959598541259765625">
        <ele>1195</ele>
        <time>2022-05-03T11:47:53.000Z</time>
      </trkpt>
      <trkpt lat="40.798007436096668243408203125" lon="-1.7310267873108386993408203125">
        <ele>1195.199951171875</ele>
        <time>2022-05-03T11:47:55.000Z</time>
      </trkpt>
      <trkpt lat="40.7980285584926605224609375" lon="-1.73111437819898128509521484375">
        <ele>1195.4000244140625</ele>
        <time>2022-05-03T11:47:57.000Z</time>
      </trkpt>
      <trkpt lat="40.79806267283856868743896484375" lon="-1.7311867140233516693115234375">
        <ele>1195.800048828125</ele>
        <time>2022-05-03T11:47:59.000Z</time>
      </trkpt>
      <trkpt lat="40.79810592345893383026123046875" lon="-1.73124245367944240570068359375">
        <ele>1196.5999755859375</ele>
        <time>2022-05-03T11:48:01.000Z</time>
      </trkpt>
      <trkpt lat="40.79812972806394100189208984375" lon="-1.73126910813152790069580078125">
        <ele>1197.199951171875</ele>
        <time>2022-05-03T11:48:02.000Z</time>
      </trkpt>
      <trkpt lat="40.798155628144741058349609375" lon="-1.73129777424037456512451171875">
        <ele>1197.5999755859375</ele>
        <time>2022-05-03T11:48:03.000Z</time>
      </trkpt>
      <trkpt lat="40.798211283981800079345703125" lon="-1.73135929740965366363525390625">
        <ele>1198.5999755859375</ele>
        <time>2022-05-03T11:48:05.000Z</time>
      </trkpt>
      <trkpt lat="40.7982597313821315765380859375" lon="-1.73142828047275543212890625">
        <ele>1199.4000244140625</ele>
        <time>2022-05-03T11:48:07.000Z</time>
      </trkpt>
      <trkpt lat="40.79830088652670383453369140625" lon="-1.73150111921131610870361328125">
        <ele>1200</ele>
        <time>2022-05-03T11:48:09.000Z</time>
      </trkpt>
      <trkpt lat="40.7983301393687725067138671875" lon="-1.73158359713852405548095703125">
        <ele>1200.4000244140625</ele>
        <time>2022-05-03T11:48:11.000Z</time>
      </trkpt>
      <trkpt lat="40.79835050739347934722900390625" lon="-1.731672696769237518310546875">
        <ele>1200.5999755859375</ele>
        <time>2022-05-03T11:48:13.000Z</time>
      </trkpt>
      <trkpt lat="40.7983666844666004180908203125" lon="-1.73175877891480922698974609375">
        <ele>1200.5999755859375</ele>
        <time>2022-05-03T11:48:15.000Z</time>
      </trkpt>
      <trkpt lat="40.79837330617010593414306640625" lon="-1.73180110752582550048828125">
        <ele>1200.800048828125</ele>
        <time>2022-05-03T11:48:16.000Z</time>
      </trkpt>
      <trkpt lat="40.79837800003588199615478515625" lon="-1.73184393905103206634521484375">
        <ele>1200.800048828125</ele>
        <time>2022-05-03T11:48:17.000Z</time>
      </trkpt>
      <trkpt lat="40.79838554374873638153076171875" lon="-1.73193119466304779052734375">
        <ele>1200.800048828125</ele>
        <time>2022-05-03T11:48:19.000Z</time>
      </trkpt>
      <trkpt lat="40.79839400947093963623046875" lon="-1.7320151813328266143798828125">
        <ele>1200.800048828125</ele>
        <time>2022-05-03T11:48:21.000Z</time>
      </trkpt>
      <trkpt lat="40.79840884543955326080322265625" lon="-1.73209724016487598419189453125">
        <ele>1201.199951171875</ele>
        <time>2022-05-03T11:48:23.000Z</time>
      </trkpt>
      <trkpt lat="40.7984179817140102386474609375" lon="-1.73213864676654338836669921875">
        <ele>1201.5999755859375</ele>
        <time>2022-05-03T11:48:24.000Z</time>
      </trkpt>
      <trkpt lat="40.79842493869364261627197265625" lon="-1.732181645929813385009765625">
        <ele>1201.800048828125</ele>
        <time>2022-05-03T11:48:25.000Z</time>
      </trkpt>
      <trkpt lat="40.79843399114906787872314453125" lon="-1.73227258957922458648681640625">
        <ele>1202.199951171875</ele>
        <time>2022-05-03T11:48:27.000Z</time>
      </trkpt>
      <trkpt lat="40.7984441332519054412841796875" lon="-1.7323631979525089263916015625">
        <ele>1202.5999755859375</ele>
        <time>2022-05-03T11:48:29.000Z</time>
      </trkpt>
      <trkpt lat="40.79845142550766468048095703125" lon="-1.73245565034449100494384765625">
        <ele>1202.800048828125</ele>
        <time>2022-05-03T11:48:31.000Z</time>
      </trkpt>
      <trkpt lat="40.7984541915357112884521484375" lon="-1.73250309191644191741943359375">
        <ele>1202.800048828125</ele>
        <time>2022-05-03T11:48:32.000Z</time>
      </trkpt>
      <trkpt lat="40.79845578409731388092041015625" lon="-1.73255070112645626068115234375">
        <ele>1202.800048828125</ele>
        <time>2022-05-03T11:48:33.000Z</time>
      </trkpt>
      <trkpt lat="40.79845712520182132720947265625" lon="-1.73264977522194385528564453125">
        <ele>1202.800048828125</ele>
        <time>2022-05-03T11:48:35.000Z</time>
      </trkpt>
      <trkpt lat="40.7984508387744426727294921875" lon="-1.7327658645808696746826171875">
        <ele>1202.5999755859375</ele>
        <time>2022-05-03T11:48:37.000Z</time>
      </trkpt>
      <trkpt lat="40.79844857566058635711669921875" lon="-1.73290139995515346527099609375">
        <ele>1202</ele>
        <time>2022-05-03T11:48:39.000Z</time>
      </trkpt>
      <trkpt lat="40.798464752733707427978515625" lon="-1.7330441437661647796630859375">
        <ele>1201.199951171875</ele>
        <time>2022-05-03T11:48:41.000Z</time>
      </trkpt>
      <trkpt lat="40.798506326973438262939453125" lon="-1.73317548818886280059814453125">
        <ele>1200.5999755859375</ele>
        <time>2022-05-03T11:48:43.000Z</time>
      </trkpt>
      <trkpt lat="40.79855368472635746002197265625" lon="-1.7332915775477886199951171875">
        <ele>1201</ele>
        <time>2022-05-03T11:48:45.000Z</time>
      </trkpt>
      <trkpt lat="40.79859785735607147216796875" lon="-1.73338872380554676055908203125">
        <ele>1201.5999755859375</ele>
        <time>2022-05-03T11:48:47.000Z</time>
      </trkpt>
      <trkpt lat="40.79864068888127803802490234375" lon="-1.73347773961722850799560546875">
        <ele>1201.800048828125</ele>
        <time>2022-05-03T11:48:49.000Z</time>
      </trkpt>
      <trkpt lat="40.7986805029213428497314453125" lon="-1.733567677438259124755859375">
        <ele>1201.199951171875</ele>
        <time>2022-05-03T11:48:51.000Z</time>
      </trkpt>
      <trkpt lat="40.79871813766658306121826171875" lon="-1.73366281203925609588623046875">
        <ele>1200.5999755859375</ele>
        <time>2022-05-03T11:48:53.000Z</time>
      </trkpt>
      <trkpt lat="40.798761136829853057861328125" lon="-1.73375350423157215118408203125">
        <ele>1200</ele>
        <time>2022-05-03T11:48:55.000Z</time>
      </trkpt>
      <trkpt lat="40.798804052174091339111328125" lon="-1.73384436406195163726806640625">
        <ele>1199.4000244140625</ele>
        <time>2022-05-03T11:48:57.000Z</time>
      </trkpt>
      <trkpt lat="40.798846296966075897216796875" lon="-1.73393287695944309234619140625">
        <ele>1198.800048828125</ele>
        <time>2022-05-03T11:48:59.000Z</time>
      </trkpt>
      <trkpt lat="40.79888694919645786285400390625" lon="-1.7340181209146976470947265625">
        <ele>1198.199951171875</ele>
        <time>2022-05-03T11:49:01.000Z</time>
      </trkpt>
      <trkpt lat="40.79892508685588836669921875" lon="-1.73410051502287387847900390625">
        <ele>1198.800048828125</ele>
        <time>2022-05-03T11:49:03.000Z</time>
      </trkpt>
      <trkpt lat="40.7989601232111454010009765625" lon="-1.73417888581752777099609375">
        <ele>1199.4000244140625</ele>
        <time>2022-05-03T11:49:05.000Z</time>
      </trkpt>
      <trkpt lat="40.7989782281219959259033203125" lon="-1.73421702347695827484130859375">
        <ele>1199.800048828125</ele>
        <time>2022-05-03T11:49:06.000Z</time>
      </trkpt>
      <trkpt lat="40.79899624921381473541259765625" lon="-1.73425474204123020172119140625">
        <ele>1200.199951171875</ele>
        <time>2022-05-03T11:49:07.000Z</time>
      </trkpt>
      <trkpt lat="40.79901359975337982177734375" lon="-1.73429179005324840545654296875">
        <ele>1200.4000244140625</ele>
        <time>2022-05-03T11:49:08.000Z</time>
      </trkpt>
      <trkpt lat="40.79903078265488147735595703125" lon="-1.73432783223688602447509765625">
        <ele>1200.800048828125</ele>
        <time>2022-05-03T11:49:09.000Z</time>
      </trkpt>
      <trkpt lat="40.79906590282917022705078125" lon="-1.7344008386135101318359375">
        <ele>1201.5999755859375</ele>
        <time>2022-05-03T11:49:11.000Z</time>
      </trkpt>
      <trkpt lat="40.7991016097366809844970703125" lon="-1.73447267152369022369384765625">
        <ele>1202.199951171875</ele>
        <time>2022-05-03T11:49:13.000Z</time>
      </trkpt>
      <trkpt lat="40.79913388006389141082763671875" lon="-1.7345434986054897308349609375">
        <ele>1202.800048828125</ele>
        <time>2022-05-03T11:49:15.000Z</time>
      </trkpt>
      <trkpt lat="40.79916422255337238311767578125" lon="-1.73461080528795719146728515625">
        <ele>1203.199951171875</ele>
        <time>2022-05-03T11:49:17.000Z</time>
      </trkpt>
      <trkpt lat="40.7991817407310009002685546875" lon="-1.73464131541550159454345703125">
        <ele>1203.4000244140625</ele>
        <time>2022-05-03T11:49:18.000Z</time>
      </trkpt>
      <trkpt lat="40.7991998456418514251708984375" lon="-1.7346712388098239898681640625">
        <ele>1203.4000244140625</ele>
        <time>2022-05-03T11:49:19.000Z</time>
      </trkpt>
      <trkpt lat="40.7992367260158061981201171875" lon="-1.7347312532365322113037109375">
        <ele>1203.5999755859375</ele>
        <time>2022-05-03T11:49:21.000Z</time>
      </trkpt>
      <trkpt lat="40.7992749474942684173583984375" lon="-1.734792105853557586669921875">
        <ele>1203.5999755859375</ele>
        <time>2022-05-03T11:49:23.000Z</time>
      </trkpt>
      <trkpt lat="40.79931375570595264434814453125" lon="-1.73485270701348781585693359375">
        <ele>1203.800048828125</ele>
        <time>2022-05-03T11:49:25.000Z</time>
      </trkpt>
      <trkpt lat="40.79935214482247829437255859375" lon="-1.73491456545889377593994140625">
        <ele>1204.5999755859375</ele>
        <time>2022-05-03T11:49:27.000Z</time>
      </trkpt>
      <trkpt lat="40.79937192611396312713623046875" lon="-1.73494474031031131744384765625">
        <ele>1205</ele>
        <time>2022-05-03T11:49:28.000Z</time>
      </trkpt>
      <trkpt lat="40.79939237795770168304443359375" lon="-1.73497390933334827423095703125">
        <ele>1205.5999755859375</ele>
        <time>2022-05-03T11:49:29.000Z</time>
      </trkpt>
      <trkpt lat="40.799412913620471954345703125" lon="-1.73500391654670238494873046875">
        <ele>1206</ele>
        <time>2022-05-03T11:49:30.000Z</time>
      </trkpt>
      <trkpt lat="40.799432359635829925537109375" lon="-1.73503409139811992645263671875">
        <ele>1206.5999755859375</ele>
        <time>2022-05-03T11:49:31.000Z</time>
      </trkpt>
      <trkpt lat="40.79946915619075298309326171875" lon="-1.73509561456739902496337890625">
        <ele>1207.5999755859375</ele>
        <time>2022-05-03T11:49:33.000Z</time>
      </trkpt>
      <trkpt lat="40.79950519837439060211181640625" lon="-1.73515520989894866943359375">
        <ele>1207.5999755859375</ele>
        <time>2022-05-03T11:49:35.000Z</time>
      </trkpt>
      <trkpt lat="40.7995398156344890594482421875" lon="-1.73521019518375396728515625">
        <ele>1207.4000244140625</ele>
        <time>2022-05-03T11:49:37.000Z</time>
      </trkpt>
      <trkpt lat="40.7995574176311492919921875" lon="-1.7352365143597126007080078125">
        <ele>1207.199951171875</ele>
        <time>2022-05-03T11:49:38.000Z</time>
      </trkpt>
      <trkpt lat="40.79957845620810985565185546875" lon="-1.73525872640311717987060546875">
        <ele>1207.199951171875</ele>
        <time>2022-05-03T11:49:39.000Z</time>
      </trkpt>
      <trkpt lat="40.799615085124969482421875" lon="-1.73530566506087779998779296875">
        <ele>1207</ele>
        <time>2022-05-03T11:49:41.000Z</time>
      </trkpt>
      <trkpt lat="40.79964500851929187774658203125" lon="-1.73535478301346302032470703125">
        <ele>1206.5999755859375</ele>
        <time>2022-05-03T11:49:43.000Z</time>
      </trkpt>
      <trkpt lat="40.7996739260852336883544921875" lon="-1.7354088462889194488525390625">
        <ele>1206.4000244140625</ele>
        <time>2022-05-03T11:49:45.000Z</time>
      </trkpt>
      <trkpt lat="40.7996893487870693206787109375" lon="-1.735432483255863189697265625">
        <ele>1206.4000244140625</ele>
        <time>2022-05-03T11:49:46.000Z</time>
      </trkpt>
      <trkpt lat="40.7997034303843975067138671875" lon="-1.73545570112764835357666015625">
        <ele>1206.199951171875</ele>
        <time>2022-05-03T11:49:47.000Z</time>
      </trkpt>
      <trkpt lat="40.79973352141678333282470703125" lon="-1.73550146631896495819091796875">
        <ele>1206.199951171875</ele>
        <time>2022-05-03T11:49:49.000Z</time>
      </trkpt>
      <trkpt lat="40.79976285807788372039794921875" lon="-1.73554949462413787841796875">
        <ele>1206.199951171875</ele>
        <time>2022-05-03T11:49:51.000Z</time>
      </trkpt>
      <trkpt lat="40.7997907698154449462890625" lon="-1.7355976067483425140380859375">
        <ele>1206.4000244140625</ele>
        <time>2022-05-03T11:49:53.000Z</time>
      </trkpt>
      <trkpt lat="40.7998177595436573028564453125" lon="-1.7356515862047672271728515625">
        <ele>1206.800048828125</ele>
        <time>2022-05-03T11:49:55.000Z</time>
      </trkpt>
      <trkpt lat="40.79984650947153568267822265625" lon="-1.73570506274700164794921875">
        <ele>1207.4000244140625</ele>
        <time>2022-05-03T11:49:57.000Z</time>
      </trkpt>
      <trkpt lat="40.79987333156168460845947265625" lon="-1.73575527034699916839599609375">
        <ele>1208.5999755859375</ele>
        <time>2022-05-03T11:49:59.000Z</time>
      </trkpt>
      <trkpt lat="40.7998985610902309417724609375" lon="-1.73580472357571125030517578125">
        <ele>1209.5999755859375</ele>
        <time>2022-05-03T11:50:01.000Z</time>
      </trkpt>
      <trkpt lat="40.79992312006652355194091796875" lon="-1.73585216514766216278076171875">
        <ele>1210.800048828125</ele>
        <time>2022-05-03T11:50:03.000Z</time>
      </trkpt>
      <trkpt lat="40.79993653111159801483154296875" lon="-1.73587429337203502655029296875">
        <ele>1211.4000244140625</ele>
        <time>2022-05-03T11:50:04.000Z</time>
      </trkpt>
      <trkpt lat="40.79994969069957733154296875" lon="-1.73589608632028102874755859375">
        <ele>1212</ele>
        <time>2022-05-03T11:50:05.000Z</time>
      </trkpt>
      <trkpt lat="40.799972824752330780029296875" lon="-1.73594176769256591796875">
        <ele>1213</ele>
        <time>2022-05-03T11:50:07.000Z</time>
      </trkpt>
      <trkpt lat="40.7999999821186065673828125" lon="-1.73598241992294788360595703125">
        <ele>1214</ele>
        <time>2022-05-03T11:50:09.000Z</time>
      </trkpt>
      <trkpt lat="40.80001146532595157623291015625" lon="-1.7360036261379718780517578125">
        <ele>1214.5999755859375</ele>
        <time>2022-05-03T11:50:10.000Z</time>
      </trkpt>
      <trkpt lat="40.8000209368765354156494140625" lon="-1.73602567054331302642822265625">
        <ele>1215</ele>
        <time>2022-05-03T11:50:11.000Z</time>
      </trkpt>
      <trkpt lat="40.8000306598842144012451171875" lon="-1.7360472120344638824462890625">
        <ele>1215.5999755859375</ele>
        <time>2022-05-03T11:50:12.000Z</time>
      </trkpt>
      <trkpt lat="40.8000407181680202484130859375" lon="-1.7360683344304561614990234375">
        <ele>1216</ele>
        <time>2022-05-03T11:50:13.000Z</time>
      </trkpt>
      <trkpt lat="40.80006209202110767364501953125" lon="-1.736110411584377288818359375">
        <ele>1217</ele>
        <time>2022-05-03T11:50:15.000Z</time>
      </trkpt>
      <trkpt lat="40.800073407590389251708984375" lon="-1.73612927086651325225830078125">
        <ele>1217.5999755859375</ele>
        <time>2022-05-03T11:50:16.000Z</time>
      </trkpt>
      <trkpt lat="40.800086148083209991455078125" lon="-1.73614787869155406951904296875">
        <ele>1218</ele>
        <time>2022-05-03T11:50:17.000Z</time>
      </trkpt>
      <trkpt lat="40.80010953359305858612060546875" lon="-1.73618316650390625">
        <ele>1218.5999755859375</ele>
        <time>2022-05-03T11:50:19.000Z</time>
      </trkpt>
      <trkpt lat="40.80012043006718158721923828125" lon="-1.7362004332244396209716796875">
        <ele>1218.5999755859375</ele>
        <time>2022-05-03T11:50:20.000Z</time>
      </trkpt>
      <trkpt lat="40.80013015307486057281494140625" lon="-1.73622013069689273834228515625">
        <ele>1218.800048828125</ele>
        <time>2022-05-03T11:50:21.000Z</time>
      </trkpt>
      <trkpt lat="40.80015043728053569793701171875" lon="-1.7362582683563232421875">
        <ele>1219</ele>
        <time>2022-05-03T11:50:23.000Z</time>
      </trkpt>
      <trkpt lat="40.8001609146595001220703125" lon="-1.73627578653395175933837890625">
        <ele>1219</ele>
        <time>2022-05-03T11:50:24.000Z</time>
      </trkpt>
      <trkpt lat="40.80017155967652797698974609375" lon="-1.73629271797835826873779296875">
        <ele>1219.199951171875</ele>
        <time>2022-05-03T11:50:25.000Z</time>
      </trkpt>
      <trkpt lat="40.80019335262477397918701171875" lon="-1.73632373102009296417236328125">
        <ele>1219.4000244140625</ele>
        <time>2022-05-03T11:50:27.000Z</time>
      </trkpt>
      <trkpt lat="40.80021883361041545867919921875" lon="-1.7363496311008930206298828125">
        <ele>1219.5999755859375</ele>
        <time>2022-05-03T11:50:29.000Z</time>
      </trkpt>
      <trkpt lat="40.8002445660531520843505859375" lon="-1.73637737520039081573486328125">
        <ele>1219.800048828125</ele>
        <time>2022-05-03T11:50:31.000Z</time>
      </trkpt>
      <trkpt lat="40.80026619136333465576171875" lon="-1.7364089749753475189208984375">
        <ele>1220</ele>
        <time>2022-05-03T11:50:33.000Z</time>
      </trkpt>
      <trkpt lat="40.80028806813061237335205078125" lon="-1.73644174821674823760986328125">
        <ele>1220.199951171875</ele>
        <time>2022-05-03T11:50:35.000Z</time>
      </trkpt>
      <trkpt lat="40.80031153745949268341064453125" lon="-1.73647309653460979461669921875">
        <ele>1220.4000244140625</ele>
        <time>2022-05-03T11:50:37.000Z</time>
      </trkpt>
      <trkpt lat="40.80033701844513416290283203125" lon="-1.7365075461566448211669921875">
        <ele>1220.5999755859375</ele>
        <time>2022-05-03T11:50:39.000Z</time>
      </trkpt>
      <trkpt lat="40.8003620803356170654296875" lon="-1.73653788864612579345703125">
        <ele>1220.800048828125</ele>
        <time>2022-05-03T11:50:41.000Z</time>
      </trkpt>
      <trkpt lat="40.80038513056933879852294921875" lon="-1.73657150007784366607666015625">
        <ele>1221.4000244140625</ele>
        <time>2022-05-03T11:50:43.000Z</time>
      </trkpt>
      <trkpt lat="40.80039854161441326141357421875" lon="-1.73658759333193302154541015625">
        <ele>1221.5999755859375</ele>
        <time>2022-05-03T11:50:44.000Z</time>
      </trkpt>
      <trkpt lat="40.80041228793561458587646484375" lon="-1.73660268075764179229736328125">
        <ele>1221.800048828125</ele>
        <time>2022-05-03T11:50:45.000Z</time>
      </trkpt>
      <trkpt lat="40.800438858568668365478515625" lon="-1.7366349510848522186279296875">
        <ele>1222.199951171875</ele>
        <time>2022-05-03T11:50:47.000Z</time>
      </trkpt>
      <trkpt lat="40.8004514314234256744384765625" lon="-1.73665096051990985870361328125">
        <ele>1222.4000244140625</ele>
        <time>2022-05-03T11:50:48.000Z</time>
      </trkpt>
      <trkpt lat="40.80046358518302440643310546875" lon="-1.7366673052310943603515625">
        <ele>1222.199951171875</ele>
        <time>2022-05-03T11:50:49.000Z</time>
      </trkpt>
      <trkpt lat="40.80049225129187107086181640625" lon="-1.73669907264411449432373046875">
        <ele>1222</ele>
        <time>2022-05-03T11:50:51.000Z</time>
      </trkpt>
      <trkpt lat="40.800523348152637481689453125" lon="-1.73673528246581554412841796875">
        <ele>1221.5999755859375</ele>
        <time>2022-05-03T11:50:53.000Z</time>
      </trkpt>
      <trkpt lat="40.80055360682308673858642578125" lon="-1.73677300103008747100830078125">
        <ele>1221.4000244140625</ele>
        <time>2022-05-03T11:50:55.000Z</time>
      </trkpt>
      <trkpt lat="40.800587721168994903564453125" lon="-1.73681172542273998260498046875">
        <ele>1221.800048828125</ele>
        <time>2022-05-03T11:50:57.000Z</time>
      </trkpt>
      <trkpt lat="40.8006257750093936920166015625" lon="-1.73685497604310512542724609375">
        <ele>1222.199951171875</ele>
        <time>2022-05-03T11:50:59.000Z</time>
      </trkpt>
      <trkpt lat="40.8006639964878559112548828125" lon="-1.73690359108150005340576171875">
        <ele>1222.4000244140625</ele>
        <time>2022-05-03T11:51:01.000Z</time>
      </trkpt>
      <trkpt lat="40.80070364288985729217529296875" lon="-1.736951954662799835205078125">
        <ele>1222.800048828125</ele>
        <time>2022-05-03T11:51:03.000Z</time>
      </trkpt>
      <trkpt lat="40.800740607082843780517578125" lon="-1.737001575529575347900390625">
        <ele>1223.199951171875</ele>
        <time>2022-05-03T11:51:05.000Z</time>
      </trkpt>
      <trkpt lat="40.800757370889186859130859375" lon="-1.73702730797231197357177734375">
        <ele>1223.4000244140625</ele>
        <time>2022-05-03T11:51:06.000Z</time>
      </trkpt>
      <trkpt lat="40.8007736317813396453857421875" lon="-1.7370537109673023223876953125">
        <ele>1223.4000244140625</ele>
        <time>2022-05-03T11:51:07.000Z</time>
      </trkpt>
      <trkpt lat="40.80080397427082061767578125" lon="-1.73710542730987071990966796875">
        <ele>1223.5999755859375</ele>
        <time>2022-05-03T11:51:09.000Z</time>
      </trkpt>
      <trkpt lat="40.80082970671355724334716796875" lon="-1.73715990968048572540283203125">
        <ele>1224</ele>
        <time>2022-05-03T11:51:11.000Z</time>
      </trkpt>
      <trkpt lat="40.8008413575589656829833984375" lon="-1.7371905036270618438720703125">
        <ele>1224.199951171875</ele>
        <time>2022-05-03T11:51:12.000Z</time>
      </trkpt>
      <trkpt lat="40.8008515834808349609375" lon="-1.73722143284976482391357421875">
        <ele>1224.4000244140625</ele>
        <time>2022-05-03T11:51:13.000Z</time>
      </trkpt>
      <trkpt lat="40.80086809583008289337158203125" lon="-1.7372850514948368072509765625">
        <ele>1224.5999755859375</ele>
        <time>2022-05-03T11:51:15.000Z</time>
      </trkpt>
      <trkpt lat="40.80088519491255283355712890625" lon="-1.73734799958765506744384765625">
        <ele>1224.800048828125</ele>
        <time>2022-05-03T11:51:17.000Z</time>
      </trkpt>
      <trkpt lat="40.8009013719856739044189453125" lon="-1.7374121211469173431396484375">
        <ele>1225</ele>
        <time>2022-05-03T11:51:19.000Z</time>
      </trkpt>
      <trkpt lat="40.80090992152690887451171875" lon="-1.7374451458454132080078125">
        <ele>1225</ele>
        <time>2022-05-03T11:51:20.000Z</time>
      </trkpt>
      <trkpt lat="40.80091939307749271392822265625" lon="-1.73747724853456020355224609375">
        <ele>1225</ele>
        <time>2022-05-03T11:51:21.000Z</time>
      </trkpt>
      <trkpt lat="40.80093565396964550018310546875" lon="-1.73754145391285419464111328125">
        <ele>1225.199951171875</ele>
        <time>2022-05-03T11:51:23.000Z</time>
      </trkpt>
      <trkpt lat="40.8009489811956882476806640625" lon="-1.7376059107482433319091796875">
        <ele>1225.199951171875</ele>
        <time>2022-05-03T11:51:25.000Z</time>
      </trkpt>
      <trkpt lat="40.80096222460269927978515625" lon="-1.737672127783298492431640625">
        <ele>1225.199951171875</ele>
        <time>2022-05-03T11:51:27.000Z</time>
      </trkpt>
      <trkpt lat="40.80097563564777374267578125" lon="-1.73774044029414653778076171875">
        <ele>1225.199951171875</ele>
        <time>2022-05-03T11:51:29.000Z</time>
      </trkpt>
      <trkpt lat="40.80098963342607021331787109375" lon="-1.73781151883304119110107421875">
        <ele>1225.4000244140625</ele>
        <time>2022-05-03T11:51:31.000Z</time>
      </trkpt>
      <trkpt lat="40.80100857652723789215087890625" lon="-1.73788108862936496734619140625">
        <ele>1225.5999755859375</ele>
        <time>2022-05-03T11:51:33.000Z</time>
      </trkpt>
      <trkpt lat="40.801025591790676116943359375" lon="-1.73794982023537158966064453125">
        <ele>1226</ele>
        <time>2022-05-03T11:51:35.000Z</time>
      </trkpt>
      <trkpt lat="40.8010384999215602874755859375" lon="-1.7380199767649173736572265625">
        <ele>1226.199951171875</ele>
        <time>2022-05-03T11:51:37.000Z</time>
      </trkpt>
      <trkpt lat="40.80105082131922245025634765625" lon="-1.738093905150890350341796875">
        <ele>1226.4000244140625</ele>
        <time>2022-05-03T11:51:39.000Z</time>
      </trkpt>
      <trkpt lat="40.8010661602020263671875" lon="-1.73816724680364131927490234375">
        <ele>1226.5999755859375</ele>
        <time>2022-05-03T11:51:41.000Z</time>
      </trkpt>
      <trkpt lat="40.80108015798032283782958984375" lon="-1.73823547549545764923095703125">
        <ele>1227</ele>
        <time>2022-05-03T11:51:43.000Z</time>
      </trkpt>
      <trkpt lat="40.801093317568302154541015625" lon="-1.738303788006305694580078125">
        <ele>1227.5999755859375</ele>
        <time>2022-05-03T11:51:45.000Z</time>
      </trkpt>
      <trkpt lat="40.801107399165630340576171875" lon="-1.73837210051715373992919921875">
        <ele>1228.199951171875</ele>
        <time>2022-05-03T11:51:47.000Z</time>
      </trkpt>
      <trkpt lat="40.8011223189532756805419921875" lon="-1.73844032920897006988525390625">
        <ele>1228.800048828125</ele>
        <time>2022-05-03T11:51:49.000Z</time>
      </trkpt>
      <trkpt lat="40.80113413743674755096435546875" lon="-1.7385078035295009613037109375">
        <ele>1228.800048828125</ele>
        <time>2022-05-03T11:51:51.000Z</time>
      </trkpt>
      <trkpt lat="40.8011474646627902984619140625" lon="-1.73857460729777812957763671875">
        <ele>1228.5999755859375</ele>
        <time>2022-05-03T11:51:53.000Z</time>
      </trkpt>
      <trkpt lat="40.80116062425076961517333984375" lon="-1.7386419139802455902099609375">
        <ele>1228.5999755859375</ele>
        <time>2022-05-03T11:51:55.000Z</time>
      </trkpt>
      <trkpt lat="40.801173113286495208740234375" lon="-1.73870771192014217376708984375">
        <ele>1228.4000244140625</ele>
        <time>2022-05-03T11:51:57.000Z</time>
      </trkpt>
      <trkpt lat="40.80118744634091854095458984375" lon="-1.7387736774981021881103515625">
        <ele>1228.4000244140625</ele>
        <time>2022-05-03T11:51:59.000Z</time>
      </trkpt>
      <trkpt lat="40.8011950738728046417236328125" lon="-1.73880795948207378387451171875">
        <ele>1228.199951171875</ele>
        <time>2022-05-03T11:52:00.000Z</time>
      </trkpt>
      <trkpt lat="40.80120236612856388092041015625" lon="-1.738841570913791656494140625">
        <ele>1228.199951171875</ele>
        <time>2022-05-03T11:52:01.000Z</time>
      </trkpt>
      <trkpt lat="40.80121410079300403594970703125" lon="-1.738909296691417694091796875">
        <ele>1228</ele>
        <time>2022-05-03T11:52:03.000Z</time>
      </trkpt>
      <trkpt lat="40.80122617073357105255126953125" lon="-1.73897643573582172393798828125">
        <ele>1228</ele>
        <time>2022-05-03T11:52:05.000Z</time>
      </trkpt>
      <trkpt lat="40.80123941414058208465576171875" lon="-1.73904240131378173828125">
        <ele>1227.800048828125</ele>
        <time>2022-05-03T11:52:07.000Z</time>
      </trkpt>
      <trkpt lat="40.8012534119188785552978515625" lon="-1.739107780158519744873046875">
        <ele>1227.800048828125</ele>
        <time>2022-05-03T11:52:09.000Z</time>
      </trkpt>
      <trkpt lat="40.8012678287923336029052734375" lon="-1.73917324282228946685791015625">
        <ele>1227.800048828125</ele>
        <time>2022-05-03T11:52:11.000Z</time>
      </trkpt>
      <trkpt lat="40.8012815751135349273681640625" lon="-1.7392387054860591888427734375">
        <ele>1227.5999755859375</ele>
        <time>2022-05-03T11:52:13.000Z</time>
      </trkpt>
      <trkpt lat="40.8012874424457550048828125" lon="-1.73927164636552333831787109375">
        <ele>1227.5999755859375</ele>
        <time>2022-05-03T11:52:14.000Z</time>
      </trkpt>
      <trkpt lat="40.80129305832087993621826171875" lon="-1.73930383287370204925537109375">
        <ele>1227.5999755859375</ele>
        <time>2022-05-03T11:52:15.000Z</time>
      </trkpt>
      <trkpt lat="40.80130579881370067596435546875" lon="-1.73936803825199604034423828125">
        <ele>1227.4000244140625</ele>
        <time>2022-05-03T11:52:17.000Z</time>
      </trkpt>
      <trkpt lat="40.801318623125553131103515625" lon="-1.7394341714680194854736328125">
        <ele>1227.199951171875</ele>
        <time>2022-05-03T11:52:19.000Z</time>
      </trkpt>
      <trkpt lat="40.80133102834224700927734375" lon="-1.7394995503127574920654296875">
        <ele>1227</ele>
        <time>2022-05-03T11:52:21.000Z</time>
      </trkpt>
      <trkpt lat="40.80134569667279720306396484375" lon="-1.73956467770040035247802734375">
        <ele>1226.800048828125</ele>
        <time>2022-05-03T11:52:23.000Z</time>
      </trkpt>
      <trkpt lat="40.801358520984649658203125" lon="-1.7396299727261066436767578125">
        <ele>1226.800048828125</ele>
        <time>2022-05-03T11:52:25.000Z</time>
      </trkpt>
      <trkpt lat="40.801364891231060028076171875" lon="-1.73966375179588794708251953125">
        <ele>1226.5999755859375</ele>
        <time>2022-05-03T11:52:26.000Z</time>
      </trkpt>
      <trkpt lat="40.801370255649089813232421875" lon="-1.7396970279514789581298828125">
        <ele>1226.5999755859375</ele>
        <time>2022-05-03T11:52:27.000Z</time>
      </trkpt>
      <trkpt lat="40.801382325589656829833984375" lon="-1.7397637479007244110107421875">
        <ele>1226.4000244140625</ele>
        <time>2022-05-03T11:52:29.000Z</time>
      </trkpt>
      <trkpt lat="40.801388360559940338134765625" lon="-1.73979786224663257598876953125">
        <ele>1226.4000244140625</ele>
        <time>2022-05-03T11:52:30.000Z</time>
      </trkpt>
      <trkpt lat="40.80139447934925556182861328125" lon="-1.73983021639287471771240234375">
        <ele>1226.4000244140625</ele>
        <time>2022-05-03T11:52:31.000Z</time>
      </trkpt>
      <trkpt lat="40.80140671692788600921630859375" lon="-1.73989291302859783172607421875">
        <ele>1226.4000244140625</ele>
        <time>2022-05-03T11:52:33.000Z</time>
      </trkpt>
      <trkpt lat="40.8014170266687870025634765625" lon="-1.73995661549270153045654296875">
        <ele>1226.5999755859375</ele>
        <time>2022-05-03T11:52:35.000Z</time>
      </trkpt>
      <trkpt lat="40.8014260791242122650146484375" lon="-1.74001998268067836761474609375">
        <ele>1226.800048828125</ele>
        <time>2022-05-03T11:52:37.000Z</time>
      </trkpt>
      <trkpt lat="40.80143555067479610443115234375" lon="-1.740085445344448089599609375">
        <ele>1227</ele>
        <time>2022-05-03T11:52:39.000Z</time>
      </trkpt>
      <trkpt lat="40.8014488779008388519287109375" lon="-1.740149818360805511474609375">
        <ele>1227.199951171875</ele>
        <time>2022-05-03T11:52:41.000Z</time>
      </trkpt>
      <trkpt lat="40.80146170221269130706787109375" lon="-1.74021360464394092559814453125">
        <ele>1227.4000244140625</ele>
        <time>2022-05-03T11:52:43.000Z</time>
      </trkpt>
      <trkpt lat="40.8014733530580997467041015625" lon="-1.74027697183191776275634765625">
        <ele>1227.800048828125</ele>
        <time>2022-05-03T11:52:45.000Z</time>
      </trkpt>
      <trkpt lat="40.80147896893322467803955078125" lon="-1.74030848778784275054931640625">
        <ele>1227.800048828125</ele>
        <time>2022-05-03T11:52:46.000Z</time>
      </trkpt>
      <trkpt lat="40.80148399807512760162353515625" lon="-1.7403404228389263153076171875">
        <ele>1228</ele>
        <time>2022-05-03T11:52:47.000Z</time>
      </trkpt>
      <trkpt lat="40.801496319472789764404296875" lon="-1.7404027841985225677490234375">
        <ele>1228.199951171875</ele>
        <time>2022-05-03T11:52:49.000Z</time>
      </trkpt>
      <trkpt lat="40.8015112392604351043701171875" lon="-1.7404644750058650970458984375">
        <ele>1228.4000244140625</ele>
        <time>2022-05-03T11:52:51.000Z</time>
      </trkpt>
      <trkpt lat="40.80151886679232120513916015625" lon="-1.74049573950469493865966796875">
        <ele>1228.5999755859375</ele>
        <time>2022-05-03T11:52:52.000Z</time>
      </trkpt>
      <trkpt lat="40.80152657814323902130126953125" lon="-1.74052859656512737274169921875">
        <ele>1228.800048828125</ele>
        <time>2022-05-03T11:52:53.000Z</time>
      </trkpt>
      <trkpt lat="40.8015422523021697998046875" lon="-1.7405952326953411102294921875">
        <ele>1229</ele>
        <time>2022-05-03T11:52:55.000Z</time>
      </trkpt>
      <trkpt lat="40.80155692063271999359130859375" lon="-1.7406629584729671478271484375">
        <ele>1229.4000244140625</ele>
        <time>2022-05-03T11:52:57.000Z</time>
      </trkpt>
      <trkpt lat="40.80157133750617504119873046875" lon="-1.74073009751737117767333984375">
        <ele>1229.5999755859375</ele>
        <time>2022-05-03T11:52:59.000Z</time>
      </trkpt>
      <trkpt lat="40.8015853352844715118408203125" lon="-1.74079799093306064605712890625">
        <ele>1229.5999755859375</ele>
        <time>2022-05-03T11:53:01.000Z</time>
      </trkpt>
      <trkpt lat="40.80159245990216732025146484375" lon="-1.74083210527896881103515625">
        <ele>1229.800048828125</ele>
        <time>2022-05-03T11:53:02.000Z</time>
      </trkpt>
      <trkpt lat="40.8015990816056728363037109375" lon="-1.74086588434875011444091796875">
        <ele>1229.800048828125</ele>
        <time>2022-05-03T11:53:03.000Z</time>
      </trkpt>
      <trkpt lat="40.801613330841064453125" lon="-1.740935035049915313720703125">
        <ele>1229.800048828125</ele>
        <time>2022-05-03T11:53:05.000Z</time>
      </trkpt>
      <trkpt lat="40.80162012018263339996337890625" lon="-1.7409710772335529327392578125">
        <ele>1230</ele>
        <time>2022-05-03T11:53:06.000Z</time>
      </trkpt>
      <trkpt lat="40.8016275800764560699462890625" lon="-1.74100602976977825164794921875">
        <ele>1230</ele>
        <time>2022-05-03T11:53:07.000Z</time>
      </trkpt>
      <trkpt lat="40.80164191313087940216064453125" lon="-1.7410743422806262969970703125">
        <ele>1230</ele>
        <time>2022-05-03T11:53:09.000Z</time>
      </trkpt>
      <trkpt lat="40.80165289342403411865234375" lon="-1.74113980494439601898193359375">
        <ele>1230.199951171875</ele>
        <time>2022-05-03T11:53:11.000Z</time>
      </trkpt>
      <trkpt lat="40.80165934748947620391845703125" lon="-1.74117383547127246856689453125">
        <ele>1230.199951171875</ele>
        <time>2022-05-03T11:53:12.000Z</time>
      </trkpt>
      <trkpt lat="40.80166588537395000457763671875" lon="-1.74120786599814891815185546875">
        <ele>1230.199951171875</ele>
        <time>2022-05-03T11:53:13.000Z</time>
      </trkpt>
      <trkpt lat="40.801678039133548736572265625" lon="-1.74127693288028240203857421875">
        <ele>1230.199951171875</ele>
        <time>2022-05-03T11:53:15.000Z</time>
      </trkpt>
      <trkpt lat="40.801690109074115753173828125" lon="-1.74134482629597187042236328125">
        <ele>1230.199951171875</ele>
        <time>2022-05-03T11:53:17.000Z</time>
      </trkpt>
      <trkpt lat="40.80169840715825557708740234375" lon="-1.74141137860715389251708984375">
        <ele>1230.199951171875</ele>
        <time>2022-05-03T11:53:19.000Z</time>
      </trkpt>
      <trkpt lat="40.80171056091785430908203125" lon="-1.741472147405147552490234375">
        <ele>1230.199951171875</ele>
        <time>2022-05-03T11:53:21.000Z</time>
      </trkpt>
      <trkpt lat="40.80171399749815464019775390625" lon="-1.7415011487901210784912109375">
        <ele>1230</ele>
        <time>2022-05-03T11:53:22.000Z</time>
      </trkpt>
      <trkpt lat="40.80171785317361354827880859375" lon="-1.7415289767086505889892578125">
        <ele>1230</ele>
        <time>2022-05-03T11:53:23.000Z</time>
      </trkpt>
      <trkpt lat="40.80173067748546600341796875" lon="-1.74158857204020023345947265625">
        <ele>1230.4000244140625</ele>
        <time>2022-05-03T11:53:25.000Z</time>
      </trkpt>
      <trkpt lat="40.80174584873020648956298828125" lon="-1.74165126867592334747314453125">
        <ele>1230.5999755859375</ele>
        <time>2022-05-03T11:53:27.000Z</time>
      </trkpt>
      <trkpt lat="40.8017610199749469757080078125" lon="-1.74171480350196361541748046875">
        <ele>1231</ele>
        <time>2022-05-03T11:53:29.000Z</time>
      </trkpt>
      <trkpt lat="40.80177803523838520050048828125" lon="-1.74177750013768672943115234375">
        <ele>1231.4000244140625</ele>
        <time>2022-05-03T11:53:31.000Z</time>
      </trkpt>
      <trkpt lat="40.801787674427032470703125" lon="-1.74181035719811916351318359375">
        <ele>1231.5999755859375</ele>
        <time>2022-05-03T11:53:32.000Z</time>
      </trkpt>
      <trkpt lat="40.80179748125374317169189453125" lon="-1.7418444715440273284912109375">
        <ele>1231.800048828125</ele>
        <time>2022-05-03T11:53:33.000Z</time>
      </trkpt>
      <trkpt lat="40.801812820136547088623046875" lon="-1.74191747792065143585205078125">
        <ele>1232.199951171875</ele>
        <time>2022-05-03T11:53:35.000Z</time>
      </trkpt>
      <trkpt lat="40.80182698555290699005126953125" lon="-1.74198805354535579681396484375">
        <ele>1232.4000244140625</ele>
        <time>2022-05-03T11:53:37.000Z</time>
      </trkpt>
      <trkpt lat="40.80184726975858211517333984375" lon="-1.74205376766622066497802734375">
        <ele>1232.4000244140625</ele>
        <time>2022-05-03T11:53:39.000Z</time>
      </trkpt>
      <trkpt lat="40.80187040381133556365966796875" lon="-1.74211512319743633270263671875">
        <ele>1232.5999755859375</ele>
        <time>2022-05-03T11:53:41.000Z</time>
      </trkpt>
      <trkpt lat="40.80189538188278675079345703125" lon="-1.7421763949096202850341796875">
        <ele>1232.800048828125</ele>
        <time>2022-05-03T11:53:43.000Z</time>
      </trkpt>
      <trkpt lat="40.80191985704004764556884765625" lon="-1.7422350682318210601806640625">
        <ele>1233</ele>
        <time>2022-05-03T11:53:45.000Z</time>
      </trkpt>
      <trkpt lat="40.80194232054054737091064453125" lon="-1.74229483120143413543701171875">
        <ele>1233.199951171875</ele>
        <time>2022-05-03T11:53:47.000Z</time>
      </trkpt>
      <trkpt lat="40.80196662805974483489990234375" lon="-1.74235300160944461822509765625">
        <ele>1233.4000244140625</ele>
        <time>2022-05-03T11:53:49.000Z</time>
      </trkpt>
      <trkpt lat="40.80199110321700572967529296875" lon="-1.74241050146520137786865234375">
        <ele>1233.800048828125</ele>
        <time>2022-05-03T11:53:51.000Z</time>
      </trkpt>
      <trkpt lat="40.8020128123462200164794921875" lon="-1.74247085116803646087646484375">
        <ele>1234.4000244140625</ele>
        <time>2022-05-03T11:53:53.000Z</time>
      </trkpt>
      <trkpt lat="40.802036114037036895751953125" lon="-1.74253053031861782073974609375">
        <ele>1235</ele>
        <time>2022-05-03T11:53:55.000Z</time>
      </trkpt>
      <trkpt lat="40.802048183977603912353515625" lon="-1.74256020225584506988525390625">
        <ele>1235.199951171875</ele>
        <time>2022-05-03T11:53:56.000Z</time>
      </trkpt>
      <trkpt lat="40.8020599186420440673828125" lon="-1.74259004183113574981689453125">
        <ele>1235</ele>
        <time>2022-05-03T11:53:57.000Z</time>
      </trkpt>
      <trkpt lat="40.80208196304738521575927734375" lon="-1.7426518164575099945068359375">
        <ele>1235</ele>
        <time>2022-05-03T11:53:59.000Z</time>
      </trkpt>
      <trkpt lat="40.80210476182401180267333984375" lon="-1.74271509982645511627197265625">
        <ele>1235</ele>
        <time>2022-05-03T11:54:01.000Z</time>
      </trkpt>
      <trkpt lat="40.8021268062293529510498046875" lon="-1.7427815683186054229736328125">
        <ele>1234.800048828125</ele>
        <time>2022-05-03T11:54:03.000Z</time>
      </trkpt>
      <trkpt lat="40.8021519519388675689697265625" lon="-1.742850132286548614501953125">
        <ele>1234.800048828125</ele>
        <time>2022-05-03T11:54:05.000Z</time>
      </trkpt>
      <trkpt lat="40.80216544680297374725341796875" lon="-1.74288324080407619476318359375">
        <ele>1234.800048828125</ele>
        <time>2022-05-03T11:54:06.000Z</time>
      </trkpt>
      <trkpt lat="40.8021777682006359100341796875" lon="-1.74291660077869892120361328125">
        <ele>1234.800048828125</ele>
        <time>2022-05-03T11:54:07.000Z</time>
      </trkpt>
      <trkpt lat="40.8022009022533893585205078125" lon="-1.7429793812334537506103515625">
        <ele>1234.5999755859375</ele>
        <time>2022-05-03T11:54:09.000Z</time>
      </trkpt>
      <trkpt lat="40.802220515906810760498046875" lon="-1.74303947947919368743896484375">
        <ele>1234.5999755859375</ele>
        <time>2022-05-03T11:54:11.000Z</time>
      </trkpt>
      <trkpt lat="40.8022401295602321624755859375" lon="-1.7430990748107433319091796875">
        <ele>1234.4000244140625</ele>
        <time>2022-05-03T11:54:13.000Z</time>
      </trkpt>
      <trkpt lat="40.80224968492984771728515625" lon="-1.743127070367336273193359375">
        <ele>1234.4000244140625</ele>
        <time>2022-05-03T11:54:14.000Z</time>
      </trkpt>
      <trkpt lat="40.80225915648043155670166015625" lon="-1.74315632320940494537353515625">
        <ele>1234.4000244140625</ele>
        <time>2022-05-03T11:54:15.000Z</time>
      </trkpt>
      <trkpt lat="40.8022783510386943817138671875" lon="-1.74321264959871768951416015625">
        <ele>1234.4000244140625</ele>
        <time>2022-05-03T11:54:17.000Z</time>
      </trkpt>
      <trkpt lat="40.80229930579662322998046875" lon="-1.74326579086482524871826171875">
        <ele>1234.199951171875</ele>
        <time>2022-05-03T11:54:19.000Z</time>
      </trkpt>
      <trkpt lat="40.80232034437358379364013671875" lon="-1.74331851303577423095703125">
        <ele>1234.199951171875</ele>
        <time>2022-05-03T11:54:21.000Z</time>
      </trkpt>
      <trkpt lat="40.802341885864734649658203125" lon="-1.74337349832057952880859375">
        <ele>1234.199951171875</ele>
        <time>2022-05-03T11:54:23.000Z</time>
      </trkpt>
      <trkpt lat="40.8023521117866039276123046875" lon="-1.74340107478201389312744140625">
        <ele>1234.199951171875</ele>
        <time>2022-05-03T11:54:24.000Z</time>
      </trkpt>
      <trkpt lat="40.80236208625137805938720703125" lon="-1.7434286512434482574462890625">
        <ele>1234</ele>
        <time>2022-05-03T11:54:25.000Z</time>
      </trkpt>
      <trkpt lat="40.80238471738994121551513671875" lon="-1.74348480999469757080078125">
        <ele>1234</ele>
        <time>2022-05-03T11:54:27.000Z</time>
      </trkpt>
      <trkpt lat="40.80240852199494838714599609375" lon="-1.74354088492691516876220703125">
        <ele>1234</ele>
        <time>2022-05-03T11:54:29.000Z</time>
      </trkpt>
      <trkpt lat="40.80242981202900409698486328125" lon="-1.74359737895429134368896484375">
        <ele>1233.800048828125</ele>
        <time>2022-05-03T11:54:31.000Z</time>
      </trkpt>
      <trkpt lat="40.8024500124156475067138671875" lon="-1.74365513026714324951171875">
        <ele>1233.800048828125</ele>
        <time>2022-05-03T11:54:33.000Z</time>
      </trkpt>
      <trkpt lat="40.80246870405972003936767578125" lon="-1.743714809417724609375">
        <ele>1233.5999755859375</ele>
        <time>2022-05-03T11:54:35.000Z</time>
      </trkpt>
      <trkpt lat="40.8024889044463634490966796875" lon="-1.743772141635417938232421875">
        <ele>1233.5999755859375</ele>
        <time>2022-05-03T11:54:37.000Z</time>
      </trkpt>
      <trkpt lat="40.80250759609043598175048828125" lon="-1.743831820785999298095703125">
        <ele>1233.4000244140625</ele>
        <time>2022-05-03T11:54:39.000Z</time>
      </trkpt>
      <trkpt lat="40.802527964115142822265625" lon="-1.74388789571821689605712890625">
        <ele>1233.4000244140625</ele>
        <time>2022-05-03T11:54:41.000Z</time>
      </trkpt>
      <trkpt lat="40.80254883505403995513916015625" lon="-1.74394749104976654052734375">
        <ele>1233.4000244140625</ele>
        <time>2022-05-03T11:54:43.000Z</time>
      </trkpt>
      <trkpt lat="40.80255973152816295623779296875" lon="-1.74397699534893035888671875">
        <ele>1233.199951171875</ele>
        <time>2022-05-03T11:54:44.000Z</time>
      </trkpt>
      <trkpt lat="40.8025697059929370880126953125" lon="-1.744005493819713592529296875">
        <ele>1233.199951171875</ele>
        <time>2022-05-03T11:54:45.000Z</time>
      </trkpt>
      <trkpt lat="40.80259376205503940582275390625" lon="-1.74405989237129688262939453125">
        <ele>1233.199951171875</ele>
        <time>2022-05-03T11:54:47.000Z</time>
      </trkpt>
      <trkpt lat="40.80260650254786014556884765625" lon="-1.74408788792788982391357421875">
        <ele>1233.4000244140625</ele>
        <time>2022-05-03T11:54:48.000Z</time>
      </trkpt>
      <trkpt lat="40.80261848866939544677734375" lon="-1.74411672167479991912841796875">
        <ele>1233.4000244140625</ele>
        <time>2022-05-03T11:54:49.000Z</time>
      </trkpt>
      <trkpt lat="40.80263986252248287200927734375" lon="-1.74417623318731784820556640625">
        <ele>1233.5999755859375</ele>
        <time>2022-05-03T11:54:51.000Z</time>
      </trkpt>
      <trkpt lat="40.80264891497790813446044921875" lon="-1.7442061565816402435302734375">
        <ele>1233.5999755859375</ele>
        <time>2022-05-03T11:54:52.000Z</time>
      </trkpt>
      <trkpt lat="40.802657715976238250732421875" lon="-1.74423591233789920806884765625">
        <ele>1233.5999755859375</ele>
        <time>2022-05-03T11:54:53.000Z</time>
      </trkpt>
      <trkpt lat="40.80267791636288166046142578125" lon="-1.74429642967879772186279296875">
        <ele>1233.800048828125</ele>
        <time>2022-05-03T11:54:55.000Z</time>
      </trkpt>
      <trkpt lat="40.80269803293049335479736328125" lon="-1.74435661174356937408447265625">
        <ele>1233.800048828125</ele>
        <time>2022-05-03T11:54:57.000Z</time>
      </trkpt>
      <trkpt lat="40.80272032879292964935302734375" lon="-1.744414865970611572265625">
        <ele>1234</ele>
        <time>2022-05-03T11:54:59.000Z</time>
      </trkpt>
      <trkpt lat="40.80274212174117565155029296875" lon="-1.7444747127592563629150390625">
        <ele>1234</ele>
        <time>2022-05-03T11:55:01.000Z</time>
      </trkpt>
      <trkpt lat="40.80275268293917179107666015625" lon="-1.74450513906776905059814453125">
        <ele>1234</ele>
        <time>2022-05-03T11:55:02.000Z</time>
      </trkpt>
      <trkpt lat="40.80276424996554851531982421875" lon="-1.7445367388427257537841796875">
        <ele>1234</ele>
        <time>2022-05-03T11:55:03.000Z</time>
      </trkpt>
      <trkpt lat="40.80278880894184112548828125" lon="-1.74460086040198802947998046875">
        <ele>1234</ele>
        <time>2022-05-03T11:55:05.000Z</time>
      </trkpt>
      <trkpt lat="40.80281185917556285858154296875" lon="-1.74466632306575775146484375">
        <ele>1234.199951171875</ele>
        <time>2022-05-03T11:55:07.000Z</time>
      </trkpt>
      <trkpt lat="40.802834071218967437744140625" lon="-1.7447325401008129119873046875">
        <ele>1234.199951171875</ele>
        <time>2022-05-03T11:55:09.000Z</time>
      </trkpt>
      <trkpt lat="40.8028563670814037322998046875" lon="-1.74479984678328037261962890625">
        <ele>1234.199951171875</ele>
        <time>2022-05-03T11:55:11.000Z</time>
      </trkpt>
      <trkpt lat="40.80286868847906589508056640625" lon="-1.7448346316814422607421875">
        <ele>1234.199951171875</ele>
        <time>2022-05-03T11:55:12.000Z</time>
      </trkpt>
      <trkpt lat="40.80287841148674488067626953125" lon="-1.7448706738650798797607421875">
        <ele>1234.199951171875</ele>
        <time>2022-05-03T11:55:13.000Z</time>
      </trkpt>
      <trkpt lat="40.80289785750210285186767578125" lon="-1.74493680708110332489013671875">
        <ele>1234.4000244140625</ele>
        <time>2022-05-03T11:55:15.000Z</time>
      </trkpt>
      <trkpt lat="40.802925936877727508544921875" lon="-1.74499313347041606903076171875">
        <ele>1234.800048828125</ele>
        <time>2022-05-03T11:55:17.000Z</time>
      </trkpt>
      <trkpt lat="40.80294865183532238006591796875" lon="-1.74505264498293399810791015625">
        <ele>1234.5999755859375</ele>
        <time>2022-05-03T11:55:19.000Z</time>
      </trkpt>
      <trkpt lat="40.80297044478356838226318359375" lon="-1.745112575590610504150390625">
        <ele>1234.199951171875</ele>
        <time>2022-05-03T11:55:21.000Z</time>
      </trkpt>
      <trkpt lat="40.8029973506927490234375" lon="-1.74516932107508182525634765625">
        <ele>1233.800048828125</ele>
        <time>2022-05-03T11:55:23.000Z</time>
      </trkpt>
      <trkpt lat="40.80302392132580280303955078125" lon="-1.74522531218826770782470703125">
        <ele>1233.4000244140625</ele>
        <time>2022-05-03T11:55:25.000Z</time>
      </trkpt>
      <trkpt lat="40.80305124633014202117919921875" lon="-1.745280213654041290283203125">
        <ele>1233</ele>
        <time>2022-05-03T11:55:27.000Z</time>
      </trkpt>
      <trkpt lat="40.80306616611778736114501953125" lon="-1.74530644901096820831298828125">
        <ele>1233</ele>
        <time>2022-05-03T11:55:28.000Z</time>
      </trkpt>
      <trkpt lat="40.80308209173381328582763671875" lon="-1.74533243291079998016357421875">
        <ele>1233</ele>
        <time>2022-05-03T11:55:29.000Z</time>
      </trkpt>
      <trkpt lat="40.80311528407037258148193359375" lon="-1.7453826405107975006103515625">
        <ele>1233</ele>
        <time>2022-05-03T11:55:31.000Z</time>
      </trkpt>
      <trkpt lat="40.80314747057855129241943359375" lon="-1.7454329319298267364501953125">
        <ele>1233.199951171875</ele>
        <time>2022-05-03T11:55:33.000Z</time>
      </trkpt>
      <trkpt lat="40.803164653480052947998046875" lon="-1.74545765854418277740478515625">
        <ele>1233.199951171875</ele>
        <time>2022-05-03T11:55:34.000Z</time>
      </trkpt>
      <trkpt lat="40.803182087838649749755859375" lon="-1.7454815469682216644287109375">
        <ele>1233.199951171875</ele>
        <time>2022-05-03T11:55:35.000Z</time>
      </trkpt>
      <trkpt lat="40.8032154478132724761962890625" lon="-1.7455271445214748382568359375">
        <ele>1233.199951171875</ele>
        <time>2022-05-03T11:55:37.000Z</time>
      </trkpt>
      <trkpt lat="40.80324687995016574859619140625" lon="-1.74557064659893512725830078125">
        <ele>1233.4000244140625</ele>
        <time>2022-05-03T11:55:39.000Z</time>
      </trkpt>
      <trkpt lat="40.80328057520091533660888671875" lon="-1.7456106282770633697509765625">
        <ele>1233.4000244140625</ele>
        <time>2022-05-03T11:55:41.000Z</time>
      </trkpt>
      <trkpt lat="40.803315527737140655517578125" lon="-1.7456451617181301116943359375">
        <ele>1233.5999755859375</ele>
        <time>2022-05-03T11:55:43.000Z</time>
      </trkpt>
      <trkpt lat="40.80334830097854137420654296875" lon="-1.74567885696887969970703125">
        <ele>1233.5999755859375</ele>
        <time>2022-05-03T11:55:45.000Z</time>
      </trkpt>
      <trkpt lat="40.80338233150541782379150390625" lon="-1.74571045674383640289306640625">
        <ele>1233.800048828125</ele>
        <time>2022-05-03T11:55:47.000Z</time>
      </trkpt>
      <trkpt lat="40.80339775420725345611572265625" lon="-1.7457279749214649200439453125">
        <ele>1234</ele>
        <time>2022-05-03T11:55:48.000Z</time>
      </trkpt>
      <trkpt lat="40.803413428366184234619140625" lon="-1.745745241641998291015625">
        <ele>1234</ele>
        <time>2022-05-03T11:55:49.000Z</time>
      </trkpt>
      <trkpt lat="40.8034300245344638824462890625" lon="-1.74576208926737308502197265625">
        <ele>1234.199951171875</ele>
        <time>2022-05-03T11:55:50.000Z</time>
      </trkpt>
      <trkpt lat="40.803446955978870391845703125" lon="-1.74577851779758930206298828125">
        <ele>1234.4000244140625</ele>
        <time>2022-05-03T11:55:51.000Z</time>
      </trkpt>
      <trkpt lat="40.80348190851509571075439453125" lon="-1.74580785445868968963623046875">
        <ele>1234.800048828125</ele>
        <time>2022-05-03T11:55:53.000Z</time>
      </trkpt>
      <trkpt lat="40.80351769924163818359375" lon="-1.74584087915718555450439453125">
        <ele>1235</ele>
        <time>2022-05-03T11:55:55.000Z</time>
      </trkpt>
      <trkpt lat="40.803536139428615570068359375" lon="-1.745857894420623779296875">
        <ele>1235.199951171875</ele>
        <time>2022-05-03T11:55:56.000Z</time>
      </trkpt>
      <trkpt lat="40.803554244339466094970703125" lon="-1.7458758316934108734130859375">
        <ele>1235.4000244140625</ele>
        <time>2022-05-03T11:55:57.000Z</time>
      </trkpt>
      <trkpt lat="40.803588442504405975341796875" lon="-1.74590927548706531524658203125">
        <ele>1235.800048828125</ele>
        <time>2022-05-03T11:55:59.000Z</time>
      </trkpt>
      <trkpt lat="40.80362020991742610931396484375" lon="-1.74594028852880001068115234375">
        <ele>1236</ele>
        <time>2022-05-03T11:56:01.000Z</time>
      </trkpt>
      <trkpt lat="40.80365541391074657440185546875" lon="-1.745969541370868682861328125">
        <ele>1236.4000244140625</ele>
        <time>2022-05-03T11:56:03.000Z</time>
      </trkpt>
      <trkpt lat="40.80370000563561916351318359375" lon="-1.74600063823163509368896484375">
        <ele>1236.5999755859375</ele>
        <time>2022-05-03T11:56:05.000Z</time>
      </trkpt>
      <trkpt lat="40.80374476499855518341064453125" lon="-1.746040284633636474609375">
        <ele>1236.800048828125</ele>
        <time>2022-05-03T11:56:07.000Z</time>
      </trkpt>
      <trkpt lat="40.803784243762493133544921875" lon="-1.7460860498249530792236328125">
        <ele>1237</ele>
        <time>2022-05-03T11:56:09.000Z</time>
      </trkpt>
      <trkpt lat="40.803801678121089935302734375" lon="-1.7461073398590087890625">
        <ele>1237</ele>
        <time>2022-05-03T11:56:10.000Z</time>
      </trkpt>
      <trkpt lat="40.80381953157484531402587890625" lon="-1.7461293004453182220458984375">
        <ele>1237.199951171875</ele>
        <time>2022-05-03T11:56:11.000Z</time>
      </trkpt>
      <trkpt lat="40.8038605190813541412353515625" lon="-1.7461785860359668731689453125">
        <ele>1237.199951171875</ele>
        <time>2022-05-03T11:56:13.000Z</time>
      </trkpt>
      <trkpt lat="40.803904943168163299560546875" lon="-1.7462360858917236328125">
        <ele>1237.4000244140625</ele>
        <time>2022-05-03T11:56:15.000Z</time>
      </trkpt>
      <trkpt lat="40.8039523847401142120361328125" lon="-1.7462982796132564544677734375">
        <ele>1237.4000244140625</ele>
        <time>2022-05-03T11:56:17.000Z</time>
      </trkpt>
      <trkpt lat="40.8040009997785091400146484375" lon="-1.74636474810540676116943359375">
        <ele>1237.4000244140625</ele>
        <time>2022-05-03T11:56:19.000Z</time>
      </trkpt>
      <trkpt lat="40.80404919572174549102783203125" lon="-1.7464354075491428375244140625">
        <ele>1237.4000244140625</ele>
        <time>2022-05-03T11:56:21.000Z</time>
      </trkpt>
      <trkpt lat="40.80409512855112552642822265625" lon="-1.74650631844997406005859375">
        <ele>1237.800048828125</ele>
        <time>2022-05-03T11:56:23.000Z</time>
      </trkpt>
      <trkpt lat="40.8041394688189029693603515625" lon="-1.7465768940746784210205078125">
        <ele>1237.800048828125</ele>
        <time>2022-05-03T11:56:25.000Z</time>
      </trkpt>
      <trkpt lat="40.80418313853442668914794921875" lon="-1.74664839170873165130615234375">
        <ele>1237.800048828125</ele>
        <time>2022-05-03T11:56:27.000Z</time>
      </trkpt>
      <trkpt lat="40.80422488041222095489501953125" lon="-1.7467187158763408660888671875">
        <ele>1237.800048828125</ele>
        <time>2022-05-03T11:56:29.000Z</time>
      </trkpt>
      <trkpt lat="40.80426092259585857391357421875" lon="-1.74677051603794097900390625">
        <ele>1237.800048828125</ele>
        <time>2022-05-03T11:56:31.000Z</time>
      </trkpt>
      <trkpt lat="40.8042947016656398773193359375" lon="-1.74682843498885631561279296875">
        <ele>1237.800048828125</ele>
        <time>2022-05-03T11:56:33.000Z</time>
      </trkpt>
      <trkpt lat="40.80433376133441925048828125" lon="-1.7468927241861820220947265625">
        <ele>1237.800048828125</ele>
        <time>2022-05-03T11:56:35.000Z</time>
      </trkpt>
      <trkpt lat="40.8043746650218963623046875" lon="-1.74695961177349090576171875">
        <ele>1237.5999755859375</ele>
        <time>2022-05-03T11:56:37.000Z</time>
      </trkpt>
      <trkpt lat="40.80441414378583431243896484375" lon="-1.7470298521220684051513671875">
        <ele>1237.5999755859375</ele>
        <time>2022-05-03T11:56:39.000Z</time>
      </trkpt>
      <trkpt lat="40.80445035360753536224365234375" lon="-1.7470943927764892578125">
        <ele>1237.4000244140625</ele>
        <time>2022-05-03T11:56:41.000Z</time>
      </trkpt>
      <trkpt lat="40.8044858090579509735107421875" lon="-1.7471515573561191558837890625">
        <ele>1237.199951171875</ele>
        <time>2022-05-03T11:56:43.000Z</time>
      </trkpt>
      <trkpt lat="40.80452310852706432342529296875" lon="-1.7472142539918422698974609375">
        <ele>1237.199951171875</ele>
        <time>2022-05-03T11:56:45.000Z</time>
      </trkpt>
      <trkpt lat="40.8045639283955097198486328125" lon="-1.74728390760719776153564453125">
        <ele>1237</ele>
        <time>2022-05-03T11:56:47.000Z</time>
      </trkpt>
      <trkpt lat="40.80460659228265285491943359375" lon="-1.7473554052412509918212890625">
        <ele>1236.800048828125</ele>
        <time>2022-05-03T11:56:49.000Z</time>
      </trkpt>
      <trkpt lat="40.80464598722755908966064453125" lon="-1.747424639761447906494140625">
        <ele>1236.800048828125</ele>
        <time>2022-05-03T11:56:51.000Z</time>
      </trkpt>
      <trkpt lat="40.804681442677974700927734375" lon="-1.74748926423490047454833984375">
        <ele>1236.4000244140625</ele>
        <time>2022-05-03T11:56:53.000Z</time>
      </trkpt>
      <trkpt lat="40.80470046959817409515380859375" lon="-1.747522540390491485595703125">
        <ele>1236.4000244140625</ele>
        <time>2022-05-03T11:56:54.000Z</time>
      </trkpt>
      <trkpt lat="40.8047206699848175048828125" lon="-1.74755715765058994293212890625">
        <ele>1236.199951171875</ele>
        <time>2022-05-03T11:56:55.000Z</time>
      </trkpt>
      <trkpt lat="40.8047620765864849090576171875" lon="-1.74762882292270660400390625">
        <ele>1236.199951171875</ele>
        <time>2022-05-03T11:56:57.000Z</time>
      </trkpt>
      <trkpt lat="40.804802812635898590087890625" lon="-1.74770300276577472686767578125">
        <ele>1236.199951171875</ele>
        <time>2022-05-03T11:56:59.000Z</time>
      </trkpt>
      <trkpt lat="40.80484547652304172515869140625" lon="-1.7477775178849697113037109375">
        <ele>1236.199951171875</ele>
        <time>2022-05-03T11:57:01.000Z</time>
      </trkpt>
      <trkpt lat="40.8048847876489162445068359375" lon="-1.74784876406192779541015625">
        <ele>1236.199951171875</ele>
        <time>2022-05-03T11:57:03.000Z</time>
      </trkpt>
      <trkpt lat="40.8049250207841396331787109375" lon="-1.7479203455150127410888671875">
        <ele>1236.199951171875</ele>
        <time>2022-05-03T11:57:05.000Z</time>
      </trkpt>
      <trkpt lat="40.8049461431801319122314453125" lon="-1.747959069907665252685546875">
        <ele>1236.199951171875</ele>
        <time>2022-05-03T11:57:06.000Z</time>
      </trkpt>
      <trkpt lat="40.804967768490314483642578125" lon="-1.7479967884719371795654296875">
        <ele>1236.199951171875</ele>
        <time>2022-05-03T11:57:07.000Z</time>
      </trkpt>
      <trkpt lat="40.8050098456442356109619140625" lon="-1.74807465635240077972412109375">
        <ele>1236.199951171875</ele>
        <time>2022-05-03T11:57:09.000Z</time>
      </trkpt>
      <trkpt lat="40.805052258074283599853515625" lon="-1.7481516860425472259521484375">
        <ele>1236.4000244140625</ele>
        <time>2022-05-03T11:57:11.000Z</time>
      </trkpt>
      <trkpt lat="40.80509056337177753448486328125" lon="-1.74822167493402957916259765625">
        <ele>1236.5999755859375</ele>
        <time>2022-05-03T11:57:13.000Z</time>
      </trkpt>
      <trkpt lat="40.80510615371167659759521484375" lon="-1.748258136212825775146484375">
        <ele>1236.800048828125</ele>
        <time>2022-05-03T11:57:14.000Z</time>
      </trkpt>
      <trkpt lat="40.80512258224189281463623046875" lon="-1.7482958547770977020263671875">
        <ele>1237</ele>
        <time>2022-05-03T11:57:15.000Z</time>
      </trkpt>
      <trkpt lat="40.805161558091640472412109375" lon="-1.74836869351565837860107421875">
        <ele>1237.4000244140625</ele>
        <time>2022-05-03T11:57:17.000Z</time>
      </trkpt>
      <trkpt lat="40.8052034676074981689453125" lon="-1.7484437115490436553955078125">
        <ele>1238</ele>
        <time>2022-05-03T11:57:19.000Z</time>
      </trkpt>
      <trkpt lat="40.80522567965090274810791015625" lon="-1.7484812624752521514892578125">
        <ele>1238.199951171875</ele>
        <time>2022-05-03T11:57:20.000Z</time>
      </trkpt>
      <trkpt lat="40.8052485622465610504150390625" lon="-1.7485204897820949554443359375">
        <ele>1238.4000244140625</ele>
        <time>2022-05-03T11:57:21.000Z</time>
      </trkpt>
      <trkpt lat="40.80529457889497280120849609375" lon="-1.74860271625220775604248046875">
        <ele>1238</ele>
        <time>2022-05-03T11:57:23.000Z</time>
      </trkpt>
      <trkpt lat="40.80533715896308422088623046875" lon="-1.74869223497807979583740234375">
        <ele>1237.5999755859375</ele>
        <time>2022-05-03T11:57:25.000Z</time>
      </trkpt>
      <trkpt lat="40.8053752966225147247314453125" lon="-1.748778484761714935302734375">
        <ele>1237.199951171875</ele>
        <time>2022-05-03T11:57:27.000Z</time>
      </trkpt>
      <trkpt lat="40.80541527830064296722412109375" lon="-1.7488534189760684967041015625">
        <ele>1236.800048828125</ele>
        <time>2022-05-03T11:57:29.000Z</time>
      </trkpt>
      <trkpt lat="40.8054582774639129638671875" lon="-1.7489251680672168731689453125">
        <ele>1236.4000244140625</ele>
        <time>2022-05-03T11:57:31.000Z</time>
      </trkpt>
      <trkpt lat="40.8054963313043117523193359375" lon="-1.74899985082447528839111328125">
        <ele>1236.199951171875</ele>
        <time>2022-05-03T11:57:33.000Z</time>
      </trkpt>
      <trkpt lat="40.80552876926958560943603515625" lon="-1.74907277338206768035888671875">
        <ele>1235.800048828125</ele>
        <time>2022-05-03T11:57:35.000Z</time>
      </trkpt>
      <trkpt lat="40.805561542510986328125" lon="-1.74913295544683933258056640625">
        <ele>1235.800048828125</ele>
        <time>2022-05-03T11:57:37.000Z</time>
      </trkpt>
      <trkpt lat="40.80559347756206989288330078125" lon="-1.749196238815784454345703125">
        <ele>1235.5999755859375</ele>
        <time>2022-05-03T11:57:39.000Z</time>
      </trkpt>
      <trkpt lat="40.80562583170831203460693359375" lon="-1.7492624558508396148681640625">
        <ele>1235.5999755859375</ele>
        <time>2022-05-03T11:57:41.000Z</time>
      </trkpt>
      <trkpt lat="40.8056572638452053070068359375" lon="-1.74933009780943393707275390625">
        <ele>1235.4000244140625</ele>
        <time>2022-05-03T11:57:43.000Z</time>
      </trkpt>
      <trkpt lat="40.80568551085889339447021484375" lon="-1.74940067343413829803466796875">
        <ele>1235.199951171875</ele>
        <time>2022-05-03T11:57:45.000Z</time>
      </trkpt>
      <trkpt lat="40.80571384169161319732666015625" lon="-1.7494599334895610809326171875">
        <ele>1235.199951171875</ele>
        <time>2022-05-03T11:57:47.000Z</time>
      </trkpt>
      <trkpt lat="40.80574234016239643096923828125" lon="-1.74950980581343173980712890625">
        <ele>1235.199951171875</ele>
        <time>2022-05-03T11:57:49.000Z</time>
      </trkpt>
      <trkpt lat="40.8057554997503757476806640625" lon="-1.74954098649322986602783203125">
        <ele>1235</ele>
        <time>2022-05-03T11:57:50.000Z</time>
      </trkpt>
      <trkpt lat="40.80576882697641849517822265625" lon="-1.7495749332010746002197265625">
        <ele>1235</ele>
        <time>2022-05-03T11:57:51.000Z</time>
      </trkpt>
      <trkpt lat="40.8057987503707408905029296875" lon="-1.74964911304414272308349609375">
        <ele>1235</ele>
        <time>2022-05-03T11:57:53.000Z</time>
      </trkpt>
      <trkpt lat="40.8058309368789196014404296875" lon="-1.74972740001976490020751953125">
        <ele>1235.4000244140625</ele>
        <time>2022-05-03T11:57:55.000Z</time>
      </trkpt>
      <trkpt lat="40.80586253665387630462646484375" lon="-1.7498106323182582855224609375">
        <ele>1236</ele>
        <time>2022-05-03T11:57:57.000Z</time>
      </trkpt>
      <trkpt lat="40.8058969862759113311767578125" lon="-1.74990274943411350250244140625">
        <ele>1236.4000244140625</ele>
        <time>2022-05-03T11:57:59.000Z</time>
      </trkpt>
      <trkpt lat="40.8059355430305004119873046875" lon="-1.74999461509287357330322265625">
        <ele>1236</ele>
        <time>2022-05-03T11:58:01.000Z</time>
      </trkpt>
      <trkpt lat="40.805973596870899200439453125" lon="-1.750086732208728790283203125">
        <ele>1235.800048828125</ele>
        <time>2022-05-03T11:58:03.000Z</time>
      </trkpt>
      <trkpt lat="40.80601257272064685821533203125" lon="-1.750177256762981414794921875">
        <ele>1235.5999755859375</ele>
        <time>2022-05-03T11:58:05.000Z</time>
      </trkpt>
      <trkpt lat="40.8060515485703945159912109375" lon="-1.75026451237499713897705078125">
        <ele>1235.199951171875</ele>
        <time>2022-05-03T11:58:07.000Z</time>
      </trkpt>
      <trkpt lat="40.80608717165887355804443359375" lon="-1.750350259244441986083984375">
        <ele>1234.800048828125</ele>
        <time>2022-05-03T11:58:09.000Z</time>
      </trkpt>
      <trkpt lat="40.8061222918331623077392578125" lon="-1.75043307244777679443359375">
        <ele>1234.4000244140625</ele>
        <time>2022-05-03T11:58:11.000Z</time>
      </trkpt>
      <trkpt lat="40.806158669292926788330078125" lon="-1.750516556203365325927734375">
        <ele>1234</ele>
        <time>2022-05-03T11:58:13.000Z</time>
      </trkpt>
      <trkpt lat="40.806177444756031036376953125" lon="-1.75055771134793758392333984375">
        <ele>1233.800048828125</ele>
        <time>2022-05-03T11:58:14.000Z</time>
      </trkpt>
      <trkpt lat="40.80619462765753269195556640625" lon="-1.750597693026065826416015625">
        <ele>1233.5999755859375</ele>
        <time>2022-05-03T11:58:15.000Z</time>
      </trkpt>
      <trkpt lat="40.8062232099473476409912109375" lon="-1.75067849457263946533203125">
        <ele>1233.199951171875</ele>
        <time>2022-05-03T11:58:17.000Z</time>
      </trkpt>
      <trkpt lat="40.8062548935413360595703125" lon="-1.750757955014705657958984375">
        <ele>1233</ele>
        <time>2022-05-03T11:58:19.000Z</time>
      </trkpt>
      <trkpt lat="40.80629437230527400970458984375" lon="-1.7508302070200443267822265625">
        <ele>1233</ele>
        <time>2022-05-03T11:58:21.000Z</time>
      </trkpt>
      <trkpt lat="40.80633066594600677490234375" lon="-1.7509093321859836578369140625">
        <ele>1232.800048828125</ele>
        <time>2022-05-03T11:58:23.000Z</time>
      </trkpt>
      <trkpt lat="40.80636276863515377044677734375" lon="-1.75098988227546215057373046875">
        <ele>1232.5999755859375</ele>
        <time>2022-05-03T11:58:25.000Z</time>
      </trkpt>
      <trkpt lat="40.806396715342998504638671875" lon="-1.7510719411075115203857421875">
        <ele>1232.4000244140625</ele>
        <time>2022-05-03T11:58:27.000Z</time>
      </trkpt>
      <trkpt lat="40.80641104839742183685302734375" lon="-1.751112006604671478271484375">
        <ele>1232.199951171875</ele>
        <time>2022-05-03T11:58:28.000Z</time>
      </trkpt>
      <trkpt lat="40.80642546527087688446044921875" lon="-1.751152575016021728515625">
        <ele>1232.199951171875</ele>
        <time>2022-05-03T11:58:29.000Z</time>
      </trkpt>
      <trkpt lat="40.806458406150341033935546875" lon="-1.7512308619916439056396484375">
        <ele>1232</ele>
        <time>2022-05-03T11:58:31.000Z</time>
      </trkpt>
      <trkpt lat="40.80649369396269321441650390625" lon="-1.751309819519519805908203125">
        <ele>1231.800048828125</ele>
        <time>2022-05-03T11:58:33.000Z</time>
      </trkpt>
      <trkpt lat="40.80653426237404346466064453125" lon="-1.7513911239802837371826171875">
        <ele>1231.5999755859375</ele>
        <time>2022-05-03T11:58:35.000Z</time>
      </trkpt>
      <trkpt lat="40.806552954018115997314453125" lon="-1.75143613480031490325927734375">
        <ele>1231.5999755859375</ele>
        <time>2022-05-03T11:58:36.000Z</time>
      </trkpt>
      <trkpt lat="40.80656963400542736053466796875" lon="-1.75148106180131435394287109375">
        <ele>1231.5999755859375</ele>
        <time>2022-05-03T11:58:37.000Z</time>
      </trkpt>
      <trkpt lat="40.80660031177103519439697265625" lon="-1.75157493911683559417724609375">
        <ele>1231.4000244140625</ele>
        <time>2022-05-03T11:58:39.000Z</time>
      </trkpt>
      <trkpt lat="40.80663115717470645904541015625" lon="-1.751667559146881103515625">
        <ele>1231.199951171875</ele>
        <time>2022-05-03T11:58:41.000Z</time>
      </trkpt>
      <trkpt lat="40.80666233785450458526611328125" lon="-1.751750372350215911865234375">
        <ele>1231</ele>
        <time>2022-05-03T11:58:43.000Z</time>
      </trkpt>
      <trkpt lat="40.806677006185054779052734375" lon="-1.7517887614667415618896484375">
        <ele>1231</ele>
        <time>2022-05-03T11:58:44.000Z</time>
      </trkpt>
      <trkpt lat="40.8066915906965732574462890625" lon="-1.751826144754886627197265625">
        <ele>1230.800048828125</ele>
        <time>2022-05-03T11:58:45.000Z</time>
      </trkpt>
      <trkpt lat="40.8067217655479907989501953125" lon="-1.7519087903201580047607421875">
        <ele>1230.5999755859375</ele>
        <time>2022-05-03T11:58:47.000Z</time>
      </trkpt>
      <trkpt lat="40.8067593164741992950439453125" lon="-1.7519976384937763214111328125">
        <ele>1230.5999755859375</ele>
        <time>2022-05-03T11:58:49.000Z</time>
      </trkpt>
      <trkpt lat="40.8068012259900569915771484375" lon="-1.752090342342853546142578125">
        <ele>1230.5999755859375</ele>
        <time>2022-05-03T11:58:51.000Z</time>
      </trkpt>
      <trkpt lat="40.8068210072815418243408203125" lon="-1.752140633761882781982421875">
        <ele>1230.5999755859375</ele>
        <time>2022-05-03T11:58:52.000Z</time>
      </trkpt>
      <trkpt lat="40.8068411238491535186767578125" lon="-1.75219218246638774871826171875">
        <ele>1230.4000244140625</ele>
        <time>2022-05-03T11:58:53.000Z</time>
      </trkpt>
      <trkpt lat="40.80688051879405975341796875" lon="-1.75229494459927082061767578125">
        <ele>1230.4000244140625</ele>
        <time>2022-05-03T11:58:55.000Z</time>
      </trkpt>
      <trkpt lat="40.8069189079105854034423828125" lon="-1.75239150412380695343017578125">
        <ele>1230.4000244140625</ele>
        <time>2022-05-03T11:58:57.000Z</time>
      </trkpt>
      <trkpt lat="40.8069549500942230224609375" lon="-1.75248387269675731658935546875">
        <ele>1230.5999755859375</ele>
        <time>2022-05-03T11:58:59.000Z</time>
      </trkpt>
      <trkpt lat="40.80697213299572467803955078125" lon="-1.75253064371645450592041015625">
        <ele>1230.800048828125</ele>
        <time>2022-05-03T11:59:00.000Z</time>
      </trkpt>
      <trkpt lat="40.8069889806210994720458984375" lon="-1.7525766603648662567138671875">
        <ele>1230.800048828125</ele>
        <time>2022-05-03T11:59:01.000Z</time>
      </trkpt>
      <trkpt lat="40.8070238493382930755615234375" lon="-1.75266643054783344268798828125">
        <ele>1230.4000244140625</ele>
        <time>2022-05-03T11:59:03.000Z</time>
      </trkpt>
      <trkpt lat="40.8070533536374568939208984375" lon="-1.75274706445634365081787109375">
        <ele>1230</ele>
        <time>2022-05-03T11:59:05.000Z</time>
      </trkpt>
      <trkpt lat="40.80708696506917476654052734375" lon="-1.75283038057386875152587890625">
        <ele>1229.4000244140625</ele>
        <time>2022-05-03T11:59:07.000Z</time>
      </trkpt>
      <trkpt lat="40.8071264438331127166748046875" lon="-1.75292157568037509918212890625">
        <ele>1228.800048828125</ele>
        <time>2022-05-03T11:59:09.000Z</time>
      </trkpt>
      <trkpt lat="40.80715988762676715850830078125" lon="-1.7530229128897190093994140625">
        <ele>1228.199951171875</ele>
        <time>2022-05-03T11:59:11.000Z</time>
      </trkpt>
      <trkpt lat="40.8071883022785186767578125" lon="-1.75312307663261890411376953125">
        <ele>1227.5999755859375</ele>
        <time>2022-05-03T11:59:13.000Z</time>
      </trkpt>
      <trkpt lat="40.80720598809421062469482421875" lon="-1.75317202694714069366455078125">
        <ele>1227.199951171875</ele>
        <time>2022-05-03T11:59:14.000Z</time>
      </trkpt>
      <trkpt lat="40.80722250044345855712890625" lon="-1.75322215072810649871826171875">
        <ele>1227</ele>
        <time>2022-05-03T11:59:15.000Z</time>
      </trkpt>
      <trkpt lat="40.80725242383778095245361328125" lon="-1.753322146832942962646484375">
        <ele>1227</ele>
        <time>2022-05-03T11:59:17.000Z</time>
      </trkpt>
      <trkpt lat="40.8072709478437900543212890625" lon="-1.7533692531287670135498046875">
        <ele>1227</ele>
        <time>2022-05-03T11:59:18.000Z</time>
      </trkpt>
      <trkpt lat="40.807292573153972625732421875" lon="-1.753413341939449310302734375">
        <ele>1227</ele>
        <time>2022-05-03T11:59:19.000Z</time>
      </trkpt>
      <trkpt lat="40.8073376677930355072021484375" lon="-1.75349347293376922607421875">
        <ele>1227.199951171875</ele>
        <time>2022-05-03T11:59:21.000Z</time>
      </trkpt>
      <trkpt lat="40.80738200806081295013427734375" lon="-1.75356052815914154052734375">
        <ele>1227.5999755859375</ele>
        <time>2022-05-03T11:59:23.000Z</time>
      </trkpt>
      <trkpt lat="40.80743263475596904754638671875" lon="-1.7536247335374355316162109375">
        <ele>1227.800048828125</ele>
        <time>2022-05-03T11:59:25.000Z</time>
      </trkpt>
      <trkpt lat="40.807484686374664306640625" lon="-1.75369740463793277740478515625">
        <ele>1228.199951171875</ele>
        <time>2022-05-03T11:59:27.000Z</time>
      </trkpt>
      <trkpt lat="40.80753489397466182708740234375" lon="-1.75378256477415561676025390625">
        <ele>1228.199951171875</ele>
        <time>2022-05-03T11:59:29.000Z</time>
      </trkpt>
      <trkpt lat="40.80758820287883281707763671875" lon="-1.75387342460453510284423828125">
        <ele>1228.199951171875</ele>
        <time>2022-05-03T11:59:31.000Z</time>
      </trkpt>
      <trkpt lat="40.8076156117022037506103515625" lon="-1.753918267786502838134765625">
        <ele>1228</ele>
        <time>2022-05-03T11:59:32.000Z</time>
      </trkpt>
      <trkpt lat="40.80764117650687694549560546875" lon="-1.75396210514008998870849609375">
        <ele>1228</ele>
        <time>2022-05-03T11:59:33.000Z</time>
      </trkpt>
      <trkpt lat="40.80768811516463756561279296875" lon="-1.75404257141053676605224609375">
        <ele>1228</ele>
        <time>2022-05-03T11:59:35.000Z</time>
      </trkpt>
      <trkpt lat="40.80773086287081241607666015625" lon="-1.75411566160619258880615234375">
        <ele>1228</ele>
        <time>2022-05-03T11:59:37.000Z</time>
      </trkpt>
      <trkpt lat="40.80776925198733806610107421875" lon="-1.75417684949934482574462890625">
        <ele>1228.199951171875</ele>
        <time>2022-05-03T11:59:39.000Z</time>
      </trkpt>
      <trkpt lat="40.8077990077435970306396484375" lon="-1.75422714091837406158447265625">
        <ele>1228.199951171875</ele>
        <time>2022-05-03T11:59:41.000Z</time>
      </trkpt>
      <trkpt lat="40.8078127540647983551025390625" lon="-1.7542513646185398101806640625">
        <ele>1228.199951171875</ele>
        <time>2022-05-03T11:59:42.000Z</time>
      </trkpt>
      <trkpt lat="40.8078271709382534027099609375" lon="-1.75427558831870555877685546875">
        <ele>1228.199951171875</ele>
        <time>2022-05-03T11:59:43.000Z</time>
      </trkpt>
      <trkpt lat="40.80785709433257579803466796875" lon="-1.75432587973773479461669921875">
        <ele>1228.199951171875</ele>
        <time>2022-05-03T11:59:45.000Z</time>
      </trkpt>
      <trkpt lat="40.80788726918399333953857421875" lon="-1.7543868161737918853759765625">
        <ele>1228</ele>
        <time>2022-05-03T11:59:47.000Z</time>
      </trkpt>
      <trkpt lat="40.80792850814759731292724609375" lon="-1.75445781089365482330322265625">
        <ele>1227.800048828125</ele>
        <time>2022-05-03T11:59:49.000Z</time>
      </trkpt>
      <trkpt lat="40.80797578208148479461669921875" lon="-1.75453626550734043121337890625">
        <ele>1227.5999755859375</ele>
        <time>2022-05-03T11:59:51.000Z</time>
      </trkpt>
      <trkpt lat="40.808026827871799468994140625" lon="-1.75462159328162670135498046875">
        <ele>1227.4000244140625</ele>
        <time>2022-05-03T11:59:53.000Z</time>
      </trkpt>
      <trkpt lat="40.808079130947589874267578125" lon="-1.7547090165317058563232421875">
        <ele>1227.199951171875</ele>
        <time>2022-05-03T11:59:55.000Z</time>
      </trkpt>
      <trkpt lat="40.8081324398517608642578125" lon="-1.7548028938472270965576171875">
        <ele>1227</ele>
        <time>2022-05-03T11:59:57.000Z</time>
      </trkpt>
      <trkpt lat="40.8081901073455810546875" lon="-1.75489953719079494476318359375">
        <ele>1227</ele>
        <time>2022-05-03T11:59:59.000Z</time>
      </trkpt>
      <trkpt lat="40.8082533068954944610595703125" lon="-1.755001880228519439697265625">
        <ele>1227.199951171875</ele>
        <time>2022-05-03T12:00:01.000Z</time>
      </trkpt>
      <trkpt lat="40.80831281840801239013671875" lon="-1.75511361099779605865478515625">
        <ele>1227.4000244140625</ele>
        <time>2022-05-03T12:00:03.000Z</time>
      </trkpt>
      <trkpt lat="40.8083726651966571807861328125" lon="-1.75522827543318271636962890625">
        <ele>1227.4000244140625</ele>
        <time>2022-05-03T12:00:05.000Z</time>
      </trkpt>
      <trkpt lat="40.80842840485274791717529296875" lon="-1.7553408443927764892578125">
        <ele>1227.5999755859375</ele>
        <time>2022-05-03T12:00:07.000Z</time>
      </trkpt>
      <trkpt lat="40.8084759302437305450439453125" lon="-1.755449138581752777099609375">
        <ele>1228</ele>
        <time>2022-05-03T12:00:09.000Z</time>
      </trkpt>
      <trkpt lat="40.808520354330539703369140625" lon="-1.7555527389049530029296875">
        <ele>1228.5999755859375</ele>
        <time>2022-05-03T12:00:11.000Z</time>
      </trkpt>
      <trkpt lat="40.8085634373128414154052734375" lon="-1.75565776415169239044189453125">
        <ele>1229.199951171875</ele>
        <time>2022-05-03T12:00:13.000Z</time>
      </trkpt>
      <trkpt lat="40.80860593356192111968994140625" lon="-1.75576287321746349334716796875">
        <ele>1229.5999755859375</ele>
        <time>2022-05-03T12:00:15.000Z</time>
      </trkpt>
      <trkpt lat="40.808648765087127685546875" lon="-1.75586446188390254974365234375">
        <ele>1229.800048828125</ele>
        <time>2022-05-03T12:00:17.000Z</time>
      </trkpt>
      <trkpt lat="40.8086881600320339202880859375" lon="-1.75597242079675197601318359375">
        <ele>1229.5999755859375</ele>
        <time>2022-05-03T12:00:19.000Z</time>
      </trkpt>
      <trkpt lat="40.8087327517569065093994140625" lon="-1.75608021207153797149658203125">
        <ele>1229.199951171875</ele>
        <time>2022-05-03T12:00:21.000Z</time>
      </trkpt>
      <trkpt lat="40.80877960659563541412353515625" lon="-1.7561817169189453125">
        <ele>1228.800048828125</ele>
        <time>2022-05-03T12:00:23.000Z</time>
      </trkpt>
      <trkpt lat="40.808823108673095703125" lon="-1.75627249293029308319091796875">
        <ele>1228.4000244140625</ele>
        <time>2022-05-03T12:00:25.000Z</time>
      </trkpt>
      <trkpt lat="40.8088665269315242767333984375" lon="-1.7563649453222751617431640625">
        <ele>1228.199951171875</ele>
        <time>2022-05-03T12:00:27.000Z</time>
      </trkpt>
      <trkpt lat="40.808914639055728912353515625" lon="-1.75646401941776275634765625">
        <ele>1227.5999755859375</ele>
        <time>2022-05-03T12:00:29.000Z</time>
      </trkpt>
      <trkpt lat="40.80896400846540927886962890625" lon="-1.7565694637596607208251953125">
        <ele>1227.199951171875</ele>
        <time>2022-05-03T12:00:31.000Z</time>
      </trkpt>
      <trkpt lat="40.80901614390313625335693359375" lon="-1.75667851231992244720458984375">
        <ele>1227.199951171875</ele>
        <time>2022-05-03T12:00:33.000Z</time>
      </trkpt>
      <trkpt lat="40.8090680278837680816650390625" lon="-1.7567873932421207427978515625">
        <ele>1227</ele>
        <time>2022-05-03T12:00:35.000Z</time>
      </trkpt>
      <trkpt lat="40.80911974422633647918701171875" lon="-1.756896860897541046142578125">
        <ele>1226.800048828125</ele>
        <time>2022-05-03T12:00:37.000Z</time>
      </trkpt>
      <trkpt lat="40.80917288549244403839111328125" lon="-1.75700456835329532623291015625">
        <ele>1226.800048828125</ele>
        <time>2022-05-03T12:00:39.000Z</time>
      </trkpt>
      <trkpt lat="40.80922267399728298187255859375" lon="-1.75710699521005153656005859375">
        <ele>1226.5999755859375</ele>
        <time>2022-05-03T12:00:41.000Z</time>
      </trkpt>
      <trkpt lat="40.80927036702632904052734375" lon="-1.75720523111522197723388671875">
        <ele>1226.800048828125</ele>
        <time>2022-05-03T12:00:43.000Z</time>
      </trkpt>
      <trkpt lat="40.809316299855709075927734375" lon="-1.75730531103909015655517578125">
        <ele>1226.800048828125</ele>
        <time>2022-05-03T12:00:45.000Z</time>
      </trkpt>
      <trkpt lat="40.809361897408962249755859375" lon="-1.75740874372422695159912109375">
        <ele>1226.800048828125</ele>
        <time>2022-05-03T12:00:47.000Z</time>
      </trkpt>
      <trkpt lat="40.80940757878124713897705078125" lon="-1.7575055547058582305908203125">
        <ele>1226.800048828125</ele>
        <time>2022-05-03T12:00:49.000Z</time>
      </trkpt>
      <trkpt lat="40.8094562776386737823486328125" lon="-1.75759498961269855499267578125">
        <ele>1227</ele>
        <time>2022-05-03T12:00:51.000Z</time>
      </trkpt>
      <trkpt lat="40.80951034091413021087646484375" lon="-1.75767864100635051727294921875">
        <ele>1227</ele>
        <time>2022-05-03T12:00:53.000Z</time>
      </trkpt>
      <trkpt lat="40.80953900702297687530517578125" lon="-1.75771904177963733673095703125">
        <ele>1227</ele>
        <time>2022-05-03T12:00:54.000Z</time>
      </trkpt>
      <trkpt lat="40.8095689304172992706298828125" lon="-1.7577573470771312713623046875">
        <ele>1227.199951171875</ele>
        <time>2022-05-03T12:00:55.000Z</time>
      </trkpt>
      <trkpt lat="40.80963221378624439239501953125" lon="-1.757830269634723663330078125">
        <ele>1227.4000244140625</ele>
        <time>2022-05-03T12:00:57.000Z</time>
      </trkpt>
      <trkpt lat="40.8096946589648723602294921875" lon="-1.75790168344974517822265625">
        <ele>1227.5999755859375</ele>
        <time>2022-05-03T12:00:59.000Z</time>
      </trkpt>
      <trkpt lat="40.80975945107638835906982421875" lon="-1.757969744503498077392578125">
        <ele>1227.5999755859375</ele>
        <time>2022-05-03T12:01:01.000Z</time>
      </trkpt>
      <trkpt lat="40.80979096703231334686279296875" lon="-1.7580037750303745269775390625">
        <ele>1227.4000244140625</ele>
        <time>2022-05-03T12:01:02.000Z</time>
      </trkpt>
      <trkpt lat="40.80982130952179431915283203125" lon="-1.75803788937628269195556640625">
        <ele>1227.199951171875</ele>
        <time>2022-05-03T12:01:03.000Z</time>
      </trkpt>
      <trkpt lat="40.809852741658687591552734375" lon="-1.758070327341556549072265625">
        <ele>1227.199951171875</ele>
        <time>2022-05-03T12:01:04.000Z</time>
      </trkpt>
      <trkpt lat="40.80988467670977115631103515625" lon="-1.75810243003070354461669921875">
        <ele>1227</ele>
        <time>2022-05-03T12:01:05.000Z</time>
      </trkpt>
      <trkpt lat="40.80994921736419200897216796875" lon="-1.75817015580832958221435546875">
        <ele>1226.800048828125</ele>
        <time>2022-05-03T12:01:07.000Z</time>
      </trkpt>
      <trkpt lat="40.810015685856342315673828125" lon="-1.7582429945468902587890625">
        <ele>1226.5999755859375</ele>
        <time>2022-05-03T12:01:09.000Z</time>
      </trkpt>
      <trkpt lat="40.810084752738475799560546875" lon="-1.75831398926675319671630859375">
        <ele>1226.4000244140625</ele>
        <time>2022-05-03T12:01:11.000Z</time>
      </trkpt>
      <trkpt lat="40.81012004055082798004150390625" lon="-1.7583511210978031158447265625">
        <ele>1226.199951171875</ele>
        <time>2022-05-03T12:01:12.000Z</time>
      </trkpt>
      <trkpt lat="40.81015423871576786041259765625" lon="-1.75838724710047245025634765625">
        <ele>1226</ele>
        <time>2022-05-03T12:01:13.000Z</time>
      </trkpt>
      <trkpt lat="40.8102233894169330596923828125" lon="-1.7584587447345256805419921875">
        <ele>1225.800048828125</ele>
        <time>2022-05-03T12:01:15.000Z</time>
      </trkpt>
      <trkpt lat="40.8102901093661785125732421875" lon="-1.75853091292083263397216796875">
        <ele>1225.800048828125</ele>
        <time>2022-05-03T12:01:17.000Z</time>
      </trkpt>
      <trkpt lat="40.81035959534347057342529296875" lon="-1.7586022429168224334716796875">
        <ele>1226</ele>
        <time>2022-05-03T12:01:19.000Z</time>
      </trkpt>
      <trkpt lat="40.8103935420513153076171875" lon="-1.75863702781498432159423828125">
        <ele>1226.199951171875</ele>
        <time>2022-05-03T12:01:20.000Z</time>
      </trkpt>
      <trkpt lat="40.8104258961975574493408203125" lon="-1.758670471608638763427734375">
        <ele>1226.199951171875</ele>
        <time>2022-05-03T12:01:21.000Z</time>
      </trkpt>
      <trkpt lat="40.810485072433948516845703125" lon="-1.758739538490772247314453125">
        <ele>1226.4000244140625</ele>
        <time>2022-05-03T12:01:23.000Z</time>
      </trkpt>
      <trkpt lat="40.81053427420556545257568359375" lon="-1.75880315713584423065185546875">
        <ele>1226.5999755859375</ele>
        <time>2022-05-03T12:01:25.000Z</time>
      </trkpt>
      <trkpt lat="40.81057953648269176483154296875" lon="-1.758855544030666351318359375">
        <ele>1226.5999755859375</ele>
        <time>2022-05-03T12:01:27.000Z</time>
      </trkpt>
      <trkpt lat="40.81061876378953456878662109375" lon="-1.75890575163066387176513671875">
        <ele>1226.5999755859375</ele>
        <time>2022-05-03T12:01:29.000Z</time>
      </trkpt>
      <trkpt lat="40.81066134385764598846435546875" lon="-1.75895520485937595367431640625">
        <ele>1226.4000244140625</ele>
        <time>2022-05-03T12:01:31.000Z</time>
      </trkpt>
      <trkpt lat="40.810709036886692047119140625" lon="-1.75900365225970745086669921875">
        <ele>1226.5999755859375</ele>
        <time>2022-05-03T12:01:33.000Z</time>
      </trkpt>
      <trkpt lat="40.810733847320079803466796875" lon="-1.75902829505503177642822265625">
        <ele>1226.800048828125</ele>
        <time>2022-05-03T12:01:34.000Z</time>
      </trkpt>
      <trkpt lat="40.810759328305721282958984375" lon="-1.75905394367873668670654296875">
        <ele>1226.800048828125</ele>
        <time>2022-05-03T12:01:35.000Z</time>
      </trkpt>
      <trkpt lat="40.8108104579150676727294921875" lon="-1.75910842604935169219970703125">
        <ele>1226.800048828125</ele>
        <time>2022-05-03T12:01:37.000Z</time>
      </trkpt>
      <trkpt lat="40.81086033023893833160400390625" lon="-1.7591614834964275360107421875">
        <ele>1226.800048828125</ele>
        <time>2022-05-03T12:01:39.000Z</time>
      </trkpt>
      <trkpt lat="40.8108815364539623260498046875" lon="-1.75919308327138423919677734375">
        <ele>1226.800048828125</ele>
        <time>2022-05-03T12:01:40.000Z</time>
      </trkpt>
      <trkpt lat="40.810898803174495697021484375" lon="-1.75922862254083156585693359375">
        <ele>1226.800048828125</ele>
        <time>2022-05-03T12:01:41.000Z</time>
      </trkpt>
      <trkpt lat="40.810923613607883453369140625" lon="-1.75930288620293140411376953125">
        <ele>1226.800048828125</ele>
        <time>2022-05-03T12:01:43.000Z</time>
      </trkpt>
      <trkpt lat="40.810945741832256317138671875" lon="-1.75937966443598270416259765625">
        <ele>1227</ele>
        <time>2022-05-03T12:01:45.000Z</time>
      </trkpt>
      <trkpt lat="40.81096694804728031158447265625" lon="-1.75946029834449291229248046875">
        <ele>1227</ele>
        <time>2022-05-03T12:01:47.000Z</time>
      </trkpt>
      <trkpt lat="40.81099142320454120635986328125" lon="-1.75954227335751056671142578125">
        <ele>1227</ele>
        <time>2022-05-03T12:01:49.000Z</time>
      </trkpt>
      <trkpt lat="40.8110163174569606781005859375" lon="-1.7596238292753696441650390625">
        <ele>1227.199951171875</ele>
        <time>2022-05-03T12:01:51.000Z</time>
      </trkpt>
      <trkpt lat="40.811040960252285003662109375" lon="-1.75970521755516529083251953125">
        <ele>1227.199951171875</ele>
        <time>2022-05-03T12:01:53.000Z</time>
      </trkpt>
      <trkpt lat="40.81106702797114849090576171875" lon="-1.75978551618754863739013671875">
        <ele>1227.199951171875</ele>
        <time>2022-05-03T12:01:55.000Z</time>
      </trkpt>
      <trkpt lat="40.8110917545855045318603515625" lon="-1.7598638869822025299072265625">
        <ele>1227.4000244140625</ele>
        <time>2022-05-03T12:01:57.000Z</time>
      </trkpt>
      <trkpt lat="40.811116062104701995849609375" lon="-1.75994527526199817657470703125">
        <ele>1227.5999755859375</ele>
        <time>2022-05-03T12:01:59.000Z</time>
      </trkpt>
      <trkpt lat="40.81112779676914215087890625" lon="-1.75998617894947528839111328125">
        <ele>1227.800048828125</ele>
        <time>2022-05-03T12:02:00.000Z</time>
      </trkpt>
      <trkpt lat="40.8111400343477725982666015625" lon="-1.7600268311798572540283203125">
        <ele>1227.800048828125</ele>
        <time>2022-05-03T12:02:01.000Z</time>
      </trkpt>
      <trkpt lat="40.81115168519318103790283203125" lon="-1.7600663937628269195556640625">
        <ele>1228</ele>
        <time>2022-05-03T12:02:02.000Z</time>
      </trkpt>
      <trkpt lat="40.81116409040987491607666015625" lon="-1.760104112327098846435546875">
        <ele>1228</ele>
        <time>2022-05-03T12:02:03.000Z</time>
      </trkpt>
      <trkpt lat="40.8111879788339138031005859375" lon="-1.76017778925597667694091796875">
        <ele>1228.4000244140625</ele>
        <time>2022-05-03T12:02:05.000Z</time>
      </trkpt>
      <trkpt lat="40.8112124539911746978759765625" lon="-1.76025205291807651519775390625">
        <ele>1228.5999755859375</ele>
        <time>2022-05-03T12:02:07.000Z</time>
      </trkpt>
      <trkpt lat="40.81123466603457927703857421875" lon="-1.7603262327611446380615234375">
        <ele>1228.800048828125</ele>
        <time>2022-05-03T12:02:09.000Z</time>
      </trkpt>
      <trkpt lat="40.811256878077983856201171875" lon="-1.76039873622357845306396484375">
        <ele>1229</ele>
        <time>2022-05-03T12:02:11.000Z</time>
      </trkpt>
      <trkpt lat="40.8112786710262298583984375" lon="-1.76047316752374172210693359375">
        <ele>1229.199951171875</ele>
        <time>2022-05-03T12:02:13.000Z</time>
      </trkpt>
      <trkpt lat="40.81129903905093669891357421875" lon="-1.76054709590971469879150390625">
        <ele>1229.5999755859375</ele>
        <time>2022-05-03T12:02:15.000Z</time>
      </trkpt>
      <trkpt lat="40.8113230951130390167236328125" lon="-1.76062018610537052154541015625">
        <ele>1229.800048828125</ele>
        <time>2022-05-03T12:02:17.000Z</time>
      </trkpt>
      <trkpt lat="40.81133407540619373321533203125" lon="-1.76065773703157901763916015625">
        <ele>1229.800048828125</ele>
        <time>2022-05-03T12:02:18.000Z</time>
      </trkpt>
      <trkpt lat="40.81134446896612644195556640625" lon="-1.760694198310375213623046875">
        <ele>1230</ele>
        <time>2022-05-03T12:02:19.000Z</time>
      </trkpt>
      <trkpt lat="40.81136274151504039764404296875" lon="-1.7607614211738109588623046875">
        <ele>1230.199951171875</ele>
        <time>2022-05-03T12:02:21.000Z</time>
      </trkpt>
      <trkpt lat="40.811382941901683807373046875" lon="-1.76082839258015155792236328125">
        <ele>1230.4000244140625</ele>
        <time>2022-05-03T12:02:23.000Z</time>
      </trkpt>
      <trkpt lat="40.811403729021549224853515625" lon="-1.7608956992626190185546875">
        <ele>1230.800048828125</ele>
        <time>2022-05-03T12:02:25.000Z</time>
      </trkpt>
      <trkpt lat="40.81141286529600620269775390625" lon="-1.76092721521854400634765625">
        <ele>1230.800048828125</ele>
        <time>2022-05-03T12:02:26.000Z</time>
      </trkpt>
      <trkpt lat="40.81142107956111431121826171875" lon="-1.76095965318381786346435546875">
        <ele>1231</ele>
        <time>2022-05-03T12:02:27.000Z</time>
      </trkpt>
      <trkpt lat="40.8114397712051868438720703125" lon="-1.76102151162922382354736328125">
        <ele>1231.4000244140625</ele>
        <time>2022-05-03T12:02:29.000Z</time>
      </trkpt>
      <trkpt lat="40.81145930103957653045654296875" lon="-1.7610846273601055145263671875">
        <ele>1231.5999755859375</ele>
        <time>2022-05-03T12:02:31.000Z</time>
      </trkpt>
      <trkpt lat="40.8114766515791416168212890625" lon="-1.76114983856678009033203125">
        <ele>1232</ele>
        <time>2022-05-03T12:02:33.000Z</time>
      </trkpt>
      <trkpt lat="40.8114934153854846954345703125" lon="-1.76121261902153491973876953125">
        <ele>1232.199951171875</ele>
        <time>2022-05-03T12:02:35.000Z</time>
      </trkpt>
      <trkpt lat="40.8115012943744659423828125" lon="-1.7612438835203647613525390625">
        <ele>1232.4000244140625</ele>
        <time>2022-05-03T12:02:36.000Z</time>
      </trkpt>
      <trkpt lat="40.81150858663022518157958984375" lon="-1.7612753994762897491455078125">
        <ele>1232.4000244140625</ele>
        <time>2022-05-03T12:02:37.000Z</time>
      </trkpt>
      <trkpt lat="40.81152166239917278289794921875" lon="-1.76133650355041027069091796875">
        <ele>1232.800048828125</ele>
        <time>2022-05-03T12:02:39.000Z</time>
      </trkpt>
      <trkpt lat="40.81153255887329578399658203125" lon="-1.76139936782419681549072265625">
        <ele>1233</ele>
        <time>2022-05-03T12:02:41.000Z</time>
      </trkpt>
      <trkpt lat="40.81154244951903820037841796875" lon="-1.76145485602319240570068359375">
        <ele>1233.199951171875</ele>
        <time>2022-05-03T12:02:43.000Z</time>
      </trkpt>
      <trkpt lat="40.81154496408998966217041015625" lon="-1.7614819295704364776611328125">
        <ele>1233.199951171875</ele>
        <time>2022-05-03T12:02:44.000Z</time>
      </trkpt>
      <trkpt lat="40.8115473948419094085693359375" lon="-1.761506237089633941650390625">
        <ele>1233.4000244140625</ele>
        <time>2022-05-03T12:02:45.000Z</time>
      </trkpt>
      <trkpt lat="40.81154999323189258575439453125" lon="-1.76155879162251949310302734375">
        <ele>1233.4000244140625</ele>
        <time>2022-05-03T12:02:47.000Z</time>
      </trkpt>
      <trkpt lat="40.81155158579349517822265625" lon="-1.7616143636405467987060546875">
        <ele>1233.800048828125</ele>
        <time>2022-05-03T12:02:49.000Z</time>
      </trkpt>
      <trkpt lat="40.8115530945360660552978515625" lon="-1.76166876219213008880615234375">
        <ele>1234</ele>
        <time>2022-05-03T12:02:51.000Z</time>
      </trkpt>
      <trkpt lat="40.811553932726383209228515625" lon="-1.76169659011065959930419921875">
        <ele>1234.199951171875</ele>
        <time>2022-05-03T12:02:52.000Z</time>
      </trkpt>
      <trkpt lat="40.8115537650883197784423828125" lon="-1.761724837124347686767578125">
        <ele>1234.199951171875</ele>
        <time>2022-05-03T12:02:53.000Z</time>
      </trkpt>
      <trkpt lat="40.81155250780284404754638671875" lon="-1.76177973859012126922607421875">
        <ele>1234.5999755859375</ele>
        <time>2022-05-03T12:02:55.000Z</time>
      </trkpt>
      <trkpt lat="40.81155267544090747833251953125" lon="-1.7618358135223388671875">
        <ele>1234.800048828125</ele>
        <time>2022-05-03T12:02:57.000Z</time>
      </trkpt>
      <trkpt lat="40.81155066378414630889892578125" lon="-1.7618963308632373809814453125">
        <ele>1235</ele>
        <time>2022-05-03T12:02:59.000Z</time>
      </trkpt>
      <trkpt lat="40.81155250780284404754638671875" lon="-1.76195693202316761016845703125">
        <ele>1235.4000244140625</ele>
        <time>2022-05-03T12:03:01.000Z</time>
      </trkpt>
      <trkpt lat="40.81155401654541492462158203125" lon="-1.76201459951698780059814453125">
        <ele>1235.5999755859375</ele>
        <time>2022-05-03T12:03:03.000Z</time>
      </trkpt>
      <trkpt lat="40.81155301071703433990478515625" lon="-1.762069500982761383056640625">
        <ele>1236</ele>
        <time>2022-05-03T12:03:05.000Z</time>
      </trkpt>
      <trkpt lat="40.811551250517368316650390625" lon="-1.76212708465754985809326171875">
        <ele>1236.199951171875</ele>
        <time>2022-05-03T12:03:07.000Z</time>
      </trkpt>
      <trkpt lat="40.81155024468898773193359375" lon="-1.7621870152652263641357421875">
        <ele>1236.4000244140625</ele>
        <time>2022-05-03T12:03:09.000Z</time>
      </trkpt>
      <trkpt lat="40.81155016086995601654052734375" lon="-1.76221844740211963653564453125">
        <ele>1236.5999755859375</ele>
        <time>2022-05-03T12:03:10.000Z</time>
      </trkpt>
      <trkpt lat="40.81154999323189258575439453125" lon="-1.76224828697741031646728515625">
        <ele>1236.5999755859375</ele>
        <time>2022-05-03T12:03:11.000Z</time>
      </trkpt>
      <trkpt lat="40.81154622137546539306640625" lon="-1.76230561919510364532470703125">
        <ele>1236.800048828125</ele>
        <time>2022-05-03T12:03:13.000Z</time>
      </trkpt>
      <trkpt lat="40.811547227203845977783203125" lon="-1.762362532317638397216796875">
        <ele>1237</ele>
        <time>2022-05-03T12:03:15.000Z</time>
      </trkpt>
      <trkpt lat="40.81154488027095794677734375" lon="-1.76241994835436344146728515625">
        <ele>1237</ele>
        <time>2022-05-03T12:03:17.000Z</time>
      </trkpt>
      <trkpt lat="40.81154429353773593902587890625" lon="-1.76244936883449554443359375">
        <ele>1237</ele>
        <time>2022-05-03T12:03:18.000Z</time>
      </trkpt>
      <trkpt lat="40.8115447126328945159912109375" lon="-1.7624795436859130859375">
        <ele>1237</ele>
        <time>2022-05-03T12:03:19.000Z</time>
      </trkpt>
      <trkpt lat="40.81154429353773593902587890625" lon="-1.7625398933887481689453125">
        <ele>1237</ele>
        <time>2022-05-03T12:03:21.000Z</time>
      </trkpt>
      <trkpt lat="40.81154362298548221588134765625" lon="-1.76260116510093212127685546875">
        <ele>1237</ele>
        <time>2022-05-03T12:03:23.000Z</time>
      </trkpt>
      <trkpt lat="40.81154429353773593902587890625" lon="-1.76266637630760669708251953125">
        <ele>1237</ele>
        <time>2022-05-03T12:03:25.000Z</time>
      </trkpt>
      <trkpt lat="40.81154462881386280059814453125" lon="-1.7627356946468353271484375">
        <ele>1237</ele>
        <time>2022-05-03T12:03:27.000Z</time>
      </trkpt>
      <trkpt lat="40.81154513172805309295654296875" lon="-1.76281071268022060394287109375">
        <ele>1237</ele>
        <time>2022-05-03T12:03:29.000Z</time>
      </trkpt>
      <trkpt lat="40.8115480653941631317138671875" lon="-1.7628910951316356658935546875">
        <ele>1237</ele>
        <time>2022-05-03T12:03:31.000Z</time>
      </trkpt>
      <trkpt lat="40.81155066378414630889892578125" lon="-1.7629682086408138275146484375">
        <ele>1237</ele>
        <time>2022-05-03T12:03:33.000Z</time>
      </trkpt>
      <trkpt lat="40.81154932267963886260986328125" lon="-1.76304087974131107330322265625">
        <ele>1237</ele>
        <time>2022-05-03T12:03:35.000Z</time>
      </trkpt>
      <trkpt lat="40.81154831685125827789306640625" lon="-1.76312034018337726593017578125">
        <ele>1237</ele>
        <time>2022-05-03T12:03:37.000Z</time>
      </trkpt>
      <trkpt lat="40.81154622137546539306640625" lon="-1.7632059194147586822509765625">
        <ele>1237.199951171875</ele>
        <time>2022-05-03T12:03:39.000Z</time>
      </trkpt>
      <trkpt lat="40.81154395826160907745361328125" lon="-1.76329619251191616058349609375">
        <ele>1236.800048828125</ele>
        <time>2022-05-03T12:03:41.000Z</time>
      </trkpt>
      <trkpt lat="40.8115376718342304229736328125" lon="-1.76338923163712024688720703125">
        <ele>1236.5999755859375</ele>
        <time>2022-05-03T12:03:43.000Z</time>
      </trkpt>
      <trkpt lat="40.81153012812137603759765625" lon="-1.763485372066497802734375">
        <ele>1236.199951171875</ele>
        <time>2022-05-03T12:03:45.000Z</time>
      </trkpt>
      <trkpt lat="40.81153071485459804534912109375" lon="-1.76358033902943134307861328125">
        <ele>1235.800048828125</ele>
        <time>2022-05-03T12:03:47.000Z</time>
      </trkpt>
      <trkpt lat="40.8115334808826446533203125" lon="-1.76367270760238170623779296875">
        <ele>1235.5999755859375</ele>
        <time>2022-05-03T12:03:49.000Z</time>
      </trkpt>
      <trkpt lat="40.81153373233973979949951171875" lon="-1.76376809366047382354736328125">
        <ele>1235.199951171875</ele>
        <time>2022-05-03T12:03:51.000Z</time>
      </trkpt>
      <trkpt lat="40.81153322942554950714111328125" lon="-1.76385928876698017120361328125">
        <ele>1234.800048828125</ele>
        <time>2022-05-03T12:03:53.000Z</time>
      </trkpt>
      <trkpt lat="40.811529457569122314453125" lon="-1.76394738256931304931640625">
        <ele>1234.5999755859375</ele>
        <time>2022-05-03T12:03:55.000Z</time>
      </trkpt>
      <trkpt lat="40.8115299604833126068115234375" lon="-1.76403530873358249664306640625">
        <ele>1234.199951171875</ele>
        <time>2022-05-03T12:03:57.000Z</time>
      </trkpt>
      <trkpt lat="40.81152669154107570648193359375" lon="-1.764129102230072021484375">
        <ele>1234.199951171875</ele>
        <time>2022-05-03T12:03:59.000Z</time>
      </trkpt>
      <trkpt lat="40.81152115948498249053955078125" lon="-1.76422893069684505462646484375">
        <ele>1234.4000244140625</ele>
        <time>2022-05-03T12:04:01.000Z</time>
      </trkpt>
      <trkpt lat="40.811513699591159820556640625" lon="-1.76432381384074687957763671875">
        <ele>1234.4000244140625</ele>
        <time>2022-05-03T12:04:03.000Z</time>
      </trkpt>
      <trkpt lat="40.81151294521987438201904296875" lon="-1.7644115723669528961181640625">
        <ele>1234.5999755859375</ele>
        <time>2022-05-03T12:04:05.000Z</time>
      </trkpt>
      <trkpt lat="40.81151311285793781280517578125" lon="-1.764504611492156982421875">
        <ele>1234.800048828125</ele>
        <time>2022-05-03T12:04:07.000Z</time>
      </trkpt>
      <trkpt lat="40.8115121908485889434814453125" lon="-1.76455029286444187164306640625">
        <ele>1234.800048828125</ele>
        <time>2022-05-03T12:04:08.000Z</time>
      </trkpt>
      <trkpt lat="40.81151126883924007415771484375" lon="-1.7645998299121856689453125">
        <ele>1234.800048828125</ele>
        <time>2022-05-03T12:04:09.000Z</time>
      </trkpt>
      <trkpt lat="40.81151177175343036651611328125" lon="-1.764700077474117279052734375">
        <ele>1235</ele>
        <time>2022-05-03T12:04:11.000Z</time>
      </trkpt>
      <trkpt lat="40.8115066587924957275390625" lon="-1.76480107940733432769775390625">
        <ele>1234.800048828125</ele>
        <time>2022-05-03T12:04:13.000Z</time>
      </trkpt>
      <trkpt lat="40.811506323516368865966796875" lon="-1.76490065641701221466064453125">
        <ele>1234.5999755859375</ele>
        <time>2022-05-03T12:04:15.000Z</time>
      </trkpt>
      <trkpt lat="40.811506994068622589111328125" lon="-1.76494943909347057342529296875">
        <ele>1234.800048828125</ele>
        <time>2022-05-03T12:04:16.000Z</time>
      </trkpt>
      <trkpt lat="40.81150732934474945068359375" lon="-1.764998137950897216796875">
        <ele>1235</ele>
        <time>2022-05-03T12:04:17.000Z</time>
      </trkpt>
      <trkpt lat="40.81150691024959087371826171875" lon="-1.765099056065082550048828125">
        <ele>1235.4000244140625</ele>
        <time>2022-05-03T12:04:19.000Z</time>
      </trkpt>
      <trkpt lat="40.81150422804057598114013671875" lon="-1.76520123146474361419677734375">
        <ele>1235.800048828125</ele>
        <time>2022-05-03T12:04:21.000Z</time>
      </trkpt>
      <trkpt lat="40.81150255165994167327880859375" lon="-1.76530164666473865509033203125">
        <ele>1236.199951171875</ele>
        <time>2022-05-03T12:04:23.000Z</time>
      </trkpt>
      <trkpt lat="40.811501629650592803955078125" lon="-1.765401475131511688232421875">
        <ele>1236.4000244140625</ele>
        <time>2022-05-03T12:04:25.000Z</time>
      </trkpt>
      <trkpt lat="40.811497606337070465087890625" lon="-1.76550306379795074462890625">
        <ele>1236.800048828125</ele>
        <time>2022-05-03T12:04:27.000Z</time>
      </trkpt>
      <trkpt lat="40.81149601377546787261962890625" lon="-1.76560339517891407012939453125">
        <ele>1237.199951171875</ele>
        <time>2022-05-03T12:04:29.000Z</time>
      </trkpt>
      <trkpt lat="40.81149257719516754150390625" lon="-1.76571135409176349639892578125">
        <ele>1237.4000244140625</ele>
        <time>2022-05-03T12:04:31.000Z</time>
      </trkpt>
      <trkpt lat="40.81149199046194553375244140625" lon="-1.7658269405364990234375">
        <ele>1237.199951171875</ele>
        <time>2022-05-03T12:04:33.000Z</time>
      </trkpt>
      <trkpt lat="40.81149123609066009521484375" lon="-1.76588720642030239105224609375">
        <ele>1237</ele>
        <time>2022-05-03T12:04:34.000Z</time>
      </trkpt>
      <trkpt lat="40.8114897273480892181396484375" lon="-1.76594604738056659698486328125">
        <ele>1237</ele>
        <time>2022-05-03T12:04:35.000Z</time>
      </trkpt>
      <trkpt lat="40.8114880509674549102783203125" lon="-1.7660618014633655548095703125">
        <ele>1236.5999755859375</ele>
        <time>2022-05-03T12:04:37.000Z</time>
      </trkpt>
      <trkpt lat="40.81148629076778888702392578125" lon="-1.76617202349007129669189453125">
        <ele>1236.4000244140625</ele>
        <time>2022-05-03T12:04:39.000Z</time>
      </trkpt>
      <trkpt lat="40.81148260273039340972900390625" lon="-1.766274534165859222412109375">
        <ele>1236.199951171875</ele>
        <time>2022-05-03T12:04:41.000Z</time>
      </trkpt>
      <trkpt lat="40.811480171978473663330078125" lon="-1.7663612030446529388427734375">
        <ele>1236</ele>
        <time>2022-05-03T12:04:43.000Z</time>
      </trkpt>
      <trkpt lat="40.81148243509232997894287109375" lon="-1.76643311977386474609375">
        <ele>1235.800048828125</ele>
        <time>2022-05-03T12:04:45.000Z</time>
      </trkpt>
      <trkpt lat="40.81148712895810604095458984375" lon="-1.7665080539882183074951171875">
        <ele>1236</ele>
        <time>2022-05-03T12:04:47.000Z</time>
      </trkpt>
      <trkpt lat="40.81148914061486721038818359375" lon="-1.76658089272677898406982421875">
        <ele>1236</ele>
        <time>2022-05-03T12:04:49.000Z</time>
      </trkpt>
      <trkpt lat="40.8114883862435817718505859375" lon="-1.7666119895875453948974609375">
        <ele>1236</ele>
        <time>2022-05-03T12:04:50.000Z</time>
      </trkpt>
      <trkpt lat="40.8114852011203765869140625" lon="-1.7666421644389629364013671875">
        <ele>1236.199951171875</ele>
        <time>2022-05-03T12:04:51.000Z</time>
      </trkpt>
      <trkpt lat="40.81147355027496814727783203125" lon="-1.76670477725565433502197265625">
        <ele>1236.199951171875</ele>
        <time>2022-05-03T12:04:53.000Z</time>
      </trkpt>
      <trkpt lat="40.81146667711436748504638671875" lon="-1.76677644252777099609375">
        <ele>1236.199951171875</ele>
        <time>2022-05-03T12:04:55.000Z</time>
      </trkpt>
      <trkpt lat="40.81146634183824062347412109375" lon="-1.76681734621524810791015625">
        <ele>1236.4000244140625</ele>
        <time>2022-05-03T12:04:56.000Z</time>
      </trkpt>
      <trkpt lat="40.8114669285714626312255859375" lon="-1.7668600939214229583740234375">
        <ele>1236.4000244140625</ele>
        <time>2022-05-03T12:04:57.000Z</time>
      </trkpt>
      <trkpt lat="40.81146667711436748504638671875" lon="-1.7669486068189144134521484375">
        <ele>1236.4000244140625</ele>
        <time>2022-05-03T12:04:59.000Z</time>
      </trkpt>
      <trkpt lat="40.8114632405340671539306640625" lon="-1.76703996956348419189453125">
        <ele>1236.5999755859375</ele>
        <time>2022-05-03T12:05:01.000Z</time>
      </trkpt>
      <trkpt lat="40.81146114505827426910400390625" lon="-1.76713258959352970123291015625">
        <ele>1236.800048828125</ele>
        <time>2022-05-03T12:05:03.000Z</time>
      </trkpt>
      <trkpt lat="40.81145980395376682281494140625" lon="-1.7672252096235752105712890625">
        <ele>1236.800048828125</ele>
        <time>2022-05-03T12:05:05.000Z</time>
      </trkpt>
      <trkpt lat="40.81145963631570339202880859375" lon="-1.76727198064327239990234375">
        <ele>1236.800048828125</ele>
        <time>2022-05-03T12:05:06.000Z</time>
      </trkpt>
      <trkpt lat="40.811459720134735107421875" lon="-1.767319925129413604736328125">
        <ele>1237</ele>
        <time>2022-05-03T12:05:07.000Z</time>
      </trkpt>
      <trkpt lat="40.811460725963115692138671875" lon="-1.76741573028266429901123046875">
        <ele>1236.800048828125</ele>
        <time>2022-05-03T12:05:09.000Z</time>
      </trkpt>
      <trkpt lat="40.81146030686795711517333984375" lon="-1.76750491373240947723388671875">
        <ele>1236.5999755859375</ele>
        <time>2022-05-03T12:05:11.000Z</time>
      </trkpt>
      <trkpt lat="40.8114396035671234130859375" lon="-1.76758269779384136199951171875">
        <ele>1236.199951171875</ele>
        <time>2022-05-03T12:05:13.000Z</time>
      </trkpt>
      <trkpt lat="40.8113918267190456390380859375" lon="-1.7676432989537715911865234375">
        <ele>1236</ele>
        <time>2022-05-03T12:05:15.000Z</time>
      </trkpt>
      <trkpt lat="40.8113318122923374176025390625" lon="-1.7676925845444202423095703125">
        <ele>1235.800048828125</ele>
        <time>2022-05-03T12:05:17.000Z</time>
      </trkpt>
      <trkpt lat="40.81130105070769786834716796875" lon="-1.76771764643490314483642578125">
        <ele>1235.5999755859375</ele>
        <time>2022-05-03T12:05:18.000Z</time>
      </trkpt>
      <trkpt lat="40.81127037294209003448486328125" lon="-1.7677462287247180938720703125">
        <ele>1235.4000244140625</ele>
        <time>2022-05-03T12:05:19.000Z</time>
      </trkpt>
      <trkpt lat="40.81121337600052356719970703125" lon="-1.76780976355075836181640625">
        <ele>1235</ele>
        <time>2022-05-03T12:05:21.000Z</time>
      </trkpt>
      <trkpt lat="40.8111621625721454620361328125" lon="-1.7678739689290523529052734375">
        <ele>1234.5999755859375</ele>
        <time>2022-05-03T12:05:23.000Z</time>
      </trkpt>
      <trkpt lat="40.81111212261021137237548828125" lon="-1.76792618818581104278564453125">
        <ele>1234.4000244140625</ele>
        <time>2022-05-03T12:05:25.000Z</time>
      </trkpt>
      <trkpt lat="40.81106317229568958282470703125" lon="-1.76797597669064998626708984375">
        <ele>1234</ele>
        <time>2022-05-03T12:05:27.000Z</time>
      </trkpt>
      <trkpt lat="40.81101153977215290069580078125" lon="-1.7680223286151885986328125">
        <ele>1233.800048828125</ele>
        <time>2022-05-03T12:05:29.000Z</time>
      </trkpt>
      <trkpt lat="40.81095236353576183319091796875" lon="-1.768071949481964111328125">
        <ele>1233.4000244140625</ele>
        <time>2022-05-03T12:05:31.000Z</time>
      </trkpt>
      <trkpt lat="40.810888074338436126708984375" lon="-1.7681269347667694091796875">
        <ele>1233.199951171875</ele>
        <time>2022-05-03T12:05:33.000Z</time>
      </trkpt>
      <trkpt lat="40.81081909127533435821533203125" lon="-1.76818703301250934600830078125">
        <ele>1232.800048828125</ele>
        <time>2022-05-03T12:05:35.000Z</time>
      </trkpt>
      <trkpt lat="40.81074935384094715118408203125" lon="-1.76825291477143764495849609375">
        <ele>1232.4000244140625</ele>
        <time>2022-05-03T12:05:37.000Z</time>
      </trkpt>
      <trkpt lat="40.81071473658084869384765625" lon="-1.768286526203155517578125">
        <ele>1232.4000244140625</ele>
        <time>2022-05-03T12:05:38.000Z</time>
      </trkpt>
      <trkpt lat="40.8106797002255916595458984375" lon="-1.768319047987461090087890625">
        <ele>1232.4000244140625</ele>
        <time>2022-05-03T12:05:39.000Z</time>
      </trkpt>
      <trkpt lat="40.81060753203928470611572265625" lon="-1.7683802358806133270263671875">
        <ele>1232.199951171875</ele>
        <time>2022-05-03T12:05:41.000Z</time>
      </trkpt>
      <trkpt lat="40.81057266332209110260009765625" lon="-1.768410243093967437744140625">
        <ele>1232</ele>
        <time>2022-05-03T12:05:42.000Z</time>
      </trkpt>
      <trkpt lat="40.81053913570940494537353515625" lon="-1.7684399150311946868896484375">
        <ele>1232</ele>
        <time>2022-05-03T12:05:43.000Z</time>
      </trkpt>
      <trkpt lat="40.81047333776950836181640625" lon="-1.76849749870598316192626953125">
        <ele>1231.800048828125</ele>
        <time>2022-05-03T12:05:45.000Z</time>
      </trkpt>
      <trkpt lat="40.81040821038186550140380859375" lon="-1.76855944097042083740234375">
        <ele>1231.4000244140625</ele>
        <time>2022-05-03T12:05:47.000Z</time>
      </trkpt>
      <trkpt lat="40.81034098751842975616455078125" lon="-1.76862339489161968231201171875">
        <ele>1231.199951171875</ele>
        <time>2022-05-03T12:05:49.000Z</time>
      </trkpt>
      <trkpt lat="40.8103050291538238525390625" lon="-1.7686521448194980621337890625">
        <ele>1231.199951171875</ele>
        <time>2022-05-03T12:05:50.000Z</time>
      </trkpt>
      <trkpt lat="40.81026622094213962554931640625" lon="-1.76867703907191753387451171875">
        <ele>1231</ele>
        <time>2022-05-03T12:05:51.000Z</time>
      </trkpt>
      <trkpt lat="40.81018860451877117156982421875" lon="-1.76871475763618946075439453125">
        <ele>1230.5999755859375</ele>
        <time>2022-05-03T12:05:53.000Z</time>
      </trkpt>
      <trkpt lat="40.810117609798908233642578125" lon="-1.7687476985156536102294921875">
        <ele>1230.4000244140625</ele>
        <time>2022-05-03T12:05:55.000Z</time>
      </trkpt>
      <trkpt lat="40.81005357205867767333984375" lon="-1.7687869258224964141845703125">
        <ele>1230.199951171875</ele>
        <time>2022-05-03T12:05:57.000Z</time>
      </trkpt>
      <trkpt lat="40.8100269176065921783447265625" lon="-1.76881198771297931671142578125">
        <ele>1230.199951171875</ele>
        <time>2022-05-03T12:05:58.000Z</time>
      </trkpt>
      <trkpt lat="40.81000470556318759918212890625" lon="-1.76884434185922145843505859375">
        <ele>1230</ele>
        <time>2022-05-03T12:05:59.000Z</time>
      </trkpt>
      <trkpt lat="40.80997318960726261138916015625" lon="-1.76893436349928379058837890625">
        <ele>1230</ele>
        <time>2022-05-03T12:06:01.000Z</time>
      </trkpt>
      <trkpt lat="40.8099648915231227874755859375" lon="-1.7689911089837551116943359375">
        <ele>1229.800048828125</ele>
        <time>2022-05-03T12:06:02.000Z</time>
      </trkpt>
      <trkpt lat="40.80995961092412471771240234375" lon="-1.76905254833400249481201171875">
        <ele>1229.800048828125</ele>
        <time>2022-05-03T12:06:03.000Z</time>
      </trkpt>
      <trkpt lat="40.80995843745768070220947265625" lon="-1.76918615587055683135986328125">
        <ele>1229.4000244140625</ele>
        <time>2022-05-03T12:06:05.000Z</time>
      </trkpt>
      <trkpt lat="40.8099625445902347564697265625" lon="-1.7692586593329906463623046875">
        <ele>1229.199951171875</ele>
        <time>2022-05-03T12:06:06.000Z</time>
      </trkpt>
      <trkpt lat="40.80996908247470855712890625" lon="-1.76933166570961475372314453125">
        <ele>1228.800048828125</ele>
        <time>2022-05-03T12:06:07.000Z</time>
      </trkpt>
      <trkpt lat="40.8099870197474956512451171875" lon="-1.7694769240915775299072265625">
        <ele>1228.4000244140625</ele>
        <time>2022-05-03T12:06:09.000Z</time>
      </trkpt>
      <trkpt lat="40.8100044541060924530029296875" lon="-1.76961815916001796722412109375">
        <ele>1228</ele>
        <time>2022-05-03T12:06:11.000Z</time>
      </trkpt>
      <trkpt lat="40.8100332878530025482177734375" lon="-1.76975629292428493499755859375">
        <ele>1228</ele>
        <time>2022-05-03T12:06:13.000Z</time>
      </trkpt>
      <trkpt lat="40.8100785501301288604736328125" lon="-1.76988177001476287841796875">
        <ele>1228.199951171875</ele>
        <time>2022-05-03T12:06:15.000Z</time>
      </trkpt>
      <trkpt lat="40.81011903472244739532470703125" lon="-1.7700059898197650909423828125">
        <ele>1228</ele>
        <time>2022-05-03T12:06:17.000Z</time>
      </trkpt>
      <trkpt lat="40.81013361923396587371826171875" lon="-1.77007044665515422821044921875">
        <ele>1227.800048828125</ele>
        <time>2022-05-03T12:06:18.000Z</time>
      </trkpt>
      <trkpt lat="40.81014703027904033660888671875" lon="-1.7701370827853679656982421875">
        <ele>1227.5999755859375</ele>
        <time>2022-05-03T12:06:19.000Z</time>
      </trkpt>
      <trkpt lat="40.8101744391024112701416015625" lon="-1.7702698521316051483154296875">
        <ele>1227.4000244140625</ele>
        <time>2022-05-03T12:06:21.000Z</time>
      </trkpt>
      <trkpt lat="40.8102036081254482269287109375" lon="-1.7703942395746707916259765625">
        <ele>1227.199951171875</ele>
        <time>2022-05-03T12:06:23.000Z</time>
      </trkpt>
      <trkpt lat="40.81021576188504695892333984375" lon="-1.77045442163944244384765625">
        <ele>1227.199951171875</ele>
        <time>2022-05-03T12:06:24.000Z</time>
      </trkpt>
      <trkpt lat="40.81022364087402820587158203125" lon="-1.7705192975699901580810546875">
        <ele>1227</ele>
        <time>2022-05-03T12:06:25.000Z</time>
      </trkpt>
      <trkpt lat="40.81022582016885280609130859375" lon="-1.77058911882340908050537109375">
        <ele>1227</ele>
        <time>2022-05-03T12:06:26.000Z</time>
      </trkpt>
      <trkpt lat="40.81022112630307674407958984375" lon="-1.77066086791455745697021484375">
        <ele>1226.800048828125</ele>
        <time>2022-05-03T12:06:27.000Z</time>
      </trkpt>
      <trkpt lat="40.81018768250942230224609375" lon="-1.7707948945462703704833984375">
        <ele>1226.4000244140625</ele>
        <time>2022-05-03T12:06:29.000Z</time>
      </trkpt>
      <trkpt lat="40.810139067471027374267578125" lon="-1.7709098942577838897705078125">
        <ele>1226</ele>
        <time>2022-05-03T12:06:31.000Z</time>
      </trkpt>
      <trkpt lat="40.81009003333747386932373046875" lon="-1.77101223729550838470458984375">
        <ele>1225.5999755859375</ele>
        <time>2022-05-03T12:06:33.000Z</time>
      </trkpt>
      <trkpt lat="40.81006874330341815948486328125" lon="-1.7710627801716327667236328125">
        <ele>1225.5999755859375</ele>
        <time>2022-05-03T12:06:34.000Z</time>
      </trkpt>
      <trkpt lat="40.81004795618355274200439453125" lon="-1.77111214958131313323974609375">
        <ele>1225.4000244140625</ele>
        <time>2022-05-03T12:06:35.000Z</time>
      </trkpt>
      <trkpt lat="40.81000663340091705322265625" lon="-1.7712035961449146270751953125">
        <ele>1225</ele>
        <time>2022-05-03T12:06:37.000Z</time>
      </trkpt>
      <trkpt lat="40.80996933393180370330810546875" lon="-1.77129328250885009765625">
        <ele>1224.800048828125</ele>
        <time>2022-05-03T12:06:39.000Z</time>
      </trkpt>
      <trkpt lat="40.80993295647203922271728515625" lon="-1.7713836394250392913818359375">
        <ele>1224.4000244140625</ele>
        <time>2022-05-03T12:06:41.000Z</time>
      </trkpt>
      <trkpt lat="40.80991568975150585174560546875" lon="-1.77143032662570476531982421875">
        <ele>1224.199951171875</ele>
        <time>2022-05-03T12:06:42.000Z</time>
      </trkpt>
      <trkpt lat="40.8098991774022579193115234375" lon="-1.77147894166409969329833984375">
        <ele>1223.800048828125</ele>
        <time>2022-05-03T12:06:43.000Z</time>
      </trkpt>
      <trkpt lat="40.80986891873180866241455078125" lon="-1.7715764231979846954345703125">
        <ele>1223.5999755859375</ele>
        <time>2022-05-03T12:06:45.000Z</time>
      </trkpt>
      <trkpt lat="40.80984259955585002899169921875" lon="-1.77167415618896484375">
        <ele>1223.199951171875</ele>
        <time>2022-05-03T12:06:47.000Z</time>
      </trkpt>
      <trkpt lat="40.809820555150508880615234375" lon="-1.77177608013153076171875">
        <ele>1223</ele>
        <time>2022-05-03T12:06:49.000Z</time>
      </trkpt>
      <trkpt lat="40.8098088204860687255859375" lon="-1.77182746119797229766845703125">
        <ele>1223</ele>
        <time>2022-05-03T12:06:50.000Z</time>
      </trkpt>
      <trkpt lat="40.80979616381227970123291015625" lon="-1.7718785069882869720458984375">
        <ele>1222.800048828125</ele>
        <time>2022-05-03T12:06:51.000Z</time>
      </trkpt>
      <trkpt lat="40.8097687549889087677001953125" lon="-1.77198193967342376708984375">
        <ele>1222.5999755859375</ele>
        <time>2022-05-03T12:06:53.000Z</time>
      </trkpt>
      <trkpt lat="40.809734724462032318115234375" lon="-1.772084534168243408203125">
        <ele>1222.4000244140625</ele>
        <time>2022-05-03T12:06:55.000Z</time>
      </trkpt>
      <trkpt lat="40.80969541333615779876708984375" lon="-1.7721903137862682342529296875">
        <ele>1222.199951171875</ele>
        <time>2022-05-03T12:06:57.000Z</time>
      </trkpt>
      <trkpt lat="40.80965367145836353302001953125" lon="-1.772299110889434814453125">
        <ele>1221.800048828125</ele>
        <time>2022-05-03T12:06:59.000Z</time>
      </trkpt>
      <trkpt lat="40.80961142666637897491455078125" lon="-1.7724075727164745330810546875">
        <ele>1221.800048828125</ele>
        <time>2022-05-03T12:07:01.000Z</time>
      </trkpt>
      <trkpt lat="40.8095729537308216094970703125" lon="-1.7725175432860851287841796875">
        <ele>1222.4000244140625</ele>
        <time>2022-05-03T12:07:03.000Z</time>
      </trkpt>
      <trkpt lat="40.8095387555658817291259765625" lon="-1.77262566983699798583984375">
        <ele>1222.800048828125</ele>
        <time>2022-05-03T12:07:05.000Z</time>
      </trkpt>
      <trkpt lat="40.80950816161930561065673828125" lon="-1.77273086272180080413818359375">
        <ele>1223.199951171875</ele>
        <time>2022-05-03T12:07:07.000Z</time>
      </trkpt>
      <trkpt lat="40.80949575640261173248291015625" lon="-1.77277713082730770111083984375">
        <ele>1223.4000244140625</ele>
        <time>2022-05-03T12:07:08.000Z</time>
      </trkpt>
      <trkpt lat="40.80948284827172756195068359375" lon="-1.7728202976286411285400390625">
        <ele>1223.5999755859375</ele>
        <time>2022-05-03T12:07:09.000Z</time>
      </trkpt>
      <trkpt lat="40.80945686437189579010009765625" lon="-1.77290922962129116058349609375">
        <ele>1224</ele>
        <time>2022-05-03T12:07:11.000Z</time>
      </trkpt>
      <trkpt lat="40.80942065455019474029541015625" lon="-1.77299137227237224578857421875">
        <ele>1224.199951171875</ele>
        <time>2022-05-03T12:07:13.000Z</time>
      </trkpt>
      <trkpt lat="40.80939701758325099945068359375" lon="-1.77302925847470760345458984375">
        <ele>1224.4000244140625</ele>
        <time>2022-05-03T12:07:14.000Z</time>
      </trkpt>
      <trkpt lat="40.809370614588260650634765625" lon="-1.77306513302028179168701171875">
        <ele>1224.4000244140625</ele>
        <time>2022-05-03T12:07:15.000Z</time>
      </trkpt>
      <trkpt lat="40.809313617646694183349609375" lon="-1.77313135005533695220947265625">
        <ele>1224.800048828125</ele>
        <time>2022-05-03T12:07:17.000Z</time>
      </trkpt>
      <trkpt lat="40.80925251357257366180419921875" lon="-1.7732058651745319366455078125">
        <ele>1225</ele>
        <time>2022-05-03T12:07:19.000Z</time>
      </trkpt>
      <trkpt lat="40.809225104749202728271484375" lon="-1.7732497863471508026123046875">
        <ele>1225</ele>
        <time>2022-05-03T12:07:20.000Z</time>
      </trkpt>
      <trkpt lat="40.80920507200062274932861328125" lon="-1.7732973955571651458740234375">
        <ele>1225.199951171875</ele>
        <time>2022-05-03T12:07:21.000Z</time>
      </trkpt>
      <trkpt lat="40.8091749809682369232177734375" lon="-1.773398816585540771484375">
        <ele>1225.199951171875</ele>
        <time>2022-05-03T12:07:23.000Z</time>
      </trkpt>
      <trkpt lat="40.80914924852550029754638671875" lon="-1.77349948324263095855712890625">
        <ele>1225.4000244140625</ele>
        <time>2022-05-03T12:07:25.000Z</time>
      </trkpt>
      <trkpt lat="40.80912108533084392547607421875" lon="-1.77359570749104022979736328125">
        <ele>1225.4000244140625</ele>
        <time>2022-05-03T12:07:27.000Z</time>
      </trkpt>
      <trkpt lat="40.80909493379294872283935546875" lon="-1.7736943624913692474365234375">
        <ele>1225.5999755859375</ele>
        <time>2022-05-03T12:07:29.000Z</time>
      </trkpt>
      <trkpt lat="40.80907364375889301300048828125" lon="-1.77379922010004520416259765625">
        <ele>1225.800048828125</ele>
        <time>2022-05-03T12:07:31.000Z</time>
      </trkpt>
      <trkpt lat="40.80905034206807613372802734375" lon="-1.7739042453467845916748046875">
        <ele>1225.5999755859375</ele>
        <time>2022-05-03T12:07:33.000Z</time>
      </trkpt>
      <trkpt lat="40.809018909931182861328125" lon="-1.774004660546779632568359375">
        <ele>1225.199951171875</ele>
        <time>2022-05-03T12:07:35.000Z</time>
      </trkpt>
      <trkpt lat="40.808998458087444305419921875" lon="-1.77405771799385547637939453125">
        <ele>1225</ele>
        <time>2022-05-03T12:07:36.000Z</time>
      </trkpt>
      <trkpt lat="40.808976329863071441650390625" lon="-1.774114631116390228271484375">
        <ele>1224.800048828125</ele>
        <time>2022-05-03T12:07:37.000Z</time>
      </trkpt>
      <trkpt lat="40.80893576145172119140625" lon="-1.7742375098168849945068359375">
        <ele>1224.199951171875</ele>
        <time>2022-05-03T12:07:39.000Z</time>
      </trkpt>
      <trkpt lat="40.8089191652834415435791015625" lon="-1.77430464886128902435302734375">
        <ele>1223.800048828125</ele>
        <time>2022-05-03T12:07:40.000Z</time>
      </trkpt>
      <trkpt lat="40.80890432931482791900634765625" lon="-1.774374805390834808349609375">
        <ele>1223.4000244140625</ele>
        <time>2022-05-03T12:07:41.000Z</time>
      </trkpt>
      <trkpt lat="40.80887432210147380828857421875" lon="-1.77451796829700469970703125">
        <ele>1222.5999755859375</ele>
        <time>2022-05-03T12:07:43.000Z</time>
      </trkpt>
      <trkpt lat="40.80884926021099090576171875" lon="-1.774664819240570068359375">
        <ele>1221.199951171875</ele>
        <time>2022-05-03T12:07:45.000Z</time>
      </trkpt>
      <trkpt lat="40.8088378608226776123046875" lon="-1.77473656833171844482421875">
        <ele>1220.5999755859375</ele>
        <time>2022-05-03T12:07:46.000Z</time>
      </trkpt>
      <trkpt lat="40.80882620997726917266845703125" lon="-1.77480706013739109039306640625">
        <ele>1220</ele>
        <time>2022-05-03T12:07:47.000Z</time>
      </trkpt>
      <trkpt lat="40.80881380476057529449462890625" lon="-1.7748758755624294281005859375">
        <ele>1219.5999755859375</ele>
        <time>2022-05-03T12:07:48.000Z</time>
      </trkpt>
      <trkpt lat="40.8088004775345325469970703125" lon="-1.77494351752102375030517578125">
        <ele>1219.4000244140625</ele>
        <time>2022-05-03T12:07:49.000Z</time>
      </trkpt>
      <trkpt lat="40.80878748558461666107177734375" lon="-1.77501149475574493408203125">
        <ele>1219</ele>
        <time>2022-05-03T12:07:50.000Z</time>
      </trkpt>
      <trkpt lat="40.808774493634700775146484375" lon="-1.77507695741951465606689453125">
        <ele>1218.5999755859375</ele>
        <time>2022-05-03T12:07:51.000Z</time>
      </trkpt>
      <trkpt lat="40.80874272622168064117431640625" lon="-1.77520335651934146881103515625">
        <ele>1218</ele>
        <time>2022-05-03T12:07:53.000Z</time>
      </trkpt>
      <trkpt lat="40.80872495658695697784423828125" lon="-1.7752642929553985595703125">
        <ele>1217.5999755859375</ele>
        <time>2022-05-03T12:07:54.000Z</time>
      </trkpt>
      <trkpt lat="40.80870551057159900665283203125" lon="-1.77532372064888477325439453125">
        <ele>1217.199951171875</ele>
        <time>2022-05-03T12:07:55.000Z</time>
      </trkpt>
      <trkpt lat="40.80866846255958080291748046875" lon="-1.77544056437909603118896484375">
        <ele>1216.5999755859375</ele>
        <time>2022-05-03T12:07:57.000Z</time>
      </trkpt>
      <trkpt lat="40.80863744951784610748291015625" lon="-1.77556310780346393585205078125">
        <ele>1215.800048828125</ele>
        <time>2022-05-03T12:07:59.000Z</time>
      </trkpt>
      <trkpt lat="40.808614231646060943603515625" lon="-1.77568875253200531005859375">
        <ele>1215.199951171875</ele>
        <time>2022-05-03T12:08:01.000Z</time>
      </trkpt>
      <trkpt lat="40.8086033351719379425048828125" lon="-1.7757529579102993011474609375">
        <ele>1214.800048828125</ele>
        <time>2022-05-03T12:08:02.000Z</time>
      </trkpt>
      <trkpt lat="40.8085919357836246490478515625" lon="-1.77581925876438617706298828125">
        <ele>1214.5999755859375</ele>
        <time>2022-05-03T12:08:03.000Z</time>
      </trkpt>
      <trkpt lat="40.80857357941567897796630859375" lon="-1.77595253102481365203857421875">
        <ele>1214.4000244140625</ele>
        <time>2022-05-03T12:08:05.000Z</time>
      </trkpt>
      <trkpt lat="40.808565281331539154052734375" lon="-1.77601891569793224334716796875">
        <ele>1214.199951171875</ele>
        <time>2022-05-03T12:08:06.000Z</time>
      </trkpt>
      <trkpt lat="40.80855849198997020721435546875" lon="-1.77608513273298740386962890625">
        <ele>1213.5999755859375</ele>
        <time>2022-05-03T12:08:07.000Z</time>
      </trkpt>
      <trkpt lat="40.8085490204393863677978515625" lon="-1.7762149684131145477294921875">
        <ele>1212.5999755859375</ele>
        <time>2022-05-03T12:08:09.000Z</time>
      </trkpt>
      <trkpt lat="40.80853032879531383514404296875" lon="-1.77633357234299182891845703125">
        <ele>1211.5999755859375</ele>
        <time>2022-05-03T12:08:11.000Z</time>
      </trkpt>
      <trkpt lat="40.8085185103118419647216796875" lon="-1.7763886414468288421630859375">
        <ele>1211.199951171875</ele>
        <time>2022-05-03T12:08:12.000Z</time>
      </trkpt>
      <trkpt lat="40.80850635655224323272705078125" lon="-1.7764416150748729705810546875">
        <ele>1210.800048828125</ele>
        <time>2022-05-03T12:08:13.000Z</time>
      </trkpt>
      <trkpt lat="40.80847500823438167572021484375" lon="-1.77654731087386608123779296875">
        <ele>1210</ele>
        <time>2022-05-03T12:08:15.000Z</time>
      </trkpt>
      <trkpt lat="40.8084363676607608795166015625" lon="-1.776659376919269561767578125">
        <ele>1209.5999755859375</ele>
        <time>2022-05-03T12:08:17.000Z</time>
      </trkpt>
      <trkpt lat="40.80841415561735630035400390625" lon="-1.776714026927947998046875">
        <ele>1209.4000244140625</ele>
        <time>2022-05-03T12:08:18.000Z</time>
      </trkpt>
      <trkpt lat="40.8083907701075077056884765625" lon="-1.776766665279865264892578125">
        <ele>1209.199951171875</ele>
        <time>2022-05-03T12:08:19.000Z</time>
      </trkpt>
      <trkpt lat="40.80834592692553997039794921875" lon="-1.7768714390695095062255859375">
        <ele>1208.800048828125</ele>
        <time>2022-05-03T12:08:21.000Z</time>
      </trkpt>
      <trkpt lat="40.80831022001802921295166015625" lon="-1.776974536478519439697265625">
        <ele>1208.4000244140625</ele>
        <time>2022-05-03T12:08:23.000Z</time>
      </trkpt>
      <trkpt lat="40.80828373320400714874267578125" lon="-1.7770709283649921417236328125">
        <ele>1208</ele>
        <time>2022-05-03T12:08:25.000Z</time>
      </trkpt>
      <trkpt lat="40.80827300436794757843017578125" lon="-1.77711728028953075408935546875">
        <ele>1207.800048828125</ele>
        <time>2022-05-03T12:08:26.000Z</time>
      </trkpt>
      <trkpt lat="40.80826311372220516204833984375" lon="-1.77716321311891078948974609375">
        <ele>1207.5999755859375</ele>
        <time>2022-05-03T12:08:27.000Z</time>
      </trkpt>
      <trkpt lat="40.80824919976294040679931640625" lon="-1.777256168425083160400390625">
        <ele>1207.199951171875</ele>
        <time>2022-05-03T12:08:29.000Z</time>
      </trkpt>
      <trkpt lat="40.8082402311265468597412109375" lon="-1.77734878845512866973876953125">
        <ele>1207</ele>
        <time>2022-05-03T12:08:31.000Z</time>
      </trkpt>
      <trkpt lat="40.8082301728427410125732421875" lon="-1.7774395644664764404296875">
        <ele>1207</ele>
        <time>2022-05-03T12:08:33.000Z</time>
      </trkpt>
      <trkpt lat="40.8082244731485843658447265625" lon="-1.7774866707623004913330078125">
        <ele>1207</ele>
        <time>2022-05-03T12:08:34.000Z</time>
      </trkpt>
      <trkpt lat="40.8082177676260471343994140625" lon="-1.77753469906747341156005859375">
        <ele>1207</ele>
        <time>2022-05-03T12:08:35.000Z</time>
      </trkpt>
      <trkpt lat="40.80820293165743350982666015625" lon="-1.777624972164630889892578125">
        <ele>1207</ele>
        <time>2022-05-03T12:08:37.000Z</time>
      </trkpt>
      <trkpt lat="40.80818750895559787750244140625" lon="-1.77771625109016895294189453125">
        <ele>1207</ele>
        <time>2022-05-03T12:08:39.000Z</time>
      </trkpt>
      <trkpt lat="40.80817242152988910675048828125" lon="-1.7778105475008487701416015625">
        <ele>1207</ele>
        <time>2022-05-03T12:08:41.000Z</time>
      </trkpt>
      <trkpt lat="40.8081637881696224212646484375" lon="-1.777858324348926544189453125">
        <ele>1207</ele>
        <time>2022-05-03T12:08:42.000Z</time>
      </trkpt>
      <trkpt lat="40.8081565797328948974609375" lon="-1.77790450863540172576904296875">
        <ele>1207</ele>
        <time>2022-05-03T12:08:43.000Z</time>
      </trkpt>
      <trkpt lat="40.80814342014491558074951171875" lon="-1.777991764247417449951171875">
        <ele>1207</ele>
        <time>2022-05-03T12:08:45.000Z</time>
      </trkpt>
      <trkpt lat="40.80813084729015827178955078125" lon="-1.77807298488914966583251953125">
        <ele>1207</ele>
        <time>2022-05-03T12:08:47.000Z</time>
      </trkpt>
      <trkpt lat="40.80812196247279644012451171875" lon="-1.778163425624370574951171875">
        <ele>1206.800048828125</ele>
        <time>2022-05-03T12:08:49.000Z</time>
      </trkpt>
      <trkpt lat="40.80811609514057636260986328125" lon="-1.7782091908156871795654296875">
        <ele>1206.5999755859375</ele>
        <time>2022-05-03T12:08:50.000Z</time>
      </trkpt>
      <trkpt lat="40.80810972489416599273681640625" lon="-1.77825470454990863800048828125">
        <ele>1206.4000244140625</ele>
        <time>2022-05-03T12:08:51.000Z</time>
      </trkpt>
      <trkpt lat="40.8081020973622798919677734375" lon="-1.77829912863671779632568359375">
        <ele>1206.199951171875</ele>
        <time>2022-05-03T12:08:52.000Z</time>
      </trkpt>
      <trkpt lat="40.80809363164007663726806640625" lon="-1.7783429659903049468994140625">
        <ele>1206</ele>
        <time>2022-05-03T12:08:53.000Z</time>
      </trkpt>
      <trkpt lat="40.80807544291019439697265625" lon="-1.77841999568045139312744140625">
        <ele>1205.5999755859375</ele>
        <time>2022-05-03T12:08:55.000Z</time>
      </trkpt>
      <trkpt lat="40.80805155448615550994873046875" lon="-1.7784790880978107452392578125">
        <ele>1205.4000244140625</ele>
        <time>2022-05-03T12:08:57.000Z</time>
      </trkpt>
      <trkpt lat="40.80804451368749141693115234375" lon="-1.77849409170448780059814453125">
        <ele>1205.199951171875</ele>
        <time>2022-05-03T12:08:58.000Z</time>
      </trkpt>
      <trkpt lat="40.8080427534878253936767578125" lon="-1.77849710918962955474853515625">
        <ele>1205.199951171875</ele>
        <time>2022-05-03T12:08:59.000Z</time>
      </trkpt>
      <trkpt lat="40.808042585849761962890625" lon="-1.778495348989963531494140625">
        <ele>1205.199951171875</ele>
        <time>2022-05-03T12:09:00.000Z</time>
      </trkpt>
      <trkpt lat="40.808024816215038299560546875" lon="-1.778537593781948089599609375">
        <ele>1204.800048828125</ele>
        <time>2022-05-03T12:09:43.000Z</time>
      </trkpt>
      <trkpt lat="40.8080025203526020050048828125" lon="-1.77858394570648670196533203125">
        <ele>1204.4000244140625</ele>
        <time>2022-05-03T12:09:45.000Z</time>
      </trkpt>
      <trkpt lat="40.807976536452770233154296875" lon="-1.77863624878227710723876953125">
        <ele>1203.800048828125</ele>
        <time>2022-05-03T12:09:47.000Z</time>
      </trkpt>
      <trkpt lat="40.80795080401003360748291015625" lon="-1.7786943353712558746337890625">
        <ele>1203.199951171875</ele>
        <time>2022-05-03T12:09:49.000Z</time>
      </trkpt>
      <trkpt lat="40.8079398237168788909912109375" lon="-1.7787214927375316619873046875">
        <ele>1203</ele>
        <time>2022-05-03T12:09:50.000Z</time>
      </trkpt>
      <trkpt lat="40.80792984925210475921630859375" lon="-1.77874353714287281036376953125">
        <ele>1202.800048828125</ele>
        <time>2022-05-03T12:09:51.000Z</time>
      </trkpt>
      <trkpt lat="40.807922221720218658447265625" lon="-1.7787620611488819122314453125">
        <ele>1202.5999755859375</ele>
        <time>2022-05-03T12:09:52.000Z</time>
      </trkpt>
      <trkpt lat="40.80791643820703029632568359375" lon="-1.77877865731716156005859375">
        <ele>1202.4000244140625</ele>
        <time>2022-05-03T12:09:53.000Z</time>
      </trkpt>
      <trkpt lat="40.807908810675144195556640625" lon="-1.7787989415228366851806640625">
        <ele>1202.199951171875</ele>
        <time>2022-05-03T12:09:54.000Z</time>
      </trkpt>
      <trkpt lat="40.807902105152606964111328125" lon="-1.7788260988891124725341796875">
        <ele>1202</ele>
        <time>2022-05-03T12:09:55.000Z</time>
      </trkpt>
      <trkpt lat="40.8078865148127079010009765625" lon="-1.7788867838680744171142578125">
        <ele>1201.5999755859375</ele>
        <time>2022-05-03T12:09:57.000Z</time>
      </trkpt>
      <trkpt lat="40.8078757859766483306884765625" lon="-1.778917126357555389404296875">
        <ele>1201.199951171875</ele>
        <time>2022-05-03T12:09:58.000Z</time>
      </trkpt>
      <trkpt lat="40.8078627102077007293701171875" lon="-1.7789488099515438079833984375">
        <ele>1201</ele>
        <time>2022-05-03T12:09:59.000Z</time>
      </trkpt>
      <trkpt lat="40.80783463083207607269287109375" lon="-1.77901729010045528411865234375">
        <ele>1200.4000244140625</ele>
        <time>2022-05-03T12:10:01.000Z</time>
      </trkpt>
      <trkpt lat="40.80782189033925533294677734375" lon="-1.7790547572076320648193359375">
        <ele>1200</ele>
        <time>2022-05-03T12:10:02.000Z</time>
      </trkpt>
      <trkpt lat="40.80780914984643459320068359375" lon="-1.77909356541931629180908203125">
        <ele>1199.4000244140625</ele>
        <time>2022-05-03T12:10:03.000Z</time>
      </trkpt>
      <trkpt lat="40.80779607407748699188232421875" lon="-1.77913312800228595733642578125">
        <ele>1199</ele>
        <time>2022-05-03T12:10:04.000Z</time>
      </trkpt>
      <trkpt lat="40.8077835850417613983154296875" lon="-1.7791717685759067535400390625">
        <ele>1198.4000244140625</ele>
        <time>2022-05-03T12:10:05.000Z</time>
      </trkpt>
      <trkpt lat="40.80775802023708820343017578125" lon="-1.7792482115328311920166015625">
        <ele>1197.4000244140625</ele>
        <time>2022-05-03T12:10:07.000Z</time>
      </trkpt>
      <trkpt lat="40.80774486064910888671875" lon="-1.77928618155419826507568359375">
        <ele>1196.800048828125</ele>
        <time>2022-05-03T12:10:08.000Z</time>
      </trkpt>
      <trkpt lat="40.80773237161338329315185546875" lon="-1.77932188846170902252197265625">
        <ele>1196.4000244140625</ele>
        <time>2022-05-03T12:10:09.000Z</time>
      </trkpt>
      <trkpt lat="40.8077047951519489288330078125" lon="-1.77938424982130527496337890625">
        <ele>1195.4000244140625</ele>
        <time>2022-05-03T12:10:11.000Z</time>
      </trkpt>
      <trkpt lat="40.80768979154527187347412109375" lon="-1.77941299974918365478515625">
        <ele>1195</ele>
        <time>2022-05-03T12:10:12.000Z</time>
      </trkpt>
      <trkpt lat="40.80767470411956310272216796875" lon="-1.77944376133382320404052734375">
        <ele>1194.5999755859375</ele>
        <time>2022-05-03T12:10:13.000Z</time>
      </trkpt>
      <trkpt lat="40.8076424337923526763916015625" lon="-1.77950997836887836456298828125">
        <ele>1193.5999755859375</ele>
        <time>2022-05-03T12:10:15.000Z</time>
      </trkpt>
      <trkpt lat="40.80760546959936618804931640625" lon="-1.7795787937939167022705078125">
        <ele>1192.4000244140625</ele>
        <time>2022-05-03T12:10:17.000Z</time>
      </trkpt>
      <trkpt lat="40.80758350901305675506591796875" lon="-1.77961743436753749847412109375">
        <ele>1191.800048828125</ele>
        <time>2022-05-03T12:10:18.000Z</time>
      </trkpt>
      <trkpt lat="40.80756087787449359893798828125" lon="-1.77965649403631687164306640625">
        <ele>1191.199951171875</ele>
        <time>2022-05-03T12:10:19.000Z</time>
      </trkpt>
      <trkpt lat="40.80754243768751621246337890625" lon="-1.77969069220125675201416015625">
        <ele>1190.800048828125</ele>
        <time>2022-05-03T12:10:20.000Z</time>
      </trkpt>
      <trkpt lat="40.807522572576999664306640625" lon="-1.77972354926168918609619140625">
        <ele>1190.199951171875</ele>
        <time>2022-05-03T12:10:21.000Z</time>
      </trkpt>
      <trkpt lat="40.80750136636197566986083984375" lon="-1.77975791506469249725341796875">
        <ele>1189.5999755859375</ele>
        <time>2022-05-03T12:10:22.000Z</time>
      </trkpt>
      <trkpt lat="40.8074798248708248138427734375" lon="-1.77979161031544208526611328125">
        <ele>1189.199951171875</ele>
        <time>2022-05-03T12:10:23.000Z</time>
      </trkpt>
      <trkpt lat="40.80745853483676910400390625" lon="-1.77982329390943050384521484375">
        <ele>1188.5999755859375</ele>
        <time>2022-05-03T12:10:24.000Z</time>
      </trkpt>
      <trkpt lat="40.8074369095265865325927734375" lon="-1.77985556423664093017578125">
        <ele>1188</ele>
        <time>2022-05-03T12:10:25.000Z</time>
      </trkpt>
      <trkpt lat="40.80739877186715602874755859375" lon="-1.7799206078052520751953125">
        <ele>1187.4000244140625</ele>
        <time>2022-05-03T12:10:27.000Z</time>
      </trkpt>
      <trkpt lat="40.8073597960174083709716796875" lon="-1.7799871601164340972900390625">
        <ele>1186.5999755859375</ele>
        <time>2022-05-03T12:10:29.000Z</time>
      </trkpt>
      <trkpt lat="40.80732065252959728240966796875" lon="-1.7800532095134258270263671875">
        <ele>1186</ele>
        <time>2022-05-03T12:10:31.000Z</time>
      </trkpt>
      <trkpt lat="40.80730254761874675750732421875" lon="-1.78008497692644596099853515625">
        <ele>1185.800048828125</ele>
        <time>2022-05-03T12:10:32.000Z</time>
      </trkpt>
      <trkpt lat="40.80728511326014995574951171875" lon="-1.78011716343462467193603515625">
        <ele>1185.4000244140625</ele>
        <time>2022-05-03T12:10:33.000Z</time>
      </trkpt>
      <trkpt lat="40.8072491548955440521240234375" lon="-1.78018036298453807830810546875">
        <ele>1184.800048828125</ele>
        <time>2022-05-03T12:10:35.000Z</time>
      </trkpt>
      <trkpt lat="40.8072129450738430023193359375" lon="-1.7802464962005615234375">
        <ele>1184.199951171875</ele>
        <time>2022-05-03T12:10:37.000Z</time>
      </trkpt>
      <trkpt lat="40.80717396922409534454345703125" lon="-1.78031229414045810699462890625">
        <ele>1183.5999755859375</ele>
        <time>2022-05-03T12:10:39.000Z</time>
      </trkpt>
      <trkpt lat="40.8071542717516422271728515625" lon="-1.78034481592476367950439453125">
        <ele>1183.199951171875</ele>
        <time>2022-05-03T12:10:40.000Z</time>
      </trkpt>
      <trkpt lat="40.80713407136499881744384765625" lon="-1.78037582896649837493896484375">
        <ele>1183</ele>
        <time>2022-05-03T12:10:41.000Z</time>
      </trkpt>
      <trkpt lat="40.80711244605481624603271484375" lon="-1.78040483035147190093994140625">
        <ele>1182.5999755859375</ele>
        <time>2022-05-03T12:10:42.000Z</time>
      </trkpt>
      <trkpt lat="40.807090736925601959228515625" lon="-1.78043223917484283447265625">
        <ele>1182.199951171875</ele>
        <time>2022-05-03T12:10:43.000Z</time>
      </trkpt>
      <trkpt lat="40.807045809924602508544921875" lon="-1.78048747591674327850341796875">
        <ele>1181.5999755859375</ele>
        <time>2022-05-03T12:10:45.000Z</time>
      </trkpt>
      <trkpt lat="40.80700264312326908111572265625" lon="-1.78054598160088062286376953125">
        <ele>1181</ele>
        <time>2022-05-03T12:10:47.000Z</time>
      </trkpt>
      <trkpt lat="40.8069785870611667633056640625" lon="-1.780573390424251556396484375">
        <ele>1180.5999755859375</ele>
        <time>2022-05-03T12:10:48.000Z</time>
      </trkpt>
      <trkpt lat="40.8069524355232715606689453125" lon="-1.780599541962146759033203125">
        <ele>1180.4000244140625</ele>
        <time>2022-05-03T12:10:49.000Z</time>
      </trkpt>
      <trkpt lat="40.80689602531492710113525390625" lon="-1.78064673207700252532958984375">
        <ele>1179.5999755859375</ele>
        <time>2022-05-03T12:10:51.000Z</time>
      </trkpt>
      <trkpt lat="40.80683567561209201812744140625" lon="-1.7806862108409404754638671875">
        <ele>1179</ele>
        <time>2022-05-03T12:10:53.000Z</time>
      </trkpt>
      <trkpt lat="40.80680516548454761505126953125" lon="-1.7807083390653133392333984375">
        <ele>1178.5999755859375</ele>
        <time>2022-05-03T12:10:54.000Z</time>
      </trkpt>
      <trkpt lat="40.80677532590925693511962890625" lon="-1.7807328142225742340087890625">
        <ele>1178.199951171875</ele>
        <time>2022-05-03T12:10:55.000Z</time>
      </trkpt>
      <trkpt lat="40.806715227663516998291015625" lon="-1.7807854525744915008544921875">
        <ele>1177.199951171875</ele>
        <time>2022-05-03T12:10:57.000Z</time>
      </trkpt>
      <trkpt lat="40.80665915273129940032958984375" lon="-1.78084194660186767578125">
        <ele>1176.4000244140625</ele>
        <time>2022-05-03T12:10:59.000Z</time>
      </trkpt>
      <trkpt lat="40.806613303720951080322265625" lon="-1.7808991111814975738525390625">
        <ele>1175.5999755859375</ele>
        <time>2022-05-03T12:11:01.000Z</time>
      </trkpt>
      <trkpt lat="40.80659025348722934722900390625" lon="-1.7809312976896762847900390625">
        <ele>1175.199951171875</ele>
        <time>2022-05-03T12:11:02.000Z</time>
      </trkpt>
      <trkpt lat="40.80656577832996845245361328125" lon="-1.780965663492679595947265625">
        <ele>1174.800048828125</ele>
        <time>2022-05-03T12:11:03.000Z</time>
      </trkpt>
      <trkpt lat="40.80654147081077098846435546875" lon="-1.78100128658115863800048828125">
        <ele>1174.199951171875</ele>
        <time>2022-05-03T12:11:04.000Z</time>
      </trkpt>
      <trkpt lat="40.80651833675801753997802734375" lon="-1.78103615529835224151611328125">
        <ele>1173.800048828125</ele>
        <time>2022-05-03T12:11:05.000Z</time>
      </trkpt>
      <trkpt lat="40.80647324211895465850830078125" lon="-1.78110304288566112518310546875">
        <ele>1173</ele>
        <time>2022-05-03T12:11:07.000Z</time>
      </trkpt>
      <trkpt lat="40.80642915330827236175537109375" lon="-1.781167499721050262451171875">
        <ele>1172.199951171875</ele>
        <time>2022-05-03T12:11:09.000Z</time>
      </trkpt>
      <trkpt lat="40.806407444179058074951171875" lon="-1.78119859658181667327880859375">
        <ele>1171.5999755859375</ele>
        <time>2022-05-03T12:11:10.000Z</time>
      </trkpt>
      <trkpt lat="40.8063854835927486419677734375" lon="-1.7812295258045196533203125">
        <ele>1171.199951171875</ele>
        <time>2022-05-03T12:11:11.000Z</time>
      </trkpt>
      <trkpt lat="40.80633879639208316802978515625" lon="-1.781296916306018829345703125">
        <ele>1170.5999755859375</ele>
        <time>2022-05-03T12:11:13.000Z</time>
      </trkpt>
      <trkpt lat="40.8063157461583614349365234375" lon="-1.78133019246160984039306640625">
        <ele>1170.4000244140625</ele>
        <time>2022-05-03T12:11:14.000Z</time>
      </trkpt>
      <trkpt lat="40.806294120848178863525390625" lon="-1.781361959874629974365234375">
        <ele>1170</ele>
        <time>2022-05-03T12:11:15.000Z</time>
      </trkpt>
      <trkpt lat="40.80625011585652828216552734375" lon="-1.7814288474619388580322265625">
        <ele>1169.4000244140625</ele>
        <time>2022-05-03T12:11:17.000Z</time>
      </trkpt>
      <trkpt lat="40.8062282390892505645751953125" lon="-1.781462542712688446044921875">
        <ele>1169</ele>
        <time>2022-05-03T12:11:18.000Z</time>
      </trkpt>
      <trkpt lat="40.806207619607448577880859375" lon="-1.781494729220867156982421875">
        <ele>1168.800048828125</ele>
        <time>2022-05-03T12:11:19.000Z</time>
      </trkpt>
      <trkpt lat="40.806186832487583160400390625" lon="-1.781524233520030975341796875">
        <ele>1168.4000244140625</ele>
        <time>2022-05-03T12:11:20.000Z</time>
      </trkpt>
      <trkpt lat="40.80616663210093975067138671875" lon="-1.7815518938004970550537109375">
        <ele>1168.199951171875</ele>
        <time>2022-05-03T12:11:21.000Z</time>
      </trkpt>
      <trkpt lat="40.8061269856989383697509765625" lon="-1.781606376171112060546875">
        <ele>1167.4000244140625</ele>
        <time>2022-05-03T12:11:23.000Z</time>
      </trkpt>
      <trkpt lat="40.8060937933623790740966796875" lon="-1.78165792487561702728271484375">
        <ele>1166.5999755859375</ele>
        <time>2022-05-03T12:11:25.000Z</time>
      </trkpt>
      <trkpt lat="40.80606386996805667877197265625" lon="-1.7817057855427265167236328125">
        <ele>1166</ele>
        <time>2022-05-03T12:11:27.000Z</time>
      </trkpt>
      <trkpt lat="40.80604861490428447723388671875" lon="-1.78172766231000423431396484375">
        <ele>1165.5999755859375</ele>
        <time>2022-05-03T12:11:28.000Z</time>
      </trkpt>
      <trkpt lat="40.80603486858308315277099609375" lon="-1.7817466892302036285400390625">
        <ele>1165.4000244140625</ele>
        <time>2022-05-03T12:11:29.000Z</time>
      </trkpt>
      <trkpt lat="40.8060019277036190032958984375" lon="-1.781780719757080078125">
        <ele>1164.800048828125</ele>
        <time>2022-05-03T12:11:31.000Z</time>
      </trkpt>
      <trkpt lat="40.80598474480211734771728515625" lon="-1.78180159069597721099853515625">
        <ele>1164.4000244140625</ele>
        <time>2022-05-03T12:11:32.000Z</time>
      </trkpt>
      <trkpt lat="40.8059687353670597076416015625" lon="-1.78182371892035007476806640625">
        <ele>1164.199951171875</ele>
        <time>2022-05-03T12:11:33.000Z</time>
      </trkpt>
      <trkpt lat="40.8059472776949405670166015625" lon="-1.78185976110398769378662109375">
        <ele>1163.5999755859375</ele>
        <time>2022-05-03T12:11:35.000Z</time>
      </trkpt>
      <trkpt lat="40.80594333820044994354248046875" lon="-1.78186261095106601715087890625">
        <ele>1163.5999755859375</ele>
        <time>2022-05-03T12:11:37.000Z</time>
      </trkpt>
      <trkpt lat="40.80592137761414051055908203125" lon="-1.78190519101917743682861328125">
        <ele>1163</ele>
        <time>2022-05-03T12:11:44.000Z</time>
      </trkpt>
      <trkpt lat="40.80590645782649517059326171875" lon="-1.7819331027567386627197265625">
        <ele>1162.5999755859375</ele>
        <time>2022-05-03T12:11:45.000Z</time>
      </trkpt>
      <trkpt lat="40.80587443895637989044189453125" lon="-1.78199135698378086090087890625">
        <ele>1161.800048828125</ele>
        <time>2022-05-03T12:11:47.000Z</time>
      </trkpt>
      <trkpt lat="40.80585784278810024261474609375" lon="-1.78202237002551555633544921875">
        <ele>1161.4000244140625</ele>
        <time>2022-05-03T12:11:48.000Z</time>
      </trkpt>
      <trkpt lat="40.80583990551531314849853515625" lon="-1.782053969800472259521484375">
        <ele>1161</ele>
        <time>2022-05-03T12:11:49.000Z</time>
      </trkpt>
      <trkpt lat="40.8058235608041286468505859375" lon="-1.7820876650512218475341796875">
        <ele>1160.4000244140625</ele>
        <time>2022-05-03T12:11:50.000Z</time>
      </trkpt>
      <trkpt lat="40.80580872483551502227783203125" lon="-1.78212471306324005126953125">
        <ele>1160</ele>
        <time>2022-05-03T12:11:51.000Z</time>
      </trkpt>
      <trkpt lat="40.80578081309795379638671875" lon="-1.782203502953052520751953125">
        <ele>1159</ele>
        <time>2022-05-03T12:11:53.000Z</time>
      </trkpt>
      <trkpt lat="40.805766396224498748779296875" lon="-1.7822445742785930633544921875">
        <ele>1158.5999755859375</ele>
        <time>2022-05-03T12:11:54.000Z</time>
      </trkpt>
      <trkpt lat="40.80575264990329742431640625" lon="-1.78228539414703845977783203125">
        <ele>1158.199951171875</ele>
        <time>2022-05-03T12:11:55.000Z</time>
      </trkpt>
      <trkpt lat="40.80572783946990966796875" lon="-1.78236544132232666015625">
        <ele>1157.199951171875</ele>
        <time>2022-05-03T12:11:57.000Z</time>
      </trkpt>
      <trkpt lat="40.8057025261223316192626953125" lon="-1.78245135582983493804931640625">
        <ele>1155.5999755859375</ele>
        <time>2022-05-03T12:11:59.000Z</time>
      </trkpt>
      <trkpt lat="40.8056814037263393402099609375" lon="-1.78253467194736003875732421875">
        <ele>1153.800048828125</ele>
        <time>2022-05-03T12:12:01.000Z</time>
      </trkpt>
      <trkpt lat="40.80567327328026294708251953125" lon="-1.78257322870194911956787109375">
        <ele>1153</ele>
        <time>2022-05-03T12:12:02.000Z</time>
      </trkpt>
      <trkpt lat="40.80566824413836002349853515625" lon="-1.7826103605329990386962890625">
        <ele>1152.199951171875</ele>
        <time>2022-05-03T12:12:03.000Z</time>
      </trkpt>
      <trkpt lat="40.80566438846290111541748046875" lon="-1.78264631889760494232177734375">
        <ele>1151.5999755859375</ele>
        <time>2022-05-03T12:12:04.000Z</time>
      </trkpt>
      <trkpt lat="40.805665142834186553955078125" lon="-1.78268185816705226898193359375">
        <ele>1150.800048828125</ele>
        <time>2022-05-03T12:12:05.000Z</time>
      </trkpt>
      <trkpt lat="40.80568064935505390167236328125" lon="-1.78275100886821746826171875">
        <ele>1149.5999755859375</ele>
        <time>2022-05-03T12:12:07.000Z</time>
      </trkpt>
      <trkpt lat="40.80569271929562091827392578125" lon="-1.78278051316738128662109375">
        <ele>1149.199951171875</ele>
        <time>2022-05-03T12:12:08.000Z</time>
      </trkpt>
      <trkpt lat="40.8057078905403614044189453125" lon="-1.782809011638164520263671875">
        <ele>1148.800048828125</ele>
        <time>2022-05-03T12:12:09.000Z</time>
      </trkpt>
      <trkpt lat="40.8057387359440326690673828125" lon="-1.78286525420844554901123046875">
        <ele>1147.800048828125</ele>
        <time>2022-05-03T12:12:11.000Z</time>
      </trkpt>
      <trkpt lat="40.8057554997503757476806640625" lon="-1.7828943394124507904052734375">
        <ele>1147.4000244140625</ele>
        <time>2022-05-03T12:12:12.000Z</time>
      </trkpt>
      <trkpt lat="40.8057702518999576568603515625" lon="-1.7829241789877414703369140625">
        <ele>1146.800048828125</ele>
        <time>2022-05-03T12:12:13.000Z</time>
      </trkpt>
      <trkpt lat="40.8057957328855991363525390625" lon="-1.782990060746669769287109375">
        <ele>1145.800048828125</ele>
        <time>2022-05-03T12:12:15.000Z</time>
      </trkpt>
      <trkpt lat="40.80581945367157459259033203125" lon="-1.783065497875213623046875">
        <ele>1145</ele>
        <time>2022-05-03T12:12:17.000Z</time>
      </trkpt>
      <trkpt lat="40.80582850612699985504150390625" lon="-1.7831035517156124114990234375">
        <ele>1144.5999755859375</ele>
        <time>2022-05-03T12:12:18.000Z</time>
      </trkpt>
      <trkpt lat="40.80583537928760051727294921875" lon="-1.78314118646085262298583984375">
        <ele>1144.199951171875</ele>
        <time>2022-05-03T12:12:19.000Z</time>
      </trkpt>
      <trkpt lat="40.805851556360721588134765625" lon="-1.78321343846619129180908203125">
        <ele>1143.199951171875</ele>
        <time>2022-05-03T12:12:21.000Z</time>
      </trkpt>
      <trkpt lat="40.80585935153067111968994140625" lon="-1.78324830718338489532470703125">
        <ele>1142.800048828125</ele>
        <time>2022-05-03T12:12:22.000Z</time>
      </trkpt>
      <trkpt lat="40.80586798489093780517578125" lon="-1.7832825891673564910888671875">
        <ele>1142.5999755859375</ele>
        <time>2022-05-03T12:12:23.000Z</time>
      </trkpt>
      <trkpt lat="40.80588944256305694580078125" lon="-1.78334838710725307464599609375">
        <ele>1141.800048828125</ele>
        <time>2022-05-03T12:12:25.000Z</time>
      </trkpt>
      <trkpt lat="40.80591416917741298675537109375" lon="-1.78341359831392765045166015625">
        <ele>1141.199951171875</ele>
        <time>2022-05-03T12:12:27.000Z</time>
      </trkpt>
      <trkpt lat="40.80594702623784542083740234375" lon="-1.78347428329288959503173828125">
        <ele>1140.800048828125</ele>
        <time>2022-05-03T12:12:29.000Z</time>
      </trkpt>
      <trkpt lat="40.8059660531580448150634765625" lon="-1.78350077010691165924072265625">
        <ele>1140.5999755859375</ele>
        <time>2022-05-03T12:12:30.000Z</time>
      </trkpt>
      <trkpt lat="40.805986337363719940185546875" lon="-1.7835270054638385772705078125">
        <ele>1140.5999755859375</ele>
        <time>2022-05-03T12:12:31.000Z</time>
      </trkpt>
      <trkpt lat="40.806008465588092803955078125" lon="-1.7835561744868755340576171875">
        <ele>1140.4000244140625</ele>
        <time>2022-05-03T12:12:32.000Z</time>
      </trkpt>
      <trkpt lat="40.8060310967266559600830078125" lon="-1.78358274511992931365966796875">
        <ele>1140.199951171875</ele>
        <time>2022-05-03T12:12:33.000Z</time>
      </trkpt>
      <trkpt lat="40.806070156395435333251953125" lon="-1.78363169543445110321044921875">
        <ele>1139.4000244140625</ele>
        <time>2022-05-03T12:12:35.000Z</time>
      </trkpt>
      <trkpt lat="40.8060890994966030120849609375" lon="-1.783656589686870574951171875">
        <ele>1139</ele>
        <time>2022-05-03T12:12:36.000Z</time>
      </trkpt>
      <trkpt lat="40.80610862933099269866943359375" lon="-1.78367947228252887725830078125">
        <ele>1138.800048828125</ele>
        <time>2022-05-03T12:12:37.000Z</time>
      </trkpt>
      <trkpt lat="40.80614634789526462554931640625" lon="-1.78372339345514774322509765625">
        <ele>1138</ele>
        <time>2022-05-03T12:12:39.000Z</time>
      </trkpt>
      <trkpt lat="40.8061886765062808990478515625" lon="-1.7837563343346118927001953125">
        <ele>1137.5999755859375</ele>
        <time>2022-05-03T12:12:41.000Z</time>
      </trkpt>
      <trkpt lat="40.8062131516635417938232421875" lon="-1.78377200849354267120361328125">
        <ele>1137.4000244140625</ele>
        <time>2022-05-03T12:12:42.000Z</time>
      </trkpt>
      <trkpt lat="40.8062388002872467041015625" lon="-1.78378558717668056488037109375">
        <ele>1137.4000244140625</ele>
        <time>2022-05-03T12:12:43.000Z</time>
      </trkpt>
      <trkpt lat="40.806282721459865570068359375" lon="-1.78381592966616153717041015625">
        <ele>1137</ele>
        <time>2022-05-03T12:12:45.000Z</time>
      </trkpt>
      <trkpt lat="40.80631264485418796539306640625" lon="-1.7838527262210845947265625">
        <ele>1136.4000244140625</ele>
        <time>2022-05-03T12:12:47.000Z</time>
      </trkpt>
      <trkpt lat="40.80631993710994720458984375" lon="-1.78387259133160114288330078125">
        <ele>1136</ele>
        <time>2022-05-03T12:12:48.000Z</time>
      </trkpt>
      <trkpt lat="40.8063224516808986663818359375" lon="-1.7838954739272594451904296875">
        <ele>1135.5999755859375</ele>
        <time>2022-05-03T12:12:49.000Z</time>
      </trkpt>
      <trkpt lat="40.80630878917872905731201171875" lon="-1.78395691327750682830810546875">
        <ele>1134.4000244140625</ele>
        <time>2022-05-03T12:12:51.000Z</time>
      </trkpt>
      <trkpt lat="40.806289426982402801513671875" lon="-1.78398541174829006195068359375">
        <ele>1133.800048828125</ele>
        <time>2022-05-03T12:12:52.000Z</time>
      </trkpt>
      <trkpt lat="40.8062647841870784759521484375" lon="-1.7840091325342655181884765625">
        <ele>1133.199951171875</ele>
        <time>2022-05-03T12:12:53.000Z</time>
      </trkpt>
      <trkpt lat="40.8062388002872467041015625" lon="-1.78403452970087528228759765625">
        <ele>1132.5999755859375</ele>
        <time>2022-05-03T12:12:54.000Z</time>
      </trkpt>
      <trkpt lat="40.8062138222157955169677734375" lon="-1.78406487219035625457763671875">
        <ele>1132.199951171875</ele>
        <time>2022-05-03T12:12:55.000Z</time>
      </trkpt>
      <trkpt lat="40.80616964958608150482177734375" lon="-1.784138046205043792724609375">
        <ele>1131.800048828125</ele>
        <time>2022-05-03T12:12:57.000Z</time>
      </trkpt>
      <trkpt lat="40.80614165402948856353759765625" lon="-1.78421926684677600860595703125">
        <ele>1131.4000244140625</ele>
        <time>2022-05-03T12:12:59.000Z</time>
      </trkpt>
      <trkpt lat="40.8061273209750652313232421875" lon="-1.784290261566638946533203125">
        <ele>1131.199951171875</ele>
        <time>2022-05-03T12:13:01.000Z</time>
      </trkpt>
      <trkpt lat="40.80611751414835453033447265625" lon="-1.784321106970310211181640625">
        <ele>1131</ele>
        <time>2022-05-03T12:13:02.000Z</time>
      </trkpt>
      <trkpt lat="40.806111730635166168212890625" lon="-1.7843521200120449066162109375">
        <ele>1130.800048828125</ele>
        <time>2022-05-03T12:13:03.000Z</time>
      </trkpt>
      <trkpt lat="40.80611902289092540740966796875" lon="-1.7844124697148799896240234375">
        <ele>1130.4000244140625</ele>
        <time>2022-05-03T12:13:05.000Z</time>
      </trkpt>
      <trkpt lat="40.80612991936504840850830078125" lon="-1.78446167148649692535400390625">
        <ele>1130.199951171875</ele>
        <time>2022-05-03T12:13:07.000Z</time>
      </trkpt>
      <trkpt lat="40.80612975172698497772216796875" lon="-1.78448732011020183563232421875">
        <ele>1130</ele>
        <time>2022-05-03T12:13:09.000Z</time>
      </trkpt>
      <trkpt lat="40.80612891353666782379150390625" lon="-1.78448748774826526641845703125">
        <ele>1130</ele>
        <time>2022-05-03T12:13:10.000Z</time>
      </trkpt>
      <trkpt lat="40.806136541068553924560546875" lon="-1.78459377028048038482666015625">
        <ele>1129.4000244140625</ele>
        <time>2022-05-03T12:13:53.000Z</time>
      </trkpt>
      <trkpt lat="40.806194879114627838134765625" lon="-1.7846381105482578277587890625">
        <ele>1129.199951171875</ele>
        <time>2022-05-03T12:13:55.000Z</time>
      </trkpt>
      <trkpt lat="40.8062624372541904449462890625" lon="-1.7846632562577724456787109375">
        <ele>1129.199951171875</ele>
        <time>2022-05-03T12:13:57.000Z</time>
      </trkpt>
      <trkpt lat="40.806326307356357574462890625" lon="-1.78468546830117702484130859375">
        <ele>1129</ele>
        <time>2022-05-03T12:13:59.000Z</time>
      </trkpt>
      <trkpt lat="40.80635321326553821563720703125" lon="-1.7847075127065181732177734375">
        <ele>1129</ele>
        <time>2022-05-03T12:14:00.000Z</time>
      </trkpt>
      <trkpt lat="40.80637131817638874053955078125" lon="-1.78473986685276031494140625">
        <ele>1128.800048828125</ele>
        <time>2022-05-03T12:14:01.000Z</time>
      </trkpt>
      <trkpt lat="40.806382633745670318603515625" lon="-1.7848218418657779693603515625">
        <ele>1128.4000244140625</ele>
        <time>2022-05-03T12:14:03.000Z</time>
      </trkpt>
      <trkpt lat="40.80637282691895961761474609375" lon="-1.7849113605916500091552734375">
        <ele>1128</ele>
        <time>2022-05-03T12:14:05.000Z</time>
      </trkpt>
      <trkpt lat="40.80636293627321720123291015625" lon="-1.7849935032427310943603515625">
        <ele>1128.199951171875</ele>
        <time>2022-05-03T12:14:07.000Z</time>
      </trkpt>
      <trkpt lat="40.806354470551013946533203125" lon="-1.78506332449615001678466796875">
        <ele>1128.4000244140625</ele>
        <time>2022-05-03T12:14:09.000Z</time>
      </trkpt>
      <trkpt lat="40.80635078251361846923828125" lon="-1.785135827958583831787109375">
        <ele>1128.4000244140625</ele>
        <time>2022-05-03T12:14:11.000Z</time>
      </trkpt>
      <trkpt lat="40.80634382553398609161376953125" lon="-1.78521201945841312408447265625">
        <ele>1128.5999755859375</ele>
        <time>2022-05-03T12:14:13.000Z</time>
      </trkpt>
      <trkpt lat="40.806339047849178314208984375" lon="-1.78528293035924434661865234375">
        <ele>1128.5999755859375</ele>
        <time>2022-05-03T12:14:15.000Z</time>
      </trkpt>
      <trkpt lat="40.80633913166821002960205078125" lon="-1.78531377576291561126708984375">
        <ele>1128.5999755859375</ele>
        <time>2022-05-03T12:14:16.000Z</time>
      </trkpt>
      <trkpt lat="40.80634231679141521453857421875" lon="-1.78533121012151241302490234375">
        <ele>1128.5999755859375</ele>
        <time>2022-05-03T12:14:17.000Z</time>
      </trkpt>
      <trkpt lat="40.80634315498173236846923828125" lon="-1.7853358201682567596435546875">
        <ele>1128.5999755859375</ele>
        <time>2022-05-03T12:14:19.000Z</time>
      </trkpt>
      <trkpt lat="40.80631901510059833526611328125" lon="-1.7854011990129947662353515625">
        <ele>1128.800048828125</ele>
        <time>2022-05-03T12:15:47.000Z</time>
      </trkpt>
      <trkpt lat="40.806320607662200927734375" lon="-1.785423494875431060791015625">
        <ele>1128.800048828125</ele>
        <time>2022-05-03T12:15:48.000Z</time>
      </trkpt>
      <trkpt lat="40.8063221164047718048095703125" lon="-1.7854484729468822479248046875">
        <ele>1129</ele>
        <time>2022-05-03T12:15:49.000Z</time>
      </trkpt>
      <trkpt lat="40.806315243244171142578125" lon="-1.7855034582316875457763671875">
        <ele>1129</ele>
        <time>2022-05-03T12:15:51.000Z</time>
      </trkpt>
      <trkpt lat="40.80629973672330379486083984375" lon="-1.78555768914520740509033203125">
        <ele>1129.199951171875</ele>
        <time>2022-05-03T12:15:53.000Z</time>
      </trkpt>
      <trkpt lat="40.80628951080143451690673828125" lon="-1.78558317013084888458251953125">
        <ele>1129.199951171875</ele>
        <time>2022-05-03T12:15:54.000Z</time>
      </trkpt>
      <trkpt lat="40.80627978779375553131103515625" lon="-1.7856060527265071868896484375">
        <ele>1129.199951171875</ele>
        <time>2022-05-03T12:15:55.000Z</time>
      </trkpt>
      <trkpt lat="40.80626050941646099090576171875" lon="-1.78564779460430145263671875">
        <ele>1129.4000244140625</ele>
        <time>2022-05-03T12:15:57.000Z</time>
      </trkpt>
      <trkpt lat="40.806233771145343780517578125" lon="-1.78568308241665363311767578125">
        <ele>1129.5999755859375</ele>
        <time>2022-05-03T12:15:59.000Z</time>
      </trkpt>
      <trkpt lat="40.80621558241546154022216796875" lon="-1.785696409642696380615234375">
        <ele>1129.5999755859375</ele>
        <time>2022-05-03T12:16:00.000Z</time>
      </trkpt>
      <trkpt lat="40.8061930350959300994873046875" lon="-1.78571007214486598968505859375">
        <ele>1129.5999755859375</ele>
        <time>2022-05-03T12:16:01.000Z</time>
      </trkpt>
      <trkpt lat="40.806152634322643280029296875" lon="-1.7857458628714084625244140625">
        <ele>1130</ele>
        <time>2022-05-03T12:16:03.000Z</time>
      </trkpt>
      <trkpt lat="40.8061073720455169677734375" lon="-1.785781569778919219970703125">
        <ele>1130.4000244140625</ele>
        <time>2022-05-03T12:16:05.000Z</time>
      </trkpt>
      <trkpt lat="40.80608700402081012725830078125" lon="-1.78580009378492832183837890625">
        <ele>1130.5999755859375</ele>
        <time>2022-05-03T12:16:06.000Z</time>
      </trkpt>
      <trkpt lat="40.80606646835803985595703125" lon="-1.78581417538225650787353515625">
        <ele>1130.800048828125</ele>
        <time>2022-05-03T12:16:07.000Z</time>
      </trkpt>
      <trkpt lat="40.80602766014635562896728515625" lon="-1.78584183566272258758544921875">
        <ele>1131</ele>
        <time>2022-05-03T12:16:09.000Z</time>
      </trkpt>
      <trkpt lat="40.80599396489560604095458984375" lon="-1.78587938658893108367919921875">
        <ele>1131.4000244140625</ele>
        <time>2022-05-03T12:16:11.000Z</time>
      </trkpt>
      <trkpt lat="40.805961191654205322265625" lon="-1.7859265767037868499755859375">
        <ele>1131.800048828125</ele>
        <time>2022-05-03T12:16:13.000Z</time>
      </trkpt>
      <trkpt lat="40.805925987660884857177734375" lon="-1.7859671451151371002197265625">
        <ele>1132.199951171875</ele>
        <time>2022-05-03T12:16:15.000Z</time>
      </trkpt>
      <trkpt lat="40.80591266043484210968017578125" lon="-1.7859889380633831024169921875">
        <ele>1132.4000244140625</ele>
        <time>2022-05-03T12:16:16.000Z</time>
      </trkpt>
      <trkpt lat="40.805901177227497100830078125" lon="-1.78601299412548542022705078125">
        <ele>1132.5999755859375</ele>
        <time>2022-05-03T12:16:17.000Z</time>
      </trkpt>
      <trkpt lat="40.80587460659444332122802734375" lon="-1.78605590946972370147705078125">
        <ele>1132.800048828125</ele>
        <time>2022-05-03T12:16:19.000Z</time>
      </trkpt>
      <trkpt lat="40.8058443479239940643310546875" lon="-1.78608776070177555084228515625">
        <ele>1133.199951171875</ele>
        <time>2022-05-03T12:16:21.000Z</time>
      </trkpt>
      <trkpt lat="40.80582867376506328582763671875" lon="-1.78610519506037235260009765625">
        <ele>1133.4000244140625</ele>
        <time>2022-05-03T12:16:22.000Z</time>
      </trkpt>
      <trkpt lat="40.80581190995872020721435546875" lon="-1.78612246178090572357177734375">
        <ele>1133.5999755859375</ele>
        <time>2022-05-03T12:16:23.000Z</time>
      </trkpt>
      <trkpt lat="40.8057789690792560577392578125" lon="-1.78616101853549480438232421875">
        <ele>1133.800048828125</ele>
        <time>2022-05-03T12:16:25.000Z</time>
      </trkpt>
      <trkpt lat="40.805752985179424285888671875" lon="-1.78620636463165283203125">
        <ele>1134.199951171875</ele>
        <time>2022-05-03T12:16:27.000Z</time>
      </trkpt>
      <trkpt lat="40.8057263307273387908935546875" lon="-1.78625305183231830596923828125">
        <ele>1134.5999755859375</ele>
        <time>2022-05-03T12:16:29.000Z</time>
      </trkpt>
      <trkpt lat="40.8057172782719135284423828125" lon="-1.78627668879926204681396484375">
        <ele>1134.800048828125</ele>
        <time>2022-05-03T12:16:30.000Z</time>
      </trkpt>
      <trkpt lat="40.8057085610926151275634765625" lon="-1.78630116395652294158935546875">
        <ele>1135</ele>
        <time>2022-05-03T12:16:31.000Z</time>
      </trkpt>
      <trkpt lat="40.805688612163066864013671875" lon="-1.7863498628139495849609375">
        <ele>1135.4000244140625</ele>
        <time>2022-05-03T12:16:33.000Z</time>
      </trkpt>
      <trkpt lat="40.8056790567934513092041015625" lon="-1.7863745056092739105224609375">
        <ele>1135.5999755859375</ele>
        <time>2022-05-03T12:16:34.000Z</time>
      </trkpt>
      <trkpt lat="40.8056706748902797698974609375" lon="-1.786399148404598236083984375">
        <ele>1135.5999755859375</ele>
        <time>2022-05-03T12:16:35.000Z</time>
      </trkpt>
      <trkpt lat="40.805649049580097198486328125" lon="-1.7864449135959148406982421875">
        <ele>1136</ele>
        <time>2022-05-03T12:16:37.000Z</time>
      </trkpt>
      <trkpt lat="40.805626921355724334716796875" lon="-1.78648388944566249847412109375">
        <ele>1136.4000244140625</ele>
        <time>2022-05-03T12:16:39.000Z</time>
      </trkpt>
      <trkpt lat="40.80559716559946537017822265625" lon="-1.7865203507244586944580078125">
        <ele>1136.800048828125</ele>
        <time>2022-05-03T12:16:41.000Z</time>
      </trkpt>
      <trkpt lat="40.805569253861904144287109375" lon="-1.7865563929080963134765625">
        <ele>1137</ele>
        <time>2022-05-03T12:16:43.000Z</time>
      </trkpt>
      <trkpt lat="40.805535726249217987060546875" lon="-1.7865837179124355316162109375">
        <ele>1136.800048828125</ele>
        <time>2022-05-03T12:16:45.000Z</time>
      </trkpt>
      <trkpt lat="40.8055023662745952606201171875" lon="-1.78661062382161617279052734375">
        <ele>1136.5999755859375</ele>
        <time>2022-05-03T12:16:47.000Z</time>
      </trkpt>
      <trkpt lat="40.80548635683953762054443359375" lon="-1.78662185557186603546142578125">
        <ele>1136.5999755859375</ele>
        <time>2022-05-03T12:16:48.000Z</time>
      </trkpt>
      <trkpt lat="40.8054701797664165496826171875" lon="-1.78663409315049648284912109375">
        <ele>1136.5999755859375</ele>
        <time>2022-05-03T12:16:49.000Z</time>
      </trkpt>
      <trkpt lat="40.80543589778244495391845703125" lon="-1.78666435182094573974609375">
        <ele>1136.4000244140625</ele>
        <time>2022-05-03T12:16:51.000Z</time>
      </trkpt>
      <trkpt lat="40.8053980953991413116455078125" lon="-1.7866970412433147430419921875">
        <ele>1136</ele>
        <time>2022-05-03T12:16:53.000Z</time>
      </trkpt>
      <trkpt lat="40.8053602091968059539794921875" lon="-1.7867278866469860076904296875">
        <ele>1135.800048828125</ele>
        <time>2022-05-03T12:16:55.000Z</time>
      </trkpt>
      <trkpt lat="40.80534218810498714447021484375" lon="-1.78674205206334590911865234375">
        <ele>1135.800048828125</ele>
        <time>2022-05-03T12:16:56.000Z</time>
      </trkpt>
      <trkpt lat="40.805325843393802642822265625" lon="-1.786758564412593841552734375">
        <ele>1135.5999755859375</ele>
        <time>2022-05-03T12:16:57.000Z</time>
      </trkpt>
      <trkpt lat="40.8052904717624187469482421875" lon="-1.7867959477007389068603515625">
        <ele>1135.4000244140625</ele>
        <time>2022-05-03T12:16:59.000Z</time>
      </trkpt>
      <trkpt lat="40.80524797551333904266357421875" lon="-1.786839030683040618896484375">
        <ele>1135.199951171875</ele>
        <time>2022-05-03T12:17:01.000Z</time>
      </trkpt>
      <trkpt lat="40.8052271045744419097900390625" lon="-1.786863505840301513671875">
        <ele>1135</ele>
        <time>2022-05-03T12:17:02.000Z</time>
      </trkpt>
      <trkpt lat="40.80520774237811565399169921875" lon="-1.78688772954046726226806640625">
        <ele>1135</ele>
        <time>2022-05-03T12:17:03.000Z</time>
      </trkpt>
      <trkpt lat="40.80516600050032138824462890625" lon="-1.78693123161792755126953125">
        <ele>1134.5999755859375</ele>
        <time>2022-05-03T12:17:05.000Z</time>
      </trkpt>
      <trkpt lat="40.80512635409832000732421875" lon="-1.786981523036956787109375">
        <ele>1134.4000244140625</ele>
        <time>2022-05-03T12:17:07.000Z</time>
      </trkpt>
      <trkpt lat="40.80510615371167659759521484375" lon="-1.78700993768870830535888671875">
        <ele>1134.4000244140625</ele>
        <time>2022-05-03T12:17:08.000Z</time>
      </trkpt>
      <trkpt lat="40.80508369021117687225341796875" lon="-1.78703784942626953125">
        <ele>1134.199951171875</ele>
        <time>2022-05-03T12:17:09.000Z</time>
      </trkpt>
      <trkpt lat="40.80503323115408420562744140625" lon="-1.787102557718753814697265625">
        <ele>1133.800048828125</ele>
        <time>2022-05-03T12:17:11.000Z</time>
      </trkpt>
      <trkpt lat="40.80497824586927890777587890625" lon="-1.78717271424829959869384765625">
        <ele>1133.4000244140625</ele>
        <time>2022-05-03T12:17:13.000Z</time>
      </trkpt>
      <trkpt lat="40.80491571687161922454833984375" lon="-1.78724831901490688323974609375">
        <ele>1133.199951171875</ele>
        <time>2022-05-03T12:17:15.000Z</time>
      </trkpt>
      <trkpt lat="40.80488353036344051361083984375" lon="-1.78728486411273479461669921875">
        <ele>1133</ele>
        <time>2022-05-03T12:17:16.000Z</time>
      </trkpt>
      <trkpt lat="40.80485117621719837188720703125" lon="-1.78732291795313358306884765625">
        <ele>1132.800048828125</ele>
        <time>2022-05-03T12:17:17.000Z</time>
      </trkpt>
      <trkpt lat="40.80478445626795291900634765625" lon="-1.78740539588034152984619140625">
        <ele>1132.199951171875</ele>
        <time>2022-05-03T12:17:19.000Z</time>
      </trkpt>
      <trkpt lat="40.80471421591937541961669921875" lon="-1.7874913103878498077392578125">
        <ele>1131.800048828125</ele>
        <time>2022-05-03T12:17:21.000Z</time>
      </trkpt>
      <trkpt lat="40.80468186177313327789306640625" lon="-1.7875312082469463348388671875">
        <ele>1131.5999755859375</ele>
        <time>2022-05-03T12:17:22.000Z</time>
      </trkpt>
      <trkpt lat="40.80465302802622318267822265625" lon="-1.787565238773822784423828125">
        <ele>1131.5999755859375</ele>
        <time>2022-05-03T12:17:23.000Z</time>
      </trkpt>
      <trkpt lat="40.804626457393169403076171875" lon="-1.78759382106363773345947265625">
        <ele>1131.4000244140625</ele>
        <time>2022-05-03T12:17:24.000Z</time>
      </trkpt>
      <trkpt lat="40.80460038967430591583251953125" lon="-1.78761896677315235137939453125">
        <ele>1131.199951171875</ele>
        <time>2022-05-03T12:17:25.000Z</time>
      </trkpt>
      <trkpt lat="40.8045474998652935028076171875" lon="-1.7876629717648029327392578125">
        <ele>1131</ele>
        <time>2022-05-03T12:17:27.000Z</time>
      </trkpt>
      <trkpt lat="40.80449041910469532012939453125" lon="-1.7877038754522800445556640625">
        <ele>1130.800048828125</ele>
        <time>2022-05-03T12:17:29.000Z</time>
      </trkpt>
      <trkpt lat="40.80443300306797027587890625" lon="-1.78774368949234485626220703125">
        <ele>1130.5999755859375</ele>
        <time>2022-05-03T12:17:31.000Z</time>
      </trkpt>
      <trkpt lat="40.8043751679360866546630859375" lon="-1.78778040222823619842529296875">
        <ele>1130.199951171875</ele>
        <time>2022-05-03T12:17:33.000Z</time>
      </trkpt>
      <trkpt lat="40.804319344460964202880859375" lon="-1.78781325928866863250732421875">
        <ele>1130</ele>
        <time>2022-05-03T12:17:35.000Z</time>
      </trkpt>
      <trkpt lat="40.80429143272340297698974609375" lon="-1.7878282628953456878662109375">
        <ele>1130</ele>
        <time>2022-05-03T12:17:36.000Z</time>
      </trkpt>
      <trkpt lat="40.80426511354744434356689453125" lon="-1.78784276358783245086669921875">
        <ele>1129.800048828125</ele>
        <time>2022-05-03T12:17:37.000Z</time>
      </trkpt>
      <trkpt lat="40.804240889847278594970703125" lon="-1.78785701282322406768798828125">
        <ele>1129.800048828125</ele>
        <time>2022-05-03T12:17:38.000Z</time>
      </trkpt>
      <trkpt lat="40.804218091070652008056640625" lon="-1.78787377662956714630126953125">
        <ele>1129.5999755859375</ele>
        <time>2022-05-03T12:17:39.000Z</time>
      </trkpt>
      <trkpt lat="40.804171152412891387939453125" lon="-1.787903197109699249267578125">
        <ele>1129.4000244140625</ele>
        <time>2022-05-03T12:17:41.000Z</time>
      </trkpt>
      <trkpt lat="40.80412195064127445220947265625" lon="-1.78793370723724365234375">
        <ele>1129</ele>
        <time>2022-05-03T12:17:43.000Z</time>
      </trkpt>
      <trkpt lat="40.8040982298552989959716796875" lon="-1.78794837556779384613037109375">
        <ele>1129</ele>
        <time>2022-05-03T12:17:44.000Z</time>
      </trkpt>
      <trkpt lat="40.80407492816448211669921875" lon="-1.78796195425093173980712890625">
        <ele>1128.800048828125</ele>
        <time>2022-05-03T12:17:45.000Z</time>
      </trkpt>
      <trkpt lat="40.80403008498251438140869140625" lon="-1.78798978216946125030517578125">
        <ele>1128.5999755859375</ele>
        <time>2022-05-03T12:17:47.000Z</time>
      </trkpt>
      <trkpt lat="40.803987421095371246337890625" lon="-1.78801886737346649169921875">
        <ele>1128.4000244140625</ele>
        <time>2022-05-03T12:17:49.000Z</time>
      </trkpt>
      <trkpt lat="40.803945176303386688232421875" lon="-1.7880492098629474639892578125">
        <ele>1128.199951171875</ele>
        <time>2022-05-03T12:17:51.000Z</time>
      </trkpt>
      <trkpt lat="40.8039079606533050537109375" lon="-1.788080222904682159423828125">
        <ele>1128</ele>
        <time>2022-05-03T12:17:53.000Z</time>
      </trkpt>
      <trkpt lat="40.80387384630739688873291015625" lon="-1.788113415241241455078125">
        <ele>1127.800048828125</ele>
        <time>2022-05-03T12:17:55.000Z</time>
      </trkpt>
      <trkpt lat="40.80384300090372562408447265625" lon="-1.78814585320651531219482421875">
        <ele>1128</ele>
        <time>2022-05-03T12:17:57.000Z</time>
      </trkpt>
      <trkpt lat="40.80380947329103946685791015625" lon="-1.78819455206394195556640625">
        <ele>1128</ele>
        <time>2022-05-03T12:17:59.000Z</time>
      </trkpt>
      <trkpt lat="40.80379304476082324981689453125" lon="-1.788225732743740081787109375">
        <ele>1128</ele>
        <time>2022-05-03T12:18:00.000Z</time>
      </trkpt>
      <trkpt lat="40.803776197135448455810546875" lon="-1.78825884126126766204833984375">
        <ele>1128.199951171875</ele>
        <time>2022-05-03T12:18:01.000Z</time>
      </trkpt>
      <trkpt lat="40.8037371374666690826416015625" lon="-1.78832053206861019134521484375">
        <ele>1128.5999755859375</ele>
        <time>2022-05-03T12:18:03.000Z</time>
      </trkpt>
      <trkpt lat="40.80369648523628711700439453125" lon="-1.78838096559047698974609375">
        <ele>1128.800048828125</ele>
        <time>2022-05-03T12:18:05.000Z</time>
      </trkpt>
      <trkpt lat="40.803655497729778289794921875" lon="-1.788448356091976165771484375">
        <ele>1129</ele>
        <time>2022-05-03T12:18:07.000Z</time>
      </trkpt>
      <trkpt lat="40.80361492931842803955078125" lon="-1.78852471522986888885498046875">
        <ele>1129.199951171875</ele>
        <time>2022-05-03T12:18:09.000Z</time>
      </trkpt>
      <trkpt lat="40.80357209779322147369384765625" lon="-1.78859629668295383453369140625">
        <ele>1129.4000244140625</ele>
        <time>2022-05-03T12:18:11.000Z</time>
      </trkpt>
      <trkpt lat="40.8035289309918880462646484375" lon="-1.788649857044219970703125">
        <ele>1129.5999755859375</ele>
        <time>2022-05-03T12:18:13.000Z</time>
      </trkpt>
      <trkpt lat="40.8034960739314556121826171875" lon="-1.7886869050562381744384765625">
        <ele>1129.800048828125</ele>
        <time>2022-05-03T12:18:15.000Z</time>
      </trkpt>
      <trkpt lat="40.80347721464931964874267578125" lon="-1.78870811127126216888427734375">
        <ele>1129.800048828125</ele>
        <time>2022-05-03T12:18:17.000Z</time>
      </trkpt>
      <trkpt lat="40.80345709808170795440673828125" lon="-1.7887314967811107635498046875">
        <ele>1130</ele>
        <time>2022-05-03T12:18:19.000Z</time>
      </trkpt>
      <trkpt lat="40.8034323714673519134521484375" lon="-1.78876661695539951324462890625">
        <ele>1130</ele>
        <time>2022-05-03T12:18:21.000Z</time>
      </trkpt>
      <trkpt lat="40.80341644585132598876953125" lon="-1.788788996636867523193359375">
        <ele>1130.199951171875</ele>
        <time>2022-05-03T12:18:22.000Z</time>
      </trkpt>
      <trkpt lat="40.80339876003563404083251953125" lon="-1.78881171159446239471435546875">
        <ele>1130.199951171875</ele>
        <time>2022-05-03T12:18:23.000Z</time>
      </trkpt>
      <trkpt lat="40.80336154438555240631103515625" lon="-1.788859404623508453369140625">
        <ele>1130.4000244140625</ele>
        <time>2022-05-03T12:18:25.000Z</time>
      </trkpt>
      <trkpt lat="40.8033284358680248260498046875" lon="-1.78891363553702831268310546875">
        <ele>1130.4000244140625</ele>
        <time>2022-05-03T12:18:27.000Z</time>
      </trkpt>
      <trkpt lat="40.8032979257404804229736328125" lon="-1.78897113539278507232666015625">
        <ele>1130.5999755859375</ele>
        <time>2022-05-03T12:18:29.000Z</time>
      </trkpt>
      <trkpt lat="40.8032642304897308349609375" lon="-1.78902662359178066253662109375">
        <ele>1130.800048828125</ele>
        <time>2022-05-03T12:18:31.000Z</time>
      </trkpt>
      <trkpt lat="40.8032342232763767242431640625" lon="-1.78907775320112705230712890625">
        <ele>1131</ele>
        <time>2022-05-03T12:18:33.000Z</time>
      </trkpt>
      <trkpt lat="40.8032104186713695526123046875" lon="-1.78913458250463008880615234375">
        <ele>1131.4000244140625</ele>
        <time>2022-05-03T12:18:35.000Z</time>
      </trkpt>
      <trkpt lat="40.803188122808933258056640625" lon="-1.78919107653200626373291015625">
        <ele>1131.5999755859375</ele>
        <time>2022-05-03T12:18:37.000Z</time>
      </trkpt>
      <trkpt lat="40.803168676793575286865234375" lon="-1.78924597799777984619140625">
        <ele>1132</ele>
        <time>2022-05-03T12:18:39.000Z</time>
      </trkpt>
      <trkpt lat="40.8031450398266315460205078125" lon="-1.7892991192638874053955078125">
        <ele>1132.4000244140625</ele>
        <time>2022-05-03T12:18:41.000Z</time>
      </trkpt>
      <trkpt lat="40.8031219057738780975341796875" lon="-1.7893547751009464263916015625">
        <ele>1132.5999755859375</ele>
        <time>2022-05-03T12:18:43.000Z</time>
      </trkpt>
      <trkpt lat="40.803112350404262542724609375" lon="-1.789381764829158782958984375">
        <ele>1132.800048828125</ele>
        <time>2022-05-03T12:18:44.000Z</time>
      </trkpt>
      <trkpt lat="40.803101621568202972412109375" lon="-1.78940766490995883941650390625">
        <ele>1133</ele>
        <time>2022-05-03T12:18:45.000Z</time>
      </trkpt>
      <trkpt lat="40.80308058299124240875244140625" lon="-1.78945996798574924468994140625">
        <ele>1133.4000244140625</ele>
        <time>2022-05-03T12:18:47.000Z</time>
      </trkpt>
      <trkpt lat="40.80306113697588443756103515625" lon="-1.7895093373954296112060546875">
        <ele>1133.5999755859375</ele>
        <time>2022-05-03T12:18:49.000Z</time>
      </trkpt>
      <trkpt lat="40.8030387572944164276123046875" lon="-1.78955317474901676177978515625">
        <ele>1133.800048828125</ele>
        <time>2022-05-03T12:18:51.000Z</time>
      </trkpt>
      <trkpt lat="40.803028531372547149658203125" lon="-1.78957630880177021026611328125">
        <ele>1133.800048828125</ele>
        <time>2022-05-03T12:18:52.000Z</time>
      </trkpt>
      <trkpt lat="40.803021490573883056640625" lon="-1.78960011340677738189697265625">
        <ele>1133.800048828125</ele>
        <time>2022-05-03T12:18:53.000Z</time>
      </trkpt>
      <trkpt lat="40.8030040562152862548828125" lon="-1.78964956663548946380615234375">
        <ele>1134</ele>
        <time>2022-05-03T12:18:55.000Z</time>
      </trkpt>
      <trkpt lat="40.80298461019992828369140625" lon="-1.78969985805451869964599609375">
        <ele>1134.199951171875</ele>
        <time>2022-05-03T12:18:57.000Z</time>
      </trkpt>
      <trkpt lat="40.8029651641845703125" lon="-1.78975031711161136627197265625">
        <ele>1134.199951171875</ele>
        <time>2022-05-03T12:18:59.000Z</time>
      </trkpt>
      <trkpt lat="40.80294303596019744873046875" lon="-1.78980119526386260986328125">
        <ele>1134.4000244140625</ele>
        <time>2022-05-03T12:19:01.000Z</time>
      </trkpt>
      <trkpt lat="40.80293339677155017852783203125" lon="-1.78982692770659923553466796875">
        <ele>1134.4000244140625</ele>
        <time>2022-05-03T12:19:02.000Z</time>
      </trkpt>
      <trkpt lat="40.80292283557355403900146484375" lon="-1.7898509837687015533447265625">
        <ele>1134.4000244140625</ele>
        <time>2022-05-03T12:19:03.000Z</time>
      </trkpt>
      <trkpt lat="40.8028989471495151519775390625" lon="-1.7899016104638576507568359375">
        <ele>1134.5999755859375</ele>
        <time>2022-05-03T12:19:05.000Z</time>
      </trkpt>
      <trkpt lat="40.8028768189251422882080078125" lon="-1.7899547517299652099609375">
        <ele>1135</ele>
        <time>2022-05-03T12:19:07.000Z</time>
      </trkpt>
      <trkpt lat="40.80286650918424129486083984375" lon="-1.78998232819139957427978515625">
        <ele>1135</ele>
        <time>2022-05-03T12:19:08.000Z</time>
      </trkpt>
      <trkpt lat="40.802855528891086578369140625" lon="-1.79001032374799251556396484375">
        <ele>1135.199951171875</ele>
        <time>2022-05-03T12:19:09.000Z</time>
      </trkpt>
      <trkpt lat="40.8028322272002696990966796875" lon="-1.79006614722311496734619140625">
        <ele>1135.5999755859375</ele>
        <time>2022-05-03T12:19:11.000Z</time>
      </trkpt>
      <trkpt lat="40.80282091163098812103271484375" lon="-1.7900942265987396240234375">
        <ele>1135.800048828125</ele>
        <time>2022-05-03T12:19:12.000Z</time>
      </trkpt>
      <trkpt lat="40.80281018279492855072021484375" lon="-1.790122054517269134521484375">
        <ele>1135.800048828125</ele>
        <time>2022-05-03T12:19:13.000Z</time>
      </trkpt>
      <trkpt lat="40.80278621055185794830322265625" lon="-1.79017829708755016326904296875">
        <ele>1136</ele>
        <time>2022-05-03T12:19:15.000Z</time>
      </trkpt>
      <trkpt lat="40.8027621544897556304931640625" lon="-1.79023680277168750762939453125">
        <ele>1136.199951171875</ele>
        <time>2022-05-03T12:19:17.000Z</time>
      </trkpt>
      <trkpt lat="40.802738852798938751220703125" lon="-1.7902999185025691986083984375">
        <ele>1136.4000244140625</ele>
        <time>2022-05-03T12:19:19.000Z</time>
      </trkpt>
      <trkpt lat="40.80272669903934001922607421875" lon="-1.79033051244914531707763671875">
        <ele>1136.4000244140625</ele>
        <time>2022-05-03T12:19:20.000Z</time>
      </trkpt>
      <trkpt lat="40.80271412618458271026611328125" lon="-1.790361106395721435546875">
        <ele>1136.5999755859375</ele>
        <time>2022-05-03T12:19:21.000Z</time>
      </trkpt>
      <trkpt lat="40.802689902484416961669921875" lon="-1.79042254574596881866455078125">
        <ele>1136.800048828125</ele>
        <time>2022-05-03T12:19:23.000Z</time>
      </trkpt>
      <trkpt lat="40.80266752280294895172119140625" lon="-1.79048717021942138671875">
        <ele>1137</ele>
        <time>2022-05-03T12:19:25.000Z</time>
      </trkpt>
      <trkpt lat="40.8026404492557048797607421875" lon="-1.79054793901741504669189453125">
        <ele>1137</ele>
        <time>2022-05-03T12:19:27.000Z</time>
      </trkpt>
      <trkpt lat="40.80261589027941226959228515625" lon="-1.79060895927250385284423828125">
        <ele>1137.199951171875</ele>
        <time>2022-05-03T12:19:29.000Z</time>
      </trkpt>
      <trkpt lat="40.802603401243686676025390625" lon="-1.790638379752635955810546875">
        <ele>1137.4000244140625</ele>
        <time>2022-05-03T12:19:30.000Z</time>
      </trkpt>
      <trkpt lat="40.80259057693183422088623046875" lon="-1.79066679440438747406005859375">
        <ele>1137.4000244140625</ele>
        <time>2022-05-03T12:19:31.000Z</time>
      </trkpt>
      <trkpt lat="40.80256693996489048004150390625" lon="-1.79072664119303226470947265625">
        <ele>1137.5999755859375</ele>
        <time>2022-05-03T12:19:33.000Z</time>
      </trkpt>
      <trkpt lat="40.8025422133505344390869140625" lon="-1.7907850630581378936767578125">
        <ele>1137.800048828125</ele>
        <time>2022-05-03T12:19:35.000Z</time>
      </trkpt>
      <trkpt lat="40.80251815728843212127685546875" lon="-1.7908400483429431915283203125">
        <ele>1138</ele>
        <time>2022-05-03T12:19:37.000Z</time>
      </trkpt>
      <trkpt lat="40.80249686725437641143798828125" lon="-1.7908946983516216278076171875">
        <ele>1138.4000244140625</ele>
        <time>2022-05-03T12:19:39.000Z</time>
      </trkpt>
      <trkpt lat="40.8024855516850948333740234375" lon="-1.79092160426080226898193359375">
        <ele>1138.4000244140625</ele>
        <time>2022-05-03T12:19:40.000Z</time>
      </trkpt>
      <trkpt lat="40.80247490666806697845458984375" lon="-1.790948174893856048583984375">
        <ele>1138.5999755859375</ele>
        <time>2022-05-03T12:19:41.000Z</time>
      </trkpt>
      <trkpt lat="40.80245462246239185333251953125" lon="-1.7909993045032024383544921875">
        <ele>1138.800048828125</ele>
        <time>2022-05-03T12:19:43.000Z</time>
      </trkpt>
      <trkpt lat="40.8024319075047969818115234375" lon="-1.7910519428551197052001953125">
        <ele>1139</ele>
        <time>2022-05-03T12:19:45.000Z</time>
      </trkpt>
      <trkpt lat="40.80242025665938854217529296875" lon="-1.79107851348817348480224609375">
        <ele>1139</ele>
        <time>2022-05-03T12:19:46.000Z</time>
      </trkpt>
      <trkpt lat="40.8024084381759166717529296875" lon="-1.7911062575876712799072265625">
        <ele>1139.199951171875</ele>
        <time>2022-05-03T12:19:47.000Z</time>
      </trkpt>
      <trkpt lat="40.80238781869411468505859375" lon="-1.79116082377731800079345703125">
        <ele>1139.4000244140625</ele>
        <time>2022-05-03T12:19:49.000Z</time>
      </trkpt>
      <trkpt lat="40.8023651875555515289306640625" lon="-1.79121471941471099853515625">
        <ele>1139.5999755859375</ele>
        <time>2022-05-03T12:19:51.000Z</time>
      </trkpt>
      <trkpt lat="40.8023423887789249420166015625" lon="-1.79126911796629428863525390625">
        <ele>1139.800048828125</ele>
        <time>2022-05-03T12:19:53.000Z</time>
      </trkpt>
      <trkpt lat="40.802331157028675079345703125" lon="-1.791296191513538360595703125">
        <ele>1140</ele>
        <time>2022-05-03T12:19:54.000Z</time>
      </trkpt>
      <trkpt lat="40.80231933854520320892333984375" lon="-1.7913228459656238555908203125">
        <ele>1140</ele>
        <time>2022-05-03T12:19:55.000Z</time>
      </trkpt>
      <trkpt lat="40.802295617759227752685546875" lon="-1.79137833416461944580078125">
        <ele>1140.199951171875</ele>
        <time>2022-05-03T12:19:57.000Z</time>
      </trkpt>
      <trkpt lat="40.80227390863001346588134765625" lon="-1.79143407382071018218994140625">
        <ele>1140.5999755859375</ele>
        <time>2022-05-03T12:19:59.000Z</time>
      </trkpt>
      <trkpt lat="40.80225027166306972503662109375" lon="-1.7914891429245471954345703125">
        <ele>1140.800048828125</ele>
        <time>2022-05-03T12:20:01.000Z</time>
      </trkpt>
      <trkpt lat="40.80222797580063343048095703125" lon="-1.7915407754480838775634765625">
        <ele>1141</ele>
        <time>2022-05-03T12:20:03.000Z</time>
      </trkpt>
      <trkpt lat="40.80221741460263729095458984375" lon="-1.791565753519535064697265625">
        <ele>1141</ele>
        <time>2022-05-03T12:20:04.000Z</time>
      </trkpt>
      <trkpt lat="40.80220584757626056671142578125" lon="-1.79159165360033512115478515625">
        <ele>1141.199951171875</ele>
        <time>2022-05-03T12:20:05.000Z</time>
      </trkpt>
      <trkpt lat="40.80218371935188770294189453125" lon="-1.791642867028713226318359375">
        <ele>1141.199951171875</ele>
        <time>2022-05-03T12:20:07.000Z</time>
      </trkpt>
      <trkpt lat="40.80216125585138797760009765625" lon="-1.7916973493993282318115234375">
        <ele>1141.199951171875</ele>
        <time>2022-05-03T12:20:09.000Z</time>
      </trkpt>
      <trkpt lat="40.80213728360831737518310546875" lon="-1.79175518453121185302734375">
        <ele>1141.4000244140625</ele>
        <time>2022-05-03T12:20:11.000Z</time>
      </trkpt>
      <trkpt lat="40.80211314372718334197998046875" lon="-1.79181285202503204345703125">
        <ele>1141.4000244140625</ele>
        <time>2022-05-03T12:20:13.000Z</time>
      </trkpt>
      <trkpt lat="40.802087746560573577880859375" lon="-1.7918783985078334808349609375">
        <ele>1141.5999755859375</ele>
        <time>2022-05-03T12:20:15.000Z</time>
      </trkpt>
      <trkpt lat="40.80206067301332950592041015625" lon="-1.79194117896258831024169921875">
        <ele>1141.5999755859375</ele>
        <time>2022-05-03T12:20:17.000Z</time>
      </trkpt>
      <trkpt lat="40.80203150399029254913330078125" lon="-1.7920041270554065704345703125">
        <ele>1141.800048828125</ele>
        <time>2022-05-03T12:20:19.000Z</time>
      </trkpt>
      <trkpt lat="40.80201004631817340850830078125" lon="-1.792071349918842315673828125">
        <ele>1141.800048828125</ele>
        <time>2022-05-03T12:20:21.000Z</time>
      </trkpt>
      <trkpt lat="40.80199864692986011505126953125" lon="-1.79210596717894077301025390625">
        <ele>1142</ele>
        <time>2022-05-03T12:20:22.000Z</time>
      </trkpt>
      <trkpt lat="40.80198707990348339080810546875" lon="-1.792140416800975799560546875">
        <ele>1142</ele>
        <time>2022-05-03T12:20:23.000Z</time>
      </trkpt>
      <trkpt lat="40.801962353289127349853515625" lon="-1.7922086454927921295166015625">
        <ele>1142.199951171875</ele>
        <time>2022-05-03T12:20:25.000Z</time>
      </trkpt>
      <trkpt lat="40.80193645320832729339599609375" lon="-1.7922790534794330596923828125">
        <ele>1142.199951171875</ele>
        <time>2022-05-03T12:20:27.000Z</time>
      </trkpt>
      <trkpt lat="40.80190627835690975189208984375" lon="-1.792347617447376251220703125">
        <ele>1142.4000244140625</ele>
        <time>2022-05-03T12:20:29.000Z</time>
      </trkpt>
      <trkpt lat="40.80187685787677764892578125" lon="-1.79241500794887542724609375">
        <ele>1142.4000244140625</ele>
        <time>2022-05-03T12:20:31.000Z</time>
      </trkpt>
      <trkpt lat="40.801861770451068878173828125" lon="-1.7924500443041324615478515625">
        <ele>1142.4000244140625</ele>
        <time>2022-05-03T12:20:32.000Z</time>
      </trkpt>
      <trkpt lat="40.80184810794889926910400390625" lon="-1.79248633794486522674560546875">
        <ele>1142.4000244140625</ele>
        <time>2022-05-03T12:20:33.000Z</time>
      </trkpt>
      <trkpt lat="40.80182053148746490478515625" lon="-1.792557500302791595458984375">
        <ele>1142.4000244140625</ele>
        <time>2022-05-03T12:20:35.000Z</time>
      </trkpt>
      <trkpt lat="40.80179647542536258697509765625" lon="-1.792625896632671356201171875">
        <ele>1142.199951171875</ele>
        <time>2022-05-03T12:20:37.000Z</time>
      </trkpt>
      <trkpt lat="40.8017707429826259613037109375" lon="-1.7926911078393459320068359375">
        <ele>1142.199951171875</ele>
        <time>2022-05-03T12:20:39.000Z</time>
      </trkpt>
      <trkpt lat="40.801744423806667327880859375" lon="-1.7927598394453525543212890625">
        <ele>1142.199951171875</ele>
        <time>2022-05-03T12:20:41.000Z</time>
      </trkpt>
      <trkpt lat="40.8017165958881378173828125" lon="-1.7928275652229785919189453125">
        <ele>1142.199951171875</ele>
        <time>2022-05-03T12:20:43.000Z</time>
      </trkpt>
      <trkpt lat="40.80168868415057659149169921875" lon="-1.7928959615528583526611328125">
        <ele>1142</ele>
        <time>2022-05-03T12:20:45.000Z</time>
      </trkpt>
      <trkpt lat="40.80165959894657135009765625" lon="-1.79296544753015041351318359375">
        <ele>1142</ele>
        <time>2022-05-03T12:20:47.000Z</time>
      </trkpt>
      <trkpt lat="40.80163118429481983184814453125" lon="-1.79303753189742565155029296875">
        <ele>1141.800048828125</ele>
        <time>2022-05-03T12:20:49.000Z</time>
      </trkpt>
      <trkpt lat="40.80160117708146572113037109375" lon="-1.7931088618934154510498046875">
        <ele>1141.5999755859375</ele>
        <time>2022-05-03T12:20:51.000Z</time>
      </trkpt>
      <trkpt lat="40.80157552845776081085205078125" lon="-1.7931849695742130279541015625">
        <ele>1141.4000244140625</ele>
        <time>2022-05-03T12:20:53.000Z</time>
      </trkpt>
      <trkpt lat="40.8015514723956584930419921875" lon="-1.7932627536356449127197265625">
        <ele>1141.5999755859375</ele>
        <time>2022-05-03T12:20:55.000Z</time>
      </trkpt>
      <trkpt lat="40.801529847085475921630859375" lon="-1.79334615357220172882080078125">
        <ele>1141.5999755859375</ele>
        <time>2022-05-03T12:20:57.000Z</time>
      </trkpt>
      <trkpt lat="40.80151584930717945098876953125" lon="-1.79343818686902523040771484375">
        <ele>1141.800048828125</ele>
        <time>2022-05-03T12:20:59.000Z</time>
      </trkpt>
      <trkpt lat="40.80150428228080272674560546875" lon="-1.793539188802242279052734375">
        <ele>1142</ele>
        <time>2022-05-03T12:21:01.000Z</time>
      </trkpt>
      <trkpt lat="40.80149061977863311767578125" lon="-1.79364622570574283599853515625">
        <ele>1142.199951171875</ele>
        <time>2022-05-03T12:21:03.000Z</time>
      </trkpt>
      <trkpt lat="40.8014760352671146392822265625" lon="-1.7937608063220977783203125">
        <ele>1142.5999755859375</ele>
        <time>2022-05-03T12:21:05.000Z</time>
      </trkpt>
      <trkpt lat="40.80146245658397674560546875" lon="-1.7938786558806896209716796875">
        <ele>1142.800048828125</ele>
        <time>2022-05-03T12:21:07.000Z</time>
      </trkpt>
      <trkpt lat="40.80144393257796764373779296875" lon="-1.7939973436295986175537109375">
        <ele>1143</ele>
        <time>2022-05-03T12:21:09.000Z</time>
      </trkpt>
      <trkpt lat="40.80142515711486339569091796875" lon="-1.794112510979175567626953125">
        <ele>1143.199951171875</ele>
        <time>2022-05-03T12:21:11.000Z</time>
      </trkpt>
      <trkpt lat="40.80140872858464717864990234375" lon="-1.79422373883426189422607421875">
        <ele>1143</ele>
        <time>2022-05-03T12:21:13.000Z</time>
      </trkpt>
      <trkpt lat="40.80139003694057464599609375" lon="-1.7943302728235721588134765625">
        <ele>1142.5999755859375</ele>
        <time>2022-05-03T12:21:15.000Z</time>
      </trkpt>
      <trkpt lat="40.8013732731342315673828125" lon="-1.79443311877548694610595703125">
        <ele>1142.4000244140625</ele>
        <time>2022-05-03T12:21:17.000Z</time>
      </trkpt>
      <trkpt lat="40.80136497505009174346923828125" lon="-1.7944850027561187744140625">
        <ele>1142.4000244140625</ele>
        <time>2022-05-03T12:21:18.000Z</time>
      </trkpt>
      <trkpt lat="40.80135592259466648101806640625" lon="-1.79453923366963863372802734375">
        <ele>1142.199951171875</ele>
        <time>2022-05-03T12:21:19.000Z</time>
      </trkpt>
      <trkpt lat="40.80134754069149494171142578125" lon="-1.7945954762399196624755859375">
        <ele>1142</ele>
        <time>2022-05-03T12:21:20.000Z</time>
      </trkpt>
      <trkpt lat="40.80133848823606967926025390625" lon="-1.7946534790098667144775390625">
        <ele>1141.800048828125</ele>
        <time>2022-05-03T12:21:21.000Z</time>
      </trkpt>
      <trkpt lat="40.80131803639233112335205078125" lon="-1.79477342404425144195556640625">
        <ele>1141.5999755859375</ele>
        <time>2022-05-03T12:21:23.000Z</time>
      </trkpt>
      <trkpt lat="40.8012969978153705596923828125" lon="-1.79489730857312679290771484375">
        <ele>1141.199951171875</ele>
        <time>2022-05-03T12:21:25.000Z</time>
      </trkpt>
      <trkpt lat="40.80127595923840999603271484375" lon="-1.79502069018781185150146484375">
        <ele>1140.5999755859375</ele>
        <time>2022-05-03T12:21:27.000Z</time>
      </trkpt>
      <trkpt lat="40.80125785432755947113037109375" lon="-1.795142479240894317626953125">
        <ele>1139.5999755859375</ele>
        <time>2022-05-03T12:21:29.000Z</time>
      </trkpt>
      <trkpt lat="40.8012485504150390625" lon="-1.795202158391475677490234375">
        <ele>1139.199951171875</ele>
        <time>2022-05-03T12:21:30.000Z</time>
      </trkpt>
      <trkpt lat="40.801239497959613800048828125" lon="-1.79526108317077159881591796875">
        <ele>1138.800048828125</ele>
        <time>2022-05-03T12:21:31.000Z</time>
      </trkpt>
      <trkpt lat="40.80122231505811214447021484375" lon="-1.7953770048916339874267578125">
        <ele>1137.800048828125</ele>
        <time>2022-05-03T12:21:33.000Z</time>
      </trkpt>
      <trkpt lat="40.80120689235627651214599609375" lon="-1.7954889871180057525634765625">
        <ele>1137</ele>
        <time>2022-05-03T12:21:35.000Z</time>
      </trkpt>
      <trkpt lat="40.8011957444250583648681640625" lon="-1.795599125325679779052734375">
        <ele>1136.199951171875</ele>
        <time>2022-05-03T12:21:37.000Z</time>
      </trkpt>
      <trkpt lat="40.8011927269399166107177734375" lon="-1.795708425343036651611328125">
        <ele>1135.4000244140625</ele>
        <time>2022-05-03T12:21:39.000Z</time>
      </trkpt>
      <trkpt lat="40.80119733698666095733642578125" lon="-1.79581680335104465484619140625">
        <ele>1135.800048828125</ele>
        <time>2022-05-03T12:21:41.000Z</time>
      </trkpt>
      <trkpt lat="40.80120270140469074249267578125" lon="-1.79592744447290897369384765625">
        <ele>1136.199951171875</ele>
        <time>2022-05-03T12:21:43.000Z</time>
      </trkpt>
      <trkpt lat="40.80120488069951534271240234375" lon="-1.795983351767063140869140625">
        <ele>1136</ele>
        <time>2022-05-03T12:21:44.000Z</time>
      </trkpt>
      <trkpt lat="40.80120638944208621978759765625" lon="-1.7960398457944393157958984375">
        <ele>1135.800048828125</ele>
        <time>2022-05-03T12:21:45.000Z</time>
      </trkpt>
      <trkpt lat="40.80120823346078395843505859375" lon="-1.79615375585854053497314453125">
        <ele>1135.5999755859375</ele>
        <time>2022-05-03T12:21:47.000Z</time>
      </trkpt>
      <trkpt lat="40.80121041275560855865478515625" lon="-1.796278059482574462890625">
        <ele>1135.199951171875</ele>
        <time>2022-05-03T12:21:49.000Z</time>
      </trkpt>
      <trkpt lat="40.80121058039367198944091796875" lon="-1.796412169933319091796875">
        <ele>1135</ele>
        <time>2022-05-03T12:21:51.000Z</time>
      </trkpt>
      <trkpt lat="40.8012098260223865509033203125" lon="-1.79648458957672119140625">
        <ele>1134.800048828125</ele>
        <time>2022-05-03T12:21:52.000Z</time>
      </trkpt>
      <trkpt lat="40.8012091554701328277587890625" lon="-1.796560697257518768310546875">
        <ele>1134.5999755859375</ele>
        <time>2022-05-03T12:21:53.000Z</time>
      </trkpt>
      <trkpt lat="40.80120974220335483551025390625" lon="-1.79664007388055324554443359375">
        <ele>1134</ele>
        <time>2022-05-03T12:21:54.000Z</time>
      </trkpt>
      <trkpt lat="40.8012104965746402740478515625" lon="-1.7967221327126026153564453125">
        <ele>1133.4000244140625</ele>
        <time>2022-05-03T12:21:55.000Z</time>
      </trkpt>
      <trkpt lat="40.8012123405933380126953125" lon="-1.7968974821269512176513671875">
        <ele>1132.4000244140625</ele>
        <time>2022-05-03T12:21:57.000Z</time>
      </trkpt>
      <trkpt lat="40.80121343024075031280517578125" lon="-1.79699161089956760406494140625">
        <ele>1131.800048828125</ele>
        <time>2022-05-03T12:21:58.000Z</time>
      </trkpt>
      <trkpt lat="40.801214687526226043701171875" lon="-1.7970885895192623138427734375">
        <ele>1131.199951171875</ele>
        <time>2022-05-03T12:21:59.000Z</time>
      </trkpt>
      <trkpt lat="40.8012202195823192596435546875" lon="-1.79728765971958637237548828125">
        <ele>1130</ele>
        <time>2022-05-03T12:22:01.000Z</time>
      </trkpt>
      <trkpt lat="40.80122415907680988311767578125" lon="-1.79738782346248626708984375">
        <ele>1129.4000244140625</ele>
        <time>2022-05-03T12:22:02.000Z</time>
      </trkpt>
      <trkpt lat="40.80122776329517364501953125" lon="-1.79748765192925930023193359375">
        <ele>1129.199951171875</ele>
        <time>2022-05-03T12:22:03.000Z</time>
      </trkpt>
      <trkpt lat="40.80122835002839565277099609375" lon="-1.79768881760537624359130859375">
        <ele>1128.4000244140625</ele>
        <time>2022-05-03T12:22:05.000Z</time>
      </trkpt>
      <trkpt lat="40.80122801475226879119873046875" lon="-1.7978833615779876708984375">
        <ele>1127.5999755859375</ele>
        <time>2022-05-03T12:22:07.000Z</time>
      </trkpt>
      <trkpt lat="40.80122801475226879119873046875" lon="-1.79797899909317493438720703125">
        <ele>1127</ele>
        <time>2022-05-03T12:22:08.000Z</time>
      </trkpt>
      <trkpt lat="40.80122918821871280670166015625" lon="-1.798073463141918182373046875">
        <ele>1126.5999755859375</ele>
        <time>2022-05-03T12:22:09.000Z</time>
      </trkpt>
      <trkpt lat="40.8012336306273937225341796875" lon="-1.79825845174491405487060546875">
        <ele>1125.800048828125</ele>
        <time>2022-05-03T12:22:11.000Z</time>
      </trkpt>
      <trkpt lat="40.801237486302852630615234375" lon="-1.79843815974891185760498046875">
        <ele>1125.199951171875</ele>
        <time>2022-05-03T12:22:13.000Z</time>
      </trkpt>
      <trkpt lat="40.80124025233089923858642578125" lon="-1.79852751083672046661376953125">
        <ele>1125</ele>
        <time>2022-05-03T12:22:14.000Z</time>
      </trkpt>
      <trkpt lat="40.801242180168628692626953125" lon="-1.798616610467433929443359375">
        <ele>1124.800048828125</ele>
        <time>2022-05-03T12:22:15.000Z</time>
      </trkpt>
      <trkpt lat="40.80124209634959697723388671875" lon="-1.79879598319530487060546875">
        <ele>1124.199951171875</ele>
        <time>2022-05-03T12:22:17.000Z</time>
      </trkpt>
      <trkpt lat="40.80124075524508953094482421875" lon="-1.7989782057702541351318359375">
        <ele>1123.800048828125</ele>
        <time>2022-05-03T12:22:19.000Z</time>
      </trkpt>
      <trkpt lat="40.80123991705477237701416015625" lon="-1.799071244895458221435546875">
        <ele>1123.4000244140625</ele>
        <time>2022-05-03T12:22:20.000Z</time>
      </trkpt>
      <trkpt lat="40.80123991705477237701416015625" lon="-1.79916654713451862335205078125">
        <ele>1122.5999755859375</ele>
        <time>2022-05-03T12:22:21.000Z</time>
      </trkpt>
      <trkpt lat="40.8012418448925018310546875" lon="-1.799364276230335235595703125">
        <ele>1122</ele>
        <time>2022-05-03T12:22:23.000Z</time>
      </trkpt>
      <trkpt lat="40.8012445271015167236328125" lon="-1.7995760031044483184814453125">
        <ele>1121.4000244140625</ele>
        <time>2022-05-03T12:22:25.000Z</time>
      </trkpt>
      <trkpt lat="40.80124427564442157745361328125" lon="-1.7996873147785663604736328125">
        <ele>1121.199951171875</ele>
        <time>2022-05-03T12:22:26.000Z</time>
      </trkpt>
      <trkpt lat="40.8012430183589458465576171875" lon="-1.799801476299762725830078125">
        <ele>1120.800048828125</ele>
        <time>2022-05-03T12:22:27.000Z</time>
      </trkpt>
      <trkpt lat="40.80124276690185070037841796875" lon="-1.80003625340759754180908203125">
        <ele>1120.800048828125</ele>
        <time>2022-05-03T12:22:29.000Z</time>
      </trkpt>
      <trkpt lat="40.80124343745410442352294921875" lon="-1.8002732098102569580078125">
        <ele>1120.800048828125</ele>
        <time>2022-05-03T12:22:31.000Z</time>
      </trkpt>
      <trkpt lat="40.80124511383473873138427734375" lon="-1.800505220890045166015625">
        <ele>1120.800048828125</ele>
        <time>2022-05-03T12:22:33.000Z</time>
      </trkpt>
      <trkpt lat="40.8012470416724681854248046875" lon="-1.80061317980289459228515625">
        <ele>1120.800048828125</ele>
        <time>2022-05-03T12:22:34.000Z</time>
      </trkpt>
      <trkpt lat="40.8012485504150390625" lon="-1.8007129244506359100341796875">
        <ele>1120.800048828125</ele>
        <time>2022-05-03T12:22:35.000Z</time>
      </trkpt>
      <trkpt lat="40.8012490533292293548583984375" lon="-1.80080504156649112701416015625">
        <ele>1121.199951171875</ele>
        <time>2022-05-03T12:22:36.000Z</time>
      </trkpt>
      <trkpt lat="40.801248885691165924072265625" lon="-1.8008892796933650970458984375">
        <ele>1121.4000244140625</ele>
        <time>2022-05-03T12:22:37.000Z</time>
      </trkpt>
      <trkpt lat="40.80124796368181705474853515625" lon="-1.80103654973208904266357421875">
        <ele>1121.5999755859375</ele>
        <time>2022-05-03T12:22:39.000Z</time>
      </trkpt>
      <trkpt lat="40.80124762840569019317626953125" lon="-1.80110192857682704925537109375">
        <ele>1121.5999755859375</ele>
        <time>2022-05-03T12:22:40.000Z</time>
      </trkpt>
      <trkpt lat="40.80124653875827789306640625" lon="-1.8011648766696453094482421875">
        <ele>1121.800048828125</ele>
        <time>2022-05-03T12:22:41.000Z</time>
      </trkpt>
      <trkpt lat="40.801237486302852630615234375" lon="-1.8012885935604572296142578125">
        <ele>1121.800048828125</ele>
        <time>2022-05-03T12:22:43.000Z</time>
      </trkpt>
      <trkpt lat="40.80121845938265323638916015625" lon="-1.80140518583357334136962890625">
        <ele>1122</ele>
        <time>2022-05-03T12:22:45.000Z</time>
      </trkpt>
      <trkpt lat="40.8012047968804836273193359375" lon="-1.80145740509033203125">
        <ele>1122.199951171875</ele>
        <time>2022-05-03T12:22:46.000Z</time>
      </trkpt>
      <trkpt lat="40.80118929035961627960205078125" lon="-1.8015048466622829437255859375">
        <ele>1122.199951171875</ele>
        <time>2022-05-03T12:22:47.000Z</time>
      </trkpt>
      <trkpt lat="40.8011548407375812530517578125" lon="-1.80158455856144428253173828125">
        <ele>1122.4000244140625</ele>
        <time>2022-05-03T12:22:49.000Z</time>
      </trkpt>
      <trkpt lat="40.8011357299983501434326171875" lon="-1.80161959491670131683349609375">
        <ele>1122.5999755859375</ele>
        <time>2022-05-03T12:22:50.000Z</time>
      </trkpt>
      <trkpt lat="40.801116786897182464599609375" lon="-1.80165379308164119720458984375">
        <ele>1122.800048828125</ele>
        <time>2022-05-03T12:22:51.000Z</time>
      </trkpt>
      <trkpt lat="40.801095999777317047119140625" lon="-1.80168363265693187713623046875">
        <ele>1123</ele>
        <time>2022-05-03T12:22:52.000Z</time>
      </trkpt>
      <trkpt lat="40.80107613466680049896240234375" lon="-1.8017133884131908416748046875">
        <ele>1123.199951171875</ele>
        <time>2022-05-03T12:22:53.000Z</time>
      </trkpt>
      <trkpt lat="40.8010384999215602874755859375" lon="-1.80177767761051654815673828125">
        <ele>1123.5999755859375</ele>
        <time>2022-05-03T12:22:55.000Z</time>
      </trkpt>
      <trkpt lat="40.8010180480778217315673828125" lon="-1.80181019939482212066650390625">
        <ele>1123.5999755859375</ele>
        <time>2022-05-03T12:22:56.000Z</time>
      </trkpt>
      <trkpt lat="40.8009955845773220062255859375" lon="-1.80184322409331798553466796875">
        <ele>1123.800048828125</ele>
        <time>2022-05-03T12:22:57.000Z</time>
      </trkpt>
      <trkpt lat="40.800946466624736785888671875" lon="-1.80191681720316410064697265625">
        <ele>1124.199951171875</ele>
        <time>2022-05-03T12:22:59.000Z</time>
      </trkpt>
      <trkpt lat="40.800901539623737335205078125" lon="-1.80198085494339466094970703125">
        <ele>1124.5999755859375</ele>
        <time>2022-05-03T12:23:01.000Z</time>
      </trkpt>
      <trkpt lat="40.80086809583008289337158203125" lon="-1.80203349329531192779541015625">
        <ele>1125</ele>
        <time>2022-05-03T12:23:03.000Z</time>
      </trkpt>
      <trkpt lat="40.800851248204708099365234375" lon="-1.80205998010933399200439453125">
        <ele>1125</ele>
        <time>2022-05-03T12:23:04.000Z</time>
      </trkpt>
      <trkpt lat="40.8008326403796672821044921875" lon="-1.80208780802786350250244140625">
        <ele>1125.199951171875</ele>
        <time>2022-05-03T12:23:05.000Z</time>
      </trkpt>
      <trkpt lat="40.80078930594027042388916015625" lon="-1.80214664898812770843505859375">
        <ele>1125.5999755859375</ele>
        <time>2022-05-03T12:23:07.000Z</time>
      </trkpt>
      <trkpt lat="40.800749324262142181396484375" lon="-1.80221051909029483795166015625">
        <ele>1126</ele>
        <time>2022-05-03T12:23:09.000Z</time>
      </trkpt>
      <trkpt lat="40.80072962678968906402587890625" lon="-1.8022404424846172332763671875">
        <ele>1126.4000244140625</ele>
        <time>2022-05-03T12:23:10.000Z</time>
      </trkpt>
      <trkpt lat="40.800711773335933685302734375" lon="-1.802268438041210174560546875">
        <ele>1126.5999755859375</ele>
        <time>2022-05-03T12:23:11.000Z</time>
      </trkpt>
      <trkpt lat="40.80067933537065982818603515625" lon="-1.8023188970983028411865234375">
        <ele>1127</ele>
        <time>2022-05-03T12:23:13.000Z</time>
      </trkpt>
      <trkpt lat="40.80065050162374973297119140625" lon="-1.802364327013492584228515625">
        <ele>1127.199951171875</ele>
        <time>2022-05-03T12:23:15.000Z</time>
      </trkpt>
      <trkpt lat="40.80062032677233219146728515625" lon="-1.802411265671253204345703125">
        <ele>1127.5999755859375</ele>
        <time>2022-05-03T12:23:17.000Z</time>
      </trkpt>
      <trkpt lat="40.80060373060405254364013671875" lon="-1.80243599228560924530029296875">
        <ele>1127.5999755859375</ele>
        <time>2022-05-03T12:23:18.000Z</time>
      </trkpt>
      <trkpt lat="40.80058629624545574188232421875" lon="-1.80246130563318729400634765625">
        <ele>1127.5999755859375</ele>
        <time>2022-05-03T12:23:19.000Z</time>
      </trkpt>
      <trkpt lat="40.800552852451801300048828125" lon="-1.80251394398510456085205078125">
        <ele>1127.800048828125</ele>
        <time>2022-05-03T12:23:21.000Z</time>
      </trkpt>
      <trkpt lat="40.800522007048130035400390625" lon="-1.802559457719326019287109375">
        <ele>1128</ele>
        <time>2022-05-03T12:23:23.000Z</time>
      </trkpt>
      <trkpt lat="40.80048889853060245513916015625" lon="-1.802609078586101531982421875">
        <ele>1128.4000244140625</ele>
        <time>2022-05-03T12:23:25.000Z</time>
      </trkpt>
      <trkpt lat="40.8004695363342761993408203125" lon="-1.80263866670429706573486328125">
        <ele>1128.5999755859375</ele>
        <time>2022-05-03T12:23:26.000Z</time>
      </trkpt>
      <trkpt lat="40.80045101232826709747314453125" lon="-1.80266934446990489959716796875">
        <ele>1128.800048828125</ele>
        <time>2022-05-03T12:23:27.000Z</time>
      </trkpt>
      <trkpt lat="40.80041513778269290924072265625" lon="-1.802723072469234466552734375">
        <ele>1129</ele>
        <time>2022-05-03T12:23:29.000Z</time>
      </trkpt>
      <trkpt lat="40.80038026906549930572509765625" lon="-1.802774369716644287109375">
        <ele>1129.4000244140625</ele>
        <time>2022-05-03T12:23:31.000Z</time>
      </trkpt>
      <trkpt lat="40.800352357327938079833984375" lon="-1.80282508023083209991455078125">
        <ele>1129.5999755859375</ele>
        <time>2022-05-03T12:23:33.000Z</time>
      </trkpt>
      <trkpt lat="40.80032193101942539215087890625" lon="-1.80287696421146392822265625">
        <ele>1130</ele>
        <time>2022-05-03T12:23:35.000Z</time>
      </trkpt>
      <trkpt lat="40.80029041506350040435791015625" lon="-1.80292398668825626373291015625">
        <ele>1130.199951171875</ele>
        <time>2022-05-03T12:23:37.000Z</time>
      </trkpt>
      <trkpt lat="40.80026292242109775543212890625" lon="-1.80296673439443111419677734375">
        <ele>1130.5999755859375</ele>
        <time>2022-05-03T12:23:39.000Z</time>
      </trkpt>
      <trkpt lat="40.800247751176357269287109375" lon="-1.8029867671430110931396484375">
        <ele>1130.5999755859375</ele>
        <time>2022-05-03T12:23:40.000Z</time>
      </trkpt>
      <trkpt lat="40.80023190937936305999755859375" lon="-1.8030072189867496490478515625">
        <ele>1130.800048828125</ele>
        <time>2022-05-03T12:23:41.000Z</time>
      </trkpt>
      <trkpt lat="40.80020357854664325714111328125" lon="-1.80304468609392642974853515625">
        <ele>1131</ele>
        <time>2022-05-03T12:23:43.000Z</time>
      </trkpt>
      <trkpt lat="40.800173990428447723388671875" lon="-1.803077124059200286865234375">
        <ele>1131.199951171875</ele>
        <time>2022-05-03T12:23:45.000Z</time>
      </trkpt>
      <trkpt lat="40.8001434803009033203125" lon="-1.80310386233031749725341796875">
        <ele>1131.4000244140625</ele>
        <time>2022-05-03T12:23:47.000Z</time>
      </trkpt>
      <trkpt lat="40.8001117967069149017333984375" lon="-1.8031249009072780609130859375">
        <ele>1131.4000244140625</ele>
        <time>2022-05-03T12:23:49.000Z</time>
      </trkpt>
      <trkpt lat="40.80009629018604755401611328125" lon="-1.80313185788691043853759765625">
        <ele>1131.4000244140625</ele>
        <time>2022-05-03T12:23:50.000Z</time>
      </trkpt>
      <trkpt lat="40.80008002929389476776123046875" lon="-1.80314141325652599334716796875">
        <ele>1131.5999755859375</ele>
        <time>2022-05-03T12:23:51.000Z</time>
      </trkpt>
      <trkpt lat="40.80006175674498081207275390625" lon="-1.8031503818929195404052734375">
        <ele>1131.5999755859375</ele>
        <time>2022-05-03T12:23:52.000Z</time>
      </trkpt>
      <trkpt lat="40.8000440709292888641357421875" lon="-1.80315784178674221038818359375">
        <ele>1131.5999755859375</ele>
        <time>2022-05-03T12:23:53.000Z</time>
      </trkpt>
      <trkpt lat="40.8000051788985729217529296875" lon="-1.80316857062280178070068359375">
        <ele>1131.800048828125</ele>
        <time>2022-05-03T12:23:55.000Z</time>
      </trkpt>
      <trkpt lat="40.79996938817203044891357421875" lon="-1.803177706897258758544921875">
        <ele>1131.800048828125</ele>
        <time>2022-05-03T12:23:57.000Z</time>
      </trkpt>
      <trkpt lat="40.7999525405466556549072265625" lon="-1.80318139493465423583984375">
        <ele>1131.800048828125</ele>
        <time>2022-05-03T12:23:58.000Z</time>
      </trkpt>
      <trkpt lat="40.79993519000709056854248046875" lon="-1.8031860888004302978515625">
        <ele>1131.800048828125</ele>
        <time>2022-05-03T12:23:59.000Z</time>
      </trkpt>
      <trkpt lat="40.79991725273430347442626953125" lon="-1.8031906150281429290771484375">
        <ele>1131.800048828125</ele>
        <time>2022-05-03T12:24:00.000Z</time>
      </trkpt>
      <trkpt lat="40.79989914782345294952392578125" lon="-1.80319556035101413726806640625">
        <ele>1131.800048828125</ele>
        <time>2022-05-03T12:24:01.000Z</time>
      </trkpt>
      <trkpt lat="40.79986008815467357635498046875" lon="-1.803205199539661407470703125">
        <ele>1132</ele>
        <time>2022-05-03T12:24:03.000Z</time>
      </trkpt>
      <trkpt lat="40.79982052557170391082763671875" lon="-1.80321299470961093902587890625">
        <ele>1132</ele>
        <time>2022-05-03T12:24:05.000Z</time>
      </trkpt>
      <trkpt lat="40.79978071153163909912109375" lon="-1.80322288535535335540771484375">
        <ele>1132</ele>
        <time>2022-05-03T12:24:07.000Z</time>
      </trkpt>
      <trkpt lat="40.79973922111093997955322265625" lon="-1.803232692182064056396484375">
        <ele>1132</ele>
        <time>2022-05-03T12:24:09.000Z</time>
      </trkpt>
      <trkpt lat="40.7997178472578525543212890625" lon="-1.803236715495586395263671875">
        <ele>1132</ele>
        <time>2022-05-03T12:24:10.000Z</time>
      </trkpt>
      <trkpt lat="40.79969647340476512908935546875" lon="-1.80324115790426731109619140625">
        <ele>1132</ele>
        <time>2022-05-03T12:24:11.000Z</time>
      </trkpt>
      <trkpt lat="40.79965339042246341705322265625" lon="-1.80325071327388286590576171875">
        <ele>1132</ele>
        <time>2022-05-03T12:24:13.000Z</time>
      </trkpt>
      <trkpt lat="40.7996115647256374359130859375" lon="-1.8032600171864032745361328125">
        <ele>1132</ele>
        <time>2022-05-03T12:24:15.000Z</time>
      </trkpt>
      <trkpt lat="40.79956806264817714691162109375" lon="-1.80326856672763824462890625">
        <ele>1131.800048828125</ele>
        <time>2022-05-03T12:24:17.000Z</time>
      </trkpt>
      <trkpt lat="40.79952464438974857330322265625" lon="-1.80327870883047580718994140625">
        <ele>1131.800048828125</ele>
        <time>2022-05-03T12:24:19.000Z</time>
      </trkpt>
      <trkpt lat="40.79948139376938343048095703125" lon="-1.80328541435301303863525390625">
        <ele>1131.5999755859375</ele>
        <time>2022-05-03T12:24:21.000Z</time>
      </trkpt>
      <trkpt lat="40.7994367182254791259765625" lon="-1.80329614318907260894775390625">
        <ele>1131.5999755859375</ele>
        <time>2022-05-03T12:24:23.000Z</time>
      </trkpt>
      <trkpt lat="40.79938969574868679046630859375" lon="-1.8033076263964176177978515625">
        <ele>1131.5999755859375</ele>
        <time>2022-05-03T12:24:25.000Z</time>
      </trkpt>
      <trkpt lat="40.79934326000511646270751953125" lon="-1.80331558920443058013916015625">
        <ele>1131.4000244140625</ele>
        <time>2022-05-03T12:24:27.000Z</time>
      </trkpt>
      <trkpt lat="40.79932062886655330657958984375" lon="-1.8033201992511749267578125">
        <ele>1131.4000244140625</ele>
        <time>2022-05-03T12:24:28.000Z</time>
      </trkpt>
      <trkpt lat="40.799298249185085296630859375" lon="-1.80332631804049015045166015625">
        <ele>1131.4000244140625</ele>
        <time>2022-05-03T12:24:29.000Z</time>
      </trkpt>
      <trkpt lat="40.7992534898221492767333984375" lon="-1.80333939380943775177001953125">
        <ele>1131.4000244140625</ele>
        <time>2022-05-03T12:24:31.000Z</time>
      </trkpt>
      <trkpt lat="40.79920713789761066436767578125" lon="-1.803352050483226776123046875">
        <ele>1131.199951171875</ele>
        <time>2022-05-03T12:24:33.000Z</time>
      </trkpt>
      <trkpt lat="40.799184255301952362060546875" lon="-1.80336001329123973846435546875">
        <ele>1131.199951171875</ele>
        <time>2022-05-03T12:24:34.000Z</time>
      </trkpt>
      <trkpt lat="40.7991602830588817596435546875" lon="-1.80336604826152324676513671875">
        <ele>1131.199951171875</ele>
        <time>2022-05-03T12:24:35.000Z</time>
      </trkpt>
      <trkpt lat="40.7991123385727405548095703125" lon="-1.80337795056402683258056640625">
        <ele>1131.199951171875</ele>
        <time>2022-05-03T12:24:37.000Z</time>
      </trkpt>
      <trkpt lat="40.79908828251063823699951171875" lon="-1.80338180623948574066162109375">
        <ele>1131</ele>
        <time>2022-05-03T12:24:38.000Z</time>
      </trkpt>
      <trkpt lat="40.79906347207725048065185546875" lon="-1.803387589752674102783203125">
        <ele>1131</ele>
        <time>2022-05-03T12:24:39.000Z</time>
      </trkpt>
      <trkpt lat="40.79901418648660182952880859375" lon="-1.8034011684358119964599609375">
        <ele>1131</ele>
        <time>2022-05-03T12:24:41.000Z</time>
      </trkpt>
      <trkpt lat="40.79896490089595317840576171875" lon="-1.80341583676636219024658203125">
        <ele>1131</ele>
        <time>2022-05-03T12:24:43.000Z</time>
      </trkpt>
      <trkpt lat="40.79890974797308444976806640625" lon="-1.803429163992404937744140625">
        <ele>1130.800048828125</ele>
        <time>2022-05-03T12:24:45.000Z</time>
      </trkpt>
      <trkpt lat="40.798881165683269500732421875" lon="-1.80343712680041790008544921875">
        <ele>1130.800048828125</ele>
        <time>2022-05-03T12:24:46.000Z</time>
      </trkpt>
      <trkpt lat="40.79885208047926425933837890625" lon="-1.80344567634165287017822265625">
        <ele>1130.800048828125</ele>
        <time>2022-05-03T12:24:47.000Z</time>
      </trkpt>
      <trkpt lat="40.7987914793193340301513671875" lon="-1.80345833301544189453125">
        <ele>1130.800048828125</ele>
        <time>2022-05-03T12:24:49.000Z</time>
      </trkpt>
      <trkpt lat="40.79872953705489635467529296875" lon="-1.80347065441310405731201171875">
        <ele>1131</ele>
        <time>2022-05-03T12:24:51.000Z</time>
      </trkpt>
      <trkpt lat="40.7986697740852832794189453125" lon="-1.80348607711493968963623046875">
        <ele>1131</ele>
        <time>2022-05-03T12:24:53.000Z</time>
      </trkpt>
      <trkpt lat="40.7986395992338657379150390625" lon="-1.80349387228488922119140625">
        <ele>1131</ele>
        <time>2022-05-03T12:24:54.000Z</time>
      </trkpt>
      <trkpt lat="40.79860858619213104248046875" lon="-1.8035000748932361602783203125">
        <ele>1131</ele>
        <time>2022-05-03T12:24:55.000Z</time>
      </trkpt>
      <trkpt lat="40.79854597337543964385986328125" lon="-1.80350820533931255340576171875">
        <ele>1131.199951171875</ele>
        <time>2022-05-03T12:24:57.000Z</time>
      </trkpt>
      <trkpt lat="40.79848193563520908355712890625" lon="-1.8035213649272918701171875">
        <ele>1131.199951171875</ele>
        <time>2022-05-03T12:24:59.000Z</time>
      </trkpt>
      <trkpt lat="40.79841387458145618438720703125" lon="-1.80353854782879352569580078125">
        <ele>1131.4000244140625</ele>
        <time>2022-05-03T12:25:01.000Z</time>
      </trkpt>
      <trkpt lat="40.7983777485787868499755859375" lon="-1.80354676209390163421630859375">
        <ele>1131.4000244140625</ele>
        <time>2022-05-03T12:25:02.000Z</time>
      </trkpt>
      <trkpt lat="40.798340030014514923095703125" lon="-1.8035543896257877349853515625">
        <ele>1131.4000244140625</ele>
        <time>2022-05-03T12:25:03.000Z</time>
      </trkpt>
      <trkpt lat="40.798259563744068145751953125" lon="-1.8035718239843845367431640625">
        <ele>1131.5999755859375</ele>
        <time>2022-05-03T12:25:05.000Z</time>
      </trkpt>
      <trkpt lat="40.79817415215075016021728515625" lon="-1.8035942874848842620849609375">
        <ele>1131.800048828125</ele>
        <time>2022-05-03T12:25:07.000Z</time>
      </trkpt>
      <trkpt lat="40.79808698035776615142822265625" lon="-1.80361800827085971832275390625">
        <ele>1132</ele>
        <time>2022-05-03T12:25:09.000Z</time>
      </trkpt>
      <trkpt lat="40.79804892651736736297607421875" lon="-1.80363141931593418121337890625">
        <ele>1132</ele>
        <time>2022-05-03T12:25:10.000Z</time>
      </trkpt>
      <trkpt lat="40.79801581799983978271484375" lon="-1.8036455847322940826416015625">
        <ele>1132</ele>
        <time>2022-05-03T12:25:11.000Z</time>
      </trkpt>
      <trkpt lat="40.79798706807196140289306640625" lon="-1.80366142652928829193115234375">
        <ele>1132</ele>
        <time>2022-05-03T12:25:12.000Z</time>
      </trkpt>
      <trkpt lat="40.7979653589427471160888671875" lon="-1.803683973848819732666015625">
        <ele>1132.199951171875</ele>
        <time>2022-05-03T12:25:13.000Z</time>
      </trkpt>
      <trkpt lat="40.79794851131737232208251953125" lon="-1.80371289141476154327392578125">
        <ele>1132.199951171875</ele>
        <time>2022-05-03T12:25:14.000Z</time>
      </trkpt>
      <trkpt lat="40.79794205725193023681640625" lon="-1.8037501908838748931884765625">
        <ele>1132.199951171875</ele>
        <time>2022-05-03T12:25:15.000Z</time>
      </trkpt>
      <trkpt lat="40.79796695150434970855712890625" lon="-1.80383124388754367828369140625">
        <ele>1132.4000244140625</ele>
        <time>2022-05-03T12:25:17.000Z</time>
      </trkpt>
      <trkpt lat="40.79801053740084171295166015625" lon="-1.8039049208164215087890625">
        <ele>1132.5999755859375</ele>
        <time>2022-05-03T12:25:19.000Z</time>
      </trkpt>
      <trkpt lat="40.7980478368699550628662109375" lon="-1.80398161523044109344482421875">
        <ele>1132.800048828125</ele>
        <time>2022-05-03T12:25:21.000Z</time>
      </trkpt>
      <trkpt lat="40.798079855740070343017578125" lon="-1.804063506424427032470703125">
        <ele>1133</ele>
        <time>2022-05-03T12:25:23.000Z</time>
      </trkpt>
      <trkpt lat="40.7981117069721221923828125" lon="-1.8041478283703327178955078125">
        <ele>1132.800048828125</ele>
        <time>2022-05-03T12:25:25.000Z</time>
      </trkpt>
      <trkpt lat="40.7981417141854763031005859375" lon="-1.804233826696872711181640625">
        <ele>1132.5999755859375</ele>
        <time>2022-05-03T12:25:27.000Z</time>
      </trkpt>
      <trkpt lat="40.79817197285592555999755859375" lon="-1.804316975176334381103515625">
        <ele>1132.4000244140625</ele>
        <time>2022-05-03T12:25:29.000Z</time>
      </trkpt>
      <trkpt lat="40.7981983758509159088134765625" lon="-1.80440121330320835113525390625">
        <ele>1132.199951171875</ele>
        <time>2022-05-03T12:25:31.000Z</time>
      </trkpt>
      <trkpt lat="40.79822075553238391876220703125" lon="-1.8044851161539554595947265625">
        <ele>1132</ele>
        <time>2022-05-03T12:25:33.000Z</time>
      </trkpt>
      <trkpt lat="40.79824380576610565185546875" lon="-1.804569102823734283447265625">
        <ele>1131.800048828125</ele>
        <time>2022-05-03T12:25:35.000Z</time>
      </trkpt>
      <trkpt lat="40.7982674427330493927001953125" lon="-1.8046504072844982147216796875">
        <ele>1131.5999755859375</ele>
        <time>2022-05-03T12:25:37.000Z</time>
      </trkpt>
      <trkpt lat="40.7982892356812953948974609375" lon="-1.8047288618981838226318359375">
        <ele>1131.5999755859375</ele>
        <time>2022-05-03T12:25:39.000Z</time>
      </trkpt>
      <trkpt lat="40.79831094481050968170166015625" lon="-1.8048053048551082611083984375">
        <ele>1131.800048828125</ele>
        <time>2022-05-03T12:25:41.000Z</time>
      </trkpt>
      <trkpt lat="40.7983075082302093505859375" lon="-1.804875545203685760498046875">
        <ele>1132</ele>
        <time>2022-05-03T12:25:43.000Z</time>
      </trkpt>
      <trkpt lat="40.7982734777033329010009765625" lon="-1.80493162013590335845947265625">
        <ele>1132</ele>
        <time>2022-05-03T12:25:45.000Z</time>
      </trkpt>
      <trkpt lat="40.7982262037694454193115234375" lon="-1.80498073808848857879638671875">
        <ele>1132</ele>
        <time>2022-05-03T12:25:47.000Z</time>
      </trkpt>
      <trkpt lat="40.79820231534540653228759765625" lon="-1.80500789545476436614990234375">
        <ele>1132</ele>
        <time>2022-05-03T12:25:48.000Z</time>
      </trkpt>
      <trkpt lat="40.7981782592833042144775390625" lon="-1.8050342984497547149658203125">
        <ele>1132</ele>
        <time>2022-05-03T12:25:49.000Z</time>
      </trkpt>
      <trkpt lat="40.79812939278781414031982421875" lon="-1.80508333258330821990966796875">
        <ele>1132</ele>
        <time>2022-05-03T12:25:51.000Z</time>
      </trkpt>
      <trkpt lat="40.79807608388364315032958984375" lon="-1.80512993596494197845458984375">
        <ele>1132</ele>
        <time>2022-05-03T12:25:53.000Z</time>
      </trkpt>
      <trkpt lat="40.79802612774074077606201171875" lon="-1.8051663972437381744384765625">
        <ele>1132</ele>
        <time>2022-05-03T12:25:55.000Z</time>
      </trkpt>
      <trkpt lat="40.79800433479249477386474609375" lon="-1.80518223904073238372802734375">
        <ele>1132</ele>
        <time>2022-05-03T12:25:56.000Z</time>
      </trkpt>
      <trkpt lat="40.7979864813387393951416015625" lon="-1.805197410285472869873046875">
        <ele>1132</ele>
        <time>2022-05-03T12:25:57.000Z</time>
      </trkpt>
      <trkpt lat="40.79796242527663707733154296875" lon="-1.80523890070617198944091796875">
        <ele>1132.199951171875</ele>
        <time>2022-05-03T12:25:59.000Z</time>
      </trkpt>
      <trkpt lat="40.7979579828679561614990234375" lon="-1.805266477167606353759765625">
        <ele>1132.199951171875</ele>
        <time>2022-05-03T12:26:00.000Z</time>
      </trkpt>
      <trkpt lat="40.7979653589427471160888671875" lon="-1.805293969810009002685546875">
        <ele>1132.4000244140625</ele>
        <time>2022-05-03T12:26:01.000Z</time>
      </trkpt>
      <trkpt lat="40.79800416715443134307861328125" lon="-1.8053377233445644378662109375">
        <ele>1132.5999755859375</ele>
        <time>2022-05-03T12:26:03.000Z</time>
      </trkpt>
      <trkpt lat="40.79805160872638225555419921875" lon="-1.8053720891475677490234375">
        <ele>1132.800048828125</ele>
        <time>2022-05-03T12:26:05.000Z</time>
      </trkpt>
      <trkpt lat="40.79807491041719913482666015625" lon="-1.80539078079164028167724609375">
        <ele>1133</ele>
        <time>2022-05-03T12:26:06.000Z</time>
      </trkpt>
      <trkpt lat="40.79809854738414287567138671875" lon="-1.8054104782640933990478515625">
        <ele>1133</ele>
        <time>2022-05-03T12:26:07.000Z</time>
      </trkpt>
      <trkpt lat="40.79814531840384006500244140625" lon="-1.8054517172276973724365234375">
        <ele>1133.4000244140625</ele>
        <time>2022-05-03T12:26:09.000Z</time>
      </trkpt>
      <trkpt lat="40.79819284379482269287109375" lon="-1.80549588985741138458251953125">
        <ele>1133.800048828125</ele>
        <time>2022-05-03T12:26:11.000Z</time>
      </trkpt>
      <trkpt lat="40.7982406206429004669189453125" lon="-1.80554182268679141998291015625">
        <ele>1134</ele>
        <time>2022-05-03T12:26:13.000Z</time>
      </trkpt>
      <trkpt lat="40.79828730784356594085693359375" lon="-1.8055838160216808319091796875">
        <ele>1134.199951171875</ele>
        <time>2022-05-03T12:26:15.000Z</time>
      </trkpt>
      <trkpt lat="40.79833257012069225311279296875" lon="-1.805629245936870574951171875">
        <ele>1134.4000244140625</ele>
        <time>2022-05-03T12:26:17.000Z</time>
      </trkpt>
      <trkpt lat="40.79837749712169170379638671875" lon="-1.80567224510014057159423828125">
        <ele>1134.5999755859375</ele>
        <time>2022-05-03T12:26:19.000Z</time>
      </trkpt>
      <trkpt lat="40.7984161376953125" lon="-1.805707029998302459716796875">
        <ele>1134.800048828125</ele>
        <time>2022-05-03T12:26:21.000Z</time>
      </trkpt>
      <trkpt lat="40.79843549989163875579833984375" lon="-1.8057259730994701385498046875">
        <ele>1135</ele>
        <time>2022-05-03T12:26:22.000Z</time>
      </trkpt>
      <trkpt lat="40.79845578409731388092041015625" lon="-1.8057454191148281097412109375">
        <ele>1135</ele>
        <time>2022-05-03T12:26:23.000Z</time>
      </trkpt>
      <trkpt lat="40.79849836416542530059814453125" lon="-1.8057856522500514984130859375">
        <ele>1135.199951171875</ele>
        <time>2022-05-03T12:26:25.000Z</time>
      </trkpt>
      <trkpt lat="40.798541866242885589599609375" lon="-1.80582898668944835662841796875">
        <ele>1135.4000244140625</ele>
        <time>2022-05-03T12:26:27.000Z</time>
      </trkpt>
      <trkpt lat="40.7985864579677581787109375" lon="-1.8058748356997966766357421875">
        <ele>1135.5999755859375</ele>
        <time>2022-05-03T12:26:29.000Z</time>
      </trkpt>
      <trkpt lat="40.79863063059747219085693359375" lon="-1.80592034943401813507080078125">
        <ele>1135.800048828125</ele>
        <time>2022-05-03T12:26:31.000Z</time>
      </trkpt>
      <trkpt lat="40.79865326173603534698486328125" lon="-1.805943064391613006591796875">
        <ele>1136</ele>
        <time>2022-05-03T12:26:32.000Z</time>
      </trkpt>
      <trkpt lat="40.798676647245883941650390625" lon="-1.805966533720493316650390625">
        <ele>1136.199951171875</ele>
        <time>2022-05-03T12:26:33.000Z</time>
      </trkpt>
      <trkpt lat="40.7987234182655811309814453125" lon="-1.80601523257791996002197265625">
        <ele>1136.4000244140625</ele>
        <time>2022-05-03T12:26:35.000Z</time>
      </trkpt>
      <trkpt lat="40.798768512904644012451171875" lon="-1.8060635961592197418212890625">
        <ele>1136.5999755859375</ele>
        <time>2022-05-03T12:26:37.000Z</time>
      </trkpt>
      <trkpt lat="40.79879106022417545318603515625" lon="-1.80608698166906833648681640625">
        <ele>1136.5999755859375</ele>
        <time>2022-05-03T12:26:38.000Z</time>
      </trkpt>
      <trkpt lat="40.79881369136273860931396484375" lon="-1.80610894225537776947021484375">
        <ele>1136.800048828125</ele>
        <time>2022-05-03T12:26:39.000Z</time>
      </trkpt>
      <trkpt lat="40.79885845072567462921142578125" lon="-1.8061544559895992279052734375">
        <ele>1137</ele>
        <time>2022-05-03T12:26:41.000Z</time>
      </trkpt>
      <trkpt lat="40.79890304245054721832275390625" lon="-1.806198544800281524658203125">
        <ele>1137.199951171875</ele>
        <time>2022-05-03T12:26:43.000Z</time>
      </trkpt>
      <trkpt lat="40.79894763417541980743408203125" lon="-1.8062416277825832366943359375">
        <ele>1137.4000244140625</ele>
        <time>2022-05-03T12:26:45.000Z</time>
      </trkpt>
      <trkpt lat="40.7989879511296749114990234375" lon="-1.806282363831996917724609375">
        <ele>1137.800048828125</ele>
        <time>2022-05-03T12:26:47.000Z</time>
      </trkpt>
      <trkpt lat="40.79902944155037403106689453125" lon="-1.8063157238066196441650390625">
        <ele>1138</ele>
        <time>2022-05-03T12:26:49.000Z</time>
      </trkpt>
      <trkpt lat="40.799072273075580596923828125" lon="-1.80635168217122554779052734375">
        <ele>1138.199951171875</ele>
        <time>2022-05-03T12:26:51.000Z</time>
      </trkpt>
      <trkpt lat="40.79911527223885059356689453125" lon="-1.80639308877289295196533203125">
        <ele>1138</ele>
        <time>2022-05-03T12:26:53.000Z</time>
      </trkpt>
      <trkpt lat="40.7991572655737400054931640625" lon="-1.8064404465258121490478515625">
        <ele>1137.800048828125</ele>
        <time>2022-05-03T12:26:55.000Z</time>
      </trkpt>
      <trkpt lat="40.79919557087123394012451171875" lon="-1.8064905703067779541015625">
        <ele>1137.4000244140625</ele>
        <time>2022-05-03T12:26:57.000Z</time>
      </trkpt>
      <trkpt lat="40.79922951757907867431640625" lon="-1.80654396302998065948486328125">
        <ele>1137.199951171875</ele>
        <time>2022-05-03T12:26:59.000Z</time>
      </trkpt>
      <trkpt lat="40.79926815815269947052001953125" lon="-1.8065950088202953338623046875">
        <ele>1137.199951171875</ele>
        <time>2022-05-03T12:27:01.000Z</time>
      </trkpt>
      <trkpt lat="40.79930570907890796661376953125" lon="-1.8066461384296417236328125">
        <ele>1137.4000244140625</ele>
        <time>2022-05-03T12:27:03.000Z</time>
      </trkpt>
      <trkpt lat="40.79934594221413135528564453125" lon="-1.8066972680389881134033203125">
        <ele>1137.4000244140625</ele>
        <time>2022-05-03T12:27:05.000Z</time>
      </trkpt>
      <trkpt lat="40.79939153976738452911376953125" lon="-1.806749738752841949462890625">
        <ele>1137.4000244140625</ele>
        <time>2022-05-03T12:27:07.000Z</time>
      </trkpt>
      <trkpt lat="40.79941484145820140838623046875" lon="-1.80677731521427631378173828125">
        <ele>1137.5999755859375</ele>
        <time>2022-05-03T12:27:08.000Z</time>
      </trkpt>
      <trkpt lat="40.79943713732063770294189453125" lon="-1.80680480785667896270751953125">
        <ele>1137.5999755859375</ele>
        <time>2022-05-03T12:27:09.000Z</time>
      </trkpt>
      <trkpt lat="40.7994821481406688690185546875" lon="-1.806859038770198822021484375">
        <ele>1137.4000244140625</ele>
        <time>2022-05-03T12:27:11.000Z</time>
      </trkpt>
      <trkpt lat="40.79952397383749485015869140625" lon="-1.80691243149340152740478515625">
        <ele>1137.4000244140625</ele>
        <time>2022-05-03T12:27:13.000Z</time>
      </trkpt>
      <trkpt lat="40.79956077039241790771484375" lon="-1.80696506984531879425048828125">
        <ele>1137.199951171875</ele>
        <time>2022-05-03T12:27:15.000Z</time>
      </trkpt>
      <trkpt lat="40.79957594163715839385986328125" lon="-1.8069926463067531585693359375">
        <ele>1137.199951171875</ele>
        <time>2022-05-03T12:27:16.000Z</time>
      </trkpt>
      <trkpt lat="40.79959169961512088775634765625" lon="-1.80702156387269496917724609375">
        <ele>1137.199951171875</ele>
        <time>2022-05-03T12:27:17.000Z</time>
      </trkpt>
      <trkpt lat="40.79962489195168018341064453125" lon="-1.80708694271743297576904296875">
        <ele>1137</ele>
        <time>2022-05-03T12:27:19.000Z</time>
      </trkpt>
      <trkpt lat="40.7996578328311443328857421875" lon="-1.8071619607508182525634765625">
        <ele>1137</ele>
        <time>2022-05-03T12:27:21.000Z</time>
      </trkpt>
      <trkpt lat="40.79967501573264598846435546875" lon="-1.80720269680023193359375">
        <ele>1137</ele>
        <time>2022-05-03T12:27:22.000Z</time>
      </trkpt>
      <trkpt lat="40.7996933721005916595458984375" lon="-1.80724435485899448394775390625">
        <ele>1137</ele>
        <time>2022-05-03T12:27:23.000Z</time>
      </trkpt>
      <trkpt lat="40.79973234795033931732177734375" lon="-1.80732700042426586151123046875">
        <ele>1137</ele>
        <time>2022-05-03T12:27:25.000Z</time>
      </trkpt>
      <trkpt lat="40.79977408982813358306884765625" lon="-1.80740880779922008514404296875">
        <ele>1136.800048828125</ele>
        <time>2022-05-03T12:27:27.000Z</time>
      </trkpt>
      <trkpt lat="40.7998167537152767181396484375" lon="-1.807487010955810546875">
        <ele>1136.199951171875</ele>
        <time>2022-05-03T12:27:29.000Z</time>
      </trkpt>
      <trkpt lat="40.7998546399176120758056640625" lon="-1.80755699984729290008544921875">
        <ele>1135.5999755859375</ele>
        <time>2022-05-03T12:27:31.000Z</time>
      </trkpt>
      <trkpt lat="40.799873583018779754638671875" lon="-1.8075844086706638336181640625">
        <ele>1135.4000244140625</ele>
        <time>2022-05-03T12:27:32.000Z</time>
      </trkpt>
      <trkpt lat="40.799895711243152618408203125" lon="-1.80761248804628849029541015625">
        <ele>1135.199951171875</ele>
        <time>2022-05-03T12:27:33.000Z</time>
      </trkpt>
      <trkpt lat="40.799937285482883453369140625" lon="-1.80768348276615142822265625">
        <ele>1134.5999755859375</ele>
        <time>2022-05-03T12:27:35.000Z</time>
      </trkpt>
      <trkpt lat="40.79997777007520198822021484375" lon="-1.80776797235012054443359375">
        <ele>1134</ele>
        <time>2022-05-03T12:27:37.000Z</time>
      </trkpt>
      <trkpt lat="40.7999984733760356903076171875" lon="-1.807812564074993133544921875">
        <ele>1133.800048828125</ele>
        <time>2022-05-03T12:27:38.000Z</time>
      </trkpt>
      <trkpt lat="40.8000179193913936614990234375" lon="-1.80785992182791233062744140625">
        <ele>1133.4000244140625</ele>
        <time>2022-05-03T12:27:39.000Z</time>
      </trkpt>
      <trkpt lat="40.80004868097603321075439453125" lon="-1.80795446969568729400634765625">
        <ele>1133</ele>
        <time>2022-05-03T12:27:41.000Z</time>
      </trkpt>
      <trkpt lat="40.80007583834230899810791015625" lon="-1.8080494366586208343505859375">
        <ele>1132.800048828125</ele>
        <time>2022-05-03T12:27:43.000Z</time>
      </trkpt>
      <trkpt lat="40.80011271871626377105712890625" lon="-1.80814138613641262054443359375">
        <ele>1132.5999755859375</ele>
        <time>2022-05-03T12:27:45.000Z</time>
      </trkpt>
      <trkpt lat="40.80016401596367359161376953125" lon="-1.808230318129062652587890625">
        <ele>1132.5999755859375</ele>
        <time>2022-05-03T12:27:47.000Z</time>
      </trkpt>
      <trkpt lat="40.80022218637168407440185546875" lon="-1.8083144724369049072265625">
        <ele>1132.4000244140625</ele>
        <time>2022-05-03T12:27:49.000Z</time>
      </trkpt>
      <trkpt lat="40.80028488300740718841552734375" lon="-1.8083987943828105926513671875">
        <ele>1132.199951171875</ele>
        <time>2022-05-03T12:27:51.000Z</time>
      </trkpt>
      <trkpt lat="40.800316147506237030029296875" lon="-1.8084418773651123046875">
        <ele>1132.199951171875</ele>
        <time>2022-05-03T12:27:52.000Z</time>
      </trkpt>
      <trkpt lat="40.80034472979605197906494140625" lon="-1.8084866367280483245849609375">
        <ele>1132</ele>
        <time>2022-05-03T12:27:53.000Z</time>
      </trkpt>
      <trkpt lat="40.8003997988998889923095703125" lon="-1.80857959203422069549560546875">
        <ele>1131.5999755859375</ele>
        <time>2022-05-03T12:27:55.000Z</time>
      </trkpt>
      <trkpt lat="40.80045268870890140533447265625" lon="-1.8086757324635982513427734375">
        <ele>1131.4000244140625</ele>
        <time>2022-05-03T12:27:57.000Z</time>
      </trkpt>
      <trkpt lat="40.80049954354763031005859375" lon="-1.80877908132970333099365234375">
        <ele>1131</ele>
        <time>2022-05-03T12:27:59.000Z</time>
      </trkpt>
      <trkpt lat="40.80052074976265430450439453125" lon="-1.808833144605159759521484375">
        <ele>1130.800048828125</ele>
        <time>2022-05-03T12:28:00.000Z</time>
      </trkpt>
      <trkpt lat="40.80054019577801227569580078125" lon="-1.80888771079480648040771484375">
        <ele>1130.5999755859375</ele>
        <time>2022-05-03T12:28:01.000Z</time>
      </trkpt>
      <trkpt lat="40.80057120881974697113037109375" lon="-1.80899617262184619903564453125">
        <ele>1130.199951171875</ele>
        <time>2022-05-03T12:28:03.000Z</time>
      </trkpt>
      <trkpt lat="40.80059350468218326568603515625" lon="-1.80910346098244190216064453125">
        <ele>1129.800048828125</ele>
        <time>2022-05-03T12:28:05.000Z</time>
      </trkpt>
      <trkpt lat="40.8006080053746700286865234375" lon="-1.80915358476340770721435546875">
        <ele>1129.5999755859375</ele>
        <time>2022-05-03T12:28:06.000Z</time>
      </trkpt>
      <trkpt lat="40.8006237633526325225830078125" lon="-1.80920085869729518890380859375">
        <ele>1129.199951171875</ele>
        <time>2022-05-03T12:28:07.000Z</time>
      </trkpt>
      <trkpt lat="40.80066676251590251922607421875" lon="-1.8092889524996280670166015625">
        <ele>1128.800048828125</ele>
        <time>2022-05-03T12:28:09.000Z</time>
      </trkpt>
      <trkpt lat="40.80071873031556606292724609375" lon="-1.8093757890164852142333984375">
        <ele>1128.4000244140625</ele>
        <time>2022-05-03T12:28:11.000Z</time>
      </trkpt>
      <trkpt lat="40.80075141973793506622314453125" lon="-1.80941828526556491851806640625">
        <ele>1128.199951171875</ele>
        <time>2022-05-03T12:28:12.000Z</time>
      </trkpt>
      <trkpt lat="40.80078545026481151580810546875" lon="-1.80946044623851776123046875">
        <ele>1128</ele>
        <time>2022-05-03T12:28:13.000Z</time>
      </trkpt>
      <trkpt lat="40.80082031898200511932373046875" lon="-1.809501685202121734619140625">
        <ele>1127.800048828125</ele>
        <time>2022-05-03T12:28:14.000Z</time>
      </trkpt>
      <trkpt lat="40.800856612622737884521484375" lon="-1.809541918337345123291015625">
        <ele>1127.5999755859375</ele>
        <time>2022-05-03T12:28:15.000Z</time>
      </trkpt>
      <trkpt lat="40.800927020609378814697265625" lon="-1.80962565355002880096435546875">
        <ele>1127.5999755859375</ele>
        <time>2022-05-03T12:28:17.000Z</time>
      </trkpt>
      <trkpt lat="40.8009923994541168212890625" lon="-1.80971533991396427154541015625">
        <ele>1127.4000244140625</ele>
        <time>2022-05-03T12:28:19.000Z</time>
      </trkpt>
      <trkpt lat="40.80102148465812206268310546875" lon="-1.80976194329559803009033203125">
        <ele>1127.4000244140625</ele>
        <time>2022-05-03T12:28:20.000Z</time>
      </trkpt>
      <trkpt lat="40.80104981549084186553955078125" lon="-1.8098111450672149658203125">
        <ele>1127.4000244140625</ele>
        <time>2022-05-03T12:28:21.000Z</time>
      </trkpt>
      <trkpt lat="40.801076553761959075927734375" lon="-1.80986235849559307098388671875">
        <ele>1127.4000244140625</ele>
        <time>2022-05-03T12:28:22.000Z</time>
      </trkpt>
      <trkpt lat="40.80110060982406139373779296875" lon="-1.80991080589592456817626953125">
        <ele>1127.4000244140625</ele>
        <time>2022-05-03T12:28:23.000Z</time>
      </trkpt>
      <trkpt lat="40.801140256226062774658203125" lon="-1.80999546311795711517333984375">
        <ele>1127.5999755859375</ele>
        <time>2022-05-03T12:28:25.000Z</time>
      </trkpt>
      <trkpt lat="40.80115794204175472259521484375" lon="-1.810034103691577911376953125">
        <ele>1127.5999755859375</ele>
        <time>2022-05-03T12:28:26.000Z</time>
      </trkpt>
      <trkpt lat="40.80117437057197093963623046875" lon="-1.81007257662713527679443359375">
        <ele>1127.800048828125</ele>
        <time>2022-05-03T12:28:27.000Z</time>
      </trkpt>
      <trkpt lat="40.801207311451435089111328125" lon="-1.81015019305050373077392578125">
        <ele>1128</ele>
        <time>2022-05-03T12:28:29.000Z</time>
      </trkpt>
      <trkpt lat="40.801239497959613800048828125" lon="-1.8102237023413181304931640625">
        <ele>1128.199951171875</ele>
        <time>2022-05-03T12:28:31.000Z</time>
      </trkpt>
      <trkpt lat="40.80126740969717502593994140625" lon="-1.81028656661510467529296875">
        <ele>1128.5999755859375</ele>
        <time>2022-05-03T12:28:33.000Z</time>
      </trkpt>
      <trkpt lat="40.80129439942538738250732421875" lon="-1.81034783832728862762451171875">
        <ele>1128.800048828125</ele>
        <time>2022-05-03T12:28:35.000Z</time>
      </trkpt>
      <trkpt lat="40.80132239498198032379150390625" lon="-1.81040936149656772613525390625">
        <ele>1129</ele>
        <time>2022-05-03T12:28:37.000Z</time>
      </trkpt>
      <trkpt lat="40.8013503067195415496826171875" lon="-1.81046635843813419342041015625">
        <ele>1129.199951171875</ele>
        <time>2022-05-03T12:28:39.000Z</time>
      </trkpt>
      <trkpt lat="40.80137687735259532928466796875" lon="-1.81052603758871555328369140625">
        <ele>1129.5999755859375</ele>
        <time>2022-05-03T12:28:41.000Z</time>
      </trkpt>
      <trkpt lat="40.80140252597630023956298828125" lon="-1.8105863034725189208984375">
        <ele>1129.800048828125</ele>
        <time>2022-05-03T12:28:43.000Z</time>
      </trkpt>
      <trkpt lat="40.80141476355493068695068359375" lon="-1.810615472495555877685546875">
        <ele>1129.800048828125</ele>
        <time>2022-05-03T12:28:44.000Z</time>
      </trkpt>
      <trkpt lat="40.80142683349549770355224609375" lon="-1.810643970966339111328125">
        <ele>1129.800048828125</ele>
        <time>2022-05-03T12:28:45.000Z</time>
      </trkpt>
      <trkpt lat="40.80145214684307575225830078125" lon="-1.81070038117468357086181640625">
        <ele>1130.199951171875</ele>
        <time>2022-05-03T12:28:47.000Z</time>
      </trkpt>
      <trkpt lat="40.8014773763716220855712890625" lon="-1.81075754575431346893310546875">
        <ele>1130.4000244140625</ele>
        <time>2022-05-03T12:28:49.000Z</time>
      </trkpt>
      <trkpt lat="40.80150495283305644989013671875" lon="-1.81081362068653106689453125">
        <ele>1130.5999755859375</ele>
        <time>2022-05-03T12:28:51.000Z</time>
      </trkpt>
      <trkpt lat="40.80153278075158596038818359375" lon="-1.810870282351970672607421875">
        <ele>1131</ele>
        <time>2022-05-03T12:28:53.000Z</time>
      </trkpt>
      <trkpt lat="40.801562368869781494140625" lon="-1.81092199869453907012939453125">
        <ele>1131.199951171875</ele>
        <time>2022-05-03T12:28:55.000Z</time>
      </trkpt>
      <trkpt lat="40.80159388482570648193359375" lon="-1.810972206294536590576171875">
        <ele>1131.4000244140625</ele>
        <time>2022-05-03T12:28:57.000Z</time>
      </trkpt>
      <trkpt lat="40.801625065505504608154296875" lon="-1.81102124042809009552001953125">
        <ele>1131.5999755859375</ele>
        <time>2022-05-03T12:28:59.000Z</time>
      </trkpt>
      <trkpt lat="40.8016621135175228118896484375" lon="-1.81106599979102611541748046875">
        <ele>1132</ele>
        <time>2022-05-03T12:29:01.000Z</time>
      </trkpt>
      <trkpt lat="40.80168114043772220611572265625" lon="-1.811088882386684417724609375">
        <ele>1132</ele>
        <time>2022-05-03T12:29:02.000Z</time>
      </trkpt>
      <trkpt lat="40.80169974826276302337646484375" lon="-1.8111108429729938507080078125">
        <ele>1132.199951171875</ele>
        <time>2022-05-03T12:29:03.000Z</time>
      </trkpt>
      <trkpt lat="40.8017378859221935272216796875" lon="-1.8111540935933589935302734375">
        <ele>1132.4000244140625</ele>
        <time>2022-05-03T12:29:05.000Z</time>
      </trkpt>
      <trkpt lat="40.80177585594356060028076171875" lon="-1.81119508109986782073974609375">
        <ele>1132.800048828125</ele>
        <time>2022-05-03T12:29:07.000Z</time>
      </trkpt>
      <trkpt lat="40.801794715225696563720703125" lon="-1.81121419183909893035888671875">
        <ele>1132.800048828125</ele>
        <time>2022-05-03T12:29:08.000Z</time>
      </trkpt>
      <trkpt lat="40.8018129877746105194091796875" lon="-1.81123347021639347076416015625">
        <ele>1133</ele>
        <time>2022-05-03T12:29:09.000Z</time>
      </trkpt>
      <trkpt lat="40.8018324337899684906005859375" lon="-1.811253167688846588134765625">
        <ele>1133.199951171875</ele>
        <time>2022-05-03T12:29:10.000Z</time>
      </trkpt>
      <trkpt lat="40.80185213126242160797119140625" lon="-1.8112711049616336822509765625">
        <ele>1133.4000244140625</ele>
        <time>2022-05-03T12:29:11.000Z</time>
      </trkpt>
      <trkpt lat="40.80189228057861328125" lon="-1.81131209246814250946044921875">
        <ele>1133.5999755859375</ele>
        <time>2022-05-03T12:29:13.000Z</time>
      </trkpt>
      <trkpt lat="40.80193108879029750823974609375" lon="-1.81134981103241443634033203125">
        <ele>1134</ele>
        <time>2022-05-03T12:29:15.000Z</time>
      </trkpt>
      <trkpt lat="40.80196763388812541961669921875" lon="-1.8113867752254009246826171875">
        <ele>1134.4000244140625</ele>
        <time>2022-05-03T12:29:17.000Z</time>
      </trkpt>
      <trkpt lat="40.80199948512017726898193359375" lon="-1.8114256672561168670654296875">
        <ele>1134.5999755859375</ele>
        <time>2022-05-03T12:29:19.000Z</time>
      </trkpt>
      <trkpt lat="40.80202815122902393341064453125" lon="-1.81145961396396160125732421875">
        <ele>1134.800048828125</ele>
        <time>2022-05-03T12:29:21.000Z</time>
      </trkpt>
      <trkpt lat="40.80205346457660198211669921875" lon="-1.8114893697202205657958984375">
        <ele>1135.199951171875</ele>
        <time>2022-05-03T12:29:23.000Z</time>
      </trkpt>
      <trkpt lat="40.80207877792418003082275390625" lon="-1.81151476688683032989501953125">
        <ele>1135.4000244140625</ele>
        <time>2022-05-03T12:29:25.000Z</time>
      </trkpt>
      <trkpt lat="40.8020932786166667938232421875" lon="-1.8115272559225559234619140625">
        <ele>1135.4000244140625</ele>
        <time>2022-05-03T12:29:26.000Z</time>
      </trkpt>
      <trkpt lat="40.802106522023677825927734375" lon="-1.81153991259634494781494140625">
        <ele>1135.5999755859375</ele>
        <time>2022-05-03T12:29:27.000Z</time>
      </trkpt>
      <trkpt lat="40.8021318353712558746337890625" lon="-1.81156354956328868865966796875">
        <ele>1135.800048828125</ele>
        <time>2022-05-03T12:29:29.000Z</time>
      </trkpt>
      <trkpt lat="40.80215924419462680816650390625" lon="-1.81158835999667644500732421875">
        <ele>1136</ele>
        <time>2022-05-03T12:29:31.000Z</time>
      </trkpt>
      <trkpt lat="40.80218388698995113372802734375" lon="-1.81161652319133281707763671875">
        <ele>1136.199951171875</ele>
        <time>2022-05-03T12:29:33.000Z</time>
      </trkpt>
      <trkpt lat="40.80220668576657772064208984375" lon="-1.8116405792534351348876953125">
        <ele>1136.199951171875</ele>
        <time>2022-05-03T12:29:35.000Z</time>
      </trkpt>
      <trkpt lat="40.802229903638362884521484375" lon="-1.811668239533901214599609375">
        <ele>1136.4000244140625</ele>
        <time>2022-05-03T12:29:37.000Z</time>
      </trkpt>
      <trkpt lat="40.802256055176258087158203125" lon="-1.81169933639466762542724609375">
        <ele>1136.4000244140625</ele>
        <time>2022-05-03T12:29:39.000Z</time>
      </trkpt>
      <trkpt lat="40.80226938240230083465576171875" lon="-1.8117146752774715423583984375">
        <ele>1136.5999755859375</ele>
        <time>2022-05-03T12:29:40.000Z</time>
      </trkpt>
      <trkpt lat="40.80228145234286785125732421875" lon="-1.8117316067218780517578125">
        <ele>1136.5999755859375</ele>
        <time>2022-05-03T12:29:41.000Z</time>
      </trkpt>
      <trkpt lat="40.8023038320243358612060546875" lon="-1.8117663078010082244873046875">
        <ele>1136.800048828125</ele>
        <time>2022-05-03T12:29:43.000Z</time>
      </trkpt>
      <trkpt lat="40.80232470296323299407958984375" lon="-1.8118000030517578125">
        <ele>1136.800048828125</ele>
        <time>2022-05-03T12:29:45.000Z</time>
      </trkpt>
      <trkpt lat="40.80234750173985958099365234375" lon="-1.8118336983025074005126953125">
        <ele>1137</ele>
        <time>2022-05-03T12:29:47.000Z</time>
      </trkpt>
      <trkpt lat="40.80237030051648616790771484375" lon="-1.81186638772487640380859375">
        <ele>1137.199951171875</ele>
        <time>2022-05-03T12:29:49.000Z</time>
      </trkpt>
      <trkpt lat="40.8023799397051334381103515625" lon="-1.8118829838931560516357421875">
        <ele>1137.199951171875</ele>
        <time>2022-05-03T12:29:50.000Z</time>
      </trkpt>
      <trkpt lat="40.80239117145538330078125" lon="-1.811900921165943145751953125">
        <ele>1137.199951171875</ele>
        <time>2022-05-03T12:29:51.000Z</time>
      </trkpt>
      <trkpt lat="40.8024166524410247802734375" lon="-1.81193470023572444915771484375">
        <ele>1137.4000244140625</ele>
        <time>2022-05-03T12:29:53.000Z</time>
      </trkpt>
      <trkpt lat="40.8024389483034610748291015625" lon="-1.81196688674390316009521484375">
        <ele>1137.5999755859375</ele>
        <time>2022-05-03T12:29:55.000Z</time>
      </trkpt>
      <trkpt lat="40.802461244165897369384765625" lon="-1.81199840269982814788818359375">
        <ele>1137.5999755859375</ele>
        <time>2022-05-03T12:29:57.000Z</time>
      </trkpt>
      <trkpt lat="40.80248295329511165618896484375" lon="-1.81203276850283145904541015625">
        <ele>1137.800048828125</ele>
        <time>2022-05-03T12:29:59.000Z</time>
      </trkpt>
      <trkpt lat="40.80249351449310779571533203125" lon="-1.8120499514043331146240234375">
        <ele>1137.800048828125</ele>
        <time>2022-05-03T12:30:00.000Z</time>
      </trkpt>
      <trkpt lat="40.8025033213198184967041015625" lon="-1.8120668828487396240234375">
        <ele>1138</ele>
        <time>2022-05-03T12:30:01.000Z</time>
      </trkpt>
      <trkpt lat="40.80252352170646190643310546875" lon="-1.81210585869848728179931640625">
        <ele>1138</ele>
        <time>2022-05-03T12:30:03.000Z</time>
      </trkpt>
      <trkpt lat="40.80254447646439075469970703125" lon="-1.81214491836726665496826171875">
        <ele>1138.4000244140625</ele>
        <time>2022-05-03T12:30:05.000Z</time>
      </trkpt>
      <trkpt lat="40.80256341956555843353271484375" lon="-1.8121790327131748199462890625">
        <ele>1138.5999755859375</ele>
        <time>2022-05-03T12:30:07.000Z</time>
      </trkpt>
      <trkpt lat="40.80258303321897983551025390625" lon="-1.81221666745841503143310546875">
        <ele>1138.800048828125</ele>
        <time>2022-05-03T12:30:09.000Z</time>
      </trkpt>
      <trkpt lat="40.80260063521564006805419921875" lon="-1.81225388310849666595458984375">
        <ele>1139</ele>
        <time>2022-05-03T12:30:11.000Z</time>
      </trkpt>
      <trkpt lat="40.8026183210313320159912109375" lon="-1.8122895061969757080078125">
        <ele>1139.199951171875</ele>
        <time>2022-05-03T12:30:13.000Z</time>
      </trkpt>
      <trkpt lat="40.80263550393283367156982421875" lon="-1.8123270571231842041015625">
        <ele>1139.199951171875</ele>
        <time>2022-05-03T12:30:15.000Z</time>
      </trkpt>
      <trkpt lat="40.80265226773917675018310546875" lon="-1.81236251257359981536865234375">
        <ele>1139.4000244140625</ele>
        <time>2022-05-03T12:30:17.000Z</time>
      </trkpt>
      <trkpt lat="40.80266718752682209014892578125" lon="-1.81239453144371509552001953125">
        <ele>1139.5999755859375</ele>
        <time>2022-05-03T12:30:19.000Z</time>
      </trkpt>
      <trkpt lat="40.80268177203834056854248046875" lon="-1.81242604739964008331298828125">
        <ele>1139.800048828125</ele>
        <time>2022-05-03T12:30:21.000Z</time>
      </trkpt>
      <trkpt lat="40.80269635654985904693603515625" lon="-1.81245789863169193267822265625">
        <ele>1139.800048828125</ele>
        <time>2022-05-03T12:30:23.000Z</time>
      </trkpt>
      <trkpt lat="40.80271144397556781768798828125" lon="-1.81248773820698261260986328125">
        <ele>1140</ele>
        <time>2022-05-03T12:30:25.000Z</time>
      </trkpt>
      <trkpt lat="40.80272787250578403472900390625" lon="-1.812521182000637054443359375">
        <ele>1140</ele>
        <time>2022-05-03T12:30:27.000Z</time>
      </trkpt>
      <trkpt lat="40.80274513922631740570068359375" lon="-1.812558062374591827392578125">
        <ele>1140.199951171875</ele>
        <time>2022-05-03T12:30:29.000Z</time>
      </trkpt>
      <trkpt lat="40.8027698658406734466552734375" lon="-1.81258932687342166900634765625">
        <ele>1140.199951171875</ele>
        <time>2022-05-03T12:30:31.000Z</time>
      </trkpt>
      <trkpt lat="40.802790485322475433349609375" lon="-1.81262947618961334228515625">
        <ele>1140.4000244140625</ele>
        <time>2022-05-03T12:30:33.000Z</time>
      </trkpt>
      <trkpt lat="40.80281118862330913543701171875" lon="-1.81267783977091312408447265625">
        <ele>1140.5999755859375</ele>
        <time>2022-05-03T12:30:35.000Z</time>
      </trkpt>
      <trkpt lat="40.80283013172447681427001953125" lon="-1.8127302266657352447509765625">
        <ele>1140.800048828125</ele>
        <time>2022-05-03T12:30:37.000Z</time>
      </trkpt>
      <trkpt lat="40.802840106189250946044921875" lon="-1.8127553723752498626708984375">
        <ele>1140.800048828125</ele>
        <time>2022-05-03T12:30:38.000Z</time>
      </trkpt>
      <trkpt lat="40.8028506673872470855712890625" lon="-1.81278043426573276519775390625">
        <ele>1141</ele>
        <time>2022-05-03T12:30:39.000Z</time>
      </trkpt>
      <trkpt lat="40.8028721250593662261962890625" lon="-1.8128301389515399932861328125">
        <ele>1141.199951171875</ele>
        <time>2022-05-03T12:30:41.000Z</time>
      </trkpt>
      <trkpt lat="40.80289500765502452850341796875" lon="-1.81288001127541065216064453125">
        <ele>1141.4000244140625</ele>
        <time>2022-05-03T12:30:43.000Z</time>
      </trkpt>
      <trkpt lat="40.80291763879358768463134765625" lon="-1.812929213047027587890625">
        <ele>1141.5999755859375</ele>
        <time>2022-05-03T12:30:45.000Z</time>
      </trkpt>
      <trkpt lat="40.80293976701796054840087890625" lon="-1.81297858245670795440673828125">
        <ele>1141.800048828125</ele>
        <time>2022-05-03T12:30:47.000Z</time>
      </trkpt>
      <trkpt lat="40.8029589615762233734130859375" lon="-1.8130252696573734283447265625">
        <ele>1142</ele>
        <time>2022-05-03T12:30:49.000Z</time>
      </trkpt>
      <trkpt lat="40.80296943895518779754638671875" lon="-1.81304966099560260772705078125">
        <ele>1142.199951171875</ele>
        <time>2022-05-03T12:30:50.000Z</time>
      </trkpt>
      <trkpt lat="40.80298000015318393707275390625" lon="-1.81307296268641948699951171875">
        <ele>1142.4000244140625</ele>
        <time>2022-05-03T12:30:51.000Z</time>
      </trkpt>
      <trkpt lat="40.803002379834651947021484375" lon="-1.81312300264835357666015625">
        <ele>1142.5999755859375</ele>
        <time>2022-05-03T12:30:53.000Z</time>
      </trkpt>
      <trkpt lat="40.80302417278289794921875" lon="-1.81317270733416080474853515625">
        <ele>1142.800048828125</ele>
        <time>2022-05-03T12:30:55.000Z</time>
      </trkpt>
      <trkpt lat="40.80304621718823909759521484375" lon="-1.8132202327251434326171875">
        <ele>1143</ele>
        <time>2022-05-03T12:30:57.000Z</time>
      </trkpt>
      <trkpt lat="40.80306784249842166900634765625" lon="-1.81326759047806262969970703125">
        <ele>1143</ele>
        <time>2022-05-03T12:30:59.000Z</time>
      </trkpt>
      <trkpt lat="40.803088210523128509521484375" lon="-1.8133126012980937957763671875">
        <ele>1143.199951171875</ele>
        <time>2022-05-03T12:31:01.000Z</time>
      </trkpt>
      <trkpt lat="40.80311042256653308868408203125" lon="-1.81335677392780780792236328125">
        <ele>1143.199951171875</ele>
        <time>2022-05-03T12:31:03.000Z</time>
      </trkpt>
      <trkpt lat="40.8031390048563480377197265625" lon="-1.81339717470109462738037109375">
        <ele>1143.4000244140625</ele>
        <time>2022-05-03T12:31:05.000Z</time>
      </trkpt>
      <trkpt lat="40.80316624604165554046630859375" lon="-1.81343623436987400054931640625">
        <ele>1143.4000244140625</ele>
        <time>2022-05-03T12:31:07.000Z</time>
      </trkpt>
      <trkpt lat="40.803191475570201873779296875" lon="-1.81347629986703395843505859375">
        <ele>1143.4000244140625</ele>
        <time>2022-05-03T12:31:09.000Z</time>
      </trkpt>
      <trkpt lat="40.80321930348873138427734375" lon="-1.813516281545162200927734375">
        <ele>1143.5999755859375</ele>
        <time>2022-05-03T12:31:11.000Z</time>
      </trkpt>
      <trkpt lat="40.80324746668338775634765625" lon="-1.81355492211878299713134765625">
        <ele>1143.5999755859375</ele>
        <time>2022-05-03T12:31:13.000Z</time>
      </trkpt>
      <trkpt lat="40.80327370204031467437744140625" lon="-1.8135935626924037933349609375">
        <ele>1143.800048828125</ele>
        <time>2022-05-03T12:31:15.000Z</time>
      </trkpt>
      <trkpt lat="40.80330052413046360015869140625" lon="-1.81363304145634174346923828125">
        <ele>1143.800048828125</ele>
        <time>2022-05-03T12:31:17.000Z</time>
      </trkpt>
      <trkpt lat="40.80331276170909404754638671875" lon="-1.81365248747169971466064453125">
        <ele>1143.800048828125</ele>
        <time>2022-05-03T12:31:18.000Z</time>
      </trkpt>
      <trkpt lat="40.80332525074481964111328125" lon="-1.8136713467538356781005859375">
        <ele>1143.800048828125</ele>
        <time>2022-05-03T12:31:19.000Z</time>
      </trkpt>
      <trkpt lat="40.8033519051969051361083984375" lon="-1.813708059489727020263671875">
        <ele>1144</ele>
        <time>2022-05-03T12:31:21.000Z</time>
      </trkpt>
      <trkpt lat="40.80338350497186183929443359375" lon="-1.81374535895884037017822265625">
        <ele>1144</ele>
        <time>2022-05-03T12:31:23.000Z</time>
      </trkpt>
      <trkpt lat="40.803398676216602325439453125" lon="-1.8137601949274539947509765625">
        <ele>1144.199951171875</ele>
        <time>2022-05-03T12:31:24.000Z</time>
      </trkpt>
      <trkpt lat="40.80341200344264507293701171875" lon="-1.813775114715099334716796875">
        <ele>1144.4000244140625</ele>
        <time>2022-05-03T12:31:25.000Z</time>
      </trkpt>
      <trkpt lat="40.80343916080892086029052734375" lon="-1.81380654685199260711669921875">
        <ele>1144.5999755859375</ele>
        <time>2022-05-03T12:31:27.000Z</time>
      </trkpt>
      <trkpt lat="40.803468413650989532470703125" lon="-1.813835799694061279296875">
        <ele>1144.800048828125</ele>
        <time>2022-05-03T12:31:29.000Z</time>
      </trkpt>
      <trkpt lat="40.8034954033792018890380859375" lon="-1.81386102922260761260986328125">
        <ele>1145</ele>
        <time>2022-05-03T12:31:31.000Z</time>
      </trkpt>
      <trkpt lat="40.8035225607454776763916015625" lon="-1.81389455683529376983642578125">
        <ele>1145.199951171875</ele>
        <time>2022-05-03T12:31:33.000Z</time>
      </trkpt>
      <trkpt lat="40.80354594625532627105712890625" lon="-1.81392766535282135009765625">
        <ele>1145.4000244140625</ele>
        <time>2022-05-03T12:31:35.000Z</time>
      </trkpt>
      <trkpt lat="40.80357561819255352020263671875" lon="-1.8139566667377948760986328125">
        <ele>1145.5999755859375</ele>
        <time>2022-05-03T12:31:37.000Z</time>
      </trkpt>
      <trkpt lat="40.80360193736851215362548828125" lon="-1.81399069726467132568359375">
        <ele>1145.800048828125</ele>
        <time>2022-05-03T12:31:39.000Z</time>
      </trkpt>
      <trkpt lat="40.80362775363028049468994140625" lon="-1.8140302598476409912109375">
        <ele>1146</ele>
        <time>2022-05-03T12:31:41.000Z</time>
      </trkpt>
      <trkpt lat="40.8036399073898792266845703125" lon="-1.81405104696750640869140625">
        <ele>1146.199951171875</ele>
        <time>2022-05-03T12:31:42.000Z</time>
      </trkpt>
      <trkpt lat="40.80365122295916080474853515625" lon="-1.8140726722776889801025390625">
        <ele>1146.199951171875</ele>
        <time>2022-05-03T12:31:43.000Z</time>
      </trkpt>
      <trkpt lat="40.8036719262599945068359375" lon="-1.81411382742226123809814453125">
        <ele>1146.4000244140625</ele>
        <time>2022-05-03T12:31:45.000Z</time>
      </trkpt>
      <trkpt lat="40.80369095318019390106201171875" lon="-1.81415623985230922698974609375">
        <ele>1146.4000244140625</ele>
        <time>2022-05-03T12:31:47.000Z</time>
      </trkpt>
      <trkpt lat="40.80371157266199588775634765625" lon="-1.81419865228235721588134765625">
        <ele>1146.5999755859375</ele>
        <time>2022-05-03T12:31:49.000Z</time>
      </trkpt>
      <trkpt lat="40.803733281791210174560546875" lon="-1.814239807426929473876953125">
        <ele>1146.5999755859375</ele>
        <time>2022-05-03T12:31:51.000Z</time>
      </trkpt>
      <trkpt lat="40.803757421672344207763671875" lon="-1.81427978910505771636962890625">
        <ele>1146.5999755859375</ele>
        <time>2022-05-03T12:31:53.000Z</time>
      </trkpt>
      <trkpt lat="40.80378583632409572601318359375" lon="-1.8143090419471263885498046875">
        <ele>1146.5999755859375</ele>
        <time>2022-05-03T12:31:55.000Z</time>
      </trkpt>
      <trkpt lat="40.8038127422332763671875" lon="-1.814345754683017730712890625">
        <ele>1146.5999755859375</ele>
        <time>2022-05-03T12:31:57.000Z</time>
      </trkpt>
      <trkpt lat="40.8038377203047275543212890625" lon="-1.81439160369336605072021484375">
        <ele>1146.5999755859375</ele>
        <time>2022-05-03T12:31:59.000Z</time>
      </trkpt>
      <trkpt lat="40.80386160872876644134521484375" lon="-1.81443736888468265533447265625">
        <ele>1146.5999755859375</ele>
        <time>2022-05-03T12:32:01.000Z</time>
      </trkpt>
      <trkpt lat="40.80388315021991729736328125" lon="-1.81448154151439666748046875">
        <ele>1146.4000244140625</ele>
        <time>2022-05-03T12:32:03.000Z</time>
      </trkpt>
      <trkpt lat="40.803907625377178192138671875" lon="-1.81452671997249126434326171875">
        <ele>1146.5999755859375</ele>
        <time>2022-05-03T12:32:05.000Z</time>
      </trkpt>
      <trkpt lat="40.8039339445531368255615234375" lon="-1.81457198224961757659912109375">
        <ele>1146.800048828125</ele>
        <time>2022-05-03T12:32:07.000Z</time>
      </trkpt>
      <trkpt lat="40.8039470203220844268798828125" lon="-1.81459151208400726318359375">
        <ele>1146.800048828125</ele>
        <time>2022-05-03T12:32:08.000Z</time>
      </trkpt>
      <trkpt lat="40.8039604313671588897705078125" lon="-1.81461087428033351898193359375">
        <ele>1146.800048828125</ele>
        <time>2022-05-03T12:32:09.000Z</time>
      </trkpt>
      <trkpt lat="40.8039865829050540924072265625" lon="-1.81464850902557373046875">
        <ele>1147</ele>
        <time>2022-05-03T12:32:11.000Z</time>
      </trkpt>
      <trkpt lat="40.804016925394535064697265625" lon="-1.81468807160854339599609375">
        <ele>1147.199951171875</ele>
        <time>2022-05-03T12:32:13.000Z</time>
      </trkpt>
      <trkpt lat="40.80404668115079402923583984375" lon="-1.814732663333415985107421875">
        <ele>1147.4000244140625</ele>
        <time>2022-05-03T12:32:15.000Z</time>
      </trkpt>
      <trkpt lat="40.804072581231594085693359375" lon="-1.81477432139217853546142578125">
        <ele>1147.4000244140625</ele>
        <time>2022-05-03T12:32:17.000Z</time>
      </trkpt>
      <trkpt lat="40.8040982298552989959716796875" lon="-1.81481547653675079345703125">
        <ele>1147.199951171875</ele>
        <time>2022-05-03T12:32:19.000Z</time>
      </trkpt>
      <trkpt lat="40.8041223697364330291748046875" lon="-1.8148542009294033050537109375">
        <ele>1147.199951171875</ele>
        <time>2022-05-03T12:32:21.000Z</time>
      </trkpt>
      <trkpt lat="40.804146341979503631591796875" lon="-1.8148934282362461090087890625">
        <ele>1147.199951171875</ele>
        <time>2022-05-03T12:32:23.000Z</time>
      </trkpt>
      <trkpt lat="40.804171822965145111083984375" lon="-1.814932487905025482177734375">
        <ele>1147.199951171875</ele>
        <time>2022-05-03T12:32:25.000Z</time>
      </trkpt>
      <trkpt lat="40.80419671721756458282470703125" lon="-1.8149692006409168243408203125">
        <ele>1147.199951171875</ele>
        <time>2022-05-03T12:32:27.000Z</time>
      </trkpt>
      <trkpt lat="40.804220773279666900634765625" lon="-1.8150117807090282440185546875">
        <ele>1147.199951171875</ele>
        <time>2022-05-03T12:32:29.000Z</time>
      </trkpt>
      <trkpt lat="40.80424717627465724945068359375" lon="-1.8150575459003448486328125">
        <ele>1147.199951171875</ele>
        <time>2022-05-03T12:32:31.000Z</time>
      </trkpt>
      <trkpt lat="40.8042742498219013214111328125" lon="-1.8151031434535980224609375">
        <ele>1147</ele>
        <time>2022-05-03T12:32:33.000Z</time>
      </trkpt>
      <trkpt lat="40.804303251206874847412109375" lon="-1.81514999829232692718505859375">
        <ele>1147</ele>
        <time>2022-05-03T12:32:35.000Z</time>
      </trkpt>
      <trkpt lat="40.80433216877281665802001953125" lon="-1.81519375182688236236572265625">
        <ele>1147</ele>
        <time>2022-05-03T12:32:37.000Z</time>
      </trkpt>
      <trkpt lat="40.80436117015779018402099609375" lon="-1.815238259732723236083984375">
        <ele>1147</ele>
        <time>2022-05-03T12:32:39.000Z</time>
      </trkpt>
      <trkpt lat="40.80439117737114429473876953125" lon="-1.81528260000050067901611328125">
        <ele>1146.800048828125</ele>
        <time>2022-05-03T12:32:41.000Z</time>
      </trkpt>
      <trkpt lat="40.804421268403530120849609375" lon="-1.81532752700150012969970703125">
        <ele>1146.5999755859375</ele>
        <time>2022-05-03T12:32:43.000Z</time>
      </trkpt>
      <trkpt lat="40.804451443254947662353515625" lon="-1.8153711967170238494873046875">
        <ele>1146.4000244140625</ele>
        <time>2022-05-03T12:32:45.000Z</time>
      </trkpt>
      <trkpt lat="40.8044819533824920654296875" lon="-1.81541654281318187713623046875">
        <ele>1146.199951171875</ele>
        <time>2022-05-03T12:32:47.000Z</time>
      </trkpt>
      <trkpt lat="40.8045116253197193145751953125" lon="-1.8154587037861347198486328125">
        <ele>1146</ele>
        <time>2022-05-03T12:32:49.000Z</time>
      </trkpt>
      <trkpt lat="40.80453895032405853271484375" lon="-1.8155001103878021240234375">
        <ele>1145.800048828125</ele>
        <time>2022-05-03T12:32:51.000Z</time>
      </trkpt>
      <trkpt lat="40.8045672811567783355712890625" lon="-1.8155425228178501129150390625">
        <ele>1145.5999755859375</ele>
        <time>2022-05-03T12:32:53.000Z</time>
      </trkpt>
      <trkpt lat="40.804595611989498138427734375" lon="-1.8155857734382152557373046875">
        <ele>1145.5999755859375</ele>
        <time>2022-05-03T12:32:55.000Z</time>
      </trkpt>
      <trkpt lat="40.804623775184154510498046875" lon="-1.81562491692602634429931640625">
        <ele>1145.4000244140625</ele>
        <time>2022-05-03T12:32:57.000Z</time>
      </trkpt>
      <trkpt lat="40.8046509325504302978515625" lon="-1.815661378204822540283203125">
        <ele>1145.199951171875</ele>
        <time>2022-05-03T12:32:59.000Z</time>
      </trkpt>
      <trkpt lat="40.80467985011637210845947265625" lon="-1.81569750420749187469482421875">
        <ele>1145</ele>
        <time>2022-05-03T12:33:01.000Z</time>
      </trkpt>
      <trkpt lat="40.80471002496778964996337890625" lon="-1.81573488749563694000244140625">
        <ele>1145</ele>
        <time>2022-05-03T12:33:03.000Z</time>
      </trkpt>
      <trkpt lat="40.804741121828556060791015625" lon="-1.815771348774433135986328125">
        <ele>1145.199951171875</ele>
        <time>2022-05-03T12:33:05.000Z</time>
      </trkpt>
      <trkpt lat="40.804756544530391693115234375" lon="-1.81578769348561763763427734375">
        <ele>1145.199951171875</ele>
        <time>2022-05-03T12:33:06.000Z</time>
      </trkpt>
      <trkpt lat="40.8047717995941638946533203125" lon="-1.81580211035907268524169921875">
        <ele>1145.4000244140625</ele>
        <time>2022-05-03T12:33:07.000Z</time>
      </trkpt>
      <trkpt lat="40.80480675213038921356201171875" lon="-1.81582993827760219573974609375">
        <ele>1145.5999755859375</ele>
        <time>2022-05-03T12:33:09.000Z</time>
      </trkpt>
      <trkpt lat="40.80484212376177310943603515625" lon="-1.81586229242384433746337890625">
        <ele>1145.800048828125</ele>
        <time>2022-05-03T12:33:11.000Z</time>
      </trkpt>
      <trkpt lat="40.8048770762979984283447265625" lon="-1.81590235792100429534912109375">
        <ele>1146.199951171875</ele>
        <time>2022-05-03T12:33:13.000Z</time>
      </trkpt>
      <trkpt lat="40.80489275045692920684814453125" lon="-1.81592322885990142822265625">
        <ele>1146.199951171875</ele>
        <time>2022-05-03T12:33:14.000Z</time>
      </trkpt>
      <trkpt lat="40.80490767024457454681396484375" lon="-1.81594275869429111480712890625">
        <ele>1146.4000244140625</ele>
        <time>2022-05-03T12:33:15.000Z</time>
      </trkpt>
      <trkpt lat="40.80493700690567493438720703125" lon="-1.81598198600113391876220703125">
        <ele>1146.5999755859375</ele>
        <time>2022-05-03T12:33:17.000Z</time>
      </trkpt>
      <trkpt lat="40.80496542155742645263671875" lon="-1.8160229735076427459716796875">
        <ele>1146.800048828125</ele>
        <time>2022-05-03T12:33:19.000Z</time>
      </trkpt>
      <trkpt lat="40.804995931684970855712890625" lon="-1.8160628713667392730712890625">
        <ele>1147</ele>
        <time>2022-05-03T12:33:21.000Z</time>
      </trkpt>
      <trkpt lat="40.8050291240215301513671875" lon="-1.81610218249261379241943359375">
        <ele>1147.199951171875</ele>
        <time>2022-05-03T12:33:23.000Z</time>
      </trkpt>
      <trkpt lat="40.80504714511334896087646484375" lon="-1.816122047603130340576171875">
        <ele>1147.199951171875</ele>
        <time>2022-05-03T12:33:24.000Z</time>
      </trkpt>
      <trkpt lat="40.80506474711000919342041015625" lon="-1.8161411583423614501953125">
        <ele>1147.4000244140625</ele>
        <time>2022-05-03T12:33:25.000Z</time>
      </trkpt>
      <trkpt lat="40.80509860999882221221923828125" lon="-1.8161795474588871002197265625">
        <ele>1147.5999755859375</ele>
        <time>2022-05-03T12:33:27.000Z</time>
      </trkpt>
      <trkpt lat="40.80513574182987213134765625" lon="-1.81622422300279140472412109375">
        <ele>1147.5999755859375</ele>
        <time>2022-05-03T12:33:29.000Z</time>
      </trkpt>
      <trkpt lat="40.80517195165157318115234375" lon="-1.8162680603563785552978515625">
        <ele>1147.800048828125</ele>
        <time>2022-05-03T12:33:31.000Z</time>
      </trkpt>
      <trkpt lat="40.80520992167294025421142578125" lon="-1.81631105951964855194091796875">
        <ele>1147.800048828125</ele>
        <time>2022-05-03T12:33:33.000Z</time>
      </trkpt>
      <trkpt lat="40.80525132827460765838623046875" lon="-1.8163565732538700103759765625">
        <ele>1148</ele>
        <time>2022-05-03T12:33:35.000Z</time>
      </trkpt>
      <trkpt lat="40.80529055558145046234130859375" lon="-1.81639705784618854522705078125">
        <ele>1148</ele>
        <time>2022-05-03T12:33:37.000Z</time>
      </trkpt>
      <trkpt lat="40.8053330518305301666259765625" lon="-1.81644332595169544219970703125">
        <ele>1148</ele>
        <time>2022-05-03T12:33:39.000Z</time>
      </trkpt>
      <trkpt lat="40.80537504516541957855224609375" lon="-1.81648674421012401580810546875">
        <ele>1148.199951171875</ele>
        <time>2022-05-03T12:33:41.000Z</time>
      </trkpt>
      <trkpt lat="40.80539650283753871917724609375" lon="-1.8165086209774017333984375">
        <ele>1148.199951171875</ele>
        <time>2022-05-03T12:33:42.000Z</time>
      </trkpt>
      <trkpt lat="40.80541896633803844451904296875" lon="-1.81653209030628204345703125">
        <ele>1148.199951171875</ele>
        <time>2022-05-03T12:33:43.000Z</time>
      </trkpt>
      <trkpt lat="40.80546255223453044891357421875" lon="-1.8165785260498523712158203125">
        <ele>1148.4000244140625</ele>
        <time>2022-05-03T12:33:45.000Z</time>
      </trkpt>
      <trkpt lat="40.80550781451165676116943359375" lon="-1.8166241236031055450439453125">
        <ele>1148.5999755859375</ele>
        <time>2022-05-03T12:33:47.000Z</time>
      </trkpt>
      <trkpt lat="40.80555140040814876556396484375" lon="-1.81666796095669269561767578125">
        <ele>1148.800048828125</ele>
        <time>2022-05-03T12:33:49.000Z</time>
      </trkpt>
      <trkpt lat="40.805596746504306793212890625" lon="-1.81671288795769214630126953125">
        <ele>1149</ele>
        <time>2022-05-03T12:33:51.000Z</time>
      </trkpt>
      <trkpt lat="40.80564611591398715972900390625" lon="-1.816764436662197113037109375">
        <ele>1149.199951171875</ele>
        <time>2022-05-03T12:33:53.000Z</time>
      </trkpt>
      <trkpt lat="40.80569305457174777984619140625" lon="-1.81681774556636810302734375">
        <ele>1149.4000244140625</ele>
        <time>2022-05-03T12:33:55.000Z</time>
      </trkpt>
      <trkpt lat="40.80573580227792263031005859375" lon="-1.81686627678573131561279296875">
        <ele>1149.5999755859375</ele>
        <time>2022-05-03T12:33:57.000Z</time>
      </trkpt>
      <trkpt lat="40.80577955581247806549072265625" lon="-1.81691455654799938201904296875">
        <ele>1149.5999755859375</ele>
        <time>2022-05-03T12:33:59.000Z</time>
      </trkpt>
      <trkpt lat="40.80580386333167552947998046875" lon="-1.816940791904926300048828125">
        <ele>1149.800048828125</ele>
        <time>2022-05-03T12:34:00.000Z</time>
      </trkpt>
      <trkpt lat="40.8058299310505390167236328125" lon="-1.8169681169092655181884765625">
        <ele>1149.800048828125</ele>
        <time>2022-05-03T12:34:01.000Z</time>
      </trkpt>
      <trkpt lat="40.8058835752308368682861328125" lon="-1.817025281488895416259765625">
        <ele>1150</ele>
        <time>2022-05-03T12:34:03.000Z</time>
      </trkpt>
      <trkpt lat="40.80593193881213665008544921875" lon="-1.817080266773700714111328125">
        <ele>1150</ele>
        <time>2022-05-03T12:34:05.000Z</time>
      </trkpt>
      <trkpt lat="40.80597535707056522369384765625" lon="-1.8171303905546665191650390625">
        <ele>1149.800048828125</ele>
        <time>2022-05-03T12:34:07.000Z</time>
      </trkpt>
      <trkpt lat="40.80599731765687465667724609375" lon="-1.81715612299740314483642578125">
        <ele>1149.5999755859375</ele>
        <time>2022-05-03T12:34:08.000Z</time>
      </trkpt>
      <trkpt lat="40.8060183562338352203369140625" lon="-1.8171820230782032012939453125">
        <ele>1149.5999755859375</ele>
        <time>2022-05-03T12:34:09.000Z</time>
      </trkpt>
      <trkpt lat="40.806037969887256622314453125" lon="-1.81720641441643238067626953125">
        <ele>1149.4000244140625</ele>
        <time>2022-05-03T12:34:10.000Z</time>
      </trkpt>
      <trkpt lat="40.80605532042682170867919921875" lon="-1.81722887791693210601806640625">
        <ele>1149.4000244140625</ele>
        <time>2022-05-03T12:34:11.000Z</time>
      </trkpt>
      <trkpt lat="40.8060907758772373199462890625" lon="-1.8172755651175975799560546875">
        <ele>1149.199951171875</ele>
        <time>2022-05-03T12:34:13.000Z</time>
      </trkpt>
      <trkpt lat="40.80612824298441410064697265625" lon="-1.81732795201241970062255859375">
        <ele>1149</ele>
        <time>2022-05-03T12:34:15.000Z</time>
      </trkpt>
      <trkpt lat="40.806147940456867218017578125" lon="-1.81735594756901264190673828125">
        <ele>1148.800048828125</ele>
        <time>2022-05-03T12:34:16.000Z</time>
      </trkpt>
      <trkpt lat="40.80616847611963748931884765625" lon="-1.81738377548754215240478515625">
        <ele>1148.800048828125</ele>
        <time>2022-05-03T12:34:17.000Z</time>
      </trkpt>
      <trkpt lat="40.80620996654033660888671875" lon="-1.8174405209720134735107421875">
        <ele>1148.4000244140625</ele>
        <time>2022-05-03T12:34:19.000Z</time>
      </trkpt>
      <trkpt lat="40.80625279806554317474365234375" lon="-1.8174956738948822021484375">
        <ele>1148.199951171875</ele>
        <time>2022-05-03T12:34:21.000Z</time>
      </trkpt>
      <trkpt lat="40.8062929473817348480224609375" lon="-1.81754923425614833831787109375">
        <ele>1148</ele>
        <time>2022-05-03T12:34:23.000Z</time>
      </trkpt>
      <trkpt lat="40.8063217811286449432373046875" lon="-1.81759885512292385101318359375">
        <ele>1147.5999755859375</ele>
        <time>2022-05-03T12:34:25.000Z</time>
      </trkpt>
      <trkpt lat="40.80635321326553821563720703125" lon="-1.8176510743796825408935546875">
        <ele>1147.4000244140625</ele>
        <time>2022-05-03T12:34:27.000Z</time>
      </trkpt>
      <trkpt lat="40.8063918538391590118408203125" lon="-1.8177074007689952850341796875">
        <ele>1147</ele>
        <time>2022-05-03T12:34:29.000Z</time>
      </trkpt>
      <trkpt lat="40.80642932094633579254150390625" lon="-1.8177674151957035064697265625">
        <ele>1146.4000244140625</ele>
        <time>2022-05-03T12:34:31.000Z</time>
      </trkpt>
      <trkpt lat="40.806468464434146881103515625" lon="-1.81782986037433147430419921875">
        <ele>1145.800048828125</ele>
        <time>2022-05-03T12:34:33.000Z</time>
      </trkpt>
      <trkpt lat="40.8065078593790531158447265625" lon="-1.81789406575262546539306640625">
        <ele>1145.199951171875</ele>
        <time>2022-05-03T12:34:35.000Z</time>
      </trkpt>
      <trkpt lat="40.806544907391071319580078125" lon="-1.817963384091854095458984375">
        <ele>1144.5999755859375</ele>
        <time>2022-05-03T12:34:37.000Z</time>
      </trkpt>
      <trkpt lat="40.806577764451503753662109375" lon="-1.818027086555957794189453125">
        <ele>1144</ele>
        <time>2022-05-03T12:34:39.000Z</time>
      </trkpt>
      <trkpt lat="40.806591175496578216552734375" lon="-1.8180550821125507354736328125">
        <ele>1144</ele>
        <time>2022-05-03T12:34:40.000Z</time>
      </trkpt>
      <trkpt lat="40.8066047541797161102294921875" lon="-1.818082742393016815185546875">
        <ele>1144.199951171875</ele>
        <time>2022-05-03T12:34:41.000Z</time>
      </trkpt>
      <trkpt lat="40.806634090840816497802734375" lon="-1.8181446008384227752685546875">
        <ele>1144.199951171875</ele>
        <time>2022-05-03T12:34:43.000Z</time>
      </trkpt>
      <trkpt lat="40.8066657744348049163818359375" lon="-1.81821023114025592803955078125">
        <ele>1144.4000244140625</ele>
        <time>2022-05-03T12:34:45.000Z</time>
      </trkpt>
      <trkpt lat="40.80670089460909366607666015625" lon="-1.8182699941098690032958984375">
        <ele>1144.199951171875</ele>
        <time>2022-05-03T12:34:47.000Z</time>
      </trkpt>
      <trkpt lat="40.806717239320278167724609375" lon="-1.81829522363841533660888671875">
        <ele>1144.199951171875</ele>
        <time>2022-05-03T12:34:48.000Z</time>
      </trkpt>
      <trkpt lat="40.80673341639339923858642578125" lon="-1.81832070462405681610107421875">
        <ele>1144.199951171875</ele>
        <time>2022-05-03T12:34:49.000Z</time>
      </trkpt>
      <trkpt lat="40.806762836873531341552734375" lon="-1.8183682300150394439697265625">
        <ele>1144</ele>
        <time>2022-05-03T12:34:51.000Z</time>
      </trkpt>
      <trkpt lat="40.8067831210792064666748046875" lon="-1.81840016506612300872802734375">
        <ele>1144</ele>
        <time>2022-05-03T12:34:53.000Z</time>
      </trkpt>
      <trkpt lat="40.80678588710725307464599609375" lon="-1.81840552948415279388427734375">
        <ele>1144</ele>
        <time>2022-05-03T12:34:54.000Z</time>
      </trkpt>
      <trkpt lat="40.8067847974598407745361328125" lon="-1.8184064514935016632080078125">
        <ele>1144</ele>
        <time>2022-05-03T12:34:55.000Z</time>
      </trkpt>
      <trkpt lat="40.806823857128620147705078125" lon="-1.81846453808248043060302734375">
        <ele>1144</ele>
        <time>2022-05-03T12:35:13.000Z</time>
      </trkpt>
      <trkpt lat="40.80685243941843509674072265625" lon="-1.81850091554224491119384765625">
        <ele>1143.800048828125</ele>
        <time>2022-05-03T12:35:15.000Z</time>
      </trkpt>
      <trkpt lat="40.8068873919546604156494140625" lon="-1.81854198686778545379638671875">
        <ele>1143.800048828125</ele>
        <time>2022-05-03T12:35:17.000Z</time>
      </trkpt>
      <trkpt lat="40.80692603252828121185302734375" lon="-1.81859068572521209716796875">
        <ele>1143.5999755859375</ele>
        <time>2022-05-03T12:35:19.000Z</time>
      </trkpt>
      <trkpt lat="40.8069427125155925750732421875" lon="-1.81861457414925098419189453125">
        <ele>1143.5999755859375</ele>
        <time>2022-05-03T12:35:20.000Z</time>
      </trkpt>
      <trkpt lat="40.80695855431258678436279296875" lon="-1.8186371214687824249267578125">
        <ele>1143.4000244140625</ele>
        <time>2022-05-03T12:35:21.000Z</time>
      </trkpt>
      <trkpt lat="40.8069953508675098419189453125" lon="-1.81869051419198513031005859375">
        <ele>1143.4000244140625</ele>
        <time>2022-05-03T12:35:23.000Z</time>
      </trkpt>
      <trkpt lat="40.807039104402065277099609375" lon="-1.8187511153519153594970703125">
        <ele>1143</ele>
        <time>2022-05-03T12:35:25.000Z</time>
      </trkpt>
      <trkpt lat="40.8070836961269378662109375" lon="-1.8188111297786235809326171875">
        <ele>1142.800048828125</ele>
        <time>2022-05-03T12:35:27.000Z</time>
      </trkpt>
      <trkpt lat="40.8071267791092395782470703125" lon="-1.81886720471084117889404296875">
        <ele>1142.5999755859375</ele>
        <time>2022-05-03T12:35:29.000Z</time>
      </trkpt>
      <trkpt lat="40.807146728038787841796875" lon="-1.8188946135342121124267578125">
        <ele>1142.5999755859375</ele>
        <time>2022-05-03T12:35:30.000Z</time>
      </trkpt>
      <trkpt lat="40.8071650005877017974853515625" lon="-1.818922944366931915283203125">
        <ele>1142.4000244140625</ele>
        <time>2022-05-03T12:35:31.000Z</time>
      </trkpt>
      <trkpt lat="40.80720548518002033233642578125" lon="-1.81898589245975017547607421875">
        <ele>1142.199951171875</ele>
        <time>2022-05-03T12:35:33.000Z</time>
      </trkpt>
      <trkpt lat="40.807248316705226898193359375" lon="-1.819051690399646759033203125">
        <ele>1142</ele>
        <time>2022-05-03T12:35:35.000Z</time>
      </trkpt>
      <trkpt lat="40.80728829838335514068603515625" lon="-1.81911564432084560394287109375">
        <ele>1141.800048828125</ele>
        <time>2022-05-03T12:35:37.000Z</time>
      </trkpt>
      <trkpt lat="40.8073262684047222137451171875" lon="-1.8191735632717609405517578125">
        <ele>1141.5999755859375</ele>
        <time>2022-05-03T12:35:39.000Z</time>
      </trkpt>
      <trkpt lat="40.80736172385513782501220703125" lon="-1.8192248605191707611083984375">
        <ele>1141.4000244140625</ele>
        <time>2022-05-03T12:35:41.000Z</time>
      </trkpt>
      <trkpt lat="40.8073983527719974517822265625" lon="-1.819283030927181243896484375">
        <ele>1141.199951171875</ele>
        <time>2022-05-03T12:35:43.000Z</time>
      </trkpt>
      <trkpt lat="40.80744068138301372528076171875" lon="-1.8193489126861095428466796875">
        <ele>1141</ele>
        <time>2022-05-03T12:35:45.000Z</time>
      </trkpt>
      <trkpt lat="40.807493738830089569091796875" lon="-1.81941001676023006439208984375">
        <ele>1140.800048828125</ele>
        <time>2022-05-03T12:35:47.000Z</time>
      </trkpt>
      <trkpt lat="40.80752424895763397216796875" lon="-1.81943231262266635894775390625">
        <ele>1140.5999755859375</ele>
        <time>2022-05-03T12:35:48.000Z</time>
      </trkpt>
      <trkpt lat="40.8075562678277492523193359375" lon="-1.8194488249719142913818359375">
        <ele>1140.5999755859375</ele>
        <time>2022-05-03T12:35:49.000Z</time>
      </trkpt>
      <trkpt lat="40.80761284567415714263916015625" lon="-1.81947447359561920166015625">
        <ele>1140.4000244140625</ele>
        <time>2022-05-03T12:35:51.000Z</time>
      </trkpt>
      <trkpt lat="40.80765576101839542388916015625" lon="-1.819527447223663330078125">
        <ele>1140.199951171875</ele>
        <time>2022-05-03T12:35:53.000Z</time>
      </trkpt>
      <trkpt lat="40.80769180320203304290771484375" lon="-1.81960321962833404541015625">
        <ele>1140</ele>
        <time>2022-05-03T12:35:55.000Z</time>
      </trkpt>
      <trkpt lat="40.80772499553859233856201171875" lon="-1.81968712247908115386962890625">
        <ele>1139.800048828125</ele>
        <time>2022-05-03T12:35:57.000Z</time>
      </trkpt>
      <trkpt lat="40.807759948074817657470703125" lon="-1.81977312080562114715576171875">
        <ele>1139.4000244140625</ele>
        <time>2022-05-03T12:35:59.000Z</time>
      </trkpt>
      <trkpt lat="40.8077929727733135223388671875" lon="-1.819860376417636871337890625">
        <ele>1139</ele>
        <time>2022-05-03T12:36:01.000Z</time>
      </trkpt>
      <trkpt lat="40.807825662195682525634765625" lon="-1.8199547566473484039306640625">
        <ele>1139</ele>
        <time>2022-05-03T12:36:03.000Z</time>
      </trkpt>
      <trkpt lat="40.80786220729351043701171875" lon="-1.820056177675724029541015625">
        <ele>1138.800048828125</ele>
        <time>2022-05-03T12:36:05.000Z</time>
      </trkpt>
      <trkpt lat="40.807898752391338348388671875" lon="-1.82016522623598575592041015625">
        <ele>1139</ele>
        <time>2022-05-03T12:36:07.000Z</time>
      </trkpt>
      <trkpt lat="40.80793655477464199066162109375" lon="-1.820278130471706390380859375">
        <ele>1139.199951171875</ele>
        <time>2022-05-03T12:36:09.000Z</time>
      </trkpt>
      <trkpt lat="40.807975195348262786865234375" lon="-1.82038885541260242462158203125">
        <ele>1139.4000244140625</ele>
        <time>2022-05-03T12:36:11.000Z</time>
      </trkpt>
      <trkpt lat="40.80801115371286869049072265625" lon="-1.8204952217638492584228515625">
        <ele>1139.5999755859375</ele>
        <time>2022-05-03T12:36:13.000Z</time>
      </trkpt>
      <trkpt lat="40.808027498424053192138671875" lon="-1.8205451779067516326904296875">
        <ele>1139.800048828125</ele>
        <time>2022-05-03T12:36:14.000Z</time>
      </trkpt>
      <trkpt lat="40.80804300494492053985595703125" lon="-1.8205937929451465606689453125">
        <ele>1139.800048828125</ele>
        <time>2022-05-03T12:36:15.000Z</time>
      </trkpt>
      <trkpt lat="40.8080575056374073028564453125" lon="-1.8206430785357952117919921875">
        <ele>1140</ele>
        <time>2022-05-03T12:36:16.000Z</time>
      </trkpt>
      <trkpt lat="40.8080707490444183349609375" lon="-1.82069144211709499359130859375">
        <ele>1140</ele>
        <time>2022-05-03T12:36:17.000Z</time>
      </trkpt>
      <trkpt lat="40.80809547565877437591552734375" lon="-1.82078297249972820281982421875">
        <ele>1140</ele>
        <time>2022-05-03T12:36:19.000Z</time>
      </trkpt>
      <trkpt lat="40.80811559222638607025146484375" lon="-1.82086528278887271881103515625">
        <ele>1140</ele>
        <time>2022-05-03T12:36:21.000Z</time>
      </trkpt>
      <trkpt lat="40.8081351220607757568359375" lon="-1.8209414742887020111083984375">
        <ele>1140.199951171875</ele>
        <time>2022-05-03T12:36:23.000Z</time>
      </trkpt>
      <trkpt lat="40.80814492888748645782470703125" lon="-1.8209770135581493377685546875">
        <ele>1140.199951171875</ele>
        <time>2022-05-03T12:36:24.000Z</time>
      </trkpt>
      <trkpt lat="40.80815481953322887420654296875" lon="-1.82101163081824779510498046875">
        <ele>1140.199951171875</ele>
        <time>2022-05-03T12:36:25.000Z</time>
      </trkpt>
      <trkpt lat="40.80817602574825286865234375" lon="-1.8210849724709987640380859375">
        <ele>1140.199951171875</ele>
        <time>2022-05-03T12:36:27.000Z</time>
      </trkpt>
      <trkpt lat="40.8081869222223758697509765625" lon="-1.82112059555947780609130859375">
        <ele>1140.199951171875</ele>
        <time>2022-05-03T12:36:28.000Z</time>
      </trkpt>
      <trkpt lat="40.808195807039737701416015625" lon="-1.82115512900054454803466796875">
        <ele>1140.199951171875</ele>
        <time>2022-05-03T12:36:29.000Z</time>
      </trkpt>
      <trkpt lat="40.808213911950588226318359375" lon="-1.82122654281556606292724609375">
        <ele>1140.199951171875</ele>
        <time>2022-05-03T12:36:31.000Z</time>
      </trkpt>
      <trkpt lat="40.80822992138564586639404296875" lon="-1.82130038738250732421875">
        <ele>1140.199951171875</ele>
        <time>2022-05-03T12:36:33.000Z</time>
      </trkpt>
      <trkpt lat="40.80824500881135463714599609375" lon="-1.821377165615558624267578125">
        <ele>1140.199951171875</ele>
        <time>2022-05-03T12:36:35.000Z</time>
      </trkpt>
      <trkpt lat="40.80825640819966793060302734375" lon="-1.8214561231434345245361328125">
        <ele>1140.4000244140625</ele>
        <time>2022-05-03T12:36:37.000Z</time>
      </trkpt>
      <trkpt lat="40.80826587975025177001953125" lon="-1.82153667323291301727294921875">
        <ele>1140.4000244140625</ele>
        <time>2022-05-03T12:36:39.000Z</time>
      </trkpt>
      <trkpt lat="40.8082771115005016326904296875" lon="-1.821615211665630340576171875">
        <ele>1140.5999755859375</ele>
        <time>2022-05-03T12:36:41.000Z</time>
      </trkpt>
      <trkpt lat="40.80829295329749584197998046875" lon="-1.82169123552739620208740234375">
        <ele>1140.800048828125</ele>
        <time>2022-05-03T12:36:43.000Z</time>
      </trkpt>
      <trkpt lat="40.80831441096961498260498046875" lon="-1.8217665888369083404541015625">
        <ele>1140.800048828125</ele>
        <time>2022-05-03T12:36:45.000Z</time>
      </trkpt>
      <trkpt lat="40.80833561718463897705078125" lon="-1.8218380026519298553466796875">
        <ele>1141</ele>
        <time>2022-05-03T12:36:47.000Z</time>
      </trkpt>
      <trkpt lat="40.808347351849079132080078125" lon="-1.82187111116945743560791015625">
        <ele>1141</ele>
        <time>2022-05-03T12:36:48.000Z</time>
      </trkpt>
      <trkpt lat="40.80835782922804355621337890625" lon="-1.8219050578773021697998046875">
        <ele>1141.199951171875</ele>
        <time>2022-05-03T12:36:49.000Z</time>
      </trkpt>
      <trkpt lat="40.808377526700496673583984375" lon="-1.8219717778265476226806640625">
        <ele>1141.199951171875</ele>
        <time>2022-05-03T12:36:51.000Z</time>
      </trkpt>
      <trkpt lat="40.808396302163600921630859375" lon="-1.82203724049031734466552734375">
        <ele>1141.4000244140625</ele>
        <time>2022-05-03T12:36:53.000Z</time>
      </trkpt>
      <trkpt lat="40.8084060251712799072265625" lon="-1.8220726959407329559326171875">
        <ele>1141.4000244140625</ele>
        <time>2022-05-03T12:36:54.000Z</time>
      </trkpt>
      <trkpt lat="40.80841566435992717742919921875" lon="-1.8221090734004974365234375">
        <ele>1141.5999755859375</ele>
        <time>2022-05-03T12:36:55.000Z</time>
      </trkpt>
      <trkpt lat="40.80843351781368255615234375" lon="-1.82218375615775585174560546875">
        <ele>1141.5999755859375</ele>
        <time>2022-05-03T12:36:57.000Z</time>
      </trkpt>
      <trkpt lat="40.80845204181969165802001953125" lon="-1.8222592771053314208984375">
        <ele>1141.800048828125</ele>
        <time>2022-05-03T12:36:59.000Z</time>
      </trkpt>
      <trkpt lat="40.8084703981876373291015625" lon="-1.82233412750065326690673828125">
        <ele>1142</ele>
        <time>2022-05-03T12:37:01.000Z</time>
      </trkpt>
      <trkpt lat="40.8084859885275363922119140625" lon="-1.82241073809564113616943359375">
        <ele>1142</ele>
        <time>2022-05-03T12:37:03.000Z</time>
      </trkpt>
      <trkpt lat="40.80850149504840373992919921875" lon="-1.82248433120548725128173828125">
        <ele>1142.199951171875</ele>
        <time>2022-05-03T12:37:05.000Z</time>
      </trkpt>
      <trkpt lat="40.80851943232119083404541015625" lon="-1.82255708612501621246337890625">
        <ele>1142.4000244140625</ele>
        <time>2022-05-03T12:37:07.000Z</time>
      </trkpt>
      <trkpt lat="40.8085285685956478118896484375" lon="-1.8225937150418758392333984375">
        <ele>1142.4000244140625</ele>
        <time>2022-05-03T12:37:08.000Z</time>
      </trkpt>
      <trkpt lat="40.8085374534130096435546875" lon="-1.82263235561549663543701171875">
        <ele>1142.4000244140625</ele>
        <time>2022-05-03T12:37:09.000Z</time>
      </trkpt>
      <trkpt lat="40.80855580978095531463623046875" lon="-1.822708882391452789306640625">
        <ele>1142.5999755859375</ele>
        <time>2022-05-03T12:37:11.000Z</time>
      </trkpt>
      <trkpt lat="40.80857642926275730133056640625" lon="-1.8227875046432018280029296875">
        <ele>1142.800048828125</ele>
        <time>2022-05-03T12:37:13.000Z</time>
      </trkpt>
      <trkpt lat="40.80859713256359100341796875" lon="-1.8228619359433650970458984375">
        <ele>1142.800048828125</ele>
        <time>2022-05-03T12:37:15.000Z</time>
      </trkpt>
      <trkpt lat="40.8086160756647586822509765625" lon="-1.82293427176773548126220703125">
        <ele>1143</ele>
        <time>2022-05-03T12:37:17.000Z</time>
      </trkpt>
      <trkpt lat="40.80862521193921566009521484375" lon="-1.8229712359607219696044921875">
        <ele>1143</ele>
        <time>2022-05-03T12:37:18.000Z</time>
      </trkpt>
      <trkpt lat="40.808634348213672637939453125" lon="-1.82300887070596218109130859375">
        <ele>1143.199951171875</ele>
        <time>2022-05-03T12:37:19.000Z</time>
      </trkpt>
      <trkpt lat="40.8086519502103328704833984375" lon="-1.82308464311063289642333984375">
        <ele>1143.199951171875</ele>
        <time>2022-05-03T12:37:21.000Z</time>
      </trkpt>
      <trkpt lat="40.808672569692134857177734375" lon="-1.82316309772431850433349609375">
        <ele>1143.4000244140625</ele>
        <time>2022-05-03T12:37:23.000Z</time>
      </trkpt>
      <trkpt lat="40.80869377590715885162353515625" lon="-1.8232424743473529815673828125">
        <ele>1143.4000244140625</ele>
        <time>2022-05-03T12:37:25.000Z</time>
      </trkpt>
      <trkpt lat="40.80871255137026309967041015625" lon="-1.82331673800945281982421875">
        <ele>1143.4000244140625</ele>
        <time>2022-05-03T12:37:27.000Z</time>
      </trkpt>
      <trkpt lat="40.808721520006656646728515625" lon="-1.82335026562213897705078125">
        <ele>1143.199951171875</ele>
        <time>2022-05-03T12:37:28.000Z</time>
      </trkpt>
      <trkpt lat="40.8087297342717647552490234375" lon="-1.8233816139400005340576171875">
        <ele>1143.199951171875</ele>
        <time>2022-05-03T12:37:29.000Z</time>
      </trkpt>
      <trkpt lat="40.8087434805929660797119140625" lon="-1.8234453164041042327880859375">
        <ele>1143</ele>
        <time>2022-05-03T12:37:31.000Z</time>
      </trkpt>
      <trkpt lat="40.80875982530415058135986328125" lon="-1.8235172331333160400390625">
        <ele>1142.800048828125</ele>
        <time>2022-05-03T12:37:33.000Z</time>
      </trkpt>
      <trkpt lat="40.8087796904146671295166015625" lon="-1.82359660975635051727294921875">
        <ele>1142.5999755859375</ele>
        <time>2022-05-03T12:37:35.000Z</time>
      </trkpt>
      <trkpt lat="40.808790586888790130615234375" lon="-1.8236394412815570831298828125">
        <ele>1142.4000244140625</ele>
        <time>2022-05-03T12:37:36.000Z</time>
      </trkpt>
      <trkpt lat="40.80880223773419857025146484375" lon="-1.82368218898773193359375">
        <ele>1142.199951171875</ele>
        <time>2022-05-03T12:37:37.000Z</time>
      </trkpt>
      <trkpt lat="40.80882604233920574188232421875" lon="-1.8237638287246227264404296875">
        <ele>1142</ele>
        <time>2022-05-03T12:37:39.000Z</time>
      </trkpt>
      <trkpt lat="40.80884984694421291351318359375" lon="-1.8238444626331329345703125">
        <ele>1141.800048828125</ele>
        <time>2022-05-03T12:37:41.000Z</time>
      </trkpt>
      <trkpt lat="40.80887415446341037750244140625" lon="-1.82392434217035770416259765625">
        <ele>1141.4000244140625</ele>
        <time>2022-05-03T12:37:43.000Z</time>
      </trkpt>
      <trkpt lat="40.80889888107776641845703125" lon="-1.82400246150791645050048828125">
        <ele>1141.199951171875</ele>
        <time>2022-05-03T12:37:45.000Z</time>
      </trkpt>
      <trkpt lat="40.80892494879662990570068359375" lon="-1.8240773119032382965087890625">
        <ele>1141.4000244140625</ele>
        <time>2022-05-03T12:37:47.000Z</time>
      </trkpt>
      <trkpt lat="40.80893886275589466094970703125" lon="-1.82411477901041507720947265625">
        <ele>1141.4000244140625</ele>
        <time>2022-05-03T12:37:48.000Z</time>
      </trkpt>
      <trkpt lat="40.80895344726741313934326171875" lon="-1.82415082119405269622802734375">
        <ele>1141.5999755859375</ele>
        <time>2022-05-03T12:37:49.000Z</time>
      </trkpt>
      <trkpt lat="40.8089842088520526885986328125" lon="-1.82422005571424961090087890625">
        <ele>1142</ele>
        <time>2022-05-03T12:37:51.000Z</time>
      </trkpt>
      <trkpt lat="40.80901480279862880706787109375" lon="-1.8242928944528102874755859375">
        <ele>1142.199951171875</ele>
        <time>2022-05-03T12:37:53.000Z</time>
      </trkpt>
      <trkpt lat="40.80904548056423664093017578125" lon="-1.82436724193394184112548828125">
        <ele>1142.5999755859375</ele>
        <time>2022-05-03T12:37:55.000Z</time>
      </trkpt>
      <trkpt lat="40.8090764097869396209716796875" lon="-1.82443949393928050994873046875">
        <ele>1142.800048828125</ele>
        <time>2022-05-03T12:37:57.000Z</time>
      </trkpt>
      <trkpt lat="40.8091025613248348236083984375" lon="-1.8245051242411136627197265625">
        <ele>1143.199951171875</ele>
        <time>2022-05-03T12:37:59.000Z</time>
      </trkpt>
      <trkpt lat="40.80912997014820575714111328125" lon="-1.8245755322277545928955078125">
        <ele>1143.4000244140625</ele>
        <time>2022-05-03T12:38:01.000Z</time>
      </trkpt>
      <trkpt lat="40.80916106700897216796875" lon="-1.82464987970888614654541015625">
        <ele>1143.5999755859375</ele>
        <time>2022-05-03T12:38:03.000Z</time>
      </trkpt>
      <trkpt lat="40.80919082276523113250732421875" lon="-1.82472632266581058502197265625">
        <ele>1143.4000244140625</ele>
        <time>2022-05-03T12:38:05.000Z</time>
      </trkpt>
      <trkpt lat="40.80920599400997161865234375" lon="-1.82476655580103397369384765625">
        <ele>1143.199951171875</ele>
        <time>2022-05-03T12:38:06.000Z</time>
      </trkpt>
      <trkpt lat="40.80922217108309268951416015625" lon="-1.82480813004076480865478515625">
        <ele>1143</ele>
        <time>2022-05-03T12:38:07.000Z</time>
      </trkpt>
      <trkpt lat="40.8092544414103031158447265625" lon="-1.824892871081829071044921875">
        <ele>1142.800048828125</ele>
        <time>2022-05-03T12:38:09.000Z</time>
      </trkpt>
      <trkpt lat="40.80928511917591094970703125" lon="-1.824978701770305633544921875">
        <ele>1142.800048828125</ele>
        <time>2022-05-03T12:38:11.000Z</time>
      </trkpt>
      <trkpt lat="40.809316299855709075927734375" lon="-1.82505757547914981842041015625">
        <ele>1142.800048828125</ele>
        <time>2022-05-03T12:38:13.000Z</time>
      </trkpt>
      <trkpt lat="40.8093473128974437713623046875" lon="-1.8251273967325687408447265625">
        <ele>1142.800048828125</ele>
        <time>2022-05-03T12:38:15.000Z</time>
      </trkpt>
      <trkpt lat="40.80938033759593963623046875" lon="-1.8251957930624485015869140625">
        <ele>1142.800048828125</ele>
        <time>2022-05-03T12:38:17.000Z</time>
      </trkpt>
      <trkpt lat="40.80941713415086269378662109375" lon="-1.82526561431586742401123046875">
        <ele>1143.199951171875</ele>
        <time>2022-05-03T12:38:19.000Z</time>
      </trkpt>
      <trkpt lat="40.80945535562932491302490234375" lon="-1.82533417828381061553955078125">
        <ele>1143.4000244140625</ele>
        <time>2022-05-03T12:38:21.000Z</time>
      </trkpt>
      <trkpt lat="40.80949743278324604034423828125" lon="-1.82540391571819782257080078125">
        <ele>1144</ele>
        <time>2022-05-03T12:38:23.000Z</time>
      </trkpt>
      <trkpt lat="40.809517465531826019287109375" lon="-1.8254371918737888336181640625">
        <ele>1144.199951171875</ele>
        <time>2022-05-03T12:38:24.000Z</time>
      </trkpt>
      <trkpt lat="40.8095347322523593902587890625" lon="-1.82546694763004779815673828125">
        <ele>1144.199951171875</ele>
        <time>2022-05-03T12:38:25.000Z</time>
      </trkpt>
      <trkpt lat="40.8095682598650455474853515625" lon="-1.8255216814577579498291015625">
        <ele>1144.5999755859375</ele>
        <time>2022-05-03T12:38:27.000Z</time>
      </trkpt>
      <trkpt lat="40.80960430204868316650390625" lon="-1.82558161206543445587158203125">
        <ele>1145</ele>
        <time>2022-05-03T12:38:29.000Z</time>
      </trkpt>
      <trkpt lat="40.80964009277522563934326171875" lon="-1.82564347051084041595458984375">
        <ele>1145.4000244140625</ele>
        <time>2022-05-03T12:38:31.000Z</time>
      </trkpt>
      <trkpt lat="40.809656269848346710205078125" lon="-1.82567347772419452667236328125">
        <ele>1145.5999755859375</ele>
        <time>2022-05-03T12:38:32.000Z</time>
      </trkpt>
      <trkpt lat="40.809673704206943511962890625" lon="-1.8257047422230243682861328125">
        <ele>1145.5999755859375</ele>
        <time>2022-05-03T12:38:33.000Z</time>
      </trkpt>
      <trkpt lat="40.80971050076186656951904296875" lon="-1.8257734738290309906005859375">
        <ele>1145.800048828125</ele>
        <time>2022-05-03T12:38:35.000Z</time>
      </trkpt>
      <trkpt lat="40.80974654294550418853759765625" lon="-1.82584849186241626739501953125">
        <ele>1145.5999755859375</ele>
        <time>2022-05-03T12:38:37.000Z</time>
      </trkpt>
      <trkpt lat="40.809779651463031768798828125" lon="-1.825920827686786651611328125">
        <ele>1145.199951171875</ele>
        <time>2022-05-03T12:38:39.000Z</time>
      </trkpt>
      <trkpt lat="40.809795074164867401123046875" lon="-1.825957037508487701416015625">
        <ele>1145</ele>
        <time>2022-05-03T12:38:40.000Z</time>
      </trkpt>
      <trkpt lat="40.80980890430510044097900390625" lon="-1.82599282823503017425537109375">
        <ele>1144.800048828125</ele>
        <time>2022-05-03T12:38:41.000Z</time>
      </trkpt>
      <trkpt lat="40.809834636747837066650390625" lon="-1.82606197893619537353515625">
        <ele>1144.4000244140625</ele>
        <time>2022-05-03T12:38:43.000Z</time>
      </trkpt>
      <trkpt lat="40.80985349602997303009033203125" lon="-1.82612442411482334136962890625">
        <ele>1144.199951171875</ele>
        <time>2022-05-03T12:38:45.000Z</time>
      </trkpt>
      <trkpt lat="40.8098636381328105926513671875" lon="-1.8261511623859405517578125">
        <ele>1144</ele>
        <time>2022-05-03T12:38:46.000Z</time>
      </trkpt>
      <trkpt lat="40.80987579189240932464599609375" lon="-1.8261798284947872161865234375">
        <ele>1144</ele>
        <time>2022-05-03T12:38:47.000Z</time>
      </trkpt>
      <trkpt lat="40.80990144051611423492431640625" lon="-1.82624646462500095367431640625">
        <ele>1143.5999755859375</ele>
        <time>2022-05-03T12:38:49.000Z</time>
      </trkpt>
      <trkpt lat="40.809923820197582244873046875" lon="-1.8263159506022930145263671875">
        <ele>1143.4000244140625</ele>
        <time>2022-05-03T12:38:51.000Z</time>
      </trkpt>
      <trkpt lat="40.8099474571645259857177734375" lon="-1.82638711296021938323974609375">
        <ele>1143.4000244140625</ele>
        <time>2022-05-03T12:38:53.000Z</time>
      </trkpt>
      <trkpt lat="40.8099710941314697265625" lon="-1.8264467082917690277099609375">
        <ele>1143.4000244140625</ele>
        <time>2022-05-03T12:38:55.000Z</time>
      </trkpt>
      <trkpt lat="40.80998609773814678192138671875" lon="-1.82651669718325138092041015625">
        <ele>1143.5999755859375</ele>
        <time>2022-05-03T12:38:57.000Z</time>
      </trkpt>
      <trkpt lat="40.8099954016506671905517578125" lon="-1.826556511223316192626953125">
        <ele>1143.5999755859375</ele>
        <time>2022-05-03T12:38:58.000Z</time>
      </trkpt>
      <trkpt lat="40.810004286468029022216796875" lon="-1.82659842073917388916015625">
        <ele>1143.4000244140625</ele>
        <time>2022-05-03T12:38:59.000Z</time>
      </trkpt>
      <trkpt lat="40.81002247519791126251220703125" lon="-1.8266797251999378204345703125">
        <ele>1142.800048828125</ele>
        <time>2022-05-03T12:39:01.000Z</time>
      </trkpt>
      <trkpt lat="40.81004074774682521820068359375" lon="-1.82676178403198719024658203125">
        <ele>1142.4000244140625</ele>
        <time>2022-05-03T12:39:03.000Z</time>
      </trkpt>
      <trkpt lat="40.8100594393908977508544921875" lon="-1.8268485367298126220703125">
        <ele>1141.800048828125</ele>
        <time>2022-05-03T12:39:05.000Z</time>
      </trkpt>
      <trkpt lat="40.8100755326449871063232421875" lon="-1.8269315175712108612060546875">
        <ele>1141.4000244140625</ele>
        <time>2022-05-03T12:39:07.000Z</time>
      </trkpt>
      <trkpt lat="40.81008248962461948394775390625" lon="-1.82697166688740253448486328125">
        <ele>1141</ele>
        <time>2022-05-03T12:39:08.000Z</time>
      </trkpt>
      <trkpt lat="40.81009070388972759246826171875" lon="-1.8270096369087696075439453125">
        <ele>1140.800048828125</ele>
        <time>2022-05-03T12:39:09.000Z</time>
      </trkpt>
      <trkpt lat="40.81010847352445125579833984375" lon="-1.827083565294742584228515625">
        <ele>1140.800048828125</ele>
        <time>2022-05-03T12:39:11.000Z</time>
      </trkpt>
      <trkpt lat="40.81012590788304805755615234375" lon="-1.82715204544365406036376953125">
        <ele>1140.800048828125</ele>
        <time>2022-05-03T12:39:13.000Z</time>
      </trkpt>
      <trkpt lat="40.8101445995271205902099609375" lon="-1.82722094468772411346435546875">
        <ele>1140.800048828125</ele>
        <time>2022-05-03T12:39:15.000Z</time>
      </trkpt>
      <trkpt lat="40.81016312353312969207763671875" lon="-1.82729587890207767486572265625">
        <ele>1140.800048828125</ele>
        <time>2022-05-03T12:39:17.000Z</time>
      </trkpt>
      <trkpt lat="40.81018407829105854034423828125" lon="-1.8273687176406383514404296875">
        <ele>1140.5999755859375</ele>
        <time>2022-05-03T12:39:19.000Z</time>
      </trkpt>
      <trkpt lat="40.81020503304898738861083984375" lon="-1.82743367739021778106689453125">
        <ele>1140.5999755859375</ele>
        <time>2022-05-03T12:39:21.000Z</time>
      </trkpt>
      <trkpt lat="40.810230262577533721923828125" lon="-1.8274977989494800567626953125">
        <ele>1140.4000244140625</ele>
        <time>2022-05-03T12:39:23.000Z</time>
      </trkpt>
      <trkpt lat="40.81024442799389362335205078125" lon="-1.82753358967602252960205078125">
        <ele>1140.199951171875</ele>
        <time>2022-05-03T12:39:24.000Z</time>
      </trkpt>
      <trkpt lat="40.81026270054280757904052734375" lon="-1.82757080532610416412353515625">
        <ele>1140</ele>
        <time>2022-05-03T12:39:25.000Z</time>
      </trkpt>
      <trkpt lat="40.8103038556873798370361328125" lon="-1.82764339260756969451904296875">
        <ele>1139.800048828125</ele>
        <time>2022-05-03T12:39:27.000Z</time>
      </trkpt>
      <trkpt lat="40.81034132279455661773681640625" lon="-1.827703826129436492919921875">
        <ele>1139.4000244140625</ele>
        <time>2022-05-03T12:39:29.000Z</time>
      </trkpt>
      <trkpt lat="40.81035993061959743499755859375" lon="-1.82773106731474399566650390625">
        <ele>1139.199951171875</ele>
        <time>2022-05-03T12:39:30.000Z</time>
      </trkpt>
      <trkpt lat="40.81038004718720912933349609375" lon="-1.827761493623256683349609375">
        <ele>1138.800048828125</ele>
        <time>2022-05-03T12:39:31.000Z</time>
      </trkpt>
      <trkpt lat="40.81042648293077945709228515625" lon="-1.8278277106583118438720703125">
        <ele>1138.4000244140625</ele>
        <time>2022-05-03T12:39:33.000Z</time>
      </trkpt>
      <trkpt lat="40.810470320284366607666015625" lon="-1.82788856327533721923828125">
        <ele>1137.800048828125</ele>
        <time>2022-05-03T12:39:35.000Z</time>
      </trkpt>
      <trkpt lat="40.8105087094008922576904296875" lon="-1.82793416082859039306640625">
        <ele>1137.4000244140625</ele>
        <time>2022-05-03T12:39:37.000Z</time>
      </trkpt>
      <trkpt lat="40.81052974797785282135009765625" lon="-1.82793860323727130889892578125">
        <ele>1137.4000244140625</ele>
        <time>2022-05-03T12:39:38.000Z</time>
      </trkpt>
      <trkpt lat="40.81055036745965480804443359375" lon="-1.8279286287724971771240234375">
        <ele>1137.4000244140625</ele>
        <time>2022-05-03T12:39:39.000Z</time>
      </trkpt>
      <trkpt lat="40.810570903122425079345703125" lon="-1.8279142118990421295166015625">
        <ele>1137.5999755859375</ele>
        <time>2022-05-03T12:39:40.000Z</time>
      </trkpt>
      <trkpt lat="40.81059210933744907379150390625" lon="-1.82789820246398448944091796875">
        <ele>1137.800048828125</ele>
        <time>2022-05-03T12:39:41.000Z</time>
      </trkpt>
      <trkpt lat="40.810613818466663360595703125" lon="-1.8278806842863559722900390625">
        <ele>1138</ele>
        <time>2022-05-03T12:39:42.000Z</time>
      </trkpt>
      <trkpt lat="40.810635946691036224365234375" lon="-1.82786576449871063232421875">
        <ele>1138.199951171875</ele>
        <time>2022-05-03T12:39:43.000Z</time>
      </trkpt>
      <trkpt lat="40.8106827177107334136962890625" lon="-1.82783483527600765228271484375">
        <ele>1138.5999755859375</ele>
        <time>2022-05-03T12:39:45.000Z</time>
      </trkpt>
      <trkpt lat="40.81073057837784290313720703125" lon="-1.82780365459620952606201171875">
        <ele>1139</ele>
        <time>2022-05-03T12:39:47.000Z</time>
      </trkpt>
      <trkpt lat="40.8107796125113964080810546875" lon="-1.8277744017541408538818359375">
        <ele>1139.199951171875</ele>
        <time>2022-05-03T12:39:49.000Z</time>
      </trkpt>
      <trkpt lat="40.8108280599117279052734375" lon="-1.8277442269027233123779296875">
        <ele>1139.5999755859375</ele>
        <time>2022-05-03T12:39:51.000Z</time>
      </trkpt>
      <trkpt lat="40.8108751662075519561767578125" lon="-1.827714554965496063232421875">
        <ele>1140</ele>
        <time>2022-05-03T12:39:53.000Z</time>
      </trkpt>
      <trkpt lat="40.8109167404472827911376953125" lon="-1.827688403427600860595703125">
        <ele>1140.4000244140625</ele>
        <time>2022-05-03T12:39:55.000Z</time>
      </trkpt>
      <trkpt lat="40.81096091307699680328369140625" lon="-1.82766283862292766571044921875">
        <ele>1140.5999755859375</ele>
        <time>2022-05-03T12:39:57.000Z</time>
      </trkpt>
      <trkpt lat="40.8110049180686473846435546875" lon="-1.82763467542827129364013671875">
        <ele>1141</ele>
        <time>2022-05-03T12:39:59.000Z</time>
      </trkpt>
      <trkpt lat="40.811054371297359466552734375" lon="-1.82761288248002529144287109375">
        <ele>1141.4000244140625</ele>
        <time>2022-05-03T12:40:01.000Z</time>
      </trkpt>
      <trkpt lat="40.8111043274402618408203125" lon="-1.8275856412947177886962890625">
        <ele>1141.5999755859375</ele>
        <time>2022-05-03T12:40:03.000Z</time>
      </trkpt>
      <trkpt lat="40.81112855114042758941650390625" lon="-1.82757298462092876434326171875">
        <ele>1141.800048828125</ele>
        <time>2022-05-03T12:40:04.000Z</time>
      </trkpt>
      <trkpt lat="40.8111534453928470611572265625" lon="-1.82755957357585430145263671875">
        <ele>1142</ele>
        <time>2022-05-03T12:40:05.000Z</time>
      </trkpt>
      <trkpt lat="40.81120080314576625823974609375" lon="-1.82753509841859340667724609375">
        <ele>1142.4000244140625</ele>
        <time>2022-05-03T12:40:07.000Z</time>
      </trkpt>
      <trkpt lat="40.81124740652740001678466796875" lon="-1.82750576175749301910400390625">
        <ele>1142.5999755859375</ele>
        <time>2022-05-03T12:40:09.000Z</time>
      </trkpt>
      <trkpt lat="40.81129400990903377532958984375" lon="-1.827477514743804931640625">
        <ele>1143</ele>
        <time>2022-05-03T12:40:11.000Z</time>
      </trkpt>
      <trkpt lat="40.81134228967130184173583984375" lon="-1.8274508602917194366455078125">
        <ele>1143.5999755859375</ele>
        <time>2022-05-03T12:40:13.000Z</time>
      </trkpt>
      <trkpt lat="40.81138931214809417724609375" lon="-1.8274243734776973724365234375">
        <ele>1144</ele>
        <time>2022-05-03T12:40:15.000Z</time>
      </trkpt>
      <trkpt lat="40.81143566407263278961181640625" lon="-1.8273928575217723846435546875">
        <ele>1144</ele>
        <time>2022-05-03T12:40:17.000Z</time>
      </trkpt>
      <trkpt lat="40.81147388555109500885009765625" lon="-1.82735882699489593505859375">
        <ele>1144</ele>
        <time>2022-05-03T12:40:19.000Z</time>
      </trkpt>
      <trkpt lat="40.81149467267096042633056640625" lon="-1.8273439072072505950927734375">
        <ele>1144</ele>
        <time>2022-05-03T12:40:20.000Z</time>
      </trkpt>
      <trkpt lat="40.8115168847143650054931640625" lon="-1.827330328524112701416015625">
        <ele>1144</ele>
        <time>2022-05-03T12:40:21.000Z</time>
      </trkpt>
      <trkpt lat="40.81155803985893726348876953125" lon="-1.827302165329456329345703125">
        <ele>1144</ele>
        <time>2022-05-03T12:40:23.000Z</time>
      </trkpt>
      <trkpt lat="40.81159609369933605194091796875" lon="-1.827271990478038787841796875">
        <ele>1144.199951171875</ele>
        <time>2022-05-03T12:40:25.000Z</time>
      </trkpt>
      <trkpt lat="40.81162995658814907073974609375" lon="-1.827246509492397308349609375">
        <ele>1144.199951171875</ele>
        <time>2022-05-03T12:40:27.000Z</time>
      </trkpt>
      <trkpt lat="40.811665244400501251220703125" lon="-1.82723812758922576904296875">
        <ele>1144.199951171875</ele>
        <time>2022-05-03T12:40:29.000Z</time>
      </trkpt>
      <trkpt lat="40.81168837845325469970703125" lon="-1.827252209186553955078125">
        <ele>1144.199951171875</ele>
        <time>2022-05-03T12:40:31.000Z</time>
      </trkpt>
      <trkpt lat="40.81170086748898029327392578125" lon="-1.8272664584219455718994140625">
        <ele>1144</ele>
        <time>2022-05-03T12:40:32.000Z</time>
      </trkpt>
      <trkpt lat="40.8117140270769596099853515625" lon="-1.82728431187570095062255859375">
        <ele>1144</ele>
        <time>2022-05-03T12:40:33.000Z</time>
      </trkpt>
      <trkpt lat="40.81173758022487163543701171875" lon="-1.82732756249606609344482421875">
        <ele>1143.800048828125</ele>
        <time>2022-05-03T12:40:35.000Z</time>
      </trkpt>
      <trkpt lat="40.8117623068392276763916015625" lon="-1.82737517170608043670654296875">
        <ele>1143.5999755859375</ele>
        <time>2022-05-03T12:40:37.000Z</time>
      </trkpt>
      <trkpt lat="40.81178703345358371734619140625" lon="-1.8274223618209362030029296875">
        <ele>1143.4000244140625</ele>
        <time>2022-05-03T12:40:39.000Z</time>
      </trkpt>
      <trkpt lat="40.81181083805859088897705078125" lon="-1.82747927494347095489501953125">
        <ele>1143.4000244140625</ele>
        <time>2022-05-03T12:40:41.000Z</time>
      </trkpt>
      <trkpt lat="40.81183263100683689117431640625" lon="-1.8275480903685092926025390625">
        <ele>1143.199951171875</ele>
        <time>2022-05-03T12:40:43.000Z</time>
      </trkpt>
      <trkpt lat="40.8118545077741146087646484375" lon="-1.82761673815548419952392578125">
        <ele>1143.199951171875</ele>
        <time>2022-05-03T12:40:45.000Z</time>
      </trkpt>
      <trkpt lat="40.81187252886593341827392578125" lon="-1.827681697905063629150390625">
        <ele>1143</ele>
        <time>2022-05-03T12:40:47.000Z</time>
      </trkpt>
      <trkpt lat="40.81189080141484737396240234375" lon="-1.827747412025928497314453125">
        <ele>1143</ele>
        <time>2022-05-03T12:40:49.000Z</time>
      </trkpt>
      <trkpt lat="40.8119108341634273529052734375" lon="-1.82781874202191829681396484375">
        <ele>1142.800048828125</ele>
        <time>2022-05-03T12:40:51.000Z</time>
      </trkpt>
      <trkpt lat="40.8119224011898040771484375" lon="-1.827857382595539093017578125">
        <ele>1142.5999755859375</ele>
        <time>2022-05-03T12:40:52.000Z</time>
      </trkpt>
      <trkpt lat="40.81193447113037109375" lon="-1.8278972804546356201171875">
        <ele>1142.4000244140625</ele>
        <time>2022-05-03T12:40:53.000Z</time>
      </trkpt>
      <trkpt lat="40.81195928156375885009765625" lon="-1.8279795907437801361083984375">
        <ele>1142.199951171875</ele>
        <time>2022-05-03T12:40:55.000Z</time>
      </trkpt>
      <trkpt lat="40.81198618747293949127197265625" lon="-1.82806198485195636749267578125">
        <ele>1142</ele>
        <time>2022-05-03T12:40:57.000Z</time>
      </trkpt>
      <trkpt lat="40.8120124228298664093017578125" lon="-1.82814111001789569854736328125">
        <ele>1141.5999755859375</ele>
        <time>2022-05-03T12:40:59.000Z</time>
      </trkpt>
      <trkpt lat="40.81203564070165157318115234375" lon="-1.82821654714643955230712890625">
        <ele>1141.4000244140625</ele>
        <time>2022-05-03T12:41:01.000Z</time>
      </trkpt>
      <trkpt lat="40.81206028349697589874267578125" lon="-1.82829684577882289886474609375">
        <ele>1141</ele>
        <time>2022-05-03T12:41:03.000Z</time>
      </trkpt>
      <trkpt lat="40.81208609975874423980712890625" lon="-1.82838066481053829193115234375">
        <ele>1140.5999755859375</ele>
        <time>2022-05-03T12:41:05.000Z</time>
      </trkpt>
      <trkpt lat="40.8121146820485591888427734375" lon="-1.8284546770155429840087890625">
        <ele>1140.5999755859375</ele>
        <time>2022-05-03T12:41:07.000Z</time>
      </trkpt>
      <trkpt lat="40.8121280930936336517333984375" lon="-1.82849348522722721099853515625">
        <ele>1140.5999755859375</ele>
        <time>2022-05-03T12:41:08.000Z</time>
      </trkpt>
      <trkpt lat="40.81214167177677154541015625" lon="-1.8285338021814823150634765625">
        <ele>1140.5999755859375</ele>
        <time>2022-05-03T12:41:09.000Z</time>
      </trkpt>
      <trkpt lat="40.8121710084378719329833984375" lon="-1.82861351408064365386962890625">
        <ele>1140.4000244140625</ele>
        <time>2022-05-03T12:41:11.000Z</time>
      </trkpt>
      <trkpt lat="40.81220202147960662841796875" lon="-1.8286912143230438232421875">
        <ele>1140.4000244140625</ele>
        <time>2022-05-03T12:41:13.000Z</time>
      </trkpt>
      <trkpt lat="40.8122306875884532928466796875" lon="-1.82876740582287311553955078125">
        <ele>1140.4000244140625</ele>
        <time>2022-05-03T12:41:15.000Z</time>
      </trkpt>
      <trkpt lat="40.81225759349763393402099609375" lon="-1.82884518988430500030517578125">
        <ele>1140.199951171875</ele>
        <time>2022-05-03T12:41:17.000Z</time>
      </trkpt>
      <trkpt lat="40.81228382885456085205078125" lon="-1.82892389595508575439453125">
        <ele>1140</ele>
        <time>2022-05-03T12:41:19.000Z</time>
      </trkpt>
      <trkpt lat="40.8123086392879486083984375" lon="-1.8290038593113422393798828125">
        <ele>1140</ele>
        <time>2022-05-03T12:41:21.000Z</time>
      </trkpt>
      <trkpt lat="40.812325067818164825439453125" lon="-1.82908843271434307098388671875">
        <ele>1140.199951171875</ele>
        <time>2022-05-03T12:41:23.000Z</time>
      </trkpt>
      <trkpt lat="40.81234124489128589630126953125" lon="-1.8291765265166759490966796875">
        <ele>1140.199951171875</ele>
        <time>2022-05-03T12:41:25.000Z</time>
      </trkpt>
      <trkpt lat="40.8123493753373622894287109375" lon="-1.82922220788896083831787109375">
        <ele>1140.199951171875</ele>
        <time>2022-05-03T12:41:26.000Z</time>
      </trkpt>
      <trkpt lat="40.81235733814537525177001953125" lon="-1.82926814071834087371826171875">
        <ele>1140.199951171875</ele>
        <time>2022-05-03T12:41:27.000Z</time>
      </trkpt>
      <trkpt lat="40.81236907280981540679931640625" lon="-1.82935883291065692901611328125">
        <ele>1140.199951171875</ele>
        <time>2022-05-03T12:41:29.000Z</time>
      </trkpt>
      <trkpt lat="40.8123765327036380767822265625" lon="-1.82944265194237232208251953125">
        <ele>1140.199951171875</ele>
        <time>2022-05-03T12:41:31.000Z</time>
      </trkpt>
      <trkpt lat="40.81238650716841220855712890625" lon="-1.82952378876507282257080078125">
        <ele>1140.199951171875</ele>
        <time>2022-05-03T12:41:33.000Z</time>
      </trkpt>
      <trkpt lat="40.8123916201293468475341796875" lon="-1.8295651115477085113525390625">
        <ele>1140.199951171875</ele>
        <time>2022-05-03T12:41:34.000Z</time>
      </trkpt>
      <trkpt lat="40.8123969845473766326904296875" lon="-1.82960777543485164642333984375">
        <ele>1140.199951171875</ele>
        <time>2022-05-03T12:41:35.000Z</time>
      </trkpt>
      <trkpt lat="40.8124137483537197113037109375" lon="-1.82969771325588226318359375">
        <ele>1140.199951171875</ele>
        <time>2022-05-03T12:41:37.000Z</time>
      </trkpt>
      <trkpt lat="40.81243193708360195159912109375" lon="-1.8297907523810863494873046875">
        <ele>1140.199951171875</ele>
        <time>2022-05-03T12:41:39.000Z</time>
      </trkpt>
      <trkpt lat="40.81245280802249908447265625" lon="-1.829880438745021820068359375">
        <ele>1140.199951171875</ele>
        <time>2022-05-03T12:41:41.000Z</time>
      </trkpt>
      <trkpt lat="40.8124643750488758087158203125" lon="-1.82992192916572093963623046875">
        <ele>1140.199951171875</ele>
        <time>2022-05-03T12:41:42.000Z</time>
      </trkpt>
      <trkpt lat="40.8124747686088085174560546875" lon="-1.82996191084384918212890625">
        <ele>1140.199951171875</ele>
        <time>2022-05-03T12:41:43.000Z</time>
      </trkpt>
      <trkpt lat="40.81248977221548557281494140625" lon="-1.83003961108624935150146484375">
        <ele>1140.199951171875</ele>
        <time>2022-05-03T12:41:45.000Z</time>
      </trkpt>
      <trkpt lat="40.81250418908894062042236328125" lon="-1.83012611232697963714599609375">
        <ele>1140</ele>
        <time>2022-05-03T12:41:47.000Z</time>
      </trkpt>
      <trkpt lat="40.81251843832433223724365234375" lon="-1.83021194301545619964599609375">
        <ele>1140</ele>
        <time>2022-05-03T12:41:49.000Z</time>
      </trkpt>
      <trkpt lat="40.81253570504486560821533203125" lon="-1.83029056526720523834228515625">
        <ele>1139.800048828125</ele>
        <time>2022-05-03T12:41:51.000Z</time>
      </trkpt>
      <trkpt lat="40.81255263648927211761474609375" lon="-1.83036449365317821502685546875">
        <ele>1139.800048828125</ele>
        <time>2022-05-03T12:41:53.000Z</time>
      </trkpt>
      <trkpt lat="40.81256789155304431915283203125" lon="-1.8304388411343097686767578125">
        <ele>1139.4000244140625</ele>
        <time>2022-05-03T12:41:55.000Z</time>
      </trkpt>
      <trkpt lat="40.812580883502960205078125" lon="-1.830519139766693115234375">
        <ele>1139</ele>
        <time>2022-05-03T12:41:57.000Z</time>
      </trkpt>
      <trkpt lat="40.81259119324386119842529296875" lon="-1.8306054733693599700927734375">
        <ele>1138.4000244140625</ele>
        <time>2022-05-03T12:41:59.000Z</time>
      </trkpt>
      <trkpt lat="40.81260913051664829254150390625" lon="-1.830691136419773101806640625">
        <ele>1137.800048828125</ele>
        <time>2022-05-03T12:42:01.000Z</time>
      </trkpt>
      <trkpt lat="40.81263042055070400238037109375" lon="-1.83077135123312473297119140625">
        <ele>1137.5999755859375</ele>
        <time>2022-05-03T12:42:03.000Z</time>
      </trkpt>
      <trkpt lat="40.81264768727123737335205078125" lon="-1.83085483498871326446533203125">
        <ele>1137.4000244140625</ele>
        <time>2022-05-03T12:42:05.000Z</time>
      </trkpt>
      <trkpt lat="40.8126662112772464752197265625" lon="-1.83093613944947719573974609375">
        <ele>1137.4000244140625</ele>
        <time>2022-05-03T12:42:07.000Z</time>
      </trkpt>
      <trkpt lat="40.8126890100538730621337890625" lon="-1.831013001501560211181640625">
        <ele>1137.4000244140625</ele>
        <time>2022-05-03T12:42:09.000Z</time>
      </trkpt>
      <trkpt lat="40.81270870752632617950439453125" lon="-1.8310859240591526031494140625">
        <ele>1137.199951171875</ele>
        <time>2022-05-03T12:42:11.000Z</time>
      </trkpt>
      <trkpt lat="40.81271893344819545745849609375" lon="-1.8311214633285999298095703125">
        <ele>1137.199951171875</ele>
        <time>2022-05-03T12:42:12.000Z</time>
      </trkpt>
      <trkpt lat="40.8127295784652233123779296875" lon="-1.83115742169320583343505859375">
        <ele>1137</ele>
        <time>2022-05-03T12:42:13.000Z</time>
      </trkpt>
      <trkpt lat="40.8127512037754058837890625" lon="-1.8312366306781768798828125">
        <ele>1136.800048828125</ele>
        <time>2022-05-03T12:42:15.000Z</time>
      </trkpt>
      <trkpt lat="40.812774337828159332275390625" lon="-1.83132908307015895843505859375">
        <ele>1136.5999755859375</ele>
        <time>2022-05-03T12:42:17.000Z</time>
      </trkpt>
      <trkpt lat="40.812797807157039642333984375" lon="-1.83142505586147308349609375">
        <ele>1136.4000244140625</ele>
        <time>2022-05-03T12:42:19.000Z</time>
      </trkpt>
      <trkpt lat="40.81280694343149662017822265625" lon="-1.8314724974334239959716796875">
        <ele>1136.199951171875</ele>
        <time>2022-05-03T12:42:20.000Z</time>
      </trkpt>
      <trkpt lat="40.81281624734401702880859375" lon="-1.83152052573859691619873046875">
        <ele>1136.199951171875</ele>
        <time>2022-05-03T12:42:21.000Z</time>
      </trkpt>
      <trkpt lat="40.81283527426421642303466796875" lon="-1.83161691762506961822509765625">
        <ele>1135.5999755859375</ele>
        <time>2022-05-03T12:42:23.000Z</time>
      </trkpt>
      <trkpt lat="40.81285421736538410186767578125" lon="-1.831712387502193450927734375">
        <ele>1135</ele>
        <time>2022-05-03T12:42:25.000Z</time>
      </trkpt>
      <trkpt lat="40.8128687180578708648681640625" lon="-1.83180668391287326812744140625">
        <ele>1134.5999755859375</ele>
        <time>2022-05-03T12:42:27.000Z</time>
      </trkpt>
      <trkpt lat="40.8128740824759006500244140625" lon="-1.83189737610518932342529296875">
        <ele>1134.4000244140625</ele>
        <time>2022-05-03T12:42:29.000Z</time>
      </trkpt>
      <trkpt lat="40.81287299282848834991455078125" lon="-1.831977255642414093017578125">
        <ele>1134.199951171875</ele>
        <time>2022-05-03T12:42:31.000Z</time>
      </trkpt>
      <trkpt lat="40.81287181936204433441162109375" lon="-1.8320542015135288238525390625">
        <ele>1134</ele>
        <time>2022-05-03T12:42:33.000Z</time>
      </trkpt>
      <trkpt lat="40.81287433393299579620361328125" lon="-1.8321336619555950164794921875">
        <ele>1133.800048828125</ele>
        <time>2022-05-03T12:42:35.000Z</time>
      </trkpt>
      <trkpt lat="40.81287793815135955810546875" lon="-1.832171380519866943359375">
        <ele>1133.800048828125</ele>
        <time>2022-05-03T12:42:36.000Z</time>
      </trkpt>
      <trkpt lat="40.812885649502277374267578125" lon="-1.83220465667545795440673828125">
        <ele>1133.5999755859375</ele>
        <time>2022-05-03T12:42:37.000Z</time>
      </trkpt>
      <trkpt lat="40.81291289068758487701416015625" lon="-1.83225813321769237518310546875">
        <ele>1133.4000244140625</ele>
        <time>2022-05-03T12:42:39.000Z</time>
      </trkpt>
      <trkpt lat="40.81295899115502834320068359375" lon="-1.8322907388210296630859375">
        <ele>1133.4000244140625</ele>
        <time>2022-05-03T12:42:41.000Z</time>
      </trkpt>
      <trkpt lat="40.81301129423081874847412109375" lon="-1.83232652954757213592529296875">
        <ele>1133.199951171875</ele>
        <time>2022-05-03T12:42:43.000Z</time>
      </trkpt>
      <trkpt lat="40.81306762062013149261474609375" lon="-1.83237263001501560211181640625">
        <ele>1133</ele>
        <time>2022-05-03T12:42:45.000Z</time>
      </trkpt>
      <trkpt lat="40.8131221868097782135009765625" lon="-1.83242962695658206939697265625">
        <ele>1133.4000244140625</ele>
        <time>2022-05-03T12:42:47.000Z</time>
      </trkpt>
      <trkpt lat="40.81317138858139514923095703125" lon="-1.83248947374522686004638671875">
        <ele>1133.5999755859375</ele>
        <time>2022-05-03T12:42:49.000Z</time>
      </trkpt>
      <trkpt lat="40.81321514211595058441162109375" lon="-1.83254965580999851226806640625">
        <ele>1133.800048828125</ele>
        <time>2022-05-03T12:42:51.000Z</time>
      </trkpt>
      <trkpt lat="40.8132529444992542266845703125" lon="-1.83260388672351837158203125">
        <ele>1134</ele>
        <time>2022-05-03T12:42:53.000Z</time>
      </trkpt>
      <trkpt lat="40.813261829316616058349609375" lon="-1.8326164595782756805419921875">
        <ele>1134</ele>
        <time>2022-05-03T12:42:54.000Z</time>
      </trkpt>
      <trkpt lat="40.81326283514499664306640625" lon="-1.83261838741600513458251953125">
        <ele>1134</ele>
        <time>2022-05-03T12:42:55.000Z</time>
      </trkpt>
      <trkpt lat="40.81322737969458103179931640625" lon="-1.8325953371822834014892578125">
        <ele>1133.800048828125</ele>
        <time>2022-05-03T12:43:40.000Z</time>
      </trkpt>
      <trkpt lat="40.8132170699536800384521484375" lon="-1.8325809203088283538818359375">
        <ele>1133.800048828125</ele>
        <time>2022-05-03T12:43:41.000Z</time>
      </trkpt>
      <trkpt lat="40.81319368444383144378662109375" lon="-1.8325477279722690582275390625">
        <ele>1133.5999755859375</ele>
        <time>2022-05-03T12:43:43.000Z</time>
      </trkpt>
      <trkpt lat="40.8131657727062702178955078125" lon="-1.83250623755156993865966796875">
        <ele>1133.5999755859375</ele>
        <time>2022-05-03T12:43:45.000Z</time>
      </trkpt>
      <trkpt lat="40.81315143965184688568115234375" lon="-1.83248377405107021331787109375">
        <ele>1133.4000244140625</ele>
        <time>2022-05-03T12:43:46.000Z</time>
      </trkpt>
      <trkpt lat="40.81313811242580413818359375" lon="-1.8324605561792850494384765625">
        <ele>1133.4000244140625</ele>
        <time>2022-05-03T12:43:47.000Z</time>
      </trkpt>
      <trkpt lat="40.81310885958373546600341796875" lon="-1.832413114607334136962890625">
        <ele>1133.199951171875</ele>
        <time>2022-05-03T12:43:49.000Z</time>
      </trkpt>
      <trkpt lat="40.8130703866481781005859375" lon="-1.83237028308212757110595703125">
        <ele>1133</ele>
        <time>2022-05-03T12:43:51.000Z</time>
      </trkpt>
      <trkpt lat="40.8130239509046077728271484375" lon="-1.832332313060760498046875">
        <ele>1133.199951171875</ele>
        <time>2022-05-03T12:43:53.000Z</time>
      </trkpt>
      <trkpt lat="40.8129994757473468780517578125" lon="-1.8323133699595928192138671875">
        <ele>1133.199951171875</ele>
        <time>2022-05-03T12:43:54.000Z</time>
      </trkpt>
      <trkpt lat="40.8129746653139591217041015625" lon="-1.83229333721101284027099609375">
        <ele>1133.4000244140625</ele>
        <time>2022-05-03T12:43:55.000Z</time>
      </trkpt>
      <trkpt lat="40.81292630173265933990478515625" lon="-1.83225394226610660552978515625">
        <ele>1133.4000244140625</ele>
        <time>2022-05-03T12:43:57.000Z</time>
      </trkpt>
      <trkpt lat="40.812881290912628173828125" lon="-1.83221161365509033203125">
        <ele>1133.5999755859375</ele>
        <time>2022-05-03T12:43:59.000Z</time>
      </trkpt>
      <trkpt lat="40.812844745814800262451171875" lon="-1.832171715795993804931640625">
        <ele>1133.800048828125</ele>
        <time>2022-05-03T12:44:01.000Z</time>
      </trkpt>
      <trkpt lat="40.8128281496465206146240234375" lon="-1.83215118013322353363037109375">
        <ele>1133.800048828125</ele>
        <time>2022-05-03T12:44:02.000Z</time>
      </trkpt>
      <trkpt lat="40.81280828453600406646728515625" lon="-1.8321380205452442169189453125">
        <ele>1133.800048828125</ele>
        <time>2022-05-03T12:44:03.000Z</time>
      </trkpt>
      <trkpt lat="40.8127671293914318084716796875" lon="-1.8321487493813037872314453125">
        <ele>1134</ele>
        <time>2022-05-03T12:44:05.000Z</time>
      </trkpt>
      <trkpt lat="40.81274961121380329132080078125" lon="-1.83217112906277179718017578125">
        <ele>1133.800048828125</ele>
        <time>2022-05-03T12:44:06.000Z</time>
      </trkpt>
      <trkpt lat="40.8127349428832530975341796875" lon="-1.832199878990650177001953125">
        <ele>1133.800048828125</ele>
        <time>2022-05-03T12:44:07.000Z</time>
      </trkpt>
      <trkpt lat="40.81271700561046600341796875" lon="-1.8322721309959888458251953125">
        <ele>1133.5999755859375</ele>
        <time>2022-05-03T12:44:09.000Z</time>
      </trkpt>
      <trkpt lat="40.81270636059343814849853515625" lon="-1.83234907686710357666015625">
        <ele>1133.5999755859375</ele>
        <time>2022-05-03T12:44:11.000Z</time>
      </trkpt>
      <trkpt lat="40.8126967214047908782958984375" lon="-1.83242510072886943817138671875">
        <ele>1133.5999755859375</ele>
        <time>2022-05-03T12:44:13.000Z</time>
      </trkpt>
      <trkpt lat="40.81268909387290477752685546875" lon="-1.832497604191303253173828125">
        <ele>1134</ele>
        <time>2022-05-03T12:44:15.000Z</time>
      </trkpt>
      <trkpt lat="40.81268523819744586944580078125" lon="-1.83257362805306911468505859375">
        <ele>1134.4000244140625</ele>
        <time>2022-05-03T12:44:17.000Z</time>
      </trkpt>
      <trkpt lat="40.81268641166388988494873046875" lon="-1.832612268626689910888671875">
        <ele>1134.5999755859375</ele>
        <time>2022-05-03T12:44:18.000Z</time>
      </trkpt>
      <trkpt lat="40.81268775276839733123779296875" lon="-1.83265090920031070709228515625">
        <ele>1134.5999755859375</ele>
        <time>2022-05-03T12:44:19.000Z</time>
      </trkpt>
      <trkpt lat="40.8126903511583805084228515625" lon="-1.832729615271091461181640625">
        <ele>1135</ele>
        <time>2022-05-03T12:44:21.000Z</time>
      </trkpt>
      <trkpt lat="40.8126940391957759857177734375" lon="-1.83281050063669681549072265625">
        <ele>1135.199951171875</ele>
        <time>2022-05-03T12:44:23.000Z</time>
      </trkpt>
      <trkpt lat="40.8126960508525371551513671875" lon="-1.832892894744873046875">
        <ele>1135.4000244140625</ele>
        <time>2022-05-03T12:44:25.000Z</time>
      </trkpt>
      <trkpt lat="40.812694542109966278076171875" lon="-1.8329773843288421630859375">
        <ele>1135.4000244140625</ele>
        <time>2022-05-03T12:44:27.000Z</time>
      </trkpt>
      <trkpt lat="40.8126913569867610931396484375" lon="-1.83302038349211215972900390625">
        <ele>1135.4000244140625</ele>
        <time>2022-05-03T12:44:28.000Z</time>
      </trkpt>
      <trkpt lat="40.8126893453299999237060546875" lon="-1.833062879741191864013671875">
        <ele>1135.5999755859375</ele>
        <time>2022-05-03T12:44:29.000Z</time>
      </trkpt>
      <trkpt lat="40.8126826398074626922607421875" lon="-1.833148710429668426513671875">
        <ele>1135.5999755859375</ele>
        <time>2022-05-03T12:44:31.000Z</time>
      </trkpt>
      <trkpt lat="40.8126742579042911529541015625" lon="-1.833238899707794189453125">
        <ele>1135.800048828125</ele>
        <time>2022-05-03T12:44:33.000Z</time>
      </trkpt>
      <trkpt lat="40.81266260705888271331787109375" lon="-1.83333017863333225250244140625">
        <ele>1135.800048828125</ele>
        <time>2022-05-03T12:44:35.000Z</time>
      </trkpt>
      <trkpt lat="40.81265137530863285064697265625" lon="-1.8334214575588703155517578125">
        <ele>1135.5999755859375</ele>
        <time>2022-05-03T12:44:37.000Z</time>
      </trkpt>
      <trkpt lat="40.81264735199511051177978515625" lon="-1.833467893302440643310546875">
        <ele>1135.5999755859375</ele>
        <time>2022-05-03T12:44:38.000Z</time>
      </trkpt>
      <trkpt lat="40.81264450214803218841552734375" lon="-1.8335133232176303863525390625">
        <ele>1135.5999755859375</ele>
        <time>2022-05-03T12:44:39.000Z</time>
      </trkpt>
      <trkpt lat="40.81263746134936809539794921875" lon="-1.83359630405902862548828125">
        <ele>1135.5999755859375</ele>
        <time>2022-05-03T12:44:41.000Z</time>
      </trkpt>
      <trkpt lat="40.8126326836645603179931640625" lon="-1.83368188329041004180908203125">
        <ele>1135.5999755859375</ele>
        <time>2022-05-03T12:44:43.000Z</time>
      </trkpt>
      <trkpt lat="40.8126293309032917022705078125" lon="-1.83377064764499664306640625">
        <ele>1135.5999755859375</ele>
        <time>2022-05-03T12:44:45.000Z</time>
      </trkpt>
      <trkpt lat="40.8126239664852619171142578125" lon="-1.83386276476085186004638671875">
        <ele>1135.5999755859375</ele>
        <time>2022-05-03T12:44:47.000Z</time>
      </trkpt>
      <trkpt lat="40.81262036226689815521240234375" lon="-1.833960749208927154541015625">
        <ele>1135.5999755859375</ele>
        <time>2022-05-03T12:44:49.000Z</time>
      </trkpt>
      <trkpt lat="40.81262069754302501678466796875" lon="-1.834062002599239349365234375">
        <ele>1135.5999755859375</ele>
        <time>2022-05-03T12:44:51.000Z</time>
      </trkpt>
      <trkpt lat="40.812622793018817901611328125" lon="-1.83416535146534442901611328125">
        <ele>1135.4000244140625</ele>
        <time>2022-05-03T12:44:53.000Z</time>
      </trkpt>
      <trkpt lat="40.81262505613267421722412109375" lon="-1.834269873797893524169921875">
        <ele>1135.199951171875</ele>
        <time>2022-05-03T12:44:55.000Z</time>
      </trkpt>
      <trkpt lat="40.8126269839704036712646484375" lon="-1.83437422849237918853759765625">
        <ele>1135.199951171875</ele>
        <time>2022-05-03T12:44:57.000Z</time>
      </trkpt>
      <trkpt lat="40.8126300014555454254150390625" lon="-1.83447715826332569122314453125">
        <ele>1135</ele>
        <time>2022-05-03T12:44:59.000Z</time>
      </trkpt>
      <trkpt lat="40.81263058818876743316650390625" lon="-1.8345788307487964630126953125">
        <ele>1135.199951171875</ele>
        <time>2022-05-03T12:45:01.000Z</time>
      </trkpt>
      <trkpt lat="40.81263058818876743316650390625" lon="-1.834679581224918365478515625">
        <ele>1135.4000244140625</ele>
        <time>2022-05-03T12:45:03.000Z</time>
      </trkpt>
      <trkpt lat="40.81263008527457714080810546875" lon="-1.8347816728055477142333984375">
        <ele>1135.800048828125</ele>
        <time>2022-05-03T12:45:05.000Z</time>
      </trkpt>
      <trkpt lat="40.812630839645862579345703125" lon="-1.8348329700529575347900390625">
        <ele>1135.800048828125</ele>
        <time>2022-05-03T12:45:06.000Z</time>
      </trkpt>
      <trkpt lat="40.812629163265228271484375" lon="-1.83488502167165279388427734375">
        <ele>1136</ele>
        <time>2022-05-03T12:45:07.000Z</time>
      </trkpt>
      <trkpt lat="40.812623798847198486328125" lon="-1.834987699985504150390625">
        <ele>1136</ele>
        <time>2022-05-03T12:45:09.000Z</time>
      </trkpt>
      <trkpt lat="40.81262036226689815521240234375" lon="-1.8350881151854991912841796875">
        <ele>1136</ele>
        <time>2022-05-03T12:45:11.000Z</time>
      </trkpt>
      <trkpt lat="40.81261835061013698577880859375" lon="-1.8351863510906696319580078125">
        <ele>1136</ele>
        <time>2022-05-03T12:45:13.000Z</time>
      </trkpt>
      <trkpt lat="40.81261776387691497802734375" lon="-1.83528332971036434173583984375">
        <ele>1136</ele>
        <time>2022-05-03T12:45:15.000Z</time>
      </trkpt>
      <trkpt lat="40.81262019462883472442626953125" lon="-1.8353787995874881744384765625">
        <ele>1136</ele>
        <time>2022-05-03T12:45:17.000Z</time>
      </trkpt>
      <trkpt lat="40.8126243017613887786865234375" lon="-1.835425235331058502197265625">
        <ele>1136</ele>
        <time>2022-05-03T12:45:18.000Z</time>
      </trkpt>
      <trkpt lat="40.81262656487524509429931640625" lon="-1.835467815399169921875">
        <ele>1136</ele>
        <time>2022-05-03T12:45:19.000Z</time>
      </trkpt>
      <trkpt lat="40.81263042055070400238037109375" lon="-1.8355336971580982208251953125">
        <ele>1136</ele>
        <time>2022-05-03T12:45:21.000Z</time>
      </trkpt>
      <trkpt lat="40.81263159401714801788330078125" lon="-1.83560066856443881988525390625">
        <ele>1136</ele>
        <time>2022-05-03T12:45:23.000Z</time>
      </trkpt>
      <trkpt lat="40.81263209693133831024169921875" lon="-1.83568281121551990509033203125">
        <ele>1136</ele>
        <time>2022-05-03T12:45:25.000Z</time>
      </trkpt>
      <trkpt lat="40.812631510198116302490234375" lon="-1.8357730843126773834228515625">
        <ele>1136</ele>
        <time>2022-05-03T12:45:27.000Z</time>
      </trkpt>
      <trkpt lat="40.81262807361781597137451171875" lon="-1.83586905710399150848388671875">
        <ele>1136.199951171875</ele>
        <time>2022-05-03T12:45:29.000Z</time>
      </trkpt>
      <trkpt lat="40.812624804675579071044921875" lon="-1.83596737682819366455078125">
        <ele>1136.199951171875</ele>
        <time>2022-05-03T12:45:31.000Z</time>
      </trkpt>
      <trkpt lat="40.8126189373433589935302734375" lon="-1.8360654450953006744384765625">
        <ele>1136.4000244140625</ele>
        <time>2022-05-03T12:45:33.000Z</time>
      </trkpt>
      <trkpt lat="40.81260971724987030029296875" lon="-1.83615957386791706085205078125">
        <ele>1136.5999755859375</ele>
        <time>2022-05-03T12:45:35.000Z</time>
      </trkpt>
      <trkpt lat="40.8126045204699039459228515625" lon="-1.83620131574571132659912109375">
        <ele>1136.5999755859375</ele>
        <time>2022-05-03T12:45:36.000Z</time>
      </trkpt>
      <trkpt lat="40.8125991560518741607666015625" lon="-1.83623693883419036865234375">
        <ele>1136.800048828125</ele>
        <time>2022-05-03T12:45:37.000Z</time>
      </trkpt>
      <trkpt lat="40.81259404309093952178955078125" lon="-1.8362686224281787872314453125">
        <ele>1136.800048828125</ele>
        <time>2022-05-03T12:45:38.000Z</time>
      </trkpt>
      <trkpt lat="40.81258901394903659820556640625" lon="-1.83629938401281833648681640625">
        <ele>1137</ele>
        <time>2022-05-03T12:45:39.000Z</time>
      </trkpt>
      <trkpt lat="40.81257618963718414306640625" lon="-1.8363718874752521514892578125">
        <ele>1137.199951171875</ele>
        <time>2022-05-03T12:45:41.000Z</time>
      </trkpt>
      <trkpt lat="40.81256437115371227264404296875" lon="-1.83645210228860378265380859375">
        <ele>1137.4000244140625</ele>
        <time>2022-05-03T12:45:43.000Z</time>
      </trkpt>
      <trkpt lat="40.8125565759837627410888671875" lon="-1.8365381844341754913330078125">
        <ele>1137.800048828125</ele>
        <time>2022-05-03T12:45:45.000Z</time>
      </trkpt>
      <trkpt lat="40.81255967728793621063232421875" lon="-1.83663013391196727752685546875">
        <ele>1137.800048828125</ele>
        <time>2022-05-03T12:45:47.000Z</time>
      </trkpt>
      <trkpt lat="40.8125716634094715118408203125" lon="-1.83672107756137847900390625">
        <ele>1137.800048828125</ele>
        <time>2022-05-03T12:45:49.000Z</time>
      </trkpt>
      <trkpt lat="40.8125911094248294830322265625" lon="-1.836810596287250518798828125">
        <ele>1137.800048828125</ele>
        <time>2022-05-03T12:45:51.000Z</time>
      </trkpt>
      <trkpt lat="40.81260125152766704559326171875" lon="-1.83685652911663055419921875">
        <ele>1138</ele>
        <time>2022-05-03T12:45:52.000Z</time>
      </trkpt>
      <trkpt lat="40.81261097453534603118896484375" lon="-1.83690237812697887420654296875">
        <ele>1138</ele>
        <time>2022-05-03T12:45:53.000Z</time>
      </trkpt>
      <trkpt lat="40.812626145780086517333984375" lon="-1.83699256740510463714599609375">
        <ele>1138</ele>
        <time>2022-05-03T12:45:55.000Z</time>
      </trkpt>
      <trkpt lat="40.8126437477767467498779296875" lon="-1.83707487769424915313720703125">
        <ele>1137.5999755859375</ele>
        <time>2022-05-03T12:45:57.000Z</time>
      </trkpt>
      <trkpt lat="40.81265707500278949737548828125" lon="-1.837154924869537353515625">
        <ele>1137.4000244140625</ele>
        <time>2022-05-03T12:45:59.000Z</time>
      </trkpt>
      <trkpt lat="40.8126625232398509979248046875" lon="-1.8371966667473316192626953125">
        <ele>1137.199951171875</ele>
        <time>2022-05-03T12:46:00.000Z</time>
      </trkpt>
      <trkpt lat="40.81267006695270538330078125" lon="-1.8372379057109355926513671875">
        <ele>1137</ele>
        <time>2022-05-03T12:46:01.000Z</time>
      </trkpt>
      <trkpt lat="40.81268121488392353057861328125" lon="-1.8373198807239532470703125">
        <ele>1136.5999755859375</ele>
        <time>2022-05-03T12:46:03.000Z</time>
      </trkpt>
      <trkpt lat="40.8126900158822536468505859375" lon="-1.83740277774631977081298828125">
        <ele>1136.4000244140625</ele>
        <time>2022-05-03T12:46:05.000Z</time>
      </trkpt>
      <trkpt lat="40.81270091235637664794921875" lon="-1.837484836578369140625">
        <ele>1136.199951171875</ele>
        <time>2022-05-03T12:46:07.000Z</time>
      </trkpt>
      <trkpt lat="40.81270418129861354827880859375" lon="-1.8375249020755290985107421875">
        <ele>1136</ele>
        <time>2022-05-03T12:46:08.000Z</time>
      </trkpt>
      <trkpt lat="40.81270652823150157928466796875" lon="-1.8375661410391330718994140625">
        <ele>1136</ele>
        <time>2022-05-03T12:46:09.000Z</time>
      </trkpt>
      <trkpt lat="40.81270988099277019500732421875" lon="-1.8376497924327850341796875">
        <ele>1135.800048828125</ele>
        <time>2022-05-03T12:46:11.000Z</time>
      </trkpt>
      <trkpt lat="40.8127077855169773101806640625" lon="-1.8377237208187580108642578125">
        <ele>1135.5999755859375</ele>
        <time>2022-05-03T12:46:13.000Z</time>
      </trkpt>
      <trkpt lat="40.8127056062221527099609375" lon="-1.83779370971024036407470703125">
        <ele>1135.5999755859375</ele>
        <time>2022-05-03T12:46:15.000Z</time>
      </trkpt>
      <trkpt lat="40.812703929841518402099609375" lon="-1.83782882988452911376953125">
        <ele>1135.5999755859375</ele>
        <time>2022-05-03T12:46:16.000Z</time>
      </trkpt>
      <trkpt lat="40.8127029240131378173828125" lon="-1.837864704430103302001953125">
        <ele>1135.5999755859375</ele>
        <time>2022-05-03T12:46:17.000Z</time>
      </trkpt>
      <trkpt lat="40.8127051033079624176025390625" lon="-1.8379409797489643096923828125">
        <ele>1135.5999755859375</ele>
        <time>2022-05-03T12:46:19.000Z</time>
      </trkpt>
      <trkpt lat="40.8127111382782459259033203125" lon="-1.8380199372768402099609375">
        <ele>1135.5999755859375</ele>
        <time>2022-05-03T12:46:21.000Z</time>
      </trkpt>
      <trkpt lat="40.81272371113300323486328125" lon="-1.83809570968151092529296875">
        <ele>1135.5999755859375</ele>
        <time>2022-05-03T12:46:23.000Z</time>
      </trkpt>
      <trkpt lat="40.8127352781593799591064453125" lon="-1.83815983124077320098876953125">
        <ele>1135.5999755859375</ele>
        <time>2022-05-03T12:46:25.000Z</time>
      </trkpt>
      <trkpt lat="40.81274785101413726806640625" lon="-1.83822671882808208465576171875">
        <ele>1135.5999755859375</ele>
        <time>2022-05-03T12:46:27.000Z</time>
      </trkpt>
      <trkpt lat="40.8127605915069580078125" lon="-1.8382980488240718841552734375">
        <ele>1135.5999755859375</ele>
        <time>2022-05-03T12:46:29.000Z</time>
      </trkpt>
      <trkpt lat="40.81277525983750820159912109375" lon="-1.8383708037436008453369140625">
        <ele>1135.4000244140625</ele>
        <time>2022-05-03T12:46:31.000Z</time>
      </trkpt>
      <trkpt lat="40.8127852343022823333740234375" lon="-1.83843660168349742889404296875">
        <ele>1135.4000244140625</ele>
        <time>2022-05-03T12:46:33.000Z</time>
      </trkpt>
      <trkpt lat="40.81280241720378398895263671875" lon="-1.8384982086718082427978515625">
        <ele>1135.4000244140625</ele>
        <time>2022-05-03T12:46:35.000Z</time>
      </trkpt>
      <trkpt lat="40.812813229858875274658203125" lon="-1.83853215537965297698974609375">
        <ele>1135.4000244140625</ele>
        <time>2022-05-03T12:46:36.000Z</time>
      </trkpt>
      <trkpt lat="40.81282320432364940643310546875" lon="-1.83856819756329059600830078125">
        <ele>1135.4000244140625</ele>
        <time>2022-05-03T12:46:37.000Z</time>
      </trkpt>
      <trkpt lat="40.81284013576805591583251953125" lon="-1.83864346705377101898193359375">
        <ele>1135.4000244140625</ele>
        <time>2022-05-03T12:46:39.000Z</time>
      </trkpt>
      <trkpt lat="40.8128623478114604949951171875" lon="-1.8387161381542682647705078125">
        <ele>1135.5999755859375</ele>
        <time>2022-05-03T12:46:41.000Z</time>
      </trkpt>
      <trkpt lat="40.8128734119236469268798828125" lon="-1.83875511400401592254638671875">
        <ele>1135.5999755859375</ele>
        <time>2022-05-03T12:46:42.000Z</time>
      </trkpt>
      <trkpt lat="40.812884308397769927978515625" lon="-1.8387945927679538726806640625">
        <ele>1135.5999755859375</ele>
        <time>2022-05-03T12:46:43.000Z</time>
      </trkpt>
      <trkpt lat="40.81290920265018939971923828125" lon="-1.83886977843940258026123046875">
        <ele>1135.5999755859375</ele>
        <time>2022-05-03T12:46:45.000Z</time>
      </trkpt>
      <trkpt lat="40.81293636001646518707275390625" lon="-1.8389431200921535491943359375">
        <ele>1135.800048828125</ele>
        <time>2022-05-03T12:46:47.000Z</time>
      </trkpt>
      <trkpt lat="40.81296443939208984375" lon="-1.83901428245007991790771484375">
        <ele>1135.800048828125</ele>
        <time>2022-05-03T12:46:49.000Z</time>
      </trkpt>
      <trkpt lat="40.81299570389091968536376953125" lon="-1.83908418752253055572509765625">
        <ele>1135.800048828125</ele>
        <time>2022-05-03T12:46:51.000Z</time>
      </trkpt>
      <trkpt lat="40.81302889622747898101806640625" lon="-1.8391546793282032012939453125">
        <ele>1135.800048828125</ele>
        <time>2022-05-03T12:46:53.000Z</time>
      </trkpt>
      <trkpt lat="40.81305571831762790679931640625" lon="-1.839225925505161285400390625">
        <ele>1136</ele>
        <time>2022-05-03T12:46:55.000Z</time>
      </trkpt>
      <trkpt lat="40.8130822889506816864013671875" lon="-1.83929977007210254669189453125">
        <ele>1136</ele>
        <time>2022-05-03T12:46:57.000Z</time>
      </trkpt>
      <trkpt lat="40.81310953013598918914794921875" lon="-1.83937520720064640045166015625">
        <ele>1136</ele>
        <time>2022-05-03T12:46:59.000Z</time>
      </trkpt>
      <trkpt lat="40.8131366036832332611083984375" lon="-1.8394497223198413848876953125">
        <ele>1135.800048828125</ele>
        <time>2022-05-03T12:47:01.000Z</time>
      </trkpt>
      <trkpt lat="40.813163258135318756103515625" lon="-1.839523650705814361572265625">
        <ele>1135.800048828125</ele>
        <time>2022-05-03T12:47:03.000Z</time>
      </trkpt>
      <trkpt lat="40.81317608244717121124267578125" lon="-1.839561872184276580810546875">
        <ele>1135.800048828125</ele>
        <time>2022-05-03T12:47:04.000Z</time>
      </trkpt>
      <trkpt lat="40.81318915821611881256103515625" lon="-1.8396005965769290924072265625">
        <ele>1135.800048828125</ele>
        <time>2022-05-03T12:47:05.000Z</time>
      </trkpt>
      <trkpt lat="40.81321656703948974609375" lon="-1.83968349359929561614990234375">
        <ele>1135.800048828125</ele>
        <time>2022-05-03T12:47:07.000Z</time>
      </trkpt>
      <trkpt lat="40.8132447302341461181640625" lon="-1.83976563625037670135498046875">
        <ele>1136</ele>
        <time>2022-05-03T12:47:09.000Z</time>
      </trkpt>
      <trkpt lat="40.81327884458005428314208984375" lon="-1.8398436717689037322998046875">
        <ele>1136.199951171875</ele>
        <time>2022-05-03T12:47:11.000Z</time>
      </trkpt>
      <trkpt lat="40.813317485153675079345703125" lon="-1.83992003090679645538330078125">
        <ele>1136.4000244140625</ele>
        <time>2022-05-03T12:47:13.000Z</time>
      </trkpt>
      <trkpt lat="40.813357047736644744873046875" lon="-1.83999865315854549407958984375">
        <ele>1136.4000244140625</ele>
        <time>2022-05-03T12:47:15.000Z</time>
      </trkpt>
      <trkpt lat="40.8133766613900661468505859375" lon="-1.8400391377508640289306640625">
        <ele>1136.4000244140625</ele>
        <time>2022-05-03T12:47:16.000Z</time>
      </trkpt>
      <trkpt lat="40.81339686177670955657958984375" lon="-1.8400807119905948638916015625">
        <ele>1136.4000244140625</ele>
        <time>2022-05-03T12:47:17.000Z</time>
      </trkpt>
      <trkpt lat="40.81344061531126499176025390625" lon="-1.8401665426790714263916015625">
        <ele>1136.4000244140625</ele>
        <time>2022-05-03T12:47:19.000Z</time>
      </trkpt>
      <trkpt lat="40.8134819380939006805419921875" lon="-1.8402523733675479888916015625">
        <ele>1136.5999755859375</ele>
        <time>2022-05-03T12:47:21.000Z</time>
      </trkpt>
      <trkpt lat="40.81351018510758876800537109375" lon="-1.84033124707639217376708984375">
        <ele>1136.4000244140625</ele>
        <time>2022-05-03T12:47:23.000Z</time>
      </trkpt>
      <trkpt lat="40.81351404078304767608642578125" lon="-1.8403700552880764007568359375">
        <ele>1136.199951171875</ele>
        <time>2022-05-03T12:47:24.000Z</time>
      </trkpt>
      <trkpt lat="40.81351672299206256866455078125" lon="-1.8404097855091094970703125">
        <ele>1136</ele>
        <time>2022-05-03T12:47:25.000Z</time>
      </trkpt>
      <trkpt lat="40.8135129511356353759765625" lon="-1.8404887430369853973388671875">
        <ele>1135.800048828125</ele>
        <time>2022-05-03T12:47:27.000Z</time>
      </trkpt>
      <trkpt lat="40.81349995918571949005126953125" lon="-1.84057407081127166748046875">
        <ele>1135.4000244140625</ele>
        <time>2022-05-03T12:47:29.000Z</time>
      </trkpt>
      <trkpt lat="40.81349576823413372039794921875" lon="-1.84062008745968341827392578125">
        <ele>1135.4000244140625</ele>
        <time>2022-05-03T12:47:30.000Z</time>
      </trkpt>
      <trkpt lat="40.81349476240575313568115234375" lon="-1.8406667746603488922119140625">
        <ele>1135.199951171875</ele>
        <time>2022-05-03T12:47:31.000Z</time>
      </trkpt>
      <trkpt lat="40.81350750289857387542724609375" lon="-1.8407633341848850250244140625">
        <ele>1134.5999755859375</ele>
        <time>2022-05-03T12:47:33.000Z</time>
      </trkpt>
      <trkpt lat="40.8135263621807098388671875" lon="-1.84086106717586517333984375">
        <ele>1134</ele>
        <time>2022-05-03T12:47:35.000Z</time>
      </trkpt>
      <trkpt lat="40.813538096845149993896484375" lon="-1.84091261588037014007568359375">
        <ele>1133.5999755859375</ele>
        <time>2022-05-03T12:47:36.000Z</time>
      </trkpt>
      <trkpt lat="40.81355159170925617218017578125" lon="-1.8409665115177631378173828125">
        <ele>1133.4000244140625</ele>
        <time>2022-05-03T12:47:37.000Z</time>
      </trkpt>
      <trkpt lat="40.81358562223613262176513671875" lon="-1.8410717882215976715087890625">
        <ele>1132.5999755859375</ele>
        <time>2022-05-03T12:47:39.000Z</time>
      </trkpt>
      <trkpt lat="40.81361931748688220977783203125" lon="-1.84117664583027362823486328125">
        <ele>1131.4000244140625</ele>
        <time>2022-05-03T12:47:41.000Z</time>
      </trkpt>
      <trkpt lat="40.81365133635699748992919921875" lon="-1.8412836827337741851806640625">
        <ele>1130.4000244140625</ele>
        <time>2022-05-03T12:47:43.000Z</time>
      </trkpt>
      <trkpt lat="40.81368704326450824737548828125" lon="-1.841391138732433319091796875">
        <ele>1129.4000244140625</ele>
        <time>2022-05-03T12:47:45.000Z</time>
      </trkpt>
      <trkpt lat="40.81372560001909732818603515625" lon="-1.84150739572942256927490234375">
        <ele>1128.199951171875</ele>
        <time>2022-05-03T12:47:47.000Z</time>
      </trkpt>
      <trkpt lat="40.81374538131058216094970703125" lon="-1.84156958945095539093017578125">
        <ele>1127.5999755859375</ele>
        <time>2022-05-03T12:47:48.000Z</time>
      </trkpt>
      <trkpt lat="40.813765414059162139892578125" lon="-1.84163195081055164337158203125">
        <ele>1127.4000244140625</ele>
        <time>2022-05-03T12:47:49.000Z</time>
      </trkpt>
      <trkpt lat="40.81378594972193241119384765625" lon="-1.84169498272240161895751953125">
        <ele>1127</ele>
        <time>2022-05-03T12:47:50.000Z</time>
      </trkpt>
      <trkpt lat="40.81380941905081272125244140625" lon="-1.8417580984532833099365234375">
        <ele>1126.5999755859375</ele>
        <time>2022-05-03T12:47:51.000Z</time>
      </trkpt>
      <trkpt lat="40.81385719589889049530029296875" lon="-1.84187251143157482147216796875">
        <ele>1126</ele>
        <time>2022-05-03T12:47:53.000Z</time>
      </trkpt>
      <trkpt lat="40.8138991892337799072265625" lon="-1.8419834040105342864990234375">
        <ele>1125.4000244140625</ele>
        <time>2022-05-03T12:47:55.000Z</time>
      </trkpt>
      <trkpt lat="40.8139191381633281707763671875" lon="-1.84203914366662502288818359375">
        <ele>1125.199951171875</ele>
        <time>2022-05-03T12:47:56.000Z</time>
      </trkpt>
      <trkpt lat="40.813939757645130157470703125" lon="-1.84209412895143032073974609375">
        <ele>1125</ele>
        <time>2022-05-03T12:47:57.000Z</time>
      </trkpt>
      <trkpt lat="40.81398610956966876983642578125" lon="-1.842200495302677154541015625">
        <ele>1124.5999755859375</ele>
        <time>2022-05-03T12:47:59.000Z</time>
      </trkpt>
      <trkpt lat="40.8140341378748416900634765625" lon="-1.84230401180684566497802734375">
        <ele>1124.4000244140625</ele>
        <time>2022-05-03T12:48:01.000Z</time>
      </trkpt>
      <trkpt lat="40.81408300437033176422119140625" lon="-1.84240627102553844451904296875">
        <ele>1124.4000244140625</ele>
        <time>2022-05-03T12:48:03.000Z</time>
      </trkpt>
      <trkpt lat="40.814106725156307220458984375" lon="-1.84245170094072818756103515625">
        <ele>1124.199951171875</ele>
        <time>2022-05-03T12:48:04.000Z</time>
      </trkpt>
      <trkpt lat="40.8141298592090606689453125" lon="-1.8424953706562519073486328125">
        <ele>1124</ele>
        <time>2022-05-03T12:48:05.000Z</time>
      </trkpt>
      <trkpt lat="40.814177803695201873779296875" lon="-1.84257994405925273895263671875">
        <ele>1123.5999755859375</ele>
        <time>2022-05-03T12:48:07.000Z</time>
      </trkpt>
      <trkpt lat="40.8142178691923618316650390625" lon="-1.84267382137477397918701171875">
        <ele>1123</ele>
        <time>2022-05-03T12:48:09.000Z</time>
      </trkpt>
      <trkpt lat="40.81424209289252758026123046875" lon="-1.842792928218841552734375">
        <ele>1122.4000244140625</ele>
        <time>2022-05-03T12:48:11.000Z</time>
      </trkpt>
      <trkpt lat="40.8142426796257495880126953125" lon="-1.84292326681315898895263671875">
        <ele>1121.800048828125</ele>
        <time>2022-05-03T12:48:13.000Z</time>
      </trkpt>
      <trkpt lat="40.81423136405646800994873046875" lon="-1.84298981912434101104736328125">
        <ele>1121.4000244140625</ele>
        <time>2022-05-03T12:48:14.000Z</time>
      </trkpt>
      <trkpt lat="40.81421367824077606201171875" lon="-1.84305653907358646392822265625">
        <ele>1121.199951171875</ele>
        <time>2022-05-03T12:48:15.000Z</time>
      </trkpt>
      <trkpt lat="40.81419213674962520599365234375" lon="-1.8431240133941173553466796875">
        <ele>1120.800048828125</ele>
        <time>2022-05-03T12:48:16.000Z</time>
      </trkpt>
      <trkpt lat="40.81416950561106204986572265625" lon="-1.84319282881915569305419921875">
        <ele>1120.4000244140625</ele>
        <time>2022-05-03T12:48:17.000Z</time>
      </trkpt>
      <trkpt lat="40.81414871849119663238525390625" lon="-1.8432636559009552001953125">
        <ele>1120</ele>
        <time>2022-05-03T12:48:18.000Z</time>
      </trkpt>
      <trkpt lat="40.814132876694202423095703125" lon="-1.84333682991564273834228515625">
        <ele>1119.4000244140625</ele>
        <time>2022-05-03T12:48:19.000Z</time>
      </trkpt>
      <trkpt lat="40.81411485560238361358642578125" lon="-1.84348787181079387664794921875">
        <ele>1118.199951171875</ele>
        <time>2022-05-03T12:48:21.000Z</time>
      </trkpt>
      <trkpt lat="40.81410865299403667449951171875" lon="-1.843639500439167022705078125">
        <ele>1117</ele>
        <time>2022-05-03T12:48:23.000Z</time>
      </trkpt>
      <trkpt lat="40.8141065575182437896728515625" lon="-1.8437724374234676361083984375">
        <ele>1116.199951171875</ele>
        <time>2022-05-03T12:48:25.000Z</time>
      </trkpt>
      <trkpt lat="40.814101696014404296875" lon="-1.84388517402112483978271484375">
        <ele>1115.4000244140625</ele>
        <time>2022-05-03T12:48:27.000Z</time>
      </trkpt>
      <trkpt lat="40.81409524194896221160888671875" lon="-1.84398139826953411102294921875">
        <ele>1115</ele>
        <time>2022-05-03T12:48:29.000Z</time>
      </trkpt>
      <trkpt lat="40.814085267484188079833984375" lon="-1.8440644629299640655517578125">
        <ele>1114.5999755859375</ele>
        <time>2022-05-03T12:48:31.000Z</time>
      </trkpt>
      <trkpt lat="40.81408702768385410308837890625" lon="-1.84410997666418552398681640625">
        <ele>1114.4000244140625</ele>
        <time>2022-05-03T12:48:32.000Z</time>
      </trkpt>
      <trkpt lat="40.8140911348164081573486328125" lon="-1.84415792115032672882080078125">
        <ele>1114.199951171875</ele>
        <time>2022-05-03T12:48:33.000Z</time>
      </trkpt>
      <trkpt lat="40.814098007977008819580078125" lon="-1.8442076258361339569091796875">
        <ele>1113.800048828125</ele>
        <time>2022-05-03T12:48:34.000Z</time>
      </trkpt>
      <trkpt lat="40.8141045458614826202392578125" lon="-1.84425766579806804656982421875">
        <ele>1113.5999755859375</ele>
        <time>2022-05-03T12:48:35.000Z</time>
      </trkpt>
      <trkpt lat="40.81411653198301792144775390625" lon="-1.84435338713228702545166015625">
        <ele>1113.199951171875</ele>
        <time>2022-05-03T12:48:37.000Z</time>
      </trkpt>
      <trkpt lat="40.81412608735263347625732421875" lon="-1.84444055892527103424072265625">
        <ele>1112.800048828125</ele>
        <time>2022-05-03T12:48:39.000Z</time>
      </trkpt>
      <trkpt lat="40.81413346342742443084716796875" lon="-1.84452270157635211944580078125">
        <ele>1112.199951171875</ele>
        <time>2022-05-03T12:48:41.000Z</time>
      </trkpt>
      <trkpt lat="40.81413547508418560028076171875" lon="-1.84456377290189266204833984375">
        <ele>1112</ele>
        <time>2022-05-03T12:48:42.000Z</time>
      </trkpt>
      <trkpt lat="40.8141343854367733001708984375" lon="-1.844605766236782073974609375">
        <ele>1111.800048828125</ele>
        <time>2022-05-03T12:48:43.000Z</time>
      </trkpt>
      <trkpt lat="40.8141249977052211761474609375" lon="-1.84469352476298809051513671875">
        <ele>1111.199951171875</ele>
        <time>2022-05-03T12:48:45.000Z</time>
      </trkpt>
      <trkpt lat="40.81411443650722503662109375" lon="-1.84474448673427104949951171875">
        <ele>1110.800048828125</ele>
        <time>2022-05-03T12:48:46.000Z</time>
      </trkpt>
      <trkpt lat="40.81410379149019718170166015625" lon="-1.84479846619069576263427734375">
        <ele>1110.4000244140625</ele>
        <time>2022-05-03T12:48:47.000Z</time>
      </trkpt>
      <trkpt lat="40.8140961639583110809326171875" lon="-1.8448483385145664215087890625">
        <ele>1110</ele>
        <time>2022-05-03T12:48:48.000Z</time>
      </trkpt>
      <trkpt lat="40.814095325767993927001953125" lon="-1.84489184059202671051025390625">
        <ele>1109.800048828125</ele>
        <time>2022-05-03T12:48:49.000Z</time>
      </trkpt>
      <trkpt lat="40.81409608013927936553955078125" lon="-1.8449775874614715576171875">
        <ele>1109.199951171875</ele>
        <time>2022-05-03T12:48:51.000Z</time>
      </trkpt>
      <trkpt lat="40.81409473903477191925048828125" lon="-1.84502427466213703155517578125">
        <ele>1109</ele>
        <time>2022-05-03T12:48:52.000Z</time>
      </trkpt>
      <trkpt lat="40.81409306265413761138916015625" lon="-1.84506987221539020538330078125">
        <ele>1108.5999755859375</ele>
        <time>2022-05-03T12:48:53.000Z</time>
      </trkpt>
      <trkpt lat="40.81408970989286899566650390625" lon="-1.84511580504477024078369140625">
        <ele>1108.4000244140625</ele>
        <time>2022-05-03T12:48:54.000Z</time>
      </trkpt>
      <trkpt lat="40.81408618949353694915771484375" lon="-1.8451671861112117767333984375">
        <ele>1108</ele>
        <time>2022-05-03T12:48:55.000Z</time>
      </trkpt>
      <trkpt lat="40.81408401019871234893798828125" lon="-1.8452892266213893890380859375">
        <ele>1107.199951171875</ele>
        <time>2022-05-03T12:48:57.000Z</time>
      </trkpt>
      <trkpt lat="40.81408417783677577972412109375" lon="-1.8454209901392459869384765625">
        <ele>1106.4000244140625</ele>
        <time>2022-05-03T12:48:59.000Z</time>
      </trkpt>
      <trkpt lat="40.81408954225480556488037109375" lon="-1.84554864652454853057861328125">
        <ele>1105.800048828125</ele>
        <time>2022-05-03T12:49:01.000Z</time>
      </trkpt>
      <trkpt lat="40.8140928111970424652099609375" lon="-1.8456861935555934906005859375">
        <ele>1105.199951171875</ele>
        <time>2022-05-03T12:49:03.000Z</time>
      </trkpt>
      <trkpt lat="40.8140918053686618804931640625" lon="-1.8457554280757904052734375">
        <ele>1104.800048828125</ele>
        <time>2022-05-03T12:49:04.000Z</time>
      </trkpt>
      <trkpt lat="40.81409054808318614959716796875" lon="-1.845823489129543304443359375">
        <ele>1104.4000244140625</ele>
        <time>2022-05-03T12:49:05.000Z</time>
      </trkpt>
      <trkpt lat="40.8140934817492961883544921875" lon="-1.84595282189548015594482421875">
        <ele>1103.5999755859375</ele>
        <time>2022-05-03T12:49:07.000Z</time>
      </trkpt>
      <trkpt lat="40.81410462968051433563232421875" lon="-1.84608332812786102294921875">
        <ele>1103</ele>
        <time>2022-05-03T12:49:09.000Z</time>
      </trkpt>
      <trkpt lat="40.8141099102795124053955078125" lon="-1.8462166003882884979248046875">
        <ele>1102.199951171875</ele>
        <time>2022-05-03T12:49:11.000Z</time>
      </trkpt>
      <trkpt lat="40.81410328857600688934326171875" lon="-1.84627887792885303497314453125">
        <ele>1101.800048828125</ele>
        <time>2022-05-03T12:49:12.000Z</time>
      </trkpt>
      <trkpt lat="40.8140931464731693267822265625" lon="-1.84633654542267322540283203125">
        <ele>1101.4000244140625</ele>
        <time>2022-05-03T12:49:13.000Z</time>
      </trkpt>
      <trkpt lat="40.8140790648758411407470703125" lon="-1.84644970111548900604248046875">
        <ele>1099.800048828125</ele>
        <time>2022-05-03T12:49:15.000Z</time>
      </trkpt>
      <trkpt lat="40.814078561961650848388671875" lon="-1.84650535695254802703857421875">
        <ele>1099</ele>
        <time>2022-05-03T12:49:16.000Z</time>
      </trkpt>
      <trkpt lat="40.814081244170665740966796875" lon="-1.84655548073351383209228515625">
        <ele>1098.199951171875</ele>
        <time>2022-05-03T12:49:17.000Z</time>
      </trkpt>
      <trkpt lat="40.81408585421741008758544921875" lon="-1.84660510160028934478759765625">
        <ele>1098.199951171875</ele>
        <time>2022-05-03T12:49:18.000Z</time>
      </trkpt>
      <trkpt lat="40.81409121863543987274169921875" lon="-1.846655309200286865234375">
        <ele>1098</ele>
        <time>2022-05-03T12:49:19.000Z</time>
      </trkpt>
      <trkpt lat="40.8141055516898632049560546875" lon="-1.84676184318959712982177734375">
        <ele>1097.800048828125</ele>
        <time>2022-05-03T12:49:21.000Z</time>
      </trkpt>
      <trkpt lat="40.81411133520305156707763671875" lon="-1.84681766666471958160400390625">
        <ele>1097.5999755859375</ele>
        <time>2022-05-03T12:49:22.000Z</time>
      </trkpt>
      <trkpt lat="40.8141164481639862060546875" lon="-1.84687198139727115631103515625">
        <ele>1097.5999755859375</ele>
        <time>2022-05-03T12:49:23.000Z</time>
      </trkpt>
      <trkpt lat="40.81412424333393573760986328125" lon="-1.846975497901439666748046875">
        <ele>1097.199951171875</ele>
        <time>2022-05-03T12:49:25.000Z</time>
      </trkpt>
      <trkpt lat="40.81412248313426971435546875" lon="-1.8470212630927562713623046875">
        <ele>1097.199951171875</ele>
        <time>2022-05-03T12:49:26.000Z</time>
      </trkpt>
      <trkpt lat="40.81412273459136486053466796875" lon="-1.84706677682697772979736328125">
        <ele>1097</ele>
        <time>2022-05-03T12:49:27.000Z</time>
      </trkpt>
      <trkpt lat="40.8141256682574748992919921875" lon="-1.847167275846004486083984375">
        <ele>1096.5999755859375</ele>
        <time>2022-05-03T12:49:29.000Z</time>
      </trkpt>
      <trkpt lat="40.81413228996098041534423828125" lon="-1.84726827777922153472900390625">
        <ele>1095.5999755859375</ele>
        <time>2022-05-03T12:49:31.000Z</time>
      </trkpt>
      <trkpt lat="40.81413698382675647735595703125" lon="-1.8473176471889019012451171875">
        <ele>1095</ele>
        <time>2022-05-03T12:49:32.000Z</time>
      </trkpt>
      <trkpt lat="40.8141414262354373931884765625" lon="-1.8473635800182819366455078125">
        <ele>1094.4000244140625</ele>
        <time>2022-05-03T12:49:33.000Z</time>
      </trkpt>
      <trkpt lat="40.8141461201012134552001953125" lon="-1.84744748286902904510498046875">
        <ele>1093.5999755859375</ele>
        <time>2022-05-03T12:49:35.000Z</time>
      </trkpt>
      <trkpt lat="40.814146958291530609130859375" lon="-1.84748620726168155670166015625">
        <ele>1093.4000244140625</ele>
        <time>2022-05-03T12:49:36.000Z</time>
      </trkpt>
      <trkpt lat="40.814146287739276885986328125" lon="-1.84752375818789005279541015625">
        <ele>1093</ele>
        <time>2022-05-03T12:49:37.000Z</time>
      </trkpt>
      <trkpt lat="40.81413899548351764678955078125" lon="-1.84760187752544879913330078125">
        <ele>1092.4000244140625</ele>
        <time>2022-05-03T12:49:39.000Z</time>
      </trkpt>
      <trkpt lat="40.81413379870355129241943359375" lon="-1.8476437032222747802734375">
        <ele>1092</ele>
        <time>2022-05-03T12:49:41.000Z</time>
      </trkpt>
      <trkpt lat="40.8141337148845195770263671875" lon="-1.847644709050655364990234375">
        <ele>1092</ele>
        <time>2022-05-03T12:49:43.000Z</time>
      </trkpt>
      <trkpt lat="40.81412625499069690704345703125" lon="-1.84768259525299072265625">
        <ele>1091.800048828125</ele>
        <time>2022-05-03T12:50:47.000Z</time>
      </trkpt>
      <trkpt lat="40.8141206391155719757080078125" lon="-1.8477139435708522796630859375">
        <ele>1091.5999755859375</ele>
        <time>2022-05-03T12:50:48.000Z</time>
      </trkpt>
      <trkpt lat="40.81411183811724185943603515625" lon="-1.84775166213512420654296875">
        <ele>1091.4000244140625</ele>
        <time>2022-05-03T12:50:49.000Z</time>
      </trkpt>
      <trkpt lat="40.81408652476966381072998046875" lon="-1.84784352779388427734375">
        <ele>1090.800048828125</ele>
        <time>2022-05-03T12:50:51.000Z</time>
      </trkpt>
      <trkpt lat="40.81407126970589160919189453125" lon="-1.84789692051708698272705078125">
        <ele>1090.4000244140625</ele>
        <time>2022-05-03T12:50:52.000Z</time>
      </trkpt>
      <trkpt lat="40.8140549249947071075439453125" lon="-1.84795442037284374237060546875">
        <ele>1090</ele>
        <time>2022-05-03T12:50:53.000Z</time>
      </trkpt>
      <trkpt lat="40.81402190029621124267578125" lon="-1.84807511977851390838623046875">
        <ele>1089.199951171875</ele>
        <time>2022-05-03T12:50:55.000Z</time>
      </trkpt>
      <trkpt lat="40.81398828886449337005615234375" lon="-1.848194561898708343505859375">
        <ele>1089.199951171875</ele>
        <time>2022-05-03T12:50:57.000Z</time>
      </trkpt>
      <trkpt lat="40.81395559944212436676025390625" lon="-1.84831132180988788604736328125">
        <ele>1088.800048828125</ele>
        <time>2022-05-03T12:50:59.000Z</time>
      </trkpt>
      <trkpt lat="40.813927017152309417724609375" lon="-1.84841341339051723480224609375">
        <ele>1088.199951171875</ele>
        <time>2022-05-03T12:51:01.000Z</time>
      </trkpt>
      <trkpt lat="40.81389575265347957611083984375" lon="-1.848527155816555023193359375">
        <ele>1087.5999755859375</ele>
        <time>2022-05-03T12:51:03.000Z</time>
      </trkpt>
      <trkpt lat="40.8138638176023960113525390625" lon="-1.8486486934125423431396484375">
        <ele>1086.800048828125</ele>
        <time>2022-05-03T12:51:05.000Z</time>
      </trkpt>
      <trkpt lat="40.81384629942476749420166015625" lon="-1.848709546029567718505859375">
        <ele>1086.5999755859375</ele>
        <time>2022-05-03T12:51:06.000Z</time>
      </trkpt>
      <trkpt lat="40.8138266019523143768310546875" lon="-1.84877718798816204071044921875">
        <ele>1086.199951171875</ele>
        <time>2022-05-03T12:51:07.000Z</time>
      </trkpt>
      <trkpt lat="40.81380438990890979766845703125" lon="-1.84884927235543727874755859375">
        <ele>1085.800048828125</ele>
        <time>2022-05-03T12:51:08.000Z</time>
      </trkpt>
      <trkpt lat="40.81378008238971233367919921875" lon="-1.8489229492843151092529296875">
        <ele>1085.199951171875</ele>
        <time>2022-05-03T12:51:09.000Z</time>
      </trkpt>
      <trkpt lat="40.8137548528611660003662109375" lon="-1.848997212946414947509765625">
        <ele>1084.800048828125</ele>
        <time>2022-05-03T12:51:10.000Z</time>
      </trkpt>
      <trkpt lat="40.8137293718755245208740234375" lon="-1.84907273389399051666259765625">
        <ele>1084.4000244140625</ele>
        <time>2022-05-03T12:51:11.000Z</time>
      </trkpt>
      <trkpt lat="40.81370405852794647216796875" lon="-1.849150098860263824462890625">
        <ele>1084.199951171875</ele>
        <time>2022-05-03T12:51:12.000Z</time>
      </trkpt>
      <trkpt lat="40.81368084065616130828857421875" lon="-1.8492288887500762939453125">
        <ele>1083.800048828125</ele>
        <time>2022-05-03T12:51:13.000Z</time>
      </trkpt>
      <trkpt lat="40.813646055757999420166015625" lon="-1.8493849597871303558349609375">
        <ele>1083.4000244140625</ele>
        <time>2022-05-03T12:51:15.000Z</time>
      </trkpt>
      <trkpt lat="40.8136363327503204345703125" lon="-1.84945863671600818634033203125">
        <ele>1083.199951171875</ele>
        <time>2022-05-03T12:51:16.000Z</time>
      </trkpt>
      <trkpt lat="40.81363029778003692626953125" lon="-1.84952971525490283966064453125">
        <ele>1083</ele>
        <time>2022-05-03T12:51:17.000Z</time>
      </trkpt>
      <trkpt lat="40.81362283788621425628662109375" lon="-1.8496645800769329071044921875">
        <ele>1082.5999755859375</ele>
        <time>2022-05-03T12:51:19.000Z</time>
      </trkpt>
      <trkpt lat="40.81361479125916957855224609375" lon="-1.8497705273330211639404296875">
        <ele>1082.4000244140625</ele>
        <time>2022-05-03T12:51:21.000Z</time>
      </trkpt>
      <trkpt lat="40.813613198697566986083984375" lon="-1.84981587342917919158935546875">
        <ele>1082.199951171875</ele>
        <time>2022-05-03T12:51:22.000Z</time>
      </trkpt>
      <trkpt lat="40.8136113546788692474365234375" lon="-1.84986029751598834991455078125">
        <ele>1082</ele>
        <time>2022-05-03T12:51:23.000Z</time>
      </trkpt>
      <trkpt lat="40.81360749900341033935546875" lon="-1.849942691624164581298828125">
        <ele>1082</ele>
        <time>2022-05-03T12:51:25.000Z</time>
      </trkpt>
      <trkpt lat="40.8136053197085857391357421875" lon="-1.850020475685596466064453125">
        <ele>1082.199951171875</ele>
        <time>2022-05-03T12:51:27.000Z</time>
      </trkpt>
      <trkpt lat="40.81359836272895336151123046875" lon="-1.85010370798408985137939453125">
        <ele>1082.199951171875</ele>
        <time>2022-05-03T12:51:29.000Z</time>
      </trkpt>
      <trkpt lat="40.81358746625483036041259765625" lon="-1.85018769465386867523193359375">
        <ele>1082.199951171875</ele>
        <time>2022-05-03T12:51:31.000Z</time>
      </trkpt>
      <trkpt lat="40.813579671084880828857421875" lon="-1.85026891529560089111328125">
        <ele>1082.4000244140625</ele>
        <time>2022-05-03T12:51:33.000Z</time>
      </trkpt>
      <trkpt lat="40.81356860697269439697265625" lon="-1.8503512255847454071044921875">
        <ele>1082.5999755859375</ele>
        <time>2022-05-03T12:51:35.000Z</time>
      </trkpt>
      <trkpt lat="40.8135546930134296417236328125" lon="-1.85043462552130222320556640625">
        <ele>1082.800048828125</ele>
        <time>2022-05-03T12:51:37.000Z</time>
      </trkpt>
      <trkpt lat="40.813547484576702117919921875" lon="-1.85047670267522335052490234375">
        <ele>1082.800048828125</ele>
        <time>2022-05-03T12:51:38.000Z</time>
      </trkpt>
      <trkpt lat="40.81353918649256229400634765625" lon="-1.85051844455301761627197265625">
        <ele>1082.800048828125</ele>
        <time>2022-05-03T12:51:39.000Z</time>
      </trkpt>
      <trkpt lat="40.81352091394364833831787109375" lon="-1.850600503385066986083984375">
        <ele>1083</ele>
        <time>2022-05-03T12:51:41.000Z</time>
      </trkpt>
      <trkpt lat="40.81349895335733890533447265625" lon="-1.85068675316870212554931640625">
        <ele>1083</ele>
        <time>2022-05-03T12:51:43.000Z</time>
      </trkpt>
      <trkpt lat="40.8134727180004119873046875" lon="-1.8507753498852252960205078125">
        <ele>1083</ele>
        <time>2022-05-03T12:51:45.000Z</time>
      </trkpt>
      <trkpt lat="40.81344396807253360748291015625" lon="-1.85086260549724102020263671875">
        <ele>1082.800048828125</ele>
        <time>2022-05-03T12:51:47.000Z</time>
      </trkpt>
      <trkpt lat="40.8134155534207820892333984375" lon="-1.85094608925282955169677734375">
        <ele>1082.4000244140625</ele>
        <time>2022-05-03T12:51:49.000Z</time>
      </trkpt>
      <trkpt lat="40.81338613294064998626708984375" lon="-1.851022951304912567138671875">
        <ele>1082.199951171875</ele>
        <time>2022-05-03T12:51:51.000Z</time>
      </trkpt>
      <trkpt lat="40.81335361115634441375732421875" lon="-1.85109428130090236663818359375">
        <ele>1082</ele>
        <time>2022-05-03T12:51:53.000Z</time>
      </trkpt>
      <trkpt lat="40.81331991590559482574462890625" lon="-1.85116435401141643524169921875">
        <ele>1081.800048828125</ele>
        <time>2022-05-03T12:51:55.000Z</time>
      </trkpt>
      <trkpt lat="40.8133025653660297393798828125" lon="-1.85119871981441974639892578125">
        <ele>1081.5999755859375</ele>
        <time>2022-05-03T12:51:56.000Z</time>
      </trkpt>
      <trkpt lat="40.8132844604551792144775390625" lon="-1.85123241506516933441162109375">
        <ele>1081.5999755859375</ele>
        <time>2022-05-03T12:51:57.000Z</time>
      </trkpt>
      <trkpt lat="40.813249088823795318603515625" lon="-1.85129796154797077178955078125">
        <ele>1081.199951171875</ele>
        <time>2022-05-03T12:51:59.000Z</time>
      </trkpt>
      <trkpt lat="40.81321396864950656890869140625" lon="-1.85136417858302593231201171875">
        <ele>1081</ele>
        <time>2022-05-03T12:52:01.000Z</time>
      </trkpt>
      <trkpt lat="40.8131788484752178192138671875" lon="-1.85142687521874904632568359375">
        <ele>1080.800048828125</ele>
        <time>2022-05-03T12:52:03.000Z</time>
      </trkpt>
      <trkpt lat="40.81314506940543651580810546875" lon="-1.85148739255964756011962890625">
        <ele>1080.4000244140625</ele>
        <time>2022-05-03T12:52:05.000Z</time>
      </trkpt>
      <trkpt lat="40.81313316710293292999267578125" lon="-1.85151614248752593994140625">
        <ele>1080.4000244140625</ele>
        <time>2022-05-03T12:52:06.000Z</time>
      </trkpt>
      <trkpt lat="40.81312595866620540618896484375" lon="-1.8515444733202457427978515625">
        <ele>1080.199951171875</ele>
        <time>2022-05-03T12:52:07.000Z</time>
      </trkpt>
      <trkpt lat="40.813125707209110260009765625" lon="-1.85160599648952484130859375">
        <ele>1080.199951171875</ele>
        <time>2022-05-03T12:52:09.000Z</time>
      </trkpt>
      <trkpt lat="40.8131496794521808624267578125" lon="-1.8516715429723262786865234375">
        <ele>1080.4000244140625</ele>
        <time>2022-05-03T12:52:11.000Z</time>
      </trkpt>
      <trkpt lat="40.81319100223481655120849609375" lon="-1.85173030011355876922607421875">
        <ele>1080.5999755859375</ele>
        <time>2022-05-03T12:52:13.000Z</time>
      </trkpt>
      <trkpt lat="40.8132137171924114227294921875" lon="-1.8517570383846759796142578125">
        <ele>1080.5999755859375</ele>
        <time>2022-05-03T12:52:14.000Z</time>
      </trkpt>
      <trkpt lat="40.81323659978806972503662109375" lon="-1.851783692836761474609375">
        <ele>1080.800048828125</ele>
        <time>2022-05-03T12:52:15.000Z</time>
      </trkpt>
      <trkpt lat="40.813280604779720306396484375" lon="-1.8518418632447719573974609375">
        <ele>1080.800048828125</ele>
        <time>2022-05-03T12:52:17.000Z</time>
      </trkpt>
      <trkpt lat="40.81332226283848285675048828125" lon="-1.851907074451446533203125">
        <ele>1081</ele>
        <time>2022-05-03T12:52:19.000Z</time>
      </trkpt>
      <trkpt lat="40.81337104551494121551513671875" lon="-1.85197471641004085540771484375">
        <ele>1081.199951171875</ele>
        <time>2022-05-03T12:52:21.000Z</time>
      </trkpt>
      <trkpt lat="40.81341882236301898956298828125" lon="-1.85204629786312580108642578125">
        <ele>1081.4000244140625</ele>
        <time>2022-05-03T12:52:23.000Z</time>
      </trkpt>
      <trkpt lat="40.81346693448722362518310546875" lon="-1.85211754404008388519287109375">
        <ele>1081.4000244140625</ele>
        <time>2022-05-03T12:52:25.000Z</time>
      </trkpt>
      <trkpt lat="40.81352007575333118438720703125" lon="-1.85218133032321929931640625">
        <ele>1081.5999755859375</ele>
        <time>2022-05-03T12:52:27.000Z</time>
      </trkpt>
      <trkpt lat="40.81356667913496494293212890625" lon="-1.8522490561008453369140625">
        <ele>1081.5999755859375</ele>
        <time>2022-05-03T12:52:29.000Z</time>
      </trkpt>
      <trkpt lat="40.81361143849790096282958984375" lon="-1.852319128811359405517578125">
        <ele>1081.5999755859375</ele>
        <time>2022-05-03T12:52:31.000Z</time>
      </trkpt>
      <trkpt lat="40.81365468911826610565185546875" lon="-1.85239330865442752838134765625">
        <ele>1081.800048828125</ele>
        <time>2022-05-03T12:52:33.000Z</time>
      </trkpt>
      <trkpt lat="40.81369324587285518646240234375" lon="-1.85247360728681087493896484375">
        <ele>1082</ele>
        <time>2022-05-03T12:52:35.000Z</time>
      </trkpt>
      <trkpt lat="40.813725180923938751220703125" lon="-1.85255818068981170654296875">
        <ele>1082.199951171875</ele>
        <time>2022-05-03T12:52:37.000Z</time>
      </trkpt>
      <trkpt lat="40.81375812180340290069580078125" lon="-1.8526352941989898681640625">
        <ele>1082.199951171875</ele>
        <time>2022-05-03T12:52:39.000Z</time>
      </trkpt>
      <trkpt lat="40.81377438269555568695068359375" lon="-1.8526706658303737640380859375">
        <ele>1082.4000244140625</ele>
        <time>2022-05-03T12:52:40.000Z</time>
      </trkpt>
      <trkpt lat="40.8137927390635013580322265625" lon="-1.8527041934430599212646484375">
        <ele>1082.4000244140625</ele>
        <time>2022-05-03T12:52:41.000Z</time>
      </trkpt>
      <trkpt lat="40.81382467411458492279052734375" lon="-1.85276680625975131988525390625">
        <ele>1082.4000244140625</ele>
        <time>2022-05-03T12:52:43.000Z</time>
      </trkpt>
      <trkpt lat="40.813853926956653594970703125" lon="-1.8528356216847896575927734375">
        <ele>1082.5999755859375</ele>
        <time>2022-05-03T12:52:45.000Z</time>
      </trkpt>
      <trkpt lat="40.81387580372393131256103515625" lon="-1.85290225781500339508056640625">
        <ele>1082.5999755859375</ele>
        <time>2022-05-03T12:52:47.000Z</time>
      </trkpt>
      <trkpt lat="40.81390933133661746978759765625" lon="-1.8529633618891239166259765625">
        <ele>1082.5999755859375</ele>
        <time>2022-05-03T12:52:49.000Z</time>
      </trkpt>
      <trkpt lat="40.813955850899219512939453125" lon="-1.8530183471739292144775390625">
        <ele>1082.800048828125</ele>
        <time>2022-05-03T12:52:51.000Z</time>
      </trkpt>
      <trkpt lat="40.81398166716098785400390625" lon="-1.85304676182568073272705078125">
        <ele>1082.800048828125</ele>
        <time>2022-05-03T12:52:52.000Z</time>
      </trkpt>
      <trkpt lat="40.814008153975009918212890625" lon="-1.85307626612484455108642578125">
        <ele>1082.800048828125</ele>
        <time>2022-05-03T12:52:53.000Z</time>
      </trkpt>
      <trkpt lat="40.81406070850789546966552734375" lon="-1.85314047150313854217529296875">
        <ele>1082.5999755859375</ele>
        <time>2022-05-03T12:52:55.000Z</time>
      </trkpt>
      <trkpt lat="40.81411820836365222930908203125" lon="-1.85320266522467136383056640625">
        <ele>1082.4000244140625</ele>
        <time>2022-05-03T12:52:57.000Z</time>
      </trkpt>
      <trkpt lat="40.814177803695201873779296875" lon="-1.85326159000396728515625">
        <ele>1082.4000244140625</ele>
        <time>2022-05-03T12:52:59.000Z</time>
      </trkpt>
      <trkpt lat="40.81420621834695339202880859375" lon="-1.853292770683765411376953125">
        <ele>1082.4000244140625</ele>
        <time>2022-05-03T12:53:00.000Z</time>
      </trkpt>
      <trkpt lat="40.8142336271703243255615234375" lon="-1.853323616087436676025390625">
        <ele>1082.199951171875</ele>
        <time>2022-05-03T12:53:01.000Z</time>
      </trkpt>
      <trkpt lat="40.81428467296063899993896484375" lon="-1.85337851755321025848388671875">
        <ele>1082.199951171875</ele>
        <time>2022-05-03T12:53:03.000Z</time>
      </trkpt>
      <trkpt lat="40.81432373262941837310791015625" lon="-1.85342864133417606353759765625">
        <ele>1082.199951171875</ele>
        <time>2022-05-03T12:53:05.000Z</time>
      </trkpt>
      <trkpt lat="40.81434150226414203643798828125" lon="-1.85345395468175411224365234375">
        <ele>1082.199951171875</ele>
        <time>2022-05-03T12:53:06.000Z</time>
      </trkpt>
      <trkpt lat="40.81436228938400745391845703125" lon="-1.8534793518483638763427734375">
        <ele>1082.199951171875</ele>
        <time>2022-05-03T12:53:07.000Z</time>
      </trkpt>
      <trkpt lat="40.814405791461467742919921875" lon="-1.8535370193421840667724609375">
        <ele>1082.199951171875</ele>
        <time>2022-05-03T12:53:09.000Z</time>
      </trkpt>
      <trkpt lat="40.81444812007248401641845703125" lon="-1.8535963632166385650634765625">
        <ele>1081.800048828125</ele>
        <time>2022-05-03T12:53:11.000Z</time>
      </trkpt>
      <trkpt lat="40.8144907839596271514892578125" lon="-1.85365813784301280975341796875">
        <ele>1081.5999755859375</ele>
        <time>2022-05-03T12:53:13.000Z</time>
      </trkpt>
      <trkpt lat="40.8145122416317462921142578125" lon="-1.85368713922798633575439453125">
        <ele>1081.4000244140625</ele>
        <time>2022-05-03T12:53:14.000Z</time>
      </trkpt>
      <trkpt lat="40.81453411839902400970458984375" lon="-1.85371513478457927703857421875">
        <ele>1081.4000244140625</ele>
        <time>2022-05-03T12:53:15.000Z</time>
      </trkpt>
      <trkpt lat="40.81457711756229400634765625" lon="-1.8537737242877483367919921875">
        <ele>1081</ele>
        <time>2022-05-03T12:53:17.000Z</time>
      </trkpt>
      <trkpt lat="40.81461693160235881805419921875" lon="-1.8538266979157924652099609375">
        <ele>1080.800048828125</ele>
        <time>2022-05-03T12:53:19.000Z</time>
      </trkpt>
      <trkpt lat="40.81465481780469417572021484375" lon="-1.85388260520994663238525390625">
        <ele>1080.5999755859375</ele>
        <time>2022-05-03T12:53:21.000Z</time>
      </trkpt>
      <trkpt lat="40.8146953023970127105712890625" lon="-1.853934824466705322265625">
        <ele>1080.199951171875</ele>
        <time>2022-05-03T12:53:23.000Z</time>
      </trkpt>
      <trkpt lat="40.8147422410547733306884765625" lon="-1.85399341396987438201904296875">
        <ele>1080</ele>
        <time>2022-05-03T12:53:25.000Z</time>
      </trkpt>
      <trkpt lat="40.81479169428348541259765625" lon="-1.8540608882904052734375">
        <ele>1080</ele>
        <time>2022-05-03T12:53:27.000Z</time>
      </trkpt>
      <trkpt lat="40.814845003187656402587890625" lon="-1.85412668623030185699462890625">
        <ele>1079.800048828125</ele>
        <time>2022-05-03T12:53:29.000Z</time>
      </trkpt>
      <trkpt lat="40.81487224437296390533447265625" lon="-1.85415803454816341400146484375">
        <ele>1079.800048828125</ele>
        <time>2022-05-03T12:53:30.000Z</time>
      </trkpt>
      <trkpt lat="40.81490091048181056976318359375" lon="-1.85418887995183467864990234375">
        <ele>1079.800048828125</ele>
        <time>2022-05-03T12:53:31.000Z</time>
      </trkpt>
      <trkpt lat="40.8149568177759647369384765625" lon="-1.85425476171076297760009765625">
        <ele>1079.800048828125</ele>
        <time>2022-05-03T12:53:33.000Z</time>
      </trkpt>
      <trkpt lat="40.815016664564609527587890625" lon="-1.854322738945484161376953125">
        <ele>1079.5999755859375</ele>
        <time>2022-05-03T12:53:35.000Z</time>
      </trkpt>
      <trkpt lat="40.815077014267444610595703125" lon="-1.8543894588947296142578125">
        <ele>1079.5999755859375</ele>
        <time>2022-05-03T12:53:37.000Z</time>
      </trkpt>
      <trkpt lat="40.8151053451001644134521484375" lon="-1.8544255010783672332763671875">
        <ele>1079.5999755859375</ele>
        <time>2022-05-03T12:53:38.000Z</time>
      </trkpt>
      <trkpt lat="40.8151338435709476470947265625" lon="-1.85446062125265598297119140625">
        <ele>1079.5999755859375</ele>
        <time>2022-05-03T12:53:39.000Z</time>
      </trkpt>
      <trkpt lat="40.81518941558897495269775390625" lon="-1.85452583245933055877685546875">
        <ele>1079.5999755859375</ele>
        <time>2022-05-03T12:53:41.000Z</time>
      </trkpt>
      <trkpt lat="40.81524138338863849639892578125" lon="-1.85459003783762454986572265625">
        <ele>1080</ele>
        <time>2022-05-03T12:53:43.000Z</time>
      </trkpt>
      <trkpt lat="40.8152971230447292327880859375" lon="-1.85465457849204540252685546875">
        <ele>1080.199951171875</ele>
        <time>2022-05-03T12:53:45.000Z</time>
      </trkpt>
      <trkpt lat="40.81534833647310733795166015625" lon="-1.8547255732119083404541015625">
        <ele>1080.4000244140625</ele>
        <time>2022-05-03T12:53:47.000Z</time>
      </trkpt>
      <trkpt lat="40.8153998851776123046875" lon="-1.8547969870269298553466796875">
        <ele>1080.5999755859375</ele>
        <time>2022-05-03T12:53:49.000Z</time>
      </trkpt>
      <trkpt lat="40.8154486678540706634521484375" lon="-1.85486462898552417755126953125">
        <ele>1080.800048828125</ele>
        <time>2022-05-03T12:53:51.000Z</time>
      </trkpt>
      <trkpt lat="40.81549552269279956817626953125" lon="-1.8549297563731670379638671875">
        <ele>1081</ele>
        <time>2022-05-03T12:53:53.000Z</time>
      </trkpt>
      <trkpt lat="40.8155438862740993499755859375" lon="-1.85499488376080989837646484375">
        <ele>1080.5999755859375</ele>
        <time>2022-05-03T12:53:55.000Z</time>
      </trkpt>
      <trkpt lat="40.81559367477893829345703125" lon="-1.8550601787865161895751953125">
        <ele>1080.4000244140625</ele>
        <time>2022-05-03T12:53:57.000Z</time>
      </trkpt>
      <trkpt lat="40.8156464807689189910888671875" lon="-1.8551272340118885040283203125">
        <ele>1080.199951171875</ele>
        <time>2022-05-03T12:53:59.000Z</time>
      </trkpt>
      <trkpt lat="40.81569719128310680389404296875" lon="-1.85520015656948089599609375">
        <ele>1079.800048828125</ele>
        <time>2022-05-03T12:54:01.000Z</time>
      </trkpt>
      <trkpt lat="40.815748907625675201416015625" lon="-1.85527400113642215728759765625">
        <ele>1079.5999755859375</ele>
        <time>2022-05-03T12:54:03.000Z</time>
      </trkpt>
      <trkpt lat="40.8158037252724170684814453125" lon="-1.8553443253040313720703125">
        <ele>1079.4000244140625</ele>
        <time>2022-05-03T12:54:05.000Z</time>
      </trkpt>
      <trkpt lat="40.81585443578660488128662109375" lon="-1.855413727462291717529296875">
        <ele>1079.199951171875</ele>
        <time>2022-05-03T12:54:07.000Z</time>
      </trkpt>
      <trkpt lat="40.81590120680630207061767578125" lon="-1.8554769270122051239013671875">
        <ele>1079.4000244140625</ele>
        <time>2022-05-03T12:54:09.000Z</time>
      </trkpt>
      <trkpt lat="40.8159468881785869598388671875" lon="-1.855542473495006561279296875">
        <ele>1080</ele>
        <time>2022-05-03T12:54:11.000Z</time>
      </trkpt>
      <trkpt lat="40.8159965090453624725341796875" lon="-1.85561128892004489898681640625">
        <ele>1080.4000244140625</ele>
        <time>2022-05-03T12:54:13.000Z</time>
      </trkpt>
      <trkpt lat="40.81604696810245513916015625" lon="-1.85568119399249553680419921875">
        <ele>1080.800048828125</ele>
        <time>2022-05-03T12:54:15.000Z</time>
      </trkpt>
      <trkpt lat="40.8160907216370105743408203125" lon="-1.855742968618869781494140625">
        <ele>1081.199951171875</ele>
        <time>2022-05-03T12:54:17.000Z</time>
      </trkpt>
      <trkpt lat="40.8161108382046222686767578125" lon="-1.8557696230709552764892578125">
        <ele>1081.4000244140625</ele>
        <time>2022-05-03T12:54:18.000Z</time>
      </trkpt>
      <trkpt lat="40.81612936221063137054443359375" lon="-1.855797953903675079345703125">
        <ele>1081.4000244140625</ele>
        <time>2022-05-03T12:54:19.000Z</time>
      </trkpt>
      <trkpt lat="40.8161648176610469818115234375" lon="-1.85585805214941501617431640625">
        <ele>1081.5999755859375</ele>
        <time>2022-05-03T12:54:21.000Z</time>
      </trkpt>
      <trkpt lat="40.8161978423595428466796875" lon="-1.85591404326260089874267578125">
        <ele>1081.800048828125</ele>
        <time>2022-05-03T12:54:23.000Z</time>
      </trkpt>
      <trkpt lat="40.8162265084683895111083984375" lon="-1.8559748120605945587158203125">
        <ele>1082</ele>
        <time>2022-05-03T12:54:25.000Z</time>
      </trkpt>
      <trkpt lat="40.81624905578792095184326171875" lon="-1.85604630969464778900146484375">
        <ele>1082</ele>
        <time>2022-05-03T12:54:27.000Z</time>
      </trkpt>
      <trkpt lat="40.8162702620029449462890625" lon="-1.8561203218996524810791015625">
        <ele>1082</ele>
        <time>2022-05-03T12:54:29.000Z</time>
      </trkpt>
      <trkpt lat="40.816293396055698394775390625" lon="-1.85618259944021701812744140625">
        <ele>1082</ele>
        <time>2022-05-03T12:54:31.000Z</time>
      </trkpt>
      <trkpt lat="40.81631577573716640472412109375" lon="-1.8562504090368747711181640625">
        <ele>1082</ele>
        <time>2022-05-03T12:54:33.000Z</time>
      </trkpt>
      <trkpt lat="40.81631996668875217437744140625" lon="-1.85633246786892414093017578125">
        <ele>1082</ele>
        <time>2022-05-03T12:54:35.000Z</time>
      </trkpt>
      <trkpt lat="40.81631292589008808135986328125" lon="-1.85637605376541614532470703125">
        <ele>1081.800048828125</ele>
        <time>2022-05-03T12:54:36.000Z</time>
      </trkpt>
      <trkpt lat="40.81630102358758449554443359375" lon="-1.85641561634838581085205078125">
        <ele>1081.800048828125</ele>
        <time>2022-05-03T12:54:37.000Z</time>
      </trkpt>
      <trkpt lat="40.81626749597489833831787109375" lon="-1.85648350976407527923583984375">
        <ele>1081.5999755859375</ele>
        <time>2022-05-03T12:54:39.000Z</time>
      </trkpt>
      <trkpt lat="40.81622675992548465728759765625" lon="-1.856548972427845001220703125">
        <ele>1081.199951171875</ele>
        <time>2022-05-03T12:54:41.000Z</time>
      </trkpt>
      <trkpt lat="40.81618367694318294525146484375" lon="-1.85660429298877716064453125">
        <ele>1081</ele>
        <time>2022-05-03T12:54:43.000Z</time>
      </trkpt>
      <trkpt lat="40.8161470480263233184814453125" lon="-1.8566416762769222259521484375">
        <ele>1080.800048828125</ele>
        <time>2022-05-03T12:54:45.000Z</time>
      </trkpt>
      <trkpt lat="40.816101618111133575439453125" lon="-1.8566792272031307220458984375">
        <ele>1080.5999755859375</ele>
        <time>2022-05-03T12:54:47.000Z</time>
      </trkpt>
      <trkpt lat="40.81605023704469203948974609375" lon="-1.856709904968738555908203125">
        <ele>1080.4000244140625</ele>
        <time>2022-05-03T12:54:49.000Z</time>
      </trkpt>
      <trkpt lat="40.816005729138851165771484375" lon="-1.856735050678253173828125">
        <ele>1080.199951171875</ele>
        <time>2022-05-03T12:54:51.000Z</time>
      </trkpt>
      <trkpt lat="40.81596708856523036956787109375" lon="-1.85676095075905323028564453125">
        <ele>1080</ele>
        <time>2022-05-03T12:54:53.000Z</time>
      </trkpt>
      <trkpt lat="40.81594848074018955230712890625" lon="-1.8567737750709056854248046875">
        <ele>1079.800048828125</ele>
        <time>2022-05-03T12:54:54.000Z</time>
      </trkpt>
      <trkpt lat="40.81592970527708530426025390625" lon="-1.856785677373409271240234375">
        <ele>1079.800048828125</ele>
        <time>2022-05-03T12:54:55.000Z</time>
      </trkpt>
      <trkpt lat="40.8158922381699085235595703125" lon="-1.85680772177875041961669921875">
        <ele>1079.5999755859375</ele>
        <time>2022-05-03T12:54:57.000Z</time>
      </trkpt>
      <trkpt lat="40.8158506639301776885986328125" lon="-1.856826245784759521484375">
        <ele>1079.4000244140625</ele>
        <time>2022-05-03T12:54:59.000Z</time>
      </trkpt>
      <trkpt lat="40.8158054016530513763427734375" lon="-1.85684175230562686920166015625">
        <ele>1079.199951171875</ele>
        <time>2022-05-03T12:55:01.000Z</time>
      </trkpt>
      <trkpt lat="40.815765000879764556884765625" lon="-1.85686220414936542510986328125">
        <ele>1079</ele>
        <time>2022-05-03T12:55:03.000Z</time>
      </trkpt>
      <trkpt lat="40.81575100310146808624267578125" lon="-1.856868155300617218017578125">
        <ele>1079</ele>
        <time>2022-05-03T12:55:05.000Z</time>
      </trkpt>
      <trkpt lat="40.81575167365372180938720703125" lon="-1.85686823911964893341064453125">
        <ele>1079</ele>
        <time>2022-05-03T12:55:07.000Z</time>
      </trkpt>
      <trkpt lat="40.8157101832330226898193359375" lon="-1.856868155300617218017578125">
        <ele>1078.800048828125</ele>
        <time>2022-05-03T12:57:26.000Z</time>
      </trkpt>
      <trkpt lat="40.8156954310834407806396484375" lon="-1.85685382224619388580322265625">
        <ele>1078.5999755859375</ele>
        <time>2022-05-03T12:57:27.000Z</time>
      </trkpt>
      <trkpt lat="40.81564974971115589141845703125" lon="-1.8568431772291660308837890625">
        <ele>1078.4000244140625</ele>
        <time>2022-05-03T12:57:29.000Z</time>
      </trkpt>
      <trkpt lat="40.8155938424170017242431640625" lon="-1.85685114003717899322509765625">
        <ele>1078.199951171875</ele>
        <time>2022-05-03T12:57:31.000Z</time>
      </trkpt>
      <trkpt lat="40.8155616559088230133056640625" lon="-1.8568539060652256011962890625">
        <ele>1078</ele>
        <time>2022-05-03T12:57:32.000Z</time>
      </trkpt>
      <trkpt lat="40.81552586518228054046630859375" lon="-1.85685566626489162445068359375">
        <ele>1078.199951171875</ele>
        <time>2022-05-03T12:57:33.000Z</time>
      </trkpt>
      <trkpt lat="40.81544774584472179412841796875" lon="-1.856862120330333709716796875">
        <ele>1079</ele>
        <time>2022-05-03T12:57:35.000Z</time>
      </trkpt>
      <trkpt lat="40.8153625018894672393798828125" lon="-1.85686974786221981048583984375">
        <ele>1079.800048828125</ele>
        <time>2022-05-03T12:57:37.000Z</time>
      </trkpt>
      <trkpt lat="40.8152751624584197998046875" lon="-1.85687611810863018035888671875">
        <ele>1080.5999755859375</ele>
        <time>2022-05-03T12:57:39.000Z</time>
      </trkpt>
      <trkpt lat="40.81519159488379955291748046875" lon="-1.8568865954875946044921875">
        <ele>1081.4000244140625</ele>
        <time>2022-05-03T12:57:41.000Z</time>
      </trkpt>
      <trkpt lat="40.815112553536891937255859375" lon="-1.85689874924719333648681640625">
        <ele>1082</ele>
        <time>2022-05-03T12:57:43.000Z</time>
      </trkpt>
      <trkpt lat="40.81503954716026782989501953125" lon="-1.8569072149693965911865234375">
        <ele>1082.5999755859375</ele>
        <time>2022-05-03T12:57:45.000Z</time>
      </trkpt>
      <trkpt lat="40.8150057680904865264892578125" lon="-1.8569112382829189300537109375">
        <ele>1082.800048828125</ele>
        <time>2022-05-03T12:57:46.000Z</time>
      </trkpt>
      <trkpt lat="40.81497383303940296173095703125" lon="-1.85691450722515583038330078125">
        <ele>1083</ele>
        <time>2022-05-03T12:57:47.000Z</time>
      </trkpt>
      <trkpt lat="40.81491230987012386322021484375" lon="-1.85692012310028076171875">
        <ele>1083.4000244140625</ele>
        <time>2022-05-03T12:57:49.000Z</time>
      </trkpt>
      <trkpt lat="40.814851708710193634033203125" lon="-1.8569266609847545623779296875">
        <ele>1084</ele>
        <time>2022-05-03T12:57:51.000Z</time>
      </trkpt>
      <trkpt lat="40.81479546613991260528564453125" lon="-1.85692884027957916259765625">
        <ele>1084.4000244140625</ele>
        <time>2022-05-03T12:57:53.000Z</time>
      </trkpt>
      <trkpt lat="40.8147677220404148101806640625" lon="-1.85693177394568920135498046875">
        <ele>1084.5999755859375</ele>
        <time>2022-05-03T12:57:54.000Z</time>
      </trkpt>
      <trkpt lat="40.814739055931568145751953125" lon="-1.85693680308759212493896484375">
        <ele>1084.800048828125</ele>
        <time>2022-05-03T12:57:55.000Z</time>
      </trkpt>
      <trkpt lat="40.8146812207996845245361328125" lon="-1.856937892735004425048828125">
        <ele>1084.800048828125</ele>
        <time>2022-05-03T12:57:57.000Z</time>
      </trkpt>
      <trkpt lat="40.8146191947162151336669921875" lon="-1.85694132931530475616455078125">
        <ele>1084.800048828125</ele>
        <time>2022-05-03T12:57:59.000Z</time>
      </trkpt>
      <trkpt lat="40.814554989337921142578125" lon="-1.85695054940879344940185546875">
        <ele>1084.800048828125</ele>
        <time>2022-05-03T12:58:01.000Z</time>
      </trkpt>
      <trkpt lat="40.81449388526380062103271484375" lon="-1.85696412809193134307861328125">
        <ele>1084.800048828125</ele>
        <time>2022-05-03T12:58:03.000Z</time>
      </trkpt>
      <trkpt lat="40.8144381456077098846435546875" lon="-1.85696639120578765869140625">
        <ele>1084.5999755859375</ele>
        <time>2022-05-03T12:58:05.000Z</time>
      </trkpt>
      <trkpt lat="40.8143811486661434173583984375" lon="-1.8569779582321643829345703125">
        <ele>1084.5999755859375</ele>
        <time>2022-05-03T12:58:07.000Z</time>
      </trkpt>
      <trkpt lat="40.8143211342394351959228515625" lon="-1.8569870106875896453857421875">
        <ele>1084.5999755859375</ele>
        <time>2022-05-03T12:58:09.000Z</time>
      </trkpt>
      <trkpt lat="40.81427268683910369873046875" lon="-1.85698910616338253021240234375">
        <ele>1084.4000244140625</ele>
        <time>2022-05-03T12:58:11.000Z</time>
      </trkpt>
      <trkpt lat="40.8142237365245819091796875" lon="-1.8569994159042835235595703125">
        <ele>1084.4000244140625</ele>
        <time>2022-05-03T12:58:13.000Z</time>
      </trkpt>
      <trkpt lat="40.81416514702141284942626953125" lon="-1.8570188619196414947509765625">
        <ele>1084.199951171875</ele>
        <time>2022-05-03T12:58:15.000Z</time>
      </trkpt>
      <trkpt lat="40.8141035400331020355224609375" lon="-1.8570480309426784515380859375">
        <ele>1084.199951171875</ele>
        <time>2022-05-03T12:58:17.000Z</time>
      </trkpt>
      <trkpt lat="40.8140361495316028594970703125" lon="-1.85708968900144100189208984375">
        <ele>1084</ele>
        <time>2022-05-03T12:58:19.000Z</time>
      </trkpt>
      <trkpt lat="40.81400438211858272552490234375" lon="-1.85711801983416080474853515625">
        <ele>1084.199951171875</ele>
        <time>2022-05-03T12:58:20.000Z</time>
      </trkpt>
      <trkpt lat="40.81397605128586292266845703125" lon="-1.8571519665420055389404296875">
        <ele>1084.199951171875</ele>
        <time>2022-05-03T12:58:21.000Z</time>
      </trkpt>
      <trkpt lat="40.81393816508352756500244140625" lon="-1.85723788104951381683349609375">
        <ele>1084.4000244140625</ele>
        <time>2022-05-03T12:58:23.000Z</time>
      </trkpt>
      <trkpt lat="40.81392793916165828704833984375" lon="-1.8572857417166233062744140625">
        <ele>1084.5999755859375</ele>
        <time>2022-05-03T12:58:24.000Z</time>
      </trkpt>
      <trkpt lat="40.81392173655331134796142578125" lon="-1.8573323450982570648193359375">
        <ele>1084.800048828125</ele>
        <time>2022-05-03T12:58:25.000Z</time>
      </trkpt>
      <trkpt lat="40.8139090798795223236083984375" lon="-1.857422702014446258544921875">
        <ele>1085</ele>
        <time>2022-05-03T12:58:27.000Z</time>
      </trkpt>
      <trkpt lat="40.8139033801853656768798828125" lon="-1.8574701435863971710205078125">
        <ele>1085.199951171875</ele>
        <time>2022-05-03T12:58:28.000Z</time>
      </trkpt>
      <trkpt lat="40.81390011124312877655029296875" lon="-1.85751984827220439910888671875">
        <ele>1085.199951171875</ele>
        <time>2022-05-03T12:58:29.000Z</time>
      </trkpt>
      <trkpt lat="40.8138906396925449371337890625" lon="-1.8576233647763729095458984375">
        <ele>1085.199951171875</ele>
        <time>2022-05-03T12:58:31.000Z</time>
      </trkpt>
      <trkpt lat="40.81387781538069248199462890625" lon="-1.85772486962378025054931640625">
        <ele>1085.4000244140625</ele>
        <time>2022-05-03T12:58:33.000Z</time>
      </trkpt>
      <trkpt lat="40.81385417841374874114990234375" lon="-1.8578201718628406524658203125">
        <ele>1085.5999755859375</ele>
        <time>2022-05-03T12:58:35.000Z</time>
      </trkpt>
      <trkpt lat="40.813823752105236053466796875" lon="-1.8579093553125858306884765625">
        <ele>1085.5999755859375</ele>
        <time>2022-05-03T12:58:37.000Z</time>
      </trkpt>
      <trkpt lat="40.81380690447986125946044921875" lon="-1.85795151628553867340087890625">
        <ele>1085.5999755859375</ele>
        <time>2022-05-03T12:58:38.000Z</time>
      </trkpt>
      <trkpt lat="40.8137892186641693115234375" lon="-1.857994683086872100830078125">
        <ele>1085.800048828125</ele>
        <time>2022-05-03T12:58:39.000Z</time>
      </trkpt>
      <trkpt lat="40.81374638713896274566650390625" lon="-1.85807690955698490142822265625">
        <ele>1085.800048828125</ele>
        <time>2022-05-03T12:58:41.000Z</time>
      </trkpt>
      <trkpt lat="40.8136926591396331787109375" lon="-1.85814228840172290802001953125">
        <ele>1085.800048828125</ele>
        <time>2022-05-03T12:58:43.000Z</time>
      </trkpt>
      <trkpt lat="40.81366223283112049102783203125" lon="-1.8581715412437915802001953125">
        <ele>1086</ele>
        <time>2022-05-03T12:58:44.000Z</time>
      </trkpt>
      <trkpt lat="40.81363088451325893402099609375" lon="-1.85819744132459163665771484375">
        <ele>1086</ele>
        <time>2022-05-03T12:58:45.000Z</time>
      </trkpt>
      <trkpt lat="40.8135691098868846893310546875" lon="-1.85824387706816196441650390625">
        <ele>1086</ele>
        <time>2022-05-03T12:58:47.000Z</time>
      </trkpt>
      <trkpt lat="40.8135070838034152984619140625" lon="-1.8582848645746707916259765625">
        <ele>1086</ele>
        <time>2022-05-03T12:58:49.000Z</time>
      </trkpt>
      <trkpt lat="40.813442207872867584228515625" lon="-1.8583188951015472412109375">
        <ele>1085.800048828125</ele>
        <time>2022-05-03T12:58:51.000Z</time>
      </trkpt>
      <trkpt lat="40.81340893171727657318115234375" lon="-1.85833825729787349700927734375">
        <ele>1085.800048828125</ele>
        <time>2022-05-03T12:58:52.000Z</time>
      </trkpt>
      <trkpt lat="40.81337523646652698516845703125" lon="-1.85835870914161205291748046875">
        <ele>1085.800048828125</ele>
        <time>2022-05-03T12:58:53.000Z</time>
      </trkpt>
      <trkpt lat="40.8133035711944103240966796875" lon="-1.8583939969539642333984375">
        <ele>1085.800048828125</ele>
        <time>2022-05-03T12:58:55.000Z</time>
      </trkpt>
      <trkpt lat="40.81322955898940563201904296875" lon="-1.8584354035556316375732421875">
        <ele>1085.800048828125</ele>
        <time>2022-05-03T12:58:57.000Z</time>
      </trkpt>
      <trkpt lat="40.8131899125874042510986328125" lon="-1.8584558553993701934814453125">
        <ele>1085.800048828125</ele>
        <time>2022-05-03T12:58:58.000Z</time>
      </trkpt>
      <trkpt lat="40.81315143965184688568115234375" lon="-1.85847924090921878814697265625">
        <ele>1085.5999755859375</ele>
        <time>2022-05-03T12:58:59.000Z</time>
      </trkpt>
      <trkpt lat="40.81307700835168361663818359375" lon="-1.8585254251956939697265625">
        <ele>1085.5999755859375</ele>
        <time>2022-05-03T12:59:01.000Z</time>
      </trkpt>
      <trkpt lat="40.81301196478307247161865234375" lon="-1.858566664159297943115234375">
        <ele>1085.4000244140625</ele>
        <time>2022-05-03T12:59:03.000Z</time>
      </trkpt>
      <trkpt lat="40.8129830472171306610107421875" lon="-1.85858602635562419891357421875">
        <ele>1085.199951171875</ele>
        <time>2022-05-03T12:59:04.000Z</time>
      </trkpt>
      <trkpt lat="40.81295731477439403533935546875" lon="-1.85860413126647472381591796875">
        <ele>1085</ele>
        <time>2022-05-03T12:59:05.000Z</time>
      </trkpt>
      <trkpt lat="40.8129045926034450531005859375" lon="-1.85864143073558807373046875">
        <ele>1084.5999755859375</ele>
        <time>2022-05-03T12:59:07.000Z</time>
      </trkpt>
      <trkpt lat="40.81284667365252971649169921875" lon="-1.858681999146938323974609375">
        <ele>1084.199951171875</ele>
        <time>2022-05-03T12:59:09.000Z</time>
      </trkpt>
      <trkpt lat="40.81277676858007907867431640625" lon="-1.85871862806379795074462890625">
        <ele>1083.800048828125</ele>
        <time>2022-05-03T12:59:11.000Z</time>
      </trkpt>
      <trkpt lat="40.812734104692935943603515625" lon="-1.858728267252445220947265625">
        <ele>1083.4000244140625</ele>
        <time>2022-05-03T12:59:12.000Z</time>
      </trkpt>
      <trkpt lat="40.81269110552966594696044921875" lon="-1.8587361462414264678955078125">
        <ele>1083.199951171875</ele>
        <time>2022-05-03T12:59:13.000Z</time>
      </trkpt>
      <trkpt lat="40.81261047162115573883056640625" lon="-1.858763806521892547607421875">
        <ele>1082.800048828125</ele>
        <time>2022-05-03T12:59:15.000Z</time>
      </trkpt>
      <trkpt lat="40.81253989599645137786865234375" lon="-1.85878417454659938812255859375">
        <ele>1082.199951171875</ele>
        <time>2022-05-03T12:59:17.000Z</time>
      </trkpt>
      <trkpt lat="40.81246630288660526275634765625" lon="-1.8587990105152130126953125">
        <ele>1081.800048828125</ele>
        <time>2022-05-03T12:59:19.000Z</time>
      </trkpt>
      <trkpt lat="40.81239606253802776336669921875" lon="-1.85881518758833408355712890625">
        <ele>1081.800048828125</ele>
        <time>2022-05-03T12:59:21.000Z</time>
      </trkpt>
      <trkpt lat="40.81232498399913311004638671875" lon="-1.85883454978466033935546875">
        <ele>1081.5999755859375</ele>
        <time>2022-05-03T12:59:23.000Z</time>
      </trkpt>
      <trkpt lat="40.81225658766925334930419921875" lon="-1.85885491780936717987060546875">
        <ele>1081.4000244140625</ele>
        <time>2022-05-03T12:59:25.000Z</time>
      </trkpt>
      <trkpt lat="40.81218752078711986541748046875" lon="-1.85888014733791351318359375">
        <ele>1081.4000244140625</ele>
        <time>2022-05-03T12:59:27.000Z</time>
      </trkpt>
      <trkpt lat="40.8121210522949695587158203125" lon="-1.8589057959616184234619140625">
        <ele>1081.5999755859375</ele>
        <time>2022-05-03T12:59:29.000Z</time>
      </trkpt>
      <trkpt lat="40.812055505812168121337890625" lon="-1.85893085785210132598876953125">
        <ele>1081.800048828125</ele>
        <time>2022-05-03T12:59:31.000Z</time>
      </trkpt>
      <trkpt lat="40.812019295990467071533203125" lon="-1.8589456938207149505615234375">
        <ele>1081.800048828125</ele>
        <time>2022-05-03T12:59:32.000Z</time>
      </trkpt>
      <trkpt lat="40.8119840919971466064453125" lon="-1.8589607812464237213134765625">
        <ele>1081.800048828125</ele>
        <time>2022-05-03T12:59:33.000Z</time>
      </trkpt>
      <trkpt lat="40.8119514025747776031494140625" lon="-1.858977377414703369140625">
        <ele>1081.800048828125</ele>
        <time>2022-05-03T12:59:34.000Z</time>
      </trkpt>
      <trkpt lat="40.81192131154239177703857421875" lon="-1.8589936383068561553955078125">
        <ele>1082</ele>
        <time>2022-05-03T12:59:35.000Z</time>
      </trkpt>
      <trkpt lat="40.8118565194308757781982421875" lon="-1.85902389697730541229248046875">
        <ele>1082</ele>
        <time>2022-05-03T12:59:37.000Z</time>
      </trkpt>
      <trkpt lat="40.81178837455809116363525390625" lon="-1.8590600229799747467041015625">
        <ele>1082</ele>
        <time>2022-05-03T12:59:39.000Z</time>
      </trkpt>
      <trkpt lat="40.8117525838315486907958984375" lon="-1.859078295528888702392578125">
        <ele>1082.199951171875</ele>
        <time>2022-05-03T12:59:40.000Z</time>
      </trkpt>
      <trkpt lat="40.811718218028545379638671875" lon="-1.85909430496394634246826171875">
        <ele>1082.4000244140625</ele>
        <time>2022-05-03T12:59:41.000Z</time>
      </trkpt>
      <trkpt lat="40.811654515564441680908203125" lon="-1.8591317720711231231689453125">
        <ele>1082.5999755859375</ele>
        <time>2022-05-03T12:59:43.000Z</time>
      </trkpt>
      <trkpt lat="40.81160430796444416046142578125" lon="-1.85917527414858341217041015625">
        <ele>1082.5999755859375</ele>
        <time>2022-05-03T12:59:45.000Z</time>
      </trkpt>
      <trkpt lat="40.81157614476978778839111328125" lon="-1.85923755168914794921875">
        <ele>1082.5999755859375</ele>
        <time>2022-05-03T12:59:47.000Z</time>
      </trkpt>
      <trkpt lat="40.81156491301953792572021484375" lon="-1.85931357555091381072998046875">
        <ele>1082.5999755859375</ele>
        <time>2022-05-03T12:59:49.000Z</time>
      </trkpt>
      <trkpt lat="40.8115629851818084716796875" lon="-1.85939705930650234222412109375">
        <ele>1082.4000244140625</ele>
        <time>2022-05-03T12:59:51.000Z</time>
      </trkpt>
      <trkpt lat="40.81156072206795215606689453125" lon="-1.85948858968913555145263671875">
        <ele>1082.199951171875</ele>
        <time>2022-05-03T12:59:53.000Z</time>
      </trkpt>
      <trkpt lat="40.81155988387763500213623046875" lon="-1.85958615504205226898193359375">
        <ele>1081.800048828125</ele>
        <time>2022-05-03T12:59:55.000Z</time>
      </trkpt>
      <trkpt lat="40.8115658350288867950439453125" lon="-1.8596876598894596099853515625">
        <ele>1081.5999755859375</ele>
        <time>2022-05-03T12:59:57.000Z</time>
      </trkpt>
      <trkpt lat="40.8115705288946628570556640625" lon="-1.85978597961366176605224609375">
        <ele>1081.5999755859375</ele>
        <time>2022-05-03T12:59:59.000Z</time>
      </trkpt>
      <trkpt lat="40.81157379783689975738525390625" lon="-1.85983174480497837066650390625">
        <ele>1081.800048828125</ele>
        <time>2022-05-03T13:00:00.000Z</time>
      </trkpt>
      <trkpt lat="40.81157983280718326568603515625" lon="-1.8598754145205020904541015625">
        <ele>1081.800048828125</ele>
        <time>2022-05-03T13:00:01.000Z</time>
      </trkpt>
      <trkpt lat="40.8116020448505878448486328125" lon="-1.85995646752417087554931640625">
        <ele>1082.199951171875</ele>
        <time>2022-05-03T13:00:03.000Z</time>
      </trkpt>
      <trkpt lat="40.811613611876964569091796875" lon="-1.85999519191682338714599609375">
        <ele>1082.4000244140625</ele>
        <time>2022-05-03T13:00:04.000Z</time>
      </trkpt>
      <trkpt lat="40.8116261847317218780517578125" lon="-1.86003358103334903717041015625">
        <ele>1082.800048828125</ele>
        <time>2022-05-03T13:00:05.000Z</time>
      </trkpt>
      <trkpt lat="40.81163967959582805633544921875" lon="-1.8600725568830966949462890625">
        <ele>1083</ele>
        <time>2022-05-03T13:00:06.000Z</time>
      </trkpt>
      <trkpt lat="40.81165543757379055023193359375" lon="-1.860111616551876068115234375">
        <ele>1083.199951171875</ele>
        <time>2022-05-03T13:00:07.000Z</time>
      </trkpt>
      <trkpt lat="40.811690390110015869140625" lon="-1.8601912446320056915283203125">
        <ele>1083.800048828125</ele>
        <time>2022-05-03T13:00:09.000Z</time>
      </trkpt>
      <trkpt lat="40.81173020415008068084716796875" lon="-1.86026894487440586090087890625">
        <ele>1084.199951171875</ele>
        <time>2022-05-03T13:00:11.000Z</time>
      </trkpt>
      <trkpt lat="40.8117706887423992156982421875" lon="-1.8603464774787425994873046875">
        <ele>1084.800048828125</ele>
        <time>2022-05-03T13:00:13.000Z</time>
      </trkpt>
      <trkpt lat="40.81179105676710605621337890625" lon="-1.86038679443299770355224609375">
        <ele>1084.5999755859375</ele>
        <time>2022-05-03T13:00:14.000Z</time>
      </trkpt>
      <trkpt lat="40.81181117333471775054931640625" lon="-1.8604271113872528076171875">
        <ele>1084.5999755859375</ele>
        <time>2022-05-03T13:00:15.000Z</time>
      </trkpt>
      <trkpt lat="40.811852999031543731689453125" lon="-1.860508583486080169677734375">
        <ele>1084.4000244140625</ele>
        <time>2022-05-03T13:00:17.000Z</time>
      </trkpt>
      <trkpt lat="40.81189348362386226654052734375" lon="-1.8605907261371612548828125">
        <ele>1084.199951171875</ele>
        <time>2022-05-03T13:00:19.000Z</time>
      </trkpt>
      <trkpt lat="40.8119316212832927703857421875" lon="-1.8606780655682086944580078125">
        <ele>1084</ele>
        <time>2022-05-03T13:00:21.000Z</time>
      </trkpt>
      <trkpt lat="40.81196808256208896636962890625" lon="-1.8607695959508419036865234375">
        <ele>1083.800048828125</ele>
        <time>2022-05-03T13:00:23.000Z</time>
      </trkpt>
      <trkpt lat="40.81200077198445796966552734375" lon="-1.8608678318560123443603515625">
        <ele>1083.4000244140625</ele>
        <time>2022-05-03T13:00:25.000Z</time>
      </trkpt>
      <trkpt lat="40.812028683722019195556640625" lon="-1.86096766032278537750244140625">
        <ele>1083.4000244140625</ele>
        <time>2022-05-03T13:00:27.000Z</time>
      </trkpt>
      <trkpt lat="40.81205458380281925201416015625" lon="-1.8610673211514949798583984375">
        <ele>1083.5999755859375</ele>
        <time>2022-05-03T13:00:29.000Z</time>
      </trkpt>
      <trkpt lat="40.81208358518779277801513671875" lon="-1.8611665628850460052490234375">
        <ele>1084</ele>
        <time>2022-05-03T13:00:31.000Z</time>
      </trkpt>
      <trkpt lat="40.8121160231530666351318359375" lon="-1.86126605607569217681884765625">
        <ele>1084.199951171875</ele>
        <time>2022-05-03T13:00:33.000Z</time>
      </trkpt>
      <trkpt lat="40.81213069148361682891845703125" lon="-1.86131802387535572052001953125">
        <ele>1084.4000244140625</ele>
        <time>2022-05-03T13:00:34.000Z</time>
      </trkpt>
      <trkpt lat="40.8121445216238498687744140625" lon="-1.8613697402179241180419921875">
        <ele>1084.4000244140625</ele>
        <time>2022-05-03T13:00:35.000Z</time>
      </trkpt>
      <trkpt lat="40.81217260099947452545166015625" lon="-1.86147208325564861297607421875">
        <ele>1084.800048828125</ele>
        <time>2022-05-03T13:00:37.000Z</time>
      </trkpt>
      <trkpt lat="40.81219607032835483551025390625" lon="-1.86157844960689544677734375">
        <ele>1084.800048828125</ele>
        <time>2022-05-03T13:00:39.000Z</time>
      </trkpt>
      <trkpt lat="40.81221803091466426849365234375" lon="-1.86168372631072998046875">
        <ele>1084.5999755859375</ele>
        <time>2022-05-03T13:00:41.000Z</time>
      </trkpt>
      <trkpt lat="40.812235884368419647216796875" lon="-1.86179595999419689178466796875">
        <ele>1084.4000244140625</ele>
        <time>2022-05-03T13:00:43.000Z</time>
      </trkpt>
      <trkpt lat="40.81224367953836917877197265625" lon="-1.86185463331639766693115234375">
        <ele>1084.199951171875</ele>
        <time>2022-05-03T13:00:44.000Z</time>
      </trkpt>
      <trkpt lat="40.81225139088928699493408203125" lon="-1.8619155697524547576904296875">
        <ele>1084</ele>
        <time>2022-05-03T13:00:45.000Z</time>
      </trkpt>
      <trkpt lat="40.8122670650482177734375" lon="-1.862043477594852447509765625">
        <ele>1083.5999755859375</ele>
        <time>2022-05-03T13:00:47.000Z</time>
      </trkpt>
      <trkpt lat="40.81228324212133884429931640625" lon="-1.8621777556836605072021484375">
        <ele>1083.199951171875</ele>
        <time>2022-05-03T13:00:49.000Z</time>
      </trkpt>
      <trkpt lat="40.8122994191944599151611328125" lon="-1.8623127043247222900390625">
        <ele>1082.800048828125</ele>
        <time>2022-05-03T13:00:51.000Z</time>
      </trkpt>
      <trkpt lat="40.812318362295627593994140625" lon="-1.86244656331837177276611328125">
        <ele>1082.800048828125</ele>
        <time>2022-05-03T13:00:53.000Z</time>
      </trkpt>
      <trkpt lat="40.8123423345386981964111328125" lon="-1.86257665045559406280517578125">
        <ele>1082.5999755859375</ele>
        <time>2022-05-03T13:00:55.000Z</time>
      </trkpt>
      <trkpt lat="40.81236169673502445220947265625" lon="-1.8627108447253704071044921875">
        <ele>1082.199951171875</ele>
        <time>2022-05-03T13:00:57.000Z</time>
      </trkpt>
      <trkpt lat="40.81237326376140117645263671875" lon="-1.862775050103664398193359375">
        <ele>1082</ele>
        <time>2022-05-03T13:00:58.000Z</time>
      </trkpt>
      <trkpt lat="40.8123845793306827545166015625" lon="-1.86283774673938751220703125">
        <ele>1082</ele>
        <time>2022-05-03T13:00:59.000Z</time>
      </trkpt>
      <trkpt lat="40.81240897066891193389892578125" lon="-1.86295836232602596282958984375">
        <ele>1081.5999755859375</ele>
        <time>2022-05-03T13:01:01.000Z</time>
      </trkpt>
      <trkpt lat="40.81243311055004596710205078125" lon="-1.8630779720842838287353515625">
        <ele>1081.4000244140625</ele>
        <time>2022-05-03T13:01:03.000Z</time>
      </trkpt>
      <trkpt lat="40.8124425821006298065185546875" lon="-1.86313739977777004241943359375">
        <ele>1081.4000244140625</ele>
        <time>2022-05-03T13:01:04.000Z</time>
      </trkpt>
      <trkpt lat="40.8124509640038013458251953125" lon="-1.86319716274738311767578125">
        <ele>1081.4000244140625</ele>
        <time>2022-05-03T13:01:05.000Z</time>
      </trkpt>
      <trkpt lat="40.81246445886790752410888671875" lon="-1.86331677250564098358154296875">
        <ele>1081.199951171875</ele>
        <time>2022-05-03T13:01:07.000Z</time>
      </trkpt>
      <trkpt lat="40.812482647597789764404296875" lon="-1.86343110166490077972412109375">
        <ele>1081</ele>
        <time>2022-05-03T13:01:09.000Z</time>
      </trkpt>
      <trkpt lat="40.81250066868960857391357421875" lon="-1.86354392208158969879150390625">
        <ele>1081</ele>
        <time>2022-05-03T13:01:11.000Z</time>
      </trkpt>
      <trkpt lat="40.81252682022750377655029296875" lon="-1.8636482767760753631591796875">
        <ele>1080.800048828125</ele>
        <time>2022-05-03T13:01:13.000Z</time>
      </trkpt>
      <trkpt lat="40.81254710443317890167236328125" lon="-1.86375414021313190460205078125">
        <ele>1080.5999755859375</ele>
        <time>2022-05-03T13:01:15.000Z</time>
      </trkpt>
      <trkpt lat="40.812557749450206756591796875" lon="-1.8638066947460174560546875">
        <ele>1080.4000244140625</ele>
        <time>2022-05-03T13:01:16.000Z</time>
      </trkpt>
      <trkpt lat="40.8125699870288372039794921875" lon="-1.86385924927890300750732421875">
        <ele>1080.199951171875</ele>
        <time>2022-05-03T13:01:17.000Z</time>
      </trkpt>
      <trkpt lat="40.8125968091189861297607421875" lon="-1.863960921764373779296875">
        <ele>1079.5999755859375</ele>
        <time>2022-05-03T13:01:19.000Z</time>
      </trkpt>
      <trkpt lat="40.8126229606568813323974609375" lon="-1.86405815184116363525390625">
        <ele>1079</ele>
        <time>2022-05-03T13:01:21.000Z</time>
      </trkpt>
      <trkpt lat="40.81264651380479335784912109375" lon="-1.864153034985065460205078125">
        <ele>1079</ele>
        <time>2022-05-03T13:01:23.000Z</time>
      </trkpt>
      <trkpt lat="40.81266713328659534454345703125" lon="-1.8642484210431575775146484375">
        <ele>1079.199951171875</ele>
        <time>2022-05-03T13:01:25.000Z</time>
      </trkpt>
      <trkpt lat="40.8126761019229888916015625" lon="-1.86429628171026706695556640625">
        <ele>1079.199951171875</ele>
        <time>2022-05-03T13:01:26.000Z</time>
      </trkpt>
      <trkpt lat="40.81268481910228729248046875" lon="-1.86434439383447170257568359375">
        <ele>1079.199951171875</ele>
        <time>2022-05-03T13:01:27.000Z</time>
      </trkpt>
      <trkpt lat="40.81270300783216953277587890625" lon="-1.8644401989877223968505859375">
        <ele>1079.199951171875</ele>
        <time>2022-05-03T13:01:29.000Z</time>
      </trkpt>
      <trkpt lat="40.81272161565721035003662109375" lon="-1.864537261426448822021484375">
        <ele>1079.4000244140625</ele>
        <time>2022-05-03T13:01:31.000Z</time>
      </trkpt>
      <trkpt lat="40.81274592317640781402587890625" lon="-1.86463809572160243988037109375">
        <ele>1079.4000244140625</ele>
        <time>2022-05-03T13:01:33.000Z</time>
      </trkpt>
      <trkpt lat="40.8127745054662227630615234375" lon="-1.86474370770156383514404296875">
        <ele>1079.4000244140625</ele>
        <time>2022-05-03T13:01:35.000Z</time>
      </trkpt>
      <trkpt lat="40.812791772186756134033203125" lon="-1.8647964298725128173828125">
        <ele>1079.5999755859375</ele>
        <time>2022-05-03T13:01:36.000Z</time>
      </trkpt>
      <trkpt lat="40.81280954182147979736328125" lon="-1.86484814621508121490478515625">
        <ele>1079.5999755859375</ele>
        <time>2022-05-03T13:01:37.000Z</time>
      </trkpt>
      <trkpt lat="40.812846757471561431884765625" lon="-1.864946968853473663330078125">
        <ele>1079.800048828125</ele>
        <time>2022-05-03T13:01:39.000Z</time>
      </trkpt>
      <trkpt lat="40.8128841407597064971923828125" lon="-1.8650426901876926422119140625">
        <ele>1080.199951171875</ele>
        <time>2022-05-03T13:01:41.000Z</time>
      </trkpt>
      <trkpt lat="40.812920518219470977783203125" lon="-1.865135394036769866943359375">
        <ele>1080.4000244140625</ele>
        <time>2022-05-03T13:01:43.000Z</time>
      </trkpt>
      <trkpt lat="40.8129362761974334716796875" lon="-1.8651821650564670562744140625">
        <ele>1080.4000244140625</ele>
        <time>2022-05-03T13:01:44.000Z</time>
      </trkpt>
      <trkpt lat="40.81295195035636425018310546875" lon="-1.86522851698100566864013671875">
        <ele>1080.4000244140625</ele>
        <time>2022-05-03T13:01:45.000Z</time>
      </trkpt>
      <trkpt lat="40.81298715434968471527099609375" lon="-1.8653206340968608856201171875">
        <ele>1080.4000244140625</ele>
        <time>2022-05-03T13:01:47.000Z</time>
      </trkpt>
      <trkpt lat="40.8130246214568614959716796875" lon="-1.8654098175466060638427734375">
        <ele>1080.4000244140625</ele>
        <time>2022-05-03T13:01:49.000Z</time>
      </trkpt>
      <trkpt lat="40.8130608312785625457763671875" lon="-1.865495145320892333984375">
        <ele>1080.4000244140625</ele>
        <time>2022-05-03T13:01:51.000Z</time>
      </trkpt>
      <trkpt lat="40.8130936883389949798583984375" lon="-1.86558156274259090423583984375">
        <ele>1080.5999755859375</ele>
        <time>2022-05-03T13:01:53.000Z</time>
      </trkpt>
      <trkpt lat="40.8131201751530170440673828125" lon="-1.8656696565449237823486328125">
        <ele>1080.5999755859375</ele>
        <time>2022-05-03T13:01:55.000Z</time>
      </trkpt>
      <trkpt lat="40.8131436444818973541259765625" lon="-1.86576269567012786865234375">
        <ele>1080.800048828125</ele>
        <time>2022-05-03T13:01:57.000Z</time>
      </trkpt>
      <trkpt lat="40.81317004747688770294189453125" lon="-1.86585749499499797821044921875">
        <ele>1080.800048828125</ele>
        <time>2022-05-03T13:01:59.000Z</time>
      </trkpt>
      <trkpt lat="40.81319401971995830535888671875" lon="-1.86595455743372440338134765625">
        <ele>1080.800048828125</ele>
        <time>2022-05-03T13:02:01.000Z</time>
      </trkpt>
      <trkpt lat="40.81321530975401401519775390625" lon="-1.8660512007772922515869140625">
        <ele>1080.800048828125</ele>
        <time>2022-05-03T13:02:03.000Z</time>
      </trkpt>
      <trkpt lat="40.8132388629019260406494140625" lon="-1.866152621805667877197265625">
        <ele>1080.800048828125</ele>
        <time>2022-05-03T13:02:05.000Z</time>
      </trkpt>
      <trkpt lat="40.8132648468017578125" lon="-1.8662573955953121185302734375">
        <ele>1080.800048828125</ele>
        <time>2022-05-03T13:02:07.000Z</time>
      </trkpt>
      <trkpt lat="40.8132918365299701690673828125" lon="-1.86636560596525669097900390625">
        <ele>1080.5999755859375</ele>
        <time>2022-05-03T13:02:09.000Z</time>
      </trkpt>
      <trkpt lat="40.813305079936981201171875" lon="-1.8664216808974742889404296875">
        <ele>1080.4000244140625</ele>
        <time>2022-05-03T13:02:10.000Z</time>
      </trkpt>
      <trkpt lat="40.81331857480108737945556640625" lon="-1.86647943221032619476318359375">
        <ele>1080.199951171875</ele>
        <time>2022-05-03T13:02:11.000Z</time>
      </trkpt>
      <trkpt lat="40.81334774382412433624267578125" lon="-1.866594515740871429443359375">
        <ele>1080.199951171875</ele>
        <time>2022-05-03T13:02:13.000Z</time>
      </trkpt>
      <trkpt lat="40.81337640993297100067138671875" lon="-1.86670842580497264862060546875">
        <ele>1080.5999755859375</ele>
        <time>2022-05-03T13:02:15.000Z</time>
      </trkpt>
      <trkpt lat="40.81340155564248561859130859375" lon="-1.86682057566940784454345703125">
        <ele>1081</ele>
        <time>2022-05-03T13:02:17.000Z</time>
      </trkpt>
      <trkpt lat="40.81342234276235103607177734375" lon="-1.8669232539832592010498046875">
        <ele>1081.4000244140625</ele>
        <time>2022-05-03T13:02:19.000Z</time>
      </trkpt>
      <trkpt lat="40.8134333230555057525634765625" lon="-1.8669743835926055908203125">
        <ele>1081.5999755859375</ele>
        <time>2022-05-03T13:02:20.000Z</time>
      </trkpt>
      <trkpt lat="40.81344790756702423095703125" lon="-1.86702576465904712677001953125">
        <ele>1081.5999755859375</ele>
        <time>2022-05-03T13:02:21.000Z</time>
      </trkpt>
      <trkpt lat="40.81348252482712268829345703125" lon="-1.86712970025837421417236328125">
        <ele>1081.4000244140625</ele>
        <time>2022-05-03T13:02:23.000Z</time>
      </trkpt>
      <trkpt lat="40.8135101012885570526123046875" lon="-1.8672384135425090789794921875">
        <ele>1081.199951171875</ele>
        <time>2022-05-03T13:02:25.000Z</time>
      </trkpt>
      <trkpt lat="40.8135215006768703460693359375" lon="-1.8672935664653778076171875">
        <ele>1081</ele>
        <time>2022-05-03T13:02:26.000Z</time>
      </trkpt>
      <trkpt lat="40.81353063695132732391357421875" lon="-1.867348887026309967041015625">
        <ele>1081</ele>
        <time>2022-05-03T13:02:27.000Z</time>
      </trkpt>
      <trkpt lat="40.8135456405580043792724609375" lon="-1.867456845939159393310546875">
        <ele>1080.800048828125</ele>
        <time>2022-05-03T13:02:29.000Z</time>
      </trkpt>
      <trkpt lat="40.81355645321309566497802734375" lon="-1.8675626255571842193603515625">
        <ele>1080.5999755859375</ele>
        <time>2022-05-03T13:02:31.000Z</time>
      </trkpt>
      <trkpt lat="40.81356131471693515777587890625" lon="-1.86766396276652812957763671875">
        <ele>1080.4000244140625</ele>
        <time>2022-05-03T13:02:33.000Z</time>
      </trkpt>
      <trkpt lat="40.8135624043643474578857421875" lon="-1.86771257780492305755615234375">
        <ele>1080.4000244140625</ele>
        <time>2022-05-03T13:02:34.000Z</time>
      </trkpt>
      <trkpt lat="40.81356349401175975799560546875" lon="-1.86775985173881053924560546875">
        <ele>1080.199951171875</ele>
        <time>2022-05-03T13:02:35.000Z</time>
      </trkpt>
      <trkpt lat="40.81356483511626720428466796875" lon="-1.867854483425617218017578125">
        <ele>1080.199951171875</ele>
        <time>2022-05-03T13:02:37.000Z</time>
      </trkpt>
      <trkpt lat="40.81356324255466461181640625" lon="-1.8679498694837093353271484375">
        <ele>1080</ele>
        <time>2022-05-03T13:02:39.000Z</time>
      </trkpt>
      <trkpt lat="40.81357137300074100494384765625" lon="-1.868050284683704376220703125">
        <ele>1079.800048828125</ele>
        <time>2022-05-03T13:02:41.000Z</time>
      </trkpt>
      <trkpt lat="40.81357589922845363616943359375" lon="-1.868107281625270843505859375">
        <ele>1079.800048828125</ele>
        <time>2022-05-03T13:02:42.000Z</time>
      </trkpt>
      <trkpt lat="40.813581012189388275146484375" lon="-1.86816821806132793426513671875">
        <ele>1079.5999755859375</ele>
        <time>2022-05-03T13:02:43.000Z</time>
      </trkpt>
      <trkpt lat="40.81359266303479671478271484375" lon="-1.8682978861033916473388671875">
        <ele>1079.199951171875</ele>
        <time>2022-05-03T13:02:45.000Z</time>
      </trkpt>
      <trkpt lat="40.81360423006117343902587890625" lon="-1.868431158363819122314453125">
        <ele>1078.5999755859375</ele>
        <time>2022-05-03T13:02:47.000Z</time>
      </trkpt>
      <trkpt lat="40.81361420452594757080078125" lon="-1.86856426298618316650390625">
        <ele>1078.4000244140625</ele>
        <time>2022-05-03T13:02:49.000Z</time>
      </trkpt>
      <trkpt lat="40.81362049095332622528076171875" lon="-1.86863056384027004241943359375">
        <ele>1078.4000244140625</ele>
        <time>2022-05-03T13:02:50.000Z</time>
      </trkpt>
      <trkpt lat="40.81362686119973659515380859375" lon="-1.86869728378951549530029296875">
        <ele>1078.4000244140625</ele>
        <time>2022-05-03T13:02:51.000Z</time>
      </trkpt>
      <trkpt lat="40.81363725475966930389404296875" lon="-1.86883089132606983184814453125">
        <ele>1078.5999755859375</ele>
        <time>2022-05-03T13:02:53.000Z</time>
      </trkpt>
      <trkpt lat="40.81364278681576251983642578125" lon="-1.8688973598182201385498046875">
        <ele>1078.5999755859375</ele>
        <time>2022-05-03T13:02:54.000Z</time>
      </trkpt>
      <trkpt lat="40.81365041434764862060546875" lon="-1.8689644150435924530029296875">
        <ele>1078.800048828125</ele>
        <time>2022-05-03T13:02:55.000Z</time>
      </trkpt>
      <trkpt lat="40.81366826780140399932861328125" lon="-1.86910078860819339752197265625">
        <ele>1079</ele>
        <time>2022-05-03T13:02:57.000Z</time>
      </trkpt>
      <trkpt lat="40.8136797510087490081787109375" lon="-1.8691702745854854583740234375">
        <ele>1079.199951171875</ele>
        <time>2022-05-03T13:02:58.000Z</time>
      </trkpt>
      <trkpt lat="40.81369140185415744781494140625" lon="-1.8692408502101898193359375">
        <ele>1079.4000244140625</ele>
        <time>2022-05-03T13:02:59.000Z</time>
      </trkpt>
      <trkpt lat="40.8137206546962261199951171875" lon="-1.8693744577467441558837890625">
        <ele>1079</ele>
        <time>2022-05-03T13:03:01.000Z</time>
      </trkpt>
      <trkpt lat="40.81374831497669219970703125" lon="-1.86949624679982662200927734375">
        <ele>1078.5999755859375</ele>
        <time>2022-05-03T13:03:03.000Z</time>
      </trkpt>
      <trkpt lat="40.8137796632945537567138671875" lon="-1.86961644329130649566650390625">
        <ele>1078.199951171875</ele>
        <time>2022-05-03T13:03:05.000Z</time>
      </trkpt>
      <trkpt lat="40.81381000578403472900390625" lon="-1.8697370588779449462890625">
        <ele>1077.800048828125</ele>
        <time>2022-05-03T13:03:07.000Z</time>
      </trkpt>
      <trkpt lat="40.81384579651057720184326171875" lon="-1.86985440552234649658203125">
        <ele>1077.4000244140625</ele>
        <time>2022-05-03T13:03:09.000Z</time>
      </trkpt>
      <trkpt lat="40.8138849399983882904052734375" lon="-1.869969405233860015869140625">
        <ele>1077</ele>
        <time>2022-05-03T13:03:11.000Z</time>
      </trkpt>
      <trkpt lat="40.8139275200664997100830078125" lon="-1.87008096836507320404052734375">
        <ele>1077.199951171875</ele>
        <time>2022-05-03T13:03:13.000Z</time>
      </trkpt>
      <trkpt lat="40.81395040266215801239013671875" lon="-1.87013628892600536346435546875">
        <ele>1077.199951171875</ele>
        <time>2022-05-03T13:03:14.000Z</time>
      </trkpt>
      <trkpt lat="40.8139747940003871917724609375" lon="-1.87019043602049350738525390625">
        <ele>1077.199951171875</ele>
        <time>2022-05-03T13:03:15.000Z</time>
      </trkpt>
      <trkpt lat="40.814027599990367889404296875" lon="-1.87029537744820117950439453125">
        <ele>1077.199951171875</ele>
        <time>2022-05-03T13:03:17.000Z</time>
      </trkpt>
      <trkpt lat="40.814085938036441802978515625" lon="-1.8703960441052913665771484375">
        <ele>1077.199951171875</ele>
        <time>2022-05-03T13:03:19.000Z</time>
      </trkpt>
      <trkpt lat="40.814147628843784332275390625" lon="-1.8704961240291595458984375">
        <ele>1077.199951171875</ele>
        <time>2022-05-03T13:03:21.000Z</time>
      </trkpt>
      <trkpt lat="40.81417939625680446624755859375" lon="-1.87054566107690334320068359375">
        <ele>1077.4000244140625</ele>
        <time>2022-05-03T13:03:22.000Z</time>
      </trkpt>
      <trkpt lat="40.81421107985079288482666015625" lon="-1.870595030486583709716796875">
        <ele>1077.800048828125</ele>
        <time>2022-05-03T13:03:23.000Z</time>
      </trkpt>
      <trkpt lat="40.81427746452391147613525390625" lon="-1.8706904165446758270263671875">
        <ele>1078.199951171875</ele>
        <time>2022-05-03T13:03:25.000Z</time>
      </trkpt>
      <trkpt lat="40.81434267573058605194091796875" lon="-1.8707869760692119598388671875">
        <ele>1079.199951171875</ele>
        <time>2022-05-03T13:03:27.000Z</time>
      </trkpt>
      <trkpt lat="40.8144069649279117584228515625" lon="-1.87088194303214550018310546875">
        <ele>1080.199951171875</ele>
        <time>2022-05-03T13:03:29.000Z</time>
      </trkpt>
      <trkpt lat="40.81447376869618892669677734375" lon="-1.870972551405429840087890625">
        <ele>1081.4000244140625</ele>
        <time>2022-05-03T13:03:31.000Z</time>
      </trkpt>
      <trkpt lat="40.81453747116029262542724609375" lon="-1.87106248922646045684814453125">
        <ele>1082</ele>
        <time>2022-05-03T13:03:33.000Z</time>
      </trkpt>
      <trkpt lat="40.814566724002361297607421875" lon="-1.871109344065189361572265625">
        <ele>1082.4000244140625</ele>
        <time>2022-05-03T13:03:34.000Z</time>
      </trkpt>
      <trkpt lat="40.81459413282573223114013671875" lon="-1.8711577914655208587646484375">
        <ele>1082.800048828125</ele>
        <time>2022-05-03T13:03:35.000Z</time>
      </trkpt>
      <trkpt lat="40.81465247087180614471435546875" lon="-1.87124521471560001373291015625">
        <ele>1083.4000244140625</ele>
        <time>2022-05-03T13:03:37.000Z</time>
      </trkpt>
      <trkpt lat="40.8147187717258930206298828125" lon="-1.87132216058671474456787109375">
        <ele>1084</ele>
        <time>2022-05-03T13:03:39.000Z</time>
      </trkpt>
      <trkpt lat="40.8147864975035190582275390625" lon="-1.8714012019336223602294921875">
        <ele>1084.199951171875</ele>
        <time>2022-05-03T13:03:41.000Z</time>
      </trkpt>
      <trkpt lat="40.81485263071954250335693359375" lon="-1.87148376367986202239990234375">
        <ele>1084.199951171875</ele>
        <time>2022-05-03T13:03:43.000Z</time>
      </trkpt>
      <trkpt lat="40.81488414667546749114990234375" lon="-1.871523074805736541748046875">
        <ele>1084</ele>
        <time>2022-05-03T13:03:44.000Z</time>
      </trkpt>
      <trkpt lat="40.8149149082601070404052734375" lon="-1.871562302112579345703125">
        <ele>1083.800048828125</ele>
        <time>2022-05-03T13:03:45.000Z</time>
      </trkpt>
      <trkpt lat="40.8149755932390689849853515625" lon="-1.87163949944078922271728515625">
        <ele>1083.800048828125</ele>
        <time>2022-05-03T13:03:47.000Z</time>
      </trkpt>
      <trkpt lat="40.81503904424607753753662109375" lon="-1.87171678058803081512451171875">
        <ele>1083.4000244140625</ele>
        <time>2022-05-03T13:03:49.000Z</time>
      </trkpt>
      <trkpt lat="40.81510358490049839019775390625" lon="-1.87178961932659149169921875">
        <ele>1083.199951171875</ele>
        <time>2022-05-03T13:03:51.000Z</time>
      </trkpt>
      <trkpt lat="40.8151616714894771575927734375" lon="-1.8718575127422809600830078125">
        <ele>1083</ele>
        <time>2022-05-03T13:03:53.000Z</time>
      </trkpt>
      <trkpt lat="40.81521875225007534027099609375" lon="-1.871921382844448089599609375">
        <ele>1082.5999755859375</ele>
        <time>2022-05-03T13:03:55.000Z</time>
      </trkpt>
      <trkpt lat="40.815272815525531768798828125" lon="-1.87198516912758350372314453125">
        <ele>1081.800048828125</ele>
        <time>2022-05-03T13:03:57.000Z</time>
      </trkpt>
      <trkpt lat="40.815327800810337066650390625" lon="-1.87205004505813121795654296875">
        <ele>1080.800048828125</ele>
        <time>2022-05-03T13:03:59.000Z</time>
      </trkpt>
      <trkpt lat="40.81538521684706211090087890625" lon="-1.87211693264544010162353515625">
        <ele>1079.800048828125</ele>
        <time>2022-05-03T13:04:01.000Z</time>
      </trkpt>
      <trkpt lat="40.81544137559831142425537109375" lon="-1.8721887655556201934814453125">
        <ele>1078.800048828125</ele>
        <time>2022-05-03T13:04:03.000Z</time>
      </trkpt>
      <trkpt lat="40.81549820490181446075439453125" lon="-1.872260011732578277587890625">
        <ele>1078</ele>
        <time>2022-05-03T13:04:05.000Z</time>
      </trkpt>
      <trkpt lat="40.8155556209385395050048828125" lon="-1.87233285047113895416259765625">
        <ele>1077</ele>
        <time>2022-05-03T13:04:07.000Z</time>
      </trkpt>
      <trkpt lat="40.81561387516558170318603515625" lon="-1.87240384519100189208984375">
        <ele>1077</ele>
        <time>2022-05-03T13:04:09.000Z</time>
      </trkpt>
      <trkpt lat="40.81567271612584590911865234375" lon="-1.872473917901515960693359375">
        <ele>1077.4000244140625</ele>
        <time>2022-05-03T13:04:11.000Z</time>
      </trkpt>
      <trkpt lat="40.815728791058063507080078125" lon="-1.872548349201679229736328125">
        <ele>1077.800048828125</ele>
        <time>2022-05-03T13:04:13.000Z</time>
      </trkpt>
      <trkpt lat="40.8157861232757568359375" lon="-1.8726185895502567291259765625">
        <ele>1078</ele>
        <time>2022-05-03T13:04:15.000Z</time>
      </trkpt>
      <trkpt lat="40.81584521569311618804931640625" lon="-1.87268556095659732818603515625">
        <ele>1078.4000244140625</ele>
        <time>2022-05-03T13:04:17.000Z</time>
      </trkpt>
      <trkpt lat="40.81590355373919010162353515625" lon="-1.8727553822100162506103515625">
        <ele>1078.800048828125</ele>
        <time>2022-05-03T13:04:19.000Z</time>
      </trkpt>
      <trkpt lat="40.8159653283655643463134765625" lon="-1.872834004461765289306640625">
        <ele>1079</ele>
        <time>2022-05-03T13:04:21.000Z</time>
      </trkpt>
      <trkpt lat="40.8159981854259967803955078125" lon="-1.87287566252052783966064453125">
        <ele>1078.800048828125</ele>
        <time>2022-05-03T13:04:22.000Z</time>
      </trkpt>
      <trkpt lat="40.81603347323834896087646484375" lon="-1.872915141284465789794921875">
        <ele>1078.5999755859375</ele>
        <time>2022-05-03T13:04:23.000Z</time>
      </trkpt>
      <trkpt lat="40.81610329449176788330078125" lon="-1.8729974515736103057861328125">
        <ele>1078</ele>
        <time>2022-05-03T13:04:25.000Z</time>
      </trkpt>
      <trkpt lat="40.81617227755486965179443359375" lon="-1.87307900749146938323974609375">
        <ele>1077.5999755859375</ele>
        <time>2022-05-03T13:04:27.000Z</time>
      </trkpt>
      <trkpt lat="40.816207565367221832275390625" lon="-1.8731193244457244873046875">
        <ele>1077.199951171875</ele>
        <time>2022-05-03T13:04:28.000Z</time>
      </trkpt>
      <trkpt lat="40.81624369136989116668701171875" lon="-1.87315964139997959136962890625">
        <ele>1077</ele>
        <time>2022-05-03T13:04:29.000Z</time>
      </trkpt>
      <trkpt lat="40.81631711684167385101318359375" lon="-1.8732351623475551605224609375">
        <ele>1076.4000244140625</ele>
        <time>2022-05-03T13:04:31.000Z</time>
      </trkpt>
      <trkpt lat="40.81638433970510959625244140625" lon="-1.8733052350580692291259765625">
        <ele>1076</ele>
        <time>2022-05-03T13:04:33.000Z</time>
      </trkpt>
      <trkpt lat="40.8164526522159576416015625" lon="-1.87336944043636322021484375">
        <ele>1075.800048828125</ele>
        <time>2022-05-03T13:04:35.000Z</time>
      </trkpt>
      <trkpt lat="40.81652364693582057952880859375" lon="-1.87343624420464038848876953125">
        <ele>1075.5999755859375</ele>
        <time>2022-05-03T13:04:37.000Z</time>
      </trkpt>
      <trkpt lat="40.81659740768373012542724609375" lon="-1.87350028194487094879150390625">
        <ele>1075.4000244140625</ele>
        <time>2022-05-03T13:04:39.000Z</time>
      </trkpt>
      <trkpt lat="40.816667564213275909423828125" lon="-1.87357018701732158660888671875">
        <ele>1075.4000244140625</ele>
        <time>2022-05-03T13:04:41.000Z</time>
      </trkpt>
      <trkpt lat="40.8167331106960773468017578125" lon="-1.87363724224269390106201171875">
        <ele>1075.199951171875</ele>
        <time>2022-05-03T13:04:43.000Z</time>
      </trkpt>
      <trkpt lat="40.81679622642695903778076171875" lon="-1.8737038783729076385498046875">
        <ele>1075.199951171875</ele>
        <time>2022-05-03T13:04:45.000Z</time>
      </trkpt>
      <trkpt lat="40.81682883203029632568359375" lon="-1.87373799271881580352783203125">
        <ele>1075.4000244140625</ele>
        <time>2022-05-03T13:04:46.000Z</time>
      </trkpt>
      <trkpt lat="40.8168618567287921905517578125" lon="-1.8737705983221530914306640625">
        <ele>1075.5999755859375</ele>
        <time>2022-05-03T13:04:47.000Z</time>
      </trkpt>
      <trkpt lat="40.816924385726451873779296875" lon="-1.873837821185588836669921875">
        <ele>1075.800048828125</ele>
        <time>2022-05-03T13:04:49.000Z</time>
      </trkpt>
      <trkpt lat="40.816985070705413818359375" lon="-1.87390563078224658966064453125">
        <ele>1076.199951171875</ele>
        <time>2022-05-03T13:04:51.000Z</time>
      </trkpt>
      <trkpt lat="40.81704868935048580169677734375" lon="-1.873973943293094635009765625">
        <ele>1076.4000244140625</ele>
        <time>2022-05-03T13:04:53.000Z</time>
      </trkpt>
      <trkpt lat="40.81711390055716037750244140625" lon="-1.87404041178524494171142578125">
        <ele>1076.800048828125</ele>
        <time>2022-05-03T13:04:55.000Z</time>
      </trkpt>
      <trkpt lat="40.81714541651308536529541015625" lon="-1.8740753643214702606201171875">
        <ele>1077</ele>
        <time>2022-05-03T13:04:56.000Z</time>
      </trkpt>
      <trkpt lat="40.8171753399074077606201171875" lon="-1.87411375343799591064453125">
        <ele>1077</ele>
        <time>2022-05-03T13:04:57.000Z</time>
      </trkpt>
      <trkpt lat="40.81723661161959171295166015625" lon="-1.87419061549007892608642578125">
        <ele>1077.199951171875</ele>
        <time>2022-05-03T13:04:59.000Z</time>
      </trkpt>
      <trkpt lat="40.81730182282626628875732421875" lon="-1.8742641247808933258056640625">
        <ele>1077.199951171875</ele>
        <time>2022-05-03T13:05:01.000Z</time>
      </trkpt>
      <trkpt lat="40.81733644008636474609375" lon="-1.8743016757071018218994140625">
        <ele>1077.199951171875</ele>
        <time>2022-05-03T13:05:02.000Z</time>
      </trkpt>
      <trkpt lat="40.8173721469938755035400390625" lon="-1.87433897517621517181396484375">
        <ele>1077.199951171875</ele>
        <time>2022-05-03T13:05:03.000Z</time>
      </trkpt>
      <trkpt lat="40.8174381963908672332763671875" lon="-1.87441893853247165679931640625">
        <ele>1077</ele>
        <time>2022-05-03T13:05:05.000Z</time>
      </trkpt>
      <trkpt lat="40.81750114448368549346923828125" lon="-1.87449186109006404876708984375">
        <ele>1077</ele>
        <time>2022-05-03T13:05:07.000Z</time>
      </trkpt>
      <trkpt lat="40.81756484694778919219970703125" lon="-1.874561347067356109619140625">
        <ele>1077</ele>
        <time>2022-05-03T13:05:09.000Z</time>
      </trkpt>
      <trkpt lat="40.817628465592861175537109375" lon="-1.87463284470140933990478515625">
        <ele>1077</ele>
        <time>2022-05-03T13:05:11.000Z</time>
      </trkpt>
      <trkpt lat="40.817661322653293609619140625" lon="-1.87466897070407867431640625">
        <ele>1077.199951171875</ele>
        <time>2022-05-03T13:05:12.000Z</time>
      </trkpt>
      <trkpt lat="40.8176953531801700592041015625" lon="-1.87470518052577972412109375">
        <ele>1077.199951171875</ele>
        <time>2022-05-03T13:05:13.000Z</time>
      </trkpt>
      <trkpt lat="40.8177615702152252197265625" lon="-1.874781288206577301025390625">
        <ele>1077.199951171875</ele>
        <time>2022-05-03T13:05:15.000Z</time>
      </trkpt>
      <trkpt lat="40.8178297989070415496826171875" lon="-1.8748555518686771392822265625">
        <ele>1077.4000244140625</ele>
        <time>2022-05-03T13:05:17.000Z</time>
      </trkpt>
      <trkpt lat="40.8178985305130481719970703125" lon="-1.874930150806903839111328125">
        <ele>1077.199951171875</ele>
        <time>2022-05-03T13:05:19.000Z</time>
      </trkpt>
      <trkpt lat="40.81796868704259395599365234375" lon="-1.875001899898052215576171875">
        <ele>1076.800048828125</ele>
        <time>2022-05-03T13:05:21.000Z</time>
      </trkpt>
      <trkpt lat="40.81803381443023681640625" lon="-1.87507172115147113800048828125">
        <ele>1077</ele>
        <time>2022-05-03T13:05:23.000Z</time>
      </trkpt>
      <trkpt lat="40.818097181618213653564453125" lon="-1.87514246441423892974853515625">
        <ele>1077</ele>
        <time>2022-05-03T13:05:25.000Z</time>
      </trkpt>
      <trkpt lat="40.818159878253936767578125" lon="-1.87521278858184814453125">
        <ele>1076.800048828125</ele>
        <time>2022-05-03T13:05:27.000Z</time>
      </trkpt>
      <trkpt lat="40.8182200603187084197998046875" lon="-1.87527649104595184326171875">
        <ele>1076.800048828125</ele>
        <time>2022-05-03T13:05:29.000Z</time>
      </trkpt>
      <trkpt lat="40.8182765543460845947265625" lon="-1.87534027732908725738525390625">
        <ele>1076.800048828125</ele>
        <time>2022-05-03T13:05:31.000Z</time>
      </trkpt>
      <trkpt lat="40.81833564676344394683837890625" lon="-1.87539392150938510894775390625">
        <ele>1076.5999755859375</ele>
        <time>2022-05-03T13:05:33.000Z</time>
      </trkpt>
      <trkpt lat="40.818397589027881622314453125" lon="-1.87545058317482471466064453125">
        <ele>1076.5999755859375</ele>
        <time>2022-05-03T13:05:35.000Z</time>
      </trkpt>
      <trkpt lat="40.81842608749866485595703125" lon="-1.87548511661589145660400390625">
        <ele>1076.5999755859375</ele>
        <time>2022-05-03T13:05:36.000Z</time>
      </trkpt>
      <trkpt lat="40.81845601089298725128173828125" lon="-1.875520907342433929443359375">
        <ele>1076.5999755859375</ele>
        <time>2022-05-03T13:05:37.000Z</time>
      </trkpt>
      <trkpt lat="40.818520300090312957763671875" lon="-1.87559022568166255950927734375">
        <ele>1076.4000244140625</ele>
        <time>2022-05-03T13:05:39.000Z</time>
      </trkpt>
      <trkpt lat="40.81858257763087749481201171875" lon="-1.87566683627665042877197265625">
        <ele>1076.4000244140625</ele>
        <time>2022-05-03T13:05:41.000Z</time>
      </trkpt>
      <trkpt lat="40.8186146803200244903564453125" lon="-1.87570723704993724822998046875">
        <ele>1076.4000244140625</ele>
        <time>2022-05-03T13:05:42.000Z</time>
      </trkpt>
      <trkpt lat="40.81864535808563232421875" lon="-1.8757487274706363677978515625">
        <ele>1076.199951171875</ele>
        <time>2022-05-03T13:05:43.000Z</time>
      </trkpt>
      <trkpt lat="40.818701349198818206787109375" lon="-1.8758291937410831451416015625">
        <ele>1076</ele>
        <time>2022-05-03T13:05:45.000Z</time>
      </trkpt>
      <trkpt lat="40.8187280036509037017822265625" lon="-1.87587194144725799560546875">
        <ele>1075.800048828125</ele>
        <time>2022-05-03T13:05:46.000Z</time>
      </trkpt>
      <trkpt lat="40.81875507719814777374267578125" lon="-1.8759167008101940155029296875">
        <ele>1075.800048828125</ele>
        <time>2022-05-03T13:05:47.000Z</time>
      </trkpt>
      <trkpt lat="40.8187856711447238922119140625" lon="-1.87595785595476627349853515625">
        <ele>1075.800048828125</ele>
        <time>2022-05-03T13:05:48.000Z</time>
      </trkpt>
      <trkpt lat="40.8188178576529026031494140625" lon="-1.87599507160484790802001953125">
        <ele>1076</ele>
        <time>2022-05-03T13:05:49.000Z</time>
      </trkpt>
      <trkpt lat="40.81887535750865936279296875" lon="-1.87605475075542926788330078125">
        <ele>1076</ele>
        <time>2022-05-03T13:05:51.000Z</time>
      </trkpt>
      <trkpt lat="40.81893160007894039154052734375" lon="-1.876107640564441680908203125">
        <ele>1076</ele>
        <time>2022-05-03T13:05:53.000Z</time>
      </trkpt>
      <trkpt lat="40.81895657815039157867431640625" lon="-1.8761366419494152069091796875">
        <ele>1076</ele>
        <time>2022-05-03T13:05:54.000Z</time>
      </trkpt>
      <trkpt lat="40.8189833164215087890625" lon="-1.876167319715023040771484375">
        <ele>1075.800048828125</ele>
        <time>2022-05-03T13:05:55.000Z</time>
      </trkpt>
      <trkpt lat="40.8190398104488849639892578125" lon="-1.876233033835887908935546875">
        <ele>1075.800048828125</ele>
        <time>2022-05-03T13:05:57.000Z</time>
      </trkpt>
      <trkpt lat="40.81910066306591033935546875" lon="-1.87629128806293010711669921875">
        <ele>1075.800048828125</ele>
        <time>2022-05-03T13:05:59.000Z</time>
      </trkpt>
      <trkpt lat="40.8191299997270107269287109375" lon="-1.87632548622786998748779296875">
        <ele>1075.800048828125</ele>
        <time>2022-05-03T13:06:00.000Z</time>
      </trkpt>
      <trkpt lat="40.81916009075939655303955078125" lon="-1.876361779868602752685546875">
        <ele>1075.5999755859375</ele>
        <time>2022-05-03T13:06:01.000Z</time>
      </trkpt>
      <trkpt lat="40.8192178420722484588623046875" lon="-1.8764373846352100372314453125">
        <ele>1075.5999755859375</ele>
        <time>2022-05-03T13:06:03.000Z</time>
      </trkpt>
      <trkpt lat="40.81926763057708740234375" lon="-1.87652028165757656097412109375">
        <ele>1075.5999755859375</ele>
        <time>2022-05-03T13:06:05.000Z</time>
      </trkpt>
      <trkpt lat="40.81931415013968944549560546875" lon="-1.8766013346612453460693359375">
        <ele>1075.5999755859375</ele>
        <time>2022-05-03T13:06:07.000Z</time>
      </trkpt>
      <trkpt lat="40.81935547292232513427734375" lon="-1.87668859027326107025146484375">
        <ele>1076</ele>
        <time>2022-05-03T13:06:09.000Z</time>
      </trkpt>
      <trkpt lat="40.81939428113400936126708984375" lon="-1.87678791582584381103515625">
        <ele>1076.4000244140625</ele>
        <time>2022-05-03T13:06:11.000Z</time>
      </trkpt>
      <trkpt lat="40.819435603916645050048828125" lon="-1.876898892223834991455078125">
        <ele>1076.5999755859375</ele>
        <time>2022-05-03T13:06:13.000Z</time>
      </trkpt>
      <trkpt lat="40.819454379379749298095703125" lon="-1.876954548060894012451171875">
        <ele>1076.199951171875</ele>
        <time>2022-05-03T13:06:14.000Z</time>
      </trkpt>
      <trkpt lat="40.8194647729396820068359375" lon="-1.8770187534391880035400390625">
        <ele>1075.800048828125</ele>
        <time>2022-05-03T13:06:15.000Z</time>
      </trkpt>
      <trkpt lat="40.81949184648692607879638671875" lon="-1.87714205123484134674072265625">
        <ele>1075.199951171875</ele>
        <time>2022-05-03T13:06:17.000Z</time>
      </trkpt>
      <trkpt lat="40.81950358115136623382568359375" lon="-1.87720206566154956817626953125">
        <ele>1074.800048828125</ele>
        <time>2022-05-03T13:06:18.000Z</time>
      </trkpt>
      <trkpt lat="40.819513387978076934814453125" lon="-1.87726107425987720489501953125">
        <ele>1074.4000244140625</ele>
        <time>2022-05-03T13:06:19.000Z</time>
      </trkpt>
      <trkpt lat="40.81954213790595531463623046875" lon="-1.87737607397139072418212890625">
        <ele>1073.800048828125</ele>
        <time>2022-05-03T13:06:21.000Z</time>
      </trkpt>
      <trkpt lat="40.81955906935036182403564453125" lon="-1.87743038870394229888916015625">
        <ele>1073.4000244140625</ele>
        <time>2022-05-03T13:06:22.000Z</time>
      </trkpt>
      <trkpt lat="40.81957667134702205657958984375" lon="-1.87748587690293788909912109375">
        <ele>1072.800048828125</ele>
        <time>2022-05-03T13:06:23.000Z</time>
      </trkpt>
      <trkpt lat="40.8195990510284900665283203125" lon="-1.8775377608835697174072265625">
        <ele>1072.4000244140625</ele>
        <time>2022-05-03T13:06:24.000Z</time>
      </trkpt>
      <trkpt lat="40.81962159834802150726318359375" lon="-1.87759031541645526885986328125">
        <ele>1072.5999755859375</ele>
        <time>2022-05-03T13:06:25.000Z</time>
      </trkpt>
      <trkpt lat="40.819672644138336181640625" lon="-1.87769123353064060211181640625">
        <ele>1072.800048828125</ele>
        <time>2022-05-03T13:06:27.000Z</time>
      </trkpt>
      <trkpt lat="40.81972938962280750274658203125" lon="-1.877781338989734649658203125">
        <ele>1072.800048828125</ele>
        <time>2022-05-03T13:06:29.000Z</time>
      </trkpt>
      <trkpt lat="40.81978554837405681610107421875" lon="-1.87787245027720928192138671875">
        <ele>1072.800048828125</ele>
        <time>2022-05-03T13:06:31.000Z</time>
      </trkpt>
      <trkpt lat="40.819815136492252349853515625" lon="-1.8779162876307964324951171875">
        <ele>1072.800048828125</ele>
        <time>2022-05-03T13:06:32.000Z</time>
      </trkpt>
      <trkpt lat="40.81984489224851131439208984375" lon="-1.87796146608889102935791015625">
        <ele>1072.800048828125</ele>
        <time>2022-05-03T13:06:33.000Z</time>
      </trkpt>
      <trkpt lat="40.81989417783915996551513671875" lon="-1.878047883510589599609375">
        <ele>1072.800048828125</ele>
        <time>2022-05-03T13:06:35.000Z</time>
      </trkpt>
      <trkpt lat="40.819944553077220916748046875" lon="-1.8781395815312862396240234375">
        <ele>1073.4000244140625</ele>
        <time>2022-05-03T13:06:37.000Z</time>
      </trkpt>
      <trkpt lat="40.81997280009090900421142578125" lon="-1.87818174250423908233642578125">
        <ele>1073.5999755859375</ele>
        <time>2022-05-03T13:06:38.000Z</time>
      </trkpt>
      <trkpt lat="40.8199990354478359222412109375" lon="-1.87822247855365276336669921875">
        <ele>1074</ele>
        <time>2022-05-03T13:06:39.000Z</time>
      </trkpt>
      <trkpt lat="40.8200510032474994659423828125" lon="-1.8782907910645008087158203125">
        <ele>1074</ele>
        <time>2022-05-03T13:06:41.000Z</time>
      </trkpt>
      <trkpt lat="40.820101797580718994140625" lon="-1.8783471174538135528564453125">
        <ele>1074</ele>
        <time>2022-05-03T13:06:43.000Z</time>
      </trkpt>
      <trkpt lat="40.82014161162078380584716796875" lon="-1.87840067781507968902587890625">
        <ele>1074</ele>
        <time>2022-05-03T13:06:45.000Z</time>
      </trkpt>
      <trkpt lat="40.82018000073730945587158203125" lon="-1.8784466944634914398193359375">
        <ele>1074</ele>
        <time>2022-05-03T13:06:47.000Z</time>
      </trkpt>
      <trkpt lat="40.8202293701469898223876953125" lon="-1.87847225926816463470458984375">
        <ele>1074</ele>
        <time>2022-05-03T13:06:49.000Z</time>
      </trkpt>
      <trkpt lat="40.8202560245990753173828125" lon="-1.87848432920873165130615234375">
        <ele>1074</ele>
        <time>2022-05-03T13:06:50.000Z</time>
      </trkpt>
      <trkpt lat="40.82028485834598541259765625" lon="-1.87849790789186954498291015625">
        <ele>1074</ele>
        <time>2022-05-03T13:06:51.000Z</time>
      </trkpt>
      <trkpt lat="40.82034328021109104156494140625" lon="-1.87852757982909679412841796875">
        <ele>1074</ele>
        <time>2022-05-03T13:06:53.000Z</time>
      </trkpt>
      <trkpt lat="40.820403881371021270751953125" lon="-1.87855641357600688934326171875">
        <ele>1074</ele>
        <time>2022-05-03T13:06:55.000Z</time>
      </trkpt>
      <trkpt lat="40.82043531350791454315185546875" lon="-1.8785724230110645294189453125">
        <ele>1074</ele>
        <time>2022-05-03T13:06:56.000Z</time>
      </trkpt>
      <trkpt lat="40.82047051750123500823974609375" lon="-1.87858901917934417724609375">
        <ele>1074</ele>
        <time>2022-05-03T13:06:57.000Z</time>
      </trkpt>
      <trkpt lat="40.82054813392460346221923828125" lon="-1.8786277435719966888427734375">
        <ele>1074</ele>
        <time>2022-05-03T13:06:59.000Z</time>
      </trkpt>
      <trkpt lat="40.820633880794048309326171875" lon="-1.8786713294684886932373046875">
        <ele>1074.5999755859375</ele>
        <time>2022-05-03T13:07:01.000Z</time>
      </trkpt>
      <trkpt lat="40.820724405348300933837890625" lon="-1.87871097587049007415771484375">
        <ele>1075.4000244140625</ele>
        <time>2022-05-03T13:07:03.000Z</time>
      </trkpt>
      <trkpt lat="40.820820629596710205078125" lon="-1.87873511575162410736083984375">
        <ele>1076.199951171875</ele>
        <time>2022-05-03T13:07:05.000Z</time>
      </trkpt>
      <trkpt lat="40.8209123276174068450927734375" lon="-1.87875104136765003204345703125">
        <ele>1076.800048828125</ele>
        <time>2022-05-03T13:07:07.000Z</time>
      </trkpt>
      <trkpt lat="40.8209951408207416534423828125" lon="-1.87877702526748180389404296875">
        <ele>1077</ele>
        <time>2022-05-03T13:07:09.000Z</time>
      </trkpt>
      <trkpt lat="40.821035541594028472900390625" lon="-1.87878758646547794342041015625">
        <ele>1077</ele>
        <time>2022-05-03T13:07:10.000Z</time>
      </trkpt>
      <trkpt lat="40.8210762776434421539306640625" lon="-1.87878825701773166656494140625">
        <ele>1077.199951171875</ele>
        <time>2022-05-03T13:07:11.000Z</time>
      </trkpt>
      <trkpt lat="40.821116007864475250244140625" lon="-1.8787883408367633819580078125">
        <ele>1077.4000244140625</ele>
        <time>2022-05-03T13:07:12.000Z</time>
      </trkpt>
      <trkpt lat="40.821153558790683746337890625" lon="-1.87879412434995174407958984375">
        <ele>1077.4000244140625</ele>
        <time>2022-05-03T13:07:13.000Z</time>
      </trkpt>
      <trkpt lat="40.82121952436864376068115234375" lon="-1.87882547266781330108642578125">
        <ele>1077.5999755859375</ele>
        <time>2022-05-03T13:07:15.000Z</time>
      </trkpt>
      <trkpt lat="40.8212509565055370330810546875" lon="-1.87884726561605930328369140625">
        <ele>1077.5999755859375</ele>
        <time>2022-05-03T13:07:16.000Z</time>
      </trkpt>
      <trkpt lat="40.82128071226179599761962890625" lon="-1.8788751773536205291748046875">
        <ele>1077.5999755859375</ele>
        <time>2022-05-03T13:07:17.000Z</time>
      </trkpt>
      <trkpt lat="40.82130946218967437744140625" lon="-1.87890761531889438629150390625">
        <ele>1077.4000244140625</ele>
        <time>2022-05-03T13:07:18.000Z</time>
      </trkpt>
      <trkpt lat="40.82133703865110874176025390625" lon="-1.87894231639802455902099609375">
        <ele>1077.4000244140625</ele>
        <time>2022-05-03T13:07:19.000Z</time>
      </trkpt>
      <trkpt lat="40.8213820494711399078369140625" lon="-1.87902060337364673614501953125">
        <ele>1077.199951171875</ele>
        <time>2022-05-03T13:07:21.000Z</time>
      </trkpt>
      <trkpt lat="40.82139931619167327880859375" lon="-1.879062093794345855712890625">
        <ele>1077.199951171875</ele>
        <time>2022-05-03T13:07:22.000Z</time>
      </trkpt>
      <trkpt lat="40.8214139007031917572021484375" lon="-1.8791021592915058135986328125">
        <ele>1078</ele>
        <time>2022-05-03T13:07:23.000Z</time>
      </trkpt>
      <trkpt lat="40.82142957486212253570556640625" lon="-1.8791799433529376983642578125">
        <ele>1079</ele>
        <time>2022-05-03T13:07:25.000Z</time>
      </trkpt>
      <trkpt lat="40.82143527455627918243408203125" lon="-1.8792758323252201080322265625">
        <ele>1080</ele>
        <time>2022-05-03T13:07:27.000Z</time>
      </trkpt>
      <trkpt lat="40.8214343525469303131103515625" lon="-1.8793301470577716827392578125">
        <ele>1080.5999755859375</ele>
        <time>2022-05-03T13:07:28.000Z</time>
      </trkpt>
      <trkpt lat="40.8214299939572811126708984375" lon="-1.87938672490417957305908203125">
        <ele>1081</ele>
        <time>2022-05-03T13:07:29.000Z</time>
      </trkpt>
      <trkpt lat="40.82141809165477752685546875" lon="-1.87950499355792999267578125">
        <ele>1082</ele>
        <time>2022-05-03T13:07:31.000Z</time>
      </trkpt>
      <trkpt lat="40.82140476442873477935791015625" lon="-1.87963080592453479766845703125">
        <ele>1082.800048828125</ele>
        <time>2022-05-03T13:07:33.000Z</time>
      </trkpt>
      <trkpt lat="40.82139261066913604736328125" lon="-1.87976106069982051849365234375">
        <ele>1083.800048828125</ele>
        <time>2022-05-03T13:07:35.000Z</time>
      </trkpt>
      <trkpt lat="40.82138112746179103851318359375" lon="-1.87989299185574054718017578125">
        <ele>1085</ele>
        <time>2022-05-03T13:07:37.000Z</time>
      </trkpt>
      <trkpt lat="40.82137048244476318359375" lon="-1.88002534210681915283203125">
        <ele>1085.800048828125</ele>
        <time>2022-05-03T13:07:39.000Z</time>
      </trkpt>
      <trkpt lat="40.821362771093845367431640625" lon="-1.88015232793986797332763671875">
        <ele>1086.5999755859375</ele>
        <time>2022-05-03T13:07:41.000Z</time>
      </trkpt>
      <trkpt lat="40.8213545568287372589111328125" lon="-1.88027436845004558563232421875">
        <ele>1087.4000244140625</ele>
        <time>2022-05-03T13:07:43.000Z</time>
      </trkpt>
      <trkpt lat="40.82134609110653400421142578125" lon="-1.88039070926606655120849609375">
        <ele>1088.199951171875</ele>
        <time>2022-05-03T13:07:45.000Z</time>
      </trkpt>
      <trkpt lat="40.821337960660457611083984375" lon="-1.88050671480596065521240234375">
        <ele>1089</ele>
        <time>2022-05-03T13:07:47.000Z</time>
      </trkpt>
      <trkpt lat="40.82132547162473201751708984375" lon="-1.880628503859043121337890625">
        <ele>1089.800048828125</ele>
        <time>2022-05-03T13:07:49.000Z</time>
      </trkpt>
      <trkpt lat="40.82131038419902324676513671875" lon="-1.8807517178356647491455078125">
        <ele>1090.4000244140625</ele>
        <time>2022-05-03T13:07:51.000Z</time>
      </trkpt>
      <trkpt lat="40.8213005773723125457763671875" lon="-1.88087736256420612335205078125">
        <ele>1089.5999755859375</ele>
        <time>2022-05-03T13:07:53.000Z</time>
      </trkpt>
      <trkpt lat="40.82129345275461673736572265625" lon="-1.8810023367404937744140625">
        <ele>1088.5999755859375</ele>
        <time>2022-05-03T13:07:55.000Z</time>
      </trkpt>
      <trkpt lat="40.82129479385912418365478515625" lon="-1.881064362823963165283203125">
        <ele>1088.199951171875</ele>
        <time>2022-05-03T13:07:56.000Z</time>
      </trkpt>
      <trkpt lat="40.82130032591521739959716796875" lon="-1.881126724183559417724609375">
        <ele>1087.800048828125</ele>
        <time>2022-05-03T13:07:57.000Z</time>
      </trkpt>
      <trkpt lat="40.82131926901638507843017578125" lon="-1.881252788007259368896484375">
        <ele>1087.199951171875</ele>
        <time>2022-05-03T13:07:59.000Z</time>
      </trkpt>
      <trkpt lat="40.82134340889751911163330078125" lon="-1.88137893564999103546142578125">
        <ele>1086.5999755859375</ele>
        <time>2022-05-03T13:08:01.000Z</time>
      </trkpt>
      <trkpt lat="40.8213652856647968292236328125" lon="-1.8815000541508197784423828125">
        <ele>1086.199951171875</ele>
        <time>2022-05-03T13:08:03.000Z</time>
      </trkpt>
      <trkpt lat="40.82138397730886936187744140625" lon="-1.8816194124519824981689453125">
        <ele>1085.4000244140625</ele>
        <time>2022-05-03T13:08:05.000Z</time>
      </trkpt>
      <trkpt lat="40.82139185629785060882568359375" lon="-1.88168051652610301971435546875">
        <ele>1085</ele>
        <time>2022-05-03T13:08:06.000Z</time>
      </trkpt>
      <trkpt lat="40.82139940001070499420166015625" lon="-1.8817421235144138336181640625">
        <ele>1084.4000244140625</ele>
        <time>2022-05-03T13:08:07.000Z</time>
      </trkpt>
      <trkpt lat="40.8214229531586170196533203125" lon="-1.88186542131006717681884765625">
        <ele>1083.5999755859375</ele>
        <time>2022-05-03T13:08:09.000Z</time>
      </trkpt>
      <trkpt lat="40.82143963314592838287353515625" lon="-1.8819255195558071136474609375">
        <ele>1083.199951171875</ele>
        <time>2022-05-03T13:08:10.000Z</time>
      </trkpt>
      <trkpt lat="40.82146192900836467742919921875" lon="-1.88198226504027843475341796875">
        <ele>1083</ele>
        <time>2022-05-03T13:08:11.000Z</time>
      </trkpt>
      <trkpt lat="40.82148958928883075714111328125" lon="-1.8820354901254177093505859375">
        <ele>1082.800048828125</ele>
        <time>2022-05-03T13:08:12.000Z</time>
      </trkpt>
      <trkpt lat="40.82152269780635833740234375" lon="-1.88208418898284435272216796875">
        <ele>1082.800048828125</ele>
        <time>2022-05-03T13:08:13.000Z</time>
      </trkpt>
      <trkpt lat="40.82155798561871051788330078125" lon="-1.88213146291673183441162109375">
        <ele>1082.800048828125</ele>
        <time>2022-05-03T13:08:14.000Z</time>
      </trkpt>
      <trkpt lat="40.82159511744976043701171875" lon="-1.88217655755579471588134765625">
        <ele>1082.800048828125</ele>
        <time>2022-05-03T13:08:15.000Z</time>
      </trkpt>
      <trkpt lat="40.821669213473796844482421875" lon="-1.882263980805873870849609375">
        <ele>1082</ele>
        <time>2022-05-03T13:08:17.000Z</time>
      </trkpt>
      <trkpt lat="40.82170936278998851776123046875" lon="-1.88230329193174839019775390625">
        <ele>1081.4000244140625</ele>
        <time>2022-05-03T13:08:18.000Z</time>
      </trkpt>
      <trkpt lat="40.82174942828714847564697265625" lon="-1.8823407590389251708984375">
        <ele>1081.199951171875</ele>
        <time>2022-05-03T13:08:19.000Z</time>
      </trkpt>
      <trkpt lat="40.82183006219565868377685546875" lon="-1.88241376541554927825927734375">
        <ele>1080.5999755859375</ele>
        <time>2022-05-03T13:08:21.000Z</time>
      </trkpt>
      <trkpt lat="40.82191404886543750762939453125" lon="-1.88248551450669765472412109375">
        <ele>1081</ele>
        <time>2022-05-03T13:08:23.000Z</time>
      </trkpt>
      <trkpt lat="40.8220070041716098785400390625" lon="-1.88254385255277156829833984375">
        <ele>1081.4000244140625</ele>
        <time>2022-05-03T13:08:25.000Z</time>
      </trkpt>
      <trkpt lat="40.82205788232386112213134765625" lon="-1.8825655616819858551025390625">
        <ele>1081.5999755859375</ele>
        <time>2022-05-03T13:08:26.000Z</time>
      </trkpt>
      <trkpt lat="40.8221116103231906890869140625" lon="-1.88258240930736064910888671875">
        <ele>1081.199951171875</ele>
        <time>2022-05-03T13:08:27.000Z</time>
      </trkpt>
      <trkpt lat="40.822218395769596099853515625" lon="-1.88261459581553936004638671875">
        <ele>1080.5999755859375</ele>
        <time>2022-05-03T13:08:29.000Z</time>
      </trkpt>
      <trkpt lat="40.82233448512852191925048828125" lon="-1.8826202116906642913818359375">
        <ele>1080</ele>
        <time>2022-05-03T13:08:31.000Z</time>
      </trkpt>
      <trkpt lat="40.8223955892026424407958984375" lon="-1.88261769711971282958984375">
        <ele>1079.5999755859375</ele>
        <time>2022-05-03T13:08:32.000Z</time>
      </trkpt>
      <trkpt lat="40.82245769910514354705810546875" lon="-1.8826141767203807830810546875">
        <ele>1079.199951171875</ele>
        <time>2022-05-03T13:08:33.000Z</time>
      </trkpt>
      <trkpt lat="40.822580158710479736328125" lon="-1.88261107541620731353759765625">
        <ele>1078.5999755859375</ele>
        <time>2022-05-03T13:08:35.000Z</time>
      </trkpt>
      <trkpt lat="40.822699852287769317626953125" lon="-1.88261576928198337554931640625">
        <ele>1077.800048828125</ele>
        <time>2022-05-03T13:08:37.000Z</time>
      </trkpt>
      <trkpt lat="40.82281686365604400634765625" lon="-1.882627420127391815185546875">
        <ele>1077</ele>
        <time>2022-05-03T13:08:39.000Z</time>
      </trkpt>
      <trkpt lat="40.822873525321483612060546875" lon="-1.88263789750635623931884765625">
        <ele>1076.800048828125</ele>
        <time>2022-05-03T13:08:40.000Z</time>
      </trkpt>
      <trkpt lat="40.822929181158542633056640625" lon="-1.88264946453273296356201171875">
        <ele>1076.5999755859375</ele>
        <time>2022-05-03T13:08:41.000Z</time>
      </trkpt>
      <trkpt lat="40.82304141484200954437255859375" lon="-1.8826772086322307586669921875">
        <ele>1076.4000244140625</ele>
        <time>2022-05-03T13:08:43.000Z</time>
      </trkpt>
      <trkpt lat="40.82314970903098583221435546875" lon="-1.88270612619817256927490234375">
        <ele>1077</ele>
        <time>2022-05-03T13:08:45.000Z</time>
      </trkpt>
      <trkpt lat="40.82325884141027927398681640625" lon="-1.88273395411670207977294921875">
        <ele>1078</ele>
        <time>2022-05-03T13:08:47.000Z</time>
      </trkpt>
      <trkpt lat="40.8233139105141162872314453125" lon="-1.88274568878114223480224609375">
        <ele>1078.4000244140625</ele>
        <time>2022-05-03T13:08:48.000Z</time>
      </trkpt>
      <trkpt lat="40.823368728160858154296875" lon="-1.88275457359850406646728515625">
        <ele>1078.800048828125</ele>
        <time>2022-05-03T13:08:49.000Z</time>
      </trkpt>
      <trkpt lat="40.82348146475851535797119140625" lon="-1.8827725946903228759765625">
        <ele>1079.800048828125</ele>
        <time>2022-05-03T13:08:51.000Z</time>
      </trkpt>
      <trkpt lat="40.8235935308039188385009765625" lon="-1.882792375981807708740234375">
        <ele>1080.199951171875</ele>
        <time>2022-05-03T13:08:53.000Z</time>
      </trkpt>
      <trkpt lat="40.8237055130302906036376953125" lon="-1.88281257636845111846923828125">
        <ele>1080.4000244140625</ele>
        <time>2022-05-03T13:08:55.000Z</time>
      </trkpt>
      <trkpt lat="40.82381690852344036102294921875" lon="-1.8828342854976654052734375">
        <ele>1080.4000244140625</ele>
        <time>2022-05-03T13:08:57.000Z</time>
      </trkpt>
      <trkpt lat="40.823930986225605010986328125" lon="-1.882854402065277099609375">
        <ele>1080</ele>
        <time>2022-05-03T13:08:59.000Z</time>
      </trkpt>
      <trkpt lat="40.824043639004230499267578125" lon="-1.8828817270696163177490234375">
        <ele>1078.4000244140625</ele>
        <time>2022-05-03T13:09:01.000Z</time>
      </trkpt>
      <trkpt lat="40.82415671087801456451416015625" lon="-1.88290947116911411285400390625">
        <ele>1076.5999755859375</ele>
        <time>2022-05-03T13:09:03.000Z</time>
      </trkpt>
      <trkpt lat="40.824272632598876953125" lon="-1.88293646089732646942138671875">
        <ele>1075.5999755859375</ele>
        <time>2022-05-03T13:09:05.000Z</time>
      </trkpt>
      <trkpt lat="40.82432820461690425872802734375" lon="-1.882945932447910308837890625">
        <ele>1075.4000244140625</ele>
        <time>2022-05-03T13:09:06.000Z</time>
      </trkpt>
      <trkpt lat="40.82438671030104160308837890625" lon="-1.88295573927462100982666015625">
        <ele>1075.199951171875</ele>
        <time>2022-05-03T13:09:07.000Z</time>
      </trkpt>
      <trkpt lat="40.8245078288018703460693359375" lon="-1.8829742632806301116943359375">
        <ele>1074.5999755859375</ele>
        <time>2022-05-03T13:09:09.000Z</time>
      </trkpt>
      <trkpt lat="40.8246312104165554046630859375" lon="-1.88298507593572139739990234375">
        <ele>1074.199951171875</ele>
        <time>2022-05-03T13:09:11.000Z</time>
      </trkpt>
      <trkpt lat="40.82474729977548122406005859375" lon="-1.8829903565347194671630859375">
        <ele>1073.800048828125</ele>
        <time>2022-05-03T13:09:13.000Z</time>
      </trkpt>
      <trkpt lat="40.8248575218021869659423828125" lon="-1.882989518344402313232421875">
        <ele>1073</ele>
        <time>2022-05-03T13:09:15.000Z</time>
      </trkpt>
      <trkpt lat="40.8249671570956707000732421875" lon="-1.88298038206994533538818359375">
        <ele>1072.4000244140625</ele>
        <time>2022-05-03T13:09:17.000Z</time>
      </trkpt>
      <trkpt lat="40.8250684104859828948974609375" lon="-1.8829699046909809112548828125">
        <ele>1071.800048828125</ele>
        <time>2022-05-03T13:09:19.000Z</time>
      </trkpt>
      <trkpt lat="40.82511484622955322265625" lon="-1.88296445645391941070556640625">
        <ele>1071.5999755859375</ele>
        <time>2022-05-03T13:09:20.000Z</time>
      </trkpt>
      <trkpt lat="40.8251626230776309967041015625" lon="-1.88296060077846050262451171875">
        <ele>1071.4000244140625</ele>
        <time>2022-05-03T13:09:21.000Z</time>
      </trkpt>
      <trkpt lat="40.825262367725372314453125" lon="-1.88295288942754268646240234375">
        <ele>1070.800048828125</ele>
        <time>2022-05-03T13:09:23.000Z</time>
      </trkpt>
      <trkpt lat="40.825365297496318817138671875" lon="-1.8829497881233692169189453125">
        <ele>1070.199951171875</ele>
        <time>2022-05-03T13:09:25.000Z</time>
      </trkpt>
      <trkpt lat="40.8254694007337093353271484375" lon="-1.88295699656009674072265625">
        <ele>1069.4000244140625</ele>
        <time>2022-05-03T13:09:27.000Z</time>
      </trkpt>
      <trkpt lat="40.8255800418555736541748046875" lon="-1.88296998851001262664794921875">
        <ele>1069</ele>
        <time>2022-05-03T13:09:29.000Z</time>
      </trkpt>
      <trkpt lat="40.8256920240819454193115234375" lon="-1.882986836135387420654296875">
        <ele>1069.5999755859375</ele>
        <time>2022-05-03T13:09:31.000Z</time>
      </trkpt>
      <trkpt lat="40.82579922862350940704345703125" lon="-1.88300351612269878387451171875">
        <ele>1070</ele>
        <time>2022-05-03T13:09:33.000Z</time>
      </trkpt>
      <trkpt lat="40.82590400241315364837646484375" lon="-1.8830138258635997772216796875">
        <ele>1070.199951171875</ele>
        <time>2022-05-03T13:09:35.000Z</time>
      </trkpt>
      <trkpt lat="40.82595580257475376129150390625" lon="-1.88302095048129558563232421875">
        <ele>1070.199951171875</ele>
        <time>2022-05-03T13:09:36.000Z</time>
      </trkpt>
      <trkpt lat="40.82600735127925872802734375" lon="-1.88302941620349884033203125">
        <ele>1070.199951171875</ele>
        <time>2022-05-03T13:09:37.000Z</time>
      </trkpt>
      <trkpt lat="40.8261057548224925994873046875" lon="-1.88304408453404903411865234375">
        <ele>1070.4000244140625</ele>
        <time>2022-05-03T13:09:39.000Z</time>
      </trkpt>
      <trkpt lat="40.82620206288993358612060546875" lon="-1.88306135125458240509033203125">
        <ele>1070.5999755859375</ele>
        <time>2022-05-03T13:09:41.000Z</time>
      </trkpt>
      <trkpt lat="40.8262955211102962493896484375" lon="-1.8830842338502407073974609375">
        <ele>1070.5999755859375</ele>
        <time>2022-05-03T13:09:43.000Z</time>
      </trkpt>
      <trkpt lat="40.8263419568538665771484375" lon="-1.88309437595307826995849609375">
        <ele>1070.800048828125</ele>
        <time>2022-05-03T13:09:44.000Z</time>
      </trkpt>
      <trkpt lat="40.82638830877840518951416015625" lon="-1.88310493715107440948486328125">
        <ele>1070.800048828125</ele>
        <time>2022-05-03T13:09:45.000Z</time>
      </trkpt>
      <trkpt lat="40.82649291492998600006103515625" lon="-1.88313134014606475830078125">
        <ele>1070.5999755859375</ele>
        <time>2022-05-03T13:09:47.000Z</time>
      </trkpt>
      <trkpt lat="40.8266021311283111572265625" lon="-1.88315740786492824554443359375">
        <ele>1070.199951171875</ele>
        <time>2022-05-03T13:09:49.000Z</time>
      </trkpt>
      <trkpt lat="40.82671117968857288360595703125" lon="-1.88317819498479366302490234375">
        <ele>1069.800048828125</ele>
        <time>2022-05-03T13:09:51.000Z</time>
      </trkpt>
      <trkpt lat="40.82682265900075435638427734375" lon="-1.883190684020519256591796875">
        <ele>1069.4000244140625</ele>
        <time>2022-05-03T13:09:53.000Z</time>
      </trkpt>
      <trkpt lat="40.826936066150665283203125" lon="-1.88320199958980083465576171875">
        <ele>1069</ele>
        <time>2022-05-03T13:09:55.000Z</time>
      </trkpt>
      <trkpt lat="40.82704997621476650238037109375" lon="-1.88321339897811412811279296875">
        <ele>1068.5999755859375</ele>
        <time>2022-05-03T13:09:57.000Z</time>
      </trkpt>
      <trkpt lat="40.82710571587085723876953125" lon="-1.8832253850996494293212890625">
        <ele>1068.4000244140625</ele>
        <time>2022-05-03T13:09:58.000Z</time>
      </trkpt>
      <trkpt lat="40.82715801894664764404296875" lon="-1.88324407674372196197509765625">
        <ele>1068.199951171875</ele>
        <time>2022-05-03T13:09:59.000Z</time>
      </trkpt>
      <trkpt lat="40.82726136781275272369384765625" lon="-1.8832929432392120361328125">
        <ele>1067.800048828125</ele>
        <time>2022-05-03T13:10:01.000Z</time>
      </trkpt>
      <trkpt lat="40.8273566700518131256103515625" lon="-1.88335086219012737274169921875">
        <ele>1067.800048828125</ele>
        <time>2022-05-03T13:10:03.000Z</time>
      </trkpt>
      <trkpt lat="40.82740302197635173797607421875" lon="-1.88338003121316432952880859375">
        <ele>1067.5999755859375</ele>
        <time>2022-05-03T13:10:04.000Z</time>
      </trkpt>
      <trkpt lat="40.82744769752025604248046875" lon="-1.88341020606458187103271484375">
        <ele>1067.5999755859375</ele>
        <time>2022-05-03T13:10:05.000Z</time>
      </trkpt>
      <trkpt lat="40.8275373838841915130615234375" lon="-1.88347223214805126190185546875">
        <ele>1067.5999755859375</ele>
        <time>2022-05-03T13:10:07.000Z</time>
      </trkpt>
      <trkpt lat="40.827628076076507568359375" lon="-1.88353543169796466827392578125">
        <ele>1067.4000244140625</ele>
        <time>2022-05-03T13:10:09.000Z</time>
      </trkpt>
      <trkpt lat="40.82772128283977508544921875" lon="-1.8835985474288463592529296875">
        <ele>1067.4000244140625</ele>
        <time>2022-05-03T13:10:11.000Z</time>
      </trkpt>
      <trkpt lat="40.82781373523175716400146484375" lon="-1.88366082496941089630126953125">
        <ele>1068.199951171875</ele>
        <time>2022-05-03T13:10:13.000Z</time>
      </trkpt>
      <trkpt lat="40.82790425978600978851318359375" lon="-1.88372570089995861053466796875">
        <ele>1069.199951171875</ele>
        <time>2022-05-03T13:10:15.000Z</time>
      </trkpt>
      <trkpt lat="40.8279947005212306976318359375" lon="-1.88378487713634967803955078125">
        <ele>1069.800048828125</ele>
        <time>2022-05-03T13:10:17.000Z</time>
      </trkpt>
      <trkpt lat="40.8280813694000244140625" lon="-1.8838443048298358917236328125">
        <ele>1071</ele>
        <time>2022-05-03T13:10:19.000Z</time>
      </trkpt>
      <trkpt lat="40.828163512051105499267578125" lon="-1.88389970920979976654052734375">
        <ele>1072.5999755859375</ele>
        <time>2022-05-03T13:10:21.000Z</time>
      </trkpt>
      <trkpt lat="40.828239619731903076171875" lon="-1.88394949771463871002197265625">
        <ele>1073.4000244140625</ele>
        <time>2022-05-03T13:10:23.000Z</time>
      </trkpt>
      <trkpt lat="40.82831212319433689117431640625" lon="-1.8839992024004459381103515625">
        <ele>1073.4000244140625</ele>
        <time>2022-05-03T13:10:25.000Z</time>
      </trkpt>
      <trkpt lat="40.8283863030374050140380859375" lon="-1.88405343331396579742431640625">
        <ele>1073.4000244140625</ele>
        <time>2022-05-03T13:10:27.000Z</time>
      </trkpt>
      <trkpt lat="40.8284676074981689453125" lon="-1.88410640694200992584228515625">
        <ele>1074.199951171875</ele>
        <time>2022-05-03T13:10:29.000Z</time>
      </trkpt>
      <trkpt lat="40.82855151034891605377197265625" lon="-1.88416340388357639312744140625">
        <ele>1075.199951171875</ele>
        <time>2022-05-03T13:10:31.000Z</time>
      </trkpt>
      <trkpt lat="40.8286357484757900238037109375" lon="-1.8842236697673797607421875">
        <ele>1076.199951171875</ele>
        <time>2022-05-03T13:10:33.000Z</time>
      </trkpt>
      <trkpt lat="40.828719399869441986083984375" lon="-1.8842801637947559356689453125">
        <ele>1076.800048828125</ele>
        <time>2022-05-03T13:10:35.000Z</time>
      </trkpt>
      <trkpt lat="40.8288027159869670867919921875" lon="-1.884336657822132110595703125">
        <ele>1076.5999755859375</ele>
        <time>2022-05-03T13:10:37.000Z</time>
      </trkpt>
      <trkpt lat="40.82888477481901645660400390625" lon="-1.88439222984015941619873046875">
        <ele>1076.5999755859375</ele>
        <time>2022-05-03T13:10:39.000Z</time>
      </trkpt>
      <trkpt lat="40.82896775566041469573974609375" lon="-1.8844488076865673065185546875">
        <ele>1077.800048828125</ele>
        <time>2022-05-03T13:10:41.000Z</time>
      </trkpt>
      <trkpt lat="40.829049646854400634765625" lon="-1.8845027871429920196533203125">
        <ele>1079.199951171875</ele>
        <time>2022-05-03T13:10:43.000Z</time>
      </trkpt>
      <trkpt lat="40.82908577285706996917724609375" lon="-1.884532459080219268798828125">
        <ele>1079.800048828125</ele>
        <time>2022-05-03T13:10:44.000Z</time>
      </trkpt>
      <trkpt lat="40.82911603152751922607421875" lon="-1.88456607051193714141845703125">
        <ele>1080.199951171875</ele>
        <time>2022-05-03T13:10:45.000Z</time>
      </trkpt>
      <trkpt lat="40.82914377562701702117919921875" lon="-1.8846003524959087371826171875">
        <ele>1080.5999755859375</ele>
        <time>2022-05-03T13:10:46.000Z</time>
      </trkpt>
      <trkpt lat="40.8291721902787685394287109375" lon="-1.88463329337537288665771484375">
        <ele>1080.800048828125</ele>
        <time>2022-05-03T13:10:47.000Z</time>
      </trkpt>
      <trkpt lat="40.829237066209316253662109375" lon="-1.88469314016401767730712890625">
        <ele>1080</ele>
        <time>2022-05-03T13:10:49.000Z</time>
      </trkpt>
      <trkpt lat="40.8293130062520503997802734375" lon="-1.884743683040142059326171875">
        <ele>1079.4000244140625</ele>
        <time>2022-05-03T13:10:51.000Z</time>
      </trkpt>
      <trkpt lat="40.82935298793017864227294921875" lon="-1.8847689963877201080322265625">
        <ele>1079.199951171875</ele>
        <time>2022-05-03T13:10:52.000Z</time>
      </trkpt>
      <trkpt lat="40.82939305342733860015869140625" lon="-1.88479523174464702606201171875">
        <ele>1078.800048828125</ele>
        <time>2022-05-03T13:10:53.000Z</time>
      </trkpt>
      <trkpt lat="40.82947351969778537750244140625" lon="-1.88484988175332546234130859375">
        <ele>1078.199951171875</ele>
        <time>2022-05-03T13:10:55.000Z</time>
      </trkpt>
      <trkpt lat="40.8295540697872638702392578125" lon="-1.88490503467619419097900390625">
        <ele>1077.5999755859375</ele>
        <time>2022-05-03T13:10:57.000Z</time>
      </trkpt>
      <trkpt lat="40.82963562570512294769287109375" lon="-1.8849590979516506195068359375">
        <ele>1077.4000244140625</ele>
        <time>2022-05-03T13:10:59.000Z</time>
      </trkpt>
      <trkpt lat="40.8297173492610454559326171875" lon="-1.885012574493885040283203125">
        <ele>1077</ele>
        <time>2022-05-03T13:11:01.000Z</time>
      </trkpt>
      <trkpt lat="40.8297579176723957061767578125" lon="-1.88503914512693881988525390625">
        <ele>1076.5999755859375</ele>
        <time>2022-05-03T13:11:02.000Z</time>
      </trkpt>
      <trkpt lat="40.82979789935052394866943359375" lon="-1.8850670568645000457763671875">
        <ele>1076.199951171875</ele>
        <time>2022-05-03T13:11:03.000Z</time>
      </trkpt>
      <trkpt lat="40.82987777888774871826171875" lon="-1.88512246124446392059326171875">
        <ele>1075.5999755859375</ele>
        <time>2022-05-03T13:11:05.000Z</time>
      </trkpt>
      <trkpt lat="40.82995832897722721099853515625" lon="-1.88517384231090545654296875">
        <ele>1074.800048828125</ele>
        <time>2022-05-03T13:11:07.000Z</time>
      </trkpt>
      <trkpt lat="40.83004265092313289642333984375" lon="-1.88522857613861560821533203125">
        <ele>1074</ele>
        <time>2022-05-03T13:11:09.000Z</time>
      </trkpt>
      <trkpt lat="40.8301307447254657745361328125" lon="-1.88528708182275295257568359375">
        <ele>1073.199951171875</ele>
        <time>2022-05-03T13:11:11.000Z</time>
      </trkpt>
      <trkpt lat="40.83022185601294040679931640625" lon="-1.8853393010795116424560546875">
        <ele>1072</ele>
        <time>2022-05-03T13:11:13.000Z</time>
      </trkpt>
      <trkpt lat="40.83031137473881244659423828125" lon="-1.88538841903209686279296875">
        <ele>1070.800048828125</ele>
        <time>2022-05-03T13:11:15.000Z</time>
      </trkpt>
      <trkpt lat="40.83040106110274791717529296875" lon="-1.8854325078427791595458984375">
        <ele>1069.5999755859375</ele>
        <time>2022-05-03T13:11:17.000Z</time>
      </trkpt>
      <trkpt lat="40.83044514991343021392822265625" lon="-1.88545404933393001556396484375">
        <ele>1069.199951171875</ele>
        <time>2022-05-03T13:11:18.000Z</time>
      </trkpt>
      <trkpt lat="40.830489657819271087646484375" lon="-1.88547617755830287933349609375">
        <ele>1068.5999755859375</ele>
        <time>2022-05-03T13:11:19.000Z</time>
      </trkpt>
      <trkpt lat="40.8305837027728557586669921875" lon="-1.8855193443596363067626953125">
        <ele>1067.4000244140625</ele>
        <time>2022-05-03T13:11:21.000Z</time>
      </trkpt>
      <trkpt lat="40.83068219013512134552001953125" lon="-1.885565780103206634521484375">
        <ele>1066.4000244140625</ele>
        <time>2022-05-03T13:11:23.000Z</time>
      </trkpt>
      <trkpt lat="40.83077958784997463226318359375" lon="-1.88560894690454006195068359375">
        <ele>1066.199951171875</ele>
        <time>2022-05-03T13:11:25.000Z</time>
      </trkpt>
      <trkpt lat="40.830877907574176788330078125" lon="-1.885659657418727874755859375">
        <ele>1066.4000244140625</ele>
        <time>2022-05-03T13:11:27.000Z</time>
      </trkpt>
      <trkpt lat="40.830977149307727813720703125" lon="-1.8857087753713130950927734375">
        <ele>1066.5999755859375</ele>
        <time>2022-05-03T13:11:29.000Z</time>
      </trkpt>
      <trkpt lat="40.8310728706419467926025390625" lon="-1.88575378619134426116943359375">
        <ele>1067</ele>
        <time>2022-05-03T13:11:31.000Z</time>
      </trkpt>
      <trkpt lat="40.83116783760488033294677734375" lon="-1.8857992999255657196044921875">
        <ele>1067.4000244140625</ele>
        <time>2022-05-03T13:11:33.000Z</time>
      </trkpt>
      <trkpt lat="40.831214524805545806884765625" lon="-1.88582285307347774505615234375">
        <ele>1067.800048828125</ele>
        <time>2022-05-03T13:11:34.000Z</time>
      </trkpt>
      <trkpt lat="40.8312611281871795654296875" lon="-1.8858462385833263397216796875">
        <ele>1068</ele>
        <time>2022-05-03T13:11:35.000Z</time>
      </trkpt>
      <trkpt lat="40.83135307766497135162353515625" lon="-1.885893344879150390625">
        <ele>1067.800048828125</ele>
        <time>2022-05-03T13:11:37.000Z</time>
      </trkpt>
      <trkpt lat="40.83144326694309711456298828125" lon="-1.8859377689659595489501953125">
        <ele>1068.199951171875</ele>
        <time>2022-05-03T13:11:39.000Z</time>
      </trkpt>
      <trkpt lat="40.8315305225551128387451171875" lon="-1.885980851948261260986328125">
        <ele>1068.800048828125</ele>
        <time>2022-05-03T13:11:41.000Z</time>
      </trkpt>
      <trkpt lat="40.83161392249166965484619140625" lon="-1.8860235996544361114501953125">
        <ele>1069.199951171875</ele>
        <time>2022-05-03T13:11:43.000Z</time>
      </trkpt>
      <trkpt lat="40.831651389598846435546875" lon="-1.88604514114558696746826171875">
        <ele>1069.5999755859375</ele>
        <time>2022-05-03T13:11:44.000Z</time>
      </trkpt>
      <trkpt lat="40.8316840790212154388427734375" lon="-1.8860655091702938079833984375">
        <ele>1069.800048828125</ele>
        <time>2022-05-03T13:11:45.000Z</time>
      </trkpt>
      <trkpt lat="40.831708721816539764404296875" lon="-1.88609107397496700286865234375">
        <ele>1069.800048828125</ele>
        <time>2022-05-03T13:11:46.000Z</time>
      </trkpt>
      <trkpt lat="40.83172104321420192718505859375" lon="-1.8861255235970020294189453125">
        <ele>1070</ele>
        <time>2022-05-03T13:11:47.000Z</time>
      </trkpt>
      <trkpt lat="40.83171911537647247314453125" lon="-1.88616600818932056427001953125">
        <ele>1069.800048828125</ele>
        <time>2022-05-03T13:11:48.000Z</time>
      </trkpt>
      <trkpt lat="40.8317078836262226104736328125" lon="-1.8862096779048442840576171875">
        <ele>1069.800048828125</ele>
        <time>2022-05-03T13:11:49.000Z</time>
      </trkpt>
      <trkpt lat="40.83166681230068206787109375" lon="-1.8863072432577610015869140625">
        <ele>1069.199951171875</ele>
        <time>2022-05-03T13:11:51.000Z</time>
      </trkpt>
      <trkpt lat="40.831644348800182342529296875" lon="-1.8863605521619319915771484375">
        <ele>1068.800048828125</ele>
        <time>2022-05-03T13:11:52.000Z</time>
      </trkpt>
      <trkpt lat="40.83162046037614345550537109375" lon="-1.88641578890383243560791015625">
        <ele>1068.199951171875</ele>
        <time>2022-05-03T13:11:53.000Z</time>
      </trkpt>
      <trkpt lat="40.83157016895711421966552734375" lon="-1.88653095625340938568115234375">
        <ele>1067.199951171875</ele>
        <time>2022-05-03T13:11:55.000Z</time>
      </trkpt>
      <trkpt lat="40.8315184526145458221435546875" lon="-1.8866405077278614044189453125">
        <ele>1067</ele>
        <time>2022-05-03T13:11:57.000Z</time>
      </trkpt>
      <trkpt lat="40.83149339072406291961669921875" lon="-1.88669540919363498687744140625">
        <ele>1066.800048828125</ele>
        <time>2022-05-03T13:11:58.000Z</time>
      </trkpt>
      <trkpt lat="40.831468664109706878662109375" lon="-1.8867477960884571075439453125">
        <ele>1066.800048828125</ele>
        <time>2022-05-03T13:11:59.000Z</time>
      </trkpt>
      <trkpt lat="40.83142013289034366607666015625" lon="-1.8868524022400379180908203125">
        <ele>1066.5999755859375</ele>
        <time>2022-05-03T13:12:01.000Z</time>
      </trkpt>
      <trkpt lat="40.83137101493775844573974609375" lon="-1.88695038668811321258544921875">
        <ele>1066.5999755859375</ele>
        <time>2022-05-03T13:12:03.000Z</time>
      </trkpt>
      <trkpt lat="40.83132483065128326416015625" lon="-1.8870435096323490142822265625">
        <ele>1066.5999755859375</ele>
        <time>2022-05-03T13:12:05.000Z</time>
      </trkpt>
      <trkpt lat="40.83127764053642749786376953125" lon="-1.88714032061398029327392578125">
        <ele>1066.800048828125</ele>
        <time>2022-05-03T13:12:07.000Z</time>
      </trkpt>
      <trkpt lat="40.8312552608549594879150390625" lon="-1.88718943856656551361083984375">
        <ele>1066.800048828125</ele>
        <time>2022-05-03T13:12:08.000Z</time>
      </trkpt>
      <trkpt lat="40.8312304504215717315673828125" lon="-1.8872384727001190185546875">
        <ele>1066.800048828125</ele>
        <time>2022-05-03T13:12:09.000Z</time>
      </trkpt>
      <trkpt lat="40.831177644431591033935546875" lon="-1.88733796589076519012451171875">
        <ele>1066.800048828125</ele>
        <time>2022-05-03T13:12:11.000Z</time>
      </trkpt>
      <trkpt lat="40.83112659864127635955810546875" lon="-1.88743955455720424652099609375">
        <ele>1067</ele>
        <time>2022-05-03T13:12:13.000Z</time>
      </trkpt>
      <trkpt lat="40.83107672631740570068359375" lon="-1.88754600472748279571533203125">
        <ele>1067.199951171875</ele>
        <time>2022-05-03T13:12:15.000Z</time>
      </trkpt>
      <trkpt lat="40.831023752689361572265625" lon="-1.88765128143131732940673828125">
        <ele>1067.4000244140625</ele>
        <time>2022-05-03T13:12:17.000Z</time>
      </trkpt>
      <trkpt lat="40.830967761576175689697265625" lon="-1.88775689341127872467041015625">
        <ele>1067.5999755859375</ele>
        <time>2022-05-03T13:12:19.000Z</time>
      </trkpt>
      <trkpt lat="40.83091252483427524566650390625" lon="-1.8878622539341449737548828125">
        <ele>1067.800048828125</ele>
        <time>2022-05-03T13:12:21.000Z</time>
      </trkpt>
      <trkpt lat="40.83085636608302593231201171875" lon="-1.8879698775708675384521484375">
        <ele>1068.199951171875</ele>
        <time>2022-05-03T13:12:23.000Z</time>
      </trkpt>
      <trkpt lat="40.83082652650773525238037109375" lon="-1.888022683560848236083984375">
        <ele>1068.4000244140625</ele>
        <time>2022-05-03T13:12:24.000Z</time>
      </trkpt>
      <trkpt lat="40.83079534582793712615966796875" lon="-1.8880761601030826568603515625">
        <ele>1068.5999755859375</ele>
        <time>2022-05-03T13:12:25.000Z</time>
      </trkpt>
      <trkpt lat="40.83073206245899200439453125" lon="-1.88817766495048999786376953125">
        <ele>1069</ele>
        <time>2022-05-03T13:12:27.000Z</time>
      </trkpt>
      <trkpt lat="40.83067196421325206756591796875" lon="-1.88827372156083583831787109375">
        <ele>1069.199951171875</ele>
        <time>2022-05-03T13:12:29.000Z</time>
      </trkpt>
      <trkpt lat="40.83060205914080142974853515625" lon="-1.888370029628276824951171875">
        <ele>1069.199951171875</ele>
        <time>2022-05-03T13:12:31.000Z</time>
      </trkpt>
      <trkpt lat="40.8305629156529903411865234375" lon="-1.888425014913082122802734375">
        <ele>1069.199951171875</ele>
        <time>2022-05-03T13:12:32.000Z</time>
      </trkpt>
      <trkpt lat="40.83051991648972034454345703125" lon="-1.88848360441625118255615234375">
        <ele>1069</ele>
        <time>2022-05-03T13:12:33.000Z</time>
      </trkpt>
      <trkpt lat="40.830429308116436004638671875" lon="-1.88860966823995113372802734375">
        <ele>1068.5999755859375</ele>
        <time>2022-05-03T13:12:35.000Z</time>
      </trkpt>
      <trkpt lat="40.8303845487534999847412109375" lon="-1.8886707723140716552734375">
        <ele>1068.5999755859375</ele>
        <time>2022-05-03T13:12:36.000Z</time>
      </trkpt>
      <trkpt lat="40.8303429745137691497802734375" lon="-1.88873321749269962310791015625">
        <ele>1068.4000244140625</ele>
        <time>2022-05-03T13:12:37.000Z</time>
      </trkpt>
      <trkpt lat="40.83030517213046550750732421875" lon="-1.888797841966152191162109375">
        <ele>1068.199951171875</ele>
        <time>2022-05-03T13:12:38.000Z</time>
      </trkpt>
      <trkpt lat="40.8302722312510013580322265625" lon="-1.8888650648295879364013671875">
        <ele>1068</ele>
        <time>2022-05-03T13:12:39.000Z</time>
      </trkpt>
      <trkpt lat="40.83021297119557857513427734375" lon="-1.8889958225190639495849609375">
        <ele>1067.800048828125</ele>
        <time>2022-05-03T13:12:41.000Z</time>
      </trkpt>
      <trkpt lat="40.830183885991573333740234375" lon="-1.889055334031581878662109375">
        <ele>1067.800048828125</ele>
        <time>2022-05-03T13:12:42.000Z</time>
      </trkpt>
      <trkpt lat="40.83015413023531436920166015625" lon="-1.88911057077348232269287109375">
        <ele>1068</ele>
        <time>2022-05-03T13:12:43.000Z</time>
      </trkpt>
      <trkpt lat="40.83009411580860614776611328125" lon="-1.8892117403447628021240234375">
        <ele>1068.199951171875</ele>
        <time>2022-05-03T13:12:45.000Z</time>
      </trkpt>
      <trkpt lat="40.83008221350610256195068359375" lon="-1.88926898874342441558837890625">
        <ele>1068.5999755859375</ele>
        <time>2022-05-03T13:12:46.000Z</time>
      </trkpt>
      <trkpt lat="40.83008523099124431610107421875" lon="-1.8893290869891643524169921875">
        <ele>1069</ele>
        <time>2022-05-03T13:12:47.000Z</time>
      </trkpt>
      <trkpt lat="40.83014792762696743011474609375" lon="-1.88941449858248233795166015625">
        <ele>1070</ele>
        <time>2022-05-03T13:12:49.000Z</time>
      </trkpt>
      <trkpt lat="40.830180533230304718017578125" lon="-1.88946613110601902008056640625">
        <ele>1070.4000244140625</ele>
        <time>2022-05-03T13:12:50.000Z</time>
      </trkpt>
      <trkpt lat="40.830212719738483428955078125" lon="-1.88951860181987285614013671875">
        <ele>1069.800048828125</ele>
        <time>2022-05-03T13:12:51.000Z</time>
      </trkpt>
      <trkpt lat="40.83027399145066738128662109375" lon="-1.8896217830479145050048828125">
        <ele>1069</ele>
        <time>2022-05-03T13:12:53.000Z</time>
      </trkpt>
      <trkpt lat="40.830334089696407318115234375" lon="-1.88973066397011280059814453125">
        <ele>1068.199951171875</ele>
        <time>2022-05-03T13:12:55.000Z</time>
      </trkpt>
      <trkpt lat="40.830366611480712890625" lon="-1.88978162594139575958251953125">
        <ele>1067.5999755859375</ele>
        <time>2022-05-03T13:12:56.000Z</time>
      </trkpt>
      <trkpt lat="40.8303987979888916015625" lon="-1.8898309953510761260986328125">
        <ele>1067.199951171875</ele>
        <time>2022-05-03T13:12:57.000Z</time>
      </trkpt>
      <trkpt lat="40.83045822568237781524658203125" lon="-1.88993065617978572845458984375">
        <ele>1066.800048828125</ele>
        <time>2022-05-03T13:12:59.000Z</time>
      </trkpt>
      <trkpt lat="40.83050969056785106658935546875" lon="-1.89001522958278656005859375">
        <ele>1067.199951171875</ele>
        <time>2022-05-03T13:13:01.000Z</time>
      </trkpt>
      <trkpt lat="40.83055436611175537109375" lon="-1.89010030589997768402099609375">
        <ele>1067.4000244140625</ele>
        <time>2022-05-03T13:13:03.000Z</time>
      </trkpt>
      <trkpt lat="40.830592922866344451904296875" lon="-1.89018881879746913909912109375">
        <ele>1068.199951171875</ele>
        <time>2022-05-03T13:13:05.000Z</time>
      </trkpt>
      <trkpt lat="40.830610692501068115234375" lon="-1.890234164893627166748046875">
        <ele>1068.5999755859375</ele>
        <time>2022-05-03T13:13:06.000Z</time>
      </trkpt>
      <trkpt lat="40.830626450479030609130859375" lon="-1.8902799300849437713623046875">
        <ele>1069</ele>
        <time>2022-05-03T13:13:07.000Z</time>
      </trkpt>
      <trkpt lat="40.8306629955768585205078125" lon="-1.8903630785644054412841796875">
        <ele>1069.5999755859375</ele>
        <time>2022-05-03T13:13:09.000Z</time>
      </trkpt>
      <trkpt lat="40.83068738691508769989013671875" lon="-1.890397779643535614013671875">
        <ele>1070</ele>
        <time>2022-05-03T13:13:10.000Z</time>
      </trkpt>
      <trkpt lat="40.830717645585536956787109375" lon="-1.89042317681014537811279296875">
        <ele>1070.199951171875</ele>
        <time>2022-05-03T13:13:11.000Z</time>
      </trkpt>
      <trkpt lat="40.8307863771915435791015625" lon="-1.89044035971164703369140625">
        <ele>1070.4000244140625</ele>
        <time>2022-05-03T13:13:13.000Z</time>
      </trkpt>
      <trkpt lat="40.830823592841625213623046875" lon="-1.8904344923794269561767578125">
        <ele>1070.5999755859375</ele>
        <time>2022-05-03T13:13:14.000Z</time>
      </trkpt>
      <trkpt lat="40.83086139522492885589599609375" lon="-1.8904251046478748321533203125">
        <ele>1070.5999755859375</ele>
        <time>2022-05-03T13:13:15.000Z</time>
      </trkpt>
      <trkpt lat="40.830941610038280487060546875" lon="-1.890397109091281890869140625">
        <ele>1070</ele>
        <time>2022-05-03T13:13:17.000Z</time>
      </trkpt>
      <trkpt lat="40.831030122935771942138671875" lon="-1.89036416821181774139404296875">
        <ele>1069.5999755859375</ele>
        <time>2022-05-03T13:13:19.000Z</time>
      </trkpt>
      <trkpt lat="40.83107530139386653900146484375" lon="-1.8903498351573944091796875">
        <ele>1069.4000244140625</ele>
        <time>2022-05-03T13:13:20.000Z</time>
      </trkpt>
      <trkpt lat="40.83112173713743686676025390625" lon="-1.89033801667392253875732421875">
        <ele>1069</ele>
        <time>2022-05-03T13:13:21.000Z</time>
      </trkpt>
      <trkpt lat="40.831215865910053253173828125" lon="-1.8903154693543910980224609375">
        <ele>1068.5999755859375</ele>
        <time>2022-05-03T13:13:23.000Z</time>
      </trkpt>
      <trkpt lat="40.83131100051105022430419921875" lon="-1.89027816988527774810791015625">
        <ele>1068</ele>
        <time>2022-05-03T13:13:25.000Z</time>
      </trkpt>
      <trkpt lat="40.8313575200736522674560546875" lon="-1.89025268889963626861572265625">
        <ele>1067.800048828125</ele>
        <time>2022-05-03T13:13:26.000Z</time>
      </trkpt>
      <trkpt lat="40.8314021117985248565673828125" lon="-1.89022251404821872711181640625">
        <ele>1067.5999755859375</ele>
        <time>2022-05-03T13:13:27.000Z</time>
      </trkpt>
      <trkpt lat="40.83144955337047576904296875" lon="-1.89018798060715198516845703125">
        <ele>1067.199951171875</ele>
        <time>2022-05-03T13:13:28.000Z</time>
      </trkpt>
      <trkpt lat="40.83149657584726810455322265625" lon="-1.89015311188995838165283203125">
        <ele>1067</ele>
        <time>2022-05-03T13:13:29.000Z</time>
      </trkpt>
      <trkpt lat="40.8315972425043582916259765625" lon="-1.89009209163486957550048828125">
        <ele>1066.5999755859375</ele>
        <time>2022-05-03T13:13:31.000Z</time>
      </trkpt>
      <trkpt lat="40.83165113814175128936767578125" lon="-1.89006694592535495758056640625">
        <ele>1066.199951171875</ele>
        <time>2022-05-03T13:13:32.000Z</time>
      </trkpt>
      <trkpt lat="40.83170712925493717193603515625" lon="-1.89004833810031414031982421875">
        <ele>1066</ele>
        <time>2022-05-03T13:13:33.000Z</time>
      </trkpt>
      <trkpt lat="40.8318242244422435760498046875" lon="-1.8900254555046558380126953125">
        <ele>1065.199951171875</ele>
        <time>2022-05-03T13:13:35.000Z</time>
      </trkpt>
      <trkpt lat="40.83194081671535968780517578125" lon="-1.89001212827861309051513671875">
        <ele>1064.5999755859375</ele>
        <time>2022-05-03T13:13:37.000Z</time>
      </trkpt>
      <trkpt lat="40.832053720951080322265625" lon="-1.88999922014772891998291015625">
        <ele>1063.800048828125</ele>
        <time>2022-05-03T13:13:39.000Z</time>
      </trkpt>
      <trkpt lat="40.83216545172035694122314453125" lon="-1.88998899422585964202880859375">
        <ele>1063.4000244140625</ele>
        <time>2022-05-03T13:13:41.000Z</time>
      </trkpt>
      <trkpt lat="40.83226720802485942840576171875" lon="-1.8899770081043243408203125">
        <ele>1063.800048828125</ele>
        <time>2022-05-03T13:13:43.000Z</time>
      </trkpt>
      <trkpt lat="40.83231934346258640289306640625" lon="-1.88995781354606151580810546875">
        <ele>1064</ele>
        <time>2022-05-03T13:13:44.000Z</time>
      </trkpt>
      <trkpt lat="40.83237231709063053131103515625" lon="-1.88993384130299091339111328125">
        <ele>1064.199951171875</ele>
        <time>2022-05-03T13:13:45.000Z</time>
      </trkpt>
      <trkpt lat="40.83247155882418155670166015625" lon="-1.88987483270466327667236328125">
        <ele>1064.5999755859375</ele>
        <time>2022-05-03T13:13:47.000Z</time>
      </trkpt>
      <trkpt lat="40.83256107755005359649658203125" lon="-1.88980811275541782379150390625">
        <ele>1065</ele>
        <time>2022-05-03T13:13:49.000Z</time>
      </trkpt>
      <trkpt lat="40.8326044119894504547119140625" lon="-1.8897750042378902435302734375">
        <ele>1065.199951171875</ele>
        <time>2022-05-03T13:13:50.000Z</time>
      </trkpt>
      <trkpt lat="40.83264707587659358978271484375" lon="-1.889742650091648101806640625">
        <ele>1065.4000244140625</ele>
        <time>2022-05-03T13:13:51.000Z</time>
      </trkpt>
      <trkpt lat="40.8327348344027996063232421875" lon="-1.88967458903789520263671875">
        <ele>1065.5999755859375</ele>
        <time>2022-05-03T13:13:53.000Z</time>
      </trkpt>
      <trkpt lat="40.8328240178525447845458984375" lon="-1.88960175029933452606201171875">
        <ele>1066</ele>
        <time>2022-05-03T13:13:55.000Z</time>
      </trkpt>
      <trkpt lat="40.8329080045223236083984375" lon="-1.88952815718948841094970703125">
        <ele>1066.199951171875</ele>
        <time>2022-05-03T13:13:57.000Z</time>
      </trkpt>
      <trkpt lat="40.83299207501113414764404296875" lon="-1.8894538097083568572998046875">
        <ele>1066.4000244140625</ele>
        <time>2022-05-03T13:13:59.000Z</time>
      </trkpt>
      <trkpt lat="40.83307187072932720184326171875" lon="-1.889374516904354095458984375">
        <ele>1066.5999755859375</ele>
        <time>2022-05-03T13:14:01.000Z</time>
      </trkpt>
      <trkpt lat="40.83314479328691959381103515625" lon="-1.8892876803874969482421875">
        <ele>1067</ele>
        <time>2022-05-03T13:14:03.000Z</time>
      </trkpt>
      <trkpt lat="40.83321386016905307769775390625" lon="-1.88919455744326114654541015625">
        <ele>1067.199951171875</ele>
        <time>2022-05-03T13:14:05.000Z</time>
      </trkpt>
      <trkpt lat="40.8332799933850765228271484375" lon="-1.8891010992228984832763671875">
        <ele>1067.4000244140625</ele>
        <time>2022-05-03T13:14:07.000Z</time>
      </trkpt>
      <trkpt lat="40.83334176801145076751708984375" lon="-1.88901074230670928955078125">
        <ele>1067.4000244140625</ele>
        <time>2022-05-03T13:14:09.000Z</time>
      </trkpt>
      <trkpt lat="40.83339742384850978851318359375" lon="-1.88892516307532787322998046875">
        <ele>1067.5999755859375</ele>
        <time>2022-05-03T13:14:11.000Z</time>
      </trkpt>
      <trkpt lat="40.83344419486820697784423828125" lon="-1.888834722340106964111328125">
        <ele>1067.5999755859375</ele>
        <time>2022-05-03T13:14:13.000Z</time>
      </trkpt>
      <trkpt lat="40.83349264226853847503662109375" lon="-1.88873489387333393096923828125">
        <ele>1067.5999755859375</ele>
        <time>2022-05-03T13:14:15.000Z</time>
      </trkpt>
      <trkpt lat="40.83352231420576572418212890625" lon="-1.888688541948795318603515625">
        <ele>1067.5999755859375</ele>
        <time>2022-05-03T13:14:16.000Z</time>
      </trkpt>
      <trkpt lat="40.8335562609136104583740234375" lon="-1.8886484764516353607177734375">
        <ele>1067.800048828125</ele>
        <time>2022-05-03T13:14:17.000Z</time>
      </trkpt>
      <trkpt lat="40.83359255455434322357177734375" lon="-1.8886115960776805877685546875">
        <ele>1068</ele>
        <time>2022-05-03T13:14:18.000Z</time>
      </trkpt>
      <trkpt lat="40.83363044075667858123779296875" lon="-1.8885750509798526763916015625">
        <ele>1068.199951171875</ele>
        <time>2022-05-03T13:14:19.000Z</time>
      </trkpt>
      <trkpt lat="40.83366983570158481597900390625" lon="-1.8885415233671665191650390625">
        <ele>1068.4000244140625</ele>
        <time>2022-05-03T13:14:20.000Z</time>
      </trkpt>
      <trkpt lat="40.83371191285550594329833984375" lon="-1.888512186706066131591796875">
        <ele>1068.5999755859375</ele>
        <time>2022-05-03T13:14:21.000Z</time>
      </trkpt>
      <trkpt lat="40.8337966538965702056884765625" lon="-1.88846717588603496551513671875">
        <ele>1069.199951171875</ele>
        <time>2022-05-03T13:14:23.000Z</time>
      </trkpt>
      <trkpt lat="40.83383747376501560211181640625" lon="-1.88844873569905757904052734375">
        <ele>1069.5999755859375</ele>
        <time>2022-05-03T13:14:24.000Z</time>
      </trkpt>
      <trkpt lat="40.83387401886284351348876953125" lon="-1.88842828385531902313232421875">
        <ele>1069.800048828125</ele>
        <time>2022-05-03T13:14:25.000Z</time>
      </trkpt>
      <trkpt lat="40.83394107408821582794189453125" lon="-1.8883903138339519500732421875">
        <ele>1069.4000244140625</ele>
        <time>2022-05-03T13:14:27.000Z</time>
      </trkpt>
      <trkpt lat="40.83400527946650981903076171875" lon="-1.88836089335381984710693359375">
        <ele>1068.5999755859375</ele>
        <time>2022-05-03T13:14:29.000Z</time>
      </trkpt>
      <trkpt lat="40.8340383879840373992919921875" lon="-1.8883477337658405303955078125">
        <ele>1068.4000244140625</ele>
        <time>2022-05-03T13:14:30.000Z</time>
      </trkpt>
      <trkpt lat="40.834073759615421295166015625" lon="-1.88833708874881267547607421875">
        <ele>1068</ele>
        <time>2022-05-03T13:14:31.000Z</time>
      </trkpt>
      <trkpt lat="40.8341527171432971954345703125" lon="-1.88832032494246959686279296875">
        <ele>1067.199951171875</ele>
        <time>2022-05-03T13:14:33.000Z</time>
      </trkpt>
      <trkpt lat="40.83423293195664882659912109375" lon="-1.8883044831454753875732421875">
        <ele>1066.4000244140625</ele>
        <time>2022-05-03T13:14:35.000Z</time>
      </trkpt>
      <trkpt lat="40.83427383564412593841552734375" lon="-1.88829987309873104095458984375">
        <ele>1066.199951171875</ele>
        <time>2022-05-03T13:14:36.000Z</time>
      </trkpt>
      <trkpt lat="40.8343146555125713348388671875" lon="-1.88829568214714527130126953125">
        <ele>1065.800048828125</ele>
        <time>2022-05-03T13:14:37.000Z</time>
      </trkpt>
      <trkpt lat="40.8343974687159061431884765625" lon="-1.8882830254733562469482421875">
        <ele>1065</ele>
        <time>2022-05-03T13:14:39.000Z</time>
      </trkpt>
      <trkpt lat="40.83448388613760471343994140625" lon="-1.888254694640636444091796875">
        <ele>1064.199951171875</ele>
        <time>2022-05-03T13:14:41.000Z</time>
      </trkpt>
      <trkpt lat="40.83452646620571613311767578125" lon="-1.88824119977653026580810546875">
        <ele>1063.5999755859375</ele>
        <time>2022-05-03T13:14:42.000Z</time>
      </trkpt>
      <trkpt lat="40.83456762135028839111328125" lon="-1.88823449425399303436279296875">
        <ele>1063.4000244140625</ele>
        <time>2022-05-03T13:14:43.000Z</time>
      </trkpt>
      <trkpt lat="40.8346475847065448760986328125" lon="-1.88822577707469463348388671875">
        <ele>1062.5999755859375</ele>
        <time>2022-05-03T13:14:45.000Z</time>
      </trkpt>
      <trkpt lat="40.8347183279693126678466796875" lon="-1.88821940682828426361083984375">
        <ele>1062</ele>
        <time>2022-05-03T13:14:47.000Z</time>
      </trkpt>
      <trkpt lat="40.8347592316567897796630859375" lon="-1.88821504823863506317138671875">
        <ele>1062</ele>
        <time>2022-05-03T13:14:48.000Z</time>
      </trkpt>
      <trkpt lat="40.8347991295158863067626953125" lon="-1.888207085430622100830078125">
        <ele>1062</ele>
        <time>2022-05-03T13:14:49.000Z</time>
      </trkpt>
      <trkpt lat="40.83487682975828647613525390625" lon="-1.88819292001426219940185546875">
        <ele>1061.800048828125</ele>
        <time>2022-05-03T13:14:51.000Z</time>
      </trkpt>
      <trkpt lat="40.8349545300006866455078125" lon="-1.88818755559623241424560546875">
        <ele>1061.5999755859375</ele>
        <time>2022-05-03T13:14:53.000Z</time>
      </trkpt>
      <trkpt lat="40.83499283529818058013916015625" lon="-1.88818755559623241424560546875">
        <ele>1061.5999755859375</ele>
        <time>2022-05-03T13:14:54.000Z</time>
      </trkpt>
      <trkpt lat="40.8350287936627864837646484375" lon="-1.888189651072025299072265625">
        <ele>1061.4000244140625</ele>
        <time>2022-05-03T13:14:55.000Z</time>
      </trkpt>
      <trkpt lat="40.83509073592722415924072265625" lon="-1.88821068964898586273193359375">
        <ele>1061.199951171875</ele>
        <time>2022-05-03T13:14:57.000Z</time>
      </trkpt>
      <trkpt lat="40.83516617305576801300048828125" lon="-1.8882300518453121185302734375">
        <ele>1061</ele>
        <time>2022-05-03T13:14:59.000Z</time>
      </trkpt>
      <trkpt lat="40.83524647168815135955810546875" lon="-1.88825712539255619049072265625">
        <ele>1061</ele>
        <time>2022-05-03T13:15:01.000Z</time>
      </trkpt>
      <trkpt lat="40.8353255130350589752197265625" lon="-1.88827439211308956146240234375">
        <ele>1061</ele>
        <time>2022-05-03T13:15:03.000Z</time>
      </trkpt>
      <trkpt lat="40.83540254272520542144775390625" lon="-1.88828528858721256256103515625">
        <ele>1060.800048828125</ele>
        <time>2022-05-03T13:15:05.000Z</time>
      </trkpt>
      <trkpt lat="40.8354787342250347137451171875" lon="-1.888293586671352386474609375">
        <ele>1060.800048828125</ele>
        <time>2022-05-03T13:15:07.000Z</time>
      </trkpt>
      <trkpt lat="40.83555961959064006805419921875" lon="-1.8883182294666767120361328125">
        <ele>1060</ele>
        <time>2022-05-03T13:15:09.000Z</time>
      </trkpt>
      <trkpt lat="40.83563606254756450653076171875" lon="-1.8883416987955570220947265625">
        <ele>1060</ele>
        <time>2022-05-03T13:15:11.000Z</time>
      </trkpt>
      <trkpt lat="40.83571384660899639129638671875" lon="-1.88836206682026386260986328125">
        <ele>1059.800048828125</ele>
        <time>2022-05-03T13:15:13.000Z</time>
      </trkpt>
      <trkpt lat="40.8357922174036502838134765625" lon="-1.888376735150814056396484375">
        <ele>1059.5999755859375</ele>
        <time>2022-05-03T13:15:15.000Z</time>
      </trkpt>
      <trkpt lat="40.83587595261633396148681640625" lon="-1.888392157852649688720703125">
        <ele>1059.4000244140625</ele>
        <time>2022-05-03T13:15:17.000Z</time>
      </trkpt>
      <trkpt lat="40.83596161566674709320068359375" lon="-1.888411939144134521484375">
        <ele>1059.199951171875</ele>
        <time>2022-05-03T13:15:19.000Z</time>
      </trkpt>
      <trkpt lat="40.83604283630847930908203125" lon="-1.88843540847301483154296875">
        <ele>1059</ele>
        <time>2022-05-03T13:15:21.000Z</time>
      </trkpt>
      <trkpt lat="40.83612196147441864013671875" lon="-1.88844890333712100982666015625">
        <ele>1059</ele>
        <time>2022-05-03T13:15:23.000Z</time>
      </trkpt>
      <trkpt lat="40.836202092468738555908203125" lon="-1.888458542525768280029296875">
        <ele>1058.800048828125</ele>
        <time>2022-05-03T13:15:25.000Z</time>
      </trkpt>
      <trkpt lat="40.83628515712916851043701171875" lon="-1.88846901990473270416259765625">
        <ele>1058.5999755859375</ele>
        <time>2022-05-03T13:15:27.000Z</time>
      </trkpt>
      <trkpt lat="40.83637014962732791900634765625" lon="-1.8884758092463016510009765625">
        <ele>1058.4000244140625</ele>
        <time>2022-05-03T13:15:29.000Z</time>
      </trkpt>
      <trkpt lat="40.83645178936421871185302734375" lon="-1.888488717377185821533203125">
        <ele>1058.4000244140625</ele>
        <time>2022-05-03T13:15:31.000Z</time>
      </trkpt>
      <trkpt lat="40.8365289866924285888671875" lon="-1.88850187696516513824462890625">
        <ele>1058.4000244140625</ele>
        <time>2022-05-03T13:15:33.000Z</time>
      </trkpt>
      <trkpt lat="40.83659646101295948028564453125" lon="-1.88851394690573215484619140625">
        <ele>1058.4000244140625</ele>
        <time>2022-05-03T13:15:35.000Z</time>
      </trkpt>
      <trkpt lat="40.83664943464100360870361328125" lon="-1.88852082006633281707763671875">
        <ele>1058.4000244140625</ele>
        <time>2022-05-03T13:15:37.000Z</time>
      </trkpt>
      <trkpt lat="40.83668530918657779693603515625" lon="-1.88852819614112377166748046875">
        <ele>1058.4000244140625</ele>
        <time>2022-05-03T13:15:39.000Z</time>
      </trkpt>
      <trkpt lat="40.83669587038457393646240234375" lon="-1.888526938855648040771484375">
        <ele>1058.4000244140625</ele>
        <time>2022-05-03T13:15:41.000Z</time>
      </trkpt>
      <trkpt lat="40.8366961218416690826416015625" lon="-1.88852735795080661773681640625">
        <ele>1058.4000244140625</ele>
        <time>2022-05-03T13:15:42.000Z</time>
      </trkpt>
      <trkpt lat="40.8367219381034374237060546875" lon="-1.88851964659988880157470703125">
        <ele>1058.4000244140625</ele>
        <time>2022-05-03T13:20:18.000Z</time>
      </trkpt>
      <trkpt lat="40.836739204823970794677734375" lon="-1.8885230831801891326904296875">
        <ele>1058.4000244140625</ele>
        <time>2022-05-03T13:20:19.000Z</time>
      </trkpt>
      <trkpt lat="40.83678035996854305267333984375" lon="-1.8885294534265995025634765625">
        <ele>1058.4000244140625</ele>
        <time>2022-05-03T13:20:21.000Z</time>
      </trkpt>
      <trkpt lat="40.836829729378223419189453125" lon="-1.888531632721424102783203125">
        <ele>1058.4000244140625</ele>
        <time>2022-05-03T13:20:23.000Z</time>
      </trkpt>
      <trkpt lat="40.8368562161922454833984375" lon="-1.88853154890239238739013671875">
        <ele>1058.4000244140625</ele>
        <time>2022-05-03T13:20:24.000Z</time>
      </trkpt>
      <trkpt lat="40.8368835411965847015380859375" lon="-1.88853330910205841064453125">
        <ele>1058.4000244140625</ele>
        <time>2022-05-03T13:20:25.000Z</time>
      </trkpt>
      <trkpt lat="40.8369408734142780303955078125" lon="-1.88853926025331020355224609375">
        <ele>1058.4000244140625</ele>
        <time>2022-05-03T13:20:27.000Z</time>
      </trkpt>
      <trkpt lat="40.83699904382228851318359375" lon="-1.8885515816509723663330078125">
        <ele>1058.4000244140625</ele>
        <time>2022-05-03T13:20:29.000Z</time>
      </trkpt>
      <trkpt lat="40.8370598964393138885498046875" lon="-1.88856842927634716033935546875">
        <ele>1058.4000244140625</ele>
        <time>2022-05-03T13:20:31.000Z</time>
      </trkpt>
      <trkpt lat="40.8370904065668582916259765625" lon="-1.88857756555080413818359375">
        <ele>1058.4000244140625</ele>
        <time>2022-05-03T13:20:32.000Z</time>
      </trkpt>
      <trkpt lat="40.83712376654148101806640625" lon="-1.888583600521087646484375">
        <ele>1058.4000244140625</ele>
        <time>2022-05-03T13:20:33.000Z</time>
      </trkpt>
      <trkpt lat="40.83719392307102680206298828125" lon="-1.88859407790005207061767578125">
        <ele>1058.4000244140625</ele>
        <time>2022-05-03T13:20:35.000Z</time>
      </trkpt>
      <trkpt lat="40.83726282231509685516357421875" lon="-1.8886159546673297882080078125">
        <ele>1058.5999755859375</ele>
        <time>2022-05-03T13:20:37.000Z</time>
      </trkpt>
      <trkpt lat="40.837297774851322174072265625" lon="-1.88862961716949939727783203125">
        <ele>1058.800048828125</ele>
        <time>2022-05-03T13:20:38.000Z</time>
      </trkpt>
      <trkpt lat="40.83733390085399150848388671875" lon="-1.88863967545330524444580078125">
        <ele>1058.800048828125</ele>
        <time>2022-05-03T13:20:39.000Z</time>
      </trkpt>
      <trkpt lat="40.837409757077693939208984375" lon="-1.88865358941256999969482421875">
        <ele>1059.199951171875</ele>
        <time>2022-05-03T13:20:41.000Z</time>
      </trkpt>
      <trkpt lat="40.83748075179755687713623046875" lon="-1.88866482116281986236572265625">
        <ele>1059.4000244140625</ele>
        <time>2022-05-03T13:20:43.000Z</time>
      </trkpt>
      <trkpt lat="40.83755652420222759246826171875" lon="-1.8886709399521350860595703125">
        <ele>1059.800048828125</ele>
        <time>2022-05-03T13:20:45.000Z</time>
      </trkpt>
      <trkpt lat="40.83763338625431060791015625" lon="-1.88868527300655841827392578125">
        <ele>1060</ele>
        <time>2022-05-03T13:20:47.000Z</time>
      </trkpt>
      <trkpt lat="40.8377103321254253387451171875" lon="-1.88871796242892742156982421875">
        <ele>1060.5999755859375</ele>
        <time>2022-05-03T13:20:49.000Z</time>
      </trkpt>
      <trkpt lat="40.8377861045300960540771484375" lon="-1.8887604586780071258544921875">
        <ele>1061.199951171875</ele>
        <time>2022-05-03T13:20:51.000Z</time>
      </trkpt>
      <trkpt lat="40.8378608711063861846923828125" lon="-1.88881091773509979248046875">
        <ele>1062</ele>
        <time>2022-05-03T13:20:53.000Z</time>
      </trkpt>
      <trkpt lat="40.837936811149120330810546875" lon="-1.88886079005897045135498046875">
        <ele>1062.5999755859375</ele>
        <time>2022-05-03T13:20:55.000Z</time>
      </trkpt>
      <trkpt lat="40.8380154334008693695068359375" lon="-1.8889069743454456329345703125">
        <ele>1063.199951171875</ele>
        <time>2022-05-03T13:20:57.000Z</time>
      </trkpt>
      <trkpt lat="40.83809606730937957763671875" lon="-1.8889443576335906982421875">
        <ele>1063.5999755859375</ele>
        <time>2022-05-03T13:20:59.000Z</time>
      </trkpt>
      <trkpt lat="40.83817510865628719329833984375" lon="-1.8889767117798328399658203125">
        <ele>1063.800048828125</ele>
        <time>2022-05-03T13:21:01.000Z</time>
      </trkpt>
      <trkpt lat="40.8382568322122097015380859375" lon="-1.88900680281221866607666015625">
        <ele>1064.199951171875</ele>
        <time>2022-05-03T13:21:03.000Z</time>
      </trkpt>
      <trkpt lat="40.83834014832973480224609375" lon="-1.88903488218784332275390625">
        <ele>1064.5999755859375</ele>
        <time>2022-05-03T13:21:05.000Z</time>
      </trkpt>
      <trkpt lat="40.838378369808197021484375" lon="-1.889046616852283477783203125">
        <ele>1064.5999755859375</ele>
        <time>2022-05-03T13:21:06.000Z</time>
      </trkpt>
      <trkpt lat="40.83842053078114986419677734375" lon="-1.88905826769769191741943359375">
        <ele>1064.800048828125</ele>
        <time>2022-05-03T13:21:07.000Z</time>
      </trkpt>
      <trkpt lat="40.83850200287997722625732421875" lon="-1.88908140175044536590576171875">
        <ele>1065</ele>
        <time>2022-05-03T13:21:09.000Z</time>
      </trkpt>
      <trkpt lat="40.83857894875109195709228515625" lon="-1.8891052901744842529296875">
        <ele>1065.199951171875</ele>
        <time>2022-05-03T13:21:11.000Z</time>
      </trkpt>
      <trkpt lat="40.83865405060350894927978515625" lon="-1.8891255743801593780517578125">
        <ele>1065.4000244140625</ele>
        <time>2022-05-03T13:21:13.000Z</time>
      </trkpt>
      <trkpt lat="40.8386893384158611297607421875" lon="-1.88913571648299694061279296875">
        <ele>1065.5999755859375</ele>
        <time>2022-05-03T13:21:14.000Z</time>
      </trkpt>
      <trkpt lat="40.83872529678046703338623046875" lon="-1.88914460130035877227783203125">
        <ele>1065.5999755859375</ele>
        <time>2022-05-03T13:21:15.000Z</time>
      </trkpt>
      <trkpt lat="40.83879268728196620941162109375" lon="-1.88915935344994068145751953125">
        <ele>1065.800048828125</ele>
        <time>2022-05-03T13:21:17.000Z</time>
      </trkpt>
      <trkpt lat="40.8388573117554187774658203125" lon="-1.88917662017047405242919921875">
        <ele>1066.800048828125</ele>
        <time>2022-05-03T13:21:19.000Z</time>
      </trkpt>
      <trkpt lat="40.8389263786375522613525390625" lon="-1.88919036649167537689208984375">
        <ele>1067.5999755859375</ele>
        <time>2022-05-03T13:21:21.000Z</time>
      </trkpt>
      <trkpt lat="40.83896887488663196563720703125" lon="-1.8891991674900054931640625">
        <ele>1068</ele>
        <time>2022-05-03T13:21:22.000Z</time>
      </trkpt>
      <trkpt lat="40.83900659345090389251708984375" lon="-1.88920696265995502471923828125">
        <ele>1068.4000244140625</ele>
        <time>2022-05-03T13:21:23.000Z</time>
      </trkpt>
      <trkpt lat="40.839078426361083984375" lon="-1.889214925467967987060546875">
        <ele>1069</ele>
        <time>2022-05-03T13:21:25.000Z</time>
      </trkpt>
      <trkpt lat="40.83914891816675662994384765625" lon="-1.8892174400389194488525390625">
        <ele>1069.5999755859375</ele>
        <time>2022-05-03T13:21:27.000Z</time>
      </trkpt>
      <trkpt lat="40.83921320736408233642578125" lon="-1.8892154283821582794189453125">
        <ele>1070</ele>
        <time>2022-05-03T13:21:29.000Z</time>
      </trkpt>
      <trkpt lat="40.83927179686725139617919921875" lon="-1.88919983804225921630859375">
        <ele>1070.199951171875</ele>
        <time>2022-05-03T13:21:31.000Z</time>
      </trkpt>
      <trkpt lat="40.83930172026157379150390625" lon="-1.88919355161488056182861328125">
        <ele>1070.4000244140625</ele>
        <time>2022-05-03T13:21:32.000Z</time>
      </trkpt>
      <trkpt lat="40.83933298476040363311767578125" lon="-1.8891857564449310302734375">
        <ele>1070.5999755859375</ele>
        <time>2022-05-03T13:21:33.000Z</time>
      </trkpt>
      <trkpt lat="40.83936399780213832855224609375" lon="-1.8891750276088714599609375">
        <ele>1070.5999755859375</ele>
        <time>2022-05-03T13:21:34.000Z</time>
      </trkpt>
      <trkpt lat="40.839393921196460723876953125" lon="-1.8891627900302410125732421875">
        <ele>1070.5999755859375</ele>
        <time>2022-05-03T13:21:35.000Z</time>
      </trkpt>
      <trkpt lat="40.839456282556056976318359375" lon="-1.88913906924426555633544921875">
        <ele>1070.800048828125</ele>
        <time>2022-05-03T13:21:37.000Z</time>
      </trkpt>
      <trkpt lat="40.83952710963785648345947265625" lon="-1.88912339508533477783203125">
        <ele>1071.199951171875</ele>
        <time>2022-05-03T13:21:39.000Z</time>
      </trkpt>
      <trkpt lat="40.8395929075777530670166015625" lon="-1.88911140896379947662353515625">
        <ele>1071.5999755859375</ele>
        <time>2022-05-03T13:21:41.000Z</time>
      </trkpt>
      <trkpt lat="40.83965535275638103485107421875" lon="-1.88910185359418392181396484375">
        <ele>1072</ele>
        <time>2022-05-03T13:21:43.000Z</time>
      </trkpt>
      <trkpt lat="40.83968217484652996063232421875" lon="-1.88909925520420074462890625">
        <ele>1072</ele>
        <time>2022-05-03T13:21:44.000Z</time>
      </trkpt>
      <trkpt lat="40.8397042192518711090087890625" lon="-1.88909464515745639801025390625">
        <ele>1072.199951171875</ele>
        <time>2022-05-03T13:21:45.000Z</time>
      </trkpt>
      <trkpt lat="40.839722156524658203125" lon="-1.8890890292823314666748046875">
        <ele>1072.4000244140625</ele>
        <time>2022-05-03T13:21:46.000Z</time>
      </trkpt>
      <trkpt lat="40.839738585054874420166015625" lon="-1.88908274285495281219482421875">
        <ele>1072.199951171875</ele>
        <time>2022-05-03T13:21:47.000Z</time>
      </trkpt>
      <trkpt lat="40.8397709392011165618896484375" lon="-1.88906966708600521087646484375">
        <ele>1071.800048828125</ele>
        <time>2022-05-03T13:21:49.000Z</time>
      </trkpt>
      <trkpt lat="40.83980865776538848876953125" lon="-1.889050304889678955078125">
        <ele>1071.4000244140625</ele>
        <time>2022-05-03T13:21:51.000Z</time>
      </trkpt>
      <trkpt lat="40.8398617990314960479736328125" lon="-1.88902951776981353759765625">
        <ele>1070.800048828125</ele>
        <time>2022-05-03T13:21:53.000Z</time>
      </trkpt>
      <trkpt lat="40.839922316372394561767578125" lon="-1.8889961577951908111572265625">
        <ele>1070.199951171875</ele>
        <time>2022-05-03T13:21:55.000Z</time>
      </trkpt>
      <trkpt lat="40.83998425863683223724365234375" lon="-1.8889485485851764678955078125">
        <ele>1069.4000244140625</ele>
        <time>2022-05-03T13:21:57.000Z</time>
      </trkpt>
      <trkpt lat="40.84004930220544338226318359375" lon="-1.8888831697404384613037109375">
        <ele>1068.5999755859375</ele>
        <time>2022-05-03T13:21:59.000Z</time>
      </trkpt>
      <trkpt lat="40.84010965190827846527099609375" lon="-1.8888110853731632232666015625">
        <ele>1067.5999755859375</ele>
        <time>2022-05-03T13:22:01.000Z</time>
      </trkpt>
      <trkpt lat="40.84017486311495304107666015625" lon="-1.88875584863126277923583984375">
        <ele>1066.800048828125</ele>
        <time>2022-05-03T13:22:03.000Z</time>
      </trkpt>
      <trkpt lat="40.840256921947002410888671875" lon="-1.888722740113735198974609375">
        <ele>1066</ele>
        <time>2022-05-03T13:22:05.000Z</time>
      </trkpt>
      <trkpt lat="40.8403404057025909423828125" lon="-1.88870321027934551239013671875">
        <ele>1065.199951171875</ele>
        <time>2022-05-03T13:22:07.000Z</time>
      </trkpt>
      <trkpt lat="40.840413160622119903564453125" lon="-1.88869331963360309600830078125">
        <ele>1064.800048828125</ele>
        <time>2022-05-03T13:22:09.000Z</time>
      </trkpt>
      <trkpt lat="40.84048189222812652587890625" lon="-1.88868351280689239501953125">
        <ele>1064.199951171875</ele>
        <time>2022-05-03T13:22:11.000Z</time>
      </trkpt>
      <trkpt lat="40.84054634906351566314697265625" lon="-1.88868259079754352569580078125">
        <ele>1063.800048828125</ele>
        <time>2022-05-03T13:22:13.000Z</time>
      </trkpt>
      <trkpt lat="40.8406091295182704925537109375" lon="-1.8886868655681610107421875">
        <ele>1064.199951171875</ele>
        <time>2022-05-03T13:22:15.000Z</time>
      </trkpt>
      <trkpt lat="40.84066889248788356781005859375" lon="-1.8887027911841869354248046875">
        <ele>1064.800048828125</ele>
        <time>2022-05-03T13:22:17.000Z</time>
      </trkpt>
      <trkpt lat="40.84070040844380855560302734375" lon="-1.88870941288769245147705078125">
        <ele>1065</ele>
        <time>2022-05-03T13:22:18.000Z</time>
      </trkpt>
      <trkpt lat="40.8407345227897167205810546875" lon="-1.888712681829929351806640625">
        <ele>1065.4000244140625</ele>
        <time>2022-05-03T13:22:19.000Z</time>
      </trkpt>
      <trkpt lat="40.84079646505415439605712890625" lon="-1.88872902654111385345458984375">
        <ele>1066</ele>
        <time>2022-05-03T13:22:21.000Z</time>
      </trkpt>
      <trkpt lat="40.8408592455089092254638671875" lon="-1.88876087777316570281982421875">
        <ele>1066.5999755859375</ele>
        <time>2022-05-03T13:22:23.000Z</time>
      </trkpt>
      <trkpt lat="40.84092621691524982452392578125" lon="-1.88880345784127712249755859375">
        <ele>1066.199951171875</ele>
        <time>2022-05-03T13:22:25.000Z</time>
      </trkpt>
      <trkpt lat="40.84098455496132373809814453125" lon="-1.8888570182025432586669921875">
        <ele>1065.5999755859375</ele>
        <time>2022-05-03T13:22:27.000Z</time>
      </trkpt>
      <trkpt lat="40.84101204760372638702392578125" lon="-1.88888643868267536163330078125">
        <ele>1065.4000244140625</ele>
        <time>2022-05-03T13:22:28.000Z</time>
      </trkpt>
      <trkpt lat="40.841038115322589874267578125" lon="-1.88891351222991943359375">
        <ele>1065.199951171875</ele>
        <time>2022-05-03T13:22:29.000Z</time>
      </trkpt>
      <trkpt lat="40.84108228795230388641357421875" lon="-1.8889733590185642242431640625">
        <ele>1064.800048828125</ele>
        <time>2022-05-03T13:22:31.000Z</time>
      </trkpt>
      <trkpt lat="40.8411241136491298675537109375" lon="-1.88903865404427051544189453125">
        <ele>1064.4000244140625</ele>
        <time>2022-05-03T13:22:33.000Z</time>
      </trkpt>
      <trkpt lat="40.84114666096866130828857421875" lon="-1.889070756733417510986328125">
        <ele>1064.199951171875</ele>
        <time>2022-05-03T13:22:34.000Z</time>
      </trkpt>
      <trkpt lat="40.84116853773593902587890625" lon="-1.88910151831805706024169921875">
        <ele>1064.5999755859375</ele>
        <time>2022-05-03T13:22:35.000Z</time>
      </trkpt>
      <trkpt lat="40.84120198152959346771240234375" lon="-1.8891627900302410125732421875">
        <ele>1065</ele>
        <time>2022-05-03T13:22:37.000Z</time>
      </trkpt>
      <trkpt lat="40.84122628904879093170166015625" lon="-1.8892191164195537567138671875">
        <ele>1065.5999755859375</ele>
        <time>2022-05-03T13:22:39.000Z</time>
      </trkpt>
      <trkpt lat="40.8412371017038822174072265625" lon="-1.8892472796142101287841796875">
        <ele>1065.800048828125</ele>
        <time>2022-05-03T13:22:40.000Z</time>
      </trkpt>
      <trkpt lat="40.841250009834766387939453125" lon="-1.889275610446929931640625">
        <ele>1065.800048828125</ele>
        <time>2022-05-03T13:22:41.000Z</time>
      </trkpt>
      <trkpt lat="40.8412702940404415130615234375" lon="-1.8893359601497650146484375">
        <ele>1066.199951171875</ele>
        <time>2022-05-03T13:22:43.000Z</time>
      </trkpt>
      <trkpt lat="40.8412837050855159759521484375" lon="-1.88940511085093021392822265625">
        <ele>1066.4000244140625</ele>
        <time>2022-05-03T13:22:45.000Z</time>
      </trkpt>
      <trkpt lat="40.84129787050187587738037109375" lon="-1.88948038034141063690185546875">
        <ele>1066.800048828125</ele>
        <time>2022-05-03T13:22:47.000Z</time>
      </trkpt>
      <trkpt lat="40.84131128154695034027099609375" lon="-1.88956252299249172210693359375">
        <ele>1067.4000244140625</ele>
        <time>2022-05-03T13:22:49.000Z</time>
      </trkpt>
      <trkpt lat="40.84132301621139049530029296875" lon="-1.88964265398681163787841796875">
        <ele>1067.800048828125</ele>
        <time>2022-05-03T13:22:51.000Z</time>
      </trkpt>
      <trkpt lat="40.8413510955870151519775390625" lon="-1.88971088267862796783447265625">
        <ele>1068</ele>
        <time>2022-05-03T13:22:53.000Z</time>
      </trkpt>
      <trkpt lat="40.84137079305946826934814453125" lon="-1.8897377885878086090087890625">
        <ele>1068</ele>
        <time>2022-05-03T13:22:54.000Z</time>
      </trkpt>
      <trkpt lat="40.84139040671288967132568359375" lon="-1.8897639401257038116455078125">
        <ele>1068</ele>
        <time>2022-05-03T13:22:55.000Z</time>
      </trkpt>
      <trkpt lat="40.84142561070621013641357421875" lon="-1.8898142315447330474853515625">
        <ele>1068.4000244140625</ele>
        <time>2022-05-03T13:22:57.000Z</time>
      </trkpt>
      <trkpt lat="40.84146114997565746307373046875" lon="-1.88987147994339466094970703125">
        <ele>1068.800048828125</ele>
        <time>2022-05-03T13:22:59.000Z</time>
      </trkpt>
      <trkpt lat="40.84149685688316822052001953125" lon="-1.88992596231400966644287109375">
        <ele>1069</ele>
        <time>2022-05-03T13:23:01.000Z</time>
      </trkpt>
      <trkpt lat="40.84152954630553722381591796875" lon="-1.88998195342719554901123046875">
        <ele>1069.199951171875</ele>
        <time>2022-05-03T13:23:03.000Z</time>
      </trkpt>
      <trkpt lat="40.8415554463863372802734375" lon="-1.89004079438745975494384765625">
        <ele>1069.4000244140625</ele>
        <time>2022-05-03T13:23:05.000Z</time>
      </trkpt>
      <trkpt lat="40.84156952798366546630859375" lon="-1.890069544315338134765625">
        <ele>1069.5999755859375</ele>
        <time>2022-05-03T13:23:06.000Z</time>
      </trkpt>
      <trkpt lat="40.841584615409374237060546875" lon="-1.8900950253009796142578125">
        <ele>1069.800048828125</ele>
        <time>2022-05-03T13:23:07.000Z</time>
      </trkpt>
      <trkpt lat="40.84160883910953998565673828125" lon="-1.8901431374251842498779296875">
        <ele>1070</ele>
        <time>2022-05-03T13:23:09.000Z</time>
      </trkpt>
      <trkpt lat="40.84162141196429729461669921875" lon="-1.89016652293503284454345703125">
        <ele>1070</ele>
        <time>2022-05-03T13:23:10.000Z</time>
      </trkpt>
      <trkpt lat="40.8416317217051982879638671875" lon="-1.89019091427326202392578125">
        <ele>1070.199951171875</ele>
        <time>2022-05-03T13:23:11.000Z</time>
      </trkpt>
      <trkpt lat="40.84165326319634914398193359375" lon="-1.8902380205690860748291015625">
        <ele>1070.4000244140625</ele>
        <time>2022-05-03T13:23:13.000Z</time>
      </trkpt>
      <trkpt lat="40.84167840890586376190185546875" lon="-1.89028680324554443359375">
        <ele>1070.5999755859375</ele>
        <time>2022-05-03T13:23:15.000Z</time>
      </trkpt>
      <trkpt lat="40.8417091704905033111572265625" lon="-1.89034639857709407806396484375">
        <ele>1070.800048828125</ele>
        <time>2022-05-03T13:23:17.000Z</time>
      </trkpt>
      <trkpt lat="40.84175032563507556915283203125" lon="-1.8904207460582256317138671875">
        <ele>1071</ele>
        <time>2022-05-03T13:23:19.000Z</time>
      </trkpt>
      <trkpt lat="40.8417708612978458404541015625" lon="-1.89045888371765613555908203125">
        <ele>1071</ele>
        <time>2022-05-03T13:23:20.000Z</time>
      </trkpt>
      <trkpt lat="40.841790474951267242431640625" lon="-1.890495680272579193115234375">
        <ele>1071</ele>
        <time>2022-05-03T13:23:21.000Z</time>
      </trkpt>
      <trkpt lat="40.84182593040168285369873046875" lon="-1.8905617296695709228515625">
        <ele>1071</ele>
        <time>2022-05-03T13:23:23.000Z</time>
      </trkpt>
      <trkpt lat="40.841856859624385833740234375" lon="-1.8906209059059619903564453125">
        <ele>1071</ele>
        <time>2022-05-03T13:23:25.000Z</time>
      </trkpt>
      <trkpt lat="40.8418667502701282501220703125" lon="-1.8906517513096332550048828125">
        <ele>1071</ele>
        <time>2022-05-03T13:23:26.000Z</time>
      </trkpt>
      <trkpt lat="40.84187689237296581268310546875" lon="-1.8906822614371776580810546875">
        <ele>1071.199951171875</ele>
        <time>2022-05-03T13:23:27.000Z</time>
      </trkpt>
      <trkpt lat="40.84189181216061115264892578125" lon="-1.8907506577670574188232421875">
        <ele>1071.199951171875</ele>
        <time>2022-05-03T13:23:29.000Z</time>
      </trkpt>
      <trkpt lat="40.8419069834053516387939453125" lon="-1.89082902856171131134033203125">
        <ele>1070.800048828125</ele>
        <time>2022-05-03T13:23:31.000Z</time>
      </trkpt>
      <trkpt lat="40.84191712550818920135498046875" lon="-1.89086339436471462249755859375">
        <ele>1070.5999755859375</ele>
        <time>2022-05-03T13:23:32.000Z</time>
      </trkpt>
      <trkpt lat="40.8419281058013439178466796875" lon="-1.890899352729320526123046875">
        <ele>1070.4000244140625</ele>
        <time>2022-05-03T13:23:33.000Z</time>
      </trkpt>
      <trkpt lat="40.841950736939907073974609375" lon="-1.8909679166972637176513671875">
        <ele>1070.199951171875</ele>
        <time>2022-05-03T13:23:35.000Z</time>
      </trkpt>
      <trkpt lat="40.84197076968848705291748046875" lon="-1.89102231524884700775146484375">
        <ele>1070</ele>
        <time>2022-05-03T13:23:37.000Z</time>
      </trkpt>
      <trkpt lat="40.84198703058063983917236328125" lon="-1.89104947261512279510498046875">
        <ele>1070</ele>
        <time>2022-05-03T13:23:38.000Z</time>
      </trkpt>
      <trkpt lat="40.84200697951018810272216796875" lon="-1.8910741992294788360595703125">
        <ele>1070.199951171875</ele>
        <time>2022-05-03T13:23:39.000Z</time>
      </trkpt>
      <trkpt lat="40.8420162834227085113525390625" lon="-1.8910986743867397308349609375">
        <ele>1070.199951171875</ele>
        <time>2022-05-03T13:23:40.000Z</time>
      </trkpt>
      <trkpt lat="40.842030532658100128173828125" lon="-1.89111091196537017822265625">
        <ele>1070.199951171875</ele>
        <time>2022-05-03T13:23:41.000Z</time>
      </trkpt>
      <trkpt lat="40.8420410938560962677001953125" lon="-1.8911177851259708404541015625">
        <ele>1070.199951171875</ele>
        <time>2022-05-03T13:23:42.000Z</time>
      </trkpt>
      <trkpt lat="40.8420677483081817626953125" lon="-1.8911006860435009002685546875">
        <ele>1070.199951171875</ele>
        <time>2022-05-03T13:23:43.000Z</time>
      </trkpt>
      <trkpt lat="40.84214192815124988555908203125" lon="-1.89105416648089885711669921875">
        <ele>1070.199951171875</ele>
        <time>2022-05-03T13:23:45.000Z</time>
      </trkpt>
      <trkpt lat="40.84217763505876064300537109375" lon="-1.89103404991328716278076171875">
        <ele>1070.4000244140625</ele>
        <time>2022-05-03T13:23:46.000Z</time>
      </trkpt>
      <trkpt lat="40.8422099053859710693359375" lon="-1.8910161964595317840576171875">
        <ele>1070.4000244140625</ele>
        <time>2022-05-03T13:23:47.000Z</time>
      </trkpt>
      <trkpt lat="40.8422630466520786285400390625" lon="-1.89098107628524303436279296875">
        <ele>1070</ele>
        <time>2022-05-03T13:23:49.000Z</time>
      </trkpt>
      <trkpt lat="40.84228626452386379241943359375" lon="-1.8909679166972637176513671875">
        <ele>1069.800048828125</ele>
        <time>2022-05-03T13:23:50.000Z</time>
      </trkpt>
      <trkpt lat="40.84231073968112468719482421875" lon="-1.8909474648535251617431640625">
        <ele>1069.5999755859375</ele>
        <time>2022-05-03T13:23:51.000Z</time>
      </trkpt>
      <trkpt lat="40.8423696644604206085205078125" lon="-1.89089926891028881072998046875">
        <ele>1069.199951171875</ele>
        <time>2022-05-03T13:23:53.000Z</time>
      </trkpt>
      <trkpt lat="40.842419452965259552001953125" lon="-1.89083891920745372772216796875">
        <ele>1068.800048828125</ele>
        <time>2022-05-03T13:23:55.000Z</time>
      </trkpt>
      <trkpt lat="40.8424588479101657867431640625" lon="-1.8907843530178070068359375">
        <ele>1068.4000244140625</ele>
        <time>2022-05-03T13:23:57.000Z</time>
      </trkpt>
      <trkpt lat="40.84250100888311862945556640625" lon="-1.890742443501949310302734375">
        <ele>1068</ele>
        <time>2022-05-03T13:23:59.000Z</time>
      </trkpt>
      <trkpt lat="40.84255163557827472686767578125" lon="-1.89073448069393634796142578125">
        <ele>1067.5999755859375</ele>
        <time>2022-05-03T13:24:01.000Z</time>
      </trkpt>
      <trkpt lat="40.84260729141533374786376953125" lon="-1.89077119342982769012451171875">
        <ele>1067.199951171875</ele>
        <time>2022-05-03T13:24:03.000Z</time>
      </trkpt>
      <trkpt lat="40.842645429074764251708984375" lon="-1.8908271007239818572998046875">
        <ele>1067</ele>
        <time>2022-05-03T13:24:05.000Z</time>
      </trkpt>
      <trkpt lat="40.8426697365939617156982421875" lon="-1.8908693455159664154052734375">
        <ele>1067</ele>
        <time>2022-05-03T13:24:07.000Z</time>
      </trkpt>
      <trkpt lat="40.84268867969512939453125" lon="-1.89090169966220855712890625">
        <ele>1066.800048828125</ele>
        <time>2022-05-03T13:24:09.000Z</time>
      </trkpt>
      <trkpt lat="40.8427087962627410888671875" lon="-1.8909280188381671905517578125">
        <ele>1066.800048828125</ele>
        <time>2022-05-03T13:24:11.000Z</time>
      </trkpt>
      <trkpt lat="40.84273452870547771453857421875" lon="-1.89096280373632907867431640625">
        <ele>1066.5999755859375</ele>
        <time>2022-05-03T13:24:13.000Z</time>
      </trkpt>
      <trkpt lat="40.8427699841558933258056640625" lon="-1.890996582806110382080078125">
        <ele>1066.4000244140625</ele>
        <time>2022-05-03T13:24:15.000Z</time>
      </trkpt>
      <trkpt lat="40.8427823893725872039794921875" lon="-1.89101636409759521484375">
        <ele>1066.4000244140625</ele>
        <time>2022-05-03T13:24:16.000Z</time>
      </trkpt>
      <trkpt lat="40.8427919447422027587890625" lon="-1.8910386599600315093994140625">
        <ele>1066.5999755859375</ele>
        <time>2022-05-03T13:24:17.000Z</time>
      </trkpt>
      <trkpt lat="40.8427947945892810821533203125" lon="-1.8910855986177921295166015625">
        <ele>1066.800048828125</ele>
        <time>2022-05-03T13:24:19.000Z</time>
      </trkpt>
      <trkpt lat="40.84279035218060016632080078125" lon="-1.89110747538506984710693359375">
        <ele>1067</ele>
        <time>2022-05-03T13:24:20.000Z</time>
      </trkpt>
      <trkpt lat="40.8427810482680797576904296875" lon="-1.89112775959074497222900390625">
        <ele>1067.199951171875</ele>
        <time>2022-05-03T13:24:21.000Z</time>
      </trkpt>
      <trkpt lat="40.84275984205305576324462890625" lon="-1.89115474931895732879638671875">
        <ele>1067.4000244140625</ele>
        <time>2022-05-03T13:24:23.000Z</time>
      </trkpt>
      <trkpt lat="40.84275481291115283966064453125" lon="-1.89116246066987514495849609375">
        <ele>1067.4000244140625</ele>
        <time>2022-05-03T13:24:25.000Z</time>
      </trkpt>
      <trkpt lat="40.84273922257125377655029296875" lon="-1.89114837907254695892333984375">
        <ele>1067.4000244140625</ele>
        <time>2022-05-03T13:25:15.000Z</time>
      </trkpt>
      <trkpt lat="40.84273989312350749969482421875" lon="-1.891149468719959259033203125">
        <ele>1067.4000244140625</ele>
        <time>2022-05-03T13:25:16.000Z</time>
      </trkpt>
      <trkpt lat="40.84204939194023609161376953125" lon="-1.89125281758606433868408203125">
        <ele>1070.4000244140625</ele>
        <time>2022-05-04T07:22:24.000Z</time>
      </trkpt>
      <trkpt lat="40.84212164394557476043701171875" lon="-1.89120017923414707183837890625">
        <ele>1070.4000244140625</ele>
        <time>2022-05-04T07:22:25.000Z</time>
      </trkpt>
      <trkpt lat="40.84242976270616054534912109375" lon="-1.8911493010818958282470703125">
        <ele>1069</ele>
        <time>2022-05-04T07:22:29.000Z</time>
      </trkpt>
      <trkpt lat="40.84250268526375293731689453125" lon="-1.89108987338840961456298828125">
        <ele>1068.4000244140625</ele>
        <time>2022-05-04T07:22:33.000Z</time>
      </trkpt>
      <trkpt lat="40.842509306967258453369140625" lon="-1.89107696525752544403076171875">
        <ele>1068.4000244140625</ele>
        <time>2022-05-04T07:22:34.000Z</time>
      </trkpt>
      <trkpt lat="40.84250721149146556854248046875" lon="-1.89100923947989940643310546875">
        <ele>1068.199951171875</ele>
        <time>2022-05-04T07:22:37.000Z</time>
      </trkpt>
      <trkpt lat="40.84239472635090351104736328125" lon="-1.89098409377038478851318359375">
        <ele>1069</ele>
        <time>2022-05-04T07:22:45.000Z</time>
      </trkpt>
      <trkpt lat="40.84228408522903919219970703125" lon="-1.89106422476470470428466796875">
        <ele>1070</ele>
        <time>2022-05-04T07:22:51.000Z</time>
      </trkpt>
      <trkpt lat="40.842163302004337310791015625" lon="-1.89115106128156185150146484375">
        <ele>1070.4000244140625</ele>
        <time>2022-05-04T07:22:56.000Z</time>
      </trkpt>
      <trkpt lat="40.8420444466173648834228515625" lon="-1.8912438489496707916259765625">
        <ele>1070.4000244140625</ele>
        <time>2022-05-04T07:23:01.000Z</time>
      </trkpt>
      <trkpt lat="40.841970853507518768310546875" lon="-1.89130931161344051361083984375">
        <ele>1070.4000244140625</ele>
        <time>2022-05-04T07:23:04.000Z</time>
      </trkpt>
      <trkpt lat="40.84192165173590183258056640625" lon="-1.8913497962057590484619140625">
        <ele>1070.4000244140625</ele>
        <time>2022-05-04T07:23:06.000Z</time>
      </trkpt>
      <trkpt lat="40.84184537641704082489013671875" lon="-1.89141727052628993988037109375">
        <ele>1070.4000244140625</ele>
        <time>2022-05-04T07:23:09.000Z</time>
      </trkpt>
      <trkpt lat="40.8417162112891674041748046875" lon="-1.8915543146431446075439453125">
        <ele>1070.4000244140625</ele>
        <time>2022-05-04T07:23:14.000Z</time>
      </trkpt>
      <trkpt lat="40.84169349633157253265380859375" lon="-1.891582645475864410400390625">
        <ele>1070.4000244140625</ele>
        <time>2022-05-04T07:23:15.000Z</time>
      </trkpt>
      <trkpt lat="40.84161110222339630126953125" lon="-1.89168867655098438262939453125">
        <ele>1071</ele>
        <time>2022-05-04T07:23:19.000Z</time>
      </trkpt>
      <trkpt lat="40.8415924943983554840087890625" lon="-1.8917125649750232696533203125">
        <ele>1071.199951171875</ele>
        <time>2022-05-04T07:23:20.000Z</time>
      </trkpt>
      <trkpt lat="40.841557122766971588134765625" lon="-1.8917618505656719207763671875">
        <ele>1071.4000244140625</ele>
        <time>2022-05-04T07:23:22.000Z</time>
      </trkpt>
      <trkpt lat="40.841505490243434906005859375" lon="-1.89182328991591930389404296875">
        <ele>1071.5999755859375</ele>
        <time>2022-05-04T07:23:25.000Z</time>
      </trkpt>
      <trkpt lat="40.84141136147081851959228515625" lon="-1.89194373786449432373046875">
        <ele>1072.199951171875</ele>
        <time>2022-05-04T07:23:30.000Z</time>
      </trkpt>
      <trkpt lat="40.8413752354681491851806640625" lon="-1.891996376216411590576171875">
        <ele>1072.5999755859375</ele>
        <time>2022-05-04T07:23:32.000Z</time>
      </trkpt>
      <trkpt lat="40.84128797985613346099853515625" lon="-1.892100311815738677978515625">
        <ele>1073.4000244140625</ele>
        <time>2022-05-04T07:23:37.000Z</time>
      </trkpt>
      <trkpt lat="40.84127121604979038238525390625" lon="-1.8921209312975406646728515625">
        <ele>1073.4000244140625</ele>
        <time>2022-05-04T07:23:38.000Z</time>
      </trkpt>
      <trkpt lat="40.84118521772325038909912109375" lon="-1.89223383553326129913330078125">
        <ele>1074.199951171875</ele>
        <time>2022-05-04T07:23:43.000Z</time>
      </trkpt>
      <trkpt lat="40.84117197431623935699462890625" lon="-1.89226048998534679412841796875">
        <ele>1074.4000244140625</ele>
        <time>2022-05-04T07:23:44.000Z</time>
      </trkpt>
      <trkpt lat="40.84111229516565799713134765625" lon="-1.89239342696964740753173828125">
        <ele>1075.4000244140625</ele>
        <time>2022-05-04T07:23:49.000Z</time>
      </trkpt>
      <trkpt lat="40.841102488338947296142578125" lon="-1.89241982996463775634765625">
        <ele>1075.4000244140625</ele>
        <time>2022-05-04T07:23:51.000Z</time>
      </trkpt>
      <trkpt lat="40.84104381501674652099609375" lon="-1.89256726764142513275146484375">
        <ele>1076.4000244140625</ele>
        <time>2022-05-04T07:23:55.000Z</time>
      </trkpt>
      <trkpt lat="40.8410040847957134246826171875" lon="-1.89272300340235233306884765625">
        <ele>1077.4000244140625</ele>
        <time>2022-05-04T07:24:00.000Z</time>
      </trkpt>
      <trkpt lat="40.840989165008068084716796875" lon="-1.892786286771297454833984375">
        <ele>1077.800048828125</ele>
        <time>2022-05-04T07:24:02.000Z</time>
      </trkpt>
      <trkpt lat="40.8409695513546466827392578125" lon="-1.892982423305511474609375">
        <ele>1078.800048828125</ele>
        <time>2022-05-04T07:24:08.000Z</time>
      </trkpt>
      <trkpt lat="40.8409695513546466827392578125" lon="-1.892982423305511474609375">
        <ele>1078.800048828125</ele>
        <time>2022-05-04T07:24:09.000Z</time>
      </trkpt>
      <trkpt lat="40.84094381891191005706787109375" lon="-1.89320915378630161285400390625">
        <ele>1080</ele>
        <time>2022-05-04T07:24:15.000Z</time>
      </trkpt>
      <trkpt lat="40.84094046615064144134521484375" lon="-1.8932410888373851776123046875">
        <ele>1080</ele>
        <time>2022-05-04T07:24:16.000Z</time>
      </trkpt>
      <trkpt lat="40.8409172482788562774658203125" lon="-1.89345113933086395263671875">
        <ele>1080.4000244140625</ele>
        <time>2022-05-04T07:24:22.000Z</time>
      </trkpt>
      <trkpt lat="40.840900652110576629638671875" lon="-1.89356110990047454833984375">
        <ele>1080.5999755859375</ele>
        <time>2022-05-04T07:24:25.000Z</time>
      </trkpt>
      <trkpt lat="40.8408790268003940582275390625" lon="-1.89369597472250461578369140625">
        <ele>1080.800048828125</ele>
        <time>2022-05-04T07:24:29.000Z</time>
      </trkpt>
      <trkpt lat="40.8408649452030658721923828125" lon="-1.89379588700830936431884765625">
        <ele>1081</ele>
        <time>2022-05-04T07:24:33.000Z</time>
      </trkpt>
      <trkpt lat="40.84083736874163150787353515625" lon="-1.893958747386932373046875">
        <ele>1081.5999755859375</ele>
        <time>2022-05-04T07:24:37.000Z</time>
      </trkpt>
      <trkpt lat="40.84081180393695831298828125" lon="-1.89412915147840976715087890625">
        <ele>1082.4000244140625</ele>
        <time>2022-05-04T07:24:42.000Z</time>
      </trkpt>
      <trkpt lat="40.8408009074628353118896484375" lon="-1.89419503323733806610107421875">
        <ele>1082.800048828125</ele>
        <time>2022-05-04T07:24:45.000Z</time>
      </trkpt>
      <trkpt lat="40.8407641947269439697265625" lon="-1.89442687667906284332275390625">
        <ele>1084.199951171875</ele>
        <time>2022-05-04T07:24:51.000Z</time>
      </trkpt>
      <trkpt lat="40.8407583273947238922119140625" lon="-1.894460655748844146728515625">
        <ele>1084.4000244140625</ele>
        <time>2022-05-04T07:24:52.000Z</time>
      </trkpt>
      <trkpt lat="40.84072119556367397308349609375" lon="-1.8946529366075992584228515625">
        <ele>1085.5999755859375</ele>
        <time>2022-05-04T07:24:58.000Z</time>
      </trkpt>
      <trkpt lat="40.84070292301476001739501953125" lon="-1.89474237151443958282470703125">
        <ele>1086</ele>
        <time>2022-05-04T07:25:01.000Z</time>
      </trkpt>
      <trkpt lat="40.84067098796367645263671875" lon="-1.89486508257687091827392578125">
        <ele>1087</ele>
        <time>2022-05-04T07:25:05.000Z</time>
      </trkpt>
      <trkpt lat="40.84061960689723491668701171875" lon="-1.89504244364798069000244140625">
        <ele>1088</ele>
        <time>2022-05-04T07:25:11.000Z</time>
      </trkpt>
      <trkpt lat="40.84059814922511577606201171875" lon="-1.895105727016925811767578125">
        <ele>1088.4000244140625</ele>
        <time>2022-05-04T07:25:13.000Z</time>
      </trkpt>
      <trkpt lat="40.84048859775066375732421875" lon="-1.89538626931607723236083984375">
        <ele>1089.199951171875</ele>
        <time>2022-05-04T07:25:22.000Z</time>
      </trkpt>
      <trkpt lat="40.84038273431360721588134765625" lon="-1.89564191736280918121337890625">
        <ele>1089.5999755859375</ele>
        <time>2022-05-04T07:25:30.000Z</time>
      </trkpt>
      <trkpt lat="40.84035859443247318267822265625" lon="-1.8956996686756610870361328125">
        <ele>1089.5999755859375</ele>
        <time>2022-05-04T07:25:32.000Z</time>
      </trkpt>
      <trkpt lat="40.84028634242713451385498046875" lon="-1.89586638472974300384521484375">
        <ele>1090.5999755859375</ele>
        <time>2022-05-04T07:25:38.000Z</time>
      </trkpt>
      <trkpt lat="40.84027712233364582061767578125" lon="-1.89589337445795536041259765625">
        <ele>1091</ele>
        <time>2022-05-04T07:25:39.000Z</time>
      </trkpt>
      <trkpt lat="40.8402148447930812835693359375" lon="-1.89604894258081912994384765625">
        <ele>1092.199951171875</ele>
        <time>2022-05-04T07:25:45.000Z</time>
      </trkpt>
      <trkpt lat="40.8401679061353206634521484375" lon="-1.8961700610816478729248046875">
        <ele>1092.800048828125</ele>
        <time>2022-05-04T07:25:50.000Z</time>
      </trkpt>
      <trkpt lat="40.840136222541332244873046875" lon="-1.8962404690682888031005859375">
        <ele>1093.199951171875</ele>
        <time>2022-05-04T07:25:53.000Z</time>
      </trkpt>
      <trkpt lat="40.8400934748351573944091796875" lon="-1.8963591568171977996826171875">
        <ele>1093.800048828125</ele>
        <time>2022-05-04T07:25:58.000Z</time>
      </trkpt>
      <trkpt lat="40.84006237797439098358154296875" lon="-1.89646384678781032562255859375">
        <ele>1094.4000244140625</ele>
        <time>2022-05-04T07:26:02.000Z</time>
      </trkpt>
      <trkpt lat="40.8400158584117889404296875" lon="-1.89662419259548187255859375">
        <ele>1095.199951171875</ele>
        <time>2022-05-04T07:26:08.000Z</time>
      </trkpt>
      <trkpt lat="40.83997629582881927490234375" lon="-1.8968248553574085235595703125">
        <ele>1096.4000244140625</ele>
        <time>2022-05-04T07:26:15.000Z</time>
      </trkpt>
      <trkpt lat="40.8399707637727260589599609375" lon="-1.89685159362852573394775390625">
        <ele>1096.5999755859375</ele>
        <time>2022-05-04T07:26:16.000Z</time>
      </trkpt>
      <trkpt lat="40.839941091835498809814453125" lon="-1.8969958461821079254150390625">
        <ele>1097.4000244140625</ele>
        <time>2022-05-04T07:26:21.000Z</time>
      </trkpt>
      <trkpt lat="40.83992793224751949310302734375" lon="-1.8971447087824344635009765625">
        <ele>1098.4000244140625</ele>
        <time>2022-05-04T07:26:26.000Z</time>
      </trkpt>
      <trkpt lat="40.8399221487343311309814453125" lon="-1.89720279537141323089599609375">
        <ele>1098.800048828125</ele>
        <time>2022-05-04T07:26:28.000Z</time>
      </trkpt>
      <trkpt lat="40.839917622506618499755859375" lon="-1.8973825871944427490234375">
        <ele>1100.4000244140625</ele>
        <time>2022-05-04T07:26:34.000Z</time>
      </trkpt>
      <trkpt lat="40.8399204723536968231201171875" lon="-1.89744092524051666259765625">
        <ele>1100.5999755859375</ele>
        <time>2022-05-04T07:26:36.000Z</time>
      </trkpt>
      <trkpt lat="40.83992340601980686187744140625" lon="-1.89758450724184513092041015625">
        <ele>1100.5999755859375</ele>
        <time>2022-05-04T07:26:41.000Z</time>
      </trkpt>
      <trkpt lat="40.8399278484284877777099609375" lon="-1.8977056257426738739013671875">
        <ele>1100.800048828125</ele>
        <time>2022-05-04T07:26:45.000Z</time>
      </trkpt>
      <trkpt lat="40.83993069827556610107421875" lon="-1.89779506064951419830322265625">
        <ele>1100.800048828125</ele>
        <time>2022-05-04T07:26:48.000Z</time>
      </trkpt>
      <trkpt lat="40.83994084037840366363525390625" lon="-1.8979480303823947906494140625">
        <ele>1100.800048828125</ele>
        <time>2022-05-04T07:26:53.000Z</time>
      </trkpt>
      <trkpt lat="40.83994486369192600250244140625" lon="-1.89800779335200786590576171875">
        <ele>1100.800048828125</ele>
        <time>2022-05-04T07:26:55.000Z</time>
      </trkpt>
      <trkpt lat="40.8399633876979351043701171875" lon="-1.8981917761266231536865234375">
        <ele>1103.4000244140625</ele>
        <time>2022-05-04T07:27:01.000Z</time>
      </trkpt>
      <trkpt lat="40.83997000940144062042236328125" lon="-1.8983419798314571380615234375">
        <ele>1104.5999755859375</ele>
        <time>2022-05-04T07:27:06.000Z</time>
      </trkpt>
      <trkpt lat="40.83997218869626522064208984375" lon="-1.89837240613996982574462890625">
        <ele>1105</ele>
        <time>2022-05-04T07:27:07.000Z</time>
      </trkpt>
      <trkpt lat="40.83998526446521282196044921875" lon="-1.89861816354095935821533203125">
        <ele>1106.5999755859375</ele>
        <time>2022-05-04T07:27:16.000Z</time>
      </trkpt>
      <trkpt lat="40.8399875275790691375732421875" lon="-1.898675747215747833251953125">
        <ele>1107</ele>
        <time>2022-05-04T07:27:18.000Z</time>
      </trkpt>
      <trkpt lat="40.839986689388751983642578125" lon="-1.89884497784078121185302734375">
        <ele>1108</ele>
        <time>2022-05-04T07:27:24.000Z</time>
      </trkpt>
      <trkpt lat="40.83998828195035457611083984375" lon="-1.89890365116298198699951171875">
        <ele>1108.4000244140625</ele>
        <time>2022-05-04T07:27:27.000Z</time>
      </trkpt>
      <trkpt lat="40.8399767987430095672607421875" lon="-1.89911655150353908538818359375">
        <ele>1109.5999755859375</ele>
        <time>2022-05-04T07:27:33.000Z</time>
      </trkpt>
      <trkpt lat="40.83996498025953769683837890625" lon="-1.89924445934593677520751953125">
        <ele>1110.4000244140625</ele>
        <time>2022-05-04T07:27:37.000Z</time>
      </trkpt>
      <trkpt lat="40.83994084037840366363525390625" lon="-1.89939198084175586700439453125">
        <ele>1111.199951171875</ele>
        <time>2022-05-04T07:27:42.000Z</time>
      </trkpt>
      <trkpt lat="40.83991737104952335357666015625" lon="-1.89951837994158267974853515625">
        <ele>1111.800048828125</ele>
        <time>2022-05-04T07:27:46.000Z</time>
      </trkpt>
      <trkpt lat="40.8398839272558689117431640625" lon="-1.8996468745172023773193359375">
        <ele>1112.199951171875</ele>
        <time>2022-05-04T07:27:50.000Z</time>
      </trkpt>
      <trkpt lat="40.83983816206455230712890625" lon="-1.89980789087712764739990234375">
        <ele>1112.4000244140625</ele>
        <time>2022-05-04T07:27:55.000Z</time>
      </trkpt>
      <trkpt lat="40.83980907686054706573486328125" lon="-1.89988232217729091644287109375">
        <ele>1112.4000244140625</ele>
        <time>2022-05-04T07:27:58.000Z</time>
      </trkpt>
      <trkpt lat="40.839762389659881591796875" lon="-1.89998961053788661956787109375">
        <ele>1112.5999755859375</ele>
        <time>2022-05-04T07:28:02.000Z</time>
      </trkpt>
      <trkpt lat="40.8396790735423564910888671875" lon="-1.90016764216125011444091796875">
        <ele>1113.4000244140625</ele>
        <time>2022-05-04T07:28:09.000Z</time>
      </trkpt>
      <trkpt lat="40.83962903358042240142822265625" lon="-1.9002624414861202239990234375">
        <ele>1114.199951171875</ele>
        <time>2022-05-04T07:28:13.000Z</time>
      </trkpt>
      <trkpt lat="40.8395905606448650360107421875" lon="-1.90033209510147571563720703125">
        <ele>1114.800048828125</ele>
        <time>2022-05-04T07:28:16.000Z</time>
      </trkpt>
      <trkpt lat="40.839511938393115997314453125" lon="-1.90047659911215305328369140625">
        <ele>1116</ele>
        <time>2022-05-04T07:28:22.000Z</time>
      </trkpt>
      <trkpt lat="40.83949886262416839599609375" lon="-1.90050057135522365570068359375">
        <ele>1116.199951171875</ele>
        <time>2022-05-04T07:28:23.000Z</time>
      </trkpt>
      <trkpt lat="40.83938679657876491546630859375" lon="-1.90069402568042278289794921875">
        <ele>1117.800048828125</ele>
        <time>2022-05-04T07:28:31.000Z</time>
      </trkpt>
      <trkpt lat="40.83930079825222492218017578125" lon="-1.9008397869765758514404296875">
        <ele>1118.800048828125</ele>
        <time>2022-05-04T07:28:37.000Z</time>
      </trkpt>
      <trkpt lat="40.8392609842121601104736328125" lon="-1.90091078169643878936767578125">
        <ele>1119.199951171875</ele>
        <time>2022-05-04T07:28:40.000Z</time>
      </trkpt>
      <trkpt lat="40.83920189179480075836181640625" lon="-1.9010013900697231292724609375">
        <ele>1119.5999755859375</ele>
        <time>2022-05-04T07:28:44.000Z</time>
      </trkpt>
      <trkpt lat="40.83910399116575717926025390625" lon="-1.901162825524806976318359375">
        <ele>1120.5999755859375</ele>
        <time>2022-05-04T07:28:51.000Z</time>
      </trkpt>
      <trkpt lat="40.83908974193036556243896484375" lon="-1.9011859595775604248046875">
        <ele>1120.800048828125</ele>
        <time>2022-05-04T07:28:52.000Z</time>
      </trkpt>
      <trkpt lat="40.83900139667093753814697265625" lon="-1.90131797455251216888427734375">
        <ele>1121.4000244140625</ele>
        <time>2022-05-04T07:28:58.000Z</time>
      </trkpt>
      <trkpt lat="40.8389563858509063720703125" lon="-1.90137572586536407470703125">
        <ele>1121.800048828125</ele>
        <time>2022-05-04T07:29:01.000Z</time>
      </trkpt>
      <trkpt lat="40.8388960361480712890625" lon="-1.901454515755176544189453125">
        <ele>1122.199951171875</ele>
        <time>2022-05-04T07:29:05.000Z</time>
      </trkpt>
      <trkpt lat="40.8388170786201953887939453125" lon="-1.90155283547937870025634765625">
        <ele>1122.800048828125</ele>
        <time>2022-05-04T07:29:10.000Z</time>
      </trkpt>
      <trkpt lat="40.83878296427428722381591796875" lon="-1.9015894643962383270263671875">
        <ele>1123.199951171875</ele>
        <time>2022-05-04T07:29:12.000Z</time>
      </trkpt>
      <trkpt lat="40.83866536617279052734375" lon="-1.9017141871154308319091796875">
        <ele>1125.4000244140625</ele>
        <time>2022-05-04T07:29:19.000Z</time>
      </trkpt>
      <trkpt lat="40.838537625968456268310546875" lon="-1.90181619487702846527099609375">
        <ele>1127</ele>
        <time>2022-05-04T07:29:26.000Z</time>
      </trkpt>
      <trkpt lat="40.8385190181434154510498046875" lon="-1.90183178521692752838134765625">
        <ele>1127.4000244140625</ele>
        <time>2022-05-04T07:29:27.000Z</time>
      </trkpt>
      <trkpt lat="40.83842589519917964935302734375" lon="-1.90190286375582218170166015625">
        <ele>1128.4000244140625</ele>
        <time>2022-05-04T07:29:32.000Z</time>
      </trkpt>
      <trkpt lat="40.83833117969334125518798828125" lon="-1.90196254290640354156494140625">
        <ele>1129.4000244140625</ele>
        <time>2022-05-04T07:29:37.000Z</time>
      </trkpt>
      <trkpt lat="40.8382457681000232696533203125" lon="-1.9020062126219272613525390625">
        <ele>1130.199951171875</ele>
        <time>2022-05-04T07:29:41.000Z</time>
      </trkpt>
      <trkpt lat="40.83812364377081394195556640625" lon="-1.90206379629671573638916015625">
        <ele>1131</ele>
        <time>2022-05-04T07:29:47.000Z</time>
      </trkpt>
      <trkpt lat="40.83808307535946369171142578125" lon="-1.90208106301724910736083984375">
        <ele>1131.199951171875</ele>
        <time>2022-05-04T07:29:49.000Z</time>
      </trkpt>
      <trkpt lat="40.83791912533342838287353515625" lon="-1.9021300971508026123046875">
        <ele>1132.199951171875</ele>
        <time>2022-05-04T07:29:57.000Z</time>
      </trkpt>
      <trkpt lat="40.8377472124993801116943359375" lon="-1.90216085873544216156005859375">
        <ele>1132.5999755859375</ele>
        <time>2022-05-04T07:30:05.000Z</time>
      </trkpt>
      <trkpt lat="40.83772399462759494781494140625" lon="-1.90216320566833019256591796875">
        <ele>1132.800048828125</ele>
        <time>2022-05-04T07:30:06.000Z</time>
      </trkpt>
      <trkpt lat="40.8375428617000579833984375" lon="-1.90217175520956516265869140625">
        <ele>1132.800048828125</ele>
        <time>2022-05-04T07:30:14.000Z</time>
      </trkpt>
      <trkpt lat="40.83752081729471683502197265625" lon="-1.90217091701924800872802734375">
        <ele>1132.800048828125</ele>
        <time>2022-05-04T07:30:15.000Z</time>
      </trkpt>
      <trkpt lat="40.83735921420156955718994140625" lon="-1.90215934999287128448486328125">
        <ele>1132.800048828125</ele>
        <time>2022-05-04T07:30:22.000Z</time>
      </trkpt>
      <trkpt lat="40.83729014731943607330322265625" lon="-1.9021614454686641693115234375">
        <ele>1133</ele>
        <time>2022-05-04T07:30:25.000Z</time>
      </trkpt>
      <trkpt lat="40.8371056616306304931640625" lon="-1.90213613212108612060546875">
        <ele>1133.5999755859375</ele>
        <time>2022-05-04T07:30:33.000Z</time>
      </trkpt>
      <trkpt lat="40.83702963776886463165283203125" lon="-1.90212515182793140411376953125">
        <ele>1134</ele>
        <time>2022-05-04T07:30:36.000Z</time>
      </trkpt>
      <trkpt lat="40.83690558560192584991455078125" lon="-1.90211542882025241851806640625">
        <ele>1134.800048828125</ele>
        <time>2022-05-04T07:30:41.000Z</time>
      </trkpt>
      <trkpt lat="40.8367591537535190582275390625" lon="-1.90209883265197277069091796875">
        <ele>1135.800048828125</ele>
        <time>2022-05-04T07:30:47.000Z</time>
      </trkpt>
      <trkpt lat="40.83671364001929759979248046875" lon="-1.90206865780055522918701171875">
        <ele>1135.5999755859375</ele>
        <time>2022-05-04T07:30:49.000Z</time>
      </trkpt>
      <trkpt lat="40.83662563003599643707275390625" lon="-1.902033202350139617919921875">
        <ele>1135.199951171875</ele>
        <time>2022-05-04T07:30:53.000Z</time>
      </trkpt>
      <trkpt lat="40.83658640272915363311767578125" lon="-1.90202490426599979400634765625">
        <ele>1135.199951171875</ele>
        <time>2022-05-04T07:30:55.000Z</time>
      </trkpt>
      <trkpt lat="40.83649151958525180816650390625" lon="-1.90198718570172786712646484375">
        <ele>1134.800048828125</ele>
        <time>2022-05-04T07:31:00.000Z</time>
      </trkpt>
      <trkpt lat="40.83638372831046581268310546875" lon="-1.90195131115615367889404296875">
        <ele>1134.199951171875</ele>
        <time>2022-05-04T07:31:05.000Z</time>
      </trkpt>
      <trkpt lat="40.83634584210813045501708984375" lon="-1.90194678492844104766845703125">
        <ele>1134.199951171875</ele>
        <time>2022-05-04T07:31:07.000Z</time>
      </trkpt>
      <trkpt lat="40.8362847380340099334716796875" lon="-1.90192683599889278411865234375">
        <ele>1133.5999755859375</ele>
        <time>2022-05-04T07:31:12.000Z</time>
      </trkpt>
      <trkpt lat="40.83628431893885135650634765625" lon="-1.901925913989543914794921875">
        <ele>1133.5999755859375</ele>
        <time>2022-05-04T07:31:13.000Z</time>
      </trkpt>
      <trkpt lat="40.8362284116446971893310546875" lon="-1.9019907899200916290283203125">
        <ele>1134.800048828125</ele>
        <time>2022-05-04T07:35:47.000Z</time>
      </trkpt>
      <trkpt lat="40.8361963927745819091796875" lon="-1.902013756334781646728515625">
        <ele>1135.199951171875</ele>
        <time>2022-05-04T07:35:49.000Z</time>
      </trkpt>
      <trkpt lat="40.83610461093485355377197265625" lon="-1.90212314017117023468017578125">
        <ele>1137.4000244140625</ele>
        <time>2022-05-04T07:35:55.000Z</time>
      </trkpt>
      <trkpt lat="40.83601140417158603668212890625" lon="-1.90218902193009853363037109375">
        <ele>1138.5999755859375</ele>
        <time>2022-05-04T07:36:02.000Z</time>
      </trkpt>
      <trkpt lat="40.83599849604070186614990234375" lon="-1.9022070430219173431396484375">
        <ele>1138.800048828125</ele>
        <time>2022-05-04T07:36:04.000Z</time>
      </trkpt>
      <trkpt lat="40.8360031060874462127685546875" lon="-1.902227662503719329833984375">
        <ele>1139.4000244140625</ele>
        <time>2022-05-04T07:36:06.000Z</time>
      </trkpt>
      <trkpt lat="40.8360188640654087066650390625" lon="-1.90224685706198215484619140625">
        <ele>1139.800048828125</ele>
        <time>2022-05-04T07:36:08.000Z</time>
      </trkpt>
      <trkpt lat="40.8360269106924533843994140625" lon="-1.90225892700254917144775390625">
        <ele>1140</ele>
        <time>2022-05-04T07:36:09.000Z</time>
      </trkpt>
      <trkpt lat="40.8360366337001323699951171875" lon="-1.902296058833599090576171875">
        <ele>1141</ele>
        <time>2022-05-04T07:36:11.000Z</time>
      </trkpt>
      <trkpt lat="40.836016349494457244873046875" lon="-1.90234777517616748809814453125">
        <ele>1142</ele>
        <time>2022-05-04T07:36:13.000Z</time>
      </trkpt>
      <trkpt lat="40.83594636060297489166259765625" lon="-1.9024132378399372100830078125">
        <ele>1143.199951171875</ele>
        <time>2022-05-04T07:36:16.000Z</time>
      </trkpt>
      <trkpt lat="40.8358718454837799072265625" lon="-1.902471743524074554443359375">
        <ele>1144.199951171875</ele>
        <time>2022-05-04T07:36:19.000Z</time>
      </trkpt>
      <trkpt lat="40.83574242889881134033203125" lon="-1.90257542766630649566650390625">
        <ele>1145.800048828125</ele>
        <time>2022-05-04T07:36:25.000Z</time>
      </trkpt>
      <trkpt lat="40.83567579276859760284423828125" lon="-1.90262923948466777801513671875">
        <ele>1146.5999755859375</ele>
        <time>2022-05-04T07:36:28.000Z</time>
      </trkpt>
      <trkpt lat="40.835610665380954742431640625" lon="-1.9026831351220607757568359375">
        <ele>1147.5999755859375</ele>
        <time>2022-05-04T07:36:31.000Z</time>
      </trkpt>
      <trkpt lat="40.83547018468379974365234375" lon="-1.90281338989734649658203125">
        <ele>1149.199951171875</ele>
        <time>2022-05-04T07:36:38.000Z</time>
      </trkpt>
      <trkpt lat="40.83533096127212047576904296875" lon="-1.9029419682919979095458984375">
        <ele>1150.5999755859375</ele>
        <time>2022-05-04T07:36:45.000Z</time>
      </trkpt>
      <trkpt lat="40.83529181778430938720703125" lon="-1.90297574736177921295166015625">
        <ele>1150.800048828125</ele>
        <time>2022-05-04T07:36:47.000Z</time>
      </trkpt>
      <trkpt lat="40.835168771445751190185546875" lon="-1.90308236517012119293212890625">
        <ele>1151.800048828125</ele>
        <time>2022-05-04T07:36:53.000Z</time>
      </trkpt>
      <trkpt lat="40.835111439228057861328125" lon="-1.90313131548464298248291015625">
        <ele>1152.4000244140625</ele>
        <time>2022-05-04T07:36:56.000Z</time>
      </trkpt>
      <trkpt lat="40.835005827248096466064453125" lon="-1.90322217531502246856689453125">
        <ele>1153.199951171875</ele>
        <time>2022-05-04T07:37:01.000Z</time>
      </trkpt>
      <trkpt lat="40.8348982036113739013671875" lon="-1.9033178128302097320556640625">
        <ele>1153.800048828125</ele>
        <time>2022-05-04T07:37:06.000Z</time>
      </trkpt>
      <trkpt lat="40.83483559079468250274658203125" lon="-1.9033741392195224761962890625">
        <ele>1154.199951171875</ele>
        <time>2022-05-04T07:37:09.000Z</time>
      </trkpt>
      <trkpt lat="40.8346921764314174652099609375" lon="-1.903497017920017242431640625">
        <ele>1154.800048828125</ele>
        <time>2022-05-04T07:37:16.000Z</time>
      </trkpt>
      <trkpt lat="40.834671556949615478515625" lon="-1.90351285971701145172119140625">
        <ele>1154.800048828125</ele>
        <time>2022-05-04T07:37:17.000Z</time>
      </trkpt>
      <trkpt lat="40.8344849757850170135498046875" lon="-1.9036802463233470916748046875">
        <ele>1155.5999755859375</ele>
        <time>2022-05-04T07:37:26.000Z</time>
      </trkpt>
      <trkpt lat="40.8344645239412784576416015625" lon="-1.903698854148387908935546875">
        <ele>1155.800048828125</ele>
        <time>2022-05-04T07:37:27.000Z</time>
      </trkpt>
      <trkpt lat="40.83433653227984905242919921875" lon="-1.90381293185055255889892578125">
        <ele>1156.4000244140625</ele>
        <time>2022-05-04T07:37:33.000Z</time>
      </trkpt>
      <trkpt lat="40.83420711569488048553466796875" lon="-1.9039340503513813018798828125">
        <ele>1157</ele>
        <time>2022-05-04T07:37:39.000Z</time>
      </trkpt>
      <trkpt lat="40.83416269160807132720947265625" lon="-1.903977803885936737060546875">
        <ele>1157.199951171875</ele>
        <time>2022-05-04T07:37:41.000Z</time>
      </trkpt>
      <trkpt lat="40.834002010524272918701171875" lon="-1.9041442684829235076904296875">
        <ele>1158.199951171875</ele>
        <time>2022-05-04T07:37:49.000Z</time>
      </trkpt>
      <trkpt lat="40.83396722562611103057861328125" lon="-1.90419212915003299713134765625">
        <ele>1158.800048828125</ele>
        <time>2022-05-04T07:37:51.000Z</time>
      </trkpt>
      <trkpt lat="40.83386127837002277374267578125" lon="-1.90433830954134464263916015625">
        <ele>1159.800048828125</ele>
        <time>2022-05-04T07:37:57.000Z</time>
      </trkpt>
      <trkpt lat="40.83380461670458316802978515625" lon="-1.90441542305052280426025390625">
        <ele>1160.4000244140625</ele>
        <time>2022-05-04T07:38:00.000Z</time>
      </trkpt>
      <trkpt lat="40.8337260782718658447265625" lon="-1.90454006195068359375">
        <ele>1161.4000244140625</ele>
        <time>2022-05-04T07:38:05.000Z</time>
      </trkpt>
      <trkpt lat="40.83366103470325469970703125" lon="-1.90463871695101261138916015625">
        <ele>1162.199951171875</ele>
        <time>2022-05-04T07:38:09.000Z</time>
      </trkpt>
      <trkpt lat="40.83363060839474201202392578125" lon="-1.904687583446502685546875">
        <ele>1162.5999755859375</ele>
        <time>2022-05-04T07:38:11.000Z</time>
      </trkpt>
      <trkpt lat="40.83353823982179164886474609375" lon="-1.904843486845493316650390625">
        <ele>1164</ele>
        <time>2022-05-04T07:38:17.000Z</time>
      </trkpt>
      <trkpt lat="40.8333881199359893798828125" lon="-1.90507759340107440948486328125">
        <ele>1164.199951171875</ele>
        <time>2022-05-04T07:38:26.000Z</time>
      </trkpt>
      <trkpt lat="40.83325409330427646636962890625" lon="-1.905261576175689697265625">
        <ele>1164</ele>
        <time>2022-05-04T07:38:33.000Z</time>
      </trkpt>
      <trkpt lat="40.8331938274204730987548828125" lon="-1.90533994697034358978271484375">
        <ele>1163.800048828125</ele>
        <time>2022-05-04T07:38:36.000Z</time>
      </trkpt>
      <trkpt lat="40.83296994678676128387451171875" lon="-1.90558469854295253753662109375">
        <ele>1164</ele>
        <time>2022-05-04T07:38:46.000Z</time>
      </trkpt>
      <trkpt lat="40.83294245414435863494873046875" lon="-1.905610598623752593994140625">
        <ele>1164.199951171875</ele>
        <time>2022-05-04T07:38:47.000Z</time>
      </trkpt>
      <trkpt lat="40.832655541598796844482421875" lon="-1.90586163662374019622802734375">
        <ele>1164.800048828125</ele>
        <time>2022-05-04T07:38:57.000Z</time>
      </trkpt>
      <trkpt lat="40.8323905058205127716064453125" lon="-1.906085349619388580322265625">
        <ele>1164.5999755859375</ele>
        <time>2022-05-04T07:39:05.000Z</time>
      </trkpt>
      <trkpt lat="40.83208263851702213287353515625" lon="-1.9063520617783069610595703125">
        <ele>1163.4000244140625</ele>
        <time>2022-05-04T07:39:14.000Z</time>
      </trkpt>
      <trkpt lat="40.83180226385593414306640625" lon="-1.906606368720531463623046875">
        <ele>1161</ele>
        <time>2022-05-04T07:39:21.000Z</time>
      </trkpt>
      <trkpt lat="40.8315320312976837158203125" lon="-1.90691892988979816436767578125">
        <ele>1155.5999755859375</ele>
        <time>2022-05-04T07:39:27.000Z</time>
      </trkpt>
      <trkpt lat="40.83133195526897907257080078125" lon="-1.90726694650948047637939453125">
        <ele>1151.4000244140625</ele>
        <time>2022-05-04T07:39:32.000Z</time>
      </trkpt>
      <trkpt lat="40.83129457198083400726318359375" lon="-1.90735059790313243865966796875">
        <ele>1151</ele>
        <time>2022-05-04T07:39:33.000Z</time>
      </trkpt>
      <trkpt lat="40.831224583089351654052734375" lon="-1.9075265340507030487060546875">
        <ele>1150.4000244140625</ele>
        <time>2022-05-04T07:39:35.000Z</time>
      </trkpt>
      <trkpt lat="40.831121988594532012939453125" lon="-1.90780774690210819244384765625">
        <ele>1149</ele>
        <time>2022-05-04T07:39:38.000Z</time>
      </trkpt>
      <trkpt lat="40.8310517482459545135498046875" lon="-1.90800212323665618896484375">
        <ele>1147.800048828125</ele>
        <time>2022-05-04T07:39:40.000Z</time>
      </trkpt>
      <trkpt lat="40.83101511932909488677978515625" lon="-1.90809994004666805267333984375">
        <ele>1147.4000244140625</ele>
        <time>2022-05-04T07:39:41.000Z</time>
      </trkpt>
      <trkpt lat="40.83093314431607723236083984375" lon="-1.90829825587570667266845703125">
        <ele>1146.199951171875</ele>
        <time>2022-05-04T07:39:43.000Z</time>
      </trkpt>
      <trkpt lat="40.8308338187634944915771484375" lon="-1.9084991700947284698486328125">
        <ele>1144.5999755859375</ele>
        <time>2022-05-04T07:39:45.000Z</time>
      </trkpt>
      <trkpt lat="40.83077657036483287811279296875" lon="-1.90859799273312091827392578125">
        <ele>1144</ele>
        <time>2022-05-04T07:39:46.000Z</time>
      </trkpt>
      <trkpt lat="40.830648578703403472900390625" lon="-1.90878792665898799896240234375">
        <ele>1143</ele>
        <time>2022-05-04T07:39:48.000Z</time>
      </trkpt>
      <trkpt lat="40.83050164394080638885498046875" lon="-1.90896428190171718597412109375">
        <ele>1142.4000244140625</ele>
        <time>2022-05-04T07:39:50.000Z</time>
      </trkpt>
      <trkpt lat="40.83042084239423274993896484375" lon="-1.90904726274311542510986328125">
        <ele>1142</ele>
        <time>2022-05-04T07:39:51.000Z</time>
      </trkpt>
      <trkpt lat="40.8303369395434856414794921875" lon="-1.9091294892132282257080078125">
        <ele>1141</ele>
        <time>2022-05-04T07:39:52.000Z</time>
      </trkpt>
      <trkpt lat="40.83016209304332733154296875" lon="-1.9092971272766590118408203125">
        <ele>1139</ele>
        <time>2022-05-04T07:39:54.000Z</time>
      </trkpt>
      <trkpt lat="40.82998615689575672149658203125" lon="-1.90945998765528202056884765625">
        <ele>1137</ele>
        <time>2022-05-04T07:39:56.000Z</time>
      </trkpt>
      <trkpt lat="40.829898901283740997314453125" lon="-1.9095391966402530670166015625">
        <ele>1136</ele>
        <time>2022-05-04T07:39:57.000Z</time>
      </trkpt>
      <trkpt lat="40.82981432788074016571044921875" lon="-1.909616477787494659423828125">
        <ele>1135</ele>
        <time>2022-05-04T07:39:58.000Z</time>
      </trkpt>
      <trkpt lat="40.82973067648708820343017578125" lon="-1.90969266928732395172119140625">
        <ele>1134.199951171875</ele>
        <time>2022-05-04T07:39:59.000Z</time>
      </trkpt>
      <trkpt lat="40.82957074977457523345947265625" lon="-1.9098375923931598663330078125">
        <ele>1131.5999755859375</ele>
        <time>2022-05-04T07:40:01.000Z</time>
      </trkpt>
      <trkpt lat="40.82940881140530109405517578125" lon="-1.9099740497767925262451171875">
        <ele>1130</ele>
        <time>2022-05-04T07:40:03.000Z</time>
      </trkpt>
      <trkpt lat="40.8292449451982975006103515625" lon="-1.9100940786302089691162109375">
        <ele>1129.199951171875</ele>
        <time>2022-05-04T07:40:05.000Z</time>
      </trkpt>
      <trkpt lat="40.8289914764463901519775390625" lon="-1.91022559069097042083740234375">
        <ele>1128.800048828125</ele>
        <time>2022-05-04T07:40:08.000Z</time>
      </trkpt>
      <trkpt lat="40.82890690304338932037353515625" lon="-1.9102545082569122314453125">
        <ele>1129</ele>
        <time>2022-05-04T07:40:09.000Z</time>
      </trkpt>
      <trkpt lat="40.82881855778396129608154296875" lon="-1.9102781452238559722900390625">
        <ele>1128.800048828125</ele>
        <time>2022-05-04T07:40:10.000Z</time>
      </trkpt>
      <trkpt lat="40.828726105391979217529296875" lon="-1.9102932326495647430419921875">
        <ele>1128.800048828125</ele>
        <time>2022-05-04T07:40:11.000Z</time>
      </trkpt>
      <trkpt lat="40.828630216419696807861328125" lon="-1.91029951907694339752197265625">
        <ele>1129</ele>
        <time>2022-05-04T07:40:12.000Z</time>
      </trkpt>
      <trkpt lat="40.82853223197162151336669921875" lon="-1.91029968671500682830810546875">
        <ele>1129.199951171875</ele>
        <time>2022-05-04T07:40:13.000Z</time>
      </trkpt>
      <trkpt lat="40.82843315787613391876220703125" lon="-1.91029566340148448944091796875">
        <ele>1129.199951171875</ele>
        <time>2022-05-04T07:40:14.000Z</time>
      </trkpt>
      <trkpt lat="40.8282307349145412445068359375" lon="-1.9102768041193485260009765625">
        <ele>1129.199951171875</ele>
        <time>2022-05-04T07:40:16.000Z</time>
      </trkpt>
      <trkpt lat="40.82803267054259777069091796875" lon="-1.910254172980785369873046875">
        <ele>1129</ele>
        <time>2022-05-04T07:40:18.000Z</time>
      </trkpt>
      <trkpt lat="40.82793460227549076080322265625" lon="-1.9102437794208526611328125">
        <ele>1127.800048828125</ele>
        <time>2022-05-04T07:40:19.000Z</time>
      </trkpt>
      <trkpt lat="40.82783435471355915069580078125" lon="-1.910237409174442291259765625">
        <ele>1126.5999755859375</ele>
        <time>2022-05-04T07:40:20.000Z</time>
      </trkpt>
      <trkpt lat="40.82762748934328556060791015625" lon="-1.91025258041918277740478515625">
        <ele>1124</ele>
        <time>2022-05-04T07:40:22.000Z</time>
      </trkpt>
      <trkpt lat="40.82752271555364131927490234375" lon="-1.91027755849063396453857421875">
        <ele>1122.800048828125</ele>
        <time>2022-05-04T07:40:23.000Z</time>
      </trkpt>
      <trkpt lat="40.8274173550307750701904296875" lon="-1.91031695343554019927978515625">
        <ele>1121.199951171875</ele>
        <time>2022-05-04T07:40:24.000Z</time>
      </trkpt>
      <trkpt lat="40.82721275277435779571533203125" lon="-1.91044067032635211944580078125">
        <ele>1117.4000244140625</ele>
        <time>2022-05-04T07:40:26.000Z</time>
      </trkpt>
      <trkpt lat="40.8270200528204441070556640625" lon="-1.91062389872968196868896484375">
        <ele>1116.199951171875</ele>
        <time>2022-05-04T07:40:28.000Z</time>
      </trkpt>
      <trkpt lat="40.82693941891193389892578125" lon="-1.91073470748960971832275390625">
        <ele>1115</ele>
        <time>2022-05-04T07:40:29.000Z</time>
      </trkpt>
      <trkpt lat="40.82674671895802021026611328125" lon="-1.9111153297126293182373046875">
        <ele>1114</ele>
        <time>2022-05-04T07:40:32.000Z</time>
      </trkpt>
      <trkpt lat="40.8266986906528472900390625" lon="-1.91124885343015193939208984375">
        <ele>1113.4000244140625</ele>
        <time>2022-05-04T07:40:33.000Z</time>
      </trkpt>
      <trkpt lat="40.826613195240497589111328125" lon="-1.9115143083035945892333984375">
        <ele>1111.199951171875</ele>
        <time>2022-05-04T07:40:35.000Z</time>
      </trkpt>
      <trkpt lat="40.82648050971329212188720703125" lon="-1.911880262196063995361328125">
        <ele>1106.5999755859375</ele>
        <time>2022-05-04T07:40:38.000Z</time>
      </trkpt>
      <trkpt lat="40.82642787136137485504150390625" lon="-1.91199165768921375274658203125">
        <ele>1105.199951171875</ele>
        <time>2022-05-04T07:40:39.000Z</time>
      </trkpt>
      <trkpt lat="40.82624883390963077545166015625" lon="-1.912300027906894683837890625">
        <ele>1102.4000244140625</ele>
        <time>2022-05-04T07:40:42.000Z</time>
      </trkpt>
      <trkpt lat="40.82617775537073612213134765625" lon="-1.9123877026140689849853515625">
        <ele>1102</ele>
        <time>2022-05-04T07:40:43.000Z</time>
      </trkpt>
      <trkpt lat="40.82602319307625293731689453125" lon="-1.9125422649085521697998046875">
        <ele>1102.4000244140625</ele>
        <time>2022-05-04T07:40:45.000Z</time>
      </trkpt>
      <trkpt lat="40.82584641873836517333984375" lon="-1.91266019828617572784423828125">
        <ele>1103.800048828125</ele>
        <time>2022-05-04T07:40:47.000Z</time>
      </trkpt>
      <trkpt lat="40.82575011067092418670654296875" lon="-1.91270730458199977874755859375">
        <ele>1104.800048828125</ele>
        <time>2022-05-04T07:40:48.000Z</time>
      </trkpt>
      <trkpt lat="40.82554399967193603515625" lon="-1.91278022713959217071533203125">
        <ele>1107.199951171875</ele>
        <time>2022-05-04T07:40:50.000Z</time>
      </trkpt>
      <trkpt lat="40.82543746568262577056884765625" lon="-1.91280654631555080413818359375">
        <ele>1107.199951171875</ele>
        <time>2022-05-04T07:40:51.000Z</time>
      </trkpt>
      <trkpt lat="40.82533000968396663665771484375" lon="-1.91282951273024082183837890625">
        <ele>1107.199951171875</ele>
        <time>2022-05-04T07:40:52.000Z</time>
      </trkpt>
      <trkpt lat="40.8251103200018405914306640625" lon="-1.9128705002367496490478515625">
        <ele>1107.199951171875</ele>
        <time>2022-05-04T07:40:54.000Z</time>
      </trkpt>
      <trkpt lat="40.82499825395643711090087890625" lon="-1.91288868896663188934326171875">
        <ele>1106.800048828125</ele>
        <time>2022-05-04T07:40:55.000Z</time>
      </trkpt>
      <trkpt lat="40.8248863555490970611572265625" lon="-1.91290830262005329132080078125">
        <ele>1106.199951171875</ele>
        <time>2022-05-04T07:40:56.000Z</time>
      </trkpt>
      <trkpt lat="40.82477353513240814208984375" lon="-1.91292908973991870880126953125">
        <ele>1105.4000244140625</ele>
        <time>2022-05-04T07:40:57.000Z</time>
      </trkpt>
      <trkpt lat="40.8246613852679729461669921875" lon="-1.91294937394559383392333984375">
        <ele>1104.800048828125</ele>
        <time>2022-05-04T07:40:58.000Z</time>
      </trkpt>
      <trkpt lat="40.82455066032707691192626953125" lon="-1.9129687361419200897216796875">
        <ele>1104</ele>
        <time>2022-05-04T07:40:59.000Z</time>
      </trkpt>
      <trkpt lat="40.82432317547500133514404296875" lon="-1.91300938837230205535888671875">
        <ele>1102.800048828125</ele>
        <time>2022-05-04T07:41:01.000Z</time>
      </trkpt>
      <trkpt lat="40.824089907109737396240234375" lon="-1.91304626874625682830810546875">
        <ele>1101.4000244140625</ele>
        <time>2022-05-04T07:41:03.000Z</time>
      </trkpt>
      <trkpt lat="40.823855884373188018798828125" lon="-1.91306521184742450714111328125">
        <ele>1101.199951171875</ele>
        <time>2022-05-04T07:41:05.000Z</time>
      </trkpt>
      <trkpt lat="40.823621861636638641357421875" lon="-1.91305465064942836761474609375">
        <ele>1100.4000244140625</ele>
        <time>2022-05-04T07:41:07.000Z</time>
      </trkpt>
      <trkpt lat="40.82339060492813587188720703125" lon="-1.9130099751055240631103515625">
        <ele>1099.800048828125</ele>
        <time>2022-05-04T07:41:09.000Z</time>
      </trkpt>
      <trkpt lat="40.8230513893067836761474609375" lon="-1.9129020161926746368408203125">
        <ele>1101.4000244140625</ele>
        <time>2022-05-04T07:41:12.000Z</time>
      </trkpt>
      <trkpt lat="40.82272005267441272735595703125" lon="-1.91278425045311450958251953125">
        <ele>1104</ele>
        <time>2022-05-04T07:41:15.000Z</time>
      </trkpt>
      <trkpt lat="40.82239701412618160247802734375" lon="-1.9127047061920166015625">
        <ele>1100.4000244140625</ele>
        <time>2022-05-04T07:41:18.000Z</time>
      </trkpt>
      <trkpt lat="40.82218947820365428924560546875" lon="-1.912688277661800384521484375">
        <ele>1098</ele>
        <time>2022-05-04T07:41:20.000Z</time>
      </trkpt>
      <trkpt lat="40.82172914408147335052490234375" lon="-1.91276128403842449188232421875">
        <ele>1097.800048828125</ele>
        <time>2022-05-04T07:41:25.000Z</time>
      </trkpt>
      <trkpt lat="40.821379534900188446044921875" lon="-1.9129378907382488250732421875">
        <ele>1097.199951171875</ele>
        <time>2022-05-04T07:41:30.000Z</time>
      </trkpt>
      <trkpt lat="40.82126378081738948822021484375" lon="-1.9130170159041881561279296875">
        <ele>1097.800048828125</ele>
        <time>2022-05-04T07:41:32.000Z</time>
      </trkpt>
      <trkpt lat="40.82105255685746669769287109375" lon="-1.91316395066678524017333984375">
        <ele>1099</ele>
        <time>2022-05-04T07:41:36.000Z</time>
      </trkpt>
      <trkpt lat="40.8210038580000400543212890625" lon="-1.91319630481302738189697265625">
        <ele>1099.4000244140625</ele>
        <time>2022-05-04T07:41:37.000Z</time>
      </trkpt>
      <trkpt lat="40.82086765207350254058837890625" lon="-1.91328205168247222900390625">
        <ele>1100.800048828125</ele>
        <time>2022-05-04T07:41:40.000Z</time>
      </trkpt>
      <trkpt lat="40.82071828655898571014404296875" lon="-1.91337668336927890777587890625">
        <ele>1102.5999755859375</ele>
        <time>2022-05-04T07:41:44.000Z</time>
      </trkpt>
      <trkpt lat="40.82055115140974521636962890625" lon="-1.913486905395984649658203125">
        <ele>1104.800048828125</ele>
        <time>2022-05-04T07:41:50.000Z</time>
      </trkpt>
      <trkpt lat="40.82044939510524272918701171875" lon="-1.91355471499264240264892578125">
        <ele>1105</ele>
        <time>2022-05-04T07:41:54.000Z</time>
      </trkpt>
      <trkpt lat="40.8203929848968982696533203125" lon="-1.9135866500437259674072265625">
        <ele>1105.199951171875</ele>
        <time>2022-05-04T07:41:56.000Z</time>
      </trkpt>
      <trkpt lat="40.82023791968822479248046875" lon="-1.91366921178996562957763671875">
        <ele>1105.4000244140625</ele>
        <time>2022-05-04T07:42:02.000Z</time>
      </trkpt>
      <trkpt lat="40.8201354928314685821533203125" lon="-1.9137130491435527801513671875">
        <ele>1105.4000244140625</ele>
        <time>2022-05-04T07:42:06.000Z</time>
      </trkpt>
      <trkpt lat="40.820016972720623016357421875" lon="-1.91375814378261566162109375">
        <ele>1105.5999755859375</ele>
        <time>2022-05-04T07:42:10.000Z</time>
      </trkpt>
      <trkpt lat="40.81993072293698787689208984375" lon="-1.91377918235957622528076171875">
        <ele>1105.5999755859375</ele>
        <time>2022-05-04T07:42:13.000Z</time>
      </trkpt>
      <trkpt lat="40.81972285173833370208740234375" lon="-1.913827545940876007080078125">
        <ele>1105.800048828125</ele>
        <time>2022-05-04T07:42:20.000Z</time>
      </trkpt>
      <trkpt lat="40.8196919225156307220458984375" lon="-1.9138330779969692230224609375">
        <ele>1106</ele>
        <time>2022-05-04T07:42:21.000Z</time>
      </trkpt>
      <trkpt lat="40.81943216733634471893310546875" lon="-1.9138645939528942108154296875">
        <ele>1107.800048828125</ele>
        <time>2022-05-04T07:42:29.000Z</time>
      </trkpt>
      <trkpt lat="40.81939838826656341552734375" lon="-1.91386685706675052642822265625">
        <ele>1108</ele>
        <time>2022-05-04T07:42:30.000Z</time>
      </trkpt>
      <trkpt lat="40.81912404857575893402099609375" lon="-1.913895942270755767822265625">
        <ele>1109.800048828125</ele>
        <time>2022-05-04T07:42:38.000Z</time>
      </trkpt>
      <trkpt lat="40.81881701946258544921875" lon="-1.91393005661666393280029296875">
        <ele>1111.5999755859375</ele>
        <time>2022-05-04T07:42:47.000Z</time>
      </trkpt>
      <trkpt lat="40.81871576607227325439453125" lon="-1.91395570524036884307861328125">
        <ele>1112.4000244140625</ele>
        <time>2022-05-04T07:42:50.000Z</time>
      </trkpt>
      <trkpt lat="40.81861359067261219024658203125" lon="-1.91398537717759609222412109375">
        <ele>1113.199951171875</ele>
        <time>2022-05-04T07:42:53.000Z</time>
      </trkpt>
      <trkpt lat="40.8184487186372280120849609375" lon="-1.9140567071735858917236328125">
        <ele>1114.5999755859375</ele>
        <time>2022-05-04T07:42:58.000Z</time>
      </trkpt>
      <trkpt lat="40.81841812469065189361572265625" lon="-1.914069950580596923828125">
        <ele>1114.800048828125</ele>
        <time>2022-05-04T07:42:59.000Z</time>
      </trkpt>
      <trkpt lat="40.81821620464324951171875" lon="-1.9141864590346813201904296875">
        <ele>1116.800048828125</ele>
        <time>2022-05-04T07:43:06.000Z</time>
      </trkpt>
      <trkpt lat="40.8181613869965076446533203125" lon="-1.91422258503735065460205078125">
        <ele>1117.199951171875</ele>
        <time>2022-05-04T07:43:08.000Z</time>
      </trkpt>
      <trkpt lat="40.81800095736980438232421875" lon="-1.9143433682620525360107421875">
        <ele>1118.5999755859375</ele>
        <time>2022-05-04T07:43:14.000Z</time>
      </trkpt>
      <trkpt lat="40.8179273642599582672119140625" lon="-1.91441251896321773529052734375">
        <ele>1118.800048828125</ele>
        <time>2022-05-04T07:43:17.000Z</time>
      </trkpt>
      <trkpt lat="40.817834995687007904052734375" lon="-1.91451041959226131439208984375">
        <ele>1119.199951171875</ele>
        <time>2022-05-04T07:43:21.000Z</time>
      </trkpt>
      <trkpt lat="40.81776232458651065826416015625" lon="-1.91460295580327510833740234375">
        <ele>1119.5999755859375</ele>
        <time>2022-05-04T07:43:25.000Z</time>
      </trkpt>
      <trkpt lat="40.81770599819719791412353515625" lon="-1.9146729446947574615478515625">
        <ele>1119.800048828125</ele>
        <time>2022-05-04T07:43:28.000Z</time>
      </trkpt>
      <trkpt lat="40.8176194131374359130859375" lon="-1.91478936932981014251708984375">
        <ele>1120.199951171875</ele>
        <time>2022-05-04T07:43:33.000Z</time>
      </trkpt>
      <trkpt lat="40.8176033198833465576171875" lon="-1.9148142635822296142578125">
        <ele>1120.4000244140625</ele>
        <time>2022-05-04T07:43:34.000Z</time>
      </trkpt>
      <trkpt lat="40.81751220859587192535400390625" lon="-1.9149649702012538909912109375">
        <ele>1121</ele>
        <time>2022-05-04T07:43:40.000Z</time>
      </trkpt>
      <trkpt lat="40.81748421303927898406982421875" lon="-1.91501878201961517333984375">
        <ele>1121.199951171875</ele>
        <time>2022-05-04T07:43:42.000Z</time>
      </trkpt>
      <trkpt lat="40.8174090273678302764892578125" lon="-1.9151520542800426483154296875">
        <ele>1121.5999755859375</ele>
        <time>2022-05-04T07:43:47.000Z</time>
      </trkpt>
      <trkpt lat="40.81733233295381069183349609375" lon="-1.91527568735182285308837890625">
        <ele>1122</ele>
        <time>2022-05-04T07:43:52.000Z</time>
      </trkpt>
      <trkpt lat="40.8173171617090702056884765625" lon="-1.91530267708003520965576171875">
        <ele>1122.199951171875</ele>
        <time>2022-05-04T07:43:53.000Z</time>
      </trkpt>
      <trkpt lat="40.817254297435283660888671875" lon="-1.91543511115014553070068359375">
        <ele>1122.5999755859375</ele>
        <time>2022-05-04T07:43:58.000Z</time>
      </trkpt>
      <trkpt lat="40.81718849949538707733154296875" lon="-1.91554944030940532684326171875">
        <ele>1123.199951171875</ele>
        <time>2022-05-04T07:44:03.000Z</time>
      </trkpt>
      <trkpt lat="40.8171605877578258514404296875" lon="-1.91559302620589733123779296875">
        <ele>1123.4000244140625</ele>
        <time>2022-05-04T07:44:05.000Z</time>
      </trkpt>
      <trkpt lat="40.81708766520023345947265625" lon="-1.91570517607033252716064453125">
        <ele>1123.800048828125</ele>
        <time>2022-05-04T07:44:10.000Z</time>
      </trkpt>
      <trkpt lat="40.81705857999622821807861328125" lon="-1.915748007595539093017578125">
        <ele>1124</ele>
        <time>2022-05-04T07:44:12.000Z</time>
      </trkpt>
      <trkpt lat="40.8169671334326267242431640625" lon="-1.915876083076000213623046875">
        <ele>1124.4000244140625</ele>
        <time>2022-05-04T07:44:18.000Z</time>
      </trkpt>
      <trkpt lat="40.81692539155483245849609375" lon="-1.915936768054962158203125">
        <ele>1124.4000244140625</ele>
        <time>2022-05-04T07:44:21.000Z</time>
      </trkpt>
      <trkpt lat="40.81685992889106273651123046875" lon="-1.9160046614706516265869140625">
        <ele>1124.5999755859375</ele>
        <time>2022-05-04T07:44:25.000Z</time>
      </trkpt>
      <trkpt lat="40.816811732947826385498046875" lon="-1.91606224514544010162353515625">
        <ele>1124.800048828125</ele>
        <time>2022-05-04T07:44:28.000Z</time>
      </trkpt>
      <trkpt lat="40.816744007170200347900390625" lon="-1.91613734699785709381103515625">
        <ele>1125</ele>
        <time>2022-05-04T07:44:32.000Z</time>
      </trkpt>
      <trkpt lat="40.8166378922760486602783203125" lon="-1.91624346189200878143310546875">
        <ele>1125.199951171875</ele>
        <time>2022-05-04T07:44:38.000Z</time>
      </trkpt>
      <trkpt lat="40.816509313881397247314453125" lon="-1.91634907387197017669677734375">
        <ele>1125.4000244140625</ele>
        <time>2022-05-04T07:44:45.000Z</time>
      </trkpt>
      <trkpt lat="40.81647167913615703582763671875" lon="-1.91637463867664337158203125">
        <ele>1125.5999755859375</ele>
        <time>2022-05-04T07:44:47.000Z</time>
      </trkpt>
      <trkpt lat="40.81635969690978527069091796875" lon="-1.91645644605159759521484375">
        <ele>1126</ele>
        <time>2022-05-04T07:44:53.000Z</time>
      </trkpt>
      <trkpt lat="40.8163019455969333648681640625" lon="-1.9164960086345672607421875">
        <ele>1126.800048828125</ele>
        <time>2022-05-04T07:44:56.000Z</time>
      </trkpt>
      <trkpt lat="40.81622675992548465728759765625" lon="-1.9165523350238800048828125">
        <ele>1127.5999755859375</ele>
        <time>2022-05-04T07:45:00.000Z</time>
      </trkpt>
      <trkpt lat="40.8161299489438533782958984375" lon="-1.91661545075476169586181640625">
        <ele>1128.800048828125</ele>
        <time>2022-05-04T07:45:05.000Z</time>
      </trkpt>
      <trkpt lat="40.8160682581365108489990234375" lon="-1.9166587851941585540771484375">
        <ele>1129.4000244140625</ele>
        <time>2022-05-04T07:45:08.000Z</time>
      </trkpt>
      <trkpt lat="40.81592216156423091888427734375" lon="-1.91675676964223384857177734375">
        <ele>1130.800048828125</ele>
        <time>2022-05-04T07:45:15.000Z</time>
      </trkpt>
      <trkpt lat="40.81587723456323146820068359375" lon="-1.916785351932048797607421875">
        <ele>1131.199951171875</ele>
        <time>2022-05-04T07:45:17.000Z</time>
      </trkpt>
      <trkpt lat="40.8156855404376983642578125" lon="-1.91691619344055652618408203125">
        <ele>1133.199951171875</ele>
        <time>2022-05-04T07:45:26.000Z</time>
      </trkpt>
      <trkpt lat="40.815642960369586944580078125" lon="-1.9169451110064983367919921875">
        <ele>1133.5999755859375</ele>
        <time>2022-05-04T07:45:28.000Z</time>
      </trkpt>
      <trkpt lat="40.8154912479221820831298828125" lon="-1.91704519093036651611328125">
        <ele>1134.5999755859375</ele>
        <time>2022-05-04T07:45:35.000Z</time>
      </trkpt>
      <trkpt lat="40.815441794693470001220703125" lon="-1.91708081401884555816650390625">
        <ele>1134.800048828125</ele>
        <time>2022-05-04T07:45:37.000Z</time>
      </trkpt>
      <trkpt lat="40.81514935009181499481201171875" lon="-1.9172820635139942169189453125">
        <ele>1135.5999755859375</ele>
        <time>2022-05-04T07:45:48.000Z</time>
      </trkpt>
      <trkpt lat="40.8148726634681224822998046875" lon="-1.91747643984854221343994140625">
        <ele>1135.199951171875</ele>
        <time>2022-05-04T07:45:57.000Z</time>
      </trkpt>
      <trkpt lat="40.81462279893457889556884765625" lon="-1.91769369877874851226806640625">
        <ele>1134.199951171875</ele>
        <time>2022-05-04T07:46:05.000Z</time>
      </trkpt>
      <trkpt lat="40.8145655505359172821044921875" lon="-1.91774792969226837158203125">
        <ele>1134.5999755859375</ele>
        <time>2022-05-04T07:46:07.000Z</time>
      </trkpt>
      <trkpt lat="40.81438106484711170196533203125" lon="-1.917954124510288238525390625">
        <ele>1135</ele>
        <time>2022-05-04T07:46:14.000Z</time>
      </trkpt>
      <trkpt lat="40.81427997909486293792724609375" lon="-1.9180733151733875274658203125">
        <ele>1135.199951171875</ele>
        <time>2022-05-04T07:46:18.000Z</time>
      </trkpt>
      <trkpt lat="40.81417939625680446624755859375" lon="-1.91819979809224605560302734375">
        <ele>1135.199951171875</ele>
        <time>2022-05-04T07:46:22.000Z</time>
      </trkpt>
      <trkpt lat="40.813986025750637054443359375" lon="-1.9184505008161067962646484375">
        <ele>1135.800048828125</ele>
        <time>2022-05-04T07:46:30.000Z</time>
      </trkpt>
      <trkpt lat="40.81384294666349887847900390625" lon="-1.91862878389656543731689453125">
        <ele>1136</ele>
        <time>2022-05-04T07:46:36.000Z</time>
      </trkpt>
      <trkpt lat="40.81376667134463787078857421875" lon="-1.9187180511653423309326171875">
        <ele>1136</ele>
        <time>2022-05-04T07:46:39.000Z</time>
      </trkpt>
      <trkpt lat="40.8135727979242801666259765625" lon="-1.9189178757369518280029296875">
        <ele>1136.4000244140625</ele>
        <time>2022-05-04T07:46:46.000Z</time>
      </trkpt>
      <trkpt lat="40.81333064474165439605712890625" lon="-1.9191006012260913848876953125">
        <ele>1137.5999755859375</ele>
        <time>2022-05-04T07:46:54.000Z</time>
      </trkpt>
      <trkpt lat="40.8132023178040981292724609375" lon="-1.9191780500113964080810546875">
        <ele>1138.199951171875</ele>
        <time>2022-05-04T07:46:58.000Z</time>
      </trkpt>
      <trkpt lat="40.81304482184350490570068359375" lon="-1.91926932893693447113037109375">
        <ele>1139</ele>
        <time>2022-05-04T07:47:03.000Z</time>
      </trkpt>
      <trkpt lat="40.812751539051532745361328125" lon="-1.91944669000804424285888671875">
        <ele>1141</ele>
        <time>2022-05-04T07:47:12.000Z</time>
      </trkpt>
      <trkpt lat="40.8125914447009563446044921875" lon="-1.91955800168216228485107421875">
        <ele>1141.800048828125</ele>
        <time>2022-05-04T07:47:17.000Z</time>
      </trkpt>
      <trkpt lat="40.81243663094937801361083984375" lon="-1.91969144158065319061279296875">
        <ele>1142.199951171875</ele>
        <time>2022-05-04T07:47:22.000Z</time>
      </trkpt>
      <trkpt lat="40.81217997707426548004150390625" lon="-1.91999838687479496002197265625">
        <ele>1142.4000244140625</ele>
        <time>2022-05-04T07:47:31.000Z</time>
      </trkpt>
      <trkpt lat="40.81208241172134876251220703125" lon="-1.9201627559959888458251953125">
        <ele>1143.5999755859375</ele>
        <time>2022-05-04T07:47:35.000Z</time>
      </trkpt>
      <trkpt lat="40.81200932152569293975830078125" lon="-1.920311786234378814697265625">
        <ele>1144.4000244140625</ele>
        <time>2022-05-04T07:47:38.000Z</time>
      </trkpt>
      <trkpt lat="40.8118427731096744537353515625" lon="-1.92075141705572605133056640625">
        <ele>1145.5999755859375</ele>
        <time>2022-05-04T07:47:46.000Z</time>
      </trkpt>
      <trkpt lat="40.8116714470088481903076171875" lon="-1.92144610919058322906494140625">
        <ele>1148.5999755859375</ele>
        <time>2022-05-04T07:47:57.000Z</time>
      </trkpt>
      <trkpt lat="40.8116117678582668304443359375" lon="-1.92166605032980442047119140625">
        <ele>1150.800048828125</ele>
        <time>2022-05-04T07:48:00.000Z</time>
      </trkpt>
      <trkpt lat="40.81150573678314685821533203125" lon="-1.92198171280324459075927734375">
        <ele>1151.199951171875</ele>
        <time>2022-05-04T07:48:04.000Z</time>
      </trkpt>
      <trkpt lat="40.81147220917046070098876953125" lon="-1.922065280377864837646484375">
        <ele>1151.4000244140625</ele>
        <time>2022-05-04T07:48:05.000Z</time>
      </trkpt>
      <trkpt lat="40.8113080076873302459716796875" lon="-1.92241899669170379638671875">
        <ele>1150.800048828125</ele>
        <time>2022-05-04T07:48:09.000Z</time>
      </trkpt>
      <trkpt lat="40.81125796772539615631103515625" lon="-1.922508180141448974609375">
        <ele>1150.4000244140625</ele>
        <time>2022-05-04T07:48:10.000Z</time>
      </trkpt>
      <trkpt lat="40.8111474104225635528564453125" lon="-1.9226796738803386688232421875">
        <ele>1149.4000244140625</ele>
        <time>2022-05-04T07:48:12.000Z</time>
      </trkpt>
      <trkpt lat="40.81102243624627590179443359375" lon="-1.922843120992183685302734375">
        <ele>1148.199951171875</ele>
        <time>2022-05-04T07:48:14.000Z</time>
      </trkpt>
      <trkpt lat="40.8109552972018718719482421875" lon="-1.9229224137961864471435546875">
        <ele>1147.4000244140625</ele>
        <time>2022-05-04T07:48:15.000Z</time>
      </trkpt>
      <trkpt lat="40.8108862303197383880615234375" lon="-1.9229988567531108856201171875">
        <ele>1146.5999755859375</ele>
        <time>2022-05-04T07:48:16.000Z</time>
      </trkpt>
      <trkpt lat="40.81066033802926540374755859375" lon="-1.92320848815143108367919921875">
        <ele>1143.800048828125</ele>
        <time>2022-05-04T07:48:19.000Z</time>
      </trkpt>
      <trkpt lat="40.81057987175881862640380859375" lon="-1.92327084951102733612060546875">
        <ele>1143.199951171875</ele>
        <time>2022-05-04T07:48:20.000Z</time>
      </trkpt>
      <trkpt lat="40.8104966394603252410888671875" lon="-1.9233301095664501190185546875">
        <ele>1142.800048828125</ele>
        <time>2022-05-04T07:48:21.000Z</time>
      </trkpt>
      <trkpt lat="40.810231268405914306640625" lon="-1.9234893657267093658447265625">
        <ele>1141.4000244140625</ele>
        <time>2022-05-04T07:48:24.000Z</time>
      </trkpt>
      <trkpt lat="40.8101365529000759124755859375" lon="-1.9235383160412311553955078125">
        <ele>1141</ele>
        <time>2022-05-04T07:48:25.000Z</time>
      </trkpt>
      <trkpt lat="40.81003940664231777191162109375" lon="-1.92358550615608692169189453125">
        <ele>1140.4000244140625</ele>
        <time>2022-05-04T07:48:26.000Z</time>
      </trkpt>
      <trkpt lat="40.809833966195583343505859375" lon="-1.9236838258802890777587890625">
        <ele>1139.199951171875</ele>
        <time>2022-05-04T07:48:28.000Z</time>
      </trkpt>
      <trkpt lat="40.8096264302730560302734375" lon="-1.9237877614796161651611328125">
        <ele>1137.5999755859375</ele>
        <time>2022-05-04T07:48:30.000Z</time>
      </trkpt>
      <trkpt lat="40.8095193095505237579345703125" lon="-1.923840902745723724365234375">
        <ele>1136.4000244140625</ele>
        <time>2022-05-04T07:48:31.000Z</time>
      </trkpt>
      <trkpt lat="40.8094106800854206085205078125" lon="-1.923893876373767852783203125">
        <ele>1135.199951171875</ele>
        <time>2022-05-04T07:48:32.000Z</time>
      </trkpt>
      <trkpt lat="40.80918747000396251678466796875" lon="-1.923998482525348663330078125">
        <ele>1132.4000244140625</ele>
        <time>2022-05-04T07:48:34.000Z</time>
      </trkpt>
      <trkpt lat="40.80896384082734584808349609375" lon="-1.92410342395305633544921875">
        <ele>1130</ele>
        <time>2022-05-04T07:48:36.000Z</time>
      </trkpt>
      <trkpt lat="40.80873786471784114837646484375" lon="-1.924211718142032623291015625">
        <ele>1128.4000244140625</ele>
        <time>2022-05-04T07:48:38.000Z</time>
      </trkpt>
      <trkpt lat="40.80850719474256038665771484375" lon="-1.9243201799690723419189453125">
        <ele>1127.5999755859375</ele>
        <time>2022-05-04T07:48:40.000Z</time>
      </trkpt>
      <trkpt lat="40.80827384255826473236083984375" lon="-1.9244318269193172454833984375">
        <ele>1127</ele>
        <time>2022-05-04T07:48:42.000Z</time>
      </trkpt>
      <trkpt lat="40.80804191529750823974609375" lon="-1.9245592318475246429443359375">
        <ele>1126.199951171875</ele>
        <time>2022-05-04T07:48:44.000Z</time>
      </trkpt>
      <trkpt lat="40.8079260773956775665283203125" lon="-1.92463374696671962738037109375">
        <ele>1124.800048828125</ele>
        <time>2022-05-04T07:48:45.000Z</time>
      </trkpt>
      <trkpt lat="40.80770337022840976715087890625" lon="-1.92480121739208698272705078125">
        <ele>1122.5999755859375</ele>
        <time>2022-05-04T07:48:47.000Z</time>
      </trkpt>
      <trkpt lat="40.80750237219035625457763671875" lon="-1.92499634809792041778564453125">
        <ele>1121</ele>
        <time>2022-05-04T07:48:49.000Z</time>
      </trkpt>
      <trkpt lat="40.807321406900882720947265625" lon="-1.92521763034164905548095703125">
        <ele>1120.199951171875</ele>
        <time>2022-05-04T07:48:51.000Z</time>
      </trkpt>
      <trkpt lat="40.80724018625915050506591796875" lon="-1.925338245928287506103515625">
        <ele>1120.199951171875</ele>
        <time>2022-05-04T07:48:52.000Z</time>
      </trkpt>
      <trkpt lat="40.8071639947593212127685546875" lon="-1.925465650856494903564453125">
        <ele>1120.199951171875</ele>
        <time>2022-05-04T07:48:53.000Z</time>
      </trkpt>
      <trkpt lat="40.807023346424102783203125" lon="-1.92573026753962039947509765625">
        <ele>1120.4000244140625</ele>
        <time>2022-05-04T07:48:55.000Z</time>
      </trkpt>
      <trkpt lat="40.80683165229856967926025390625" lon="-1.92615623585879802703857421875">
        <ele>1117.800048828125</ele>
        <time>2022-05-04T07:48:58.000Z</time>
      </trkpt>
      <trkpt lat="40.8067026548087596893310546875" lon="-1.9264538772404193878173828125">
        <ele>1116.800048828125</ele>
        <time>2022-05-04T07:49:00.000Z</time>
      </trkpt>
      <trkpt lat="40.80663735978305339813232421875" lon="-1.92660667933523654937744140625">
        <ele>1116.199951171875</ele>
        <time>2022-05-04T07:49:01.000Z</time>
      </trkpt>
      <trkpt lat="40.8065045066177845001220703125" lon="-1.926916055381298065185546875">
        <ele>1113.5999755859375</ele>
        <time>2022-05-04T07:49:03.000Z</time>
      </trkpt>
      <trkpt lat="40.8063707314431667327880859375" lon="-1.92722241394221782684326171875">
        <ele>1111.199951171875</ele>
        <time>2022-05-04T07:49:05.000Z</time>
      </trkpt>
      <trkpt lat="40.80630459822714328765869140625" lon="-1.92737496457993984222412109375">
        <ele>1110.5999755859375</ele>
        <time>2022-05-04T07:49:06.000Z</time>
      </trkpt>
      <trkpt lat="40.80617350526154041290283203125" lon="-1.92768207751214504241943359375">
        <ele>1109.5999755859375</ele>
        <time>2022-05-04T07:49:08.000Z</time>
      </trkpt>
      <trkpt lat="40.80610862933099269866943359375" lon="-1.92783437669277191162109375">
        <ele>1109.5999755859375</ele>
        <time>2022-05-04T07:49:09.000Z</time>
      </trkpt>
      <trkpt lat="40.80598021857440471649169921875" lon="-1.92812883295118808746337890625">
        <ele>1109.5999755859375</ele>
        <time>2022-05-04T07:49:11.000Z</time>
      </trkpt>
      <trkpt lat="40.805850215256214141845703125" lon="-1.92841901443898677825927734375">
        <ele>1108.4000244140625</ele>
        <time>2022-05-04T07:49:13.000Z</time>
      </trkpt>
      <trkpt lat="40.8057216368615627288818359375" lon="-1.9287049211561679840087890625">
        <ele>1106.5999755859375</ele>
        <time>2022-05-04T07:49:15.000Z</time>
      </trkpt>
      <trkpt lat="40.8055938966572284698486328125" lon="-1.92898563109338283538818359375">
        <ele>1104.5999755859375</ele>
        <time>2022-05-04T07:49:17.000Z</time>
      </trkpt>
      <trkpt lat="40.80539650283753871917724609375" lon="-1.92939030937850475311279296875">
        <ele>1103.5999755859375</ele>
        <time>2022-05-04T07:49:20.000Z</time>
      </trkpt>
      <trkpt lat="40.80532441847026348114013671875" lon="-1.9295179657638072967529296875">
        <ele>1103.199951171875</ele>
        <time>2022-05-04T07:49:21.000Z</time>
      </trkpt>
      <trkpt lat="40.80524931661784648895263671875" lon="-1.92964084446430206298828125">
        <ele>1102.5999755859375</ele>
        <time>2022-05-04T07:49:22.000Z</time>
      </trkpt>
      <trkpt lat="40.8050001226365566253662109375" lon="-1.92995826713740825653076171875">
        <ele>1099.800048828125</ele>
        <time>2022-05-04T07:49:25.000Z</time>
      </trkpt>
      <trkpt lat="40.80466258339583873748779296875" lon="-1.93032287992537021636962890625">
        <ele>1093.800048828125</ele>
        <time>2022-05-04T07:49:29.000Z</time>
      </trkpt>
      <trkpt lat="40.8045087754726409912109375" lon="-1.9304986484348773956298828125">
        <ele>1093.199951171875</ele>
        <time>2022-05-04T07:49:31.000Z</time>
      </trkpt>
      <trkpt lat="40.80407266505062580108642578125" lon="-1.9309740699827671051025390625">
        <ele>1090.5999755859375</ele>
        <time>2022-05-04T07:49:37.000Z</time>
      </trkpt>
      <trkpt lat="40.804004855453968048095703125" lon="-1.93104405887424945831298828125">
        <ele>1090</ele>
        <time>2022-05-04T07:49:38.000Z</time>
      </trkpt>
      <trkpt lat="40.803668908774852752685546875" lon="-1.931316889822483062744140625">
        <ele>1089.5999755859375</ele>
        <time>2022-05-04T07:49:43.000Z</time>
      </trkpt>
      <trkpt lat="40.803252160549163818359375" lon="-1.93149232305586338043212890625">
        <ele>1091.199951171875</ele>
        <time>2022-05-04T07:49:49.000Z</time>
      </trkpt>
      <trkpt lat="40.8027225919067859649658203125" lon="-1.931613273918628692626953125">
        <ele>1092</ele>
        <time>2022-05-04T07:49:57.000Z</time>
      </trkpt>
      <trkpt lat="40.80259895883500576019287109375" lon="-1.93164370022714138031005859375">
        <ele>1092</ele>
        <time>2022-05-04T07:49:59.000Z</time>
      </trkpt>
      <trkpt lat="40.8022589050233364105224609375" lon="-1.9317529164254665374755859375">
        <ele>1091.800048828125</ele>
        <time>2022-05-04T07:50:05.000Z</time>
      </trkpt>
      <trkpt lat="40.801777951419353485107421875" lon="-1.9319973327219486236572265625">
        <ele>1091</ele>
        <time>2022-05-04T07:50:14.000Z</time>
      </trkpt>
      <trkpt lat="40.80138106830418109893798828125" lon="-1.932226158678531646728515625">
        <ele>1091.199951171875</ele>
        <time>2022-05-04T07:50:22.000Z</time>
      </trkpt>
      <trkpt lat="40.80124813131988048553466796875" lon="-1.93231978453695774078369140625">
        <ele>1092.4000244140625</ele>
        <time>2022-05-04T07:50:25.000Z</time>
      </trkpt>
      <trkpt lat="40.80120655708014965057373046875" lon="-1.9323587603867053985595703125">
        <ele>1092.5999755859375</ele>
        <time>2022-05-04T07:50:26.000Z</time>
      </trkpt>
      <trkpt lat="40.8011238276958465576171875" lon="-1.93244199268519878387451171875">
        <ele>1093.199951171875</ele>
        <time>2022-05-04T07:50:28.000Z</time>
      </trkpt>
      <trkpt lat="40.8008152060210704803466796875" lon="-1.93281012587249279022216796875">
        <ele>1094.5999755859375</ele>
        <time>2022-05-04T07:50:36.000Z</time>
      </trkpt>
      <trkpt lat="40.80077891238033771514892578125" lon="-1.932856142520904541015625">
        <ele>1094.800048828125</ele>
        <time>2022-05-04T07:50:37.000Z</time>
      </trkpt>
      <trkpt lat="40.80043810419738292694091796875" lon="-1.933271549642086029052734375">
        <ele>1095.199951171875</ele>
        <time>2022-05-04T07:50:46.000Z</time>
      </trkpt>
      <trkpt lat="40.800277926027774810791015625" lon="-1.93344832397997379302978515625">
        <ele>1095</ele>
        <time>2022-05-04T07:50:50.000Z</time>
      </trkpt>
      <trkpt lat="40.8001144789159297943115234375" lon="-1.93361093290150165557861328125">
        <ele>1094.800048828125</ele>
        <time>2022-05-04T07:50:54.000Z</time>
      </trkpt>
      <trkpt lat="40.79968926496803760528564453125" lon="-1.9339731149375438690185546875">
        <ele>1094.5999755859375</ele>
        <time>2022-05-04T07:51:04.000Z</time>
      </trkpt>
      <trkpt lat="40.79964668489992618560791015625" lon="-1.934009492397308349609375">
        <ele>1094.5999755859375</ele>
        <time>2022-05-04T07:51:05.000Z</time>
      </trkpt>
      <trkpt lat="40.799214430153369903564453125" lon="-1.9343640469014644622802734375">
        <ele>1094.800048828125</ele>
        <time>2022-05-04T07:51:15.000Z</time>
      </trkpt>
      <trkpt lat="40.79900152981281280517578125" lon="-1.93453880958259105682373046875">
        <ele>1094.800048828125</ele>
        <time>2022-05-04T07:51:20.000Z</time>
      </trkpt>
      <trkpt lat="40.79866985790431499481201171875" lon="-1.93481273017823696136474609375">
        <ele>1095.5999755859375</ele>
        <time>2022-05-04T07:51:28.000Z</time>
      </trkpt>
      <trkpt lat="40.79846852459013462066650390625" lon="-1.934974081814289093017578125">
        <ele>1096.4000244140625</ele>
        <time>2022-05-04T07:51:33.000Z</time>
      </trkpt>
      <trkpt lat="40.7982262037694454193115234375" lon="-1.93517030216753482818603515625">
        <ele>1098</ele>
        <time>2022-05-04T07:51:39.000Z</time>
      </trkpt>
      <trkpt lat="40.79773284494876861572265625" lon="-1.935576908290386199951171875">
        <ele>1100.5999755859375</ele>
        <time>2022-05-04T07:51:51.000Z</time>
      </trkpt>
      <trkpt lat="40.79760736785829067230224609375" lon="-1.9356756471097469329833984375">
        <ele>1101.199951171875</ele>
        <time>2022-05-04T07:51:54.000Z</time>
      </trkpt>
      <trkpt lat="40.797368399798870086669921875" lon="-1.93587371148169040679931640625">
        <ele>1102.199951171875</ele>
        <time>2022-05-04T07:52:00.000Z</time>
      </trkpt>
      <trkpt lat="40.79716413281857967376708984375" lon="-1.9360377453267574310302734375">
        <ele>1102.5999755859375</ele>
        <time>2022-05-04T07:52:05.000Z</time>
      </trkpt>
      <trkpt lat="40.79687495715916156768798828125" lon="-1.9362744502723217010498046875">
        <ele>1101.5999755859375</ele>
        <time>2022-05-04T07:52:12.000Z</time>
      </trkpt>
      <trkpt lat="40.79679273068904876708984375" lon="-1.9363391585648059844970703125">
        <ele>1101.199951171875</ele>
        <time>2022-05-04T07:52:14.000Z</time>
      </trkpt>
      <trkpt lat="40.79642971046268939971923828125" lon="-1.93663277663290500640869140625">
        <ele>1099.800048828125</ele>
        <time>2022-05-04T07:52:23.000Z</time>
      </trkpt>
      <trkpt lat="40.79600089229643344879150390625" lon="-1.936960928142070770263671875">
        <ele>1100.800048828125</ele>
        <time>2022-05-04T07:52:34.000Z</time>
      </trkpt>
      <trkpt lat="40.79562387429177761077880859375" lon="-1.937228143215179443359375">
        <ele>1103</ele>
        <time>2022-05-04T07:52:44.000Z</time>
      </trkpt>
      <trkpt lat="40.7955128140747547149658203125" lon="-1.9373087771236896514892578125">
        <ele>1103.4000244140625</ele>
        <time>2022-05-04T07:52:47.000Z</time>
      </trkpt>
      <trkpt lat="40.79532296396791934967041015625" lon="-1.9374469108879566192626953125">
        <ele>1104.199951171875</ele>
        <time>2022-05-04T07:52:52.000Z</time>
      </trkpt>
      <trkpt lat="40.79511274583637714385986328125" lon="-1.93759024143218994140625">
        <ele>1105.800048828125</ele>
        <time>2022-05-04T07:52:57.000Z</time>
      </trkpt>
      <trkpt lat="40.7946816645562648773193359375" lon="-1.93785636685788631439208984375">
        <ele>1109</ele>
        <time>2022-05-04T07:53:07.000Z</time>
      </trkpt>
      <trkpt lat="40.79460178501904010772705078125" lon="-1.93790045566856861114501953125">
        <ele>1109.199951171875</ele>
        <time>2022-05-04T07:53:09.000Z</time>
      </trkpt>
      <trkpt lat="40.79436675645411014556884765625" lon="-1.9380098395049571990966796875">
        <ele>1109.800048828125</ele>
        <time>2022-05-04T07:53:15.000Z</time>
      </trkpt>
      <trkpt lat="40.79428813420236110687255859375" lon="-1.9380396790802478790283203125">
        <ele>1110</ele>
        <time>2022-05-04T07:53:17.000Z</time>
      </trkpt>
      <trkpt lat="40.79400122165679931640625" lon="-1.9381067343056201934814453125">
        <ele>1111.199951171875</ele>
        <time>2022-05-04T07:53:24.000Z</time>
      </trkpt>
      <trkpt lat="40.7937826216220855712890625" lon="-1.938135065138339996337890625">
        <ele>1112.800048828125</ele>
        <time>2022-05-04T07:53:29.000Z</time>
      </trkpt>
      <trkpt lat="40.793552957475185394287109375" lon="-1.93813816644251346588134765625">
        <ele>1113.4000244140625</ele>
        <time>2022-05-04T07:53:34.000Z</time>
      </trkpt>
      <trkpt lat="40.7931916974484920501708984375" lon="-1.9381382502615451812744140625">
        <ele>1114.199951171875</ele>
        <time>2022-05-04T07:53:42.000Z</time>
      </trkpt>
      <trkpt lat="40.79310477711260318756103515625" lon="-1.93813347257673740386962890625">
        <ele>1114.4000244140625</ele>
        <time>2022-05-04T07:53:44.000Z</time>
      </trkpt>
      <trkpt lat="40.79280906356871128082275390625" lon="-1.93813146091997623443603515625">
        <ele>1115.199951171875</ele>
        <time>2022-05-04T07:53:51.000Z</time>
      </trkpt>
      <trkpt lat="40.7927687466144561767578125" lon="-1.93813498131930828094482421875">
        <ele>1115.199951171875</ele>
        <time>2022-05-04T07:53:52.000Z</time>
      </trkpt>
      <trkpt lat="40.79246364533901214599609375" lon="-1.938154511153697967529296875">
        <ele>1115.5999755859375</ele>
        <time>2022-05-04T07:54:00.000Z</time>
      </trkpt>
      <trkpt lat="40.79238980077207088470458984375" lon="-1.93816490471363067626953125">
        <ele>1115.5999755859375</ele>
        <time>2022-05-04T07:54:02.000Z</time>
      </trkpt>
      <trkpt lat="40.79216617159545421600341796875" lon="-1.938202120363712310791015625">
        <ele>1115.5999755859375</ele>
        <time>2022-05-04T07:54:08.000Z</time>
      </trkpt>
      <trkpt lat="40.7920423708856105804443359375" lon="-1.9382213987410068511962890625">
        <ele>1115.4000244140625</ele>
        <time>2022-05-04T07:54:11.000Z</time>
      </trkpt>
      <trkpt lat="40.7918529398739337921142578125" lon="-1.93825350143015384674072265625">
        <ele>1115.4000244140625</ele>
        <time>2022-05-04T07:54:16.000Z</time>
      </trkpt>
      <trkpt lat="40.791738443076610565185546875" lon="-1.938272528350353240966796875">
        <ele>1115.5999755859375</ele>
        <time>2022-05-04T07:54:19.000Z</time>
      </trkpt>
      <trkpt lat="40.79132295213639736175537109375" lon="-1.93835274316370487213134765625">
        <ele>1116.4000244140625</ele>
        <time>2022-05-04T07:54:29.000Z</time>
      </trkpt>
      <trkpt lat="40.79127936623990535736083984375" lon="-1.93836028687655925750732421875">
        <ele>1116.5999755859375</ele>
        <time>2022-05-04T07:54:30.000Z</time>
      </trkpt>
      <trkpt lat="40.790839903056621551513671875" lon="-1.9384396634995937347412109375">
        <ele>1120.800048828125</ele>
        <time>2022-05-04T07:54:40.000Z</time>
      </trkpt>
      <trkpt lat="40.79066245816648006439208984375" lon="-1.93846606649458408355712890625">
        <ele>1122.5999755859375</ele>
        <time>2022-05-04T07:54:44.000Z</time>
      </trkpt>
      <trkpt lat="40.79043849371373653411865234375" lon="-1.93848752416670322418212890625">
        <ele>1123.5999755859375</ele>
        <time>2022-05-04T07:54:49.000Z</time>
      </trkpt>
      <trkpt lat="40.79002576880156993865966796875" lon="-1.9384876079857349395751953125">
        <ele>1123.800048828125</ele>
        <time>2022-05-04T07:54:58.000Z</time>
      </trkpt>
      <trkpt lat="40.7898919098079204559326171875" lon="-1.9384842552244663238525390625">
        <ele>1124.199951171875</ele>
        <time>2022-05-04T07:55:01.000Z</time>
      </trkpt>
      <trkpt lat="40.7896803505718708038330078125" lon="-1.93848182447254657745361328125">
        <ele>1124.800048828125</ele>
        <time>2022-05-04T07:55:06.000Z</time>
      </trkpt>
      <trkpt lat="40.7895053364336490631103515625" lon="-1.93848199211061000823974609375">
        <ele>1126</ele>
        <time>2022-05-04T07:55:10.000Z</time>
      </trkpt>
      <trkpt lat="40.7893811166286468505859375" lon="-1.93848366849124431610107421875">
        <ele>1126.800048828125</ele>
        <time>2022-05-04T07:55:13.000Z</time>
      </trkpt>
      <trkpt lat="40.78918196260929107666015625" lon="-1.93851225078105926513671875">
        <ele>1128.199951171875</ele>
        <time>2022-05-04T07:55:18.000Z</time>
      </trkpt>
      <trkpt lat="40.78910208307206630706787109375" lon="-1.93853479810059070587158203125">
        <ele>1128.5999755859375</ele>
        <time>2022-05-04T07:55:20.000Z</time>
      </trkpt>
      <trkpt lat="40.78883386217057704925537109375" lon="-1.93864745087921619415283203125">
        <ele>1129.4000244140625</ele>
        <time>2022-05-04T07:55:27.000Z</time>
      </trkpt>
      <trkpt lat="40.788796059787273406982421875" lon="-1.93866689689457416534423828125">
        <ele>1129.199951171875</ele>
        <time>2022-05-04T07:55:28.000Z</time>
      </trkpt>
      <trkpt lat="40.78853848390281200408935546875" lon="-1.93879933096468448638916015625">
        <ele>1129</ele>
        <time>2022-05-04T07:55:35.000Z</time>
      </trkpt>
      <trkpt lat="40.78830043785274028778076171875" lon="-1.93890645168721675872802734375">
        <ele>1128.800048828125</ele>
        <time>2022-05-04T07:55:42.000Z</time>
      </trkpt>
      <trkpt lat="40.78823103569447994232177734375" lon="-1.93893126212060451507568359375">
        <ele>1128.800048828125</ele>
        <time>2022-05-04T07:55:44.000Z</time>
      </trkpt>
      <trkpt lat="40.78798360191285610198974609375" lon="-1.9389838166534900665283203125">
        <ele>1128.5999755859375</ele>
        <time>2022-05-04T07:55:51.000Z</time>
      </trkpt>
      <trkpt lat="40.78791252337396144866943359375" lon="-1.93899077363312244415283203125">
        <ele>1129</ele>
        <time>2022-05-04T07:55:53.000Z</time>
      </trkpt>
      <trkpt lat="40.78774136491119861602783203125" lon="-1.9389797933399677276611328125">
        <ele>1129.800048828125</ele>
        <time>2022-05-04T07:55:58.000Z</time>
      </trkpt>
      <trkpt lat="40.78763835132122039794921875" lon="-1.9389650411903858184814453125">
        <ele>1130.4000244140625</ele>
        <time>2022-05-04T07:56:01.000Z</time>
      </trkpt>
      <trkpt lat="40.78751572407782077789306640625" lon="-1.93892396986484527587890625">
        <ele>1131</ele>
        <time>2022-05-04T07:56:05.000Z</time>
      </trkpt>
      <trkpt lat="40.78736820258200168609619140625" lon="-1.93885079585015773773193359375">
        <ele>1131.800048828125</ele>
        <time>2022-05-04T07:56:10.000Z</time>
      </trkpt>
      <trkpt lat="40.787312798202037811279296875" lon="-1.93881492130458354949951171875">
        <ele>1131.800048828125</ele>
        <time>2022-05-04T07:56:12.000Z</time>
      </trkpt>
      <trkpt lat="40.78713552094995975494384765625" lon="-1.93867586553096771240234375">
        <ele>1133</ele>
        <time>2022-05-04T07:56:19.000Z</time>
      </trkpt>
      <trkpt lat="40.786939300596714019775390625" lon="-1.9384896196424961090087890625">
        <ele>1135</ele>
        <time>2022-05-04T07:56:27.000Z</time>
      </trkpt>
      <trkpt lat="40.7869139872491359710693359375" lon="-1.93846707232296466827392578125">
        <ele>1134.800048828125</ele>
        <time>2022-05-04T07:56:28.000Z</time>
      </trkpt>
      <trkpt lat="40.78674995340406894683837890625" lon="-1.9383451156318187713623046875">
        <ele>1133.800048828125</ele>
        <time>2022-05-04T07:56:34.000Z</time>
      </trkpt>
      <trkpt lat="40.78672279603779315948486328125" lon="-1.93832709453999996185302734375">
        <ele>1133.5999755859375</ele>
        <time>2022-05-04T07:56:35.000Z</time>
      </trkpt>
      <trkpt lat="40.78658566810190677642822265625" lon="-1.9382629729807376861572265625">
        <ele>1133</ele>
        <time>2022-05-04T07:56:40.000Z</time>
      </trkpt>
      <trkpt lat="40.7865083031356334686279296875" lon="-1.9382364861667156219482421875">
        <ele>1132.800048828125</ele>
        <time>2022-05-04T07:56:43.000Z</time>
      </trkpt>
      <trkpt lat="40.78645625151693820953369140625" lon="-1.9382217340171337127685546875">
        <ele>1133.199951171875</ele>
        <time>2022-05-04T07:56:45.000Z</time>
      </trkpt>
      <trkpt lat="40.78629724681377410888671875" lon="-1.938203461468219757080078125">
        <ele>1134.800048828125</ele>
        <time>2022-05-04T07:56:51.000Z</time>
      </trkpt>
      <trkpt lat="40.78627151437103748321533203125" lon="-1.93820304237306118011474609375">
        <ele>1135.199951171875</ele>
        <time>2022-05-04T07:56:52.000Z</time>
      </trkpt>
      <trkpt lat="40.78612499870359897613525390625" lon="-1.9382026232779026031494140625">
        <ele>1137.5999755859375</ele>
        <time>2022-05-04T07:56:58.000Z</time>
      </trkpt>
      <trkpt lat="40.785975717008113861083984375" lon="-1.93821293301880359649658203125">
        <ele>1139.800048828125</ele>
        <time>2022-05-04T07:57:04.000Z</time>
      </trkpt>
      <trkpt lat="40.78595099039375782012939453125" lon="-1.93821326829493045806884765625">
        <ele>1140</ele>
        <time>2022-05-04T07:57:05.000Z</time>
      </trkpt>
      <trkpt lat="40.78580774366855621337890625" lon="-1.9382130168378353118896484375">
        <ele>1142.4000244140625</ele>
        <time>2022-05-04T07:57:11.000Z</time>
      </trkpt>
      <trkpt lat="40.78578226268291473388671875" lon="-1.938209496438503265380859375">
        <ele>1142.800048828125</ele>
        <time>2022-05-04T07:57:12.000Z</time>
      </trkpt>
      <trkpt lat="40.7856637425720691680908203125" lon="-1.9381855241954326629638671875">
        <ele>1145</ele>
        <time>2022-05-04T07:57:17.000Z</time>
      </trkpt>
      <trkpt lat="40.78561873175203800201416015625" lon="-1.93817219696938991546630859375">
        <ele>1145.800048828125</ele>
        <time>2022-05-04T07:57:19.000Z</time>
      </trkpt>
      <trkpt lat="40.78545092605054378509521484375" lon="-1.93811872042715549468994140625">
        <ele>1147</ele>
        <time>2022-05-04T07:57:26.000Z</time>
      </trkpt>
      <trkpt lat="40.78540180809795856475830078125" lon="-1.9381033815443515777587890625">
        <ele>1147.4000244140625</ele>
        <time>2022-05-04T07:57:28.000Z</time>
      </trkpt>
      <trkpt lat="40.7852379418909549713134765625" lon="-1.9380296207964420318603515625">
        <ele>1148.800048828125</ele>
        <time>2022-05-04T07:57:35.000Z</time>
      </trkpt>
      <trkpt lat="40.7851906679570674896240234375" lon="-1.9380048103630542755126953125">
        <ele>1149.199951171875</ele>
        <time>2022-05-04T07:57:37.000Z</time>
      </trkpt>
      <trkpt lat="40.78504406847059726715087890625" lon="-1.93793356418609619140625">
        <ele>1150.5999755859375</ele>
        <time>2022-05-04T07:57:43.000Z</time>
      </trkpt>
      <trkpt lat="40.785020180046558380126953125" lon="-1.93792090751230716705322265625">
        <ele>1150.5999755859375</ele>
        <time>2022-05-04T07:57:44.000Z</time>
      </trkpt>
      <trkpt lat="40.78483670018613338470458984375" lon="-1.9378304667770862579345703125">
        <ele>1149</ele>
        <time>2022-05-04T07:57:52.000Z</time>
      </trkpt>
      <trkpt lat="40.78481490723788738250732421875" lon="-1.93781948648393154144287109375">
        <ele>1148.800048828125</ele>
        <time>2022-05-04T07:57:53.000Z</time>
      </trkpt>
      <trkpt lat="40.78470141626894474029541015625" lon="-1.93776450119912624359130859375">
        <ele>1148</ele>
        <time>2022-05-04T07:57:58.000Z</time>
      </trkpt>
      <trkpt lat="40.78463939018547534942626953125" lon="-1.9377285428345203399658203125">
        <ele>1148.4000244140625</ele>
        <time>2022-05-04T07:58:01.000Z</time>
      </trkpt>
      <trkpt lat="40.784538052976131439208984375" lon="-1.93765939213335514068603515625">
        <ele>1149</ele>
        <time>2022-05-04T07:58:06.000Z</time>
      </trkpt>
      <trkpt lat="40.784453563392162322998046875" lon="-1.9375974498689174652099609375">
        <ele>1149.4000244140625</ele>
        <time>2022-05-04T07:58:10.000Z</time>
      </trkpt>
      <trkpt lat="40.7843699119985103607177734375" lon="-1.937522180378437042236328125">
        <ele>1149.5999755859375</ele>
        <time>2022-05-04T07:58:14.000Z</time>
      </trkpt>
      <trkpt lat="40.78429103828966617584228515625" lon="-1.93744741380214691162109375">
        <ele>1149.5999755859375</ele>
        <time>2022-05-04T07:58:18.000Z</time>
      </trkpt>
      <trkpt lat="40.7841861806809902191162109375" lon="-1.93735621869564056396484375">
        <ele>1151</ele>
        <time>2022-05-04T07:58:23.000Z</time>
      </trkpt>
      <trkpt lat="40.78416564501821994781494140625" lon="-1.93734012544155120849609375">
        <ele>1151.4000244140625</ele>
        <time>2022-05-04T07:58:24.000Z</time>
      </trkpt>
      <trkpt lat="40.7840500585734844207763671875" lon="-1.93726837635040283203125">
        <ele>1153.800048828125</ele>
        <time>2022-05-04T07:58:29.000Z</time>
      </trkpt>
      <trkpt lat="40.78395492397248744964599609375" lon="-1.9372249580919742584228515625">
        <ele>1153.800048828125</ele>
        <time>2022-05-04T07:58:33.000Z</time>
      </trkpt>
      <trkpt lat="40.7838398404419422149658203125" lon="-1.937183551490306854248046875">
        <ele>1153.800048828125</ele>
        <time>2022-05-04T07:58:38.000Z</time>
      </trkpt>
      <trkpt lat="40.7837927341461181640625" lon="-1.93717357702553272247314453125">
        <ele>1154.199951171875</ele>
        <time>2022-05-04T07:58:40.000Z</time>
      </trkpt>
      <trkpt lat="40.7836956717073917388916015625" lon="-1.937164776027202606201171875">
        <ele>1155</ele>
        <time>2022-05-04T07:58:44.000Z</time>
      </trkpt>
      <trkpt lat="40.78356751240789890289306640625" lon="-1.9371582381427288055419921875">
        <ele>1156</ele>
        <time>2022-05-04T07:58:49.000Z</time>
      </trkpt>
      <trkpt lat="40.78351914882659912109375" lon="-1.9371602497994899749755859375">
        <ele>1156.4000244140625</ele>
        <time>2022-05-04T07:58:51.000Z</time>
      </trkpt>
      <trkpt lat="40.78339752741158008575439453125" lon="-1.93717441521584987640380859375">
        <ele>1157.5999755859375</ele>
        <time>2022-05-04T07:58:56.000Z</time>
      </trkpt>
      <trkpt lat="40.7833488285541534423828125" lon="-1.9371877424418926239013671875">
        <ele>1158</ele>
        <time>2022-05-04T07:58:58.000Z</time>
      </trkpt>
      <trkpt lat="40.7832554541528224945068359375" lon="-1.93721137940883636474609375">
        <ele>1158.800048828125</ele>
        <time>2022-05-04T07:59:02.000Z</time>
      </trkpt>
      <trkpt lat="40.78315814025700092315673828125" lon="-1.93724079988896846771240234375">
        <ele>1159.4000244140625</ele>
        <time>2022-05-04T07:59:06.000Z</time>
      </trkpt>
      <trkpt lat="40.78308773227035999298095703125" lon="-1.93727483041584491729736328125">
        <ele>1160</ele>
        <time>2022-05-04T07:59:09.000Z</time>
      </trkpt>
      <trkpt lat="40.78294574283063411712646484375" lon="-1.937336437404155731201171875">
        <ele>1160.4000244140625</ele>
        <time>2022-05-04T07:59:15.000Z</time>
      </trkpt>
      <trkpt lat="40.7828967086970806121826171875" lon="-1.9373583979904651641845703125">
        <ele>1160.4000244140625</ele>
        <time>2022-05-04T07:59:17.000Z</time>
      </trkpt>
      <trkpt lat="40.78275513835251331329345703125" lon="-1.9374247826635837554931640625">
        <ele>1161</ele>
        <time>2022-05-04T07:59:23.000Z</time>
      </trkpt>
      <trkpt lat="40.78268741257488727569580078125" lon="-1.93746157921850681304931640625">
        <ele>1161.5999755859375</ele>
        <time>2022-05-04T07:59:26.000Z</time>
      </trkpt>
      <trkpt lat="40.7825688086450099945068359375" lon="-1.93751488812267780303955078125">
        <ele>1162.5999755859375</ele>
        <time>2022-05-04T07:59:31.000Z</time>
      </trkpt>
      <trkpt lat="40.7824538089334964752197265625" lon="-1.93755998276174068450927734375">
        <ele>1163.199951171875</ele>
        <time>2022-05-04T07:59:36.000Z</time>
      </trkpt>
      <trkpt lat="40.782408379018306732177734375" lon="-1.9375781714916229248046875">
        <ele>1163.5999755859375</ele>
        <time>2022-05-04T07:59:38.000Z</time>
      </trkpt>
      <trkpt lat="40.78226898796856403350830078125" lon="-1.93762636743485927581787109375">
        <ele>1164.4000244140625</ele>
        <time>2022-05-04T07:59:44.000Z</time>
      </trkpt>
      <trkpt lat="40.78222540207207202911376953125" lon="-1.9376423768699169158935546875">
        <ele>1164.5999755859375</ele>
        <time>2022-05-04T07:59:46.000Z</time>
      </trkpt>
      <trkpt lat="40.78206262551248073577880859375" lon="-1.93767732940614223480224609375">
        <ele>1165.199951171875</ele>
        <time>2022-05-04T07:59:53.000Z</time>
      </trkpt>
      <trkpt lat="40.78203965909779071807861328125" lon="-1.937683112919330596923828125">
        <ele>1165.4000244140625</ele>
        <time>2022-05-04T07:59:54.000Z</time>
      </trkpt>
      <trkpt lat="40.7818536646664142608642578125" lon="-1.937721334397792816162109375">
        <ele>1166</ele>
        <time>2022-05-04T08:00:02.000Z</time>
      </trkpt>
      <trkpt lat="40.7818305306136608123779296875" lon="-1.93772778846323490142822265625">
        <ele>1166.199951171875</ele>
        <time>2022-05-04T08:00:03.000Z</time>
      </trkpt>
      <trkpt lat="40.7816410996019840240478515625" lon="-1.93777020089328289031982421875">
        <ele>1167</ele>
        <time>2022-05-04T08:00:11.000Z</time>
      </trkpt>
      <trkpt lat="40.78157119452953338623046875" lon="-1.93778344430029392242431640625">
        <ele>1167.199951171875</ele>
        <time>2022-05-04T08:00:14.000Z</time>
      </trkpt>
      <trkpt lat="40.78147807158529758453369140625" lon="-1.93780188448727130889892578125">
        <ele>1167.5999755859375</ele>
        <time>2022-05-04T08:00:18.000Z</time>
      </trkpt>
      <trkpt lat="40.781332813203334808349609375" lon="-1.93783842958509922027587890625">
        <ele>1168.4000244140625</ele>
        <time>2022-05-04T08:00:24.000Z</time>
      </trkpt>
      <trkpt lat="40.78114296309649944305419921875" lon="-1.93789131939411163330078125">
        <ele>1169.4000244140625</ele>
        <time>2022-05-04T08:00:32.000Z</time>
      </trkpt>
      <trkpt lat="40.780956633388996124267578125" lon="-1.937954686582088470458984375">
        <ele>1170.5999755859375</ele>
        <time>2022-05-04T08:00:40.000Z</time>
      </trkpt>
      <trkpt lat="40.7809329964220523834228515625" lon="-1.93796197883784770965576171875">
        <ele>1170.5999755859375</ele>
        <time>2022-05-04T08:00:41.000Z</time>
      </trkpt>
      <trkpt lat="40.780771560966968536376953125" lon="-1.9380242563784122467041015625">
        <ele>1171.800048828125</ele>
        <time>2022-05-04T08:00:48.000Z</time>
      </trkpt>
      <trkpt lat="40.780748762190341949462890625" lon="-1.938034482300281524658203125">
        <ele>1172</ele>
        <time>2022-05-04T08:00:49.000Z</time>
      </trkpt>
      <trkpt lat="40.78059378080070018768310546875" lon="-1.93810648284852504730224609375">
        <ele>1174</ele>
        <time>2022-05-04T08:00:56.000Z</time>
      </trkpt>
      <trkpt lat="40.78050434589385986328125" lon="-1.9381409324705600738525390625">
        <ele>1174.800048828125</ele>
        <time>2022-05-04T08:01:00.000Z</time>
      </trkpt>
      <trkpt lat="40.780374594032764434814453125" lon="-1.93820656277239322662353515625">
        <ele>1175.800048828125</ele>
        <time>2022-05-04T08:01:06.000Z</time>
      </trkpt>
      <trkpt lat="40.78031114302575588226318359375" lon="-1.93824344314634799957275390625">
        <ele>1176.4000244140625</ele>
        <time>2022-05-04T08:01:09.000Z</time>
      </trkpt>
      <trkpt lat="40.78020016662776470184326171875" lon="-1.93830848671495914459228515625">
        <ele>1177.5999755859375</ele>
        <time>2022-05-04T08:01:14.000Z</time>
      </trkpt>
      <trkpt lat="40.78015708364546298980712890625" lon="-1.938333548605442047119140625">
        <ele>1178</ele>
        <time>2022-05-04T08:01:16.000Z</time>
      </trkpt>
      <trkpt lat="40.78004862181842327117919921875" lon="-1.938392557203769683837890625">
        <ele>1179.199951171875</ele>
        <time>2022-05-04T08:01:21.000Z</time>
      </trkpt>
      <trkpt lat="40.77996145002543926239013671875" lon="-1.93844628520309925079345703125">
        <ele>1180.199951171875</ele>
        <time>2022-05-04T08:01:25.000Z</time>
      </trkpt>
      <trkpt lat="40.7798899523913860321044921875" lon="-1.9384860992431640625">
        <ele>1181</ele>
        <time>2022-05-04T08:01:28.000Z</time>
      </trkpt>
      <trkpt lat="40.7796760462224483489990234375" lon="-1.9386227242648601531982421875">
        <ele>1183.199951171875</ele>
        <time>2022-05-04T08:01:37.000Z</time>
      </trkpt>
      <trkpt lat="40.7795017026364803314208984375" lon="-1.93871919997036457061767578125">
        <ele>1183.199951171875</ele>
        <time>2022-05-04T08:01:44.000Z</time>
      </trkpt>
      <trkpt lat="40.77930028550326824188232421875" lon="-1.9388490356504917144775390625">
        <ele>1183.800048828125</ele>
        <time>2022-05-04T08:01:52.000Z</time>
      </trkpt>
      <trkpt lat="40.77927388250827789306640625" lon="-1.93886705674231052398681640625">
        <ele>1183.800048828125</ele>
        <time>2022-05-04T08:01:53.000Z</time>
      </trkpt>
      <trkpt lat="40.77901932410895824432373046875" lon="-1.939025558531284332275390625">
        <ele>1184.4000244140625</ele>
        <time>2022-05-04T08:02:03.000Z</time>
      </trkpt>
      <trkpt lat="40.77880382537841796875" lon="-1.9391561485826969146728515625">
        <ele>1185.5999755859375</ele>
        <time>2022-05-04T08:02:12.000Z</time>
      </trkpt>
      <trkpt lat="40.77872813679277896881103515625" lon="-1.93920115940272808074951171875">
        <ele>1186.199951171875</ele>
        <time>2022-05-04T08:02:15.000Z</time>
      </trkpt>
      <trkpt lat="40.77855077572166919708251953125" lon="-1.93930610083043575286865234375">
        <ele>1187.800048828125</ele>
        <time>2022-05-04T08:02:22.000Z</time>
      </trkpt>
      <trkpt lat="40.7785250432789325714111328125" lon="-1.93931967951357364654541015625">
        <ele>1188</ele>
        <time>2022-05-04T08:02:23.000Z</time>
      </trkpt>
      <trkpt lat="40.77832329086959362030029296875" lon="-1.93944004364311695098876953125">
        <ele>1189.800048828125</ele>
        <time>2022-05-04T08:02:31.000Z</time>
      </trkpt>
      <trkpt lat="40.7782977260649204254150390625" lon="-1.9394545443356037139892578125">
        <ele>1190</ele>
        <time>2022-05-04T08:02:32.000Z</time>
      </trkpt>
      <trkpt lat="40.778027661144733428955078125" lon="-1.9395879842340946197509765625">
        <ele>1191.5999755859375</ele>
        <time>2022-05-04T08:02:42.000Z</time>
      </trkpt>
      <trkpt lat="40.777945853769779205322265625" lon="-1.93962528370320796966552734375">
        <ele>1191.5999755859375</ele>
        <time>2022-05-04T08:02:45.000Z</time>
      </trkpt>
      <trkpt lat="40.77780679799616336822509765625" lon="-1.93967808969318866729736328125">
        <ele>1191.5999755859375</ele>
        <time>2022-05-04T08:02:50.000Z</time>
      </trkpt>
      <trkpt lat="40.77763496898114681243896484375" lon="-1.93974363617599010467529296875">
        <ele>1191.4000244140625</ele>
        <time>2022-05-04T08:02:56.000Z</time>
      </trkpt>
      <trkpt lat="40.77755081467330455780029296875" lon="-1.93977288901805877685546875">
        <ele>1191.199951171875</ele>
        <time>2022-05-04T08:02:59.000Z</time>
      </trkpt>
      <trkpt lat="40.777356438338756561279296875" lon="-1.93983265198767185211181640625">
        <ele>1190.800048828125</ele>
        <time>2022-05-04T08:03:06.000Z</time>
      </trkpt>
      <trkpt lat="40.77730187214910984039306640625" lon="-1.93984857760369777679443359375">
        <ele>1190.5999755859375</ele>
        <time>2022-05-04T08:03:08.000Z</time>
      </trkpt>
      <trkpt lat="40.77706231735646724700927734375" lon="-1.93992954678833484649658203125">
        <ele>1191</ele>
        <time>2022-05-04T08:03:17.000Z</time>
      </trkpt>
      <trkpt lat="40.77703692018985748291015625" lon="-1.93993843160569667816162109375">
        <ele>1191</ele>
        <time>2022-05-04T08:03:18.000Z</time>
      </trkpt>
      <trkpt lat="40.77685176394879817962646484375" lon="-1.9400013796985149383544921875">
        <ele>1191.5999755859375</ele>
        <time>2022-05-04T08:03:25.000Z</time>
      </trkpt>
      <trkpt lat="40.77679242007434368133544921875" lon="-1.94001755677163600921630859375">
        <ele>1191.5999755859375</ele>
        <time>2022-05-04T08:03:27.000Z</time>
      </trkpt>
      <trkpt lat="40.77653677202761173248291015625" lon="-1.94009768776595592498779296875">
        <ele>1192.199951171875</ele>
        <time>2022-05-04T08:03:36.000Z</time>
      </trkpt>
      <trkpt lat="40.77650676481425762176513671875" lon="-1.9401083327829837799072265625">
        <ele>1192.4000244140625</ele>
        <time>2022-05-04T08:03:37.000Z</time>
      </trkpt>
      <trkpt lat="40.77633820474147796630859375" lon="-1.9401589594781398773193359375">
        <ele>1192.800048828125</ele>
        <time>2022-05-04T08:03:43.000Z</time>
      </trkpt>
      <trkpt lat="40.77628078870475292205810546875" lon="-1.94017614237964153289794921875">
        <ele>1193</ele>
        <time>2022-05-04T08:03:45.000Z</time>
      </trkpt>
      <trkpt lat="40.77608951367437839508056640625" lon="-1.94022492505609989166259765625">
        <ele>1193.800048828125</ele>
        <time>2022-05-04T08:03:52.000Z</time>
      </trkpt>
      <trkpt lat="40.77600820921361446380615234375" lon="-1.940248645842075347900390625">
        <ele>1194</ele>
        <time>2022-05-04T08:03:55.000Z</time>
      </trkpt>
      <trkpt lat="40.7758418284356594085693359375" lon="-1.9402952492237091064453125">
        <ele>1194.5999755859375</ele>
        <time>2022-05-04T08:04:01.000Z</time>
      </trkpt>
      <trkpt lat="40.77570813708007335662841796875" lon="-1.94033053703606128692626953125">
        <ele>1195</ele>
        <time>2022-05-04T08:04:06.000Z</time>
      </trkpt>
      <trkpt lat="40.7755712606012821197509765625" lon="-1.94036255590617656707763671875">
        <ele>1195.4000244140625</ele>
        <time>2022-05-04T08:04:11.000Z</time>
      </trkpt>
      <trkpt lat="40.7754321210086345672607421875" lon="-1.9403903000056743621826171875">
        <ele>1194.800048828125</ele>
        <time>2022-05-04T08:04:16.000Z</time>
      </trkpt>
      <trkpt lat="40.77520237304270267486572265625" lon="-1.940419971942901611328125">
        <ele>1193.199951171875</ele>
        <time>2022-05-04T08:04:24.000Z</time>
      </trkpt>
      <trkpt lat="40.77514587901532649993896484375" lon="-1.94042868912220001220703125">
        <ele>1192.800048828125</ele>
        <time>2022-05-04T08:04:26.000Z</time>
      </trkpt>
      <trkpt lat="40.774898864328861236572265625" lon="-1.94042692892253398895263671875">
        <ele>1191.800048828125</ele>
        <time>2022-05-04T08:04:34.000Z</time>
      </trkpt>
      <trkpt lat="40.7748658396303653717041015625" lon="-1.94042592309415340423583984375">
        <ele>1191.800048828125</ele>
        <time>2022-05-04T08:04:35.000Z</time>
      </trkpt>
      <trkpt lat="40.77457004226744174957275390625" lon="-1.94039323367178440093994140625">
        <ele>1192.5999755859375</ele>
        <time>2022-05-04T08:04:44.000Z</time>
      </trkpt>
      <trkpt lat="40.774230323731899261474609375" lon="-1.94032668136060237884521484375">
        <ele>1193.800048828125</ele>
        <time>2022-05-04T08:04:54.000Z</time>
      </trkpt>
      <trkpt lat="40.77419537119567394256591796875" lon="-1.94032014347612857818603515625">
        <ele>1193.800048828125</ele>
        <time>2022-05-04T08:04:55.000Z</time>
      </trkpt>
      <trkpt lat="40.77390703372657299041748046875" lon="-1.9402576982975006103515625">
        <ele>1194.199951171875</ele>
        <time>2022-05-04T08:05:03.000Z</time>
      </trkpt>
      <trkpt lat="40.7736122421920299530029296875" lon="-1.9401968456804752349853515625">
        <ele>1194.199951171875</ele>
        <time>2022-05-04T08:05:11.000Z</time>
      </trkpt>
      <trkpt lat="40.773469246923923492431640625" lon="-1.94017253816127777099609375">
        <ele>1194.4000244140625</ele>
        <time>2022-05-04T08:05:15.000Z</time>
      </trkpt>
      <trkpt lat="40.77321720309555530548095703125" lon="-1.94014831446111202239990234375">
        <ele>1195</ele>
        <time>2022-05-04T08:05:22.000Z</time>
      </trkpt>
      <trkpt lat="40.77314226888120174407958984375" lon="-1.9401499070227146148681640625">
        <ele>1195.199951171875</ele>
        <time>2022-05-04T08:05:24.000Z</time>
      </trkpt>
      <trkpt lat="40.77284999191761016845703125" lon="-1.94015384651720523834228515625">
        <ele>1194.5999755859375</ele>
        <time>2022-05-04T08:05:32.000Z</time>
      </trkpt>
      <trkpt lat="40.7728176377713680267333984375" lon="-1.94015535525977611541748046875">
        <ele>1194.4000244140625</ele>
        <time>2022-05-04T08:05:33.000Z</time>
      </trkpt>
      <trkpt lat="40.772438608109951019287109375" lon="-1.94016139023005962371826171875">
        <ele>1195.4000244140625</ele>
        <time>2022-05-04T08:05:44.000Z</time>
      </trkpt>
      <trkpt lat="40.7724022306501865386962890625" lon="-1.9401609711349010467529296875">
        <ele>1195.5999755859375</ele>
        <time>2022-05-04T08:05:45.000Z</time>
      </trkpt>
      <trkpt lat="40.772072486579418182373046875" lon="-1.94015451706945896148681640625">
        <ele>1196.4000244140625</ele>
        <time>2022-05-04T08:05:53.000Z</time>
      </trkpt>
      <trkpt lat="40.771933011710643768310546875" lon="-1.94015166722238063812255859375">
        <ele>1196.5999755859375</ele>
        <time>2022-05-04T08:05:56.000Z</time>
      </trkpt>
      <trkpt lat="40.77181507833302021026611328125" lon="-1.9401505775749683380126953125">
        <ele>1196.5999755859375</ele>
        <time>2022-05-04T08:05:59.000Z</time>
      </trkpt>
      <trkpt lat="40.77161089517176151275634765625" lon="-1.94014462642371654510498046875">
        <ele>1196.5999755859375</ele>
        <time>2022-05-04T08:06:05.000Z</time>
      </trkpt>
      <trkpt lat="40.77155339531600475311279296875" lon="-1.9401465542614459991455078125">
        <ele>1196.5999755859375</ele>
        <time>2022-05-04T08:06:07.000Z</time>
      </trkpt>
      <trkpt lat="40.77133144252002239227294921875" lon="-1.94015267305076122283935546875">
        <ele>1196.4000244140625</ele>
        <time>2022-05-04T08:06:14.000Z</time>
      </trkpt>
      <trkpt lat="40.7712304405868053436279296875" lon="-1.940158791840076446533203125">
        <ele>1196</ele>
        <time>2022-05-04T08:06:17.000Z</time>
      </trkpt>
      <trkpt lat="40.7709918916225433349609375" lon="-1.9401609711349010467529296875">
        <ele>1196.4000244140625</ele>
        <time>2022-05-04T08:06:24.000Z</time>
      </trkpt>
      <trkpt lat="40.77069072984158992767333984375" lon="-1.9401609711349010467529296875">
        <ele>1197.800048828125</ele>
        <time>2022-05-04T08:06:32.000Z</time>
      </trkpt>
      <trkpt lat="40.7703815214335918426513671875" lon="-1.94015719927847385406494140625">
        <ele>1198.199951171875</ele>
        <time>2022-05-04T08:06:39.000Z</time>
      </trkpt>
      <trkpt lat="40.7701739855110645294189453125" lon="-1.94015334360301494598388671875">
        <ele>1197.199951171875</ele>
        <time>2022-05-04T08:06:43.000Z</time>
      </trkpt>
      <trkpt lat="40.7698963768780231475830078125" lon="-1.94014437496662139892578125">
        <ele>1195.5999755859375</ele>
        <time>2022-05-04T08:06:48.000Z</time>
      </trkpt>
      <trkpt lat="40.76972178183495998382568359375" lon="-1.94014370441436767578125">
        <ele>1194.4000244140625</ele>
        <time>2022-05-04T08:06:51.000Z</time>
      </trkpt>
      <trkpt lat="40.7693042792379856109619140625" lon="-1.94014705717563629150390625">
        <ele>1194</ele>
        <time>2022-05-04T08:06:58.000Z</time>
      </trkpt>
      <trkpt lat="40.76924434863030910491943359375" lon="-1.9401499070227146148681640625">
        <ele>1194</ele>
        <time>2022-05-04T08:06:59.000Z</time>
      </trkpt>
      <trkpt lat="40.76887495815753936767578125" lon="-1.940154097974300384521484375">
        <ele>1194.4000244140625</ele>
        <time>2022-05-04T08:07:05.000Z</time>
      </trkpt>
      <trkpt lat="40.7687406800687313079833984375" lon="-1.9401535950601100921630859375">
        <ele>1194</ele>
        <time>2022-05-04T08:07:07.000Z</time>
      </trkpt>
      <trkpt lat="40.76859860680997371673583984375" lon="-1.94015082903206348419189453125">
        <ele>1193.4000244140625</ele>
        <time>2022-05-04T08:07:09.000Z</time>
      </trkpt>
      <trkpt lat="40.76821605674922466278076171875" lon="-1.94013322703540325164794921875">
        <ele>1191.199951171875</ele>
        <time>2022-05-04T08:07:14.000Z</time>
      </trkpt>
      <trkpt lat="40.76797365210950374603271484375" lon="-1.9401167146861553192138671875">
        <ele>1189.800048828125</ele>
        <time>2022-05-04T08:07:17.000Z</time>
      </trkpt>
      <trkpt lat="40.7676624320447444915771484375" lon="-1.94008092395961284637451171875">
        <ele>1189.4000244140625</ele>
        <time>2022-05-04T08:07:21.000Z</time>
      </trkpt>
      <trkpt lat="40.76758347451686859130859375" lon="-1.94007019512355327606201171875">
        <ele>1189.4000244140625</ele>
        <time>2022-05-04T08:07:22.000Z</time>
      </trkpt>
      <trkpt lat="40.76742078177630901336669921875" lon="-1.94004773162305355072021484375">
        <ele>1189.5999755859375</ele>
        <time>2022-05-04T08:07:24.000Z</time>
      </trkpt>
      <trkpt lat="40.76699280180037021636962890625" lon="-1.93994714878499507904052734375">
        <ele>1189.199951171875</ele>
        <time>2022-05-04T08:07:29.000Z</time>
      </trkpt>
      <trkpt lat="40.766629278659820556640625" lon="-1.93983835168182849884033203125">
        <ele>1186.800048828125</ele>
        <time>2022-05-04T08:07:33.000Z</time>
      </trkpt>
      <trkpt lat="40.76634454540908336639404296875" lon="-1.93975034169852733612060546875">
        <ele>1184.5999755859375</ele>
        <time>2022-05-04T08:07:36.000Z</time>
      </trkpt>
      <trkpt lat="40.766249410808086395263671875" lon="-1.93971731700003147125244140625">
        <ele>1183.800048828125</ele>
        <time>2022-05-04T08:07:37.000Z</time>
      </trkpt>
      <trkpt lat="40.766058973968029022216796875" lon="-1.93964690901339054107666015625">
        <ele>1182</ele>
        <time>2022-05-04T08:07:39.000Z</time>
      </trkpt>
      <trkpt lat="40.76577298343181610107421875" lon="-1.93952939473092555999755859375">
        <ele>1180</ele>
        <time>2022-05-04T08:07:42.000Z</time>
      </trkpt>
      <trkpt lat="40.7654853165149688720703125" lon="-1.9394035823643207550048828125">
        <ele>1179.199951171875</ele>
        <time>2022-05-04T08:07:45.000Z</time>
      </trkpt>
      <trkpt lat="40.7653889246284961700439453125" lon="-1.93936008028686046600341796875">
        <ele>1178.800048828125</ele>
        <time>2022-05-04T08:07:46.000Z</time>
      </trkpt>
      <trkpt lat="40.7652933709323406219482421875" lon="-1.9393174163997173309326171875">
        <ele>1178.5999755859375</ele>
        <time>2022-05-04T08:07:47.000Z</time>
      </trkpt>
      <trkpt lat="40.76492683030664920806884765625" lon="-1.9391499459743499755859375">
        <ele>1175.800048828125</ele>
        <time>2022-05-04T08:07:51.000Z</time>
      </trkpt>
      <trkpt lat="40.76466514728963375091552734375" lon="-1.93903285078704357147216796875">
        <ele>1174.4000244140625</ele>
        <time>2022-05-04T08:07:54.000Z</time>
      </trkpt>
      <trkpt lat="40.76441503129899501800537109375" lon="-1.9389311783015727996826171875">
        <ele>1176</ele>
        <time>2022-05-04T08:07:57.000Z</time>
      </trkpt>
      <trkpt lat="40.764011442661285400390625" lon="-1.93879581056535243988037109375">
        <ele>1177.5999755859375</ele>
        <time>2022-05-04T08:08:02.000Z</time>
      </trkpt>
      <trkpt lat="40.763567872345447540283203125" lon="-1.93869539536535739898681640625">
        <ele>1176.800048828125</ele>
        <time>2022-05-04T08:08:08.000Z</time>
      </trkpt>
      <trkpt lat="40.76344080269336700439453125" lon="-1.93867058493196964263916015625">
        <ele>1176.5999755859375</ele>
        <time>2022-05-04T08:08:10.000Z</time>
      </trkpt>
      <trkpt lat="40.76293260790407657623291015625" lon="-1.9385704211890697479248046875">
        <ele>1176</ele>
        <time>2022-05-04T08:08:18.000Z</time>
      </trkpt>
      <trkpt lat="40.7628720067441463470458984375" lon="-1.9385590218007564544677734375">
        <ele>1176.4000244140625</ele>
        <time>2022-05-04T08:08:19.000Z</time>
      </trkpt>
      <trkpt lat="40.76246908865869045257568359375" lon="-1.93848215974867343902587890625">
        <ele>1176.199951171875</ele>
        <time>2022-05-04T08:08:26.000Z</time>
      </trkpt>
      <trkpt lat="40.76241242699325084686279296875" lon="-1.9384721852838993072509765625">
        <ele>1176</ele>
        <time>2022-05-04T08:08:27.000Z</time>
      </trkpt>
      <trkpt lat="40.76204546727240085601806640625" lon="-1.9384007714688777923583984375">
        <ele>1174.4000244140625</ele>
        <time>2022-05-04T08:08:33.000Z</time>
      </trkpt>
      <trkpt lat="40.76191470958292484283447265625" lon="-1.9383752904832363128662109375">
        <ele>1173.800048828125</ele>
        <time>2022-05-04T08:08:35.000Z</time>
      </trkpt>
      <trkpt lat="40.7614470832049846649169921875" lon="-1.938333213329315185546875">
        <ele>1172.199951171875</ele>
        <time>2022-05-04T08:08:42.000Z</time>
      </trkpt>
      <trkpt lat="40.76137172989547252655029296875" lon="-1.9383377395570278167724609375">
        <ele>1172</ele>
        <time>2022-05-04T08:08:43.000Z</time>
      </trkpt>
      <trkpt lat="40.761059336364269256591796875" lon="-1.93838358856737613677978515625">
        <ele>1170.199951171875</ele>
        <time>2022-05-04T08:08:47.000Z</time>
      </trkpt>
      <trkpt lat="40.76090133748948574066162109375" lon="-1.93842968903481960296630859375">
        <ele>1169.800048828125</ele>
        <time>2022-05-04T08:08:49.000Z</time>
      </trkpt>
      <trkpt lat="40.7606675662100315093994140625" lon="-1.938528008759021759033203125">
        <ele>1169.199951171875</ele>
        <time>2022-05-04T08:08:52.000Z</time>
      </trkpt>
      <trkpt lat="40.76043815352022647857666015625" lon="-1.93866102956235408782958984375">
        <ele>1168.4000244140625</ele>
        <time>2022-05-04T08:08:55.000Z</time>
      </trkpt>
      <trkpt lat="40.7603624649345874786376953125" lon="-1.93871366791427135467529296875">
        <ele>1168</ele>
        <time>2022-05-04T08:08:56.000Z</time>
      </trkpt>
      <trkpt lat="40.76014101505279541015625" lon="-1.93889857269823551177978515625">
        <ele>1167.199951171875</ele>
        <time>2022-05-04T08:08:59.000Z</time>
      </trkpt>
      <trkpt lat="40.76007287018001079559326171875" lon="-1.93897400982677936553955078125">
        <ele>1167</ele>
        <time>2022-05-04T08:09:00.000Z</time>
      </trkpt>
      <trkpt lat="40.7600028812885284423828125" lon="-1.9390547275543212890625">
        <ele>1166.800048828125</ele>
        <time>2022-05-04T08:09:01.000Z</time>
      </trkpt>
      <trkpt lat="40.75972049497067928314208984375" lon="-1.9394156523048877716064453125">
        <ele>1166.199951171875</ele>
        <time>2022-05-04T08:09:05.000Z</time>
      </trkpt>
      <trkpt lat="40.75952251441776752471923828125" lon="-1.93972351960837841033935546875">
        <ele>1167.199951171875</ele>
        <time>2022-05-04T08:09:08.000Z</time>
      </trkpt>
      <trkpt lat="40.75925161130726337432861328125" lon="-1.9401532597839832305908203125">
        <ele>1164.800048828125</ele>
        <time>2022-05-04T08:09:12.000Z</time>
      </trkpt>
      <trkpt lat="40.75909872539341449737548828125" lon="-1.94036523811519145965576171875">
        <ele>1162.4000244140625</ele>
        <time>2022-05-04T08:09:14.000Z</time>
      </trkpt>
      <trkpt lat="40.75902127660810947418212890625" lon="-1.9404744543135166168212890625">
        <ele>1161</ele>
        <time>2022-05-04T08:09:15.000Z</time>
      </trkpt>
      <trkpt lat="40.75886252336204051971435546875" lon="-1.94069481454789638519287109375">
        <ele>1158.5999755859375</ele>
        <time>2022-05-04T08:09:17.000Z</time>
      </trkpt>
      <trkpt lat="40.75878188945353031158447265625" lon="-1.9408057071268558502197265625">
        <ele>1157.5999755859375</ele>
        <time>2022-05-04T08:09:18.000Z</time>
      </trkpt>
      <trkpt lat="40.7586228847503662109375" lon="-1.94103344343602657318115234375">
        <ele>1156.800048828125</ele>
        <time>2022-05-04T08:09:20.000Z</time>
      </trkpt>
      <trkpt lat="40.7584686577320098876953125" lon="-1.9412687234580516815185546875">
        <ele>1156.5999755859375</ele>
        <time>2022-05-04T08:09:22.000Z</time>
      </trkpt>
      <trkpt lat="40.75825433246791362762451171875" lon="-1.9416311569511890411376953125">
        <ele>1156.199951171875</ele>
        <time>2022-05-04T08:09:25.000Z</time>
      </trkpt>
      <trkpt lat="40.75793582014739513397216796875" lon="-1.9422353245317935943603515625">
        <ele>1155.4000244140625</ele>
        <time>2022-05-04T08:09:30.000Z</time>
      </trkpt>
      <trkpt lat="40.75786876492202281951904296875" lon="-1.942345798015594482421875">
        <ele>1155.800048828125</ele>
        <time>2022-05-04T08:09:31.000Z</time>
      </trkpt>
      <trkpt lat="40.7576487399637699127197265625" lon="-1.9426483847200870513916015625">
        <ele>1154.199951171875</ele>
        <time>2022-05-04T08:09:34.000Z</time>
      </trkpt>
      <trkpt lat="40.757479928433895111083984375" lon="-1.94281711243093013763427734375">
        <ele>1153</ele>
        <time>2022-05-04T08:09:36.000Z</time>
      </trkpt>
      <trkpt lat="40.75729292817413806915283203125" lon="-1.94295692257583141326904296875">
        <ele>1152</ele>
        <time>2022-05-04T08:09:38.000Z</time>
      </trkpt>
      <trkpt lat="40.757094360888004302978515625" lon="-1.943062953650951385498046875">
        <ele>1150.199951171875</ele>
        <time>2022-05-04T08:09:40.000Z</time>
      </trkpt>
      <trkpt lat="40.75688305310904979705810546875" lon="-1.94314031861722469329833984375">
        <ele>1147.5999755859375</ele>
        <time>2022-05-04T08:09:42.000Z</time>
      </trkpt>
      <trkpt lat="40.75666151940822601318359375" lon="-1.9431794621050357818603515625">
        <ele>1145.199951171875</ele>
        <time>2022-05-04T08:09:44.000Z</time>
      </trkpt>
      <trkpt lat="40.75654752552509307861328125" lon="-1.94318189285695552825927734375">
        <ele>1144</ele>
        <time>2022-05-04T08:09:45.000Z</time>
      </trkpt>
      <trkpt lat="40.75643378309905529022216796875" lon="-1.94316848181188106536865234375">
        <ele>1143.4000244140625</ele>
        <time>2022-05-04T08:09:46.000Z</time>
      </trkpt>
      <trkpt lat="40.7563217170536518096923828125" lon="-1.94313746877014636993408203125">
        <ele>1145.199951171875</ele>
        <time>2022-05-04T08:09:47.000Z</time>
      </trkpt>
      <trkpt lat="40.7561027817428112030029296875" lon="-1.94303453899919986724853515625">
        <ele>1148.4000244140625</ele>
        <time>2022-05-04T08:09:49.000Z</time>
      </trkpt>
      <trkpt lat="40.7559944875538349151611328125" lon="-1.9429729320108890533447265625">
        <ele>1150.4000244140625</ele>
        <time>2022-05-04T08:09:50.000Z</time>
      </trkpt>
      <trkpt lat="40.7558878697454929351806640625" lon="-1.94290570914745330810546875">
        <ele>1152.4000244140625</ele>
        <time>2022-05-04T08:09:51.000Z</time>
      </trkpt>
      <trkpt lat="40.755680501461029052734375" lon="-1.942763887345790863037109375">
        <ele>1150.800048828125</ele>
        <time>2022-05-04T08:09:53.000Z</time>
      </trkpt>
      <trkpt lat="40.75538319535553455352783203125" lon="-1.94256012327969074249267578125">
        <ele>1150.4000244140625</ele>
        <time>2022-05-04T08:09:56.000Z</time>
      </trkpt>
      <trkpt lat="40.7552853785455226898193359375" lon="-1.94250044412910938262939453125">
        <ele>1148.4000244140625</ele>
        <time>2022-05-04T08:09:57.000Z</time>
      </trkpt>
      <trkpt lat="40.75518722645938396453857421875" lon="-1.9424465484917163848876953125">
        <ele>1146.5999755859375</ele>
        <time>2022-05-04T08:09:58.000Z</time>
      </trkpt>
      <trkpt lat="40.75489117763936519622802734375" lon="-1.94233171641826629638671875">
        <ele>1142.5999755859375</ele>
        <time>2022-05-04T08:10:01.000Z</time>
      </trkpt>
      <trkpt lat="40.75479445047676563262939453125" lon="-1.94230916909873485565185546875">
        <ele>1141</ele>
        <time>2022-05-04T08:10:02.000Z</time>
      </trkpt>
      <trkpt lat="40.75460736639797687530517578125" lon="-1.9422869570553302764892578125">
        <ele>1138.199951171875</ele>
        <time>2022-05-04T08:10:04.000Z</time>
      </trkpt>
      <trkpt lat="40.75434769503772258758544921875" lon="-1.9422825984656810760498046875">
        <ele>1136.4000244140625</ele>
        <time>2022-05-04T08:10:07.000Z</time>
      </trkpt>
      <trkpt lat="40.753844194114208221435546875" lon="-1.942313611507415771484375">
        <ele>1132.800048828125</ele>
        <time>2022-05-04T08:10:13.000Z</time>
      </trkpt>
      <trkpt lat="40.7535040564835071563720703125" lon="-1.9423516653478145599365234375">
        <ele>1132.4000244140625</ele>
        <time>2022-05-04T08:10:17.000Z</time>
      </trkpt>
      <trkpt lat="40.753417722880840301513671875" lon="-1.94236264564096927642822265625">
        <ele>1132.4000244140625</ele>
        <time>2022-05-04T08:10:18.000Z</time>
      </trkpt>
      <trkpt lat="40.75315662659704685211181640625" lon="-1.94241042248904705047607421875">
        <ele>1132</ele>
        <time>2022-05-04T08:10:21.000Z</time>
      </trkpt>
      <trkpt lat="40.75281430967152118682861328125" lon="-1.94248401559889316558837890625">
        <ele>1132.199951171875</ele>
        <time>2022-05-04T08:10:25.000Z</time>
      </trkpt>
      <trkpt lat="40.75272831134498119354248046875" lon="-1.94250178523361682891845703125">
        <ele>1132.4000244140625</ele>
        <time>2022-05-04T08:10:26.000Z</time>
      </trkpt>
      <trkpt lat="40.75222925283014774322509765625" lon="-1.94264763034880161285400390625">
        <ele>1133.199951171875</ele>
        <time>2022-05-04T08:10:32.000Z</time>
      </trkpt>
      <trkpt lat="40.75175651349127292633056640625" lon="-1.94283907301723957061767578125">
        <ele>1131.800048828125</ele>
        <time>2022-05-04T08:10:38.000Z</time>
      </trkpt>
      <trkpt lat="40.75144998729228973388671875" lon="-1.9430198706686496734619140625">
        <ele>1129.800048828125</ele>
        <time>2022-05-04T08:10:42.000Z</time>
      </trkpt>
      <trkpt lat="40.75137765146791934967041015625" lon="-1.94307628087699413299560546875">
        <ele>1129.199951171875</ele>
        <time>2022-05-04T08:10:43.000Z</time>
      </trkpt>
      <trkpt lat="40.75090390630066394805908203125" lon="-1.94351381622254848480224609375">
        <ele>1129.4000244140625</ele>
        <time>2022-05-04T08:10:50.000Z</time>
      </trkpt>
      <trkpt lat="40.7507707178592681884765625" lon="-1.943642981350421905517578125">
        <ele>1129.4000244140625</ele>
        <time>2022-05-04T08:10:52.000Z</time>
      </trkpt>
      <trkpt lat="40.75043904595077037811279296875" lon="-1.9439725577831268310546875">
        <ele>1129.5999755859375</ele>
        <time>2022-05-04T08:10:57.000Z</time>
      </trkpt>
      <trkpt lat="40.75023494660854339599609375" lon="-1.94417045451700687408447265625">
        <ele>1129.800048828125</ele>
        <time>2022-05-04T08:11:00.000Z</time>
      </trkpt>
      <trkpt lat="40.75002732686698436737060546875" lon="-1.94437153637409210205078125">
        <ele>1130.199951171875</ele>
        <time>2022-05-04T08:11:03.000Z</time>
      </trkpt>
      <trkpt lat="40.7496842555701732635498046875" lon="-1.94473220966756343841552734375">
        <ele>1130.4000244140625</ele>
        <time>2022-05-04T08:11:08.000Z</time>
      </trkpt>
      <trkpt lat="40.749618709087371826171875" lon="-1.944812424480915069580078125">
        <ele>1130</ele>
        <time>2022-05-04T08:11:09.000Z</time>
      </trkpt>
      <trkpt lat="40.74930153787136077880859375" lon="-1.9452197849750518798828125">
        <ele>1126.4000244140625</ele>
        <time>2022-05-04T08:11:14.000Z</time>
      </trkpt>
      <trkpt lat="40.7491156272590160369873046875" lon="-1.94546663202345371246337890625">
        <ele>1123.800048828125</ele>
        <time>2022-05-04T08:11:17.000Z</time>
      </trkpt>
      <trkpt lat="40.7490522600710391998291015625" lon="-1.9455478526651859283447265625">
        <ele>1123</ele>
        <time>2022-05-04T08:11:18.000Z</time>
      </trkpt>
      <trkpt lat="40.7486093603074550628662109375" lon="-1.9460755772888660430908203125">
        <ele>1120.199951171875</ele>
        <time>2022-05-04T08:11:25.000Z</time>
      </trkpt>
      <trkpt lat="40.74854473583400249481201171875" lon="-1.94613751955330371856689453125">
        <ele>1120.199951171875</ele>
        <time>2022-05-04T08:11:26.000Z</time>
      </trkpt>
      <trkpt lat="40.7484132237732410430908203125" lon="-1.94625302217900753021240234375">
        <ele>1119.800048828125</ele>
        <time>2022-05-04T08:11:28.000Z</time>
      </trkpt>
      <trkpt lat="40.7481490261852741241455078125" lon="-1.9464725442230701446533203125">
        <ele>1119.199951171875</ele>
        <time>2022-05-04T08:11:32.000Z</time>
      </trkpt>
      <trkpt lat="40.7479538954794406890869140625" lon="-1.9466415233910083770751953125">
        <ele>1119</ele>
        <time>2022-05-04T08:11:35.000Z</time>
      </trkpt>
      <trkpt lat="40.7476995885372161865234375" lon="-1.94687093608081340789794921875">
        <ele>1119.199951171875</ele>
        <time>2022-05-04T08:11:39.000Z</time>
      </trkpt>
      <trkpt lat="40.74746414087712764739990234375" lon="-1.94711736403405666351318359375">
        <ele>1119.199951171875</ele>
        <time>2022-05-04T08:11:43.000Z</time>
      </trkpt>
      <trkpt lat="40.74730672873556613922119140625" lon="-1.9473238103091716766357421875">
        <ele>1119</ele>
        <time>2022-05-04T08:11:46.000Z</time>
      </trkpt>
      <trkpt lat="40.7470571994781494140625" lon="-1.94778255186975002288818359375">
        <ele>1118.800048828125</ele>
        <time>2022-05-04T08:11:52.000Z</time>
      </trkpt>
      <trkpt lat="40.746841616928577423095703125" lon="-1.94823618046939373016357421875">
        <ele>1118.800048828125</ele>
        <time>2022-05-04T08:11:58.000Z</time>
      </trkpt>
      <trkpt lat="40.7466691173613071441650390625" lon="-1.94862996228039264678955078125">
        <ele>1118.199951171875</ele>
        <time>2022-05-04T08:12:03.000Z</time>
      </trkpt>
      <trkpt lat="40.7463747449219226837158203125" lon="-1.94929515011608600616455078125">
        <ele>1117.800048828125</ele>
        <time>2022-05-04T08:12:12.000Z</time>
      </trkpt>
      <trkpt lat="40.74634415097534656524658203125" lon="-1.9493619538843631744384765625">
        <ele>1117.800048828125</ele>
        <time>2022-05-04T08:12:13.000Z</time>
      </trkpt>
      <trkpt lat="40.74602832086384296417236328125" lon="-1.949920020997524261474609375">
        <ele>1118.5999755859375</ele>
        <time>2022-05-04T08:12:22.000Z</time>
      </trkpt>
      <trkpt lat="40.74567477218806743621826171875" lon="-1.95033484138548374176025390625">
        <ele>1116.800048828125</ele>
        <time>2022-05-04T08:12:30.000Z</time>
      </trkpt>
      <trkpt lat="40.7453132607042789459228515625" lon="-1.95060909725725650787353515625">
        <ele>1114.800048828125</ele>
        <time>2022-05-04T08:12:37.000Z</time>
      </trkpt>
      <trkpt lat="40.74525802396237850189208984375" lon="-1.95064254105091094970703125">
        <ele>1114.4000244140625</ele>
        <time>2022-05-04T08:12:38.000Z</time>
      </trkpt>
      <trkpt lat="40.744843371212482452392578125" lon="-1.9508187286555767059326171875">
        <ele>1113</ele>
        <time>2022-05-04T08:12:45.000Z</time>
      </trkpt>
      <trkpt lat="40.74478142894804477691650390625" lon="-1.9508349895477294921875">
        <ele>1113</ele>
        <time>2022-05-04T08:12:46.000Z</time>
      </trkpt>
      <trkpt lat="40.74433886446058750152587890625" lon="-1.950895003974437713623046875">
        <ele>1114.4000244140625</ele>
        <time>2022-05-04T08:12:53.000Z</time>
      </trkpt>
      <trkpt lat="40.74397257529199123382568359375" lon="-1.9508458860218524932861328125">
        <ele>1116.199951171875</ele>
        <time>2022-05-04T08:12:59.000Z</time>
      </trkpt>
      <trkpt lat="40.7439104653894901275634765625" lon="-1.95082887075841426849365234375">
        <ele>1116.5999755859375</ele>
        <time>2022-05-04T08:13:00.000Z</time>
      </trkpt>
      <trkpt lat="40.74340009130537509918212890625" lon="-1.9506467320024967193603515625">
        <ele>1117.4000244140625</ele>
        <time>2022-05-04T08:13:08.000Z</time>
      </trkpt>
      <trkpt lat="40.74333605356514453887939453125" lon="-1.95061999373137950897216796875">
        <ele>1117.800048828125</ele>
        <time>2022-05-04T08:13:09.000Z</time>
      </trkpt>
      <trkpt lat="40.74276725761592388153076171875" lon="-1.95038848556578159332275390625">
        <ele>1120.4000244140625</ele>
        <time>2022-05-04T08:13:18.000Z</time>
      </trkpt>
      <trkpt lat="40.74223768897354602813720703125" lon="-1.9501498527824878692626953125">
        <ele>1122</ele>
        <time>2022-05-04T08:13:27.000Z</time>
      </trkpt>
      <trkpt lat="40.7418210245668888092041015625" lon="-1.94994055666029453277587890625">
        <ele>1122.5999755859375</ele>
        <time>2022-05-04T08:13:35.000Z</time>
      </trkpt>
      <trkpt lat="40.74126304127275943756103515625" lon="-1.94967694580554962158203125">
        <ele>1124.4000244140625</ele>
        <time>2022-05-04T08:13:46.000Z</time>
      </trkpt>
      <trkpt lat="40.74088183231651782989501953125" lon="-1.9495916180312633514404296875">
        <ele>1124.5999755859375</ele>
        <time>2022-05-04T08:13:53.000Z</time>
      </trkpt>
      <trkpt lat="40.74057673104107379913330078125" lon="-1.94958298467099666595458984375">
        <ele>1119.5999755859375</ele>
        <time>2022-05-04T08:13:59.000Z</time>
      </trkpt>
      <trkpt lat="40.7404356636106967926025390625" lon="-1.94959404878318309783935546875">
        <ele>1118.5999755859375</ele>
        <time>2022-05-04T08:14:02.000Z</time>
      </trkpt>
      <trkpt lat="40.73994490318000316619873046875" lon="-1.94962874986231327056884765625">
        <ele>1117.5999755859375</ele>
        <time>2022-05-04T08:14:12.000Z</time>
      </trkpt>
      <trkpt lat="40.7395684719085693359375" lon="-1.94966127164661884307861328125">
        <ele>1118.800048828125</ele>
        <time>2022-05-04T08:14:20.000Z</time>
      </trkpt>
      <trkpt lat="40.739112161099910736083984375" lon="-1.94967652671039104461669921875">
        <ele>1120.199951171875</ele>
        <time>2022-05-04T08:14:30.000Z</time>
      </trkpt>
      <trkpt lat="40.7386712729930877685546875" lon="-1.9495966471731662750244140625">
        <ele>1120.5999755859375</ele>
        <time>2022-05-04T08:14:39.000Z</time>
      </trkpt>
      <trkpt lat="40.73846247978508472442626953125" lon="-1.94951391778886318206787109375">
        <ele>1120.800048828125</ele>
        <time>2022-05-04T08:14:44.000Z</time>
      </trkpt>
      <trkpt lat="40.73835820890963077545166015625" lon="-1.9494625367224216461181640625">
        <ele>1119.800048828125</ele>
        <time>2022-05-04T08:14:49.000Z</time>
      </trkpt>
      <trkpt lat="40.73822258971631526947021484375" lon="-1.9493777118623256683349609375">
        <ele>1118</ele>
        <time>2022-05-04T08:14:57.000Z</time>
      </trkpt>
      <trkpt lat="40.73809971101582050323486328125" lon="-1.949295736849308013916015625">
        <ele>1116.5999755859375</ele>
        <time>2022-05-04T08:15:04.000Z</time>
      </trkpt>
      <trkpt lat="40.738096274435520172119140625" lon="-1.9492935575544834136962890625">
        <ele>1116.4000244140625</ele>
        <time>2022-05-04T08:15:06.000Z</time>
      </trkpt>
      <trkpt lat="40.738032571971416473388671875" lon="-1.94922901690006256103515625">
        <ele>1115.800048828125</ele>
        <time>2022-05-04T08:19:01.000Z</time>
      </trkpt>
      <trkpt lat="40.73801882565021514892578125" lon="-1.94921669550240039825439453125">
        <ele>1115.800048828125</ele>
        <time>2022-05-04T08:19:02.000Z</time>
      </trkpt>
      <trkpt lat="40.73787524364888668060302734375" lon="-1.94908979348838329315185546875">
        <ele>1115.4000244140625</ele>
        <time>2022-05-04T08:19:09.000Z</time>
      </trkpt>
      <trkpt lat="40.737722776830196380615234375" lon="-1.94892902858555316925048828125">
        <ele>1118.5999755859375</ele>
        <time>2022-05-04T08:19:15.000Z</time>
      </trkpt>
      <trkpt lat="40.737523622810840606689453125" lon="-1.94866047240793704986572265625">
        <ele>1122.800048828125</ele>
        <time>2022-05-04T08:19:22.000Z</time>
      </trkpt>
      <trkpt lat="40.7372445054352283477783203125" lon="-1.9481918402016162872314453125">
        <ele>1120.800048828125</ele>
        <time>2022-05-04T08:19:32.000Z</time>
      </trkpt>
      <trkpt lat="40.737036131322383880615234375" lon="-1.9477717392146587371826171875">
        <ele>1122.5999755859375</ele>
        <time>2022-05-04T08:19:40.000Z</time>
      </trkpt>
      <trkpt lat="40.7367191277444362640380859375" lon="-1.9471313618123531341552734375">
        <ele>1123.5999755859375</ele>
        <time>2022-05-04T08:19:52.000Z</time>
      </trkpt>
      <trkpt lat="40.736497677862644195556640625" lon="-1.94667547009885311126708984375">
        <ele>1122</ele>
        <time>2022-05-04T08:20:01.000Z</time>
      </trkpt>
      <trkpt lat="40.73624722659587860107421875" lon="-1.9461674429476261138916015625">
        <ele>1119.4000244140625</ele>
        <time>2022-05-04T08:20:12.000Z</time>
      </trkpt>
      <trkpt lat="40.73603692464530467987060546875" lon="-1.94571674801409244537353515625">
        <ele>1119.199951171875</ele>
        <time>2022-05-04T08:20:22.000Z</time>
      </trkpt>
      <trkpt lat="40.735976994037628173828125" lon="-1.9455810450017452239990234375">
        <ele>1119.4000244140625</ele>
        <time>2022-05-04T08:20:25.000Z</time>
      </trkpt>
      <trkpt lat="40.7358635030686855316162109375" lon="-1.94534710608422756195068359375">
        <ele>1120</ele>
        <time>2022-05-04T08:20:30.000Z</time>
      </trkpt>
      <trkpt lat="40.73563207872211933135986328125" lon="-1.94485877640545368194580078125">
        <ele>1123.199951171875</ele>
        <time>2022-05-04T08:20:40.000Z</time>
      </trkpt>
      <trkpt lat="40.73538213036954402923583984375" lon="-1.94433775730431079864501953125">
        <ele>1122.4000244140625</ele>
        <time>2022-05-04T08:20:51.000Z</time>
      </trkpt>
      <trkpt lat="40.73521566577255725860595703125" lon="-1.944017820060253143310546875">
        <ele>1122.199951171875</ele>
        <time>2022-05-04T08:20:58.000Z</time>
      </trkpt>
      <trkpt lat="40.73518901132047176361083984375" lon="-1.943976581096649169921875">
        <ele>1122.4000244140625</ele>
        <time>2022-05-04T08:20:59.000Z</time>
      </trkpt>
      <trkpt lat="40.7351024262607097625732421875" lon="-1.94385965354740619659423828125">
        <ele>1122.800048828125</ele>
        <time>2022-05-04T08:21:02.000Z</time>
      </trkpt>
      <trkpt lat="40.73497091419994831085205078125" lon="-1.943724788725376129150390625">
        <ele>1122.800048828125</ele>
        <time>2022-05-04T08:21:06.000Z</time>
      </trkpt>
      <trkpt lat="40.7349357940256595611572265625" lon="-1.9436909258365631103515625">
        <ele>1122.800048828125</ele>
        <time>2022-05-04T08:21:07.000Z</time>
      </trkpt>
      <trkpt lat="40.73479858227074146270751953125" lon="-1.94358766078948974609375">
        <ele>1122.4000244140625</ele>
        <time>2022-05-04T08:21:11.000Z</time>
      </trkpt>
      <trkpt lat="40.73476304300129413604736328125" lon="-1.94356595166027545928955078125">
        <ele>1122.199951171875</ele>
        <time>2022-05-04T08:21:12.000Z</time>
      </trkpt>
      <trkpt lat="40.7345482148230075836181640625" lon="-1.9434319250285625457763671875">
        <ele>1122.4000244140625</ele>
        <time>2022-05-04T08:21:18.000Z</time>
      </trkpt>
      <trkpt lat="40.7344395853579044342041015625" lon="-1.94336394779384136199951171875">
        <ele>1122</ele>
        <time>2022-05-04T08:21:21.000Z</time>
      </trkpt>
      <trkpt lat="40.7341307960450649261474609375" lon="-1.94318826310336589813232421875">
        <ele>1121.4000244140625</ele>
        <time>2022-05-04T08:21:30.000Z</time>
      </trkpt>
      <trkpt lat="40.73383323848247528076171875" lon="-1.94301961921155452728271484375">
        <ele>1120.800048828125</ele>
        <time>2022-05-04T08:21:38.000Z</time>
      </trkpt>
      <trkpt lat="40.733428560197353363037109375" lon="-1.94278274662792682647705078125">
        <ele>1121</ele>
        <time>2022-05-04T08:21:48.000Z</time>
      </trkpt>
      <trkpt lat="40.7330089621245861053466796875" lon="-1.9425323791801929473876953125">
        <ele>1120.5999755859375</ele>
        <time>2022-05-04T08:21:58.000Z</time>
      </trkpt>
      <trkpt lat="40.73248551227152347564697265625" lon="-1.942197270691394805908203125">
        <ele>1119.800048828125</ele>
        <time>2022-05-04T08:22:10.000Z</time>
      </trkpt>
      <trkpt lat="40.7321208156645298004150390625" lon="-1.94190633483231067657470703125">
        <ele>1122</ele>
        <time>2022-05-04T08:22:19.000Z</time>
      </trkpt>
      <trkpt lat="40.7317114435136318206787109375" lon="-1.9414834678173065185546875">
        <ele>1123</ele>
        <time>2022-05-04T08:22:30.000Z</time>
      </trkpt>
      <trkpt lat="40.7313339225947856903076171875" lon="-1.94105724804103374481201171875">
        <ele>1122.5999755859375</ele>
        <time>2022-05-04T08:22:41.000Z</time>
      </trkpt>
      <trkpt lat="40.731049440801143646240234375" lon="-1.940719373524188995361328125">
        <ele>1122</ele>
        <time>2022-05-04T08:22:50.000Z</time>
      </trkpt>
      <trkpt lat="40.73082287795841693878173828125" lon="-1.940396167337894439697265625">
        <ele>1123.4000244140625</ele>
        <time>2022-05-04T08:22:58.000Z</time>
      </trkpt>
      <trkpt lat="40.73062372393906116485595703125" lon="-1.93997480906546115875244140625">
        <ele>1125</ele>
        <time>2022-05-04T08:23:07.000Z</time>
      </trkpt>
      <trkpt lat="40.73057192377746105194091796875" lon="-1.93983064033091068267822265625">
        <ele>1125.800048828125</ele>
        <time>2022-05-04T08:23:10.000Z</time>
      </trkpt>
      <trkpt lat="40.730493552982807159423828125" lon="-1.939587481319904327392578125">
        <ele>1127.5999755859375</ele>
        <time>2022-05-04T08:23:15.000Z</time>
      </trkpt>
      <trkpt lat="40.730451308190822601318359375" lon="-1.9394391216337680816650390625">
        <ele>1128.800048828125</ele>
        <time>2022-05-04T08:23:18.000Z</time>
      </trkpt>
      <trkpt lat="40.73037126101553440093994140625" lon="-1.93908582441508769989013671875">
        <ele>1131</ele>
        <time>2022-05-04T08:23:25.000Z</time>
      </trkpt>
      <trkpt lat="40.7303203828632831573486328125" lon="-1.9388828985393047332763671875">
        <ele>1132.800048828125</ele>
        <time>2022-05-04T08:23:29.000Z</time>
      </trkpt>
      <trkpt lat="40.7302677445113658905029296875" lon="-1.938627921044826507568359375">
        <ele>1135.199951171875</ele>
        <time>2022-05-04T08:23:34.000Z</time>
      </trkpt>
      <trkpt lat="40.730204880237579345703125" lon="-1.938375122845172882080078125">
        <ele>1135.5999755859375</ele>
        <time>2022-05-04T08:23:39.000Z</time>
      </trkpt>
      <trkpt lat="40.73016758076846599578857421875" lon="-1.9382187165319919586181640625">
        <ele>1135.199951171875</ele>
        <time>2022-05-04T08:23:42.000Z</time>
      </trkpt>
      <trkpt lat="40.7300682552158832550048828125" lon="-1.93772208876907825469970703125">
        <ele>1135.4000244140625</ele>
        <time>2022-05-04T08:23:51.000Z</time>
      </trkpt>
      <trkpt lat="40.73005668818950653076171875" lon="-1.93766626529395580291748046875">
        <ele>1135.199951171875</ele>
        <time>2022-05-04T08:23:52.000Z</time>
      </trkpt>
      <trkpt lat="40.72997932322323322296142578125" lon="-1.93733719177544116973876953125">
        <ele>1134.800048828125</ele>
        <time>2022-05-04T08:23:58.000Z</time>
      </trkpt>
      <trkpt lat="40.72994512505829334259033203125" lon="-1.93717676214873790740966796875">
        <ele>1134.5999755859375</ele>
        <time>2022-05-04T08:24:01.000Z</time>
      </trkpt>
      <trkpt lat="40.72985594160854816436767578125" lon="-1.93681751377880573272705078125">
        <ele>1134</ele>
        <time>2022-05-04T08:24:08.000Z</time>
      </trkpt>
      <trkpt lat="40.7297933287918567657470703125" lon="-1.93657829426229000091552734375">
        <ele>1133.4000244140625</ele>
        <time>2022-05-04T08:24:13.000Z</time>
      </trkpt>
      <trkpt lat="40.7297457195818424224853515625" lon="-1.93644418381154537200927734375">
        <ele>1132.5999755859375</ele>
        <time>2022-05-04T08:24:16.000Z</time>
      </trkpt>
      <trkpt lat="40.72963147424161434173583984375" lon="-1.9361151941120624542236328125">
        <ele>1133.199951171875</ele>
        <time>2022-05-04T08:24:23.000Z</time>
      </trkpt>
      <trkpt lat="40.729444809257984161376953125" lon="-1.9355666823685169219970703125">
        <ele>1135.4000244140625</ele>
        <time>2022-05-04T08:24:33.000Z</time>
      </trkpt>
      <trkpt lat="40.72920911014080047607421875" lon="-1.93490895442664623260498046875">
        <ele>1138.199951171875</ele>
        <time>2022-05-04T08:24:44.000Z</time>
      </trkpt>
      <trkpt lat="40.72899545542895793914794921875" lon="-1.9343083910644054412841796875">
        <ele>1140.4000244140625</ele>
        <time>2022-05-04T08:24:54.000Z</time>
      </trkpt>
      <trkpt lat="40.728786326944828033447265625" lon="-1.93372157402336597442626953125">
        <ele>1140.800048828125</ele>
        <time>2022-05-04T08:25:04.000Z</time>
      </trkpt>
      <trkpt lat="40.72876545600593090057373046875" lon="-1.9336626492440700531005859375">
        <ele>1141.199951171875</ele>
        <time>2022-05-04T08:25:05.000Z</time>
      </trkpt>
      <trkpt lat="40.72853721678256988525390625" lon="-1.933015398681163787841796875">
        <ele>1145</ele>
        <time>2022-05-04T08:25:16.000Z</time>
      </trkpt>
      <trkpt lat="40.72849564254283905029296875" lon="-1.93289679475128650665283203125">
        <ele>1146.4000244140625</ele>
        <time>2022-05-04T08:25:18.000Z</time>
      </trkpt>
      <trkpt lat="40.7282748632133007049560546875" lon="-1.9323728419840335845947265625">
        <ele>1140</ele>
        <time>2022-05-04T08:25:27.000Z</time>
      </trkpt>
      <trkpt lat="40.72803690098226070404052734375" lon="-1.93196992389857769012451171875">
        <ele>1139.4000244140625</ele>
        <time>2022-05-04T08:25:34.000Z</time>
      </trkpt>
      <trkpt lat="40.72775241918861865997314453125" lon="-1.93162291310727596282958984375">
        <ele>1141.800048828125</ele>
        <time>2022-05-04T08:25:41.000Z</time>
      </trkpt>
      <trkpt lat="40.72739996016025543212890625" lon="-1.93132166750729084014892578125">
        <ele>1144</ele>
        <time>2022-05-04T08:25:49.000Z</time>
      </trkpt>
      <trkpt lat="40.72699603624641895294189453125" lon="-1.93110809661448001861572265625">
        <ele>1137.800048828125</ele>
        <time>2022-05-04T08:25:58.000Z</time>
      </trkpt>
      <trkpt lat="40.7268174178898334503173828125" lon="-1.93102897144854068756103515625">
        <ele>1137.800048828125</ele>
        <time>2022-05-04T08:26:02.000Z</time>
      </trkpt>
      <trkpt lat="40.72654299437999725341796875" lon="-1.930912546813488006591796875">
        <ele>1134.199951171875</ele>
        <time>2022-05-04T08:26:08.000Z</time>
      </trkpt>
      <trkpt lat="40.72616212069988250732421875" lon="-1.93073451519012451171875">
        <ele>1132</ele>
        <time>2022-05-04T08:26:16.000Z</time>
      </trkpt>
      <trkpt lat="40.72571075521409511566162109375" lon="-1.9304917752742767333984375">
        <ele>1134.4000244140625</ele>
        <time>2022-05-04T08:26:25.000Z</time>
      </trkpt>
      <trkpt lat="40.72525159455835819244384765625" lon="-1.93023285828530788421630859375">
        <ele>1135</ele>
        <time>2022-05-04T08:26:35.000Z</time>
      </trkpt>
      <trkpt lat="40.72478455491364002227783203125" lon="-1.92992239259183406829833984375">
        <ele>1134.199951171875</ele>
        <time>2022-05-04T08:26:46.000Z</time>
      </trkpt>
      <trkpt lat="40.72438021190464496612548828125" lon="-1.92959952168166637420654296875">
        <ele>1137.5999755859375</ele>
        <time>2022-05-04T08:26:56.000Z</time>
      </trkpt>
      <trkpt lat="40.72430477477610111236572265625" lon="-1.92953665740787982940673828125">
        <ele>1138.4000244140625</ele>
        <time>2022-05-04T08:26:58.000Z</time>
      </trkpt>
      <trkpt lat="40.7239853404462337493896484375" lon="-1.92924412898719310760498046875">
        <ele>1136</ele>
        <time>2022-05-04T08:27:07.000Z</time>
      </trkpt>
      <trkpt lat="40.7238413393497467041015625" lon="-1.92911110818386077880859375">
        <ele>1135</ele>
        <time>2022-05-04T08:27:11.000Z</time>
      </trkpt>
      <trkpt lat="40.72366171516478061676025390625" lon="-1.9289513491094112396240234375">
        <ele>1135.4000244140625</ele>
        <time>2022-05-04T08:27:16.000Z</time>
      </trkpt>
      <trkpt lat="40.723457448184490203857421875" lon="-1.92877306602895259857177734375">
        <ele>1136.199951171875</ele>
        <time>2022-05-04T08:27:22.000Z</time>
      </trkpt>
      <trkpt lat="40.72335476987063884735107421875" lon="-1.928693018853664398193359375">
        <ele>1136.5999755859375</ele>
        <time>2022-05-04T08:27:25.000Z</time>
      </trkpt>
      <trkpt lat="40.723146982491016387939453125" lon="-1.9285346008837223052978515625">
        <ele>1136.4000244140625</ele>
        <time>2022-05-04T08:27:31.000Z</time>
      </trkpt>
      <trkpt lat="40.7229909114539623260498046875" lon="-1.9284179247915744781494140625">
        <ele>1136.800048828125</ele>
        <time>2022-05-04T08:27:36.000Z</time>
      </trkpt>
      <trkpt lat="40.72290902025997638702392578125" lon="-1.928354389965534210205078125">
        <ele>1137.800048828125</ele>
        <time>2022-05-04T08:27:39.000Z</time>
      </trkpt>
      <trkpt lat="40.72284917347133159637451171875" lon="-1.9282821379601955413818359375">
        <ele>1137.800048828125</ele>
        <time>2022-05-04T08:27:42.000Z</time>
      </trkpt>
      <trkpt lat="40.7228162325918674468994140625" lon="-1.9282301701605319976806640625">
        <ele>1137.800048828125</ele>
        <time>2022-05-04T08:27:44.000Z</time>
      </trkpt>
      <trkpt lat="40.72272813878953456878662109375" lon="-1.92806697450578212738037109375">
        <ele>1138.800048828125</ele>
        <time>2022-05-04T08:27:50.000Z</time>
      </trkpt>
      <trkpt lat="40.72267533279955387115478515625" lon="-1.9278150983154773712158203125">
        <ele>1139.800048828125</ele>
        <time>2022-05-04T08:27:57.000Z</time>
      </trkpt>
      <trkpt lat="40.72255597449839115142822265625" lon="-1.92757093347609043121337890625">
        <ele>1140</ele>
        <time>2022-05-04T08:28:04.000Z</time>
      </trkpt>
      <trkpt lat="40.7223280705511569976806640625" lon="-1.92729315720498561859130859375">
        <ele>1140.199951171875</ele>
        <time>2022-05-04T08:28:12.000Z</time>
      </trkpt>
      <trkpt lat="40.722041912376880645751953125" lon="-1.9271324761211872100830078125">
        <ele>1138.800048828125</ele>
        <time>2022-05-04T08:28:19.000Z</time>
      </trkpt>
      <trkpt lat="40.72176002897322177886962890625" lon="-1.92714178003370761871337890625">
        <ele>1139.199951171875</ele>
        <time>2022-05-04T08:28:25.000Z</time>
      </trkpt>
      <trkpt lat="40.72123951278626918792724609375" lon="-1.92732249386608600616455078125">
        <ele>1140</ele>
        <time>2022-05-04T08:28:36.000Z</time>
      </trkpt>
      <trkpt lat="40.7207908295094966888427734375" lon="-1.92749968729913234710693359375">
        <ele>1140</ele>
        <time>2022-05-04T08:28:45.000Z</time>
      </trkpt>
      <trkpt lat="40.72037399746477603912353515625" lon="-1.92763949744403362274169921875">
        <ele>1141</ele>
        <time>2022-05-04T08:28:54.000Z</time>
      </trkpt>
      <trkpt lat="40.72030291892588138580322265625" lon="-1.92766405642032623291015625">
        <ele>1141.4000244140625</ele>
        <time>2022-05-04T08:28:57.000Z</time>
      </trkpt>
      <trkpt lat="40.72029671631753444671630859375" lon="-1.92766564898192882537841796875">
        <ele>1141.4000244140625</ele>
        <time>2022-05-04T08:28:59.000Z</time>
      </trkpt>
      <trkpt lat="40.7202607579529285430908203125" lon="-1.92766447551548480987548828125">
        <ele>1141.4000244140625</ele>
        <time>2022-05-04T08:29:03.000Z</time>
      </trkpt>
      <trkpt lat="40.72024323977530002593994140625" lon="-1.927668750286102294921875">
        <ele>1141.5999755859375</ele>
        <time>2022-05-04T08:29:04.000Z</time>
      </trkpt>
      <trkpt lat="40.720098651945590972900390625" lon="-1.92766799591481685638427734375">
        <ele>1141.4000244140625</ele>
        <time>2022-05-04T08:29:10.000Z</time>
      </trkpt>
      <trkpt lat="40.7199469394981861114501953125" lon="-1.92764536477625370025634765625">
        <ele>1140.800048828125</ele>
        <time>2022-05-04T08:29:15.000Z</time>
      </trkpt>
      <trkpt lat="40.71985750459134578704833984375" lon="-1.927613429725170135498046875">
        <ele>1140.4000244140625</ele>
        <time>2022-05-04T08:29:18.000Z</time>
      </trkpt>
      <trkpt lat="40.719648040831089019775390625" lon="-1.92749817855656147003173828125">
        <ele>1139.5999755859375</ele>
        <time>2022-05-04T08:29:26.000Z</time>
      </trkpt>
      <trkpt lat="40.71943187154829502105712890625" lon="-1.92732534371316432952880859375">
        <ele>1139.800048828125</ele>
        <time>2022-05-04T08:29:34.000Z</time>
      </trkpt>
      <trkpt lat="40.71937001310288906097412109375" lon="-1.92726650275290012359619140625">
        <ele>1140</ele>
        <time>2022-05-04T08:29:37.000Z</time>
      </trkpt>
      <trkpt lat="40.7193008624017238616943359375" lon="-1.9271928258240222930908203125">
        <ele>1140.4000244140625</ele>
        <time>2022-05-04T08:29:41.000Z</time>
      </trkpt>
      <trkpt lat="40.7191716134548187255859375" lon="-1.9270634092390537261962890625">
        <ele>1140.800048828125</ele>
        <time>2022-05-04T08:29:48.000Z</time>
      </trkpt>
      <trkpt lat="40.71902836672961711883544921875" lon="-1.9269132055342197418212890625">
        <ele>1139.5999755859375</ele>
        <time>2022-05-04T08:29:57.000Z</time>
      </trkpt>
      <trkpt lat="40.7189122773706912994384765625" lon="-1.926800049841403961181640625">
        <ele>1138.800048828125</ele>
        <time>2022-05-04T08:30:04.000Z</time>
      </trkpt>
      <trkpt lat="40.7187925837934017181396484375" lon="-1.92668848671019077301025390625">
        <ele>1138.5999755859375</ele>
        <time>2022-05-04T08:30:11.000Z</time>
      </trkpt>
      <trkpt lat="40.7186735607683658599853515625" lon="-1.92656342871487140655517578125">
        <ele>1138.199951171875</ele>
        <time>2022-05-04T08:30:18.000Z</time>
      </trkpt>
      <trkpt lat="40.71852729655802249908447265625" lon="-1.92641003988683223724365234375">
        <ele>1139</ele>
        <time>2022-05-04T08:30:26.000Z</time>
      </trkpt>
      <trkpt lat="40.71840441785752773284912109375" lon="-1.92629436962306499481201171875">
        <ele>1139.800048828125</ele>
        <time>2022-05-04T08:30:32.000Z</time>
      </trkpt>
      <trkpt lat="40.71827047504484653472900390625" lon="-1.92616143263876438140869140625">
        <ele>1139.800048828125</ele>
        <time>2022-05-04T08:30:38.000Z</time>
      </trkpt>
      <trkpt lat="40.71822303347289562225341796875" lon="-1.92611767910420894622802734375">
        <ele>1139.5999755859375</ele>
        <time>2022-05-04T08:30:40.000Z</time>
      </trkpt>
      <trkpt lat="40.7180772721767425537109375" lon="-1.925982646644115447998046875">
        <ele>1139.199951171875</ele>
        <time>2022-05-04T08:30:46.000Z</time>
      </trkpt>
      <trkpt lat="40.7179279066622257232666015625" lon="-1.92584694363176822662353515625">
        <ele>1140</ele>
        <time>2022-05-04T08:30:52.000Z</time>
      </trkpt>
      <trkpt lat="40.7177897728979587554931640625" lon="-1.9257179461419582366943359375">
        <ele>1140</ele>
        <time>2022-05-04T08:30:58.000Z</time>
      </trkpt>
      <trkpt lat="40.71759489364922046661376953125" lon="-1.92552767693996429443359375">
        <ele>1141.199951171875</ele>
        <time>2022-05-04T08:31:06.000Z</time>
      </trkpt>
      <trkpt lat="40.717548541724681854248046875" lon="-1.9254762120544910430908203125">
        <ele>1141.4000244140625</ele>
        <time>2022-05-04T08:31:08.000Z</time>
      </trkpt>
      <trkpt lat="40.71731426753103733062744140625" lon="-1.9252499006688594818115234375">
        <ele>1141.5999755859375</ele>
        <time>2022-05-04T08:31:18.000Z</time>
      </trkpt>
      <trkpt lat="40.7171289436519145965576171875" lon="-1.92508167587220668792724609375">
        <ele>1142.4000244140625</ele>
        <time>2022-05-04T08:31:26.000Z</time>
      </trkpt>
      <trkpt lat="40.71692769415676593780517578125" lon="-1.92487967200577259063720703125">
        <ele>1142.199951171875</ele>
        <time>2022-05-04T08:31:35.000Z</time>
      </trkpt>
      <trkpt lat="40.716906487941741943359375" lon="-1.92485569976270198822021484375">
        <ele>1142.4000244140625</ele>
        <time>2022-05-04T08:31:36.000Z</time>
      </trkpt>
      <trkpt lat="40.716732479631900787353515625" lon="-1.92463584244251251220703125">
        <ele>1143</ele>
        <time>2022-05-04T08:31:44.000Z</time>
      </trkpt>
      <trkpt lat="40.71657121181488037109375" lon="-1.92438916303217411041259765625">
        <ele>1141.199951171875</ele>
        <time>2022-05-04T08:31:51.000Z</time>
      </trkpt>
      <trkpt lat="40.7164513505995273590087890625" lon="-1.9241763465106487274169921875">
        <ele>1139</ele>
        <time>2022-05-04T08:31:57.000Z</time>
      </trkpt>
      <trkpt lat="40.71639762260019779205322265625" lon="-1.92406679503619670867919921875">
        <ele>1138</ele>
        <time>2022-05-04T08:32:00.000Z</time>
      </trkpt>
      <trkpt lat="40.7163155637681484222412109375" lon="-1.92386060021817684173583984375">
        <ele>1139.5999755859375</ele>
        <time>2022-05-04T08:32:05.000Z</time>
      </trkpt>
      <trkpt lat="40.71616628207266330718994140625" lon="-1.9234068877995014190673828125">
        <ele>1143.800048828125</ele>
        <time>2022-05-04T08:32:15.000Z</time>
      </trkpt>
      <trkpt lat="40.71613602340221405029296875" lon="-1.92331410013139247894287109375">
        <ele>1144</ele>
        <time>2022-05-04T08:32:17.000Z</time>
      </trkpt>
      <trkpt lat="40.71602605283260345458984375" lon="-1.922941021621227264404296875">
        <ele>1145</ele>
        <time>2022-05-04T08:32:25.000Z</time>
      </trkpt>
      <trkpt lat="40.71583821438252925872802734375" lon="-1.92231195978820323944091796875">
        <ele>1140.800048828125</ele>
        <time>2022-05-04T08:32:39.000Z</time>
      </trkpt>
      <trkpt lat="40.71568683721125125885009765625" lon="-1.9217905215919017791748046875">
        <ele>1138.5999755859375</ele>
        <time>2022-05-04T08:32:50.000Z</time>
      </trkpt>
      <trkpt lat="40.71557736955583095550537109375" lon="-1.921406798064708709716796875">
        <ele>1138.199951171875</ele>
        <time>2022-05-04T08:32:58.000Z</time>
      </trkpt>
      <trkpt lat="40.71552523411810398101806640625" lon="-1.92122164182364940643310546875">
        <ele>1139.800048828125</ele>
        <time>2022-05-04T08:33:02.000Z</time>
      </trkpt>
      <trkpt lat="40.71541341952979564666748046875" lon="-1.92085417918860912322998046875">
        <ele>1144.5999755859375</ele>
        <time>2022-05-04T08:33:10.000Z</time>
      </trkpt>
      <trkpt lat="40.7153834961354732513427734375" lon="-1.92076449282467365264892578125">
        <ele>1146</ele>
        <time>2022-05-04T08:33:12.000Z</time>
      </trkpt>
      <trkpt lat="40.71528685279190540313720703125" lon="-1.92041211761534214019775390625">
        <ele>1148.4000244140625</ele>
        <time>2022-05-04T08:33:20.000Z</time>
      </trkpt>
      <trkpt lat="40.7151457853615283966064453125" lon="-1.92001682706177234649658203125">
        <ele>1150.800048828125</ele>
        <time>2022-05-04T08:33:29.000Z</time>
      </trkpt>
      <trkpt lat="40.71512809954583644866943359375" lon="-1.919971816241741180419921875">
        <ele>1151</ele>
        <time>2022-05-04T08:33:30.000Z</time>
      </trkpt>
      <trkpt lat="40.7149677537381649017333984375" lon="-1.91958314739167690277099609375">
        <ele>1154</ele>
        <time>2022-05-04T08:33:39.000Z</time>
      </trkpt>
      <trkpt lat="40.71488033048808574676513671875" lon="-1.9193802215158939361572265625">
        <ele>1152.4000244140625</ele>
        <time>2022-05-04T08:33:44.000Z</time>
      </trkpt>
      <trkpt lat="40.7148222438991069793701171875" lon="-1.9192682392895221710205078125">
        <ele>1151.4000244140625</ele>
        <time>2022-05-04T08:33:47.000Z</time>
      </trkpt>
      <trkpt lat="40.714787207543849945068359375" lon="-1.9191917963325977325439453125">
        <ele>1150.800048828125</ele>
        <time>2022-05-04T08:33:49.000Z</time>
      </trkpt>
      <trkpt lat="40.714686624705791473388671875" lon="-1.9189825840294361114501953125">
        <ele>1150</ele>
        <time>2022-05-04T08:33:55.000Z</time>
      </trkpt>
      <trkpt lat="40.71467027999460697174072265625" lon="-1.91894687712192535400390625">
        <ele>1150.4000244140625</ele>
        <time>2022-05-04T08:33:56.000Z</time>
      </trkpt>
      <trkpt lat="40.71457170881330966949462890625" lon="-1.918730624020099639892578125">
        <ele>1152</ele>
        <time>2022-05-04T08:34:02.000Z</time>
      </trkpt>
      <trkpt lat="40.714464001357555389404296875" lon="-1.9185098446905612945556640625">
        <ele>1153.800048828125</ele>
        <time>2022-05-04T08:34:08.000Z</time>
      </trkpt>
      <trkpt lat="40.7144303061068058013916015625" lon="-1.918435581028461456298828125">
        <ele>1153.5999755859375</ele>
        <time>2022-05-04T08:34:10.000Z</time>
      </trkpt>
      <trkpt lat="40.71428127586841583251953125" lon="-1.91814732737839221954345703125">
        <ele>1153.800048828125</ele>
        <time>2022-05-04T08:34:18.000Z</time>
      </trkpt>
      <trkpt lat="40.714156888425350189208984375" lon="-1.91788799129426479339599609375">
        <ele>1155.5999755859375</ele>
        <time>2022-05-04T08:34:25.000Z</time>
      </trkpt>
      <trkpt lat="40.71396435610949993133544921875" lon="-1.91753226332366466522216796875">
        <ele>1153.5999755859375</ele>
        <time>2022-05-04T08:34:33.000Z</time>
      </trkpt>
      <trkpt lat="40.71371398866176605224609375" lon="-1.91716798581182956695556640625">
        <ele>1152.199951171875</ele>
        <time>2022-05-04T08:34:41.000Z</time>
      </trkpt>
      <trkpt lat="40.713680125772953033447265625" lon="-1.91712775267660617828369140625">
        <ele>1152.199951171875</ele>
        <time>2022-05-04T08:34:42.000Z</time>
      </trkpt>
      <trkpt lat="40.71346814744174480438232421875" lon="-1.91692038439214229583740234375">
        <ele>1152</ele>
        <time>2022-05-04T08:34:48.000Z</time>
      </trkpt>
      <trkpt lat="40.71317444555461406707763671875" lon="-1.916745789349079132080078125">
        <ele>1152.4000244140625</ele>
        <time>2022-05-04T08:34:55.000Z</time>
      </trkpt>
      <trkpt lat="40.7128062285482883453369140625" lon="-1.9166309572756290435791015625">
        <ele>1152.800048828125</ele>
        <time>2022-05-04T08:35:03.000Z</time>
      </trkpt>
      <trkpt lat="40.71227791719138622283935546875" lon="-1.91651738248765468597412109375">
        <ele>1154.800048828125</ele>
        <time>2022-05-04T08:35:15.000Z</time>
      </trkpt>
      <trkpt lat="40.71184809319674968719482421875" lon="-1.91641730256378650665283203125">
        <ele>1155.5999755859375</ele>
        <time>2022-05-04T08:35:26.000Z</time>
      </trkpt>
      <trkpt lat="40.71154852397739887237548828125" lon="-1.91634245216846466064453125">
        <ele>1156.199951171875</ele>
        <time>2022-05-04T08:35:34.000Z</time>
      </trkpt>
      <trkpt lat="40.71140452288091182708740234375" lon="-1.9162976928055286407470703125">
        <ele>1156</ele>
        <time>2022-05-04T08:35:38.000Z</time>
      </trkpt>
      <trkpt lat="40.71126152761280536651611328125" lon="-1.91625519655644893646240234375">
        <ele>1156.199951171875</ele>
        <time>2022-05-04T08:35:42.000Z</time>
      </trkpt>
      <trkpt lat="40.7110195420682430267333984375" lon="-1.91616852767765522003173828125">
        <ele>1156.4000244140625</ele>
        <time>2022-05-04T08:35:49.000Z</time>
      </trkpt>
      <trkpt lat="40.71095240302383899688720703125" lon="-1.91614321433007717132568359375">
        <ele>1156.4000244140625</ele>
        <time>2022-05-04T08:35:51.000Z</time>
      </trkpt>
      <trkpt lat="40.71064713411033153533935546875" lon="-1.91603190265595912933349609375">
        <ele>1157.800048828125</ele>
        <time>2022-05-04T08:36:00.000Z</time>
      </trkpt>
      <trkpt lat="40.71061477996408939361572265625" lon="-1.9160180725157260894775390625">
        <ele>1158</ele>
        <time>2022-05-04T08:36:01.000Z</time>
      </trkpt>
      <trkpt lat="40.71035318076610565185546875" lon="-1.9159064255654811859130859375">
        <ele>1159.199951171875</ele>
        <time>2022-05-04T08:36:09.000Z</time>
      </trkpt>
      <trkpt lat="40.71031873114407062530517578125" lon="-1.9158946909010410308837890625">
        <ele>1159.4000244140625</ele>
        <time>2022-05-04T08:36:10.000Z</time>
      </trkpt>
      <trkpt lat="40.710073895752429962158203125" lon="-1.9158024899661540985107421875">
        <ele>1161.800048828125</ele>
        <time>2022-05-04T08:36:17.000Z</time>
      </trkpt>
      <trkpt lat="40.71000323630869388580322265625" lon="-1.91577021963894367218017578125">
        <ele>1162.4000244140625</ele>
        <time>2022-05-04T08:36:19.000Z</time>
      </trkpt>
      <trkpt lat="40.7097032479941844940185546875" lon="-1.915627308189868927001953125">
        <ele>1163.5999755859375</ele>
        <time>2022-05-04T08:36:28.000Z</time>
      </trkpt>
      <trkpt lat="40.709670223295688629150390625" lon="-1.91561079584062099456787109375">
        <ele>1163.4000244140625</ele>
        <time>2022-05-04T08:36:29.000Z</time>
      </trkpt>
      <trkpt lat="40.70929764769971370697021484375" lon="-1.9154330156743526458740234375">
        <ele>1159.4000244140625</ele>
        <time>2022-05-04T08:36:40.000Z</time>
      </trkpt>
      <trkpt lat="40.709154903888702392578125" lon="-1.91536420024931430816650390625">
        <ele>1159</ele>
        <time>2022-05-04T08:36:44.000Z</time>
      </trkpt>
      <trkpt lat="40.708931274712085723876953125" lon="-1.91526143811643123626708984375">
        <ele>1160.5999755859375</ele>
        <time>2022-05-04T08:36:50.000Z</time>
      </trkpt>
      <trkpt lat="40.7085098326206207275390625" lon="-1.91506840288639068603515625">
        <ele>1161</ele>
        <time>2022-05-04T08:37:00.000Z</time>
      </trkpt>
      <trkpt lat="40.708130300045013427734375" lon="-1.914890371263027191162109375">
        <ele>1161</ele>
        <time>2022-05-04T08:37:08.000Z</time>
      </trkpt>
      <trkpt lat="40.70767641998827457427978515625" lon="-1.91467973403632640838623046875">
        <ele>1160.5999755859375</ele>
        <time>2022-05-04T08:37:17.000Z</time>
      </trkpt>
      <trkpt lat="40.70726118050515651702880859375" lon="-1.914483346045017242431640625">
        <ele>1161</ele>
        <time>2022-05-04T08:37:26.000Z</time>
      </trkpt>
      <trkpt lat="40.7070931233465671539306640625" lon="-1.91440061666071414947509765625">
        <ele>1162.199951171875</ele>
        <time>2022-05-04T08:37:30.000Z</time>
      </trkpt>
      <trkpt lat="40.706896483898162841796875" lon="-1.9143024645745754241943359375">
        <ele>1164</ele>
        <time>2022-05-04T08:37:35.000Z</time>
      </trkpt>
      <trkpt lat="40.70670680142939090728759765625" lon="-1.91420816816389560699462890625">
        <ele>1164.800048828125</ele>
        <time>2022-05-04T08:37:40.000Z</time>
      </trkpt>
      <trkpt lat="40.70660370402038097381591796875" lon="-1.91415351815521717071533203125">
        <ele>1165</ele>
        <time>2022-05-04T08:37:43.000Z</time>
      </trkpt>
      <trkpt lat="40.706399269402027130126953125" lon="-1.9140406139194965362548828125">
        <ele>1165.800048828125</ele>
        <time>2022-05-04T08:37:49.000Z</time>
      </trkpt>
      <trkpt lat="40.7062368281185626983642578125" lon="-1.91395788453519344329833984375">
        <ele>1166.4000244140625</ele>
        <time>2022-05-04T08:37:54.000Z</time>
      </trkpt>
      <trkpt lat="40.706175975501537322998046875" lon="-1.91392351873219013214111328125">
        <ele>1166.800048828125</ele>
        <time>2022-05-04T08:37:56.000Z</time>
      </trkpt>
      <trkpt lat="40.70591337047517299652099609375" lon="-1.91378119401633739471435546875">
        <ele>1167.800048828125</ele>
        <time>2022-05-04T08:38:04.000Z</time>
      </trkpt>
      <trkpt lat="40.70584916509687900543212890625" lon="-1.91374875605106353759765625">
        <ele>1168.199951171875</ele>
        <time>2022-05-04T08:38:06.000Z</time>
      </trkpt>
      <trkpt lat="40.70562704466283321380615234375" lon="-1.9136265479028224945068359375">
        <ele>1168.5999755859375</ele>
        <time>2022-05-04T08:38:13.000Z</time>
      </trkpt>
      <trkpt lat="40.70525438524782657623291015625" lon="-1.91340384073555469512939453125">
        <ele>1169.5999755859375</ele>
        <time>2022-05-04T08:38:24.000Z</time>
      </trkpt>
      <trkpt lat="40.7049282453954219818115234375" lon="-1.913219355046749114990234375">
        <ele>1167.199951171875</ele>
        <time>2022-05-04T08:38:32.000Z</time>
      </trkpt>
      <trkpt lat="40.70454192347824573516845703125" lon="-1.913000084459781646728515625">
        <ele>1166.800048828125</ele>
        <time>2022-05-04T08:38:40.000Z</time>
      </trkpt>
      <trkpt lat="40.7044886983931064605712890625" lon="-1.91297133453190326690673828125">
        <ele>1166.800048828125</ele>
        <time>2022-05-04T08:38:41.000Z</time>
      </trkpt>
      <trkpt lat="40.70404269732534885406494140625" lon="-1.91273345611989498138427734375">
        <ele>1166.800048828125</ele>
        <time>2022-05-04T08:38:49.000Z</time>
      </trkpt>
      <trkpt lat="40.7035180740058422088623046875" lon="-1.91244578920304775238037109375">
        <ele>1166.4000244140625</ele>
        <time>2022-05-04T08:38:59.000Z</time>
      </trkpt>
      <trkpt lat="40.70324758999049663543701171875" lon="-1.91228292882442474365234375">
        <ele>1167</ele>
        <time>2022-05-04T08:39:04.000Z</time>
      </trkpt>
      <trkpt lat="40.7030262239277362823486328125" lon="-1.91212560050189495086669921875">
        <ele>1167.800048828125</ele>
        <time>2022-05-04T08:39:08.000Z</time>
      </trkpt>
      <trkpt lat="40.702658258378505706787109375" lon="-1.911769621074199676513671875">
        <ele>1168.5999755859375</ele>
        <time>2022-05-04T08:39:15.000Z</time>
      </trkpt>
      <trkpt lat="40.702343098819255828857421875" lon="-1.91133133135735988616943359375">
        <ele>1166</ele>
        <time>2022-05-04T08:39:22.000Z</time>
      </trkpt>
      <trkpt lat="40.702256262302398681640625" lon="-1.911194622516632080078125">
        <ele>1164.800048828125</ele>
        <time>2022-05-04T08:39:24.000Z</time>
      </trkpt>
      <trkpt lat="40.7018939964473247528076171875" lon="-1.9105710089206695556640625">
        <ele>1161.199951171875</ele>
        <time>2022-05-04T08:39:33.000Z</time>
      </trkpt>
      <trkpt lat="40.7018564455211162567138671875" lon="-1.91050386987626552581787109375">
        <ele>1161.199951171875</ele>
        <time>2022-05-04T08:39:34.000Z</time>
      </trkpt>
      <trkpt lat="40.70163625292479991912841796875" lon="-1.91012266092002391815185546875">
        <ele>1161.800048828125</ele>
        <time>2022-05-04T08:39:40.000Z</time>
      </trkpt>
      <trkpt lat="40.7014487497508525848388671875" lon="-1.90984119661152362823486328125">
        <ele>1163</ele>
        <time>2022-05-04T08:39:46.000Z</time>
      </trkpt>
      <trkpt lat="40.701392926275730133056640625" lon="-1.90976140089333057403564453125">
        <ele>1162.800048828125</ele>
        <time>2022-05-04T08:39:48.000Z</time>
      </trkpt>
      <trkpt lat="40.7012137211859226226806640625" lon="-1.90955218859016895294189453125">
        <ele>1162.5999755859375</ele>
        <time>2022-05-04T08:39:54.000Z</time>
      </trkpt>
      <trkpt lat="40.7011848874390125274658203125" lon="-1.90951891243457794189453125">
        <ele>1162.5999755859375</ele>
        <time>2022-05-04T08:39:55.000Z</time>
      </trkpt>
      <trkpt lat="40.700964443385601043701171875" lon="-1.9092555530369281768798828125">
        <ele>1163</ele>
        <time>2022-05-04T08:40:03.000Z</time>
      </trkpt>
      <trkpt lat="40.7006777822971343994140625" lon="-1.90892639569938182830810546875">
        <ele>1164.199951171875</ele>
        <time>2022-05-04T08:40:14.000Z</time>
      </trkpt>
      <trkpt lat="40.700652636587619781494140625" lon="-1.90889772959053516387939453125">
        <ele>1164.199951171875</ele>
        <time>2022-05-04T08:40:15.000Z</time>
      </trkpt>
      <trkpt lat="40.70044317282736301422119140625" lon="-1.9086607731878757476806640625">
        <ele>1163.4000244140625</ele>
        <time>2022-05-04T08:40:23.000Z</time>
      </trkpt>
      <trkpt lat="40.7002164423465728759765625" lon="-1.9083932228386402130126953125">
        <ele>1162.800048828125</ele>
        <time>2022-05-04T08:40:32.000Z</time>
      </trkpt>
      <trkpt lat="40.700093396008014678955078125" lon="-1.9082457013428211212158203125">
        <ele>1163</ele>
        <time>2022-05-04T08:40:37.000Z</time>
      </trkpt>
      <trkpt lat="40.69999122060835361480712890625" lon="-1.90813145600259304046630859375">
        <ele>1164</ele>
        <time>2022-05-04T08:40:41.000Z</time>
      </trkpt>
      <trkpt lat="40.69978351704776287078857421875" lon="-1.9078929908573627471923828125">
        <ele>1164.800048828125</ele>
        <time>2022-05-04T08:40:49.000Z</time>
      </trkpt>
      <trkpt lat="40.69960959255695343017578125" lon="-1.90767816267907619476318359375">
        <ele>1165.5999755859375</ele>
        <time>2022-05-04T08:40:56.000Z</time>
      </trkpt>
      <trkpt lat="40.6994860433042049407958984375" lon="-1.90752678550779819488525390625">
        <ele>1166.800048828125</ele>
        <time>2022-05-04T08:41:01.000Z</time>
      </trkpt>
      <trkpt lat="40.6993938423693180084228515625" lon="-1.907404325902462005615234375">
        <ele>1167.199951171875</ele>
        <time>2022-05-04T08:41:05.000Z</time>
      </trkpt>
      <trkpt lat="40.69916526786983013153076171875" lon="-1.90710358321666717529296875">
        <ele>1168.800048828125</ele>
        <time>2022-05-04T08:41:15.000Z</time>
      </trkpt>
      <trkpt lat="40.6989879906177520751953125" lon="-1.9068100489675998687744140625">
        <ele>1167.4000244140625</ele>
        <time>2022-05-04T08:41:24.000Z</time>
      </trkpt>
      <trkpt lat="40.69893409498035907745361328125" lon="-1.90675179474055767059326171875">
        <ele>1167</ele>
        <time>2022-05-04T08:41:28.000Z</time>
      </trkpt>
      <trkpt lat="40.69893174804747104644775390625" lon="-1.9067490287125110626220703125">
        <ele>1167</ele>
        <time>2022-05-04T08:41:30.000Z</time>
      </trkpt>
      <trkpt lat="40.69889989681541919708251953125" lon="-1.906682141125202178955078125">
        <ele>1166.5999755859375</ele>
        <time>2022-05-04T08:42:46.000Z</time>
      </trkpt>
      <trkpt lat="40.69887944497168064117431640625" lon="-1.906646601855754852294921875">
        <ele>1166.4000244140625</ele>
        <time>2022-05-04T08:42:48.000Z</time>
      </trkpt>
      <trkpt lat="40.6987833045423030853271484375" lon="-1.90647083334624767303466796875">
        <ele>1166.800048828125</ele>
        <time>2022-05-04T08:42:55.000Z</time>
      </trkpt>
      <trkpt lat="40.6986699812114238739013671875" lon="-1.90624737180769443511962890625">
        <ele>1168.4000244140625</ele>
        <time>2022-05-04T08:43:02.000Z</time>
      </trkpt>
      <trkpt lat="40.69865078665316104888916015625" lon="-1.90621183253824710845947265625">
        <ele>1168.5999755859375</ele>
        <time>2022-05-04T08:43:03.000Z</time>
      </trkpt>
      <trkpt lat="40.6984792090952396392822265625" lon="-1.905875466763973236083984375">
        <ele>1168.199951171875</ele>
        <time>2022-05-04T08:43:12.000Z</time>
      </trkpt>
      <trkpt lat="40.69831810891628265380859375" lon="-1.905569694936275482177734375">
        <ele>1166.4000244140625</ele>
        <time>2022-05-04T08:43:20.000Z</time>
      </trkpt>
      <trkpt lat="40.69821752607822418212890625" lon="-1.905381269752979278564453125">
        <ele>1166</ele>
        <time>2022-05-04T08:43:25.000Z</time>
      </trkpt>
      <trkpt lat="40.6981798075139522552490234375" lon="-1.9053053297102451324462890625">
        <ele>1166</ele>
        <time>2022-05-04T08:43:27.000Z</time>
      </trkpt>
      <trkpt lat="40.69801636040210723876953125" lon="-1.9050122983753681182861328125">
        <ele>1166</ele>
        <time>2022-05-04T08:43:35.000Z</time>
      </trkpt>
      <trkpt lat="40.69783237762749195098876953125" lon="-1.90466654486954212188720703125">
        <ele>1169.800048828125</ele>
        <time>2022-05-04T08:43:44.000Z</time>
      </trkpt>
      <trkpt lat="40.69766256026923656463623046875" lon="-1.90434568561613559722900390625">
        <ele>1173</ele>
        <time>2022-05-04T08:43:52.000Z</time>
      </trkpt>
      <trkpt lat="40.6975685991346836090087890625" lon="-1.90417184494435787200927734375">
        <ele>1171.800048828125</ele>
        <time>2022-05-04T08:43:56.000Z</time>
      </trkpt>
      <trkpt lat="40.69738646037876605987548828125" lon="-1.90383522771298885345458984375">
        <ele>1171.199951171875</ele>
        <time>2022-05-04T08:44:04.000Z</time>
      </trkpt>
      <trkpt lat="40.6972054950892925262451171875" lon="-1.90350816585123538970947265625">
        <ele>1167.4000244140625</ele>
        <time>2022-05-04T08:44:12.000Z</time>
      </trkpt>
      <trkpt lat="40.697160065174102783203125" lon="-1.9034381769597530364990234375">
        <ele>1167.199951171875</ele>
        <time>2022-05-04T08:44:14.000Z</time>
      </trkpt>
      <trkpt lat="40.69698362611234188079833984375" lon="-1.90317490138113498687744140625">
        <ele>1167.4000244140625</ele>
        <time>2022-05-04T08:44:21.000Z</time>
      </trkpt>
      <trkpt lat="40.69671305827796459197998046875" lon="-1.902857981622219085693359375">
        <ele>1172.199951171875</ele>
        <time>2022-05-04T08:44:30.000Z</time>
      </trkpt>
      <trkpt lat="40.69638582877814769744873046875" lon="-1.90256285481154918670654296875">
        <ele>1173.800048828125</ele>
        <time>2022-05-04T08:44:40.000Z</time>
      </trkpt>
      <trkpt lat="40.69634911604225635528564453125" lon="-1.90253754146397113800048828125">
        <ele>1174.199951171875</ele>
        <time>2022-05-04T08:44:41.000Z</time>
      </trkpt>
      <trkpt lat="40.6959931366145610809326171875" lon="-1.9023240543901920318603515625">
        <ele>1174.4000244140625</ele>
        <time>2022-05-04T08:44:51.000Z</time>
      </trkpt>
      <trkpt lat="40.695959441363811492919921875" lon="-1.90230720676481723785400390625">
        <ele>1174.4000244140625</ele>
        <time>2022-05-04T08:44:52.000Z</time>
      </trkpt>
      <trkpt lat="40.695672444999217987060546875" lon="-1.9021986611187458038330078125">
        <ele>1174.199951171875</ele>
        <time>2022-05-04T08:45:00.000Z</time>
      </trkpt>
      <trkpt lat="40.695383436977863311767578125" lon="-1.90210201777517795562744140625">
        <ele>1173.5999755859375</ele>
        <time>2022-05-04T08:45:08.000Z</time>
      </trkpt>
      <trkpt lat="40.6953115202486515045166015625" lon="-1.90208173356950283050537109375">
        <ele>1174</ele>
        <time>2022-05-04T08:45:10.000Z</time>
      </trkpt>
      <trkpt lat="40.6950097717344760894775390625" lon="-1.90197746269404888153076171875">
        <ele>1175.5999755859375</ele>
        <time>2022-05-04T08:45:19.000Z</time>
      </trkpt>
      <trkpt lat="40.69494715891778469085693359375" lon="-1.9019492156803607940673828125">
        <ele>1175.800048828125</ele>
        <time>2022-05-04T08:45:21.000Z</time>
      </trkpt>
      <trkpt lat="40.6947308219969272613525390625" lon="-1.90184377133846282958984375">
        <ele>1176.5999755859375</ele>
        <time>2022-05-04T08:45:28.000Z</time>
      </trkpt>
      <trkpt lat="40.69458187557756900787353515625" lon="-1.90174452960491180419921875">
        <ele>1177.4000244140625</ele>
        <time>2022-05-04T08:45:33.000Z</time>
      </trkpt>
      <trkpt lat="40.6944183446466922760009765625" lon="-1.90160245634615421295166015625">
        <ele>1176.4000244140625</ele>
        <time>2022-05-04T08:45:39.000Z</time>
      </trkpt>
      <trkpt lat="40.6941792927682399749755859375" lon="-1.9013413600623607635498046875">
        <ele>1175.5999755859375</ele>
        <time>2022-05-04T08:45:48.000Z</time>
      </trkpt>
      <trkpt lat="40.6939583458006381988525390625" lon="-1.90101153217256069183349609375">
        <ele>1173.800048828125</ele>
        <time>2022-05-04T08:45:57.000Z</time>
      </trkpt>
      <trkpt lat="40.69374720565974712371826171875" lon="-1.90068011172115802764892578125">
        <ele>1174</ele>
        <time>2022-05-04T08:46:05.000Z</time>
      </trkpt>
      <trkpt lat="40.69347714073956012725830078125" lon="-1.9002580828964710235595703125">
        <ele>1179.199951171875</ele>
        <time>2022-05-04T08:46:15.000Z</time>
      </trkpt>
      <trkpt lat="40.69322551600635051727294921875" lon="-1.8999026902019977569580078125">
        <ele>1178.199951171875</ele>
        <time>2022-05-04T08:46:24.000Z</time>
      </trkpt>
      <trkpt lat="40.6929893977940082550048828125" lon="-1.89964771270751953125">
        <ele>1179.199951171875</ele>
        <time>2022-05-04T08:46:32.000Z</time>
      </trkpt>
      <trkpt lat="40.6928029842674732208251953125" lon="-1.8995016999542713165283203125">
        <ele>1180.4000244140625</ele>
        <time>2022-05-04T08:46:38.000Z</time>
      </trkpt>
      <trkpt lat="40.69273768924176692962646484375" lon="-1.899450235068798065185546875">
        <ele>1180.800048828125</ele>
        <time>2022-05-04T08:46:40.000Z</time>
      </trkpt>
      <trkpt lat="40.69239386357367038726806640625" lon="-1.899200119078159332275390625">
        <ele>1179.800048828125</ele>
        <time>2022-05-04T08:46:50.000Z</time>
      </trkpt>
      <trkpt lat="40.692125894129276275634765625" lon="-1.89899752847850322723388671875">
        <ele>1179.5999755859375</ele>
        <time>2022-05-04T08:46:58.000Z</time>
      </trkpt>
      <trkpt lat="40.69177024997770786285400390625" lon="-1.89872411079704761505126953125">
        <ele>1181.5999755859375</ele>
        <time>2022-05-04T08:47:09.000Z</time>
      </trkpt>
      <trkpt lat="40.6915795616805553436279296875" lon="-1.89857021905481815338134765625">
        <ele>1178.800048828125</ele>
        <time>2022-05-04T08:47:15.000Z</time>
      </trkpt>
      <trkpt lat="40.6914005242288112640380859375" lon="-1.8984311632812023162841796875">
        <ele>1175.4000244140625</ele>
        <time>2022-05-04T08:47:21.000Z</time>
      </trkpt>
      <trkpt lat="40.69126280955970287322998046875" lon="-1.8983215279877185821533203125">
        <ele>1175.800048828125</ele>
        <time>2022-05-04T08:47:26.000Z</time>
      </trkpt>
      <trkpt lat="40.69118955172598361968994140625" lon="-1.8982447497546672821044921875">
        <ele>1175.5999755859375</ele>
        <time>2022-05-04T08:47:29.000Z</time>
      </trkpt>
      <trkpt lat="40.6910969316959381103515625" lon="-1.8980600126087665557861328125">
        <ele>1177.199951171875</ele>
        <time>2022-05-04T08:47:35.000Z</time>
      </trkpt>
      <trkpt lat="40.6910836882889270782470703125" lon="-1.8977746926248073577880859375">
        <ele>1179.199951171875</ele>
        <time>2022-05-04T08:47:42.000Z</time>
      </trkpt>
      <trkpt lat="40.691070444881916046142578125" lon="-1.89745978452265262603759765625">
        <ele>1180.5999755859375</ele>
        <time>2022-05-04T08:47:49.000Z</time>
      </trkpt>
      <trkpt lat="40.69101269356906414031982421875" lon="-1.897180415689945220947265625">
        <ele>1182.4000244140625</ele>
        <time>2022-05-04T08:47:56.000Z</time>
      </trkpt>
      <trkpt lat="40.69095904938876628875732421875" lon="-1.8969505839049816131591796875">
        <ele>1184</ele>
        <time>2022-05-04T08:48:02.000Z</time>
      </trkpt>
      <trkpt lat="40.69094899110496044158935546875" lon="-1.8969126977026462554931640625">
        <ele>1183.800048828125</ele>
        <time>2022-05-04T08:48:03.000Z</time>
      </trkpt>
      <trkpt lat="40.69088377989828586578369140625" lon="-1.89665906131267547607421875">
        <ele>1183</ele>
        <time>2022-05-04T08:48:10.000Z</time>
      </trkpt>
      <trkpt lat="40.69085083901882171630859375" lon="-1.89651112072169780731201171875">
        <ele>1182.5999755859375</ele>
        <time>2022-05-04T08:48:14.000Z</time>
      </trkpt>
      <trkpt lat="40.6907963566482067108154296875" lon="-1.8962689675390720367431640625">
        <ele>1181.4000244140625</ele>
        <time>2022-05-04T08:48:21.000Z</time>
      </trkpt>
      <trkpt lat="40.6907182373106479644775390625" lon="-1.89594022929668426513671875">
        <ele>1182</ele>
        <time>2022-05-04T08:48:30.000Z</time>
      </trkpt>
      <trkpt lat="40.69067406468093395233154296875" lon="-1.89579580910503864288330078125">
        <ele>1182.4000244140625</ele>
        <time>2022-05-04T08:48:34.000Z</time>
      </trkpt>
      <trkpt lat="40.6906020641326904296875" lon="-1.89562113024294376373291015625">
        <ele>1182.800048828125</ele>
        <time>2022-05-04T08:48:39.000Z</time>
      </trkpt>
      <trkpt lat="40.69049008190631866455078125" lon="-1.8954126723110675811767578125">
        <ele>1183</ele>
        <time>2022-05-04T08:48:45.000Z</time>
      </trkpt>
      <trkpt lat="40.6904476694762706756591796875" lon="-1.89535106532275676727294921875">
        <ele>1183.199951171875</ele>
        <time>2022-05-04T08:48:47.000Z</time>
      </trkpt>
      <trkpt lat="40.69023418240249156951904296875" lon="-1.8950592912733554840087890625">
        <ele>1184.5999755859375</ele>
        <time>2022-05-04T08:48:57.000Z</time>
      </trkpt>
      <trkpt lat="40.69012756459414958953857421875" lon="-1.89490632154047489166259765625">
        <ele>1185</ele>
        <time>2022-05-04T08:49:02.000Z</time>
      </trkpt>
      <trkpt lat="40.690039806067943572998046875" lon="-1.89478243701159954071044921875">
        <ele>1185.4000244140625</ele>
        <time>2022-05-04T08:49:06.000Z</time>
      </trkpt>
      <trkpt lat="40.68989421240985393524169921875" lon="-1.89457976259291172027587890625">
        <ele>1186</ele>
        <time>2022-05-04T08:49:13.000Z</time>
      </trkpt>
      <trkpt lat="40.68975381553173065185546875" lon="-1.89438211731612682342529296875">
        <ele>1186.4000244140625</ele>
        <time>2022-05-04T08:49:20.000Z</time>
      </trkpt>
      <trkpt lat="40.68973294459283351898193359375" lon="-1.89435303211212158203125">
        <ele>1186.4000244140625</ele>
        <time>2022-05-04T08:49:21.000Z</time>
      </trkpt>
      <trkpt lat="40.6895692460238933563232421875" lon="-1.8941433168947696685791015625">
        <ele>1187.199951171875</ele>
        <time>2022-05-04T08:49:29.000Z</time>
      </trkpt>
      <trkpt lat="40.68950168788433074951171875" lon="-1.89406259916722774505615234375">
        <ele>1187</ele>
        <time>2022-05-04T08:49:32.000Z</time>
      </trkpt>
      <trkpt lat="40.689456760883331298828125" lon="-1.89398288726806640625">
        <ele>1187.800048828125</ele>
        <time>2022-05-04T08:49:35.000Z</time>
      </trkpt>
      <trkpt lat="40.6893560104072093963623046875" lon="-1.8938341923058032989501953125">
        <ele>1189.5999755859375</ele>
        <time>2022-05-04T08:49:41.000Z</time>
      </trkpt>
      <trkpt lat="40.689339749515056610107421875" lon="-1.893807537853717803955078125">
        <ele>1189.800048828125</ele>
        <time>2022-05-04T08:49:42.000Z</time>
      </trkpt>
      <trkpt lat="40.6892014481127262115478515625" lon="-1.8936209566891193389892578125">
        <ele>1191.5999755859375</ele>
        <time>2022-05-04T08:49:50.000Z</time>
      </trkpt>
      <trkpt lat="40.68916599266231060028076171875" lon="-1.8935730122029781341552734375">
        <ele>1191.800048828125</ele>
        <time>2022-05-04T08:49:52.000Z</time>
      </trkpt>
      <trkpt lat="40.689047388732433319091796875" lon="-1.89341065473854541778564453125">
        <ele>1192.4000244140625</ele>
        <time>2022-05-04T08:49:59.000Z</time>
      </trkpt>
      <trkpt lat="40.68897991441190242767333984375" lon="-1.8933131732046604156494140625">
        <ele>1192.800048828125</ele>
        <time>2022-05-04T08:50:03.000Z</time>
      </trkpt>
      <trkpt lat="40.6889107637107372283935546875" lon="-1.89321904443204402923583984375">
        <ele>1193</ele>
        <time>2022-05-04T08:50:07.000Z</time>
      </trkpt>
      <trkpt lat="40.6888598017394542694091796875" lon="-1.89315081574022769927978515625">
        <ele>1194</ele>
        <time>2022-05-04T08:50:10.000Z</time>
      </trkpt>
      <trkpt lat="40.68877673707902431488037109375" lon="-1.8930352292954921722412109375">
        <ele>1196.4000244140625</ele>
        <time>2022-05-04T08:50:15.000Z</time>
      </trkpt>
      <trkpt lat="40.688692666590213775634765625" lon="-1.8929140269756317138671875">
        <ele>1199.199951171875</ele>
        <time>2022-05-04T08:50:20.000Z</time>
      </trkpt>
      <trkpt lat="40.6886254437267780303955078125" lon="-1.892817802727222442626953125">
        <ele>1201.199951171875</ele>
        <time>2022-05-04T08:50:24.000Z</time>
      </trkpt>
      <trkpt lat="40.68854774348437786102294921875" lon="-1.89269551075994968414306640625">
        <ele>1203.4000244140625</ele>
        <time>2022-05-04T08:50:29.000Z</time>
      </trkpt>
      <trkpt lat="40.6885013915598392486572265625" lon="-1.89261705614626407623291015625">
        <ele>1202.4000244140625</ele>
        <time>2022-05-04T08:50:32.000Z</time>
      </trkpt>
      <trkpt lat="40.6883987970650196075439453125" lon="-1.8924290500581264495849609375">
        <ele>1200</ele>
        <time>2022-05-04T08:50:39.000Z</time>
      </trkpt>
      <trkpt lat="40.6883709691464900970458984375" lon="-1.8923733942210674285888671875">
        <ele>1199.800048828125</ele>
        <time>2022-05-04T08:50:41.000Z</time>
      </trkpt>
      <trkpt lat="40.68825253285467624664306640625" lon="-1.89211850054562091827392578125">
        <ele>1201.199951171875</ele>
        <time>2022-05-04T08:50:49.000Z</time>
      </trkpt>
      <trkpt lat="40.688198469579219818115234375" lon="-1.8919821269810199737548828125">
        <ele>1200.800048828125</ele>
        <time>2022-05-04T08:50:53.000Z</time>
      </trkpt>
      <trkpt lat="40.6881242059171199798583984375" lon="-1.8917886726558208465576171875">
        <ele>1200</ele>
        <time>2022-05-04T08:50:58.000Z</time>
      </trkpt>
      <trkpt lat="40.68800694309175014495849609375" lon="-1.89147409982979297637939453125">
        <ele>1198.5999755859375</ele>
        <time>2022-05-04T08:51:05.000Z</time>
      </trkpt>
      <trkpt lat="40.687808878719806671142578125" lon="-1.8909377418458461761474609375">
        <ele>1195.4000244140625</ele>
        <time>2022-05-04T08:51:15.000Z</time>
      </trkpt>
      <trkpt lat="40.6876420788466930389404296875" lon="-1.890542618930339813232421875">
        <ele>1192</ele>
        <time>2022-05-04T08:51:22.000Z</time>
      </trkpt>
      <trkpt lat="40.68758734501898288726806640625" lon="-1.89042963087558746337890625">
        <ele>1191</ele>
        <time>2022-05-04T08:51:24.000Z</time>
      </trkpt>
      <trkpt lat="40.68732817657291889190673828125" lon="-1.8899969570338726043701171875">
        <ele>1193.800048828125</ele>
        <time>2022-05-04T08:51:32.000Z</time>
      </trkpt>
      <trkpt lat="40.68702022545039653778076171875" lon="-1.889575012028217315673828125">
        <ele>1194.800048828125</ele>
        <time>2022-05-04T08:51:41.000Z</time>
      </trkpt>
      <trkpt lat="40.68688376806676387786865234375" lon="-1.8894115649163722991943359375">
        <ele>1195</ele>
        <time>2022-05-04T08:51:45.000Z</time>
      </trkpt>
      <trkpt lat="40.68671411834657192230224609375" lon="-1.889197826385498046875">
        <ele>1194.5999755859375</ele>
        <time>2022-05-04T08:51:50.000Z</time>
      </trkpt>
      <trkpt lat="40.6863804347813129425048828125" lon="-1.88873874954879283905029296875">
        <ele>1194.800048828125</ele>
        <time>2022-05-04T08:52:01.000Z</time>
      </trkpt>
      <trkpt lat="40.6861750781536102294921875" lon="-1.8883832730352878570556640625">
        <ele>1194.4000244140625</ele>
        <time>2022-05-04T08:52:10.000Z</time>
      </trkpt>
      <trkpt lat="40.685972236096858978271484375" lon="-1.88800969161093235015869140625">
        <ele>1197.199951171875</ele>
        <time>2022-05-04T08:52:20.000Z</time>
      </trkpt>
      <trkpt lat="40.68591414950788021087646484375" lon="-1.88790055923163890838623046875">
        <ele>1198.5999755859375</ele>
        <time>2022-05-04T08:52:23.000Z</time>
      </trkpt>
      <trkpt lat="40.6857719086110591888427734375" lon="-1.88765765167772769927978515625">
        <ele>1198.800048828125</ele>
        <time>2022-05-04T08:52:30.000Z</time>
      </trkpt>
      <trkpt lat="40.6856210343539714813232421875" lon="-1.8874217011034488677978515625">
        <ele>1198.5999755859375</ele>
        <time>2022-05-04T08:52:37.000Z</time>
      </trkpt>
      <trkpt lat="40.685553140938282012939453125" lon="-1.8873251415789127349853515625">
        <ele>1198.4000244140625</ele>
        <time>2022-05-04T08:52:40.000Z</time>
      </trkpt>
      <trkpt lat="40.68542766384780406951904296875" lon="-1.88717418350279331207275390625">
        <ele>1199.4000244140625</ele>
        <time>2022-05-04T08:52:45.000Z</time>
      </trkpt>
      <trkpt lat="40.68524527363479137420654296875" lon="-1.8869761191308498382568359375">
        <ele>1201.199951171875</ele>
        <time>2022-05-04T08:52:52.000Z</time>
      </trkpt>
      <trkpt lat="40.685190372169017791748046875" lon="-1.8869219720363616943359375">
        <ele>1201.800048828125</ele>
        <time>2022-05-04T08:52:54.000Z</time>
      </trkpt>
      <trkpt lat="40.6849702633917331695556640625" lon="-1.88670831732451915740966796875">
        <ele>1203.4000244140625</ele>
        <time>2022-05-04T08:53:02.000Z</time>
      </trkpt>
      <trkpt lat="40.68468620069324970245361328125" lon="-1.8864155374467372894287109375">
        <ele>1205</ele>
        <time>2022-05-04T08:53:12.000Z</time>
      </trkpt>
      <trkpt lat="40.684657283127307891845703125" lon="-1.88638561405241489410400390625">
        <ele>1204.800048828125</ele>
        <time>2022-05-04T08:53:13.000Z</time>
      </trkpt>
      <trkpt lat="40.684440024197101593017578125" lon="-1.88611990772187709808349609375">
        <ele>1204</ele>
        <time>2022-05-04T08:53:21.000Z</time>
      </trkpt>
      <trkpt lat="40.6842598132789134979248046875" lon="-1.88586073927581310272216796875">
        <ele>1201.5999755859375</ele>
        <time>2022-05-04T08:53:28.000Z</time>
      </trkpt>
      <trkpt lat="40.68406929261982440948486328125" lon="-1.8855592422187328338623046875">
        <ele>1200.199951171875</ele>
        <time>2022-05-04T08:53:36.000Z</time>
      </trkpt>
      <trkpt lat="40.68378481082618236541748046875" lon="-1.885120868682861328125">
        <ele>1201.5999755859375</ele>
        <time>2022-05-04T08:53:48.000Z</time>
      </trkpt>
      <trkpt lat="40.68359672091901302337646484375" lon="-1.88487745821475982666015625">
        <ele>1201.5999755859375</ele>
        <time>2022-05-04T08:53:56.000Z</time>
      </trkpt>
      <trkpt lat="40.6835057772696018218994140625" lon="-1.88476455397903919219970703125">
        <ele>1201</ele>
        <time>2022-05-04T08:54:00.000Z</time>
      </trkpt>
      <trkpt lat="40.6834551505744457244873046875" lon="-1.8847083114087581634521484375">
        <ele>1200.5999755859375</ele>
        <time>2022-05-04T08:54:02.000Z</time>
      </trkpt>
      <trkpt lat="40.683319866657257080078125" lon="-1.88457294367253780364990234375">
        <ele>1199.5999755859375</ele>
        <time>2022-05-04T08:54:07.000Z</time>
      </trkpt>
      <trkpt lat="40.6831446848809719085693359375" lon="-1.884428523480892181396484375">
        <ele>1199.199951171875</ele>
        <time>2022-05-04T08:54:13.000Z</time>
      </trkpt>
      <trkpt lat="40.683116018772125244140625" lon="-1.88440429978072643280029296875">
        <ele>1199.199951171875</ele>
        <time>2022-05-04T08:54:14.000Z</time>
      </trkpt>
      <trkpt lat="40.68291342817246913909912109375" lon="-1.88426884822547435760498046875">
        <ele>1200</ele>
        <time>2022-05-04T08:54:21.000Z</time>
      </trkpt>
      <trkpt lat="40.68282256834208965301513671875" lon="-1.88421654514968395233154296875">
        <ele>1200.5999755859375</ele>
        <time>2022-05-04T08:54:24.000Z</time>
      </trkpt>
      <trkpt lat="40.6826146133244037628173828125" lon="-1.8841225840151309967041015625">
        <ele>1201.5999755859375</ele>
        <time>2022-05-04T08:54:31.000Z</time>
      </trkpt>
      <trkpt lat="40.6823125295341014862060546875" lon="-1.88400884158909320831298828125">
        <ele>1203.800048828125</ele>
        <time>2022-05-04T08:54:41.000Z</time>
      </trkpt>
      <trkpt lat="40.6820795126259326934814453125" lon="-1.88391630537807941436767578125">
        <ele>1204.4000244140625</ele>
        <time>2022-05-04T08:54:49.000Z</time>
      </trkpt>
      <trkpt lat="40.68202226422727108001708984375" lon="-1.88389266841113567352294921875">
        <ele>1204.800048828125</ele>
        <time>2022-05-04T08:54:51.000Z</time>
      </trkpt>
      <trkpt lat="40.681857056915760040283203125" lon="-1.88381337560713291168212890625">
        <ele>1206.199951171875</ele>
        <time>2022-05-04T08:54:57.000Z</time>
      </trkpt>
      <trkpt lat="40.68180240690708160400390625" lon="-1.8837842904031276702880859375">
        <ele>1206.800048828125</ele>
        <time>2022-05-04T08:54:59.000Z</time>
      </trkpt>
      <trkpt lat="40.6815581582486629486083984375" lon="-1.88362847082316875457763671875">
        <ele>1209.4000244140625</ele>
        <time>2022-05-04T08:55:08.000Z</time>
      </trkpt>
      <trkpt lat="40.6813442520797252655029296875" lon="-1.88341121189296245574951171875">
        <ele>1211.800048828125</ele>
        <time>2022-05-04T08:55:17.000Z</time>
      </trkpt>
      <trkpt lat="40.6813238002359867095947265625" lon="-1.88338187523186206817626953125">
        <ele>1211.800048828125</ele>
        <time>2022-05-04T08:55:18.000Z</time>
      </trkpt>
      <trkpt lat="40.681182481348514556884765625" lon="-1.88315656967461109161376953125">
        <ele>1213.4000244140625</ele>
        <time>2022-05-04T08:55:25.000Z</time>
      </trkpt>
      <trkpt lat="40.681121461093425750732421875" lon="-1.88305749557912349700927734375">
        <ele>1214.199951171875</ele>
        <time>2022-05-04T08:55:28.000Z</time>
      </trkpt>
      <trkpt lat="40.68101777695119380950927734375" lon="-1.88289103098213672637939453125">
        <ele>1215.5999755859375</ele>
        <time>2022-05-04T08:55:33.000Z</time>
      </trkpt>
      <trkpt lat="40.680805630981922149658203125" lon="-1.8825417570769786834716796875">
        <ele>1213.4000244140625</ele>
        <time>2022-05-04T08:55:43.000Z</time>
      </trkpt>
      <trkpt lat="40.6805868633091449737548828125" lon="-1.882192902266979217529296875">
        <ele>1212.199951171875</ele>
        <time>2022-05-04T08:55:52.000Z</time>
      </trkpt>
      <trkpt lat="40.68038351833820343017578125" lon="-1.88193465583026409149169921875">
        <ele>1214.199951171875</ele>
        <time>2022-05-04T08:55:59.000Z</time>
      </trkpt>
      <trkpt lat="40.680130384862422943115234375" lon="-1.88168956898152828216552734375">
        <ele>1214.800048828125</ele>
        <time>2022-05-04T08:56:07.000Z</time>
      </trkpt>
      <trkpt lat="40.679860822856426239013671875" lon="-1.8815119564533233642578125">
        <ele>1214.800048828125</ele>
        <time>2022-05-04T08:56:15.000Z</time>
      </trkpt>
      <trkpt lat="40.679555721580982208251953125" lon="-1.8813270516693592071533203125">
        <ele>1216.4000244140625</ele>
        <time>2022-05-04T08:56:25.000Z</time>
      </trkpt>
      <trkpt lat="40.6794408895075321197509765625" lon="-1.8811835534870624542236328125">
        <ele>1217.5999755859375</ele>
        <time>2022-05-04T08:56:31.000Z</time>
      </trkpt>
      <trkpt lat="40.67933133803308010101318359375" lon="-1.880985908210277557373046875">
        <ele>1218</ele>
        <time>2022-05-04T08:56:39.000Z</time>
      </trkpt>
      <trkpt lat="40.67923410795629024505615234375" lon="-1.88079622574150562286376953125">
        <ele>1216.800048828125</ele>
        <time>2022-05-04T08:56:48.000Z</time>
      </trkpt>
      <trkpt lat="40.6791803799569606781005859375" lon="-1.8806990794837474822998046875">
        <ele>1216.5999755859375</ele>
        <time>2022-05-04T08:56:55.000Z</time>
      </trkpt>
      <trkpt lat="40.67915800027549266815185546875" lon="-1.88068390823900699615478515625">
        <ele>1217</ele>
        <time>2022-05-04T08:56:59.000Z</time>
      </trkpt>
      <trkpt lat="40.67913201637566089630126953125" lon="-1.88063629902899265289306640625">
        <ele>1217.4000244140625</ele>
        <time>2022-05-04T08:58:14.000Z</time>
      </trkpt>
      <trkpt lat="40.6791235506534576416015625" lon="-1.88061668537557125091552734375">
        <ele>1217.5999755859375</ele>
        <time>2022-05-04T08:58:15.000Z</time>
      </trkpt>
      <trkpt lat="40.67903679795563220977783203125" lon="-1.88049732707440853118896484375">
        <ele>1218.199951171875</ele>
        <time>2022-05-04T08:58:20.000Z</time>
      </trkpt>
      <trkpt lat="40.67885474301874637603759765625" lon="-1.88030286692082881927490234375">
        <ele>1217</ele>
        <time>2022-05-04T08:58:27.000Z</time>
      </trkpt>
      <trkpt lat="40.6785326264798641204833984375" lon="-1.880038417875766754150390625">
        <ele>1216.4000244140625</ele>
        <time>2022-05-04T08:58:37.000Z</time>
      </trkpt>
      <trkpt lat="40.67840413190424442291259765625" lon="-1.8799386732280254364013671875">
        <ele>1215.199951171875</ele>
        <time>2022-05-04T08:58:41.000Z</time>
      </trkpt>
      <trkpt lat="40.6783079914748668670654296875" lon="-1.879859380424022674560546875">
        <ele>1215</ele>
        <time>2022-05-04T08:58:44.000Z</time>
      </trkpt>
      <trkpt lat="40.678044967353343963623046875" lon="-1.8796533532440662384033203125">
        <ele>1214.4000244140625</ele>
        <time>2022-05-04T08:58:52.000Z</time>
      </trkpt>
      <trkpt lat="40.67791563458740711212158203125" lon="-1.87956173904240131378173828125">
        <ele>1216</ele>
        <time>2022-05-04T08:58:56.000Z</time>
      </trkpt>
      <trkpt lat="40.6777547858655452728271484375" lon="-1.87945310957729816436767578125">
        <ele>1218.4000244140625</ele>
        <time>2022-05-04T08:59:01.000Z</time>
      </trkpt>
      <trkpt lat="40.6774838827550411224365234375" lon="-1.8792801909148693084716796875">
        <ele>1217.4000244140625</ele>
        <time>2022-05-04T08:59:10.000Z</time>
      </trkpt>
      <trkpt lat="40.6774567253887653350830078125" lon="-1.8792620860040187835693359375">
        <ele>1217.199951171875</ele>
        <time>2022-05-04T08:59:11.000Z</time>
      </trkpt>
      <trkpt lat="40.67725463770329952239990234375" lon="-1.87913862057030200958251953125">
        <ele>1215.199951171875</ele>
        <time>2022-05-04T08:59:18.000Z</time>
      </trkpt>
      <trkpt lat="40.67716486752033233642578125" lon="-1.879082210361957550048828125">
        <ele>1214.5999755859375</ele>
        <time>2022-05-04T08:59:21.000Z</time>
      </trkpt>
      <trkpt lat="40.676947943866252899169921875" lon="-1.878954134881496429443359375">
        <ele>1217</ele>
        <time>2022-05-04T08:59:28.000Z</time>
      </trkpt>
      <trkpt lat="40.676710568368434906005859375" lon="-1.8788141570985317230224609375">
        <ele>1220.199951171875</ele>
        <time>2022-05-04T08:59:36.000Z</time>
      </trkpt>
      <trkpt lat="40.676680393517017364501953125" lon="-1.87879823148250579833984375">
        <ele>1220.5999755859375</ele>
        <time>2022-05-04T08:59:37.000Z</time>
      </trkpt>
      <trkpt lat="40.67641845904290676116943359375" lon="-1.8786398135125637054443359375">
        <ele>1220.4000244140625</ele>
        <time>2022-05-04T08:59:46.000Z</time>
      </trkpt>
      <trkpt lat="40.67623925395309925079345703125" lon="-1.87853428535163402557373046875">
        <ele>1222</ele>
        <time>2022-05-04T08:59:52.000Z</time>
      </trkpt>
      <trkpt lat="40.67609575577080249786376953125" lon="-1.8784533999860286712646484375">
        <ele>1223.4000244140625</ele>
        <time>2022-05-04T08:59:57.000Z</time>
      </trkpt>
      <trkpt lat="40.67587112076580524444580078125" lon="-1.8783179484307765960693359375">
        <ele>1223</ele>
        <time>2022-05-04T09:00:05.000Z</time>
      </trkpt>
      <trkpt lat="40.67561849020421504974365234375" lon="-1.87816279940307140350341796875">
        <ele>1224</ele>
        <time>2022-05-04T09:00:13.000Z</time>
      </trkpt>
      <trkpt lat="40.67558580078184604644775390625" lon="-1.878144107758998870849609375">
        <ele>1224</ele>
        <time>2022-05-04T09:00:14.000Z</time>
      </trkpt>
      <trkpt lat="40.6753186695277690887451171875" lon="-1.8779991008341312408447265625">
        <ele>1222.5999755859375</ele>
        <time>2022-05-04T09:00:22.000Z</time>
      </trkpt>
      <trkpt lat="40.67498398013412952423095703125" lon="-1.87784847803413867950439453125">
        <ele>1222.199951171875</ele>
        <time>2022-05-04T09:00:32.000Z</time>
      </trkpt>
      <trkpt lat="40.67463026382029056549072265625" lon="-1.87773398123681545257568359375">
        <ele>1223.5999755859375</ele>
        <time>2022-05-04T09:00:42.000Z</time>
      </trkpt>
      <trkpt lat="40.6743104942142963409423828125" lon="-1.87766575254499912261962890625">
        <ele>1226.800048828125</ele>
        <time>2022-05-04T09:00:51.000Z</time>
      </trkpt>
      <trkpt lat="40.6742739491164684295654296875" lon="-1.8776601366698741912841796875">
        <ele>1227</ele>
        <time>2022-05-04T09:00:52.000Z</time>
      </trkpt>
      <trkpt lat="40.67402391694486141204833984375" lon="-1.87761914916336536407470703125">
        <ele>1228</ele>
        <time>2022-05-04T09:00:59.000Z</time>
      </trkpt>
      <trkpt lat="40.6736962683498859405517578125" lon="-1.8775665946304798126220703125">
        <ele>1226.4000244140625</ele>
        <time>2022-05-04T09:01:08.000Z</time>
      </trkpt>
      <trkpt lat="40.6736215017735958099365234375" lon="-1.87754706479609012603759765625">
        <ele>1226</ele>
        <time>2022-05-04T09:01:10.000Z</time>
      </trkpt>
      <trkpt lat="40.6734025664627552032470703125" lon="-1.877487637102603912353515625">
        <ele>1224.4000244140625</ele>
        <time>2022-05-04T09:01:16.000Z</time>
      </trkpt>
      <trkpt lat="40.673227049410343170166015625" lon="-1.877416558563709259033203125">
        <ele>1223.199951171875</ele>
        <time>2022-05-04T09:01:21.000Z</time>
      </trkpt>
      <trkpt lat="40.67308698780834674835205078125" lon="-1.87733332626521587371826171875">
        <ele>1222.199951171875</ele>
        <time>2022-05-04T09:01:25.000Z</time>
      </trkpt>
      <trkpt lat="40.67276696674525737762451171875" lon="-1.8771535344421863555908203125">
        <ele>1226.4000244140625</ele>
        <time>2022-05-04T09:01:35.000Z</time>
      </trkpt>
      <trkpt lat="40.6724527291953563690185546875" lon="-1.87696133740246295928955078125">
        <ele>1230.5999755859375</ele>
        <time>2022-05-04T09:01:45.000Z</time>
      </trkpt>
      <trkpt lat="40.67232809029519557952880859375" lon="-1.87688556499779224395751953125">
        <ele>1231.199951171875</ele>
        <time>2022-05-04T09:01:49.000Z</time>
      </trkpt>
      <trkpt lat="40.672204792499542236328125" lon="-1.876809708774089813232421875">
        <ele>1232</ele>
        <time>2022-05-04T09:01:53.000Z</time>
      </trkpt>
      <trkpt lat="40.6719991005957126617431640625" lon="-1.8766781128942966461181640625">
        <ele>1232</ele>
        <time>2022-05-04T09:02:00.000Z</time>
      </trkpt>
      <trkpt lat="40.67190933041274547576904296875" lon="-1.876626648008823394775390625">
        <ele>1231.800048828125</ele>
        <time>2022-05-04T09:02:03.000Z</time>
      </trkpt>
      <trkpt lat="40.6716386787593364715576171875" lon="-1.87646026723086833953857421875">
        <ele>1232.5999755859375</ele>
        <time>2022-05-04T09:02:12.000Z</time>
      </trkpt>
      <trkpt lat="40.6715173088014125823974609375" lon="-1.876384913921356201171875">
        <ele>1233.5999755859375</ele>
        <time>2022-05-04T09:02:16.000Z</time>
      </trkpt>
      <trkpt lat="40.67135880701243877410888671875" lon="-1.87629363499581813812255859375">
        <ele>1235.199951171875</ele>
        <time>2022-05-04T09:02:21.000Z</time>
      </trkpt>
      <trkpt lat="40.67123509012162685394287109375" lon="-1.87621585093438625335693359375">
        <ele>1236.800048828125</ele>
        <time>2022-05-04T09:02:25.000Z</time>
      </trkpt>
      <trkpt lat="40.67107885144650936126708984375" lon="-1.8761185370385646820068359375">
        <ele>1238.800048828125</ele>
        <time>2022-05-04T09:02:30.000Z</time>
      </trkpt>
      <trkpt lat="40.670957900583744049072265625" lon="-1.87604494392871856689453125">
        <ele>1238.199951171875</ele>
        <time>2022-05-04T09:02:34.000Z</time>
      </trkpt>
      <trkpt lat="40.67075547762215137481689453125" lon="-1.875917203724384307861328125">
        <ele>1233.199951171875</ele>
        <time>2022-05-04T09:02:41.000Z</time>
      </trkpt>
      <trkpt lat="40.6706117279827594757080078125" lon="-1.8758315406739711761474609375">
        <ele>1229.800048828125</ele>
        <time>2022-05-04T09:02:46.000Z</time>
      </trkpt>
      <trkpt lat="40.6704434193670749664306640625" lon="-1.8757322989404201507568359375">
        <ele>1228.199951171875</ele>
        <time>2022-05-04T09:02:52.000Z</time>
      </trkpt>
      <trkpt lat="40.67021367140114307403564453125" lon="-1.87558762729167938232421875">
        <ele>1235.199951171875</ele>
        <time>2022-05-04T09:03:00.000Z</time>
      </trkpt>
      <trkpt lat="40.670184083282947540283203125" lon="-1.87556994147598743438720703125">
        <ele>1236.199951171875</ele>
        <time>2022-05-04T09:03:01.000Z</time>
      </trkpt>
      <trkpt lat="40.66994796507060527801513671875" lon="-1.87542459927499294281005859375">
        <ele>1241.5999755859375</ele>
        <time>2022-05-04T09:03:09.000Z</time>
      </trkpt>
      <trkpt lat="40.66989080049097537994384765625" lon="-1.87538771890103816986083984375">
        <ele>1240.4000244140625</ele>
        <time>2022-05-04T09:03:11.000Z</time>
      </trkpt>
      <trkpt lat="40.6696897186338901519775390625" lon="-1.8752699531614780426025390625">
        <ele>1235.800048828125</ele>
        <time>2022-05-04T09:03:18.000Z</time>
      </trkpt>
      <trkpt lat="40.66963163204491138458251953125" lon="-1.8752329051494598388671875">
        <ele>1236.5999755859375</ele>
        <time>2022-05-04T09:03:20.000Z</time>
      </trkpt>
      <trkpt lat="40.6693611480295658111572265625" lon="-1.875070631504058837890625">
        <ele>1238.199951171875</ele>
        <time>2022-05-04T09:03:29.000Z</time>
      </trkpt>
      <trkpt lat="40.669329799711704254150390625" lon="-1.875051520764827728271484375">
        <ele>1238</ele>
        <time>2022-05-04T09:03:30.000Z</time>
      </trkpt>
      <trkpt lat="40.6690476648509502410888671875" lon="-1.87488111667335033416748046875">
        <ele>1236.800048828125</ele>
        <time>2022-05-04T09:03:39.000Z</time>
      </trkpt>
      <trkpt lat="40.66886032931506633758544921875" lon="-1.874769888818264007568359375">
        <ele>1237</ele>
        <time>2022-05-04T09:03:45.000Z</time>
      </trkpt>
      <trkpt lat="40.66867290996015071868896484375" lon="-1.874654553830623626708984375">
        <ele>1238.800048828125</ele>
        <time>2022-05-04T09:03:51.000Z</time>
      </trkpt>
      <trkpt lat="40.66845833323895931243896484375" lon="-1.87452103011310100555419921875">
        <ele>1240.800048828125</ele>
        <time>2022-05-04T09:03:58.000Z</time>
      </trkpt>
      <trkpt lat="40.66833126358687877655029296875" lon="-1.87444768846035003662109375">
        <ele>1240.800048828125</ele>
        <time>2022-05-04T09:04:02.000Z</time>
      </trkpt>
      <trkpt lat="40.66810796968638896942138671875" lon="-1.874305866658687591552734375">
        <ele>1239.4000244140625</ele>
        <time>2022-05-04T09:04:09.000Z</time>
      </trkpt>
      <trkpt lat="40.667979307472705841064453125" lon="-1.8742319382727146148681640625">
        <ele>1239.800048828125</ele>
        <time>2022-05-04T09:04:13.000Z</time>
      </trkpt>
      <trkpt lat="40.6677400879561901092529296875" lon="-1.874087937176227569580078125">
        <ele>1241</ele>
        <time>2022-05-04T09:04:21.000Z</time>
      </trkpt>
      <trkpt lat="40.66771133802831172943115234375" lon="-1.874068491160869598388671875">
        <ele>1241</ele>
        <time>2022-05-04T09:04:22.000Z</time>
      </trkpt>
      <trkpt lat="40.6674691848456859588623046875" lon="-1.8739167787134647369384765625">
        <ele>1245.199951171875</ele>
        <time>2022-05-04T09:04:30.000Z</time>
      </trkpt>
      <trkpt lat="40.667319484055042266845703125" lon="-1.87382566742599010467529296875">
        <ele>1246.4000244140625</ele>
        <time>2022-05-04T09:04:35.000Z</time>
      </trkpt>
      <trkpt lat="40.66711488179862499237060546875" lon="-1.87370496802031993865966796875">
        <ele>1245.800048828125</ele>
        <time>2022-05-04T09:04:42.000Z</time>
      </trkpt>
      <trkpt lat="40.667060650885105133056640625" lon="-1.8736669979989528656005859375">
        <ele>1246</ele>
        <time>2022-05-04T09:04:44.000Z</time>
      </trkpt>
      <trkpt lat="40.6668884865939617156982421875" lon="-1.87355627305805683135986328125">
        <ele>1246.4000244140625</ele>
        <time>2022-05-04T09:04:50.000Z</time>
      </trkpt>
      <trkpt lat="40.6667775101959705352783203125" lon="-1.87349173240363597869873046875">
        <ele>1245.199951171875</ele>
        <time>2022-05-04T09:04:54.000Z</time>
      </trkpt>
      <trkpt lat="40.66663585603237152099609375" lon="-1.8734044767916202545166015625">
        <ele>1243.5999755859375</ele>
        <time>2022-05-04T09:04:59.000Z</time>
      </trkpt>
      <trkpt lat="40.666443072259426116943359375" lon="-1.87329073436558246612548828125">
        <ele>1241.199951171875</ele>
        <time>2022-05-04T09:05:06.000Z</time>
      </trkpt>
      <trkpt lat="40.66633301787078380584716796875" lon="-1.87322468496859073638916015625">
        <ele>1240.5999755859375</ele>
        <time>2022-05-04T09:05:10.000Z</time>
      </trkpt>
      <trkpt lat="40.66619463264942169189453125" lon="-1.87314681708812713623046875">
        <ele>1244</ele>
        <time>2022-05-04T09:05:15.000Z</time>
      </trkpt>
      <trkpt lat="40.66611810587346553802490234375" lon="-1.8730978667736053466796875">
        <ele>1246</ele>
        <time>2022-05-04T09:05:18.000Z</time>
      </trkpt>
      <trkpt lat="40.66589891910552978515625" lon="-1.87296769581735134124755859375">
        <ele>1251.5999755859375</ele>
        <time>2022-05-04T09:05:26.000Z</time>
      </trkpt>
      <trkpt lat="40.6656369008123874664306640625" lon="-1.87285185791552066802978515625">
        <ele>1251.4000244140625</ele>
        <time>2022-05-04T09:05:35.000Z</time>
      </trkpt>
      <trkpt lat="40.665387623012065887451171875" lon="-1.87280642800033092498779296875">
        <ele>1251.5999755859375</ele>
        <time>2022-05-04T09:05:44.000Z</time>
      </trkpt>
      <trkpt lat="40.66535786725580692291259765625" lon="-1.87280483543872833251953125">
        <ele>1251.800048828125</ele>
        <time>2022-05-04T09:05:45.000Z</time>
      </trkpt>
      <trkpt lat="40.6651319749653339385986328125" lon="-1.872800476849079132080078125">
        <ele>1253.800048828125</ele>
        <time>2022-05-04T09:05:53.000Z</time>
      </trkpt>
      <trkpt lat="40.6650756485760211944580078125" lon="-1.87280206941068172454833984375">
        <ele>1254</ele>
        <time>2022-05-04T09:05:55.000Z</time>
      </trkpt>
      <trkpt lat="40.66490407101809978485107421875" lon="-1.87281531281769275665283203125">
        <ele>1254.800048828125</ele>
        <time>2022-05-04T09:06:01.000Z</time>
      </trkpt>
      <trkpt lat="40.66479259170591831207275390625" lon="-1.87282520346343517303466796875">
        <ele>1255.4000244140625</ele>
        <time>2022-05-04T09:06:05.000Z</time>
      </trkpt>
      <trkpt lat="40.6646515242755413055419921875" lon="-1.872832663357257843017578125">
        <ele>1255.5999755859375</ele>
        <time>2022-05-04T09:06:10.000Z</time>
      </trkpt>
      <trkpt lat="40.66454063169658184051513671875" lon="-1.8728457391262054443359375">
        <ele>1255</ele>
        <time>2022-05-04T09:06:14.000Z</time>
      </trkpt>
      <trkpt lat="40.66440484486520290374755859375" lon="-1.87285688705742359161376953125">
        <ele>1254.4000244140625</ele>
        <time>2022-05-04T09:06:19.000Z</time>
      </trkpt>
      <trkpt lat="40.6642414815723896026611328125" lon="-1.87286577187478542327880859375">
        <ele>1253.4000244140625</ele>
        <time>2022-05-04T09:06:25.000Z</time>
      </trkpt>
      <trkpt lat="40.664214827120304107666015625" lon="-1.8728670291602611541748046875">
        <ele>1253.4000244140625</ele>
        <time>2022-05-04T09:06:26.000Z</time>
      </trkpt>
      <trkpt lat="40.6639963947236537933349609375" lon="-1.87284984625875949859619140625">
        <ele>1254.4000244140625</ele>
        <time>2022-05-04T09:06:34.000Z</time>
      </trkpt>
      <trkpt lat="40.66397049464285373687744140625" lon="-1.87284615822136402130126953125">
        <ele>1254.5999755859375</ele>
        <time>2022-05-04T09:06:35.000Z</time>
      </trkpt>
      <trkpt lat="40.66375524736940860748291015625" lon="-1.87278128229081630706787109375">
        <ele>1256.5999755859375</ele>
        <time>2022-05-04T09:06:43.000Z</time>
      </trkpt>
      <trkpt lat="40.6636527366936206817626953125" lon="-1.87273702584207057952880859375">
        <ele>1258</ele>
        <time>2022-05-04T09:06:47.000Z</time>
      </trkpt>
      <trkpt lat="40.66352960653603076934814453125" lon="-1.87267743051052093505859375">
        <ele>1259.5999755859375</ele>
        <time>2022-05-04T09:06:52.000Z</time>
      </trkpt>
      <trkpt lat="40.663438327610492706298828125" lon="-1.87261112965643405914306640625">
        <ele>1259.800048828125</ele>
        <time>2022-05-04T09:06:56.000Z</time>
      </trkpt>
      <trkpt lat="40.66337160766124725341796875" lon="-1.87255966477096080780029296875">
        <ele>1260</ele>
        <time>2022-05-04T09:06:59.000Z</time>
      </trkpt>
      <trkpt lat="40.66330145113170146942138671875" lon="-1.8725066073238849639892578125">
        <ele>1260.4000244140625</ele>
        <time>2022-05-04T09:07:02.000Z</time>
      </trkpt>
      <trkpt lat="40.66323892213404178619384765625" lon="-1.87245539389550685882568359375">
        <ele>1260.4000244140625</ele>
        <time>2022-05-04T09:07:05.000Z</time>
      </trkpt>
      <trkpt lat="40.66316197626292705535888671875" lon="-1.87237576581537723541259765625">
        <ele>1261</ele>
        <time>2022-05-04T09:07:09.000Z</time>
      </trkpt>
      <trkpt lat="40.6630448810756206512451171875" lon="-1.87225607223808765411376953125">
        <ele>1262</ele>
        <time>2022-05-04T09:07:15.000Z</time>
      </trkpt>
      <trkpt lat="40.66298880614340305328369140625" lon="-1.87219505198299884796142578125">
        <ele>1262.5999755859375</ele>
        <time>2022-05-04T09:07:18.000Z</time>
      </trkpt>
      <trkpt lat="40.66289291717112064361572265625" lon="-1.8720838241279125213623046875">
        <ele>1264</ele>
        <time>2022-05-04T09:07:23.000Z</time>
      </trkpt>
      <trkpt lat="40.66281530074775218963623046875" lon="-1.87199858017265796661376953125">
        <ele>1265</ele>
        <time>2022-05-04T09:07:27.000Z</time>
      </trkpt>
      <trkpt lat="40.66269812174141407012939453125" lon="-1.87187134288251399993896484375">
        <ele>1266.4000244140625</ele>
        <time>2022-05-04T09:07:33.000Z</time>
      </trkpt>
      <trkpt lat="40.66263877786695957183837890625" lon="-1.87181116081774234771728515625">
        <ele>1265.800048828125</ele>
        <time>2022-05-04T09:07:36.000Z</time>
      </trkpt>
      <trkpt lat="40.6625003926455974578857421875" lon="-1.87167403288185596466064453125">
        <ele>1264.199951171875</ele>
        <time>2022-05-04T09:07:43.000Z</time>
      </trkpt>
      <trkpt lat="40.66248086281120777130126953125" lon="-1.871654503047466278076171875">
        <ele>1263.800048828125</ele>
        <time>2022-05-04T09:07:44.000Z</time>
      </trkpt>
      <trkpt lat="40.66232998855412006378173828125" lon="-1.87150119803845882415771484375">
        <ele>1263.5999755859375</ele>
        <time>2022-05-04T09:07:52.000Z</time>
      </trkpt>
      <trkpt lat="40.66227165050804615020751953125" lon="-1.8714508228003978729248046875">
        <ele>1263.800048828125</ele>
        <time>2022-05-04T09:07:55.000Z</time>
      </trkpt>
      <trkpt lat="40.66215346567332744598388671875" lon="-1.8713492341339588165283203125">
        <ele>1262.800048828125</ele>
        <time>2022-05-04T09:08:01.000Z</time>
      </trkpt>
      <trkpt lat="40.6620561517775058746337890625" lon="-1.87126566655933856964111328125">
        <ele>1264</ele>
        <time>2022-05-04T09:08:06.000Z</time>
      </trkpt>
      <trkpt lat="40.6620370410382747650146484375" lon="-1.87124990858137607574462890625">
        <ele>1264.199951171875</ele>
        <time>2022-05-04T09:08:07.000Z</time>
      </trkpt>
      <trkpt lat="40.66190041601657867431640625" lon="-1.8711416982114315032958984375">
        <ele>1265.800048828125</ele>
        <time>2022-05-04T09:08:14.000Z</time>
      </trkpt>
      <trkpt lat="40.6618814729154109954833984375" lon="-1.87112853862345218658447265625">
        <ele>1266</ele>
        <time>2022-05-04T09:08:15.000Z</time>
      </trkpt>
      <trkpt lat="40.66173252649605274200439453125" lon="-1.87101638875901699066162109375">
        <ele>1265.5999755859375</ele>
        <time>2022-05-04T09:08:23.000Z</time>
      </trkpt>
      <trkpt lat="40.66171425394713878631591796875" lon="-1.8709992058575153350830078125">
        <ele>1265.4000244140625</ele>
        <time>2022-05-04T09:08:24.000Z</time>
      </trkpt>
      <trkpt lat="40.66157327033579349517822265625" lon="-1.87090155668556690216064453125">
        <ele>1264.199951171875</ele>
        <time>2022-05-04T09:08:31.000Z</time>
      </trkpt>
      <trkpt lat="40.66153295338153839111328125" lon="-1.87087272293865680694580078125">
        <ele>1263.800048828125</ele>
        <time>2022-05-04T09:08:33.000Z</time>
      </trkpt>
      <trkpt lat="40.661433041095733642578125" lon="-1.87080801464617252349853515625">
        <ele>1263</ele>
        <time>2022-05-04T09:08:38.000Z</time>
      </trkpt>
      <trkpt lat="40.66141351126134395599365234375" lon="-1.8707970343530178070068359375">
        <ele>1263</ele>
        <time>2022-05-04T09:08:39.000Z</time>
      </trkpt>
      <trkpt lat="40.6612960807979106903076171875" lon="-1.87072612345218658447265625">
        <ele>1263.199951171875</ele>
        <time>2022-05-04T09:08:45.000Z</time>
      </trkpt>
      <trkpt lat="40.661256350576877593994140625" lon="-1.87070776708424091339111328125">
        <ele>1263.800048828125</ele>
        <time>2022-05-04T09:08:47.000Z</time>
      </trkpt>
      <trkpt lat="40.661121569573879241943359375" lon="-1.8706310726702213287353515625">
        <ele>1266</ele>
        <time>2022-05-04T09:08:54.000Z</time>
      </trkpt>
      <trkpt lat="40.66107957623898983001708984375" lon="-1.87060902826488018035888671875">
        <ele>1266.5999755859375</ele>
        <time>2022-05-04T09:08:56.000Z</time>
      </trkpt>
      <trkpt lat="40.66092719323933124542236328125" lon="-1.87053727917373180389404296875">
        <ele>1269.199951171875</ele>
        <time>2022-05-04T09:09:03.000Z</time>
      </trkpt>
      <trkpt lat="40.66088511608541011810302734375" lon="-1.87051749788224697113037109375">
        <ele>1269.800048828125</ele>
        <time>2022-05-04T09:09:05.000Z</time>
      </trkpt>
      <trkpt lat="40.660819150507450103759765625" lon="-1.87049402855336666107177734375">
        <ele>1271</ele>
        <time>2022-05-04T09:09:08.000Z</time>
      </trkpt>
      <trkpt lat="40.6607113592326641082763671875" lon="-1.8704543821513652801513671875">
        <ele>1272</ele>
        <time>2022-05-04T09:09:13.000Z</time>
      </trkpt>
      <trkpt lat="40.66062091849744319915771484375" lon="-1.8704335950314998626708984375">
        <ele>1272.800048828125</ele>
        <time>2022-05-04T09:09:17.000Z</time>
      </trkpt>
      <trkpt lat="40.66053089685738086700439453125" lon="-1.870413981378078460693359375">
        <ele>1273.5999755859375</ele>
        <time>2022-05-04T09:09:21.000Z</time>
      </trkpt>
      <trkpt lat="40.6604639254510402679443359375" lon="-1.870401911437511444091796875">
        <ele>1274.4000244140625</ele>
        <time>2022-05-04T09:09:24.000Z</time>
      </trkpt>
      <trkpt lat="40.66034951247274875640869140625" lon="-1.8703926913440227508544921875">
        <ele>1276.199951171875</ele>
        <time>2022-05-04T09:09:29.000Z</time>
      </trkpt>
      <trkpt lat="40.6603019870817661285400390625" lon="-1.87038925476372241973876953125">
        <ele>1276.800048828125</ele>
        <time>2022-05-04T09:09:31.000Z</time>
      </trkpt>
      <trkpt lat="40.660167038440704345703125" lon="-1.8703942000865936279296875">
        <ele>1279</ele>
        <time>2022-05-04T09:09:37.000Z</time>
      </trkpt>
      <trkpt lat="40.66014398820698261260986328125" lon="-1.87039746902883052825927734375">
        <ele>1279.4000244140625</ele>
        <time>2022-05-04T09:09:38.000Z</time>
      </trkpt>
      <trkpt lat="40.660011135041713714599609375" lon="-1.87040501274168491363525390625">
        <ele>1281.5999755859375</ele>
        <time>2022-05-04T09:09:44.000Z</time>
      </trkpt>
      <trkpt lat="40.65999026410281658172607421875" lon="-1.8704081140458583831787109375">
        <ele>1281.800048828125</ele>
        <time>2022-05-04T09:09:45.000Z</time>
      </trkpt>
      <trkpt lat="40.65984584391117095947265625" lon="-1.87044155783951282501220703125">
        <ele>1283.4000244140625</ele>
        <time>2022-05-04T09:09:52.000Z</time>
      </trkpt>
      <trkpt lat="40.6598255597054958343505859375" lon="-1.8704453296959400177001953125">
        <ele>1283.5999755859375</ele>
        <time>2022-05-04T09:09:53.000Z</time>
      </trkpt>
      <trkpt lat="40.65968197770416736602783203125" lon="-1.870477013289928436279296875">
        <ele>1285.199951171875</ele>
        <time>2022-05-04T09:10:00.000Z</time>
      </trkpt>
      <trkpt lat="40.6596170179545879364013671875" lon="-1.87048246152698993682861328125">
        <ele>1285.5999755859375</ele>
        <time>2022-05-04T09:10:03.000Z</time>
      </trkpt>
      <trkpt lat="40.65951266326010227203369140625" lon="-1.87048749066889286041259765625">
        <ele>1286</ele>
        <time>2022-05-04T09:10:08.000Z</time>
      </trkpt>
      <trkpt lat="40.65940755419433116912841796875" lon="-1.8704962916672229766845703125">
        <ele>1286.5999755859375</ele>
        <time>2022-05-04T09:10:13.000Z</time>
      </trkpt>
      <trkpt lat="40.65936614759266376495361328125" lon="-1.8704929389059543609619140625">
        <ele>1286.5999755859375</ele>
        <time>2022-05-04T09:10:15.000Z</time>
      </trkpt>
      <trkpt lat="40.6592483818531036376953125" lon="-1.87047173269093036651611328125">
        <ele>1286.5999755859375</ele>
        <time>2022-05-04T09:10:21.000Z</time>
      </trkpt>
      <trkpt lat="40.6592297740280628204345703125" lon="-1.8704647757112979888916015625">
        <ele>1286.5999755859375</ele>
        <time>2022-05-04T09:10:22.000Z</time>
      </trkpt>
      <trkpt lat="40.65910278819501399993896484375" lon="-1.870401911437511444091796875">
        <ele>1286.199951171875</ele>
        <time>2022-05-04T09:10:29.000Z</time>
      </trkpt>
      <trkpt lat="40.65906691364943981170654296875" lon="-1.870379783213138580322265625">
        <ele>1286.199951171875</ele>
        <time>2022-05-04T09:10:31.000Z</time>
      </trkpt>
      <trkpt lat="40.65897085703909397125244140625" lon="-1.87029898166656494140625">
        <ele>1285.800048828125</ele>
        <time>2022-05-04T09:10:37.000Z</time>
      </trkpt>
      <trkpt lat="40.65892207436263561248779296875" lon="-1.87025631777942180633544921875">
        <ele>1285.5999755859375</ele>
        <time>2022-05-04T09:10:40.000Z</time>
      </trkpt>
      <trkpt lat="40.6588415242731571197509765625" lon="-1.8701502867043018341064453125">
        <ele>1285</ele>
        <time>2022-05-04T09:10:46.000Z</time>
      </trkpt>
      <trkpt lat="40.65882987342774868011474609375" lon="-1.8701308406889438629150390625">
        <ele>1285</ele>
        <time>2022-05-04T09:10:47.000Z</time>
      </trkpt>
      <trkpt lat="40.65877891145646572113037109375" lon="-1.87002698890864849090576171875">
        <ele>1284.5999755859375</ele>
        <time>2022-05-04T09:10:52.000Z</time>
      </trkpt>
      <trkpt lat="40.65874488092958927154541015625" lon="-1.86993981711566448211669921875">
        <ele>1284.4000244140625</ele>
        <time>2022-05-04T09:10:56.000Z</time>
      </trkpt>
      <trkpt lat="40.65871931612491607666015625" lon="-1.86987577937543392181396484375">
        <ele>1284.199951171875</ele>
        <time>2022-05-04T09:10:59.000Z</time>
      </trkpt>
      <trkpt lat="40.65868536941707134246826171875" lon="-1.8697826564311981201171875">
        <ele>1284.5999755859375</ele>
        <time>2022-05-04T09:11:03.000Z</time>
      </trkpt>
      <trkpt lat="40.65866005606949329376220703125" lon="-1.86971216462552547454833984375">
        <ele>1285</ele>
        <time>2022-05-04T09:11:06.000Z</time>
      </trkpt>
      <trkpt lat="40.65860800445079803466796875" lon="-1.8696004338562488555908203125">
        <ele>1285.5999755859375</ele>
        <time>2022-05-04T09:11:11.000Z</time>
      </trkpt>
      <trkpt lat="40.6585749797523021697998046875" lon="-1.86953580938279628753662109375">
        <ele>1286.199951171875</ele>
        <time>2022-05-04T09:11:14.000Z</time>
      </trkpt>
      <trkpt lat="40.65854505635797977447509765625" lon="-1.86946959234774112701416015625">
        <ele>1286.5999755859375</ele>
        <time>2022-05-04T09:11:17.000Z</time>
      </trkpt>
      <trkpt lat="40.65847347490489482879638671875" lon="-1.8693513236939907073974609375">
        <ele>1287.5999755859375</ele>
        <time>2022-05-04T09:11:23.000Z</time>
      </trkpt>
      <trkpt lat="40.6584267877042293548583984375" lon="-1.869302205741405487060546875">
        <ele>1288.4000244140625</ele>
        <time>2022-05-04T09:11:26.000Z</time>
      </trkpt>
      <trkpt lat="40.6583419628441333770751953125" lon="-1.869239509105682373046875">
        <ele>1289.800048828125</ele>
        <time>2022-05-04T09:11:31.000Z</time>
      </trkpt>
      <trkpt lat="40.65828672610223293304443359375" lon="-1.86921360902488231658935546875">
        <ele>1291</ele>
        <time>2022-05-04T09:11:34.000Z</time>
      </trkpt>
      <trkpt lat="40.6581719778478145599365234375" lon="-1.86919349245727062225341796875">
        <ele>1293.4000244140625</ele>
        <time>2022-05-04T09:11:40.000Z</time>
      </trkpt>
      <trkpt lat="40.6581112928688526153564453125" lon="-1.86920204199850559234619140625">
        <ele>1295</ele>
        <time>2022-05-04T09:11:43.000Z</time>
      </trkpt>
      <trkpt lat="40.658011548221111297607421875" lon="-1.86922986991703510284423828125">
        <ele>1297.199951171875</ele>
        <time>2022-05-04T09:11:48.000Z</time>
      </trkpt>
      <trkpt lat="40.65792940557003021240234375" lon="-1.86927278526127338409423828125">
        <ele>1298.5999755859375</ele>
        <time>2022-05-04T09:11:53.000Z</time>
      </trkpt>
      <trkpt lat="40.65791171975433826446533203125" lon="-1.86928384937345981597900390625">
        <ele>1299</ele>
        <time>2022-05-04T09:11:54.000Z</time>
      </trkpt>
      <trkpt lat="40.6578061915934085845947265625" lon="-1.8693695962429046630859375">
        <ele>1301</ele>
        <time>2022-05-04T09:12:00.000Z</time>
      </trkpt>
      <trkpt lat="40.657790265977382659912109375" lon="-1.8693830072879791259765625">
        <ele>1301.4000244140625</ele>
        <time>2022-05-04T09:12:01.000Z</time>
      </trkpt>
      <trkpt lat="40.65767400898039340972900390625" lon="-1.869481243193149566650390625">
        <ele>1303.5999755859375</ele>
        <time>2022-05-04T09:12:08.000Z</time>
      </trkpt>
      <trkpt lat="40.6575419940054416656494140625" lon="-1.8695759586989879608154296875">
        <ele>1306</ele>
        <time>2022-05-04T09:12:16.000Z</time>
      </trkpt>
      <trkpt lat="40.6574075482785701751708984375" lon="-1.86965231783688068389892578125">
        <ele>1308</ele>
        <time>2022-05-04T09:12:24.000Z</time>
      </trkpt>
      <trkpt lat="40.657369159162044525146484375" lon="-1.8696661479771137237548828125">
        <ele>1308.199951171875</ele>
        <time>2022-05-04T09:12:26.000Z</time>
      </trkpt>
      <trkpt lat="40.657275952398777008056640625" lon="-1.869703195989131927490234375">
        <ele>1309</ele>
        <time>2022-05-04T09:12:31.000Z</time>
      </trkpt>
      <trkpt lat="40.65720059908926486968994140625" lon="-1.8697290122509002685546875">
        <ele>1309.4000244140625</ele>
        <time>2022-05-04T09:12:35.000Z</time>
      </trkpt>
      <trkpt lat="40.65712247975170612335205078125" lon="-1.869743764400482177734375">
        <ele>1309.800048828125</ele>
        <time>2022-05-04T09:12:39.000Z</time>
      </trkpt>
      <trkpt lat="40.65700429491698741912841796875" lon="-1.869754828512668609619140625">
        <ele>1310.199951171875</ele>
        <time>2022-05-04T09:12:45.000Z</time>
      </trkpt>
      <trkpt lat="40.65692315809428691864013671875" lon="-1.86975306831300258636474609375">
        <ele>1310.199951171875</ele>
        <time>2022-05-04T09:12:49.000Z</time>
      </trkpt>
      <trkpt lat="40.65683883614838123321533203125" lon="-1.86975591816008090972900390625">
        <ele>1310.4000244140625</ele>
        <time>2022-05-04T09:12:53.000Z</time>
      </trkpt>
      <trkpt lat="40.6568181328475475311279296875" lon="-1.8697536550462245941162109375">
        <ele>1310.4000244140625</ele>
        <time>2022-05-04T09:12:54.000Z</time>
      </trkpt>
      <trkpt lat="40.65669835545122623443603515625" lon="-1.86974066309630870819091796875">
        <ele>1310.199951171875</ele>
        <time>2022-05-04T09:13:00.000Z</time>
      </trkpt>
      <trkpt lat="40.65662048757076263427734375" lon="-1.869726665318012237548828125">
        <ele>1310</ele>
        <time>2022-05-04T09:13:04.000Z</time>
      </trkpt>
      <trkpt lat="40.6565411947667598724365234375" lon="-1.86969942413270473480224609375">
        <ele>1309.5999755859375</ele>
        <time>2022-05-04T09:13:08.000Z</time>
      </trkpt>
      <trkpt lat="40.65646315924823284149169921875" lon="-1.86968064866960048675537109375">
        <ele>1308.800048828125</ele>
        <time>2022-05-04T09:13:12.000Z</time>
      </trkpt>
      <trkpt lat="40.65635226666927337646484375" lon="-1.86965466476976871490478515625">
        <ele>1307.800048828125</ele>
        <time>2022-05-04T09:13:18.000Z</time>
      </trkpt>
      <trkpt lat="40.6562749855220317840576171875" lon="-1.86963312327861785888671875">
        <ele>1308.5999755859375</ele>
        <time>2022-05-04T09:13:22.000Z</time>
      </trkpt>
      <trkpt lat="40.65615721978247165679931640625" lon="-1.86959397979080677032470703125">
        <ele>1309.800048828125</ele>
        <time>2022-05-04T09:13:28.000Z</time>
      </trkpt>
      <trkpt lat="40.6560553796589374542236328125" lon="-1.869567073881626129150390625">
        <ele>1310.800048828125</ele>
        <time>2022-05-04T09:13:33.000Z</time>
      </trkpt>
      <trkpt lat="40.65599226392805576324462890625" lon="-1.8695501424372196197509765625">
        <ele>1311.5999755859375</ele>
        <time>2022-05-04T09:13:36.000Z</time>
      </trkpt>
      <trkpt lat="40.6559296511113643646240234375" lon="-1.86953681521117687225341796875">
        <ele>1312.199951171875</ele>
        <time>2022-05-04T09:13:39.000Z</time>
      </trkpt>
      <trkpt lat="40.655853711068630218505859375" lon="-1.86951334588229656219482421875">
        <ele>1313</ele>
        <time>2022-05-04T09:13:43.000Z</time>
      </trkpt>
      <trkpt lat="40.6558166630566120147705078125" lon="-1.869500689208507537841796875">
        <ele>1313.199951171875</ele>
        <time>2022-05-04T09:13:45.000Z</time>
      </trkpt>
      <trkpt lat="40.6557167507708072662353515625" lon="-1.86947219073772430419921875">
        <ele>1314.199951171875</ele>
        <time>2022-05-04T09:13:50.000Z</time>
      </trkpt>
      <trkpt lat="40.6556520424783229827880859375" lon="-1.8694636411964893341064453125">
        <ele>1315</ele>
        <time>2022-05-04T09:13:53.000Z</time>
      </trkpt>
      <trkpt lat="40.65544878132641315460205078125" lon="-1.86939968727529048919677734375">
        <ele>1316.800048828125</ele>
        <time>2022-05-04T09:14:03.000Z</time>
      </trkpt>
      <trkpt lat="40.65528047271072864532470703125" lon="-1.869363896548748016357421875">
        <ele>1319</ele>
        <time>2022-05-04T09:14:11.000Z</time>
      </trkpt>
      <trkpt lat="40.65517854876816272735595703125" lon="-1.86933464370667934417724609375">
        <ele>1320.199951171875</ele>
        <time>2022-05-04T09:14:16.000Z</time>
      </trkpt>
      <trkpt lat="40.6550317816436290740966796875" lon="-1.8693000264465808868408203125">
        <ele>1321.800048828125</ele>
        <time>2022-05-04T09:14:23.000Z</time>
      </trkpt>
      <trkpt lat="40.6549898721277713775634765625" lon="-1.86929156072437763214111328125">
        <ele>1322.199951171875</ele>
        <time>2022-05-04T09:14:25.000Z</time>
      </trkpt>
      <trkpt lat="40.65483908168971538543701171875" lon="-1.86928116716444492340087890625">
        <ele>1324.800048828125</ele>
        <time>2022-05-04T09:14:32.000Z</time>
      </trkpt>
      <trkpt lat="40.65476917661726474761962890625" lon="-1.86928284354507923126220703125">
        <ele>1326</ele>
        <time>2022-05-04T09:14:35.000Z</time>
      </trkpt>
      <trkpt lat="40.654617212712764739990234375" lon="-1.86929172836244106292724609375">
        <ele>1328</ele>
        <time>2022-05-04T09:14:42.000Z</time>
      </trkpt>
      <trkpt lat="40.65458259545266628265380859375" lon="-1.8692953325808048248291015625">
        <ele>1328.199951171875</ele>
        <time>2022-05-04T09:14:44.000Z</time>
      </trkpt>
      <trkpt lat="40.6544336490333080291748046875" lon="-1.86933531425893306732177734375">
        <ele>1329.800048828125</ele>
        <time>2022-05-04T09:14:51.000Z</time>
      </trkpt>
      <trkpt lat="40.654269196093082427978515625" lon="-1.86939281411468982696533203125">
        <ele>1331.800048828125</ele>
        <time>2022-05-04T09:14:59.000Z</time>
      </trkpt>
      <trkpt lat="40.65422787331044673919677734375" lon="-1.8694073148071765899658203125">
        <ele>1332.199951171875</ele>
        <time>2022-05-04T09:15:01.000Z</time>
      </trkpt>
      <trkpt lat="40.6541091017425060272216796875" lon="-1.86945517547428607940673828125">
        <ele>1333.800048828125</ele>
        <time>2022-05-04T09:15:07.000Z</time>
      </trkpt>
      <trkpt lat="40.65408890135586261749267578125" lon="-1.86946271918714046478271484375">
        <ele>1334</ele>
        <time>2022-05-04T09:15:08.000Z</time>
      </trkpt>
      <trkpt lat="40.65394255332648754119873046875" lon="-1.86951854266226291656494140625">
        <ele>1335.800048828125</ele>
        <time>2022-05-04T09:15:15.000Z</time>
      </trkpt>
      <trkpt lat="40.6539022363722324371337890625" lon="-1.8695340491831302642822265625">
        <ele>1336.4000244140625</ele>
        <time>2022-05-04T09:15:17.000Z</time>
      </trkpt>
      <trkpt lat="40.6537865661084651947021484375" lon="-1.86958710663020610809326171875">
        <ele>1337.5999755859375</ele>
        <time>2022-05-04T09:15:23.000Z</time>
      </trkpt>
      <trkpt lat="40.6537097878754138946533203125" lon="-1.8696136772632598876953125">
        <ele>1338</ele>
        <time>2022-05-04T09:15:27.000Z</time>
      </trkpt>
      <trkpt lat="40.65365052781999111175537109375" lon="-1.86962851323187351226806640625">
        <ele>1338.199951171875</ele>
        <time>2022-05-04T09:15:30.000Z</time>
      </trkpt>
      <trkpt lat="40.65353460609912872314453125" lon="-1.86964762397110462188720703125">
        <ele>1338</ele>
        <time>2022-05-04T09:15:36.000Z</time>
      </trkpt>
      <trkpt lat="40.653496719896793365478515625" lon="-1.8696550838649272918701171875">
        <ele>1338</ele>
        <time>2022-05-04T09:15:38.000Z</time>
      </trkpt>
      <trkpt lat="40.653377361595630645751953125" lon="-1.86965726315975189208984375">
        <ele>1337.4000244140625</ele>
        <time>2022-05-04T09:15:44.000Z</time>
      </trkpt>
      <trkpt lat="40.6533587537705898284912109375" lon="-1.86965885572135448455810546875">
        <ele>1337.4000244140625</ele>
        <time>2022-05-04T09:15:45.000Z</time>
      </trkpt>
      <trkpt lat="40.65326546318829059600830078125" lon="-1.86964242719113826751708984375">
        <ele>1336.4000244140625</ele>
        <time>2022-05-04T09:15:50.000Z</time>
      </trkpt>
      <trkpt lat="40.6532256491482257843017578125" lon="-1.86962868086993694305419921875">
        <ele>1336.199951171875</ele>
        <time>2022-05-04T09:15:52.000Z</time>
      </trkpt>
      <trkpt lat="40.653150044381618499755859375" lon="-1.8695997633039951324462890625">
        <ele>1335.5999755859375</ele>
        <time>2022-05-04T09:15:56.000Z</time>
      </trkpt>
      <trkpt lat="40.65305088646709918975830078125" lon="-1.86954771168529987335205078125">
        <ele>1334.5999755859375</ele>
        <time>2022-05-04T09:16:01.000Z</time>
      </trkpt>
      <trkpt lat="40.6530110724270343780517578125" lon="-1.86952994205057621002197265625">
        <ele>1334.5999755859375</ele>
        <time>2022-05-04T09:16:03.000Z</time>
      </trkpt>
      <trkpt lat="40.652907975018024444580078125" lon="-1.8694768846035003662109375">
        <ele>1335.5999755859375</ele>
        <time>2022-05-04T09:16:08.000Z</time>
      </trkpt>
      <trkpt lat="40.65284821204841136932373046875" lon="-1.8694431893527507781982421875">
        <ele>1336.199951171875</ele>
        <time>2022-05-04T09:16:11.000Z</time>
      </trkpt>
      <trkpt lat="40.65274679102003574371337890625" lon="-1.869375966489315032958984375">
        <ele>1337</ele>
        <time>2022-05-04T09:16:16.000Z</time>
      </trkpt>
      <trkpt lat="40.65270873717963695526123046875" lon="-1.86933916993439197540283203125">
        <ele>1336.800048828125</ele>
        <time>2022-05-04T09:16:18.000Z</time>
      </trkpt>
      <trkpt lat="40.6526295281946659088134765625" lon="-1.86923489905893802642822265625">
        <ele>1336</ele>
        <time>2022-05-04T09:16:23.000Z</time>
      </trkpt>
      <trkpt lat="40.6525911390781402587890625" lon="-1.86918276362121105194091796875">
        <ele>1335.4000244140625</ele>
        <time>2022-05-04T09:16:26.000Z</time>
      </trkpt>
      <trkpt lat="40.65253087319433689117431640625" lon="-1.8690780736505985260009765625">
        <ele>1334.199951171875</ele>
        <time>2022-05-04T09:16:31.000Z</time>
      </trkpt>
      <trkpt lat="40.652499608695507049560546875" lon="-1.86900573782622814178466796875">
        <ele>1333.800048828125</ele>
        <time>2022-05-04T09:16:34.000Z</time>
      </trkpt>
      <trkpt lat="40.65245845355093479156494140625" lon="-1.86885528266429901123046875">
        <ele>1333.199951171875</ele>
        <time>2022-05-04T09:16:40.000Z</time>
      </trkpt>
      <trkpt lat="40.65244353376328945159912109375" lon="-1.86877607367932796478271484375">
        <ele>1333.800048828125</ele>
        <time>2022-05-04T09:16:43.000Z</time>
      </trkpt>
      <trkpt lat="40.65244738943874835968017578125" lon="-1.868667192757129669189453125">
        <ele>1335.4000244140625</ele>
        <time>2022-05-04T09:16:47.000Z</time>
      </trkpt>
      <trkpt lat="40.6524501554667949676513671875" lon="-1.86863995157182216644287109375">
        <ele>1335.5999755859375</ele>
        <time>2022-05-04T09:16:48.000Z</time>
      </trkpt>
      <trkpt lat="40.65245979465544223785400390625" lon="-1.86855428852140903472900390625">
        <ele>1336.5999755859375</ele>
        <time>2022-05-04T09:16:51.000Z</time>
      </trkpt>
      <trkpt lat="40.6524650752544403076171875" lon="-1.86852562241256237030029296875">
        <ele>1337</ele>
        <time>2022-05-04T09:16:52.000Z</time>
      </trkpt>
      <trkpt lat="40.65250455401837825775146484375" lon="-1.8683408014476299285888671875">
        <ele>1338.199951171875</ele>
        <time>2022-05-04T09:16:59.000Z</time>
      </trkpt>
      <trkpt lat="40.6525718607008457183837890625" lon="-1.8682180903851985931396484375">
        <ele>1337</ele>
        <time>2022-05-04T09:17:05.000Z</time>
      </trkpt>
      <trkpt lat="40.6526013650000095367431640625" lon="-1.86817861162126064300537109375">
        <ele>1336.4000244140625</ele>
        <time>2022-05-04T09:17:07.000Z</time>
      </trkpt>
      <trkpt lat="40.65266900695860385894775390625" lon="-1.86807652004063129425048828125">
        <ele>1335</ele>
        <time>2022-05-04T09:17:12.000Z</time>
      </trkpt>
      <trkpt lat="40.6526905484497547149658203125" lon="-1.868028156459331512451171875">
        <ele>1335</ele>
        <time>2022-05-04T09:17:14.000Z</time>
      </trkpt>
      <trkpt lat="40.65274125896394252777099609375" lon="-1.86791106127202510833740234375">
        <ele>1334.800048828125</ele>
        <time>2022-05-04T09:17:19.000Z</time>
      </trkpt>
      <trkpt lat="40.6527586095035076141357421875" lon="-1.86786177568137645721435546875">
        <ele>1334.800048828125</ele>
        <time>2022-05-04T09:17:21.000Z</time>
      </trkpt>
      <trkpt lat="40.65280579961836338043212890625" lon="-1.867686845362186431884765625">
        <ele>1336</ele>
        <time>2022-05-04T09:17:28.000Z</time>
      </trkpt>
      <trkpt lat="40.65282457508146762847900390625" lon="-1.867609731853008270263671875">
        <ele>1336.5999755859375</ele>
        <time>2022-05-04T09:17:31.000Z</time>
      </trkpt>
      <trkpt lat="40.65284351818263530731201171875" lon="-1.86745609156787395477294921875">
        <ele>1338.199951171875</ele>
        <time>2022-05-04T09:17:37.000Z</time>
      </trkpt>
      <trkpt lat="40.65284796059131622314453125" lon="-1.8673252500593662261962890625">
        <ele>1339</ele>
        <time>2022-05-04T09:17:42.000Z</time>
      </trkpt>
      <trkpt lat="40.65284653566777706146240234375" lon="-1.86724729835987091064453125">
        <ele>1339.4000244140625</ele>
        <time>2022-05-04T09:17:45.000Z</time>
      </trkpt>
      <trkpt lat="40.65283815376460552215576171875" lon="-1.86717177741229534149169921875">
        <ele>1339.800048828125</ele>
        <time>2022-05-04T09:17:48.000Z</time>
      </trkpt>
      <trkpt lat="40.65282574854791164398193359375" lon="-1.86707387678325176239013671875">
        <ele>1340.5999755859375</ele>
        <time>2022-05-04T09:17:52.000Z</time>
      </trkpt>
      <trkpt lat="40.6528035365045070648193359375" lon="-1.8669038079679012298583984375">
        <ele>1342</ele>
        <time>2022-05-04T09:17:58.000Z</time>
      </trkpt>
      <trkpt lat="40.6527948193252086639404296875" lon="-1.86682476662099361419677734375">
        <ele>1342.5999755859375</ele>
        <time>2022-05-04T09:18:01.000Z</time>
      </trkpt>
      <trkpt lat="40.65275701694190502166748046875" lon="-1.86664589680731296539306640625">
        <ele>1343.4000244140625</ele>
        <time>2022-05-04T09:18:08.000Z</time>
      </trkpt>
      <trkpt lat="40.652736984193325042724609375" lon="-1.86649418435990810394287109375">
        <ele>1343.800048828125</ele>
        <time>2022-05-04T09:18:14.000Z</time>
      </trkpt>
      <trkpt lat="40.652736984193325042724609375" lon="-1.86646803282201290130615234375">
        <ele>1343.800048828125</ele>
        <time>2022-05-04T09:18:15.000Z</time>
      </trkpt>
      <trkpt lat="40.65272885374724864959716796875" lon="-1.86631380580365657806396484375">
        <ele>1344.4000244140625</ele>
        <time>2022-05-04T09:18:21.000Z</time>
      </trkpt>
      <trkpt lat="40.65273321233689785003662109375" lon="-1.8662332557141780853271484375">
        <ele>1344.199951171875</ele>
        <time>2022-05-04T09:18:24.000Z</time>
      </trkpt>
      <trkpt lat="40.6527314521372318267822265625" lon="-1.866107024252414703369140625">
        <ele>1344.4000244140625</ele>
        <time>2022-05-04T09:18:29.000Z</time>
      </trkpt>
      <trkpt lat="40.6527354754507541656494140625" lon="-1.866027899086475372314453125">
        <ele>1344.4000244140625</ele>
        <time>2022-05-04T09:18:32.000Z</time>
      </trkpt>
      <trkpt lat="40.652733631432056427001953125" lon="-1.86587107367813587188720703125">
        <ele>1344</ele>
        <time>2022-05-04T09:18:38.000Z</time>
      </trkpt>
      <trkpt lat="40.65273371525108814239501953125" lon="-1.86581877060234546661376953125">
        <ele>1343.800048828125</ele>
        <time>2022-05-04T09:18:40.000Z</time>
      </trkpt>
      <trkpt lat="40.65273304469883441925048828125" lon="-1.86565599404275417327880859375">
        <ele>1344.800048828125</ele>
        <time>2022-05-04T09:18:46.000Z</time>
      </trkpt>
      <trkpt lat="40.65272248350083827972412109375" lon="-1.865464635193347930908203125">
        <ele>1348.800048828125</ele>
        <time>2022-05-04T09:18:53.000Z</time>
      </trkpt>
      <trkpt lat="40.65270655788481235504150390625" lon="-1.865335218608379364013671875">
        <ele>1351.800048828125</ele>
        <time>2022-05-04T09:18:58.000Z</time>
      </trkpt>
      <trkpt lat="40.65269599668681621551513671875" lon="-1.86528182588517665863037109375">
        <ele>1353.199951171875</ele>
        <time>2022-05-04T09:19:00.000Z</time>
      </trkpt>
      <trkpt lat="40.65267520956695079803466796875" lon="-1.8651432730257511138916015625">
        <ele>1354.4000244140625</ele>
        <time>2022-05-04T09:19:06.000Z</time>
      </trkpt>
      <trkpt lat="40.6526717729866504669189453125" lon="-1.86511619947850704193115234375">
        <ele>1354.4000244140625</ele>
        <time>2022-05-04T09:19:07.000Z</time>
      </trkpt>
      <trkpt lat="40.6526318751275539398193359375" lon="-1.8649451248347759246826171875">
        <ele>1354.4000244140625</ele>
        <time>2022-05-04T09:19:13.000Z</time>
      </trkpt>
      <trkpt lat="40.65257705748081207275390625" lon="-1.86478637158870697021484375">
        <ele>1357.199951171875</ele>
        <time>2022-05-04T09:19:19.000Z</time>
      </trkpt>
      <trkpt lat="40.65252433530986309051513671875" lon="-1.86459165997803211212158203125">
        <ele>1362</ele>
        <time>2022-05-04T09:19:26.000Z</time>
      </trkpt>
      <trkpt lat="40.6525195576250553131103515625" lon="-1.86456978321075439453125">
        <ele>1362.4000244140625</ele>
        <time>2022-05-04T09:19:27.000Z</time>
      </trkpt>
      <trkpt lat="40.65246365033090114593505859375" lon="-1.86445620842278003692626953125">
        <ele>1362</ele>
        <time>2022-05-04T09:19:34.000Z</time>
      </trkpt>
      <trkpt lat="40.65245878882706165313720703125" lon="-1.86445335857570171356201171875">
        <ele>1361.800048828125</ele>
        <time>2022-05-04T09:19:36.000Z</time>
      </trkpt>
      <trkpt lat="40.6523944996297359466552734375" lon="-1.86443659476935863494873046875">
        <ele>1361.199951171875</ele>
        <time>2022-05-04T09:28:30.000Z</time>
      </trkpt>
      <trkpt lat="40.65237815491855144500732421875" lon="-1.8644217588007450103759765625">
        <ele>1361</ele>
        <time>2022-05-04T09:28:31.000Z</time>
      </trkpt>
      <trkpt lat="40.6522375904023647308349609375" lon="-1.8642702139914035797119140625">
        <ele>1359.4000244140625</ele>
        <time>2022-05-04T09:28:38.000Z</time>
      </trkpt>
      <trkpt lat="40.6521852873265743255615234375" lon="-1.8642179109156131744384765625">
        <ele>1359.199951171875</ele>
        <time>2022-05-04T09:28:40.000Z</time>
      </trkpt>
      <trkpt lat="40.65200583077967166900634765625" lon="-1.86407114379107952117919921875">
        <ele>1358</ele>
        <time>2022-05-04T09:28:45.000Z</time>
      </trkpt>
      <trkpt lat="40.65190876834094524383544921875" lon="-1.86401389539241790771484375">
        <ele>1357</ele>
        <time>2022-05-04T09:28:47.000Z</time>
      </trkpt>
      <trkpt lat="40.6517355144023895263671875" lon="-1.8639322556555271148681640625">
        <ele>1355.5999755859375</ele>
        <time>2022-05-04T09:28:50.000Z</time>
      </trkpt>
      <trkpt lat="40.65166804008185863494873046875" lon="-1.86390568502247333526611328125">
        <ele>1355</ele>
        <time>2022-05-04T09:28:51.000Z</time>
      </trkpt>
      <trkpt lat="40.65142898820340633392333984375" lon="-1.86384215019643306732177734375">
        <ele>1350.800048828125</ele>
        <time>2022-05-04T09:28:54.000Z</time>
      </trkpt>
      <trkpt lat="40.65124223940074443817138671875" lon="-1.8638269789516925811767578125">
        <ele>1348.199951171875</ele>
        <time>2022-05-04T09:28:56.000Z</time>
      </trkpt>
      <trkpt lat="40.65103805623948574066162109375" lon="-1.86383150517940521240234375">
        <ele>1347.4000244140625</ele>
        <time>2022-05-04T09:28:58.000Z</time>
      </trkpt>
      <trkpt lat="40.650817193090915679931640625" lon="-1.8638675473630428314208984375">
        <ele>1347</ele>
        <time>2022-05-04T09:29:00.000Z</time>
      </trkpt>
      <trkpt lat="40.650583170354366302490234375" lon="-1.863939464092254638671875">
        <ele>1347.4000244140625</ele>
        <time>2022-05-04T09:29:02.000Z</time>
      </trkpt>
      <trkpt lat="40.65046305768191814422607421875" lon="-1.86398883350193500518798828125">
        <ele>1346.5999755859375</ele>
        <time>2022-05-04T09:29:03.000Z</time>
      </trkpt>
      <trkpt lat="40.650343112647533416748046875" lon="-1.8640454113483428955078125">
        <ele>1344.800048828125</ele>
        <time>2022-05-04T09:29:04.000Z</time>
      </trkpt>
      <trkpt lat="40.65022568218410015106201171875" lon="-1.8641106225550174713134765625">
        <ele>1343.199951171875</ele>
        <time>2022-05-04T09:29:05.000Z</time>
      </trkpt>
      <trkpt lat="40.65010808408260345458984375" lon="-1.8641847185790538787841796875">
        <ele>1341.5999755859375</ele>
        <time>2022-05-04T09:29:06.000Z</time>
      </trkpt>
      <trkpt lat="40.64998964779078960418701171875" lon="-1.86426761560142040252685546875">
        <ele>1340.199951171875</ele>
        <time>2022-05-04T09:29:07.000Z</time>
      </trkpt>
      <trkpt lat="40.64987096004188060760498046875" lon="-1.8643592298030853271484375">
        <ele>1338.800048828125</ele>
        <time>2022-05-04T09:29:08.000Z</time>
      </trkpt>
      <trkpt lat="40.64975093118846416473388671875" lon="-1.86445780098438262939453125">
        <ele>1337.5999755859375</ele>
        <time>2022-05-04T09:29:09.000Z</time>
      </trkpt>
      <trkpt lat="40.64963123761117458343505859375" lon="-1.8645645864307880401611328125">
        <ele>1336.4000244140625</ele>
        <time>2022-05-04T09:29:10.000Z</time>
      </trkpt>
      <trkpt lat="40.6495119631290435791015625" lon="-1.864678747951984405517578125">
        <ele>1335.199951171875</ele>
        <time>2022-05-04T09:29:11.000Z</time>
      </trkpt>
      <trkpt lat="40.649395622313022613525390625" lon="-1.864797435700893402099609375">
        <ele>1334.4000244140625</ele>
        <time>2022-05-04T09:29:12.000Z</time>
      </trkpt>
      <trkpt lat="40.64928372390568256378173828125" lon="-1.86491972766816616058349609375">
        <ele>1333.5999755859375</ele>
        <time>2022-05-04T09:29:13.000Z</time>
      </trkpt>
      <trkpt lat="40.64917542971670627593994140625" lon="-1.86504386365413665771484375">
        <ele>1333.5999755859375</ele>
        <time>2022-05-04T09:29:14.000Z</time>
      </trkpt>
      <trkpt lat="40.64907141029834747314453125" lon="-1.86517051421105861663818359375">
        <ele>1333.5999755859375</ele>
        <time>2022-05-04T09:29:15.000Z</time>
      </trkpt>
      <trkpt lat="40.64897158183157444000244140625" lon="-1.86529934406280517578125">
        <ele>1333.800048828125</ele>
        <time>2022-05-04T09:29:16.000Z</time>
      </trkpt>
      <trkpt lat="40.6488757766783237457275390625" lon="-1.86542800627648830413818359375">
        <ele>1334</ele>
        <time>2022-05-04T09:29:17.000Z</time>
      </trkpt>
      <trkpt lat="40.64878365956246852874755859375" lon="-1.865556500852108001708984375">
        <ele>1333.5999755859375</ele>
        <time>2022-05-04T09:29:18.000Z</time>
      </trkpt>
      <trkpt lat="40.64869581721723079681396484375" lon="-1.86568482778966426849365234375">
        <ele>1333.199951171875</ele>
        <time>2022-05-04T09:29:19.000Z</time>
      </trkpt>
      <trkpt lat="40.6486107409000396728515625" lon="-1.86581172980368137359619140625">
        <ele>1331.5999755859375</ele>
        <time>2022-05-04T09:29:20.000Z</time>
      </trkpt>
      <trkpt lat="40.64852599985897541046142578125" lon="-1.86593578197062015533447265625">
        <ele>1329.4000244140625</ele>
        <time>2022-05-04T09:29:21.000Z</time>
      </trkpt>
      <trkpt lat="40.64844251610338687896728515625" lon="-1.8660570681095123291015625">
        <ele>1327.199951171875</ele>
        <time>2022-05-04T09:29:22.000Z</time>
      </trkpt>
      <trkpt lat="40.6483601219952106475830078125" lon="-1.866172067821025848388671875">
        <ele>1325</ele>
        <time>2022-05-04T09:29:23.000Z</time>
      </trkpt>
      <trkpt lat="40.6482773087918758392333984375" lon="-1.86627944000065326690673828125">
        <ele>1322.800048828125</ele>
        <time>2022-05-04T09:29:24.000Z</time>
      </trkpt>
      <trkpt lat="40.64819340594112873077392578125" lon="-1.86638069339096546173095703125">
        <ele>1320.5999755859375</ele>
        <time>2022-05-04T09:29:25.000Z</time>
      </trkpt>
      <trkpt lat="40.64810791052877902984619140625" lon="-1.86647624708712100982666015625">
        <ele>1318.199951171875</ele>
        <time>2022-05-04T09:29:26.000Z</time>
      </trkpt>
      <trkpt lat="40.64801973290741443634033203125" lon="-1.8665611557662487030029296875">
        <ele>1315.800048828125</ele>
        <time>2022-05-04T09:29:27.000Z</time>
      </trkpt>
      <trkpt lat="40.6479294598102569580078125" lon="-1.86663500033318996429443359375">
        <ele>1313.4000244140625</ele>
        <time>2022-05-04T09:29:28.000Z</time>
      </trkpt>
      <trkpt lat="40.64783801324665546417236328125" lon="-1.86669937334954738616943359375">
        <ele>1311</ele>
        <time>2022-05-04T09:29:29.000Z</time>
      </trkpt>
      <trkpt lat="40.64774639904499053955078125" lon="-1.86675603501498699188232421875">
        <ele>1308.5999755859375</ele>
        <time>2022-05-04T09:29:30.000Z</time>
      </trkpt>
      <trkpt lat="40.6476531922817230224609375" lon="-1.86680297367274761199951171875">
        <ele>1306</ele>
        <time>2022-05-04T09:29:31.000Z</time>
      </trkpt>
      <trkpt lat="40.6475591473281383514404296875" lon="-1.86684186570346355438232421875">
        <ele>1303.4000244140625</ele>
        <time>2022-05-04T09:29:32.000Z</time>
      </trkpt>
      <trkpt lat="40.64746367745101451873779296875" lon="-1.8668739683926105499267578125">
        <ele>1300.800048828125</ele>
        <time>2022-05-04T09:29:33.000Z</time>
      </trkpt>
      <trkpt lat="40.64736443571746349334716796875" lon="-1.86689861118793487548828125">
        <ele>1298.199951171875</ele>
        <time>2022-05-04T09:29:34.000Z</time>
      </trkpt>
      <trkpt lat="40.64714885316789150238037109375" lon="-1.86691747047007083892822265625">
        <ele>1293.4000244140625</ele>
        <time>2022-05-04T09:29:36.000Z</time>
      </trkpt>
      <trkpt lat="40.647034943103790283203125" lon="-1.866912357509136199951171875">
        <ele>1293.4000244140625</ele>
        <time>2022-05-04T09:29:37.000Z</time>
      </trkpt>
      <trkpt lat="40.64691801555454730987548828125" lon="-1.86689794063568115234375">
        <ele>1293.4000244140625</ele>
        <time>2022-05-04T09:29:38.000Z</time>
      </trkpt>
      <trkpt lat="40.6467984057962894439697265625" lon="-1.8668736331164836883544921875">
        <ele>1292.4000244140625</ele>
        <time>2022-05-04T09:29:39.000Z</time>
      </trkpt>
      <trkpt lat="40.64667577855288982391357421875" lon="-1.86683901585638523101806640625">
        <ele>1290.4000244140625</ele>
        <time>2022-05-04T09:29:40.000Z</time>
      </trkpt>
      <trkpt lat="40.6465503014624118804931640625" lon="-1.866798363626003265380859375">
        <ele>1288.4000244140625</ele>
        <time>2022-05-04T09:29:41.000Z</time>
      </trkpt>
      <trkpt lat="40.64642180688679218292236328125" lon="-1.86675377190113067626953125">
        <ele>1286.4000244140625</ele>
        <time>2022-05-04T09:29:42.000Z</time>
      </trkpt>
      <trkpt lat="40.646289624273777008056640625" lon="-1.86670817434787750244140625">
        <ele>1284.800048828125</ele>
        <time>2022-05-04T09:29:43.000Z</time>
      </trkpt>
      <trkpt lat="40.64615760929882526397705078125" lon="-1.866660900413990020751953125">
        <ele>1283.199951171875</ele>
        <time>2022-05-04T09:29:44.000Z</time>
      </trkpt>
      <trkpt lat="40.6460252590477466583251953125" lon="-1.86661161482334136962890625">
        <ele>1281.199951171875</ele>
        <time>2022-05-04T09:29:45.000Z</time>
      </trkpt>
      <trkpt lat="40.645889975130558013916015625" lon="-1.8665591441094875335693359375">
        <ele>1279</ele>
        <time>2022-05-04T09:29:46.000Z</time>
      </trkpt>
      <trkpt lat="40.64575460739433765411376953125" lon="-1.86650759540498256683349609375">
        <ele>1277.800048828125</ele>
        <time>2022-05-04T09:29:47.000Z</time>
      </trkpt>
      <trkpt lat="40.6456182338297367095947265625" lon="-1.86645545996725559234619140625">
        <ele>1276.5999755859375</ele>
        <time>2022-05-04T09:29:48.000Z</time>
      </trkpt>
      <trkpt lat="40.64548102207481861114501953125" lon="-1.86640131287276744842529296875">
        <ele>1275.199951171875</ele>
        <time>2022-05-04T09:29:49.000Z</time>
      </trkpt>
      <trkpt lat="40.6453439779579639434814453125" lon="-1.8663472495973110198974609375">
        <ele>1275.199951171875</ele>
        <time>2022-05-04T09:29:50.000Z</time>
      </trkpt>
      <trkpt lat="40.64520743675529956817626953125" lon="-1.86629511415958404541015625">
        <ele>1275.199951171875</ele>
        <time>2022-05-04T09:29:51.000Z</time>
      </trkpt>
      <trkpt lat="40.64507114700973033905029296875" lon="-1.8662470020353794097900390625">
        <ele>1275</ele>
        <time>2022-05-04T09:29:52.000Z</time>
      </trkpt>
      <trkpt lat="40.64493603073060512542724609375" lon="-1.8662014044821262359619140625">
        <ele>1274.199951171875</ele>
        <time>2022-05-04T09:29:53.000Z</time>
      </trkpt>
      <trkpt lat="40.644669570028781890869140625" lon="-1.86610870063304901123046875">
        <ele>1272.4000244140625</ele>
        <time>2022-05-04T09:29:55.000Z</time>
      </trkpt>
      <trkpt lat="40.64453856088221073150634765625" lon="-1.8660626001656055450439453125">
        <ele>1273.199951171875</ele>
        <time>2022-05-04T09:29:56.000Z</time>
      </trkpt>
      <trkpt lat="40.644281990826129913330078125" lon="-1.86596981249749660491943359375">
        <ele>1272.5999755859375</ele>
        <time>2022-05-04T09:29:58.000Z</time>
      </trkpt>
      <trkpt lat="40.64403556287288665771484375" lon="-1.86587870121002197265625">
        <ele>1269.4000244140625</ele>
        <time>2022-05-04T09:30:00.000Z</time>
      </trkpt>
      <trkpt lat="40.643800199031829833984375" lon="-1.8657876737415790557861328125">
        <ele>1266.4000244140625</ele>
        <time>2022-05-04T09:30:02.000Z</time>
      </trkpt>
      <trkpt lat="40.64368394203484058380126953125" lon="-1.86574216000735759735107421875">
        <ele>1266</ele>
        <time>2022-05-04T09:30:03.000Z</time>
      </trkpt>
      <trkpt lat="40.64334397204220294952392578125" lon="-1.86562213115394115447998046875">
        <ele>1266.5999755859375</ele>
        <time>2022-05-04T09:30:06.000Z</time>
      </trkpt>
      <trkpt lat="40.643233917653560638427734375" lon="-1.86558189801871776580810546875">
        <ele>1266.800048828125</ele>
        <time>2022-05-04T09:30:07.000Z</time>
      </trkpt>
      <trkpt lat="40.6431247852742671966552734375" lon="-1.86554267071187496185302734375">
        <ele>1266.5999755859375</ele>
        <time>2022-05-04T09:30:08.000Z</time>
      </trkpt>
      <trkpt lat="40.642912052571773529052734375" lon="-1.86546622775495052337646484375">
        <ele>1265.4000244140625</ele>
        <time>2022-05-04T09:30:10.000Z</time>
      </trkpt>
      <trkpt lat="40.64259999431669712066650390625" lon="-1.8653494678437709808349609375">
        <ele>1263.4000244140625</ele>
        <time>2022-05-04T09:30:13.000Z</time>
      </trkpt>
      <trkpt lat="40.642390362918376922607421875" lon="-1.86527394689619541168212890625">
        <ele>1261.5999755859375</ele>
        <time>2022-05-04T09:30:15.000Z</time>
      </trkpt>
      <trkpt lat="40.64218324609100818634033203125" lon="-1.86519934795796871185302734375">
        <ele>1260</ele>
        <time>2022-05-04T09:30:17.000Z</time>
      </trkpt>
      <trkpt lat="40.641879737377166748046875" lon="-1.865087784826755523681640625">
        <ele>1258.4000244140625</ele>
        <time>2022-05-04T09:30:20.000Z</time>
      </trkpt>
      <trkpt lat="40.641585029661655426025390625" lon="-1.86498208902776241302490234375">
        <ele>1256.5999755859375</ele>
        <time>2022-05-04T09:30:23.000Z</time>
      </trkpt>
      <trkpt lat="40.64120071940124034881591796875" lon="-1.86483800411224365234375">
        <ele>1254.199951171875</ele>
        <time>2022-05-04T09:30:27.000Z</time>
      </trkpt>
      <trkpt lat="40.640922524034976959228515625" lon="-1.864727027714252471923828125">
        <ele>1252.800048828125</ele>
        <time>2022-05-04T09:30:30.000Z</time>
      </trkpt>
      <trkpt lat="40.6405800394713878631591796875" lon="-1.8645444698631763458251953125">
        <ele>1251.5999755859375</ele>
        <time>2022-05-04T09:30:34.000Z</time>
      </trkpt>
      <trkpt lat="40.64042271114885807037353515625" lon="-1.8644331581890583038330078125">
        <ele>1251.4000244140625</ele>
        <time>2022-05-04T09:30:36.000Z</time>
      </trkpt>
      <trkpt lat="40.6403473578393459320068359375" lon="-1.864370964467525482177734375">
        <ele>1251.4000244140625</ele>
        <time>2022-05-04T09:30:37.000Z</time>
      </trkpt>
      <trkpt lat="40.6402021832764148712158203125" lon="-1.8642393685877323150634765625">
        <ele>1250.800048828125</ele>
        <time>2022-05-04T09:30:39.000Z</time>
      </trkpt>
      <trkpt lat="40.6399242393672466278076171875" lon="-1.86396804638206958770751953125">
        <ele>1249.800048828125</ele>
        <time>2022-05-04T09:30:43.000Z</time>
      </trkpt>
      <trkpt lat="40.6396627239882946014404296875" lon="-1.86371005140244960784912109375">
        <ele>1249</ele>
        <time>2022-05-04T09:30:47.000Z</time>
      </trkpt>
      <trkpt lat="40.6394831836223602294921875" lon="-1.86353302560746669769287109375">
        <ele>1249</ele>
        <time>2022-05-04T09:30:50.000Z</time>
      </trkpt>
      <trkpt lat="40.63931747339665889739990234375" lon="-1.86336991377174854278564453125">
        <ele>1248.800048828125</ele>
        <time>2022-05-04T09:30:53.000Z</time>
      </trkpt>
      <trkpt lat="40.63899896107614040374755859375" lon="-1.863067410886287689208984375">
        <ele>1247.4000244140625</ele>
        <time>2022-05-04T09:30:59.000Z</time>
      </trkpt>
      <trkpt lat="40.63852488063275814056396484375" lon="-1.8626102618873119354248046875">
        <ele>1243.800048828125</ele>
        <time>2022-05-04T09:31:08.000Z</time>
      </trkpt>
      <trkpt lat="40.6384734995663166046142578125" lon="-1.86256156302988529205322265625">
        <ele>1243.199951171875</ele>
        <time>2022-05-04T09:31:09.000Z</time>
      </trkpt>
      <trkpt lat="40.63842228613793849945068359375" lon="-1.8625126965343952178955078125">
        <ele>1242.4000244140625</ele>
        <time>2022-05-04T09:31:10.000Z</time>
      </trkpt>
      <trkpt lat="40.63803889788687229156494140625" lon="-1.8621519394218921661376953125">
        <ele>1239.199951171875</ele>
        <time>2022-05-04T09:31:18.000Z</time>
      </trkpt>
      <trkpt lat="40.63757671974599361419677734375" lon="-1.86171054840087890625">
        <ele>1243.5999755859375</ele>
        <time>2022-05-04T09:31:28.000Z</time>
      </trkpt>
      <trkpt lat="40.637530870735645294189453125" lon="-1.86166855506598949432373046875">
        <ele>1244.199951171875</ele>
        <time>2022-05-04T09:31:29.000Z</time>
      </trkpt>
      <trkpt lat="40.6370718777179718017578125" lon="-1.8612383119761943817138671875">
        <ele>1246</ele>
        <time>2022-05-04T09:31:39.000Z</time>
      </trkpt>
      <trkpt lat="40.63702804036438465118408203125" lon="-1.8611957319080829620361328125">
        <ele>1245.800048828125</ele>
        <time>2022-05-04T09:31:40.000Z</time>
      </trkpt>
      <trkpt lat="40.63656385056674480438232421875" lon="-1.860745958983898162841796875">
        <ele>1245</ele>
        <time>2022-05-04T09:31:51.000Z</time>
      </trkpt>
      <trkpt lat="40.6365208514034748077392578125" lon="-1.86070396564900875091552734375">
        <ele>1245</ele>
        <time>2022-05-04T09:31:52.000Z</time>
      </trkpt>
      <trkpt lat="40.63614492304623126983642578125" lon="-1.86035058461129665374755859375">
        <ele>1246.800048828125</ele>
        <time>2022-05-04T09:32:01.000Z</time>
      </trkpt>
      <trkpt lat="40.63568693585693836212158203125" lon="-1.8599174916744232177734375">
        <ele>1250.800048828125</ele>
        <time>2022-05-04T09:32:13.000Z</time>
      </trkpt>
      <trkpt lat="40.6356531567871570587158203125" lon="-1.85988371260464191436767578125">
        <ele>1251</ele>
        <time>2022-05-04T09:32:14.000Z</time>
      </trkpt>
      <trkpt lat="40.63534948043525218963623046875" lon="-1.859601996839046478271484375">
        <ele>1251.5999755859375</ele>
        <time>2022-05-04T09:32:23.000Z</time>
      </trkpt>
      <trkpt lat="40.63505686819553375244140625" lon="-1.8593476898968219757080078125">
        <ele>1250</ele>
        <time>2022-05-04T09:32:32.000Z</time>
      </trkpt>
      <trkpt lat="40.63482276163995265960693359375" lon="-1.85916471295058727264404296875">
        <ele>1247.4000244140625</ele>
        <time>2022-05-04T09:32:39.000Z</time>
      </trkpt>
      <trkpt lat="40.63475570641458034515380859375" lon="-1.85911559499800205230712890625">
        <ele>1246.800048828125</ele>
        <time>2022-05-04T09:32:41.000Z</time>
      </trkpt>
      <trkpt lat="40.63459091819822788238525390625" lon="-1.8590080551803112030029296875">
        <ele>1247</ele>
        <time>2022-05-04T09:32:46.000Z</time>
      </trkpt>
      <trkpt lat="40.6343090347945690155029296875" lon="-1.8588655628263950347900390625">
        <ele>1249.800048828125</ele>
        <time>2022-05-04T09:32:55.000Z</time>
      </trkpt>
      <trkpt lat="40.63427768647670745849609375" lon="-1.8588528223335742950439453125">
        <ele>1250.199951171875</ele>
        <time>2022-05-04T09:32:56.000Z</time>
      </trkpt>
      <trkpt lat="40.63407358713448047637939453125" lon="-1.85877461917698383331298828125">
        <ele>1251.5999755859375</ele>
        <time>2022-05-04T09:33:03.000Z</time>
      </trkpt>
      <trkpt lat="40.63401885330677032470703125" lon="-1.85875542461872100830078125">
        <ele>1251.199951171875</ele>
        <time>2022-05-04T09:33:05.000Z</time>
      </trkpt>
      <trkpt lat="40.6337987445294857025146484375" lon="-1.858676970005035400390625">
        <ele>1251.199951171875</ele>
        <time>2022-05-04T09:33:13.000Z</time>
      </trkpt>
      <trkpt lat="40.63377234153449535369873046875" lon="-1.85866682790219783782958984375">
        <ele>1251.5999755859375</ele>
        <time>2022-05-04T09:33:14.000Z</time>
      </trkpt>
      <trkpt lat="40.63361761160194873809814453125" lon="-1.8586184643208980560302734375">
        <ele>1253.4000244140625</ele>
        <time>2022-05-04T09:33:20.000Z</time>
      </trkpt>
      <trkpt lat="40.63357301987707614898681640625" lon="-1.85860228724777698516845703125">
        <ele>1254</ele>
        <time>2022-05-04T09:33:22.000Z</time>
      </trkpt>
      <trkpt lat="40.633458606898784637451171875" lon="-1.8585584498941898345947265625">
        <ele>1255.199951171875</ele>
        <time>2022-05-04T09:33:27.000Z</time>
      </trkpt>
      <trkpt lat="40.63341745175421237945556640625" lon="-1.8585413508117198944091796875">
        <ele>1255.4000244140625</ele>
        <time>2022-05-04T09:33:29.000Z</time>
      </trkpt>
      <trkpt lat="40.6333236582577228546142578125" lon="-1.858509667217731475830078125">
        <ele>1256.199951171875</ele>
        <time>2022-05-04T09:33:34.000Z</time>
      </trkpt>
      <trkpt lat="40.6333048827946186065673828125" lon="-1.85850187204778194427490234375">
        <ele>1256.199951171875</ele>
        <time>2022-05-04T09:33:35.000Z</time>
      </trkpt>
      <trkpt lat="40.63319164328277111053466796875" lon="-1.8584491498768329620361328125">
        <ele>1257</ele>
        <time>2022-05-04T09:33:41.000Z</time>
      </trkpt>
      <trkpt lat="40.63315476290881633758544921875" lon="-1.858432553708553314208984375">
        <ele>1257.199951171875</ele>
        <time>2022-05-04T09:33:43.000Z</time>
      </trkpt>
      <trkpt lat="40.63303808681666851043701171875" lon="-1.8583592958748340606689453125">
        <ele>1257.5999755859375</ele>
        <time>2022-05-04T09:33:50.000Z</time>
      </trkpt>
      <trkpt lat="40.63300154171884059906005859375" lon="-1.8583334796130657196044921875">
        <ele>1257.5999755859375</ele>
        <time>2022-05-04T09:33:52.000Z</time>
      </trkpt>
      <trkpt lat="40.632870197296142578125" lon="-1.85823373496532440185546875">
        <ele>1258.800048828125</ele>
        <time>2022-05-04T09:33:59.000Z</time>
      </trkpt>
      <trkpt lat="40.63285209238529205322265625" lon="-1.858219988644123077392578125">
        <ele>1259</ele>
        <time>2022-05-04T09:34:00.000Z</time>
      </trkpt>
      <trkpt lat="40.63275695778429508209228515625" lon="-1.85812971554696559906005859375">
        <ele>1260.4000244140625</ele>
        <time>2022-05-04T09:34:06.000Z</time>
      </trkpt>
      <trkpt lat="40.63268621452152729034423828125" lon="-1.85806869529187679290771484375">
        <ele>1261.4000244140625</ele>
        <time>2022-05-04T09:34:10.000Z</time>
      </trkpt>
      <trkpt lat="40.63263659365475177764892578125" lon="-1.85801723040640354156494140625">
        <ele>1262.199951171875</ele>
        <time>2022-05-04T09:34:13.000Z</time>
      </trkpt>
      <trkpt lat="40.63256551511585712432861328125" lon="-1.85793600976467132568359375">
        <ele>1263.199951171875</ele>
        <time>2022-05-04T09:34:18.000Z</time>
      </trkpt>
      <trkpt lat="40.6325067579746246337890625" lon="-1.8578674457967281341552734375">
        <ele>1263.800048828125</ele>
        <time>2022-05-04T09:34:22.000Z</time>
      </trkpt>
      <trkpt lat="40.63245738856494426727294921875" lon="-1.8577943556010723114013671875">
        <ele>1264.199951171875</ele>
        <time>2022-05-04T09:34:26.000Z</time>
      </trkpt>
      <trkpt lat="40.6324316561222076416015625" lon="-1.8577618338167667388916015625">
        <ele>1264.4000244140625</ele>
        <time>2022-05-04T09:34:28.000Z</time>
      </trkpt>
      <trkpt lat="40.63236183486878871917724609375" lon="-1.8576563894748687744140625">
        <ele>1264.800048828125</ele>
        <time>2022-05-04T09:34:34.000Z</time>
      </trkpt>
      <trkpt lat="40.63235160894691944122314453125" lon="-1.85763769783079624176025390625">
        <ele>1265</ele>
        <time>2022-05-04T09:34:35.000Z</time>
      </trkpt>
      <trkpt lat="40.6322725676000118255615234375" lon="-1.85750274918973445892333984375">
        <ele>1265.4000244140625</ele>
        <time>2022-05-04T09:34:42.000Z</time>
      </trkpt>
      <trkpt lat="40.6322490982711315155029296875" lon="-1.8574681319296360015869140625">
        <ele>1265.5999755859375</ele>
        <time>2022-05-04T09:34:44.000Z</time>
      </trkpt>
      <trkpt lat="40.6322081945836544036865234375" lon="-1.85737836174666881561279296875">
        <ele>1265.800048828125</ele>
        <time>2022-05-04T09:34:49.000Z</time>
      </trkpt>
      <trkpt lat="40.632173158228397369384765625" lon="-1.8573025055229663848876953125">
        <ele>1265.800048828125</ele>
        <time>2022-05-04T09:34:53.000Z</time>
      </trkpt>
      <trkpt lat="40.6321243755519390106201171875" lon="-1.8572032637894153594970703125">
        <ele>1266.4000244140625</ele>
        <time>2022-05-04T09:34:58.000Z</time>
      </trkpt>
      <trkpt lat="40.6321116350591182708740234375" lon="-1.8571593426167964935302734375">
        <ele>1266.4000244140625</ele>
        <time>2022-05-04T09:35:00.000Z</time>
      </trkpt>
      <trkpt lat="40.632086656987667083740234375" lon="-1.85707527212798595428466796875">
        <ele>1266.5999755859375</ele>
        <time>2022-05-04T09:35:04.000Z</time>
      </trkpt>
      <trkpt lat="40.6320506148040294647216796875" lon="-1.85696580447256565093994140625">
        <ele>1266.800048828125</ele>
        <time>2022-05-04T09:35:09.000Z</time>
      </trkpt>
      <trkpt lat="40.63202672637999057769775390625" lon="-1.85689304955303668975830078125">
        <ele>1267</ele>
        <time>2022-05-04T09:35:12.000Z</time>
      </trkpt>
      <trkpt lat="40.63196855597198009490966796875" lon="-1.85672557912766933441162109375">
        <ele>1267.4000244140625</ele>
        <time>2022-05-04T09:35:19.000Z</time>
      </trkpt>
      <trkpt lat="40.63193838112056255340576171875" lon="-1.85665416531264781951904296875">
        <ele>1268.199951171875</ele>
        <time>2022-05-04T09:35:22.000Z</time>
      </trkpt>
      <trkpt lat="40.631891526281833648681640625" lon="-1.8565407581627368927001953125">
        <ele>1269</ele>
        <time>2022-05-04T09:35:27.000Z</time>
      </trkpt>
      <trkpt lat="40.6318357028067111968994140625" lon="-1.856410503387451171875">
        <ele>1269.800048828125</ele>
        <time>2022-05-04T09:35:32.000Z</time>
      </trkpt>
      <trkpt lat="40.63181952573359012603759765625" lon="-1.85636230744421482086181640625">
        <ele>1270</ele>
        <time>2022-05-04T09:35:34.000Z</time>
      </trkpt>
      <trkpt lat="40.6317528896033763885498046875" lon="-1.8562024645507335662841796875">
        <ele>1270.800048828125</ele>
        <time>2022-05-04T09:35:41.000Z</time>
      </trkpt>
      <trkpt lat="40.6317481957376003265380859375" lon="-1.85618050396442413330078125">
        <ele>1270.800048828125</ele>
        <time>2022-05-04T09:35:42.000Z</time>
      </trkpt>
      <trkpt lat="40.6317106448113918304443359375" lon="-1.856044717133045196533203125">
        <ele>1271.4000244140625</ele>
        <time>2022-05-04T09:35:48.000Z</time>
      </trkpt>
      <trkpt lat="40.63168399035930633544921875" lon="-1.8559671007096767425537109375">
        <ele>1272</ele>
        <time>2022-05-04T09:35:51.000Z</time>
      </trkpt>
      <trkpt lat="40.631676279008388519287109375" lon="-1.8559382669627666473388671875">
        <ele>1272</ele>
        <time>2022-05-04T09:35:52.000Z</time>
      </trkpt>
      <trkpt lat="40.6316673941910266876220703125" lon="-1.85591069050133228302001953125">
        <ele>1272.199951171875</ele>
        <time>2022-05-04T09:35:53.000Z</time>
      </trkpt>
      <trkpt lat="40.63160352408885955810546875" lon="-1.8557501770555973052978515625">
        <ele>1273.5999755859375</ele>
        <time>2022-05-04T09:35:59.000Z</time>
      </trkpt>
      <trkpt lat="40.63158801756799221038818359375" lon="-1.855701394379138946533203125">
        <ele>1273.5999755859375</ele>
        <time>2022-05-04T09:36:01.000Z</time>
      </trkpt>
      <trkpt lat="40.6315363012254238128662109375" lon="-1.8555493466556072235107421875">
        <ele>1274</ele>
        <time>2022-05-04T09:36:07.000Z</time>
      </trkpt>
      <trkpt lat="40.6315212137997150421142578125" lon="-1.85549779795110225677490234375">
        <ele>1273.5999755859375</ele>
        <time>2022-05-04T09:36:09.000Z</time>
      </trkpt>
      <trkpt lat="40.6314813159406185150146484375" lon="-1.85534575022757053375244140625">
        <ele>1272.199951171875</ele>
        <time>2022-05-04T09:36:15.000Z</time>
      </trkpt>
      <trkpt lat="40.6314741075038909912109375" lon="-1.855321191251277923583984375">
        <ele>1272</ele>
        <time>2022-05-04T09:36:16.000Z</time>
      </trkpt>
      <trkpt lat="40.63144862651824951171875" lon="-1.8551892600953578948974609375">
        <ele>1270.4000244140625</ele>
        <time>2022-05-04T09:36:21.000Z</time>
      </trkpt>
      <trkpt lat="40.63141132704913616180419921875" lon="-1.8550814688205718994140625">
        <ele>1269.5999755859375</ele>
        <time>2022-05-04T09:36:25.000Z</time>
      </trkpt>
      <trkpt lat="40.6313907913863658905029296875" lon="-1.855029501020908355712890625">
        <ele>1269.4000244140625</ele>
        <time>2022-05-04T09:36:27.000Z</time>
      </trkpt>
      <trkpt lat="40.63133505173027515411376953125" lon="-1.85485423542559146881103515625">
        <ele>1268.4000244140625</ele>
        <time>2022-05-04T09:36:34.000Z</time>
      </trkpt>
      <trkpt lat="40.6313277594745159149169921875" lon="-1.85482925735414028167724609375">
        <ele>1268.4000244140625</ele>
        <time>2022-05-04T09:36:35.000Z</time>
      </trkpt>
      <trkpt lat="40.63123245723545551300048828125" lon="-1.8545971624553203582763671875">
        <ele>1269.800048828125</ele>
        <time>2022-05-04T09:36:44.000Z</time>
      </trkpt>
      <trkpt lat="40.63122575171291828155517578125" lon="-1.85457310639321804046630859375">
        <ele>1269.800048828125</ele>
        <time>2022-05-04T09:36:45.000Z</time>
      </trkpt>
      <trkpt lat="40.63114746473729610443115234375" lon="-1.85438032262027263641357421875">
        <ele>1270.800048828125</ele>
        <time>2022-05-04T09:36:53.000Z</time>
      </trkpt>
      <trkpt lat="40.63109390437602996826171875" lon="-1.85428141616284847259521484375">
        <ele>1271.5999755859375</ele>
        <time>2022-05-04T09:36:57.000Z</time>
      </trkpt>
      <trkpt lat="40.63105367124080657958984375" lon="-1.8542109243571758270263671875">
        <ele>1272.199951171875</ele>
        <time>2022-05-04T09:37:00.000Z</time>
      </trkpt>
      <trkpt lat="40.63092618249356746673583984375" lon="-1.85399693436920642852783203125">
        <ele>1274.5999755859375</ele>
        <time>2022-05-04T09:37:09.000Z</time>
      </trkpt>
      <trkpt lat="40.6309140287339687347412109375" lon="-1.8539738841354846954345703125">
        <ele>1275</ele>
        <time>2022-05-04T09:37:10.000Z</time>
      </trkpt>
      <trkpt lat="40.63077949918806552886962890625" lon="-1.8537754006683826446533203125">
        <ele>1279.4000244140625</ele>
        <time>2022-05-04T09:37:19.000Z</time>
      </trkpt>
      <trkpt lat="40.630764327943325042724609375" lon="-1.8537546135485172271728515625">
        <ele>1279.5999755859375</ele>
        <time>2022-05-04T09:37:20.000Z</time>
      </trkpt>
      <trkpt lat="40.630634911358356475830078125" lon="-1.8535863049328327178955078125">
        <ele>1281</ele>
        <time>2022-05-04T09:37:28.000Z</time>
      </trkpt>
      <trkpt lat="40.6306189857423305511474609375" lon="-1.85356660746037960052490234375">
        <ele>1281.199951171875</ele>
        <time>2022-05-04T09:37:29.000Z</time>
      </trkpt>
      <trkpt lat="40.6304899044334888458251953125" lon="-1.853406429290771484375">
        <ele>1283.4000244140625</ele>
        <time>2022-05-04T09:37:37.000Z</time>
      </trkpt>
      <trkpt lat="40.6304548680782318115234375" lon="-1.853368543088436126708984375">
        <ele>1284.5999755859375</ele>
        <time>2022-05-04T09:37:39.000Z</time>
      </trkpt>
      <trkpt lat="40.6303557939827442169189453125" lon="-1.853255890309810638427734375">
        <ele>1285.199951171875</ele>
        <time>2022-05-04T09:37:45.000Z</time>
      </trkpt>
      <trkpt lat="40.63028790056705474853515625" lon="-1.85318405739963054656982421875">
        <ele>1285</ele>
        <time>2022-05-04T09:37:49.000Z</time>
      </trkpt>
      <trkpt lat="40.630213804543018341064453125" lon="-1.85311716981232166290283203125">
        <ele>1285.4000244140625</ele>
        <time>2022-05-04T09:37:53.000Z</time>
      </trkpt>
      <trkpt lat="40.6301249563694000244140625" lon="-1.85303435660898685455322265625">
        <ele>1285.5999755859375</ele>
        <time>2022-05-04T09:37:58.000Z</time>
      </trkpt>
      <trkpt lat="40.63002781011164188385009765625" lon="-1.85294902883470058441162109375">
        <ele>1286.199951171875</ele>
        <time>2022-05-04T09:38:03.000Z</time>
      </trkpt>
      <trkpt lat="40.62991549260914325714111328125" lon="-1.85285397805273532867431640625">
        <ele>1286.5999755859375</ele>
        <time>2022-05-04T09:38:09.000Z</time>
      </trkpt>
      <trkpt lat="40.629877857863903045654296875" lon="-1.85282246209681034088134765625">
        <ele>1286.800048828125</ele>
        <time>2022-05-04T09:38:11.000Z</time>
      </trkpt>
      <trkpt lat="40.62977232970297336578369140625" lon="-1.85272959060966968536376953125">
        <ele>1287.4000244140625</ele>
        <time>2022-05-04T09:38:17.000Z</time>
      </trkpt>
      <trkpt lat="40.62975556589663028717041015625" lon="-1.85271584428846836090087890625">
        <ele>1287.4000244140625</ele>
        <time>2022-05-04T09:38:18.000Z</time>
      </trkpt>
      <trkpt lat="40.629651881754398345947265625" lon="-1.85261324979364871978759765625">
        <ele>1288</ele>
        <time>2022-05-04T09:38:24.000Z</time>
      </trkpt>
      <trkpt lat="40.629539228975772857666015625" lon="-1.85250780545175075531005859375">
        <ele>1289</ele>
        <time>2022-05-04T09:38:30.000Z</time>
      </trkpt>
      <trkpt lat="40.6293764524161815643310546875" lon="-1.85238459147512912750244140625">
        <ele>1290</ele>
        <time>2022-05-04T09:38:38.000Z</time>
      </trkpt>
      <trkpt lat="40.62928500585258007049560546875" lon="-1.852290965616703033447265625">
        <ele>1291.4000244140625</ele>
        <time>2022-05-04T09:38:44.000Z</time>
      </trkpt>
      <trkpt lat="40.629139579832553863525390625" lon="-1.852152831852436065673828125">
        <ele>1293.800048828125</ele>
        <time>2022-05-04T09:38:53.000Z</time>
      </trkpt>
      <trkpt lat="40.62898795120418071746826171875" lon="-1.85199332423508167266845703125">
        <ele>1294.199951171875</ele>
        <time>2022-05-04T09:39:02.000Z</time>
      </trkpt>
      <trkpt lat="40.6288644857704639434814453125" lon="-1.851884610950946807861328125">
        <ele>1294.5999755859375</ele>
        <time>2022-05-04T09:39:08.000Z</time>
      </trkpt>
      <trkpt lat="40.6288436986505985260009765625" lon="-1.85186474584043025970458984375">
        <ele>1294.800048828125</ele>
        <time>2022-05-04T09:39:09.000Z</time>
      </trkpt>
      <trkpt lat="40.6287360750138759613037109375" lon="-1.8517489917576313018798828125">
        <ele>1296</ele>
        <time>2022-05-04T09:39:15.000Z</time>
      </trkpt>
      <trkpt lat="40.6286281161010265350341796875" lon="-1.8516192398965358734130859375">
        <ele>1295.800048828125</ele>
        <time>2022-05-04T09:39:22.000Z</time>
      </trkpt>
      <trkpt lat="40.62861160375177860260009765625" lon="-1.85159794986248016357421875">
        <ele>1295.5999755859375</ele>
        <time>2022-05-04T09:39:23.000Z</time>
      </trkpt>
      <trkpt lat="40.62849408946931362152099609375" lon="-1.85143190436065196990966796875">
        <ele>1296</ele>
        <time>2022-05-04T09:39:31.000Z</time>
      </trkpt>
      <trkpt lat="40.62840498983860015869140625" lon="-1.8512702174484729766845703125">
        <ele>1296.5999755859375</ele>
        <time>2022-05-04T09:39:38.000Z</time>
      </trkpt>
      <trkpt lat="40.6283895671367645263671875" lon="-1.8512440659105777740478515625">
        <ele>1296.5999755859375</ele>
        <time>2022-05-04T09:39:39.000Z</time>
      </trkpt>
      <trkpt lat="40.6283136270940303802490234375" lon="-1.85104767791926860809326171875">
        <ele>1297.199951171875</ele>
        <time>2022-05-04T09:39:47.000Z</time>
      </trkpt>
      <trkpt lat="40.6282683648169040679931640625" lon="-1.85086076147854328155517578125">
        <ele>1297.4000244140625</ele>
        <time>2022-05-04T09:39:54.000Z</time>
      </trkpt>
      <trkpt lat="40.62823005951941013336181640625" lon="-1.85068625025451183319091796875">
        <ele>1297.4000244140625</ele>
        <time>2022-05-04T09:40:00.000Z</time>
      </trkpt>
      <trkpt lat="40.628216899931430816650390625" lon="-1.850601173937320709228515625">
        <ele>1297.4000244140625</ele>
        <time>2022-05-04T09:40:03.000Z</time>
      </trkpt>
      <trkpt lat="40.628207512199878692626953125" lon="-1.8504575081169605255126953125">
        <ele>1297.4000244140625</ele>
        <time>2022-05-04T09:40:08.000Z</time>
      </trkpt>
      <trkpt lat="40.62819954939186573028564453125" lon="-1.850318200886249542236328125">
        <ele>1297.800048828125</ele>
        <time>2022-05-04T09:40:13.000Z</time>
      </trkpt>
      <trkpt lat="40.62819066457450389862060546875" lon="-1.8502013571560382843017578125">
        <ele>1298.199951171875</ele>
        <time>2022-05-04T09:40:17.000Z</time>
      </trkpt>
      <trkpt lat="40.628201477229595184326171875" lon="-1.8500094115734100341796875">
        <ele>1298.199951171875</ele>
        <time>2022-05-04T09:40:24.000Z</time>
      </trkpt>
      <trkpt lat="40.628206841647624969482421875" lon="-1.84995635412633419036865234375">
        <ele>1298</ele>
        <time>2022-05-04T09:40:26.000Z</time>
      </trkpt>
      <trkpt lat="40.62821933068335056304931640625" lon="-1.8497899733483791351318359375">
        <ele>1299.199951171875</ele>
        <time>2022-05-04T09:40:32.000Z</time>
      </trkpt>
      <trkpt lat="40.628223605453968048095703125" lon="-1.84970690868794918060302734375">
        <ele>1300.4000244140625</ele>
        <time>2022-05-04T09:40:35.000Z</time>
      </trkpt>
      <trkpt lat="40.62824464403092861175537109375" lon="-1.84956810437142848968505859375">
        <ele>1301</ele>
        <time>2022-05-04T09:40:40.000Z</time>
      </trkpt>
      <trkpt lat="40.62825017608702182769775390625" lon="-1.849509514868259429931640625">
        <ele>1301.199951171875</ele>
        <time>2022-05-04T09:40:42.000Z</time>
      </trkpt>
      <trkpt lat="40.62825755216181278228759765625" lon="-1.84945352375507354736328125">
        <ele>1301.4000244140625</ele>
        <time>2022-05-04T09:40:44.000Z</time>
      </trkpt>
      <trkpt lat="40.62827280722558498382568359375" lon="-1.8493460677564144134521484375">
        <ele>1301.800048828125</ele>
        <time>2022-05-04T09:40:48.000Z</time>
      </trkpt>
      <trkpt lat="40.62827984802424907684326171875" lon="-1.849319078028202056884765625">
        <ele>1301.800048828125</ele>
        <time>2022-05-04T09:40:49.000Z</time>
      </trkpt>
      <trkpt lat="40.62830172479152679443359375" lon="-1.8491323292255401611328125">
        <ele>1302.5999755859375</ele>
        <time>2022-05-04T09:40:56.000Z</time>
      </trkpt>
      <trkpt lat="40.62830382026731967926025390625" lon="-1.84910458512604236602783203125">
        <ele>1302.5999755859375</ele>
        <time>2022-05-04T09:40:57.000Z</time>
      </trkpt>
      <trkpt lat="40.62832226045429706573486328125" lon="-1.84885765425860881805419921875">
        <ele>1303</ele>
        <time>2022-05-04T09:41:06.000Z</time>
      </trkpt>
      <trkpt lat="40.6283263675868511199951171875" lon="-1.84883183799684047698974609375">
        <ele>1303</ele>
        <time>2022-05-04T09:41:07.000Z</time>
      </trkpt>
      <trkpt lat="40.62833030708134174346923828125" lon="-1.848646514117717742919921875">
        <ele>1303.4000244140625</ele>
        <time>2022-05-04T09:41:14.000Z</time>
      </trkpt>
      <trkpt lat="40.62831991352140903472900390625" lon="-1.84853645972907543182373046875">
        <ele>1303.800048828125</ele>
        <time>2022-05-04T09:41:18.000Z</time>
      </trkpt>
      <trkpt lat="40.628303401172161102294921875" lon="-1.8483492918312549591064453125">
        <ele>1304.5999755859375</ele>
        <time>2022-05-04T09:41:25.000Z</time>
      </trkpt>
      <trkpt lat="40.62825051136314868927001953125" lon="-1.848159693181514739990234375">
        <ele>1305.5999755859375</ele>
        <time>2022-05-04T09:41:32.000Z</time>
      </trkpt>
      <trkpt lat="40.62824078835546970367431640625" lon="-1.84813362546265125274658203125">
        <ele>1305.800048828125</ele>
        <time>2022-05-04T09:41:33.000Z</time>
      </trkpt>
      <trkpt lat="40.62818907201290130615234375" lon="-1.8479566834867000579833984375">
        <ele>1306.5999755859375</ele>
        <time>2022-05-04T09:41:40.000Z</time>
      </trkpt>
      <trkpt lat="40.628151856362819671630859375" lon="-1.8478561006486415863037109375">
        <ele>1307.800048828125</ele>
        <time>2022-05-04T09:41:44.000Z</time>
      </trkpt>
      <trkpt lat="40.6281121261417865753173828125" lon="-1.847759373486042022705078125">
        <ele>1309</ele>
        <time>2022-05-04T09:41:48.000Z</time>
      </trkpt>
      <trkpt lat="40.62803291715681552886962890625" lon="-1.8475872091948986053466796875">
        <ele>1311.199951171875</ele>
        <time>2022-05-04T09:41:55.000Z</time>
      </trkpt>
      <trkpt lat="40.62802587635815143585205078125" lon="-1.84756415896117687225341796875">
        <ele>1311.4000244140625</ele>
        <time>2022-05-04T09:41:56.000Z</time>
      </trkpt>
      <trkpt lat="40.6279515288770198822021484375" lon="-1.84740297496318817138671875">
        <ele>1314.5999755859375</ele>
        <time>2022-05-04T09:42:03.000Z</time>
      </trkpt>
      <trkpt lat="40.6278610043227672576904296875" lon="-1.847237013280391693115234375">
        <ele>1316.199951171875</ele>
        <time>2022-05-04T09:42:10.000Z</time>
      </trkpt>
      <trkpt lat="40.627834014594554901123046875" lon="-1.84718395583331584930419921875">
        <ele>1316.800048828125</ele>
        <time>2022-05-04T09:42:12.000Z</time>
      </trkpt>
      <trkpt lat="40.62777542509138584136962890625" lon="-1.847057305276393890380859375">
        <ele>1317.800048828125</ele>
        <time>2022-05-04T09:42:17.000Z</time>
      </trkpt>
      <trkpt lat="40.6277403049170970916748046875" lon="-1.8469578959047794342041015625">
        <ele>1318.199951171875</ele>
        <time>2022-05-04T09:42:21.000Z</time>
      </trkpt>
      <trkpt lat="40.62771323136985301971435546875" lon="-1.8468522839248180389404296875">
        <ele>1318.199951171875</ele>
        <time>2022-05-04T09:42:25.000Z</time>
      </trkpt>
      <trkpt lat="40.62767274677753448486328125" lon="-1.84674725867807865142822265625">
        <ele>1319.4000244140625</ele>
        <time>2022-05-04T09:42:29.000Z</time>
      </trkpt>
      <trkpt lat="40.62765673734247684478759765625" lon="-1.846698224544525146484375">
        <ele>1320</ele>
        <time>2022-05-04T09:42:31.000Z</time>
      </trkpt>
      <trkpt lat="40.62762580811977386474609375" lon="-1.84656771831214427947998046875">
        <ele>1320.800048828125</ele>
        <time>2022-05-04T09:42:36.000Z</time>
      </trkpt>
      <trkpt lat="40.627607367932796478271484375" lon="-1.84648926369845867156982421875">
        <ele>1321.4000244140625</ele>
        <time>2022-05-04T09:42:39.000Z</time>
      </trkpt>
      <trkpt lat="40.6275787018239498138427734375" lon="-1.8462823145091533660888671875">
        <ele>1322.800048828125</ele>
        <time>2022-05-04T09:42:47.000Z</time>
      </trkpt>
      <trkpt lat="40.62757258303463459014892578125" lon="-1.84625607915222644805908203125">
        <ele>1323.199951171875</ele>
        <time>2022-05-04T09:42:48.000Z</time>
      </trkpt>
      <trkpt lat="40.6275473535060882568359375" lon="-1.84604250825941562652587890625">
        <ele>1324.199951171875</ele>
        <time>2022-05-04T09:42:56.000Z</time>
      </trkpt>
      <trkpt lat="40.627543665468692779541015625" lon="-1.84585140086710453033447265625">
        <ele>1324.4000244140625</ele>
        <time>2022-05-04T09:43:03.000Z</time>
      </trkpt>
      <trkpt lat="40.627534948289394378662109375" lon="-1.8456882052123546600341796875">
        <ele>1325</ele>
        <time>2022-05-04T09:43:09.000Z</time>
      </trkpt>
      <trkpt lat="40.62754475511610507965087890625" lon="-1.84560128487646579742431640625">
        <ele>1325.4000244140625</ele>
        <time>2022-05-04T09:43:12.000Z</time>
      </trkpt>
      <trkpt lat="40.62755472958087921142578125" lon="-1.84551578946411609649658203125">
        <ele>1325.5999755859375</ele>
        <time>2022-05-04T09:43:15.000Z</time>
      </trkpt>
      <trkpt lat="40.6275849044322967529296875" lon="-1.8452902324497699737548828125">
        <ele>1326</ele>
        <time>2022-05-04T09:43:23.000Z</time>
      </trkpt>
      <trkpt lat="40.6275954656302928924560546875" lon="-1.84517933987081050872802734375">
        <ele>1325.800048828125</ele>
        <time>2022-05-04T09:43:27.000Z</time>
      </trkpt>
      <trkpt lat="40.6275983154773712158203125" lon="-1.845151595771312713623046875">
        <ele>1325.5999755859375</ele>
        <time>2022-05-04T09:43:28.000Z</time>
      </trkpt>
      <trkpt lat="40.6276023387908935546875" lon="-1.8450178205966949462890625">
        <ele>1325.5999755859375</ele>
        <time>2022-05-04T09:43:33.000Z</time>
      </trkpt>
      <trkpt lat="40.627601332962512969970703125" lon="-1.8449641764163970947265625">
        <ele>1325.5999755859375</ele>
        <time>2022-05-04T09:43:35.000Z</time>
      </trkpt>
      <trkpt lat="40.62758767046034336090087890625" lon="-1.844750605523586273193359375">
        <ele>1324.5999755859375</ele>
        <time>2022-05-04T09:43:43.000Z</time>
      </trkpt>
      <trkpt lat="40.62757291831076145172119140625" lon="-1.84467382729053497314453125">
        <ele>1324.4000244140625</ele>
        <time>2022-05-04T09:43:46.000Z</time>
      </trkpt>
      <trkpt lat="40.62754224054515361785888671875" lon="-1.8444899283349514007568359375">
        <ele>1324</ele>
        <time>2022-05-04T09:43:53.000Z</time>
      </trkpt>
      <trkpt lat="40.62753838486969470977783203125" lon="-1.8444644473493099212646484375">
        <ele>1324</ele>
        <time>2022-05-04T09:43:54.000Z</time>
      </trkpt>
      <trkpt lat="40.62751474790275096893310546875" lon="-1.84432069770991802215576171875">
        <ele>1324.800048828125</ele>
        <time>2022-05-04T09:44:00.000Z</time>
      </trkpt>
      <trkpt lat="40.62749412842094898223876953125" lon="-1.84427141211926937103271484375">
        <ele>1325.5999755859375</ele>
        <time>2022-05-04T09:44:02.000Z</time>
      </trkpt>
      <trkpt lat="40.62743964605033397674560546875" lon="-1.84415104798972606658935546875">
        <ele>1327.4000244140625</ele>
        <time>2022-05-04T09:44:07.000Z</time>
      </trkpt>
      <trkpt lat="40.6273517198860645294189453125" lon="-1.84398340992629528045654296875">
        <ele>1330.5999755859375</ele>
        <time>2022-05-04T09:44:14.000Z</time>
      </trkpt>
      <trkpt lat="40.62725809402763843536376953125" lon="-1.8438465334475040435791015625">
        <ele>1332.5999755859375</ele>
        <time>2022-05-04T09:44:21.000Z</time>
      </trkpt>
      <trkpt lat="40.62724535353481769561767578125" lon="-1.84382532723248004913330078125">
        <ele>1332.800048828125</ele>
        <time>2022-05-04T09:44:22.000Z</time>
      </trkpt>
      <trkpt lat="40.62717678956687450408935546875" lon="-1.8436852656304836273193359375">
        <ele>1333.4000244140625</ele>
        <time>2022-05-04T09:44:29.000Z</time>
      </trkpt>
      <trkpt lat="40.6271101534366607666015625" lon="-1.8435773067176342010498046875">
        <ele>1335.199951171875</ele>
        <time>2022-05-04T09:44:35.000Z</time>
      </trkpt>
      <trkpt lat="40.62702742405235767364501953125" lon="-1.84344847686588764190673828125">
        <ele>1337.5999755859375</ele>
        <time>2022-05-04T09:44:42.000Z</time>
      </trkpt>
      <trkpt lat="40.62700278125703334808349609375" lon="-1.8434153683483600616455078125">
        <ele>1338.4000244140625</ele>
        <time>2022-05-04T09:44:44.000Z</time>
      </trkpt>
      <trkpt lat="40.62696053646504878997802734375" lon="-1.84333716519176959991455078125">
        <ele>1339</ele>
        <time>2022-05-04T09:44:48.000Z</time>
      </trkpt>
      <trkpt lat="40.62690605409443378448486328125" lon="-1.84323373250663280487060546875">
        <ele>1339.5999755859375</ele>
        <time>2022-05-04T09:44:53.000Z</time>
      </trkpt>
      <trkpt lat="40.62688593752682209014892578125" lon="-1.8431890569627285003662109375">
        <ele>1340</ele>
        <time>2022-05-04T09:44:55.000Z</time>
      </trkpt>
      <trkpt lat="40.6268472969532012939453125" lon="-1.8431072495877742767333984375">
        <ele>1340.5999755859375</ele>
        <time>2022-05-04T09:44:59.000Z</time>
      </trkpt>
      <trkpt lat="40.626830197870731353759765625" lon="-1.84306508861482143402099609375">
        <ele>1340.800048828125</ele>
        <time>2022-05-04T09:45:01.000Z</time>
      </trkpt>
      <trkpt lat="40.6267586164176464080810546875" lon="-1.84291471727192401885986328125">
        <ele>1341.800048828125</ele>
        <time>2022-05-04T09:45:08.000Z</time>
      </trkpt>
      <trkpt lat="40.62668862752616405487060546875" lon="-1.8427394516766071319580078125">
        <ele>1341.800048828125</ele>
        <time>2022-05-04T09:45:14.000Z</time>
      </trkpt>
      <trkpt lat="40.62664814293384552001953125" lon="-1.84256670065224170684814453125">
        <ele>1340.4000244140625</ele>
        <time>2022-05-04T09:45:20.000Z</time>
      </trkpt>
      <trkpt lat="40.62664403580129146575927734375" lon="-1.8425396271049976348876953125">
        <ele>1340.199951171875</ele>
        <time>2022-05-04T09:45:21.000Z</time>
      </trkpt>
      <trkpt lat="40.62660950236022472381591796875" lon="-1.84237877838313579559326171875">
        <ele>1338.800048828125</ele>
        <time>2022-05-04T09:45:27.000Z</time>
      </trkpt>
      <trkpt lat="40.6266010366380214691162109375" lon="-1.84235296212136745452880859375">
        <ele>1339</ele>
        <time>2022-05-04T09:45:28.000Z</time>
      </trkpt>
      <trkpt lat="40.6265790760517120361328125" lon="-1.84219102375209331512451171875">
        <ele>1338.800048828125</ele>
        <time>2022-05-04T09:45:34.000Z</time>
      </trkpt>
      <trkpt lat="40.6265723705291748046875" lon="-1.84213670901954174041748046875">
        <ele>1338.5999755859375</ele>
        <time>2022-05-04T09:45:36.000Z</time>
      </trkpt>
      <trkpt lat="40.6265549361705780029296875" lon="-1.84199471957981586456298828125">
        <ele>1338</ele>
        <time>2022-05-04T09:45:41.000Z</time>
      </trkpt>
      <trkpt lat="40.626523755490779876708984375" lon="-1.8417991697788238525390625">
        <ele>1337.4000244140625</ele>
        <time>2022-05-04T09:45:48.000Z</time>
      </trkpt>
      <trkpt lat="40.62646885402500629425048828125" lon="-1.84160395525395870208740234375">
        <ele>1337.5999755859375</ele>
        <time>2022-05-04T09:45:55.000Z</time>
      </trkpt>
      <trkpt lat="40.62644571997225284576416015625" lon="-1.84152114205062389373779296875">
        <ele>1338</ele>
        <time>2022-05-04T09:45:58.000Z</time>
      </trkpt>
      <trkpt lat="40.62636324204504489898681640625" lon="-1.84128494001924991607666015625">
        <ele>1339.199951171875</ele>
        <time>2022-05-04T09:46:07.000Z</time>
      </trkpt>
      <trkpt lat="40.62635444104671478271484375" lon="-1.8412575311958789825439453125">
        <ele>1339.199951171875</ele>
        <time>2022-05-04T09:46:08.000Z</time>
      </trkpt>
      <trkpt lat="40.6263026408851146697998046875" lon="-1.84109819121658802032470703125">
        <ele>1341.4000244140625</ele>
        <time>2022-05-04T09:46:14.000Z</time>
      </trkpt>
      <trkpt lat="40.62626332975924015045166015625" lon="-1.8409980274736881256103515625">
        <ele>1343.199951171875</ele>
        <time>2022-05-04T09:46:18.000Z</time>
      </trkpt>
      <trkpt lat="40.62623801641166210174560546875" lon="-1.84092736802995204925537109375">
        <ele>1344.4000244140625</ele>
        <time>2022-05-04T09:46:21.000Z</time>
      </trkpt>
      <trkpt lat="40.62618118710815906524658203125" lon="-1.8407777510583400726318359375">
        <ele>1345.199951171875</ele>
        <time>2022-05-04T09:46:27.000Z</time>
      </trkpt>
      <trkpt lat="40.62616190873086452484130859375" lon="-1.84075017459690570831298828125">
        <ele>1345.5999755859375</ele>
        <time>2022-05-04T09:46:28.000Z</time>
      </trkpt>
      <trkpt lat="40.62610792927443981170654296875" lon="-1.8406282179057598114013671875">
        <ele>1347</ele>
        <time>2022-05-04T09:46:33.000Z</time>
      </trkpt>
      <trkpt lat="40.626074485480785369873046875" lon="-1.84049653820693492889404296875">
        <ele>1347.800048828125</ele>
        <time>2022-05-04T09:46:38.000Z</time>
      </trkpt>
      <trkpt lat="40.6260552071034908294677734375" lon="-1.84044239111244678497314453125">
        <ele>1348.4000244140625</ele>
        <time>2022-05-04T09:46:40.000Z</time>
      </trkpt>
      <trkpt lat="40.62598270364105701446533203125" lon="-1.840255558490753173828125">
        <ele>1350.5999755859375</ele>
        <time>2022-05-04T09:46:47.000Z</time>
      </trkpt>
      <trkpt lat="40.625960491597652435302734375" lon="-1.8402050994336605072021484375">
        <ele>1350.4000244140625</ele>
        <time>2022-05-04T09:46:49.000Z</time>
      </trkpt>
      <trkpt lat="40.625899471342563629150390625" lon="-1.84007694013416767120361328125">
        <ele>1350.5999755859375</ele>
        <time>2022-05-04T09:46:54.000Z</time>
      </trkpt>
      <trkpt lat="40.62587700784206390380859375" lon="-1.84002597816288471221923828125">
        <ele>1350.4000244140625</ele>
        <time>2022-05-04T09:46:56.000Z</time>
      </trkpt>
      <trkpt lat="40.62582068145275115966796875" lon="-1.8398979865014553070068359375">
        <ele>1350.4000244140625</ele>
        <time>2022-05-04T09:47:01.000Z</time>
      </trkpt>
      <trkpt lat="40.62579997815191745758056640625" lon="-1.8398517183959484100341796875">
        <ele>1351.199951171875</ele>
        <time>2022-05-04T09:47:03.000Z</time>
      </trkpt>
      <trkpt lat="40.6257618404924869537353515625" lon="-1.83965885080397129058837890625">
        <ele>1353.800048828125</ele>
        <time>2022-05-04T09:47:11.000Z</time>
      </trkpt>
      <trkpt lat="40.6257423944771289825439453125" lon="-1.83948735706508159637451171875">
        <ele>1354.5999755859375</ele>
        <time>2022-05-04T09:47:18.000Z</time>
      </trkpt>
      <trkpt lat="40.62574130482971668243408203125" lon="-1.83946204371750354766845703125">
        <ele>1354.5999755859375</ele>
        <time>2022-05-04T09:47:19.000Z</time>
      </trkpt>
      <trkpt lat="40.6257279776036739349365234375" lon="-1.83933497406542301177978515625">
        <ele>1355.199951171875</ele>
        <time>2022-05-04T09:47:24.000Z</time>
      </trkpt>
      <trkpt lat="40.6257207691669464111328125" lon="-1.8392619676887989044189453125">
        <ele>1355.5999755859375</ele>
        <time>2022-05-04T09:47:27.000Z</time>
      </trkpt>
      <trkpt lat="40.6257155723869800567626953125" lon="-1.83914311230182647705078125">
        <ele>1355.800048828125</ele>
        <time>2022-05-04T09:47:32.000Z</time>
      </trkpt>
      <trkpt lat="40.6257118843495845794677734375" lon="-1.83906893245875835418701171875">
        <ele>1356</ele>
        <time>2022-05-04T09:47:35.000Z</time>
      </trkpt>
      <trkpt lat="40.62570207752287387847900390625" lon="-1.83894270099699497222900390625">
        <ele>1356.199951171875</ele>
        <time>2022-05-04T09:47:40.000Z</time>
      </trkpt>
      <trkpt lat="40.62568983994424343109130859375" lon="-1.83882166631519794464111328125">
        <ele>1356.800048828125</ele>
        <time>2022-05-04T09:47:45.000Z</time>
      </trkpt>
      <trkpt lat="40.62568665482103824615478515625" lon="-1.838748157024383544921875">
        <ele>1357.4000244140625</ele>
        <time>2022-05-04T09:47:48.000Z</time>
      </trkpt>
      <trkpt lat="40.625680871307849884033203125" lon="-1.83864866383373737335205078125">
        <ele>1358</ele>
        <time>2022-05-04T09:47:52.000Z</time>
      </trkpt>
      <trkpt lat="40.62565949745476245880126953125" lon="-1.83846945874392986297607421875">
        <ele>1359.5999755859375</ele>
        <time>2022-05-04T09:47:59.000Z</time>
      </trkpt>
      <trkpt lat="40.625657737255096435546875" lon="-1.8384432233870029449462890625">
        <ele>1359.800048828125</ele>
        <time>2022-05-04T09:48:00.000Z</time>
      </trkpt>
      <trkpt lat="40.62564642168581485748291015625" lon="-1.83829595334827899932861328125">
        <ele>1361</ele>
        <time>2022-05-04T09:48:06.000Z</time>
      </trkpt>
      <trkpt lat="40.62563963234424591064453125" lon="-1.83819629251956939697265625">
        <ele>1361.4000244140625</ele>
        <time>2022-05-04T09:48:10.000Z</time>
      </trkpt>
      <trkpt lat="40.62563736923038959503173828125" lon="-1.83814725838601589202880859375">
        <ele>1361.199951171875</ele>
        <time>2022-05-04T09:48:12.000Z</time>
      </trkpt>
      <trkpt lat="40.62562194652855396270751953125" lon="-1.83796989731490612030029296875">
        <ele>1361.4000244140625</ele>
        <time>2022-05-04T09:48:19.000Z</time>
      </trkpt>
      <trkpt lat="40.62561607919633388519287109375" lon="-1.83791876770555973052978515625">
        <ele>1361.5999755859375</ele>
        <time>2022-05-04T09:48:21.000Z</time>
      </trkpt>
      <trkpt lat="40.6255999021232128143310546875" lon="-1.83775180019438266754150390625">
        <ele>1362.199951171875</ele>
        <time>2022-05-04T09:48:28.000Z</time>
      </trkpt>
      <trkpt lat="40.62559680081903934478759765625" lon="-1.8377274088561534881591796875">
        <ele>1362.199951171875</ele>
        <time>2022-05-04T09:48:29.000Z</time>
      </trkpt>
      <trkpt lat="40.62557668425142765045166015625" lon="-1.8375560827553272247314453125">
        <ele>1362.800048828125</ele>
        <time>2022-05-04T09:48:36.000Z</time>
      </trkpt>
      <trkpt lat="40.62557601369917392730712890625" lon="-1.8375074677169322967529296875">
        <ele>1362.800048828125</ele>
        <time>2022-05-04T09:48:38.000Z</time>
      </trkpt>
      <trkpt lat="40.6255760975182056427001953125" lon="-1.83731694705784320831298828125">
        <ele>1362.800048828125</ele>
        <time>2022-05-04T09:48:46.000Z</time>
      </trkpt>
      <trkpt lat="40.6255791150033473968505859375" lon="-1.8372382409870624542236328125">
        <ele>1363.4000244140625</ele>
        <time>2022-05-04T09:48:49.000Z</time>
      </trkpt>
      <trkpt lat="40.6255821324884891510009765625" lon="-1.83708091266453266143798828125">
        <ele>1364.800048828125</ele>
        <time>2022-05-04T09:48:55.000Z</time>
      </trkpt>
      <trkpt lat="40.62558456324040889739990234375" lon="-1.83705325238406658172607421875">
        <ele>1365</ele>
        <time>2022-05-04T09:48:56.000Z</time>
      </trkpt>
      <trkpt lat="40.625615157186985015869140625" lon="-1.83685828931629657745361328125">
        <ele>1365.199951171875</ele>
        <time>2022-05-04T09:49:03.000Z</time>
      </trkpt>
      <trkpt lat="40.6256297416985034942626953125" lon="-1.836779750883579254150390625">
        <ele>1365.199951171875</ele>
        <time>2022-05-04T09:49:06.000Z</time>
      </trkpt>
      <trkpt lat="40.6256429851055145263671875" lon="-1.8367041461169719696044921875">
        <ele>1365.199951171875</ele>
        <time>2022-05-04T09:49:09.000Z</time>
      </trkpt>
      <trkpt lat="40.6256760098040103912353515625" lon="-1.83652334846556186676025390625">
        <ele>1365.4000244140625</ele>
        <time>2022-05-04T09:49:16.000Z</time>
      </trkpt>
      <trkpt lat="40.62568782828748226165771484375" lon="-1.83647431433200836181640625">
        <ele>1365.199951171875</ele>
        <time>2022-05-04T09:49:18.000Z</time>
      </trkpt>
      <trkpt lat="40.6257222779095172882080078125" lon="-1.8363578058779239654541015625">
        <ele>1364.5999755859375</ele>
        <time>2022-05-04T09:49:23.000Z</time>
      </trkpt>
      <trkpt lat="40.6257363595068454742431640625" lon="-1.83630826883018016815185546875">
        <ele>1364.199951171875</ele>
        <time>2022-05-04T09:49:25.000Z</time>
      </trkpt>
      <trkpt lat="40.62578656710684299468994140625" lon="-1.83610626496374607086181640625">
        <ele>1363.4000244140625</ele>
        <time>2022-05-04T09:49:33.000Z</time>
      </trkpt>
      <trkpt lat="40.6258134730160236358642578125" lon="-1.8359839729964733123779296875">
        <ele>1363</ele>
        <time>2022-05-04T09:49:38.000Z</time>
      </trkpt>
      <trkpt lat="40.62582981772720813751220703125" lon="-1.83590509928762912750244140625">
        <ele>1363</ele>
        <time>2022-05-04T09:49:41.000Z</time>
      </trkpt>
      <trkpt lat="40.625855214893817901611328125" lon="-1.835747100412845611572265625">
        <ele>1363</ele>
        <time>2022-05-04T09:49:47.000Z</time>
      </trkpt>
      <trkpt lat="40.6258570589125156402587890625" lon="-1.83552556671202182769775390625">
        <ele>1366</ele>
        <time>2022-05-04T09:49:55.000Z</time>
      </trkpt>
      <trkpt lat="40.62584616243839263916015625" lon="-1.8354716710746288299560546875">
        <ele>1367.199951171875</ele>
        <time>2022-05-04T09:49:57.000Z</time>
      </trkpt>
      <trkpt lat="40.6258208490908145904541015625" lon="-1.8353375606238842010498046875">
        <ele>1369.4000244140625</ele>
        <time>2022-05-04T09:50:02.000Z</time>
      </trkpt>
      <trkpt lat="40.62580768950283527374267578125" lon="-1.83528433553874492645263671875">
        <ele>1369.800048828125</ele>
        <time>2022-05-04T09:50:04.000Z</time>
      </trkpt>
      <trkpt lat="40.62576276250183582305908203125" lon="-1.83513631112873554229736328125">
        <ele>1371.800048828125</ele>
        <time>2022-05-04T09:50:10.000Z</time>
      </trkpt>
      <trkpt lat="40.62573510222136974334716796875" lon="-1.83504880405962467193603515625">
        <ele>1372.800048828125</ele>
        <time>2022-05-04T09:50:14.000Z</time>
      </trkpt>
      <trkpt lat="40.6256843917071819305419921875" lon="-1.8348923139274120330810546875">
        <ele>1375</ele>
        <time>2022-05-04T09:50:20.000Z</time>
      </trkpt>
      <trkpt lat="40.62566109001636505126953125" lon="-1.834839172661304473876953125">
        <ele>1378</ele>
        <time>2022-05-04T09:50:22.000Z</time>
      </trkpt>
      <trkpt lat="40.62564860098063945770263671875" lon="-1.834764070808887481689453125">
        <ele>1381.800048828125</ele>
        <time>2022-05-04T09:50:25.000Z</time>
      </trkpt>
      <trkpt lat="40.62563066370785236358642578125" lon="-1.8345759809017181396484375">
        <ele>1384.800048828125</ele>
        <time>2022-05-04T09:50:32.000Z</time>
      </trkpt>
      <trkpt lat="40.62563351355493068695068359375" lon="-1.83454421348869800567626953125">
        <ele>1385.199951171875</ele>
        <time>2022-05-04T09:50:33.000Z</time>
      </trkpt>
      <trkpt lat="40.62567508779466152191162109375" lon="-1.8344001285731792449951171875">
        <ele>1387</ele>
        <time>2022-05-04T09:50:38.000Z</time>
      </trkpt>
      <trkpt lat="40.62574088573455810546875" lon="-1.83424565009772777557373046875">
        <ele>1388.5999755859375</ele>
        <time>2022-05-04T09:50:44.000Z</time>
      </trkpt>
      <trkpt lat="40.62575228512287139892578125" lon="-1.83422268368303775787353515625">
        <ele>1389</ele>
        <time>2022-05-04T09:50:45.000Z</time>
      </trkpt>
      <trkpt lat="40.62584524042904376983642578125" lon="-1.834111623466014862060546875">
        <ele>1389.800048828125</ele>
        <time>2022-05-04T09:50:51.000Z</time>
      </trkpt>
      <trkpt lat="40.6258637644350528717041015625" lon="-1.83409561403095722198486328125">
        <ele>1390</ele>
        <time>2022-05-04T09:50:52.000Z</time>
      </trkpt>
      <trkpt lat="40.6259943544864654541015625" lon="-1.834009028971195220947265625">
        <ele>1391.5999755859375</ele>
        <time>2022-05-04T09:50:59.000Z</time>
      </trkpt>
      <trkpt lat="40.626011453568935394287109375" lon="-1.83399972505867481231689453125">
        <ele>1391.800048828125</ele>
        <time>2022-05-04T09:51:00.000Z</time>
      </trkpt>
      <trkpt lat="40.6261269561946392059326171875" lon="-1.8339796923100948333740234375">
        <ele>1391.800048828125</ele>
        <time>2022-05-04T09:51:06.000Z</time>
      </trkpt>
      <trkpt lat="40.62631957232952117919921875" lon="-1.8339756689965724945068359375">
        <ele>1390.5999755859375</ele>
        <time>2022-05-04T09:51:15.000Z</time>
      </trkpt>
      <trkpt lat="40.62636324204504489898681640625" lon="-1.833974160254001617431640625">
        <ele>1390.4000244140625</ele>
        <time>2022-05-04T09:51:17.000Z</time>
      </trkpt>
      <trkpt lat="40.6265574507415294647216796875" lon="-1.83398128487169742584228515625">
        <ele>1390.5999755859375</ele>
        <time>2022-05-04T09:51:26.000Z</time>
      </trkpt>
      <trkpt lat="40.6267051398754119873046875" lon="-1.83397910557687282562255859375">
        <ele>1391.5999755859375</ele>
        <time>2022-05-04T09:51:33.000Z</time>
      </trkpt>
      <trkpt lat="40.6267680041491985321044921875" lon="-1.83398111723363399505615234375">
        <ele>1392</ele>
        <time>2022-05-04T09:51:36.000Z</time>
      </trkpt>
      <trkpt lat="40.6268722750246524810791015625" lon="-1.8339806981384754180908203125">
        <ele>1392.5999755859375</ele>
        <time>2022-05-04T09:51:41.000Z</time>
      </trkpt>
      <trkpt lat="40.6269331276416778564453125" lon="-1.83398061431944370269775390625">
        <ele>1393</ele>
        <time>2022-05-04T09:51:44.000Z</time>
      </trkpt>
      <trkpt lat="40.6270550005137920379638671875" lon="-1.8339817039668560028076171875">
        <ele>1393.5999755859375</ele>
        <time>2022-05-04T09:51:50.000Z</time>
      </trkpt>
      <trkpt lat="40.62707670964300632476806640625" lon="-1.833979189395904541015625">
        <ele>1393.800048828125</ele>
        <time>2022-05-04T09:51:51.000Z</time>
      </trkpt>
      <trkpt lat="40.62719673849642276763916015625" lon="-1.83395697735249996185302734375">
        <ele>1395.199951171875</ele>
        <time>2022-05-04T09:51:57.000Z</time>
      </trkpt>
      <trkpt lat="40.62726262025535106658935546875" lon="-1.83395446278154850006103515625">
        <ele>1394.5999755859375</ele>
        <time>2022-05-04T09:52:00.000Z</time>
      </trkpt>
      <trkpt lat="40.62737225554883480072021484375" lon="-1.8339404650032520294189453125">
        <ele>1394.199951171875</ele>
        <time>2022-05-04T09:52:05.000Z</time>
      </trkpt>
      <trkpt lat="40.6274160929024219512939453125" lon="-1.83393652550876140594482421875">
        <ele>1394.199951171875</ele>
        <time>2022-05-04T09:52:07.000Z</time>
      </trkpt>
      <trkpt lat="40.62754073180258274078369140625" lon="-1.83393216691911220550537109375">
        <ele>1393.800048828125</ele>
        <time>2022-05-04T09:52:13.000Z</time>
      </trkpt>
      <trkpt lat="40.6276021711528301239013671875" lon="-1.83392529375851154327392578125">
        <ele>1393.5999755859375</ele>
        <time>2022-05-04T09:52:16.000Z</time>
      </trkpt>
      <trkpt lat="40.62770451419055461883544921875" lon="-1.83390073478221893310546875">
        <ele>1393.800048828125</ele>
        <time>2022-05-04T09:52:21.000Z</time>
      </trkpt>
      <trkpt lat="40.62774340622127056121826171875" lon="-1.83389679528772830963134765625">
        <ele>1393.800048828125</ele>
        <time>2022-05-04T09:52:23.000Z</time>
      </trkpt>
      <trkpt lat="40.62786276452243328094482421875" lon="-1.83389210142195224761962890625">
        <ele>1393.199951171875</ele>
        <time>2022-05-04T09:52:29.000Z</time>
      </trkpt>
      <trkpt lat="40.62794490717351436614990234375" lon="-1.83388003148138523101806640625">
        <ele>1393.199951171875</ele>
        <time>2022-05-04T09:52:33.000Z</time>
      </trkpt>
      <trkpt lat="40.628031827509403228759765625" lon="-1.8338732421398162841796875">
        <ele>1392.5999755859375</ele>
        <time>2022-05-04T09:52:37.000Z</time>
      </trkpt>
      <trkpt lat="40.62811195850372314453125" lon="-1.83388254605233669281005859375">
        <ele>1389.5999755859375</ele>
        <time>2022-05-04T09:52:40.000Z</time>
      </trkpt>
      <trkpt lat="40.62817591242492198944091796875" lon="-1.833888329565525054931640625">
        <ele>1387</ele>
        <time>2022-05-04T09:52:43.000Z</time>
      </trkpt>
      <trkpt lat="40.62819971702992916107177734375" lon="-1.83388757519423961639404296875">
        <ele>1386.4000244140625</ele>
        <time>2022-05-04T09:52:44.000Z</time>
      </trkpt>
      <trkpt lat="40.62834707088768482208251953125" lon="-1.833873577415943145751953125">
        <ele>1385</ele>
        <time>2022-05-04T09:52:51.000Z</time>
      </trkpt>
      <trkpt lat="40.628481768071651458740234375" lon="-1.8338455818593502044677734375">
        <ele>1383.5999755859375</ele>
        <time>2022-05-04T09:52:58.000Z</time>
      </trkpt>
      <trkpt lat="40.62858964316546916961669921875" lon="-1.83383904397487640380859375">
        <ele>1382.4000244140625</ele>
        <time>2022-05-04T09:53:06.000Z</time>
      </trkpt>
      <trkpt lat="40.6285915710031986236572265625" lon="-1.8338383734226226806640625">
        <ele>1382.4000244140625</ele>
        <time>2022-05-04T09:53:07.000Z</time>
      </trkpt>
      <trkpt lat="40.62865309417247772216796875" lon="-1.83369764126837253570556640625">
        <ele>1382</ele>
        <time>2022-05-04T09:59:54.000Z</time>
      </trkpt>
      <trkpt lat="40.6286502443253993988037109375" lon="-1.833654306828975677490234375">
        <ele>1382.199951171875</ele>
        <time>2022-05-04T09:59:56.000Z</time>
      </trkpt>
      <trkpt lat="40.62864907085895538330078125" lon="-1.833528913557529449462890625">
        <ele>1382.4000244140625</ele>
        <time>2022-05-04T10:00:03.000Z</time>
      </trkpt>
      <trkpt lat="40.62861294485628604888916015625" lon="-1.833396144211292266845703125">
        <ele>1384.800048828125</ele>
        <time>2022-05-04T10:00:08.000Z</time>
      </trkpt>
      <trkpt lat="40.62854153104126453399658203125" lon="-1.83319455944001674652099609375">
        <ele>1392.4000244140625</ele>
        <time>2022-05-04T10:00:15.000Z</time>
      </trkpt>
      <trkpt lat="40.628493838012218475341796875" lon="-1.83301485143601894378662109375">
        <ele>1394.800048828125</ele>
        <time>2022-05-04T10:00:21.000Z</time>
      </trkpt>
      <trkpt lat="40.6284718774259090423583984375" lon="-1.8328893743455410003662109375">
        <ele>1396</ele>
        <time>2022-05-04T10:00:26.000Z</time>
      </trkpt>
      <trkpt lat="40.628457963466644287109375" lon="-1.83283598162233829498291015625">
        <ele>1396.5999755859375</ele>
        <time>2022-05-04T10:00:28.000Z</time>
      </trkpt>
      <trkpt lat="40.62839870341122150421142578125" lon="-1.83269734494388103485107421875">
        <ele>1399.4000244140625</ele>
        <time>2022-05-04T10:00:34.000Z</time>
      </trkpt>
      <trkpt lat="40.62839183025062084197998046875" lon="-1.83267354033887386322021484375">
        <ele>1399.800048828125</ele>
        <time>2022-05-04T10:00:35.000Z</time>
      </trkpt>
      <trkpt lat="40.62836945056915283203125" lon="-1.83256960473954677581787109375">
        <ele>1401.199951171875</ele>
        <time>2022-05-04T10:00:39.000Z</time>
      </trkpt>
      <trkpt lat="40.62835394404828548431396484375" lon="-1.83251981623470783233642578125">
        <ele>1402</ele>
        <time>2022-05-04T10:00:41.000Z</time>
      </trkpt>
      <trkpt lat="40.62832024879753589630126953125" lon="-1.83234966360032558441162109375">
        <ele>1404.4000244140625</ele>
        <time>2022-05-04T10:00:48.000Z</time>
      </trkpt>
      <trkpt lat="40.62830935232341289520263671875" lon="-1.83232736773788928985595703125">
        <ele>1405.199951171875</ele>
        <time>2022-05-04T10:00:49.000Z</time>
      </trkpt>
      <trkpt lat="40.62827289104461669921875" lon="-1.83220867998898029327392578125">
        <ele>1408.199951171875</ele>
        <time>2022-05-04T10:00:54.000Z</time>
      </trkpt>
      <trkpt lat="40.62826191075146198272705078125" lon="-1.832160986959934234619140625">
        <ele>1409.4000244140625</ele>
        <time>2022-05-04T10:00:56.000Z</time>
      </trkpt>
      <trkpt lat="40.6282398663461208343505859375" lon="-1.832015812397003173828125">
        <ele>1409</ele>
        <time>2022-05-04T10:01:02.000Z</time>
      </trkpt>
      <trkpt lat="40.628226958215236663818359375" lon="-1.83194330893456935882568359375">
        <ele>1408.5999755859375</ele>
        <time>2022-05-04T10:01:05.000Z</time>
      </trkpt>
      <trkpt lat="40.62821329571306705474853515625" lon="-1.83186569251120090484619140625">
        <ele>1408.199951171875</ele>
        <time>2022-05-04T10:01:08.000Z</time>
      </trkpt>
      <trkpt lat="40.628193430602550506591796875" lon="-1.83176812715828418731689453125">
        <ele>1407.800048828125</ele>
        <time>2022-05-04T10:01:12.000Z</time>
      </trkpt>
      <trkpt lat="40.6281642615795135498046875" lon="-1.831673495471477508544921875">
        <ele>1407.5999755859375</ele>
        <time>2022-05-04T10:01:16.000Z</time>
      </trkpt>
      <trkpt lat="40.62812872231006622314453125" lon="-1.8316294066607952117919921875">
        <ele>1407.800048828125</ele>
        <time>2022-05-04T10:01:18.000Z</time>
      </trkpt>
      <trkpt lat="40.628053955733776092529296875" lon="-1.83152656070888042449951171875">
        <ele>1409.4000244140625</ele>
        <time>2022-05-04T10:01:22.000Z</time>
      </trkpt>
      <trkpt lat="40.62801682390272617340087890625" lon="-1.83147593401372432708740234375">
        <ele>1409.5999755859375</ele>
        <time>2022-05-04T10:01:24.000Z</time>
      </trkpt>
      <trkpt lat="40.62795613892376422882080078125" lon="-1.8313626945018768310546875">
        <ele>1412</ele>
        <time>2022-05-04T10:01:29.000Z</time>
      </trkpt>
      <trkpt lat="40.62791808508336544036865234375" lon="-1.83129974640905857086181640625">
        <ele>1413.5999755859375</ele>
        <time>2022-05-04T10:01:32.000Z</time>
      </trkpt>
      <trkpt lat="40.62784650363028049468994140625" lon="-1.83121676556766033172607421875">
        <ele>1416</ele>
        <time>2022-05-04T10:01:36.000Z</time>
      </trkpt>
      <trkpt lat="40.627779029309749603271484375" lon="-1.83114032261073589324951171875">
        <ele>1418.4000244140625</ele>
        <time>2022-05-04T10:01:40.000Z</time>
      </trkpt>
      <trkpt lat="40.62770216725766658782958984375" lon="-1.83107410557568073272705078125">
        <ele>1421</ele>
        <time>2022-05-04T10:01:44.000Z</time>
      </trkpt>
      <trkpt lat="40.6275927834212779998779296875" lon="-1.830992884933948516845703125">
        <ele>1421.800048828125</ele>
        <time>2022-05-04T10:01:49.000Z</time>
      </trkpt>
      <trkpt lat="40.6275565735995769500732421875" lon="-1.830959022045135498046875">
        <ele>1421.5999755859375</ele>
        <time>2022-05-04T10:01:51.000Z</time>
      </trkpt>
      <trkpt lat="40.62744132243096828460693359375" lon="-1.83085299097001552581787109375">
        <ele>1421.4000244140625</ele>
        <time>2022-05-04T10:01:58.000Z</time>
      </trkpt>
      <trkpt lat="40.6274258159101009368896484375" lon="-1.8308354727923870086669921875">
        <ele>1421.199951171875</ele>
        <time>2022-05-04T10:01:59.000Z</time>
      </trkpt>
      <trkpt lat="40.6273007579147815704345703125" lon="-1.8307466246187686920166015625">
        <ele>1421.199951171875</ele>
        <time>2022-05-04T10:02:06.000Z</time>
      </trkpt>
      <trkpt lat="40.6272809766232967376708984375" lon="-1.83073681779205799102783203125">
        <ele>1421.4000244140625</ele>
        <time>2022-05-04T10:02:07.000Z</time>
      </trkpt>
      <trkpt lat="40.62715851701796054840087890625" lon="-1.83064076118171215057373046875">
        <ele>1422.5999755859375</ele>
        <time>2022-05-04T10:02:14.000Z</time>
      </trkpt>
      <trkpt lat="40.6271411664783954620361328125" lon="-1.83062416501343250274658203125">
        <ele>1423</ele>
        <time>2022-05-04T10:02:15.000Z</time>
      </trkpt>
      <trkpt lat="40.626997165381908416748046875" lon="-1.830504722893238067626953125">
        <ele>1425.800048828125</ele>
        <time>2022-05-04T10:02:23.000Z</time>
      </trkpt>
      <trkpt lat="40.626844950020313262939453125" lon="-1.83037186972796916961669921875">
        <ele>1428.5999755859375</ele>
        <time>2022-05-04T10:02:32.000Z</time>
      </trkpt>
      <trkpt lat="40.62682944349944591522216796875" lon="-1.830356530845165252685546875">
        <ele>1429</ele>
        <time>2022-05-04T10:02:33.000Z</time>
      </trkpt>
      <trkpt lat="40.62671125866472721099853515625" lon="-1.83025402016937732696533203125">
        <ele>1430.199951171875</ele>
        <time>2022-05-04T10:02:40.000Z</time>
      </trkpt>
      <trkpt lat="40.62669533304870128631591796875" lon="-1.83023775927722454071044921875">
        <ele>1430.199951171875</ele>
        <time>2022-05-04T10:02:41.000Z</time>
      </trkpt>
      <trkpt lat="40.62659877352416515350341796875" lon="-1.8301380984485149383544921875">
        <ele>1430.4000244140625</ele>
        <time>2022-05-04T10:02:47.000Z</time>
      </trkpt>
      <trkpt lat="40.626570023596286773681640625" lon="-1.83009627275168895721435546875">
        <ele>1430.4000244140625</ele>
        <time>2022-05-04T10:02:49.000Z</time>
      </trkpt>
      <trkpt lat="40.62649249099195003509521484375" lon="-1.82998747564852237701416015625">
        <ele>1430.4000244140625</ele>
        <time>2022-05-04T10:02:55.000Z</time>
      </trkpt>
      <trkpt lat="40.62646851874887943267822265625" lon="-1.8299506790935993194580078125">
        <ele>1430.4000244140625</ele>
        <time>2022-05-04T10:02:57.000Z</time>
      </trkpt>
      <trkpt lat="40.626408420503139495849609375" lon="-1.82985738851130008697509765625">
        <ele>1431</ele>
        <time>2022-05-04T10:03:02.000Z</time>
      </trkpt>
      <trkpt lat="40.626318566501140594482421875" lon="-1.8297240324318408966064453125">
        <ele>1431</ele>
        <time>2022-05-04T10:03:09.000Z</time>
      </trkpt>
      <trkpt lat="40.62622494064271450042724609375" lon="-1.8295550532639026641845703125">
        <ele>1431.4000244140625</ele>
        <time>2022-05-04T10:03:17.000Z</time>
      </trkpt>
      <trkpt lat="40.62618956901133060455322265625" lon="-1.8294776044785976409912109375">
        <ele>1431.5999755859375</ele>
        <time>2022-05-04T10:03:20.000Z</time>
      </trkpt>
      <trkpt lat="40.626130141317844390869140625" lon="-1.82936017401516437530517578125">
        <ele>1431.800048828125</ele>
        <time>2022-05-04T10:03:25.000Z</time>
      </trkpt>
      <trkpt lat="40.62608378939330577850341796875" lon="-1.8292596749961376190185546875">
        <ele>1431.800048828125</ele>
        <time>2022-05-04T10:03:29.000Z</time>
      </trkpt>
      <trkpt lat="40.62602595426142215728759765625" lon="-1.8291433341801166534423828125">
        <ele>1431.5999755859375</ele>
        <time>2022-05-04T10:03:34.000Z</time>
      </trkpt>
      <trkpt lat="40.62594138085842132568359375" lon="-1.82897008024156093597412109375">
        <ele>1431.800048828125</ele>
        <time>2022-05-04T10:03:41.000Z</time>
      </trkpt>
      <trkpt lat="40.62591665424406528472900390625" lon="-1.82891794480383396148681640625">
        <ele>1432.199951171875</ele>
        <time>2022-05-04T10:03:43.000Z</time>
      </trkpt>
      <trkpt lat="40.625841133296489715576171875" lon="-1.82870035059750080108642578125">
        <ele>1433.199951171875</ele>
        <time>2022-05-04T10:03:51.000Z</time>
      </trkpt>
      <trkpt lat="40.62579913996160030364990234375" lon="-1.82859473861753940582275390625">
        <ele>1433.4000244140625</ele>
        <time>2022-05-04T10:03:55.000Z</time>
      </trkpt>
      <trkpt lat="40.6257878243923187255859375" lon="-1.82857059873640537261962890625">
        <ele>1433.4000244140625</ele>
        <time>2022-05-04T10:03:56.000Z</time>
      </trkpt>
      <trkpt lat="40.62568313442170619964599609375" lon="-1.8283299542963504791259765625">
        <ele>1433.5999755859375</ele>
        <time>2022-05-04T10:04:05.000Z</time>
      </trkpt>
      <trkpt lat="40.625641308724880218505859375" lon="-1.82823046110570430755615234375">
        <ele>1433.800048828125</ele>
        <time>2022-05-04T10:04:09.000Z</time>
      </trkpt>
      <trkpt lat="40.625613145530223846435546875" lon="-1.82817664928734302520751953125">
        <ele>1434</ele>
        <time>2022-05-04T10:04:11.000Z</time>
      </trkpt>
      <trkpt lat="40.62546486966311931610107421875" lon="-1.82790809310972690582275390625">
        <ele>1434.199951171875</ele>
        <time>2022-05-04T10:04:21.000Z</time>
      </trkpt>
      <trkpt lat="40.62544877640902996063232421875" lon="-1.82788227684795856475830078125">
        <ele>1434.199951171875</ele>
        <time>2022-05-04T10:04:22.000Z</time>
      </trkpt>
      <trkpt lat="40.62541893683373928070068359375" lon="-1.82783081196248531341552734375">
        <ele>1434</ele>
        <time>2022-05-04T10:04:24.000Z</time>
      </trkpt>
      <trkpt lat="40.62530578114092350006103515625" lon="-1.827688403427600860595703125">
        <ele>1433.199951171875</ele>
        <time>2022-05-04T10:04:30.000Z</time>
      </trkpt>
      <trkpt lat="40.625192038714885711669921875" lon="-1.82756443507969379425048828125">
        <ele>1433.4000244140625</ele>
        <time>2022-05-04T10:04:36.000Z</time>
      </trkpt>
      <trkpt lat="40.625126324594020843505859375" lon="-1.82749587111175060272216796875">
        <ele>1433.5999755859375</ele>
        <time>2022-05-04T10:04:39.000Z</time>
      </trkpt>
      <trkpt lat="40.6249866820871829986572265625" lon="-1.827369220554828643798828125">
        <ele>1434.199951171875</ele>
        <time>2022-05-04T10:04:45.000Z</time>
      </trkpt>
      <trkpt lat="40.6248354725539684295654296875" lon="-1.8272470124065876007080078125">
        <ele>1434.199951171875</ele>
        <time>2022-05-04T10:04:52.000Z</time>
      </trkpt>
      <trkpt lat="40.62479046173393726348876953125" lon="-1.82721524499356746673583984375">
        <ele>1434.5999755859375</ele>
        <time>2022-05-04T10:04:54.000Z</time>
      </trkpt>
      <trkpt lat="40.62468719668686389923095703125" lon="-1.82714559137821197509765625">
        <ele>1435.800048828125</ele>
        <time>2022-05-04T10:04:59.000Z</time>
      </trkpt>
      <trkpt lat="40.62452827580273151397705078125" lon="-1.8270545639097690582275390625">
        <ele>1435</ele>
        <time>2022-05-04T10:05:06.000Z</time>
      </trkpt>
      <trkpt lat="40.6243349052965641021728515625" lon="-1.82693512178957462310791015625">
        <ele>1434.199951171875</ele>
        <time>2022-05-04T10:05:14.000Z</time>
      </trkpt>
      <trkpt lat="40.62426634132862091064453125" lon="-1.826892457902431488037109375">
        <ele>1434.199951171875</ele>
        <time>2022-05-04T10:05:17.000Z</time>
      </trkpt>
      <trkpt lat="40.62412359751760959625244140625" lon="-1.8267772905528545379638671875">
        <ele>1435.199951171875</ele>
        <time>2022-05-04T10:05:23.000Z</time>
      </trkpt>
      <trkpt lat="40.62394808046519756317138671875" lon="-1.8266213871538639068603515625">
        <ele>1436.5999755859375</ele>
        <time>2022-05-04T10:05:31.000Z</time>
      </trkpt>
      <trkpt lat="40.62379569746553897857666015625" lon="-1.8264856003224849700927734375">
        <ele>1435.800048828125</ele>
        <time>2022-05-04T10:05:39.000Z</time>
      </trkpt>
      <trkpt lat="40.623698048293590545654296875" lon="-1.82641058228909969329833984375">
        <ele>1433.5999755859375</ele>
        <time>2022-05-04T10:05:45.000Z</time>
      </trkpt>
      <trkpt lat="40.62364004552364349365234375" lon="-1.8263737857341766357421875">
        <ele>1432.199951171875</ele>
        <time>2022-05-04T10:05:50.000Z</time>
      </trkpt>
      <trkpt lat="40.6236259639263153076171875" lon="-1.82636565528810024261474609375">
        <ele>1431.800048828125</ele>
        <time>2022-05-04T10:05:53.000Z</time>
      </trkpt>
      <trkpt lat="40.62365077435970306396484375" lon="-1.82630874216556549072265625">
        <ele>1433</ele>
        <time>2022-05-04T10:14:50.000Z</time>
      </trkpt>
      <trkpt lat="40.62365471385419368743896484375" lon="-1.82629139162600040435791015625">
        <ele>1433.199951171875</ele>
        <time>2022-05-04T10:14:51.000Z</time>
      </trkpt>
      <trkpt lat="40.62369142659008502960205078125" lon="-1.8261221610009670257568359375">
        <ele>1435.4000244140625</ele>
        <time>2022-05-04T10:14:58.000Z</time>
      </trkpt>
      <trkpt lat="40.62376870773732662200927734375" lon="-1.82585687376558780670166015625">
        <ele>1439.5999755859375</ele>
        <time>2022-05-04T10:15:06.000Z</time>
      </trkpt>
      <trkpt lat="40.6237773410975933074951171875" lon="-1.82578579522669315338134765625">
        <ele>1440.199951171875</ele>
        <time>2022-05-04T10:15:08.000Z</time>
      </trkpt>
      <trkpt lat="40.6238011457026004791259765625" lon="-1.82555043138563632965087890625">
        <ele>1441.199951171875</ele>
        <time>2022-05-04T10:15:14.000Z</time>
      </trkpt>
      <trkpt lat="40.62386132776737213134765625" lon="-1.8251287378370761871337890625">
        <ele>1443.199951171875</ele>
        <time>2022-05-04T10:15:23.000Z</time>
      </trkpt>
      <trkpt lat="40.62388488091528415679931640625" lon="-1.82477963156998157501220703125">
        <ele>1444.199951171875</ele>
        <time>2022-05-04T10:15:29.000Z</time>
      </trkpt>
      <trkpt lat="40.62388504855334758758544921875" lon="-1.82471827603876590728759765625">
        <ele>1444.5999755859375</ele>
        <time>2022-05-04T10:15:30.000Z</time>
      </trkpt>
      <trkpt lat="40.62386174686253070831298828125" lon="-1.82437352836132049560546875">
        <ele>1446.800048828125</ele>
        <time>2022-05-04T10:15:35.000Z</time>
      </trkpt>
      <trkpt lat="40.6238003075122833251953125" lon="-1.824087537825107574462890625">
        <ele>1446.800048828125</ele>
        <time>2022-05-04T10:15:39.000Z</time>
      </trkpt>
      <trkpt lat="40.62374909408390522003173828125" lon="-1.823952086269855499267578125">
        <ele>1446.5999755859375</ele>
        <time>2022-05-04T10:15:41.000Z</time>
      </trkpt>
      <trkpt lat="40.6235406361520290374755859375" lon="-1.82355822063982486724853515625">
        <ele>1444.199951171875</ele>
        <time>2022-05-04T10:15:47.000Z</time>
      </trkpt>
      <trkpt lat="40.62349813990294933319091796875" lon="-1.82349703274667263031005859375">
        <ele>1444</ele>
        <time>2022-05-04T10:15:48.000Z</time>
      </trkpt>
      <trkpt lat="40.623261518776416778564453125" lon="-1.82321204803884029388427734375">
        <ele>1443</ele>
        <time>2022-05-04T10:15:53.000Z</time>
      </trkpt>
      <trkpt lat="40.6230621971189975738525390625" lon="-1.82299797423183917999267578125">
        <ele>1441.199951171875</ele>
        <time>2022-05-04T10:15:57.000Z</time>
      </trkpt>
      <trkpt lat="40.62287117354571819305419921875" lon="-1.82276076637208461761474609375">
        <ele>1440.199951171875</ele>
        <time>2022-05-04T10:16:01.000Z</time>
      </trkpt>
      <trkpt lat="40.6226514838635921478271484375" lon="-1.82238525710999965667724609375">
        <ele>1437.800048828125</ele>
        <time>2022-05-04T10:16:06.000Z</time>
      </trkpt>
      <trkpt lat="40.62262072227895259857177734375" lon="-1.82229909114539623260498046875">
        <ele>1437.800048828125</ele>
        <time>2022-05-04T10:16:07.000Z</time>
      </trkpt>
      <trkpt lat="40.622553415596485137939453125" lon="-1.82202802039682865142822265625">
        <ele>1439</ele>
        <time>2022-05-04T10:16:10.000Z</time>
      </trkpt>
      <trkpt lat="40.6225378252565860748291015625" lon="-1.82193414308130741119384765625">
        <ele>1439</ele>
        <time>2022-05-04T10:16:11.000Z</time>
      </trkpt>
      <trkpt lat="40.6224778108298778533935546875" lon="-1.8213907442986965179443359375">
        <ele>1439.199951171875</ele>
        <time>2022-05-04T10:16:17.000Z</time>
      </trkpt>
      <trkpt lat="40.6224114261567592620849609375" lon="-1.8209783546626567840576171875">
        <ele>1437.5999755859375</ele>
        <time>2022-05-04T10:16:22.000Z</time>
      </trkpt>
      <trkpt lat="40.62238653190433979034423828125" lon="-1.82090182788670063018798828125">
        <ele>1437</ele>
        <time>2022-05-04T10:16:23.000Z</time>
      </trkpt>
      <trkpt lat="40.6222367472946643829345703125" lon="-1.82064299471676349639892578125">
        <ele>1432.4000244140625</ele>
        <time>2022-05-04T10:16:27.000Z</time>
      </trkpt>
      <trkpt lat="40.62204253859817981719970703125" lon="-1.82048910297453403472900390625">
        <ele>1432.199951171875</ele>
        <time>2022-05-04T10:16:31.000Z</time>
      </trkpt>
      <trkpt lat="40.621945895254611968994140625" lon="-1.820451132953166961669921875">
        <ele>1431.800048828125</ele>
        <time>2022-05-04T10:16:33.000Z</time>
      </trkpt>
      <trkpt lat="40.62185562215745449066162109375" lon="-1.82042825035750865936279296875">
        <ele>1431.4000244140625</ele>
        <time>2022-05-04T10:16:35.000Z</time>
      </trkpt>
      <trkpt lat="40.62176979146897792816162109375" lon="-1.8204134143888950347900390625">
        <ele>1431</ele>
        <time>2022-05-04T10:16:37.000Z</time>
      </trkpt>
      <trkpt lat="40.62150609679520130157470703125" lon="-1.82036873884499073028564453125">
        <ele>1431.4000244140625</ele>
        <time>2022-05-04T10:16:44.000Z</time>
      </trkpt>
      <trkpt lat="40.62146988697350025177001953125" lon="-1.820364296436309814453125">
        <ele>1431.5999755859375</ele>
        <time>2022-05-04T10:16:45.000Z</time>
      </trkpt>
      <trkpt lat="40.62127056531608104705810546875" lon="-1.82033990509808063507080078125">
        <ele>1433</ele>
        <time>2022-05-04T10:16:51.000Z</time>
      </trkpt>
      <trkpt lat="40.62117618508636951446533203125" lon="-1.82032079435884952545166015625">
        <ele>1433.800048828125</ele>
        <time>2022-05-04T10:16:54.000Z</time>
      </trkpt>
      <trkpt lat="40.6210837326943874359130859375" lon="-1.8202985823154449462890625">
        <ele>1435</ele>
        <time>2022-05-04T10:16:57.000Z</time>
      </trkpt>
      <trkpt lat="40.6210161745548248291015625" lon="-1.82028927840292453765869140625">
        <ele>1435.4000244140625</ele>
        <time>2022-05-04T10:16:59.000Z</time>
      </trkpt>
      <trkpt lat="40.620915256440639495849609375" lon="-1.820274107158184051513671875">
        <ele>1436</ele>
        <time>2022-05-04T10:17:02.000Z</time>
      </trkpt>
      <trkpt lat="40.62075197696685791015625" lon="-1.82024669833481311798095703125">
        <ele>1436.4000244140625</ele>
        <time>2022-05-04T10:17:07.000Z</time>
      </trkpt>
      <trkpt lat="40.6207211315631866455078125" lon="-1.8202420882880687713623046875">
        <ele>1436.4000244140625</ele>
        <time>2022-05-04T10:17:08.000Z</time>
      </trkpt>
      <trkpt lat="40.620535723865032196044921875" lon="-1.82021853514015674591064453125">
        <ele>1436.5999755859375</ele>
        <time>2022-05-04T10:17:14.000Z</time>
      </trkpt>
      <trkpt lat="40.620501525700092315673828125" lon="-1.82021132670342922210693359375">
        <ele>1437</ele>
        <time>2022-05-04T10:17:15.000Z</time>
      </trkpt>
      <trkpt lat="40.620337910950183868408203125" lon="-1.82019171305000782012939453125">
        <ele>1439.4000244140625</ele>
        <time>2022-05-04T10:17:20.000Z</time>
      </trkpt>
      <trkpt lat="40.6202747114002704620361328125" lon="-1.82018400169909000396728515625">
        <ele>1440.199951171875</ele>
        <time>2022-05-04T10:17:22.000Z</time>
      </trkpt>
      <trkpt lat="40.620150826871395111083984375" lon="-1.82017779909074306488037109375">
        <ele>1441</ele>
        <time>2022-05-04T10:17:26.000Z</time>
      </trkpt>
      <trkpt lat="40.62006424181163311004638671875" lon="-1.82017226703464984893798828125">
        <ele>1441.4000244140625</ele>
        <time>2022-05-04T10:17:29.000Z</time>
      </trkpt>
      <trkpt lat="40.619910098612308502197265625" lon="-1.82015751488506793975830078125">
        <ele>1441.800048828125</ele>
        <time>2022-05-04T10:17:34.000Z</time>
      </trkpt>
      <trkpt lat="40.61984899453818798065185546875" lon="-1.82014209218323230743408203125">
        <ele>1442.199951171875</ele>
        <time>2022-05-04T10:17:36.000Z</time>
      </trkpt>
      <trkpt lat="40.6196078471839427947998046875" lon="-1.8200938962399959564208984375">
        <ele>1444</ele>
        <time>2022-05-04T10:17:44.000Z</time>
      </trkpt>
      <trkpt lat="40.61951740644872188568115234375" lon="-1.820059530436992645263671875">
        <ele>1445.4000244140625</ele>
        <time>2022-05-04T10:17:47.000Z</time>
      </trkpt>
      <trkpt lat="40.61942487023770809173583984375" lon="-1.8200234882533550262451171875">
        <ele>1445.5999755859375</ele>
        <time>2022-05-04T10:17:50.000Z</time>
      </trkpt>
      <trkpt lat="40.61919285915791988372802734375" lon="-1.819919385015964508056640625">
        <ele>1446.199951171875</ele>
        <time>2022-05-04T10:17:58.000Z</time>
      </trkpt>
      <trkpt lat="40.6190828047692775726318359375" lon="-1.81983900256454944610595703125">
        <ele>1447.5999755859375</ele>
        <time>2022-05-04T10:18:02.000Z</time>
      </trkpt>
      <trkpt lat="40.61897057108581066131591796875" lon="-1.8197435326874256134033203125">
        <ele>1450</ele>
        <time>2022-05-04T10:18:06.000Z</time>
      </trkpt>
      <trkpt lat="40.6187716685235500335693359375" lon="-1.81953591294586658477783203125">
        <ele>1450</ele>
        <time>2022-05-04T10:18:13.000Z</time>
      </trkpt>
      <trkpt lat="40.6186378933489322662353515625" lon="-1.819340698421001434326171875">
        <ele>1451.5999755859375</ele>
        <time>2022-05-04T10:18:18.000Z</time>
      </trkpt>
      <trkpt lat="40.6185896135866641998291015625" lon="-1.81924874894320964813232421875">
        <ele>1451.4000244140625</ele>
        <time>2022-05-04T10:18:20.000Z</time>
      </trkpt>
      <trkpt lat="40.61853990890085697174072265625" lon="-1.81914280168712139129638671875">
        <ele>1450</ele>
        <time>2022-05-04T10:18:22.000Z</time>
      </trkpt>
      <trkpt lat="40.61847100965678691864013671875" lon="-1.81897801347076892852783203125">
        <ele>1449.4000244140625</ele>
        <time>2022-05-04T10:18:25.000Z</time>
      </trkpt>
      <trkpt lat="40.61834561638534069061279296875" lon="-1.818559169769287109375">
        <ele>1450.5999755859375</ele>
        <time>2022-05-04T10:18:32.000Z</time>
      </trkpt>
      <trkpt lat="40.6183287687599658966064453125" lon="-1.81849337182939052581787109375">
        <ele>1450</ele>
        <time>2022-05-04T10:18:33.000Z</time>
      </trkpt>
      <trkpt lat="40.61825945042073726654052734375" lon="-1.8182118237018585205078125">
        <ele>1447.199951171875</ele>
        <time>2022-05-04T10:18:37.000Z</time>
      </trkpt>
      <trkpt lat="40.61824142932891845703125" lon="-1.81813697330653667449951171875">
        <ele>1446.5999755859375</ele>
        <time>2022-05-04T10:18:38.000Z</time>
      </trkpt>
      <trkpt lat="40.6181383319199085235595703125" lon="-1.817727349698543548583984375">
        <ele>1443.199951171875</ele>
        <time>2022-05-04T10:18:43.000Z</time>
      </trkpt>
      <trkpt lat="40.61808644793927669525146484375" lon="-1.81754990480840206146240234375">
        <ele>1441.199951171875</ele>
        <time>2022-05-04T10:18:45.000Z</time>
      </trkpt>
      <trkpt lat="40.6180286966264247894287109375" lon="-1.817362569272518157958984375">
        <ele>1439.199951171875</ele>
        <time>2022-05-04T10:18:47.000Z</time>
      </trkpt>
      <trkpt lat="40.6179549358785152435302734375" lon="-1.817170791327953338623046875">
        <ele>1438</ele>
        <time>2022-05-04T10:18:49.000Z</time>
      </trkpt>
      <trkpt lat="40.61790808103978633880615234375" lon="-1.81707465089857578277587890625">
        <ele>1437.199951171875</ele>
        <time>2022-05-04T10:18:50.000Z</time>
      </trkpt>
      <trkpt lat="40.6177430413663387298583984375" lon="-1.81678497232496738433837890625">
        <ele>1434.4000244140625</ele>
        <time>2022-05-04T10:18:53.000Z</time>
      </trkpt>
      <trkpt lat="40.61760700307786464691162109375" lon="-1.816598810255527496337890625">
        <ele>1432.5999755859375</ele>
        <time>2022-05-04T10:18:55.000Z</time>
      </trkpt>
      <trkpt lat="40.6174510158598423004150390625" lon="-1.81642346084117889404296875">
        <ele>1432.4000244140625</ele>
        <time>2022-05-04T10:18:57.000Z</time>
      </trkpt>
      <trkpt lat="40.6172753311693668365478515625" lon="-1.81626856327056884765625">
        <ele>1431.4000244140625</ele>
        <time>2022-05-04T10:18:59.000Z</time>
      </trkpt>
      <trkpt lat="40.61708145774900913238525390625" lon="-1.8161411583423614501953125">
        <ele>1430</ele>
        <time>2022-05-04T10:19:01.000Z</time>
      </trkpt>
      <trkpt lat="40.616872496902942657470703125" lon="-1.8160419166088104248046875">
        <ele>1429.199951171875</ele>
        <time>2022-05-04T10:19:03.000Z</time>
      </trkpt>
      <trkpt lat="40.61665599234402179718017578125" lon="-1.81597745977342128753662109375">
        <ele>1426.199951171875</ele>
        <time>2022-05-04T10:19:05.000Z</time>
      </trkpt>
      <trkpt lat="40.6164314411580562591552734375" lon="-1.8159451894462108612060546875">
        <ele>1422.800048828125</ele>
        <time>2022-05-04T10:19:07.000Z</time>
      </trkpt>
      <trkpt lat="40.616205967962741851806640625" lon="-1.81594627909362316131591796875">
        <ele>1420.5999755859375</ele>
        <time>2022-05-04T10:19:09.000Z</time>
      </trkpt>
      <trkpt lat="40.6159781478345394134521484375" lon="-1.81598098017275333404541015625">
        <ele>1419.199951171875</ele>
        <time>2022-05-04T10:19:11.000Z</time>
      </trkpt>
      <trkpt lat="40.615750662982463836669921875" lon="-1.81605138815939426422119140625">
        <ele>1417.5999755859375</ele>
        <time>2022-05-04T10:19:13.000Z</time>
      </trkpt>
      <trkpt lat="40.6155231781303882598876953125" lon="-1.816150881350040435791015625">
        <ele>1415.800048828125</ele>
        <time>2022-05-04T10:19:15.000Z</time>
      </trkpt>
      <trkpt lat="40.61529711820185184478759765625" lon="-1.81627702899277210235595703125">
        <ele>1414.199951171875</ele>
        <time>2022-05-04T10:19:17.000Z</time>
      </trkpt>
      <trkpt lat="40.6150710582733154296875" lon="-1.8164093792438507080078125">
        <ele>1412.199951171875</ele>
        <time>2022-05-04T10:19:19.000Z</time>
      </trkpt>
      <trkpt lat="40.614957399666309356689453125" lon="-1.81647400371730327606201171875">
        <ele>1411.4000244140625</ele>
        <time>2022-05-04T10:19:20.000Z</time>
      </trkpt>
      <trkpt lat="40.61474206857383251190185546875" lon="-1.81659587658941745758056640625">
        <ele>1409.800048828125</ele>
        <time>2022-05-04T10:19:22.000Z</time>
      </trkpt>
      <trkpt lat="40.61453034169971942901611328125" lon="-1.8167210184037685394287109375">
        <ele>1407.5999755859375</ele>
        <time>2022-05-04T10:19:24.000Z</time>
      </trkpt>
      <trkpt lat="40.6143165193498134613037109375" lon="-1.81684331037104129791259765625">
        <ele>1406.199951171875</ele>
        <time>2022-05-04T10:19:26.000Z</time>
      </trkpt>
      <trkpt lat="40.6142088957130908966064453125" lon="-1.8169070966541767120361328125">
        <ele>1405.4000244140625</ele>
        <time>2022-05-04T10:19:27.000Z</time>
      </trkpt>
      <trkpt lat="40.614101104438304901123046875" lon="-1.816968619823455810546875">
        <ele>1404.800048828125</ele>
        <time>2022-05-04T10:19:28.000Z</time>
      </trkpt>
      <trkpt lat="40.61388024128973484039306640625" lon="-1.817090325057506561279296875">
        <ele>1403.5999755859375</ele>
        <time>2022-05-04T10:19:30.000Z</time>
      </trkpt>
      <trkpt lat="40.61365242116153240203857421875" lon="-1.8172220885753631591796875">
        <ele>1400.5999755859375</ele>
        <time>2022-05-04T10:19:32.000Z</time>
      </trkpt>
      <trkpt lat="40.6134240143001079559326171875" lon="-1.817354522645473480224609375">
        <ele>1397.5999755859375</ele>
        <time>2022-05-04T10:19:34.000Z</time>
      </trkpt>
      <trkpt lat="40.61320482753217220306396484375" lon="-1.81747815571725368499755859375">
        <ele>1395.199951171875</ele>
        <time>2022-05-04T10:19:36.000Z</time>
      </trkpt>
      <trkpt lat="40.61298924498260021209716796875" lon="-1.81759935803711414337158203125">
        <ele>1392.800048828125</ele>
        <time>2022-05-04T10:19:38.000Z</time>
      </trkpt>
      <trkpt lat="40.61277617700397968292236328125" lon="-1.817719973623752593994140625">
        <ele>1390.4000244140625</ele>
        <time>2022-05-04T10:19:40.000Z</time>
      </trkpt>
      <trkpt lat="40.61256830580532550811767578125" lon="-1.8178405053913593292236328125">
        <ele>1387.800048828125</ele>
        <time>2022-05-04T10:19:42.000Z</time>
      </trkpt>
      <trkpt lat="40.61235867440700531005859375" lon="-1.817961372435092926025390625">
        <ele>1385.5999755859375</ele>
        <time>2022-05-04T10:19:44.000Z</time>
      </trkpt>
      <trkpt lat="40.61225247569382190704345703125" lon="-1.818022392690181732177734375">
        <ele>1384.4000244140625</ele>
        <time>2022-05-04T10:19:45.000Z</time>
      </trkpt>
      <trkpt lat="40.6121461093425750732421875" lon="-1.81808165274560451507568359375">
        <ele>1383.5999755859375</ele>
        <time>2022-05-04T10:19:46.000Z</time>
      </trkpt>
      <trkpt lat="40.61193681322038173675537109375" lon="-1.8181969039142131805419921875">
        <ele>1382.800048828125</ele>
        <time>2022-05-04T10:19:48.000Z</time>
      </trkpt>
      <trkpt lat="40.6117335520684719085693359375" lon="-1.81830846704542636871337890625">
        <ele>1381.800048828125</ele>
        <time>2022-05-04T10:19:50.000Z</time>
      </trkpt>
      <trkpt lat="40.61142451129853725433349609375" lon="-1.818487755954265594482421875">
        <ele>1379.800048828125</ele>
        <time>2022-05-04T10:19:53.000Z</time>
      </trkpt>
      <trkpt lat="40.6112172268331050872802734375" lon="-1.81860904209315776824951171875">
        <ele>1378.199951171875</ele>
        <time>2022-05-04T10:19:55.000Z</time>
      </trkpt>
      <trkpt lat="40.61100675724446773529052734375" lon="-1.8187393806874752044677734375">
        <ele>1376.4000244140625</ele>
        <time>2022-05-04T10:19:57.000Z</time>
      </trkpt>
      <trkpt lat="40.61079494655132293701171875" lon="-1.818878352642059326171875">
        <ele>1374.4000244140625</ele>
        <time>2022-05-04T10:19:59.000Z</time>
      </trkpt>
      <trkpt lat="40.610588751733303070068359375" lon="-1.819025538861751556396484375">
        <ele>1372.199951171875</ele>
        <time>2022-05-04T10:20:01.000Z</time>
      </trkpt>
      <trkpt lat="40.61048707924783229827880859375" lon="-1.819103322923183441162109375">
        <ele>1371.199951171875</ele>
        <time>2022-05-04T10:20:02.000Z</time>
      </trkpt>
      <trkpt lat="40.61038666404783725738525390625" lon="-1.81918479502201080322265625">
        <ele>1370</ele>
        <time>2022-05-04T10:20:03.000Z</time>
      </trkpt>
      <trkpt lat="40.6102865003049373626708984375" lon="-1.81926920078694820404052734375">
        <ele>1369</ele>
        <time>2022-05-04T10:20:04.000Z</time>
      </trkpt>
      <trkpt lat="40.61018516309559345245361328125" lon="-1.819355450570583343505859375">
        <ele>1368</ele>
        <time>2022-05-04T10:20:05.000Z</time>
      </trkpt>
      <trkpt lat="40.60998466797173023223876953125" lon="-1.81953323073685169219970703125">
        <ele>1365.5999755859375</ele>
        <time>2022-05-04T10:20:07.000Z</time>
      </trkpt>
      <trkpt lat="40.60988509096205234527587890625" lon="-1.81962811388075351715087890625">
        <ele>1364.4000244140625</ele>
        <time>2022-05-04T10:20:08.000Z</time>
      </trkpt>
      <trkpt lat="40.60978584922850131988525390625" lon="-1.8197264336049556732177734375">
        <ele>1363</ele>
        <time>2022-05-04T10:20:09.000Z</time>
      </trkpt>
      <trkpt lat="40.609590299427509307861328125" lon="-1.8199326284229755401611328125">
        <ele>1360.199951171875</ele>
        <time>2022-05-04T10:20:11.000Z</time>
      </trkpt>
      <trkpt lat="40.60939977876842021942138671875" lon="-1.82014443911612033843994140625">
        <ele>1358.199951171875</ele>
        <time>2022-05-04T10:20:13.000Z</time>
      </trkpt>
      <trkpt lat="40.60930891893804073333740234375" lon="-1.82025231420993804931640625">
        <ele>1357</ele>
        <time>2022-05-04T10:20:14.000Z</time>
      </trkpt>
      <trkpt lat="40.609221160411834716796875" lon="-1.82035960257053375244140625">
        <ele>1356</ele>
        <time>2022-05-04T10:20:15.000Z</time>
      </trkpt>
      <trkpt lat="40.6091375090181827545166015625" lon="-1.82046554982662200927734375">
        <ele>1354.800048828125</ele>
        <time>2022-05-04T10:20:16.000Z</time>
      </trkpt>
      <trkpt lat="40.608977414667606353759765625" lon="-1.82066361419856548309326171875">
        <ele>1352.800048828125</ele>
        <time>2022-05-04T10:20:18.000Z</time>
      </trkpt>
      <trkpt lat="40.60889636166393756866455078125" lon="-1.8207460083067417144775390625">
        <ele>1351.800048828125</ele>
        <time>2022-05-04T10:20:19.000Z</time>
      </trkpt>
      <trkpt lat="40.608813129365444183349609375" lon="-1.8208140693604946136474609375">
        <ele>1350.4000244140625</ele>
        <time>2022-05-04T10:20:20.000Z</time>
      </trkpt>
      <trkpt lat="40.60864121653139591217041015625" lon="-1.82090065442025661468505859375">
        <ele>1347.800048828125</ele>
        <time>2022-05-04T10:20:22.000Z</time>
      </trkpt>
      <trkpt lat="40.60846586711704730987548828125" lon="-1.8209123052656650543212890625">
        <ele>1347.4000244140625</ele>
        <time>2022-05-04T10:20:24.000Z</time>
      </trkpt>
      <trkpt lat="40.608378611505031585693359375" lon="-1.8208878301084041595458984375">
        <ele>1348.199951171875</ele>
        <time>2022-05-04T10:20:25.000Z</time>
      </trkpt>
      <trkpt lat="40.608296133577823638916015625" lon="-1.820842735469341278076171875">
        <ele>1349.4000244140625</ele>
        <time>2022-05-04T10:20:26.000Z</time>
      </trkpt>
      <trkpt lat="40.60814601369202136993408203125" lon="-1.82070284150540828704833984375">
        <ele>1353.4000244140625</ele>
        <time>2022-05-04T10:20:28.000Z</time>
      </trkpt>
      <trkpt lat="40.60802648775279521942138671875" lon="-1.82051114737987518310546875">
        <ele>1355</ele>
        <time>2022-05-04T10:20:30.000Z</time>
      </trkpt>
      <trkpt lat="40.6079838238656520843505859375" lon="-1.82039790786802768707275390625">
        <ele>1355</ele>
        <time>2022-05-04T10:20:31.000Z</time>
      </trkpt>
      <trkpt lat="40.6079637072980403900146484375" lon="-1.82015349157154560089111328125">
        <ele>1356.5999755859375</ele>
        <time>2022-05-04T10:20:33.000Z</time>
      </trkpt>
      <trkpt lat="40.60798072256147861480712890625" lon="-1.820026338100433349609375">
        <ele>1358.4000244140625</ele>
        <time>2022-05-04T10:20:34.000Z</time>
      </trkpt>
      <trkpt lat="40.60801022686064243316650390625" lon="-1.819901280105113983154296875">
        <ele>1360.5999755859375</ele>
        <time>2022-05-04T10:20:35.000Z</time>
      </trkpt>
      <trkpt lat="40.60807510279119014739990234375" lon="-1.81965828873217105865478515625">
        <ele>1361.199951171875</ele>
        <time>2022-05-04T10:20:37.000Z</time>
      </trkpt>
      <trkpt lat="40.60811005532741546630859375" lon="-1.819537170231342315673828125">
        <ele>1361.4000244140625</ele>
        <time>2022-05-04T10:20:38.000Z</time>
      </trkpt>
      <trkpt lat="40.6081611849367618560791015625" lon="-1.81928495876491069793701171875">
        <ele>1361.199951171875</ele>
        <time>2022-05-04T10:20:40.000Z</time>
      </trkpt>
      <trkpt lat="40.60816965065896511077880859375" lon="-1.81915570981800556182861328125">
        <ele>1360.4000244140625</ele>
        <time>2022-05-04T10:20:41.000Z</time>
      </trkpt>
      <trkpt lat="40.60816244222223758697509765625" lon="-1.81902796961367130279541015625">
        <ele>1359.5999755859375</ele>
        <time>2022-05-04T10:20:42.000Z</time>
      </trkpt>
      <trkpt lat="40.6080971471965312957763671875" lon="-1.81877751834690570831298828125">
        <ele>1357.5999755859375</ele>
        <time>2022-05-04T10:20:44.000Z</time>
      </trkpt>
      <trkpt lat="40.60795272700488567352294921875" lon="-1.81857015006244182586669921875">
        <ele>1353.4000244140625</ele>
        <time>2022-05-04T10:20:46.000Z</time>
      </trkpt>
      <trkpt lat="40.6077782995998859405517578125" lon="-1.818403936922550201416015625">
        <ele>1349.199951171875</ele>
        <time>2022-05-04T10:20:48.000Z</time>
      </trkpt>
      <trkpt lat="40.60768752358853816986083984375" lon="-1.818326823413372039794921875">
        <ele>1347.4000244140625</ele>
        <time>2022-05-04T10:20:49.000Z</time>
      </trkpt>
      <trkpt lat="40.607602111995220184326171875" lon="-1.81824409402906894683837890625">
        <ele>1346</ele>
        <time>2022-05-04T10:20:50.000Z</time>
      </trkpt>
      <trkpt lat="40.60752667486667633056640625" lon="-1.818153150379657745361328125">
        <ele>1344.4000244140625</ele>
        <time>2022-05-04T10:20:51.000Z</time>
      </trkpt>
      <trkpt lat="40.6074617989361286163330078125" lon="-1.81805516593158245086669921875">
        <ele>1343</ele>
        <time>2022-05-04T10:20:52.000Z</time>
      </trkpt>
      <trkpt lat="40.60741226188838481903076171875" lon="-1.81794888339936733245849609375">
        <ele>1341.800048828125</ele>
        <time>2022-05-04T10:20:53.000Z</time>
      </trkpt>
      <trkpt lat="40.607376806437969207763671875" lon="-1.81783706881105899810791015625">
        <ele>1340.4000244140625</ele>
        <time>2022-05-04T10:20:54.000Z</time>
      </trkpt>
      <trkpt lat="40.60735040344297885894775390625" lon="-1.81758929975330829620361328125">
        <ele>1339</ele>
        <time>2022-05-04T10:20:56.000Z</time>
      </trkpt>
      <trkpt lat="40.607401616871356964111328125" lon="-1.817334406077861785888671875">
        <ele>1339</ele>
        <time>2022-05-04T10:20:58.000Z</time>
      </trkpt>
      <trkpt lat="40.60744746588170528411865234375" lon="-1.81721203029155731201171875">
        <ele>1339.4000244140625</ele>
        <time>2022-05-04T10:20:59.000Z</time>
      </trkpt>
      <trkpt lat="40.6075005233287811279296875" lon="-1.8170945160090923309326171875">
        <ele>1339.800048828125</ele>
        <time>2022-05-04T10:21:00.000Z</time>
      </trkpt>
      <trkpt lat="40.60755726881325244903564453125" lon="-1.8169806897640228271484375">
        <ele>1340.199951171875</ele>
        <time>2022-05-04T10:21:01.000Z</time>
      </trkpt>
      <trkpt lat="40.6076163612306118011474609375" lon="-1.81686895899474620819091796875">
        <ele>1340.5999755859375</ele>
        <time>2022-05-04T10:21:02.000Z</time>
      </trkpt>
      <trkpt lat="40.60773915611207485198974609375" lon="-1.81664382107555866241455078125">
        <ele>1341.199951171875</ele>
        <time>2022-05-04T10:21:04.000Z</time>
      </trkpt>
      <trkpt lat="40.607858262956142425537109375" lon="-1.816414408385753631591796875">
        <ele>1342.199951171875</ele>
        <time>2022-05-04T10:21:06.000Z</time>
      </trkpt>
      <trkpt lat="40.60796664096415042877197265625" lon="-1.81617678143084049224853515625">
        <ele>1342.800048828125</ele>
        <time>2022-05-04T10:21:08.000Z</time>
      </trkpt>
      <trkpt lat="40.6080584228038787841796875" lon="-1.81592666544020175933837890625">
        <ele>1343.199951171875</ele>
        <time>2022-05-04T10:21:10.000Z</time>
      </trkpt>
      <trkpt lat="40.608130507171154022216796875" lon="-1.8156665749847888946533203125">
        <ele>1343</ele>
        <time>2022-05-04T10:21:12.000Z</time>
      </trkpt>
      <trkpt lat="40.608210973441600799560546875" lon="-1.8152726255357265472412109375">
        <ele>1340.800048828125</ele>
        <time>2022-05-04T10:21:15.000Z</time>
      </trkpt>
      <trkpt lat="40.60825355350971221923828125" lon="-1.8150065839290618896484375">
        <ele>1339</ele>
        <time>2022-05-04T10:21:17.000Z</time>
      </trkpt>
      <trkpt lat="40.6083040125668048858642578125" lon="-1.8146020732820034027099609375">
        <ele>1334.5999755859375</ele>
        <time>2022-05-04T10:21:20.000Z</time>
      </trkpt>
      <trkpt lat="40.60833209194242954254150390625" lon="-1.81433427147567272186279296875">
        <ele>1333.800048828125</ele>
        <time>2022-05-04T10:21:22.000Z</time>
      </trkpt>
      <trkpt lat="40.6083626858890056610107421875" lon="-1.814066469669342041015625">
        <ele>1333</ele>
        <time>2022-05-04T10:21:24.000Z</time>
      </trkpt>
      <trkpt lat="40.6083908490836620330810546875" lon="-1.81367411278188228607177734375">
        <ele>1325.5999755859375</ele>
        <time>2022-05-04T10:21:27.000Z</time>
      </trkpt>
      <trkpt lat="40.608398728072643280029296875" lon="-1.81342164985835552215576171875">
        <ele>1324.199951171875</ele>
        <time>2022-05-04T10:21:29.000Z</time>
      </trkpt>
      <trkpt lat="40.60839730314910411834716796875" lon="-1.81330002844333648681640625">
        <ele>1323.4000244140625</ele>
        <time>2022-05-04T10:21:30.000Z</time>
      </trkpt>
      <trkpt lat="40.60836008749902248382568359375" lon="-1.8128479085862636566162109375">
        <ele>1318.5999755859375</ele>
        <time>2022-05-04T10:21:34.000Z</time>
      </trkpt>
      <trkpt lat="40.6082869134843349456787109375" lon="-1.812465526163578033447265625">
        <ele>1316.4000244140625</ele>
        <time>2022-05-04T10:21:38.000Z</time>
      </trkpt>
      <trkpt lat="40.60826319269835948944091796875" lon="-1.81238179095089435577392578125">
        <ele>1315.800048828125</ele>
        <time>2022-05-04T10:21:39.000Z</time>
      </trkpt>
      <trkpt lat="40.608088932931423187255859375" lon="-1.811938472092151641845703125">
        <ele>1318.4000244140625</ele>
        <time>2022-05-04T10:21:45.000Z</time>
      </trkpt>
      <trkpt lat="40.607841499149799346923828125" lon="-1.81151325814425945281982421875">
        <ele>1319</ele>
        <time>2022-05-04T10:21:52.000Z</time>
      </trkpt>
      <trkpt lat="40.60780587606132030487060546875" lon="-1.811459027230739593505859375">
        <ele>1319</ele>
        <time>2022-05-04T10:21:53.000Z</time>
      </trkpt>
      <trkpt lat="40.60755860991775989532470703125" lon="-1.8111554346978664398193359375">
        <ele>1319</ele>
        <time>2022-05-04T10:21:59.000Z</time>
      </trkpt>
      <trkpt lat="40.60721687972545623779296875" lon="-1.8107732199132442474365234375">
        <ele>1316.199951171875</ele>
        <time>2022-05-04T10:22:07.000Z</time>
      </trkpt>
      <trkpt lat="40.6069042347371578216552734375" lon="-1.81039963848888874053955078125">
        <ele>1317</ele>
        <time>2022-05-04T10:22:15.000Z</time>
      </trkpt>
      <trkpt lat="40.606565773487091064453125" lon="-1.8099839799106121063232421875">
        <ele>1316</ele>
        <time>2022-05-04T10:22:24.000Z</time>
      </trkpt>
      <trkpt lat="40.60617861337959766387939453125" lon="-1.80951233021914958953857421875">
        <ele>1314</ele>
        <time>2022-05-04T10:22:34.000Z</time>
      </trkpt>
      <trkpt lat="40.6057753600180149078369140625" lon="-1.80902869440615177154541015625">
        <ele>1312.800048828125</ele>
        <time>2022-05-04T10:22:44.000Z</time>
      </trkpt>
      <trkpt lat="40.605734288692474365234375" lon="-1.80898091755807399749755859375">
        <ele>1312.800048828125</ele>
        <time>2022-05-04T10:22:45.000Z</time>
      </trkpt>
      <trkpt lat="40.60529398731887340545654296875" lon="-1.80850314907729625701904296875">
        <ele>1317.5999755859375</ele>
        <time>2022-05-04T10:22:55.000Z</time>
      </trkpt>
      <trkpt lat="40.60515283606946468353271484375" lon="-1.80836568586528301239013671875">
        <ele>1317.800048828125</ele>
        <time>2022-05-04T10:22:58.000Z</time>
      </trkpt>
      <trkpt lat="40.6048156321048736572265625" lon="-1.80805756710469722747802734375">
        <ele>1318.199951171875</ele>
        <time>2022-05-04T10:23:05.000Z</time>
      </trkpt>
      <trkpt lat="40.6043115444481372833251953125" lon="-1.80763788521289825439453125">
        <ele>1318.199951171875</ele>
        <time>2022-05-04T10:23:15.000Z</time>
      </trkpt>
      <trkpt lat="40.60426183976233005523681640625" lon="-1.80759773589670658111572265625">
        <ele>1318</ele>
        <time>2022-05-04T10:23:16.000Z</time>
      </trkpt>
      <trkpt lat="40.60387543402612209320068359375" lon="-1.80728777311742305755615234375">
        <ele>1316.5999755859375</ele>
        <time>2022-05-04T10:23:24.000Z</time>
      </trkpt>
      <trkpt lat="40.603789351880550384521484375" lon="-1.8072169460356235504150390625">
        <ele>1317.4000244140625</ele>
        <time>2022-05-04T10:23:26.000Z</time>
      </trkpt>
      <trkpt lat="40.60351073741912841796875" lon="-1.806983090937137603759765625">
        <ele>1320.4000244140625</ele>
        <time>2022-05-04T10:23:33.000Z</time>
      </trkpt>
      <trkpt lat="40.60343454591929912567138671875" lon="-1.8069239147007465362548828125">
        <ele>1321</ele>
        <time>2022-05-04T10:23:35.000Z</time>
      </trkpt>
      <trkpt lat="40.60318778268992900848388671875" lon="-1.80671277455985546112060546875">
        <ele>1321.4000244140625</ele>
        <time>2022-05-04T10:23:42.000Z</time>
      </trkpt>
      <trkpt lat="40.603153668344020843505859375" lon="-1.80668544955551624298095703125">
        <ele>1321.5999755859375</ele>
        <time>2022-05-04T10:23:43.000Z</time>
      </trkpt>
      <trkpt lat="40.60300958342850208282470703125" lon="-1.80657707154750823974609375">
        <ele>1321.800048828125</ele>
        <time>2022-05-04T10:23:48.000Z</time>
      </trkpt>
      <trkpt lat="40.60290950350463390350341796875" lon="-1.8064816854894161224365234375">
        <ele>1321.800048828125</ele>
        <time>2022-05-04T10:23:52.000Z</time>
      </trkpt>
      <trkpt lat="40.60283607803285121917724609375" lon="-1.8063864670693874359130859375">
        <ele>1322.199951171875</ele>
        <time>2022-05-04T10:23:55.000Z</time>
      </trkpt>
      <trkpt lat="40.602746643126010894775390625" lon="-1.8062661029398441314697265625">
        <ele>1322.800048828125</ele>
        <time>2022-05-04T10:23:59.000Z</time>
      </trkpt>
      <trkpt lat="40.60266072861850261688232421875" lon="-1.80615303106606006622314453125">
        <ele>1323.4000244140625</ele>
        <time>2022-05-04T10:24:03.000Z</time>
      </trkpt>
      <trkpt lat="40.6026023067533969879150390625" lon="-1.8060535378754138946533203125">
        <ele>1323.5999755859375</ele>
        <time>2022-05-04T10:24:06.000Z</time>
      </trkpt>
      <trkpt lat="40.60250650160014629364013671875" lon="-1.8058869056403636932373046875">
        <ele>1323.4000244140625</ele>
        <time>2022-05-04T10:24:11.000Z</time>
      </trkpt>
      <trkpt lat="40.6024309806525707244873046875" lon="-1.805749274790287017822265625">
        <ele>1323.4000244140625</ele>
        <time>2022-05-04T10:24:15.000Z</time>
      </trkpt>
      <trkpt lat="40.6023749895393848419189453125" lon="-1.80565112270414829254150390625">
        <ele>1324</ele>
        <time>2022-05-04T10:24:18.000Z</time>
      </trkpt>
      <trkpt lat="40.60225102119147777557373046875" lon="-1.8054101429879665374755859375">
        <ele>1325.4000244140625</ele>
        <time>2022-05-04T10:24:25.000Z</time>
      </trkpt>
      <trkpt lat="40.60223358683288097381591796875" lon="-1.8053776212036609649658203125">
        <ele>1325.4000244140625</ele>
        <time>2022-05-04T10:24:26.000Z</time>
      </trkpt>
      <trkpt lat="40.60211070813238620758056640625" lon="-1.80513932369649410247802734375">
        <ele>1327.199951171875</ele>
        <time>2022-05-04T10:24:33.000Z</time>
      </trkpt>
      <trkpt lat="40.60197274200618267059326171875" lon="-1.80489490740001201629638671875">
        <ele>1328.199951171875</ele>
        <time>2022-05-04T10:24:40.000Z</time>
      </trkpt>
      <trkpt lat="40.6019317544996738433837890625" lon="-1.80482449941337108612060546875">
        <ele>1328.800048828125</ele>
        <time>2022-05-04T10:24:42.000Z</time>
      </trkpt>
      <trkpt lat="40.60172681696712970733642578125" lon="-1.80450296960771083831787109375">
        <ele>1332.199951171875</ele>
        <time>2022-05-04T10:24:51.000Z</time>
      </trkpt>
      <trkpt lat="40.6016725860536098480224609375" lon="-1.80442862212657928466796875">
        <ele>1332.199951171875</ele>
        <time>2022-05-04T10:24:53.000Z</time>
      </trkpt>
      <trkpt lat="40.60153705067932605743408203125" lon="-1.80424162186682224273681640625">
        <ele>1332</ele>
        <time>2022-05-04T10:24:58.000Z</time>
      </trkpt>
      <trkpt lat="40.60134418308734893798828125" lon="-1.80397239513695240020751953125">
        <ele>1331.800048828125</ele>
        <time>2022-05-04T10:25:05.000Z</time>
      </trkpt>
      <trkpt lat="40.6011190451681613922119140625" lon="-1.80357475765049457550048828125">
        <ele>1333</ele>
        <time>2022-05-04T10:25:14.000Z</time>
      </trkpt>
      <trkpt lat="40.60096456669270992279052734375" lon="-1.80320461280643939971923828125">
        <ele>1331.800048828125</ele>
        <time>2022-05-04T10:25:21.000Z</time>
      </trkpt>
      <trkpt lat="40.60094931162893772125244140625" lon="-1.80314962752163410186767578125">
        <ele>1332.199951171875</ele>
        <time>2022-05-04T10:25:22.000Z</time>
      </trkpt>
      <trkpt lat="40.600820481777191162109375" lon="-1.80274377577006816864013671875">
        <ele>1333</ele>
        <time>2022-05-04T10:25:29.000Z</time>
      </trkpt>
      <trkpt lat="40.60080631636083126068115234375" lon="-1.80268577300012111663818359375">
        <ele>1332.800048828125</ele>
        <time>2022-05-04T10:25:30.000Z</time>
      </trkpt>
      <trkpt lat="40.60075317509472370147705078125" lon="-1.8023993633687496185302734375">
        <ele>1333</ele>
        <time>2022-05-04T10:25:35.000Z</time>
      </trkpt>
      <trkpt lat="40.60069768689572811126708984375" lon="-1.80189938284456729888916015625">
        <ele>1332.199951171875</ele>
        <time>2022-05-04T10:25:43.000Z</time>
      </trkpt>
      <trkpt lat="40.600704811513423919677734375" lon="-1.8013489432632923126220703125">
        <ele>1332</ele>
        <time>2022-05-04T10:25:52.000Z</time>
      </trkpt>
      <trkpt lat="40.6007690168917179107666015625" lon="-1.8008114956319332122802734375">
        <ele>1330</ele>
        <time>2022-05-04T10:26:01.000Z</time>
      </trkpt>
      <trkpt lat="40.60082157142460346221923828125" lon="-1.80036566220223903656005859375">
        <ele>1328.199951171875</ele>
        <time>2022-05-04T10:26:09.000Z</time>
      </trkpt>
      <trkpt lat="40.6008514948189258575439453125" lon="-1.7999783344566822052001953125">
        <ele>1329.4000244140625</ele>
        <time>2022-05-04T10:26:16.000Z</time>
      </trkpt>
      <trkpt lat="40.60085560195147991180419921875" lon="-1.79957508109509944915771484375">
        <ele>1327.5999755859375</ele>
        <time>2022-05-04T10:26:24.000Z</time>
      </trkpt>
      <trkpt lat="40.6008132733404636383056640625" lon="-1.799171157181262969970703125">
        <ele>1325.4000244140625</ele>
        <time>2022-05-04T10:26:32.000Z</time>
      </trkpt>
      <trkpt lat="40.60080396942794322967529296875" lon="-1.79911977611482143402099609375">
        <ele>1325</ele>
        <time>2022-05-04T10:26:33.000Z</time>
      </trkpt>
      <trkpt lat="40.600702464580535888671875" lon="-1.7986231483519077301025390625">
        <ele>1325</ele>
        <time>2022-05-04T10:26:43.000Z</time>
      </trkpt>
      <trkpt lat="40.60057514347136020660400390625" lon="-1.798230372369289398193359375">
        <ele>1324.800048828125</ele>
        <time>2022-05-04T10:26:52.000Z</time>
      </trkpt>
      <trkpt lat="40.60043768025934696197509765625" lon="-1.79787958972156047821044921875">
        <ele>1327.800048828125</ele>
        <time>2022-05-04T10:27:00.000Z</time>
      </trkpt>
      <trkpt lat="40.6003576330840587615966796875" lon="-1.79770960472524166107177734375">
        <ele>1329.4000244140625</ele>
        <time>2022-05-04T10:27:04.000Z</time>
      </trkpt>
      <trkpt lat="40.60028395615518093109130859375" lon="-1.79753643460571765899658203125">
        <ele>1330.800048828125</ele>
        <time>2022-05-04T10:27:08.000Z</time>
      </trkpt>
      <trkpt lat="40.60011765919625759124755859375" lon="-1.7971315048635005950927734375">
        <ele>1332.5999755859375</ele>
        <time>2022-05-04T10:27:17.000Z</time>
      </trkpt>
      <trkpt lat="40.5999915115535259246826171875" lon="-1.79681927897036075592041015625">
        <ele>1332.5999755859375</ele>
        <time>2022-05-04T10:27:24.000Z</time>
      </trkpt>
      <trkpt lat="40.59992956928908824920654296875" lon="-1.79663672111928462982177734375">
        <ele>1332</ele>
        <time>2022-05-04T10:27:28.000Z</time>
      </trkpt>
      <trkpt lat="40.5998473428189754486083984375" lon="-1.7963504791259765625">
        <ele>1330.800048828125</ele>
        <time>2022-05-04T10:27:34.000Z</time>
      </trkpt>
      <trkpt lat="40.59974969364702701568603515625" lon="-1.79589274339377880096435546875">
        <ele>1330.5999755859375</ele>
        <time>2022-05-04T10:27:43.000Z</time>
      </trkpt>
      <trkpt lat="40.599721781909465789794921875" lon="-1.79573499597609043121337890625">
        <ele>1330.5999755859375</ele>
        <time>2022-05-04T10:27:46.000Z</time>
      </trkpt>
      <trkpt lat="40.5996039323508739471435546875" lon="-1.7952065169811248779296875">
        <ele>1333.199951171875</ele>
        <time>2022-05-04T10:27:56.000Z</time>
      </trkpt>
      <trkpt lat="40.59948432259261608123779296875" lon="-1.7947362922132015228271484375">
        <ele>1336.800048828125</ele>
        <time>2022-05-04T10:28:05.000Z</time>
      </trkpt>
      <trkpt lat="40.5993437580764293670654296875" lon="-1.79435416124761104583740234375">
        <ele>1340.5999755859375</ele>
        <time>2022-05-04T10:28:13.000Z</time>
      </trkpt>
      <trkpt lat="40.59919263236224651336669921875" lon="-1.79403112269937992095947265625">
        <ele>1338.5999755859375</ele>
        <time>2022-05-04T10:28:20.000Z</time>
      </trkpt>
      <trkpt lat="40.59902365319430828094482421875" lon="-1.79372903890907764434814453125">
        <ele>1334.4000244140625</ele>
        <time>2022-05-04T10:28:27.000Z</time>
      </trkpt>
      <trkpt lat="40.59894226491451263427734375" lon="-1.79360632784664630889892578125">
        <ele>1333.800048828125</ele>
        <time>2022-05-04T10:28:30.000Z</time>
      </trkpt>
      <trkpt lat="40.59880237095057964324951171875" lon="-1.79341689683496952056884765625">
        <ele>1332.5999755859375</ele>
        <time>2022-05-04T10:28:35.000Z</time>
      </trkpt>
      <trkpt lat="40.59858955442905426025390625" lon="-1.79318589158356189727783203125">
        <ele>1332</ele>
        <time>2022-05-04T10:28:42.000Z</time>
      </trkpt>
      <trkpt lat="40.5985592119395732879638671875" lon="-1.7931558005511760711669921875">
        <ele>1332.199951171875</ele>
        <time>2022-05-04T10:28:43.000Z</time>
      </trkpt>
      <trkpt lat="40.598296858370304107666015625" lon="-1.7928842268884181976318359375">
        <ele>1333</ele>
        <time>2022-05-04T10:28:52.000Z</time>
      </trkpt>
      <trkpt lat="40.59826693497598171234130859375" lon="-1.79285447113215923309326171875">
        <ele>1333</ele>
        <time>2022-05-04T10:28:53.000Z</time>
      </trkpt>
      <trkpt lat="40.59803509153425693511962890625" lon="-1.792609803378582000732421875">
        <ele>1332.800048828125</ele>
        <time>2022-05-04T10:29:01.000Z</time>
      </trkpt>
      <trkpt lat="40.59800927527248859405517578125" lon="-1.79257501848042011260986328125">
        <ele>1332.800048828125</ele>
        <time>2022-05-04T10:29:02.000Z</time>
      </trkpt>
      <trkpt lat="40.5978326685726642608642578125" lon="-1.79234820418059825897216796875">
        <ele>1332.5999755859375</ele>
        <time>2022-05-04T10:29:09.000Z</time>
      </trkpt>
      <trkpt lat="40.59773937799036502838134765625" lon="-1.792214848101139068603515625">
        <ele>1333.5999755859375</ele>
        <time>2022-05-04T10:29:13.000Z</time>
      </trkpt>
      <trkpt lat="40.59767425060272216796875" lon="-1.792109571397304534912109375">
        <ele>1334.5999755859375</ele>
        <time>2022-05-04T10:29:16.000Z</time>
      </trkpt>
      <trkpt lat="40.5975575745105743408203125" lon="-1.79189759306609630584716796875">
        <ele>1335.5999755859375</ele>
        <time>2022-05-04T10:29:22.000Z</time>
      </trkpt>
      <trkpt lat="40.5974792875349521636962890625" lon="-1.7917571961879730224609375">
        <ele>1334.800048828125</ele>
        <time>2022-05-04T10:29:26.000Z</time>
      </trkpt>
      <trkpt lat="40.5973662994801998138427734375" lon="-1.7915454693138599395751953125">
        <ele>1333.800048828125</ele>
        <time>2022-05-04T10:29:32.000Z</time>
      </trkpt>
      <trkpt lat="40.59723730199038982391357421875" lon="-1.79129024036228656768798828125">
        <ele>1333.4000244140625</ele>
        <time>2022-05-04T10:29:39.000Z</time>
      </trkpt>
      <trkpt lat="40.5971590988337993621826171875" lon="-1.7911469936370849609375">
        <ele>1333.4000244140625</ele>
        <time>2022-05-04T10:29:43.000Z</time>
      </trkpt>
      <trkpt lat="40.597102940082550048828125" lon="-1.79103710688650608062744140625">
        <ele>1334.4000244140625</ele>
        <time>2022-05-04T10:29:46.000Z</time>
      </trkpt>
      <trkpt lat="40.596936978399753570556640625" lon="-1.790741644799709320068359375">
        <ele>1335.800048828125</ele>
        <time>2022-05-04T10:29:54.000Z</time>
      </trkpt>
      <trkpt lat="40.59673371724784374237060546875" lon="-1.7904239706695079803466796875">
        <ele>1338.5999755859375</ele>
        <time>2022-05-04T10:30:02.000Z</time>
      </trkpt>
      <trkpt lat="40.59655384160578250885009765625" lon="-1.79018466733396053314208984375">
        <ele>1340.5999755859375</ele>
        <time>2022-05-04T10:30:08.000Z</time>
      </trkpt>
      <trkpt lat="40.59628444723784923553466796875" lon="-1.78991175256669521331787109375">
        <ele>1342.4000244140625</ele>
        <time>2022-05-04T10:30:15.000Z</time>
      </trkpt>
      <trkpt lat="40.59597079642117023468017578125" lon="-1.7896595411002635955810546875">
        <ele>1343.4000244140625</ele>
        <time>2022-05-04T10:30:22.000Z</time>
      </trkpt>
      <trkpt lat="40.59592209756374359130859375" lon="-1.7896297015249729156494140625">
        <ele>1343.5999755859375</ele>
        <time>2022-05-04T10:30:23.000Z</time>
      </trkpt>
      <trkpt lat="40.5955336801707744598388671875" lon="-1.7894325591623783111572265625">
        <ele>1340.800048828125</ele>
        <time>2022-05-04T10:30:31.000Z</time>
      </trkpt>
      <trkpt lat="40.59526269324123859405517578125" lon="-1.78934387862682342529296875">
        <ele>1341.4000244140625</ele>
        <time>2022-05-04T10:30:37.000Z</time>
      </trkpt>
      <trkpt lat="40.594959519803524017333984375" lon="-1.78927372209727764129638671875">
        <ele>1342</ele>
        <time>2022-05-04T10:30:44.000Z</time>
      </trkpt>
      <trkpt lat="40.5947166122496128082275390625" lon="-1.7892350815236568450927734375">
        <ele>1342.4000244140625</ele>
        <time>2022-05-04T10:30:50.000Z</time>
      </trkpt>
      <trkpt lat="40.59455743990838527679443359375" lon="-1.78922963328659534454345703125">
        <ele>1342.800048828125</ele>
        <time>2022-05-04T10:30:54.000Z</time>
      </trkpt>
      <trkpt lat="40.5944423563778400421142578125" lon="-1.7892359197139739990234375">
        <ele>1342.800048828125</ele>
        <time>2022-05-04T10:30:57.000Z</time>
      </trkpt>
      <trkpt lat="40.59429894201457500457763671875" lon="-1.78924757055938243865966796875">
        <ele>1342</ele>
        <time>2022-05-04T10:31:01.000Z</time>
      </trkpt>
      <trkpt lat="40.59422501362860202789306640625" lon="-1.78925343789160251617431640625">
        <ele>1341.5999755859375</ele>
        <time>2022-05-04T10:31:03.000Z</time>
      </trkpt>
      <trkpt lat="40.5939495004713535308837890625" lon="-1.7892863787710666656494140625">
        <ele>1340</ele>
        <time>2022-05-04T10:31:11.000Z</time>
      </trkpt>
      <trkpt lat="40.59374037198722362518310546875" lon="-1.7893088422715663909912109375">
        <ele>1339.4000244140625</ele>
        <time>2022-05-04T10:31:17.000Z</time>
      </trkpt>
      <trkpt lat="40.5937044136226177215576171875" lon="-1.7893125303089618682861328125">
        <ele>1339.199951171875</ele>
        <time>2022-05-04T10:31:18.000Z</time>
      </trkpt>
      <trkpt lat="40.5935273878276348114013671875" lon="-1.7893430404365062713623046875">
        <ele>1339</ele>
        <time>2022-05-04T10:31:23.000Z</time>
      </trkpt>
      <trkpt lat="40.59342353604733943939208984375" lon="-1.78936776705086231231689453125">
        <ele>1339.4000244140625</ele>
        <time>2022-05-04T10:31:26.000Z</time>
      </trkpt>
      <trkpt lat="40.59314140118658542633056640625" lon="-1.78942493163049221038818359375">
        <ele>1340.199951171875</ele>
        <time>2022-05-04T10:31:34.000Z</time>
      </trkpt>
      <trkpt lat="40.5930328555405139923095703125" lon="-1.78945728577673435211181640625">
        <ele>1340.4000244140625</ele>
        <time>2022-05-04T10:31:37.000Z</time>
      </trkpt>
      <trkpt lat="40.59282540343701839447021484375" lon="-1.78953859023749828338623046875">
        <ele>1339.5999755859375</ele>
        <time>2022-05-04T10:31:43.000Z</time>
      </trkpt>
      <trkpt lat="40.592543184757232666015625" lon="-1.78964956663548946380615234375">
        <ele>1338</ele>
        <time>2022-05-04T10:31:51.000Z</time>
      </trkpt>
      <trkpt lat="40.5923985131084918975830078125" lon="-1.7897081561386585235595703125">
        <ele>1337.199951171875</ele>
        <time>2022-05-04T10:31:55.000Z</time>
      </trkpt>
      <trkpt lat="40.5922074057161808013916015625" lon="-1.7897809110581874847412109375">
        <ele>1336.5999755859375</ele>
        <time>2022-05-04T10:32:00.000Z</time>
      </trkpt>
      <trkpt lat="40.5918915756046772003173828125" lon="-1.78988627158105373382568359375">
        <ele>1337</ele>
        <time>2022-05-04T10:32:08.000Z</time>
      </trkpt>
      <trkpt lat="40.59159862808883190155029296875" lon="-1.78988342173397541046142578125">
        <ele>1339.199951171875</ele>
        <time>2022-05-04T10:32:15.000Z</time>
      </trkpt>
      <trkpt lat="40.591289587318897247314453125" lon="-1.78978803567588329315185546875">
        <ele>1342.800048828125</ele>
        <time>2022-05-04T10:32:22.000Z</time>
      </trkpt>
      <trkpt lat="40.5910550616681575775146484375" lon="-1.78970270790159702301025390625">
        <ele>1345</ele>
        <time>2022-05-04T10:32:27.000Z</time>
      </trkpt>
      <trkpt lat="40.59100627899169921875" lon="-1.7896980978548526763916015625">
        <ele>1345.4000244140625</ele>
        <time>2022-05-04T10:32:28.000Z</time>
      </trkpt>
      <trkpt lat="40.59072322212159633636474609375" lon="-1.78974277339875698089599609375">
        <ele>1345.5999755859375</ele>
        <time>2022-05-04T10:32:34.000Z</time>
      </trkpt>
      <trkpt lat="40.59043572284281253814697265625" lon="-1.7898930609226226806640625">
        <ele>1344</ele>
        <time>2022-05-04T10:32:41.000Z</time>
      </trkpt>
      <trkpt lat="40.59018124826252460479736328125" lon="-1.790023483335971832275390625">
        <ele>1343.5999755859375</ele>
        <time>2022-05-04T10:32:47.000Z</time>
      </trkpt>
      <trkpt lat="40.590061135590076446533203125" lon="-1.79008685052394866943359375">
        <ele>1343.4000244140625</ele>
        <time>2022-05-04T10:32:50.000Z</time>
      </trkpt>
      <trkpt lat="40.58978386223316192626953125" lon="-1.79018718190491199493408203125">
        <ele>1343</ele>
        <time>2022-05-04T10:32:57.000Z</time>
      </trkpt>
      <trkpt lat="40.589463673532009124755859375" lon="-1.79024551995098590850830078125">
        <ele>1343.800048828125</ele>
        <time>2022-05-04T10:33:05.000Z</time>
      </trkpt>
      <trkpt lat="40.5891761742532253265380859375" lon="-1.790256164968013763427734375">
        <ele>1344.5999755859375</ele>
        <time>2022-05-04T10:33:12.000Z</time>
      </trkpt>
      <trkpt lat="40.58913753367960453033447265625" lon="-1.79024468176066875457763671875">
        <ele>1344.5999755859375</ele>
        <time>2022-05-04T10:33:13.000Z</time>
      </trkpt>
      <trkpt lat="40.58909998275339603424072265625" lon="-1.7902264930307865142822265625">
        <ele>1344.5999755859375</ele>
        <time>2022-05-04T10:33:14.000Z</time>
      </trkpt>
      <trkpt lat="40.5889740027487277984619140625" lon="-1.79012197069823741912841796875">
        <ele>1344.800048828125</ele>
        <time>2022-05-04T10:33:18.000Z</time>
      </trkpt>
      <trkpt lat="40.588950701057910919189453125" lon="-1.7900903709232807159423828125">
        <ele>1344.800048828125</ele>
        <time>2022-05-04T10:33:19.000Z</time>
      </trkpt>
      <trkpt lat="40.58885003440082073211669921875" lon="-1.78993019275367259979248046875">
        <ele>1345</ele>
        <time>2022-05-04T10:33:24.000Z</time>
      </trkpt>
      <trkpt lat="40.58881717734038829803466796875" lon="-1.78988358937203884124755859375">
        <ele>1345</ele>
        <time>2022-05-04T10:33:26.000Z</time>
      </trkpt>
      <trkpt lat="40.5887409858405590057373046875" lon="-1.7898147739470005035400390625">
        <ele>1345.800048828125</ele>
        <time>2022-05-04T10:33:31.000Z</time>
      </trkpt>
      <trkpt lat="40.58868675492703914642333984375" lon="-1.7898063920438289642333984375">
        <ele>1346</ele>
        <time>2022-05-04T10:33:35.000Z</time>
      </trkpt>
      <trkpt lat="40.58867317624390125274658203125" lon="-1.78981200791895389556884765625">
        <ele>1346</ele>
        <time>2022-05-04T10:33:36.000Z</time>
      </trkpt>
      <trkpt lat="40.58866496197879314422607421875" lon="-1.7898231558501720428466796875">
        <ele>1345.800048828125</ele>
        <time>2022-05-04T10:33:37.000Z</time>
      </trkpt>
      <trkpt lat="40.5886705778539180755615234375" lon="-1.789872944355010986328125">
        <ele>1345.4000244140625</ele>
        <time>2022-05-04T10:33:41.000Z</time>
      </trkpt>
      <trkpt lat="40.588686168193817138671875" lon="-1.78984251804649829864501953125">
        <ele>1345.5999755859375</ele>
        <time>2022-05-04T10:33:45.000Z</time>
      </trkpt>
      <trkpt lat="40.58863864280283451080322265625" lon="-1.78982533514499664306640625">
        <ele>1346</ele>
        <time>2022-05-04T10:33:48.000Z</time>
      </trkpt>
      <trkpt lat="40.58860226534307003021240234375" lon="-1.7898244969546794891357421875">
        <ele>1346</ele>
        <time>2022-05-04T10:33:50.000Z</time>
      </trkpt>
      <trkpt lat="40.58845440857112407684326171875" lon="-1.7898312024772167205810546875">
        <ele>1346.4000244140625</ele>
        <time>2022-05-04T10:33:57.000Z</time>
      </trkpt>
      <trkpt lat="40.588316023349761962890625" lon="-1.789853163063526153564453125">
        <ele>1346.4000244140625</ele>
        <time>2022-05-04T10:34:02.000Z</time>
      </trkpt>
      <trkpt lat="40.58828911744058132171630859375" lon="-1.78984947502613067626953125">
        <ele>1346.5999755859375</ele>
        <time>2022-05-04T10:34:03.000Z</time>
      </trkpt>
      <trkpt lat="40.58816380798816680908203125" lon="-1.7898000217974185943603515625">
        <ele>1347.199951171875</ele>
        <time>2022-05-04T10:34:08.000Z</time>
      </trkpt>
      <trkpt lat="40.58806699700653553009033203125" lon="-1.789709664881229400634765625">
        <ele>1347.800048828125</ele>
        <time>2022-05-04T10:34:13.000Z</time>
      </trkpt>
      <trkpt lat="40.58804922737181186676025390625" lon="-1.78969047032296657562255859375">
        <ele>1348</ele>
        <time>2022-05-04T10:34:14.000Z</time>
      </trkpt>
      <trkpt lat="40.5879767239093780517578125" lon="-1.7896260134875774383544921875">
        <ele>1348.5999755859375</ele>
        <time>2022-05-04T10:34:18.000Z</time>
      </trkpt>
      <trkpt lat="40.58793850243091583251953125" lon="-1.78959064185619354248046875">
        <ele>1349.199951171875</ele>
        <time>2022-05-04T10:34:20.000Z</time>
      </trkpt>
      <trkpt lat="40.58788083493709564208984375" lon="-1.7895376682281494140625">
        <ele>1350</ele>
        <time>2022-05-04T10:34:23.000Z</time>
      </trkpt>
      <trkpt lat="40.5877696909010410308837890625" lon="-1.78949081338942050933837890625">
        <ele>1351.5999755859375</ele>
        <time>2022-05-04T10:34:28.000Z</time>
      </trkpt>
      <trkpt lat="40.58765930123627185821533203125" lon="-1.78949617780745029449462890625">
        <ele>1352.5999755859375</ele>
        <time>2022-05-04T10:34:33.000Z</time>
      </trkpt>
      <trkpt lat="40.58763784356415271759033203125" lon="-1.78949684835970401763916015625">
        <ele>1353</ele>
        <time>2022-05-04T10:34:34.000Z</time>
      </trkpt>
      <trkpt lat="40.58754689991474151611328125" lon="-1.78950573317706584930419921875">
        <ele>1353.800048828125</ele>
        <time>2022-05-04T10:34:39.000Z</time>
      </trkpt>
      <trkpt lat="40.5874528549611568450927734375" lon="-1.78952199406921863555908203125">
        <ele>1354.5999755859375</ele>
        <time>2022-05-04T10:34:44.000Z</time>
      </trkpt>
      <trkpt lat="40.58741304092109203338623046875" lon="-1.78952920250594615936279296875">
        <ele>1354.800048828125</ele>
        <time>2022-05-04T10:34:46.000Z</time>
      </trkpt>
      <trkpt lat="40.5873378552496433258056640625" lon="-1.78954060189425945281982421875">
        <ele>1355.5999755859375</ele>
        <time>2022-05-04T10:34:50.000Z</time>
      </trkpt>
      <trkpt lat="40.58730290271341800689697265625" lon="-1.789545714855194091796875">
        <ele>1355.800048828125</ele>
        <time>2022-05-04T10:34:52.000Z</time>
      </trkpt>
      <trkpt lat="40.58720500208437442779541015625" lon="-1.78958133794367313385009765625">
        <ele>1356.5999755859375</ele>
        <time>2022-05-04T10:34:57.000Z</time>
      </trkpt>
      <trkpt lat="40.5871447362005710601806640625" lon="-1.7896109260618686676025390625">
        <ele>1357</ele>
        <time>2022-05-04T10:35:00.000Z</time>
      </trkpt>
      <trkpt lat="40.58698757551610469818115234375" lon="-1.78969080559909343719482421875">
        <ele>1358.4000244140625</ele>
        <time>2022-05-04T10:35:06.000Z</time>
      </trkpt>
      <trkpt lat="40.58677978813648223876953125" lon="-1.78978418000042438507080078125">
        <ele>1360</ele>
        <time>2022-05-04T10:35:14.000Z</time>
      </trkpt>
      <trkpt lat="40.5866951309144496917724609375" lon="-1.7897939868271350860595703125">
        <ele>1360.800048828125</ele>
        <time>2022-05-04T10:35:18.000Z</time>
      </trkpt>
      <trkpt lat="40.5866461805999279022216796875" lon="-1.78980060853064060211181640625">
        <ele>1361.4000244140625</ele>
        <time>2022-05-04T10:35:20.000Z</time>
      </trkpt>
      <trkpt lat="40.5865167640149593353271484375" lon="-1.78983145393431186676025390625">
        <ele>1362.4000244140625</ele>
        <time>2022-05-04T10:35:26.000Z</time>
      </trkpt>
      <trkpt lat="40.586394555866718292236328125" lon="-1.7898848466575145721435546875">
        <ele>1363.5999755859375</ele>
        <time>2022-05-04T10:35:32.000Z</time>
      </trkpt>
      <trkpt lat="40.58634954504668712615966796875" lon="-1.7899036221206188201904296875">
        <ele>1364.199951171875</ele>
        <time>2022-05-04T10:35:36.000Z</time>
      </trkpt>
      <trkpt lat="40.586488433182239532470703125" lon="-1.78983614780008792877197265625">
        <ele>1362.800048828125</ele>
        <time>2022-05-04T11:28:09.000Z</time>
      </trkpt>
      <trkpt lat="40.5865352042019367218017578125" lon="-1.78981619887053966522216796875">
        <ele>1362.4000244140625</ele>
        <time>2022-05-04T11:28:11.000Z</time>
      </trkpt>
      <trkpt lat="40.58670007623732089996337890625" lon="-1.78974486887454986572265625">
        <ele>1361</ele>
        <time>2022-05-04T11:28:17.000Z</time>
      </trkpt>
      <trkpt lat="40.58673578314483165740966796875" lon="-1.78974688053131103515625">
        <ele>1360.5999755859375</ele>
        <time>2022-05-04T11:28:19.000Z</time>
      </trkpt>
      <trkpt lat="40.5867937020957469940185546875" lon="-1.7897547595202922821044921875">
        <ele>1360</ele>
        <time>2022-05-04T11:28:23.000Z</time>
      </trkpt>
      <trkpt lat="40.58696662075817584991455078125" lon="-1.789754927158355712890625">
        <ele>1358.4000244140625</ele>
        <time>2022-05-04T11:28:28.000Z</time>
      </trkpt>
      <trkpt lat="40.5871125496923923492431640625" lon="-1.7896870337426662445068359375">
        <ele>1357.199951171875</ele>
        <time>2022-05-04T11:28:33.000Z</time>
      </trkpt>
      <trkpt lat="40.58719142340123653411865234375" lon="-1.78967404179275035858154296875">
        <ele>1356.4000244140625</ele>
        <time>2022-05-04T11:28:37.000Z</time>
      </trkpt>
      <trkpt lat="40.587220676243305206298828125" lon="-1.78966331295669078826904296875">
        <ele>1356.199951171875</ele>
        <time>2022-05-04T11:28:38.000Z</time>
      </trkpt>
      <trkpt lat="40.58728412725031375885009765625" lon="-1.7896528355777263641357421875">
        <ele>1355.5999755859375</ele>
        <time>2022-05-04T11:28:40.000Z</time>
      </trkpt>
      <trkpt lat="40.5873759090900421142578125" lon="-1.789634563028812408447265625">
        <ele>1355</ele>
        <time>2022-05-04T11:28:43.000Z</time>
      </trkpt>
      <trkpt lat="40.587539859116077423095703125" lon="-1.78960598073899745941162109375">
        <ele>1353.4000244140625</ele>
        <time>2022-05-04T11:28:47.000Z</time>
      </trkpt>
      <trkpt lat="40.5875883065164089202880859375" lon="-1.7895938269793987274169921875">
        <ele>1353</ele>
        <time>2022-05-04T11:28:48.000Z</time>
      </trkpt>
      <trkpt lat="40.58769366703927516937255859375" lon="-1.78955283947288990020751953125">
        <ele>1352</ele>
        <time>2022-05-04T11:28:50.000Z</time>
      </trkpt>
      <trkpt lat="40.5878582037985324859619140625" lon="-1.78956407122313976287841796875">
        <ele>1350.199951171875</ele>
        <time>2022-05-04T11:28:53.000Z</time>
      </trkpt>
      <trkpt lat="40.58801352046430110931396484375" lon="-1.78967186249792575836181640625">
        <ele>1348</ele>
        <time>2022-05-04T11:28:56.000Z</time>
      </trkpt>
      <trkpt lat="40.58806515298783779144287109375" lon="-1.7897133529186248779296875">
        <ele>1347.800048828125</ele>
        <time>2022-05-04T11:28:57.000Z</time>
      </trkpt>
      <trkpt lat="40.58811896480619907379150390625" lon="-1.7897493951022624969482421875">
        <ele>1347.5999755859375</ele>
        <time>2022-05-04T11:28:58.000Z</time>
      </trkpt>
      <trkpt lat="40.58822340331971645355224609375" lon="-1.78980563767254352569580078125">
        <ele>1347</ele>
        <time>2022-05-04T11:29:00.000Z</time>
      </trkpt>
      <trkpt lat="40.58832876384258270263671875" lon="-1.78983874619007110595703125">
        <ele>1346.5999755859375</ele>
        <time>2022-05-04T11:29:02.000Z</time>
      </trkpt>
      <trkpt lat="40.58844502083957195281982421875" lon="-1.7898340523242950439453125">
        <ele>1346.4000244140625</ele>
        <time>2022-05-04T11:29:04.000Z</time>
      </trkpt>
      <trkpt lat="40.58850034140050411224365234375" lon="-1.7898241616785526275634765625">
        <ele>1346.199951171875</ele>
        <time>2022-05-04T11:29:05.000Z</time>
      </trkpt>
      <trkpt lat="40.58855281211435794830322265625" lon="-1.789812259376049041748046875">
        <ele>1346.199951171875</ele>
        <time>2022-05-04T11:29:06.000Z</time>
      </trkpt>
      <trkpt lat="40.588600672781467437744140625" lon="-1.78980446420609951019287109375">
        <ele>1346.199951171875</ele>
        <time>2022-05-04T11:29:07.000Z</time>
      </trkpt>
      <trkpt lat="40.5886424146592617034912109375" lon="-1.78980446420609951019287109375">
        <ele>1346</ele>
        <time>2022-05-04T11:29:08.000Z</time>
      </trkpt>
      <trkpt lat="40.5887223780155181884765625" lon="-1.78980345837771892547607421875">
        <ele>1345.800048828125</ele>
        <time>2022-05-04T11:29:10.000Z</time>
      </trkpt>
      <trkpt lat="40.5887611024081707000732421875" lon="-1.78978376090526580810546875">
        <ele>1346</ele>
        <time>2022-05-04T11:29:11.000Z</time>
      </trkpt>
      <trkpt lat="40.58882321231067180633544921875" lon="-1.789716370403766632080078125">
        <ele>1346.199951171875</ele>
        <time>2022-05-04T11:29:13.000Z</time>
      </trkpt>
      <trkpt lat="40.58885942213237285614013671875" lon="-1.789561808109283447265625">
        <ele>1347.4000244140625</ele>
        <time>2022-05-04T11:29:16.000Z</time>
      </trkpt>
      <trkpt lat="40.5888663791120052337646484375" lon="-1.78950908593833446502685546875">
        <ele>1347.800048828125</ele>
        <time>2022-05-04T11:29:17.000Z</time>
      </trkpt>
      <trkpt lat="40.58890786953270435333251953125" lon="-1.78920431993901729583740234375">
        <ele>1350.199951171875</ele>
        <time>2022-05-04T11:29:23.000Z</time>
      </trkpt>
      <trkpt lat="40.5889250524342060089111328125" lon="-1.7889477498829364776611328125">
        <ele>1352.199951171875</ele>
        <time>2022-05-04T11:29:29.000Z</time>
      </trkpt>
      <trkpt lat="40.5889475159347057342529296875" lon="-1.7886221967637538909912109375">
        <ele>1354.199951171875</ele>
        <time>2022-05-04T11:29:36.000Z</time>
      </trkpt>
      <trkpt lat="40.58888674713671207427978515625" lon="-1.7884079553186893463134765625">
        <ele>1355.199951171875</ele>
        <time>2022-05-04T11:29:41.000Z</time>
      </trkpt>
      <trkpt lat="40.5888174287974834442138671875" lon="-1.7882515490055084228515625">
        <ele>1355.800048828125</ele>
        <time>2022-05-04T11:29:45.000Z</time>
      </trkpt>
      <trkpt lat="40.58878096751868724822998046875" lon="-1.7881415784358978271484375">
        <ele>1355.800048828125</ele>
        <time>2022-05-04T11:29:48.000Z</time>
      </trkpt>
      <trkpt lat="40.5887027643620967864990234375" lon="-1.78783723153173923492431640625">
        <ele>1356.5999755859375</ele>
        <time>2022-05-04T11:29:55.000Z</time>
      </trkpt>
      <trkpt lat="40.58864660561084747314453125" lon="-1.78759105503559112548828125">
        <ele>1357.199951171875</ele>
        <time>2022-05-04T11:30:01.000Z</time>
      </trkpt>
      <trkpt lat="40.58856806717813014984130859375" lon="-1.78730674088001251220703125">
        <ele>1356.5999755859375</ele>
        <time>2022-05-04T11:30:08.000Z</time>
      </trkpt>
      <trkpt lat="40.5885465256869792938232421875" lon="-1.78722837008535861968994140625">
        <ele>1357.199951171875</ele>
        <time>2022-05-04T11:30:10.000Z</time>
      </trkpt>
      <trkpt lat="40.58847988955676555633544921875" lon="-1.78707833401858806610107421875">
        <ele>1357.5999755859375</ele>
        <time>2022-05-04T11:30:14.000Z</time>
      </trkpt>
      <trkpt lat="40.5883093178272247314453125" lon="-1.7867832072079181671142578125">
        <ele>1357.5999755859375</ele>
        <time>2022-05-04T11:30:22.000Z</time>
      </trkpt>
      <trkpt lat="40.588085688650608062744140625" lon="-1.78644650615751743316650390625">
        <ele>1357</ele>
        <time>2022-05-04T11:30:31.000Z</time>
      </trkpt>
      <trkpt lat="40.58800245635211467742919921875" lon="-1.7863094620406627655029296875">
        <ele>1357.800048828125</ele>
        <time>2022-05-04T11:30:35.000Z</time>
      </trkpt>
      <trkpt lat="40.58793657459318637847900390625" lon="-1.7862045206129550933837890625">
        <ele>1358.800048828125</ele>
        <time>2022-05-04T11:30:38.000Z</time>
      </trkpt>
      <trkpt lat="40.58779475279152393341064453125" lon="-1.78594887256622314453125">
        <ele>1361.199951171875</ele>
        <time>2022-05-04T11:30:45.000Z</time>
      </trkpt>
      <trkpt lat="40.58773088268935680389404296875" lon="-1.78579338826239109039306640625">
        <ele>1361</ele>
        <time>2022-05-04T11:30:49.000Z</time>
      </trkpt>
      <trkpt lat="40.58769400231540203094482421875" lon="-1.78566925227642059326171875">
        <ele>1361</ele>
        <time>2022-05-04T11:30:52.000Z</time>
      </trkpt>
      <trkpt lat="40.58766734786331653594970703125" lon="-1.785398684442043304443359375">
        <ele>1362</ele>
        <time>2022-05-04T11:30:58.000Z</time>
      </trkpt>
      <trkpt lat="40.5876929126679897308349609375" lon="-1.78513708524405956268310546875">
        <ele>1363.199951171875</ele>
        <time>2022-05-04T11:31:04.000Z</time>
      </trkpt>
      <trkpt lat="40.58776239864528179168701171875" lon="-1.78490809164941310882568359375">
        <ele>1364.800048828125</ele>
        <time>2022-05-04T11:31:09.000Z</time>
      </trkpt>
      <trkpt lat="40.58785242028534412384033203125" lon="-1.78468731231987476348876953125">
        <ele>1366.199951171875</ele>
        <time>2022-05-04T11:31:14.000Z</time>
      </trkpt>
      <trkpt lat="40.58801268227398395538330078125" lon="-1.7843309976160526275634765625">
        <ele>1369</ele>
        <time>2022-05-04T11:31:22.000Z</time>
      </trkpt>
      <trkpt lat="40.58809063397347927093505859375" lon="-1.7840929515659809112548828125">
        <ele>1371.4000244140625</ele>
        <time>2022-05-04T11:31:27.000Z</time>
      </trkpt>
      <trkpt lat="40.5881180427968502044677734375" lon="-1.783940903842449188232421875">
        <ele>1373.800048828125</ele>
        <time>2022-05-04T11:31:30.000Z</time>
      </trkpt>
      <trkpt lat="40.588152743875980377197265625" lon="-1.78365265019237995147705078125">
        <ele>1376.199951171875</ele>
        <time>2022-05-04T11:31:36.000Z</time>
      </trkpt>
      <trkpt lat="40.58813505806028842926025390625" lon="-1.78336121141910552978515625">
        <ele>1376.5999755859375</ele>
        <time>2022-05-04T11:31:42.000Z</time>
      </trkpt>
      <trkpt lat="40.58804637752473354339599609375" lon="-1.78309022448956966400146484375">
        <ele>1373.4000244140625</ele>
        <time>2022-05-04T11:31:48.000Z</time>
      </trkpt>
      <trkpt lat="40.58802760206162929534912109375" lon="-1.7830475606024265289306640625">
        <ele>1373.199951171875</ele>
        <time>2022-05-04T11:31:49.000Z</time>
      </trkpt>
      <trkpt lat="40.58792048133909702301025390625" lon="-1.78275126032531261444091796875">
        <ele>1373.5999755859375</ele>
        <time>2022-05-04T11:31:56.000Z</time>
      </trkpt>
      <trkpt lat="40.5878746323287487030029296875" lon="-1.78255143575370311737060546875">
        <ele>1374.4000244140625</ele>
        <time>2022-05-04T11:32:01.000Z</time>
      </trkpt>
      <trkpt lat="40.58787086047232151031494140625" lon="-1.7825094424188137054443359375">
        <ele>1374.4000244140625</ele>
        <time>2022-05-04T11:32:02.000Z</time>
      </trkpt>
      <trkpt lat="40.587876476347446441650390625" lon="-1.7822965420782566070556640625">
        <ele>1374</ele>
        <time>2022-05-04T11:32:07.000Z</time>
      </trkpt>
      <trkpt lat="40.58794110082089900970458984375" lon="-1.7820605076849460601806640625">
        <ele>1371.5999755859375</ele>
        <time>2022-05-04T11:32:13.000Z</time>
      </trkpt>
      <trkpt lat="40.58795819990336894989013671875" lon="-1.7820246331393718719482421875">
        <ele>1371.4000244140625</ele>
        <time>2022-05-04T11:32:14.000Z</time>
      </trkpt>
      <trkpt lat="40.58805207721889019012451171875" lon="-1.78186143748462200164794921875">
        <ele>1370.4000244140625</ele>
        <time>2022-05-04T11:32:19.000Z</time>
      </trkpt>
      <trkpt lat="40.58814796619117259979248046875" lon="-1.78175180219113826751708984375">
        <ele>1370.4000244140625</ele>
        <time>2022-05-04T11:32:23.000Z</time>
      </trkpt>
      <trkpt lat="40.5882270075380802154541015625" lon="-1.78169514052569866180419921875">
        <ele>1370.800048828125</ele>
        <time>2022-05-04T11:32:26.000Z</time>
      </trkpt>
      <trkpt lat="40.5884395726025104522705078125" lon="-1.78161752410233020782470703125">
        <ele>1373</ele>
        <time>2022-05-04T11:32:34.000Z</time>
      </trkpt>
      <trkpt lat="40.588496737182140350341796875" lon="-1.78160570561885833740234375">
        <ele>1373.5999755859375</ele>
        <time>2022-05-04T11:32:36.000Z</time>
      </trkpt>
      <trkpt lat="40.5886380560696125030517578125" lon="-1.7815674841403961181640625">
        <ele>1375.199951171875</ele>
        <time>2022-05-04T11:32:41.000Z</time>
      </trkpt>
      <trkpt lat="40.58879974298179149627685546875" lon="-1.781469918787479400634765625">
        <ele>1376</ele>
        <time>2022-05-04T11:32:47.000Z</time>
      </trkpt>
      <trkpt lat="40.5888241343200206756591796875" lon="-1.78144888021051883697509765625">
        <ele>1376</ele>
        <time>2022-05-04T11:32:48.000Z</time>
      </trkpt>
      <trkpt lat="40.5889503657817840576171875" lon="-1.7813071422278881072998046875">
        <ele>1375.5999755859375</ele>
        <time>2022-05-04T11:32:54.000Z</time>
      </trkpt>
      <trkpt lat="40.5889709852635860443115234375" lon="-1.7812809906899929046630859375">
        <ele>1375.4000244140625</ele>
        <time>2022-05-04T11:32:55.000Z</time>
      </trkpt>
      <trkpt lat="40.58907567523419857025146484375" lon="-1.78111293353140354156494140625">
        <ele>1374.199951171875</ele>
        <time>2022-05-04T11:33:01.000Z</time>
      </trkpt>
      <trkpt lat="40.589112974703311920166015625" lon="-1.78105895407497882843017578125">
        <ele>1374</ele>
        <time>2022-05-04T11:33:03.000Z</time>
      </trkpt>
      <trkpt lat="40.5892026610672473907470703125" lon="-1.78093775175511837005615234375">
        <ele>1373.4000244140625</ele>
        <time>2022-05-04T11:33:08.000Z</time>
      </trkpt>
      <trkpt lat="40.5892854742705821990966796875" lon="-1.780848316848278045654296875">
        <ele>1373</ele>
        <time>2022-05-04T11:33:12.000Z</time>
      </trkpt>
      <trkpt lat="40.589354038238525390625" lon="-1.78079425357282161712646484375">
        <ele>1373.199951171875</ele>
        <time>2022-05-04T11:33:15.000Z</time>
      </trkpt>
      <trkpt lat="40.589505918323993682861328125" lon="-1.7806835286319255828857421875">
        <ele>1374</ele>
        <time>2022-05-04T11:33:21.000Z</time>
      </trkpt>
      <trkpt lat="40.5895302258431911468505859375" lon="-1.78066383115947246551513671875">
        <ele>1374</ele>
        <time>2022-05-04T11:33:22.000Z</time>
      </trkpt>
      <trkpt lat="40.5897079221904277801513671875" lon="-1.7805024795234203338623046875">
        <ele>1375</ele>
        <time>2022-05-04T11:33:30.000Z</time>
      </trkpt>
      <trkpt lat="40.58975092135369777679443359375" lon="-1.78045579232275485992431640625">
        <ele>1375.199951171875</ele>
        <time>2022-05-04T11:33:32.000Z</time>
      </trkpt>
      <trkpt lat="40.589877404272556304931640625" lon="-1.78027658723294734954833984375">
        <ele>1375.199951171875</ele>
        <time>2022-05-04T11:33:39.000Z</time>
      </trkpt>
      <trkpt lat="40.58989643119275569915771484375" lon="-1.78024716675281524658203125">
        <ele>1375.199951171875</ele>
        <time>2022-05-04T11:33:40.000Z</time>
      </trkpt>
      <trkpt lat="40.59000120498239994049072265625" lon="-1.780036948621273040771484375">
        <ele>1374.5999755859375</ele>
        <time>2022-05-04T11:33:47.000Z</time>
      </trkpt>
      <trkpt lat="40.5900160409510135650634765625" lon="-1.78000786341726779937744140625">
        <ele>1374.5999755859375</ele>
        <time>2022-05-04T11:33:48.000Z</time>
      </trkpt>
      <trkpt lat="40.59011109173297882080078125" lon="-1.77985229529440402984619140625">
        <ele>1374.4000244140625</ele>
        <time>2022-05-04T11:33:54.000Z</time>
      </trkpt>
      <trkpt lat="40.5901504866778850555419921875" lon="-1.7798057757318019866943359375">
        <ele>1374.800048828125</ele>
        <time>2022-05-04T11:33:56.000Z</time>
      </trkpt>
      <trkpt lat="40.590278394520282745361328125" lon="-1.779697649180889129638671875">
        <ele>1376.199951171875</ele>
        <time>2022-05-04T11:34:02.000Z</time>
      </trkpt>
      <trkpt lat="40.59030194766819477081298828125" lon="-1.77968247793614864349365234375">
        <ele>1376.5999755859375</ele>
        <time>2022-05-04T11:34:03.000Z</time>
      </trkpt>
      <trkpt lat="40.59044058434665203094482421875" lon="-1.7796106450259685516357421875">
        <ele>1378.4000244140625</ele>
        <time>2022-05-04T11:34:09.000Z</time>
      </trkpt>
      <trkpt lat="40.59053177945315837860107421875" lon="-1.77958491258323192596435546875">
        <ele>1379.800048828125</ele>
        <time>2022-05-04T11:34:13.000Z</time>
      </trkpt>
      <trkpt lat="40.5905984155833721160888671875" lon="-1.7795606888830661773681640625">
        <ele>1380.4000244140625</ele>
        <time>2022-05-04T11:34:16.000Z</time>
      </trkpt>
      <trkpt lat="40.59072925709187984466552734375" lon="-1.7795342020690441131591796875">
        <ele>1382</ele>
        <time>2022-05-04T11:34:22.000Z</time>
      </trkpt>
      <trkpt lat="40.59075172059237957000732421875" lon="-1.7795261554419994354248046875">
        <ele>1382.199951171875</ele>
        <time>2022-05-04T11:34:23.000Z</time>
      </trkpt>
      <trkpt lat="40.59089756570756435394287109375" lon="-1.77947259508073329925537109375">
        <ele>1383.5999755859375</ele>
        <time>2022-05-04T11:34:29.000Z</time>
      </trkpt>
      <trkpt lat="40.59096160344779491424560546875" lon="-1.779453568160533905029296875">
        <ele>1384.4000244140625</ele>
        <time>2022-05-04T11:34:32.000Z</time>
      </trkpt>
      <trkpt lat="40.5910813808441162109375" lon="-1.77940235473215579986572265625">
        <ele>1385.800048828125</ele>
        <time>2022-05-04T11:34:37.000Z</time>
      </trkpt>
      <trkpt lat="40.59122622013092041015625" lon="-1.77930613048374652862548828125">
        <ele>1387</ele>
        <time>2022-05-04T11:34:43.000Z</time>
      </trkpt>
      <trkpt lat="40.59132604859769344329833984375" lon="-1.7791379056870937347412109375">
        <ele>1386.800048828125</ele>
        <time>2022-05-04T11:34:49.000Z</time>
      </trkpt>
      <trkpt lat="40.59133677743375301361083984375" lon="-1.779106222093105316162109375">
        <ele>1386.5999755859375</ele>
        <time>2022-05-04T11:34:50.000Z</time>
      </trkpt>
      <trkpt lat="40.59136862866580486297607421875" lon="-1.7789075709879398345947265625">
        <ele>1388.4000244140625</ele>
        <time>2022-05-04T11:34:56.000Z</time>
      </trkpt>
      <trkpt lat="40.591366030275821685791015625" lon="-1.778875552117824554443359375">
        <ele>1389</ele>
        <time>2022-05-04T11:34:57.000Z</time>
      </trkpt>
      <trkpt lat="40.591304004192352294921875" lon="-1.77869358099997043609619140625">
        <ele>1391.4000244140625</ele>
        <time>2022-05-04T11:35:03.000Z</time>
      </trkpt>
      <trkpt lat="40.5912874080240726470947265625" lon="-1.77866860292851924896240234375">
        <ele>1391.5999755859375</ele>
        <time>2022-05-04T11:35:04.000Z</time>
      </trkpt>
      <trkpt lat="40.5911900103092193603515625" lon="-1.7785649187862873077392578125">
        <ele>1392</ele>
        <time>2022-05-04T11:35:09.000Z</time>
      </trkpt>
      <trkpt lat="40.591170899569988250732421875" lon="-1.778545640408992767333984375">
        <ele>1392</ele>
        <time>2022-05-04T11:35:10.000Z</time>
      </trkpt>
      <trkpt lat="40.59104693122208118438720703125" lon="-1.77847783081233501434326171875">
        <ele>1391.4000244140625</ele>
        <time>2022-05-04T11:35:16.000Z</time>
      </trkpt>
      <trkpt lat="40.59102547354996204376220703125" lon="-1.7784723825752735137939453125">
        <ele>1391.199951171875</ele>
        <time>2022-05-04T11:35:17.000Z</time>
      </trkpt>
      <trkpt lat="40.59091583825647830963134765625" lon="-1.77844514138996601104736328125">
        <ele>1389.800048828125</ele>
        <time>2022-05-04T11:35:22.000Z</time>
      </trkpt>
      <trkpt lat="40.59083805419504642486572265625" lon="-1.7783915810286998748779296875">
        <ele>1389.4000244140625</ele>
        <time>2022-05-04T11:35:26.000Z</time>
      </trkpt>
      <trkpt lat="40.5907871760427951812744140625" lon="-1.7783416248857975006103515625">
        <ele>1389.4000244140625</ele>
        <time>2022-05-04T11:35:29.000Z</time>
      </trkpt>
      <trkpt lat="40.5907259881496429443359375" lon="-1.77826325409114360809326171875">
        <ele>1389.5999755859375</ele>
        <time>2022-05-04T11:35:33.000Z</time>
      </trkpt>
      <trkpt lat="40.59068097732961177825927734375" lon="-1.77819234319031238555908203125">
        <ele>1389.800048828125</ele>
        <time>2022-05-04T11:35:36.000Z</time>
      </trkpt>
      <trkpt lat="40.59062875807285308837890625" lon="-1.7780296504497528076171875">
        <ele>1390.199951171875</ele>
        <time>2022-05-04T11:35:42.000Z</time>
      </trkpt>
      <trkpt lat="40.5906165204942226409912109375" lon="-1.7779667861759662628173828125">
        <ele>1390</ele>
        <time>2022-05-04T11:35:44.000Z</time>
      </trkpt>
      <trkpt lat="40.5906242318451404571533203125" lon="-1.777784563601016998291015625">
        <ele>1390.800048828125</ele>
        <time>2022-05-04T11:35:50.000Z</time>
      </trkpt>
      <trkpt lat="40.59066002257168292999267578125" lon="-1.7775835655629634857177734375">
        <ele>1392.4000244140625</ele>
        <time>2022-05-04T11:35:57.000Z</time>
      </trkpt>
      <trkpt lat="40.5906718410551548004150390625" lon="-1.777559928596019744873046875">
        <ele>1392.800048828125</ele>
        <time>2022-05-04T11:35:58.000Z</time>
      </trkpt>
      <trkpt lat="40.5907425843179225921630859375" lon="-1.77744735963642597198486328125">
        <ele>1394.5999755859375</ele>
        <time>2022-05-04T11:36:03.000Z</time>
      </trkpt>
      <trkpt lat="40.59081190265715122222900390625" lon="-1.77736370824277400970458984375">
        <ele>1396.4000244140625</ele>
        <time>2022-05-04T11:36:07.000Z</time>
      </trkpt>
      <trkpt lat="40.590851716697216033935546875" lon="-1.7773143388330936431884765625">
        <ele>1397</ele>
        <time>2022-05-04T11:36:09.000Z</time>
      </trkpt>
      <trkpt lat="40.5909521318972110748291015625" lon="-1.777171008288860321044921875">
        <ele>1398.5999755859375</ele>
        <time>2022-05-04T11:36:15.000Z</time>
      </trkpt>
      <trkpt lat="40.590971074998378753662109375" lon="-1.7771490477025508880615234375">
        <ele>1399</ele>
        <time>2022-05-04T11:36:16.000Z</time>
      </trkpt>
      <trkpt lat="40.59111566282808780670166015625" lon="-1.77696950733661651611328125">
        <ele>1401.4000244140625</ele>
        <time>2022-05-04T11:36:24.000Z</time>
      </trkpt>
      <trkpt lat="40.59113225899636745452880859375" lon="-1.7769475467503070831298828125">
        <ele>1401.800048828125</ele>
        <time>2022-05-04T11:36:25.000Z</time>
      </trkpt>
      <trkpt lat="40.5912421457469463348388671875" lon="-1.77678653039038181304931640625">
        <ele>1403.5999755859375</ele>
        <time>2022-05-04T11:36:32.000Z</time>
      </trkpt>
      <trkpt lat="40.5912753380835056304931640625" lon="-1.77673523314297199249267578125">
        <ele>1404</ele>
        <time>2022-05-04T11:36:34.000Z</time>
      </trkpt>
      <trkpt lat="40.59133124537765979766845703125" lon="-1.77661470137536525726318359375">
        <ele>1404.800048828125</ele>
        <time>2022-05-04T11:36:39.000Z</time>
      </trkpt>
      <trkpt lat="40.59135186485946178436279296875" lon="-1.77649551071226596832275390625">
        <ele>1405.800048828125</ele>
        <time>2022-05-04T11:36:43.000Z</time>
      </trkpt>
      <trkpt lat="40.5913536250591278076171875" lon="-1.77646256983280181884765625">
        <ele>1406.199951171875</ele>
        <time>2022-05-04T11:36:44.000Z</time>
      </trkpt>
      <trkpt lat="40.5913343466818332672119140625" lon="-1.77624522708356380462646484375">
        <ele>1408.5999755859375</ele>
        <time>2022-05-04T11:36:51.000Z</time>
      </trkpt>
      <trkpt lat="40.591315068304538726806640625" lon="-1.7761831171810626983642578125">
        <ele>1409</ele>
        <time>2022-05-04T11:36:53.000Z</time>
      </trkpt>
      <trkpt lat="40.591234266757965087890625" lon="-1.7760091088712215423583984375">
        <ele>1409.4000244140625</ele>
        <time>2022-05-04T11:36:59.000Z</time>
      </trkpt>
      <trkpt lat="40.59105162508785724639892578125" lon="-1.77580408751964569091796875">
        <ele>1406.5999755859375</ele>
        <time>2022-05-04T11:37:08.000Z</time>
      </trkpt>
      <trkpt lat="40.59098473750054836273193359375" lon="-1.77574482746422290802001953125">
        <ele>1405.199951171875</ele>
        <time>2022-05-04T11:37:11.000Z</time>
      </trkpt>
      <trkpt lat="40.5908359587192535400390625" lon="-1.775609292089939117431640625">
        <ele>1404.4000244140625</ele>
        <time>2022-05-04T11:37:18.000Z</time>
      </trkpt>
      <trkpt lat="40.59075121767818927764892578125" lon="-1.77553712390363216400146484375">
        <ele>1404</ele>
        <time>2022-05-04T11:37:22.000Z</time>
      </trkpt>
      <trkpt lat="40.59064493514597415924072265625" lon="-1.77543603815138339996337890625">
        <ele>1403.800048828125</ele>
        <time>2022-05-04T11:37:27.000Z</time>
      </trkpt>
      <trkpt lat="40.590483583509922027587890625" lon="-1.77528030239045619964599609375">
        <ele>1403.800048828125</ele>
        <time>2022-05-04T11:37:35.000Z</time>
      </trkpt>
      <trkpt lat="40.59041778557002544403076171875" lon="-1.77522464655339717864990234375">
        <ele>1404</ele>
        <time>2022-05-04T11:37:38.000Z</time>
      </trkpt>
      <trkpt lat="40.5902701802551746368408203125" lon="-1.77508550696074962615966796875">
        <ele>1405</ele>
        <time>2022-05-04T11:37:45.000Z</time>
      </trkpt>
      <trkpt lat="40.59020991437137126922607421875" lon="-1.7750264145433902740478515625">
        <ele>1405.199951171875</ele>
        <time>2022-05-04T11:37:48.000Z</time>
      </trkpt>
      <trkpt lat="40.5901079066097736358642578125" lon="-1.77493345923721790313720703125">
        <ele>1405.199951171875</ele>
        <time>2022-05-04T11:37:53.000Z</time>
      </trkpt>
      <trkpt lat="40.590036995708942413330078125" lon="-1.7748587764799594879150390625">
        <ele>1405.800048828125</ele>
        <time>2022-05-04T11:37:57.000Z</time>
      </trkpt>
      <trkpt lat="40.58998368680477142333984375" lon="-1.77480840124189853668212890625">
        <ele>1406.5999755859375</ele>
        <time>2022-05-04T11:38:00.000Z</time>
      </trkpt>
      <trkpt lat="40.58985653333365917205810546875" lon="-1.774691641330718994140625">
        <ele>1408.4000244140625</ele>
        <time>2022-05-04T11:38:07.000Z</time>
      </trkpt>
      <trkpt lat="40.5897179804742336273193359375" lon="-1.77458100020885467529296875">
        <ele>1408.4000244140625</ele>
        <time>2022-05-04T11:38:14.000Z</time>
      </trkpt>
      <trkpt lat="40.58963692747056484222412109375" lon="-1.77452174015343189239501953125">
        <ele>1408.5999755859375</ele>
        <time>2022-05-04T11:38:18.000Z</time>
      </trkpt>
      <trkpt lat="40.5895243585109710693359375" lon="-1.7744473926723003387451171875">
        <ele>1409</ele>
        <time>2022-05-04T11:38:23.000Z</time>
      </trkpt>
      <trkpt lat="40.589363090693950653076171875" lon="-1.7743642441928386688232421875">
        <ele>1408.800048828125</ele>
        <time>2022-05-04T11:38:30.000Z</time>
      </trkpt>
      <trkpt lat="40.5892936885356903076171875" lon="-1.77432660944759845733642578125">
        <ele>1408.4000244140625</ele>
        <time>2022-05-04T11:38:33.000Z</time>
      </trkpt>
      <trkpt lat="40.5890400521457195281982421875" lon="-1.774233989417552947998046875">
        <ele>1405.4000244140625</ele>
        <time>2022-05-04T11:38:43.000Z</time>
      </trkpt>
      <trkpt lat="40.588830672204494476318359375" lon="-1.7741570435464382171630859375">
        <ele>1403.4000244140625</ele>
        <time>2022-05-04T11:38:52.000Z</time>
      </trkpt>
      <trkpt lat="40.58878834359347820281982421875" lon="-1.774149499833583831787109375">
        <ele>1403.5999755859375</ele>
        <time>2022-05-04T11:38:54.000Z</time>
      </trkpt>
      <trkpt lat="40.5886591784656047821044921875" lon="-1.7741134576499462127685546875">
        <ele>1402.199951171875</ele>
        <time>2022-05-04T11:39:00.000Z</time>
      </trkpt>
      <trkpt lat="40.5885056219995021820068359375" lon="-1.77403676323592662811279296875">
        <ele>1400.4000244140625</ele>
        <time>2022-05-04T11:39:07.000Z</time>
      </trkpt>
      <trkpt lat="40.58846396394073963165283203125" lon="-1.774006672203540802001953125">
        <ele>1400.5999755859375</ele>
        <time>2022-05-04T11:39:09.000Z</time>
      </trkpt>
      <trkpt lat="40.5883562564849853515625" lon="-1.77388572134077548980712890625">
        <ele>1403</ele>
        <time>2022-05-04T11:39:15.000Z</time>
      </trkpt>
      <trkpt lat="40.58828978799283504486083984375" lon="-1.77370567806065082550048828125">
        <ele>1407.5999755859375</ele>
        <time>2022-05-04T11:39:21.000Z</time>
      </trkpt>
      <trkpt lat="40.5882637202739715576171875" lon="-1.7735465057194232940673828125">
        <ele>1410.4000244140625</ele>
        <time>2022-05-04T11:39:26.000Z</time>
      </trkpt>
      <trkpt lat="40.58824905194342136383056640625" lon="-1.77341549657285213470458984375">
        <ele>1412.800048828125</ele>
        <time>2022-05-04T11:39:30.000Z</time>
      </trkpt>
      <trkpt lat="40.58823144994676113128662109375" lon="-1.77318063564598560333251953125">
        <ele>1417.5999755859375</ele>
        <time>2022-05-04T11:39:37.000Z</time>
      </trkpt>
      <trkpt lat="40.58821736834943294525146484375" lon="-1.77308290265500545501708984375">
        <ele>1419.5999755859375</ele>
        <time>2022-05-04T11:39:40.000Z</time>
      </trkpt>
      <trkpt lat="40.58820362202823162078857421875" lon="-1.77291241474449634552001953125">
        <ele>1422.199951171875</ele>
        <time>2022-05-04T11:39:45.000Z</time>
      </trkpt>
      <trkpt lat="40.588192977011203765869140625" lon="-1.77279573865234851837158203125">
        <ele>1423.4000244140625</ele>
        <time>2022-05-04T11:39:48.000Z</time>
      </trkpt>
      <trkpt lat="40.58816640637814998626708984375" lon="-1.772476136684417724609375">
        <ele>1426.5999755859375</ele>
        <time>2022-05-04T11:39:56.000Z</time>
      </trkpt>
      <trkpt lat="40.5881629697978496551513671875" lon="-1.77243498153984546661376953125">
        <ele>1427.199951171875</ele>
        <time>2022-05-04T11:39:57.000Z</time>
      </trkpt>
      <trkpt lat="40.58813371695578098297119140625" lon="-1.77214798517525196075439453125">
        <ele>1428.5999755859375</ele>
        <time>2022-05-04T11:40:04.000Z</time>
      </trkpt>
      <trkpt lat="40.58813103474676609039306640625" lon="-1.772066093981266021728515625">
        <ele>1428.800048828125</ele>
        <time>2022-05-04T11:40:06.000Z</time>
      </trkpt>
      <trkpt lat="40.58811360038816928863525390625" lon="-1.77168614231050014495849609375">
        <ele>1429.5999755859375</ele>
        <time>2022-05-04T11:40:15.000Z</time>
      </trkpt>
      <trkpt lat="40.58811510913074016571044921875" lon="-1.77164264023303985595703125">
        <ele>1430</ele>
        <time>2022-05-04T11:40:16.000Z</time>
      </trkpt>
      <trkpt lat="40.58817344717681407928466796875" lon="-1.77130677737295627593994140625">
        <ele>1431</ele>
        <time>2022-05-04T11:40:24.000Z</time>
      </trkpt>
      <trkpt lat="40.5882699228823184967041015625" lon="-1.77098256535828113555908203125">
        <ele>1433</ele>
        <time>2022-05-04T11:40:32.000Z</time>
      </trkpt>
      <trkpt lat="40.58837444521486759185791015625" lon="-1.77051552571356296539306640625">
        <ele>1431</ele>
        <time>2022-05-04T11:40:41.000Z</time>
      </trkpt>
      <trkpt lat="40.5883990041911602020263671875" lon="-1.77040639333426952362060546875">
        <ele>1429.5999755859375</ele>
        <time>2022-05-04T11:40:43.000Z</time>
      </trkpt>
      <trkpt lat="40.58846153318881988525390625" lon="-1.7701508291065692901611328125">
        <ele>1428.199951171875</ele>
        <time>2022-05-04T11:40:48.000Z</time>
      </trkpt>
      <trkpt lat="40.58864526450634002685546875" lon="-1.76970667205750942230224609375">
        <ele>1430.800048828125</ele>
        <time>2022-05-04T11:40:57.000Z</time>
      </trkpt>
      <trkpt lat="40.58876990340650081634521484375" lon="-1.76944968290627002716064453125">
        <ele>1433</ele>
        <time>2022-05-04T11:41:03.000Z</time>
      </trkpt>
      <trkpt lat="40.5888278223574161529541015625" lon="-1.7693092860281467437744140625">
        <ele>1433.800048828125</ele>
        <time>2022-05-04T11:41:06.000Z</time>
      </trkpt>
      <trkpt lat="40.5888653732836246490478515625" lon="-1.76914307288825511932373046875">
        <ele>1433.800048828125</ele>
        <time>2022-05-04T11:41:09.000Z</time>
      </trkpt>
      <trkpt lat="40.58888800442218780517578125" lon="-1.7688261531293392181396484375">
        <ele>1436.5999755859375</ele>
        <time>2022-05-04T11:41:15.000Z</time>
      </trkpt>
      <trkpt lat="40.5888610146939754486083984375" lon="-1.76852666772902011871337890625">
        <ele>1438.800048828125</ele>
        <time>2022-05-04T11:41:21.000Z</time>
      </trkpt>
      <trkpt lat="40.5888492800295352935791015625" lon="-1.76847822032868862152099609375">
        <ele>1438.800048828125</ele>
        <time>2022-05-04T11:41:22.000Z</time>
      </trkpt>
      <trkpt lat="40.5887317657470703125" lon="-1.768154762685298919677734375">
        <ele>1437.4000244140625</ele>
        <time>2022-05-04T11:41:29.000Z</time>
      </trkpt>
      <trkpt lat="40.588568486273288726806640625" lon="-1.7678012140095233917236328125">
        <ele>1437.800048828125</ele>
        <time>2022-05-04T11:41:38.000Z</time>
      </trkpt>
      <trkpt lat="40.5885498784482479095458984375" lon="-1.76776282489299774169921875">
        <ele>1437.800048828125</ele>
        <time>2022-05-04T11:41:39.000Z</time>
      </trkpt>
      <trkpt lat="40.58838601224124431610107421875" lon="-1.76743425428867340087890625">
        <ele>1437.199951171875</ele>
        <time>2022-05-04T11:41:48.000Z</time>
      </trkpt>
      <trkpt lat="40.58834661729633808135986328125" lon="-1.7673693783581256866455078125">
        <ele>1436.800048828125</ele>
        <time>2022-05-04T11:41:50.000Z</time>
      </trkpt>
      <trkpt lat="40.58819842524826526641845703125" lon="-1.76716041751205921173095703125">
        <ele>1435.4000244140625</ele>
        <time>2022-05-04T11:41:57.000Z</time>
      </trkpt>
      <trkpt lat="40.5881559289991855621337890625" lon="-1.7671071924269199371337890625">
        <ele>1435.4000244140625</ele>
        <time>2022-05-04T11:41:59.000Z</time>
      </trkpt>
      <trkpt lat="40.58799005113542079925537109375" lon="-1.76692907698452472686767578125">
        <ele>1435.199951171875</ele>
        <time>2022-05-04T11:42:06.000Z</time>
      </trkpt>
      <trkpt lat="40.58789013884961605072021484375" lon="-1.76683612167835235595703125">
        <ele>1436.199951171875</ele>
        <time>2022-05-04T11:42:10.000Z</time>
      </trkpt>
      <trkpt lat="40.58786314912140369415283203125" lon="-1.76681256853044033050537109375">
        <ele>1436.5999755859375</ele>
        <time>2022-05-04T11:42:11.000Z</time>
      </trkpt>
      <trkpt lat="40.5876895599067211151123046875" lon="-1.76668482832610607147216796875">
        <ele>1435.4000244140625</ele>
        <time>2022-05-04T11:42:18.000Z</time>
      </trkpt>
      <trkpt lat="40.5875393562018871307373046875" lon="-1.76659849472343921661376953125">
        <ele>1432.5999755859375</ele>
        <time>2022-05-04T11:42:24.000Z</time>
      </trkpt>
      <trkpt lat="40.587462745606899261474609375" lon="-1.766553819179534912109375">
        <ele>1431.199951171875</ele>
        <time>2022-05-04T11:42:27.000Z</time>
      </trkpt>
      <trkpt lat="40.58729770593345165252685546875" lon="-1.76648533903062343597412109375">
        <ele>1428</ele>
        <time>2022-05-04T11:42:33.000Z</time>
      </trkpt>
      <trkpt lat="40.5872657708823680877685546875" lon="-1.76647326909005641937255859375">
        <ele>1427.199951171875</ele>
        <time>2022-05-04T11:42:34.000Z</time>
      </trkpt>
      <trkpt lat="40.58707240037620067596435546875" lon="-1.7663848400115966796875">
        <ele>1425.5999755859375</ele>
        <time>2022-05-04T11:42:41.000Z</time>
      </trkpt>
      <trkpt lat="40.5869157426059246063232421875" lon="-1.7662877775728702545166015625">
        <ele>1425.800048828125</ele>
        <time>2022-05-04T11:42:47.000Z</time>
      </trkpt>
      <trkpt lat="40.5867397226393222808837890625" lon="-1.766148470342159271240234375">
        <ele>1427.199951171875</ele>
        <time>2022-05-04T11:42:53.000Z</time>
      </trkpt>
      <trkpt lat="40.586521625518798828125" lon="-1.76586809568107128143310546875">
        <ele>1428.5999755859375</ele>
        <time>2022-05-04T11:43:01.000Z</time>
      </trkpt>
      <trkpt lat="40.5863353796303272247314453125" lon="-1.76554153673350811004638671875">
        <ele>1432.199951171875</ele>
        <time>2022-05-04T11:43:09.000Z</time>
      </trkpt>
      <trkpt lat="40.5862022750079631805419921875" lon="-1.765165440738201141357421875">
        <ele>1438.4000244140625</ele>
        <time>2022-05-04T11:43:16.000Z</time>
      </trkpt>
      <trkpt lat="40.5861583538353443145751953125" lon="-1.76500040106475353240966796875">
        <ele>1440.199951171875</ele>
        <time>2022-05-04T11:43:19.000Z</time>
      </trkpt>
      <trkpt lat="40.5861080624163150787353515625" lon="-1.764829158782958984375">
        <ele>1439</ele>
        <time>2022-05-04T11:43:22.000Z</time>
      </trkpt>
      <trkpt lat="40.58607461862266063690185546875" lon="-1.7647123150527477264404296875">
        <ele>1438.4000244140625</ele>
        <time>2022-05-04T11:43:24.000Z</time>
      </trkpt>
      <trkpt lat="40.58604528196156024932861328125" lon="-1.76459153182804584503173828125">
        <ele>1438.199951171875</ele>
        <time>2022-05-04T11:43:26.000Z</time>
      </trkpt>
      <trkpt lat="40.5860195495188236236572265625" lon="-1.7644684016704559326171875">
        <ele>1438.199951171875</ele>
        <time>2022-05-04T11:43:28.000Z</time>
      </trkpt>
      <trkpt lat="40.586020387709140777587890625" lon="-1.76433303393423557281494140625">
        <ele>1439.199951171875</ele>
        <time>2022-05-04T11:43:30.000Z</time>
      </trkpt>
      <trkpt lat="40.5860430188477039337158203125" lon="-1.76418609917163848876953125">
        <ele>1440.4000244140625</ele>
        <time>2022-05-04T11:43:32.000Z</time>
      </trkpt>
      <trkpt lat="40.5860597826540470123291015625" lon="-1.7641118355095386505126953125">
        <ele>1441.4000244140625</ele>
        <time>2022-05-04T11:43:33.000Z</time>
      </trkpt>
      <trkpt lat="40.58608735911548137664794921875" lon="-1.763955093920230865478515625">
        <ele>1441.5999755859375</ele>
        <time>2022-05-04T11:43:35.000Z</time>
      </trkpt>
      <trkpt lat="40.58609691448509693145751953125" lon="-1.76387236453592777252197265625">
        <ele>1440.800048828125</ele>
        <time>2022-05-04T11:43:36.000Z</time>
      </trkpt>
      <trkpt lat="40.58609724976122379302978515625" lon="-1.7636977694928646087646484375">
        <ele>1438.199951171875</ele>
        <time>2022-05-04T11:43:38.000Z</time>
      </trkpt>
      <trkpt lat="40.58608568273484706878662109375" lon="-1.76360917277634143829345703125">
        <ele>1436.199951171875</ele>
        <time>2022-05-04T11:43:39.000Z</time>
      </trkpt>
      <trkpt lat="40.58602415956556797027587890625" lon="-1.763194017112255096435546875">
        <ele>1428.800048828125</ele>
        <time>2022-05-04T11:43:44.000Z</time>
      </trkpt>
      <trkpt lat="40.58602902106940746307373046875" lon="-1.7631127126514911651611328125">
        <ele>1427.199951171875</ele>
        <time>2022-05-04T11:43:45.000Z</time>
      </trkpt>
      <trkpt lat="40.58609624393284320831298828125" lon="-1.7628904245793819427490234375">
        <ele>1425.800048828125</ele>
        <time>2022-05-04T11:43:48.000Z</time>
      </trkpt>
      <trkpt lat="40.5861335434019565582275390625" lon="-1.7628263868391513824462890625">
        <ele>1426.199951171875</ele>
        <time>2022-05-04T11:43:49.000Z</time>
      </trkpt>
      <trkpt lat="40.58622566051781177520751953125" lon="-1.7627133987843990325927734375">
        <ele>1428.199951171875</ele>
        <time>2022-05-04T11:43:51.000Z</time>
      </trkpt>
      <trkpt lat="40.5863202922046184539794921875" lon="-1.76260217092931270599365234375">
        <ele>1430.5999755859375</ele>
        <time>2022-05-04T11:43:53.000Z</time>
      </trkpt>
      <trkpt lat="40.58640427887439727783203125" lon="-1.76247744821012020111083984375">
        <ele>1431.800048828125</ele>
        <time>2022-05-04T11:43:55.000Z</time>
      </trkpt>
      <trkpt lat="40.58644241653382778167724609375" lon="-1.7624096386134624481201171875">
        <ele>1432.199951171875</ele>
        <time>2022-05-04T11:43:56.000Z</time>
      </trkpt>
      <trkpt lat="40.58656948618590831756591796875" lon="-1.762124486267566680908203125">
        <ele>1432.5999755859375</ele>
        <time>2022-05-04T11:44:00.000Z</time>
      </trkpt>
      <trkpt lat="40.5865982361137866973876953125" lon="-1.76205382682383060455322265625">
        <ele>1432.800048828125</ele>
        <time>2022-05-04T11:44:01.000Z</time>
      </trkpt>
      <trkpt lat="40.58681038208305835723876953125" lon="-1.76155393011868000030517578125">
        <ele>1434.5999755859375</ele>
        <time>2022-05-04T11:44:08.000Z</time>
      </trkpt>
      <trkpt lat="40.586896128952503204345703125" lon="-1.761333234608173370361328125">
        <ele>1436</ele>
        <time>2022-05-04T11:44:11.000Z</time>
      </trkpt>
      <trkpt lat="40.586915910243988037109375" lon="-1.761254779994487762451171875">
        <ele>1436</ele>
        <time>2022-05-04T11:44:12.000Z</time>
      </trkpt>
      <trkpt lat="40.58692940510809421539306640625" lon="-1.76117171533405780792236328125">
        <ele>1435.800048828125</ele>
        <time>2022-05-04T11:44:13.000Z</time>
      </trkpt>
      <trkpt lat="40.58689101599156856536865234375" lon="-1.76081598736345767974853515625">
        <ele>1432.199951171875</ele>
        <time>2022-05-04T11:44:17.000Z</time>
      </trkpt>
      <trkpt lat="40.5866919457912445068359375" lon="-1.7605175077915191650390625">
        <ele>1427</ele>
        <time>2022-05-04T11:44:21.000Z</time>
      </trkpt>
      <trkpt lat="40.58655406348407268524169921875" lon="-1.760426647961139678955078125">
        <ele>1423.5999755859375</ele>
        <time>2022-05-04T11:44:23.000Z</time>
      </trkpt>
      <trkpt lat="40.58648114092648029327392578125" lon="-1.7603973113000392913818359375">
        <ele>1421.800048828125</ele>
        <time>2022-05-04T11:44:24.000Z</time>
      </trkpt>
      <trkpt lat="40.58633127249777317047119140625" lon="-1.76035263575613498687744140625">
        <ele>1418.5999755859375</ele>
        <time>2022-05-04T11:44:26.000Z</time>
      </trkpt>
      <trkpt lat="40.58625943958759307861328125" lon="-1.7603352852165699005126953125">
        <ele>1419</ele>
        <time>2022-05-04T11:44:27.000Z</time>
      </trkpt>
      <trkpt lat="40.58612398803234100341796875" lon="-1.760313324630260467529296875">
        <ele>1419.4000244140625</ele>
        <time>2022-05-04T11:44:29.000Z</time>
      </trkpt>
      <trkpt lat="40.585816539824008941650390625" lon="-1.76018147729337215423583984375">
        <ele>1418.5999755859375</ele>
        <time>2022-05-04T11:44:34.000Z</time>
      </trkpt>
      <trkpt lat="40.58559232391417026519775390625" lon="-1.75995902158319950103759765625">
        <ele>1416</ele>
        <time>2022-05-04T11:44:39.000Z</time>
      </trkpt>
      <trkpt lat="40.585383363068103790283203125" lon="-1.7596074007451534271240234375">
        <ele>1422.4000244140625</ele>
        <time>2022-05-04T11:44:46.000Z</time>
      </trkpt>
      <trkpt lat="40.5852148868143558502197265625" lon="-1.75928436219692230224609375">
        <ele>1429.5999755859375</ele>
        <time>2022-05-04T11:44:53.000Z</time>
      </trkpt>
      <trkpt lat="40.5851582251489162445068359375" lon="-1.759009771049022674560546875">
        <ele>1427.4000244140625</ele>
        <time>2022-05-04T11:44:59.000Z</time>
      </trkpt>
      <trkpt lat="40.58516048826277256011962890625" lon="-1.7588330805301666259765625">
        <ele>1428.800048828125</ele>
        <time>2022-05-04T11:45:03.000Z</time>
      </trkpt>
      <trkpt lat="40.58517716825008392333984375" lon="-1.75860685296356678009033203125">
        <ele>1430.5999755859375</ele>
        <time>2022-05-04T11:45:08.000Z</time>
      </trkpt>
      <trkpt lat="40.58518119156360626220703125" lon="-1.75836863927543163299560546875">
        <ele>1430.5999755859375</ele>
        <time>2022-05-04T11:45:13.000Z</time>
      </trkpt>
      <trkpt lat="40.5850747413933277130126953125" lon="-1.75811030901968479156494140625">
        <ele>1426.5999755859375</ele>
        <time>2022-05-04T11:45:19.000Z</time>
      </trkpt>
      <trkpt lat="40.58498270809650421142578125" lon="-1.758012659847736358642578125">
        <ele>1423.800048828125</ele>
        <time>2022-05-04T11:45:22.000Z</time>
      </trkpt>
      <trkpt lat="40.58488271199166774749755859375" lon="-1.7579345405101776123046875">
        <ele>1421.5999755859375</ele>
        <time>2022-05-04T11:45:25.000Z</time>
      </trkpt>
      <trkpt lat="40.58460325933992862701416015625" lon="-1.75780688412487506866455078125">
        <ele>1420.4000244140625</ele>
        <time>2022-05-04T11:45:33.000Z</time>
      </trkpt>
      <trkpt lat="40.5845678038895130157470703125" lon="-1.75779129378497600555419921875">
        <ele>1421</ele>
        <time>2022-05-04T11:45:34.000Z</time>
      </trkpt>
      <trkpt lat="40.58439807035028934478759765625" lon="-1.757680065929889678955078125">
        <ele>1424.4000244140625</ele>
        <time>2022-05-04T11:45:39.000Z</time>
      </trkpt>
      <trkpt lat="40.58420897461473941802978515625" lon="-1.757498346269130706787109375">
        <ele>1421.4000244140625</ele>
        <time>2022-05-04T11:45:45.000Z</time>
      </trkpt>
      <trkpt lat="40.58415298350155353546142578125" lon="-1.757425256073474884033203125">
        <ele>1420.199951171875</ele>
        <time>2022-05-04T11:45:47.000Z</time>
      </trkpt>
      <trkpt lat="40.5839867703616619110107421875" lon="-1.7571109347045421600341796875">
        <ele>1424.4000244140625</ele>
        <time>2022-05-04T11:45:54.000Z</time>
      </trkpt>
      <trkpt lat="40.5838935635983943939208984375" lon="-1.7568165622651576995849609375">
        <ele>1426.199951171875</ele>
        <time>2022-05-04T11:46:00.000Z</time>
      </trkpt>
      <trkpt lat="40.58387939818203449249267578125" lon="-1.756766103208065032958984375">
        <ele>1426.5999755859375</ele>
        <time>2022-05-04T11:46:01.000Z</time>
      </trkpt>
      <trkpt lat="40.58369700796902179718017578125" lon="-1.75634273327887058258056640625">
        <ele>1432.800048828125</ele>
        <time>2022-05-04T11:46:10.000Z</time>
      </trkpt>
      <trkpt lat="40.5835753865540027618408203125" lon="-1.75612111575901508331298828125">
        <ele>1437.199951171875</ele>
        <time>2022-05-04T11:46:15.000Z</time>
      </trkpt>
      <trkpt lat="40.58344370685517787933349609375" lon="-1.7559175193309783935546875">
        <ele>1436.4000244140625</ele>
        <time>2022-05-04T11:46:20.000Z</time>
      </trkpt>
      <trkpt lat="40.5832451395690441131591796875" lon="-1.75566145218908786773681640625">
        <ele>1432.199951171875</ele>
        <time>2022-05-04T11:46:27.000Z</time>
      </trkpt>
      <trkpt lat="40.58315603993833065032958984375" lon="-1.755551733076572418212890625">
        <ele>1434</ele>
        <time>2022-05-04T11:46:30.000Z</time>
      </trkpt>
      <trkpt lat="40.5830629169940948486328125" lon="-1.75544603727757930755615234375">
        <ele>1434.199951171875</ele>
        <time>2022-05-04T11:46:33.000Z</time>
      </trkpt>
      <trkpt lat="40.583001561462879180908203125" lon="-1.75538132898509502410888671875">
        <ele>1434.800048828125</ele>
        <time>2022-05-04T11:46:35.000Z</time>
      </trkpt>
      <trkpt lat="40.5828361026942729949951171875" lon="-1.755240596830844879150390625">
        <ele>1440.199951171875</ele>
        <time>2022-05-04T11:46:40.000Z</time>
      </trkpt>
      <trkpt lat="40.5827660299837589263916015625" lon="-1.75518753938376903533935546875">
        <ele>1442.4000244140625</ele>
        <time>2022-05-04T11:46:42.000Z</time>
      </trkpt>
      <trkpt lat="40.5826258845627307891845703125" lon="-1.75509349443018436431884765625">
        <ele>1441.4000244140625</ele>
        <time>2022-05-04T11:46:46.000Z</time>
      </trkpt>
      <trkpt lat="40.58237551711499691009521484375" lon="-1.7551207356154918670654296875">
        <ele>1434.800048828125</ele>
        <time>2022-05-04T11:46:52.000Z</time>
      </trkpt>
      <trkpt lat="40.58224090375006198883056640625" lon="-1.75513842143118381500244140625">
        <ele>1431.4000244140625</ele>
        <time>2022-05-04T11:46:55.000Z</time>
      </trkpt>
      <trkpt lat="40.58207712136209011077880859375" lon="-1.75517781637609004974365234375">
        <ele>1429.5999755859375</ele>
        <time>2022-05-04T11:46:59.000Z</time>
      </trkpt>
      <trkpt lat="40.58195424266159534454345703125" lon="-1.75520983524620532989501953125">
        <ele>1429.4000244140625</ele>
        <time>2022-05-04T11:47:02.000Z</time>
      </trkpt>
      <trkpt lat="40.58170228265225887298583984375" lon="-1.7552749626338481903076171875">
        <ele>1429</ele>
        <time>2022-05-04T11:47:08.000Z</time>
      </trkpt>
      <trkpt lat="40.58141537010669708251953125" lon="-1.75535492599010467529296875">
        <ele>1427.800048828125</ele>
        <time>2022-05-04T11:47:15.000Z</time>
      </trkpt>
      <trkpt lat="40.5810888111591339111328125" lon="-1.75542474724352359771728515625">
        <ele>1426.4000244140625</ele>
        <time>2022-05-04T11:47:23.000Z</time>
      </trkpt>
      <trkpt lat="40.58073140680789947509765625" lon="-1.755512841045856475830078125">
        <ele>1424.800048828125</ele>
        <time>2022-05-04T11:47:32.000Z</time>
      </trkpt>
      <trkpt lat="40.58036369271576404571533203125" lon="-1.7555723525583744049072265625">
        <ele>1426</ele>
        <time>2022-05-04T11:47:41.000Z</time>
      </trkpt>
      <trkpt lat="40.5802839808166027069091796875" lon="-1.7555824108421802520751953125">
        <ele>1425.5999755859375</ele>
        <time>2022-05-04T11:47:43.000Z</time>
      </trkpt>
      <trkpt lat="40.58008055202662944793701171875" lon="-1.75558065064251422882080078125">
        <ele>1425.4000244140625</ele>
        <time>2022-05-04T11:47:48.000Z</time>
      </trkpt>
      <trkpt lat="40.57987100444734096527099609375" lon="-1.7555741965770721435546875">
        <ele>1425.199951171875</ele>
        <time>2022-05-04T11:47:54.000Z</time>
      </trkpt>
      <trkpt lat="40.57960462756454944610595703125" lon="-1.75553605891764163970947265625">
        <ele>1425</ele>
        <time>2022-05-04T11:48:02.000Z</time>
      </trkpt>
      <trkpt lat="40.57937395758926868438720703125" lon="-1.75545911304652690887451171875">
        <ele>1428.5999755859375</ele>
        <time>2022-05-04T11:48:09.000Z</time>
      </trkpt>
      <trkpt lat="40.5791537649929523468017578125" lon="-1.75534226931631565093994140625">
        <ele>1431.199951171875</ele>
        <time>2022-05-04T11:48:16.000Z</time>
      </trkpt>
      <trkpt lat="40.57902946136891841888427734375" lon="-1.75526549108326435089111328125">
        <ele>1429.199951171875</ele>
        <time>2022-05-04T11:48:20.000Z</time>
      </trkpt>
      <trkpt lat="40.57890473864972591400146484375" lon="-1.7551951669156551361083984375">
        <ele>1427.4000244140625</ele>
        <time>2022-05-04T11:48:24.000Z</time>
      </trkpt>
      <trkpt lat="40.5786702968180179595947265625" lon="-1.755042113363742828369140625">
        <ele>1428.800048828125</ele>
        <time>2022-05-04T11:48:32.000Z</time>
      </trkpt>
      <trkpt lat="40.57861640118062496185302734375" lon="-1.75500414334237575531005859375">
        <ele>1428.5999755859375</ele>
        <time>2022-05-04T11:48:34.000Z</time>
      </trkpt>
      <trkpt lat="40.57841607369482517242431640625" lon="-1.75477632321417331695556640625">
        <ele>1429.800048828125</ele>
        <time>2022-05-04T11:48:42.000Z</time>
      </trkpt>
      <trkpt lat="40.57839612476527690887451171875" lon="-1.75474044866859912872314453125">
        <ele>1430.4000244140625</ele>
        <time>2022-05-04T11:48:43.000Z</time>
      </trkpt>
      <trkpt lat="40.57828933931887149810791015625" lon="-1.75449125468730926513671875">
        <ele>1433.4000244140625</ele>
        <time>2022-05-04T11:48:49.000Z</time>
      </trkpt>
      <trkpt lat="40.5781898461282253265380859375" lon="-1.754172742366790771484375">
        <ele>1434.800048828125</ele>
        <time>2022-05-04T11:48:56.000Z</time>
      </trkpt>
      <trkpt lat="40.5781794525682926177978515625" lon="-1.75412471406161785125732421875">
        <ele>1435.199951171875</ele>
        <time>2022-05-04T11:48:57.000Z</time>
      </trkpt>
      <trkpt lat="40.57807979173958301544189453125" lon="-1.753700338304042816162109375">
        <ele>1439.5999755859375</ele>
        <time>2022-05-04T11:49:06.000Z</time>
      </trkpt>
      <trkpt lat="40.57805984281003475189208984375" lon="-1.7536039464175701141357421875">
        <ele>1440.4000244140625</ele>
        <time>2022-05-04T11:49:08.000Z</time>
      </trkpt>
      <trkpt lat="40.57798977009952068328857421875" lon="-1.75332742743194103240966796875">
        <ele>1443.4000244140625</ele>
        <time>2022-05-04T11:49:14.000Z</time>
      </trkpt>
      <trkpt lat="40.5779063701629638671875" lon="-1.75300992093980312347412109375">
        <ele>1448</ele>
        <time>2022-05-04T11:49:21.000Z</time>
      </trkpt>
      <trkpt lat="40.57789639569818973541259765625" lon="-1.7529669217765331268310546875">
        <ele>1448.800048828125</ele>
        <time>2022-05-04T11:49:22.000Z</time>
      </trkpt>
      <trkpt lat="40.5778267420828342437744140625" lon="-1.752711273729801177978515625">
        <ele>1453.800048828125</ele>
        <time>2022-05-04T11:49:28.000Z</time>
      </trkpt>
      <trkpt lat="40.577764548361301422119140625" lon="-1.7524904944002628326416015625">
        <ele>1454.800048828125</ele>
        <time>2022-05-04T11:49:33.000Z</time>
      </trkpt>
      <trkpt lat="40.577751137316226959228515625" lon="-1.7524479143321514129638671875">
        <ele>1454.4000244140625</ele>
        <time>2022-05-04T11:49:34.000Z</time>
      </trkpt>
      <trkpt lat="40.57763613760471343994140625" lon="-1.752194277942180633544921875">
        <ele>1457</ele>
        <time>2022-05-04T11:49:40.000Z</time>
      </trkpt>
      <trkpt lat="40.5774726904928684234619140625" lon="-1.75202119164168834686279296875">
        <ele>1458.4000244140625</ele>
        <time>2022-05-04T11:49:46.000Z</time>
      </trkpt>
      <trkpt lat="40.5773087404668331146240234375" lon="-1.7519409768283367156982421875">
        <ele>1455.5999755859375</ele>
        <time>2022-05-04T11:49:51.000Z</time>
      </trkpt>
      <trkpt lat="40.57726875878870487213134765625" lon="-1.751939468085765838623046875">
        <ele>1454.5999755859375</ele>
        <time>2022-05-04T11:49:52.000Z</time>
      </trkpt>
      <trkpt lat="40.57706792838871479034423828125" lon="-1.75194659270346164703369140625">
        <ele>1452.800048828125</ele>
        <time>2022-05-04T11:49:57.000Z</time>
      </trkpt>
      <trkpt lat="40.576938092708587646484375" lon="-1.75194005481898784637451171875">
        <ele>1454</ele>
        <time>2022-05-04T11:50:00.000Z</time>
      </trkpt>
      <trkpt lat="40.5768417008221149444580078125" lon="-1.7519181780517101287841796875">
        <ele>1455.4000244140625</ele>
        <time>2022-05-04T11:50:02.000Z</time>
      </trkpt>
      <trkpt lat="40.576798282563686370849609375" lon="-1.7519128136336803436279296875">
        <ele>1455.5999755859375</ele>
        <time>2022-05-04T11:50:03.000Z</time>
      </trkpt>
      <trkpt lat="40.5766470730304718017578125" lon="-1.75191004760563373565673828125">
        <ele>1452.800048828125</ele>
        <time>2022-05-04T11:50:07.000Z</time>
      </trkpt>
      <trkpt lat="40.5764780938625335693359375" lon="-1.75185522995889186859130859375">
        <ele>1449.800048828125</ele>
        <time>2022-05-04T11:50:12.000Z</time>
      </trkpt>
      <trkpt lat="40.5762589909136295318603515625" lon="-1.75167602486908435821533203125">
        <ele>1448.199951171875</ele>
        <time>2022-05-04T11:50:19.000Z</time>
      </trkpt>
      <trkpt lat="40.57605220936238765716552734375" lon="-1.75145507790148258209228515625">
        <ele>1449.5999755859375</ele>
        <time>2022-05-04T11:50:26.000Z</time>
      </trkpt>
      <trkpt lat="40.57588775642216205596923828125" lon="-1.751358099281787872314453125">
        <ele>1453.199951171875</ele>
        <time>2022-05-04T11:50:31.000Z</time>
      </trkpt>
      <trkpt lat="40.5757084675133228302001953125" lon="-1.7513824068009853363037109375">
        <ele>1451.199951171875</ele>
        <time>2022-05-04T11:50:36.000Z</time>
      </trkpt>
      <trkpt lat="40.57557812891900539398193359375" lon="-1.75147519446909427642822265625">
        <ele>1446.4000244140625</ele>
        <time>2022-05-04T11:50:40.000Z</time>
      </trkpt>
      <trkpt lat="40.5754883587360382080078125" lon="-1.75154945813119411468505859375">
        <ele>1443</ele>
        <time>2022-05-04T11:50:43.000Z</time>
      </trkpt>
      <trkpt lat="40.5753440223634243011474609375" lon="-1.75166915170848369598388671875">
        <ele>1443.800048828125</ele>
        <time>2022-05-04T11:50:48.000Z</time>
      </trkpt>
      <trkpt lat="40.575166828930377960205078125" lon="-1.75180041231215000152587890625">
        <ele>1444.5999755859375</ele>
        <time>2022-05-04T11:50:54.000Z</time>
      </trkpt>
      <trkpt lat="40.57500698603689670562744140625" lon="-1.75186797045171260833740234375">
        <ele>1445.199951171875</ele>
        <time>2022-05-04T11:50:59.000Z</time>
      </trkpt>
      <trkpt lat="40.5749762244522571563720703125" lon="-1.75187668763101100921630859375">
        <ele>1445.199951171875</ele>
        <time>2022-05-04T11:51:00.000Z</time>
      </trkpt>
      <trkpt lat="40.57474547065794467926025390625" lon="-1.7518786154687404632568359375">
        <ele>1445.5999755859375</ele>
        <time>2022-05-04T11:51:07.000Z</time>
      </trkpt>
      <trkpt lat="40.57466047815978527069091796875" lon="-1.75185372121632099151611328125">
        <ele>1445.5999755859375</ele>
        <time>2022-05-04T11:51:10.000Z</time>
      </trkpt>
      <trkpt lat="40.57454732246696949005126953125" lon="-1.7517837323248386383056640625">
        <ele>1445.5999755859375</ele>
        <time>2022-05-04T11:51:14.000Z</time>
      </trkpt>
      <trkpt lat="40.574389658868312835693359375" lon="-1.75162858329713344573974609375">
        <ele>1444.4000244140625</ele>
        <time>2022-05-04T11:51:20.000Z</time>
      </trkpt>
      <trkpt lat="40.57430508546531200408935546875" lon="-1.7514920420944690704345703125">
        <ele>1444.4000244140625</ele>
        <time>2022-05-04T11:51:24.000Z</time>
      </trkpt>
      <trkpt lat="40.57426786981523036956787109375" lon="-1.7514129169285297393798828125">
        <ele>1446</ele>
        <time>2022-05-04T11:51:26.000Z</time>
      </trkpt>
      <trkpt lat="40.57418656535446643829345703125" lon="-1.75115735270082950592041015625">
        <ele>1450</ele>
        <time>2022-05-04T11:51:32.000Z</time>
      </trkpt>
      <trkpt lat="40.574173741042613983154296875" lon="-1.75106816925108432769775390625">
        <ele>1450</ele>
        <time>2022-05-04T11:51:34.000Z</time>
      </trkpt>
      <trkpt lat="40.57417147792875766754150390625" lon="-1.75088343210518360137939453125">
        <ele>1450.4000244140625</ele>
        <time>2022-05-04T11:51:38.000Z</time>
      </trkpt>
      <trkpt lat="40.57417617179453372955322265625" lon="-1.7504540272057056427001953125">
        <ele>1457</ele>
        <time>2022-05-04T11:51:47.000Z</time>
      </trkpt>
      <trkpt lat="40.5741604976356029510498046875" lon="-1.75022025592625141143798828125">
        <ele>1459</ele>
        <time>2022-05-04T11:51:52.000Z</time>
      </trkpt>
      <trkpt lat="40.57415194809436798095703125" lon="-1.750126294791698455810546875">
        <ele>1459.199951171875</ele>
        <time>2022-05-04T11:51:54.000Z</time>
      </trkpt>
      <trkpt lat="40.57409696280956268310546875" lon="-1.749833934009075164794921875">
        <ele>1459.199951171875</ele>
        <time>2022-05-04T11:52:00.000Z</time>
      </trkpt>
      <trkpt lat="40.57400065474212169647216796875" lon="-1.7496567405760288238525390625">
        <ele>1459.4000244140625</ele>
        <time>2022-05-04T11:52:04.000Z</time>
      </trkpt>
      <trkpt lat="40.57393393479287624359130859375" lon="-1.74958683550357818603515625">
        <ele>1458</ele>
        <time>2022-05-04T11:52:06.000Z</time>
      </trkpt>
      <trkpt lat="40.57376747019588947296142578125" lon="-1.7495239712297916412353515625">
        <ele>1455.5999755859375</ele>
        <time>2022-05-04T11:52:10.000Z</time>
      </trkpt>
      <trkpt lat="40.57372472248971462249755859375" lon="-1.74951885826885700225830078125">
        <ele>1455.5999755859375</ele>
        <time>2022-05-04T11:52:11.000Z</time>
      </trkpt>
      <trkpt lat="40.573682226240634918212890625" lon="-1.74951802007853984832763671875">
        <ele>1455.5999755859375</ele>
        <time>2022-05-04T11:52:12.000Z</time>
      </trkpt>
      <trkpt lat="40.57350930757820606231689453125" lon="-1.74955020658671855926513671875">
        <ele>1454.800048828125</ele>
        <time>2022-05-04T11:52:16.000Z</time>
      </trkpt>
      <trkpt lat="40.57346572168171405792236328125" lon="-1.7495621927082538604736328125">
        <ele>1454.5999755859375</ele>
        <time>2022-05-04T11:52:17.000Z</time>
      </trkpt>
      <trkpt lat="40.5732881091535091400146484375" lon="-1.7495875060558319091796875">
        <ele>1453.800048828125</ele>
        <time>2022-05-04T11:52:21.000Z</time>
      </trkpt>
      <trkpt lat="40.57324376888573169708251953125" lon="-1.7495836503803730010986328125">
        <ele>1453.5999755859375</ele>
        <time>2022-05-04T11:52:22.000Z</time>
      </trkpt>
      <trkpt lat="40.572909414768218994140625" lon="-1.74950636923313140869140625">
        <ele>1454</ele>
        <time>2022-05-04T11:52:30.000Z</time>
      </trkpt>
      <trkpt lat="40.5726282857358455657958984375" lon="-1.74944627098739147186279296875">
        <ele>1456.4000244140625</ele>
        <time>2022-05-04T11:52:37.000Z</time>
      </trkpt>
      <trkpt lat="40.57255008257925510406494140625" lon="-1.74942397512495517730712890625">
        <ele>1456.4000244140625</ele>
        <time>2022-05-04T11:52:39.000Z</time>
      </trkpt>
      <trkpt lat="40.57240893132984638214111328125" lon="-1.74939162097871303558349609375">
        <ele>1456.199951171875</ele>
        <time>2022-05-04T11:52:43.000Z</time>
      </trkpt>
      <trkpt lat="40.57213249616324901580810546875" lon="-1.74933739006519317626953125">
        <ele>1455.5999755859375</ele>
        <time>2022-05-04T11:52:51.000Z</time>
      </trkpt>
      <trkpt lat="40.5719694681465625762939453125" lon="-1.7493020184338092803955078125">
        <ele>1456</ele>
        <time>2022-05-04T11:52:56.000Z</time>
      </trkpt>
      <trkpt lat="40.5719049274921417236328125" lon="-1.7492835782468318939208984375">
        <ele>1455.800048828125</ele>
        <time>2022-05-04T11:52:58.000Z</time>
      </trkpt>
      <trkpt lat="40.5717056058347225189208984375" lon="-1.74917989410459995269775390625">
        <ele>1453.5999755859375</ele>
        <time>2022-05-04T11:53:05.000Z</time>
      </trkpt>
      <trkpt lat="40.5715426616370677947998046875" lon="-1.7489679157733917236328125">
        <ele>1453.800048828125</ele>
        <time>2022-05-04T11:53:12.000Z</time>
      </trkpt>
      <trkpt lat="40.57147015817463397979736328125" lon="-1.7488150298595428466796875">
        <ele>1456.4000244140625</ele>
        <time>2022-05-04T11:53:16.000Z</time>
      </trkpt>
      <trkpt lat="40.571433193981647491455078125" lon="-1.74870011396706104278564453125">
        <ele>1457.5999755859375</ele>
        <time>2022-05-04T11:53:19.000Z</time>
      </trkpt>
      <trkpt lat="40.57131727226078510284423828125" lon="-1.7484728805720806121826171875">
        <ele>1460.4000244140625</ele>
        <time>2022-05-04T11:53:25.000Z</time>
      </trkpt>
      <trkpt lat="40.571294724941253662109375" lon="-1.74843708984553813934326171875">
        <ele>1461.5999755859375</ele>
        <time>2022-05-04T11:53:26.000Z</time>
      </trkpt>
      <trkpt lat="40.5711547471582889556884765625" lon="-1.7482492513954639434814453125">
        <ele>1462.4000244140625</ele>
        <time>2022-05-04T11:53:32.000Z</time>
      </trkpt>
      <trkpt lat="40.5709978379309177398681640625" lon="-1.7481010593473911285400390625">
        <ele>1462.4000244140625</ele>
        <time>2022-05-04T11:53:38.000Z</time>
      </trkpt>
      <trkpt lat="40.57094377465546131134033203125" lon="-1.748056299984455108642578125">
        <ele>1463</ele>
        <time>2022-05-04T11:53:40.000Z</time>
      </trkpt>
      <trkpt lat="40.57075182907283306121826171875" lon="-1.74790416844189167022705078125">
        <ele>1464.199951171875</ele>
        <time>2022-05-04T11:53:47.000Z</time>
      </trkpt>
      <trkpt lat="40.57064504362642765045166015625" lon="-1.74781029112637042999267578125">
        <ele>1463</ele>
        <time>2022-05-04T11:53:51.000Z</time>
      </trkpt>
      <trkpt lat="40.5705318041145801544189453125" lon="-1.7477285675704479217529296875">
        <ele>1461.5999755859375</ele>
        <time>2022-05-04T11:53:55.000Z</time>
      </trkpt>
      <trkpt lat="40.57031647302210330963134765625" lon="-1.74754709936678409576416015625">
        <ele>1467.4000244140625</ele>
        <time>2022-05-04T11:54:03.000Z</time>
      </trkpt>
      <trkpt lat="40.57017515413463115692138671875" lon="-1.74742958508431911468505859375">
        <ele>1463.4000244140625</ele>
        <time>2022-05-04T11:54:08.000Z</time>
      </trkpt>
      <trkpt lat="40.57011547498404979705810546875" lon="-1.74738482572138309478759765625">
        <ele>1462</ele>
        <time>2022-05-04T11:54:10.000Z</time>
      </trkpt>
      <trkpt lat="40.5699951946735382080078125" lon="-1.7472839914262294769287109375">
        <ele>1463</ele>
        <time>2022-05-04T11:54:14.000Z</time>
      </trkpt>
      <trkpt lat="40.56981238536536693572998046875" lon="-1.7471391521394252777099609375">
        <ele>1463.5999755859375</ele>
        <time>2022-05-04T11:54:20.000Z</time>
      </trkpt>
      <trkpt lat="40.56952455081045627593994140625" lon="-1.74702138639986515045166015625">
        <ele>1462</ele>
        <time>2022-05-04T11:54:28.000Z</time>
      </trkpt>
      <trkpt lat="40.569255240261554718017578125" lon="-1.74700059927999973297119140625">
        <ele>1462.199951171875</ele>
        <time>2022-05-04T11:54:35.000Z</time>
      </trkpt>
      <trkpt lat="40.5689801461994647979736328125" lon="-1.74708299338817596435546875">
        <ele>1459</ele>
        <time>2022-05-04T11:54:42.000Z</time>
      </trkpt>
      <trkpt lat="40.568740256130695343017578125" lon="-1.74720947630703449249267578125">
        <ele>1456.199951171875</ele>
        <time>2022-05-04T11:54:48.000Z</time>
      </trkpt>
      <trkpt lat="40.5686991848051548004150390625" lon="-1.747222132980823516845703125">
        <ele>1455.800048828125</ele>
        <time>2022-05-04T11:54:49.000Z</time>
      </trkpt>
      <trkpt lat="40.5684356577694416046142578125" lon="-1.7473041079938411712646484375">
        <ele>1453.800048828125</ele>
        <time>2022-05-04T11:54:56.000Z</time>
      </trkpt>
      <trkpt lat="40.568274222314357757568359375" lon="-1.747312657535076141357421875">
        <ele>1452.800048828125</ele>
        <time>2022-05-04T11:55:00.000Z</time>
      </trkpt>
      <trkpt lat="40.56823574937880039215087890625" lon="-1.7473101429641246795654296875">
        <ele>1452.5999755859375</ele>
        <time>2022-05-04T11:55:01.000Z</time>
      </trkpt>
      <trkpt lat="40.5679686181247234344482421875" lon="-1.7472266592085361480712890625">
        <ele>1453.5999755859375</ele>
        <time>2022-05-04T11:55:08.000Z</time>
      </trkpt>
      <trkpt lat="40.5677003972232341766357421875" lon="-1.74703261815011501312255859375">
        <ele>1457.199951171875</ele>
        <time>2022-05-04T11:55:16.000Z</time>
      </trkpt>
      <trkpt lat="40.56766896508634090423583984375" lon="-1.747005879878997802734375">
        <ele>1457.5999755859375</ele>
        <time>2022-05-04T11:55:17.000Z</time>
      </trkpt>
      <trkpt lat="40.567500405013561248779296875" lon="-1.7468270100653171539306640625">
        <ele>1458.199951171875</ele>
        <time>2022-05-04T11:55:23.000Z</time>
      </trkpt>
      <trkpt lat="40.567322708666324615478515625" lon="-1.74660430289804935455322265625">
        <ele>1457.4000244140625</ele>
        <time>2022-05-04T11:55:30.000Z</time>
      </trkpt>
      <trkpt lat="40.56721248663961887359619140625" lon="-1.74648410640656948089599609375">
        <ele>1457.4000244140625</ele>
        <time>2022-05-04T11:55:34.000Z</time>
      </trkpt>
      <trkpt lat="40.5670060403645038604736328125" lon="-1.74623851664364337921142578125">
        <ele>1460.800048828125</ele>
        <time>2022-05-04T11:55:42.000Z</time>
      </trkpt>
      <trkpt lat="40.56695683859288692474365234375" lon="-1.7461779154837131500244140625">
        <ele>1461.800048828125</ele>
        <time>2022-05-04T11:55:44.000Z</time>
      </trkpt>
      <trkpt lat="40.56672415696084499359130859375" lon="-1.74593073315918445587158203125">
        <ele>1462.4000244140625</ele>
        <time>2022-05-04T11:55:53.000Z</time>
      </trkpt>
      <trkpt lat="40.5666477978229522705078125" lon="-1.74584775231778621673583984375">
        <ele>1461.4000244140625</ele>
        <time>2022-05-04T11:55:56.000Z</time>
      </trkpt>
      <trkpt lat="40.56646934710443019866943359375" lon="-1.7456636019051074981689453125">
        <ele>1459.5999755859375</ele>
        <time>2022-05-04T11:56:03.000Z</time>
      </trkpt>
      <trkpt lat="40.5663358233869075775146484375" lon="-1.74553133547306060791015625">
        <ele>1459.5999755859375</ele>
        <time>2022-05-04T11:56:08.000Z</time>
      </trkpt>
      <trkpt lat="40.56628167629241943359375" lon="-1.7454778589308261871337890625">
        <ele>1460.199951171875</ele>
        <time>2022-05-04T11:56:10.000Z</time>
      </trkpt>
      <trkpt lat="40.56606148369610309600830078125" lon="-1.74527107737958431243896484375">
        <ele>1462.199951171875</ele>
        <time>2022-05-04T11:56:18.000Z</time>
      </trkpt>
      <trkpt lat="40.56597657501697540283203125" lon="-1.7451982386410236358642578125">
        <ele>1462.4000244140625</ele>
        <time>2022-05-04T11:56:21.000Z</time>
      </trkpt>
      <trkpt lat="40.5658308975398540496826171875" lon="-1.74507745541632175445556640625">
        <ele>1460.800048828125</ele>
        <time>2022-05-04T11:56:26.000Z</time>
      </trkpt>
      <trkpt lat="40.5656169913709163665771484375" lon="-1.7448663152754306793212890625">
        <ele>1458.800048828125</ele>
        <time>2022-05-04T11:56:34.000Z</time>
      </trkpt>
      <trkpt lat="40.5655673705041408538818359375" lon="-1.74480789341032505035400390625">
        <ele>1458.800048828125</ele>
        <time>2022-05-04T11:56:36.000Z</time>
      </trkpt>
      <trkpt lat="40.5653326772153377532958984375" lon="-1.74446783959865570068359375">
        <ele>1461</ele>
        <time>2022-05-04T11:56:46.000Z</time>
      </trkpt>
      <trkpt lat="40.5652683041989803314208984375" lon="-1.744356192648410797119140625">
        <ele>1462</ele>
        <time>2022-05-04T11:56:49.000Z</time>
      </trkpt>
      <trkpt lat="40.565121285617351531982421875" lon="-1.74410842359066009521484375">
        <ele>1462.4000244140625</ele>
        <time>2022-05-04T11:56:56.000Z</time>
      </trkpt>
      <trkpt lat="40.5649826489388942718505859375" lon="-1.74386543221771717071533203125">
        <ele>1463.5999755859375</ele>
        <time>2022-05-04T11:57:03.000Z</time>
      </trkpt>
      <trkpt lat="40.564847700297832489013671875" lon="-1.74363903701305389404296875">
        <ele>1464.4000244140625</ele>
        <time>2022-05-04T11:57:09.000Z</time>
      </trkpt>
      <trkpt lat="40.56482590734958648681640625" lon="-1.74360207282006740570068359375">
        <ele>1464.4000244140625</ele>
        <time>2022-05-04T11:57:10.000Z</time>
      </trkpt>
      <trkpt lat="40.564623735845088958740234375" lon="-1.74323628656566143035888671875">
        <ele>1465.4000244140625</ele>
        <time>2022-05-04T11:57:20.000Z</time>
      </trkpt>
      <trkpt lat="40.564463473856449127197265625" lon="-1.7429549060761928558349609375">
        <ele>1466.4000244140625</ele>
        <time>2022-05-04T11:57:28.000Z</time>
      </trkpt>
      <trkpt lat="40.564358867704868316650390625" lon="-1.74278341233730316162109375">
        <ele>1467.199951171875</ele>
        <time>2022-05-04T11:57:33.000Z</time>
      </trkpt>
      <trkpt lat="40.56424529291689395904541015625" lon="-1.74261401407420635223388671875">
        <ele>1466.800048828125</ele>
        <time>2022-05-04T11:57:38.000Z</time>
      </trkpt>
      <trkpt lat="40.5639821849763393402099609375" lon="-1.742294244468212127685546875">
        <ele>1465</ele>
        <time>2022-05-04T11:57:48.000Z</time>
      </trkpt>
      <trkpt lat="40.563779175281524658203125" lon="-1.742105819284915924072265625">
        <ele>1464.4000244140625</ele>
        <time>2022-05-04T11:57:55.000Z</time>
      </trkpt>
      <trkpt lat="40.563717149198055267333984375" lon="-1.74206332303583621978759765625">
        <ele>1464.5999755859375</ele>
        <time>2022-05-04T11:57:57.000Z</time>
      </trkpt>
      <trkpt lat="40.56344280950725078582763671875" lon="-1.74187707714736461639404296875">
        <ele>1465.4000244140625</ele>
        <time>2022-05-04T11:58:06.000Z</time>
      </trkpt>
      <trkpt lat="40.563173331320285797119140625" lon="-1.7417536117136478424072265625">
        <ele>1464.199951171875</ele>
        <time>2022-05-04T11:58:14.000Z</time>
      </trkpt>
      <trkpt lat="40.56297962553799152374267578125" lon="-1.74167457036674022674560546875">
        <ele>1463.4000244140625</ele>
        <time>2022-05-04T11:58:20.000Z</time>
      </trkpt>
      <trkpt lat="40.562842749059200286865234375" lon="-1.74161321483552455902099609375">
        <ele>1463.199951171875</ele>
        <time>2022-05-04T11:58:24.000Z</time>
      </trkpt>
      <trkpt lat="40.56258986704051494598388671875" lon="-1.74146200530230998992919921875">
        <ele>1462.4000244140625</ele>
        <time>2022-05-04T11:58:31.000Z</time>
      </trkpt>
      <trkpt lat="40.5624918825924396514892578125" lon="-1.7414019070565700531005859375">
        <ele>1462.4000244140625</ele>
        <time>2022-05-04T11:58:34.000Z</time>
      </trkpt>
      <trkpt lat="40.56240362115204334259033203125" lon="-1.74133795313537120819091796875">
        <ele>1462.199951171875</ele>
        <time>2022-05-04T11:58:37.000Z</time>
      </trkpt>
      <trkpt lat="40.562150739133358001708984375" lon="-1.74111851491034030914306640625">
        <ele>1462.199951171875</ele>
        <time>2022-05-04T11:58:45.000Z</time>
      </trkpt>
      <trkpt lat="40.5618518404662609100341796875" lon="-1.740821041166782379150390625">
        <ele>1464.199951171875</ele>
        <time>2022-05-04T11:58:55.000Z</time>
      </trkpt>
      <trkpt lat="40.561601221561431884765625" lon="-1.74051552079617977142333984375">
        <ele>1466</ele>
        <time>2022-05-04T11:59:04.000Z</time>
      </trkpt>
      <trkpt lat="40.56132302619516849517822265625" lon="-1.74009047448635101318359375">
        <ele>1467.199951171875</ele>
        <time>2022-05-04T11:59:15.000Z</time>
      </trkpt>
      <trkpt lat="40.5610837228596210479736328125" lon="-1.73970079980790615081787109375">
        <ele>1467.5999755859375</ele>
        <time>2022-05-04T11:59:25.000Z</time>
      </trkpt>
      <trkpt lat="40.560921616852283477783203125" lon="-1.73949644900858402252197265625">
        <ele>1467.4000244140625</ele>
        <time>2022-05-04T11:59:31.000Z</time>
      </trkpt>
      <trkpt lat="40.5608917772769927978515625" lon="-1.7394648492336273193359375">
        <ele>1467.4000244140625</ele>
        <time>2022-05-04T11:59:32.000Z</time>
      </trkpt>
      <trkpt lat="40.560669489204883575439453125" lon="-1.73926192335784435272216796875">
        <ele>1466.5999755859375</ele>
        <time>2022-05-04T11:59:39.000Z</time>
      </trkpt>
      <trkpt lat="40.56042197160422801971435546875" lon="-1.73905908130109310150146484375">
        <ele>1466</ele>
        <time>2022-05-04T11:59:47.000Z</time>
      </trkpt>
      <trkpt lat="40.560186691582202911376953125" lon="-1.73885271884500980377197265625">
        <ele>1467.199951171875</ele>
        <time>2022-05-04T11:59:55.000Z</time>
      </trkpt>
      <trkpt lat="40.56010060943663120269775390625" lon="-1.7387701570987701416015625">
        <ele>1467.5999755859375</ele>
        <time>2022-05-04T11:59:58.000Z</time>
      </trkpt>
      <trkpt lat="40.55992894805967807769775390625" lon="-1.738599836826324462890625">
        <ele>1467.800048828125</ele>
        <time>2022-05-04T12:00:04.000Z</time>
      </trkpt>
      <trkpt lat="40.55979399941861629486083984375" lon="-1.73844368197023868560791015625">
        <ele>1467.199951171875</ele>
        <time>2022-05-04T12:00:09.000Z</time>
      </trkpt>
      <trkpt lat="40.55974286980926990509033203125" lon="-1.7383800633251667022705078125">
        <ele>1467.199951171875</ele>
        <time>2022-05-04T12:00:11.000Z</time>
      </trkpt>
      <trkpt lat="40.559594929218292236328125" lon="-1.738186441361904144287109375">
        <ele>1467.199951171875</ele>
        <time>2022-05-04T12:00:17.000Z</time>
      </trkpt>
      <trkpt lat="40.55954857729375362396240234375" lon="-1.73812902532517910003662109375">
        <ele>1468.4000244140625</ele>
        <time>2022-05-04T12:00:19.000Z</time>
      </trkpt>
      <trkpt lat="40.5593602359294891357421875" lon="-1.7378662526607513427734375">
        <ele>1473.199951171875</ele>
        <time>2022-05-04T12:00:27.000Z</time>
      </trkpt>
      <trkpt lat="40.55928446352481842041015625" lon="-1.73776340670883655548095703125">
        <ele>1475</ele>
        <time>2022-05-04T12:00:30.000Z</time>
      </trkpt>
      <trkpt lat="40.5591347627341747283935546875" lon="-1.737576909363269805908203125">
        <ele>1474</ele>
        <time>2022-05-04T12:00:36.000Z</time>
      </trkpt>
      <trkpt lat="40.55895832367241382598876953125" lon="-1.737390495836734771728515625">
        <ele>1472.5999755859375</ele>
        <time>2022-05-04T12:00:43.000Z</time>
      </trkpt>
      <trkpt lat="40.5587716586887836456298828125" lon="-1.73722453415393829345703125">
        <ele>1474</ele>
        <time>2022-05-04T12:00:50.000Z</time>
      </trkpt>
      <trkpt lat="40.55869379080832004547119140625" lon="-1.73715613782405853271484375">
        <ele>1475.199951171875</ele>
        <time>2022-05-04T12:00:53.000Z</time>
      </trkpt>
      <trkpt lat="40.55859505198895931243896484375" lon="-1.73706703819334506988525390625">
        <ele>1476.5999755859375</ele>
        <time>2022-05-04T12:00:57.000Z</time>
      </trkpt>
      <trkpt lat="40.5584293417632579803466796875" lon="-1.73690258525311946868896484375">
        <ele>1479.199951171875</ele>
        <time>2022-05-04T12:01:04.000Z</time>
      </trkpt>
      <trkpt lat="40.55840595625340938568115234375" lon="-1.73687509261071681976318359375">
        <ele>1479.4000244140625</ele>
        <time>2022-05-04T12:01:05.000Z</time>
      </trkpt>
      <trkpt lat="40.558243095874786376953125" lon="-1.736678369343280792236328125">
        <ele>1480</ele>
        <time>2022-05-04T12:01:12.000Z</time>
      </trkpt>
      <trkpt lat="40.55807470344007015228271484375" lon="-1.73647561110556125640869140625">
        <ele>1481.199951171875</ele>
        <time>2022-05-04T12:01:19.000Z</time>
      </trkpt>
      <trkpt lat="40.5579237453639507293701171875" lon="-1.73631191253662109375">
        <ele>1483.199951171875</ele>
        <time>2022-05-04T12:01:25.000Z</time>
      </trkpt>
      <trkpt lat="40.55789583362638950347900390625" lon="-1.7362832464277744293212890625">
        <ele>1483.5999755859375</ele>
        <time>2022-05-04T12:01:26.000Z</time>
      </trkpt>
      <trkpt lat="40.55766709148883819580078125" lon="-1.736092306673526763916015625">
        <ele>1486.199951171875</ele>
        <time>2022-05-04T12:01:34.000Z</time>
      </trkpt>
      <trkpt lat="40.55754915811121463775634765625" lon="-1.73601091839373111724853515625">
        <ele>1485.4000244140625</ele>
        <time>2022-05-04T12:01:38.000Z</time>
      </trkpt>
      <trkpt lat="40.55743214674293994903564453125" lon="-1.7359322123229503631591796875">
        <ele>1484.199951171875</ele>
        <time>2022-05-04T12:01:42.000Z</time>
      </trkpt>
      <trkpt lat="40.557224191725254058837890625" lon="-1.73573230393230915069580078125">
        <ele>1482.5999755859375</ele>
        <time>2022-05-04T12:01:50.000Z</time>
      </trkpt>
      <trkpt lat="40.55720097385346889495849609375" lon="-1.7357075773179531097412109375">
        <ele>1482.4000244140625</ele>
        <time>2022-05-04T12:01:51.000Z</time>
      </trkpt>
      <trkpt lat="40.5570664443075656890869140625" lon="-1.73551420681178569793701171875">
        <ele>1484.4000244140625</ele>
        <time>2022-05-04T12:01:57.000Z</time>
      </trkpt>
      <trkpt lat="40.55697667412459850311279296875" lon="-1.7353422939777374267578125">
        <ele>1486.5999755859375</ele>
        <time>2022-05-04T12:02:02.000Z</time>
      </trkpt>
      <trkpt lat="40.55694532580673694610595703125" lon="-1.7352687008678913116455078125">
        <ele>1487.5999755859375</ele>
        <time>2022-05-04T12:02:04.000Z</time>
      </trkpt>
      <trkpt lat="40.55683434940874576568603515625" lon="-1.735011041164398193359375">
        <ele>1488</ele>
        <time>2022-05-04T12:02:11.000Z</time>
      </trkpt>
      <trkpt lat="40.5566731654107570648193359375" lon="-1.7347228713333606719970703125">
        <ele>1486.5999755859375</ele>
        <time>2022-05-04T12:02:20.000Z</time>
      </trkpt>
      <trkpt lat="40.55647577159106731414794921875" lon="-1.7344952188432216644287109375">
        <ele>1486</ele>
        <time>2022-05-04T12:02:29.000Z</time>
      </trkpt>
      <trkpt lat="40.55627997033298015594482421875" lon="-1.7342461086809635162353515625">
        <ele>1488</ele>
        <time>2022-05-04T12:02:38.000Z</time>
      </trkpt>
      <trkpt lat="40.55626085959374904632568359375" lon="-1.73421568237245082855224609375">
        <ele>1488.800048828125</ele>
        <time>2022-05-04T12:02:39.000Z</time>
      </trkpt>
      <trkpt lat="40.55610763840377330780029296875" lon="-1.73392675817012786865234375">
        <ele>1488.4000244140625</ele>
        <time>2022-05-04T12:02:48.000Z</time>
      </trkpt>
      <trkpt lat="40.55605768226087093353271484375" lon="-1.73378887586295604705810546875">
        <ele>1489</ele>
        <time>2022-05-04T12:02:52.000Z</time>
      </trkpt>
      <trkpt lat="40.55600655265152454376220703125" lon="-1.73361185006797313690185546875">
        <ele>1489.800048828125</ele>
        <time>2022-05-04T12:02:57.000Z</time>
      </trkpt>
      <trkpt lat="40.5559690855443477630615234375" lon="-1.7334243468940258026123046875">
        <ele>1489.800048828125</ele>
        <time>2022-05-04T12:03:02.000Z</time>
      </trkpt>
      <trkpt lat="40.5559405870735645294189453125" lon="-1.7333110235631465911865234375">
        <ele>1489.199951171875</ele>
        <time>2022-05-04T12:03:05.000Z</time>
      </trkpt>
      <trkpt lat="40.5558758787810802459716796875" lon="-1.7330320738255977630615234375">
        <ele>1488.199951171875</ele>
        <time>2022-05-04T12:03:12.000Z</time>
      </trkpt>
      <trkpt lat="40.55581033229827880859375" lon="-1.73269855789840221405029296875">
        <ele>1488.4000244140625</ele>
        <time>2022-05-04T12:03:20.000Z</time>
      </trkpt>
      <trkpt lat="40.55577672086656093597412109375" lon="-1.73253661952912807464599609375">
        <ele>1489</ele>
        <time>2022-05-04T12:03:24.000Z</time>
      </trkpt>
      <trkpt lat="40.555748641490936279296875" lon="-1.73230008222162723541259765625">
        <ele>1488.800048828125</ele>
        <time>2022-05-04T12:03:30.000Z</time>
      </trkpt>
      <trkpt lat="40.5558084882795810699462890625" lon="-1.7319491319358348846435546875">
        <ele>1487.199951171875</ele>
        <time>2022-05-04T12:03:38.000Z</time>
      </trkpt>
      <trkpt lat="40.55594486184418201446533203125" lon="-1.73172977752983570098876953125">
        <ele>1488.199951171875</ele>
        <time>2022-05-04T12:03:44.000Z</time>
      </trkpt>
      <trkpt lat="40.556180477142333984375" lon="-1.73150279559195041656494140625">
        <ele>1489.800048828125</ele>
        <time>2022-05-04T12:03:52.000Z</time>
      </trkpt>
      <trkpt lat="40.5564017593860626220703125" lon="-1.73125435598194599151611328125">
        <ele>1489.4000244140625</ele>
        <time>2022-05-04T12:03:59.000Z</time>
      </trkpt>
      <trkpt lat="40.5565680563449859619140625" lon="-1.73093064688146114349365234375">
        <ele>1487.4000244140625</ele>
        <time>2022-05-04T12:04:06.000Z</time>
      </trkpt>
      <trkpt lat="40.556649528443813323974609375" lon="-1.73063141293823719024658203125">
        <ele>1485.5999755859375</ele>
        <time>2022-05-04T12:04:12.000Z</time>
      </trkpt>
      <trkpt lat="40.55669336579740047454833984375" lon="-1.73024400137364864349365234375">
        <ele>1486.4000244140625</ele>
        <time>2022-05-04T12:04:20.000Z</time>
      </trkpt>
      <trkpt lat="40.556658245623111724853515625" lon="-1.72977377660572528839111328125">
        <ele>1486.199951171875</ele>
        <time>2022-05-04T12:04:30.000Z</time>
      </trkpt>
      <trkpt lat="40.5566235445439815521240234375" lon="-1.72939759679138660430908203125">
        <ele>1487</ele>
        <time>2022-05-04T12:04:38.000Z</time>
      </trkpt>
      <trkpt lat="40.55659630335867404937744140625" lon="-1.72916122712194919586181640625">
        <ele>1487.5999755859375</ele>
        <time>2022-05-04T12:04:44.000Z</time>
      </trkpt>
      <trkpt lat="40.55654861032962799072265625" lon="-1.7289085127413272857666015625">
        <ele>1488.800048828125</ele>
        <time>2022-05-04T12:04:50.000Z</time>
      </trkpt>
      <trkpt lat="40.55644174106419086456298828125" lon="-1.72857751138508319854736328125">
        <ele>1490.199951171875</ele>
        <time>2022-05-04T12:04:58.000Z</time>
      </trkpt>
      <trkpt lat="40.556348450481891632080078125" lon="-1.72820367850363254547119140625">
        <ele>1492</ele>
        <time>2022-05-04T12:05:07.000Z</time>
      </trkpt>
      <trkpt lat="40.55632322095334529876708984375" lon="-1.72795657999813556671142578125">
        <ele>1492.4000244140625</ele>
        <time>2022-05-04T12:05:13.000Z</time>
      </trkpt>
      <trkpt lat="40.55631031282246112823486328125" lon="-1.7278091423213481903076171875">
        <ele>1492.800048828125</ele>
        <time>2022-05-04T12:05:17.000Z</time>
      </trkpt>
      <trkpt lat="40.55630193091928958892822265625" lon="-1.7277340404689311981201171875">
        <ele>1492.800048828125</ele>
        <time>2022-05-04T12:05:19.000Z</time>
      </trkpt>
      <trkpt lat="40.55628064088523387908935546875" lon="-1.72748786397278308868408203125">
        <ele>1493.199951171875</ele>
        <time>2022-05-04T12:05:25.000Z</time>
      </trkpt>
      <trkpt lat="40.55626035667955875396728515625" lon="-1.72721385955810546875">
        <ele>1492.800048828125</ele>
        <time>2022-05-04T12:05:32.000Z</time>
      </trkpt>
      <trkpt lat="40.55626270361244678497314453125" lon="-1.7270282842218875885009765625">
        <ele>1492.4000244140625</ele>
        <time>2022-05-04T12:05:37.000Z</time>
      </trkpt>
      <trkpt lat="40.55625951848924160003662109375" lon="-1.72694253735244274139404296875">
        <ele>1492.199951171875</ele>
        <time>2022-05-04T12:05:39.000Z</time>
      </trkpt>
      <trkpt lat="40.55625817738473415374755859375" lon="-1.72673533670604228973388671875">
        <ele>1491.5999755859375</ele>
        <time>2022-05-04T12:05:44.000Z</time>
      </trkpt>
      <trkpt lat="40.55636378936469554901123046875" lon="-1.72650584019720554351806640625">
        <ele>1492</ele>
        <time>2022-05-04T12:05:50.000Z</time>
      </trkpt>
      <trkpt lat="40.5564500391483306884765625" lon="-1.72639888711273670196533203125">
        <ele>1492.4000244140625</ele>
        <time>2022-05-04T12:05:54.000Z</time>
      </trkpt>
      <trkpt lat="40.5565739236772060394287109375" lon="-1.726238541305065155029296875">
        <ele>1492.800048828125</ele>
        <time>2022-05-04T12:06:00.000Z</time>
      </trkpt>
      <trkpt lat="40.55663578212261199951171875" lon="-1.72615329734981060028076171875">
        <ele>1493</ele>
        <time>2022-05-04T12:06:03.000Z</time>
      </trkpt>
      <trkpt lat="40.55671222507953643798828125" lon="-1.72604634426534175872802734375">
        <ele>1493.4000244140625</ele>
        <time>2022-05-04T12:06:07.000Z</time>
      </trkpt>
      <trkpt lat="40.5567992292344570159912109375" lon="-1.72589664347469806671142578125">
        <ele>1493.5999755859375</ele>
        <time>2022-05-04T12:06:12.000Z</time>
      </trkpt>
      <trkpt lat="40.5568123050034046173095703125" lon="-1.72586143948137760162353515625">
        <ele>1493.5999755859375</ele>
        <time>2022-05-04T12:06:13.000Z</time>
      </trkpt>
      <trkpt lat="40.55680132471024990081787109375" lon="-1.72568072564899921417236328125">
        <ele>1493.5999755859375</ele>
        <time>2022-05-04T12:06:18.000Z</time>
      </trkpt>
      <trkpt lat="40.5567693896591663360595703125" lon="-1.72538417391479015350341796875">
        <ele>1493.5999755859375</ele>
        <time>2022-05-04T12:06:26.000Z</time>
      </trkpt>
      <trkpt lat="40.55666822008788585662841796875" lon="-1.72510740347206592559814453125">
        <ele>1493.800048828125</ele>
        <time>2022-05-04T12:06:33.000Z</time>
      </trkpt>
      <trkpt lat="40.55662279017269611358642578125" lon="-1.7249988578259944915771484375">
        <ele>1494</ele>
        <time>2022-05-04T12:06:36.000Z</time>
      </trkpt>
      <trkpt lat="40.55656914599239826202392578125" lon="-1.724834740161895751953125">
        <ele>1494.5999755859375</ele>
        <time>2022-05-04T12:06:40.000Z</time>
      </trkpt>
      <trkpt lat="40.556435622274875640869140625" lon="-1.72453642822802066802978515625">
        <ele>1496.199951171875</ele>
        <time>2022-05-04T12:06:48.000Z</time>
      </trkpt>
      <trkpt lat="40.5562855862081050872802734375" lon="-1.7242887429893016815185546875">
        <ele>1496.5999755859375</ele>
        <time>2022-05-04T12:06:56.000Z</time>
      </trkpt>
      <trkpt lat="40.556265302002429962158203125" lon="-1.7242602445185184478759765625">
        <ele>1496.5999755859375</ele>
        <time>2022-05-04T12:06:57.000Z</time>
      </trkpt>
      <trkpt lat="40.55606740526854991912841796875" lon="-1.72399998642504215240478515625">
        <ele>1496.4000244140625</ele>
        <time>2022-05-04T12:07:06.000Z</time>
      </trkpt>
      <trkpt lat="40.5559010244905948638916015625" lon="-1.7237831465899944305419921875">
        <ele>1497.199951171875</ele>
        <time>2022-05-04T12:07:14.000Z</time>
      </trkpt>
      <trkpt lat="40.55581276305019855499267578125" lon="-1.72366135753691196441650390625">
        <ele>1497.199951171875</ele>
        <time>2022-05-04T12:07:18.000Z</time>
      </trkpt>
      <trkpt lat="40.55566591210663318634033203125" lon="-1.72347947023808956146240234375">
        <ele>1495.5999755859375</ele>
        <time>2022-05-04T12:07:24.000Z</time>
      </trkpt>
      <trkpt lat="40.5553940869867801666259765625" lon="-1.72310144640505313873291015625">
        <ele>1494.800048828125</ele>
        <time>2022-05-04T12:07:36.000Z</time>
      </trkpt>
      <trkpt lat="40.555331222712993621826171875" lon="-1.72299315221607685089111328125">
        <ele>1496</ele>
        <time>2022-05-04T12:07:39.000Z</time>
      </trkpt>
      <trkpt lat="40.55524681694805622100830078125" lon="-1.72285384498536586761474609375">
        <ele>1497.4000244140625</ele>
        <time>2022-05-04T12:07:43.000Z</time>
      </trkpt>
      <trkpt lat="40.555103905498981475830078125" lon="-1.72253969125449657440185546875">
        <ele>1500.199951171875</ele>
        <time>2022-05-04T12:07:51.000Z</time>
      </trkpt>
      <trkpt lat="40.55497524328529834747314453125" lon="-1.72215512953698635101318359375">
        <ele>1504</ele>
        <time>2022-05-04T12:08:00.000Z</time>
      </trkpt>
      <trkpt lat="40.5549562163650989532470703125" lon="-1.72207030467689037322998046875">
        <ele>1504.800048828125</ele>
        <time>2022-05-04T12:08:02.000Z</time>
      </trkpt>
      <trkpt lat="40.55490466766059398651123046875" lon="-1.72179152257740497589111328125">
        <ele>1504</ele>
        <time>2022-05-04T12:08:08.000Z</time>
      </trkpt>
      <trkpt lat="40.55486711673438549041748046875" lon="-1.72142229974269866943359375">
        <ele>1503.5999755859375</ele>
        <time>2022-05-04T12:08:16.000Z</time>
      </trkpt>
      <trkpt lat="40.554868541657924652099609375" lon="-1.7209959961473941802978515625">
        <ele>1502.800048828125</ele>
        <time>2022-05-04T12:08:25.000Z</time>
      </trkpt>
      <trkpt lat="40.554904751479625701904296875" lon="-1.72059022821485996246337890625">
        <ele>1502.4000244140625</ele>
        <time>2022-05-04T12:08:34.000Z</time>
      </trkpt>
      <trkpt lat="40.5549426376819610595703125" lon="-1.72027355991303920745849609375">
        <ele>1503</ele>
        <time>2022-05-04T12:08:41.000Z</time>
      </trkpt>
      <trkpt lat="40.5549640953540802001953125" lon="-1.72013307921588420867919921875">
        <ele>1503.800048828125</ele>
        <time>2022-05-04T12:08:44.000Z</time>
      </trkpt>
      <trkpt lat="40.55501212365925312042236328125" lon="-1.71982915140688419342041015625">
        <ele>1505.4000244140625</ele>
        <time>2022-05-04T12:08:51.000Z</time>
      </trkpt>
      <trkpt lat="40.555072389543056488037109375" lon="-1.719388850033283233642578125">
        <ele>1506</ele>
        <time>2022-05-04T12:09:01.000Z</time>
      </trkpt>
      <trkpt lat="40.5551107786595821380615234375" lon="-1.719083078205585479736328125">
        <ele>1505.800048828125</ele>
        <time>2022-05-04T12:09:08.000Z</time>
      </trkpt>
      <trkpt lat="40.5551811866462230682373046875" lon="-1.71858846209943294525146484375">
        <ele>1508</ele>
        <time>2022-05-04T12:09:19.000Z</time>
      </trkpt>
      <trkpt lat="40.5552157200872898101806640625" lon="-1.71828051097691059112548828125">
        <ele>1509.199951171875</ele>
        <time>2022-05-04T12:09:26.000Z</time>
      </trkpt>
      <trkpt lat="40.5552408657968044281005859375" lon="-1.71807548962533473968505859375">
        <ele>1509.199951171875</ele>
        <time>2022-05-04T12:09:31.000Z</time>
      </trkpt>
      <trkpt lat="40.5552817694842815399169921875" lon="-1.71768874861299991607666015625">
        <ele>1508</ele>
        <time>2022-05-04T12:09:40.000Z</time>
      </trkpt>
      <trkpt lat="40.55528671480715274810791015625" lon="-1.7176452465355396270751953125">
        <ele>1507.800048828125</ele>
        <time>2022-05-04T12:09:41.000Z</time>
      </trkpt>
      <trkpt lat="40.5553328990936279296875" lon="-1.71731139533221721649169921875">
        <ele>1508.199951171875</ele>
        <time>2022-05-04T12:09:49.000Z</time>
      </trkpt>
      <trkpt lat="40.5553699471056461334228515625" lon="-1.717024147510528564453125">
        <ele>1509</ele>
        <time>2022-05-04T12:09:56.000Z</time>
      </trkpt>
      <trkpt lat="40.55537506006658077239990234375" lon="-1.71698324382305145263671875">
        <ele>1509</ele>
        <time>2022-05-04T12:09:57.000Z</time>
      </trkpt>
      <trkpt lat="40.55543071590363979339599609375" lon="-1.7164523340761661529541015625">
        <ele>1510.5999755859375</ele>
        <time>2022-05-04T12:10:10.000Z</time>
      </trkpt>
      <trkpt lat="40.55543390102684497833251953125" lon="-1.7162878811359405517578125">
        <ele>1511.199951171875</ele>
        <time>2022-05-04T12:10:14.000Z</time>
      </trkpt>
      <trkpt lat="40.55543976835906505584716796875" lon="-1.71603768132627010345458984375">
        <ele>1512.199951171875</ele>
        <time>2022-05-04T12:10:20.000Z</time>
      </trkpt>
      <trkpt lat="40.55541194044053554534912109375" lon="-1.7156738229095935821533203125">
        <ele>1513.199951171875</ele>
        <time>2022-05-04T12:10:29.000Z</time>
      </trkpt>
      <trkpt lat="40.555388219654560089111328125" lon="-1.71552135609090328216552734375">
        <ele>1513.800048828125</ele>
        <time>2022-05-04T12:10:33.000Z</time>
      </trkpt>
      <trkpt lat="40.55535502731800079345703125" lon="-1.71533477492630481719970703125">
        <ele>1514.5999755859375</ele>
        <time>2022-05-04T12:10:38.000Z</time>
      </trkpt>
      <trkpt lat="40.55530029349029064178466796875" lon="-1.7150656320154666900634765625">
        <ele>1515.4000244140625</ele>
        <time>2022-05-04T12:10:45.000Z</time>
      </trkpt>
      <trkpt lat="40.55525444447994232177734375" lon="-1.71487226150929927825927734375">
        <ele>1514.800048828125</ele>
        <time>2022-05-04T12:10:50.000Z</time>
      </trkpt>
      <trkpt lat="40.55518914945423603057861328125" lon="-1.71463706530630588531494140625">
        <ele>1514.800048828125</ele>
        <time>2022-05-04T12:10:56.000Z</time>
      </trkpt>
      <trkpt lat="40.55508286692202091217041015625" lon="-1.71430715359747409820556640625">
        <ele>1514</ele>
        <time>2022-05-04T12:11:05.000Z</time>
      </trkpt>
      <trkpt lat="40.55507071316242218017578125" lon="-1.71427077613770961761474609375">
        <ele>1513.800048828125</ele>
        <time>2022-05-04T12:11:06.000Z</time>
      </trkpt>
      <trkpt lat="40.55494976229965686798095703125" lon="-1.71391236595809459686279296875">
        <ele>1511.800048828125</ele>
        <time>2022-05-04T12:11:16.000Z</time>
      </trkpt>
      <trkpt lat="40.55483174510300159454345703125" lon="-1.713538952171802520751953125">
        <ele>1511.4000244140625</ele>
        <time>2022-05-04T12:11:26.000Z</time>
      </trkpt>
      <trkpt lat="40.5547825433313846588134765625" lon="-1.713387407362461090087890625">
        <ele>1511.5999755859375</ele>
        <time>2022-05-04T12:11:30.000Z</time>
      </trkpt>
      <trkpt lat="40.55471942760050296783447265625" lon="-1.71321096830070018768310546875">
        <ele>1511.5999755859375</ele>
        <time>2022-05-04T12:11:35.000Z</time>
      </trkpt>
      <trkpt lat="40.554626472294330596923828125" lon="-1.71290150843560695648193359375">
        <ele>1511.199951171875</ele>
        <time>2022-05-04T12:11:43.000Z</time>
      </trkpt>
      <trkpt lat="40.55458548478782176971435546875" lon="-1.71274627558887004852294921875">
        <ele>1511.4000244140625</ele>
        <time>2022-05-04T12:11:47.000Z</time>
      </trkpt>
      <trkpt lat="40.5545002408325672149658203125" lon="-1.7122700996696949005126953125">
        <ele>1511.4000244140625</ele>
        <time>2022-05-04T12:11:59.000Z</time>
      </trkpt>
      <trkpt lat="40.55447970516979694366455078125" lon="-1.7121205665171146392822265625">
        <ele>1511.5999755859375</ele>
        <time>2022-05-04T12:12:03.000Z</time>
      </trkpt>
      <trkpt lat="40.55444349534809589385986328125" lon="-1.71184153296053409576416015625">
        <ele>1511.800048828125</ele>
        <time>2022-05-04T12:12:10.000Z</time>
      </trkpt>
      <trkpt lat="40.55441088974475860595703125" lon="-1.7114265449345111846923828125">
        <ele>1511.5999755859375</ele>
        <time>2022-05-04T12:12:20.000Z</time>
      </trkpt>
      <trkpt lat="40.554395802319049835205078125" lon="-1.7111911810934543609619140625">
        <ele>1513.199951171875</ele>
        <time>2022-05-04T12:12:26.000Z</time>
      </trkpt>
      <trkpt lat="40.55438448674976825714111328125" lon="-1.71107375063002109527587890625">
        <ele>1513.800048828125</ele>
        <time>2022-05-04T12:12:29.000Z</time>
      </trkpt>
      <trkpt lat="40.55435992777347564697265625" lon="-1.71074484474956989288330078125">
        <ele>1515.4000244140625</ele>
        <time>2022-05-04T12:12:37.000Z</time>
      </trkpt>
      <trkpt lat="40.5543445050716400146484375" lon="-1.71062464825809001922607421875">
        <ele>1515.5999755859375</ele>
        <time>2022-05-04T12:12:40.000Z</time>
      </trkpt>
      <trkpt lat="40.55430829524993896484375" lon="-1.71035793609917163848876953125">
        <ele>1515.800048828125</ele>
        <time>2022-05-04T12:12:47.000Z</time>
      </trkpt>
      <trkpt lat="40.5543014220893383026123046875" lon="-1.71032206155359745025634765625">
        <ele>1515.800048828125</ele>
        <time>2022-05-04T12:12:48.000Z</time>
      </trkpt>
      <trkpt lat="40.55423730053007602691650390625" lon="-1.70998376794159412384033203125">
        <ele>1516.4000244140625</ele>
        <time>2022-05-04T12:12:57.000Z</time>
      </trkpt>
      <trkpt lat="40.55413956753909587860107421875" lon="-1.709578335285186767578125">
        <ele>1516.5999755859375</ele>
        <time>2022-05-04T12:13:08.000Z</time>
      </trkpt>
      <trkpt lat="40.554116852581501007080078125" lon="-1.70950566418468952178955078125">
        <ele>1516.800048828125</ele>
        <time>2022-05-04T12:13:10.000Z</time>
      </trkpt>
      <trkpt lat="40.55404703132808208465576171875" lon="-1.70928823761641979217529296875">
        <ele>1517.800048828125</ele>
        <time>2022-05-04T12:13:16.000Z</time>
      </trkpt>
      <trkpt lat="40.55400981567800045013427734375" lon="-1.70915110968053340911865234375">
        <ele>1518.4000244140625</ele>
        <time>2022-05-04T12:13:20.000Z</time>
      </trkpt>
      <trkpt lat="40.55393337272107601165771484375" lon="-1.7088828049600124359130859375">
        <ele>1519</ele>
        <time>2022-05-04T12:13:28.000Z</time>
      </trkpt>
      <trkpt lat="40.55388593114912509918212890625" lon="-1.70872204005718231201171875">
        <ele>1519</ele>
        <time>2022-05-04T12:13:33.000Z</time>
      </trkpt>
      <trkpt lat="40.55384226143360137939453125" lon="-1.7085934616625308990478515625">
        <ele>1519</ele>
        <time>2022-05-04T12:13:37.000Z</time>
      </trkpt>
      <trkpt lat="40.55383262224495410919189453125" lon="-1.7085604369640350341796875">
        <ele>1519</ele>
        <time>2022-05-04T12:13:38.000Z</time>
      </trkpt>
      <trkpt lat="40.5537646450102329254150390625" lon="-1.70833521522581577301025390625">
        <ele>1519.4000244140625</ele>
        <time>2022-05-04T12:13:45.000Z</time>
      </trkpt>
      <trkpt lat="40.5537468753755092620849609375" lon="-1.7082658968865871429443359375">
        <ele>1519.4000244140625</ele>
        <time>2022-05-04T12:13:47.000Z</time>
      </trkpt>
      <trkpt lat="40.55365241132676601409912109375" lon="-1.70795492827892303466796875">
        <ele>1519.800048828125</ele>
        <time>2022-05-04T12:13:56.000Z</time>
      </trkpt>
      <trkpt lat="40.5536417663097381591796875" lon="-1.7079195566475391387939453125">
        <ele>1519.800048828125</ele>
        <time>2022-05-04T12:13:57.000Z</time>
      </trkpt>
      <trkpt lat="40.55361268110573291778564453125" lon="-1.70781654305756092071533203125">
        <ele>1520</ele>
        <time>2022-05-04T12:14:00.000Z</time>
      </trkpt>
      <trkpt lat="40.55356054566800594329833984375" lon="-1.70759953558444976806640625">
        <ele>1520.4000244140625</ele>
        <time>2022-05-04T12:14:06.000Z</time>
      </trkpt>
      <trkpt lat="40.5535011179745197296142578125" lon="-1.70736140571534633636474609375">
        <ele>1520.5999755859375</ele>
        <time>2022-05-04T12:14:13.000Z</time>
      </trkpt>
      <trkpt lat="40.55346800945699214935302734375" lon="-1.70719175599515438079833984375">
        <ele>1521</ele>
        <time>2022-05-04T12:14:18.000Z</time>
      </trkpt>
      <trkpt lat="40.553452670574188232421875" lon="-1.70712235383689403533935546875">
        <ele>1521</ele>
        <time>2022-05-04T12:14:20.000Z</time>
      </trkpt>
      <trkpt lat="40.55343054234981536865234375" lon="-1.70698933303356170654296875">
        <ele>1521.4000244140625</ele>
        <time>2022-05-04T12:14:24.000Z</time>
      </trkpt>
      <trkpt lat="40.5534005351364612579345703125" lon="-1.70682437717914581298828125">
        <ele>1521.5999755859375</ele>
        <time>2022-05-04T12:14:29.000Z</time>
      </trkpt>
      <trkpt lat="40.5533789098262786865234375" lon="-1.70669185929000377655029296875">
        <ele>1521.800048828125</ele>
        <time>2022-05-04T12:14:33.000Z</time>
      </trkpt>
      <trkpt lat="40.55334144271910190582275390625" lon="-1.70643235556781291961669921875">
        <ele>1522.199951171875</ele>
        <time>2022-05-04T12:14:41.000Z</time>
      </trkpt>
      <trkpt lat="40.55331931449472904205322265625" lon="-1.7062327824532985687255859375">
        <ele>1522.5999755859375</ele>
        <time>2022-05-04T12:14:47.000Z</time>
      </trkpt>
      <trkpt lat="40.5533011257648468017578125" lon="-1.7060980014503002166748046875">
        <ele>1523.199951171875</ele>
        <time>2022-05-04T12:14:51.000Z</time>
      </trkpt>
      <trkpt lat="40.55325997062027454376220703125" lon="-1.7057687602937221527099609375">
        <ele>1524.4000244140625</ele>
        <time>2022-05-04T12:15:01.000Z</time>
      </trkpt>
      <trkpt lat="40.55325192399322986602783203125" lon="-1.705700196325778961181640625">
        <ele>1524.800048828125</ele>
        <time>2022-05-04T12:15:03.000Z</time>
      </trkpt>
      <trkpt lat="40.55322661064565181732177734375" lon="-1.7054358310997486114501953125">
        <ele>1525</ele>
        <time>2022-05-04T12:15:11.000Z</time>
      </trkpt>
      <trkpt lat="40.55321638472378253936767578125" lon="-1.7053422890603542327880859375">
        <ele>1525.4000244140625</ele>
        <time>2022-05-04T12:15:14.000Z</time>
      </trkpt>
      <trkpt lat="40.55320716463029384613037109375" lon="-1.70517272315919399261474609375">
        <ele>1526.199951171875</ele>
        <time>2022-05-04T12:15:20.000Z</time>
      </trkpt>
      <trkpt lat="40.5532050691545009613037109375" lon="-1.70509644784033298492431640625">
        <ele>1526.5999755859375</ele>
        <time>2022-05-04T12:15:23.000Z</time>
      </trkpt>
      <trkpt lat="40.55319123901426792144775390625" lon="-1.70495948754251003265380859375">
        <ele>1527.199951171875</ele>
        <time>2022-05-04T12:15:28.000Z</time>
      </trkpt>
      <trkpt lat="40.55317950434982776641845703125" lon="-1.70486460439860820770263671875">
        <ele>1527.5999755859375</ele>
        <time>2022-05-04T12:15:31.000Z</time>
      </trkpt>
      <trkpt lat="40.5531591363251209259033203125" lon="-1.70469629578292369842529296875">
        <ele>1528.4000244140625</ele>
        <time>2022-05-04T12:15:36.000Z</time>
      </trkpt>
      <trkpt lat="40.55313793011009693145751953125" lon="-1.7045942880213260650634765625">
        <ele>1529</ele>
        <time>2022-05-04T12:15:39.000Z</time>
      </trkpt>
      <trkpt lat="40.55311043746769428253173828125" lon="-1.70439421199262142181396484375">
        <ele>1530</ele>
        <time>2022-05-04T12:15:45.000Z</time>
      </trkpt>
      <trkpt lat="40.55310172028839588165283203125" lon="-1.7043274082243442535400390625">
        <ele>1530.4000244140625</ele>
        <time>2022-05-04T12:15:47.000Z</time>
      </trkpt>
      <trkpt lat="40.5530798435211181640625" lon="-1.70409631915390491485595703125">
        <ele>1531.800048828125</ele>
        <time>2022-05-04T12:15:54.000Z</time>
      </trkpt>
      <trkpt lat="40.5530743114650249481201171875" lon="-1.70406480319797992706298828125">
        <ele>1532</ele>
        <time>2022-05-04T12:15:55.000Z</time>
      </trkpt>
      <trkpt lat="40.55303416214883327484130859375" lon="-1.70386481098830699920654296875">
        <ele>1533.199951171875</ele>
        <time>2022-05-04T12:16:01.000Z</time>
      </trkpt>
      <trkpt lat="40.55302410386502742767333984375" lon="-1.70379959978163242340087890625">
        <ele>1533.4000244140625</ele>
        <time>2022-05-04T12:16:03.000Z</time>
      </trkpt>
      <trkpt lat="40.55297716520726680755615234375" lon="-1.70364453457295894622802734375">
        <ele>1534.199951171875</ele>
        <time>2022-05-04T12:16:08.000Z</time>
      </trkpt>
      <trkpt lat="40.55294011719524860382080078125" lon="-1.70352660119533538818359375">
        <ele>1534.800048828125</ele>
        <time>2022-05-04T12:16:12.000Z</time>
      </trkpt>
      <trkpt lat="40.55291983298957347869873046875" lon="-1.7034687660634517669677734375">
        <ele>1535</ele>
        <time>2022-05-04T12:16:14.000Z</time>
      </trkpt>
      <trkpt lat="40.55286451242864131927490234375" lon="-1.70333507470786571502685546875">
        <ele>1535.4000244140625</ele>
        <time>2022-05-04T12:16:19.000Z</time>
      </trkpt>
      <trkpt lat="40.55282880552113056182861328125" lon="-1.703262068331241607666015625">
        <ele>1535.5999755859375</ele>
        <time>2022-05-04T12:16:22.000Z</time>
      </trkpt>
      <trkpt lat="40.55274833925068378448486328125" lon="-1.703130640089511871337890625">
        <ele>1536</ele>
        <time>2022-05-04T12:16:27.000Z</time>
      </trkpt>
      <trkpt lat="40.55261288769543170928955078125" lon="-1.7028910852968692779541015625">
        <ele>1537.199951171875</ele>
        <time>2022-05-04T12:16:36.000Z</time>
      </trkpt>
      <trkpt lat="40.55258003063499927520751953125" lon="-1.70284330844879150390625">
        <ele>1537.4000244140625</ele>
        <time>2022-05-04T12:16:38.000Z</time>
      </trkpt>
      <trkpt lat="40.5524791963398456573486328125" lon="-1.70269838534295558929443359375">
        <ele>1538</ele>
        <time>2022-05-04T12:16:44.000Z</time>
      </trkpt>
      <trkpt lat="40.55241591297090053558349609375" lon="-1.70261255465447902679443359375">
        <ele>1538.4000244140625</ele>
        <time>2022-05-04T12:16:48.000Z</time>
      </trkpt>
      <trkpt lat="40.5522783659398555755615234375" lon="-1.70246578752994537353515625">
        <ele>1538.800048828125</ele>
        <time>2022-05-04T12:16:56.000Z</time>
      </trkpt>
      <trkpt lat="40.55214107036590576171875" lon="-1.7023355327546596527099609375">
        <ele>1539.199951171875</ele>
        <time>2022-05-04T12:17:04.000Z</time>
      </trkpt>
      <trkpt lat="40.55210377089679241180419921875" lon="-1.70229890383780002593994140625">
        <ele>1539.199951171875</ele>
        <time>2022-05-04T12:17:06.000Z</time>
      </trkpt>
      <trkpt lat="40.5520061217248439788818359375" lon="-1.70221810229122638702392578125">
        <ele>1539.5999755859375</ele>
        <time>2022-05-04T12:17:11.000Z</time>
      </trkpt>
      <trkpt lat="40.55194250307977199554443359375" lon="-1.70217418111860752105712890625">
        <ele>1539.5999755859375</ele>
        <time>2022-05-04T12:17:14.000Z</time>
      </trkpt>
      <trkpt lat="40.55178710259497165679931640625" lon="-1.702064462006092071533203125">
        <ele>1540</ele>
        <time>2022-05-04T12:17:21.000Z</time>
      </trkpt>
      <trkpt lat="40.55165148340165615081787109375" lon="-1.701992042362689971923828125">
        <ele>1540.199951171875</ele>
        <time>2022-05-04T12:17:27.000Z</time>
      </trkpt>
      <trkpt lat="40.5516081489622592926025390625" lon="-1.7019660584628582000732421875">
        <ele>1540.800048828125</ele>
        <time>2022-05-04T12:17:29.000Z</time>
      </trkpt>
      <trkpt lat="40.5514961667358875274658203125" lon="-1.70190327800810337066650390625">
        <ele>1541.800048828125</ele>
        <time>2022-05-04T12:17:35.000Z</time>
      </trkpt>
      <trkpt lat="40.55147521197795867919921875" lon="-1.701898835599422454833984375">
        <ele>1541.800048828125</ele>
        <time>2022-05-04T12:17:36.000Z</time>
      </trkpt>
      <trkpt lat="40.55134772323071956634521484375" lon="-1.7018721811473369598388671875">
        <ele>1542.4000244140625</ele>
        <time>2022-05-04T12:17:42.000Z</time>
      </trkpt>
      <trkpt lat="40.5513010360300540924072265625" lon="-1.701864302158355712890625">
        <ele>1542.5999755859375</ele>
        <time>2022-05-04T12:17:44.000Z</time>
      </trkpt>
      <trkpt lat="40.55116952396929264068603515625" lon="-1.701829768717288970947265625">
        <ele>1543.4000244140625</ele>
        <time>2022-05-04T12:17:50.000Z</time>
      </trkpt>
      <trkpt lat="40.5511059053242206573486328125" lon="-1.70181560330092906951904296875">
        <ele>1543.800048828125</ele>
        <time>2022-05-04T12:17:53.000Z</time>
      </trkpt>
      <trkpt lat="40.55102518759667873382568359375" lon="-1.7017997615039348602294921875">
        <ele>1544.4000244140625</ele>
        <time>2022-05-04T12:17:57.000Z</time>
      </trkpt>
      <trkpt lat="40.55092611350119113922119140625" lon="-1.7017833329737186431884765625">
        <ele>1545.199951171875</ele>
        <time>2022-05-04T12:18:01.000Z</time>
      </trkpt>
      <trkpt lat="40.5508578009903430938720703125" lon="-1.7017672397196292877197265625">
        <ele>1545.800048828125</ele>
        <time>2022-05-04T12:18:04.000Z</time>
      </trkpt>
      <trkpt lat="40.5507106147706508636474609375" lon="-1.7017343826591968536376953125">
        <ele>1547.199951171875</ele>
        <time>2022-05-04T12:18:10.000Z</time>
      </trkpt>
      <trkpt lat="40.55066141299903392791748046875" lon="-1.701725833117961883544921875">
        <ele>1547.5999755859375</ele>
        <time>2022-05-04T12:18:12.000Z</time>
      </trkpt>
      <trkpt lat="40.55049662478268146514892578125" lon="-1.701676882803440093994140625">
        <ele>1549.199951171875</ele>
        <time>2022-05-04T12:18:19.000Z</time>
      </trkpt>
      <trkpt lat="40.55030233226716518402099609375" lon="-1.701627932488918304443359375">
        <ele>1550.199951171875</ele>
        <time>2022-05-04T12:18:27.000Z</time>
      </trkpt>
      <trkpt lat="40.55027718655765056610107421875" lon="-1.70162315480411052703857421875">
        <ele>1550.199951171875</ele>
        <time>2022-05-04T12:18:28.000Z</time>
      </trkpt>
      <trkpt lat="40.55011357180774211883544921875" lon="-1.7015841789543628692626953125">
        <ele>1551</ele>
        <time>2022-05-04T12:18:35.000Z</time>
      </trkpt>
      <trkpt lat="40.55009043775498867034912109375" lon="-1.7015788145363330841064453125">
        <ele>1551.199951171875</ele>
        <time>2022-05-04T12:18:36.000Z</time>
      </trkpt>
      <trkpt lat="40.54991207085549831390380859375" lon="-1.7015301994979381561279296875">
        <ele>1552</ele>
        <time>2022-05-04T12:18:44.000Z</time>
      </trkpt>
      <trkpt lat="40.54986722767353057861328125" lon="-1.70152156613767147064208984375">
        <ele>1552.199951171875</ele>
        <time>2022-05-04T12:18:46.000Z</time>
      </trkpt>
      <trkpt lat="40.549675114452838897705078125" lon="-1.70147546567022800445556640625">
        <ele>1553</ele>
        <time>2022-05-04T12:18:54.000Z</time>
      </trkpt>
      <trkpt lat="40.5495835840702056884765625" lon="-1.70145199634134769439697265625">
        <ele>1554</ele>
        <time>2022-05-04T12:18:58.000Z</time>
      </trkpt>
      <trkpt lat="40.54953421466052532196044921875" lon="-1.7014366574585437774658203125">
        <ele>1554.5999755859375</ele>
        <time>2022-05-04T12:19:00.000Z</time>
      </trkpt>
      <trkpt lat="40.54936992935836315155029296875" lon="-1.701396591961383819580078125">
        <ele>1556.199951171875</ele>
        <time>2022-05-04T12:19:07.000Z</time>
      </trkpt>
      <trkpt lat="40.5491785705089569091796875" lon="-1.7013280279934406280517578125">
        <ele>1558.5999755859375</ele>
        <time>2022-05-04T12:19:15.000Z</time>
      </trkpt>
      <trkpt lat="40.54912936873733997344970703125" lon="-1.7013082467019557952880859375">
        <ele>1559.4000244140625</ele>
        <time>2022-05-04T12:19:17.000Z</time>
      </trkpt>
      <trkpt lat="40.548958294093608856201171875" lon="-1.7012291215360164642333984375">
        <ele>1560.4000244140625</ele>
        <time>2022-05-04T12:19:24.000Z</time>
      </trkpt>
      <trkpt lat="40.54882544092833995819091796875" lon="-1.701147817075252532958984375">
        <ele>1561</ele>
        <time>2022-05-04T12:19:30.000Z</time>
      </trkpt>
      <trkpt lat="40.548710860311985015869140625" lon="-1.70107497833669185638427734375">
        <ele>1560.800048828125</ele>
        <time>2022-05-04T12:19:35.000Z</time>
      </trkpt>
      <trkpt lat="40.54866157472133636474609375" lon="-1.7010423727333545684814453125">
        <ele>1560.800048828125</ele>
        <time>2022-05-04T12:19:37.000Z</time>
      </trkpt>
      <trkpt lat="40.548500977456569671630859375" lon="-1.70092351734638214111328125">
        <ele>1560.4000244140625</ele>
        <time>2022-05-04T12:19:44.000Z</time>
      </trkpt>
      <trkpt lat="40.54848094470798969268798828125" lon="-1.70089862309396266937255859375">
        <ele>1560.4000244140625</ele>
        <time>2022-05-04T12:19:45.000Z</time>
      </trkpt>
      <trkpt lat="40.54841212928295135498046875" lon="-1.7008505947887897491455078125">
        <ele>1560</ele>
        <time>2022-05-04T12:19:48.000Z</time>
      </trkpt>
      <trkpt lat="40.54836963303387165069580078125" lon="-1.70082318596541881561279296875">
        <ele>1559.800048828125</ele>
        <time>2022-05-04T12:19:50.000Z</time>
      </trkpt>
      <trkpt lat="40.548316575586795806884765625" lon="-1.700791753828525543212890625">
        <ele>1559.5999755859375</ele>
        <time>2022-05-04T12:19:54.000Z</time>
      </trkpt>
      <trkpt lat="40.548310540616512298583984375" lon="-1.70078647322952747344970703125">
        <ele>1559.5999755859375</ele>
        <time>2022-05-04T12:19:55.000Z</time>
      </trkpt>
      <trkpt lat="40.54831045679748058319091796875" lon="-1.70078731141984462738037109375">
        <ele>1559.5999755859375</ele>
        <time>2022-05-04T12:19:57.000Z</time>
      </trkpt>
      <trkpt lat="40.548256225883960723876953125" lon="-1.70071656815707683563232421875">
        <ele>1559.5999755859375</ele>
        <time>2022-05-04T12:26:39.000Z</time>
      </trkpt>
      <trkpt lat="40.54822764359414577484130859375" lon="-1.7006859742105007171630859375">
        <ele>1559.5999755859375</ele>
        <time>2022-05-04T12:26:41.000Z</time>
      </trkpt>
      <trkpt lat="40.54807710461318492889404296875" lon="-1.700528226792812347412109375">
        <ele>1560</ele>
        <time>2022-05-04T12:26:49.000Z</time>
      </trkpt>
      <trkpt lat="40.5479259788990020751953125" lon="-1.7003460042178630828857421875">
        <ele>1559.5999755859375</ele>
        <time>2022-05-04T12:26:57.000Z</time>
      </trkpt>
      <trkpt lat="40.54778021760284900665283203125" lon="-1.700136624276638031005859375">
        <ele>1560.199951171875</ele>
        <time>2022-05-04T12:27:05.000Z</time>
      </trkpt>
      <trkpt lat="40.54769908078014850616455078125" lon="-1.70001014135777950286865234375">
        <ele>1561.199951171875</ele>
        <time>2022-05-04T12:27:10.000Z</time>
      </trkpt>
      <trkpt lat="40.5476243980228900909423828125" lon="-1.69988625682890415191650390625">
        <ele>1562.4000244140625</ele>
        <time>2022-05-04T12:27:15.000Z</time>
      </trkpt>
      <trkpt lat="40.5475814826786518096923828125" lon="-1.6998115740716457366943359375">
        <ele>1563.5999755859375</ele>
        <time>2022-05-04T12:27:18.000Z</time>
      </trkpt>
      <trkpt lat="40.5475083924829959869384765625" lon="-1.6996533237397670745849609375">
        <ele>1566.5999755859375</ele>
        <time>2022-05-04T12:27:24.000Z</time>
      </trkpt>
      <trkpt lat="40.547457598149776458740234375" lon="-1.69955165125429630279541015625">
        <ele>1568.199951171875</ele>
        <time>2022-05-04T12:27:28.000Z</time>
      </trkpt>
      <trkpt lat="40.5474044568836688995361328125" lon="-1.69941469095647335052490234375">
        <ele>1569</ele>
        <time>2022-05-04T12:27:33.000Z</time>
      </trkpt>
      <trkpt lat="40.5473742820322513580322265625" lon="-1.6993364877998828887939453125">
        <ele>1569.4000244140625</ele>
        <time>2022-05-04T12:27:36.000Z</time>
      </trkpt>
      <trkpt lat="40.54731602780520915985107421875" lon="-1.69920296408236026763916015625">
        <ele>1570.199951171875</ele>
        <time>2022-05-04T12:27:41.000Z</time>
      </trkpt>
      <trkpt lat="40.5472545884549617767333984375" lon="-1.69904571957886219024658203125">
        <ele>1571</ele>
        <time>2022-05-04T12:27:47.000Z</time>
      </trkpt>
      <trkpt lat="40.5472167022526264190673828125" lon="-1.69896290637552738189697265625">
        <ele>1571.5999755859375</ele>
        <time>2022-05-04T12:27:50.000Z</time>
      </trkpt>
      <trkpt lat="40.547137074172496795654296875" lon="-1.698768697679042816162109375">
        <ele>1571.800048828125</ele>
        <time>2022-05-04T12:27:57.000Z</time>
      </trkpt>
      <trkpt lat="40.54710187017917633056640625" lon="-1.6986790113151073455810546875">
        <ele>1572.199951171875</ele>
        <time>2022-05-04T12:28:00.000Z</time>
      </trkpt>
      <trkpt lat="40.54702651686966419219970703125" lon="-1.6984771750867366790771484375">
        <ele>1573</ele>
        <time>2022-05-04T12:28:07.000Z</time>
      </trkpt>
      <trkpt lat="40.54700925014913082122802734375" lon="-1.69841925613582134246826171875">
        <ele>1573.4000244140625</ele>
        <time>2022-05-04T12:28:09.000Z</time>
      </trkpt>
      <trkpt lat="40.546932220458984375" lon="-1.69822119176387786865234375">
        <ele>1574</ele>
        <time>2022-05-04T12:28:16.000Z</time>
      </trkpt>
      <trkpt lat="40.54689659737050533294677734375" lon="-1.69813410378992557525634765625">
        <ele>1574.4000244140625</ele>
        <time>2022-05-04T12:28:19.000Z</time>
      </trkpt>
      <trkpt lat="40.5468535982072353363037109375" lon="-1.698018014430999755859375">
        <ele>1575.199951171875</ele>
        <time>2022-05-04T12:28:23.000Z</time>
      </trkpt>
      <trkpt lat="40.54679400287568569183349609375" lon="-1.697876192629337310791015625">
        <ele>1576</ele>
        <time>2022-05-04T12:28:28.000Z</time>
      </trkpt>
      <trkpt lat="40.54673382081091403961181640625" lon="-1.6977124102413654327392578125">
        <ele>1576.5999755859375</ele>
        <time>2022-05-04T12:28:34.000Z</time>
      </trkpt>
      <trkpt lat="40.54672024212777614593505859375" lon="-1.697685420513153076171875">
        <ele>1576.5999755859375</ele>
        <time>2022-05-04T12:28:35.000Z</time>
      </trkpt>
      <trkpt lat="40.54662854410707950592041015625" lon="-1.6974633000791072845458984375">
        <ele>1576.800048828125</ele>
        <time>2022-05-04T12:28:43.000Z</time>
      </trkpt>
      <trkpt lat="40.5466172285377979278564453125" lon="-1.6974361427128314971923828125">
        <ele>1576.800048828125</ele>
        <time>2022-05-04T12:28:44.000Z</time>
      </trkpt>
      <trkpt lat="40.5465526878833770751953125" lon="-1.69727948494255542755126953125">
        <ele>1578</ele>
        <time>2022-05-04T12:28:50.000Z</time>
      </trkpt>
      <trkpt lat="40.5465203337371349334716796875" lon="-1.6972007788717746734619140625">
        <ele>1579</ele>
        <time>2022-05-04T12:28:53.000Z</time>
      </trkpt>
      <trkpt lat="40.54644967429339885711669921875" lon="-1.69701729901134967803955078125">
        <ele>1579</ele>
        <time>2022-05-04T12:29:00.000Z</time>
      </trkpt>
      <trkpt lat="40.54642838425934314727783203125" lon="-1.6969654150307178497314453125">
        <ele>1579</ele>
        <time>2022-05-04T12:29:02.000Z</time>
      </trkpt>
      <trkpt lat="40.54633970372378826141357421875" lon="-1.6967273689806461334228515625">
        <ele>1579.199951171875</ele>
        <time>2022-05-04T12:29:11.000Z</time>
      </trkpt>
      <trkpt lat="40.54633207619190216064453125" lon="-1.69670063070952892303466796875">
        <ele>1579.4000244140625</ele>
        <time>2022-05-04T12:29:12.000Z</time>
      </trkpt>
      <trkpt lat="40.54623945616185665130615234375" lon="-1.69646526686847209930419921875">
        <ele>1580.5999755859375</ele>
        <time>2022-05-04T12:29:21.000Z</time>
      </trkpt>
      <trkpt lat="40.54622034542262554168701171875" lon="-1.69641145505011081695556640625">
        <ele>1580.800048828125</ele>
        <time>2022-05-04T12:29:23.000Z</time>
      </trkpt>
      <trkpt lat="40.5461357720196247100830078125" lon="-1.69616754166781902313232421875">
        <ele>1581.4000244140625</ele>
        <time>2022-05-04T12:29:31.000Z</time>
      </trkpt>
      <trkpt lat="40.5460301600396633148193359375" lon="-1.69588071294128894805908203125">
        <ele>1581.5999755859375</ele>
        <time>2022-05-04T12:29:40.000Z</time>
      </trkpt>
      <trkpt lat="40.5459185130894184112548828125" lon="-1.6955844126641750335693359375">
        <ele>1580.5999755859375</ele>
        <time>2022-05-04T12:29:49.000Z</time>
      </trkpt>
      <trkpt lat="40.54583578370511531829833984375" lon="-1.69533119536936283111572265625">
        <ele>1580</ele>
        <time>2022-05-04T12:29:57.000Z</time>
      </trkpt>
      <trkpt lat="40.5457971431314945220947265625" lon="-1.69514126144349575042724609375">
        <ele>1579.199951171875</ele>
        <time>2022-05-04T12:30:04.000Z</time>
      </trkpt>
      <trkpt lat="40.54578331299126148223876953125" lon="-1.69508828781545162200927734375">
        <ele>1578.800048828125</ele>
        <time>2022-05-04T12:30:09.000Z</time>
      </trkpt>
      <trkpt lat="40.5457770265638828277587890625" lon="-1.6950206458568572998046875">
        <ele>1578.800048828125</ele>
        <time>2022-05-04T12:37:22.000Z</time>
      </trkpt>
      <trkpt lat="40.54579538293182849884033203125" lon="-1.69497907161712646484375">
        <ele>1579</ele>
        <time>2022-05-04T12:37:24.000Z</time>
      </trkpt>
      <trkpt lat="40.54584517143666744232177734375" lon="-1.6947784088551998138427734375">
        <ele>1579.199951171875</ele>
        <time>2022-05-04T12:37:29.000Z</time>
      </trkpt>
      <trkpt lat="40.54592178203165531158447265625" lon="-1.6944769956171512603759765625">
        <ele>1579</ele>
        <time>2022-05-04T12:37:34.000Z</time>
      </trkpt>
      <trkpt lat="40.54594323970377445220947265625" lon="-1.69440516270697116851806640625">
        <ele>1579.199951171875</ele>
        <time>2022-05-04T12:37:35.000Z</time>
      </trkpt>
      <trkpt lat="40.54604482837021350860595703125" lon="-1.6940770111978054046630859375">
        <ele>1579.800048828125</ele>
        <time>2022-05-04T12:37:39.000Z</time>
      </trkpt>
      <trkpt lat="40.54609746672213077545166015625" lon="-1.69390006922185420989990234375">
        <ele>1579.5999755859375</ele>
        <time>2022-05-04T12:37:41.000Z</time>
      </trkpt>
      <trkpt lat="40.54617038927972316741943359375" lon="-1.6936205327510833740234375">
        <ele>1579</ele>
        <time>2022-05-04T12:37:44.000Z</time>
      </trkpt>
      <trkpt lat="40.54624062962830066680908203125" lon="-1.69323421083390712738037109375">
        <ele>1577.5999755859375</ele>
        <time>2022-05-04T12:37:48.000Z</time>
      </trkpt>
      <trkpt lat="40.546323359012603759765625" lon="-1.69254320673644542694091796875">
        <ele>1578</ele>
        <time>2022-05-04T12:37:55.000Z</time>
      </trkpt>
      <trkpt lat="40.5463461577892303466796875" lon="-1.69234673492610454559326171875">
        <ele>1578.199951171875</ele>
        <time>2022-05-04T12:37:57.000Z</time>
      </trkpt>
      <trkpt lat="40.54637792520225048065185546875" lon="-1.692055799067020416259765625">
        <ele>1578.4000244140625</ele>
        <time>2022-05-04T12:38:00.000Z</time>
      </trkpt>
      <trkpt lat="40.54641145281493663787841796875" lon="-1.691670231521129608154296875">
        <ele>1578.4000244140625</ele>
        <time>2022-05-04T12:38:04.000Z</time>
      </trkpt>
      <trkpt lat="40.54641279391944408416748046875" lon="-1.69157601892948150634765625">
        <ele>1578.199951171875</ele>
        <time>2022-05-04T12:38:05.000Z</time>
      </trkpt>
      <trkpt lat="40.54640709422528743743896484375" lon="-1.691486500203609466552734375">
        <ele>1577.800048828125</ele>
        <time>2022-05-04T12:38:06.000Z</time>
      </trkpt>
      <trkpt lat="40.5463971197605133056640625" lon="-1.6914031840860843658447265625">
        <ele>1577.199951171875</ele>
        <time>2022-05-04T12:38:07.000Z</time>
      </trkpt>
      <trkpt lat="40.54637239314615726470947265625" lon="-1.69124937616288661956787109375">
        <ele>1575.5999755859375</ele>
        <time>2022-05-04T12:38:09.000Z</time>
      </trkpt>
      <trkpt lat="40.546342469751834869384765625" lon="-1.69109900481998920440673828125">
        <ele>1574</ele>
        <time>2022-05-04T12:38:11.000Z</time>
      </trkpt>
      <trkpt lat="40.5463268794119358062744140625" lon="-1.691025830805301666259765625">
        <ele>1573.4000244140625</ele>
        <time>2022-05-04T12:38:12.000Z</time>
      </trkpt>
      <trkpt lat="40.5462387017905712127685546875" lon="-1.690582931041717529296875">
        <ele>1569.800048828125</ele>
        <time>2022-05-04T12:38:18.000Z</time>
      </trkpt>
      <trkpt lat="40.5462232790887355804443359375" lon="-1.69042543508112430572509765625">
        <ele>1569</ele>
        <time>2022-05-04T12:38:20.000Z</time>
      </trkpt>
      <trkpt lat="40.5462222732603549957275390625" lon="-1.6901244409382343292236328125">
        <ele>1568.4000244140625</ele>
        <time>2022-05-04T12:38:24.000Z</time>
      </trkpt>
      <trkpt lat="40.5462269671261310577392578125" lon="-1.690048836171627044677734375">
        <ele>1568.199951171875</ele>
        <time>2022-05-04T12:38:25.000Z</time>
      </trkpt>
      <trkpt lat="40.546268038451671600341796875" lon="-1.68975857086479663848876953125">
        <ele>1568.5999755859375</ele>
        <time>2022-05-04T12:38:29.000Z</time>
      </trkpt>
      <trkpt lat="40.5462946929037570953369140625" lon="-1.68961943127214908599853515625">
        <ele>1568.5999755859375</ele>
        <time>2022-05-04T12:38:31.000Z</time>
      </trkpt>
      <trkpt lat="40.54634682834148406982421875" lon="-1.68933914043009281158447265625">
        <ele>1568.5999755859375</ele>
        <time>2022-05-04T12:38:35.000Z</time>
      </trkpt>
      <trkpt lat="40.54636426270008087158203125" lon="-1.6891826502978801727294921875">
        <ele>1568.4000244140625</ele>
        <time>2022-05-04T12:38:37.000Z</time>
      </trkpt>
      <trkpt lat="40.5463560484349727630615234375" lon="-1.6890071332454681396484375">
        <ele>1567.5999755859375</ele>
        <time>2022-05-04T12:38:39.000Z</time>
      </trkpt>
      <trkpt lat="40.5463231913745403289794921875" lon="-1.6888356395065784454345703125">
        <ele>1567.5999755859375</ele>
        <time>2022-05-04T12:38:41.000Z</time>
      </trkpt>
      <trkpt lat="40.5463000573217868804931640625" lon="-1.68875223957002162933349609375">
        <ele>1567.4000244140625</ele>
        <time>2022-05-04T12:38:42.000Z</time>
      </trkpt>
      <trkpt lat="40.546178184449672698974609375" lon="-1.68834454379975795745849609375">
        <ele>1566.4000244140625</ele>
        <time>2022-05-04T12:38:47.000Z</time>
      </trkpt>
      <trkpt lat="40.54614172317087650299072265625" lon="-1.6881768219172954559326171875">
        <ele>1565.5999755859375</ele>
        <time>2022-05-04T12:38:49.000Z</time>
      </trkpt>
      <trkpt lat="40.54610350169241428375244140625" lon="-1.6878224350512027740478515625">
        <ele>1564.800048828125</ele>
        <time>2022-05-04T12:38:53.000Z</time>
      </trkpt>
      <trkpt lat="40.546102412045001983642578125" lon="-1.687727384269237518310546875">
        <ele>1564.800048828125</ele>
        <time>2022-05-04T12:38:54.000Z</time>
      </trkpt>
      <trkpt lat="40.54611305706202983856201171875" lon="-1.687426306307315826416015625">
        <ele>1565.199951171875</ele>
        <time>2022-05-04T12:38:57.000Z</time>
      </trkpt>
      <trkpt lat="40.5461283959448337554931640625" lon="-1.6872145794332027435302734375">
        <ele>1564.800048828125</ele>
        <time>2022-05-04T12:38:59.000Z</time>
      </trkpt>
      <trkpt lat="40.54615546949207782745361328125" lon="-1.686899922788143157958984375">
        <ele>1564.4000244140625</ele>
        <time>2022-05-04T12:39:02.000Z</time>
      </trkpt>
      <trkpt lat="40.54617441259324550628662109375" lon="-1.68668903410434722900390625">
        <ele>1564</ele>
        <time>2022-05-04T12:39:04.000Z</time>
      </trkpt>
      <trkpt lat="40.546225793659687042236328125" lon="-1.686270944774150848388671875">
        <ele>1561.199951171875</ele>
        <time>2022-05-04T12:39:08.000Z</time>
      </trkpt>
      <trkpt lat="40.5462980456650257110595703125" lon="-1.68595586903393268585205078125">
        <ele>1560.4000244140625</ele>
        <time>2022-05-04T12:39:11.000Z</time>
      </trkpt>
      <trkpt lat="40.54638496600091457366943359375" lon="-1.685640625655651092529296875">
        <ele>1559.4000244140625</ele>
        <time>2022-05-04T12:39:14.000Z</time>
      </trkpt>
      <trkpt lat="40.546479932963848114013671875" lon="-1.6853356920182704925537109375">
        <ele>1558</ele>
        <time>2022-05-04T12:39:17.000Z</time>
      </trkpt>
      <trkpt lat="40.546579174697399139404296875" lon="-1.68503285385668277740478515625">
        <ele>1556.5999755859375</ele>
        <time>2022-05-04T12:39:20.000Z</time>
      </trkpt>
      <trkpt lat="40.54661496542394161224365234375" lon="-1.68493160046637058258056640625">
        <ele>1556.199951171875</ele>
        <time>2022-05-04T12:39:21.000Z</time>
      </trkpt>
      <trkpt lat="40.5466889776289463043212890625" lon="-1.6847231425344944000244140625">
        <ele>1553.800048828125</ele>
        <time>2022-05-04T12:39:23.000Z</time>
      </trkpt>
      <trkpt lat="40.546774975955486297607421875" lon="-1.68452340178191661834716796875">
        <ele>1551.4000244140625</ele>
        <time>2022-05-04T12:39:25.000Z</time>
      </trkpt>
      <trkpt lat="40.54682451300323009490966796875" lon="-1.6844361461699008941650390625">
        <ele>1550.800048828125</ele>
        <time>2022-05-04T12:39:26.000Z</time>
      </trkpt>
      <trkpt lat="40.5468810908496379852294921875" lon="-1.68435811065137386322021484375">
        <ele>1550.4000244140625</ele>
        <time>2022-05-04T12:39:27.000Z</time>
      </trkpt>
      <trkpt lat="40.54708636365830898284912109375" lon="-1.68419667519629001617431640625">
        <ele>1552.5999755859375</ele>
        <time>2022-05-04T12:39:30.000Z</time>
      </trkpt>
      <trkpt lat="40.54716079495847225189208984375" lon="-1.68416549451649188995361328125">
        <ele>1554</ele>
        <time>2022-05-04T12:39:31.000Z</time>
      </trkpt>
      <trkpt lat="40.54729607887566089630126953125" lon="-1.68408838100731372833251953125">
        <ele>1556.199951171875</ele>
        <time>2022-05-04T12:39:33.000Z</time>
      </trkpt>
      <trkpt lat="40.54734888486564159393310546875" lon="-1.68402836658060550689697265625">
        <ele>1556.4000244140625</ele>
        <time>2022-05-04T12:39:34.000Z</time>
      </trkpt>
      <trkpt lat="40.54738677106797695159912109375" lon="-1.68394915759563446044921875">
        <ele>1557.4000244140625</ele>
        <time>2022-05-04T12:39:35.000Z</time>
      </trkpt>
      <trkpt lat="40.54740252904593944549560546875" lon="-1.6838604770600795745849609375">
        <ele>1557.5999755859375</ele>
        <time>2022-05-04T12:39:36.000Z</time>
      </trkpt>
      <trkpt lat="40.54737009108066558837890625" lon="-1.6835949383676052093505859375">
        <ele>1555.4000244140625</ele>
        <time>2022-05-04T12:39:39.000Z</time>
      </trkpt>
      <trkpt lat="40.54734670557081699371337890625" lon="-1.68350600637495517730712890625">
        <ele>1554.199951171875</ele>
        <time>2022-05-04T12:39:40.000Z</time>
      </trkpt>
      <trkpt lat="40.547278225421905517578125" lon="-1.68322035111486911773681640625">
        <ele>1550.5999755859375</ele>
        <time>2022-05-04T12:39:43.000Z</time>
      </trkpt>
      <trkpt lat="40.5472643114626407623291015625" lon="-1.68311943300068378448486328125">
        <ele>1549.5999755859375</ele>
        <time>2022-05-04T12:39:44.000Z</time>
      </trkpt>
      <trkpt lat="40.5472562648355960845947265625" lon="-1.68301449157297611236572265625">
        <ele>1549</ele>
        <time>2022-05-04T12:39:45.000Z</time>
      </trkpt>
      <trkpt lat="40.5472472123801708221435546875" lon="-1.6827979870140552520751953125">
        <ele>1548</ele>
        <time>2022-05-04T12:39:47.000Z</time>
      </trkpt>
      <trkpt lat="40.54724226705729961395263671875" lon="-1.68247737921774387359619140625">
        <ele>1546.5999755859375</ele>
        <time>2022-05-04T12:39:50.000Z</time>
      </trkpt>
      <trkpt lat="40.54723824374377727508544921875" lon="-1.68236824683845043182373046875">
        <ele>1546</ele>
        <time>2022-05-04T12:39:51.000Z</time>
      </trkpt>
      <trkpt lat="40.5472151935100555419921875" lon="-1.68214394710958003997802734375">
        <ele>1544.800048828125</ele>
        <time>2022-05-04T12:39:53.000Z</time>
      </trkpt>
      <trkpt lat="40.54715576581656932830810546875" lon="-1.68193037621676921844482421875">
        <ele>1543</ele>
        <time>2022-05-04T12:39:55.000Z</time>
      </trkpt>
      <trkpt lat="40.5471127666532993316650390625" lon="-1.6818310506641864776611328125">
        <ele>1541.5999755859375</ele>
        <time>2022-05-04T12:39:56.000Z</time>
      </trkpt>
      <trkpt lat="40.54706842638552188873291015625" lon="-1.681738011538982391357421875">
        <ele>1540.199951171875</ele>
        <time>2022-05-04T12:39:57.000Z</time>
      </trkpt>
      <trkpt lat="40.5469404347240924835205078125" lon="-1.6814662702381610870361328125">
        <ele>1536.800048828125</ele>
        <time>2022-05-04T12:40:00.000Z</time>
      </trkpt>
      <trkpt lat="40.5468745529651641845703125" lon="-1.68127222917973995208740234375">
        <ele>1533.800048828125</ele>
        <time>2022-05-04T12:40:02.000Z</time>
      </trkpt>
      <trkpt lat="40.546835325658321380615234375" lon="-1.681074164807796478271484375">
        <ele>1531.800048828125</ele>
        <time>2022-05-04T12:40:04.000Z</time>
      </trkpt>
      <trkpt lat="40.54683909751474857330322265625" lon="-1.6808812133967876434326171875">
        <ele>1531.199951171875</ele>
        <time>2022-05-04T12:40:06.000Z</time>
      </trkpt>
      <trkpt lat="40.54686239920556545257568359375" lon="-1.6807880066335201263427734375">
        <ele>1531.4000244140625</ele>
        <time>2022-05-04T12:40:07.000Z</time>
      </trkpt>
      <trkpt lat="40.54698661901056766510009765625" lon="-1.68053780682384967803955078125">
        <ele>1532</ele>
        <time>2022-05-04T12:40:10.000Z</time>
      </trkpt>
      <trkpt lat="40.5470323003828525543212890625" lon="-1.6804591007530689239501953125">
        <ele>1532</ele>
        <time>2022-05-04T12:40:11.000Z</time>
      </trkpt>
      <trkpt lat="40.54716398008167743682861328125" lon="-1.68021627701818943023681640625">
        <ele>1532</ele>
        <time>2022-05-04T12:40:14.000Z</time>
      </trkpt>
      <trkpt lat="40.54720153100788593292236328125" lon="-1.6801281832158565521240234375">
        <ele>1531.800048828125</ele>
        <time>2022-05-04T12:40:15.000Z</time>
      </trkpt>
      <trkpt lat="40.54726556874811649322509765625" lon="-1.67994059622287750244140625">
        <ele>1531</ele>
        <time>2022-05-04T12:40:17.000Z</time>
      </trkpt>
      <trkpt lat="40.54735089652240276336669921875" lon="-1.679649911820888519287109375">
        <ele>1527.5999755859375</ele>
        <time>2022-05-04T12:40:20.000Z</time>
      </trkpt>
      <trkpt lat="40.54743857122957706451416015625" lon="-1.67937221936881542205810546875">
        <ele>1524</ele>
        <time>2022-05-04T12:40:24.000Z</time>
      </trkpt>
      <trkpt lat="40.54747545160353183746337890625" lon="-1.6792893223464488983154296875">
        <ele>1523.199951171875</ele>
        <time>2022-05-04T12:40:25.000Z</time>
      </trkpt>
      <trkpt lat="40.5476290918886661529541015625" lon="-1.67909033596515655517578125">
        <ele>1522.4000244140625</ele>
        <time>2022-05-04T12:40:28.000Z</time>
      </trkpt>
      <trkpt lat="40.5478339456021785736083984375" lon="-1.679008193314075469970703125">
        <ele>1525.199951171875</ele>
        <time>2022-05-04T12:40:31.000Z</time>
      </trkpt>
      <trkpt lat="40.54797417484223842620849609375" lon="-1.67897273786365985870361328125">
        <ele>1527.5999755859375</ele>
        <time>2022-05-04T12:40:33.000Z</time>
      </trkpt>
      <trkpt lat="40.548172406852245330810546875" lon="-1.67886645533144474029541015625">
        <ele>1530.800048828125</ele>
        <time>2022-05-04T12:40:36.000Z</time>
      </trkpt>
      <trkpt lat="40.54822931997478008270263671875" lon="-1.67881314642727375030517578125">
        <ele>1531.4000244140625</ele>
        <time>2022-05-04T12:40:37.000Z</time>
      </trkpt>
      <trkpt lat="40.5483053438365459442138671875" lon="-1.6786633618175983428955078125">
        <ele>1531.4000244140625</ele>
        <time>2022-05-04T12:40:39.000Z</time>
      </trkpt>
      <trkpt lat="40.54828564636409282684326171875" lon="-1.67849077843129634857177734375">
        <ele>1528.800048828125</ele>
        <time>2022-05-04T12:40:41.000Z</time>
      </trkpt>
      <trkpt lat="40.54814801551401615142822265625" lon="-1.67826513759791851043701171875">
        <ele>1523</ele>
        <time>2022-05-04T12:40:44.000Z</time>
      </trkpt>
      <trkpt lat="40.548052377998828887939453125" lon="-1.678106971085071563720703125">
        <ele>1520.4000244140625</ele>
        <time>2022-05-04T12:40:46.000Z</time>
      </trkpt>
      <trkpt lat="40.54801776073873043060302734375" lon="-1.67801988311111927032470703125">
        <ele>1520.199951171875</ele>
        <time>2022-05-04T12:40:47.000Z</time>
      </trkpt>
      <trkpt lat="40.547993369400501251220703125" lon="-1.677927933633327484130859375">
        <ele>1520.199951171875</ele>
        <time>2022-05-04T12:40:48.000Z</time>
      </trkpt>
      <trkpt lat="40.5479921959340572357177734375" lon="-1.67761520482599735260009765625">
        <ele>1522</ele>
        <time>2022-05-04T12:40:51.000Z</time>
      </trkpt>
      <trkpt lat="40.54800418205559253692626953125" lon="-1.67751043103635311126708984375">
        <ele>1523</ele>
        <time>2022-05-04T12:40:52.000Z</time>
      </trkpt>
      <trkpt lat="40.5480170063674449920654296875" lon="-1.6774057410657405853271484375">
        <ele>1524</ele>
        <time>2022-05-04T12:40:53.000Z</time>
      </trkpt>
      <trkpt lat="40.54804977960884571075439453125" lon="-1.67720365338027477264404296875">
        <ele>1522.800048828125</ele>
        <time>2022-05-04T12:40:55.000Z</time>
      </trkpt>
      <trkpt lat="40.54807660169899463653564453125" lon="-1.6771036572754383087158203125">
        <ele>1522.199951171875</ele>
        <time>2022-05-04T12:40:56.000Z</time>
      </trkpt>
      <trkpt lat="40.54810845293104648590087890625" lon="-1.67700399644672870635986328125">
        <ele>1521.800048828125</ele>
        <time>2022-05-04T12:40:57.000Z</time>
      </trkpt>
      <trkpt lat="40.5481779389083385467529296875" lon="-1.67680199258029460906982421875">
        <ele>1520.800048828125</ele>
        <time>2022-05-04T12:40:59.000Z</time>
      </trkpt>
      <trkpt lat="40.54825278930366039276123046875" lon="-1.676603257656097412109375">
        <ele>1520.4000244140625</ele>
        <time>2022-05-04T12:41:01.000Z</time>
      </trkpt>
      <trkpt lat="40.548367537558078765869140625" lon="-1.6763046942651271820068359375">
        <ele>1518</ele>
        <time>2022-05-04T12:41:04.000Z</time>
      </trkpt>
      <trkpt lat="40.5484065972268581390380859375" lon="-1.6762037761509418487548828125">
        <ele>1517</ele>
        <time>2022-05-04T12:41:05.000Z</time>
      </trkpt>
      <trkpt lat="40.548484213650226593017578125" lon="-1.67599850334227085113525390625">
        <ele>1515.4000244140625</ele>
        <time>2022-05-04T12:41:07.000Z</time>
      </trkpt>
      <trkpt lat="40.5485598184168338775634765625" lon="-1.675792224705219268798828125">
        <ele>1514.4000244140625</ele>
        <time>2022-05-04T12:41:09.000Z</time>
      </trkpt>
      <trkpt lat="40.54867875762283802032470703125" lon="-1.67549625970423221588134765625">
        <ele>1511</ele>
        <time>2022-05-04T12:41:12.000Z</time>
      </trkpt>
      <trkpt lat="40.54877422749996185302734375" lon="-1.67532912455499172210693359375">
        <ele>1509.4000244140625</ele>
        <time>2022-05-04T12:41:14.000Z</time>
      </trkpt>
      <trkpt lat="40.5488347448408603668212890625" lon="-1.67526257224380970001220703125">
        <ele>1509.4000244140625</ele>
        <time>2022-05-04T12:41:15.000Z</time>
      </trkpt>
      <trkpt lat="40.5489795841276645660400390625" lon="-1.6751620732247829437255859375">
        <ele>1507.199951171875</ele>
        <time>2022-05-04T12:41:17.000Z</time>
      </trkpt>
      <trkpt lat="40.54905912838876247406005859375" lon="-1.67512058280408382415771484375">
        <ele>1506.4000244140625</ele>
        <time>2022-05-04T12:41:18.000Z</time>
      </trkpt>
      <trkpt lat="40.54913775064051151275634765625" lon="-1.67507800273597240447998046875">
        <ele>1505.4000244140625</ele>
        <time>2022-05-04T12:41:19.000Z</time>
      </trkpt>
      <trkpt lat="40.5493755452334880828857421875" lon="-1.67492243461310863494873046875">
        <ele>1501.800048828125</ele>
        <time>2022-05-04T12:41:22.000Z</time>
      </trkpt>
      <trkpt lat="40.54944821633398532867431640625" lon="-1.674872227013111114501953125">
        <ele>1500.800048828125</ele>
        <time>2022-05-04T12:41:23.000Z</time>
      </trkpt>
      <trkpt lat="40.5495218932628631591796875" lon="-1.67483241297304630279541015625">
        <ele>1500.199951171875</ele>
        <time>2022-05-04T12:41:24.000Z</time>
      </trkpt>
      <trkpt lat="40.5496001802384853363037109375" lon="-1.67480693198740482330322265625">
        <ele>1500.199951171875</ele>
        <time>2022-05-04T12:41:25.000Z</time>
      </trkpt>
      <trkpt lat="40.54968056268990039825439453125" lon="-1.6747972927987575531005859375">
        <ele>1500.4000244140625</ele>
        <time>2022-05-04T12:41:26.000Z</time>
      </trkpt>
      <trkpt lat="40.5497644655406475067138671875" lon="-1.67480123229324817657470703125">
        <ele>1501.5999755859375</ele>
        <time>2022-05-04T12:41:27.000Z</time>
      </trkpt>
      <trkpt lat="40.5498492904007434844970703125" lon="-1.6748128831386566162109375">
        <ele>1501.4000244140625</ele>
        <time>2022-05-04T12:41:28.000Z</time>
      </trkpt>
      <trkpt lat="40.5500125698745250701904296875" lon="-1.6748479194939136505126953125">
        <ele>1501.199951171875</ele>
        <time>2022-05-04T12:41:30.000Z</time>
      </trkpt>
      <trkpt lat="40.55032454431056976318359375" lon="-1.67491958476603031158447265625">
        <ele>1502.199951171875</ele>
        <time>2022-05-04T12:41:34.000Z</time>
      </trkpt>
      <trkpt lat="40.55047432892024517059326171875" lon="-1.6749277152121067047119140625">
        <ele>1501.800048828125</ele>
        <time>2022-05-04T12:41:36.000Z</time>
      </trkpt>
      <trkpt lat="40.5506579764187335968017578125" lon="-1.67482268996536731719970703125">
        <ele>1505.199951171875</ele>
        <time>2022-05-04T12:41:39.000Z</time>
      </trkpt>
      <trkpt lat="40.55069544352591037750244140625" lon="-1.674658320844173431396484375">
        <ele>1508.5999755859375</ele>
        <time>2022-05-04T12:41:41.000Z</time>
      </trkpt>
      <trkpt lat="40.55060877464711666107177734375" lon="-1.6744113899767398834228515625">
        <ele>1508</ele>
        <time>2022-05-04T12:41:44.000Z</time>
      </trkpt>
      <trkpt lat="40.55049058981239795684814453125" lon="-1.6742870025336742401123046875">
        <ele>1505.800048828125</ele>
        <time>2022-05-04T12:41:46.000Z</time>
      </trkpt>
      <trkpt lat="40.550425462424755096435546875" lon="-1.674224473536014556884765625">
        <ele>1506.4000244140625</ele>
        <time>2022-05-04T12:41:47.000Z</time>
      </trkpt>
      <trkpt lat="40.5503612570464611053466796875" lon="-1.6741599328815937042236328125">
        <ele>1506.5999755859375</ele>
        <time>2022-05-04T12:41:48.000Z</time>
      </trkpt>
      <trkpt lat="40.55022572167217731475830078125" lon="-1.67403110302984714508056640625">
        <ele>1502.199951171875</ele>
        <time>2022-05-04T12:41:50.000Z</time>
      </trkpt>
      <trkpt lat="40.55001609027385711669921875" lon="-1.67383630760014057159423828125">
        <ele>1501.5999755859375</ele>
        <time>2022-05-04T12:41:53.000Z</time>
      </trkpt>
      <trkpt lat="40.549729764461517333984375" lon="-1.67356121353805065155029296875">
        <ele>1497.5999755859375</ele>
        <time>2022-05-04T12:41:57.000Z</time>
      </trkpt>
      <trkpt lat="40.54951812140643596649169921875" lon="-1.673348732292652130126953125">
        <ele>1497</ele>
        <time>2022-05-04T12:42:00.000Z</time>
      </trkpt>
      <trkpt lat="40.54927286691963672637939453125" lon="-1.67305343784391880035400390625">
        <ele>1494.4000244140625</ele>
        <time>2022-05-04T12:42:04.000Z</time>
      </trkpt>
      <trkpt lat="40.5492216534912586212158203125" lon="-1.672966517508029937744140625">
        <ele>1494.800048828125</ele>
        <time>2022-05-04T12:42:05.000Z</time>
      </trkpt>
      <trkpt lat="40.549099110066890716552734375" lon="-1.67265965603291988372802734375">
        <ele>1493.199951171875</ele>
        <time>2022-05-04T12:42:08.000Z</time>
      </trkpt>
      <trkpt lat="40.5490644089877605438232421875" lon="-1.6725465841591358184814453125">
        <ele>1492.199951171875</ele>
        <time>2022-05-04T12:42:09.000Z</time>
      </trkpt>
      <trkpt lat="40.549030043184757232666015625" lon="-1.6724299080669879913330078125">
        <ele>1491.199951171875</ele>
        <time>2022-05-04T12:42:10.000Z</time>
      </trkpt>
      <trkpt lat="40.54889098741114139556884765625" lon="-1.67194870300590991973876953125">
        <ele>1487.5999755859375</ele>
        <time>2022-05-04T12:42:14.000Z</time>
      </trkpt>
      <trkpt lat="40.54882141761481761932373046875" lon="-1.67170378379523754119873046875">
        <ele>1486.199951171875</ele>
        <time>2022-05-04T12:42:16.000Z</time>
      </trkpt>
      <trkpt lat="40.54878604598343372344970703125" lon="-1.67158124037086963653564453125">
        <ele>1486</ele>
        <time>2022-05-04T12:42:17.000Z</time>
      </trkpt>
      <trkpt lat="40.54875142872333526611328125" lon="-1.67146489955484867095947265625">
        <ele>1485.199951171875</ele>
        <time>2022-05-04T12:42:18.000Z</time>
      </trkpt>
      <trkpt lat="40.54865679703652858734130859375" lon="-1.6711256839334964752197265625">
        <ele>1483.800048828125</ele>
        <time>2022-05-04T12:42:21.000Z</time>
      </trkpt>
      <trkpt lat="40.54863299243152141571044921875" lon="-1.67100992985069751739501953125">
        <ele>1483.4000244140625</ele>
        <time>2022-05-04T12:42:22.000Z</time>
      </trkpt>
      <trkpt lat="40.54861287586390972137451171875" lon="-1.6708943434059619903564453125">
        <ele>1483</ele>
        <time>2022-05-04T12:42:23.000Z</time>
      </trkpt>
      <trkpt lat="40.5485943518579006195068359375" lon="-1.670779846608638763427734375">
        <ele>1482.800048828125</ele>
        <time>2022-05-04T12:42:24.000Z</time>
      </trkpt>
      <trkpt lat="40.54853551089763641357421875" lon="-1.67043694294989109039306640625">
        <ele>1483</ele>
        <time>2022-05-04T12:42:27.000Z</time>
      </trkpt>
      <trkpt lat="40.548480860888957977294921875" lon="-1.67020618915557861328125">
        <ele>1483</ele>
        <time>2022-05-04T12:42:29.000Z</time>
      </trkpt>
      <trkpt lat="40.54844406433403491973876953125" lon="-1.6700920276343822479248046875">
        <ele>1482</ele>
        <time>2022-05-04T12:42:30.000Z</time>
      </trkpt>
      <trkpt lat="40.5484062619507312774658203125" lon="-1.669981218874454498291015625">
        <ele>1481</ele>
        <time>2022-05-04T12:42:31.000Z</time>
      </trkpt>
      <trkpt lat="40.54829838685691356658935546875" lon="-1.6696719266474246978759765625">
        <ele>1477.800048828125</ele>
        <time>2022-05-04T12:42:34.000Z</time>
      </trkpt>
      <trkpt lat="40.5482304096221923828125" lon="-1.669490039348602294921875">
        <ele>1476.800048828125</ele>
        <time>2022-05-04T12:42:36.000Z</time>
      </trkpt>
      <trkpt lat="40.54816729389131069183349609375" lon="-1.6693158634006977081298828125">
        <ele>1476.4000244140625</ele>
        <time>2022-05-04T12:42:38.000Z</time>
      </trkpt>
      <trkpt lat="40.548034608364105224609375" lon="-1.66891495697200298309326171875">
        <ele>1476</ele>
        <time>2022-05-04T12:42:43.000Z</time>
      </trkpt>
      <trkpt lat="40.5479311756789684295654296875" lon="-1.66851111687719821929931640625">
        <ele>1477.5999755859375</ele>
        <time>2022-05-04T12:42:49.000Z</time>
      </trkpt>
      <trkpt lat="40.54792220704257488250732421875" lon="-1.668448336422443389892578125">
        <ele>1478</ele>
        <time>2022-05-04T12:42:50.000Z</time>
      </trkpt>
      <trkpt lat="40.54790829308331012725830078125" lon="-1.66826703585684299468994140625">
        <ele>1478.800048828125</ele>
        <time>2022-05-04T12:42:53.000Z</time>
      </trkpt>
      <trkpt lat="40.5479211173951625823974609375" lon="-1.6681350208818912506103515625">
        <ele>1478.199951171875</ele>
        <time>2022-05-04T12:42:55.000Z</time>
      </trkpt>
      <trkpt lat="40.5479331873357295989990234375" lon="-1.66806855238974094390869140625">
        <ele>1478</ele>
        <time>2022-05-04T12:42:56.000Z</time>
      </trkpt>
      <trkpt lat="40.54801113903522491455078125" lon="-1.667797900736331939697265625">
        <ele>1477.199951171875</ele>
        <time>2022-05-04T12:43:00.000Z</time>
      </trkpt>
      <trkpt lat="40.54819621145725250244140625" lon="-1.6673853434622287750244140625">
        <ele>1479.199951171875</ele>
        <time>2022-05-04T12:43:06.000Z</time>
      </trkpt>
      <trkpt lat="40.54822571575641632080078125" lon="-1.66730848141014575958251953125">
        <ele>1479.5999755859375</ele>
        <time>2022-05-04T12:43:07.000Z</time>
      </trkpt>
      <trkpt lat="40.5482510291039943695068359375" lon="-1.66722667403519153594970703125">
        <ele>1480.199951171875</ele>
        <time>2022-05-04T12:43:08.000Z</time>
      </trkpt>
      <trkpt lat="40.54827726446092128753662109375" lon="-1.66705601848661899566650390625">
        <ele>1480.5999755859375</ele>
        <time>2022-05-04T12:43:10.000Z</time>
      </trkpt>
      <trkpt lat="40.54827625863254070281982421875" lon="-1.66696784086525440216064453125">
        <ele>1480.4000244140625</ele>
        <time>2022-05-04T12:43:11.000Z</time>
      </trkpt>
      <trkpt lat="40.548231415450572967529296875" lon="-1.66671604849398136138916015625">
        <ele>1478.5999755859375</ele>
        <time>2022-05-04T12:43:14.000Z</time>
      </trkpt>
      <trkpt lat="40.548175759613513946533203125" lon="-1.6665637493133544921875">
        <ele>1476.800048828125</ele>
        <time>2022-05-04T12:43:16.000Z</time>
      </trkpt>
      <trkpt lat="40.5480790324509143829345703125" lon="-1.66633701883256435394287109375">
        <ele>1473.5999755859375</ele>
        <time>2022-05-04T12:43:19.000Z</time>
      </trkpt>
      <trkpt lat="40.5480086244642734527587890625" lon="-1.66618647985160350799560546875">
        <ele>1471.199951171875</ele>
        <time>2022-05-04T12:43:21.000Z</time>
      </trkpt>
      <trkpt lat="40.5477704107761383056640625" lon="-1.66564266197383403778076171875">
        <ele>1466.800048828125</ele>
        <time>2022-05-04T12:43:28.000Z</time>
      </trkpt>
      <trkpt lat="40.54760210216045379638671875" lon="-1.6652456112205982208251953125">
        <ele>1465.800048828125</ele>
        <time>2022-05-04T12:43:33.000Z</time>
      </trkpt>
      <trkpt lat="40.54753999225795269012451171875" lon="-1.66508459486067295074462890625">
        <ele>1465.4000244140625</ele>
        <time>2022-05-04T12:43:35.000Z</time>
      </trkpt>
      <trkpt lat="40.54747796617448329925537109375" lon="-1.66491779498755931854248046875">
        <ele>1465.199951171875</ele>
        <time>2022-05-04T12:43:37.000Z</time>
      </trkpt>
      <trkpt lat="40.5474088154733180999755859375" lon="-1.66465678252279758453369140625">
        <ele>1463.4000244140625</ele>
        <time>2022-05-04T12:43:40.000Z</time>
      </trkpt>
      <trkpt lat="40.5474047921597957611083984375" lon="-1.6645690239965915679931640625">
        <ele>1462.800048828125</ele>
        <time>2022-05-04T12:43:41.000Z</time>
      </trkpt>
      <trkpt lat="40.5474701710045337677001953125" lon="-1.664310358464717864990234375">
        <ele>1462</ele>
        <time>2022-05-04T12:43:44.000Z</time>
      </trkpt>
      <trkpt lat="40.54755860008299350738525390625" lon="-1.6641516052186489105224609375">
        <ele>1462.4000244140625</ele>
        <time>2022-05-04T12:43:46.000Z</time>
      </trkpt>
      <trkpt lat="40.5476052872836589813232421875" lon="-1.66406929492950439453125">
        <ele>1462.5999755859375</ele>
        <time>2022-05-04T12:43:47.000Z</time>
      </trkpt>
      <trkpt lat="40.54769539274275302886962890625" lon="-1.6638894192874431610107421875">
        <ele>1463.199951171875</ele>
        <time>2022-05-04T12:43:49.000Z</time>
      </trkpt>
      <trkpt lat="40.54776160977780818939208984375" lon="-1.6636775247752666473388671875">
        <ele>1463.5999755859375</ele>
        <time>2022-05-04T12:43:51.000Z</time>
      </trkpt>
      <trkpt lat="40.5477999150753021240234375" lon="-1.663448028266429901123046875">
        <ele>1463.4000244140625</ele>
        <time>2022-05-04T12:43:53.000Z</time>
      </trkpt>
      <trkpt lat="40.54782447405159473419189453125" lon="-1.66321744211018085479736328125">
        <ele>1463</ele>
        <time>2022-05-04T12:43:55.000Z</time>
      </trkpt>
      <trkpt lat="40.54784056730568408966064453125" lon="-1.66299213655292987823486328125">
        <ele>1462</ele>
        <time>2022-05-04T12:43:57.000Z</time>
      </trkpt>
      <trkpt lat="40.5478530563414096832275390625" lon="-1.66277588345110416412353515625">
        <ele>1460.800048828125</ele>
        <time>2022-05-04T12:43:59.000Z</time>
      </trkpt>
      <trkpt lat="40.5478513799607753753662109375" lon="-1.66267110966145992279052734375">
        <ele>1460.199951171875</ele>
        <time>2022-05-04T12:44:00.000Z</time>
      </trkpt>
      <trkpt lat="40.547801591455936431884765625" lon="-1.66248871944844722747802734375">
        <ele>1458.4000244140625</ele>
        <time>2022-05-04T12:44:02.000Z</time>
      </trkpt>
      <trkpt lat="40.547753311693668365478515625" lon="-1.66241194121539592742919921875">
        <ele>1457.199951171875</ele>
        <time>2022-05-04T12:44:03.000Z</time>
      </trkpt>
      <trkpt lat="40.54761174134910106658935546875" lon="-1.66231236420571804046630859375">
        <ele>1454.4000244140625</ele>
        <time>2022-05-04T12:44:05.000Z</time>
      </trkpt>
      <trkpt lat="40.54734569974243640899658203125" lon="-1.6621416248381137847900390625">
        <ele>1448.800048828125</ele>
        <time>2022-05-04T12:44:09.000Z</time>
      </trkpt>
      <trkpt lat="40.54725953377783298492431640625" lon="-1.66187985800206661224365234375">
        <ele>1447.4000244140625</ele>
        <time>2022-05-04T12:44:12.000Z</time>
      </trkpt>
      <trkpt lat="40.5472527444362640380859375" lon="-1.66178899817168712615966796875">
        <ele>1447.199951171875</ele>
        <time>2022-05-04T12:44:13.000Z</time>
      </trkpt>
      <trkpt lat="40.54725048132240772247314453125" lon="-1.66169822216033935546875">
        <ele>1447</ele>
        <time>2022-05-04T12:44:14.000Z</time>
      </trkpt>
      <trkpt lat="40.5472622998058795928955078125" lon="-1.66144265793263912200927734375">
        <ele>1446.199951171875</ele>
        <time>2022-05-04T12:44:17.000Z</time>
      </trkpt>
      <trkpt lat="40.5472750402987003326416015625" lon="-1.66091996245086193084716796875">
        <ele>1446.199951171875</ele>
        <time>2022-05-04T12:44:24.000Z</time>
      </trkpt>
      <trkpt lat="40.5472840927541255950927734375" lon="-1.660687029361724853515625">
        <ele>1446.199951171875</ele>
        <time>2022-05-04T12:44:28.000Z</time>
      </trkpt>
      <trkpt lat="40.54728560149669647216796875" lon="-1.66057865135371685028076171875">
        <ele>1445.800048828125</ele>
        <time>2022-05-04T12:44:30.000Z</time>
      </trkpt>
      <trkpt lat="40.54729255847632884979248046875" lon="-1.6603844426572322845458984375">
        <ele>1445.800048828125</ele>
        <time>2022-05-04T12:44:34.000Z</time>
      </trkpt>
      <trkpt lat="40.54730529896914958953857421875" lon="-1.6601691953837871551513671875">
        <ele>1445.800048828125</ele>
        <time>2022-05-04T12:44:39.000Z</time>
      </trkpt>
      <trkpt lat="40.54731032811105251312255859375" lon="-1.65985395200550556182861328125">
        <ele>1445.800048828125</ele>
        <time>2022-05-04T12:44:46.000Z</time>
      </trkpt>
      <trkpt lat="40.54730211384594440460205078125" lon="-1.659748591482639312744140625">
        <ele>1445.4000244140625</ele>
        <time>2022-05-04T12:44:48.000Z</time>
      </trkpt>
      <trkpt lat="40.5472871102392673492431640625" lon="-1.6595392115414142608642578125">
        <ele>1446</ele>
        <time>2022-05-04T12:44:52.000Z</time>
      </trkpt>
      <trkpt lat="40.5472706817090511322021484375" lon="-1.659450866281986236572265625">
        <ele>1446.5999755859375</ele>
        <time>2022-05-04T12:44:54.000Z</time>
      </trkpt>
      <trkpt lat="40.54723204113543033599853515625" lon="-1.6592803783714771270751953125">
        <ele>1447.5999755859375</ele>
        <time>2022-05-04T12:44:58.000Z</time>
      </trkpt>
      <trkpt lat="40.54720337502658367156982421875" lon="-1.6591593436896800994873046875">
        <ele>1448.199951171875</ele>
        <time>2022-05-04T12:45:01.000Z</time>
      </trkpt>
      <trkpt lat="40.54714478552341461181640625" lon="-1.65897150523960590362548828125">
        <ele>1449.199951171875</ele>
        <time>2022-05-04T12:45:06.000Z</time>
      </trkpt>
      <trkpt lat="40.54711821489036083221435546875" lon="-1.65889673866331577301025390625">
        <ele>1449.4000244140625</ele>
        <time>2022-05-04T12:45:08.000Z</time>
      </trkpt>
      <trkpt lat="40.54703372530639171600341796875" lon="-1.6586617939174175262451171875">
        <ele>1450</ele>
        <time>2022-05-04T12:45:15.000Z</time>
      </trkpt>
      <trkpt lat="40.54700572974979877471923828125" lon="-1.65859616361558437347412109375">
        <ele>1450.199951171875</ele>
        <time>2022-05-04T12:45:17.000Z</time>
      </trkpt>
      <trkpt lat="40.54692023433744907379150390625" lon="-1.6584364883601665496826171875">
        <ele>1450.5999755859375</ele>
        <time>2022-05-04T12:45:22.000Z</time>
      </trkpt>
      <trkpt lat="40.546825267374515533447265625" lon="-1.6583442874252796173095703125">
        <ele>1450.800048828125</ele>
        <time>2022-05-04T12:45:26.000Z</time>
      </trkpt>
      <trkpt lat="40.54677464067935943603515625" lon="-1.65830682031810283660888671875">
        <ele>1451</ele>
        <time>2022-05-04T12:45:28.000Z</time>
      </trkpt>
      <trkpt lat="40.54667271673679351806640625" lon="-1.6582621447741985321044921875">
        <ele>1451.4000244140625</ele>
        <time>2022-05-04T12:45:32.000Z</time>
      </trkpt>
      <trkpt lat="40.54659359157085418701171875" lon="-1.65824915282428264617919921875">
        <ele>1451.800048828125</ele>
        <time>2022-05-04T12:45:35.000Z</time>
      </trkpt>
      <trkpt lat="40.54654556326568126678466796875" lon="-1.65825149975717067718505859375">
        <ele>1452</ele>
        <time>2022-05-04T12:45:40.000Z</time>
      </trkpt>
      <trkpt lat="40.54657624103128910064697265625" lon="-1.658212356269359588623046875">
        <ele>1451.5999755859375</ele>
        <time>2022-05-04T12:46:07.000Z</time>
      </trkpt>
      <trkpt lat="40.5466286279261112213134765625" lon="-1.658211015164852142333984375">
        <ele>1451.4000244140625</ele>
        <time>2022-05-04T12:46:10.000Z</time>
      </trkpt>
      <trkpt lat="40.5467476509511470794677734375" lon="-1.658263988792896270751953125">
        <ele>1451</ele>
        <time>2022-05-04T12:46:15.000Z</time>
      </trkpt>
      <trkpt lat="40.5468784086406230926513671875" lon="-1.6583607159554958343505859375">
        <ele>1450.5999755859375</ele>
        <time>2022-05-04T12:46:19.000Z</time>
      </trkpt>
      <trkpt lat="40.5469092540442943572998046875" lon="-1.658401452004909515380859375">
        <ele>1450.5999755859375</ele>
        <time>2022-05-04T12:46:20.000Z</time>
      </trkpt>
      <trkpt lat="40.54702752269804477691650390625" lon="-1.6586151905357837677001953125">
        <ele>1450</ele>
        <time>2022-05-04T12:46:24.000Z</time>
      </trkpt>
      <trkpt lat="40.54708217270672321319580078125" lon="-1.658748127520084381103515625">
        <ele>1449.5999755859375</ele>
        <time>2022-05-04T12:46:26.000Z</time>
      </trkpt>
      <trkpt lat="40.5471861921250820159912109375" lon="-1.65904945693910121917724609375">
        <ele>1448.800048828125</ele>
        <time>2022-05-04T12:46:30.000Z</time>
      </trkpt>
      <trkpt lat="40.54726104252040386199951171875" lon="-1.65930476970970630645751953125">
        <ele>1447.199951171875</ele>
        <time>2022-05-04T12:46:33.000Z</time>
      </trkpt>
      <trkpt lat="40.54729976691305637359619140625" lon="-1.65949000976979732513427734375">
        <ele>1446.199951171875</ele>
        <time>2022-05-04T12:46:35.000Z</time>
      </trkpt>
      <trkpt lat="40.54732759483158588409423828125" lon="-1.65978111326694488525390625">
        <ele>1445.4000244140625</ele>
        <time>2022-05-04T12:46:38.000Z</time>
      </trkpt>
      <trkpt lat="40.54733061231672763824462890625" lon="-1.6598821990191936492919921875">
        <ele>1445.800048828125</ele>
        <time>2022-05-04T12:46:39.000Z</time>
      </trkpt>
      <trkpt lat="40.54732977412641048431396484375" lon="-1.6601943410933017730712890625">
        <ele>1445.800048828125</ele>
        <time>2022-05-04T12:46:42.000Z</time>
      </trkpt>
      <trkpt lat="40.54732047021389007568359375" lon="-1.6605178825557231903076171875">
        <ele>1445.800048828125</ele>
        <time>2022-05-04T12:46:45.000Z</time>
      </trkpt>
      <trkpt lat="40.5473146028816699981689453125" lon="-1.66084703989326953887939453125">
        <ele>1446.199951171875</ele>
        <time>2022-05-04T12:46:48.000Z</time>
      </trkpt>
      <trkpt lat="40.5473011918365955352783203125" lon="-1.6612957231700420379638671875">
        <ele>1446.199951171875</ele>
        <time>2022-05-04T12:46:52.000Z</time>
      </trkpt>
      <trkpt lat="40.547289289534091949462890625" lon="-1.66162488050758838653564453125">
        <ele>1447</ele>
        <time>2022-05-04T12:46:55.000Z</time>
      </trkpt>
      <trkpt lat="40.54730865173041820526123046875" lon="-1.66202888824045658111572265625">
        <ele>1448.199951171875</ele>
        <time>2022-05-04T12:46:59.000Z</time>
      </trkpt>
      <trkpt lat="40.54733044467866420745849609375" lon="-1.66211555711925029754638671875">
        <ele>1448.5999755859375</ele>
        <time>2022-05-04T12:47:00.000Z</time>
      </trkpt>
      <trkpt lat="40.547461621463298797607421875" lon="-1.66228587739169597625732421875">
        <ele>1451.5999755859375</ele>
        <time>2022-05-04T12:47:03.000Z</time>
      </trkpt>
      <trkpt lat="40.54756916128098964691162109375" lon="-1.66233801282942295074462890625">
        <ele>1454</ele>
        <time>2022-05-04T12:47:05.000Z</time>
      </trkpt>
      <trkpt lat="40.54766102693974971771240234375" lon="-1.66238478384912014007568359375">
        <ele>1455.800048828125</ele>
        <time>2022-05-04T12:47:07.000Z</time>
      </trkpt>
      <trkpt lat="40.54769958369433879852294921875" lon="-1.662410013377666473388671875">
        <ele>1456.4000244140625</ele>
        <time>2022-05-04T12:47:08.000Z</time>
      </trkpt>
      <trkpt lat="40.54782212711870670318603515625" lon="-1.66243256069719791412353515625">
        <ele>1458.4000244140625</ele>
        <time>2022-05-04T12:47:12.000Z</time>
      </trkpt>
      <trkpt lat="40.54784023202955722808837890625" lon="-1.6624105162918567657470703125">
        <ele>1458.5999755859375</ele>
        <time>2022-05-04T12:47:13.000Z</time>
      </trkpt>
      <trkpt lat="40.54787493310868740081787109375" lon="-1.6622928343713283538818359375">
        <ele>1458.199951171875</ele>
        <time>2022-05-04T12:47:16.000Z</time>
      </trkpt>
      <trkpt lat="40.54788113571703433990478515625" lon="-1.66224312968552112579345703125">
        <ele>1457.800048828125</ele>
        <time>2022-05-04T12:47:17.000Z</time>
      </trkpt>
      <trkpt lat="40.547884404659271240234375" lon="-1.6621888987720012664794921875">
        <ele>1457.199951171875</ele>
        <time>2022-05-04T12:47:18.000Z</time>
      </trkpt>
      <trkpt lat="40.5478959716856479644775390625" lon="-1.66200793348252773284912109375">
        <ele>1455.4000244140625</ele>
        <time>2022-05-04T12:47:21.000Z</time>
      </trkpt>
      <trkpt lat="40.547925643622875213623046875" lon="-1.6617024131119251251220703125">
        <ele>1452.5999755859375</ele>
        <time>2022-05-04T12:47:26.000Z</time>
      </trkpt>
      <trkpt lat="40.54794316180050373077392578125" lon="-1.66163544170558452606201171875">
        <ele>1452.199951171875</ele>
        <time>2022-05-04T12:47:27.000Z</time>
      </trkpt>
      <trkpt lat="40.54807484149932861328125" lon="-1.6613349504768848419189453125">
        <ele>1452.4000244140625</ele>
        <time>2022-05-04T12:47:32.000Z</time>
      </trkpt>
      <trkpt lat="40.54809671826660633087158203125" lon="-1.66127367876470088958740234375">
        <ele>1452.5999755859375</ele>
        <time>2022-05-04T12:47:33.000Z</time>
      </trkpt>
      <trkpt lat="40.54811012931168079376220703125" lon="-1.6612119041383266448974609375">
        <ele>1452.5999755859375</ele>
        <time>2022-05-04T12:47:34.000Z</time>
      </trkpt>
      <trkpt lat="40.54812689311802387237548828125" lon="-1.6609604470431804656982421875">
        <ele>1451.4000244140625</ele>
        <time>2022-05-04T12:47:38.000Z</time>
      </trkpt>
      <trkpt lat="40.54812789894640445709228515625" lon="-1.6608984209597110748291015625">
        <ele>1451.199951171875</ele>
        <time>2022-05-04T12:47:39.000Z</time>
      </trkpt>
      <trkpt lat="40.54813393391668796539306640625" lon="-1.6608333773910999298095703125">
        <ele>1450.800048828125</ele>
        <time>2022-05-04T12:47:40.000Z</time>
      </trkpt>
      <trkpt lat="40.5481447465717792510986328125" lon="-1.6607639752328395843505859375">
        <ele>1450.800048828125</ele>
        <time>2022-05-04T12:47:41.000Z</time>
      </trkpt>
      <trkpt lat="40.54817114956676959991455078125" lon="-1.66063229553401470184326171875">
        <ele>1450.199951171875</ele>
        <time>2022-05-04T12:47:43.000Z</time>
      </trkpt>
      <trkpt lat="40.54818841628730297088623046875" lon="-1.6605681739747524261474609375">
        <ele>1449.5999755859375</ele>
        <time>2022-05-04T12:47:44.000Z</time>
      </trkpt>
      <trkpt lat="40.54838069714605808258056640625" lon="-1.6601304709911346435546875">
        <ele>1450.5999755859375</ele>
        <time>2022-05-04T12:47:52.000Z</time>
      </trkpt>
      <trkpt lat="40.54843149147927761077880859375" lon="-1.66003952734172344207763671875">
        <ele>1451</ele>
        <time>2022-05-04T12:47:54.000Z</time>
      </trkpt>
      <trkpt lat="40.5484810285270214080810546875" lon="-1.65994917042553424835205078125">
        <ele>1451.4000244140625</ele>
        <time>2022-05-04T12:47:56.000Z</time>
      </trkpt>
      <trkpt lat="40.54853308014571666717529296875" lon="-1.6598530299961566925048828125">
        <ele>1451.800048828125</ele>
        <time>2022-05-04T12:47:58.000Z</time>
      </trkpt>
      <trkpt lat="40.54876693524420261383056640625" lon="-1.65950140915811061859130859375">
        <ele>1450.800048828125</ele>
        <time>2022-05-04T12:48:06.000Z</time>
      </trkpt>
      <trkpt lat="40.54884907789528369903564453125" lon="-1.65936176665127277374267578125">
        <ele>1450.199951171875</ele>
        <time>2022-05-04T12:48:09.000Z</time>
      </trkpt>
      <trkpt lat="40.54893516004085540771484375" lon="-1.65912774391472339630126953125">
        <ele>1448.199951171875</ele>
        <time>2022-05-04T12:48:13.000Z</time>
      </trkpt>
      <trkpt lat="40.54895536042749881744384765625" lon="-1.65899296291172504425048828125">
        <ele>1447.4000244140625</ele>
        <time>2022-05-04T12:48:15.000Z</time>
      </trkpt>
      <trkpt lat="40.54895552806556224822998046875" lon="-1.65885918773710727691650390625">
        <ele>1447.4000244140625</ele>
        <time>2022-05-04T12:48:17.000Z</time>
      </trkpt>
      <trkpt lat="40.54895720444619655609130859375" lon="-1.65879179723560810089111328125">
        <ele>1447.199951171875</ele>
        <time>2022-05-04T12:48:18.000Z</time>
      </trkpt>
      <trkpt lat="40.54896474815905094146728515625" lon="-1.65866338647902011871337890625">
        <ele>1447</ele>
        <time>2022-05-04T12:48:20.000Z</time>
      </trkpt>
      <trkpt lat="40.54897413589060306549072265625" lon="-1.6585385799407958984375">
        <ele>1446.800048828125</ele>
        <time>2022-05-04T12:48:22.000Z</time>
      </trkpt>
      <trkpt lat="40.54899391718208789825439453125" lon="-1.6583530046045780181884765625">
        <ele>1446.800048828125</ele>
        <time>2022-05-04T12:48:25.000Z</time>
      </trkpt>
      <trkpt lat="40.54900162853300571441650390625" lon="-1.65814722888171672821044921875">
        <ele>1446.199951171875</ele>
        <time>2022-05-04T12:48:28.000Z</time>
      </trkpt>
      <trkpt lat="40.54900129325687885284423828125" lon="-1.6577706299722194671630859375">
        <ele>1445</ele>
        <time>2022-05-04T12:48:34.000Z</time>
      </trkpt>
      <trkpt lat="40.54900196380913257598876953125" lon="-1.65766208432614803314208984375">
        <ele>1444.800048828125</ele>
        <time>2022-05-04T12:48:36.000Z</time>
      </trkpt>
      <trkpt lat="40.54902099072933197021484375" lon="-1.65749721229076385498046875">
        <ele>1444.5999755859375</ele>
        <time>2022-05-04T12:48:39.000Z</time>
      </trkpt>
      <trkpt lat="40.54903062991797924041748046875" lon="-1.6574464179575443267822265625">
        <ele>1444.800048828125</ele>
        <time>2022-05-04T12:48:40.000Z</time>
      </trkpt>
      <trkpt lat="40.5490848608314990997314453125" lon="-1.65719420649111270904541015625">
        <ele>1443.5999755859375</ele>
        <time>2022-05-04T12:48:45.000Z</time>
      </trkpt>
      <trkpt lat="40.549096763134002685546875" lon="-1.657140143215656280517578125">
        <ele>1443.199951171875</ele>
        <time>2022-05-04T12:48:46.000Z</time>
      </trkpt>
      <trkpt lat="40.5492193065583705902099609375" lon="-1.65671727620065212249755859375">
        <ele>1442.800048828125</ele>
        <time>2022-05-04T12:48:54.000Z</time>
      </trkpt>
      <trkpt lat="40.54935450665652751922607421875" lon="-1.65631243027746677398681640625">
        <ele>1442</ele>
        <time>2022-05-04T12:49:01.000Z</time>
      </trkpt>
      <trkpt lat="40.54947294294834136962890625" lon="-1.65594865567982196807861328125">
        <ele>1441</ele>
        <time>2022-05-04T12:49:07.000Z</time>
      </trkpt>
      <trkpt lat="40.54956891573965549468994140625" lon="-1.655649505555629730224609375">
        <ele>1440.5999755859375</ele>
        <time>2022-05-04T12:49:13.000Z</time>
      </trkpt>
      <trkpt lat="40.5497071333229541778564453125" lon="-1.65533778257668018341064453125">
        <ele>1441.199951171875</ele>
        <time>2022-05-04T12:49:20.000Z</time>
      </trkpt>
      <trkpt lat="40.54976354353129863739013671875" lon="-1.65506176650524139404296875">
        <ele>1442</ele>
        <time>2022-05-04T12:49:25.000Z</time>
      </trkpt>
      <trkpt lat="40.54976957850158214569091796875" lon="-1.65500284172594547271728515625">
        <ele>1442</ele>
        <time>2022-05-04T12:49:26.000Z</time>
      </trkpt>
      <trkpt lat="40.54977175779640674591064453125" lon="-1.6549412347376346588134765625">
        <ele>1442</ele>
        <time>2022-05-04T12:49:27.000Z</time>
      </trkpt>
      <trkpt lat="40.54975549690425395965576171875" lon="-1.65462548844516277313232421875">
        <ele>1441.199951171875</ele>
        <time>2022-05-04T12:49:32.000Z</time>
      </trkpt>
      <trkpt lat="40.54973605088889598846435546875" lon="-1.654313765466213226318359375">
        <ele>1441</ele>
        <time>2022-05-04T12:49:37.000Z</time>
      </trkpt>
      <trkpt lat="40.5497396551072597503662109375" lon="-1.6541892103850841522216796875">
        <ele>1441</ele>
        <time>2022-05-04T12:49:39.000Z</time>
      </trkpt>
      <trkpt lat="40.54974921047687530517578125" lon="-1.6541298665106296539306640625">
        <ele>1441.199951171875</ele>
        <time>2022-05-04T12:49:40.000Z</time>
      </trkpt>
      <trkpt lat="40.54983101785182952880859375" lon="-1.65376734919846057891845703125">
        <ele>1442.800048828125</ele>
        <time>2022-05-04T12:49:47.000Z</time>
      </trkpt>
      <trkpt lat="40.549907796084880828857421875" lon="-1.65336786769330501556396484375">
        <ele>1445</ele>
        <time>2022-05-04T12:49:56.000Z</time>
      </trkpt>
      <trkpt lat="40.54993771947920322418212890625" lon="-1.65318153798580169677734375">
        <ele>1445.800048828125</ele>
        <time>2022-05-04T12:50:00.000Z</time>
      </trkpt>
      <trkpt lat="40.5499532260000705718994140625" lon="-1.6530871577560901641845703125">
        <ele>1446.4000244140625</ele>
        <time>2022-05-04T12:50:02.000Z</time>
      </trkpt>
      <trkpt lat="40.55001181550323963165283203125" lon="-1.65276051498949527740478515625">
        <ele>1448</ele>
        <time>2022-05-04T12:50:09.000Z</time>
      </trkpt>
      <trkpt lat="40.5500618554651737213134765625" lon="-1.6524960659444332122802734375">
        <ele>1449</ele>
        <time>2022-05-04T12:50:15.000Z</time>
      </trkpt>
      <trkpt lat="40.5500705726444721221923828125" lon="-1.6524568386375904083251953125">
        <ele>1449.199951171875</ele>
        <time>2022-05-04T12:50:16.000Z</time>
      </trkpt>
      <trkpt lat="40.5500890128314495086669921875" lon="-1.65227989666163921356201171875">
        <ele>1449.4000244140625</ele>
        <time>2022-05-04T12:50:19.000Z</time>
      </trkpt>
      <trkpt lat="40.55009429343044757843017578125" lon="-1.65221669711172580718994140625">
        <ele>1449.5999755859375</ele>
        <time>2022-05-04T12:50:20.000Z</time>
      </trkpt>
      <trkpt lat="40.5501074530184268951416015625" lon="-1.65199197828769683837890625">
        <ele>1449.800048828125</ele>
        <time>2022-05-04T12:50:25.000Z</time>
      </trkpt>
      <trkpt lat="40.550102926790714263916015625" lon="-1.65176340378820896148681640625">
        <ele>1449.199951171875</ele>
        <time>2022-05-04T12:50:31.000Z</time>
      </trkpt>
      <trkpt lat="40.55010460317134857177734375" lon="-1.65167757309973239898681640625">
        <ele>1449.199951171875</ele>
        <time>2022-05-04T12:50:33.000Z</time>
      </trkpt>
      <trkpt lat="40.5500940419733524322509765625" lon="-1.6514697857201099395751953125">
        <ele>1448.5999755859375</ele>
        <time>2022-05-04T12:50:37.000Z</time>
      </trkpt>
      <trkpt lat="40.55001667700707912445068359375" lon="-1.65102235972881317138671875">
        <ele>1448.199951171875</ele>
        <time>2022-05-04T12:50:44.000Z</time>
      </trkpt>
      <trkpt lat="40.5499349534511566162109375" lon="-1.65066336281597614288330078125">
        <ele>1447</ele>
        <time>2022-05-04T12:50:50.000Z</time>
      </trkpt>
      <trkpt lat="40.549858175218105316162109375" lon="-1.65036463178694248199462890625">
        <ele>1443.800048828125</ele>
        <time>2022-05-04T12:50:57.000Z</time>
      </trkpt>
      <trkpt lat="40.549852810800075531005859375" lon="-1.65019431151449680328369140625">
        <ele>1443.199951171875</ele>
        <time>2022-05-04T12:51:01.000Z</time>
      </trkpt>
      <trkpt lat="40.54984970949590206146240234375" lon="-1.6501451097428798675537109375">
        <ele>1443</ele>
        <time>2022-05-04T12:51:02.000Z</time>
      </trkpt>
      <trkpt lat="40.54984468035399913787841796875" lon="-1.64998929016292095184326171875">
        <ele>1442.4000244140625</ele>
        <time>2022-05-04T12:51:05.000Z</time>
      </trkpt>
      <trkpt lat="40.54983529262244701385498046875" lon="-1.64976180531084537506103515625">
        <ele>1440.4000244140625</ele>
        <time>2022-05-04T12:51:09.000Z</time>
      </trkpt>
      <trkpt lat="40.54984518326818943023681640625" lon="-1.6496549360454082489013671875">
        <ele>1439</ele>
        <time>2022-05-04T12:51:11.000Z</time>
      </trkpt>
      <trkpt lat="40.54987636394798755645751953125" lon="-1.64948168210685253143310546875">
        <ele>1437.5999755859375</ele>
        <time>2022-05-04T12:51:14.000Z</time>
      </trkpt>
      <trkpt lat="40.54989002645015716552734375" lon="-1.64942619390785694122314453125">
        <ele>1437.199951171875</ele>
        <time>2022-05-04T12:51:15.000Z</time>
      </trkpt>
      <trkpt lat="40.549908466637134552001953125" lon="-1.64936986751854419708251953125">
        <ele>1436.800048828125</ele>
        <time>2022-05-04T12:51:16.000Z</time>
      </trkpt>
      <trkpt lat="40.54995196871459484100341796875" lon="-1.64926844649016857147216796875">
        <ele>1436.199951171875</ele>
        <time>2022-05-04T12:51:18.000Z</time>
      </trkpt>
      <trkpt lat="40.54998532868921756744384765625" lon="-1.64922930300235748291015625">
        <ele>1436.4000244140625</ele>
        <time>2022-05-04T12:51:19.000Z</time>
      </trkpt>
      <trkpt lat="40.55010586045682430267333984375" lon="-1.6491253674030303955078125">
        <ele>1436.800048828125</ele>
        <time>2022-05-04T12:51:23.000Z</time>
      </trkpt>
      <trkpt lat="40.55015782825648784637451171875" lon="-1.64908714592456817626953125">
        <ele>1437</ele>
        <time>2022-05-04T12:51:25.000Z</time>
      </trkpt>
      <trkpt lat="40.5502407252788543701171875" lon="-1.64900776930153369903564453125">
        <ele>1437.4000244140625</ele>
        <time>2022-05-04T12:51:28.000Z</time>
      </trkpt>
      <trkpt lat="40.55047449655830860137939453125" lon="-1.6488053463399410247802734375">
        <ele>1438.800048828125</ele>
        <time>2022-05-04T12:51:34.000Z</time>
      </trkpt>
      <trkpt lat="40.55057658813893795013427734375" lon="-1.64871272630989551544189453125">
        <ele>1439.5999755859375</ele>
        <time>2022-05-04T12:51:38.000Z</time>
      </trkpt>
      <trkpt lat="40.55062922649085521697998046875" lon="-1.64862220175564289093017578125">
        <ele>1439.5999755859375</ele>
        <time>2022-05-04T12:51:43.000Z</time>
      </trkpt>
      <trkpt lat="40.55058228783309459686279296875" lon="-1.64859437383711338043212890625">
        <ele>1438.5999755859375</ele>
        <time>2022-05-04T12:51:46.000Z</time>
      </trkpt>
      <trkpt lat="40.5505572259426116943359375" lon="-1.648600995540618896484375">
        <ele>1438.199951171875</ele>
        <time>2022-05-04T12:51:47.000Z</time>
      </trkpt>
      <trkpt lat="40.55050383321940898895263671875" lon="-1.64863963611423969268798828125">
        <ele>1437.800048828125</ele>
        <time>2022-05-04T12:51:50.000Z</time>
      </trkpt>
      <trkpt lat="40.55049209855496883392333984375" lon="-1.64865799248218536376953125">
        <ele>1437.800048828125</ele>
        <time>2022-05-04T12:51:51.000Z</time>
      </trkpt>
      <trkpt lat="40.55042269639670848846435546875" lon="-1.6486253030598163604736328125">
        <ele>1436.5999755859375</ele>
        <time>2022-05-04T12:51:54.000Z</time>
      </trkpt>
      <trkpt lat="40.55037550628185272216796875" lon="-1.648545674979686737060546875">
        <ele>1435.199951171875</ele>
        <time>2022-05-04T12:51:56.000Z</time>
      </trkpt>
      <trkpt lat="40.55036620236933231353759765625" lon="-1.64850535802543163299560546875">
        <ele>1434.800048828125</ele>
        <time>2022-05-04T12:51:57.000Z</time>
      </trkpt>
      <trkpt lat="40.5503666214644908905029296875" lon="-1.64845950901508331298828125">
        <ele>1434.4000244140625</ele>
        <time>2022-05-04T12:51:58.000Z</time>
      </trkpt>
      <trkpt lat="40.55041012354195117950439453125" lon="-1.6483470238745212554931640625">
        <ele>1434</ele>
        <time>2022-05-04T12:52:01.000Z</time>
      </trkpt>
      <trkpt lat="40.5504279769957065582275390625" lon="-1.648290865123271942138671875">
        <ele>1433.800048828125</ele>
        <time>2022-05-04T12:52:02.000Z</time>
      </trkpt>
      <trkpt lat="40.550581030547618865966796875" lon="-1.6479926370084285736083984375">
        <ele>1434.199951171875</ele>
        <time>2022-05-04T12:52:08.000Z</time>
      </trkpt>
      <trkpt lat="40.550676248967647552490234375" lon="-1.64784603752195835113525390625">
        <ele>1435.199951171875</ele>
        <time>2022-05-04T12:52:11.000Z</time>
      </trkpt>
      <trkpt lat="40.55076920427381992340087890625" lon="-1.6476848535239696502685546875">
        <ele>1436</ele>
        <time>2022-05-04T12:52:14.000Z</time>
      </trkpt>
      <trkpt lat="40.55092376656830310821533203125" lon="-1.6474357433617115020751953125">
        <ele>1437.4000244140625</ele>
        <time>2022-05-04T12:52:19.000Z</time>
      </trkpt>
      <trkpt lat="40.55096399970352649688720703125" lon="-1.64733021520078182220458984375">
        <ele>1437.5999755859375</ele>
        <time>2022-05-04T12:52:21.000Z</time>
      </trkpt>
      <trkpt lat="40.5510458908975124359130859375" lon="-1.64702209644019603729248046875">
        <ele>1438.5999755859375</ele>
        <time>2022-05-04T12:52:26.000Z</time>
      </trkpt>
      <trkpt lat="40.55105737410485744476318359375" lon="-1.6469529457390308380126953125">
        <ele>1438.5999755859375</ele>
        <time>2022-05-04T12:52:27.000Z</time>
      </trkpt>
      <trkpt lat="40.55106357671320438385009765625" lon="-1.646884046494960784912109375">
        <ele>1438.5999755859375</ele>
        <time>2022-05-04T12:52:28.000Z</time>
      </trkpt>
      <trkpt lat="40.55106659419834613800048828125" lon="-1.6466166637837886810302734375">
        <ele>1437.199951171875</ele>
        <time>2022-05-04T12:52:32.000Z</time>
      </trkpt>
      <trkpt lat="40.55106458254158496856689453125" lon="-1.6464835591614246368408203125">
        <ele>1436.5999755859375</ele>
        <time>2022-05-04T12:52:34.000Z</time>
      </trkpt>
      <trkpt lat="40.55105150677263736724853515625" lon="-1.646100841462612152099609375">
        <ele>1435.4000244140625</ele>
        <time>2022-05-04T12:52:40.000Z</time>
      </trkpt>
      <trkpt lat="40.55107832886278629302978515625" lon="-1.64565416984260082244873046875">
        <ele>1434.5999755859375</ele>
        <time>2022-05-04T12:52:47.000Z</time>
      </trkpt>
      <trkpt lat="40.55114588700234889984130859375" lon="-1.6451830230653285980224609375">
        <ele>1432.199951171875</ele>
        <time>2022-05-04T12:52:54.000Z</time>
      </trkpt>
      <trkpt lat="40.5512403510510921478271484375" lon="-1.64465211331844329833984375">
        <ele>1430.800048828125</ele>
        <time>2022-05-04T12:53:02.000Z</time>
      </trkpt>
      <trkpt lat="40.5512867867946624755859375" lon="-1.64435162208974361419677734375">
        <ele>1429.4000244140625</ele>
        <time>2022-05-04T12:53:06.000Z</time>
      </trkpt>
      <trkpt lat="40.551352836191654205322265625" lon="-1.643989272415637969970703125">
        <ele>1428.199951171875</ele>
        <time>2022-05-04T12:53:11.000Z</time>
      </trkpt>
      <trkpt lat="40.5513640679419040679931640625" lon="-1.64391894824802875518798828125">
        <ele>1428.4000244140625</ele>
        <time>2022-05-04T12:53:12.000Z</time>
      </trkpt>
      <trkpt lat="40.55144595913589000701904296875" lon="-1.6434043832123279571533203125">
        <ele>1429.800048828125</ele>
        <time>2022-05-04T12:53:20.000Z</time>
      </trkpt>
      <trkpt lat="40.551505722105503082275390625" lon="-1.64295569993555545806884765625">
        <ele>1432.199951171875</ele>
        <time>2022-05-04T12:53:27.000Z</time>
      </trkpt>
      <trkpt lat="40.55156263522803783416748046875" lon="-1.6424257121980190277099609375">
        <ele>1435.800048828125</ele>
        <time>2022-05-04T12:53:35.000Z</time>
      </trkpt>
      <trkpt lat="40.55155626498162746429443359375" lon="-1.64229403249919414520263671875">
        <ele>1436</ele>
        <time>2022-05-04T12:53:37.000Z</time>
      </trkpt>
      <trkpt lat="40.55151812732219696044921875" lon="-1.642041988670825958251953125">
        <ele>1435.4000244140625</ele>
        <time>2022-05-04T12:53:41.000Z</time>
      </trkpt>
      <trkpt lat="40.55144059471786022186279296875" lon="-1.64168559014797210693359375">
        <ele>1433.800048828125</ele>
        <time>2022-05-04T12:53:47.000Z</time>
      </trkpt>
      <trkpt lat="40.55140807293355464935302734375" lon="-1.6415677405893802642822265625">
        <ele>1433</ele>
        <time>2022-05-04T12:53:49.000Z</time>
      </trkpt>
      <trkpt lat="40.55126667022705078125" lon="-1.64098955690860748291015625">
        <ele>1431.800048828125</ele>
        <time>2022-05-04T12:53:58.000Z</time>
      </trkpt>
      <trkpt lat="40.551221407949924468994140625" lon="-1.64079434238374233245849609375">
        <ele>1431.5999755859375</ele>
        <time>2022-05-04T12:54:01.000Z</time>
      </trkpt>
      <trkpt lat="40.551138930022716522216796875" lon="-1.64043425582349300384521484375">
        <ele>1428.4000244140625</ele>
        <time>2022-05-04T12:54:06.000Z</time>
      </trkpt>
      <trkpt lat="40.551132895052433013916015625" lon="-1.639969646930694580078125">
        <ele>1426.4000244140625</ele>
        <time>2022-05-04T12:54:12.000Z</time>
      </trkpt>
      <trkpt lat="40.55125619284808635711669921875" lon="-1.63939724676311016082763671875">
        <ele>1425.800048828125</ele>
        <time>2022-05-04T12:54:20.000Z</time>
      </trkpt>
      <trkpt lat="40.55128804408013820648193359375" lon="-1.6392586939036846160888671875">
        <ele>1425.4000244140625</ele>
        <time>2022-05-04T12:54:22.000Z</time>
      </trkpt>
      <trkpt lat="40.5514059774577617645263671875" lon="-1.638800203800201416015625">
        <ele>1425.5999755859375</ele>
        <time>2022-05-04T12:54:29.000Z</time>
      </trkpt>
      <trkpt lat="40.55157084949314594268798828125" lon="-1.638162173330783843994140625">
        <ele>1426.5999755859375</ele>
        <time>2022-05-04T12:54:39.000Z</time>
      </trkpt>
      <trkpt lat="40.5515887029469013214111328125" lon="-1.63809654302895069122314453125">
        <ele>1426.5999755859375</ele>
        <time>2022-05-04T12:54:40.000Z</time>
      </trkpt>
      <trkpt lat="40.551680065691471099853515625" lon="-1.637678034603595733642578125">
        <ele>1426.5999755859375</ele>
        <time>2022-05-04T12:54:46.000Z</time>
      </trkpt>
      <trkpt lat="40.55169691331684589385986328125" lon="-1.637169085443019866943359375">
        <ele>1424.5999755859375</ele>
        <time>2022-05-04T12:54:53.000Z</time>
      </trkpt>
      <trkpt lat="40.55162684060633182525634765625" lon="-1.6365328989923000335693359375">
        <ele>1422.4000244140625</ele>
        <time>2022-05-04T12:55:02.000Z</time>
      </trkpt>
      <trkpt lat="40.55156330578029155731201171875" lon="-1.63587081246078014373779296875">
        <ele>1421.199951171875</ele>
        <time>2022-05-04T12:55:12.000Z</time>
      </trkpt>
      <trkpt lat="40.5515669099986553192138671875" lon="-1.635404191911220550537109375">
        <ele>1419</ele>
        <time>2022-05-04T12:55:19.000Z</time>
      </trkpt>
      <trkpt lat="40.55157286114990711212158203125" lon="-1.6352689079940319061279296875">
        <ele>1418.5999755859375</ele>
        <time>2022-05-04T12:55:21.000Z</time>
      </trkpt>
      <trkpt lat="40.55160739459097385406494140625" lon="-1.63491594605147838592529296875">
        <ele>1418</ele>
        <time>2022-05-04T12:55:26.000Z</time>
      </trkpt>
      <trkpt lat="40.5516332946717739105224609375" lon="-1.6347713582217693328857421875">
        <ele>1417.4000244140625</ele>
        <time>2022-05-04T12:55:28.000Z</time>
      </trkpt>
      <trkpt lat="40.55166430771350860595703125" lon="-1.63454714231193065643310546875">
        <ele>1415.4000244140625</ele>
        <time>2022-05-04T12:55:31.000Z</time>
      </trkpt>
      <trkpt lat="40.55170747451484203338623046875" lon="-1.63431194610893726348876953125">
        <ele>1414.800048828125</ele>
        <time>2022-05-04T12:55:34.000Z</time>
      </trkpt>
      <trkpt lat="40.5517379008233547210693359375" lon="-1.6341484151780605316162109375">
        <ele>1414.4000244140625</ele>
        <time>2022-05-04T12:55:36.000Z</time>
      </trkpt>
      <trkpt lat="40.55178307928144931793212890625" lon="-1.63389687426388263702392578125">
        <ele>1412.800048828125</ele>
        <time>2022-05-04T12:55:39.000Z</time>
      </trkpt>
      <trkpt lat="40.5518197081983089447021484375" lon="-1.63363669998943805694580078125">
        <ele>1410.199951171875</ele>
        <time>2022-05-04T12:55:42.000Z</time>
      </trkpt>
      <trkpt lat="40.55182867683470249176025390625" lon="-1.63354508578777313232421875">
        <ele>1409.199951171875</ele>
        <time>2022-05-04T12:55:43.000Z</time>
      </trkpt>
      <trkpt lat="40.5518331192433834075927734375" lon="-1.6333531402051448822021484375">
        <ele>1407.800048828125</ele>
        <time>2022-05-04T12:55:45.000Z</time>
      </trkpt>
      <trkpt lat="40.551826916635036468505859375" lon="-1.63325280882418155670166015625">
        <ele>1407</ele>
        <time>2022-05-04T12:55:46.000Z</time>
      </trkpt>
      <trkpt lat="40.55181182920932769775390625" lon="-1.63315105251967906951904296875">
        <ele>1406</ele>
        <time>2022-05-04T12:55:47.000Z</time>
      </trkpt>
      <trkpt lat="40.55178701877593994140625" lon="-1.6330508887767791748046875">
        <ele>1404.800048828125</ele>
        <time>2022-05-04T12:55:48.000Z</time>
      </trkpt>
      <trkpt lat="40.55171954445540904998779296875" lon="-1.63285709917545318603515625">
        <ele>1402.199951171875</ele>
        <time>2022-05-04T12:55:50.000Z</time>
      </trkpt>
      <trkpt lat="40.5516819097101688385009765625" lon="-1.63276322185993194580078125">
        <ele>1401.199951171875</ele>
        <time>2022-05-04T12:55:51.000Z</time>
      </trkpt>
      <trkpt lat="40.55156950838863849639892578125" lon="-1.6324978508055210113525390625">
        <ele>1399.4000244140625</ele>
        <time>2022-05-04T12:55:54.000Z</time>
      </trkpt>
      <trkpt lat="40.55146205238997936248779296875" lon="-1.63225620053708553314208984375">
        <ele>1397.800048828125</ele>
        <time>2022-05-04T12:55:57.000Z</time>
      </trkpt>
      <trkpt lat="40.55116952396929264068603515625" lon="-1.63157793693244457244873046875">
        <ele>1398.800048828125</ele>
        <time>2022-05-04T12:56:06.000Z</time>
      </trkpt>
      <trkpt lat="40.55114127695560455322265625" lon="-1.63150199688971042633056640625">
        <ele>1399</ele>
        <time>2022-05-04T12:56:07.000Z</time>
      </trkpt>
      <trkpt lat="40.5509265325963497161865234375" lon="-1.6308482922613620758056640625">
        <ele>1402.199951171875</ele>
        <time>2022-05-04T12:56:16.000Z</time>
      </trkpt>
      <trkpt lat="40.55072327144443988800048828125" lon="-1.630161814391613006591796875">
        <ele>1403.199951171875</ele>
        <time>2022-05-04T12:56:26.000Z</time>
      </trkpt>
      <trkpt lat="40.5507029034197330474853515625" lon="-1.63009568117558956146240234375">
        <ele>1403</ele>
        <time>2022-05-04T12:56:27.000Z</time>
      </trkpt>
      <trkpt lat="40.55054582655429840087890625" lon="-1.6295712254941463470458984375">
        <ele>1402.5999755859375</ele>
        <time>2022-05-04T12:56:35.000Z</time>
      </trkpt>
      <trkpt lat="40.5503585748374462127685546875" lon="-1.6289506293833255767822265625">
        <ele>1402.199951171875</ele>
        <time>2022-05-04T12:56:45.000Z</time>
      </trkpt>
      <trkpt lat="40.55020309053361415863037109375" lon="-1.62842533551156520843505859375">
        <ele>1403</ele>
        <time>2022-05-04T12:56:54.000Z</time>
      </trkpt>
      <trkpt lat="40.5500434152781963348388671875" lon="-1.62788688205182552337646484375">
        <ele>1403.4000244140625</ele>
        <time>2022-05-04T12:57:04.000Z</time>
      </trkpt>
      <trkpt lat="40.54999890737235546112060546875" lon="-1.6277362592518329620361328125">
        <ele>1403.5999755859375</ele>
        <time>2022-05-04T12:57:07.000Z</time>
      </trkpt>
      <trkpt lat="40.5498895235359668731689453125" lon="-1.62737675942480564117431640625">
        <ele>1404.5999755859375</ele>
        <time>2022-05-04T12:57:14.000Z</time>
      </trkpt>
      <trkpt lat="40.54980327375233173370361328125" lon="-1.62707869894802570343017578125">
        <ele>1404.800048828125</ele>
        <time>2022-05-04T12:57:20.000Z</time>
      </trkpt>
      <trkpt lat="40.549726746976375579833984375" lon="-1.62683478556573390960693359375">
        <ele>1405</ele>
        <time>2022-05-04T12:57:25.000Z</time>
      </trkpt>
      <trkpt lat="40.5495679937303066253662109375" lon="-1.62642809562385082244873046875">
        <ele>1405.800048828125</ele>
        <time>2022-05-04T12:57:34.000Z</time>
      </trkpt>
      <trkpt lat="40.54948224686086177825927734375" lon="-1.62624302320182323455810546875">
        <ele>1406.800048828125</ele>
        <time>2022-05-04T12:57:38.000Z</time>
      </trkpt>
      <trkpt lat="40.54945693351328372955322265625" lon="-1.6262003593146800994873046875">
        <ele>1407</ele>
        <time>2022-05-04T12:57:39.000Z</time>
      </trkpt>
      <trkpt lat="40.54941150359809398651123046875" lon="-1.6261155344545841217041015625">
        <ele>1407.4000244140625</ele>
        <time>2022-05-04T12:57:41.000Z</time>
      </trkpt>
      <trkpt lat="40.54919131100177764892578125" lon="-1.62575955502688884735107421875">
        <ele>1409</ele>
        <time>2022-05-04T12:57:50.000Z</time>
      </trkpt>
      <trkpt lat="40.54903666488826274871826171875" lon="-1.6255264542996883392333984375">
        <ele>1410</ele>
        <time>2022-05-04T12:57:56.000Z</time>
      </trkpt>
      <trkpt lat="40.54895929992198944091796875" lon="-1.62541204132139682769775390625">
        <ele>1409.800048828125</ele>
        <time>2022-05-04T12:57:59.000Z</time>
      </trkpt>
      <trkpt lat="40.54880163632333278656005859375" lon="-1.62518288008868694305419921875">
        <ele>1409.4000244140625</ele>
        <time>2022-05-04T12:58:05.000Z</time>
      </trkpt>
      <trkpt lat="40.54871731437742710113525390625" lon="-1.6250694729387760162353515625">
        <ele>1409.5999755859375</ele>
        <time>2022-05-04T12:58:08.000Z</time>
      </trkpt>
      <trkpt lat="40.548475496470928192138671875" lon="-1.6247221268713474273681640625">
        <ele>1408.800048828125</ele>
        <time>2022-05-04T12:58:17.000Z</time>
      </trkpt>
      <trkpt lat="40.54844959639012813568115234375" lon="-1.6246855817735195159912109375">
        <ele>1409</ele>
        <time>2022-05-04T12:58:18.000Z</time>
      </trkpt>
      <trkpt lat="40.54826217703521251678466796875" lon="-1.6244284249842166900634765625">
        <ele>1409.5999755859375</ele>
        <time>2022-05-04T12:58:25.000Z</time>
      </trkpt>
      <trkpt lat="40.548110045492649078369140625" lon="-1.62421409972012042999267578125">
        <ele>1410.4000244140625</ele>
        <time>2022-05-04T12:58:31.000Z</time>
      </trkpt>
      <trkpt lat="40.54806134663522243499755859375" lon="-1.62414285354316234588623046875">
        <ele>1410.5999755859375</ele>
        <time>2022-05-04T12:58:33.000Z</time>
      </trkpt>
      <trkpt lat="40.54781340993940830230712890625" lon="-1.62378343753516674041748046875">
        <ele>1411.5999755859375</ele>
        <time>2022-05-04T12:58:43.000Z</time>
      </trkpt>
      <trkpt lat="40.54778859950602054595947265625" lon="-1.623747646808624267578125">
        <ele>1411.5999755859375</ele>
        <time>2022-05-04T12:58:44.000Z</time>
      </trkpt>
      <trkpt lat="40.54755985736846923828125" lon="-1.623422764241695404052734375">
        <ele>1411.800048828125</ele>
        <time>2022-05-04T12:58:53.000Z</time>
      </trkpt>
      <trkpt lat="40.54750981740653514862060546875" lon="-1.6233508475124835968017578125">
        <ele>1411.5999755859375</ele>
        <time>2022-05-04T12:58:55.000Z</time>
      </trkpt>
      <trkpt lat="40.54725467227399349212646484375" lon="-1.62292228080332279205322265625">
        <ele>1410.5999755859375</ele>
        <time>2022-05-04T12:59:06.000Z</time>
      </trkpt>
      <trkpt lat="40.547192394733428955078125" lon="-1.62279001437127590179443359375">
        <ele>1410.5999755859375</ele>
        <time>2022-05-04T12:59:09.000Z</time>
      </trkpt>
      <trkpt lat="40.54701209999620914459228515625" lon="-1.62236907519400119781494140625">
        <ele>1410.800048828125</ele>
        <time>2022-05-04T12:59:18.000Z</time>
      </trkpt>
      <trkpt lat="40.546765588223934173583984375" lon="-1.621778905391693115234375">
        <ele>1412.199951171875</ele>
        <time>2022-05-04T12:59:30.000Z</time>
      </trkpt>
      <trkpt lat="40.5465790070593357086181640625" lon="-1.62132636643946170806884765625">
        <ele>1412.800048828125</ele>
        <time>2022-05-04T12:59:39.000Z</time>
      </trkpt>
      <trkpt lat="40.54644967429339885711669921875" lon="-1.62102545611560344696044921875">
        <ele>1413.4000244140625</ele>
        <time>2022-05-04T12:59:46.000Z</time>
      </trkpt>
      <trkpt lat="40.5464308150112628936767578125" lon="-1.62098086439073085784912109375">
        <ele>1413.5999755859375</ele>
        <time>2022-05-04T12:59:47.000Z</time>
      </trkpt>
      <trkpt lat="40.546412207186222076416015625" lon="-1.620935685932636260986328125">
        <ele>1413.5999755859375</ele>
        <time>2022-05-04T12:59:48.000Z</time>
      </trkpt>
      <trkpt lat="40.54624431766569614410400390625" lon="-1.6205539740622043609619140625">
        <ele>1414.5999755859375</ele>
        <time>2022-05-04T12:59:57.000Z</time>
      </trkpt>
      <trkpt lat="40.54607349447906017303466796875" lon="-1.62014904431998729705810546875">
        <ele>1415.5999755859375</ele>
        <time>2022-05-04T13:00:07.000Z</time>
      </trkpt>
      <trkpt lat="40.546057485044002532958984375" lon="-1.62010964937508106231689453125">
        <ele>1415.800048828125</ele>
        <time>2022-05-04T13:00:08.000Z</time>
      </trkpt>
      <trkpt lat="40.545922033488750457763671875" lon="-1.61980136297643184661865234375">
        <ele>1417.199951171875</ele>
        <time>2022-05-04T13:00:16.000Z</time>
      </trkpt>
      <trkpt lat="40.5459054373204708099365234375" lon="-1.6197632253170013427734375">
        <ele>1417.4000244140625</ele>
        <time>2022-05-04T13:00:17.000Z</time>
      </trkpt>
      <trkpt lat="40.54576051421463489532470703125" lon="-1.61941898055374622344970703125">
        <ele>1418.4000244140625</ele>
        <time>2022-05-04T13:00:26.000Z</time>
      </trkpt>
      <trkpt lat="40.54565037600696086883544921875" lon="-1.61916383542120456695556640625">
        <ele>1418.5999755859375</ele>
        <time>2022-05-04T13:00:33.000Z</time>
      </trkpt>
      <trkpt lat="40.5456006713211536407470703125" lon="-1.6190438903868198394775390625">
        <ele>1418.800048828125</ele>
        <time>2022-05-04T13:00:36.000Z</time>
      </trkpt>
      <trkpt lat="40.54545767605304718017578125" lon="-1.6187190078198909759521484375">
        <ele>1419.5999755859375</ele>
        <time>2022-05-04T13:00:44.000Z</time>
      </trkpt>
      <trkpt lat="40.5454233102500438690185546875" lon="-1.61863544024527072906494140625">
        <ele>1419.800048828125</ele>
        <time>2022-05-04T13:00:46.000Z</time>
      </trkpt>
      <trkpt lat="40.54526514373719692230224609375" lon="-1.6182610206305980682373046875">
        <ele>1420.800048828125</ele>
        <time>2022-05-04T13:00:55.000Z</time>
      </trkpt>
      <trkpt lat="40.54519372992217540740966796875" lon="-1.61808910779654979705810546875">
        <ele>1421.4000244140625</ele>
        <time>2022-05-04T13:00:59.000Z</time>
      </trkpt>
      <trkpt lat="40.54506615735590457916259765625" lon="-1.61779171787202358245849609375">
        <ele>1422.5999755859375</ele>
        <time>2022-05-04T13:01:06.000Z</time>
      </trkpt>
      <trkpt lat="40.544902123510837554931640625" lon="-1.61741159856319427490234375">
        <ele>1422.800048828125</ele>
        <time>2022-05-04T13:01:15.000Z</time>
      </trkpt>
      <trkpt lat="40.544867254793643951416015625" lon="-1.6173282824456691741943359375">
        <ele>1422.800048828125</ele>
        <time>2022-05-04T13:01:17.000Z</time>
      </trkpt>
      <trkpt lat="40.544708333909511566162109375" lon="-1.61696559749543666839599609375">
        <ele>1423</ele>
        <time>2022-05-04T13:01:26.000Z</time>
      </trkpt>
      <trkpt lat="40.544692575931549072265625" lon="-1.61692553199827671051025390625">
        <ele>1423</ele>
        <time>2022-05-04T13:01:27.000Z</time>
      </trkpt>
      <trkpt lat="40.54455117322504520416259765625" lon="-1.61653208546340465545654296875">
        <ele>1423.4000244140625</ele>
        <time>2022-05-04T13:01:37.000Z</time>
      </trkpt>
      <trkpt lat="40.54453709162771701812744140625" lon="-1.61649218760430812835693359375">
        <ele>1423.4000244140625</ele>
        <time>2022-05-04T13:01:38.000Z</time>
      </trkpt>
      <trkpt lat="40.544418655335903167724609375" lon="-1.61610259674489498138427734375">
        <ele>1423.4000244140625</ele>
        <time>2022-05-04T13:01:47.000Z</time>
      </trkpt>
      <trkpt lat="40.5443306453526020050048828125" lon="-1.6158554144203662872314453125">
        <ele>1423.800048828125</ele>
        <time>2022-05-04T13:01:53.000Z</time>
      </trkpt>
      <trkpt lat="40.54428010247647762298583984375" lon="-1.615687943994998931884765625">
        <ele>1424.4000244140625</ele>
        <time>2022-05-04T13:01:57.000Z</time>
      </trkpt>
      <trkpt lat="40.54413861595094203948974609375" lon="-1.61526692099869251251220703125">
        <ele>1425.800048828125</ele>
        <time>2022-05-04T13:02:07.000Z</time>
      </trkpt>
      <trkpt lat="40.54403987713158130645751953125" lon="-1.61496684886515140533447265625">
        <ele>1426.5999755859375</ele>
        <time>2022-05-04T13:02:14.000Z</time>
      </trkpt>
      <trkpt lat="40.5439858138561248779296875" lon="-1.61478932015597820281982421875">
        <ele>1427.4000244140625</ele>
        <time>2022-05-04T13:02:18.000Z</time>
      </trkpt>
      <trkpt lat="40.54388531483709812164306640625" lon="-1.61447189748287200927734375">
        <ele>1428.199951171875</ele>
        <time>2022-05-04T13:02:25.000Z</time>
      </trkpt>
      <trkpt lat="40.543813817203044891357421875" lon="-1.614241898059844970703125">
        <ele>1428.800048828125</ele>
        <time>2022-05-04T13:02:30.000Z</time>
      </trkpt>
      <trkpt lat="40.5436735041439533233642578125" lon="-1.6138276644051074981689453125">
        <ele>1428.800048828125</ele>
        <time>2022-05-04T13:02:39.000Z</time>
      </trkpt>
      <trkpt lat="40.54360753856599330902099609375" lon="-1.613640747964382171630859375">
        <ele>1428.4000244140625</ele>
        <time>2022-05-04T13:02:43.000Z</time>
      </trkpt>
      <trkpt lat="40.54346186108887195587158203125" lon="-1.613216288387775421142578125">
        <ele>1428</ele>
        <time>2022-05-04T13:02:52.000Z</time>
      </trkpt>
      <trkpt lat="40.54330964572727680206298828125" lon="-1.61277766339480876922607421875">
        <ele>1428</ele>
        <time>2022-05-04T13:03:01.000Z</time>
      </trkpt>
      <trkpt lat="40.54311820305883884429931640625" lon="-1.61228187382221221923828125">
        <ele>1429.800048828125</ele>
        <time>2022-05-04T13:03:11.000Z</time>
      </trkpt>
      <trkpt lat="40.5429987609386444091796875" lon="-1.61200602538883686065673828125">
        <ele>1430.800048828125</ele>
        <time>2022-05-04T13:03:17.000Z</time>
      </trkpt>
      <trkpt lat="40.5429369024932384490966796875" lon="-1.6118776984512805938720703125">
        <ele>1431.199951171875</ele>
        <time>2022-05-04T13:03:20.000Z</time>
      </trkpt>
      <trkpt lat="40.5427826754748821258544921875" lon="-1.6115357168018817901611328125">
        <ele>1431.800048828125</ele>
        <time>2022-05-04T13:03:28.000Z</time>
      </trkpt>
      <trkpt lat="40.5427385866641998291015625" lon="-1.611447371542453765869140625">
        <ele>1431.5999755859375</ele>
        <time>2022-05-04T13:03:30.000Z</time>
      </trkpt>
      <trkpt lat="40.54250548593699932098388671875" lon="-1.61097555421292781829833984375">
        <ele>1431.5999755859375</ele>
        <time>2022-05-04T13:03:41.000Z</time>
      </trkpt>
      <trkpt lat="40.5424836091697216033935546875" lon="-1.6109335608780384063720703125">
        <ele>1432</ele>
        <time>2022-05-04T13:03:42.000Z</time>
      </trkpt>
      <trkpt lat="40.5422670207917690277099609375" lon="-1.6105044074356555938720703125">
        <ele>1434.4000244140625</ele>
        <time>2022-05-04T13:03:52.000Z</time>
      </trkpt>
      <trkpt lat="40.542224943637847900390625" lon="-1.6104219295084476470947265625">
        <ele>1434.5999755859375</ele>
        <time>2022-05-04T13:03:54.000Z</time>
      </trkpt>
      <trkpt lat="40.54205671884119510650634765625" lon="-1.61010031588375568389892578125">
        <ele>1434.800048828125</ele>
        <time>2022-05-04T13:04:02.000Z</time>
      </trkpt>
      <trkpt lat="40.54192847572267055511474609375" lon="-1.60985405556857585906982421875">
        <ele>1435</ele>
        <time>2022-05-04T13:04:08.000Z</time>
      </trkpt>
      <trkpt lat="40.5418251268565654754638671875" lon="-1.6096539795398712158203125">
        <ele>1434.800048828125</ele>
        <time>2022-05-04T13:04:13.000Z</time>
      </trkpt>
      <trkpt lat="40.54163527674973011016845703125" lon="-1.60930193960666656494140625">
        <ele>1435.5999755859375</ele>
        <time>2022-05-04T13:04:22.000Z</time>
      </trkpt>
      <trkpt lat="40.54144467227160930633544921875" lon="-1.60893154330551624298095703125">
        <ele>1437.5999755859375</ele>
        <time>2022-05-04T13:04:31.000Z</time>
      </trkpt>
      <trkpt lat="40.54138029925525188446044921875" lon="-1.608807742595672607421875">
        <ele>1437.800048828125</ele>
        <time>2022-05-04T13:04:34.000Z</time>
      </trkpt>
      <trkpt lat="40.54120360873639583587646484375" lon="-1.6084686107933521270751953125">
        <ele>1438.199951171875</ele>
        <time>2022-05-04T13:04:42.000Z</time>
      </trkpt>
      <trkpt lat="40.5409842543303966522216796875" lon="-1.60803652368485927581787109375">
        <ele>1438.5999755859375</ele>
        <time>2022-05-04T13:04:52.000Z</time>
      </trkpt>
      <trkpt lat="40.540937818586826324462890625" lon="-1.60795019008219242095947265625">
        <ele>1438.5999755859375</ele>
        <time>2022-05-04T13:04:54.000Z</time>
      </trkpt>
      <trkpt lat="40.54075953550636768341064453125" lon="-1.6075994074344635009765625">
        <ele>1438.5999755859375</ele>
        <time>2022-05-04T13:05:02.000Z</time>
      </trkpt>
      <trkpt lat="40.54062324576079845428466796875" lon="-1.6073474474251270294189453125">
        <ele>1438.800048828125</ele>
        <time>2022-05-04T13:05:08.000Z</time>
      </trkpt>
      <trkpt lat="40.540518723428249359130859375" lon="-1.6071482934057712554931640625">
        <ele>1439.199951171875</ele>
        <time>2022-05-04T13:05:13.000Z</time>
      </trkpt>
      <trkpt lat="40.540308170020580291748046875" lon="-1.606720983982086181640625">
        <ele>1441</ele>
        <time>2022-05-04T13:05:24.000Z</time>
      </trkpt>
      <trkpt lat="40.540204234421253204345703125" lon="-1.60652291961014270782470703125">
        <ele>1440.4000244140625</ele>
        <time>2022-05-04T13:05:29.000Z</time>
      </trkpt>
      <trkpt lat="40.54018403403460979461669921875" lon="-1.60648293793201446533203125">
        <ele>1440.4000244140625</ele>
        <time>2022-05-04T13:05:30.000Z</time>
      </trkpt>
      <trkpt lat="40.53999929688870906829833984375" lon="-1.6061320714652538299560546875">
        <ele>1440.199951171875</ele>
        <time>2022-05-04T13:05:39.000Z</time>
      </trkpt>
      <trkpt lat="40.5399169027805328369140625" lon="-1.60598748363554477691650390625">
        <ele>1440</ele>
        <time>2022-05-04T13:05:43.000Z</time>
      </trkpt>
      <trkpt lat="40.53980969823896884918212890625" lon="-1.6057827137410640716552734375">
        <ele>1440</ele>
        <time>2022-05-04T13:05:48.000Z</time>
      </trkpt>
      <trkpt lat="40.53964742459356784820556640625" lon="-1.60546378232538700103759765625">
        <ele>1440</ele>
        <time>2022-05-04T13:05:56.000Z</time>
      </trkpt>
      <trkpt lat="40.5394372902810573577880859375" lon="-1.6050645522773265838623046875">
        <ele>1440</ele>
        <time>2022-05-04T13:06:05.000Z</time>
      </trkpt>
      <trkpt lat="40.53934684954583644866943359375" lon="-1.604887358844280242919921875">
        <ele>1440.4000244140625</ele>
        <time>2022-05-04T13:06:09.000Z</time>
      </trkpt>
      <trkpt lat="40.53923721425235271453857421875" lon="-1.604678146541118621826171875">
        <ele>1440.800048828125</ele>
        <time>2022-05-04T13:06:14.000Z</time>
      </trkpt>
      <trkpt lat="40.53900470025837421417236328125" lon="-1.60423885099589824676513671875">
        <ele>1442</ele>
        <time>2022-05-04T13:06:24.000Z</time>
      </trkpt>
      <trkpt lat="40.53876128979027271270751953125" lon="-1.60379678942263126373291015625">
        <ele>1443</ele>
        <time>2022-05-04T13:06:34.000Z</time>
      </trkpt>
      <trkpt lat="40.53865886293351650238037109375" lon="-1.60361842252314090728759765625">
        <ele>1443.199951171875</ele>
        <time>2022-05-04T13:06:38.000Z</time>
      </trkpt>
      <trkpt lat="40.538526512682437896728515625" lon="-1.60339571535587310791015625">
        <ele>1443.4000244140625</ele>
        <time>2022-05-04T13:06:43.000Z</time>
      </trkpt>
      <trkpt lat="40.538281090557575225830078125" lon="-1.60300754941999912261962890625">
        <ele>1444.4000244140625</ele>
        <time>2022-05-04T13:06:52.000Z</time>
      </trkpt>
      <trkpt lat="40.538002140820026397705078125" lon="-1.60260169766843318939208984375">
        <ele>1444.4000244140625</ele>
        <time>2022-05-04T13:07:02.000Z</time>
      </trkpt>
      <trkpt lat="40.537944473326206207275390625" lon="-1.6025208123028278350830078125">
        <ele>1444.4000244140625</ele>
        <time>2022-05-04T13:07:04.000Z</time>
      </trkpt>
      <trkpt lat="40.53768253885209560394287109375" lon="-1.60217237658798694610595703125">
        <ele>1444.800048828125</ele>
        <time>2022-05-04T13:07:13.000Z</time>
      </trkpt>
      <trkpt lat="40.5373471789062023162841796875" lon="-1.6017288900911808013916015625">
        <ele>1447.199951171875</ele>
        <time>2022-05-04T13:07:25.000Z</time>
      </trkpt>
      <trkpt lat="40.5371470190584659576416015625" lon="-1.60147366113960742950439453125">
        <ele>1448.800048828125</ele>
        <time>2022-05-04T13:07:32.000Z</time>
      </trkpt>
      <trkpt lat="40.53695582784712314605712890625" lon="-1.60123477689921855926513671875">
        <ele>1447.800048828125</ele>
        <time>2022-05-04T13:07:39.000Z</time>
      </trkpt>
      <trkpt lat="40.5367108248174190521240234375" lon="-1.6009262390434741973876953125">
        <ele>1447.199951171875</ele>
        <time>2022-05-04T13:07:47.000Z</time>
      </trkpt>
      <trkpt lat="40.536511838436126708984375" lon="-1.60067469812929630279541015625">
        <ele>1447.800048828125</ele>
        <time>2022-05-04T13:07:54.000Z</time>
      </trkpt>
      <trkpt lat="40.53634529002010822296142578125" lon="-1.60044989548623561859130859375">
        <ele>1447.199951171875</ele>
        <time>2022-05-04T13:08:00.000Z</time>
      </trkpt>
      <trkpt lat="40.53605862893164157867431640625" lon="-1.60008595325052738189697265625">
        <ele>1446.5999755859375</ele>
        <time>2022-05-04T13:08:10.000Z</time>
      </trkpt>
      <trkpt lat="40.5359142087399959564208984375" lon="-1.5999006293714046478271484375">
        <ele>1446.199951171875</ele>
        <time>2022-05-04T13:08:15.000Z</time>
      </trkpt>
      <trkpt lat="40.53567507304251194000244140625" lon="-1.59960248507559299468994140625">
        <ele>1447</ele>
        <time>2022-05-04T13:08:23.000Z</time>
      </trkpt>
      <trkpt lat="40.53547357209026813507080078125" lon="-1.59934532828629016876220703125">
        <ele>1447.199951171875</ele>
        <time>2022-05-04T13:08:30.000Z</time>
      </trkpt>
      <trkpt lat="40.53512823767960071563720703125" lon="-1.598888598382472991943359375">
        <ele>1447.4000244140625</ele>
        <time>2022-05-04T13:08:42.000Z</time>
      </trkpt>
      <trkpt lat="40.534854568541049957275390625" lon="-1.59854653291404247283935546875">
        <ele>1449</ele>
        <time>2022-05-04T13:08:51.000Z</time>
      </trkpt>
      <trkpt lat="40.5346166901290416717529296875" lon="-1.5982457064092159271240234375">
        <ele>1452</ele>
        <time>2022-05-04T13:08:59.000Z</time>
      </trkpt>
      <trkpt lat="40.53433413617312908172607421875" lon="-1.5978862904012203216552734375">
        <ele>1451</ele>
        <time>2022-05-04T13:09:08.000Z</time>
      </trkpt>
      <trkpt lat="40.5341281928122043609619140625" lon="-1.59761865623295307159423828125">
        <ele>1450</ele>
        <time>2022-05-04T13:09:15.000Z</time>
      </trkpt>
      <trkpt lat="40.5338401906192302703857421875" lon="-1.5972626768052577972412109375">
        <ele>1448.800048828125</ele>
        <time>2022-05-04T13:09:24.000Z</time>
      </trkpt>
      <trkpt lat="40.5335277132689952850341796875" lon="-1.59686763770878314971923828125">
        <ele>1449.5999755859375</ele>
        <time>2022-05-04T13:09:33.000Z</time>
      </trkpt>
      <trkpt lat="40.5331884138286113739013671875" lon="-1.59641887061297893524169921875">
        <ele>1449.199951171875</ele>
        <time>2022-05-04T13:09:43.000Z</time>
      </trkpt>
      <trkpt lat="40.53282581269741058349609375" lon="-1.5959586203098297119140625">
        <ele>1448</ele>
        <time>2022-05-04T13:09:54.000Z</time>
      </trkpt>
      <trkpt lat="40.532553903758525848388671875" lon="-1.59561169333755970001220703125">
        <ele>1448.5999755859375</ele>
        <time>2022-05-04T13:10:02.000Z</time>
      </trkpt>
      <trkpt lat="40.532304458320140838623046875" lon="-1.595294438302516937255859375">
        <ele>1448.4000244140625</ele>
        <time>2022-05-04T13:10:10.000Z</time>
      </trkpt>
      <trkpt lat="40.53193925879895687103271484375" lon="-1.59483502618968486785888671875">
        <ele>1447.199951171875</ele>
        <time>2022-05-04T13:10:21.000Z</time>
      </trkpt>
      <trkpt lat="40.531638599932193756103515625" lon="-1.59444660879671573638916015625">
        <ele>1447.5999755859375</ele>
        <time>2022-05-04T13:10:30.000Z</time>
      </trkpt>
      <trkpt lat="40.53122847341001033782958984375" lon="-1.593925170600414276123046875">
        <ele>1447.5999755859375</ele>
        <time>2022-05-04T13:10:42.000Z</time>
      </trkpt>
      <trkpt lat="40.53092907182872295379638671875" lon="-1.5935419499874114990234375">
        <ele>1446.4000244140625</ele>
        <time>2022-05-04T13:10:51.000Z</time>
      </trkpt>
      <trkpt lat="40.53076847456395626068115234375" lon="-1.59333349205553531646728515625">
        <ele>1446.5999755859375</ele>
        <time>2022-05-04T13:10:56.000Z</time>
      </trkpt>
      <trkpt lat="40.53058491088449954986572265625" lon="-1.5931029058992862701416015625">
        <ele>1446.800048828125</ele>
        <time>2022-05-04T13:11:02.000Z</time>
      </trkpt>
      <trkpt lat="40.53029439412057399749755859375" lon="-1.59273125231266021728515625">
        <ele>1447</ele>
        <time>2022-05-04T13:11:12.000Z</time>
      </trkpt>
      <trkpt lat="40.53004008717834949493408203125" lon="-1.59241014160215854644775390625">
        <ele>1446</ele>
        <time>2022-05-04T13:11:20.000Z</time>
      </trkpt>
      <trkpt lat="40.529740266501903533935546875" lon="-1.59201669506728649139404296875">
        <ele>1445.199951171875</ele>
        <time>2022-05-04T13:11:30.000Z</time>
      </trkpt>
      <trkpt lat="40.52944916300475597381591796875" lon="-1.59164655022323131561279296875">
        <ele>1445.199951171875</ele>
        <time>2022-05-04T13:11:40.000Z</time>
      </trkpt>
      <trkpt lat="40.52929066121578216552734375" lon="-1.5914613939821720123291015625">
        <ele>1445.4000244140625</ele>
        <time>2022-05-04T13:11:45.000Z</time>
      </trkpt>
      <trkpt lat="40.529028475284576416015625" lon="-1.59113609232008457183837890625">
        <ele>1445.5999755859375</ele>
        <time>2022-05-04T13:11:53.000Z</time>
      </trkpt>
      <trkpt lat="40.52880124188959598541259765625" lon="-1.59085412509739398956298828125">
        <ele>1445.4000244140625</ele>
        <time>2022-05-04T13:12:01.000Z</time>
      </trkpt>
      <trkpt lat="40.52857425995171070098876953125" lon="-1.59056930802762508392333984375">
        <ele>1446.199951171875</ele>
        <time>2022-05-04T13:12:10.000Z</time>
      </trkpt>
      <trkpt lat="40.5285505391657352447509765625" lon="-1.59053829498589038848876953125">
        <ele>1446.4000244140625</ele>
        <time>2022-05-04T13:12:11.000Z</time>
      </trkpt>
      <trkpt lat="40.5283601023256778717041015625" lon="-1.59029538743197917938232421875">
        <ele>1447.5999755859375</ele>
        <time>2022-05-04T13:12:19.000Z</time>
      </trkpt>
      <trkpt lat="40.52813236601650714874267578125" lon="-1.5899992547929286956787109375">
        <ele>1448.5999755859375</ele>
        <time>2022-05-04T13:12:29.000Z</time>
      </trkpt>
      <trkpt lat="40.52807117812335491180419921875" lon="-1.589921973645687103271484375">
        <ele>1448.800048828125</ele>
        <time>2022-05-04T13:12:32.000Z</time>
      </trkpt>
      <trkpt lat="40.52801837213337421417236328125" lon="-1.5898458659648895263671875">
        <ele>1449</ele>
        <time>2022-05-04T13:12:35.000Z</time>
      </trkpt>
      <trkpt lat="40.5278454534709453582763671875" lon="-1.5896351449191570281982421875">
        <ele>1449.5999755859375</ele>
        <time>2022-05-04T13:12:43.000Z</time>
      </trkpt>
      <trkpt lat="40.5276704393327236175537109375" lon="-1.58942031674087047576904296875">
        <ele>1450.199951171875</ele>
        <time>2022-05-04T13:12:51.000Z</time>
      </trkpt>
      <trkpt lat="40.5276308767497539520263671875" lon="-1.58936466090381145477294921875">
        <ele>1450.4000244140625</ele>
        <time>2022-05-04T13:12:53.000Z</time>
      </trkpt>
      <trkpt lat="40.527440272271633148193359375" lon="-1.58912711776793003082275390625">
        <ele>1451.5999755859375</ele>
        <time>2022-05-04T13:13:02.000Z</time>
      </trkpt>
      <trkpt lat="40.52727623842656612396240234375" lon="-1.58890751190483570098876953125">
        <ele>1452.800048828125</ele>
        <time>2022-05-04T13:13:09.000Z</time>
      </trkpt>
      <trkpt lat="40.527041964232921600341796875" lon="-1.58861096017062664031982421875">
        <ele>1454</ele>
        <time>2022-05-04T13:13:18.000Z</time>
      </trkpt>
      <trkpt lat="40.52696040831506252288818359375" lon="-1.58851305954158306121826171875">
        <ele>1454.199951171875</ele>
        <time>2022-05-04T13:13:21.000Z</time>
      </trkpt>
      <trkpt lat="40.5267594940960407257080078125" lon="-1.58825355581939220428466796875">
        <ele>1454.4000244140625</ele>
        <time>2022-05-04T13:13:29.000Z</time>
      </trkpt>
      <trkpt lat="40.52664105780422687530517578125" lon="-1.58809832297265529632568359375">
        <ele>1454.199951171875</ele>
        <time>2022-05-04T13:13:34.000Z</time>
      </trkpt>
      <trkpt lat="40.52649571560323238372802734375" lon="-1.5879148431122303009033203125">
        <ele>1454</ele>
        <time>2022-05-04T13:13:40.000Z</time>
      </trkpt>
      <trkpt lat="40.52629840560257434844970703125" lon="-1.5876664035022258758544921875">
        <ele>1454.5999755859375</ele>
        <time>2022-05-04T13:13:48.000Z</time>
      </trkpt>
      <trkpt lat="40.52625029347836971282958984375" lon="-1.587604545056819915771484375">
        <ele>1454.800048828125</ele>
        <time>2022-05-04T13:13:50.000Z</time>
      </trkpt>
      <trkpt lat="40.52606890909373760223388671875" lon="-1.58736591227352619171142578125">
        <ele>1455.4000244140625</ele>
        <time>2022-05-04T13:13:58.000Z</time>
      </trkpt>
      <trkpt lat="40.5260017700493335723876953125" lon="-1.58728142268955707550048828125">
        <ele>1455.5999755859375</ele>
        <time>2022-05-04T13:14:01.000Z</time>
      </trkpt>
      <trkpt lat="40.52584393881261348724365234375" lon="-1.587084196507930755615234375">
        <ele>1456.199951171875</ele>
        <time>2022-05-04T13:14:08.000Z</time>
      </trkpt>
      <trkpt lat="40.5257704295217990875244140625" lon="-1.5869919955730438232421875">
        <ele>1456.4000244140625</ele>
        <time>2022-05-04T13:14:11.000Z</time>
      </trkpt>
      <trkpt lat="40.52549541927874088287353515625" lon="-1.5866394527256488800048828125">
        <ele>1457</ele>
        <time>2022-05-04T13:14:22.000Z</time>
      </trkpt>
      <trkpt lat="40.52547211758792400360107421875" lon="-1.5866084396839141845703125">
        <ele>1457</ele>
        <time>2022-05-04T13:14:23.000Z</time>
      </trkpt>
      <trkpt lat="40.5252437107264995574951171875" lon="-1.58631029538810253143310546875">
        <ele>1459</ele>
        <time>2022-05-04T13:14:33.000Z</time>
      </trkpt>
      <trkpt lat="40.52522183395922183990478515625" lon="-1.586280874907970428466796875">
        <ele>1459.199951171875</ele>
        <time>2022-05-04T13:14:34.000Z</time>
      </trkpt>
      <trkpt lat="40.52508671768009662628173828125" lon="-1.5861113928258419036865234375">
        <ele>1460.4000244140625</ele>
        <time>2022-05-04T13:14:40.000Z</time>
      </trkpt>
      <trkpt lat="40.5250194109976291656494140625" lon="-1.5860292501747608184814453125">
        <ele>1461</ele>
        <time>2022-05-04T13:14:43.000Z</time>
      </trkpt>
      <trkpt lat="40.52493785507977008819580078125" lon="-1.5859276615083217620849609375">
        <ele>1461.4000244140625</ele>
        <time>2022-05-04T13:14:47.000Z</time>
      </trkpt>
      <trkpt lat="40.5248187482357025146484375" lon="-1.585775949060916900634765625">
        <ele>1462.4000244140625</ele>
        <time>2022-05-04T13:14:52.000Z</time>
      </trkpt>
      <trkpt lat="40.52474699914455413818359375" lon="-1.58568114973604679107666015625">
        <ele>1462.800048828125</ele>
        <time>2022-05-04T13:14:55.000Z</time>
      </trkpt>
      <trkpt lat="40.5245376192033290863037109375" lon="-1.5854160301387310028076171875">
        <ele>1463.800048828125</ele>
        <time>2022-05-04T13:15:04.000Z</time>
      </trkpt>
      <trkpt lat="40.5244926922023296356201171875" lon="-1.5853583626449108123779296875">
        <ele>1464</ele>
        <time>2022-05-04T13:15:06.000Z</time>
      </trkpt>
      <trkpt lat="40.524263866245746612548828125" lon="-1.5850633196532726287841796875">
        <ele>1464.5999755859375</ele>
        <time>2022-05-04T13:15:16.000Z</time>
      </trkpt>
      <trkpt lat="40.52423997782170772552490234375" lon="-1.58503641374409198760986328125">
        <ele>1464.4000244140625</ele>
        <time>2022-05-04T13:15:17.000Z</time>
      </trkpt>
      <trkpt lat="40.52410653792321681976318359375" lon="-1.58486408181488513946533203125">
        <ele>1464.4000244140625</ele>
        <time>2022-05-04T13:15:23.000Z</time>
      </trkpt>
      <trkpt lat="40.52406144328415393829345703125" lon="-1.58480373211205005645751953125">
        <ele>1464.4000244140625</ele>
        <time>2022-05-04T13:15:25.000Z</time>
      </trkpt>
      <trkpt lat="40.523841083049774169921875" lon="-1.5845097787678241729736328125">
        <ele>1465.199951171875</ele>
        <time>2022-05-04T13:15:35.000Z</time>
      </trkpt>
      <trkpt lat="40.5235710181295871734619140625" lon="-1.58417089842259883880615234375">
        <ele>1467.199951171875</ele>
        <time>2022-05-04T13:15:47.000Z</time>
      </trkpt>
      <trkpt lat="40.52336591295897960662841796875" lon="-1.58390904776751995086669921875">
        <ele>1467.800048828125</ele>
        <time>2022-05-04T13:15:56.000Z</time>
      </trkpt>
      <trkpt lat="40.52334227599203586578369140625" lon="-1.58387862145900726318359375">
        <ele>1468</ele>
        <time>2022-05-04T13:15:57.000Z</time>
      </trkpt>
      <trkpt lat="40.5231767334043979644775390625" lon="-1.58366379328072071075439453125">
        <ele>1468.4000244140625</ele>
        <time>2022-05-04T13:16:04.000Z</time>
      </trkpt>
      <trkpt lat="40.52303382195532321929931640625" lon="-1.5834962390363216400146484375">
        <ele>1468.5999755859375</ele>
        <time>2022-05-04T13:16:10.000Z</time>
      </trkpt>
      <trkpt lat="40.522968359291553497314453125" lon="-1.583412587642669677734375">
        <ele>1468.800048828125</ele>
        <time>2022-05-04T13:16:13.000Z</time>
      </trkpt>
      <trkpt lat="40.52277113310992717742919921875" lon="-1.58316289074718952178955078125">
        <ele>1469.5999755859375</ele>
        <time>2022-05-04T13:16:22.000Z</time>
      </trkpt>
      <trkpt lat="40.52270642481744289398193359375" lon="-1.58308158628642559051513671875">
        <ele>1470</ele>
        <time>2022-05-04T13:16:25.000Z</time>
      </trkpt>
      <trkpt lat="40.5225826241075992584228515625" lon="-1.58292802982032299041748046875">
        <ele>1471</ele>
        <time>2022-05-04T13:16:31.000Z</time>
      </trkpt>
      <trkpt lat="40.52251934073865413665771484375" lon="-1.58285343088209629058837890625">
        <ele>1471.4000244140625</ele>
        <time>2022-05-04T13:16:34.000Z</time>
      </trkpt>
      <trkpt lat="40.52239310927689075469970703125" lon="-1.58270155079662799835205078125">
        <ele>1471.800048828125</ele>
        <time>2022-05-04T13:16:40.000Z</time>
      </trkpt>
      <trkpt lat="40.5222889222204685211181640625" lon="-1.5825681947171688079833984375">
        <ele>1472.4000244140625</ele>
        <time>2022-05-04T13:16:45.000Z</time>
      </trkpt>
      <trkpt lat="40.52216361276805400848388671875" lon="-1.5824146382510662078857421875">
        <ele>1472.800048828125</ele>
        <time>2022-05-04T13:16:51.000Z</time>
      </trkpt>
      <trkpt lat="40.52204894833266735076904296875" lon="-1.58227105624973773956298828125">
        <ele>1473.800048828125</ele>
        <time>2022-05-04T13:16:57.000Z</time>
      </trkpt>
      <trkpt lat="40.52202749066054821014404296875" lon="-1.58224649727344512939453125">
        <ele>1473.800048828125</ele>
        <time>2022-05-04T13:16:58.000Z</time>
      </trkpt>
      <trkpt lat="40.521874688565731048583984375" lon="-1.58205798827111721038818359375">
        <ele>1475.199951171875</ele>
        <time>2022-05-04T13:17:05.000Z</time>
      </trkpt>
      <trkpt lat="40.52180822007358074188232421875" lon="-1.581980623304843902587890625">
        <ele>1475.5999755859375</ele>
        <time>2022-05-04T13:17:08.000Z</time>
      </trkpt>
      <trkpt lat="40.5216539092361927032470703125" lon="-1.58179781399667263031005859375">
        <ele>1476.5999755859375</ele>
        <time>2022-05-04T13:17:15.000Z</time>
      </trkpt>
      <trkpt lat="40.5216331221163272857666015625" lon="-1.58177149482071399688720703125">
        <ele>1476.5999755859375</ele>
        <time>2022-05-04T13:17:16.000Z</time>
      </trkpt>
      <trkpt lat="40.52148350514471530914306640625" lon="-1.58158508129417896270751953125">
        <ele>1477.4000244140625</ele>
        <time>2022-05-04T13:17:23.000Z</time>
      </trkpt>
      <trkpt lat="40.5214393325150012969970703125" lon="-1.5815315209329128265380859375">
        <ele>1477.800048828125</ele>
        <time>2022-05-04T13:17:25.000Z</time>
      </trkpt>
      <trkpt lat="40.5213131010532379150390625" lon="-1.58137620426714420318603515625">
        <ele>1478.199951171875</ele>
        <time>2022-05-04T13:17:31.000Z</time>
      </trkpt>
      <trkpt lat="40.52125275135040283203125" lon="-1.58130344934761524200439453125">
        <ele>1478</ele>
        <time>2022-05-04T13:17:34.000Z</time>
      </trkpt>
      <trkpt lat="40.52115560509264469146728515625" lon="-1.5811875276267528533935546875">
        <ele>1478</ele>
        <time>2022-05-04T13:17:39.000Z</time>
      </trkpt>
      <trkpt lat="40.52108301781117916107177734375" lon="-1.58109222538769245147705078125">
        <ele>1477.800048828125</ele>
        <time>2022-05-04T13:17:43.000Z</time>
      </trkpt>
      <trkpt lat="40.5210480652749538421630859375" lon="-1.58104562200605869293212890625">
        <ele>1477.800048828125</ele>
        <time>2022-05-04T13:17:45.000Z</time>
      </trkpt>
      <trkpt lat="40.52094220183789730072021484375" lon="-1.58091788180172443389892578125">
        <ele>1478.4000244140625</ele>
        <time>2022-05-04T13:17:51.000Z</time>
      </trkpt>
      <trkpt lat="40.5208901502192020416259765625" lon="-1.5808602981269359588623046875">
        <ele>1478.5999755859375</ele>
        <time>2022-05-04T13:17:54.000Z</time>
      </trkpt>
      <trkpt lat="40.52080289460718631744384765625" lon="-1.58076097257435321807861328125">
        <ele>1479.199951171875</ele>
        <time>2022-05-04T13:17:59.000Z</time>
      </trkpt>
      <trkpt lat="40.52078646607697010040283203125" lon="-1.58074202947318553924560546875">
        <ele>1479.4000244140625</ele>
        <time>2022-05-04T13:18:00.000Z</time>
      </trkpt>
      <trkpt lat="40.520658977329730987548828125" lon="-1.58059501089155673980712890625">
        <ele>1480</ele>
        <time>2022-05-04T13:18:08.000Z</time>
      </trkpt>
      <trkpt lat="40.520643889904022216796875" lon="-1.580575145781040191650390625">
        <ele>1480</ele>
        <time>2022-05-04T13:18:09.000Z</time>
      </trkpt>
      <trkpt lat="40.52056166343390941619873046875" lon="-1.58047649078071117401123046875">
        <ele>1480.5999755859375</ele>
        <time>2022-05-04T13:18:14.000Z</time>
      </trkpt>
      <trkpt lat="40.5205122940242290496826171875" lon="-1.58041312359273433685302734375">
        <ele>1481</ele>
        <time>2022-05-04T13:18:17.000Z</time>
      </trkpt>
      <trkpt lat="40.5204288102686405181884765625" lon="-1.5803154744207859039306640625">
        <ele>1481.4000244140625</ele>
        <time>2022-05-04T13:18:22.000Z</time>
      </trkpt>
      <trkpt lat="40.520359575748443603515625" lon="-1.5802437253296375274658203125">
        <ele>1481.5999755859375</ele>
        <time>2022-05-04T13:18:26.000Z</time>
      </trkpt>
      <trkpt lat="40.52031691186130046844482421875" lon="-1.580182202160358428955078125">
        <ele>1481.800048828125</ele>
        <time>2022-05-04T13:18:29.000Z</time>
      </trkpt>
      <trkpt lat="40.52025387994945049285888671875" lon="-1.5801089443266391754150390625">
        <ele>1482</ele>
        <time>2022-05-04T13:18:33.000Z</time>
      </trkpt>
      <trkpt lat="40.5201937817037105560302734375" lon="-1.58003442920744419097900390625">
        <ele>1482.800048828125</ele>
        <time>2022-05-04T13:18:37.000Z</time>
      </trkpt>
      <trkpt lat="40.52017911337316036224365234375" lon="-1.58001489937305450439453125">
        <ele>1483</ele>
        <time>2022-05-04T13:18:38.000Z</time>
      </trkpt>
      <trkpt lat="40.5201168358325958251953125" lon="-1.57993602566421031951904296875">
        <ele>1483.800048828125</ele>
        <time>2022-05-04T13:18:42.000Z</time>
      </trkpt>
      <trkpt lat="40.5200704000890254974365234375" lon="-1.57987869344651699066162109375">
        <ele>1484.4000244140625</ele>
        <time>2022-05-04T13:18:45.000Z</time>
      </trkpt>
      <trkpt lat="40.51998280920088291168212890625" lon="-1.5797733329236507415771484375">
        <ele>1485</ele>
        <time>2022-05-04T13:18:51.000Z</time>
      </trkpt>
      <trkpt lat="40.5199346132576465606689453125" lon="-1.579716838896274566650390625">
        <ele>1485.199951171875</ele>
        <time>2022-05-04T13:18:54.000Z</time>
      </trkpt>
      <trkpt lat="40.519833527505397796630859375" lon="-1.57960116863250732421875">
        <ele>1486</ele>
        <time>2022-05-04T13:19:00.000Z</time>
      </trkpt>
      <trkpt lat="40.51975867711007595062255859375" lon="-1.57952313311398029327392578125">
        <ele>1486.5999755859375</ele>
        <time>2022-05-04T13:19:04.000Z</time>
      </trkpt>
      <trkpt lat="40.51967217586934566497802734375" lon="-1.57948139123618602752685546875">
        <ele>1487.4000244140625</ele>
        <time>2022-05-04T13:19:08.000Z</time>
      </trkpt>
      <trkpt lat="40.51956363022327423095703125" lon="-1.57947066240012645721435546875">
        <ele>1488.199951171875</ele>
        <time>2022-05-04T13:19:13.000Z</time>
      </trkpt>
      <trkpt lat="40.51952281035482883453369140625" lon="-1.57947133295238018035888671875">
        <ele>1488.5999755859375</ele>
        <time>2022-05-04T13:19:15.000Z</time>
      </trkpt>
      <trkpt lat="40.51940529607236385345458984375" lon="-1.5795010887086391448974609375">
        <ele>1489.4000244140625</ele>
        <time>2022-05-04T13:19:21.000Z</time>
      </trkpt>
      <trkpt lat="40.519367493689060211181640625" lon="-1.57951575703918933868408203125">
        <ele>1489.800048828125</ele>
        <time>2022-05-04T13:19:23.000Z</time>
      </trkpt>
      <trkpt lat="40.51925375126302242279052734375" lon="-1.57956873066723346710205078125">
        <ele>1490.4000244140625</ele>
        <time>2022-05-04T13:19:29.000Z</time>
      </trkpt>
      <trkpt lat="40.51921368576586246490478515625" lon="-1.57958130352199077606201171875">
        <ele>1490.800048828125</ele>
        <time>2022-05-04T13:19:31.000Z</time>
      </trkpt>
      <trkpt lat="40.51911662332713603973388671875" lon="-1.57960343174636363983154296875">
        <ele>1491.5999755859375</ele>
        <time>2022-05-04T13:19:36.000Z</time>
      </trkpt>
      <trkpt lat="40.5191021226346492767333984375" lon="-1.5796087123453617095947265625">
        <ele>1491.5999755859375</ele>
        <time>2022-05-04T13:19:37.000Z</time>
      </trkpt>
      <trkpt lat="40.5190736241638660430908203125" lon="-1.579623632133007049560546875">
        <ele>1491.800048828125</ele>
        <time>2022-05-04T13:19:39.000Z</time>
      </trkpt>
      <trkpt lat="40.51901034079492092132568359375" lon="-1.5796373784542083740234375">
        <ele>1492.199951171875</ele>
        <time>2022-05-04T13:19:42.000Z</time>
      </trkpt>
      <trkpt lat="40.51874178461730480194091796875" lon="-1.57967962324619293212890625">
        <ele>1493.4000244140625</ele>
        <time>2022-05-04T13:19:52.000Z</time>
      </trkpt>
      <trkpt lat="40.51851999945938587188720703125" lon="-1.57972178421914577484130859375">
        <ele>1493</ele>
        <time>2022-05-04T13:20:00.000Z</time>
      </trkpt>
      <trkpt lat="40.51839192397892475128173828125" lon="-1.57974508590996265411376953125">
        <ele>1492.800048828125</ele>
        <time>2022-05-04T13:20:04.000Z</time>
      </trkpt>
      <trkpt lat="40.51813661120831966400146484375" lon="-1.5797968022525310516357421875">
        <ele>1492.4000244140625</ele>
        <time>2022-05-04T13:20:12.000Z</time>
      </trkpt>
      <trkpt lat="40.51795807667076587677001953125" lon="-1.57983158715069293975830078125">
        <ele>1492.5999755859375</ele>
        <time>2022-05-04T13:20:18.000Z</time>
      </trkpt>
      <trkpt lat="40.5178733356297016143798828125" lon="-1.57985287718474864959716796875">
        <ele>1493.199951171875</ele>
        <time>2022-05-04T13:20:21.000Z</time>
      </trkpt>
      <trkpt lat="40.51779647357761859893798828125" lon="-1.57986377365887165069580078125">
        <ele>1493.800048828125</ele>
        <time>2022-05-04T13:20:24.000Z</time>
      </trkpt>
      <trkpt lat="40.5176872573792934417724609375" lon="-1.57989696599543094635009765625">
        <ele>1494.5999755859375</ele>
        <time>2022-05-04T13:20:29.000Z</time>
      </trkpt>
      <trkpt lat="40.51766605116426944732666015625" lon="-1.57990618608891963958740234375">
        <ele>1494.800048828125</ele>
        <time>2022-05-04T13:20:30.000Z</time>
      </trkpt>
      <trkpt lat="40.51750008948147296905517578125" lon="-1.57998807728290557861328125">
        <ele>1495.800048828125</ele>
        <time>2022-05-04T13:20:38.000Z</time>
      </trkpt>
      <trkpt lat="40.517479889094829559326171875" lon="-1.57999838702380657196044921875">
        <ele>1496</ele>
        <time>2022-05-04T13:20:39.000Z</time>
      </trkpt>
      <trkpt lat="40.51736514084041118621826171875" lon="-1.58007256686687469482421875">
        <ele>1496.4000244140625</ele>
        <time>2022-05-04T13:20:45.000Z</time>
      </trkpt>
      <trkpt lat="40.51730646751821041107177734375" lon="-1.580111794173717498779296875">
        <ele>1496.800048828125</ele>
        <time>2022-05-04T13:20:48.000Z</time>
      </trkpt>
      <trkpt lat="40.51724620163440704345703125" lon="-1.58014859072864055633544921875">
        <ele>1497</ele>
        <time>2022-05-04T13:20:51.000Z</time>
      </trkpt>
      <trkpt lat="40.5171565152704715728759765625" lon="-1.5802269615232944488525390625">
        <ele>1497.4000244140625</ele>
        <time>2022-05-04T13:20:56.000Z</time>
      </trkpt>
      <trkpt lat="40.5171208083629608154296875" lon="-1.5802547894418239593505859375">
        <ele>1497.5999755859375</ele>
        <time>2022-05-04T13:20:58.000Z</time>
      </trkpt>
      <trkpt lat="40.51704101264476776123046875" lon="-1.5803238563239574432373046875">
        <ele>1498.199951171875</ele>
        <time>2022-05-04T13:21:03.000Z</time>
      </trkpt>
      <trkpt lat="40.51699482835829257965087890625" lon="-1.5803691186010837554931640625">
        <ele>1498.4000244140625</ele>
        <time>2022-05-04T13:21:06.000Z</time>
      </trkpt>
      <trkpt lat="40.51693313755095005035400390625" lon="-1.58042971976101398468017578125">
        <ele>1498.5999755859375</ele>
        <time>2022-05-04T13:21:10.000Z</time>
      </trkpt>
      <trkpt lat="40.5168762244284152984619140625" lon="-1.58049057237803936004638671875">
        <ele>1498.800048828125</ele>
        <time>2022-05-04T13:21:14.000Z</time>
      </trkpt>
      <trkpt lat="40.51683154888451099395751953125" lon="-1.58054036088287830352783203125">
        <ele>1499</ele>
        <time>2022-05-04T13:21:17.000Z</time>
      </trkpt>
      <trkpt lat="40.516798608005046844482421875" lon="-1.58057103864848613739013671875">
        <ele>1499.199951171875</ele>
        <time>2022-05-04T13:21:19.000Z</time>
      </trkpt>
      <trkpt lat="40.5166834406554698944091796875" lon="-1.58069291152060031890869140625">
        <ele>1499.5999755859375</ele>
        <time>2022-05-04T13:21:26.000Z</time>
      </trkpt>
      <trkpt lat="40.51666609011590480804443359375" lon="-1.580711267888545989990234375">
        <ele>1499.800048828125</ele>
        <time>2022-05-04T13:21:27.000Z</time>
      </trkpt>
      <trkpt lat="40.51656098105013370513916015625" lon="-1.580812521278858184814453125">
        <ele>1499.800048828125</ele>
        <time>2022-05-04T13:21:33.000Z</time>
      </trkpt>
      <trkpt lat="40.51654270850121974945068359375" lon="-1.5808271057903766632080078125">
        <ele>1500</ele>
        <time>2022-05-04T13:21:34.000Z</time>
      </trkpt>
      <trkpt lat="40.51643081009387969970703125" lon="-1.58091318793594837188720703125">
        <ele>1500.4000244140625</ele>
        <time>2022-05-04T13:21:40.000Z</time>
      </trkpt>
      <trkpt lat="40.5163716338574886322021484375" lon="-1.58095610328018665313720703125">
        <ele>1500.5999755859375</ele>
        <time>2022-05-04T13:21:43.000Z</time>
      </trkpt>
      <trkpt lat="40.51622989587485790252685546875" lon="-1.581088788807392120361328125">
        <ele>1501</ele>
        <time>2022-05-04T13:21:50.000Z</time>
      </trkpt>
      <trkpt lat="40.5160816200077533721923828125" lon="-1.58119238913059234619140625">
        <ele>1501.800048828125</ele>
        <time>2022-05-04T13:21:57.000Z</time>
      </trkpt>
      <trkpt lat="40.5160420574247837066650390625" lon="-1.58122063614428043365478515625">
        <ele>1502</ele>
        <time>2022-05-04T13:21:59.000Z</time>
      </trkpt>
      <trkpt lat="40.515851788222789764404296875" lon="-1.58134393393993377685546875">
        <ele>1503.199951171875</ele>
        <time>2022-05-04T13:22:08.000Z</time>
      </trkpt>
      <trkpt lat="40.51583074964582920074462890625" lon="-1.58135776408016681671142578125">
        <ele>1503.4000244140625</ele>
        <time>2022-05-04T13:22:09.000Z</time>
      </trkpt>
      <trkpt lat="40.51563159562647342681884765625" lon="-1.581484414637088775634765625">
        <ele>1504.5999755859375</ele>
        <time>2022-05-04T13:22:18.000Z</time>
      </trkpt>
      <trkpt lat="40.5156088806688785552978515625" lon="-1.581498496234416961669921875">
        <ele>1504.800048828125</ele>
        <time>2022-05-04T13:22:19.000Z</time>
      </trkpt>
      <trkpt lat="40.515454150736331939697265625" lon="-1.58159798942506313323974609375">
        <ele>1506</ele>
        <time>2022-05-04T13:22:26.000Z</time>
      </trkpt>
      <trkpt lat="40.515367649495601654052734375" lon="-1.5816458500921726226806640625">
        <ele>1507</ele>
        <time>2022-05-04T13:22:30.000Z</time>
      </trkpt>
      <trkpt lat="40.5151706747710704803466796875" lon="-1.58177803270518779754638671875">
        <ele>1509.199951171875</ele>
        <time>2022-05-04T13:22:39.000Z</time>
      </trkpt>
      <trkpt lat="40.514996834099292755126953125" lon="-1.58189252950251102447509765625">
        <ele>1511.4000244140625</ele>
        <time>2022-05-04T13:22:47.000Z</time>
      </trkpt>
      <trkpt lat="40.514953918755054473876953125" lon="-1.581919603049755096435546875">
        <ele>1511.800048828125</ele>
        <time>2022-05-04T13:22:49.000Z</time>
      </trkpt>
      <trkpt lat="40.51486909389495849609375" lon="-1.58197291195392608642578125">
        <ele>1512.800048828125</ele>
        <time>2022-05-04T13:22:53.000Z</time>
      </trkpt>
      <trkpt lat="40.5147495679557323455810546875" lon="-1.58205715008080005645751953125">
        <ele>1514.199951171875</ele>
        <time>2022-05-04T13:22:59.000Z</time>
      </trkpt>
      <trkpt lat="40.51469248719513416290283203125" lon="-1.58209369517862796783447265625">
        <ele>1514.800048828125</ele>
        <time>2022-05-04T13:23:02.000Z</time>
      </trkpt>
      <trkpt lat="40.5145933292806148529052734375" lon="-1.58216611482203006744384765625">
        <ele>1516.199951171875</ele>
        <time>2022-05-04T13:23:07.000Z</time>
      </trkpt>
      <trkpt lat="40.514573715627193450927734375" lon="-1.58218019641935825347900390625">
        <ele>1516.4000244140625</ele>
        <time>2022-05-04T13:23:08.000Z</time>
      </trkpt>
      <trkpt lat="40.5144619010388851165771484375" lon="-1.582277677953243255615234375">
        <ele>1517.5999755859375</ele>
        <time>2022-05-04T13:23:14.000Z</time>
      </trkpt>
      <trkpt lat="40.51442644558846950531005859375" lon="-1.58230793662369251251220703125">
        <ele>1518</ele>
        <time>2022-05-04T13:23:16.000Z</time>
      </trkpt>
      <trkpt lat="40.51433323882520198822021484375" lon="-1.582388989627361297607421875">
        <ele>1519</ele>
        <time>2022-05-04T13:23:21.000Z</time>
      </trkpt>
      <trkpt lat="40.51426651887595653533935546875" lon="-1.5824605710804462432861328125">
        <ele>1519.4000244140625</ele>
        <time>2022-05-04T13:23:25.000Z</time>
      </trkpt>
      <trkpt lat="40.51424958743155002593994140625" lon="-1.58247582614421844482421875">
        <ele>1519.5999755859375</ele>
        <time>2022-05-04T13:23:26.000Z</time>
      </trkpt>
      <trkpt lat="40.51417163573205471038818359375" lon="-1.58256039954721927642822265625">
        <ele>1520</ele>
        <time>2022-05-04T13:23:31.000Z</time>
      </trkpt>
      <trkpt lat="40.5141078494489192962646484375" lon="-1.5826298855245113372802734375">
        <ele>1520.4000244140625</ele>
        <time>2022-05-04T13:23:35.000Z</time>
      </trkpt>
      <trkpt lat="40.51405973732471466064453125" lon="-1.5826768241822719573974609375">
        <ele>1520.800048828125</ele>
        <time>2022-05-04T13:23:38.000Z</time>
      </trkpt>
      <trkpt lat="40.51399377174675464630126953125" lon="-1.58275343477725982666015625">
        <ele>1521</ele>
        <time>2022-05-04T13:23:42.000Z</time>
      </trkpt>
      <trkpt lat="40.51395772956311702728271484375" lon="-1.58278830349445343017578125">
        <ele>1521.4000244140625</ele>
        <time>2022-05-04T13:23:44.000Z</time>
      </trkpt>
      <trkpt lat="40.51383065991103649139404296875" lon="-1.58289869315922260284423828125">
        <ele>1522.4000244140625</ele>
        <time>2022-05-04T13:23:51.000Z</time>
      </trkpt>
      <trkpt lat="40.513701997697353363037109375" lon="-1.58299994654953479766845703125">
        <ele>1522.800048828125</ele>
        <time>2022-05-04T13:23:58.000Z</time>
      </trkpt>
      <trkpt lat="40.51364927552640438079833984375" lon="-1.58303447999060153961181640625">
        <ele>1523</ele>
        <time>2022-05-04T13:24:01.000Z</time>
      </trkpt>
      <trkpt lat="40.51355875097215175628662109375" lon="-1.5830925665795803070068359375">
        <ele>1523.4000244140625</ele>
        <time>2022-05-04T13:24:06.000Z</time>
      </trkpt>
      <trkpt lat="40.5134788714349269866943359375" lon="-1.58313967287540435791015625">
        <ele>1523.800048828125</ele>
        <time>2022-05-04T13:24:10.000Z</time>
      </trkpt>
      <trkpt lat="40.51333419978618621826171875" lon="-1.58321133814752101898193359375">
        <ele>1525</ele>
        <time>2022-05-04T13:24:17.000Z</time>
      </trkpt>
      <trkpt lat="40.51331182010471820831298828125" lon="-1.5832221508026123046875">
        <ele>1525.199951171875</ele>
        <time>2022-05-04T13:24:18.000Z</time>
      </trkpt>
      <trkpt lat="40.51312272436916828155517578125" lon="-1.58332332037389278411865234375">
        <ele>1527.199951171875</ele>
        <time>2022-05-04T13:24:26.000Z</time>
      </trkpt>
      <trkpt lat="40.5129534937441349029541015625" lon="-1.58341853879392147064208984375">
        <ele>1529</ele>
        <time>2022-05-04T13:24:32.000Z</time>
      </trkpt>
      <trkpt lat="40.51286959089338779449462890625" lon="-1.58346866257488727569580078125">
        <ele>1529.5999755859375</ele>
        <time>2022-05-04T13:24:35.000Z</time>
      </trkpt>
      <trkpt lat="40.5127630569040775299072265625" lon="-1.583543010056018829345703125">
        <ele>1530.5999755859375</ele>
        <time>2022-05-04T13:24:39.000Z</time>
      </trkpt>
      <trkpt lat="40.51266121678054332733154296875" lon="-1.5836249850690364837646484375">
        <ele>1531.199951171875</ele>
        <time>2022-05-04T13:24:43.000Z</time>
      </trkpt>
      <trkpt lat="40.5125883780419826507568359375" lon="-1.58369832672178745269775390625">
        <ele>1531.800048828125</ele>
        <time>2022-05-04T13:24:46.000Z</time>
      </trkpt>
      <trkpt lat="40.5124519206583499908447265625" lon="-1.5838261507451534271240234375">
        <ele>1532.5999755859375</ele>
        <time>2022-05-04T13:24:52.000Z</time>
      </trkpt>
      <trkpt lat="40.51238612271845340728759765625" lon="-1.58388474024832248687744140625">
        <ele>1533</ele>
        <time>2022-05-04T13:24:55.000Z</time>
      </trkpt>
      <trkpt lat="40.51219484768807888031005859375" lon="-1.58403863199055194854736328125">
        <ele>1534.4000244140625</ele>
        <time>2022-05-04T13:25:03.000Z</time>
      </trkpt>
      <trkpt lat="40.51216986961662769317626953125" lon="-1.58405690453946590423583984375">
        <ele>1534.5999755859375</ele>
        <time>2022-05-04T13:25:04.000Z</time>
      </trkpt>
      <trkpt lat="40.511936433613300323486328125" lon="-1.58421817235648632049560546875">
        <ele>1536</ele>
        <time>2022-05-04T13:25:13.000Z</time>
      </trkpt>
      <trkpt lat="40.5118819512426853179931640625" lon="-1.58424499444663524627685546875">
        <ele>1536.4000244140625</ele>
        <time>2022-05-04T13:25:15.000Z</time>
      </trkpt>
      <trkpt lat="40.51169143058359622955322265625" lon="-1.5843017399311065673828125">
        <ele>1538.4000244140625</ele>
        <time>2022-05-04T13:25:22.000Z</time>
      </trkpt>
      <trkpt lat="40.51154793240129947662353515625" lon="-1.5843216888606548309326171875">
        <ele>1539.800048828125</ele>
        <time>2022-05-04T13:25:27.000Z</time>
      </trkpt>
      <trkpt lat="40.51140359602868556976318359375" lon="-1.58434088341891765594482421875">
        <ele>1541.4000244140625</ele>
        <time>2022-05-04T13:25:32.000Z</time>
      </trkpt>
      <trkpt lat="40.51120989024639129638671875" lon="-1.584344319999217987060546875">
        <ele>1542.800048828125</ele>
        <time>2022-05-04T13:25:39.000Z</time>
      </trkpt>
      <trkpt lat="40.51109614782035350799560546875" lon="-1.5843407995998859405517578125">
        <ele>1543.4000244140625</ele>
        <time>2022-05-04T13:25:43.000Z</time>
      </trkpt>
      <trkpt lat="40.5110692419111728668212890625" lon="-1.58434088341891765594482421875">
        <ele>1543.5999755859375</ele>
        <time>2022-05-04T13:25:44.000Z</time>
      </trkpt>
      <trkpt lat="40.51090470515191555023193359375" lon="-1.58433727920055389404296875">
        <ele>1544</ele>
        <time>2022-05-04T13:25:50.000Z</time>
      </trkpt>
      <trkpt lat="40.5107953213155269622802734375" lon="-1.58433686010539531707763671875">
        <ele>1544.4000244140625</ele>
        <time>2022-05-04T13:25:54.000Z</time>
      </trkpt>
      <trkpt lat="40.51054981537163257598876953125" lon="-1.58432914875447750091552734375">
        <ele>1545</ele>
        <time>2022-05-04T13:26:02.000Z</time>
      </trkpt>
      <trkpt lat="40.51036675460636615753173828125" lon="-1.584327220916748046875">
        <ele>1546</ele>
        <time>2022-05-04T13:26:08.000Z</time>
      </trkpt>
      <trkpt lat="40.51027757115662097930908203125" lon="-1.5843112953007221221923828125">
        <ele>1546.5999755859375</ele>
        <time>2022-05-04T13:26:11.000Z</time>
      </trkpt>
      <trkpt lat="40.50993843935430049896240234375" lon="-1.5843096189200878143310546875">
        <ele>1548</ele>
        <time>2022-05-04T13:26:22.000Z</time>
      </trkpt>
      <trkpt lat="40.5097003094851970672607421875" lon="-1.5843448229134082794189453125">
        <ele>1548.5999755859375</ele>
        <time>2022-05-04T13:26:30.000Z</time>
      </trkpt>
      <trkpt lat="40.50954398699104785919189453125" lon="-1.5843910910189151763916015625">
        <ele>1549</ele>
        <time>2022-05-04T13:26:35.000Z</time>
      </trkpt>
      <trkpt lat="40.5094228684902191162109375" lon="-1.5844400413334369659423828125">
        <ele>1549.4000244140625</ele>
        <time>2022-05-04T13:26:39.000Z</time>
      </trkpt>
      <trkpt lat="40.509218014776706695556640625" lon="-1.58455110155045986175537109375">
        <ele>1549.5999755859375</ele>
        <time>2022-05-04T13:26:46.000Z</time>
      </trkpt>
      <trkpt lat="40.5091367103159427642822265625" lon="-1.584603823721408843994140625">
        <ele>1549.800048828125</ele>
        <time>2022-05-04T13:26:49.000Z</time>
      </trkpt>
      <trkpt lat="40.50897887907922267913818359375" lon="-1.58473382703959941864013671875">
        <ele>1549.800048828125</ele>
        <time>2022-05-04T13:26:55.000Z</time>
      </trkpt>
      <trkpt lat="40.50895239226520061492919921875" lon="-1.58475344069302082061767578125">
        <ele>1550</ele>
        <time>2022-05-04T13:26:56.000Z</time>
      </trkpt>
      <trkpt lat="40.50892707891762256622314453125" lon="-1.584775149822235107421875">
        <ele>1550</ele>
        <time>2022-05-04T13:26:57.000Z</time>
      </trkpt>
      <trkpt lat="40.50876664929091930389404296875" lon="-1.58492811955511569976806640625">
        <ele>1550.800048828125</ele>
        <time>2022-05-04T13:27:04.000Z</time>
      </trkpt>
      <trkpt lat="40.5087233148515224456787109375" lon="-1.58496617339551448822021484375">
        <ele>1551.199951171875</ele>
        <time>2022-05-04T13:27:06.000Z</time>
      </trkpt>
      <trkpt lat="40.508587025105953216552734375" lon="-1.58509366214275360107421875">
        <ele>1552.5999755859375</ele>
        <time>2022-05-04T13:27:12.000Z</time>
      </trkpt>
      <trkpt lat="40.50856514833867549896240234375" lon="-1.585114784538745880126953125">
        <ele>1553</ele>
        <time>2022-05-04T13:27:13.000Z</time>
      </trkpt>
      <trkpt lat="40.50845928490161895751953125" lon="-1.5852121822535991668701171875">
        <ele>1554</ele>
        <time>2022-05-04T13:27:18.000Z</time>
      </trkpt>
      <trkpt lat="40.50835643894970417022705078125" lon="-1.5853080712258815765380859375">
        <ele>1555.199951171875</ele>
        <time>2022-05-04T13:27:23.000Z</time>
      </trkpt>
      <trkpt lat="40.50821394659578800201416015625" lon="-1.585433296859264373779296875">
        <ele>1556.5999755859375</ele>
        <time>2022-05-04T13:27:30.000Z</time>
      </trkpt>
      <trkpt lat="40.50819567404687404632568359375" lon="-1.58545198850333690643310546875">
        <ele>1556.800048828125</ele>
        <time>2022-05-04T13:27:31.000Z</time>
      </trkpt>
      <trkpt lat="40.5081117711961269378662109375" lon="-1.58554066903889179229736328125">
        <ele>1557.800048828125</ele>
        <time>2022-05-04T13:27:36.000Z</time>
      </trkpt>
      <trkpt lat="40.508080758154392242431640625" lon="-1.58557788468897342681884765625">
        <ele>1558</ele>
        <time>2022-05-04T13:27:38.000Z</time>
      </trkpt>
      <trkpt lat="40.50801915116608142852783203125" lon="-1.5856557525694370269775390625">
        <ele>1558.800048828125</ele>
        <time>2022-05-04T13:27:42.000Z</time>
      </trkpt>
      <trkpt lat="40.507986880838871002197265625" lon="-1.5857204608619213104248046875">
        <ele>1559.199951171875</ele>
        <time>2022-05-04T13:27:45.000Z</time>
      </trkpt>
      <trkpt lat="40.507976152002811431884765625" lon="-1.58576346002519130706787109375">
        <ele>1559.5999755859375</ele>
        <time>2022-05-04T13:27:47.000Z</time>
      </trkpt>
      <trkpt lat="40.507978163659572601318359375" lon="-1.585820205509662628173828125">
        <ele>1559.800048828125</ele>
        <time>2022-05-04T13:27:50.000Z</time>
      </trkpt>
      <trkpt lat="40.50798713229596614837646484375" lon="-1.585864461958408355712890625">
        <ele>1559.800048828125</ele>
        <time>2022-05-04T13:27:52.000Z</time>
      </trkpt>
      <trkpt lat="40.50800439901649951934814453125" lon="-1.585978455841541290283203125">
        <ele>1560</ele>
        <time>2022-05-04T13:27:56.000Z</time>
      </trkpt>
      <trkpt lat="40.507999956607818603515625" lon="-1.5860128216445446014404296875">
        <ele>1560.199951171875</ele>
        <time>2022-05-04T13:27:57.000Z</time>
      </trkpt>
      <trkpt lat="40.50798042677342891693115234375" lon="-1.586076356470584869384765625">
        <ele>1560.5999755859375</ele>
        <time>2022-05-04T13:27:59.000Z</time>
      </trkpt>
      <trkpt lat="40.5079277046024799346923828125" lon="-1.58618942834436893463134765625">
        <ele>1561.5999755859375</ele>
        <time>2022-05-04T13:28:03.000Z</time>
      </trkpt>
      <trkpt lat="40.5079045705497264862060546875" lon="-1.586243323981761932373046875">
        <ele>1562</ele>
        <time>2022-05-04T13:28:05.000Z</time>
      </trkpt>
      <trkpt lat="40.5078616552054882049560546875" lon="-1.58631767146289348602294921875">
        <ele>1562.5999755859375</ele>
        <time>2022-05-04T13:28:08.000Z</time>
      </trkpt>
      <trkpt lat="40.5078457295894622802734375" lon="-1.58634080551564693450927734375">
        <ele>1562.800048828125</ele>
        <time>2022-05-04T13:28:09.000Z</time>
      </trkpt>
      <trkpt lat="40.507786385715007781982421875" lon="-1.58643183298408985137939453125">
        <ele>1563.800048828125</ele>
        <time>2022-05-04T13:28:13.000Z</time>
      </trkpt>
      <trkpt lat="40.50777205266058444976806640625" lon="-1.58645161427557468414306640625">
        <ele>1564</ele>
        <time>2022-05-04T13:28:14.000Z</time>
      </trkpt>
      <trkpt lat="40.50774439238011837005615234375" lon="-1.58649000339210033416748046875">
        <ele>1564.4000244140625</ele>
        <time>2022-05-04T13:28:16.000Z</time>
      </trkpt>
      <trkpt lat="40.50769728608429431915283203125" lon="-1.586549766361713409423828125">
        <ele>1565</ele>
        <time>2022-05-04T13:28:20.000Z</time>
      </trkpt>
      <trkpt lat="40.50767482258379459381103515625" lon="-1.586577929556369781494140625">
        <ele>1565.4000244140625</ele>
        <time>2022-05-04T13:28:22.000Z</time>
      </trkpt>
      <trkpt lat="40.50763987004756927490234375" lon="-1.5866357646882534027099609375">
        <ele>1566</ele>
        <time>2022-05-04T13:28:25.000Z</time>
      </trkpt>
      <trkpt lat="40.50762386061251163482666015625" lon="-1.58667482435703277587890625">
        <ele>1566.4000244140625</ele>
        <time>2022-05-04T13:28:27.000Z</time>
      </trkpt>
      <trkpt lat="40.50756351090967655181884765625" lon="-1.5867598168551921844482421875">
        <ele>1567.4000244140625</ele>
        <time>2022-05-04T13:28:31.000Z</time>
      </trkpt>
      <trkpt lat="40.50754926167428493499755859375" lon="-1.586781442165374755859375">
        <ele>1567.5999755859375</ele>
        <time>2022-05-04T13:28:32.000Z</time>
      </trkpt>
      <trkpt lat="40.5075037479400634765625" lon="-1.58687741495668888092041015625">
        <ele>1568.5999755859375</ele>
        <time>2022-05-04T13:28:37.000Z</time>
      </trkpt>
      <trkpt lat="40.50742940045893192291259765625" lon="-1.58699677325785160064697265625">
        <ele>1569.800048828125</ele>
        <time>2022-05-04T13:28:42.000Z</time>
      </trkpt>
      <trkpt lat="40.5074154026806354522705078125" lon="-1.5870183147490024566650390625">
        <ele>1570</ele>
        <time>2022-05-04T13:28:43.000Z</time>
      </trkpt>
      <trkpt lat="40.5073790252208709716796875" lon="-1.587070114910602569580078125">
        <ele>1570.5999755859375</ele>
        <time>2022-05-04T13:28:46.000Z</time>
      </trkpt>
      <trkpt lat="40.50736083649098873138427734375" lon="-1.587102301418781280517578125">
        <ele>1571</ele>
        <time>2022-05-04T13:28:48.000Z</time>
      </trkpt>
      <trkpt lat="40.50733099691569805145263671875" lon="-1.58714697696268558502197265625">
        <ele>1571.4000244140625</ele>
        <time>2022-05-04T13:28:51.000Z</time>
      </trkpt>
      <trkpt lat="40.507308281958103179931640625" lon="-1.58718712627887725830078125">
        <ele>1571.800048828125</ele>
        <time>2022-05-04T13:28:54.000Z</time>
      </trkpt>
      <trkpt lat="40.507301576435565948486328125" lon="-1.5872100926935672760009765625">
        <ele>1572</ele>
        <time>2022-05-04T13:28:56.000Z</time>
      </trkpt>
      <trkpt lat="40.50730199553072452545166015625" lon="-1.5872258506715297698974609375">
        <ele>1572.199951171875</ele>
        <time>2022-05-04T13:28:58.000Z</time>
      </trkpt>
      <trkpt lat="40.50733141601085662841796875" lon="-1.58734579570591449737548828125">
        <ele>1573</ele>
        <time>2022-05-04T13:30:20.000Z</time>
      </trkpt>
      <trkpt lat="40.50748203881084918975830078125" lon="-1.58749826252460479736328125">
        <ele>1572.800048828125</ele>
        <time>2022-05-04T13:30:26.000Z</time>
      </trkpt>
      <trkpt lat="40.5076541192829608917236328125" lon="-1.587666571140289306640625">
        <ele>1572.5999755859375</ele>
        <time>2022-05-04T13:30:31.000Z</time>
      </trkpt>
      <trkpt lat="40.50768957473337650299072265625" lon="-1.58770705573260784149169921875">
        <ele>1572.4000244140625</ele>
        <time>2022-05-04T13:30:32.000Z</time>
      </trkpt>
      <trkpt lat="40.50772427581250667572021484375" lon="-1.58774896524846553802490234375">
        <ele>1572.199951171875</ele>
        <time>2022-05-04T13:30:33.000Z</time>
      </trkpt>
      <trkpt lat="40.507786385715007781982421875" lon="-1.58782993443310260772705078125">
        <ele>1571.5999755859375</ele>
        <time>2022-05-04T13:30:35.000Z</time>
      </trkpt>
      <trkpt lat="40.50787456333637237548828125" lon="-1.5879470296204090118408203125">
        <ele>1571</ele>
        <time>2022-05-04T13:30:38.000Z</time>
      </trkpt>
      <trkpt lat="40.5079020559787750244140625" lon="-1.58797980286180973052978515625">
        <ele>1570.800048828125</ele>
        <time>2022-05-04T13:30:39.000Z</time>
      </trkpt>
      <trkpt lat="40.50797875039279460906982421875" lon="-1.5880616940557956695556640625">
        <ele>1570</ele>
        <time>2022-05-04T13:30:43.000Z</time>
      </trkpt>
      <trkpt lat="40.50806709565222263336181640625" lon="-1.58822455443441867828369140625">
        <ele>1570.199951171875</ele>
        <time>2022-05-04T13:30:51.000Z</time>
      </trkpt>
      <trkpt lat="40.5080997012555599212646484375" lon="-1.58831038512289524078369140625">
        <ele>1570.800048828125</ele>
        <time>2022-05-04T13:30:55.000Z</time>
      </trkpt>
      <trkpt lat="40.50811939872801303863525390625" lon="-1.588329412043094635009765625">
        <ele>1571</ele>
        <time>2022-05-04T13:30:56.000Z</time>
      </trkpt>
      <trkpt lat="40.5082049779593944549560546875" lon="-1.5884918533265590667724609375">
        <ele>1572</ele>
        <time>2022-05-04T13:31:02.000Z</time>
      </trkpt>
      <trkpt lat="40.50819064490497112274169921875" lon="-1.58852814696729183197021484375">
        <ele>1572.199951171875</ele>
        <time>2022-05-04T13:31:04.000Z</time>
      </trkpt>
      <trkpt lat="40.50817002542316913604736328125" lon="-1.5885505266487598419189453125">
        <ele>1572.4000244140625</ele>
        <time>2022-05-04T13:31:06.000Z</time>
      </trkpt>
      <trkpt lat="40.5081496573984622955322265625" lon="-1.5885961242020130157470703125">
        <ele>1572.800048828125</ele>
        <time>2022-05-04T13:31:11.000Z</time>
      </trkpt>
      <trkpt lat="40.50815208815038204193115234375" lon="-1.58859486691653728485107421875">
        <ele>1572.800048828125</ele>
        <time>2022-05-04T13:31:12.000Z</time>
      </trkpt>
      <trkpt lat="40.50794756971299648284912109375" lon="-1.58863962627947330474853515625">
        <ele>1573.5999755859375</ele>
        <time>2022-05-05T07:25:39.000Z</time>
      </trkpt>
      <trkpt lat="40.507901050150394439697265625" lon="-1.58864867873489856719970703125">
        <ele>1574</ele>
        <time>2022-05-05T07:25:41.000Z</time>
      </trkpt>
      <trkpt lat="40.50784748978912830352783203125" lon="-1.58864566124975681304931640625">
        <ele>1574.199951171875</ele>
        <time>2022-05-05T07:25:43.000Z</time>
      </trkpt>
      <trkpt lat="40.50781823694705963134765625" lon="-1.5886487625539302825927734375">
        <ele>1574.4000244140625</ele>
        <time>2022-05-05T07:25:44.000Z</time>
      </trkpt>
      <trkpt lat="40.507735423743724822998046875" lon="-1.5886672027409076690673828125">
        <ele>1575</ele>
        <time>2022-05-05T07:25:47.000Z</time>
      </trkpt>
      <trkpt lat="40.50768588669598102569580078125" lon="-1.58868840895593166351318359375">
        <ele>1575.5999755859375</ele>
        <time>2022-05-05T07:25:49.000Z</time>
      </trkpt>
      <trkpt lat="40.50766241736710071563720703125" lon="-1.58869729377329349517822265625">
        <ele>1575.800048828125</ele>
        <time>2022-05-05T07:25:50.000Z</time>
      </trkpt>
      <trkpt lat="40.5076366849243640899658203125" lon="-1.58870793879032135009765625">
        <ele>1576</ele>
        <time>2022-05-05T07:25:51.000Z</time>
      </trkpt>
      <trkpt lat="40.507600307464599609375" lon="-1.58873115666210651397705078125">
        <ele>1576.4000244140625</ele>
        <time>2022-05-05T07:25:53.000Z</time>
      </trkpt>
      <trkpt lat="40.507573820650577545166015625" lon="-1.5887597389519214630126953125">
        <ele>1576.800048828125</ele>
        <time>2022-05-05T07:25:55.000Z</time>
      </trkpt>
      <trkpt lat="40.50755940377712249755859375" lon="-1.58877289853990077972412109375">
        <ele>1577</ele>
        <time>2022-05-05T07:25:56.000Z</time>
      </trkpt>
      <trkpt lat="40.50754037685692310333251953125" lon="-1.58878513611853122711181640625">
        <ele>1577.199951171875</ele>
        <time>2022-05-05T07:25:57.000Z</time>
      </trkpt>
      <trkpt lat="40.507496036589145660400390625" lon="-1.58881254494190216064453125">
        <ele>1577.5999755859375</ele>
        <time>2022-05-05T07:25:59.000Z</time>
      </trkpt>
      <trkpt lat="40.5074650235474109649658203125" lon="-1.588849090039730072021484375">
        <ele>1578</ele>
        <time>2022-05-05T07:26:01.000Z</time>
      </trkpt>
      <trkpt lat="40.5074489302933216094970703125" lon="-1.58889309503138065338134765625">
        <ele>1578.4000244140625</ele>
        <time>2022-05-05T07:26:03.000Z</time>
      </trkpt>
      <trkpt lat="40.507440380752086639404296875" lon="-1.58891388215124607086181640625">
        <ele>1578.5999755859375</ele>
        <time>2022-05-05T07:26:04.000Z</time>
      </trkpt>
      <trkpt lat="40.50743141211569309234619140625" lon="-1.5889317356050014495849609375">
        <ele>1578.800048828125</ele>
        <time>2022-05-05T07:26:05.000Z</time>
      </trkpt>
      <trkpt lat="40.50741028971970081329345703125" lon="-1.5889622457325458526611328125">
        <ele>1579.199951171875</ele>
        <time>2022-05-05T07:26:07.000Z</time>
      </trkpt>
      <trkpt lat="40.50739713013172149658203125" lon="-1.58899283967912197113037109375">
        <ele>1579.4000244140625</ele>
        <time>2022-05-05T07:26:09.000Z</time>
      </trkpt>
      <trkpt lat="40.5073897540569305419921875" lon="-1.58901195041835308074951171875">
        <ele>1579.5999755859375</ele>
        <time>2022-05-05T07:26:10.000Z</time>
      </trkpt>
      <trkpt lat="40.5073801986873149871826171875" lon="-1.58903206698596477508544921875">
        <ele>1579.800048828125</ele>
        <time>2022-05-05T07:26:11.000Z</time>
      </trkpt>
      <trkpt lat="40.50736804492771625518798828125" lon="-1.58905050717294216156005859375">
        <ele>1580</ele>
        <time>2022-05-05T07:26:12.000Z</time>
      </trkpt>
      <trkpt lat="40.5073533765971660614013671875" lon="-1.58906693570315837860107421875">
        <ele>1580.199951171875</ele>
        <time>2022-05-05T07:26:13.000Z</time>
      </trkpt>
      <trkpt lat="40.50732496194541454315185546875" lon="-1.58909727819263935089111328125">
        <ele>1580.5999755859375</ele>
        <time>2022-05-05T07:26:15.000Z</time>
      </trkpt>
      <trkpt lat="40.5073146522045135498046875" lon="-1.5891127847135066986083984375">
        <ele>1580.800048828125</ele>
        <time>2022-05-05T07:26:16.000Z</time>
      </trkpt>
      <trkpt lat="40.50730367191135883331298828125" lon="-1.5891298837959766387939453125">
        <ele>1580.800048828125</ele>
        <time>2022-05-05T07:26:17.000Z</time>
      </trkpt>
      <trkpt lat="40.5072829686105251312255859375" lon="-1.58916567452251911163330078125">
        <ele>1581.199951171875</ele>
        <time>2022-05-05T07:26:19.000Z</time>
      </trkpt>
      <trkpt lat="40.50727098248898983001708984375" lon="-1.58918679691851139068603515625">
        <ele>1581.4000244140625</ele>
        <time>2022-05-05T07:26:21.000Z</time>
      </trkpt>
      <trkpt lat="40.507258661091327667236328125" lon="-1.58921345137059688568115234375">
        <ele>1581.5999755859375</ele>
        <time>2022-05-05T07:26:23.000Z</time>
      </trkpt>
      <trkpt lat="40.5072437413036823272705078125" lon="-1.58925284631550312042236328125">
        <ele>1582</ele>
        <time>2022-05-05T07:26:25.000Z</time>
      </trkpt>
      <trkpt lat="40.5072367005050182342529296875" lon="-1.5892727114260196685791015625">
        <ele>1582.199951171875</ele>
        <time>2022-05-05T07:26:26.000Z</time>
      </trkpt>
      <trkpt lat="40.507229156792163848876953125" lon="-1.5892918221652507781982421875">
        <ele>1582.199951171875</ele>
        <time>2022-05-05T07:26:27.000Z</time>
      </trkpt>
      <trkpt lat="40.50722052343189716339111328125" lon="-1.58931051380932331085205078125">
        <ele>1582.4000244140625</ele>
        <time>2022-05-05T07:26:28.000Z</time>
      </trkpt>
      <trkpt lat="40.5072102136909961700439453125" lon="-1.58933021128177642822265625">
        <ele>1582.5999755859375</ele>
        <time>2022-05-05T07:26:29.000Z</time>
      </trkpt>
      <trkpt lat="40.50718816928565502166748046875" lon="-1.58937002532184123992919921875">
        <ele>1583</ele>
        <time>2022-05-05T07:26:31.000Z</time>
      </trkpt>
      <trkpt lat="40.50716511905193328857421875" lon="-1.589398942887783050537109375">
        <ele>1583.4000244140625</ele>
        <time>2022-05-05T07:26:33.000Z</time>
      </trkpt>
      <trkpt lat="40.5071522109210491180419921875" lon="-1.5894118510186672210693359375">
        <ele>1583.5999755859375</ele>
        <time>2022-05-05T07:26:34.000Z</time>
      </trkpt>
      <trkpt lat="40.50713804550468921661376953125" lon="-1.58942165784537792205810546875">
        <ele>1583.800048828125</ele>
        <time>2022-05-05T07:26:35.000Z</time>
      </trkpt>
      <trkpt lat="40.50712195225059986114501953125" lon="-1.5894247591495513916015625">
        <ele>1584</ele>
        <time>2022-05-05T07:26:36.000Z</time>
      </trkpt>
      <trkpt lat="40.5071049369871616363525390625" lon="-1.589420400559902191162109375">
        <ele>1584.199951171875</ele>
        <time>2022-05-05T07:26:37.000Z</time>
      </trkpt>
      <trkpt lat="40.50707484595477581024169921875" lon="-1.58939885906875133514404296875">
        <ele>1584.4000244140625</ele>
        <time>2022-05-05T07:26:39.000Z</time>
      </trkpt>
      <trkpt lat="40.5070613510906696319580078125" lon="-1.58938586711883544921875">
        <ele>1584.5999755859375</ele>
        <time>2022-05-05T07:26:40.000Z</time>
      </trkpt>
      <trkpt lat="40.5070449225604534149169921875" lon="-1.58937052823603153228759765625">
        <ele>1584.5999755859375</ele>
        <time>2022-05-05T07:26:41.000Z</time>
      </trkpt>
      <trkpt lat="40.5070090480148792266845703125" lon="-1.58933817408978939056396484375">
        <ele>1584.800048828125</ele>
        <time>2022-05-05T07:26:43.000Z</time>
      </trkpt>
      <trkpt lat="40.506979711353778839111328125" lon="-1.58930414356291294097900390625">
        <ele>1585</ele>
        <time>2022-05-05T07:26:45.000Z</time>
      </trkpt>
      <trkpt lat="40.50694492645561695098876953125" lon="-1.589269526302814483642578125">
        <ele>1585.199951171875</ele>
        <time>2022-05-05T07:26:47.000Z</time>
      </trkpt>
      <trkpt lat="40.50692774355411529541015625" lon="-1.58925267867743968963623046875">
        <ele>1585.4000244140625</ele>
        <time>2022-05-05T07:26:48.000Z</time>
      </trkpt>
      <trkpt lat="40.506912656128406524658203125" lon="-1.5892358310520648956298828125">
        <ele>1585.4000244140625</ele>
        <time>2022-05-05T07:26:49.000Z</time>
      </trkpt>
      <trkpt lat="40.5068836547434329986572265625" lon="-1.5892026387155055999755859375">
        <ele>1585.800048828125</ele>
        <time>2022-05-05T07:26:51.000Z</time>
      </trkpt>
      <trkpt lat="40.50685465335845947265625" lon="-1.58916466869413852691650390625">
        <ele>1586</ele>
        <time>2022-05-05T07:26:53.000Z</time>
      </trkpt>
      <trkpt lat="40.50682447850704193115234375" lon="-1.5891322307288646697998046875">
        <ele>1586.4000244140625</ele>
        <time>2022-05-05T07:26:55.000Z</time>
      </trkpt>
      <trkpt lat="40.5067964829504489898681640625" lon="-1.58909895457327365875244140625">
        <ele>1586.5999755859375</ele>
        <time>2022-05-05T07:26:57.000Z</time>
      </trkpt>
      <trkpt lat="40.5067666433751583099365234375" lon="-1.5890628285706043243408203125">
        <ele>1587</ele>
        <time>2022-05-05T07:26:59.000Z</time>
      </trkpt>
      <trkpt lat="40.5067344568669795989990234375" lon="-1.58902552910149097442626953125">
        <ele>1587.199951171875</ele>
        <time>2022-05-05T07:27:01.000Z</time>
      </trkpt>
      <trkpt lat="40.50670201890170574188232421875" lon="-1.5889934264123439788818359375">
        <ele>1587.5999755859375</ele>
        <time>2022-05-05T07:27:03.000Z</time>
      </trkpt>
      <trkpt lat="40.5066720955073833465576171875" lon="-1.5889612399041652679443359375">
        <ele>1588</ele>
        <time>2022-05-05T07:27:05.000Z</time>
      </trkpt>
      <trkpt lat="40.50664250738918781280517578125" lon="-1.58892628736793994903564453125">
        <ele>1588.199951171875</ele>
        <time>2022-05-05T07:27:07.000Z</time>
      </trkpt>
      <trkpt lat="40.5066154338419437408447265625" lon="-1.58889024518430233001708984375">
        <ele>1588.5999755859375</ele>
        <time>2022-05-05T07:27:09.000Z</time>
      </trkpt>
      <trkpt lat="40.5066003464162349700927734375" lon="-1.58887415193021297454833984375">
        <ele>1588.5999755859375</ele>
        <time>2022-05-05T07:27:10.000Z</time>
      </trkpt>
      <trkpt lat="40.5065879411995410919189453125" lon="-1.58885856159031391143798828125">
        <ele>1588.800048828125</ele>
        <time>2022-05-05T07:27:11.000Z</time>
      </trkpt>
      <trkpt lat="40.50657394342124462127685546875" lon="-1.5888412110507488250732421875">
        <ele>1589</ele>
        <time>2022-05-05T07:27:12.000Z</time>
      </trkpt>
      <trkpt lat="40.506559275090694427490234375" lon="-1.5888214297592639923095703125">
        <ele>1589</ele>
        <time>2022-05-05T07:27:13.000Z</time>
      </trkpt>
      <trkpt lat="40.50652381964027881622314453125" lon="-1.5887863934040069580078125">
        <ele>1589.4000244140625</ele>
        <time>2022-05-05T07:27:15.000Z</time>
      </trkpt>
      <trkpt lat="40.50650605000555515289306640625" lon="-1.58877105452120304107666015625">
        <ele>1589.5999755859375</ele>
        <time>2022-05-05T07:27:16.000Z</time>
      </trkpt>
      <trkpt lat="40.50649079494178295135498046875" lon="-1.58875227905809879302978515625">
        <ele>1589.5999755859375</ele>
        <time>2022-05-05T07:27:17.000Z</time>
      </trkpt>
      <trkpt lat="40.506460033357143402099609375" lon="-1.58871196210384368896484375">
        <ele>1589.800048828125</ele>
        <time>2022-05-05T07:27:19.000Z</time>
      </trkpt>
      <trkpt lat="40.50643287599086761474609375" lon="-1.588676758110523223876953125">
        <ele>1590</ele>
        <time>2022-05-05T07:27:21.000Z</time>
      </trkpt>
      <trkpt lat="40.50417923368513584136962890625" lon="-1.5865858085453510284423828125">
        <ele>1609</ele>
        <time>2022-05-05T07:30:16.000Z</time>
      </trkpt>
      <trkpt lat="40.5041588656604290008544921875" lon="-1.5865760855376720428466796875">
        <ele>1609.199951171875</ele>
        <time>2022-05-05T07:30:17.000Z</time>
      </trkpt>
      <trkpt lat="40.504137240350246429443359375" lon="-1.58656619489192962646484375">
        <ele>1609.5999755859375</ele>
        <time>2022-05-05T07:30:18.000Z</time>
      </trkpt>
      <trkpt lat="40.50411687232553958892822265625" lon="-1.5865574777126312255859375">
        <ele>1609.800048828125</ele>
        <time>2022-05-05T07:30:19.000Z</time>
      </trkpt>
      <trkpt lat="40.5040745437145233154296875" lon="-1.5865392051637172698974609375">
        <ele>1610.4000244140625</ele>
        <time>2022-05-05T07:30:21.000Z</time>
      </trkpt>
      <trkpt lat="40.5040545947849750518798828125" lon="-1.5865304879844188690185546875">
        <ele>1610.5999755859375</ele>
        <time>2022-05-05T07:30:22.000Z</time>
      </trkpt>
      <trkpt lat="40.5039540119469165802001953125" lon="-1.5864936076104640960693359375">
        <ele>1612</ele>
        <time>2022-05-05T07:30:27.000Z</time>
      </trkpt>
      <trkpt lat="40.503884442150592803955078125" lon="-1.5864691324532032012939453125">
        <ele>1613.199951171875</ele>
        <time>2022-05-05T07:30:31.000Z</time>
      </trkpt>
      <trkpt lat="40.50383222289383411407470703125" lon="-1.58645178191363811492919921875">
        <ele>1613.5999755859375</ele>
        <time>2022-05-05T07:30:34.000Z</time>
      </trkpt>
      <trkpt lat="40.50379282794892787933349609375" lon="-1.58644893206655979156494140625">
        <ele>1613.5999755859375</ele>
        <time>2022-05-05T07:30:37.000Z</time>
      </trkpt>
      <trkpt lat="40.50369970500469207763671875" lon="-1.58645647577941417694091796875">
        <ele>1614.4000244140625</ele>
        <time>2022-05-05T07:30:43.000Z</time>
      </trkpt>
      <trkpt lat="40.50358981825411319732666015625" lon="-1.5864647738635540008544921875">
        <ele>1615.199951171875</ele>
        <time>2022-05-05T07:30:49.000Z</time>
      </trkpt>
      <trkpt lat="40.50353340804576873779296875" lon="-1.586475670337677001953125">
        <ele>1615.800048828125</ele>
        <time>2022-05-05T07:30:52.000Z</time>
      </trkpt>
      <trkpt lat="40.503462664783000946044921875" lon="-1.58649637363851070404052734375">
        <ele>1616.800048828125</ele>
        <time>2022-05-05T07:30:55.000Z</time>
      </trkpt>
      <trkpt lat="40.50336979329586029052734375" lon="-1.58652973361313343048095703125">
        <ele>1618.199951171875</ele>
        <time>2022-05-05T07:31:00.000Z</time>
      </trkpt>
      <trkpt lat="40.50335210748016834259033203125" lon="-1.58653275109827518463134765625">
        <ele>1618.4000244140625</ele>
        <time>2022-05-05T07:31:01.000Z</time>
      </trkpt>
      <trkpt lat="40.50325445830821990966796875" lon="-1.58655345439910888671875">
        <ele>1619.4000244140625</ele>
        <time>2022-05-05T07:31:06.000Z</time>
      </trkpt>
      <trkpt lat="40.50321296788752079010009765625" lon="-1.5865663625299930572509765625">
        <ele>1619.800048828125</ele>
        <time>2022-05-05T07:31:08.000Z</time>
      </trkpt>
      <trkpt lat="40.50317323766648769378662109375" lon="-1.58658069558441638946533203125">
        <ele>1620.4000244140625</ele>
        <time>2022-05-05T07:31:10.000Z</time>
      </trkpt>
      <trkpt lat="40.50311137922108173370361328125" lon="-1.58660399727523326873779296875">
        <ele>1621.199951171875</ele>
        <time>2022-05-05T07:31:13.000Z</time>
      </trkpt>
      <trkpt lat="40.50298095680773258209228515625" lon="-1.58666007220745086669921875">
        <ele>1623.199951171875</ele>
        <time>2022-05-05T07:31:20.000Z</time>
      </trkpt>
      <trkpt lat="40.50289378501474857330322265625" lon="-1.58669385127723217010498046875">
        <ele>1624.4000244140625</ele>
        <time>2022-05-05T07:31:25.000Z</time>
      </trkpt>
      <trkpt lat="40.50285774283111095428466796875" lon="-1.586706675589084625244140625">
        <ele>1624.800048828125</ele>
        <time>2022-05-05T07:31:27.000Z</time>
      </trkpt>
      <trkpt lat="40.5027513764798641204833984375" lon="-1.586753614246845245361328125">
        <ele>1626.4000244140625</ele>
        <time>2022-05-05T07:31:33.000Z</time>
      </trkpt>
      <trkpt lat="40.50264584831893444061279296875" lon="-1.58678605221211910247802734375">
        <ele>1627.199951171875</ele>
        <time>2022-05-05T07:31:38.000Z</time>
      </trkpt>
      <trkpt lat="40.5025240592658519744873046875" lon="-1.58682645298540592193603515625">
        <ele>1628.4000244140625</ele>
        <time>2022-05-05T07:31:44.000Z</time>
      </trkpt>
      <trkpt lat="40.5024650506675243377685546875" lon="-1.58683902584016323089599609375">
        <ele>1628.800048828125</ele>
        <time>2022-05-05T07:31:47.000Z</time>
      </trkpt>
      <trkpt lat="40.5024080537259578704833984375" lon="-1.5868590585887432098388671875">
        <ele>1629.4000244140625</ele>
        <time>2022-05-05T07:31:50.000Z</time>
      </trkpt>
      <trkpt lat="40.50231828354299068450927734375" lon="-1.58687842078506946563720703125">
        <ele>1630</ele>
        <time>2022-05-05T07:31:55.000Z</time>
      </trkpt>
      <trkpt lat="40.50230034627020359039306640625" lon="-1.586883701384067535400390625">
        <ele>1630.199951171875</ele>
        <time>2022-05-05T07:31:56.000Z</time>
      </trkpt>
      <trkpt lat="40.50215600989758968353271484375" lon="-1.5869368426501750946044921875">
        <ele>1631.5999755859375</ele>
        <time>2022-05-05T07:32:01.000Z</time>
      </trkpt>
      <trkpt lat="40.50213371403515338897705078125" lon="-1.58694212324917316436767578125">
        <ele>1632</ele>
        <time>2022-05-05T07:32:02.000Z</time>
      </trkpt>
      <trkpt lat="40.5020013637840747833251953125" lon="-1.58696877770125865936279296875">
        <ele>1633</ele>
        <time>2022-05-05T07:32:08.000Z</time>
      </trkpt>
      <trkpt lat="40.501980073750019073486328125" lon="-1.586970873177051544189453125">
        <ele>1633.199951171875</ele>
        <time>2022-05-05T07:32:09.000Z</time>
      </trkpt>
      <trkpt lat="40.5018639005720615386962890625" lon="-1.586970873177051544189453125">
        <ele>1633.5999755859375</ele>
        <time>2022-05-05T07:32:15.000Z</time>
      </trkpt>
      <trkpt lat="40.50184621475636959075927734375" lon="-1.58696928061544895172119140625">
        <ele>1633.5999755859375</ele>
        <time>2022-05-05T07:32:16.000Z</time>
      </trkpt>
      <trkpt lat="40.50174848176538944244384765625" lon="-1.58697389066219329833984375">
        <ele>1634</ele>
        <time>2022-05-05T07:32:21.000Z</time>
      </trkpt>
      <trkpt lat="40.5016551911830902099609375" lon="-1.5869757346808910369873046875">
        <ele>1634.4000244140625</ele>
        <time>2022-05-05T07:32:26.000Z</time>
      </trkpt>
      <trkpt lat="40.501608587801456451416015625" lon="-1.586983613669872283935546875">
        <ele>1634.800048828125</ele>
        <time>2022-05-05T07:32:28.000Z</time>
      </trkpt>
      <trkpt lat="40.50150523893535137176513671875" lon="-1.5870028920471668243408203125">
        <ele>1635.4000244140625</ele>
        <time>2022-05-05T07:32:33.000Z</time>
      </trkpt>
      <trkpt lat="40.50148545764386653900146484375" lon="-1.58700716681778430938720703125">
        <ele>1635.5999755859375</ele>
        <time>2022-05-05T07:32:34.000Z</time>
      </trkpt>
      <trkpt lat="40.50139107741415500640869140625" lon="-1.58703197725117206573486328125">
        <ele>1636.5999755859375</ele>
        <time>2022-05-05T07:32:39.000Z</time>
      </trkpt>
      <trkpt lat="40.501355789601802825927734375" lon="-1.58704471774399280548095703125">
        <ele>1637</ele>
        <time>2022-05-05T07:32:41.000Z</time>
      </trkpt>
      <trkpt lat="40.50128278322517871856689453125" lon="-1.58708981238305568695068359375">
        <ele>1637.5999755859375</ele>
        <time>2022-05-05T07:32:45.000Z</time>
      </trkpt>
      <trkpt lat="40.501172058284282684326171875" lon="-1.5871960110962390899658203125">
        <ele>1638.800048828125</ele>
        <time>2022-05-05T07:32:52.000Z</time>
      </trkpt>
      <trkpt lat="40.50105647183954715728759765625" lon="-1.58733841963112354278564453125">
        <ele>1641.199951171875</ele>
        <time>2022-05-05T07:33:00.000Z</time>
      </trkpt>
      <trkpt lat="40.50103149376809597015380859375" lon="-1.58737563528120517730712890625">
        <ele>1641.4000244140625</ele>
        <time>2022-05-05T07:33:02.000Z</time>
      </trkpt>
      <trkpt lat="40.50096544437110424041748046875" lon="-1.58748141489923000335693359375">
        <ele>1642.4000244140625</ele>
        <time>2022-05-05T07:33:07.000Z</time>
      </trkpt>
      <trkpt lat="40.50091146491467952728271484375" lon="-1.5875661559402942657470703125">
        <ele>1643.199951171875</ele>
        <time>2022-05-05T07:33:11.000Z</time>
      </trkpt>
      <trkpt lat="40.50087089650332927703857421875" lon="-1.58762239851057529449462890625">
        <ele>1643.5999755859375</ele>
        <time>2022-05-05T07:33:14.000Z</time>
      </trkpt>
      <trkpt lat="40.50080266781151294708251953125" lon="-1.58772759139537811279296875">
        <ele>1644.4000244140625</ele>
        <time>2022-05-05T07:33:19.000Z</time>
      </trkpt>
      <trkpt lat="40.5007893405854701995849609375" lon="-1.58774896524846553802490234375">
        <ele>1644.5999755859375</ele>
        <time>2022-05-05T07:33:20.000Z</time>
      </trkpt>
      <trkpt lat="40.50069630146026611328125" lon="-1.5878985822200775146484375">
        <ele>1645.800048828125</ele>
        <time>2022-05-05T07:33:27.000Z</time>
      </trkpt>
      <trkpt lat="40.500613488256931304931640625" lon="-1.5880274958908557891845703125">
        <ele>1647</ele>
        <time>2022-05-05T07:33:33.000Z</time>
      </trkpt>
      <trkpt lat="40.5006012506783008575439453125" lon="-1.58804937265813350677490234375">
        <ele>1647.199951171875</ele>
        <time>2022-05-05T07:33:34.000Z</time>
      </trkpt>
      <trkpt lat="40.50051449798047542572021484375" lon="-1.588210053741931915283203125">
        <ele>1648.5999755859375</ele>
        <time>2022-05-05T07:33:41.000Z</time>
      </trkpt>
      <trkpt lat="40.500447191298007965087890625" lon="-1.5883389674127101898193359375">
        <ele>1649.5999755859375</ele>
        <time>2022-05-05T07:33:46.000Z</time>
      </trkpt>
      <trkpt lat="40.50038047134876251220703125" lon="-1.58844516612589359283447265625">
        <ele>1650</ele>
        <time>2022-05-05T07:33:50.000Z</time>
      </trkpt>
      <trkpt lat="40.500232614576816558837890625" lon="-1.588633842766284942626953125">
        <ele>1650.199951171875</ele>
        <time>2022-05-05T07:33:57.000Z</time>
      </trkpt>
      <trkpt lat="40.5001888610422611236572265625" lon="-1.58868958242237567901611328125">
        <ele>1650.199951171875</ele>
        <time>2022-05-05T07:33:59.000Z</time>
      </trkpt>
      <trkpt lat="40.49999515525996685028076171875" lon="-1.5889233537018299102783203125">
        <ele>1650.199951171875</ele>
        <time>2022-05-05T07:34:08.000Z</time>
      </trkpt>
      <trkpt lat="40.49988518469035625457763671875" lon="-1.58904883079230785369873046875">
        <ele>1650.199951171875</ele>
        <time>2022-05-05T07:34:13.000Z</time>
      </trkpt>
      <trkpt lat="40.49983841367065906524658203125" lon="-1.58909945748746395111083984375">
        <ele>1650.199951171875</ele>
        <time>2022-05-05T07:34:15.000Z</time>
      </trkpt>
      <trkpt lat="40.49961981363594532012939453125" lon="-1.58937622793018817901611328125">
        <ele>1651</ele>
        <time>2022-05-05T07:34:24.000Z</time>
      </trkpt>
      <trkpt lat="40.49959366209805011749267578125" lon="-1.58941193483769893646240234375">
        <ele>1651.199951171875</ele>
        <time>2022-05-05T07:34:25.000Z</time>
      </trkpt>
      <trkpt lat="40.49938126467168331146240234375" lon="-1.58966037444770336151123046875">
        <ele>1651.5999755859375</ele>
        <time>2022-05-05T07:34:33.000Z</time>
      </trkpt>
      <trkpt lat="40.49933197908103466033935546875" lon="-1.58972525037825107574462890625">
        <ele>1651.800048828125</ele>
        <time>2022-05-05T07:34:35.000Z</time>
      </trkpt>
      <trkpt lat="40.49916501156985759735107421875" lon="-1.5899117477238178253173828125">
        <ele>1652.199951171875</ele>
        <time>2022-05-05T07:34:41.000Z</time>
      </trkpt>
      <trkpt lat="40.4991124570369720458984375" lon="-1.5899663977324962615966796875">
        <ele>1652.5999755859375</ele>
        <time>2022-05-05T07:34:43.000Z</time>
      </trkpt>
      <trkpt lat="40.499004833400249481201171875" lon="-1.59005616791546344757080078125">
        <ele>1652.4000244140625</ele>
        <time>2022-05-05T07:34:47.000Z</time>
      </trkpt>
      <trkpt lat="40.49895043484866619110107421875" lon="-1.59009992145001888275146484375">
        <ele>1652.4000244140625</ele>
        <time>2022-05-05T07:34:49.000Z</time>
      </trkpt>
      <trkpt lat="40.4987237043678760528564453125" lon="-1.59018843434751033782958984375">
        <ele>1652.4000244140625</ele>
        <time>2022-05-05T07:34:56.000Z</time>
      </trkpt>
      <trkpt lat="40.49860862083733081817626953125" lon="-1.59018575213849544525146484375">
        <ele>1652.4000244140625</ele>
        <time>2022-05-05T07:34:59.000Z</time>
      </trkpt>
      <trkpt lat="40.498466379940509796142578125" lon="-1.5901516377925872802734375">
        <ele>1651.5999755859375</ele>
        <time>2022-05-05T07:35:03.000Z</time>
      </trkpt>
      <trkpt lat="40.49824585206806659698486328125" lon="-1.5900347940623760223388671875">
        <ele>1648.800048828125</ele>
        <time>2022-05-05T07:35:09.000Z</time>
      </trkpt>
      <trkpt lat="40.49808575771749019622802734375" lon="-1.58995625562965869903564453125">
        <ele>1646.800048828125</ele>
        <time>2022-05-05T07:35:13.000Z</time>
      </trkpt>
      <trkpt lat="40.49800914712250232696533203125" lon="-1.58991954289376735687255859375">
        <ele>1645.800048828125</ele>
        <time>2022-05-05T07:35:15.000Z</time>
      </trkpt>
      <trkpt lat="40.4979290999472141265869140625" lon="-1.5898825787007808685302734375">
        <ele>1645.800048828125</ele>
        <time>2022-05-05T07:35:17.000Z</time>
      </trkpt>
      <trkpt lat="40.49776908941566944122314453125" lon="-1.5897846780717372894287109375">
        <ele>1645.5999755859375</ele>
        <time>2022-05-05T07:35:21.000Z</time>
      </trkpt>
      <trkpt lat="40.49744018353521823883056640625" lon="-1.589602120220661163330078125">
        <ele>1645.800048828125</ele>
        <time>2022-05-05T07:35:29.000Z</time>
      </trkpt>
      <trkpt lat="40.49735183827579021453857421875" lon="-1.58955157734453678131103515625">
        <ele>1646</ele>
        <time>2022-05-05T07:35:31.000Z</time>
      </trkpt>
      <trkpt lat="40.49713843502104282379150390625" lon="-1.58941025845706462860107421875">
        <ele>1646.5999755859375</ele>
        <time>2022-05-05T07:35:36.000Z</time>
      </trkpt>
      <trkpt lat="40.4970979504287242889404296875" lon="-1.5893763117492198944091796875">
        <ele>1646.5999755859375</ele>
        <time>2022-05-05T07:35:37.000Z</time>
      </trkpt>
      <trkpt lat="40.49690340645611286163330078125" lon="-1.58919987268745899200439453125">
        <ele>1646.199951171875</ele>
        <time>2022-05-05T07:35:42.000Z</time>
      </trkpt>
      <trkpt lat="40.4966620914638042449951171875" lon="-1.5889387764036655426025390625">
        <ele>1644.800048828125</ele>
        <time>2022-05-05T07:35:49.000Z</time>
      </trkpt>
      <trkpt lat="40.49659796990454196929931640625" lon="-1.5888630039989948272705078125">
        <ele>1644.5999755859375</ele>
        <time>2022-05-05T07:35:51.000Z</time>
      </trkpt>
      <trkpt lat="40.4965407215058803558349609375" lon="-1.5887895785272121429443359375">
        <ele>1644.5999755859375</ele>
        <time>2022-05-05T07:35:53.000Z</time>
      </trkpt>
      <trkpt lat="40.49647173844277858734130859375" lon="-1.58872428350150585174560546875">
        <ele>1644.5999755859375</ele>
        <time>2022-05-05T07:35:55.000Z</time>
      </trkpt>
      <trkpt lat="40.4962879233062267303466796875" lon="-1.58856083638966083526611328125">
        <ele>1645.4000244140625</ele>
        <time>2022-05-05T07:36:00.000Z</time>
      </trkpt>
      <trkpt lat="40.4962225444614887237548828125" lon="-1.5885002352297306060791015625">
        <ele>1646</ele>
        <time>2022-05-05T07:36:02.000Z</time>
      </trkpt>
      <trkpt lat="40.49613394774496555328369140625" lon="-1.5884160809218883514404296875">
        <ele>1646.5999755859375</ele>
        <time>2022-05-05T07:36:05.000Z</time>
      </trkpt>
      <trkpt lat="40.4960445128381252288818359375" lon="-1.5883409790694713592529296875">
        <ele>1647</ele>
        <time>2022-05-05T07:36:08.000Z</time>
      </trkpt>
      <trkpt lat="40.4959828220307826995849609375" lon="-1.5882861614227294921875">
        <ele>1647</ele>
        <time>2022-05-05T07:36:10.000Z</time>
      </trkpt>
      <trkpt lat="40.495841167867183685302734375" lon="-1.588169820606708526611328125">
        <ele>1647.199951171875</ele>
        <time>2022-05-05T07:36:15.000Z</time>
      </trkpt>
      <trkpt lat="40.49570672214031219482421875" lon="-1.58808105625212192535400390625">
        <ele>1648.4000244140625</ele>
        <time>2022-05-05T07:36:20.000Z</time>
      </trkpt>
      <trkpt lat="40.4956592805683612823486328125" lon="-1.58804484643042087554931640625">
        <ele>1648.5999755859375</ele>
        <time>2022-05-05T07:36:22.000Z</time>
      </trkpt>
      <trkpt lat="40.4956079833209514617919921875" lon="-1.5880090557038784027099609375">
        <ele>1649</ele>
        <time>2022-05-05T07:36:24.000Z</time>
      </trkpt>
      <trkpt lat="40.4954862780869007110595703125" lon="-1.587915681302547454833984375">
        <ele>1649.4000244140625</ele>
        <time>2022-05-05T07:36:29.000Z</time>
      </trkpt>
      <trkpt lat="40.49546306021511554718017578125" lon="-1.5878985822200775146484375">
        <ele>1649.5999755859375</ele>
        <time>2022-05-05T07:36:30.000Z</time>
      </trkpt>
      <trkpt lat="40.495340935885906219482421875" lon="-1.5878132544457912445068359375">
        <ele>1650.5999755859375</ele>
        <time>2022-05-05T07:36:35.000Z</time>
      </trkpt>
      <trkpt lat="40.495258457958698272705078125" lon="-1.58777008764445781707763671875">
        <ele>1651.4000244140625</ele>
        <time>2022-05-05T07:36:38.000Z</time>
      </trkpt>
      <trkpt lat="40.4952039755880832672119140625" lon="-1.5877324528992176055908203125">
        <ele>1651.800048828125</ele>
        <time>2022-05-05T07:36:40.000Z</time>
      </trkpt>
      <trkpt lat="40.49510833807289600372314453125" lon="-1.58765743486583232879638671875">
        <ele>1652.199951171875</ele>
        <time>2022-05-05T07:36:44.000Z</time>
      </trkpt>
      <trkpt lat="40.49508218653500080108642578125" lon="-1.58763882704079151153564453125">
        <ele>1652.199951171875</ele>
        <time>2022-05-05T07:36:45.000Z</time>
      </trkpt>
      <trkpt lat="40.49493449740111827850341796875" lon="-1.587536819279193878173828125">
        <ele>1652.5999755859375</ele>
        <time>2022-05-05T07:36:51.000Z</time>
      </trkpt>
      <trkpt lat="40.49489191733300685882568359375" lon="-1.58749214373528957366943359375">
        <ele>1652.4000244140625</ele>
        <time>2022-05-05T07:36:53.000Z</time>
      </trkpt>
      <trkpt lat="40.494808517396450042724609375" lon="-1.58741050399839878082275390625">
        <ele>1652</ele>
        <time>2022-05-05T07:36:57.000Z</time>
      </trkpt>
      <trkpt lat="40.49478647299110889434814453125" lon="-1.5873928181827068328857421875">
        <ele>1652</ele>
        <time>2022-05-05T07:36:58.000Z</time>
      </trkpt>
      <trkpt lat="40.4947235248982906341552734375" lon="-1.5873374976217746734619140625">
        <ele>1652</ele>
        <time>2022-05-05T07:37:01.000Z</time>
      </trkpt>
      <trkpt lat="40.494676418602466583251953125" lon="-1.587291397154331207275390625">
        <ele>1652.199951171875</ele>
        <time>2022-05-05T07:37:03.000Z</time>
      </trkpt>
      <trkpt lat="40.49462989903986454010009765625" lon="-1.58724638633430004119873046875">
        <ele>1652.5999755859375</ele>
        <time>2022-05-05T07:37:05.000Z</time>
      </trkpt>
      <trkpt lat="40.49456971697509288787841796875" lon="-1.58718436025083065032958984375">
        <ele>1653.199951171875</ele>
        <time>2022-05-05T07:37:08.000Z</time>
      </trkpt>
      <trkpt lat="40.49450433813035488128662109375" lon="-1.58711663447320461273193359375">
        <ele>1654</ele>
        <time>2022-05-05T07:37:11.000Z</time>
      </trkpt>
      <trkpt lat="40.49442219547927379608154296875" lon="-1.58702409826219081878662109375">
        <ele>1654.5999755859375</ele>
        <time>2022-05-05T07:37:15.000Z</time>
      </trkpt>
      <trkpt lat="40.4943828843533992767333984375" lon="-1.58697120845317840576171875">
        <ele>1655</ele>
        <time>2022-05-05T07:37:17.000Z</time>
      </trkpt>
      <trkpt lat="40.4942983947694301605224609375" lon="-1.58686551265418529510498046875">
        <ele>1655.5999755859375</ele>
        <time>2022-05-05T07:37:21.000Z</time>
      </trkpt>
      <trkpt lat="40.4942576587200164794921875" lon="-1.58680767752230167388916015625">
        <ele>1655.199951171875</ele>
        <time>2022-05-05T07:37:23.000Z</time>
      </trkpt>
      <trkpt lat="40.49414592795073986053466796875" lon="-1.58655923791229724884033203125">
        <ele>1652.5999755859375</ele>
        <time>2022-05-05T07:37:30.000Z</time>
      </trkpt>
      <trkpt lat="40.494127906858921051025390625" lon="-1.586323119699954986572265625">
        <ele>1652.800048828125</ele>
        <time>2022-05-05T07:37:36.000Z</time>
      </trkpt>
      <trkpt lat="40.49415498040616512298583984375" lon="-1.586159169673919677734375">
        <ele>1652.800048828125</ele>
        <time>2022-05-05T07:37:40.000Z</time>
      </trkpt>
      <trkpt lat="40.49419454298913478851318359375" lon="-1.58603285439312458038330078125">
        <ele>1652.5999755859375</ele>
        <time>2022-05-05T07:37:43.000Z</time>
      </trkpt>
      <trkpt lat="40.49424936063587665557861328125" lon="-1.5858927927911281585693359375">
        <ele>1652</ele>
        <time>2022-05-05T07:37:47.000Z</time>
      </trkpt>
      <trkpt lat="40.49429210834205150604248046875" lon="-1.5858300961554050445556640625">
        <ele>1651.4000244140625</ele>
        <time>2022-05-05T07:37:49.000Z</time>
      </trkpt>
      <trkpt lat="40.4944492690265178680419921875" lon="-1.58564862795174121856689453125">
        <ele>1649.800048828125</ele>
        <time>2022-05-05T07:37:55.000Z</time>
      </trkpt>
      <trkpt lat="40.49447667784988880157470703125" lon="-1.58561945892870426177978515625">
        <ele>1649.800048828125</ele>
        <time>2022-05-05T07:37:56.000Z</time>
      </trkpt>
      <trkpt lat="40.49460232257843017578125" lon="-1.58547914586961269378662109375">
        <ele>1649.5999755859375</ele>
        <time>2022-05-05T07:38:01.000Z</time>
      </trkpt>
      <trkpt lat="40.49468153156340122222900390625" lon="-1.5853969193994998931884765625">
        <ele>1649.4000244140625</ele>
        <time>2022-05-05T07:38:04.000Z</time>
      </trkpt>
      <trkpt lat="40.4948090203106403350830078125" lon="-1.58523959107697010040283203125">
        <ele>1647.800048828125</ele>
        <time>2022-05-05T07:38:09.000Z</time>
      </trkpt>
      <trkpt lat="40.49490650184452533721923828125" lon="-1.58510531298816204071044921875">
        <ele>1647</ele>
        <time>2022-05-05T07:38:13.000Z</time>
      </trkpt>
      <trkpt lat="40.49506139941513538360595703125" lon="-1.584838517010211944580078125">
        <ele>1646.199951171875</ele>
        <time>2022-05-05T07:38:20.000Z</time>
      </trkpt>
      <trkpt lat="40.49510766752064228057861328125" lon="-1.58475360833108425140380859375">
        <ele>1645.800048828125</ele>
        <time>2022-05-05T07:38:22.000Z</time>
      </trkpt>
      <trkpt lat="40.49524077214300632476806640625" lon="-1.584442220628261566162109375">
        <ele>1645</ele>
        <time>2022-05-05T07:38:29.000Z</time>
      </trkpt>
      <trkpt lat="40.49527622759342193603515625" lon="-1.58430534414947032928466796875">
        <ele>1645.4000244140625</ele>
        <time>2022-05-05T07:38:32.000Z</time>
      </trkpt>
      <trkpt lat="40.49529927782714366912841796875" lon="-1.584170646965503692626953125">
        <ele>1646</ele>
        <time>2022-05-05T07:38:35.000Z</time>
      </trkpt>
      <trkpt lat="40.4953075759112834930419921875" lon="-1.58412513323128223419189453125">
        <ele>1646.199951171875</ele>
        <time>2022-05-05T07:38:36.000Z</time>
      </trkpt>
      <trkpt lat="40.49533389508724212646484375" lon="-1.583889685571193695068359375">
        <ele>1648.4000244140625</ele>
        <time>2022-05-05T07:38:41.000Z</time>
      </trkpt>
      <trkpt lat="40.49534470774233341217041015625" lon="-1.583648957312107086181640625">
        <ele>1651.5999755859375</ele>
        <time>2022-05-05T07:38:46.000Z</time>
      </trkpt>
      <trkpt lat="40.4953444562852382659912109375" lon="-1.58351241610944271087646484375">
        <ele>1653.4000244140625</ele>
        <time>2022-05-05T07:38:49.000Z</time>
      </trkpt>
      <trkpt lat="40.49532995559275150299072265625" lon="-1.583338491618633270263671875">
        <ele>1656.4000244140625</ele>
        <time>2022-05-05T07:38:53.000Z</time>
      </trkpt>
      <trkpt lat="40.49528972245752811431884765625" lon="-1.58314025960862636566162109375">
        <ele>1658.199951171875</ele>
        <time>2022-05-05T07:38:58.000Z</time>
      </trkpt>
      <trkpt lat="40.4952787421643733978271484375" lon="-1.58310505561530590057373046875">
        <ele>1658.4000244140625</ele>
        <time>2022-05-05T07:38:59.000Z</time>
      </trkpt>
      <trkpt lat="40.49523331224918365478515625" lon="-1.5829282812774181365966796875">
        <ele>1659.800048828125</ele>
        <time>2022-05-05T07:39:04.000Z</time>
      </trkpt>
      <trkpt lat="40.495186708867549896240234375" lon="-1.5827505849301815032958984375">
        <ele>1661</ele>
        <time>2022-05-05T07:39:09.000Z</time>
      </trkpt>
      <trkpt lat="40.4951749742031097412109375" lon="-1.58271596767008304595947265625">
        <ele>1661.4000244140625</ele>
        <time>2022-05-05T07:39:10.000Z</time>
      </trkpt>
      <trkpt lat="40.4951446317136287689208984375" lon="-1.58258621580898761749267578125">
        <ele>1661.800048828125</ele>
        <time>2022-05-05T07:39:14.000Z</time>
      </trkpt>
      <trkpt lat="40.495114959776401519775390625" lon="-1.5824912488460540771484375">
        <ele>1662.199951171875</ele>
        <time>2022-05-05T07:39:17.000Z</time>
      </trkpt>
      <trkpt lat="40.4950956813991069793701171875" lon="-1.582428552210330963134765625">
        <ele>1662.4000244140625</ele>
        <time>2022-05-05T07:39:19.000Z</time>
      </trkpt>
      <trkpt lat="40.49505972303450107574462890625" lon="-1.5822657756507396697998046875">
        <ele>1662.800048828125</ele>
        <time>2022-05-05T07:39:24.000Z</time>
      </trkpt>
      <trkpt lat="40.49502586014568805694580078125" lon="-1.58213325776159763336181640625">
        <ele>1663.199951171875</ele>
        <time>2022-05-05T07:39:28.000Z</time>
      </trkpt>
      <trkpt lat="40.49501001834869384765625" lon="-1.58206771127879619598388671875">
        <ele>1663.4000244140625</ele>
        <time>2022-05-05T07:39:30.000Z</time>
      </trkpt>
      <trkpt lat="40.4949779994785785675048828125" lon="-1.5819070301949977874755859375">
        <ele>1663.5999755859375</ele>
        <time>2022-05-05T07:39:35.000Z</time>
      </trkpt>
      <trkpt lat="40.494954027235507965087890625" lon="-1.5818161703646183013916015625">
        <ele>1663.800048828125</ele>
        <time>2022-05-05T07:39:38.000Z</time>
      </trkpt>
      <trkpt lat="40.49492846243083477020263671875" lon="-1.5817269869148731231689453125">
        <ele>1664.199951171875</ele>
        <time>2022-05-05T07:39:41.000Z</time>
      </trkpt>
      <trkpt lat="40.4948854632675647735595703125" lon="-1.58160620369017124176025390625">
        <ele>1664.5999755859375</ele>
        <time>2022-05-05T07:39:45.000Z</time>
      </trkpt>
      <trkpt lat="40.49485838972032070159912109375" lon="-1.58155172131955623626708984375">
        <ele>1665</ele>
        <time>2022-05-05T07:39:47.000Z</time>
      </trkpt>
      <trkpt lat="40.494776330888271331787109375" lon="-1.58142968080937862396240234375">
        <ele>1666</ele>
        <time>2022-05-05T07:39:52.000Z</time>
      </trkpt>
      <trkpt lat="40.4946916736662387847900390625" lon="-1.5813244879245758056640625">
        <ele>1667</ele>
        <time>2022-05-05T07:39:57.000Z</time>
      </trkpt>
      <trkpt lat="40.49462403170764446258544921875" lon="-1.58125097863376140594482421875">
        <ele>1667.800048828125</ele>
        <time>2022-05-05T07:40:01.000Z</time>
      </trkpt>
      <trkpt lat="40.494587235152721405029296875" lon="-1.5812203846871852874755859375">
        <ele>1668.199951171875</ele>
        <time>2022-05-05T07:40:03.000Z</time>
      </trkpt>
      <trkpt lat="40.4945129714906215667724609375" lon="-1.5811436064541339874267578125">
        <ele>1669.199951171875</ele>
        <time>2022-05-05T07:40:07.000Z</time>
      </trkpt>
      <trkpt lat="40.494492687284946441650390625" lon="-1.5811258368194103240966796875">
        <ele>1669.5999755859375</ele>
        <time>2022-05-05T07:40:08.000Z</time>
      </trkpt>
      <trkpt lat="40.4943885840475559234619140625" lon="-1.58101410605013370513916015625">
        <ele>1670.800048828125</ele>
        <time>2022-05-05T07:40:14.000Z</time>
      </trkpt>
      <trkpt lat="40.4942853190004825592041015625" lon="-1.58090807497501373291015625">
        <ele>1671</ele>
        <time>2022-05-05T07:40:20.000Z</time>
      </trkpt>
      <trkpt lat="40.494248606264591217041015625" lon="-1.58086976967751979827880859375">
        <ele>1670.800048828125</ele>
        <time>2022-05-05T07:40:22.000Z</time>
      </trkpt>
      <trkpt lat="40.494180880486965179443359375" lon="-1.58078829757869243621826171875">
        <ele>1670.4000244140625</ele>
        <time>2022-05-05T07:40:26.000Z</time>
      </trkpt>
      <trkpt lat="40.4941629432141780853271484375" lon="-1.58076918683946132659912109375">
        <ele>1670.4000244140625</ele>
        <time>2022-05-05T07:40:27.000Z</time>
      </trkpt>
      <trkpt lat="40.49410770647227764129638671875" lon="-1.58071319572627544403076171875">
        <ele>1670</ele>
        <time>2022-05-05T07:40:30.000Z</time>
      </trkpt>
      <trkpt lat="40.4939845763146877288818359375" lon="-1.58058352768421173095703125">
        <ele>1669.5999755859375</ele>
        <time>2022-05-05T07:40:37.000Z</time>
      </trkpt>
      <trkpt lat="40.49394811503589153289794921875" lon="-1.5805493295192718505859375">
        <ele>1669.4000244140625</ele>
        <time>2022-05-05T07:40:39.000Z</time>
      </trkpt>
      <trkpt lat="40.49387879669666290283203125" lon="-1.58047565259039402008056640625">
        <ele>1669.4000244140625</ele>
        <time>2022-05-05T07:40:43.000Z</time>
      </trkpt>
      <trkpt lat="40.4937616176903247833251953125" lon="-1.58037641085684299468994140625">
        <ele>1670.5999755859375</ele>
        <time>2022-05-05T07:40:49.000Z</time>
      </trkpt>
      <trkpt lat="40.49363630823791027069091796875" lon="-1.5802789293229579925537109375">
        <ele>1672.800048828125</ele>
        <time>2022-05-05T07:40:56.000Z</time>
      </trkpt>
      <trkpt lat="40.493574030697345733642578125" lon="-1.580235846340656280517578125">
        <ele>1674</ele>
        <time>2022-05-05T07:40:59.000Z</time>
      </trkpt>
      <trkpt lat="40.4935326240956783294677734375" lon="-1.5802101977169513702392578125">
        <ele>1674.800048828125</ele>
        <time>2022-05-05T07:41:01.000Z</time>
      </trkpt>
      <trkpt lat="40.49341921694576740264892578125" lon="-1.5801418013870716094970703125">
        <ele>1676.199951171875</ele>
        <time>2022-05-05T07:41:07.000Z</time>
      </trkpt>
      <trkpt lat="40.49339893274009227752685546875" lon="-1.5801314078271389007568359375">
        <ele>1676.4000244140625</ele>
        <time>2022-05-05T07:41:08.000Z</time>
      </trkpt>
      <trkpt lat="40.49325509928166866302490234375" lon="-1.5800611674785614013671875">
        <ele>1678</ele>
        <time>2022-05-05T07:41:15.000Z</time>
      </trkpt>
      <trkpt lat="40.49321251921355724334716796875" lon="-1.58004750497639179229736328125">
        <ele>1678.5999755859375</ele>
        <time>2022-05-05T07:41:17.000Z</time>
      </trkpt>
      <trkpt lat="40.49314630217850208282470703125" lon="-1.58001800067722797393798828125">
        <ele>1679.199951171875</ele>
        <time>2022-05-05T07:41:20.000Z</time>
      </trkpt>
      <trkpt lat="40.49304672516882419586181640625" lon="-1.579965613782405853271484375">
        <ele>1680.199951171875</ele>
        <time>2022-05-05T07:41:25.000Z</time>
      </trkpt>
      <trkpt lat="40.49302744679152965545654296875" lon="-1.579955555498600006103515625">
        <ele>1680.4000244140625</ele>
        <time>2022-05-05T07:41:26.000Z</time>
      </trkpt>
      <trkpt lat="40.49288813956081867218017578125" lon="-1.57988405786454677581787109375">
        <ele>1681.4000244140625</ele>
        <time>2022-05-05T07:41:33.000Z</time>
      </trkpt>
      <trkpt lat="40.49276475794613361358642578125" lon="-1.57982136122882366180419921875">
        <ele>1682.5999755859375</ele>
        <time>2022-05-05T07:41:39.000Z</time>
      </trkpt>
      <trkpt lat="40.49272703938186168670654296875" lon="-1.57979705370962619781494140625">
        <ele>1683</ele>
        <time>2022-05-05T07:41:41.000Z</time>
      </trkpt>
      <trkpt lat="40.49264741130173206329345703125" lon="-1.57975204288959503173828125">
        <ele>1683.5999755859375</ele>
        <time>2022-05-05T07:41:45.000Z</time>
      </trkpt>
      <trkpt lat="40.49260868690907955169677734375" lon="-1.579730920493602752685546875">
        <ele>1684</ele>
        <time>2022-05-05T07:41:47.000Z</time>
      </trkpt>
      <trkpt lat="40.49251330085098743438720703125" lon="-1.579684652388095855712890625">
        <ele>1685</ele>
        <time>2022-05-05T07:41:52.000Z</time>
      </trkpt>
      <trkpt lat="40.4924754984676837921142578125" lon="-1.579663865268230438232421875">
        <ele>1685.4000244140625</ele>
        <time>2022-05-05T07:41:54.000Z</time>
      </trkpt>
      <trkpt lat="40.4924151487648487091064453125" lon="-1.57963343895971775054931640625">
        <ele>1686</ele>
        <time>2022-05-05T07:41:57.000Z</time>
      </trkpt>
      <trkpt lat="40.4923383705317974090576171875" lon="-1.57958985306322574615478515625">
        <ele>1686.800048828125</ele>
        <time>2022-05-05T07:42:01.000Z</time>
      </trkpt>
      <trkpt lat="40.4922847263514995574951171875" lon="-1.57955531962215900421142578125">
        <ele>1687.4000244140625</ele>
        <time>2022-05-05T07:42:04.000Z</time>
      </trkpt>
      <trkpt lat="40.49222697503864765167236328125" lon="-1.579521708190441131591796875">
        <ele>1688</ele>
        <time>2022-05-05T07:42:07.000Z</time>
      </trkpt>
      <trkpt lat="40.492149777710437774658203125" lon="-1.57947418279945850372314453125">
        <ele>1688.800048828125</ele>
        <time>2022-05-05T07:42:11.000Z</time>
      </trkpt>
      <trkpt lat="40.49208850599825382232666015625" lon="-1.57943478785455226898193359375">
        <ele>1689.4000244140625</ele>
        <time>2022-05-05T07:42:14.000Z</time>
      </trkpt>
      <trkpt lat="40.49202932976186275482177734375" lon="-1.57939120195806026458740234375">
        <ele>1689.800048828125</ele>
        <time>2022-05-05T07:42:17.000Z</time>
      </trkpt>
      <trkpt lat="40.49196076579391956329345703125" lon="-1.57933336682617664337158203125">
        <ele>1690.199951171875</ele>
        <time>2022-05-05T07:42:21.000Z</time>
      </trkpt>
      <trkpt lat="40.4919256456196308135986328125" lon="-1.57930419780313968658447265625">
        <ele>1690.5999755859375</ele>
        <time>2022-05-05T07:42:23.000Z</time>
      </trkpt>
      <trkpt lat="40.4918361268937587738037109375" lon="-1.57922490499913692474365234375">
        <ele>1690.800048828125</ele>
        <time>2022-05-05T07:42:28.000Z</time>
      </trkpt>
      <trkpt lat="40.4918181896209716796875" lon="-1.57920780591666698455810546875">
        <ele>1690.800048828125</ele>
        <time>2022-05-05T07:42:29.000Z</time>
      </trkpt>
      <trkpt lat="40.4917268268764019012451171875" lon="-1.5791228972375392913818359375">
        <ele>1691</ele>
        <time>2022-05-05T07:42:34.000Z</time>
      </trkpt>
      <trkpt lat="40.49168684519827365875244140625" lon="-1.57909079454839229583740234375">
        <ele>1691</ele>
        <time>2022-05-05T07:42:36.000Z</time>
      </trkpt>
      <trkpt lat="40.4916158504784107208251953125" lon="-1.579026170074939727783203125">
        <ele>1691.199951171875</ele>
        <time>2022-05-05T07:42:40.000Z</time>
      </trkpt>
      <trkpt lat="40.49154661595821380615234375" lon="-1.57895986922085285186767578125">
        <ele>1691.199951171875</ele>
        <time>2022-05-05T07:42:44.000Z</time>
      </trkpt>
      <trkpt lat="40.4915078915655612945556640625" lon="-1.5789277665317058563232421875">
        <ele>1691.4000244140625</ele>
        <time>2022-05-05T07:42:46.000Z</time>
      </trkpt>
      <trkpt lat="40.49139364622533321380615234375" lon="-1.57883363775908946990966796875">
        <ele>1691.800048828125</ele>
        <time>2022-05-05T07:42:52.000Z</time>
      </trkpt>
      <trkpt lat="40.4913747869431972503662109375" lon="-1.5788177959620952606201171875">
        <ele>1691.800048828125</ele>
        <time>2022-05-05T07:42:53.000Z</time>
      </trkpt>
      <trkpt lat="40.491283424198627471923828125" lon="-1.5787373296916484832763671875">
        <ele>1692.199951171875</ele>
        <time>2022-05-05T07:42:58.000Z</time>
      </trkpt>
      <trkpt lat="40.4911756329238414764404296875" lon="-1.57863699831068515777587890625">
        <ele>1692.800048828125</ele>
        <time>2022-05-05T07:43:04.000Z</time>
      </trkpt>
      <trkpt lat="40.49115677364170551300048828125" lon="-1.578619815409183502197265625">
        <ele>1693</ele>
        <time>2022-05-05T07:43:05.000Z</time>
      </trkpt>
      <trkpt lat="40.491078235208988189697265625" lon="-1.57855502329766750335693359375">
        <ele>1693.5999755859375</ele>
        <time>2022-05-05T07:43:09.000Z</time>
      </trkpt>
      <trkpt lat="40.49094446003437042236328125" lon="-1.57844102941453456878662109375">
        <ele>1694.4000244140625</ele>
        <time>2022-05-05T07:43:16.000Z</time>
      </trkpt>
      <trkpt lat="40.4908349923789501190185546875" lon="-1.57833809964358806610107421875">
        <ele>1695</ele>
        <time>2022-05-05T07:43:22.000Z</time>
      </trkpt>
      <trkpt lat="40.49075813032686710357666015625" lon="-1.57827674411237239837646484375">
        <ele>1695.5999755859375</ele>
        <time>2022-05-05T07:43:26.000Z</time>
      </trkpt>
      <trkpt lat="40.4907198250293731689453125" lon="-1.57824690453708171844482421875">
        <ele>1696</ele>
        <time>2022-05-05T07:43:28.000Z</time>
      </trkpt>
      <trkpt lat="40.49062150530517101287841796875" lon="-1.5781688690185546875">
        <ele>1696.800048828125</ele>
        <time>2022-05-05T07:43:33.000Z</time>
      </trkpt>
      <trkpt lat="40.49060222692787647247314453125" lon="-1.57815478742122650146484375">
        <ele>1697</ele>
        <time>2022-05-05T07:43:34.000Z</time>
      </trkpt>
      <trkpt lat="40.4905111156404018402099609375" lon="-1.5780795179307460784912109375">
        <ele>1698.199951171875</ele>
        <time>2022-05-05T07:43:39.000Z</time>
      </trkpt>
      <trkpt lat="40.490397624671459197998046875" lon="-1.577994860708713531494140625">
        <ele>1699.800048828125</ele>
        <time>2022-05-05T07:43:45.000Z</time>
      </trkpt>
      <trkpt lat="40.49026007764041423797607421875" lon="-1.57788782380521297454833984375">
        <ele>1701.5999755859375</ele>
        <time>2022-05-05T07:43:52.000Z</time>
      </trkpt>
      <trkpt lat="40.4902003146708011627197265625" lon="-1.577839963138103485107421875">
        <ele>1702.4000244140625</ele>
        <time>2022-05-05T07:43:55.000Z</time>
      </trkpt>
      <trkpt lat="40.49014122225344181060791015625" lon="-1.57779612578451633453369140625">
        <ele>1703.199951171875</ele>
        <time>2022-05-05T07:43:58.000Z</time>
      </trkpt>
      <trkpt lat="40.4900504462420940399169921875" lon="-1.57771666534245014190673828125">
        <ele>1704.199951171875</ele>
        <time>2022-05-05T07:44:03.000Z</time>
      </trkpt>
      <trkpt lat="40.49003175459802150726318359375" lon="-1.57770040445029735565185546875">
        <ele>1704.199951171875</ele>
        <time>2022-05-05T07:44:04.000Z</time>
      </trkpt>
      <trkpt lat="40.489928238093852996826171875" lon="-1.5776205249130725860595703125">
        <ele>1705.199951171875</ele>
        <time>2022-05-05T07:44:10.000Z</time>
      </trkpt>
      <trkpt lat="40.48989261500537395477294921875" lon="-1.5775933675467967987060546875">
        <ele>1705.5999755859375</ele>
        <time>2022-05-05T07:44:12.000Z</time>
      </trkpt>
      <trkpt lat="40.4898159205913543701171875" lon="-1.57751516439020633697509765625">
        <ele>1706</ele>
        <time>2022-05-05T07:44:17.000Z</time>
      </trkpt>
      <trkpt lat="40.4897201992571353912353515625" lon="-1.5774243883788585662841796875">
        <ele>1706.800048828125</ele>
        <time>2022-05-05T07:44:23.000Z</time>
      </trkpt>
      <trkpt lat="40.48961810767650604248046875" lon="-1.57733512111008167266845703125">
        <ele>1707.4000244140625</ele>
        <time>2022-05-05T07:44:29.000Z</time>
      </trkpt>
      <trkpt lat="40.4894938878715038299560546875" lon="-1.57723747193813323974609375">
        <ele>1708</ele>
        <time>2022-05-05T07:44:36.000Z</time>
      </trkpt>
      <trkpt lat="40.48947502858936786651611328125" lon="-1.57722280360758304595947265625">
        <ele>1708.199951171875</ele>
        <time>2022-05-05T07:44:37.000Z</time>
      </trkpt>
      <trkpt lat="40.489369668066501617431640625" lon="-1.57714761793613433837890625">
        <ele>1708.5999755859375</ele>
        <time>2022-05-05T07:44:43.000Z</time>
      </trkpt>
      <trkpt lat="40.48935332335531711578369140625" lon="-1.57713680528104305267333984375">
        <ele>1708.800048828125</ele>
        <time>2022-05-05T07:44:44.000Z</time>
      </trkpt>
      <trkpt lat="40.48926129005849361419677734375" lon="-1.57706941477954387664794921875">
        <ele>1709.199951171875</ele>
        <time>2022-05-05T07:44:50.000Z</time>
      </trkpt>
      <trkpt lat="40.48881570808589458465576171875" lon="-1.5767752937972545623779296875">
        <ele>1713.5999755859375</ele>
        <time>2022-05-05T07:48:47.000Z</time>
      </trkpt>
      <trkpt lat="40.488771535456180572509765625" lon="-1.57675056718289852142333984375">
        <ele>1713.5999755859375</ele>
        <time>2022-05-05T07:48:49.000Z</time>
      </trkpt>
      <trkpt lat="40.4886781610548496246337890625" lon="-1.576690636575222015380859375">
        <ele>1713.4000244140625</ele>
        <time>2022-05-05T07:48:54.000Z</time>
      </trkpt>
      <trkpt lat="40.48850809223949909210205078125" lon="-1.57659013755619525909423828125">
        <ele>1713.5999755859375</ele>
        <time>2022-05-05T07:49:02.000Z</time>
      </trkpt>
      <trkpt lat="40.488371215760707855224609375" lon="-1.576503217220306396484375">
        <ele>1713.5999755859375</ele>
        <time>2022-05-05T07:49:08.000Z</time>
      </trkpt>
      <trkpt lat="40.4882121272385120391845703125" lon="-1.57640053890645503997802734375">
        <ele>1713.199951171875</ele>
        <time>2022-05-05T07:49:14.000Z</time>
      </trkpt>
      <trkpt lat="40.488023199141025543212890625" lon="-1.5762780793011188507080078125">
        <ele>1713.199951171875</ele>
        <time>2022-05-05T07:49:20.000Z</time>
      </trkpt>
      <trkpt lat="40.48776696436107158660888671875" lon="-1.57614623196423053741455078125">
        <ele>1712.4000244140625</ele>
        <time>2022-05-05T07:49:26.000Z</time>
      </trkpt>
      <trkpt lat="40.4874285869300365447998046875" lon="-1.5760380215942859649658203125">
        <ele>1711.800048828125</ele>
        <time>2022-05-05T07:49:33.000Z</time>
      </trkpt>
      <trkpt lat="40.487323142588138580322265625" lon="-1.57601430080831050872802734375">
        <ele>1711.800048828125</ele>
        <time>2022-05-05T07:49:35.000Z</time>
      </trkpt>
      <trkpt lat="40.48708199523389339447021484375" lon="-1.57597272656857967376708984375">
        <ele>1711.5999755859375</ele>
        <time>2022-05-05T07:49:39.000Z</time>
      </trkpt>
      <trkpt lat="40.4868837632238864898681640625" lon="-1.5759565494954586029052734375">
        <ele>1711.4000244140625</ele>
        <time>2022-05-05T07:49:42.000Z</time>
      </trkpt>
      <trkpt lat="40.48667144961655139923095703125" lon="-1.5759759955108165740966796875">
        <ele>1711.5999755859375</ele>
        <time>2022-05-05T07:49:45.000Z</time>
      </trkpt>
      <trkpt lat="40.4865972697734832763671875" lon="-1.575997956097126007080078125">
        <ele>1711.800048828125</ele>
        <time>2022-05-05T07:49:46.000Z</time>
      </trkpt>
      <trkpt lat="40.48637188039720058441162109375" lon="-1.5760990418493747711181640625">
        <ele>1712.4000244140625</ele>
        <time>2022-05-05T07:49:49.000Z</time>
      </trkpt>
      <trkpt lat="40.48614053986966609954833984375" lon="-1.57624145038425922393798828125">
        <ele>1711.199951171875</ele>
        <time>2022-05-05T07:49:52.000Z</time>
      </trkpt>
      <trkpt lat="40.48597164452075958251953125" lon="-1.57635544426739215850830078125">
        <ele>1710</ele>
        <time>2022-05-05T07:49:54.000Z</time>
      </trkpt>
      <trkpt lat="40.4858819581568241119384765625" lon="-1.57641931436955928802490234375">
        <ele>1709.4000244140625</ele>
        <time>2022-05-05T07:49:55.000Z</time>
      </trkpt>
      <trkpt lat="40.48569738864898681640625" lon="-1.57654437236487865447998046875">
        <ele>1708.199951171875</ele>
        <time>2022-05-05T07:49:57.000Z</time>
      </trkpt>
      <trkpt lat="40.48550452105700969696044921875" lon="-1.57668267376720905303955078125">
        <ele>1707.4000244140625</ele>
        <time>2022-05-05T07:49:59.000Z</time>
      </trkpt>
      <trkpt lat="40.48531341366469860076904296875" lon="-1.576818712055683135986328125">
        <ele>1706.4000244140625</ele>
        <time>2022-05-05T07:50:01.000Z</time>
      </trkpt>
      <trkpt lat="40.485211908817291259765625" lon="-1.5768881142139434814453125">
        <ele>1705.800048828125</ele>
        <time>2022-05-05T07:50:02.000Z</time>
      </trkpt>
      <trkpt lat="40.48511333763599395751953125" lon="-1.57695206813514232635498046875">
        <ele>1705</ele>
        <time>2022-05-05T07:50:03.000Z</time>
      </trkpt>
      <trkpt lat="40.48491041176021099090576171875" lon="-1.57708282582461833953857421875">
        <ele>1703.800048828125</ele>
        <time>2022-05-05T07:50:05.000Z</time>
      </trkpt>
      <trkpt lat="40.48460765741765499114990234375" lon="-1.5773057006299495697021484375">
        <ele>1701.5999755859375</ele>
        <time>2022-05-05T07:50:08.000Z</time>
      </trkpt>
      <trkpt lat="40.4845076613128185272216796875" lon="-1.5773950517177581787109375">
        <ele>1700.5999755859375</ele>
        <time>2022-05-05T07:50:09.000Z</time>
      </trkpt>
      <trkpt lat="40.48440515063703060150146484375" lon="-1.5774901024997234344482421875">
        <ele>1699.5999755859375</ele>
        <time>2022-05-05T07:50:10.000Z</time>
      </trkpt>
      <trkpt lat="40.48430523835122585296630859375" lon="-1.5775854885578155517578125">
        <ele>1698.5999755859375</ele>
        <time>2022-05-05T07:50:11.000Z</time>
      </trkpt>
      <trkpt lat="40.48410256393253803253173828125" lon="-1.57778154127299785614013671875">
        <ele>1697</ele>
        <time>2022-05-05T07:50:13.000Z</time>
      </trkpt>
      <trkpt lat="40.48390366137027740478515625" lon="-1.577978096902370452880859375">
        <ele>1695.199951171875</ele>
        <time>2022-05-05T07:50:15.000Z</time>
      </trkpt>
      <trkpt lat="40.483704507350921630859375" lon="-1.57817046158015727996826171875">
        <ele>1694</ele>
        <time>2022-05-05T07:50:17.000Z</time>
      </trkpt>
      <trkpt lat="40.4834917746484279632568359375" lon="-1.57833692617714405059814453125">
        <ele>1693</ele>
        <time>2022-05-05T07:50:19.000Z</time>
      </trkpt>
      <trkpt lat="40.48338331282138824462890625" lon="-1.5783976949751377105712890625">
        <ele>1692.199951171875</ele>
        <time>2022-05-05T07:50:20.000Z</time>
      </trkpt>
      <trkpt lat="40.48327527008950710296630859375" lon="-1.5784483216702938079833984375">
        <ele>1691.199951171875</ele>
        <time>2022-05-05T07:50:21.000Z</time>
      </trkpt>
      <trkpt lat="40.4830567538738250732421875" lon="-1.5785281173884868621826171875">
        <ele>1689</ele>
        <time>2022-05-05T07:50:23.000Z</time>
      </trkpt>
      <trkpt lat="40.48295407555997371673583984375" lon="-1.5785539336502552032470703125">
        <ele>1688</ele>
        <time>2022-05-05T07:50:24.000Z</time>
      </trkpt>
      <trkpt lat="40.48275944776833057403564453125" lon="-1.57858670689165592193603515625">
        <ele>1686</ele>
        <time>2022-05-05T07:50:26.000Z</time>
      </trkpt>
      <trkpt lat="40.4825739562511444091796875" lon="-1.578558795154094696044921875">
        <ele>1683.5999755859375</ele>
        <time>2022-05-05T07:50:28.000Z</time>
      </trkpt>
      <trkpt lat="40.48248502425849437713623046875" lon="-1.57852493226528167724609375">
        <ele>1682.199951171875</ele>
        <time>2022-05-05T07:50:29.000Z</time>
      </trkpt>
      <trkpt lat="40.482297353446483612060546875" lon="-1.5784406103193759918212890625">
        <ele>1679.199951171875</ele>
        <time>2022-05-05T07:50:31.000Z</time>
      </trkpt>
      <trkpt lat="40.48220121301710605621337890625" lon="-1.57838101498782634735107421875">
        <ele>1677.5999755859375</ele>
        <time>2022-05-05T07:50:32.000Z</time>
      </trkpt>
      <trkpt lat="40.4821084253489971160888671875" lon="-1.57832016237080097198486328125">
        <ele>1676.199951171875</ele>
        <time>2022-05-05T07:50:33.000Z</time>
      </trkpt>
      <trkpt lat="40.4819025658071041107177734375" lon="-1.57821220345795154571533203125">
        <ele>1673.800048828125</ele>
        <time>2022-05-05T07:50:35.000Z</time>
      </trkpt>
      <trkpt lat="40.4816772602498531341552734375" lon="-1.57813106663525104522705078125">
        <ele>1671.5999755859375</ele>
        <time>2022-05-05T07:50:37.000Z</time>
      </trkpt>
      <trkpt lat="40.48144139349460601806640625" lon="-1.57807373441755771636962890625">
        <ele>1669.800048828125</ele>
        <time>2022-05-05T07:50:39.000Z</time>
      </trkpt>
      <trkpt lat="40.4811991564929485321044921875" lon="-1.5780386142432689666748046875">
        <ele>1667.5999755859375</ele>
        <time>2022-05-05T07:50:41.000Z</time>
      </trkpt>
      <trkpt lat="40.48107795417308807373046875" lon="-1.57803216017782688140869140625">
        <ele>1666.199951171875</ele>
        <time>2022-05-05T07:50:42.000Z</time>
      </trkpt>
      <trkpt lat="40.4809570871293544769287109375" lon="-1.57803869806230068206787109375">
        <ele>1665</ele>
        <time>2022-05-05T07:50:43.000Z</time>
      </trkpt>
      <trkpt lat="40.48083730973303318023681640625" lon="-1.57805286347866058349609375">
        <ele>1663.800048828125</ele>
        <time>2022-05-05T07:50:44.000Z</time>
      </trkpt>
      <trkpt lat="40.4807146824896335601806640625" lon="-1.5780657716095447540283203125">
        <ele>1662.5999755859375</ele>
        <time>2022-05-05T07:50:45.000Z</time>
      </trkpt>
      <trkpt lat="40.48058853484690189361572265625" lon="-1.57807993702590465545654296875">
        <ele>1661.199951171875</ele>
        <time>2022-05-05T07:50:46.000Z</time>
      </trkpt>
      <trkpt lat="40.480463393032550811767578125" lon="-1.5781049989163875579833984375">
        <ele>1660.199951171875</ele>
        <time>2022-05-05T07:50:47.000Z</time>
      </trkpt>
      <trkpt lat="40.4803383350372314453125" lon="-1.578137017786502838134765625">
        <ele>1658.800048828125</ele>
        <time>2022-05-05T07:50:48.000Z</time>
      </trkpt>
      <trkpt lat="40.4800800047814846038818359375" lon="-1.57821605913341045379638671875">
        <ele>1656.4000244140625</ele>
        <time>2022-05-05T07:50:50.000Z</time>
      </trkpt>
      <trkpt lat="40.47994832508265972137451171875" lon="-1.578260399401187896728515625">
        <ele>1655</ele>
        <time>2022-05-05T07:50:51.000Z</time>
      </trkpt>
      <trkpt lat="40.47981253825128078460693359375" lon="-1.57830826006829738616943359375">
        <ele>1653.800048828125</ele>
        <time>2022-05-05T07:50:52.000Z</time>
      </trkpt>
      <trkpt lat="40.47967876307666301727294921875" lon="-1.57835855148732662200927734375">
        <ele>1652.5999755859375</ele>
        <time>2022-05-05T07:50:53.000Z</time>
      </trkpt>
      <trkpt lat="40.47954364679753780364990234375" lon="-1.578409262001514434814453125">
        <ele>1651.4000244140625</ele>
        <time>2022-05-05T07:50:54.000Z</time>
      </trkpt>
      <trkpt lat="40.47940853051841259002685546875" lon="-1.5784516744315624237060546875">
        <ele>1650.199951171875</ele>
        <time>2022-05-05T07:50:55.000Z</time>
      </trkpt>
      <trkpt lat="40.47927224077284336090087890625" lon="-1.57849350012838840484619140625">
        <ele>1649</ele>
        <time>2022-05-05T07:50:56.000Z</time>
      </trkpt>
      <trkpt lat="40.4791378788650035858154296875" lon="-1.57852266915142536163330078125">
        <ele>1647.5999755859375</ele>
        <time>2022-05-05T07:50:57.000Z</time>
      </trkpt>
      <trkpt lat="40.479002259671688079833984375" lon="-1.5785411931574344635009765625">
        <ele>1646.199951171875</ele>
        <time>2022-05-05T07:50:58.000Z</time>
      </trkpt>
      <trkpt lat="40.47872875817120075225830078125" lon="-1.57855804078280925750732421875">
        <ele>1643.5999755859375</ele>
        <time>2022-05-05T07:51:00.000Z</time>
      </trkpt>
      <trkpt lat="40.478590540587902069091796875" lon="-1.57855845987796783447265625">
        <ele>1642.800048828125</ele>
        <time>2022-05-05T07:51:01.000Z</time>
      </trkpt>
      <trkpt lat="40.47844796441495418548583984375" lon="-1.57855443656444549560546875">
        <ele>1641.800048828125</ele>
        <time>2022-05-05T07:51:02.000Z</time>
      </trkpt>
      <trkpt lat="40.47830413095653057098388671875" lon="-1.57854915596544742584228515625">
        <ele>1640.5999755859375</ele>
        <time>2022-05-05T07:51:03.000Z</time>
      </trkpt>
      <trkpt lat="40.47816247679293155670166015625" lon="-1.57854949124157428741455078125">
        <ele>1639.4000244140625</ele>
        <time>2022-05-05T07:51:04.000Z</time>
      </trkpt>
      <trkpt lat="40.478024594485759735107421875" lon="-1.57854949124157428741455078125">
        <ele>1638.199951171875</ele>
        <time>2022-05-05T07:51:05.000Z</time>
      </trkpt>
      <trkpt lat="40.477887801826000213623046875" lon="-1.5785495750606060028076171875">
        <ele>1636.4000244140625</ele>
        <time>2022-05-05T07:51:06.000Z</time>
      </trkpt>
      <trkpt lat="40.47775176353752613067626953125" lon="-1.57854764722287654876708984375">
        <ele>1634.199951171875</ele>
        <time>2022-05-05T07:51:07.000Z</time>
      </trkpt>
      <trkpt lat="40.4774866439402103424072265625" lon="-1.578546725213527679443359375">
        <ele>1630.199951171875</ele>
        <time>2022-05-05T07:51:09.000Z</time>
      </trkpt>
      <trkpt lat="40.47735781408846378326416015625" lon="-1.5785403549671173095703125">
        <ele>1628.199951171875</ele>
        <time>2022-05-05T07:51:10.000Z</time>
      </trkpt>
      <trkpt lat="40.47722890041768550872802734375" lon="-1.57852895557880401611328125">
        <ele>1626.4000244140625</ele>
        <time>2022-05-05T07:51:11.000Z</time>
      </trkpt>
      <trkpt lat="40.47710082493722438812255859375" lon="-1.57851160503923892974853515625">
        <ele>1624</ele>
        <time>2022-05-05T07:51:12.000Z</time>
      </trkpt>
      <trkpt lat="40.476974509656429290771484375" lon="-1.5784840285778045654296875">
        <ele>1621.4000244140625</ele>
        <time>2022-05-05T07:51:13.000Z</time>
      </trkpt>
      <trkpt lat="40.4768533073365688323974609375" lon="-1.578441448509693145751953125">
        <ele>1619.199951171875</ele>
        <time>2022-05-05T07:51:14.000Z</time>
      </trkpt>
      <trkpt lat="40.47672766260802745819091796875" lon="-1.5784027241170406341552734375">
        <ele>1618.800048828125</ele>
        <time>2022-05-05T07:51:15.000Z</time>
      </trkpt>
      <trkpt lat="40.47647234983742237091064453125" lon="-1.57833340577781200408935546875">
        <ele>1618</ele>
        <time>2022-05-05T07:51:17.000Z</time>
      </trkpt>
      <trkpt lat="40.4763430170714855194091796875" lon="-1.578314714133739471435546875">
        <ele>1617.4000244140625</ele>
        <time>2022-05-05T07:51:18.000Z</time>
      </trkpt>
      <trkpt lat="40.47608275897800922393798828125" lon="-1.57832033000886440277099609375">
        <ele>1616.5999755859375</ele>
        <time>2022-05-05T07:51:20.000Z</time>
      </trkpt>
      <trkpt lat="40.4759554378688335418701171875" lon="-1.57833642326295375823974609375">
        <ele>1616.5999755859375</ele>
        <time>2022-05-05T07:51:21.000Z</time>
      </trkpt>
      <trkpt lat="40.47570322640240192413330078125" lon="-1.57836777158081531524658203125">
        <ele>1616.4000244140625</ele>
        <time>2022-05-05T07:51:23.000Z</time>
      </trkpt>
      <trkpt lat="40.4754568822681903839111328125" lon="-1.57840347848832607269287109375">
        <ele>1616</ele>
        <time>2022-05-05T07:51:25.000Z</time>
      </trkpt>
      <trkpt lat="40.4751013219356536865234375" lon="-1.5784610621631145477294921875">
        <ele>1614</ele>
        <time>2022-05-05T07:51:28.000Z</time>
      </trkpt>
      <trkpt lat="40.4749833047389984130859375" lon="-1.57848059199750423431396484375">
        <ele>1613.5999755859375</ele>
        <time>2022-05-05T07:51:29.000Z</time>
      </trkpt>
      <trkpt lat="40.474643670022487640380859375" lon="-1.5785489045083522796630859375">
        <ele>1612.4000244140625</ele>
        <time>2022-05-05T07:51:32.000Z</time>
      </trkpt>
      <trkpt lat="40.474423728883266448974609375" lon="-1.5785961784422397613525390625">
        <ele>1612</ele>
        <time>2022-05-05T07:51:34.000Z</time>
      </trkpt>
      <trkpt lat="40.4743166081607341766357421875" lon="-1.57861889339983463287353515625">
        <ele>1612</ele>
        <time>2022-05-05T07:51:35.000Z</time>
      </trkpt>
      <trkpt lat="40.4738773964345455169677734375" lon="-1.57873892225325107574462890625">
        <ele>1608.4000244140625</ele>
        <time>2022-05-05T07:51:39.000Z</time>
      </trkpt>
      <trkpt lat="40.4736564494669437408447265625" lon="-1.57880363054573535919189453125">
        <ele>1608.199951171875</ele>
        <time>2022-05-05T07:51:41.000Z</time>
      </trkpt>
      <trkpt lat="40.473559387028217315673828125" lon="-1.57882559113204479217529296875">
        <ele>1608.4000244140625</ele>
        <time>2022-05-05T07:51:42.000Z</time>
      </trkpt>
      <trkpt lat="40.4734475724399089813232421875" lon="-1.57885216176509857177734375">
        <ele>1608.5999755859375</ele>
        <time>2022-05-05T07:51:43.000Z</time>
      </trkpt>
      <trkpt lat="40.4732226021587848663330078125" lon="-1.5788918919861316680908203125">
        <ele>1609</ele>
        <time>2022-05-05T07:51:45.000Z</time>
      </trkpt>
      <trkpt lat="40.4729993082582950592041015625" lon="-1.57888594083487987518310546875">
        <ele>1608.5999755859375</ele>
        <time>2022-05-05T07:51:47.000Z</time>
      </trkpt>
      <trkpt lat="40.472890175879001617431640625" lon="-1.5788670815527439117431640625">
        <ele>1608.800048828125</ele>
        <time>2022-05-05T07:51:48.000Z</time>
      </trkpt>
      <trkpt lat="40.47266914509236812591552734375" lon="-1.5788032114505767822265625">
        <ele>1609</ele>
        <time>2022-05-05T07:51:50.000Z</time>
      </trkpt>
      <trkpt lat="40.4725530557334423065185546875" lon="-1.5787621401250362396240234375">
        <ele>1609.199951171875</ele>
        <time>2022-05-05T07:51:51.000Z</time>
      </trkpt>
      <trkpt lat="40.47243411652743816375732421875" lon="-1.5787093341350555419921875">
        <ele>1609</ele>
        <time>2022-05-05T07:51:52.000Z</time>
      </trkpt>
      <trkpt lat="40.4723103158175945281982421875" lon="-1.5786551870405673980712890625">
        <ele>1607.4000244140625</ele>
        <time>2022-05-05T07:51:53.000Z</time>
      </trkpt>
      <trkpt lat="40.47218232415616512298583984375" lon="-1.57860137522220611572265625">
        <ele>1605.800048828125</ele>
        <time>2022-05-05T07:51:54.000Z</time>
      </trkpt>
      <trkpt lat="40.47205072827637195587158203125" lon="-1.57854597084224224090576171875">
        <ele>1604.800048828125</ele>
        <time>2022-05-05T07:51:55.000Z</time>
      </trkpt>
      <trkpt lat="40.47191955149173736572265625" lon="-1.57848763279616832733154296875">
        <ele>1603.800048828125</ele>
        <time>2022-05-05T07:51:56.000Z</time>
      </trkpt>
      <trkpt lat="40.47178653068840503692626953125" lon="-1.578429378569126129150390625">
        <ele>1601.800048828125</ele>
        <time>2022-05-05T07:51:57.000Z</time>
      </trkpt>
      <trkpt lat="40.47165225259959697723388671875" lon="-1.5783715434372425079345703125">
        <ele>1599.199951171875</ele>
        <time>2022-05-05T07:51:58.000Z</time>
      </trkpt>
      <trkpt lat="40.4715190641582012176513671875" lon="-1.5783125348389148712158203125">
        <ele>1596.800048828125</ele>
        <time>2022-05-05T07:51:59.000Z</time>
      </trkpt>
      <trkpt lat="40.471386127173900604248046875" lon="-1.57825394533574581146240234375">
        <ele>1594.199951171875</ele>
        <time>2022-05-05T07:52:00.000Z</time>
      </trkpt>
      <trkpt lat="40.47125344164669513702392578125" lon="-1.5781965292990207672119140625">
        <ele>1591.5999755859375</ele>
        <time>2022-05-05T07:52:01.000Z</time>
      </trkpt>
      <trkpt lat="40.47112134285271167755126953125" lon="-1.57813735306262969970703125">
        <ele>1589.5999755859375</ele>
        <time>2022-05-05T07:52:02.000Z</time>
      </trkpt>
      <trkpt lat="40.470991842448711395263671875" lon="-1.57808245159685611724853515625">
        <ele>1588.199951171875</ele>
        <time>2022-05-05T07:52:03.000Z</time>
      </trkpt>
      <trkpt lat="40.4708646051585674285888671875" lon="-1.578030399978160858154296875">
        <ele>1586.800048828125</ele>
        <time>2022-05-05T07:52:04.000Z</time>
      </trkpt>
      <trkpt lat="40.470735020935535430908203125" lon="-1.57798555679619312286376953125">
        <ele>1585.4000244140625</ele>
        <time>2022-05-05T07:52:05.000Z</time>
      </trkpt>
      <trkpt lat="40.47060200013220310211181640625" lon="-1.57794700004160404205322265625">
        <ele>1582.4000244140625</ele>
        <time>2022-05-05T07:52:06.000Z</time>
      </trkpt>
      <trkpt lat="40.4704686440527439117431640625" lon="-1.5779135562479496002197265625">
        <ele>1579.199951171875</ele>
        <time>2022-05-05T07:52:07.000Z</time>
      </trkpt>
      <trkpt lat="40.4703395627439022064208984375" lon="-1.57789235003292560577392578125">
        <ele>1578.199951171875</ele>
        <time>2022-05-05T07:52:08.000Z</time>
      </trkpt>
      <trkpt lat="40.4702088050544261932373046875" lon="-1.57787407748401165008544921875">
        <ele>1577</ele>
        <time>2022-05-05T07:52:09.000Z</time>
      </trkpt>
      <trkpt lat="40.4700760357081890106201171875" lon="-1.57785966061055660247802734375">
        <ele>1576</ele>
        <time>2022-05-05T07:52:10.000Z</time>
      </trkpt>
      <trkpt lat="40.46994485892355442047119140625" lon="-1.5778475068509578704833984375">
        <ele>1574.199951171875</ele>
        <time>2022-05-05T07:52:11.000Z</time>
      </trkpt>
      <trkpt lat="40.46981493942439556121826171875" lon="-1.57783669419586658477783203125">
        <ele>1571</ele>
        <time>2022-05-05T07:52:12.000Z</time>
      </trkpt>
      <trkpt lat="40.4696877859532833099365234375" lon="-1.5778327547013759613037109375">
        <ele>1568.199951171875</ele>
        <time>2022-05-05T07:52:13.000Z</time>
      </trkpt>
      <trkpt lat="40.46956054866313934326171875" lon="-1.57783049158751964569091796875">
        <ele>1566</ele>
        <time>2022-05-05T07:52:14.000Z</time>
      </trkpt>
      <trkpt lat="40.4694333113729953765869140625" lon="-1.57783032394945621490478515625">
        <ele>1564</ele>
        <time>2022-05-05T07:52:15.000Z</time>
      </trkpt>
      <trkpt lat="40.46930749900639057159423828125" lon="-1.57783099450170993804931640625">
        <ele>1562.199951171875</ele>
        <time>2022-05-05T07:52:16.000Z</time>
      </trkpt>
      <trkpt lat="40.4691852070391178131103515625" lon="-1.577834598720073699951171875">
        <ele>1560.199951171875</ele>
        <time>2022-05-05T07:52:17.000Z</time>
      </trkpt>
      <trkpt lat="40.46906509436666965484619140625" lon="-1.57784138806164264678955078125">
        <ele>1557.800048828125</ele>
        <time>2022-05-05T07:52:18.000Z</time>
      </trkpt>
      <trkpt lat="40.4689505137503147125244140625" lon="-1.57784893177449703216552734375">
        <ele>1555.4000244140625</ele>
        <time>2022-05-05T07:52:19.000Z</time>
      </trkpt>
      <trkpt lat="40.4688410460948944091796875" lon="-1.57785932533442974090576171875">
        <ele>1553.4000244140625</ele>
        <time>2022-05-05T07:52:20.000Z</time>
      </trkpt>
      <trkpt lat="40.46873367391526699066162109375" lon="-1.57787307165563106536865234375">
        <ele>1552</ele>
        <time>2022-05-05T07:52:21.000Z</time>
      </trkpt>
      <trkpt lat="40.468628816306591033935546875" lon="-1.57788924872875213623046875">
        <ele>1550.800048828125</ele>
        <time>2022-05-05T07:52:22.000Z</time>
      </trkpt>
      <trkpt lat="40.46852094121277332305908203125" lon="-1.57791204750537872314453125">
        <ele>1549.800048828125</ele>
        <time>2022-05-05T07:52:23.000Z</time>
      </trkpt>
      <trkpt lat="40.4684093780815601348876953125" lon="-1.577940545976161956787109375">
        <ele>1549</ele>
        <time>2022-05-05T07:52:24.000Z</time>
      </trkpt>
      <trkpt lat="40.46829454600811004638671875" lon="-1.57797751016914844512939453125">
        <ele>1548.4000244140625</ele>
        <time>2022-05-05T07:52:25.000Z</time>
      </trkpt>
      <trkpt lat="40.4681783728301525115966796875" lon="-1.57802059315145015716552734375">
        <ele>1548</ele>
        <time>2022-05-05T07:52:26.000Z</time>
      </trkpt>
      <trkpt lat="40.46805960126221179962158203125" lon="-1.5780694596469402313232421875">
        <ele>1547.5999755859375</ele>
        <time>2022-05-05T07:52:27.000Z</time>
      </trkpt>
      <trkpt lat="40.4679371416568756103515625" lon="-1.57812352292239665985107421875">
        <ele>1547</ele>
        <time>2022-05-05T07:52:28.000Z</time>
      </trkpt>
      <trkpt lat="40.46781132929027080535888671875" lon="-1.57818705774843692779541015625">
        <ele>1545.800048828125</ele>
        <time>2022-05-05T07:52:29.000Z</time>
      </trkpt>
      <trkpt lat="40.4675618000328540802001953125" lon="-1.57833877019584178924560546875">
        <ele>1544.800048828125</ele>
        <time>2022-05-05T07:52:31.000Z</time>
      </trkpt>
      <trkpt lat="40.467439256608486175537109375" lon="-1.57842191867530345916748046875">
        <ele>1544.5999755859375</ele>
        <time>2022-05-05T07:52:32.000Z</time>
      </trkpt>
      <trkpt lat="40.46731646172702312469482421875" lon="-1.5785053186118602752685546875">
        <ele>1544.199951171875</ele>
        <time>2022-05-05T07:52:33.000Z</time>
      </trkpt>
      <trkpt lat="40.4671941697597503662109375" lon="-1.57858469523489475250244140625">
        <ele>1544</ele>
        <time>2022-05-05T07:52:34.000Z</time>
      </trkpt>
      <trkpt lat="40.4670692794024944305419921875" lon="-1.5786545164883136749267578125">
        <ele>1543.199951171875</ele>
        <time>2022-05-05T07:52:35.000Z</time>
      </trkpt>
      <trkpt lat="40.466949753463268280029296875" lon="-1.57871427945792675018310546875">
        <ele>1542.5999755859375</ele>
        <time>2022-05-05T07:52:36.000Z</time>
      </trkpt>
      <trkpt lat="40.46683299355208873748779296875" lon="-1.5787611342966556549072265625">
        <ele>1541.4000244140625</ele>
        <time>2022-05-05T07:52:37.000Z</time>
      </trkpt>
      <trkpt lat="40.46671531163156032562255859375" lon="-1.5787978470325469970703125">
        <ele>1539.800048828125</ele>
        <time>2022-05-05T07:52:38.000Z</time>
      </trkpt>
      <trkpt lat="40.46660634689033031463623046875" lon="-1.5788285247981548309326171875">
        <ele>1538.4000244140625</ele>
        <time>2022-05-05T07:52:39.000Z</time>
      </trkpt>
      <trkpt lat="40.4664976336061954498291015625" lon="-1.5788493119180202484130859375">
        <ele>1536.5999755859375</ele>
        <time>2022-05-05T07:52:40.000Z</time>
      </trkpt>
      <trkpt lat="40.4663863219320774078369140625" lon="-1.578859873116016387939453125">
        <ele>1534.199951171875</ele>
        <time>2022-05-05T07:52:41.000Z</time>
      </trkpt>
      <trkpt lat="40.4662699811160564422607421875" lon="-1.57885492779314517974853515625">
        <ele>1532.5999755859375</ele>
        <time>2022-05-05T07:52:42.000Z</time>
      </trkpt>
      <trkpt lat="40.46615389175713062286376953125" lon="-1.57883950509130954742431640625">
        <ele>1531.800048828125</ele>
        <time>2022-05-05T07:52:43.000Z</time>
      </trkpt>
      <trkpt lat="40.46591718681156635284423828125" lon="-1.578785441815853118896484375">
        <ele>1529.4000244140625</ele>
        <time>2022-05-05T07:52:45.000Z</time>
      </trkpt>
      <trkpt lat="40.465796403586864471435546875" lon="-1.57875836826860904693603515625">
        <ele>1528.199951171875</ele>
        <time>2022-05-05T07:52:46.000Z</time>
      </trkpt>
      <trkpt lat="40.46567025594413280487060546875" lon="-1.578737162053585052490234375">
        <ele>1526.5999755859375</ele>
        <time>2022-05-05T07:52:47.000Z</time>
      </trkpt>
      <trkpt lat="40.46540404669940471649169921875" lon="-1.57872148789465427398681640625">
        <ele>1523.800048828125</ele>
        <time>2022-05-05T07:52:49.000Z</time>
      </trkpt>
      <trkpt lat="40.46526901423931121826171875" lon="-1.578723751008510589599609375">
        <ele>1522.199951171875</ele>
        <time>2022-05-05T07:52:50.000Z</time>
      </trkpt>
      <trkpt lat="40.46499936841428279876708984375" lon="-1.57873573713004589080810546875">
        <ele>1519.4000244140625</ele>
        <time>2022-05-05T07:52:52.000Z</time>
      </trkpt>
      <trkpt lat="40.46485888771712779998779296875" lon="-1.5787473879754543304443359375">
        <ele>1518.199951171875</ele>
        <time>2022-05-05T07:52:53.000Z</time>
      </trkpt>
      <trkpt lat="40.46458714641630649566650390625" lon="-1.57877504825592041015625">
        <ele>1515.800048828125</ele>
        <time>2022-05-05T07:52:55.000Z</time>
      </trkpt>
      <trkpt lat="40.464457310736179351806640625" lon="-1.5787872858345508575439453125">
        <ele>1514.800048828125</ele>
        <time>2022-05-05T07:52:56.000Z</time>
      </trkpt>
      <trkpt lat="40.4643297381699085235595703125" lon="-1.57879977487027645111083984375">
        <ele>1514</ele>
        <time>2022-05-05T07:52:57.000Z</time>
      </trkpt>
      <trkpt lat="40.464203171432018280029296875" lon="-1.57881184481084346771240234375">
        <ele>1513.199951171875</ele>
        <time>2022-05-05T07:52:58.000Z</time>
      </trkpt>
      <trkpt lat="40.46396143734455108642578125" lon="-1.57883414067327976226806640625">
        <ele>1511.4000244140625</ele>
        <time>2022-05-05T07:53:00.000Z</time>
      </trkpt>
      <trkpt lat="40.4638472758233547210693359375" lon="-1.57884822227060794830322265625">
        <ele>1510.800048828125</ele>
        <time>2022-05-05T07:53:01.000Z</time>
      </trkpt>
      <trkpt lat="40.46373839490115642547607421875" lon="-1.578865237534046173095703125">
        <ele>1509.800048828125</ele>
        <time>2022-05-05T07:53:02.000Z</time>
      </trkpt>
      <trkpt lat="40.46363311819732189178466796875" lon="-1.57888845540583133697509765625">
        <ele>1508.800048828125</ele>
        <time>2022-05-05T07:53:03.000Z</time>
      </trkpt>
      <trkpt lat="40.4634268395602703094482421875" lon="-1.57896858640015125274658203125">
        <ele>1508</ele>
        <time>2022-05-05T07:53:05.000Z</time>
      </trkpt>
      <trkpt lat="40.46332650817930698394775390625" lon="-1.57902994193136692047119140625">
        <ele>1508.5999755859375</ele>
        <time>2022-05-05T07:53:06.000Z</time>
      </trkpt>
      <trkpt lat="40.4631455428898334503173828125" lon="-1.5791912935674190521240234375">
        <ele>1511.199951171875</ele>
        <time>2022-05-05T07:53:08.000Z</time>
      </trkpt>
      <trkpt lat="40.462968349456787109375" lon="-1.5793557465076446533203125">
        <ele>1513.5999755859375</ele>
        <time>2022-05-05T07:53:10.000Z</time>
      </trkpt>
      <trkpt lat="40.46279132366180419921875" lon="-1.57951525412499904632568359375">
        <ele>1513.800048828125</ele>
        <time>2022-05-05T07:53:12.000Z</time>
      </trkpt>
      <trkpt lat="40.4624196700751781463623046875" lon="-1.57978020608425140380859375">
        <ele>1511.800048828125</ele>
        <time>2022-05-05T07:53:16.000Z</time>
      </trkpt>
      <trkpt lat="40.4620626010000705718994140625" lon="-1.5799382887780666351318359375">
        <ele>1505.5999755859375</ele>
        <time>2022-05-05T07:53:20.000Z</time>
      </trkpt>
      <trkpt lat="40.461976937949657440185546875" lon="-1.579972989857196807861328125">
        <ele>1504.5999755859375</ele>
        <time>2022-05-05T07:53:21.000Z</time>
      </trkpt>
      <trkpt lat="40.46164677478373050689697265625" lon="-1.58014775253832340240478515625">
        <ele>1501</ele>
        <time>2022-05-05T07:53:25.000Z</time>
      </trkpt>
      <trkpt lat="40.4615749418735504150390625" lon="-1.58021363429725170135498046875">
        <ele>1500.800048828125</ele>
        <time>2022-05-05T07:53:26.000Z</time>
      </trkpt>
      <trkpt lat="40.461506880819797515869140625" lon="-1.580289490520954132080078125">
        <ele>1500.5999755859375</ele>
        <time>2022-05-05T07:53:27.000Z</time>
      </trkpt>
      <trkpt lat="40.461331866681575775146484375" lon="-1.58057858236134052276611328125">
        <ele>1501.5999755859375</ele>
        <time>2022-05-05T07:53:30.000Z</time>
      </trkpt>
      <trkpt lat="40.4612830840051174163818359375" lon="-1.5806913189589977264404296875">
        <ele>1501.5999755859375</ele>
        <time>2022-05-05T07:53:31.000Z</time>
      </trkpt>
      <trkpt lat="40.46118224970996379852294921875" lon="-1.58092374913394451141357421875">
        <ele>1500.800048828125</ele>
        <time>2022-05-05T07:53:33.000Z</time>
      </trkpt>
      <trkpt lat="40.461087785661220550537109375" lon="-1.5811700932681560516357421875">
        <ele>1500.5999755859375</ele>
        <time>2022-05-05T07:53:35.000Z</time>
      </trkpt>
      <trkpt lat="40.46104093082249164581298828125" lon="-1.58129456453025341033935546875">
        <ele>1500.4000244140625</ele>
        <time>2022-05-05T07:53:36.000Z</time>
      </trkpt>
      <trkpt lat="40.46089793555438518524169921875" lon="-1.58167711459100246429443359375">
        <ele>1499.5999755859375</ele>
        <time>2022-05-05T07:53:39.000Z</time>
      </trkpt>
      <trkpt lat="40.46080305241048336029052734375" lon="-1.58193510957062244415283203125">
        <ele>1498.800048828125</ele>
        <time>2022-05-05T07:53:41.000Z</time>
      </trkpt>
      <trkpt lat="40.4607070796191692352294921875" lon="-1.5821873210370540618896484375">
        <ele>1498</ele>
        <time>2022-05-05T07:53:43.000Z</time>
      </trkpt>
      <trkpt lat="40.46062217094004154205322265625" lon="-1.58242763020098209381103515625">
        <ele>1496.800048828125</ele>
        <time>2022-05-05T07:53:45.000Z</time>
      </trkpt>
      <trkpt lat="40.46052007935941219329833984375" lon="-1.58280381001532077789306640625">
        <ele>1493.5999755859375</ele>
        <time>2022-05-05T07:53:48.000Z</time>
      </trkpt>
      <trkpt lat="40.4604693688452243804931640625" lon="-1.58306733705103397369384765625">
        <ele>1492</ele>
        <time>2022-05-05T07:53:50.000Z</time>
      </trkpt>
      <trkpt lat="40.4604579694569110870361328125" lon="-1.58320094458758831024169921875">
        <ele>1491.5999755859375</ele>
        <time>2022-05-05T07:53:51.000Z</time>
      </trkpt>
      <trkpt lat="40.460451431572437286376953125" lon="-1.58333723433315753936767578125">
        <ele>1490.4000244140625</ele>
        <time>2022-05-05T07:53:52.000Z</time>
      </trkpt>
      <trkpt lat="40.46046509407460689544677734375" lon="-1.58374660648405551910400390625">
        <ele>1487.4000244140625</ele>
        <time>2022-05-05T07:53:55.000Z</time>
      </trkpt>
      <trkpt lat="40.46049493364989757537841796875" lon="-1.5840185992419719696044921875">
        <ele>1486</ele>
        <time>2022-05-05T07:53:57.000Z</time>
      </trkpt>
      <trkpt lat="40.46053315512835979461669921875" lon="-1.58429075963795185089111328125">
        <ele>1484</ele>
        <time>2022-05-05T07:53:59.000Z</time>
      </trkpt>
      <trkpt lat="40.46058042906224727630615234375" lon="-1.5845610760152339935302734375">
        <ele>1482.199951171875</ele>
        <time>2022-05-05T07:54:01.000Z</time>
      </trkpt>
      <trkpt lat="40.46065033413469791412353515625" lon="-1.58496634103357791900634765625">
        <ele>1480.199951171875</ele>
        <time>2022-05-05T07:54:04.000Z</time>
      </trkpt>
      <trkpt lat="40.4606695286929607391357421875" lon="-1.58510346896946430206298828125">
        <ele>1480</ele>
        <time>2022-05-05T07:54:05.000Z</time>
      </trkpt>
      <trkpt lat="40.46069358475506305694580078125" lon="-1.5853912197053432464599609375">
        <ele>1479.4000244140625</ele>
        <time>2022-05-05T07:54:07.000Z</time>
      </trkpt>
      <trkpt lat="40.4606916569173336029052734375" lon="-1.5856926329433917999267578125">
        <ele>1477.800048828125</ele>
        <time>2022-05-05T07:54:09.000Z</time>
      </trkpt>
      <trkpt lat="40.46065905131399631500244140625" lon="-1.585991196334362030029296875">
        <ele>1477.800048828125</ele>
        <time>2022-05-05T07:54:11.000Z</time>
      </trkpt>
      <trkpt lat="40.460590235888957977294921875" lon="-1.586278192698955535888671875">
        <ele>1477</ele>
        <time>2022-05-05T07:54:13.000Z</time>
      </trkpt>
      <trkpt lat="40.4604911617934703826904296875" lon="-1.58655571751296520233154296875">
        <ele>1476</ele>
        <time>2022-05-05T07:54:15.000Z</time>
      </trkpt>
      <trkpt lat="40.46036048792302608489990234375" lon="-1.58680516295135021209716796875">
        <ele>1477.5999755859375</ele>
        <time>2022-05-05T07:54:17.000Z</time>
      </trkpt>
      <trkpt lat="40.46018245629966259002685546875" lon="-1.58701655454933643341064453125">
        <ele>1477</ele>
        <time>2022-05-05T07:54:19.000Z</time>
      </trkpt>
      <trkpt lat="40.460087321698665618896484375" lon="-1.587106995284557342529296875">
        <ele>1476</ele>
        <time>2022-05-05T07:54:20.000Z</time>
      </trkpt>
      <trkpt lat="40.45999118126928806304931640625" lon="-1.5871956758201122283935546875">
        <ele>1475</ele>
        <time>2022-05-05T07:54:21.000Z</time>
      </trkpt>
      <trkpt lat="40.459891520440578460693359375" lon="-1.58727890811860561370849609375">
        <ele>1473.800048828125</ele>
        <time>2022-05-05T07:54:22.000Z</time>
      </trkpt>
      <trkpt lat="40.4597927816212177276611328125" lon="-1.58735535107553005218505859375">
        <ele>1472.5999755859375</ele>
        <time>2022-05-05T07:54:23.000Z</time>
      </trkpt>
      <trkpt lat="40.45959773473441600799560546875" lon="-1.58750220201909542083740234375">
        <ele>1470.800048828125</ele>
        <time>2022-05-05T07:54:25.000Z</time>
      </trkpt>
      <trkpt lat="40.4595020972192287445068359375" lon="-1.58757059834897518157958984375">
        <ele>1469.800048828125</ele>
        <time>2022-05-05T07:54:26.000Z</time>
      </trkpt>
      <trkpt lat="40.45940746553242206573486328125" lon="-1.5876352228224277496337890625">
        <ele>1468.800048828125</ele>
        <time>2022-05-05T07:54:27.000Z</time>
      </trkpt>
      <trkpt lat="40.459214933216571807861328125" lon="-1.58775600604712963104248046875">
        <ele>1466.5999755859375</ele>
        <time>2022-05-05T07:54:29.000Z</time>
      </trkpt>
      <trkpt lat="40.45911577530205249786376953125" lon="-1.58780696801841259002685546875">
        <ele>1465.4000244140625</ele>
        <time>2022-05-05T07:54:30.000Z</time>
      </trkpt>
      <trkpt lat="40.45901737175881862640380859375" lon="-1.5878529846668243408203125">
        <ele>1464.199951171875</ele>
        <time>2022-05-05T07:54:31.000Z</time>
      </trkpt>
      <trkpt lat="40.45891477726399898529052734375" lon="-1.58789179287850856781005859375">
        <ele>1462.5999755859375</ele>
        <time>2022-05-05T07:54:32.000Z</time>
      </trkpt>
      <trkpt lat="40.45869550667703151702880859375" lon="-1.5879466943442821502685546875">
        <ele>1459.4000244140625</ele>
        <time>2022-05-05T07:54:34.000Z</time>
      </trkpt>
      <trkpt lat="40.45846961438655853271484375" lon="-1.587982065975666046142578125">
        <ele>1456</ele>
        <time>2022-05-05T07:54:36.000Z</time>
      </trkpt>
      <trkpt lat="40.4583598114550113677978515625" lon="-1.58799790777266025543212890625">
        <ele>1454.4000244140625</ele>
        <time>2022-05-05T07:54:37.000Z</time>
      </trkpt>
      <trkpt lat="40.4581443965435028076171875" lon="-1.588026322424411773681640625">
        <ele>1451.199951171875</ele>
        <time>2022-05-05T07:54:39.000Z</time>
      </trkpt>
      <trkpt lat="40.45792990364134311676025390625" lon="-1.588049121201038360595703125">
        <ele>1447.4000244140625</ele>
        <time>2022-05-05T07:54:41.000Z</time>
      </trkpt>
      <trkpt lat="40.45771800912916660308837890625" lon="-1.58808994106948375701904296875">
        <ele>1443.800048828125</ele>
        <time>2022-05-05T07:54:43.000Z</time>
      </trkpt>
      <trkpt lat="40.457618348300457000732421875" lon="-1.5881207026541233062744140625">
        <ele>1442.4000244140625</ele>
        <time>2022-05-05T07:54:44.000Z</time>
      </trkpt>
      <trkpt lat="40.4575274884700775146484375" lon="-1.5881589241325855255126953125">
        <ele>1441.4000244140625</ele>
        <time>2022-05-05T07:54:45.000Z</time>
      </trkpt>
      <trkpt lat="40.4573730938136577606201171875" lon="-1.58826679922640323638916015625">
        <ele>1438.5999755859375</ele>
        <time>2022-05-05T07:54:47.000Z</time>
      </trkpt>
      <trkpt lat="40.4572544060647487640380859375" lon="-1.58842605538666248321533203125">
        <ele>1435.800048828125</ele>
        <time>2022-05-05T07:54:49.000Z</time>
      </trkpt>
      <trkpt lat="40.4572121612727642059326171875" lon="-1.588521189987659454345703125">
        <ele>1434.800048828125</ele>
        <time>2022-05-05T07:54:50.000Z</time>
      </trkpt>
      <trkpt lat="40.45719045214354991912841796875" lon="-1.588625125586986541748046875">
        <ele>1434.199951171875</ele>
        <time>2022-05-05T07:54:51.000Z</time>
      </trkpt>
      <trkpt lat="40.45717972330749034881591796875" lon="-1.58885353244841098785400390625">
        <ele>1433.5999755859375</ele>
        <time>2022-05-05T07:54:53.000Z</time>
      </trkpt>
      <trkpt lat="40.45719715766608715057373046875" lon="-1.58910951577126979827880859375">
        <ele>1432.800048828125</ele>
        <time>2022-05-05T07:54:55.000Z</time>
      </trkpt>
      <trkpt lat="40.45725197531282901763916015625" lon="-1.58936533145606517791748046875">
        <ele>1430.800048828125</ele>
        <time>2022-05-05T07:54:57.000Z</time>
      </trkpt>
      <trkpt lat="40.45731064863502979278564453125" lon="-1.5896391682326793670654296875">
        <ele>1428.5999755859375</ele>
        <time>2022-05-05T07:54:59.000Z</time>
      </trkpt>
      <trkpt lat="40.457342751324176788330078125" lon="-1.58978224731981754302978515625">
        <ele>1427.4000244140625</ele>
        <time>2022-05-05T07:55:00.000Z</time>
      </trkpt>
      <trkpt lat="40.4573754407465457916259765625" lon="-1.58992708660662174224853515625">
        <ele>1426.5999755859375</ele>
        <time>2022-05-05T07:55:01.000Z</time>
      </trkpt>
      <trkpt lat="40.4574093036353588104248046875" lon="-1.59007720649242401123046875">
        <ele>1426</ele>
        <time>2022-05-05T07:55:02.000Z</time>
      </trkpt>
      <trkpt lat="40.45744107104837894439697265625" lon="-1.59022950567305088043212890625">
        <ele>1425.4000244140625</ele>
        <time>2022-05-05T07:55:03.000Z</time>
      </trkpt>
      <trkpt lat="40.45747107826173305511474609375" lon="-1.590382643043994903564453125">
        <ele>1424.5999755859375</ele>
        <time>2022-05-05T07:55:04.000Z</time>
      </trkpt>
      <trkpt lat="40.4575328528881072998046875" lon="-1.59069956280291080474853515625">
        <ele>1422</ele>
        <time>2022-05-05T07:55:06.000Z</time>
      </trkpt>
      <trkpt lat="40.45756311155855655670166015625" lon="-1.59085865132510662078857421875">
        <ele>1421.199951171875</ele>
        <time>2022-05-05T07:55:07.000Z</time>
      </trkpt>
      <trkpt lat="40.45759395696222782135009765625" lon="-1.591017656028270721435546875">
        <ele>1420.4000244140625</ele>
        <time>2022-05-05T07:55:08.000Z</time>
      </trkpt>
      <trkpt lat="40.45762538909912109375" lon="-1.59117951057851314544677734375">
        <ele>1419.4000244140625</ele>
        <time>2022-05-05T07:55:09.000Z</time>
      </trkpt>
      <trkpt lat="40.457689762115478515625" lon="-1.59149986691772937774658203125">
        <ele>1417.199951171875</ele>
        <time>2022-05-05T07:55:11.000Z</time>
      </trkpt>
      <trkpt lat="40.45772932469844818115234375" lon="-1.5916550159454345703125">
        <ele>1416.5999755859375</ele>
        <time>2022-05-05T07:55:12.000Z</time>
      </trkpt>
      <trkpt lat="40.4577680490911006927490234375" lon="-1.59180731512606143951416015625">
        <ele>1415.800048828125</ele>
        <time>2022-05-05T07:55:13.000Z</time>
      </trkpt>
      <trkpt lat="40.45780819840729236602783203125" lon="-1.59195550717413425445556640625">
        <ele>1414.800048828125</ele>
        <time>2022-05-05T07:55:14.000Z</time>
      </trkpt>
      <trkpt lat="40.457849688827991485595703125" lon="-1.592102609574794769287109375">
        <ele>1413.800048828125</ele>
        <time>2022-05-05T07:55:15.000Z</time>
      </trkpt>
      <trkpt lat="40.4578874073922634124755859375" lon="-1.5922513045370578765869140625">
        <ele>1412.800048828125</ele>
        <time>2022-05-05T07:55:16.000Z</time>
      </trkpt>
      <trkpt lat="40.457921437919139862060546875" lon="-1.59240226261317729949951171875">
        <ele>1411.5999755859375</ele>
        <time>2022-05-05T07:55:17.000Z</time>
      </trkpt>
      <trkpt lat="40.45795119367539882659912109375" lon="-1.5925562381744384765625">
        <ele>1410</ele>
        <time>2022-05-05T07:55:18.000Z</time>
      </trkpt>
      <trkpt lat="40.45799846760928630828857421875" lon="-1.59285639412701129913330078125">
        <ele>1406.800048828125</ele>
        <time>2022-05-05T07:55:20.000Z</time>
      </trkpt>
      <trkpt lat="40.45801875181496143341064453125" lon="-1.59299888648092746734619140625">
        <ele>1405.4000244140625</ele>
        <time>2022-05-05T07:55:21.000Z</time>
      </trkpt>
      <trkpt lat="40.4580366052687168121337890625" lon="-1.5931371040642261505126953125">
        <ele>1404</ele>
        <time>2022-05-05T07:55:22.000Z</time>
      </trkpt>
      <trkpt lat="40.45806669630110263824462890625" lon="-1.59341647289693355560302734375">
        <ele>1401</ele>
        <time>2022-05-05T07:55:24.000Z</time>
      </trkpt>
      <trkpt lat="40.45808832161128520965576171875" lon="-1.59355963580310344696044921875">
        <ele>1399.5999755859375</ele>
        <time>2022-05-05T07:55:25.000Z</time>
      </trkpt>
      <trkpt lat="40.45815713703632354736328125" lon="-1.5938381664454936981201171875">
        <ele>1397.800048828125</ele>
        <time>2022-05-05T07:55:27.000Z</time>
      </trkpt>
      <trkpt lat="40.4581995494663715362548828125" lon="-1.5939764678478240966796875">
        <ele>1396.4000244140625</ele>
        <time>2022-05-05T07:55:28.000Z</time>
      </trkpt>
      <trkpt lat="40.4582971148192882537841796875" lon="-1.5942361392080783843994140625">
        <ele>1395.5999755859375</ele>
        <time>2022-05-05T07:55:30.000Z</time>
      </trkpt>
      <trkpt lat="40.45839325524866580963134765625" lon="-1.59447426907718181610107421875">
        <ele>1395</ele>
        <time>2022-05-05T07:55:32.000Z</time>
      </trkpt>
      <trkpt lat="40.45848763547837734222412109375" lon="-1.59468834288418292999267578125">
        <ele>1393.4000244140625</ele>
        <time>2022-05-05T07:55:34.000Z</time>
      </trkpt>
      <trkpt lat="40.45857933349907398223876953125" lon="-1.59487760625779628753662109375">
        <ele>1392.4000244140625</ele>
        <time>2022-05-05T07:55:36.000Z</time>
      </trkpt>
      <trkpt lat="40.4586156271398067474365234375" lon="-1.59495639614760875701904296875">
        <ele>1392.5999755859375</ele>
        <time>2022-05-05T07:55:37.000Z</time>
      </trkpt>
      <trkpt lat="40.4586432874202728271484375" lon="-1.59502529539167881011962890625">
        <ele>1392.5999755859375</ele>
        <time>2022-05-05T07:55:38.000Z</time>
      </trkpt>
      <trkpt lat="40.458676815032958984375" lon="-1.5951311588287353515625">
        <ele>1391.4000244140625</ele>
        <time>2022-05-05T07:55:40.000Z</time>
      </trkpt>
      <trkpt lat="40.4586686007678508758544921875" lon="-1.595226041972637176513671875">
        <ele>1390</ele>
        <time>2022-05-05T07:55:43.000Z</time>
      </trkpt>
      <trkpt lat="40.45859710313379764556884765625" lon="-1.59527390263974666595458984375">
        <ele>1388.5999755859375</ele>
        <time>2022-05-05T07:55:47.000Z</time>
      </trkpt>
      <trkpt lat="40.4585820995271205902099609375" lon="-1.59527692012488842010498046875">
        <ele>1388.4000244140625</ele>
        <time>2022-05-05T07:55:48.000Z</time>
      </trkpt>
      <trkpt lat="40.458569861948490142822265625" lon="-1.59527239389717578887939453125">
        <ele>1388.4000244140625</ele>
        <time>2022-05-05T07:55:49.000Z</time>
      </trkpt>
      <trkpt lat="40.4585023038089275360107421875" lon="-1.59519192762672901153564453125">
        <ele>1389</ele>
        <time>2022-05-05T07:55:53.000Z</time>
      </trkpt>
      <trkpt lat="40.45840465463697910308837890625" lon="-1.59496377222239971160888671875">
        <ele>1388.800048828125</ele>
        <time>2022-05-05T07:55:59.000Z</time>
      </trkpt>
      <trkpt lat="40.45822746120393276214599609375" lon="-1.594623215496540069580078125">
        <ele>1389.800048828125</ele>
        <time>2022-05-05T07:56:07.000Z</time>
      </trkpt>
      <trkpt lat="40.45803702436387538909912109375" lon="-1.5943286754190921783447265625">
        <ele>1388.5999755859375</ele>
        <time>2022-05-05T07:56:14.000Z</time>
      </trkpt>
      <trkpt lat="40.45795169658958911895751953125" lon="-1.59419833682477474212646484375">
        <ele>1388.5999755859375</ele>
        <time>2022-05-05T07:56:17.000Z</time>
      </trkpt>
      <trkpt lat="40.45782580040395259857177734375" lon="-1.59401427023112773895263671875">
        <ele>1388.199951171875</ele>
        <time>2022-05-05T07:56:21.000Z</time>
      </trkpt>
      <trkpt lat="40.457610301673412322998046875" lon="-1.59371294081211090087890625">
        <ele>1388.5999755859375</ele>
        <time>2022-05-05T07:56:27.000Z</time>
      </trkpt>
      <trkpt lat="40.45757132582366466522216796875" lon="-1.59366474486887454986572265625">
        <ele>1388.5999755859375</ele>
        <time>2022-05-05T07:56:28.000Z</time>
      </trkpt>
      <trkpt lat="40.45731031335890293121337890625" lon="-1.5933516807854175567626953125">
        <ele>1385.199951171875</ele>
        <time>2022-05-05T07:56:35.000Z</time>
      </trkpt>
      <trkpt lat="40.45699951238930225372314453125" lon="-1.59303559921681880950927734375">
        <ele>1382.5999755859375</ele>
        <time>2022-05-05T07:56:42.000Z</time>
      </trkpt>
      <trkpt lat="40.45695156790316104888916015625" lon="-1.5929902531206607818603515625">
        <ele>1382.5999755859375</ele>
        <time>2022-05-05T07:56:43.000Z</time>
      </trkpt>
      <trkpt lat="40.45674587599933147430419921875" lon="-1.5927855670452117919921875">
        <ele>1382.199951171875</ele>
        <time>2022-05-05T07:56:47.000Z</time>
      </trkpt>
      <trkpt lat="40.45668837614357471466064453125" lon="-1.5927334316074848175048828125">
        <ele>1381.800048828125</ele>
        <time>2022-05-05T07:56:48.000Z</time>
      </trkpt>
      <trkpt lat="40.45648771338164806365966796875" lon="-1.59258046187460422515869140625">
        <ele>1379.199951171875</ele>
        <time>2022-05-05T07:56:51.000Z</time>
      </trkpt>
      <trkpt lat="40.45641160570085048675537109375" lon="-1.59253620542585849761962890625">
        <ele>1378</ele>
        <time>2022-05-05T07:56:52.000Z</time>
      </trkpt>
      <trkpt lat="40.45615889132022857666015625" lon="-1.59242321737110614776611328125">
        <ele>1376.4000244140625</ele>
        <time>2022-05-05T07:56:55.000Z</time>
      </trkpt>
      <trkpt lat="40.45597926713526248931884765625" lon="-1.59236387349665164947509765625">
        <ele>1376.199951171875</ele>
        <time>2022-05-05T07:56:57.000Z</time>
      </trkpt>
      <trkpt lat="40.45588798820972442626953125" lon="-1.592333279550075531005859375">
        <ele>1376</ele>
        <time>2022-05-05T07:56:58.000Z</time>
      </trkpt>
      <trkpt lat="40.45560593716800212860107421875" lon="-1.59224049188196659088134765625">
        <ele>1376</ele>
        <time>2022-05-05T07:57:01.000Z</time>
      </trkpt>
      <trkpt lat="40.455327741801738739013671875" lon="-1.59215047024190425872802734375">
        <ele>1376.4000244140625</ele>
        <time>2022-05-05T07:57:04.000Z</time>
      </trkpt>
      <trkpt lat="40.4552306793630123138427734375" lon="-1.5921198762953281402587890625">
        <ele>1375.800048828125</ele>
        <time>2022-05-05T07:57:05.000Z</time>
      </trkpt>
      <trkpt lat="40.4551337845623493194580078125" lon="-1.5920876897871494293212890625">
        <ele>1375.199951171875</ele>
        <time>2022-05-05T07:57:06.000Z</time>
      </trkpt>
      <trkpt lat="40.45483865775167942047119140625" lon="-1.591989286243915557861328125">
        <ele>1372.5999755859375</ele>
        <time>2022-05-05T07:57:09.000Z</time>
      </trkpt>
      <trkpt lat="40.4545386694371700286865234375" lon="-1.59188912250101566314697265625">
        <ele>1370.5999755859375</ele>
        <time>2022-05-05T07:57:12.000Z</time>
      </trkpt>
      <trkpt lat="40.45413860119879245758056640625" lon="-1.59175517968833446502685546875">
        <ele>1368.199951171875</ele>
        <time>2022-05-05T07:57:16.000Z</time>
      </trkpt>
      <trkpt lat="40.4538456536829471588134765625" lon="-1.591659374535083770751953125">
        <ele>1364.199951171875</ele>
        <time>2022-05-05T07:57:19.000Z</time>
      </trkpt>
      <trkpt lat="40.453655719757080078125" lon="-1.591596342623233795166015625">
        <ele>1363.4000244140625</ele>
        <time>2022-05-05T07:57:21.000Z</time>
      </trkpt>
      <trkpt lat="40.453368388116359710693359375" lon="-1.59151076339185237884521484375">
        <ele>1362.800048828125</ele>
        <time>2022-05-05T07:57:24.000Z</time>
      </trkpt>
      <trkpt lat="40.45308533124625682830810546875" lon="-1.5914332307875156402587890625">
        <ele>1363.4000244140625</ele>
        <time>2022-05-05T07:57:27.000Z</time>
      </trkpt>
      <trkpt lat="40.45299346558749675750732421875" lon="-1.59141068346798419952392578125">
        <ele>1362.199951171875</ele>
        <time>2022-05-05T07:57:28.000Z</time>
      </trkpt>
      <trkpt lat="40.45262734405696392059326171875" lon="-1.59133859910070896148681640625">
        <ele>1359.199951171875</ele>
        <time>2022-05-05T07:57:32.000Z</time>
      </trkpt>
      <trkpt lat="40.45253732241690158843994140625" lon="-1.5913249365985393524169921875">
        <ele>1358.4000244140625</ele>
        <time>2022-05-05T07:57:33.000Z</time>
      </trkpt>
      <trkpt lat="40.452266000211238861083984375" lon="-1.5912954322993755340576171875">
        <ele>1356.4000244140625</ele>
        <time>2022-05-05T07:57:36.000Z</time>
      </trkpt>
      <trkpt lat="40.451914966106414794921875" lon="-1.591259725391864776611328125">
        <ele>1356</ele>
        <time>2022-05-05T07:57:40.000Z</time>
      </trkpt>
      <trkpt lat="40.4516479186713695526123046875" lon="-1.591223180294036865234375">
        <ele>1356</ele>
        <time>2022-05-05T07:57:43.000Z</time>
      </trkpt>
      <trkpt lat="40.45136989094316959381103515625" lon="-1.59117632545530796051025390625">
        <ele>1354.800048828125</ele>
        <time>2022-05-05T07:57:46.000Z</time>
      </trkpt>
      <trkpt lat="40.45127634890377521514892578125" lon="-1.5911593101918697357177734375">
        <ele>1354.5999755859375</ele>
        <time>2022-05-05T07:57:47.000Z</time>
      </trkpt>
      <trkpt lat="40.45108641497790813446044921875" lon="-1.59111865796148777008056640625">
        <ele>1354.5999755859375</ele>
        <time>2022-05-05T07:57:49.000Z</time>
      </trkpt>
      <trkpt lat="40.45080117881298065185546875" lon="-1.5910547040402889251708984375">
        <ele>1353.5999755859375</ele>
        <time>2022-05-05T07:57:52.000Z</time>
      </trkpt>
      <trkpt lat="40.45061887241899967193603515625" lon="-1.59100885502994060516357421875">
        <ele>1351.800048828125</ele>
        <time>2022-05-05T07:57:54.000Z</time>
      </trkpt>
      <trkpt lat="40.45043765567243099212646484375" lon="-1.59096308983862400054931640625">
        <ele>1350.4000244140625</ele>
        <time>2022-05-05T07:57:56.000Z</time>
      </trkpt>
      <trkpt lat="40.4503463767468929290771484375" lon="-1.5909402072429656982421875">
        <ele>1350</ele>
        <time>2022-05-05T07:57:57.000Z</time>
      </trkpt>
      <trkpt lat="40.449979417026042938232421875" lon="-1.5908676199615001678466796875">
        <ele>1347.800048828125</ele>
        <time>2022-05-05T07:58:01.000Z</time>
      </trkpt>
      <trkpt lat="40.4498005472123622894287109375" lon="-1.590862758457660675048828125">
        <ele>1346.5999755859375</ele>
        <time>2022-05-05T07:58:03.000Z</time>
      </trkpt>
      <trkpt lat="40.44971345923840999603271484375" lon="-1.5908713079988956451416015625">
        <ele>1346</ele>
        <time>2022-05-05T07:58:04.000Z</time>
      </trkpt>
      <trkpt lat="40.44937826693058013916015625" lon="-1.59095219336450099945068359375">
        <ele>1344</ele>
        <time>2022-05-05T07:58:08.000Z</time>
      </trkpt>
      <trkpt lat="40.4491242952644824981689453125" lon="-1.591034419834613800048828125">
        <ele>1343.4000244140625</ele>
        <time>2022-05-05T07:58:11.000Z</time>
      </trkpt>
      <trkpt lat="40.44886772520840167999267578125" lon="-1.59111748449504375457763671875">
        <ele>1342.800048828125</ele>
        <time>2022-05-05T07:58:14.000Z</time>
      </trkpt>
      <trkpt lat="40.4486931301653385162353515625" lon="-1.59116744063794612884521484375">
        <ele>1342</ele>
        <time>2022-05-05T07:58:16.000Z</time>
      </trkpt>
      <trkpt lat="40.4486052878201007843017578125" lon="-1.59118671901524066925048828125">
        <ele>1341.5999755859375</ele>
        <time>2022-05-05T07:58:17.000Z</time>
      </trkpt>
      <trkpt lat="40.44833891093730926513671875" lon="-1.59118873067200183868408203125">
        <ele>1340.5999755859375</ele>
        <time>2022-05-05T07:58:20.000Z</time>
      </trkpt>
      <trkpt lat="40.4482485540211200714111328125" lon="-1.59117163158953189849853515625">
        <ele>1340.4000244140625</ele>
        <time>2022-05-05T07:58:21.000Z</time>
      </trkpt>
      <trkpt lat="40.448076725006103515625" lon="-1.5911065042018890380859375">
        <ele>1340.5999755859375</ele>
        <time>2022-05-05T07:58:23.000Z</time>
      </trkpt>
      <trkpt lat="40.44799366034567356109619140625" lon="-1.59106367267668247222900390625">
        <ele>1340.800048828125</ele>
        <time>2022-05-05T07:58:24.000Z</time>
      </trkpt>
      <trkpt lat="40.44783524237573146820068359375" lon="-1.59096191637217998504638671875">
        <ele>1340.800048828125</ele>
        <time>2022-05-05T07:58:26.000Z</time>
      </trkpt>
      <trkpt lat="40.4475295543670654296875" lon="-1.59074348397552967071533203125">
        <ele>1341.199951171875</ele>
        <time>2022-05-05T07:58:30.000Z</time>
      </trkpt>
      <trkpt lat="40.44732243753969669342041015625" lon="-1.5905853174626827239990234375">
        <ele>1342.800048828125</ele>
        <time>2022-05-05T07:58:33.000Z</time>
      </trkpt>
      <trkpt lat="40.4470574855804443359375" lon="-1.5904076211154460906982421875">
        <ele>1341.4000244140625</ele>
        <time>2022-05-05T07:58:37.000Z</time>
      </trkpt>
      <trkpt lat="40.446678958833217620849609375" lon="-1.59025515429675579071044921875">
        <ele>1338.800048828125</ele>
        <time>2022-05-05T07:58:43.000Z</time>
      </trkpt>
      <trkpt lat="40.44651391915977001190185546875" lon="-1.59023839049041271209716796875">
        <ele>1337.199951171875</ele>
        <time>2022-05-05T07:58:46.000Z</time>
      </trkpt>
      <trkpt lat="40.44642088003456592559814453125" lon="-1.59024241380393505096435546875">
        <ele>1336.199951171875</ele>
        <time>2022-05-05T07:58:48.000Z</time>
      </trkpt>
      <trkpt lat="40.4463321156799793243408203125" lon="-1.590257920324802398681640625">
        <ele>1335.199951171875</ele>
        <time>2022-05-05T07:58:50.000Z</time>
      </trkpt>
      <trkpt lat="40.4461648128926753997802734375" lon="-1.59031332470476627349853515625">
        <ele>1336.800048828125</ele>
        <time>2022-05-05T07:58:54.000Z</time>
      </trkpt>
      <trkpt lat="40.44603162445127964019775390625" lon="-1.59037870354950428009033203125">
        <ele>1338</ele>
        <time>2022-05-05T07:58:58.000Z</time>
      </trkpt>
      <trkpt lat="40.44597496278584003448486328125" lon="-1.59041843377053737640380859375">
        <ele>1338.5999755859375</ele>
        <time>2022-05-05T07:59:00.000Z</time>
      </trkpt>
      <trkpt lat="40.44586901552975177764892578125" lon="-1.59050024114549160003662109375">
        <ele>1339.4000244140625</ele>
        <time>2022-05-05T07:59:04.000Z</time>
      </trkpt>
      <trkpt lat="40.4457473941147327423095703125" lon="-1.59059747122228145599365234375">
        <ele>1340.199951171875</ele>
        <time>2022-05-05T07:59:09.000Z</time>
      </trkpt>
      <trkpt lat="40.4457245953381061553955078125" lon="-1.59061742015182971954345703125">
        <ele>1340.4000244140625</ele>
        <time>2022-05-05T07:59:10.000Z</time>
      </trkpt>
      <trkpt lat="40.44559911824762821197509765625" lon="-1.5907190926373004913330078125">
        <ele>1341</ele>
        <time>2022-05-05T07:59:16.000Z</time>
      </trkpt>
      <trkpt lat="40.44557631947100162506103515625" lon="-1.590740717947483062744140625">
        <ele>1341</ele>
        <time>2022-05-05T07:59:17.000Z</time>
      </trkpt>
      <trkpt lat="40.4454188235104084014892578125" lon="-1.59088463522493839263916015625">
        <ele>1340.5999755859375</ele>
        <time>2022-05-05T07:59:24.000Z</time>
      </trkpt>
      <trkpt lat="40.44526233337819576263427734375" lon="-1.591024696826934814453125">
        <ele>1339.800048828125</ele>
        <time>2022-05-05T07:59:31.000Z</time>
      </trkpt>
      <trkpt lat="40.4451732337474822998046875" lon="-1.59110843203961849212646484375">
        <ele>1339.4000244140625</ele>
        <time>2022-05-05T07:59:35.000Z</time>
      </trkpt>
      <trkpt lat="40.445150434970855712890625" lon="-1.591128297150135040283203125">
        <ele>1339.199951171875</ele>
        <time>2022-05-05T07:59:36.000Z</time>
      </trkpt>
      <trkpt lat="40.44502847827970981597900390625" lon="-1.59125628881156444549560546875">
        <ele>1338.4000244140625</ele>
        <time>2022-05-05T07:59:42.000Z</time>
      </trkpt>
      <trkpt lat="40.44499008916318416595458984375" lon="-1.591299958527088165283203125">
        <ele>1338.199951171875</ele>
        <time>2022-05-05T07:59:44.000Z</time>
      </trkpt>
      <trkpt lat="40.44491968117654323577880859375" lon="-1.59137916751205921173095703125">
        <ele>1337.5999755859375</ele>
        <time>2022-05-05T07:59:48.000Z</time>
      </trkpt>
      <trkpt lat="40.44482924044132232666015625" lon="-1.59147799015045166015625">
        <ele>1337</ele>
        <time>2022-05-05T07:59:53.000Z</time>
      </trkpt>
      <trkpt lat="40.44481046497821807861328125" lon="-1.59149718470871448516845703125">
        <ele>1336.800048828125</ele>
        <time>2022-05-05T07:59:54.000Z</time>
      </trkpt>
      <trkpt lat="40.44475078582763671875" lon="-1.5915442071855068206787109375">
        <ele>1336.5999755859375</ele>
        <time>2022-05-05T07:59:57.000Z</time>
      </trkpt>
      <trkpt lat="40.4446946270763874053955078125" lon="-1.59159055911004543304443359375">
        <ele>1336.4000244140625</ele>
        <time>2022-05-05T08:00:00.000Z</time>
      </trkpt>
      <trkpt lat="40.44465548358857631683349609375" lon="-1.59161989577114582061767578125">
        <ele>1336.4000244140625</ele>
        <time>2022-05-05T08:00:02.000Z</time>
      </trkpt>
      <trkpt lat="40.4445611871778964996337890625" lon="-1.5916836820542812347412109375">
        <ele>1336.5999755859375</ele>
        <time>2022-05-05T08:00:07.000Z</time>
      </trkpt>
      <trkpt lat="40.44450377114117145538330078125" lon="-1.59172140061855316162109375">
        <ele>1336.800048828125</ele>
        <time>2022-05-05T08:00:10.000Z</time>
      </trkpt>
      <trkpt lat="40.4444639571011066436767578125" lon="-1.5917447023093700408935546875">
        <ele>1337</ele>
        <time>2022-05-05T08:00:12.000Z</time>
      </trkpt>
      <trkpt lat="40.44434216804802417755126953125" lon="-1.59181552939116954803466796875">
        <ele>1337.5999755859375</ele>
        <time>2022-05-05T08:00:18.000Z</time>
      </trkpt>
      <trkpt lat="40.444321297109127044677734375" lon="-1.5918218158185482025146484375">
        <ele>1338</ele>
        <time>2022-05-05T08:00:19.000Z</time>
      </trkpt>
      <trkpt lat="40.444125831127166748046875" lon="-1.59189331345260143280029296875">
        <ele>1340.800048828125</ele>
        <time>2022-05-05T08:00:28.000Z</time>
      </trkpt>
      <trkpt lat="40.4441038705408573150634765625" lon="-1.59189641475677490234375">
        <ele>1341.199951171875</ele>
        <time>2022-05-05T08:00:29.000Z</time>
      </trkpt>
      <trkpt lat="40.44397227466106414794921875" lon="-1.59190756268799304962158203125">
        <ele>1344</ele>
        <time>2022-05-05T08:00:35.000Z</time>
      </trkpt>
      <trkpt lat="40.44388485141098499298095703125" lon="-1.59190923906862735748291015625">
        <ele>1346.199951171875</ele>
        <time>2022-05-05T08:00:39.000Z</time>
      </trkpt>
      <trkpt lat="40.44379793107509613037109375" lon="-1.59191410057246685028076171875">
        <ele>1347.4000244140625</ele>
        <time>2022-05-05T08:00:43.000Z</time>
      </trkpt>
      <trkpt lat="40.44367379508912563323974609375" lon="-1.591916866600513458251953125">
        <ele>1347.199951171875</ele>
        <time>2022-05-05T08:00:49.000Z</time>
      </trkpt>
      <trkpt lat="40.4436318017542362213134765625" lon="-1.5919170342385768890380859375">
        <ele>1347.199951171875</ele>
        <time>2022-05-05T08:00:51.000Z</time>
      </trkpt>
      <trkpt lat="40.44346810318529605865478515625" lon="-1.59190647304058074951171875">
        <ele>1347.199951171875</ele>
        <time>2022-05-05T08:00:59.000Z</time>
      </trkpt>
      <trkpt lat="40.4434467293322086334228515625" lon="-1.59190647304058074951171875">
        <ele>1347.199951171875</ele>
        <time>2022-05-05T08:01:00.000Z</time>
      </trkpt>
      <trkpt lat="40.44330230914056301116943359375" lon="-1.59189641475677490234375">
        <ele>1348.4000244140625</ele>
        <time>2022-05-05T08:01:07.000Z</time>
      </trkpt>
      <trkpt lat="40.4432809352874755859375" lon="-1.5918892063200473785400390625">
        <ele>1348.800048828125</ele>
        <time>2022-05-05T08:01:08.000Z</time>
      </trkpt>
      <trkpt lat="40.44313115067780017852783203125" lon="-1.591846458613872528076171875">
        <ele>1351.4000244140625</ele>
        <time>2022-05-05T08:01:15.000Z</time>
      </trkpt>
      <trkpt lat="40.44296720065176486968994140625" lon="-1.59177747555077075958251953125">
        <ele>1354.5999755859375</ele>
        <time>2022-05-05T08:01:23.000Z</time>
      </trkpt>
      <trkpt lat="40.4428318329155445098876953125" lon="-1.59170304425060749053955078125">
        <ele>1355.4000244140625</ele>
        <time>2022-05-05T08:01:30.000Z</time>
      </trkpt>
      <trkpt lat="40.44279671274125576019287109375" lon="-1.591678820550441741943359375">
        <ele>1355.5999755859375</ele>
        <time>2022-05-05T08:01:32.000Z</time>
      </trkpt>
      <trkpt lat="40.442732088267803192138671875" lon="-1.591622494161128997802734375">
        <ele>1356.5999755859375</ele>
        <time>2022-05-05T08:01:36.000Z</time>
      </trkpt>
      <trkpt lat="40.44265237636864185333251953125" lon="-1.59154261462390422821044921875">
        <ele>1358.199951171875</ele>
        <time>2022-05-05T08:01:41.000Z</time>
      </trkpt>
      <trkpt lat="40.44259772635996341705322265625" lon="-1.59147472120821475982666015625">
        <ele>1359.800048828125</ele>
        <time>2022-05-05T08:01:45.000Z</time>
      </trkpt>
      <trkpt lat="40.4425391368567943572998046875" lon="-1.5914080850780010223388671875">
        <ele>1361.4000244140625</ele>
        <time>2022-05-05T08:01:49.000Z</time>
      </trkpt>
      <trkpt lat="40.44250653125345706939697265625" lon="-1.591375060379505157470703125">
        <ele>1362.199951171875</ele>
        <time>2022-05-05T08:01:51.000Z</time>
      </trkpt>
      <trkpt lat="40.442448444664478302001953125" lon="-1.59130456857383251190185546875">
        <ele>1364</ele>
        <time>2022-05-05T08:01:55.000Z</time>
      </trkpt>
      <trkpt lat="40.4423580877482891082763671875" lon="-1.59115185029804706573486328125">
        <ele>1367.4000244140625</ele>
        <time>2022-05-05T08:02:02.000Z</time>
      </trkpt>
      <trkpt lat="40.44234693981707096099853515625" lon="-1.591128297150135040283203125">
        <ele>1368</ele>
        <time>2022-05-05T08:02:03.000Z</time>
      </trkpt>
      <trkpt lat="40.442272759974002838134765625" lon="-1.5909591503441333770751953125">
        <ele>1371.5999755859375</ele>
        <time>2022-05-05T08:02:10.000Z</time>
      </trkpt>
      <trkpt lat="40.4422531463205814361572265625" lon="-1.59091212786734104156494140625">
        <ele>1372.800048828125</ele>
        <time>2022-05-05T08:02:12.000Z</time>
      </trkpt>
      <trkpt lat="40.4422142542898654937744140625" lon="-1.5908168256282806396484375">
        <ele>1375</ele>
        <time>2022-05-05T08:02:16.000Z</time>
      </trkpt>
      <trkpt lat="40.44218852184712886810302734375" lon="-1.59074264578521251678466796875">
        <ele>1376.800048828125</ele>
        <time>2022-05-05T08:02:19.000Z</time>
      </trkpt>
      <trkpt lat="40.4421436786651611328125" lon="-1.59061641432344913482666015625">
        <ele>1378.800048828125</ele>
        <time>2022-05-05T08:02:24.000Z</time>
      </trkpt>
      <trkpt lat="40.44209715910255908966064453125" lon="-1.590489931404590606689453125">
        <ele>1379.4000244140625</ele>
        <time>2022-05-05T08:02:29.000Z</time>
      </trkpt>
      <trkpt lat="40.442062877118587493896484375" lon="-1.59038742072880268096923828125">
        <ele>1380.199951171875</ele>
        <time>2022-05-05T08:02:33.000Z</time>
      </trkpt>
      <trkpt lat="40.4420097358524799346923828125" lon="-1.59022950567305088043212890625">
        <ele>1381.199951171875</ele>
        <time>2022-05-05T08:02:39.000Z</time>
      </trkpt>
      <trkpt lat="40.4419909603893756866455078125" lon="-1.590177454054355621337890625">
        <ele>1381.4000244140625</ele>
        <time>2022-05-05T08:02:41.000Z</time>
      </trkpt>
      <trkpt lat="40.4419492185115814208984375" lon="-1.59005281515419483184814453125">
        <ele>1382.4000244140625</ele>
        <time>2022-05-05T08:02:46.000Z</time>
      </trkpt>
      <trkpt lat="40.4419116675853729248046875" lon="-1.5899556688964366912841796875">
        <ele>1383.199951171875</ele>
        <time>2022-05-05T08:02:50.000Z</time>
      </trkpt>
      <trkpt lat="40.44189532287418842315673828125" lon="-1.5899063833057880401611328125">
        <ele>1383.5999755859375</ele>
        <time>2022-05-05T08:02:52.000Z</time>
      </trkpt>
      <trkpt lat="40.4418447799980640411376953125" lon="-1.58976732753217220306396484375">
        <ele>1384.199951171875</ele>
        <time>2022-05-05T08:02:58.000Z</time>
      </trkpt>
      <trkpt lat="40.4418367333710193634033203125" lon="-1.58974218182265758514404296875">
        <ele>1384.199951171875</ele>
        <time>2022-05-05T08:02:59.000Z</time>
      </trkpt>
      <trkpt lat="40.4417519085109233856201171875" lon="-1.589530371129512786865234375">
        <ele>1383.800048828125</ele>
        <time>2022-05-05T08:03:08.000Z</time>
      </trkpt>
      <trkpt lat="40.44174126349389553070068359375" lon="-1.58950899727642536163330078125">
        <ele>1383.5999755859375</ele>
        <time>2022-05-05T08:03:09.000Z</time>
      </trkpt>
      <trkpt lat="40.4416399262845516204833984375" lon="-1.58933901228010654449462890625">
        <ele>1383.5999755859375</ele>
        <time>2022-05-05T08:03:17.000Z</time>
      </trkpt>
      <trkpt lat="40.4415249265730381011962890625" lon="-1.58918411470949649810791015625">
        <ele>1383.199951171875</ele>
        <time>2022-05-05T08:03:25.000Z</time>
      </trkpt>
      <trkpt lat="40.44147245585918426513671875" lon="-1.58913063816726207733154296875">
        <ele>1382.800048828125</ele>
        <time>2022-05-05T08:03:28.000Z</time>
      </trkpt>
      <trkpt lat="40.44137497432529926300048828125" lon="-1.58902837894856929779052734375">
        <ele>1382</ele>
        <time>2022-05-05T08:03:34.000Z</time>
      </trkpt>
      <trkpt lat="40.44132300652563571929931640625" lon="-1.58899091184139251708984375">
        <ele>1381.4000244140625</ele>
        <time>2022-05-05T08:03:37.000Z</time>
      </trkpt>
      <trkpt lat="40.4412506707012653350830078125" lon="-1.5889444760978221893310546875">
        <ele>1381.800048828125</ele>
        <time>2022-05-05T08:03:41.000Z</time>
      </trkpt>
      <trkpt lat="40.44117799960076808929443359375" lon="-1.5889005549252033233642578125">
        <ele>1382</ele>
        <time>2022-05-05T08:03:45.000Z</time>
      </trkpt>
      <trkpt lat="40.441118739545345306396484375" lon="-1.5888780914247035980224609375">
        <ele>1382</ele>
        <time>2022-05-05T08:03:48.000Z</time>
      </trkpt>
      <trkpt lat="40.44099778868257999420166015625" lon="-1.58884062431752681732177734375">
        <ele>1382</ele>
        <time>2022-05-05T08:03:54.000Z</time>
      </trkpt>
      <trkpt lat="40.44097700156271457672119140625" lon="-1.58883509226143360137939453125">
        <ele>1382</ele>
        <time>2022-05-05T08:03:55.000Z</time>
      </trkpt>
      <trkpt lat="40.44081372208893299102783203125" lon="-1.58881790935993194580078125">
        <ele>1381.199951171875</ele>
        <time>2022-05-05T08:04:03.000Z</time>
      </trkpt>
      <trkpt lat="40.4406699724495410919189453125" lon="-1.58882453106343746185302734375">
        <ele>1380.4000244140625</ele>
        <time>2022-05-05T08:04:10.000Z</time>
      </trkpt>
      <trkpt lat="40.440648682415485382080078125" lon="-1.588828973472118377685546875">
        <ele>1380.199951171875</ele>
        <time>2022-05-05T08:04:11.000Z</time>
      </trkpt>
      <trkpt lat="40.44053929857909679412841796875" lon="-1.5888499282300472259521484375">
        <ele>1379.800048828125</ele>
        <time>2022-05-05T08:04:16.000Z</time>
      </trkpt>
      <trkpt lat="40.44047391973435878753662109375" lon="-1.5888653509318828582763671875">
        <ele>1379.5999755859375</ele>
        <time>2022-05-05T08:04:19.000Z</time>
      </trkpt>
      <trkpt lat="40.4403273202478885650634765625" lon="-1.588926874101161956787109375">
        <ele>1380.800048828125</ele>
        <time>2022-05-05T08:04:26.000Z</time>
      </trkpt>
      <trkpt lat="40.44018625281751155853271484375" lon="-1.5890031494200229644775390625">
        <ele>1381.4000244140625</ele>
        <time>2022-05-05T08:04:33.000Z</time>
      </trkpt>
      <trkpt lat="40.44014467857778072357177734375" lon="-1.58902770839631557464599609375">
        <ele>1381.5999755859375</ele>
        <time>2022-05-05T08:04:35.000Z</time>
      </trkpt>
      <trkpt lat="40.4400235600769519805908203125" lon="-1.58909141086041927337646484375">
        <ele>1382.199951171875</ele>
        <time>2022-05-05T08:04:41.000Z</time>
      </trkpt>
      <trkpt lat="40.4399648867547512054443359375" lon="-1.58912594430148601531982421875">
        <ele>1382.4000244140625</ele>
        <time>2022-05-05T08:04:44.000Z</time>
      </trkpt>
      <trkpt lat="40.43990395031869411468505859375" lon="-1.589162237942218780517578125">
        <ele>1382.5999755859375</ele>
        <time>2022-05-05T08:04:47.000Z</time>
      </trkpt>
      <trkpt lat="40.4398007690906524658203125" lon="-1.58922250382602214813232421875">
        <ele>1383</ele>
        <time>2022-05-05T08:04:52.000Z</time>
      </trkpt>
      <trkpt lat="40.43971971608698368072509765625" lon="-1.58926558680832386016845703125">
        <ele>1383.5999755859375</ele>
        <time>2022-05-05T08:04:56.000Z</time>
      </trkpt>
      <trkpt lat="40.439600609242916107177734375" lon="-1.5893333964049816131591796875">
        <ele>1384</ele>
        <time>2022-05-05T08:05:02.000Z</time>
      </trkpt>
      <trkpt lat="40.43954017572104930877685546875" lon="-1.5893662534654140472412109375">
        <ele>1384.199951171875</ele>
        <time>2022-05-05T08:05:05.000Z</time>
      </trkpt>
      <trkpt lat="40.4394180513918399810791015625" lon="-1.5894292853772640228271484375">
        <ele>1384.800048828125</ele>
        <time>2022-05-05T08:05:11.000Z</time>
      </trkpt>
      <trkpt lat="40.4393774829804897308349609375" lon="-1.5894544310867786407470703125">
        <ele>1384.800048828125</ele>
        <time>2022-05-05T08:05:13.000Z</time>
      </trkpt>
      <trkpt lat="40.4392950050532817840576171875" lon="-1.5894976817071437835693359375">
        <ele>1385.199951171875</ele>
        <time>2022-05-05T08:05:17.000Z</time>
      </trkpt>
      <trkpt lat="40.439257286489009857177734375" lon="-1.58952458761632442474365234375">
        <ele>1385.199951171875</ele>
        <time>2022-05-05T08:05:19.000Z</time>
      </trkpt>
      <trkpt lat="40.4391384311020374298095703125" lon="-1.589594744145870208740234375">
        <ele>1385.5999755859375</ele>
        <time>2022-05-05T08:05:25.000Z</time>
      </trkpt>
      <trkpt lat="40.4390800930559635162353515625" lon="-1.58962986432015895843505859375">
        <ele>1385.800048828125</ele>
        <time>2022-05-05T08:05:28.000Z</time>
      </trkpt>
      <trkpt lat="40.4389449767768383026123046875" lon="-1.5897037088871002197265625">
        <ele>1386.199951171875</ele>
        <time>2022-05-05T08:05:35.000Z</time>
      </trkpt>
      <trkpt lat="40.438904576003551483154296875" lon="-1.58972508274018764495849609375">
        <ele>1386.5999755859375</ele>
        <time>2022-05-05T08:05:37.000Z</time>
      </trkpt>
      <trkpt lat="40.438756048679351806640625" lon="-1.58980202861130237579345703125">
        <ele>1387.5999755859375</ele>
        <time>2022-05-05T08:05:44.000Z</time>
      </trkpt>
      <trkpt lat="40.43861514888703823089599609375" lon="-1.58987729810178279876708984375">
        <ele>1389</ele>
        <time>2022-05-05T08:05:51.000Z</time>
      </trkpt>
      <trkpt lat="40.43857357464730739593505859375" lon="-1.58990152180194854736328125">
        <ele>1389.4000244140625</ele>
        <time>2022-05-05T08:05:53.000Z</time>
      </trkpt>
      <trkpt lat="40.43843728490173816680908203125" lon="-1.589992046356201171875">
        <ele>1390.800048828125</ele>
        <time>2022-05-05T08:06:00.000Z</time>
      </trkpt>
      <trkpt lat="40.438419096171855926513671875" lon="-1.5900046192109584808349609375">
        <ele>1391</ele>
        <time>2022-05-05T08:06:01.000Z</time>
      </trkpt>
      <trkpt lat="40.4383220337331295013427734375" lon="-1.5900941379368305206298828125">
        <ele>1391.4000244140625</ele>
        <time>2022-05-05T08:06:07.000Z</time>
      </trkpt>
      <trkpt lat="40.43830468319356441497802734375" lon="-1.59010997973382472991943359375">
        <ele>1391.4000244140625</ele>
        <time>2022-05-05T08:06:08.000Z</time>
      </trkpt>
      <trkpt lat="40.4381887614727020263671875" lon="-1.5902155078947544097900390625">
        <ele>1392</ele>
        <time>2022-05-05T08:06:15.000Z</time>
      </trkpt>
      <trkpt lat="40.43815984390676021575927734375" lon="-1.5902527235448360443115234375">
        <ele>1392</ele>
        <time>2022-05-05T08:06:17.000Z</time>
      </trkpt>
      <trkpt lat="40.4380662180483341217041015625" lon="-1.59036428667604923248291015625">
        <ele>1392</ele>
        <time>2022-05-05T08:06:23.000Z</time>
      </trkpt>
      <trkpt lat="40.437966473400592803955078125" lon="-1.59045330248773097991943359375">
        <ele>1392.4000244140625</ele>
        <time>2022-05-05T08:06:29.000Z</time>
      </trkpt>
      <trkpt lat="40.43792565353214740753173828125" lon="-1.5904857404530048370361328125">
        <ele>1392.199951171875</ele>
        <time>2022-05-05T08:06:31.000Z</time>
      </trkpt>
      <trkpt lat="40.4378241486847400665283203125" lon="-1.59056377597153186798095703125">
        <ele>1392</ele>
        <time>2022-05-05T08:06:36.000Z</time>
      </trkpt>
      <trkpt lat="40.4377108253538608551025390625" lon="-1.59064575098454952239990234375">
        <ele>1391.5999755859375</ele>
        <time>2022-05-05T08:06:43.000Z</time>
      </trkpt>
      <trkpt lat="40.43769330717623233795166015625" lon="-1.5906537137925624847412109375">
        <ele>1391.5999755859375</ele>
        <time>2022-05-05T08:06:46.000Z</time>
      </trkpt>
      <trkpt lat="40.437650978565216064453125" lon="-1.59066863358020782470703125">
        <ele>1391.800048828125</ele>
        <time>2022-05-05T08:08:44.000Z</time>
      </trkpt>
      <trkpt lat="40.437559783458709716796875" lon="-1.59071481786668300628662109375">
        <ele>1392.4000244140625</ele>
        <time>2022-05-05T08:08:49.000Z</time>
      </trkpt>
      <trkpt lat="40.43744671158492565155029296875" lon="-1.59072118811309337615966796875">
        <ele>1393.5999755859375</ele>
        <time>2022-05-05T08:08:55.000Z</time>
      </trkpt>
      <trkpt lat="40.4372622258961200714111328125" lon="-1.5907449088990688323974609375">
        <ele>1395.4000244140625</ele>
        <time>2022-05-05T08:09:02.000Z</time>
      </trkpt>
      <trkpt lat="40.43700012378394603729248046875" lon="-1.5907040052115917205810546875">
        <ele>1396.5999755859375</ele>
        <time>2022-05-05T08:09:10.000Z</time>
      </trkpt>
      <trkpt lat="40.43698738329112529754638671875" lon="-1.59070274792611598968505859375">
        <ele>1396.5999755859375</ele>
        <time>2022-05-05T08:09:12.000Z</time>
      </trkpt>
      <trkpt lat="40.43694245629012584686279296875" lon="-1.59069151617586612701416015625">
        <ele>1396.4000244140625</ele>
        <time>2022-05-05T08:09:24.000Z</time>
      </trkpt>
      <trkpt lat="40.43692284263670444488525390625" lon="-1.590681038796901702880859375">
        <ele>1396.4000244140625</ele>
        <time>2022-05-05T08:09:25.000Z</time>
      </trkpt>
      <trkpt lat="40.43675621040165424346923828125" lon="-1.5905967168509960174560546875">
        <ele>1397.199951171875</ele>
        <time>2022-05-05T08:09:31.000Z</time>
      </trkpt>
      <trkpt lat="40.43668630532920360565185546875" lon="-1.590546257793903350830078125">
        <ele>1397.5999755859375</ele>
        <time>2022-05-05T08:09:33.000Z</time>
      </trkpt>
      <trkpt lat="40.4365713894367218017578125" lon="-1.5904398076236248016357421875">
        <ele>1398.800048828125</ele>
        <time>2022-05-05T08:09:36.000Z</time>
      </trkpt>
      <trkpt lat="40.43640115298330783843994140625" lon="-1.5902349539101123809814453125">
        <ele>1397.5999755859375</ele>
        <time>2022-05-05T08:09:40.000Z</time>
      </trkpt>
      <trkpt lat="40.4363583214581012725830078125" lon="-1.59016882069408893585205078125">
        <ele>1397.199951171875</ele>
        <time>2022-05-05T08:09:41.000Z</time>
      </trkpt>
      <trkpt lat="40.4362761788070201873779296875" lon="-1.59001828171312808990478515625">
        <ele>1397.5999755859375</ele>
        <time>2022-05-05T08:09:43.000Z</time>
      </trkpt>
      <trkpt lat="40.43616897426545619964599609375" lon="-1.58974234946072101593017578125">
        <ele>1396.800048828125</ele>
        <time>2022-05-05T08:09:46.000Z</time>
      </trkpt>
      <trkpt lat="40.4361368715763092041015625" lon="-1.58963891677558422088623046875">
        <ele>1396.5999755859375</ele>
        <time>2022-05-05T08:09:47.000Z</time>
      </trkpt>
      <trkpt lat="40.43607425875961780548095703125" lon="-1.58941679634153842926025390625">
        <ele>1396.4000244140625</ele>
        <time>2022-05-05T08:09:49.000Z</time>
      </trkpt>
      <trkpt lat="40.43601491488516330718994140625" lon="-1.5891774930059909820556640625">
        <ele>1394.5999755859375</ele>
        <time>2022-05-05T08:09:51.000Z</time>
      </trkpt>
      <trkpt lat="40.43595138005912303924560546875" lon="-1.588931567966938018798828125">
        <ele>1392.199951171875</ele>
        <time>2022-05-05T08:09:53.000Z</time>
      </trkpt>
      <trkpt lat="40.435848534107208251953125" lon="-1.5885565616190433502197265625">
        <ele>1391.800048828125</ele>
        <time>2022-05-05T08:09:56.000Z</time>
      </trkpt>
      <trkpt lat="40.43577552773058414459228515625" lon="-1.58830066211521625518798828125">
        <ele>1390.800048828125</ele>
        <time>2022-05-05T08:09:58.000Z</time>
      </trkpt>
      <trkpt lat="40.4357399046421051025390625" lon="-1.58816990442574024200439453125">
        <ele>1390.4000244140625</ele>
        <time>2022-05-05T08:09:59.000Z</time>
      </trkpt>
      <trkpt lat="40.43570662848651409149169921875" lon="-1.588039062917232513427734375">
        <ele>1390.5999755859375</ele>
        <time>2022-05-05T08:10:00.000Z</time>
      </trkpt>
      <trkpt lat="40.4356371425092220306396484375" lon="-1.5877725183963775634765625">
        <ele>1390.4000244140625</ele>
        <time>2022-05-05T08:10:02.000Z</time>
      </trkpt>
      <trkpt lat="40.4355674050748348236083984375" lon="-1.587496586143970489501953125">
        <ele>1390</ele>
        <time>2022-05-05T08:10:04.000Z</time>
      </trkpt>
      <trkpt lat="40.43552859686315059661865234375" lon="-1.587358452379703521728515625">
        <ele>1389.800048828125</ele>
        <time>2022-05-05T08:10:05.000Z</time>
      </trkpt>
      <trkpt lat="40.43548920191824436187744140625" lon="-1.58721797168254852294921875">
        <ele>1388.4000244140625</ele>
        <time>2022-05-05T08:10:06.000Z</time>
      </trkpt>
      <trkpt lat="40.43540387414395809173583984375" lon="-1.586939357221126556396484375">
        <ele>1385</ele>
        <time>2022-05-05T08:10:08.000Z</time>
      </trkpt>
      <trkpt lat="40.435307733714580535888671875" lon="-1.58667138777673244476318359375">
        <ele>1381.5999755859375</ele>
        <time>2022-05-05T08:10:10.000Z</time>
      </trkpt>
      <trkpt lat="40.43525417335331439971923828125" lon="-1.58654314465820789337158203125">
        <ele>1381</ele>
        <time>2022-05-05T08:10:11.000Z</time>
      </trkpt>
      <trkpt lat="40.4351954162120819091796875" lon="-1.58642378635704517364501953125">
        <ele>1380.199951171875</ele>
        <time>2022-05-05T08:10:12.000Z</time>
      </trkpt>
      <trkpt lat="40.435059629380702972412109375" lon="-1.5862136520445346832275390625">
        <ele>1378.199951171875</ele>
        <time>2022-05-05T08:10:14.000Z</time>
      </trkpt>
      <trkpt lat="40.4349867068231105804443359375" lon="-1.5861184336245059967041015625">
        <ele>1377.199951171875</ele>
        <time>2022-05-05T08:10:15.000Z</time>
      </trkpt>
      <trkpt lat="40.43483658693730831146240234375" lon="-1.5859467722475528717041015625">
        <ele>1376.199951171875</ele>
        <time>2022-05-05T08:10:17.000Z</time>
      </trkpt>
      <trkpt lat="40.43461270630359649658203125" lon="-1.58571082167327404022216796875">
        <ele>1374.4000244140625</ele>
        <time>2022-05-05T08:10:20.000Z</time>
      </trkpt>
      <trkpt lat="40.434537939727306365966796875" lon="-1.585635803639888763427734375">
        <ele>1374</ele>
        <time>2022-05-05T08:10:21.000Z</time>
      </trkpt>
      <trkpt lat="40.43432730250060558319091796875" lon="-1.58541628159582614898681640625">
        <ele>1372.199951171875</ele>
        <time>2022-05-05T08:10:24.000Z</time>
      </trkpt>
      <trkpt lat="40.43411876074969768524169921875" lon="-1.5852048061788082122802734375">
        <ele>1369.800048828125</ele>
        <time>2022-05-05T08:10:27.000Z</time>
      </trkpt>
      <trkpt lat="40.4340492747724056243896484375" lon="-1.58513263799250125885009765625">
        <ele>1368.5999755859375</ele>
        <time>2022-05-05T08:10:28.000Z</time>
      </trkpt>
      <trkpt lat="40.43383880518376827239990234375" lon="-1.58491873182356357574462890625">
        <ele>1365.4000244140625</ele>
        <time>2022-05-05T08:10:31.000Z</time>
      </trkpt>
      <trkpt lat="40.43362271972000598907470703125" lon="-1.5846988745033740997314453125">
        <ele>1365.199951171875</ele>
        <time>2022-05-05T08:10:34.000Z</time>
      </trkpt>
      <trkpt lat="40.4335487075150012969970703125" lon="-1.5846204198896884918212890625">
        <ele>1365</ele>
        <time>2022-05-05T08:10:35.000Z</time>
      </trkpt>
      <trkpt lat="40.4333964921534061431884765625" lon="-1.58446946181356906890869140625">
        <ele>1364.800048828125</ele>
        <time>2022-05-05T08:10:37.000Z</time>
      </trkpt>
      <trkpt lat="40.43323815800249576568603515625" lon="-1.58430836163461208343505859375">
        <ele>1362.800048828125</ele>
        <time>2022-05-05T08:10:39.000Z</time>
      </trkpt>
      <trkpt lat="40.433074794709682464599609375" lon="-1.5841434895992279052734375">
        <ele>1360.800048828125</ele>
        <time>2022-05-05T08:10:41.000Z</time>
      </trkpt>
      <trkpt lat="40.4329101741313934326171875" lon="-1.58397157676517963409423828125">
        <ele>1359.199951171875</ele>
        <time>2022-05-05T08:10:43.000Z</time>
      </trkpt>
      <trkpt lat="40.432748235762119293212890625" lon="-1.58380125649273395538330078125">
        <ele>1358.800048828125</ele>
        <time>2022-05-05T08:10:45.000Z</time>
      </trkpt>
      <trkpt lat="40.4325901530683040618896484375" lon="-1.583618782460689544677734375">
        <ele>1358</ele>
        <time>2022-05-05T08:10:47.000Z</time>
      </trkpt>
      <trkpt lat="40.4324412904679775238037109375" lon="-1.58341602422297000885009765625">
        <ele>1355.5999755859375</ele>
        <time>2022-05-05T08:10:49.000Z</time>
      </trkpt>
      <trkpt lat="40.43230575509369373321533203125" lon="-1.58319021575152873992919921875">
        <ele>1352.5999755859375</ele>
        <time>2022-05-05T08:10:51.000Z</time>
      </trkpt>
      <trkpt lat="40.4321844689548015594482421875" lon="-1.5829624794423580169677734375">
        <ele>1350.800048828125</ele>
        <time>2022-05-05T08:10:53.000Z</time>
      </trkpt>
      <trkpt lat="40.43212638236582279205322265625" lon="-1.58284328877925872802734375">
        <ele>1350</ele>
        <time>2022-05-05T08:10:54.000Z</time>
      </trkpt>
      <trkpt lat="40.432070977985858917236328125" lon="-1.58272258937358856201171875">
        <ele>1349.4000244140625</ele>
        <time>2022-05-05T08:10:55.000Z</time>
      </trkpt>
      <trkpt lat="40.43195891194045543670654296875" lon="-1.58247674815356731414794921875">
        <ele>1348.199951171875</ele>
        <time>2022-05-05T08:10:57.000Z</time>
      </trkpt>
      <trkpt lat="40.4318453371524810791015625" lon="-1.5822221897542476654052734375">
        <ele>1346.4000244140625</ele>
        <time>2022-05-05T08:10:59.000Z</time>
      </trkpt>
      <trkpt lat="40.43172773905098438262939453125" lon="-1.5819633565843105316162109375">
        <ele>1344.5999755859375</ele>
        <time>2022-05-05T08:11:01.000Z</time>
      </trkpt>
      <trkpt lat="40.431615002453327178955078125" lon="-1.58170108683407306671142578125">
        <ele>1342.800048828125</ele>
        <time>2022-05-05T08:11:03.000Z</time>
      </trkpt>
      <trkpt lat="40.43151182122528553009033203125" lon="-1.581436805427074432373046875">
        <ele>1341.199951171875</ele>
        <time>2022-05-05T08:11:05.000Z</time>
      </trkpt>
      <trkpt lat="40.43142314068973064422607421875" lon="-1.58117151819169521331787109375">
        <ele>1339.800048828125</ele>
        <time>2022-05-05T08:11:07.000Z</time>
      </trkpt>
      <trkpt lat="40.43138332664966583251953125" lon="-1.58103975467383861541748046875">
        <ele>1339.199951171875</ele>
        <time>2022-05-05T08:11:08.000Z</time>
      </trkpt>
      <trkpt lat="40.431347452104091644287109375" lon="-1.58090631477534770965576171875">
        <ele>1338.5999755859375</ele>
        <time>2022-05-05T08:11:09.000Z</time>
      </trkpt>
      <trkpt lat="40.43128215707838535308837890625" lon="-1.58064329065382480621337890625">
        <ele>1336.5999755859375</ele>
        <time>2022-05-05T08:11:11.000Z</time>
      </trkpt>
      <trkpt lat="40.43120655231177806854248046875" lon="-1.58025219105184078216552734375">
        <ele>1333.800048828125</ele>
        <time>2022-05-05T08:11:14.000Z</time>
      </trkpt>
      <trkpt lat="40.43116615153849124908447265625" lon="-1.5800167433917522430419921875">
        <ele>1332.199951171875</ele>
        <time>2022-05-05T08:11:16.000Z</time>
      </trkpt>
      <trkpt lat="40.43113949708640575408935546875" lon="-1.57980996184051036834716796875">
        <ele>1330.800048828125</ele>
        <time>2022-05-05T08:11:18.000Z</time>
      </trkpt>
      <trkpt lat="40.43113731779158115386962890625" lon="-1.579715497791767120361328125">
        <ele>1329.199951171875</ele>
        <time>2022-05-05T08:11:19.000Z</time>
      </trkpt>
      <trkpt lat="40.43114821426570415496826171875" lon="-1.57963025383651256561279296875">
        <ele>1327.800048828125</ele>
        <time>2022-05-05T08:11:20.000Z</time>
      </trkpt>
      <trkpt lat="40.43116682209074497222900390625" lon="-1.579558588564395904541015625">
        <ele>1326.5999755859375</ele>
        <time>2022-05-05T08:11:21.000Z</time>
      </trkpt>
      <trkpt lat="40.4312922991812229156494140625" lon="-1.57941299490630626678466796875">
        <ele>1324.5999755859375</ele>
        <time>2022-05-05T08:11:24.000Z</time>
      </trkpt>
      <trkpt lat="40.43146689422428607940673828125" lon="-1.579418443143367767333984375">
        <ele>1324.199951171875</ele>
        <time>2022-05-05T08:11:27.000Z</time>
      </trkpt>
      <trkpt lat="40.43153411708772182464599609375" lon="-1.57945557497441768646240234375">
        <ele>1324.4000244140625</ele>
        <time>2022-05-05T08:11:28.000Z</time>
      </trkpt>
      <trkpt lat="40.43165833689272403717041015625" lon="-1.57958951778709888458251953125">
        <ele>1325.199951171875</ele>
        <time>2022-05-05T08:11:30.000Z</time>
      </trkpt>
      <trkpt lat="40.43175221420824527740478515625" lon="-1.57976520247757434844970703125">
        <ele>1324.4000244140625</ele>
        <time>2022-05-05T08:11:32.000Z</time>
      </trkpt>
      <trkpt lat="40.4318290762603282928466796875" lon="-1.5799681283533573150634765625">
        <ele>1324.199951171875</ele>
        <time>2022-05-05T08:11:34.000Z</time>
      </trkpt>
      <trkpt lat="40.43191666714847087860107421875" lon="-1.5801796875894069671630859375">
        <ele>1324.4000244140625</ele>
        <time>2022-05-05T08:11:36.000Z</time>
      </trkpt>
      <trkpt lat="40.43197466991841793060302734375" lon="-1.58027817495167255401611328125">
        <ele>1324.5999755859375</ele>
        <time>2022-05-05T08:11:37.000Z</time>
      </trkpt>
      <trkpt lat="40.4320392943918704986572265625" lon="-1.5803684480488300323486328125">
        <ele>1324.5999755859375</ele>
        <time>2022-05-05T08:11:38.000Z</time>
      </trkpt>
      <trkpt lat="40.43211062438786029815673828125" lon="-1.58045268617570400238037109375">
        <ele>1324.4000244140625</ele>
        <time>2022-05-05T08:11:39.000Z</time>
      </trkpt>
      <trkpt lat="40.43236996047198772430419921875" lon="-1.58063138835132122039794921875">
        <ele>1325</ele>
        <time>2022-05-05T08:11:42.000Z</time>
      </trkpt>
      <trkpt lat="40.4326722957193851470947265625" lon="-1.58069240860641002655029296875">
        <ele>1324.800048828125</ele>
        <time>2022-05-05T08:11:45.000Z</time>
      </trkpt>
      <trkpt lat="40.43287790380418300628662109375" lon="-1.58065653406083583831787109375">
        <ele>1324</ele>
        <time>2022-05-05T08:11:47.000Z</time>
      </trkpt>
      <trkpt lat="40.43298737145960330963134765625" lon="-1.58061210997402667999267578125">
        <ele>1323.4000244140625</ele>
        <time>2022-05-05T08:11:48.000Z</time>
      </trkpt>
      <trkpt lat="40.43318602256476879119873046875" lon="-1.5804596431553363800048828125">
        <ele>1322.4000244140625</ele>
        <time>2022-05-05T08:11:50.000Z</time>
      </trkpt>
      <trkpt lat="40.43326489627361297607421875" lon="-1.5803577192127704620361328125">
        <ele>1321.5999755859375</ele>
        <time>2022-05-05T08:11:51.000Z</time>
      </trkpt>
      <trkpt lat="40.4333270899951457977294921875" lon="-1.580247581005096435546875">
        <ele>1320.5999755859375</ele>
        <time>2022-05-05T08:11:52.000Z</time>
      </trkpt>
      <trkpt lat="40.433409400284290313720703125" lon="-1.57999017275869846343994140625">
        <ele>1318.4000244140625</ele>
        <time>2022-05-05T08:11:54.000Z</time>
      </trkpt>
      <trkpt lat="40.433450303971767425537109375" lon="-1.5797153301537036895751953125">
        <ele>1317</ele>
        <time>2022-05-05T08:11:56.000Z</time>
      </trkpt>
      <trkpt lat="40.4334518127143383026123046875" lon="-1.57957325689494609832763671875">
        <ele>1316.800048828125</ele>
        <time>2022-05-05T08:11:57.000Z</time>
      </trkpt>
      <trkpt lat="40.43343815021216869354248046875" lon="-1.57943286001682281494140625">
        <ele>1316.5999755859375</ele>
        <time>2022-05-05T08:11:58.000Z</time>
      </trkpt>
      <trkpt lat="40.43342574499547481536865234375" lon="-1.5792915411293506622314453125">
        <ele>1316</ele>
        <time>2022-05-05T08:11:59.000Z</time>
      </trkpt>
      <trkpt lat="40.4334099031984806060791015625" lon="-1.5791534073650836944580078125">
        <ele>1315.5999755859375</ele>
        <time>2022-05-05T08:12:00.000Z</time>
      </trkpt>
      <trkpt lat="40.43338752351701259613037109375" lon="-1.57901971600949764251708984375">
        <ele>1315</ele>
        <time>2022-05-05T08:12:01.000Z</time>
      </trkpt>
      <trkpt lat="40.4333495534956455230712890625" lon="-1.5787507407367229461669921875">
        <ele>1314.4000244140625</ele>
        <time>2022-05-05T08:12:03.000Z</time>
      </trkpt>
      <trkpt lat="40.43331024236977100372314453125" lon="-1.5784865431487560272216796875">
        <ele>1313.4000244140625</ele>
        <time>2022-05-05T08:12:05.000Z</time>
      </trkpt>
      <trkpt lat="40.43326749466359615325927734375" lon="-1.57823483459651470184326171875">
        <ele>1312.199951171875</ele>
        <time>2022-05-05T08:12:07.000Z</time>
      </trkpt>
      <trkpt lat="40.43323597870767116546630859375" lon="-1.57799762673676013946533203125">
        <ele>1311</ele>
        <time>2022-05-05T08:12:09.000Z</time>
      </trkpt>
      <trkpt lat="40.4332338832318782806396484375" lon="-1.57787893898785114288330078125">
        <ele>1310.199951171875</ele>
        <time>2022-05-05T08:12:10.000Z</time>
      </trkpt>
      <trkpt lat="40.43325626291334629058837890625" lon="-1.577635109424591064453125">
        <ele>1309</ele>
        <time>2022-05-05T08:12:12.000Z</time>
      </trkpt>
      <trkpt lat="40.43331644497811794281005859375" lon="-1.57740167342126369476318359375">
        <ele>1308</ele>
        <time>2022-05-05T08:12:14.000Z</time>
      </trkpt>
      <trkpt lat="40.43335801921784877777099609375" lon="-1.5772859193384647369384765625">
        <ele>1307.800048828125</ele>
        <time>2022-05-05T08:12:15.000Z</time>
      </trkpt>
      <trkpt lat="40.43339774943888187408447265625" lon="-1.57716773450374603271484375">
        <ele>1307.800048828125</ele>
        <time>2022-05-05T08:12:16.000Z</time>
      </trkpt>
      <trkpt lat="40.43346513994038105010986328125" lon="-1.57692340202629566192626953125">
        <ele>1307.4000244140625</ele>
        <time>2022-05-05T08:12:18.000Z</time>
      </trkpt>
      <trkpt lat="40.43347938917577266693115234375" lon="-1.576797924935817718505859375">
        <ele>1307</ele>
        <time>2022-05-05T08:12:19.000Z</time>
      </trkpt>
      <trkpt lat="40.43347285129129886627197265625" lon="-1.5766726993024349212646484375">
        <ele>1306.4000244140625</ele>
        <time>2022-05-05T08:12:20.000Z</time>
      </trkpt>
      <trkpt lat="40.43341686017811298370361328125" lon="-1.5764316357672214508056640625">
        <ele>1304.5999755859375</ele>
        <time>2022-05-05T08:12:22.000Z</time>
      </trkpt>
      <trkpt lat="40.43336547911167144775390625" lon="-1.5763256885111331939697265625">
        <ele>1303.4000244140625</ele>
        <time>2022-05-05T08:12:23.000Z</time>
      </trkpt>
      <trkpt lat="40.43312299065291881561279296875" lon="-1.5761087648570537567138671875">
        <ele>1300.5999755859375</ele>
        <time>2022-05-05T08:12:26.000Z</time>
      </trkpt>
      <trkpt lat="40.43292693793773651123046875" lon="-1.57603844068944454193115234375">
        <ele>1298.5999755859375</ele>
        <time>2022-05-05T08:12:28.000Z</time>
      </trkpt>
      <trkpt lat="40.432828702032566070556640625" lon="-1.57600591890513896942138671875">
        <ele>1297.4000244140625</ele>
        <time>2022-05-05T08:12:29.000Z</time>
      </trkpt>
      <trkpt lat="40.43273247778415679931640625" lon="-1.57597406767308712005615234375">
        <ele>1296.199951171875</ele>
        <time>2022-05-05T08:12:30.000Z</time>
      </trkpt>
      <trkpt lat="40.43263918720185756683349609375" lon="-1.575939618051052093505859375">
        <ele>1295.5999755859375</ele>
        <time>2022-05-05T08:12:31.000Z</time>
      </trkpt>
      <trkpt lat="40.43246828019618988037109375" lon="-1.57585554756224155426025390625">
        <ele>1295</ele>
        <time>2022-05-05T08:12:33.000Z</time>
      </trkpt>
      <trkpt lat="40.4323920048773288726806640625" lon="-1.5757999755442142486572265625">
        <ele>1294.800048828125</ele>
        <time>2022-05-05T08:12:34.000Z</time>
      </trkpt>
      <trkpt lat="40.43232386000454425811767578125" lon="-1.57573484815657138824462890625">
        <ele>1294.5999755859375</ele>
        <time>2022-05-05T08:12:35.000Z</time>
      </trkpt>
      <trkpt lat="40.43220902793109416961669921875" lon="-1.57557542435824871063232421875">
        <ele>1294.199951171875</ele>
        <time>2022-05-05T08:12:37.000Z</time>
      </trkpt>
      <trkpt lat="40.43216292746365070343017578125" lon="-1.57547928392887115478515625">
        <ele>1294.800048828125</ele>
        <time>2022-05-05T08:12:38.000Z</time>
      </trkpt>
      <trkpt lat="40.43206150643527507781982421875" lon="-1.57515741884708404541015625">
        <ele>1294.5999755859375</ele>
        <time>2022-05-05T08:12:41.000Z</time>
      </trkpt>
      <trkpt lat="40.43198573403060436248779296875" lon="-1.57480294816195964813232421875">
        <ele>1292.199951171875</ele>
        <time>2022-05-05T08:12:44.000Z</time>
      </trkpt>
      <trkpt lat="40.43192823417484760284423828125" lon="-1.57456171698868274688720703125">
        <ele>1289.800048828125</ele>
        <time>2022-05-05T08:12:46.000Z</time>
      </trkpt>
      <trkpt lat="40.4318907670676708221435546875" lon="-1.574444286525249481201171875">
        <ele>1288.199951171875</ele>
        <time>2022-05-05T08:12:47.000Z</time>
      </trkpt>
      <trkpt lat="40.43180854059755802154541015625" lon="-1.5742117725312709808349609375">
        <ele>1286.4000244140625</ele>
        <time>2022-05-05T08:12:49.000Z</time>
      </trkpt>
      <trkpt lat="40.4317170940339565277099609375" lon="-1.57398127019405364990234375">
        <ele>1285.4000244140625</ele>
        <time>2022-05-05T08:12:51.000Z</time>
      </trkpt>
      <trkpt lat="40.431619025766849517822265625" lon="-1.57374884001910686492919921875">
        <ele>1282.4000244140625</ele>
        <time>2022-05-05T08:12:53.000Z</time>
      </trkpt>
      <trkpt lat="40.4315699078142642974853515625" lon="-1.57363149337470531463623046875">
        <ele>1282.5999755859375</ele>
        <time>2022-05-05T08:12:54.000Z</time>
      </trkpt>
      <trkpt lat="40.431472845375537872314453125" lon="-1.5733960457146167755126953125">
        <ele>1283.5999755859375</ele>
        <time>2022-05-05T08:12:56.000Z</time>
      </trkpt>
      <trkpt lat="40.43137938715517520904541015625" lon="-1.57315892167389392852783203125">
        <ele>1284.199951171875</ele>
        <time>2022-05-05T08:12:58.000Z</time>
      </trkpt>
      <trkpt lat="40.431285761296749114990234375" lon="-1.57293059863150119781494140625">
        <ele>1283.199951171875</ele>
        <time>2022-05-05T08:13:00.000Z</time>
      </trkpt>
      <trkpt lat="40.43120269663631916046142578125" lon="-1.5726943127810955047607421875">
        <ele>1281.4000244140625</ele>
        <time>2022-05-05T08:13:02.000Z</time>
      </trkpt>
      <trkpt lat="40.4311196319758892059326171875" lon="-1.57230849377810955047607421875">
        <ele>1280</ele>
        <time>2022-05-05T08:13:05.000Z</time>
      </trkpt>
      <trkpt lat="40.43109096586704254150390625" lon="-1.5720395185053348541259765625">
        <ele>1278.4000244140625</ele>
        <time>2022-05-05T08:13:07.000Z</time>
      </trkpt>
      <trkpt lat="40.43108551762998104095458984375" lon="-1.57162469811737537384033203125">
        <ele>1276.800048828125</ele>
        <time>2022-05-05T08:13:10.000Z</time>
      </trkpt>
      <trkpt lat="40.43112323619425296783447265625" lon="-1.57120518386363983154296875">
        <ele>1275.4000244140625</ele>
        <time>2022-05-05T08:13:13.000Z</time>
      </trkpt>
      <trkpt lat="40.43115072883665561676025390625" lon="-1.57094308175146579742431640625">
        <ele>1274.800048828125</ele>
        <time>2022-05-05T08:13:15.000Z</time>
      </trkpt>
      <trkpt lat="40.4311828315258026123046875" lon="-1.57069732435047626495361328125">
        <ele>1274.5999755859375</ele>
        <time>2022-05-05T08:13:17.000Z</time>
      </trkpt>
      <trkpt lat="40.431228093802928924560546875" lon="-1.5704593621194362640380859375">
        <ele>1272.5999755859375</ele>
        <time>2022-05-05T08:13:19.000Z</time>
      </trkpt>
      <trkpt lat="40.43125935830175876617431640625" lon="-1.57034444622695446014404296875">
        <ele>1271.800048828125</ele>
        <time>2022-05-05T08:13:20.000Z</time>
      </trkpt>
      <trkpt lat="40.43130445294082164764404296875" lon="-1.5702343918383121490478515625">
        <ele>1271.4000244140625</ele>
        <time>2022-05-05T08:13:21.000Z</time>
      </trkpt>
      <trkpt lat="40.43142716400325298309326171875" lon="-1.57003817148506641387939453125">
        <ele>1269</ele>
        <time>2022-05-05T08:13:23.000Z</time>
      </trkpt>
      <trkpt lat="40.43166361749172210693359375" lon="-1.56979962252080440521240234375">
        <ele>1265.800048828125</ele>
        <time>2022-05-05T08:13:26.000Z</time>
      </trkpt>
      <trkpt lat="40.43175020255148410797119140625" lon="-1.569732986390590667724609375">
        <ele>1265</ele>
        <time>2022-05-05T08:13:27.000Z</time>
      </trkpt>
      <trkpt lat="40.4318391345441341400146484375" lon="-1.56968143768608570098876953125">
        <ele>1264.4000244140625</ele>
        <time>2022-05-05T08:13:28.000Z</time>
      </trkpt>
      <trkpt lat="40.43201741762459278106689453125" lon="-1.56962393783032894134521484375">
        <ele>1263.4000244140625</ele>
        <time>2022-05-05T08:13:30.000Z</time>
      </trkpt>
      <trkpt lat="40.43210752308368682861328125" lon="-1.569602228701114654541015625">
        <ele>1263</ele>
        <time>2022-05-05T08:13:31.000Z</time>
      </trkpt>
      <trkpt lat="40.43227926827967166900634765625" lon="-1.56954866833984851837158203125">
        <ele>1262.800048828125</ele>
        <time>2022-05-05T08:13:33.000Z</time>
      </trkpt>
      <trkpt lat="40.43235654942691326141357421875" lon="-1.56951111741364002227783203125">
        <ele>1262.5999755859375</ele>
        <time>2022-05-05T08:13:34.000Z</time>
      </trkpt>
      <trkpt lat="40.43242058716714382171630859375" lon="-1.56946283765137195587158203125">
        <ele>1262.4000244140625</ele>
        <time>2022-05-05T08:13:35.000Z</time>
      </trkpt>
      <trkpt lat="40.43251597322523593902587890625" lon="-1.5693140588700771331787109375">
        <ele>1261.4000244140625</ele>
        <time>2022-05-05T08:13:37.000Z</time>
      </trkpt>
      <trkpt lat="40.4325234331190586090087890625" lon="-1.569221019744873046875">
        <ele>1260.5999755859375</ele>
        <time>2022-05-05T08:13:38.000Z</time>
      </trkpt>
      <trkpt lat="40.4325116984546184539794921875" lon="-1.5691256336867809295654296875">
        <ele>1259.800048828125</ele>
        <time>2022-05-05T08:13:39.000Z</time>
      </trkpt>
      <trkpt lat="40.43242913670837879180908203125" lon="-1.56896025873720645904541015625">
        <ele>1258.800048828125</ele>
        <time>2022-05-05T08:13:41.000Z</time>
      </trkpt>
      <trkpt lat="40.43221372179687023162841796875" lon="-1.56880955211818218231201171875">
        <ele>1259.5999755859375</ele>
        <time>2022-05-05T08:13:44.000Z</time>
      </trkpt>
      <trkpt lat="40.4320614226162433624267578125" lon="-1.5687142498791217803955078125">
        <ele>1260.199951171875</ele>
        <time>2022-05-05T08:13:46.000Z</time>
      </trkpt>
      <trkpt lat="40.431897640228271484375" lon="-1.5686136670410633087158203125">
        <ele>1260.800048828125</ele>
        <time>2022-05-05T08:13:48.000Z</time>
      </trkpt>
      <trkpt lat="40.43181323446333408355712890625" lon="-1.568569242954254150390625">
        <ele>1260.800048828125</ele>
        <time>2022-05-05T08:13:49.000Z</time>
      </trkpt>
      <trkpt lat="40.43155691586434841156005859375" lon="-1.56842297874391078948974609375">
        <ele>1260.5999755859375</ele>
        <time>2022-05-05T08:13:52.000Z</time>
      </trkpt>
      <trkpt lat="40.4313043691217899322509765625" lon="-1.5682777203619480133056640625">
        <ele>1260.199951171875</ele>
        <time>2022-05-05T08:13:55.000Z</time>
      </trkpt>
      <trkpt lat="40.43122163973748683929443359375" lon="-1.56822650693356990814208984375">
        <ele>1259.5999755859375</ele>
        <time>2022-05-05T08:13:56.000Z</time>
      </trkpt>
      <trkpt lat="40.4310549236834049224853515625" lon="-1.5681167878210544586181640625">
        <ele>1257.5999755859375</ele>
        <time>2022-05-05T08:13:58.000Z</time>
      </trkpt>
      <trkpt lat="40.43082986958324909210205078125" lon="-1.56791009008884429931640625">
        <ele>1256.800048828125</ele>
        <time>2022-05-05T08:14:01.000Z</time>
      </trkpt>
      <trkpt lat="40.43070363812148571014404296875" lon="-1.56774303875863552093505859375">
        <ele>1255.5999755859375</ele>
        <time>2022-05-05T08:14:03.000Z</time>
      </trkpt>
      <trkpt lat="40.430602133274078369140625" lon="-1.56755276955664157867431640625">
        <ele>1254.4000244140625</ele>
        <time>2022-05-05T08:14:05.000Z</time>
      </trkpt>
      <trkpt lat="40.43055980466306209564208984375" lon="-1.56744883395731449127197265625">
        <ele>1254</ele>
        <time>2022-05-05T08:14:06.000Z</time>
      </trkpt>
      <trkpt lat="40.430475734174251556396484375" lon="-1.5671089477837085723876953125">
        <ele>1252.800048828125</ele>
        <time>2022-05-05T08:14:09.000Z</time>
      </trkpt>
      <trkpt lat="40.430460311472415924072265625" lon="-1.5669907629489898681640625">
        <ele>1252.800048828125</ele>
        <time>2022-05-05T08:14:10.000Z</time>
      </trkpt>
      <trkpt lat="40.4304505884647369384765625" lon="-1.5666259825229644775390625">
        <ele>1252.5999755859375</ele>
        <time>2022-05-05T08:14:13.000Z</time>
      </trkpt>
      <trkpt lat="40.43045385740697383880615234375" lon="-1.566507630050182342529296875">
        <ele>1252.5999755859375</ele>
        <time>2022-05-05T08:14:14.000Z</time>
      </trkpt>
      <trkpt lat="40.43045796453952789306640625" lon="-1.566390953958034515380859375">
        <ele>1252.4000244140625</ele>
        <time>2022-05-05T08:14:15.000Z</time>
      </trkpt>
      <trkpt lat="40.43050062842667102813720703125" lon="-1.56570556573569774627685546875">
        <ele>1251.4000244140625</ele>
        <time>2022-05-05T08:14:21.000Z</time>
      </trkpt>
      <trkpt lat="40.43051035143435001373291015625" lon="-1.56559425406157970428466796875">
        <ele>1251</ele>
        <time>2022-05-05T08:14:22.000Z</time>
      </trkpt>
      <trkpt lat="40.4305590502917766571044921875" lon="-1.5649423934519290924072265625">
        <ele>1249.199951171875</ele>
        <time>2022-05-05T08:14:28.000Z</time>
      </trkpt>
      <trkpt lat="40.43060858733952045440673828125" lon="-1.56434417702257633209228515625">
        <ele>1247</ele>
        <time>2022-05-05T08:14:34.000Z</time>
      </trkpt>
      <trkpt lat="40.430613197386264801025390625" lon="-1.56424862332642078399658203125">
        <ele>1246.800048828125</ele>
        <time>2022-05-05T08:14:35.000Z</time>
      </trkpt>
      <trkpt lat="40.43059249408543109893798828125" lon="-1.56368083320558071136474609375">
        <ele>1244.5999755859375</ele>
        <time>2022-05-05T08:14:41.000Z</time>
      </trkpt>
      <trkpt lat="40.43054840527474880218505859375" lon="-1.56340355984866619110107421875">
        <ele>1243.800048828125</ele>
        <time>2022-05-05T08:14:44.000Z</time>
      </trkpt>
      <trkpt lat="40.43048939667642116546630859375" lon="-1.56314506195485591888427734375">
        <ele>1243</ele>
        <time>2022-05-05T08:14:47.000Z</time>
      </trkpt>
      <trkpt lat="40.43029275722801685333251953125" lon="-1.5626484341919422149658203125">
        <ele>1244</ele>
        <time>2022-05-05T08:14:53.000Z</time>
      </trkpt>
      <trkpt lat="40.42996720410883426666259765625" lon="-1.56202021054923534393310546875">
        <ele>1244.5999755859375</ele>
        <time>2022-05-05T08:15:01.000Z</time>
      </trkpt>
      <trkpt lat="40.42992462404072284698486328125" lon="-1.56194359995424747467041015625">
        <ele>1244</ele>
        <time>2022-05-05T08:15:02.000Z</time>
      </trkpt>
      <trkpt lat="40.429671742022037506103515625" lon="-1.5613827668130397796630859375">
        <ele>1241.4000244140625</ele>
        <time>2022-05-05T08:15:09.000Z</time>
      </trkpt>
      <trkpt lat="40.4296424053609371185302734375" lon="-1.5613006241619586944580078125">
        <ele>1241.800048828125</ele>
        <time>2022-05-05T08:15:10.000Z</time>
      </trkpt>
      <trkpt lat="40.4295113123953342437744140625" lon="-1.5607544593513011932373046875">
        <ele>1245.5999755859375</ele>
        <time>2022-05-05T08:15:16.000Z</time>
      </trkpt>
      <trkpt lat="40.4294633679091930389404296875" lon="-1.5600939653813838958740234375">
        <ele>1246.5999755859375</ele>
        <time>2022-05-05T08:15:23.000Z</time>
      </trkpt>
      <trkpt lat="40.42945884168148040771484375" lon="-1.5593828447163105010986328125">
        <ele>1243.4000244140625</ele>
        <time>2022-05-05T08:15:31.000Z</time>
      </trkpt>
      <trkpt lat="40.42945909313857555389404296875" lon="-1.5592968463897705078125">
        <ele>1243</ele>
        <time>2022-05-05T08:15:32.000Z</time>
      </trkpt>
      <trkpt lat="40.4294569976627826690673828125" lon="-1.558542810380458831787109375">
        <ele>1240.5999755859375</ele>
        <time>2022-05-05T08:15:41.000Z</time>
      </trkpt>
      <trkpt lat="40.42945347726345062255859375" lon="-1.55784375965595245361328125">
        <ele>1239.800048828125</ele>
        <time>2022-05-05T08:15:49.000Z</time>
      </trkpt>
      <trkpt lat="40.429452471435070037841796875" lon="-1.55775013379752635955810546875">
        <ele>1239.800048828125</ele>
        <time>2022-05-05T08:15:50.000Z</time>
      </trkpt>
      <trkpt lat="40.4294549860060214996337890625" lon="-1.55737730674445629119873046875">
        <ele>1238.800048828125</ele>
        <time>2022-05-05T08:15:54.000Z</time>
      </trkpt>
      <trkpt lat="40.4294608533382415771484375" lon="-1.55720028094947338104248046875">
        <ele>1238.4000244140625</ele>
        <time>2022-05-05T08:15:56.000Z</time>
      </trkpt>
      <trkpt lat="40.42948440648615360260009765625" lon="-1.5567824430763721466064453125">
        <ele>1238</ele>
        <time>2022-05-05T08:16:01.000Z</time>
      </trkpt>
      <trkpt lat="40.4294975660741329193115234375" lon="-1.55662561766803264617919921875">
        <ele>1238</ele>
        <time>2022-05-05T08:16:03.000Z</time>
      </trkpt>
      <trkpt lat="40.42956688441336154937744140625" lon="-1.5560190193355083465576171875">
        <ele>1236.5999755859375</ele>
        <time>2022-05-05T08:16:11.000Z</time>
      </trkpt>
      <trkpt lat="40.42957493104040622711181640625" lon="-1.55594903044402599334716796875">
        <ele>1236.4000244140625</ele>
        <time>2022-05-05T08:16:12.000Z</time>
      </trkpt>
      <trkpt lat="40.42961164377629756927490234375" lon="-1.55564476735889911651611328125">
        <ele>1235.800048828125</ele>
        <time>2022-05-05T08:16:17.000Z</time>
      </trkpt>
      <trkpt lat="40.42963050305843353271484375" lon="-1.55546774156391620635986328125">
        <ele>1235.4000244140625</ele>
        <time>2022-05-05T08:16:20.000Z</time>
      </trkpt>
      <trkpt lat="40.42965791188180446624755859375" lon="-1.55514235608279705047607421875">
        <ele>1234.800048828125</ele>
        <time>2022-05-05T08:16:25.000Z</time>
      </trkpt>
      <trkpt lat="40.42966344393789768218994140625" lon="-1.55471026897430419921875">
        <ele>1234</ele>
        <time>2022-05-05T08:16:31.000Z</time>
      </trkpt>
      <trkpt lat="40.4296628572046756744384765625" lon="-1.55463659204542636871337890625">
        <ele>1233.800048828125</ele>
        <time>2022-05-05T08:16:32.000Z</time>
      </trkpt>
      <trkpt lat="40.42963326908648014068603515625" lon="-1.55411272309720516204833984375">
        <ele>1233</ele>
        <time>2022-05-05T08:16:39.000Z</time>
      </trkpt>
      <trkpt lat="40.42962186969816684722900390625" lon="-1.553965620696544647216796875">
        <ele>1233</ele>
        <time>2022-05-05T08:16:41.000Z</time>
      </trkpt>
      <trkpt lat="40.4295619390904903411865234375" lon="-1.5532503090798854827880859375">
        <ele>1234.5999755859375</ele>
        <time>2022-05-05T08:16:51.000Z</time>
      </trkpt>
      <trkpt lat="40.42955615557730197906494140625" lon="-1.5531809069216251373291015625">
        <ele>1234.800048828125</ele>
        <time>2022-05-05T08:16:52.000Z</time>
      </trkpt>
      <trkpt lat="40.429545342922210693359375" lon="-1.55304470099508762359619140625">
        <ele>1234.4000244140625</ele>
        <time>2022-05-05T08:16:54.000Z</time>
      </trkpt>
      <trkpt lat="40.42951139621436595916748046875" lon="-1.55262946151196956634521484375">
        <ele>1233.4000244140625</ele>
        <time>2022-05-05T08:17:00.000Z</time>
      </trkpt>
      <trkpt lat="40.42944819666445255279541015625" lon="-1.55194214545190334320068359375">
        <ele>1232.5999755859375</ele>
        <time>2022-05-05T08:17:10.000Z</time>
      </trkpt>
      <trkpt lat="40.42940511368215084075927734375" lon="-1.5514554083347320556640625">
        <ele>1232.4000244140625</ele>
        <time>2022-05-05T08:17:17.000Z</time>
      </trkpt>
      <trkpt lat="40.42938776314258575439453125" lon="-1.551246531307697296142578125">
        <ele>1233.199951171875</ele>
        <time>2022-05-05T08:17:20.000Z</time>
      </trkpt>
      <trkpt lat="40.429341830313205718994140625" lon="-1.55076582916080951690673828125">
        <ele>1233.800048828125</ele>
        <time>2022-05-05T08:17:27.000Z</time>
      </trkpt>
      <trkpt lat="40.429280810058116912841796875" lon="-1.550060994923114776611328125">
        <ele>1233.5999755859375</ele>
        <time>2022-05-05T08:17:36.000Z</time>
      </trkpt>
      <trkpt lat="40.42924351058900356292724609375" lon="-1.549580879509449005126953125">
        <ele>1232</ele>
        <time>2022-05-05T08:17:42.000Z</time>
      </trkpt>
      <trkpt lat="40.42921970598399639129638671875" lon="-1.54927435331046581268310546875">
        <ele>1232</ele>
        <time>2022-05-05T08:17:46.000Z</time>
      </trkpt>
      <trkpt lat="40.4291233979165554046630859375" lon="-1.5486751310527324676513671875">
        <ele>1231.800048828125</ele>
        <time>2022-05-05T08:17:54.000Z</time>
      </trkpt>
      <trkpt lat="40.42894662357866764068603515625" lon="-1.54809015803039073944091796875">
        <ele>1230.800048828125</ele>
        <time>2022-05-05T08:18:03.000Z</time>
      </trkpt>
      <trkpt lat="40.42875182814896106719970703125" lon="-1.54760316945612430572509765625">
        <ele>1230.199951171875</ele>
        <time>2022-05-05T08:18:11.000Z</time>
      </trkpt>
      <trkpt lat="40.42856759391725063323974609375" lon="-1.5470699965953826904296875">
        <ele>1229.5999755859375</ele>
        <time>2022-05-05T08:18:19.000Z</time>
      </trkpt>
      <trkpt lat="40.42838050983846187591552734375" lon="-1.5463726222515106201171875">
        <ele>1228.5999755859375</ele>
        <time>2022-05-05T08:18:29.000Z</time>
      </trkpt>
      <trkpt lat="40.428364165127277374267578125" lon="-1.54630489647388458251953125">
        <ele>1228.800048828125</ele>
        <time>2022-05-05T08:18:30.000Z</time>
      </trkpt>
      <trkpt lat="40.42830188758671283721923828125" lon="-1.54595813713967800140380859375">
        <ele>1229</ele>
        <time>2022-05-05T08:18:36.000Z</time>
      </trkpt>
      <trkpt lat="40.42821957729756832122802734375" lon="-1.54559000395238399505615234375">
        <ele>1228.5999755859375</ele>
        <time>2022-05-05T08:18:42.000Z</time>
      </trkpt>
      <trkpt lat="40.42812134139239788055419921875" lon="-1.54516051523387432098388671875">
        <ele>1230</ele>
        <time>2022-05-05T08:18:48.000Z</time>
      </trkpt>
      <trkpt lat="40.42809854261577129364013671875" lon="-1.54509312473237514495849609375">
        <ele>1230.199951171875</ele>
        <time>2022-05-05T08:18:49.000Z</time>
      </trkpt>
      <trkpt lat="40.428023524582386016845703125" lon="-1.544893048703670501708984375">
        <ele>1230.199951171875</ele>
        <time>2022-05-05T08:18:52.000Z</time>
      </trkpt>
      <trkpt lat="40.427997373044490814208984375" lon="-1.5448261611163616180419921875">
        <ele>1230.199951171875</ele>
        <time>2022-05-05T08:18:53.000Z</time>
      </trkpt>
      <trkpt lat="40.4278117977082729339599609375" lon="-1.5444003604352474212646484375">
        <ele>1230.199951171875</ele>
        <time>2022-05-05T08:19:00.000Z</time>
      </trkpt>
      <trkpt lat="40.42769989930093288421630859375" lon="-1.54396064579486846923828125">
        <ele>1230.800048828125</ele>
        <time>2022-05-05T08:19:07.000Z</time>
      </trkpt>
      <trkpt lat="40.42764323763549327850341796875" lon="-1.54355940409004688262939453125">
        <ele>1228.4000244140625</ele>
        <time>2022-05-05T08:19:13.000Z</time>
      </trkpt>
      <trkpt lat="40.42756788432598114013671875" lon="-1.54297283850610256195068359375">
        <ele>1228</ele>
        <time>2022-05-05T08:19:22.000Z</time>
      </trkpt>
      <trkpt lat="40.42749672196805477142333984375" lon="-1.54244653880596160888671875">
        <ele>1227.4000244140625</ele>
        <time>2022-05-05T08:19:30.000Z</time>
      </trkpt>
      <trkpt lat="40.42742279358208179473876953125" lon="-1.541897356510162353515625">
        <ele>1232.199951171875</ele>
        <time>2022-05-05T08:19:38.000Z</time>
      </trkpt>
      <trkpt lat="40.42733226902782917022705078125" lon="-1.54120191000401973724365234375">
        <ele>1233.199951171875</ele>
        <time>2022-05-05T08:19:48.000Z</time>
      </trkpt>
      <trkpt lat="40.42725012637674808502197265625" lon="-1.54060612432658672332763671875">
        <ele>1232.4000244140625</ele>
        <time>2022-05-05T08:19:57.000Z</time>
      </trkpt>
      <trkpt lat="40.42717217467725276947021484375" lon="-1.540089212357997894287109375">
        <ele>1231.199951171875</ele>
        <time>2022-05-05T08:20:05.000Z</time>
      </trkpt>
      <trkpt lat="40.42708299122750759124755859375" lon="-1.539511196315288543701171875">
        <ele>1228.5999755859375</ele>
        <time>2022-05-05T08:20:14.000Z</time>
      </trkpt>
      <trkpt lat="40.4269692488014698028564453125" lon="-1.5388632752001285552978515625">
        <ele>1227</ele>
        <time>2022-05-05T08:20:24.000Z</time>
      </trkpt>
      <trkpt lat="40.4269420914351940155029296875" lon="-1.5387365408241748809814453125">
        <ele>1228</ele>
        <time>2022-05-05T08:20:26.000Z</time>
      </trkpt>
      <trkpt lat="40.42682264931499958038330078125" lon="-1.5381648950278759002685546875">
        <ele>1229.5999755859375</ele>
        <time>2022-05-05T08:20:35.000Z</time>
      </trkpt>
      <trkpt lat="40.42672223411500453948974609375" lon="-1.53765804134309291839599609375">
        <ele>1231.199951171875</ele>
        <time>2022-05-05T08:20:43.000Z</time>
      </trkpt>
      <trkpt lat="40.42664009146392345428466796875" lon="-1.53708287514746189117431640625">
        <ele>1231.5999755859375</ele>
        <time>2022-05-05T08:20:52.000Z</time>
      </trkpt>
      <trkpt lat="40.4266249202191829681396484375" lon="-1.5368891693651676177978515625">
        <ele>1231</ele>
        <time>2022-05-05T08:20:55.000Z</time>
      </trkpt>
      <trkpt lat="40.42661611922085285186767578125" lon="-1.536686830222606658935546875">
        <ele>1230</ele>
        <time>2022-05-05T08:20:58.000Z</time>
      </trkpt>
      <trkpt lat="40.4266512393951416015625" lon="-1.53607092797756195068359375">
        <ele>1228.5999755859375</ele>
        <time>2022-05-05T08:21:07.000Z</time>
      </trkpt>
      <trkpt lat="40.42669524438679218292236328125" lon="-1.53553205542266368865966796875">
        <ele>1228.4000244140625</ele>
        <time>2022-05-05T08:21:15.000Z</time>
      </trkpt>
      <trkpt lat="40.42671921662986278533935546875" lon="-1.53524883091449737548828125">
        <ele>1225.800048828125</ele>
        <time>2022-05-05T08:21:19.000Z</time>
      </trkpt>
      <trkpt lat="40.42674201540648937225341796875" lon="-1.5349740721285343170166015625">
        <ele>1225</ele>
        <time>2022-05-05T08:21:23.000Z</time>
      </trkpt>
      <trkpt lat="40.4268069751560688018798828125" lon="-1.53425063006579875946044921875">
        <ele>1225.199951171875</ele>
        <time>2022-05-05T08:21:34.000Z</time>
      </trkpt>
      <trkpt lat="40.4268086515367031097412109375" lon="-1.534188352525234222412109375">
        <ele>1225.199951171875</ele>
        <time>2022-05-05T08:21:35.000Z</time>
      </trkpt>
      <trkpt lat="40.42678576894104480743408203125" lon="-1.53378660790622234344482421875">
        <ele>1227.4000244140625</ele>
        <time>2022-05-05T08:21:41.000Z</time>
      </trkpt>
      <trkpt lat="40.42674352414906024932861328125" lon="-1.5333030559122562408447265625">
        <ele>1229.800048828125</ele>
        <time>2022-05-05T08:21:48.000Z</time>
      </trkpt>
      <trkpt lat="40.42670697905123233795166015625" lon="-1.53307020664215087890625">
        <ele>1229.4000244140625</ele>
        <time>2022-05-05T08:21:51.000Z</time>
      </trkpt>
      <trkpt lat="40.426673702895641326904296875" lon="-1.5328252874314785003662109375">
        <ele>1228.5999755859375</ele>
        <time>2022-05-05T08:21:54.000Z</time>
      </trkpt>
      <trkpt lat="40.4266252554953098297119140625" lon="-1.5323998220264911651611328125">
        <ele>1227.4000244140625</ele>
        <time>2022-05-05T08:21:59.000Z</time>
      </trkpt>
      <trkpt lat="40.4266071505844593048095703125" lon="-1.5321480296552181243896484375">
        <ele>1225</ele>
        <time>2022-05-05T08:22:02.000Z</time>
      </trkpt>
      <trkpt lat="40.42659960687160491943359375" lon="-1.532060690224170684814453125">
        <ele>1224</ele>
        <time>2022-05-05T08:22:03.000Z</time>
      </trkpt>
      <trkpt lat="40.4265307076275348663330078125" lon="-1.5315998531877994537353515625">
        <ele>1221.199951171875</ele>
        <time>2022-05-05T08:22:08.000Z</time>
      </trkpt>
      <trkpt lat="40.4265075735747814178466796875" lon="-1.53150622732937335968017578125">
        <ele>1220.5999755859375</ele>
        <time>2022-05-05T08:22:09.000Z</time>
      </trkpt>
      <trkpt lat="40.42640154249966144561767578125" lon="-1.53115301392972469329833984375">
        <ele>1219.4000244140625</ele>
        <time>2022-05-05T08:22:13.000Z</time>
      </trkpt>
      <trkpt lat="40.4263168014585971832275390625" lon="-1.53090910054743289947509765625">
        <ele>1218.199951171875</ele>
        <time>2022-05-05T08:22:16.000Z</time>
      </trkpt>
      <trkpt lat="40.426219068467617034912109375" lon="-1.5306047536432743072509765625">
        <ele>1217.5999755859375</ele>
        <time>2022-05-05T08:22:20.000Z</time>
      </trkpt>
      <trkpt lat="40.4261857084929943084716796875" lon="-1.53045781888067722320556640625">
        <ele>1218.4000244140625</ele>
        <time>2022-05-05T08:22:22.000Z</time>
      </trkpt>
      <trkpt lat="40.42615167796611785888671875" lon="-1.53009630739688873291015625">
        <ele>1220.199951171875</ele>
        <time>2022-05-05T08:22:27.000Z</time>
      </trkpt>
      <trkpt lat="40.426152683794498443603515625" lon="-1.53002682141959667205810546875">
        <ele>1220.5999755859375</ele>
        <time>2022-05-05T08:22:28.000Z</time>
      </trkpt>
      <trkpt lat="40.42619434185326099395751953125" lon="-1.52969397604465484619140625">
        <ele>1221.199951171875</ele>
        <time>2022-05-05T08:22:33.000Z</time>
      </trkpt>
      <trkpt lat="40.4262510873377323150634765625" lon="-1.52907765470445156097412109375">
        <ele>1220.4000244140625</ele>
        <time>2022-05-05T08:22:42.000Z</time>
      </trkpt>
      <trkpt lat="40.42620674706995487213134765625" lon="-1.5283570624887943267822265625">
        <ele>1218.4000244140625</ele>
        <time>2022-05-05T08:22:52.000Z</time>
      </trkpt>
      <trkpt lat="40.426172800362110137939453125" lon="-1.527997814118862152099609375">
        <ele>1218</ele>
        <time>2022-05-05T08:22:57.000Z</time>
      </trkpt>
      <trkpt lat="40.42613684199750423431396484375" lon="-1.5278561599552631378173828125">
        <ele>1217.5999755859375</ele>
        <time>2022-05-05T08:22:59.000Z</time>
      </trkpt>
      <trkpt lat="40.4259583912789821624755859375" lon="-1.5274122543632984161376953125">
        <ele>1216</ele>
        <time>2022-05-05T08:23:06.000Z</time>
      </trkpt>
      <trkpt lat="40.4257808625698089599609375" lon="-1.5270052291452884674072265625">
        <ele>1214.199951171875</ele>
        <time>2022-05-05T08:23:13.000Z</time>
      </trkpt>
      <trkpt lat="40.4256656952202320098876953125" lon="-1.52653290890157222747802734375">
        <ele>1214</ele>
        <time>2022-05-05T08:23:20.000Z</time>
      </trkpt>
      <trkpt lat="40.4255359433591365814208984375" lon="-1.52592488564550876617431640625">
        <ele>1215.800048828125</ele>
        <time>2022-05-05T08:23:28.000Z</time>
      </trkpt>
      <trkpt lat="40.42544131167232990264892578125" lon="-1.525470502674579620361328125">
        <ele>1218</ele>
        <time>2022-05-05T08:23:34.000Z</time>
      </trkpt>
      <trkpt lat="40.4253837279975414276123046875" lon="-1.52524192817509174346923828125">
        <ele>1220.199951171875</ele>
        <time>2022-05-05T08:23:37.000Z</time>
      </trkpt>
      <trkpt lat="40.42517133057117462158203125" lon="-1.5247179754078388214111328125">
        <ele>1221.800048828125</ele>
        <time>2022-05-05T08:23:44.000Z</time>
      </trkpt>
      <trkpt lat="40.42497125454246997833251953125" lon="-1.52438177727162837982177734375">
        <ele>1221.199951171875</ele>
        <time>2022-05-05T08:23:49.000Z</time>
      </trkpt>
      <trkpt lat="40.4248472861945629119873046875" lon="-1.52419234625995159149169921875">
        <ele>1218.4000244140625</ele>
        <time>2022-05-05T08:23:52.000Z</time>
      </trkpt>
      <trkpt lat="40.42456557042896747589111328125" lon="-1.5237218700349330902099609375">
        <ele>1213.800048828125</ele>
        <time>2022-05-05T08:24:00.000Z</time>
      </trkpt>
      <trkpt lat="40.42448124848306179046630859375" lon="-1.52353755198419094085693359375">
        <ele>1213.4000244140625</ele>
        <time>2022-05-05T08:24:03.000Z</time>
      </trkpt>
      <trkpt lat="40.42438988573849201202392578125" lon="-1.52326069772243499755859375">
        <ele>1213</ele>
        <time>2022-05-05T08:24:07.000Z</time>
      </trkpt>
      <trkpt lat="40.4242484830319881439208984375" lon="-1.52266751043498516082763671875">
        <ele>1214.5999755859375</ele>
        <time>2022-05-05T08:24:15.000Z</time>
      </trkpt>
      <trkpt lat="40.424115546047687530517578125" lon="-1.5220639295876026153564453125">
        <ele>1214.5999755859375</ele>
        <time>2022-05-05T08:24:23.000Z</time>
      </trkpt>
      <trkpt lat="40.42402493767440319061279296875" lon="-1.52160904370248317718505859375">
        <ele>1214</ele>
        <time>2022-05-05T08:24:30.000Z</time>
      </trkpt>
      <trkpt lat="40.42391060851514339447021484375" lon="-1.52109439484775066375732421875">
        <ele>1211.4000244140625</ele>
        <time>2022-05-05T08:24:38.000Z</time>
      </trkpt>
      <trkpt lat="40.42373232543468475341796875" lon="-1.5204522572457790374755859375">
        <ele>1209.4000244140625</ele>
        <time>2022-05-05T08:24:47.000Z</time>
      </trkpt>
      <trkpt lat="40.42362545616924762725830078125" lon="-1.52015830390155315399169921875">
        <ele>1210.199951171875</ele>
        <time>2022-05-05T08:24:51.000Z</time>
      </trkpt>
      <trkpt lat="40.42349570430815219879150390625" lon="-1.5198856405913829803466796875">
        <ele>1209.4000244140625</ele>
        <time>2022-05-05T08:24:55.000Z</time>
      </trkpt>
      <trkpt lat="40.4232527129352092742919921875" lon="-1.5194960497319698333740234375">
        <ele>1209.5999755859375</ele>
        <time>2022-05-05T08:25:01.000Z</time>
      </trkpt>
      <trkpt lat="40.4229992441833019256591796875" lon="-1.51913956739008426666259765625">
        <ele>1210.199951171875</ele>
        <time>2022-05-05T08:25:07.000Z</time>
      </trkpt>
      <trkpt lat="40.42287108488380908966064453125" lon="-1.5189586021006107330322265625">
        <ele>1210.4000244140625</ele>
        <time>2022-05-05T08:25:10.000Z</time>
      </trkpt>
      <trkpt lat="40.422608144581317901611328125" lon="-1.5184696018695831298828125">
        <ele>1212.5999755859375</ele>
        <time>2022-05-05T08:25:17.000Z</time>
      </trkpt>
      <trkpt lat="40.4223776422441005706787109375" lon="-1.517797373235225677490234375">
        <ele>1210.199951171875</ele>
        <time>2022-05-05T08:25:25.000Z</time>
      </trkpt>
      <trkpt lat="40.422130711376667022705078125" lon="-1.517242491245269775390625">
        <ele>1210.4000244140625</ele>
        <time>2022-05-05T08:25:32.000Z</time>
      </trkpt>
      <trkpt lat="40.421866513788700103759765625" lon="-1.51691718958318233489990234375">
        <ele>1210.5999755859375</ele>
        <time>2022-05-05T08:25:37.000Z</time>
      </trkpt>
      <trkpt lat="40.42149578221142292022705078125" lon="-1.51666573248803615570068359375">
        <ele>1209.199951171875</ele>
        <time>2022-05-05T08:25:43.000Z</time>
      </trkpt>
      <trkpt lat="40.4210226237773895263671875" lon="-1.5164530836045742034912109375">
        <ele>1207.800048828125</ele>
        <time>2022-05-05T08:25:51.000Z</time>
      </trkpt>
      <trkpt lat="40.420600511133670806884765625" lon="-1.51618980802595615386962890625">
        <ele>1208.5999755859375</ele>
        <time>2022-05-05T08:25:59.000Z</time>
      </trkpt>
      <trkpt lat="40.4203012771904468536376953125" lon="-1.5159089304506778717041015625">
        <ele>1210.199951171875</ele>
        <time>2022-05-05T08:26:05.000Z</time>
      </trkpt>
      <trkpt lat="40.4198875464498996734619140625" lon="-1.51542655192315578460693359375">
        <ele>1210.199951171875</ele>
        <time>2022-05-05T08:26:14.000Z</time>
      </trkpt>
      <trkpt lat="40.41945562697947025299072265625" lon="-1.51492573320865631103515625">
        <ele>1210.5999755859375</ele>
        <time>2022-05-05T08:26:23.000Z</time>
      </trkpt>
      <trkpt lat="40.41902907192707061767578125" lon="-1.51442122645676136016845703125">
        <ele>1209</ele>
        <time>2022-05-05T08:26:31.000Z</time>
      </trkpt>
      <trkpt lat="40.418714582920074462890625" lon="-1.51406767778098583221435546875">
        <ele>1208</ele>
        <time>2022-05-05T08:26:36.000Z</time>
      </trkpt>
      <trkpt lat="40.41850545443594455718994140625" lon="-1.5138422884047031402587890625">
        <ele>1208.4000244140625</ele>
        <time>2022-05-05T08:26:40.000Z</time>
      </trkpt>
      <trkpt lat="40.418449379503726959228515625" lon="-1.51378445327281951904296875">
        <ele>1208.5999755859375</ele>
        <time>2022-05-05T08:26:41.000Z</time>
      </trkpt>
      <trkpt lat="40.41809289716184139251708984375" lon="-1.51341523043811321258544921875">
        <ele>1209</ele>
        <time>2022-05-05T08:26:47.000Z</time>
      </trkpt>
      <trkpt lat="40.41790790855884552001953125" lon="-1.5132419764995574951171875">
        <ele>1208.800048828125</ele>
        <time>2022-05-05T08:26:50.000Z</time>
      </trkpt>
      <trkpt lat="40.4177112691104412078857421875" lon="-1.51308531872928142547607421875">
        <ele>1207.199951171875</ele>
        <time>2022-05-05T08:26:53.000Z</time>
      </trkpt>
      <trkpt lat="40.41737775318324565887451171875" lon="-1.51281257160007953643798828125">
        <ele>1205</ele>
        <time>2022-05-05T08:26:58.000Z</time>
      </trkpt>
      <trkpt lat="40.4172514379024505615234375" lon="-1.51267896406352519989013671875">
        <ele>1203.800048828125</ele>
        <time>2022-05-05T08:27:00.000Z</time>
      </trkpt>
      <trkpt lat="40.41708271019160747528076171875" lon="-1.51245097629725933074951171875">
        <ele>1203</ele>
        <time>2022-05-05T08:27:03.000Z</time>
      </trkpt>
      <trkpt lat="40.417035184800624847412109375" lon="-1.512367911636829376220703125">
        <ele>1202.800048828125</ele>
        <time>2022-05-05T08:27:04.000Z</time>
      </trkpt>
      <trkpt lat="40.416868217289447784423828125" lon="-1.512019895017147064208984375">
        <ele>1202.4000244140625</ele>
        <time>2022-05-05T08:27:08.000Z</time>
      </trkpt>
      <trkpt lat="40.41654962114989757537841796875" lon="-1.5113508515059947967529296875">
        <ele>1199.800048828125</ele>
        <time>2022-05-05T08:27:16.000Z</time>
      </trkpt>
      <trkpt lat="40.4164254851639270782470703125" lon="-1.51113149709999561309814453125">
        <ele>1199.5999755859375</ele>
        <time>2022-05-05T08:27:19.000Z</time>
      </trkpt>
      <trkpt lat="40.41613169945776462554931640625" lon="-1.51062506251037120819091796875">
        <ele>1199.5999755859375</ele>
        <time>2022-05-05T08:27:26.000Z</time>
      </trkpt>
      <trkpt lat="40.41578887961804866790771484375" lon="-1.51007856242358684539794921875">
        <ele>1198.5999755859375</ele>
        <time>2022-05-05T08:27:34.000Z</time>
      </trkpt>
      <trkpt lat="40.415743701159954071044921875" lon="-1.5100151114165782928466796875">
        <ele>1198.5999755859375</ele>
        <time>2022-05-05T08:27:35.000Z</time>
      </trkpt>
      <trkpt lat="40.41547958739101886749267578125" lon="-1.50973976589739322662353515625">
        <ele>1197.199951171875</ele>
        <time>2022-05-05T08:27:40.000Z</time>
      </trkpt>
      <trkpt lat="40.41524506174027919769287109375" lon="-1.5095588006079196929931640625">
        <ele>1196.800048828125</ele>
        <time>2022-05-05T08:27:44.000Z</time>
      </trkpt>
      <trkpt lat="40.41505361907184123992919921875" lon="-1.50945813395082950592041015625">
        <ele>1196.4000244140625</ele>
        <time>2022-05-05T08:27:47.000Z</time>
      </trkpt>
      <trkpt lat="40.41465145535767078399658203125" lon="-1.50929711759090423583984375">
        <ele>1196.5999755859375</ele>
        <time>2022-05-05T08:27:53.000Z</time>
      </trkpt>
      <trkpt lat="40.41412959806621074676513671875" lon="-1.50907156057655811309814453125">
        <ele>1195.199951171875</ele>
        <time>2022-05-05T08:28:01.000Z</time>
      </trkpt>
      <trkpt lat="40.41407100856304168701171875" lon="-1.5090273879468441009521484375">
        <ele>1195</ele>
        <time>2022-05-05T08:28:02.000Z</time>
      </trkpt>
      <trkpt lat="40.4138150252401828765869140625" lon="-1.50874500162899494171142578125">
        <ele>1195.5999755859375</ele>
        <time>2022-05-05T08:28:07.000Z</time>
      </trkpt>
      <trkpt lat="40.413628108799457550048828125" lon="-1.50837770663201808929443359375">
        <ele>1196.5999755859375</ele>
        <time>2022-05-05T08:28:12.000Z</time>
      </trkpt>
      <trkpt lat="40.413377322256565093994140625" lon="-1.507902033627033233642578125">
        <ele>1195</ele>
        <time>2022-05-05T08:28:18.000Z</time>
      </trkpt>
      <trkpt lat="40.41326877661049365997314453125" lon="-1.50777873583137989044189453125">
        <ele>1194.5999755859375</ele>
        <time>2022-05-05T08:28:20.000Z</time>
      </trkpt>
      <trkpt lat="40.41309594176709651947021484375" lon="-1.5076334774494171142578125">
        <ele>1194.800048828125</ele>
        <time>2022-05-05T08:28:23.000Z</time>
      </trkpt>
      <trkpt lat="40.41283777914941310882568359375" lon="-1.5075074136257171630859375">
        <ele>1195.4000244140625</ele>
        <time>2022-05-05T08:28:27.000Z</time>
      </trkpt>
      <trkpt lat="40.41276770643889904022216796875" lon="-1.50749425403773784637451171875">
        <ele>1195.199951171875</ele>
        <time>2022-05-05T08:28:28.000Z</time>
      </trkpt>
      <trkpt lat="40.41248188354074954986572265625" lon="-1.50750380940735340118408203125">
        <ele>1194.5999755859375</ele>
        <time>2022-05-05T08:28:32.000Z</time>
      </trkpt>
      <trkpt lat="40.41241231374442577362060546875" lon="-1.5075213275849819183349609375">
        <ele>1194.4000244140625</ele>
        <time>2022-05-05T08:28:33.000Z</time>
      </trkpt>
      <trkpt lat="40.411987937986850738525390625" lon="-1.50760740973055362701416015625">
        <ele>1193</ele>
        <time>2022-05-05T08:28:39.000Z</time>
      </trkpt>
      <trkpt lat="40.41185324080288410186767578125" lon="-1.50760355405509471893310546875">
        <ele>1192.5999755859375</ele>
        <time>2022-05-05T08:28:41.000Z</time>
      </trkpt>
      <trkpt lat="40.4116561822593212127685546875" lon="-1.50755074806511402130126953125">
        <ele>1192.5999755859375</ele>
        <time>2022-05-05T08:28:44.000Z</time>
      </trkpt>
      <trkpt lat="40.4115324653685092926025390625" lon="-1.50747866369783878326416015625">
        <ele>1192.800048828125</ele>
        <time>2022-05-05T08:28:46.000Z</time>
      </trkpt>
      <trkpt lat="40.41147639043629169464111328125" lon="-1.50743256323039531707763671875">
        <ele>1192.800048828125</ele>
        <time>2022-05-05T08:28:47.000Z</time>
      </trkpt>
      <trkpt lat="40.4113219119608402252197265625" lon="-1.50724254548549652099609375">
        <ele>1194.5999755859375</ele>
        <time>2022-05-05T08:28:50.000Z</time>
      </trkpt>
      <trkpt lat="40.41119702160358428955078125" lon="-1.50690031237900257110595703125">
        <ele>1200.5999755859375</ele>
        <time>2022-05-05T08:28:54.000Z</time>
      </trkpt>
      <trkpt lat="40.411179251968860626220703125" lon="-1.50671473704278469085693359375">
        <ele>1203.800048828125</ele>
        <time>2022-05-05T08:28:56.000Z</time>
      </trkpt>
      <trkpt lat="40.41119509376585483551025390625" lon="-1.50643612258136272430419921875">
        <ele>1206.4000244140625</ele>
        <time>2022-05-05T08:28:59.000Z</time>
      </trkpt>
      <trkpt lat="40.41120934300124645233154296875" lon="-1.50634190998971462249755859375">
        <ele>1207.199951171875</ele>
        <time>2022-05-05T08:29:00.000Z</time>
      </trkpt>
      <trkpt lat="40.41124102659523487091064453125" lon="-1.50615331716835498809814453125">
        <ele>1208.800048828125</ele>
        <time>2022-05-05T08:29:02.000Z</time>
      </trkpt>
      <trkpt lat="40.41127958334982395172119140625" lon="-1.50586950592696666717529296875">
        <ele>1211.199951171875</ele>
        <time>2022-05-05T08:29:05.000Z</time>
      </trkpt>
      <trkpt lat="40.41128553450107574462890625" lon="-1.5055064857006072998046875">
        <ele>1213.199951171875</ele>
        <time>2022-05-05T08:29:09.000Z</time>
      </trkpt>
      <trkpt lat="40.4112783260643482208251953125" lon="-1.50541872717440128326416015625">
        <ele>1213.5999755859375</ele>
        <time>2022-05-05T08:29:10.000Z</time>
      </trkpt>
      <trkpt lat="40.41117330081760883331298828125" lon="-1.50488127954304218292236328125">
        <ele>1214</ele>
        <time>2022-05-05T08:29:16.000Z</time>
      </trkpt>
      <trkpt lat="40.4111599735915660858154296875" lon="-1.50478363037109375">
        <ele>1213.5999755859375</ele>
        <time>2022-05-05T08:29:17.000Z</time>
      </trkpt>
      <trkpt lat="40.41114597581326961517333984375" lon="-1.50447878055274486541748046875">
        <ele>1212.199951171875</ele>
        <time>2022-05-05T08:29:20.000Z</time>
      </trkpt>
      <trkpt lat="40.411134324967861175537109375" lon="-1.50393194518983364105224609375">
        <ele>1210.199951171875</ele>
        <time>2022-05-05T08:29:26.000Z</time>
      </trkpt>
      <trkpt lat="40.4111386835575103759765625" lon="-1.50338946841657161712646484375">
        <ele>1204.4000244140625</ele>
        <time>2022-05-05T08:29:33.000Z</time>
      </trkpt>
      <trkpt lat="40.41116793639957904815673828125" lon="-1.50293081067502498626708984375">
        <ele>1203</ele>
        <time>2022-05-05T08:29:39.000Z</time>
      </trkpt>
      <trkpt lat="40.41121839545667171478271484375" lon="-1.50228054262697696685791015625">
        <ele>1200.800048828125</ele>
        <time>2022-05-05T08:29:47.000Z</time>
      </trkpt>
      <trkpt lat="40.4112996160984039306640625" lon="-1.50165424682199954986572265625">
        <ele>1203.4000244140625</ele>
        <time>2022-05-05T08:29:54.000Z</time>
      </trkpt>
      <trkpt lat="40.4113889671862125396728515625" lon="-1.50106231682002544403076171875">
        <ele>1204.4000244140625</ele>
        <time>2022-05-05T08:30:01.000Z</time>
      </trkpt>
      <trkpt lat="40.41144235990941524505615234375" lon="-1.500383801758289337158203125">
        <ele>1202.800048828125</ele>
        <time>2022-05-05T08:30:09.000Z</time>
      </trkpt>
      <trkpt lat="40.41137807071208953857421875" lon="-1.49983202107250690460205078125">
        <ele>1198</ele>
        <time>2022-05-05T08:30:16.000Z</time>
      </trkpt>
      <trkpt lat="40.4112535156309604644775390625" lon="-1.499299518764019012451171875">
        <ele>1193.5999755859375</ele>
        <time>2022-05-05T08:30:23.000Z</time>
      </trkpt>
      <trkpt lat="40.41103751398622989654541015625" lon="-1.4986485801637172698974609375">
        <ele>1190.199951171875</ele>
        <time>2022-05-05T08:30:32.000Z</time>
      </trkpt>
      <trkpt lat="40.41080416180193424224853515625" lon="-1.498187743127346038818359375">
        <ele>1188.5999755859375</ele>
        <time>2022-05-05T08:30:39.000Z</time>
      </trkpt>
      <trkpt lat="40.41055773384869098663330078125" lon="-1.49782220833003520965576171875">
        <ele>1191.4000244140625</ele>
        <time>2022-05-05T08:30:45.000Z</time>
      </trkpt>
      <trkpt lat="40.4103576578199863433837890625" lon="-1.49760578759014606475830078125">
        <ele>1193</ele>
        <time>2022-05-05T08:30:49.000Z</time>
      </trkpt>
      <trkpt lat="40.41029923595488071441650390625" lon="-1.49756739847362041473388671875">
        <ele>1193.4000244140625</ele>
        <time>2022-05-05T08:30:50.000Z</time>
      </trkpt>
      <trkpt lat="40.40996144525706768035888671875" lon="-1.4974144287407398223876953125">
        <ele>1192.5999755859375</ele>
        <time>2022-05-05T08:30:56.000Z</time>
      </trkpt>
      <trkpt lat="40.4096500575542449951171875" lon="-1.4973594434559345245361328125">
        <ele>1190.800048828125</ele>
        <time>2022-05-05T08:31:02.000Z</time>
      </trkpt>
      <trkpt lat="40.4094859398901462554931640625" lon="-1.49733454920351505279541015625">
        <ele>1190.199951171875</ele>
        <time>2022-05-05T08:31:06.000Z</time>
      </trkpt>
      <trkpt lat="40.40944495238363742828369140625" lon="-1.4973342977464199066162109375">
        <ele>1190</ele>
        <time>2022-05-05T08:31:07.000Z</time>
      </trkpt>
      <trkpt lat="40.40940186940133571624755859375" lon="-1.49733421392738819122314453125">
        <ele>1189.800048828125</ele>
        <time>2022-05-05T08:31:08.000Z</time>
      </trkpt>
      <trkpt lat="40.4091184772551059722900390625" lon="-1.497313678264617919921875">
        <ele>1188.800048828125</ele>
        <time>2022-05-05T08:31:15.000Z</time>
      </trkpt>
      <trkpt lat="40.40897925384342670440673828125" lon="-1.49731711484491825103759765625">
        <ele>1188</ele>
        <time>2022-05-05T08:31:19.000Z</time>
      </trkpt>
      <trkpt lat="40.4088948480784893035888671875" lon="-1.49732029996812343597412109375">
        <ele>1187.5999755859375</ele>
        <time>2022-05-05T08:31:22.000Z</time>
      </trkpt>
      <trkpt lat="40.40872276760637760162353515625" lon="-1.4973480440676212310791015625">
        <ele>1187.199951171875</ele>
        <time>2022-05-05T08:31:29.000Z</time>
      </trkpt>
      <trkpt lat="40.40870499797165393829345703125" lon="-1.49736665189266204833984375">
        <ele>1187.199951171875</ele>
        <time>2022-05-05T08:31:32.000Z</time>
      </trkpt>
      <trkpt lat="40.4086169041693210601806640625" lon="-1.4973705075681209564208984375">
        <ele>1187.4000244140625</ele>
        <time>2022-05-05T08:38:19.000Z</time>
      </trkpt>
      <trkpt lat="40.40845312178134918212890625" lon="-1.49740512482821941375732421875">
        <ele>1187.800048828125</ele>
        <time>2022-05-05T08:38:26.000Z</time>
      </trkpt>
      <trkpt lat="40.40829663164913654327392578125" lon="-1.4974345453083515167236328125">
        <ele>1188</ele>
        <time>2022-05-05T08:38:32.000Z</time>
      </trkpt>
      <trkpt lat="40.40811072103679180145263671875" lon="-1.49749749340116977691650390625">
        <ele>1188.199951171875</ele>
        <time>2022-05-05T08:38:39.000Z</time>
      </trkpt>
      <trkpt lat="40.40794224478304386138916015625" lon="-1.497538648545742034912109375">
        <ele>1188.199951171875</ele>
        <time>2022-05-05T08:38:45.000Z</time>
      </trkpt>
      <trkpt lat="40.407879464328289031982421875" lon="-1.49754610843956470489501953125">
        <ele>1188</ele>
        <time>2022-05-05T08:38:47.000Z</time>
      </trkpt>
      <trkpt lat="40.40769598446786403656005859375" lon="-1.49760545231401920318603515625">
        <ele>1187.5999755859375</ele>
        <time>2022-05-05T08:38:53.000Z</time>
      </trkpt>
      <trkpt lat="40.4076382331550121307373046875" lon="-1.497624479234218597412109375">
        <ele>1188</ele>
        <time>2022-05-05T08:38:55.000Z</time>
      </trkpt>
      <trkpt lat="40.40744117461144924163818359375" lon="-1.4976846612989902496337890625">
        <ele>1189.199951171875</ele>
        <time>2022-05-05T08:39:02.000Z</time>
      </trkpt>
      <trkpt lat="40.40741183795034885406494140625" lon="-1.49768994189798831939697265625">
        <ele>1189.4000244140625</ele>
        <time>2022-05-05T08:39:03.000Z</time>
      </trkpt>
      <trkpt lat="40.40723363868892192840576171875" lon="-1.4977312646806240081787109375">
        <ele>1190.800048828125</ele>
        <time>2022-05-05T08:39:09.000Z</time>
      </trkpt>
      <trkpt lat="40.4071440361440181732177734375" lon="-1.49775230325758457183837890625">
        <ele>1191.4000244140625</ele>
        <time>2022-05-05T08:39:12.000Z</time>
      </trkpt>
      <trkpt lat="40.40701084770262241363525390625" lon="-1.49778029881417751312255859375">
        <ele>1191.5999755859375</ele>
        <time>2022-05-05T08:39:17.000Z</time>
      </trkpt>
      <trkpt lat="40.4069113545119762420654296875" lon="-1.49778951890766620635986328125">
        <ele>1192</ele>
        <time>2022-05-05T08:39:21.000Z</time>
      </trkpt>
      <trkpt lat="40.40677967481315135955810546875" lon="-1.49779387749731540679931640625">
        <ele>1192.800048828125</ele>
        <time>2022-05-05T08:39:26.000Z</time>
      </trkpt>
      <trkpt lat="40.406516902148723602294921875" lon="-1.49772112257778644561767578125">
        <ele>1194.800048828125</ele>
        <time>2022-05-05T08:39:35.000Z</time>
      </trkpt>
      <trkpt lat="40.4063195921480655670166015625" lon="-1.49760277010500431060791015625">
        <ele>1197.199951171875</ele>
        <time>2022-05-05T08:39:41.000Z</time>
      </trkpt>
      <trkpt lat="40.40624700486660003662109375" lon="-1.49754459969699382781982421875">
        <ele>1198</ele>
        <time>2022-05-05T08:39:43.000Z</time>
      </trkpt>
      <trkpt lat="40.40609688498079776763916015625" lon="-1.49737847037613391876220703125">
        <ele>1198.4000244140625</ele>
        <time>2022-05-05T08:39:47.000Z</time>
      </trkpt>
      <trkpt lat="40.405971072614192962646484375" lon="-1.49721351452171802520751953125">
        <ele>1198.199951171875</ele>
        <time>2022-05-05T08:39:50.000Z</time>
      </trkpt>
      <trkpt lat="40.40587828494608402252197265625" lon="-1.4970885403454303741455078125">
        <ele>1198.4000244140625</ele>
        <time>2022-05-05T08:39:52.000Z</time>
      </trkpt>
      <trkpt lat="40.405830256640911102294921875" lon="-1.49702358059585094451904296875">
        <ele>1198.4000244140625</ele>
        <time>2022-05-05T08:39:53.000Z</time>
      </trkpt>
      <trkpt lat="40.40567460469901561737060546875" lon="-1.49681520648300647735595703125">
        <ele>1197.199951171875</ele>
        <time>2022-05-05T08:39:56.000Z</time>
      </trkpt>
      <trkpt lat="40.4055038653314113616943359375" lon="-1.49659258313477039337158203125">
        <ele>1195.5999755859375</ele>
        <time>2022-05-05T08:39:59.000Z</time>
      </trkpt>
      <trkpt lat="40.40544292889535427093505859375" lon="-1.496520750224590301513671875">
        <ele>1195.4000244140625</ele>
        <time>2022-05-05T08:40:00.000Z</time>
      </trkpt>
      <trkpt lat="40.4051622189581394195556640625" lon="-1.49627373553812503814697265625">
        <ele>1194.800048828125</ele>
        <time>2022-05-05T08:40:04.000Z</time>
      </trkpt>
      <trkpt lat="40.40508418343961238861083984375" lon="-1.4962314069271087646484375">
        <ele>1194.4000244140625</ele>
        <time>2022-05-05T08:40:05.000Z</time>
      </trkpt>
      <trkpt lat="40.40476181544363498687744140625" lon="-1.49615027010440826416015625">
        <ele>1189.800048828125</ele>
        <time>2022-05-05T08:40:09.000Z</time>
      </trkpt>
      <trkpt lat="40.40467849932610988616943359375" lon="-1.4961521141231060028076171875">
        <ele>1188.199951171875</ele>
        <time>2022-05-05T08:40:10.000Z</time>
      </trkpt>
      <trkpt lat="40.40459451265633106231689453125" lon="-1.49615856818854808807373046875">
        <ele>1187.5999755859375</ele>
        <time>2022-05-05T08:40:11.000Z</time>
      </trkpt>
      <trkpt lat="40.404257811605930328369140625" lon="-1.49620265699923038482666015625">
        <ele>1186.800048828125</ele>
        <time>2022-05-05T08:40:15.000Z</time>
      </trkpt>
      <trkpt lat="40.40417340584099292755126953125" lon="-1.49619854986667633056640625">
        <ele>1186.5999755859375</ele>
        <time>2022-05-05T08:40:16.000Z</time>
      </trkpt>
      <trkpt lat="40.4039206914603710174560546875" lon="-1.4961142279207706451416015625">
        <ele>1189.5999755859375</ele>
        <time>2022-05-05T08:40:19.000Z</time>
      </trkpt>
      <trkpt lat="40.40383846499025821685791015625" lon="-1.49606804363429546356201171875">
        <ele>1191.199951171875</ele>
        <time>2022-05-05T08:40:20.000Z</time>
      </trkpt>
      <trkpt lat="40.40375900454819202423095703125" lon="-1.49601724930107593536376953125">
        <ele>1191.800048828125</ele>
        <time>2022-05-05T08:40:21.000Z</time>
      </trkpt>
      <trkpt lat="40.40359840728342533111572265625" lon="-1.49590744636952877044677734375">
        <ele>1193</ele>
        <time>2022-05-05T08:40:23.000Z</time>
      </trkpt>
      <trkpt lat="40.40351626463234424591064453125" lon="-1.49585396982729434967041015625">
        <ele>1192.800048828125</ele>
        <time>2022-05-05T08:40:24.000Z</time>
      </trkpt>
      <trkpt lat="40.40334493853151798248291015625" lon="-1.4957544766366481781005859375">
        <ele>1192.199951171875</ele>
        <time>2022-05-05T08:40:26.000Z</time>
      </trkpt>
      <trkpt lat="40.40316942147910594940185546875" lon="-1.495669819414615631103515625">
        <ele>1191.199951171875</ele>
        <time>2022-05-05T08:40:28.000Z</time>
      </trkpt>
      <trkpt lat="40.403081662952899932861328125" lon="-1.49564140476286411285400390625">
        <ele>1190.5999755859375</ele>
        <time>2022-05-05T08:40:29.000Z</time>
      </trkpt>
      <trkpt lat="40.4028166271746158599853515625" lon="-1.4955982379615306854248046875">
        <ele>1189.800048828125</ele>
        <time>2022-05-05T08:40:32.000Z</time>
      </trkpt>
      <trkpt lat="40.40263733826577663421630859375" lon="-1.495602764189243316650390625">
        <ele>1188.4000244140625</ele>
        <time>2022-05-05T08:40:34.000Z</time>
      </trkpt>
      <trkpt lat="40.40245427750051021575927734375" lon="-1.49563419632613658905029296875">
        <ele>1186.199951171875</ele>
        <time>2022-05-05T08:40:36.000Z</time>
      </trkpt>
      <trkpt lat="40.40227440185844898223876953125" lon="-1.49570770561695098876953125">
        <ele>1183.5999755859375</ele>
        <time>2022-05-05T08:40:38.000Z</time>
      </trkpt>
      <trkpt lat="40.40211313404142856597900390625" lon="-1.49581457488238811492919921875">
        <ele>1182.5999755859375</ele>
        <time>2022-05-05T08:40:40.000Z</time>
      </trkpt>
      <trkpt lat="40.40197801776230335235595703125" lon="-1.4959506131708621978759765625">
        <ele>1183.800048828125</ele>
        <time>2022-05-05T08:40:42.000Z</time>
      </trkpt>
      <trkpt lat="40.401867292821407318115234375" lon="-1.4961142279207706451416015625">
        <ele>1184.4000244140625</ele>
        <time>2022-05-05T08:40:44.000Z</time>
      </trkpt>
      <trkpt lat="40.40182077325880527496337890625" lon="-1.496200896799564361572265625">
        <ele>1184.5999755859375</ele>
        <time>2022-05-05T08:40:45.000Z</time>
      </trkpt>
      <trkpt lat="40.4017809592187404632568359375" lon="-1.49628630839288234710693359375">
        <ele>1184.5999755859375</ele>
        <time>2022-05-05T08:40:46.000Z</time>
      </trkpt>
      <trkpt lat="40.40169806219637393951416015625" lon="-1.49648898281157016754150390625">
        <ele>1184.5999755859375</ele>
        <time>2022-05-05T08:40:49.000Z</time>
      </trkpt>
      <trkpt lat="40.4015442542731761932373046875" lon="-1.49679928086698055267333984375">
        <ele>1182.800048828125</ele>
        <time>2022-05-05T08:40:55.000Z</time>
      </trkpt>
      <trkpt lat="40.40151550434529781341552734375" lon="-1.49685158394277095794677734375">
        <ele>1182.4000244140625</ele>
        <time>2022-05-05T08:40:56.000Z</time>
      </trkpt>
      <trkpt lat="40.401290617883205413818359375" lon="-1.49712651036679744720458984375">
        <ele>1181.800048828125</ele>
        <time>2022-05-05T08:41:02.000Z</time>
      </trkpt>
      <trkpt lat="40.40103304199874401092529296875" lon="-1.497313678264617919921875">
        <ele>1180.5999755859375</ele>
        <time>2022-05-05T08:41:08.000Z</time>
      </trkpt>
      <trkpt lat="40.4009846784174442291259765625" lon="-1.49733169935643672943115234375">
        <ele>1180.5999755859375</ele>
        <time>2022-05-05T08:41:09.000Z</time>
      </trkpt>
      <trkpt lat="40.40081159211695194244384765625" lon="-1.4973785541951656341552734375">
        <ele>1181.199951171875</ele>
        <time>2022-05-05T08:41:13.000Z</time>
      </trkpt>
      <trkpt lat="40.40072877891361713409423828125" lon="-1.4973923005163669586181640625">
        <ele>1181.4000244140625</ele>
        <time>2022-05-05T08:41:15.000Z</time>
      </trkpt>
      <trkpt lat="40.4005786590278148651123046875" lon="-1.49739456363022327423095703125">
        <ele>1182.199951171875</ele>
        <time>2022-05-05T08:41:19.000Z</time>
      </trkpt>
      <trkpt lat="40.40043708868324756622314453125" lon="-1.49737109430134296417236328125">
        <ele>1182.800048828125</ele>
        <time>2022-05-05T08:41:23.000Z</time>
      </trkpt>
      <trkpt lat="40.4003667645156383514404296875" lon="-1.497350893914699554443359375">
        <ele>1182.800048828125</ele>
        <time>2022-05-05T08:41:25.000Z</time>
      </trkpt>
      <trkpt lat="40.40021228604018688201904296875" lon="-1.497305296361446380615234375">
        <ele>1183.800048828125</ele>
        <time>2022-05-05T08:41:30.000Z</time>
      </trkpt>
      <trkpt lat="40.400086306035518646240234375" lon="-1.4972627162933349609375">
        <ele>1185</ele>
        <time>2022-05-05T08:41:34.000Z</time>
      </trkpt>
      <trkpt lat="40.399993099272251129150390625" lon="-1.49722441099584102630615234375">
        <ele>1186.199951171875</ele>
        <time>2022-05-05T08:41:37.000Z</time>
      </trkpt>
      <trkpt lat="40.39988623000681400299072265625" lon="-1.49716255255043506622314453125">
        <ele>1187.800048828125</ele>
        <time>2022-05-05T08:41:41.000Z</time>
      </trkpt>
      <trkpt lat="40.3997800312936305999755859375" lon="-1.497094742953777313232421875">
        <ele>1189</ele>
        <time>2022-05-05T08:41:45.000Z</time>
      </trkpt>
      <trkpt lat="40.39965857751667499542236328125" lon="-1.49703665636479854583740234375">
        <ele>1189.4000244140625</ele>
        <time>2022-05-05T08:41:49.000Z</time>
      </trkpt>
      <trkpt lat="40.39949948899447917938232421875" lon="-1.49700648151338100433349609375">
        <ele>1189.4000244140625</ele>
        <time>2022-05-05T08:41:54.000Z</time>
      </trkpt>
      <trkpt lat="40.39940913207828998565673828125" lon="-1.49698904715478420257568359375">
        <ele>1189.199951171875</ele>
        <time>2022-05-05T08:41:57.000Z</time>
      </trkpt>
      <trkpt lat="40.39929346181452274322509765625" lon="-1.49696205742657184600830078125">
        <ele>1189.199951171875</ele>
        <time>2022-05-05T08:42:01.000Z</time>
      </trkpt>
      <trkpt lat="40.3991728462278842926025390625" lon="-1.496930457651615142822265625">
        <ele>1189.4000244140625</ele>
        <time>2022-05-05T08:42:05.000Z</time>
      </trkpt>
      <trkpt lat="40.3990578465163707733154296875" lon="-1.4969014562666416168212890625">
        <ele>1189.199951171875</ele>
        <time>2022-05-05T08:42:09.000Z</time>
      </trkpt>
      <trkpt lat="40.39894561283290386199951171875" lon="-1.4968756400048732757568359375">
        <ele>1189</ele>
        <time>2022-05-05T08:42:13.000Z</time>
      </trkpt>
      <trkpt lat="40.3988462872803211212158203125" lon="-1.4968536794185638427734375">
        <ele>1189</ele>
        <time>2022-05-05T08:42:17.000Z</time>
      </trkpt>
      <trkpt lat="40.39879322983324527740478515625" lon="-1.49684051983058452606201171875">
        <ele>1189</ele>
        <time>2022-05-05T08:42:19.000Z</time>
      </trkpt>
      <trkpt lat="40.39868745021522045135498046875" lon="-1.49682090617716312408447265625">
        <ele>1189.199951171875</ele>
        <time>2022-05-05T08:42:23.000Z</time>
      </trkpt>
      <trkpt lat="40.39863782934844493865966796875" lon="-1.496814452111721038818359375">
        <ele>1189.4000244140625</ele>
        <time>2022-05-05T08:42:25.000Z</time>
      </trkpt>
      <trkpt lat="40.39855602197349071502685546875" lon="-1.49679257534444332122802734375">
        <ele>1189.5999755859375</ele>
        <time>2022-05-05T08:42:28.000Z</time>
      </trkpt>
      <trkpt lat="40.3985049761831760406494140625" lon="-1.4967831037938594818115234375">
        <ele>1189.800048828125</ele>
        <time>2022-05-05T08:42:30.000Z</time>
      </trkpt>
      <trkpt lat="40.39842928759753704071044921875" lon="-1.49677128531038761138916015625">
        <ele>1190.199951171875</ele>
        <time>2022-05-05T08:42:33.000Z</time>
      </trkpt>
      <trkpt lat="40.39831160567700862884521484375" lon="-1.4967616461217403411865234375">
        <ele>1190.4000244140625</ele>
        <time>2022-05-05T08:42:38.000Z</time>
      </trkpt>
      <trkpt lat="40.39826064370572566986083984375" lon="-1.49675108492374420166015625">
        <ele>1190.5999755859375</ele>
        <time>2022-05-05T08:42:40.000Z</time>
      </trkpt>
      <trkpt lat="40.39813457988202571868896484375" lon="-1.496731974184513092041015625">
        <ele>1191</ele>
        <time>2022-05-05T08:42:45.000Z</time>
      </trkpt>
      <trkpt lat="40.39807842113077640533447265625" lon="-1.49672426283359527587890625">
        <ele>1191.199951171875</ele>
        <time>2022-05-05T08:42:47.000Z</time>
      </trkpt>
      <trkpt lat="40.39793827570974826812744140625" lon="-1.4967073313891887664794921875">
        <ele>1191.4000244140625</ele>
        <time>2022-05-05T08:42:52.000Z</time>
      </trkpt>
      <trkpt lat="40.39785814471542835235595703125" lon="-1.49669836275279521942138671875">
        <ele>1191.5999755859375</ele>
        <time>2022-05-05T08:42:55.000Z</time>
      </trkpt>
      <trkpt lat="40.39772386662662029266357421875" lon="-1.4966835267841815948486328125">
        <ele>1192</ele>
        <time>2022-05-05T08:43:00.000Z</time>
      </trkpt>
      <trkpt lat="40.39764222688972949981689453125" lon="-1.4966764859855175018310546875">
        <ele>1192.199951171875</ele>
        <time>2022-05-05T08:43:03.000Z</time>
      </trkpt>
      <trkpt lat="40.39751364849507808685302734375" lon="-1.496693752706050872802734375">
        <ele>1191.800048828125</ele>
        <time>2022-05-05T08:43:08.000Z</time>
      </trkpt>
      <trkpt lat="40.39731566794216632843017578125" lon="-1.4967437088489532470703125">
        <ele>1190.800048828125</ele>
        <time>2022-05-05T08:43:15.000Z</time>
      </trkpt>
      <trkpt lat="40.39725816808640956878662109375" lon="-1.4967592991888523101806640625">
        <ele>1190.4000244140625</ele>
        <time>2022-05-05T08:43:17.000Z</time>
      </trkpt>
      <trkpt lat="40.39704895578324794769287109375" lon="-1.49678939022123813629150390625">
        <ele>1190.199951171875</ele>
        <time>2022-05-05T08:43:24.000Z</time>
      </trkpt>
      <trkpt lat="40.39689011871814727783203125" lon="-1.496716551482677459716796875">
        <ele>1192</ele>
        <time>2022-05-05T08:43:29.000Z</time>
      </trkpt>
      <trkpt lat="40.3968296013772487640380859375" lon="-1.49665142409503459930419921875">
        <ele>1192</ele>
        <time>2022-05-05T08:43:31.000Z</time>
      </trkpt>
      <trkpt lat="40.39676615037024021148681640625" lon="-1.49651370942592620849609375">
        <ele>1192.5999755859375</ele>
        <time>2022-05-05T08:43:34.000Z</time>
      </trkpt>
      <trkpt lat="40.396739579737186431884765625" lon="-1.4964008890092372894287109375">
        <ele>1195.800048828125</ele>
        <time>2022-05-05T08:43:36.000Z</time>
      </trkpt>
      <trkpt lat="40.39670747704803943634033203125" lon="-1.49621908552944660186767578125">
        <ele>1201.4000244140625</ele>
        <time>2022-05-05T08:43:39.000Z</time>
      </trkpt>
      <trkpt lat="40.3966850973665714263916015625" lon="-1.49610023014247417449951171875">
        <ele>1204.4000244140625</ele>
        <time>2022-05-05T08:43:41.000Z</time>
      </trkpt>
      <trkpt lat="40.39657588116824626922607421875" lon="-1.4956381358206272125244140625">
        <ele>1208.5999755859375</ele>
        <time>2022-05-05T08:43:49.000Z</time>
      </trkpt>
      <trkpt lat="40.3963893838226795196533203125" lon="-1.49510697461664676666259765625">
        <ele>1216.199951171875</ele>
        <time>2022-05-05T08:43:58.000Z</time>
      </trkpt>
      <trkpt lat="40.39620858617126941680908203125" lon="-1.49478611536324024200439453125">
        <ele>1216</ele>
        <time>2022-05-05T08:44:04.000Z</time>
      </trkpt>
      <trkpt lat="40.396173633635044097900390625" lon="-1.4947379194200038909912109375">
        <ele>1215.199951171875</ele>
        <time>2022-05-05T08:44:05.000Z</time>
      </trkpt>
      <trkpt lat="40.39598478935658931732177734375" lon="-1.49446911178529262542724609375">
        <ele>1211.800048828125</ele>
        <time>2022-05-05T08:44:11.000Z</time>
      </trkpt>
      <trkpt lat="40.39585621096193790435791015625" lon="-1.49429594166576862335205078125">
        <ele>1210.4000244140625</ele>
        <time>2022-05-05T08:44:15.000Z</time>
      </trkpt>
      <trkpt lat="40.3957838751375675201416015625" lon="-1.49415227584540843963623046875">
        <ele>1211.4000244140625</ele>
        <time>2022-05-05T08:44:18.000Z</time>
      </trkpt>
      <trkpt lat="40.39569879882037639617919921875" lon="-1.4939741604030132293701171875">
        <ele>1212.199951171875</ele>
        <time>2022-05-05T08:44:22.000Z</time>
      </trkpt>
      <trkpt lat="40.39560735225677490234375" lon="-1.49375748820602893829345703125">
        <ele>1209.800048828125</ele>
        <time>2022-05-05T08:44:27.000Z</time>
      </trkpt>
      <trkpt lat="40.395497716963291168212890625" lon="-1.49341986514627933502197265625">
        <ele>1210</ele>
        <time>2022-05-05T08:44:35.000Z</time>
      </trkpt>
      <trkpt lat="40.3954496048390865325927734375" lon="-1.49320998229086399078369140625">
        <ele>1210.800048828125</ele>
        <time>2022-05-05T08:44:40.000Z</time>
      </trkpt>
      <trkpt lat="40.39542965590953826904296875" lon="-1.49306681938469409942626953125">
        <ele>1210.5999755859375</ele>
        <time>2022-05-05T08:44:43.000Z</time>
      </trkpt>
      <trkpt lat="40.39541247300803661346435546875" lon="-1.49265468120574951171875">
        <ele>1209.199951171875</ele>
        <time>2022-05-05T08:44:50.000Z</time>
      </trkpt>
      <trkpt lat="40.39548195898532867431640625" lon="-1.49216174148023128509521484375">
        <ele>1208</ele>
        <time>2022-05-05T08:44:57.000Z</time>
      </trkpt>
      <trkpt lat="40.395501069724559783935546875" lon="-1.49208605289459228515625">
        <ele>1207.800048828125</ele>
        <time>2022-05-05T08:44:58.000Z</time>
      </trkpt>
      <trkpt lat="40.39565186016261577606201171875" lon="-1.49161859415471553802490234375">
        <ele>1207.5999755859375</ele>
        <time>2022-05-05T08:45:04.000Z</time>
      </trkpt>
      <trkpt lat="40.395892672240734100341796875" lon="-1.4910726808011531829833984375">
        <ele>1208.199951171875</ele>
        <time>2022-05-05T08:45:12.000Z</time>
      </trkpt>
      <trkpt lat="40.396094508469104766845703125" lon="-1.49068669416010379791259765625">
        <ele>1209.5999755859375</ele>
        <time>2022-05-05T08:45:18.000Z</time>
      </trkpt>
      <trkpt lat="40.39615930058062076568603515625" lon="-1.49057328701019287109375">
        <ele>1209.5999755859375</ele>
        <time>2022-05-05T08:45:20.000Z</time>
      </trkpt>
      <trkpt lat="40.39635476656258106231689453125" lon="-1.49019031785428524017333984375">
        <ele>1207.199951171875</ele>
        <time>2022-05-05T08:45:27.000Z</time>
      </trkpt>
      <trkpt lat="40.39645400829613208770751953125" lon="-1.48996551521122455596923828125">
        <ele>1203.199951171875</ele>
        <time>2022-05-05T08:45:31.000Z</time>
      </trkpt>
      <trkpt lat="40.396512933075428009033203125" lon="-1.4897865615785121917724609375">
        <ele>1200.800048828125</ele>
        <time>2022-05-05T08:45:34.000Z</time>
      </trkpt>
      <trkpt lat="40.396537743508815765380859375" lon="-1.48959352634847164154052734375">
        <ele>1200.199951171875</ele>
        <time>2022-05-05T08:45:37.000Z</time>
      </trkpt>
      <trkpt lat="40.39653648622334003448486328125" lon="-1.4894643612205982208251953125">
        <ele>1198.4000244140625</ele>
        <time>2022-05-05T08:45:39.000Z</time>
      </trkpt>
      <trkpt lat="40.39653430692851543426513671875" lon="-1.489402167499065399169921875">
        <ele>1197.5999755859375</ele>
        <time>2022-05-05T08:45:40.000Z</time>
      </trkpt>
      <trkpt lat="40.39653212763369083404541015625" lon="-1.4892880059778690338134765625">
        <ele>1196</ele>
        <time>2022-05-05T08:45:42.000Z</time>
      </trkpt>
      <trkpt lat="40.39652609266340732574462890625" lon="-1.48908130824565887451171875">
        <ele>1193.199951171875</ele>
        <time>2022-05-05T08:45:46.000Z</time>
      </trkpt>
      <trkpt lat="40.3965208120644092559814453125" lon="-1.48903168737888336181640625">
        <ele>1192.4000244140625</ele>
        <time>2022-05-05T08:45:47.000Z</time>
      </trkpt>
      <trkpt lat="40.396504215896129608154296875" lon="-1.4889044500887393951416015625">
        <ele>1192.800048828125</ele>
        <time>2022-05-05T08:45:51.000Z</time>
      </trkpt>
      <trkpt lat="40.39650128223001956939697265625" lon="-1.48889363743364810943603515625">
        <ele>1192.800048828125</ele>
        <time>2022-05-05T08:45:53.000Z</time>
      </trkpt>
      <trkpt lat="40.3965238295495510101318359375" lon="-1.48886128328740596771240234375">
        <ele>1193.5999755859375</ele>
        <time>2022-05-05T08:46:03.000Z</time>
      </trkpt>
      <trkpt lat="40.39653045125305652618408203125" lon="-1.4888437651097774505615234375">
        <ele>1194</ele>
        <time>2022-05-05T08:46:04.000Z</time>
      </trkpt>
      <trkpt lat="40.3965221531689167022705078125" lon="-1.48872382007539272308349609375">
        <ele>1194.4000244140625</ele>
        <time>2022-05-05T08:46:08.000Z</time>
      </trkpt>
      <trkpt lat="40.3965184651315212249755859375" lon="-1.488686017692089080810546875">
        <ele>1194.4000244140625</ele>
        <time>2022-05-05T08:46:09.000Z</time>
      </trkpt>
      <trkpt lat="40.39654453285038471221923828125" lon="-1.48848996497690677642822265625">
        <ele>1195.199951171875</ele>
        <time>2022-05-05T08:46:14.000Z</time>
      </trkpt>
      <trkpt lat="40.39654771797358989715576171875" lon="-1.48843891918659210205078125">
        <ele>1195.199951171875</ele>
        <time>2022-05-05T08:46:15.000Z</time>
      </trkpt>
      <trkpt lat="40.396539755165576934814453125" lon="-1.4883214049041271209716796875">
        <ele>1195</ele>
        <time>2022-05-05T08:46:17.000Z</time>
      </trkpt>
      <trkpt lat="40.3965295292437076568603515625" lon="-1.4882577024400234222412109375">
        <ele>1194.5999755859375</ele>
        <time>2022-05-05T08:46:18.000Z</time>
      </trkpt>
      <trkpt lat="40.39649876765906810760498046875" lon="-1.48812401108443737030029296875">
        <ele>1193.800048828125</ele>
        <time>2022-05-05T08:46:20.000Z</time>
      </trkpt>
      <trkpt lat="40.396433807909488677978515625" lon="-1.48792603053152561187744140625">
        <ele>1192.5999755859375</ele>
        <time>2022-05-05T08:46:23.000Z</time>
      </trkpt>
      <trkpt lat="40.39641025476157665252685546875" lon="-1.4878575503826141357421875">
        <ele>1192.4000244140625</ele>
        <time>2022-05-05T08:46:24.000Z</time>
      </trkpt>
      <trkpt lat="40.3963142819702625274658203125" lon="-1.48754633031785488128662109375">
        <ele>1191.5999755859375</ele>
        <time>2022-05-05T08:46:28.000Z</time>
      </trkpt>
      <trkpt lat="40.3962680138647556304931640625" lon="-1.48737416602671146392822265625">
        <ele>1191.4000244140625</ele>
        <time>2022-05-05T08:46:30.000Z</time>
      </trkpt>
      <trkpt lat="40.396229960024356842041015625" lon="-1.487204767763614654541015625">
        <ele>1188.4000244140625</ele>
        <time>2022-05-05T08:46:32.000Z</time>
      </trkpt>
      <trkpt lat="40.3962193988263607025146484375" lon="-1.48711868561804294586181640625">
        <ele>1186.5999755859375</ele>
        <time>2022-05-05T08:46:33.000Z</time>
      </trkpt>
      <trkpt lat="40.39621889591217041015625" lon="-1.487035118043422698974609375">
        <ele>1185.199951171875</ele>
        <time>2022-05-05T08:46:34.000Z</time>
      </trkpt>
      <trkpt lat="40.3962311334908008575439453125" lon="-1.48695523850619792938232421875">
        <ele>1184.199951171875</ele>
        <time>2022-05-05T08:46:35.000Z</time>
      </trkpt>
      <trkpt lat="40.3963464684784412384033203125" lon="-1.486740410327911376953125">
        <ele>1183.800048828125</ele>
        <time>2022-05-05T08:46:38.000Z</time>
      </trkpt>
      <trkpt lat="40.3964696824550628662109375" lon="-1.4866188727319240570068359375">
        <ele>1184.5999755859375</ele>
        <time>2022-05-05T08:46:40.000Z</time>
      </trkpt>
      <trkpt lat="40.39653799496591091156005859375" lon="-1.48655676282942295074462890625">
        <ele>1185</ele>
        <time>2022-05-05T08:46:41.000Z</time>
      </trkpt>
      <trkpt lat="40.39660773240029811859130859375" lon="-1.48649297654628753662109375">
        <ele>1185.5999755859375</ele>
        <time>2022-05-05T08:46:42.000Z</time>
      </trkpt>
      <trkpt lat="40.396678559482097625732421875" lon="-1.48642449639737606048583984375">
        <ele>1185.5999755859375</ele>
        <time>2022-05-05T08:46:43.000Z</time>
      </trkpt>
      <trkpt lat="40.39681945927441120147705078125" lon="-1.48627035319805145263671875">
        <ele>1185</ele>
        <time>2022-05-05T08:46:45.000Z</time>
      </trkpt>
      <trkpt lat="40.396956168115139007568359375" lon="-1.4860955066978931427001953125">
        <ele>1184</ele>
        <time>2022-05-05T08:46:47.000Z</time>
      </trkpt>
      <trkpt lat="40.3970222175121307373046875" lon="-1.48600456304848194122314453125">
        <ele>1183.199951171875</ele>
        <time>2022-05-05T08:46:48.000Z</time>
      </trkpt>
      <trkpt lat="40.39722162298858165740966796875" lon="-1.48573969490826129913330078125">
        <ele>1181.5999755859375</ele>
        <time>2022-05-05T08:46:51.000Z</time>
      </trkpt>
      <trkpt lat="40.3973583318293094635009765625" lon="-1.4855617471039295196533203125">
        <ele>1181</ele>
        <time>2022-05-05T08:46:53.000Z</time>
      </trkpt>
      <trkpt lat="40.39749495685100555419921875" lon="-1.485375501215457916259765625">
        <ele>1180.800048828125</ele>
        <time>2022-05-05T08:46:55.000Z</time>
      </trkpt>
      <trkpt lat="40.397558994591236114501953125" lon="-1.4852744154632091522216796875">
        <ele>1180.4000244140625</ele>
        <time>2022-05-05T08:46:56.000Z</time>
      </trkpt>
      <trkpt lat="40.39761657826602458953857421875" lon="-1.4851657859981060028076171875">
        <ele>1179.800048828125</ele>
        <time>2022-05-05T08:46:57.000Z</time>
      </trkpt>
      <trkpt lat="40.39766527712345123291015625" lon="-1.48504952900111675262451171875">
        <ele>1179</ele>
        <time>2022-05-05T08:46:58.000Z</time>
      </trkpt>
      <trkpt lat="40.39770257659256458282470703125" lon="-1.48492656648159027099609375">
        <ele>1178</ele>
        <time>2022-05-05T08:46:59.000Z</time>
      </trkpt>
      <trkpt lat="40.3977328352630138397216796875" lon="-1.48480050265789031982421875">
        <ele>1176.800048828125</ele>
        <time>2022-05-05T08:47:00.000Z</time>
      </trkpt>
      <trkpt lat="40.39775923825800418853759765625" lon="-1.4846722595393657684326171875">
        <ele>1175.4000244140625</ele>
        <time>2022-05-05T08:47:01.000Z</time>
      </trkpt>
      <trkpt lat="40.39780743420124053955078125" lon="-1.48441418074071407318115234375">
        <ele>1172.5999755859375</ele>
        <time>2022-05-05T08:47:03.000Z</time>
      </trkpt>
      <trkpt lat="40.397830568253993988037109375" lon="-1.484285853803157806396484375">
        <ele>1171.199951171875</ele>
        <time>2022-05-05T08:47:04.000Z</time>
      </trkpt>
      <trkpt lat="40.3978518582880496978759765625" lon="-1.48415702395141124725341796875">
        <ele>1169.800048828125</ele>
        <time>2022-05-05T08:47:05.000Z</time>
      </trkpt>
      <trkpt lat="40.3979065082967281341552734375" lon="-1.483765505254268646240234375">
        <ele>1170.199951171875</ele>
        <time>2022-05-05T08:47:08.000Z</time>
      </trkpt>
      <trkpt lat="40.3979661874473094940185546875" lon="-1.4833817817270755767822265625">
        <ele>1172.800048828125</ele>
        <time>2022-05-05T08:47:11.000Z</time>
      </trkpt>
      <trkpt lat="40.3980540297925472259521484375" lon="-1.48287492804229259490966796875">
        <ele>1173</ele>
        <time>2022-05-05T08:47:15.000Z</time>
      </trkpt>
      <trkpt lat="40.3981594741344451904296875" lon="-1.48238492198288440704345703125">
        <ele>1170.800048828125</ele>
        <time>2022-05-05T08:47:19.000Z</time>
      </trkpt>
      <trkpt lat="40.39818520657718181610107421875" lon="-1.48226522840559482574462890625">
        <ele>1171.4000244140625</ele>
        <time>2022-05-05T08:47:20.000Z</time>
      </trkpt>
      <trkpt lat="40.39829291403293609619140625" lon="-1.4816990308463573455810546875">
        <ele>1173.5999755859375</ele>
        <time>2022-05-05T08:47:25.000Z</time>
      </trkpt>
      <trkpt lat="40.39831043221056461334228515625" lon="-1.48159920237958431243896484375">
        <ele>1173.5999755859375</ele>
        <time>2022-05-05T08:47:26.000Z</time>
      </trkpt>
      <trkpt lat="40.3984060697257518768310546875" lon="-1.48095077835023403167724609375">
        <ele>1178.5999755859375</ele>
        <time>2022-05-05T08:47:33.000Z</time>
      </trkpt>
      <trkpt lat="40.39846013300120830535888671875" lon="-1.48051743395626544952392578125">
        <ele>1182.800048828125</ele>
        <time>2022-05-05T08:47:38.000Z</time>
      </trkpt>
      <trkpt lat="40.39846113882958889007568359375" lon="-1.48001250810921192169189453125">
        <ele>1186</ele>
        <time>2022-05-05T08:47:44.000Z</time>
      </trkpt>
      <trkpt lat="40.3984566964209079742431640625" lon="-1.4799314551055431365966796875">
        <ele>1185.800048828125</ele>
        <time>2022-05-05T08:47:45.000Z</time>
      </trkpt>
      <trkpt lat="40.398376397788524627685546875" lon="-1.4794957637786865234375">
        <ele>1187</ele>
        <time>2022-05-05T08:47:51.000Z</time>
      </trkpt>
      <trkpt lat="40.39831973612308502197265625" lon="-1.4793842844665050506591796875">
        <ele>1185.5999755859375</ele>
        <time>2022-05-05T08:47:53.000Z</time>
      </trkpt>
      <trkpt lat="40.3982280381023883819580078125" lon="-1.47917146794497966766357421875">
        <ele>1183.4000244140625</ele>
        <time>2022-05-05T08:47:57.000Z</time>
      </trkpt>
      <trkpt lat="40.398086048662662506103515625" lon="-1.478889919817447662353515625">
        <ele>1180</ele>
        <time>2022-05-05T08:48:03.000Z</time>
      </trkpt>
      <trkpt lat="40.39799845777451992034912109375" lon="-1.478604264557361602783203125">
        <ele>1179</ele>
        <time>2022-05-05T08:48:09.000Z</time>
      </trkpt>
      <trkpt lat="40.39797482080757617950439453125" lon="-1.47856009192764759063720703125">
        <ele>1178.5999755859375</ele>
        <time>2022-05-05T08:48:10.000Z</time>
      </trkpt>
      <trkpt lat="40.3978671133518218994140625" lon="-1.478438638150691986083984375">
        <ele>1178.4000244140625</ele>
        <time>2022-05-05T08:48:13.000Z</time>
      </trkpt>
      <trkpt lat="40.3978277184069156646728515625" lon="-1.47840754128992557525634765625">
        <ele>1178.199951171875</ele>
        <time>2022-05-05T08:48:14.000Z</time>
      </trkpt>
      <trkpt lat="40.39778723381459712982177734375" lon="-1.4783740974962711334228515625">
        <ele>1177.800048828125</ele>
        <time>2022-05-05T08:48:15.000Z</time>
      </trkpt>
      <trkpt lat="40.39766955189406871795654296875" lon="-1.478277705609798431396484375">
        <ele>1176.5999755859375</ele>
        <time>2022-05-05T08:48:18.000Z</time>
      </trkpt>
      <trkpt lat="40.397623367607593536376953125" lon="-1.47825314663350582122802734375">
        <ele>1175.800048828125</ele>
        <time>2022-05-05T08:48:19.000Z</time>
      </trkpt>
      <trkpt lat="40.39730544202029705047607421875" lon="-1.47811400704085826873779296875">
        <ele>1172.4000244140625</ele>
        <time>2022-05-05T08:48:25.000Z</time>
      </trkpt>
      <trkpt lat="40.39712757803499698638916015625" lon="-1.47807109169661998748779296875">
        <ele>1170.800048828125</ele>
        <time>2022-05-05T08:48:28.000Z</time>
      </trkpt>
      <trkpt lat="40.39700386114418506622314453125" lon="-1.4780609495937824249267578125">
        <ele>1170.199951171875</ele>
        <time>2022-05-05T08:48:30.000Z</time>
      </trkpt>
      <trkpt lat="40.3966871090233325958251953125" lon="-1.47805952467024326324462890625">
        <ele>1168.4000244140625</ele>
        <time>2022-05-05T08:48:35.000Z</time>
      </trkpt>
      <trkpt lat="40.39662784896790981292724609375" lon="-1.4780622906982898712158203125">
        <ele>1168</ele>
        <time>2022-05-05T08:48:36.000Z</time>
      </trkpt>
      <trkpt lat="40.3964101709425449371337890625" lon="-1.4780871011316776275634765625">
        <ele>1166</ele>
        <time>2022-05-05T08:48:40.000Z</time>
      </trkpt>
      <trkpt lat="40.3961054049432277679443359375" lon="-1.47810981608927249908447265625">
        <ele>1163.800048828125</ele>
        <time>2022-05-05T08:48:46.000Z</time>
      </trkpt>
      <trkpt lat="40.39594204165041446685791015625" lon="-1.47810193710029125213623046875">
        <ele>1163.5999755859375</ele>
        <time>2022-05-05T08:48:49.000Z</time>
      </trkpt>
      <trkpt lat="40.39580038748681545257568359375" lon="-1.47808785550296306610107421875">
        <ele>1163.800048828125</ele>
        <time>2022-05-05T08:48:52.000Z</time>
      </trkpt>
      <trkpt lat="40.3957000561058521270751953125" lon="-1.47806321270763874053955078125">
        <ele>1164.199951171875</ele>
        <time>2022-05-05T08:48:54.000Z</time>
      </trkpt>
      <trkpt lat="40.39559151045978069305419921875" lon="-1.4780270867049694061279296875">
        <ele>1164.5999755859375</ele>
        <time>2022-05-05T08:48:56.000Z</time>
      </trkpt>
      <trkpt lat="40.39533519186079502105712890625" lon="-1.47791284136474132537841796875">
        <ele>1165.800048828125</ele>
        <time>2022-05-05T08:49:01.000Z</time>
      </trkpt>
      <trkpt lat="40.39524584077298641204833984375" lon="-1.4778658188879489898681640625">
        <ele>1166.4000244140625</ele>
        <time>2022-05-05T08:49:03.000Z</time>
      </trkpt>
      <trkpt lat="40.3950147517025470733642578125" lon="-1.4777005277574062347412109375">
        <ele>1167.800048828125</ele>
        <time>2022-05-05T08:49:08.000Z</time>
      </trkpt>
      <trkpt lat="40.39470772258937358856201171875" lon="-1.47739433683454990386962890625">
        <ele>1163.800048828125</ele>
        <time>2022-05-05T08:49:15.000Z</time>
      </trkpt>
      <trkpt lat="40.39440882392227649688720703125" lon="-1.47699058055877685546875">
        <ele>1169</ele>
        <time>2022-05-05T08:49:22.000Z</time>
      </trkpt>
      <trkpt lat="40.394277982413768768310546875" lon="-1.476730741560459136962890625">
        <ele>1171.5999755859375</ele>
        <time>2022-05-05T08:49:26.000Z</time>
      </trkpt>
      <trkpt lat="40.39419525302946567535400390625" lon="-1.47651960141956806182861328125">
        <ele>1170.5999755859375</ele>
        <time>2022-05-05T08:49:29.000Z</time>
      </trkpt>
      <trkpt lat="40.394028536975383758544921875" lon="-1.47603881545364856719970703125">
        <ele>1172.199951171875</ele>
        <time>2022-05-05T08:49:36.000Z</time>
      </trkpt>
      <trkpt lat="40.3939080052077770233154296875" lon="-1.475584097206592559814453125">
        <ele>1168.5999755859375</ele>
        <time>2022-05-05T08:49:43.000Z</time>
      </trkpt>
      <trkpt lat="40.39384706877171993255615234375" lon="-1.475309170782566070556640625">
        <ele>1168</ele>
        <time>2022-05-05T08:49:47.000Z</time>
      </trkpt>
      <trkpt lat="40.39381454698741436004638671875" lon="-1.47517916746437549591064453125">
        <ele>1167.4000244140625</ele>
        <time>2022-05-05T08:49:49.000Z</time>
      </trkpt>
      <trkpt lat="40.39378412067890167236328125" lon="-1.474984623491764068603515625">
        <ele>1169.199951171875</ele>
        <time>2022-05-05T08:49:52.000Z</time>
      </trkpt>
      <trkpt lat="40.39375503547489643096923828125" lon="-1.47478555329144001007080078125">
        <ele>1170</ele>
        <time>2022-05-05T08:49:55.000Z</time>
      </trkpt>
      <trkpt lat="40.39373156614601612091064453125" lon="-1.4745908416807651519775390625">
        <ele>1171</ele>
        <time>2022-05-05T08:49:58.000Z</time>
      </trkpt>
      <trkpt lat="40.3937338292598724365234375" lon="-1.47433460690081119537353515625">
        <ele>1172.199951171875</ele>
        <time>2022-05-05T08:50:02.000Z</time>
      </trkpt>
      <trkpt lat="40.393758304417133331298828125" lon="-1.474082730710506439208984375">
        <ele>1173.4000244140625</ele>
        <time>2022-05-05T08:50:06.000Z</time>
      </trkpt>
      <trkpt lat="40.3937712125480175018310546875" lon="-1.4739591814577579498291015625">
        <ele>1173.800048828125</ele>
        <time>2022-05-05T08:50:08.000Z</time>
      </trkpt>
      <trkpt lat="40.3938389383256435394287109375" lon="-1.4735384099185466766357421875">
        <ele>1174</ele>
        <time>2022-05-05T08:50:15.000Z</time>
      </trkpt>
      <trkpt lat="40.39392418228089809417724609375" lon="-1.47313247434794902801513671875">
        <ele>1177.199951171875</ele>
        <time>2022-05-05T08:50:22.000Z</time>
      </trkpt>
      <trkpt lat="40.3940518386662006378173828125" lon="-1.4726619981229305267333984375">
        <ele>1181</ele>
        <time>2022-05-05T08:50:30.000Z</time>
      </trkpt>
      <trkpt lat="40.39419047534465789794921875" lon="-1.4722444117069244384765625">
        <ele>1185.5999755859375</ele>
        <time>2022-05-05T08:50:37.000Z</time>
      </trkpt>
      <trkpt lat="40.3943505696952342987060546875" lon="-1.47176899015903472900390625">
        <ele>1188.199951171875</ele>
        <time>2022-05-05T08:50:45.000Z</time>
      </trkpt>
      <trkpt lat="40.394470430910587310791015625" lon="-1.47123900242149829864501953125">
        <ele>1187.800048828125</ele>
        <time>2022-05-05T08:50:54.000Z</time>
      </trkpt>
      <trkpt lat="40.39450773037970066070556640625" lon="-1.470929123461246490478515625">
        <ele>1184.199951171875</ele>
        <time>2022-05-05T08:51:00.000Z</time>
      </trkpt>
      <trkpt lat="40.394528768956661224365234375" lon="-1.470769532024860382080078125">
        <ele>1182.5999755859375</ele>
        <time>2022-05-05T08:51:03.000Z</time>
      </trkpt>
      <trkpt lat="40.394542850553989410400390625" lon="-1.470602564513683319091796875">
        <ele>1181.5999755859375</ele>
        <time>2022-05-05T08:51:06.000Z</time>
      </trkpt>
      <trkpt lat="40.3945597819983959197998046875" lon="-1.47043014876544475555419921875">
        <ele>1179.5999755859375</ele>
        <time>2022-05-05T08:51:09.000Z</time>
      </trkpt>
      <trkpt lat="40.3945705108344554901123046875" lon="-1.47025027312338352203369140625">
        <ele>1177.5999755859375</ele>
        <time>2022-05-05T08:51:12.000Z</time>
      </trkpt>
      <trkpt lat="40.394581742584705352783203125" lon="-1.47018707357347011566162109375">
        <ele>1177</ele>
        <time>2022-05-05T08:51:13.000Z</time>
      </trkpt>
      <trkpt lat="40.39464402012526988983154296875" lon="-1.4698580838739871978759765625">
        <ele>1174.199951171875</ele>
        <time>2022-05-05T08:51:18.000Z</time>
      </trkpt>
      <trkpt lat="40.394760780036449432373046875" lon="-1.469431109726428985595703125">
        <ele>1176</ele>
        <time>2022-05-05T08:51:24.000Z</time>
      </trkpt>
      <trkpt lat="40.39494191296398639678955078125" lon="-1.46892190910875797271728515625">
        <ele>1179.199951171875</ele>
        <time>2022-05-05T08:51:31.000Z</time>
      </trkpt>
      <trkpt lat="40.39503813721239566802978515625" lon="-1.46866969764232635498046875">
        <ele>1177</ele>
        <time>2022-05-05T08:51:35.000Z</time>
      </trkpt>
      <trkpt lat="40.395128913223743438720703125" lon="-1.46841966547071933746337890625">
        <ele>1176</ele>
        <time>2022-05-05T08:51:39.000Z</time>
      </trkpt>
      <trkpt lat="40.3953141532838344573974609375" lon="-1.46796050481498241424560546875">
        <ele>1174.4000244140625</ele>
        <time>2022-05-05T08:51:46.000Z</time>
      </trkpt>
      <trkpt lat="40.39552546106278896331787109375" lon="-1.46752498112618923187255859375">
        <ele>1172.4000244140625</ele>
        <time>2022-05-05T08:51:53.000Z</time>
      </trkpt>
      <trkpt lat="40.3957580588757991790771484375" lon="-1.4670516550540924072265625">
        <ele>1168.4000244140625</ele>
        <time>2022-05-05T08:52:01.000Z</time>
      </trkpt>
      <trkpt lat="40.3959305584430694580078125" lon="-1.46673741750419139862060546875">
        <ele>1167.5999755859375</ele>
        <time>2022-05-05T08:52:07.000Z</time>
      </trkpt>
      <trkpt lat="40.3959555365145206451416015625" lon="-1.4666867069900035858154296875">
        <ele>1167.4000244140625</ele>
        <time>2022-05-05T08:52:08.000Z</time>
      </trkpt>
      <trkpt lat="40.39604731835424900054931640625" lon="-1.46652284078299999237060546875">
        <ele>1167</ele>
        <time>2022-05-05T08:52:11.000Z</time>
      </trkpt>
      <trkpt lat="40.39611236192286014556884765625" lon="-1.46640767343342304229736328125">
        <ele>1166.800048828125</ele>
        <time>2022-05-05T08:52:13.000Z</time>
      </trkpt>
      <trkpt lat="40.39631369523704051971435546875" lon="-1.4660754986107349395751953125">
        <ele>1167</ele>
        <time>2022-05-05T08:52:19.000Z</time>
      </trkpt>
      <trkpt lat="40.39651301689445972442626953125" lon="-1.4657496102154254913330078125">
        <ele>1168.5999755859375</ele>
        <time>2022-05-05T08:52:25.000Z</time>
      </trkpt>
      <trkpt lat="40.39658040739595890045166015625" lon="-1.46563201211392879486083984375">
        <ele>1169</ele>
        <time>2022-05-05T08:52:27.000Z</time>
      </trkpt>
      <trkpt lat="40.39671669714152812957763671875" lon="-1.4653734304010868072509765625">
        <ele>1167.800048828125</ele>
        <time>2022-05-05T08:52:31.000Z</time>
      </trkpt>
      <trkpt lat="40.39679598994553089141845703125" lon="-1.46524895913898944854736328125">
        <ele>1167.5999755859375</ele>
        <time>2022-05-05T08:52:33.000Z</time>
      </trkpt>
      <trkpt lat="40.3969851695001125335693359375" lon="-1.46493463777005672454833984375">
        <ele>1167.5999755859375</ele>
        <time>2022-05-05T08:52:38.000Z</time>
      </trkpt>
      <trkpt lat="40.39731684140861034393310546875" lon="-1.46438310854136943817138671875">
        <ele>1168.4000244140625</ele>
        <time>2022-05-05T08:52:47.000Z</time>
      </trkpt>
      <trkpt lat="40.39766485802829265594482421875" lon="-1.46384951658546924591064453125">
        <ele>1168.800048828125</ele>
        <time>2022-05-05T08:52:56.000Z</time>
      </trkpt>
      <trkpt lat="40.397919081151485443115234375" lon="-1.4634449221193790435791015625">
        <ele>1166.5999755859375</ele>
        <time>2022-05-05T08:53:03.000Z</time>
      </trkpt>
      <trkpt lat="40.3981978632509708404541015625" lon="-1.46298014558851718902587890625">
        <ele>1166.800048828125</ele>
        <time>2022-05-05T08:53:11.000Z</time>
      </trkpt>
      <trkpt lat="40.398358963429927825927734375" lon="-1.46268644370138645172119140625">
        <ele>1169.5999755859375</ele>
        <time>2022-05-05T08:53:16.000Z</time>
      </trkpt>
      <trkpt lat="40.39842166006565093994140625" lon="-1.46249282173812389373779296875">
        <ele>1169.5999755859375</ele>
        <time>2022-05-05T08:53:19.000Z</time>
      </trkpt>
      <trkpt lat="40.39847337640821933746337890625" lon="-1.46229115314781665802001953125">
        <ele>1169.5999755859375</ele>
        <time>2022-05-05T08:53:22.000Z</time>
      </trkpt>
      <trkpt lat="40.39855903945863246917724609375" lon="-1.4617789350450038909912109375">
        <ele>1175</ele>
        <time>2022-05-05T08:53:29.000Z</time>
      </trkpt>
      <trkpt lat="40.3986042179167270660400390625" lon="-1.4613279886543750762939453125">
        <ele>1174.4000244140625</ele>
        <time>2022-05-05T08:53:35.000Z</time>
      </trkpt>
      <trkpt lat="40.39861536584794521331787109375" lon="-1.4611776173114776611328125">
        <ele>1172.800048828125</ele>
        <time>2022-05-05T08:53:37.000Z</time>
      </trkpt>
      <trkpt lat="40.3986820019781589508056640625" lon="-1.460686437785625457763671875">
        <ele>1171</ele>
        <time>2022-05-05T08:53:44.000Z</time>
      </trkpt>
      <trkpt lat="40.398697592318058013916015625" lon="-1.460621058940887451171875">
        <ele>1170.5999755859375</ele>
        <time>2022-05-05T08:53:45.000Z</time>
      </trkpt>
      <trkpt lat="40.3987735323607921600341796875" lon="-1.46044646389782428741455078125">
        <ele>1168.199951171875</ele>
        <time>2022-05-05T08:53:48.000Z</time>
      </trkpt>
      <trkpt lat="40.39880395866930484771728515625" lon="-1.460394747555255889892578125">
        <ele>1167.5999755859375</ele>
        <time>2022-05-05T08:53:49.000Z</time>
      </trkpt>
      <trkpt lat="40.3988379053771495819091796875" lon="-1.4603466354310512542724609375">
        <ele>1167.4000244140625</ele>
        <time>2022-05-05T08:53:50.000Z</time>
      </trkpt>
      <trkpt lat="40.39896883070468902587890625" lon="-1.46022434346377849578857421875">
        <ele>1168.4000244140625</ele>
        <time>2022-05-05T08:53:53.000Z</time>
      </trkpt>
      <trkpt lat="40.399209223687648773193359375" lon="-1.46007514558732509613037109375">
        <ele>1172</ele>
        <time>2022-05-05T08:53:58.000Z</time>
      </trkpt>
      <trkpt lat="40.39940829388797283172607421875" lon="-1.45995025523006916046142578125">
        <ele>1174.800048828125</ele>
        <time>2022-05-05T08:54:02.000Z</time>
      </trkpt>
      <trkpt lat="40.39955665357410907745361328125" lon="-1.459850929677486419677734375">
        <ele>1176.800048828125</ele>
        <time>2022-05-05T08:54:05.000Z</time>
      </trkpt>
      <trkpt lat="40.39980995468795299530029296875" lon="-1.459689326584339141845703125">
        <ele>1180.800048828125</ele>
        <time>2022-05-05T08:54:10.000Z</time>
      </trkpt>
      <trkpt lat="40.39989897049963474273681640625" lon="-1.45960056222975254058837890625">
        <ele>1181.5999755859375</ele>
        <time>2022-05-05T08:54:12.000Z</time>
      </trkpt>
      <trkpt lat="40.400011874735355377197265625" lon="-1.45943426527082920074462890625">
        <ele>1180.800048828125</ele>
        <time>2022-05-05T08:54:15.000Z</time>
      </trkpt>
      <trkpt lat="40.4000864736735820770263671875" lon="-1.4593242108821868896484375">
        <ele>1180.5999755859375</ele>
        <time>2022-05-05T08:54:17.000Z</time>
      </trkpt>
      <trkpt lat="40.40012628771364688873291015625" lon="-1.45926863886415958404541015625">
        <ele>1180.4000244140625</ele>
        <time>2022-05-05T08:54:18.000Z</time>
      </trkpt>
      <trkpt lat="40.400208346545696258544921875" lon="-1.45917274989187717437744140625">
        <ele>1180.800048828125</ele>
        <time>2022-05-05T08:54:20.000Z</time>
      </trkpt>
      <trkpt lat="40.40035310201346874237060546875" lon="-1.4589830674231052398681640625">
        <ele>1180.5999755859375</ele>
        <time>2022-05-05T08:54:24.000Z</time>
      </trkpt>
      <trkpt lat="40.4005481489002704620361328125" lon="-1.458661369979381561279296875">
        <ele>1175.199951171875</ele>
        <time>2022-05-05T08:54:29.000Z</time>
      </trkpt>
      <trkpt lat="40.40058729238808155059814453125" lon="-1.4585921354591846466064453125">
        <ele>1173.5999755859375</ele>
        <time>2022-05-05T08:54:30.000Z</time>
      </trkpt>
      <trkpt lat="40.40072676725685596466064453125" lon="-1.4584151096642017364501953125">
        <ele>1170.199951171875</ele>
        <time>2022-05-05T08:54:33.000Z</time>
      </trkpt>
      <trkpt lat="40.40080522187054157257080078125" lon="-1.45828996784985065460205078125">
        <ele>1167.5999755859375</ele>
        <time>2022-05-05T08:54:35.000Z</time>
      </trkpt>
      <trkpt lat="40.40097403340041637420654296875" lon="-1.45778101868927478790283203125">
        <ele>1167.4000244140625</ele>
        <time>2022-05-05T08:54:42.000Z</time>
      </trkpt>
      <trkpt lat="40.40106858126819133758544921875" lon="-1.45737114362418651580810546875">
        <ele>1168</ele>
        <time>2022-05-05T08:54:47.000Z</time>
      </trkpt>
      <trkpt lat="40.40108517743647098541259765625" lon="-1.457208283245563507080078125">
        <ele>1169.800048828125</ele>
        <time>2022-05-05T08:54:49.000Z</time>
      </trkpt>
      <trkpt lat="40.40108232758939266204833984375" lon="-1.4570470154285430908203125">
        <ele>1172.4000244140625</ele>
        <time>2022-05-05T08:54:51.000Z</time>
      </trkpt>
      <trkpt lat="40.4010450281202793121337890625" lon="-1.45645215176045894622802734375">
        <ele>1178.5999755859375</ele>
        <time>2022-05-05T08:54:59.000Z</time>
      </trkpt>
      <trkpt lat="40.40102600120007991790771484375" lon="-1.4563845098018646240234375">
        <ele>1179.4000244140625</ele>
        <time>2022-05-05T08:55:00.000Z</time>
      </trkpt>
      <trkpt lat="40.40095031261444091796875" lon="-1.4562076516449451446533203125">
        <ele>1180.800048828125</ele>
        <time>2022-05-05T08:55:03.000Z</time>
      </trkpt>
      <trkpt lat="40.40085148997604846954345703125" lon="-1.4560996927320957183837890625">
        <ele>1179.199951171875</ele>
        <time>2022-05-05T08:55:06.000Z</time>
      </trkpt>
      <trkpt lat="40.40081947110593318939208984375" lon="-1.45606641657650470733642578125">
        <ele>1178</ele>
        <time>2022-05-05T08:55:07.000Z</time>
      </trkpt>
      <trkpt lat="40.4007456265389919281005859375" lon="-1.45597019232809543609619140625">
        <ele>1175.4000244140625</ele>
        <time>2022-05-05T08:55:09.000Z</time>
      </trkpt>
      <trkpt lat="40.4006591252982616424560546875" lon="-1.455885954201221466064453125">
        <ele>1172.199951171875</ele>
        <time>2022-05-05T08:55:11.000Z</time>
      </trkpt>
      <trkpt lat="40.40039601735770702362060546875" lon="-1.4556001313030719757080078125">
        <ele>1165.5999755859375</ele>
        <time>2022-05-05T08:55:18.000Z</time>
      </trkpt>
      <trkpt lat="40.40019334293901920318603515625" lon="-1.45526829175651073455810546875">
        <ele>1166.199951171875</ele>
        <time>2022-05-05T08:55:25.000Z</time>
      </trkpt>
      <trkpt lat="40.40013718418776988983154296875" lon="-1.4551706425845623016357421875">
        <ele>1166.4000244140625</ele>
        <time>2022-05-05T08:55:27.000Z</time>
      </trkpt>
      <trkpt lat="40.40005378425121307373046875" lon="-1.454908289015293121337890625">
        <ele>1162.199951171875</ele>
        <time>2022-05-05T08:55:31.000Z</time>
      </trkpt>
      <trkpt lat="40.3999345935881137847900390625" lon="-1.4544048719108104705810546875">
        <ele>1152.4000244140625</ele>
        <time>2022-05-05T08:55:37.000Z</time>
      </trkpt>
      <trkpt lat="40.3999325819313526153564453125" lon="-1.45426749251782894134521484375">
        <ele>1152.4000244140625</ele>
        <time>2022-05-05T08:55:39.000Z</time>
      </trkpt>
      <trkpt lat="40.3999855555593967437744140625" lon="-1.4540508203208446502685546875">
        <ele>1152.5999755859375</ele>
        <time>2022-05-05T08:55:42.000Z</time>
      </trkpt>
      <trkpt lat="40.4001724720001220703125" lon="-1.45380212925374507904052734375">
        <ele>1151.5999755859375</ele>
        <time>2022-05-05T08:55:46.000Z</time>
      </trkpt>
      <trkpt lat="40.40023055858910083770751953125" lon="-1.453749239444732666015625">
        <ele>1151.4000244140625</ele>
        <time>2022-05-05T08:55:47.000Z</time>
      </trkpt>
      <trkpt lat="40.40047195740044116973876953125" lon="-1.45355620421469211578369140625">
        <ele>1150.800048828125</ele>
        <time>2022-05-05T08:55:51.000Z</time>
      </trkpt>
      <trkpt lat="40.4005293734371662139892578125" lon="-1.45350574515759944915771484375">
        <ele>1152.5999755859375</ele>
        <time>2022-05-05T08:55:52.000Z</time>
      </trkpt>
      <trkpt lat="40.4007580317556858062744140625" lon="-1.45320919342339038848876953125">
        <ele>1160.5999755859375</ele>
        <time>2022-05-05T08:55:57.000Z</time>
      </trkpt>
      <trkpt lat="40.400827266275882720947265625" lon="-1.4528961293399333953857421875">
        <ele>1176</ele>
        <time>2022-05-05T08:56:01.000Z</time>
      </trkpt>
      <trkpt lat="40.40077001787722110748291015625" lon="-1.4526889286935329437255859375">
        <ele>1176.4000244140625</ele>
        <time>2022-05-05T08:56:04.000Z</time>
      </trkpt>
      <trkpt lat="40.4006074927747249603271484375" lon="-1.452488936483860015869140625">
        <ele>1164.800048828125</ele>
        <time>2022-05-05T08:56:08.000Z</time>
      </trkpt>
      <trkpt lat="40.40025084279477596282958984375" lon="-1.4521642215549945831298828125">
        <ele>1160.5999755859375</ele>
        <time>2022-05-05T08:56:16.000Z</time>
      </trkpt>
      <trkpt lat="40.40007029660046100616455078125" lon="-1.45196146331727504730224609375">
        <ele>1166.800048828125</ele>
        <time>2022-05-05T08:56:20.000Z</time>
      </trkpt>
      <trkpt lat="40.39992646314203739166259765625" lon="-1.451761387288570404052734375">
        <ele>1163.199951171875</ele>
        <time>2022-05-05T08:56:23.000Z</time>
      </trkpt>
      <trkpt lat="40.39975480176508426666259765625" lon="-1.45143625326454639434814453125">
        <ele>1156.4000244140625</ele>
        <time>2022-05-05T08:56:27.000Z</time>
      </trkpt>
      <trkpt lat="40.399728901684284210205078125" lon="-1.4513541944324970245361328125">
        <ele>1155.5999755859375</ele>
        <time>2022-05-05T08:56:28.000Z</time>
      </trkpt>
      <trkpt lat="40.39971859194338321685791015625" lon="-1.45110818557441234588623046875">
        <ele>1156.199951171875</ele>
        <time>2022-05-05T08:56:31.000Z</time>
      </trkpt>
      <trkpt lat="40.399801991879940032958984375" lon="-1.45089193247258663177490234375">
        <ele>1159.199951171875</ele>
        <time>2022-05-05T08:56:34.000Z</time>
      </trkpt>
      <trkpt lat="40.40001832880079746246337890625" lon="-1.4507275633513927459716796875">
        <ele>1165.4000244140625</ele>
        <time>2022-05-05T08:56:38.000Z</time>
      </trkpt>
      <trkpt lat="40.4002054966986179351806640625" lon="-1.4507443271577358245849609375">
        <ele>1170.4000244140625</ele>
        <time>2022-05-05T08:56:41.000Z</time>
      </trkpt>
      <trkpt lat="40.40026525966823101043701171875" lon="-1.45075924694538116455078125">
        <ele>1171.800048828125</ele>
        <time>2022-05-05T08:56:42.000Z</time>
      </trkpt>
      <trkpt lat="40.4005515016615390777587890625" lon="-1.45083996467292308807373046875">
        <ele>1179.800048828125</ele>
        <time>2022-05-05T08:56:47.000Z</time>
      </trkpt>
      <trkpt lat="40.40061478503048419952392578125" lon="-1.4508569799363613128662109375">
        <ele>1180.4000244140625</ele>
        <time>2022-05-05T08:56:48.000Z</time>
      </trkpt>
      <trkpt lat="40.4007947444915771484375" lon="-1.450858153402805328369140625">
        <ele>1182.199951171875</ele>
        <time>2022-05-05T08:56:51.000Z</time>
      </trkpt>
      <trkpt lat="40.40091820992529392242431640625" lon="-1.45084566436707973480224609375">
        <ele>1183.199951171875</ele>
        <time>2022-05-05T08:56:53.000Z</time>
      </trkpt>
      <trkpt lat="40.400972105562686920166015625" lon="-1.45082906819880008697509765625">
        <ele>1183.800048828125</ele>
        <time>2022-05-05T08:56:54.000Z</time>
      </trkpt>
      <trkpt lat="40.401269160211086273193359375" lon="-1.45075120031833648681640625">
        <ele>1187.5999755859375</ele>
        <time>2022-05-05T08:56:59.000Z</time>
      </trkpt>
      <trkpt lat="40.4013196192681789398193359375" lon="-1.45071339793503284454345703125">
        <ele>1188</ele>
        <time>2022-05-05T08:57:00.000Z</time>
      </trkpt>
      <trkpt lat="40.40145012550055980682373046875" lon="-1.45059353671967983245849609375">
        <ele>1183.800048828125</ele>
        <time>2022-05-05T08:57:03.000Z</time>
      </trkpt>
      <trkpt lat="40.40174734778702259063720703125" lon="-1.4504331909120082855224609375">
        <ele>1178.5999755859375</ele>
        <time>2022-05-05T08:57:09.000Z</time>
      </trkpt>
      <trkpt lat="40.40193627588450908660888671875" lon="-1.45041919313371181488037109375">
        <ele>1176.800048828125</ele>
        <time>2022-05-05T08:57:12.000Z</time>
      </trkpt>
      <trkpt lat="40.40205781348049640655517578125" lon="-1.4504298381507396697998046875">
        <ele>1176</ele>
        <time>2022-05-05T08:57:14.000Z</time>
      </trkpt>
      <trkpt lat="40.40243558585643768310546875" lon="-1.4504603482782840728759765625">
        <ele>1177.4000244140625</ele>
        <time>2022-05-05T08:57:19.000Z</time>
      </trkpt>
      <trkpt lat="40.40245972573757171630859375" lon="-1.4502115733921527862548828125">
        <ele>1178.199951171875</ele>
        <time>2022-05-05T08:57:21.000Z</time>
      </trkpt>
      <trkpt lat="40.40250322781503200531005859375" lon="-1.450201012194156646728515625">
        <ele>1179</ele>
        <time>2022-05-05T08:57:22.000Z</time>
      </trkpt>
      <trkpt lat="40.40254957973957061767578125" lon="-1.4502259902656078338623046875">
        <ele>1180.4000244140625</ele>
        <time>2022-05-05T08:57:23.000Z</time>
      </trkpt>
      <trkpt lat="40.40270204655826091766357421875" lon="-1.4503758586943149566650390625">
        <ele>1172.5999755859375</ele>
        <time>2022-05-05T08:57:26.000Z</time>
      </trkpt>
      <trkpt lat="40.40297336876392364501953125" lon="-1.450734101235866546630859375">
        <ele>1156.800048828125</ele>
        <time>2022-05-05T08:57:32.000Z</time>
      </trkpt>
      <trkpt lat="40.4030060581862926483154296875" lon="-1.45080241374671459197998046875">
        <ele>1157.5999755859375</ele>
        <time>2022-05-05T08:57:33.000Z</time>
      </trkpt>
      <trkpt lat="40.4031269252300262451171875" lon="-1.4510769210755825042724609375">
        <ele>1163.800048828125</ele>
        <time>2022-05-05T08:57:37.000Z</time>
      </trkpt>
      <trkpt lat="40.4031468741595745086669921875" lon="-1.45114808343350887298583984375">
        <ele>1165.199951171875</ele>
        <time>2022-05-05T08:57:38.000Z</time>
      </trkpt>
      <trkpt lat="40.40317746810615062713623046875" lon="-1.4513756521046161651611328125">
        <ele>1166.199951171875</ele>
        <time>2022-05-05T08:57:41.000Z</time>
      </trkpt>
      <trkpt lat="40.40323278866708278656005859375" lon="-1.4517082460224628448486328125">
        <ele>1172.5999755859375</ele>
        <time>2022-05-05T08:57:45.000Z</time>
      </trkpt>
      <trkpt lat="40.40325508452951908111572265625" lon="-1.45178795792162418365478515625">
        <ele>1176</ele>
        <time>2022-05-05T08:57:46.000Z</time>
      </trkpt>
      <trkpt lat="40.403282828629016876220703125" lon="-1.45186373032629489898681640625">
        <ele>1179</ele>
        <time>2022-05-05T08:57:47.000Z</time>
      </trkpt>
      <trkpt lat="40.4033859260380268096923828125" lon="-1.45205064676702022552490234375">
        <ele>1182.800048828125</ele>
        <time>2022-05-05T08:57:50.000Z</time>
      </trkpt>
      <trkpt lat="40.40347569622099399566650390625" lon="-1.4521306939423084259033203125">
        <ele>1181</ele>
        <time>2022-05-05T08:57:52.000Z</time>
      </trkpt>
      <trkpt lat="40.40374089963734149932861328125" lon="-1.45231149159371852874755859375">
        <ele>1174</ele>
        <time>2022-05-05T08:57:57.000Z</time>
      </trkpt>
      <trkpt lat="40.40406896732747554779052734375" lon="-1.45241056568920612335205078125">
        <ele>1186</ele>
        <time>2022-05-05T08:58:02.000Z</time>
      </trkpt>
      <trkpt lat="40.404134094715118408203125" lon="-1.45240201614797115325927734375">
        <ele>1188.199951171875</ele>
        <time>2022-05-05T08:58:03.000Z</time>
      </trkpt>
      <trkpt lat="40.40425336919724941253662109375" lon="-1.4523449353873729705810546875">
        <ele>1190</ele>
        <time>2022-05-05T08:58:05.000Z</time>
      </trkpt>
      <trkpt lat="40.40442888624966144561767578125" lon="-1.45207621157169342041015625">
        <ele>1195</ele>
        <time>2022-05-05T08:58:09.000Z</time>
      </trkpt>
      <trkpt lat="40.40447398088872432708740234375" lon="-1.45191502757370471954345703125">
        <ele>1196.4000244140625</ele>
        <time>2022-05-05T08:58:11.000Z</time>
      </trkpt>
      <trkpt lat="40.4045322351157665252685546875" lon="-1.45167790353298187255859375">
        <ele>1197.800048828125</ele>
        <time>2022-05-05T08:58:14.000Z</time>
      </trkpt>
      <trkpt lat="40.4045432992279529571533203125" lon="-1.45150498487055301666259765625">
        <ele>1195.800048828125</ele>
        <time>2022-05-05T08:58:16.000Z</time>
      </trkpt>
      <trkpt lat="40.4045174829661846160888671875" lon="-1.45124061964452266693115234375">
        <ele>1199.4000244140625</ele>
        <time>2022-05-05T08:58:19.000Z</time>
      </trkpt>
      <trkpt lat="40.404438190162181854248046875" lon="-1.4509957842528820037841796875">
        <ele>1200</ele>
        <time>2022-05-05T08:58:22.000Z</time>
      </trkpt>
      <trkpt lat="40.4044118709862232208251953125" lon="-1.45091825164854526519775390625">
        <ele>1200</ele>
        <time>2022-05-05T08:58:23.000Z</time>
      </trkpt>
      <trkpt lat="40.4043766669929027557373046875" lon="-1.4507832191884517669677734375">
        <ele>1201</ele>
        <time>2022-05-05T08:58:25.000Z</time>
      </trkpt>
      <trkpt lat="40.40436602197587490081787109375" lon="-1.450625471770763397216796875">
        <ele>1203.199951171875</ele>
        <time>2022-05-05T08:58:27.000Z</time>
      </trkpt>
      <trkpt lat="40.404413379728794097900390625" lon="-1.45030419342219829559326171875">
        <ele>1206.4000244140625</ele>
        <time>2022-05-05T08:58:31.000Z</time>
      </trkpt>
      <trkpt lat="40.40458512492477893829345703125" lon="-1.44994796253740787506103515625">
        <ele>1217</ele>
        <time>2022-05-05T08:58:36.000Z</time>
      </trkpt>
      <trkpt lat="40.404684953391551971435546875" lon="-1.44984369166195392608642578125">
        <ele>1221.199951171875</ele>
        <time>2022-05-05T08:58:38.000Z</time>
      </trkpt>
      <trkpt lat="40.4048931598663330078125" lon="-1.4496736228466033935546875">
        <ele>1217</ele>
        <time>2022-05-05T08:58:42.000Z</time>
      </trkpt>
      <trkpt lat="40.4052534140646457672119140625" lon="-1.44939727149903774261474609375">
        <ele>1209.199951171875</ele>
        <time>2022-05-05T08:58:49.000Z</time>
      </trkpt>
      <trkpt lat="40.40534972213208675384521484375" lon="-1.4493180625140666961669921875">
        <ele>1206.800048828125</ele>
        <time>2022-05-05T08:58:51.000Z</time>
      </trkpt>
      <trkpt lat="40.40544426999986171722412109375" lon="-1.44921119324862957000732421875">
        <ele>1203.4000244140625</ele>
        <time>2022-05-05T08:58:53.000Z</time>
      </trkpt>
      <trkpt lat="40.4054998420178890228271484375" lon="-1.44916827790439128875732421875">
        <ele>1201.5999755859375</ele>
        <time>2022-05-05T08:58:54.000Z</time>
      </trkpt>
      <trkpt lat="40.4058198630809783935546875" lon="-1.44891581498086452484130859375">
        <ele>1185.5999755859375</ele>
        <time>2022-05-05T08:59:00.000Z</time>
      </trkpt>
      <trkpt lat="40.40603485889732837677001953125" lon="-1.44856964237987995147705078125">
        <ele>1172.4000244140625</ele>
        <time>2022-05-05T08:59:05.000Z</time>
      </trkpt>
      <trkpt lat="40.40616653859615325927734375" lon="-1.44848548807203769683837890625">
        <ele>1167.4000244140625</ele>
        <time>2022-05-05T08:59:07.000Z</time>
      </trkpt>
      <trkpt lat="40.4062330909073352813720703125" lon="-1.44844911061227321624755859375">
        <ele>1165</ele>
        <time>2022-05-05T08:59:08.000Z</time>
      </trkpt>
      <trkpt lat="40.40634716860949993133544921875" lon="-1.44835875369608402252197265625">
        <ele>1161.800048828125</ele>
        <time>2022-05-05T08:59:10.000Z</time>
      </trkpt>
      <trkpt lat="40.40644548833370208740234375" lon="-1.4482616074383258819580078125">
        <ele>1162.4000244140625</ele>
        <time>2022-05-05T08:59:12.000Z</time>
      </trkpt>
      <trkpt lat="40.40648630820214748382568359375" lon="-1.4482059516012668609619140625">
        <ele>1162.199951171875</ele>
        <time>2022-05-05T08:59:13.000Z</time>
      </trkpt>
      <trkpt lat="40.4066513478755950927734375" lon="-1.4479813165962696075439453125">
        <ele>1159.5999755859375</ele>
        <time>2022-05-05T08:59:17.000Z</time>
      </trkpt>
      <trkpt lat="40.406724102795124053955078125" lon="-1.447864808142185211181640625">
        <ele>1157.5999755859375</ele>
        <time>2022-05-05T08:59:19.000Z</time>
      </trkpt>
      <trkpt lat="40.40691730566322803497314453125" lon="-1.447583176195621490478515625">
        <ele>1153.4000244140625</ele>
        <time>2022-05-05T08:59:24.000Z</time>
      </trkpt>
      <trkpt lat="40.40696642361581325531005859375" lon="-1.447542943060398101806640625">
        <ele>1153.4000244140625</ele>
        <time>2022-05-05T08:59:25.000Z</time>
      </trkpt>
      <trkpt lat="40.4071824252605438232421875" lon="-1.44740472547709941864013671875">
        <ele>1154.4000244140625</ele>
        <time>2022-05-05T08:59:29.000Z</time>
      </trkpt>
      <trkpt lat="40.40748693980276584625244140625" lon="-1.44729173742234706878662109375">
        <ele>1155.5999755859375</ele>
        <time>2022-05-05T08:59:34.000Z</time>
      </trkpt>
      <trkpt lat="40.40754142217338085174560546875" lon="-1.44726390950381755828857421875">
        <ele>1155.800048828125</ele>
        <time>2022-05-05T08:59:35.000Z</time>
      </trkpt>
      <trkpt lat="40.407882817089557647705078125" lon="-1.44708671607077121734619140625">
        <ele>1157.199951171875</ele>
        <time>2022-05-05T08:59:41.000Z</time>
      </trkpt>
      <trkpt lat="40.40809638798236846923828125" lon="-1.4469268731772899627685546875">
        <ele>1160.4000244140625</ele>
        <time>2022-05-05T08:59:45.000Z</time>
      </trkpt>
      <trkpt lat="40.40819236077368259429931640625" lon="-1.44682369194924831390380859375">
        <ele>1162.4000244140625</ele>
        <time>2022-05-05T08:59:47.000Z</time>
      </trkpt>
      <trkpt lat="40.408232174813747406005859375" lon="-1.44676853902637958526611328125">
        <ele>1163</ele>
        <time>2022-05-05T08:59:48.000Z</time>
      </trkpt>
      <trkpt lat="40.40833183564245700836181640625" lon="-1.44659377634525299072265625">
        <ele>1163.5999755859375</ele>
        <time>2022-05-05T08:59:51.000Z</time>
      </trkpt>
      <trkpt lat="40.4083574004471302032470703125" lon="-1.446531750261783599853515625">
        <ele>1163.4000244140625</ele>
        <time>2022-05-05T08:59:52.000Z</time>
      </trkpt>
      <trkpt lat="40.408395789563655853271484375" lon="-1.44640275277197360992431640625">
        <ele>1164.199951171875</ele>
        <time>2022-05-05T08:59:54.000Z</time>
      </trkpt>
      <trkpt lat="40.4084097035229206085205078125" lon="-1.44627450965344905853271484375">
        <ele>1164.5999755859375</ele>
        <time>2022-05-05T08:59:56.000Z</time>
      </trkpt>
      <trkpt lat="40.40841280482709407806396484375" lon="-1.44608080387115478515625">
        <ele>1164.5999755859375</ele>
        <time>2022-05-05T08:59:59.000Z</time>
      </trkpt>
      <trkpt lat="40.4083979688584804534912109375" lon="-1.44595147110521793365478515625">
        <ele>1163.800048828125</ele>
        <time>2022-05-05T09:00:01.000Z</time>
      </trkpt>
      <trkpt lat="40.40836460888385772705078125" lon="-1.44582800567150115966796875">
        <ele>1162.4000244140625</ele>
        <time>2022-05-05T09:00:03.000Z</time>
      </trkpt>
      <trkpt lat="40.40829353034496307373046875" lon="-1.44563396461308002471923828125">
        <ele>1159.4000244140625</ele>
        <time>2022-05-05T09:00:06.000Z</time>
      </trkpt>
      <trkpt lat="40.40810845792293548583984375" lon="-1.4451934956014156341552734375">
        <ele>1155.800048828125</ele>
        <time>2022-05-05T09:00:13.000Z</time>
      </trkpt>
      <trkpt lat="40.4079815559089183807373046875" lon="-1.44484774209558963775634765625">
        <ele>1155.800048828125</ele>
        <time>2022-05-05T09:00:19.000Z</time>
      </trkpt>
      <trkpt lat="40.407932102680206298828125" lon="-1.44466795027256011962890625">
        <ele>1158.5999755859375</ele>
        <time>2022-05-05T09:00:22.000Z</time>
      </trkpt>
      <trkpt lat="40.40790352039039134979248046875" lon="-1.4445470832288265228271484375">
        <ele>1160.5999755859375</ele>
        <time>2022-05-05T09:00:24.000Z</time>
      </trkpt>
      <trkpt lat="40.4078440926969051361083984375" lon="-1.4443093724548816680908203125">
        <ele>1164.5999755859375</ele>
        <time>2022-05-05T09:00:28.000Z</time>
      </trkpt>
      <trkpt lat="40.40756002999842166900634765625" lon="-1.44234624691307544708251953125">
        <ele>1147.800048828125</ele>
        <time>2022-05-05T09:00:45.000Z</time>
      </trkpt>
      <trkpt lat="40.40750068612396717071533203125" lon="-1.4420677162706851959228515625">
        <ele>1143</ele>
        <time>2022-05-05T09:00:46.000Z</time>
      </trkpt>
      <trkpt lat="40.40752231143414974212646484375" lon="-1.44189312122762203216552734375">
        <ele>1142.800048828125</ele>
        <time>2022-05-05T09:00:48.000Z</time>
      </trkpt>
      <trkpt lat="40.4074994288384914398193359375" lon="-1.4417213760316371917724609375">
        <ele>1141.4000244140625</ele>
        <time>2022-05-05T09:00:50.000Z</time>
      </trkpt>
      <trkpt lat="40.40749280713498592376708984375" lon="-1.44155197776854038238525390625">
        <ele>1140.800048828125</ele>
        <time>2022-05-05T09:00:52.000Z</time>
      </trkpt>
      <trkpt lat="40.4074994288384914398193359375" lon="-1.441318877041339874267578125">
        <ele>1140.800048828125</ele>
        <time>2022-05-05T09:00:55.000Z</time>
      </trkpt>
      <trkpt lat="40.4075654782354831695556640625" lon="-1.4410695992410182952880859375">
        <ele>1142.800048828125</ele>
        <time>2022-05-05T09:01:00.000Z</time>
      </trkpt>
      <trkpt lat="40.407607220113277435302734375" lon="-1.44071965478360652923583984375">
        <ele>1143.199951171875</ele>
        <time>2022-05-05T09:01:07.000Z</time>
      </trkpt>
      <trkpt lat="40.4076499678194522857666015625" lon="-1.44049216993153095245361328125">
        <ele>1141.5999755859375</ele>
        <time>2022-05-05T09:01:12.000Z</time>
      </trkpt>
      <trkpt lat="40.4076885245740413665771484375" lon="-1.44035235978662967681884765625">
        <ele>1140.4000244140625</ele>
        <time>2022-05-05T09:01:15.000Z</time>
      </trkpt>
      <trkpt lat="40.40771744213998317718505859375" lon="-1.4402625896036624908447265625">
        <ele>1139.800048828125</ele>
        <time>2022-05-05T09:01:17.000Z</time>
      </trkpt>
      <trkpt lat="40.4077599383890628814697265625" lon="-1.44004382193088531494140625">
        <ele>1137.4000244140625</ele>
        <time>2022-05-05T09:01:23.000Z</time>
      </trkpt>
      <trkpt lat="40.4078058712184429168701171875" lon="-1.43994483165442943572998046875">
        <ele>1138.5999755859375</ele>
        <time>2022-05-05T09:01:26.000Z</time>
      </trkpt>
      <trkpt lat="40.40785255841910839080810546875" lon="-1.43988179974257946014404296875">
        <ele>1139.5999755859375</ele>
        <time>2022-05-05T09:01:28.000Z</time>
      </trkpt>
      <trkpt lat="40.408049114048480987548828125" lon="-1.43964190967381000518798828125">
        <ele>1139</ele>
        <time>2022-05-05T09:01:35.000Z</time>
      </trkpt>
      <trkpt lat="40.40818498469889163970947265625" lon="-1.4394488744437694549560546875">
        <ele>1136.800048828125</ele>
        <time>2022-05-05T09:01:41.000Z</time>
      </trkpt>
      <trkpt lat="40.408230163156986236572265625" lon="-1.439399421215057373046875">
        <ele>1136.4000244140625</ele>
        <time>2022-05-05T09:01:43.000Z</time>
      </trkpt>
      <trkpt lat="40.4083322547376155853271484375" lon="-1.4393258281052112579345703125">
        <ele>1136.199951171875</ele>
        <time>2022-05-05T09:01:48.000Z</time>
      </trkpt>
      <trkpt lat="40.4084120504558086395263671875" lon="-1.4392306096851825714111328125">
        <ele>1135.4000244140625</ele>
        <time>2022-05-05T09:01:54.000Z</time>
      </trkpt>
      <trkpt lat="40.40847969241440296173095703125" lon="-1.43918844871222972869873046875">
        <ele>1135.4000244140625</ele>
        <time>2022-05-05T09:02:00.000Z</time>
      </trkpt>
      <trkpt lat="40.40847701020538806915283203125" lon="-1.43923555500805377960205078125">
        <ele>1136.4000244140625</ele>
        <time>2022-05-05T09:02:18.000Z</time>
      </trkpt>
      <trkpt lat="40.408432669937610626220703125" lon="-1.43927411176264286041259765625">
        <ele>1136.5999755859375</ele>
        <time>2022-05-05T09:02:20.000Z</time>
      </trkpt>
      <trkpt lat="40.408255644142627716064453125" lon="-1.43940051086246967315673828125">
        <ele>1136.800048828125</ele>
        <time>2022-05-05T09:02:25.000Z</time>
      </trkpt>
      <trkpt lat="40.40808297693729400634765625" lon="-1.4395072124898433685302734375">
        <ele>1136.5999755859375</ele>
        <time>2022-05-05T09:02:29.000Z</time>
      </trkpt>
      <trkpt lat="40.4080429114401340484619140625" lon="-1.4395501278340816497802734375">
        <ele>1137</ele>
        <time>2022-05-05T09:02:30.000Z</time>
      </trkpt>
      <trkpt lat="40.40781131945550441741943359375" lon="-1.439823545515537261962890625">
        <ele>1139.199951171875</ele>
        <time>2022-05-05T09:02:36.000Z</time>
      </trkpt>
      <trkpt lat="40.407708473503589630126953125" lon="-1.44008346833288669586181640625">
        <ele>1136.4000244140625</ele>
        <time>2022-05-05T09:02:40.000Z</time>
      </trkpt>
      <trkpt lat="40.4076330363750457763671875" lon="-1.44044347107410430908203125">
        <ele>1140</ele>
        <time>2022-05-05T09:02:45.000Z</time>
      </trkpt>
      <trkpt lat="40.40761300362646579742431640625" lon="-1.4405868016183376312255859375">
        <ele>1142</ele>
        <time>2022-05-05T09:02:48.000Z</time>
      </trkpt>
      <trkpt lat="40.4076311923563480377197265625" lon="-1.44061513245105743408203125">
        <ele>1143.199951171875</ele>
        <time>2022-05-05T09:02:49.000Z</time>
      </trkpt>
      <trkpt lat="40.40766413323581218719482421875" lon="-1.44066081382334232330322265625">
        <ele>1145.4000244140625</ele>
        <time>2022-05-05T09:02:51.000Z</time>
      </trkpt>
      <trkpt lat="40.407668240368366241455078125" lon="-1.4407373405992984771728515625">
        <ele>1145.800048828125</ele>
        <time>2022-05-05T09:02:53.000Z</time>
      </trkpt>
      <trkpt lat="40.4076855070888996124267578125" lon="-1.4408768154680728912353515625">
        <ele>1147</ele>
        <time>2022-05-05T09:02:57.000Z</time>
      </trkpt>
      <trkpt lat="40.407685339450836181640625" lon="-1.440906822681427001953125">
        <ele>1147</ele>
        <time>2022-05-05T09:02:59.000Z</time>
      </trkpt>
      <trkpt lat="40.40768802165985107421875" lon="-1.440922915935516357421875">
        <ele>1147.199951171875</ele>
        <time>2022-05-05T09:03:00.000Z</time>
      </trkpt>
      <trkpt lat="40.4076761193573474884033203125" lon="-1.44080766476690769195556640625">
        <ele>1146.4000244140625</ele>
        <time>2022-05-05T09:43:38.000Z</time>
      </trkpt>
      <trkpt lat="40.40768056176602840423583984375" lon="-1.44078251905739307403564453125">
        <ele>1146.4000244140625</ele>
        <time>2022-05-05T09:43:39.000Z</time>
      </trkpt>
      <trkpt lat="40.40768274106085300445556640625" lon="-1.44072317518293857574462890625">
        <ele>1146.199951171875</ele>
        <time>2022-05-05T09:43:43.000Z</time>
      </trkpt>
      <trkpt lat="40.40764250792562961578369140625" lon="-1.44064019434154033660888671875">
        <ele>1144.199951171875</ele>
        <time>2022-05-05T09:44:18.000Z</time>
      </trkpt>
      <trkpt lat="40.40766865946352481842041015625" lon="-1.440443806350231170654296875">
        <ele>1141.4000244140625</ele>
        <time>2022-05-05T09:44:24.000Z</time>
      </trkpt>
      <trkpt lat="40.407713837921619415283203125" lon="-1.440268121659755706787109375">
        <ele>1139.800048828125</ele>
        <time>2022-05-05T09:44:29.000Z</time>
      </trkpt>
      <trkpt lat="40.4077777080237865447998046875" lon="-1.440081037580966949462890625">
        <ele>1138.800048828125</ele>
        <time>2022-05-05T09:44:35.000Z</time>
      </trkpt>
      <trkpt lat="40.407888181507587432861328125" lon="-1.43987827934324741363525390625">
        <ele>1140.199951171875</ele>
        <time>2022-05-05T09:44:42.000Z</time>
      </trkpt>
      <trkpt lat="40.40803578682243824005126953125" lon="-1.4397124014794826507568359375">
        <ele>1140.4000244140625</ele>
        <time>2022-05-05T09:44:49.000Z</time>
      </trkpt>
      <trkpt lat="40.40809907019138336181640625" lon="-1.4396205358207225799560546875">
        <ele>1139.199951171875</ele>
        <time>2022-05-05T09:44:53.000Z</time>
      </trkpt>
      <trkpt lat="40.40809647180140018463134765625" lon="-1.439571082592010498046875">
        <ele>1138.199951171875</ele>
        <time>2022-05-05T09:44:55.000Z</time>
      </trkpt>
      <trkpt lat="40.40801717899739742279052734375" lon="-1.43947745673358440399169921875">
        <ele>1135</ele>
        <time>2022-05-05T09:44:58.000Z</time>
      </trkpt>
      <trkpt lat="40.407898910343647003173828125" lon="-1.43936044536530971527099609375">
        <ele>1130.5999755859375</ele>
        <time>2022-05-05T09:45:01.000Z</time>
      </trkpt>
      <trkpt lat="40.4078682325780391693115234375" lon="-1.43931954167783260345458984375">
        <ele>1129.4000244140625</ele>
        <time>2022-05-05T09:45:02.000Z</time>
      </trkpt>
      <trkpt lat="40.4078414104878902435302734375" lon="-1.43927310593426227569580078125">
        <ele>1127.800048828125</ele>
        <time>2022-05-05T09:45:03.000Z</time>
      </trkpt>
      <trkpt lat="40.40780595503747463226318359375" lon="-1.43905919976532459259033203125">
        <ele>1127</ele>
        <time>2022-05-05T09:45:07.000Z</time>
      </trkpt>
      <trkpt lat="40.4078052006661891937255859375" lon="-1.4389473013579845428466796875">
        <ele>1128</ele>
        <time>2022-05-05T09:45:09.000Z</time>
      </trkpt>
      <trkpt lat="40.4078253172338008880615234375" lon="-1.43872425891458988189697265625">
        <ele>1125.199951171875</ele>
        <time>2022-05-05T09:45:13.000Z</time>
      </trkpt>
      <trkpt lat="40.40791676379740238189697265625" lon="-1.43842737190425395965576171875">
        <ele>1120.199951171875</ele>
        <time>2022-05-05T09:45:19.000Z</time>
      </trkpt>
      <trkpt lat="40.40803444571793079376220703125" lon="-1.43813786096870899200439453125">
        <ele>1116.199951171875</ele>
        <time>2022-05-05T09:45:25.000Z</time>
      </trkpt>
      <trkpt lat="40.4081562347710132598876953125" lon="-1.437844075262546539306640625">
        <ele>1117</ele>
        <time>2022-05-05T09:45:31.000Z</time>
      </trkpt>
      <trkpt lat="40.4083168320357799530029296875" lon="-1.437500081956386566162109375">
        <ele>1118.4000244140625</ele>
        <time>2022-05-05T09:45:38.000Z</time>
      </trkpt>
      <trkpt lat="40.40835547260940074920654296875" lon="-1.43739773891866207122802734375">
        <ele>1118.800048828125</ele>
        <time>2022-05-05T09:45:40.000Z</time>
      </trkpt>
      <trkpt lat="40.4083852283656597137451171875" lon="-1.4373161830008029937744140625">
        <ele>1119</ele>
        <time>2022-05-05T09:45:42.000Z</time>
      </trkpt>
      <trkpt lat="40.40843795053660869598388671875" lon="-1.4371787197887897491455078125">
        <ele>1119</ele>
        <time>2022-05-05T09:45:46.000Z</time>
      </trkpt>
      <trkpt lat="40.40844700299203395843505859375" lon="-1.437146365642547607421875">
        <ele>1119</ele>
        <time>2022-05-05T09:45:47.000Z</time>
      </trkpt>
      <trkpt lat="40.4084967076778411865234375" lon="-1.43695467151701450347900390625">
        <ele>1119</ele>
        <time>2022-05-05T09:45:52.000Z</time>
      </trkpt>
      <trkpt lat="40.40855529718101024627685546875" lon="-1.43683254718780517578125">
        <ele>1118.800048828125</ele>
        <time>2022-05-05T09:45:55.000Z</time>
      </trkpt>
      <trkpt lat="40.408592931926250457763671875" lon="-1.4367619715631008148193359375">
        <ele>1118.800048828125</ele>
        <time>2022-05-05T09:45:57.000Z</time>
      </trkpt>
      <trkpt lat="40.40863526053726673126220703125" lon="-1.43659860827028751373291015625">
        <ele>1119</ele>
        <time>2022-05-05T09:46:02.000Z</time>
      </trkpt>
      <trkpt lat="40.4087764956057071685791015625" lon="-1.4363455586135387420654296875">
        <ele>1119.199951171875</ele>
        <time>2022-05-05T09:46:10.000Z</time>
      </trkpt>
      <trkpt lat="40.40890968404710292816162109375" lon="-1.43611916340887546539306640625">
        <ele>1119.800048828125</ele>
        <time>2022-05-05T09:46:16.000Z</time>
      </trkpt>
      <trkpt lat="40.40908746421337127685546875" lon="-1.43581070937216281890869140625">
        <ele>1120.800048828125</ele>
        <time>2022-05-05T09:46:25.000Z</time>
      </trkpt>
      <trkpt lat="40.40925853885710239410400390625" lon="-1.43555916845798492431640625">
        <ele>1121.4000244140625</ele>
        <time>2022-05-05T09:46:33.000Z</time>
      </trkpt>
      <trkpt lat="40.40941335260868072509765625" lon="-1.43541164696216583251953125">
        <ele>1121.4000244140625</ele>
        <time>2022-05-05T09:46:39.000Z</time>
      </trkpt>
      <trkpt lat="40.409484766423702239990234375" lon="-1.43534459173679351806640625">
        <ele>1121.199951171875</ele>
        <time>2022-05-05T09:46:41.000Z</time>
      </trkpt>
      <trkpt lat="40.409598089754581451416015625" lon="-1.43522322177886962890625">
        <ele>1121.4000244140625</ele>
        <time>2022-05-05T09:46:44.000Z</time>
      </trkpt>
      <trkpt lat="40.40978475473821163177490234375" lon="-1.4349528215825557708740234375">
        <ele>1121.800048828125</ele>
        <time>2022-05-05T09:46:50.000Z</time>
      </trkpt>
      <trkpt lat="40.40980235673487186431884765625" lon="-1.4348978362977504730224609375">
        <ele>1122</ele>
        <time>2022-05-05T09:46:51.000Z</time>
      </trkpt>
      <trkpt lat="40.40988382883369922637939453125" lon="-1.43458225764334201812744140625">
        <ele>1121.800048828125</ele>
        <time>2022-05-05T09:46:58.000Z</time>
      </trkpt>
      <trkpt lat="40.409933030605316162109375" lon="-1.43437656573951244354248046875">
        <ele>1121.5999755859375</ele>
        <time>2022-05-05T09:47:04.000Z</time>
      </trkpt>
      <trkpt lat="40.4099285043776035308837890625" lon="-1.434176154434680938720703125">
        <ele>1121.5999755859375</ele>
        <time>2022-05-05T09:47:10.000Z</time>
      </trkpt>
      <trkpt lat="40.40991199202835559844970703125" lon="-1.43410742282867431640625">
        <ele>1121.800048828125</ele>
        <time>2022-05-05T09:47:12.000Z</time>
      </trkpt>
      <trkpt lat="40.40986706502735614776611328125" lon="-1.43397666513919830322265625">
        <ele>1122</ele>
        <time>2022-05-05T09:47:16.000Z</time>
      </trkpt>
      <trkpt lat="40.4097390733659267425537109375" lon="-1.43376854248344898223876953125">
        <ele>1122.199951171875</ele>
        <time>2022-05-05T09:47:23.000Z</time>
      </trkpt>
      <trkpt lat="40.4096133448183536529541015625" lon="-1.433626301586627960205078125">
        <ele>1122.5999755859375</ele>
        <time>2022-05-05T09:47:28.000Z</time>
      </trkpt>
      <trkpt lat="40.4095469601452350616455078125" lon="-1.43354977481067180633544921875">
        <ele>1123.4000244140625</ele>
        <time>2022-05-05T09:47:31.000Z</time>
      </trkpt>
      <trkpt lat="40.4094939865171909332275390625" lon="-1.43347777426242828369140625">
        <ele>1124</ele>
        <time>2022-05-05T09:47:34.000Z</time>
      </trkpt>
      <trkpt lat="40.40933917276561260223388671875" lon="-1.4332918636500835418701171875">
        <ele>1125.5999755859375</ele>
        <time>2022-05-05T09:47:40.000Z</time>
      </trkpt>
      <trkpt lat="40.40925233624875545501708984375" lon="-1.43319471739232540130615234375">
        <ele>1126.4000244140625</ele>
        <time>2022-05-05T09:47:43.000Z</time>
      </trkpt>
      <trkpt lat="40.40915795601904392242431640625" lon="-1.4330642111599445343017578125">
        <ele>1127.5999755859375</ele>
        <time>2022-05-05T09:47:47.000Z</time>
      </trkpt>
      <trkpt lat="40.409039519727230072021484375" lon="-1.4329133369028568267822265625">
        <ele>1129.199951171875</ele>
        <time>2022-05-05T09:47:52.000Z</time>
      </trkpt>
      <trkpt lat="40.4090209119021892547607421875" lon="-1.4328761212527751922607421875">
        <ele>1129</ele>
        <time>2022-05-05T09:47:53.000Z</time>
      </trkpt>
      <trkpt lat="40.40893189609050750732421875" lon="-1.432715691626071929931640625">
        <ele>1128.199951171875</ele>
        <time>2022-05-05T09:47:58.000Z</time>
      </trkpt>
      <trkpt lat="40.40890482254326343536376953125" lon="-1.4326494745910167694091796875">
        <ele>1128</ele>
        <time>2022-05-05T09:48:00.000Z</time>
      </trkpt>
      <trkpt lat="40.40886157192289829254150390625" lon="-1.4325472153723239898681640625">
        <ele>1127.4000244140625</ele>
        <time>2022-05-05T09:48:03.000Z</time>
      </trkpt>
      <trkpt lat="40.408794768154621124267578125" lon="-1.432397849857807159423828125">
        <ele>1127.199951171875</ele>
        <time>2022-05-05T09:48:08.000Z</time>
      </trkpt>
      <trkpt lat="40.4087728075683116912841796875" lon="-1.43234319984912872314453125">
        <ele>1127.5999755859375</ele>
        <time>2022-05-05T09:48:10.000Z</time>
      </trkpt>
      <trkpt lat="40.40871857665479183197021484375" lon="-1.43222761340439319610595703125">
        <ele>1129.4000244140625</ele>
        <time>2022-05-05T09:48:14.000Z</time>
      </trkpt>
      <trkpt lat="40.4086842946708202362060546875" lon="-1.432161144912242889404296875">
        <ele>1130.5999755859375</ele>
        <time>2022-05-05T09:48:16.000Z</time>
      </trkpt>
      <trkpt lat="40.40861816145479679107666015625" lon="-1.43199451267719268798828125">
        <ele>1133</ele>
        <time>2022-05-05T09:48:21.000Z</time>
      </trkpt>
      <trkpt lat="40.40857373736798763275146484375" lon="-1.4319078437983989715576171875">
        <ele>1134.5999755859375</ele>
        <time>2022-05-05T09:48:24.000Z</time>
      </trkpt>
      <trkpt lat="40.40852294303476810455322265625" lon="-1.4317898266017436981201171875">
        <ele>1136.4000244140625</ele>
        <time>2022-05-05T09:48:28.000Z</time>
      </trkpt>
      <trkpt lat="40.40849125944077968597412109375" lon="-1.431712210178375244140625">
        <ele>1136.5999755859375</ele>
        <time>2022-05-05T09:48:31.000Z</time>
      </trkpt>
      <trkpt lat="40.40846711955964565277099609375" lon="-1.4316355995833873748779296875">
        <ele>1136.5999755859375</ele>
        <time>2022-05-05T09:48:34.000Z</time>
      </trkpt>
      <trkpt lat="40.408442057669162750244140625" lon="-1.43154792487621307373046875">
        <ele>1136.5999755859375</ele>
        <time>2022-05-05T09:48:37.000Z</time>
      </trkpt>
      <trkpt lat="40.40841314010322093963623046875" lon="-1.43146234564483165740966796875">
        <ele>1136.800048828125</ele>
        <time>2022-05-05T09:48:40.000Z</time>
      </trkpt>
      <trkpt lat="40.408402495086193084716796875" lon="-1.4313970506191253662109375">
        <ele>1137</ele>
        <time>2022-05-05T09:48:42.000Z</time>
      </trkpt>
      <trkpt lat="40.4083921015262603759765625" lon="-1.43127291463315486907958984375">
        <ele>1137.4000244140625</ele>
        <time>2022-05-05T09:48:46.000Z</time>
      </trkpt>
      <trkpt lat="40.40838782675564289093017578125" lon="-1.431197561323642730712890625">
        <ele>1137.5999755859375</ele>
        <time>2022-05-05T09:48:49.000Z</time>
      </trkpt>
      <trkpt lat="40.4083728231489658355712890625" lon="-1.43111734651029109954833984375">
        <ele>1138</ele>
        <time>2022-05-05T09:48:52.000Z</time>
      </trkpt>
      <trkpt lat="40.40837257169187068939208984375" lon="-1.43106244504451751708984375">
        <ele>1138</ele>
        <time>2022-05-05T09:48:54.000Z</time>
      </trkpt>
      <trkpt lat="40.40836335159838199615478515625" lon="-1.4309370517730712890625">
        <ele>1137.800048828125</ele>
        <time>2022-05-05T09:48:59.000Z</time>
      </trkpt>
      <trkpt lat="40.408361256122589111328125" lon="-1.43091492354869842529296875">
        <ele>1137.800048828125</ele>
        <time>2022-05-05T09:49:00.000Z</time>
      </trkpt>
      <trkpt lat="40.4083382897078990936279296875" lon="-1.43077075481414794921875">
        <ele>1138</ele>
        <time>2022-05-05T09:49:06.000Z</time>
      </trkpt>
      <trkpt lat="40.40827701799571514129638671875" lon="-1.43063639290630817413330078125">
        <ele>1138.800048828125</ele>
        <time>2022-05-05T09:49:12.000Z</time>
      </trkpt>
      <trkpt lat="40.40826670825481414794921875" lon="-1.4306192100048065185546875">
        <ele>1139</ele>
        <time>2022-05-05T09:49:13.000Z</time>
      </trkpt>
      <trkpt lat="40.4082185961306095123291015625" lon="-1.43054637126624584197998046875">
        <ele>1140</ele>
        <time>2022-05-05T09:49:17.000Z</time>
      </trkpt>
      <trkpt lat="40.40818783454596996307373046875" lon="-1.43052491359412670135498046875">
        <ele>1140.5999755859375</ele>
        <time>2022-05-05T09:49:19.000Z</time>
      </trkpt>
      <trkpt lat="40.40812195278704166412353515625" lon="-1.430451907217502593994140625">
        <ele>1142.199951171875</ele>
        <time>2022-05-05T09:49:24.000Z</time>
      </trkpt>
      <trkpt lat="40.408108122646808624267578125" lon="-1.4304383285343647003173828125">
        <ele>1142.5999755859375</ele>
        <time>2022-05-05T09:49:25.000Z</time>
      </trkpt>
      <trkpt lat="40.4080308414995670318603515625" lon="-1.43034487031400203704833984375">
        <ele>1144.5999755859375</ele>
        <time>2022-05-05T09:49:31.000Z</time>
      </trkpt>
      <trkpt lat="40.40800879709422588348388671875" lon="-1.430307738482952117919921875">
        <ele>1145.199951171875</ele>
        <time>2022-05-05T09:49:33.000Z</time>
      </trkpt>
      <trkpt lat="40.40795230306684970855712890625" lon="-1.43023154698312282562255859375">
        <ele>1146.800048828125</ele>
        <time>2022-05-05T09:49:37.000Z</time>
      </trkpt>
      <trkpt lat="40.40791039355099201202392578125" lon="-1.43018360249698162078857421875">
        <ele>1148</ele>
        <time>2022-05-05T09:49:40.000Z</time>
      </trkpt>
      <trkpt lat="40.40784769691526889801025390625" lon="-1.43014923669397830963134765625">
        <ele>1149.5999755859375</ele>
        <time>2022-05-05T09:49:44.000Z</time>
      </trkpt>
      <trkpt lat="40.40782992728054523468017578125" lon="-1.43014001660048961639404296875">
        <ele>1150</ele>
        <time>2022-05-05T09:49:45.000Z</time>
      </trkpt>
      <trkpt lat="40.4077311046421527862548828125" lon="-1.4301137812435626983642578125">
        <ele>1152.4000244140625</ele>
        <time>2022-05-05T09:49:51.000Z</time>
      </trkpt>
      <trkpt lat="40.40769673883914947509765625" lon="-1.430098526179790496826171875">
        <ele>1153.199951171875</ele>
        <time>2022-05-05T09:49:53.000Z</time>
      </trkpt>
      <trkpt lat="40.40761400945484638214111328125" lon="-1.43007027916610240936279296875">
        <ele>1153.800048828125</ele>
        <time>2022-05-05T09:49:58.000Z</time>
      </trkpt>
      <trkpt lat="40.4075968265533447265625" lon="-1.43006156198680400848388671875">
        <ele>1154</ele>
        <time>2022-05-05T09:49:59.000Z</time>
      </trkpt>
      <trkpt lat="40.4074984230101108551025390625" lon="-1.430012695491313934326171875">
        <ele>1154.5999755859375</ele>
        <time>2022-05-05T09:50:05.000Z</time>
      </trkpt>
      <trkpt lat="40.40748216211795806884765625" lon="-1.43000565469264984130859375">
        <ele>1154.800048828125</ele>
        <time>2022-05-05T09:50:06.000Z</time>
      </trkpt>
      <trkpt lat="40.40740144439041614532470703125" lon="-1.429955027997493743896484375">
        <ele>1155.199951171875</ele>
        <time>2022-05-05T09:50:11.000Z</time>
      </trkpt>
      <trkpt lat="40.40738384239375591278076171875" lon="-1.4299488253891468048095703125">
        <ele>1155.4000244140625</ele>
        <time>2022-05-05T09:50:12.000Z</time>
      </trkpt>
      <trkpt lat="40.40730304084718227386474609375" lon="-1.42989057116210460662841796875">
        <ele>1155.800048828125</ele>
        <time>2022-05-05T09:50:17.000Z</time>
      </trkpt>
      <trkpt lat="40.40727102197706699371337890625" lon="-1.42986794002354145050048828125">
        <ele>1156</ele>
        <time>2022-05-05T09:50:19.000Z</time>
      </trkpt>
      <trkpt lat="40.407189466059207916259765625" lon="-1.4298053272068500518798828125">
        <ele>1156.5999755859375</ele>
        <time>2022-05-05T09:50:24.000Z</time>
      </trkpt>
      <trkpt lat="40.40711067616939544677734375" lon="-1.4297506771981716156005859375">
        <ele>1157</ele>
        <time>2022-05-05T09:50:29.000Z</time>
      </trkpt>
      <trkpt lat="40.40702912025153636932373046875" lon="-1.4296852983534336090087890625">
        <ele>1157.199951171875</ele>
        <time>2022-05-05T09:50:34.000Z</time>
      </trkpt>
      <trkpt lat="40.40698234923183917999267578125" lon="-1.42964950762689113616943359375">
        <ele>1157.4000244140625</ele>
        <time>2022-05-05T09:50:37.000Z</time>
      </trkpt>
      <trkpt lat="40.40686030872166156768798828125" lon="-1.42955110408365726470947265625">
        <ele>1157.800048828125</ele>
        <time>2022-05-05T09:50:44.000Z</time>
      </trkpt>
      <trkpt lat="40.40665813721716403961181640625" lon="-1.42939469777047634124755859375">
        <ele>1158</ele>
        <time>2022-05-05T09:50:54.000Z</time>
      </trkpt>
      <trkpt lat="40.40652100928127765655517578125" lon="-1.42928682267665863037109375">
        <ele>1157.5999755859375</ele>
        <time>2022-05-05T09:51:00.000Z</time>
      </trkpt>
      <trkpt lat="40.40644674561917781829833984375" lon="-1.42923208884894847869873046875">
        <ele>1157.4000244140625</ele>
        <time>2022-05-05T09:51:03.000Z</time>
      </trkpt>
      <trkpt lat="40.4062679596245288848876953125" lon="-1.42910149879753589630126953125">
        <ele>1156.800048828125</ele>
        <time>2022-05-05T09:51:11.000Z</time>
      </trkpt>
      <trkpt lat="40.40607928298413753509521484375" lon="-1.4289537258446216583251953125">
        <ele>1157.199951171875</ele>
        <time>2022-05-05T09:51:20.000Z</time>
      </trkpt>
      <trkpt lat="40.4060587473213672637939453125" lon="-1.42893679440021514892578125">
        <ele>1157.199951171875</ele>
        <time>2022-05-05T09:51:21.000Z</time>
      </trkpt>
      <trkpt lat="40.40592337958514690399169921875" lon="-1.42882606945931911468505859375">
        <ele>1157.800048828125</ele>
        <time>2022-05-05T09:51:28.000Z</time>
      </trkpt>
      <trkpt lat="40.40576823055744171142578125" lon="-1.428708136081695556640625">
        <ele>1158.4000244140625</ele>
        <time>2022-05-05T09:51:36.000Z</time>
      </trkpt>
      <trkpt lat="40.40561827830970287322998046875" lon="-1.42858198843896389007568359375">
        <ele>1158.5999755859375</ele>
        <time>2022-05-05T09:51:44.000Z</time>
      </trkpt>
      <trkpt lat="40.4054770432412624359130859375" lon="-1.4284591935575008392333984375">
        <ele>1158.800048828125</ele>
        <time>2022-05-05T09:51:52.000Z</time>
      </trkpt>
      <trkpt lat="40.4054609499871730804443359375" lon="-1.42844066955149173736572265625">
        <ele>1159</ele>
        <time>2022-05-05T09:51:53.000Z</time>
      </trkpt>
      <trkpt lat="40.40533731691539287567138671875" lon="-1.42831946723163127899169921875">
        <ele>1159.800048828125</ele>
        <time>2022-05-05T09:52:00.000Z</time>
      </trkpt>
      <trkpt lat="40.405321307480335235595703125" lon="-1.42830152995884418487548828125">
        <ele>1160</ele>
        <time>2022-05-05T09:52:01.000Z</time>
      </trkpt>
      <trkpt lat="40.4052014462649822235107421875" lon="-1.42817110754549503326416015625">
        <ele>1160.800048828125</ele>
        <time>2022-05-05T09:52:08.000Z</time>
      </trkpt>
      <trkpt lat="40.4050686769187450408935546875" lon="-1.42802509479224681854248046875">
        <ele>1161.5999755859375</ele>
        <time>2022-05-05T09:52:16.000Z</time>
      </trkpt>
      <trkpt lat="40.4050341434776782989501953125" lon="-1.42798469401895999908447265625">
        <ele>1161.800048828125</ele>
        <time>2022-05-05T09:52:18.000Z</time>
      </trkpt>
      <trkpt lat="40.40492945350706577301025390625" lon="-1.42786567099392414093017578125">
        <ele>1162.199951171875</ele>
        <time>2022-05-05T09:52:24.000Z</time>
      </trkpt>
      <trkpt lat="40.40491419844329357147216796875" lon="-1.42784647643566131591796875">
        <ele>1162.4000244140625</ele>
        <time>2022-05-05T09:52:25.000Z</time>
      </trkpt>
      <trkpt lat="40.40479718707501888275146484375" lon="-1.4277121983468532562255859375">
        <ele>1162.5999755859375</ele>
        <time>2022-05-05T09:52:32.000Z</time>
      </trkpt>
      <trkpt lat="40.40476365946233272552490234375" lon="-1.42767339013516902923583984375">
        <ele>1162.800048828125</ele>
        <time>2022-05-05T09:52:34.000Z</time>
      </trkpt>
      <trkpt lat="40.40465938858687877655029296875" lon="-1.42756744287908077239990234375">
        <ele>1163.199951171875</ele>
        <time>2022-05-05T09:52:40.000Z</time>
      </trkpt>
      <trkpt lat="40.40460691787302494049072265625" lon="-1.4275117032229900360107421875">
        <ele>1163.4000244140625</ele>
        <time>2022-05-05T09:52:43.000Z</time>
      </trkpt>
      <trkpt lat="40.404494516551494598388671875" lon="-1.42743718810379505157470703125">
        <ele>1164.4000244140625</ele>
        <time>2022-05-05T09:52:49.000Z</time>
      </trkpt>
      <trkpt lat="40.40445520542562007904052734375" lon="-1.42742042429745197296142578125">
        <ele>1164.5999755859375</ele>
        <time>2022-05-05T09:52:51.000Z</time>
      </trkpt>
      <trkpt lat="40.40435076691210269927978515625" lon="-1.42738488502800464630126953125">
        <ele>1165.4000244140625</ele>
        <time>2022-05-05T09:52:56.000Z</time>
      </trkpt>
      <trkpt lat="40.4043300636112689971923828125" lon="-1.42738019116222858428955078125">
        <ele>1165.5999755859375</ele>
        <time>2022-05-05T09:52:57.000Z</time>
      </trkpt>
      <trkpt lat="40.404163934290409088134765625" lon="-1.42735186032950878143310546875">
        <ele>1167</ele>
        <time>2022-05-05T09:53:05.000Z</time>
      </trkpt>
      <trkpt lat="40.40414071641862392425537109375" lon="-1.42735001631081104278564453125">
        <ele>1167.199951171875</ele>
        <time>2022-05-05T09:53:06.000Z</time>
      </trkpt>
      <trkpt lat="40.40395765565335750579833984375" lon="-1.42730307765305042266845703125">
        <ele>1168.4000244140625</ele>
        <time>2022-05-05T09:53:14.000Z</time>
      </trkpt>
      <trkpt lat="40.403938628733158111572265625" lon="-1.4272981323301792144775390625">
        <ele>1168.5999755859375</ele>
        <time>2022-05-05T09:53:15.000Z</time>
      </trkpt>
      <trkpt lat="40.4038113914430141448974609375" lon="-1.42723887227475643157958984375">
        <ele>1169</ele>
        <time>2022-05-05T09:53:21.000Z</time>
      </trkpt>
      <trkpt lat="40.4036393947899341583251953125" lon="-1.42714348621666431427001953125">
        <ele>1170.199951171875</ele>
        <time>2022-05-05T09:53:29.000Z</time>
      </trkpt>
      <trkpt lat="40.403556413948535919189453125" lon="-1.42709420062601566314697265625">
        <ele>1170.800048828125</ele>
        <time>2022-05-05T09:53:33.000Z</time>
      </trkpt>
      <trkpt lat="40.40345792658627033233642578125" lon="-1.427030079066753387451171875">
        <ele>1171.4000244140625</ele>
        <time>2022-05-05T09:53:38.000Z</time>
      </trkpt>
      <trkpt lat="40.40338198654353618621826171875" lon="-1.4269888401031494140625">
        <ele>1171.800048828125</ele>
        <time>2022-05-05T09:53:42.000Z</time>
      </trkpt>
      <trkpt lat="40.40328316390514373779296875" lon="-1.42693578265607357025146484375">
        <ele>1172.5999755859375</ele>
        <time>2022-05-05T09:53:47.000Z</time>
      </trkpt>
      <trkpt lat="40.40322147309780120849609375" lon="-1.42689806409180164337158203125">
        <ele>1172.800048828125</ele>
        <time>2022-05-05T09:53:50.000Z</time>
      </trkpt>
      <trkpt lat="40.403098762035369873046875" lon="-1.42683872021734714508056640625">
        <ele>1173.5999755859375</ele>
        <time>2022-05-05T09:53:56.000Z</time>
      </trkpt>
      <trkpt lat="40.4030392505228519439697265625" lon="-1.42681273631751537322998046875">
        <ele>1174</ele>
        <time>2022-05-05T09:53:59.000Z</time>
      </trkpt>
      <trkpt lat="40.4029561020433902740478515625" lon="-1.42678256146609783172607421875">
        <ele>1174.5999755859375</ele>
        <time>2022-05-05T09:54:03.000Z</time>
      </trkpt>
      <trkpt lat="40.40289600379765033721923828125" lon="-1.42677091062068939208984375">
        <ele>1175</ele>
        <time>2022-05-05T09:54:06.000Z</time>
      </trkpt>
      <trkpt lat="40.40279491804540157318115234375" lon="-1.42675959505140781402587890625">
        <ele>1175.800048828125</ele>
        <time>2022-05-05T09:54:11.000Z</time>
      </trkpt>
      <trkpt lat="40.40275342762470245361328125" lon="-1.42675993032753467559814453125">
        <ele>1176.199951171875</ele>
        <time>2022-05-05T09:54:13.000Z</time>
      </trkpt>
      <trkpt lat="40.40262870490550994873046875" lon="-1.426760852336883544921875">
        <ele>1177.5999755859375</ele>
        <time>2022-05-05T09:54:19.000Z</time>
      </trkpt>
      <trkpt lat="40.40259023196995258331298828125" lon="-1.42676294781267642974853515625">
        <ele>1178.199951171875</ele>
        <time>2022-05-05T09:54:21.000Z</time>
      </trkpt>
      <trkpt lat="40.40247372351586818695068359375" lon="-1.42676420509815216064453125">
        <ele>1179.800048828125</ele>
        <time>2022-05-05T09:54:27.000Z</time>
      </trkpt>
      <trkpt lat="40.40245478041470050811767578125" lon="-1.42676420509815216064453125">
        <ele>1180</ele>
        <time>2022-05-05T09:54:28.000Z</time>
      </trkpt>
      <trkpt lat="40.40229636244475841522216796875" lon="-1.4267600141465663909912109375">
        <ele>1182</ele>
        <time>2022-05-05T09:54:36.000Z</time>
      </trkpt>
      <trkpt lat="40.40213786065578460693359375" lon="-1.42671785317361354827880859375">
        <ele>1183.5999755859375</ele>
        <time>2022-05-05T09:54:44.000Z</time>
      </trkpt>
      <trkpt lat="40.40211799554526805877685546875" lon="-1.4267117343842983245849609375">
        <ele>1183.800048828125</ele>
        <time>2022-05-05T09:54:45.000Z</time>
      </trkpt>
      <trkpt lat="40.4020203463733196258544921875" lon="-1.42666487954556941986083984375">
        <ele>1184.5999755859375</ele>
        <time>2022-05-05T09:54:50.000Z</time>
      </trkpt>
      <trkpt lat="40.40194717235863208770751953125" lon="-1.42661911435425281524658203125">
        <ele>1185</ele>
        <time>2022-05-05T09:54:54.000Z</time>
      </trkpt>
      <trkpt lat="40.40189822204411029815673828125" lon="-1.4265772886574268341064453125">
        <ele>1185</ele>
        <time>2022-05-05T09:54:57.000Z</time>
      </trkpt>
      <trkpt lat="40.4018260538578033447265625" lon="-1.42651467584073543548583984375">
        <ele>1184.800048828125</ele>
        <time>2022-05-05T09:55:02.000Z</time>
      </trkpt>
      <trkpt lat="40.40177551098167896270751953125" lon="-1.42647896893322467803955078125">
        <ele>1185</ele>
        <time>2022-05-05T09:55:05.000Z</time>
      </trkpt>
      <trkpt lat="40.40170870721340179443359375" lon="-1.4264170266687870025634765625">
        <ele>1186</ele>
        <time>2022-05-05T09:55:09.000Z</time>
      </trkpt>
      <trkpt lat="40.40166176855564117431640625" lon="-1.42636799253523349761962890625">
        <ele>1186.5999755859375</ele>
        <time>2022-05-05T09:55:12.000Z</time>
      </trkpt>
      <trkpt lat="40.4015824757516384124755859375" lon="-1.42629079520702362060546875">
        <ele>1187.5999755859375</ele>
        <time>2022-05-05T09:55:17.000Z</time>
      </trkpt>
      <trkpt lat="40.40156713686883449554443359375" lon="-1.42627445049583911895751953125">
        <ele>1187.800048828125</ele>
        <time>2022-05-05T09:55:18.000Z</time>
      </trkpt>
      <trkpt lat="40.4014869220554828643798828125" lon="-1.42616950906813144683837890625">
        <ele>1188.4000244140625</ele>
        <time>2022-05-05T09:55:24.000Z</time>
      </trkpt>
      <trkpt lat="40.401448197662830352783203125" lon="-1.42611636780202388763427734375">
        <ele>1188.5999755859375</ele>
        <time>2022-05-05T09:55:27.000Z</time>
      </trkpt>
      <trkpt lat="40.40140134282410144805908203125" lon="-1.4260458759963512420654296875">
        <ele>1188.800048828125</ele>
        <time>2022-05-05T09:55:31.000Z</time>
      </trkpt>
      <trkpt lat="40.4013296775519847869873046875" lon="-1.42593297176063060760498046875">
        <ele>1189.199951171875</ele>
        <time>2022-05-05T09:55:37.000Z</time>
      </trkpt>
      <trkpt lat="40.40129908360540866851806640625" lon="-1.42587748356163501739501953125">
        <ele>1189.5999755859375</ele>
        <time>2022-05-05T09:55:40.000Z</time>
      </trkpt>
      <trkpt lat="40.401248373091220855712890625" lon="-1.4257823489606380462646484375">
        <ele>1190.4000244140625</ele>
        <time>2022-05-05T09:55:45.000Z</time>
      </trkpt>
      <trkpt lat="40.4012381471693515777587890625" lon="-1.42576240003108978271484375">
        <ele>1190.5999755859375</ele>
        <time>2022-05-05T09:55:46.000Z</time>
      </trkpt>
      <trkpt lat="40.40116195566952228546142578125" lon="-1.42561429180204868316650390625">
        <ele>1192</ele>
        <time>2022-05-05T09:55:53.000Z</time>
      </trkpt>
      <trkpt lat="40.401087440550327301025390625" lon="-1.4254869706928730010986328125">
        <ele>1194.4000244140625</ele>
        <time>2022-05-05T09:55:59.000Z</time>
      </trkpt>
      <trkpt lat="40.40107746608555316925048828125" lon="-1.42546735703945159912109375">
        <ele>1194.800048828125</ele>
        <time>2022-05-05T09:56:00.000Z</time>
      </trkpt>
      <trkpt lat="40.40100554935634136199951171875" lon="-1.4253314025700092315673828125">
        <ele>1197.4000244140625</ele>
        <time>2022-05-05T09:56:07.000Z</time>
      </trkpt>
      <trkpt lat="40.40098719298839569091796875" lon="-1.42529435455799102783203125">
        <ele>1198</ele>
        <time>2022-05-05T09:56:09.000Z</time>
      </trkpt>
      <trkpt lat="40.400941260159015655517578125" lon="-1.4252184145152568817138671875">
        <ele>1199.4000244140625</ele>
        <time>2022-05-05T09:56:13.000Z</time>
      </trkpt>
      <trkpt lat="40.40091871283948421478271484375" lon="-1.425180695950984954833984375">
        <ele>1199.800048828125</ele>
        <time>2022-05-05T09:56:15.000Z</time>
      </trkpt>
      <trkpt lat="40.4008577764034271240234375" lon="-1.42509092576801776885986328125">
        <ele>1200.4000244140625</ele>
        <time>2022-05-05T09:56:20.000Z</time>
      </trkpt>
      <trkpt lat="40.40080807171761989593505859375" lon="-1.425029151141643524169921875">
        <ele>1200.5999755859375</ele>
        <time>2022-05-05T09:56:24.000Z</time>
      </trkpt>
      <trkpt lat="40.400770269334316253662109375" lon="-1.4249865710735321044921875">
        <ele>1201</ele>
        <time>2022-05-05T09:56:27.000Z</time>
      </trkpt>
      <trkpt lat="40.400681756436824798583984375" lon="-1.42490048892796039581298828125">
        <ele>1201.5999755859375</ele>
        <time>2022-05-05T09:56:33.000Z</time>
      </trkpt>
      <trkpt lat="40.400579161942005157470703125" lon="-1.42480275593698024749755859375">
        <ele>1202.4000244140625</ele>
        <time>2022-05-05T09:56:40.000Z</time>
      </trkpt>
      <trkpt lat="40.4005639068782329559326171875" lon="-1.42478750087320804595947265625">
        <ele>1202.5999755859375</ele>
        <time>2022-05-05T09:56:41.000Z</time>
      </trkpt>
      <trkpt lat="40.40045569650828838348388671875" lon="-1.42468473874032497406005859375">
        <ele>1202.199951171875</ele>
        <time>2022-05-05T09:56:48.000Z</time>
      </trkpt>
      <trkpt lat="40.400427281856536865234375" lon="-1.42465389333665370941162109375">
        <ele>1202.4000244140625</ele>
        <time>2022-05-05T09:56:50.000Z</time>
      </trkpt>
      <trkpt lat="40.40035176090896129608154296875" lon="-1.424589268863201141357421875">
        <ele>1203.199951171875</ele>
        <time>2022-05-05T09:56:55.000Z</time>
      </trkpt>
      <trkpt lat="40.40030591189861297607421875" lon="-1.42454124055802822113037109375">
        <ele>1203.4000244140625</ele>
        <time>2022-05-05T09:56:58.000Z</time>
      </trkpt>
      <trkpt lat="40.40023558773100376129150390625" lon="-1.4244616962969303131103515625">
        <ele>1203.800048828125</ele>
        <time>2022-05-05T09:57:03.000Z</time>
      </trkpt>
      <trkpt lat="40.4001764953136444091796875" lon="-1.42441190779209136962890625">
        <ele>1204.4000244140625</ele>
        <time>2022-05-05T09:57:07.000Z</time>
      </trkpt>
      <trkpt lat="40.4001501761376857757568359375" lon="-1.42436563968658447265625">
        <ele>1204.4000244140625</ele>
        <time>2022-05-05T09:57:10.000Z</time>
      </trkpt>
      <trkpt lat="40.40013215504586696624755859375" lon="-1.4243192039430141448974609375">
        <ele>1204</ele>
        <time>2022-05-05T09:57:13.000Z</time>
      </trkpt>
      <trkpt lat="40.4001206718385219573974609375" lon="-1.42427570186555385589599609375">
        <ele>1203.199951171875</ele>
        <time>2022-05-05T09:57:19.000Z</time>
      </trkpt>
      <trkpt lat="40.4000687040388584136962890625" lon="-1.42427855171263217926025390625">
        <ele>1203.5999755859375</ele>
        <time>2022-05-05T09:58:43.000Z</time>
      </trkpt>
      <trkpt lat="40.40002687834203243255615234375" lon="-1.42427922226488590240478515625">
        <ele>1203.800048828125</ele>
        <time>2022-05-05T09:58:45.000Z</time>
      </trkpt>
      <trkpt lat="40.399960242211818695068359375" lon="-1.42427821643650531768798828125">
        <ele>1204.199951171875</ele>
        <time>2022-05-05T09:58:48.000Z</time>
      </trkpt>
      <trkpt lat="40.39981800131499767303466796875" lon="-1.4242811501026153564453125">
        <ele>1204.800048828125</ele>
        <time>2022-05-05T09:58:54.000Z</time>
      </trkpt>
      <trkpt lat="40.39972345344722270965576171875" lon="-1.4242870174348354339599609375">
        <ele>1205.4000244140625</ele>
        <time>2022-05-05T09:58:58.000Z</time>
      </trkpt>
      <trkpt lat="40.399610884487628936767578125" lon="-1.42431258223950862884521484375">
        <ele>1206.5999755859375</ele>
        <time>2022-05-05T09:59:03.000Z</time>
      </trkpt>
      <trkpt lat="40.39956620894372463226318359375" lon="-1.42432666383683681488037109375">
        <ele>1207.199951171875</ele>
        <time>2022-05-05T09:59:05.000Z</time>
      </trkpt>
      <trkpt lat="40.39941349066793918609619140625" lon="-1.424401514232158660888671875">
        <ele>1209.5999755859375</ele>
        <time>2022-05-05T09:59:12.000Z</time>
      </trkpt>
      <trkpt lat="40.3992710821330547332763671875" lon="-1.42449933104217052459716796875">
        <ele>1212.5999755859375</ele>
        <time>2022-05-05T09:59:19.000Z</time>
      </trkpt>
      <trkpt lat="40.399249456822872161865234375" lon="-1.42451106570661067962646484375">
        <ele>1213</ele>
        <time>2022-05-05T09:59:20.000Z</time>
      </trkpt>
      <trkpt lat="40.3991718403995037078857421875" lon="-1.42456437461078166961669921875">
        <ele>1214.5999755859375</ele>
        <time>2022-05-05T09:59:24.000Z</time>
      </trkpt>
      <trkpt lat="40.39909682236611843109130859375" lon="-1.42461433075368404388427734375">
        <ele>1216</ele>
        <time>2022-05-05T09:59:28.000Z</time>
      </trkpt>
      <trkpt lat="40.3990035317838191986083984375" lon="-1.42468658275902271270751953125">
        <ele>1218</ele>
        <time>2022-05-05T09:59:33.000Z</time>
      </trkpt>
      <trkpt lat="40.398928932845592498779296875" lon="-1.42473511397838592529296875">
        <ele>1219.5999755859375</ele>
        <time>2022-05-05T09:59:37.000Z</time>
      </trkpt>
      <trkpt lat="40.39891174994409084320068359375" lon="-1.42474827356636524200439453125">
        <ele>1220</ele>
        <time>2022-05-05T09:59:38.000Z</time>
      </trkpt>
      <trkpt lat="40.39880479685962200164794921875" lon="-1.42483343370258808135986328125">
        <ele>1222.199951171875</ele>
        <time>2022-05-05T09:59:44.000Z</time>
      </trkpt>
      <trkpt lat="40.398751236498355865478515625" lon="-1.42488691024482250213623046875">
        <ele>1222.5999755859375</ele>
        <time>2022-05-05T09:59:47.000Z</time>
      </trkpt>
      <trkpt lat="40.3986934013664722442626953125" lon="-1.42496586777269840240478515625">
        <ele>1223.4000244140625</ele>
        <time>2022-05-05T09:59:51.000Z</time>
      </trkpt>
      <trkpt lat="40.39859273470938205718994140625" lon="-1.42514440231025218963623046875">
        <ele>1225.5999755859375</ele>
        <time>2022-05-05T09:59:59.000Z</time>
      </trkpt>
      <trkpt lat="40.39856574498116970062255859375" lon="-1.42518748529255390167236328125">
        <ele>1226.199951171875</ele>
        <time>2022-05-05T10:00:01.000Z</time>
      </trkpt>
      <trkpt lat="40.3984791599214076995849609375" lon="-1.42533986829221248626708984375">
        <ele>1228.199951171875</ele>
        <time>2022-05-05T10:00:08.000Z</time>
      </trkpt>
      <trkpt lat="40.39843515492975711822509765625" lon="-1.4254091866314411163330078125">
        <ele>1229</ele>
        <time>2022-05-05T10:00:11.000Z</time>
      </trkpt>
      <trkpt lat="40.398358292877674102783203125" lon="-1.425516642630100250244140625">
        <ele>1230.199951171875</ele>
        <time>2022-05-05T10:00:16.000Z</time>
      </trkpt>
      <trkpt lat="40.3983289562165737152099609375" lon="-1.42555997706949710845947265625">
        <ele>1230.5999755859375</ele>
        <time>2022-05-05T10:00:18.000Z</time>
      </trkpt>
      <trkpt lat="40.39817833341658115386962890625" lon="-1.4256888069212436676025390625">
        <ele>1231.5999755859375</ele>
        <time>2022-05-05T10:00:26.000Z</time>
      </trkpt>
      <trkpt lat="40.398158133029937744140625" lon="-1.42570297233760356903076171875">
        <ele>1231.5999755859375</ele>
        <time>2022-05-05T10:00:27.000Z</time>
      </trkpt>
      <trkpt lat="40.3980198316276073455810546875" lon="-1.4257759787142276763916015625">
        <ele>1231.5999755859375</ele>
        <time>2022-05-05T10:00:34.000Z</time>
      </trkpt>
      <trkpt lat="40.3979567997157573699951171875" lon="-1.425790227949619293212890625">
        <ele>1231.4000244140625</ele>
        <time>2022-05-05T10:00:37.000Z</time>
      </trkpt>
      <trkpt lat="40.3978713043034076690673828125" lon="-1.42577019520103931427001953125">
        <ele>1230.5999755859375</ele>
        <time>2022-05-05T10:00:41.000Z</time>
      </trkpt>
      <trkpt lat="40.39780743420124053955078125" lon="-1.42573063261806964874267578125">
        <ele>1230.199951171875</ele>
        <time>2022-05-05T10:00:44.000Z</time>
      </trkpt>
      <trkpt lat="40.397658906877040863037109375" lon="-1.42560540698468685150146484375">
        <ele>1228.5999755859375</ele>
        <time>2022-05-05T10:00:51.000Z</time>
      </trkpt>
      <trkpt lat="40.39761423133313655853271484375" lon="-1.42556584440171718597412109375">
        <ele>1228.199951171875</ele>
        <time>2022-05-05T10:00:53.000Z</time>
      </trkpt>
      <trkpt lat="40.3975276462733745574951171875" lon="-1.425474397838115692138671875">
        <ele>1227</ele>
        <time>2022-05-05T10:00:57.000Z</time>
      </trkpt>
      <trkpt lat="40.397368557751178741455078125" lon="-1.42523710615932941436767578125">
        <ele>1224.5999755859375</ele>
        <time>2022-05-05T10:01:05.000Z</time>
      </trkpt>
      <trkpt lat="40.39735640399158000946044921875" lon="-1.4252080209553241729736328125">
        <ele>1224.4000244140625</ele>
        <time>2022-05-05T10:01:06.000Z</time>
      </trkpt>
      <trkpt lat="40.39729588665068149566650390625" lon="-1.4249843917787075042724609375">
        <ele>1222.5999755859375</ele>
        <time>2022-05-05T10:01:13.000Z</time>
      </trkpt>
      <trkpt lat="40.39728968404233455657958984375" lon="-1.42495295964181423187255859375">
        <ele>1222.4000244140625</ele>
        <time>2022-05-05T10:01:14.000Z</time>
      </trkpt>
      <trkpt lat="40.39723754860460758209228515625" lon="-1.42470686696469783782958984375">
        <ele>1220.4000244140625</ele>
        <time>2022-05-05T10:01:22.000Z</time>
      </trkpt>
      <trkpt lat="40.397225730121135711669921875" lon="-1.424677781760692596435546875">
        <ele>1220.199951171875</ele>
        <time>2022-05-05T10:01:23.000Z</time>
      </trkpt>
      <trkpt lat="40.39712137542665004730224609375" lon="-1.42448960803449153900146484375">
        <ele>1219.800048828125</ele>
        <time>2022-05-05T10:01:30.000Z</time>
      </trkpt>
      <trkpt lat="40.39706043899059295654296875" lon="-1.424431018531322479248046875">
        <ele>1220.800048828125</ele>
        <time>2022-05-05T10:01:33.000Z</time>
      </trkpt>
      <trkpt lat="40.39696681313216686248779296875" lon="-1.424385420978069305419921875">
        <ele>1222.5999755859375</ele>
        <time>2022-05-05T10:01:37.000Z</time>
      </trkpt>
      <trkpt lat="40.39682306349277496337890625" lon="-1.42435449175536632537841796875">
        <ele>1225.5999755859375</ele>
        <time>2022-05-05T10:01:43.000Z</time>
      </trkpt>
      <trkpt lat="40.39677386172115802764892578125" lon="-1.42434929497539997100830078125">
        <ele>1226.5999755859375</ele>
        <time>2022-05-05T10:01:45.000Z</time>
      </trkpt>
      <trkpt lat="40.3966361470520496368408203125" lon="-1.42432766966521739959716796875">
        <ele>1228.800048828125</ele>
        <time>2022-05-05T10:01:51.000Z</time>
      </trkpt>
      <trkpt lat="40.39652533829212188720703125" lon="-1.4243088103830814361572265625">
        <ele>1230.4000244140625</ele>
        <time>2022-05-05T10:01:56.000Z</time>
      </trkpt>
      <trkpt lat="40.39647865109145641326904296875" lon="-1.4243004284799098968505859375">
        <ele>1231.199951171875</ele>
        <time>2022-05-05T10:01:58.000Z</time>
      </trkpt>
      <trkpt lat="40.39631352759897708892822265625" lon="-1.42426681704819202423095703125">
        <ele>1233.800048828125</ele>
        <time>2022-05-05T10:02:05.000Z</time>
      </trkpt>
      <trkpt lat="40.3962898068130016326904296875" lon="-1.4242588542401790618896484375">
        <ele>1234.199951171875</ele>
        <time>2022-05-05T10:02:06.000Z</time>
      </trkpt>
      <trkpt lat="40.3962411917746067047119140625" lon="-1.4242367260158061981201171875">
        <ele>1235</ele>
        <time>2022-05-05T10:02:08.000Z</time>
      </trkpt>
      <trkpt lat="40.39615158922970294952392578125" lon="-1.42418517731130123138427734375">
        <ele>1236.199951171875</ele>
        <time>2022-05-05T10:02:12.000Z</time>
      </trkpt>
      <trkpt lat="40.39609073661267757415771484375" lon="-1.42412893474102020263671875">
        <ele>1236.199951171875</ele>
        <time>2022-05-05T10:02:15.000Z</time>
      </trkpt>
      <trkpt lat="40.3959847055375576019287109375" lon="-1.4239976741373538970947265625">
        <ele>1235</ele>
        <time>2022-05-05T10:02:21.000Z</time>
      </trkpt>
      <trkpt lat="40.39593148045241832733154296875" lon="-1.42393673770129680633544921875">
        <ele>1235.199951171875</ele>
        <time>2022-05-05T10:02:24.000Z</time>
      </trkpt>
      <trkpt lat="40.39589795283973217010498046875" lon="-1.42389281652867794036865234375">
        <ele>1235.199951171875</ele>
        <time>2022-05-05T10:02:26.000Z</time>
      </trkpt>
      <trkpt lat="40.3958060033619403839111328125" lon="-1.4237911440432071685791015625">
        <ele>1235.800048828125</ele>
        <time>2022-05-05T10:02:31.000Z</time>
      </trkpt>
      <trkpt lat="40.39577038027346134185791015625" lon="-1.42375971190631389617919921875">
        <ele>1236</ele>
        <time>2022-05-05T10:02:33.000Z</time>
      </trkpt>
      <trkpt lat="40.39567641913890838623046875" lon="-1.42369768582284450531005859375">
        <ele>1236.4000244140625</ele>
        <time>2022-05-05T10:02:38.000Z</time>
      </trkpt>
      <trkpt lat="40.39561497978866100311279296875" lon="-1.42367438413202762603759765625">
        <ele>1236.5999755859375</ele>
        <time>2022-05-05T10:02:41.000Z</time>
      </trkpt>
      <trkpt lat="40.39549025706946849822998046875" lon="-1.4236436225473880767822265625">
        <ele>1237.4000244140625</ele>
        <time>2022-05-05T10:02:47.000Z</time>
      </trkpt>
      <trkpt lat="40.39542823098599910736083984375" lon="-1.4236342348158359527587890625">
        <ele>1238.199951171875</ele>
        <time>2022-05-05T10:02:50.000Z</time>
      </trkpt>
      <trkpt lat="40.395324714481830596923828125" lon="-1.42361571080982685089111328125">
        <ele>1239.5999755859375</ele>
        <time>2022-05-05T10:02:55.000Z</time>
      </trkpt>
      <trkpt lat="40.3952611796557903289794921875" lon="-1.42360590398311614990234375">
        <ele>1240.4000244140625</ele>
        <time>2022-05-05T10:02:58.000Z</time>
      </trkpt>
      <trkpt lat="40.3951126523315906524658203125" lon="-1.42357103526592254638671875">
        <ele>1242.199951171875</ele>
        <time>2022-05-05T10:03:05.000Z</time>
      </trkpt>
      <trkpt lat="40.39504718966782093048095703125" lon="-1.4235504157841205596923828125">
        <ele>1243</ele>
        <time>2022-05-05T10:03:08.000Z</time>
      </trkpt>
      <trkpt lat="40.39492062292993068695068359375" lon="-1.42351470887660980224609375">
        <ele>1244.199951171875</ele>
        <time>2022-05-05T10:03:14.000Z</time>
      </trkpt>
      <trkpt lat="40.394900925457477569580078125" lon="-1.42350892536342144012451171875">
        <ele>1244.4000244140625</ele>
        <time>2022-05-05T10:03:15.000Z</time>
      </trkpt>
      <trkpt lat="40.39475600235164165496826171875" lon="-1.42347405664622783660888671875">
        <ele>1246</ele>
        <time>2022-05-05T10:03:22.000Z</time>
      </trkpt>
      <trkpt lat="40.394735634326934814453125" lon="-1.4234696142375469207763671875">
        <ele>1246.4000244140625</ele>
        <time>2022-05-05T10:03:23.000Z</time>
      </trkpt>
      <trkpt lat="40.39459724910557270050048828125" lon="-1.423429548740386962890625">
        <ele>1247.4000244140625</ele>
        <time>2022-05-05T10:03:30.000Z</time>
      </trkpt>
      <trkpt lat="40.39455634541809558868408203125" lon="-1.4234146289527416229248046875">
        <ele>1247.5999755859375</ele>
        <time>2022-05-05T10:03:32.000Z</time>
      </trkpt>
      <trkpt lat="40.3944387473165988922119140625" lon="-1.42337498255074024200439453125">
        <ele>1248</ele>
        <time>2022-05-05T10:03:38.000Z</time>
      </trkpt>
      <trkpt lat="40.39437714032828807830810546875" lon="-1.42335184849798679351806640625">
        <ele>1248.199951171875</ele>
        <time>2022-05-05T10:03:41.000Z</time>
      </trkpt>
      <trkpt lat="40.39431310258805751800537109375" lon="-1.423327960073947906494140625">
        <ele>1248.4000244140625</ele>
        <time>2022-05-05T10:03:44.000Z</time>
      </trkpt>
      <trkpt lat="40.39416189305484294891357421875" lon="-1.42327406443655490875244140625">
        <ele>1248.800048828125</ele>
        <time>2022-05-05T10:03:51.000Z</time>
      </trkpt>
      <trkpt lat="40.39411981590092182159423828125" lon="-1.42325880937278270721435546875">
        <ele>1249</ele>
        <time>2022-05-05T10:03:53.000Z</time>
      </trkpt>
      <trkpt lat="40.39397615008056163787841796875" lon="-1.42321036197245121002197265625">
        <ele>1249.4000244140625</ele>
        <time>2022-05-05T10:04:00.000Z</time>
      </trkpt>
      <trkpt lat="40.3938759863376617431640625" lon="-1.42317146994173526763916015625">
        <ele>1249.800048828125</ele>
        <time>2022-05-05T10:04:05.000Z</time>
      </trkpt>
      <trkpt lat="40.3937973640859127044677734375" lon="-1.4231430552899837493896484375">
        <ele>1250.199951171875</ele>
        <time>2022-05-05T10:04:09.000Z</time>
      </trkpt>
      <trkpt lat="40.3936629183590412139892578125" lon="-1.4230924285948276519775390625">
        <ele>1251.4000244140625</ele>
        <time>2022-05-05T10:04:16.000Z</time>
      </trkpt>
      <trkpt lat="40.393642969429492950439453125" lon="-1.4230850525200366973876953125">
        <ele>1251.5999755859375</ele>
        <time>2022-05-05T10:04:17.000Z</time>
      </trkpt>
      <trkpt lat="40.39348614402115345001220703125" lon="-1.423018835484981536865234375">
        <ele>1253.199951171875</ele>
        <time>2022-05-05T10:04:25.000Z</time>
      </trkpt>
      <trkpt lat="40.393328480422496795654296875" lon="-1.422939039766788482666015625">
        <ele>1254.5999755859375</ele>
        <time>2022-05-05T10:04:33.000Z</time>
      </trkpt>
      <trkpt lat="40.39321683347225189208984375" lon="-1.42286838032305240631103515625">
        <ele>1255.4000244140625</ele>
        <time>2022-05-05T10:04:39.000Z</time>
      </trkpt>
      <trkpt lat="40.39316059090197086334228515625" lon="-1.4228327572345733642578125">
        <ele>1255.800048828125</ele>
        <time>2022-05-05T10:04:42.000Z</time>
      </trkpt>
      <trkpt lat="40.39306855760514736175537109375" lon="-1.4227796159684658050537109375">
        <ele>1256.4000244140625</ele>
        <time>2022-05-05T10:04:47.000Z</time>
      </trkpt>
      <trkpt lat="40.392999239265918731689453125" lon="-1.42273150384426116943359375">
        <ele>1256.800048828125</ele>
        <time>2022-05-05T10:04:51.000Z</time>
      </trkpt>
      <trkpt lat="40.39296805858612060546875" lon="-1.42271080054342746734619140625">
        <ele>1257.199951171875</ele>
        <time>2022-05-05T10:04:53.000Z</time>
      </trkpt>
      <trkpt lat="40.39289957843720912933349609375" lon="-1.4226652868092060089111328125">
        <ele>1258.4000244140625</ele>
        <time>2022-05-05T10:04:57.000Z</time>
      </trkpt>
      <trkpt lat="40.3928267396986484527587890625" lon="-1.422617174685001373291015625">
        <ele>1259.800048828125</ele>
        <time>2022-05-05T10:05:01.000Z</time>
      </trkpt>
      <trkpt lat="40.39275339804589748382568359375" lon="-1.42257057130336761474609375">
        <ele>1261.4000244140625</ele>
        <time>2022-05-05T10:05:05.000Z</time>
      </trkpt>
      <trkpt lat="40.39269824512302875518798828125" lon="-1.42253411002457141876220703125">
        <ele>1261.800048828125</ele>
        <time>2022-05-05T10:05:08.000Z</time>
      </trkpt>
      <trkpt lat="40.3926316089928150177001953125" lon="-1.42248096875846385955810546875">
        <ele>1262</ele>
        <time>2022-05-05T10:05:12.000Z</time>
      </trkpt>
      <trkpt lat="40.39256815798580646514892578125" lon="-1.4224188588559627532958984375">
        <ele>1262</ele>
        <time>2022-05-05T10:05:16.000Z</time>
      </trkpt>
      <trkpt lat="40.39251266978681087493896484375" lon="-1.4223427511751651763916015625">
        <ele>1261.5999755859375</ele>
        <time>2022-05-05T10:05:20.000Z</time>
      </trkpt>
      <trkpt lat="40.39247394539415836334228515625" lon="-1.4222726784646511077880859375">
        <ele>1262.5999755859375</ele>
        <time>2022-05-05T10:05:23.000Z</time>
      </trkpt>
      <trkpt lat="40.3924156911671161651611328125" lon="-1.42216798849403858184814453125">
        <ele>1265</ele>
        <time>2022-05-05T10:05:28.000Z</time>
      </trkpt>
      <trkpt lat="40.3923804871737957000732421875" lon="-1.42210747115314006805419921875">
        <ele>1266.4000244140625</ele>
        <time>2022-05-05T10:05:31.000Z</time>
      </trkpt>
      <trkpt lat="40.39231158792972564697265625" lon="-1.4219793118536472320556640625">
        <ele>1266.800048828125</ele>
        <time>2022-05-05T10:05:37.000Z</time>
      </trkpt>
      <trkpt lat="40.392287112772464752197265625" lon="-1.42193715088069438934326171875">
        <ele>1266.800048828125</ele>
        <time>2022-05-05T10:05:39.000Z</time>
      </trkpt>
      <trkpt lat="40.3922185488045215606689453125" lon="-1.42180354334414005279541015625">
        <ele>1267</ele>
        <time>2022-05-05T10:05:45.000Z</time>
      </trkpt>
      <trkpt lat="40.39219952188432216644287109375" lon="-1.421758197247982025146484375">
        <ele>1267</ele>
        <time>2022-05-05T10:05:47.000Z</time>
      </trkpt>
      <trkpt lat="40.392160713672637939453125" lon="-1.4216423593461513519287109375">
        <ele>1267</ele>
        <time>2022-05-05T10:05:52.000Z</time>
      </trkpt>
      <trkpt lat="40.39214638061821460723876953125" lon="-1.42159759998321533203125">
        <ele>1267</ele>
        <time>2022-05-05T10:05:54.000Z</time>
      </trkpt>
      <trkpt lat="40.39209106005728244781494140625" lon="-1.4214673452079296112060546875">
        <ele>1268.199951171875</ele>
        <time>2022-05-05T10:06:00.000Z</time>
      </trkpt>
      <trkpt lat="40.39207379333674907684326171875" lon="-1.4214240945875644683837890625">
        <ele>1268.800048828125</ele>
        <time>2022-05-05T10:06:02.000Z</time>
      </trkpt>
      <trkpt lat="40.3920200653374195098876953125" lon="-1.42130331136286258697509765625">
        <ele>1270.800048828125</ele>
        <time>2022-05-05T10:06:08.000Z</time>
      </trkpt>
      <trkpt lat="40.3920036368072032928466796875" lon="-1.42126408405601978302001953125">
        <ele>1271.4000244140625</ele>
        <time>2022-05-05T10:06:10.000Z</time>
      </trkpt>
      <trkpt lat="40.39194270037114620208740234375" lon="-1.42113299109041690826416015625">
        <ele>1273.4000244140625</ele>
        <time>2022-05-05T10:06:16.000Z</time>
      </trkpt>
      <trkpt lat="40.39192442782223224639892578125" lon="-1.4210871420800685882568359375">
        <ele>1274.199951171875</ele>
        <time>2022-05-05T10:06:18.000Z</time>
      </trkpt>
      <trkpt lat="40.39186541922390460968017578125" lon="-1.4209781773388385772705078125">
        <ele>1276</ele>
        <time>2022-05-05T10:06:23.000Z</time>
      </trkpt>
      <trkpt lat="40.39184614084661006927490234375" lon="-1.42093752510845661163330078125">
        <ele>1276.4000244140625</ele>
        <time>2022-05-05T10:06:25.000Z</time>
      </trkpt>
      <trkpt lat="40.3917967714369297027587890625" lon="-1.42082772217690944671630859375">
        <ele>1276.199951171875</ele>
        <time>2022-05-05T10:06:30.000Z</time>
      </trkpt>
      <trkpt lat="40.39176441729068756103515625" lon="-1.4207647740840911865234375">
        <ele>1276</ele>
        <time>2022-05-05T10:06:33.000Z</time>
      </trkpt>
      <trkpt lat="40.39172477088868618011474609375" lon="-1.42068573273718357086181640625">
        <ele>1275.5999755859375</ele>
        <time>2022-05-05T10:06:37.000Z</time>
      </trkpt>
      <trkpt lat="40.39168654941022396087646484375" lon="-1.42060509882867336273193359375">
        <ele>1276.5999755859375</ele>
        <time>2022-05-05T10:06:41.000Z</time>
      </trkpt>
      <trkpt lat="40.39165310561656951904296875" lon="-1.42054374329745769500732421875">
        <ele>1277.800048828125</ele>
        <time>2022-05-05T10:06:44.000Z</time>
      </trkpt>
      <trkpt lat="40.39161480031907558441162109375" lon="-1.4204631932079792022705078125">
        <ele>1279.4000244140625</ele>
        <time>2022-05-05T10:06:48.000Z</time>
      </trkpt>
      <trkpt lat="40.3915858827531337738037109375" lon="-1.420398317277431488037109375">
        <ele>1280.5999755859375</ele>
        <time>2022-05-05T10:06:51.000Z</time>
      </trkpt>
      <trkpt lat="40.3915593959391117095947265625" lon="-1.4203354530036449432373046875">
        <ele>1281</ele>
        <time>2022-05-05T10:06:54.000Z</time>
      </trkpt>
      <trkpt lat="40.39152796380221843719482421875" lon="-1.4202697388827800750732421875">
        <ele>1281</ele>
        <time>2022-05-05T10:06:57.000Z</time>
      </trkpt>
      <trkpt lat="40.39148102514445781707763671875" lon="-1.4201849140226840972900390625">
        <ele>1281.199951171875</ele>
        <time>2022-05-05T10:07:01.000Z</time>
      </trkpt>
      <trkpt lat="40.39144850336015224456787109375" lon="-1.4201264083385467529296875">
        <ele>1281.199951171875</ele>
        <time>2022-05-05T10:07:04.000Z</time>
      </trkpt>
      <trkpt lat="40.39141195826232433319091796875" lon="-1.420046277344226837158203125">
        <ele>1281.4000244140625</ele>
        <time>2022-05-05T10:07:08.000Z</time>
      </trkpt>
      <trkpt lat="40.3913917578756809234619140625" lon="-1.42000026069581508636474609375">
        <ele>1281.5999755859375</ele>
        <time>2022-05-05T10:07:10.000Z</time>
      </trkpt>
      <trkpt lat="40.3913421370089054107666015625" lon="-1.41989230178296566009521484375">
        <ele>1281.800048828125</ele>
        <time>2022-05-05T10:07:15.000Z</time>
      </trkpt>
      <trkpt lat="40.39130802266299724578857421875" lon="-1.41982994042336940765380859375">
        <ele>1282</ele>
        <time>2022-05-05T10:07:18.000Z</time>
      </trkpt>
      <trkpt lat="40.39126150310039520263671875" lon="-1.4197440259158611297607421875">
        <ele>1283.5999755859375</ele>
        <time>2022-05-05T10:07:22.000Z</time>
      </trkpt>
      <trkpt lat="40.3912366926670074462890625" lon="-1.41970421187579631805419921875">
        <ele>1284.4000244140625</ele>
        <time>2022-05-05T10:07:24.000Z</time>
      </trkpt>
      <trkpt lat="40.39118112064898014068603515625" lon="-1.4195867814123630523681640625">
        <ele>1286.4000244140625</ele>
        <time>2022-05-05T10:07:30.000Z</time>
      </trkpt>
      <trkpt lat="40.391161255538463592529296875" lon="-1.4195499010384082794189453125">
        <ele>1287</ele>
        <time>2022-05-05T10:07:32.000Z</time>
      </trkpt>
      <trkpt lat="40.3911052644252777099609375" lon="-1.41944219358265399932861328125">
        <ele>1289</ele>
        <time>2022-05-05T10:07:37.000Z</time>
      </trkpt>
      <trkpt lat="40.39109629578888416290283203125" lon="-1.41941939480602741241455078125">
        <ele>1289.4000244140625</ele>
        <time>2022-05-05T10:07:38.000Z</time>
      </trkpt>
      <trkpt lat="40.3910521231591701507568359375" lon="-1.4192615635693073272705078125">
        <ele>1291.800048828125</ele>
        <time>2022-05-05T10:07:45.000Z</time>
      </trkpt>
      <trkpt lat="40.39102706126868724822998046875" lon="-1.41912393271923065185546875">
        <ele>1292.199951171875</ele>
        <time>2022-05-05T10:07:51.000Z</time>
      </trkpt>
      <trkpt lat="40.3910196013748645782470703125" lon="-1.41907791607081890106201171875">
        <ele>1292.199951171875</ele>
        <time>2022-05-05T10:07:53.000Z</time>
      </trkpt>
      <trkpt lat="40.3910092078149318695068359375" lon="-1.41898621805012226104736328125">
        <ele>1292.4000244140625</ele>
        <time>2022-05-05T10:07:57.000Z</time>
      </trkpt>
      <trkpt lat="40.39100158028304576873779296875" lon="-1.4189075119793415069580078125">
        <ele>1292</ele>
        <time>2022-05-05T10:08:00.000Z</time>
      </trkpt>
      <trkpt lat="40.390979535877704620361328125" lon="-1.4187972061336040496826171875">
        <ele>1291.4000244140625</ele>
        <time>2022-05-05T10:08:04.000Z</time>
      </trkpt>
      <trkpt lat="40.39096168242394924163818359375" lon="-1.41871833242475986480712890625">
        <ele>1291.199951171875</ele>
        <time>2022-05-05T10:08:07.000Z</time>
      </trkpt>
      <trkpt lat="40.39095698855817317962646484375" lon="-1.41864323057234287261962890625">
        <ele>1290.800048828125</ele>
        <time>2022-05-05T10:08:10.000Z</time>
      </trkpt>
      <trkpt lat="40.39095430634915828704833984375" lon="-1.41852035187184810638427734375">
        <ele>1290.199951171875</ele>
        <time>2022-05-05T10:08:15.000Z</time>
      </trkpt>
      <trkpt lat="40.39095246233046054840087890625" lon="-1.41846871934831142425537109375">
        <ele>1290.4000244140625</ele>
        <time>2022-05-05T10:08:17.000Z</time>
      </trkpt>
      <trkpt lat="40.3909508697688579559326171875" lon="-1.4183154143393039703369140625">
        <ele>1291</ele>
        <time>2022-05-05T10:08:23.000Z</time>
      </trkpt>
      <trkpt lat="40.39094877429306507110595703125" lon="-1.41826470382511615753173828125">
        <ele>1291.199951171875</ele>
        <time>2022-05-05T10:08:25.000Z</time>
      </trkpt>
      <trkpt lat="40.39094441570341587066650390625" lon="-1.4181638695299625396728515625">
        <ele>1291.5999755859375</ele>
        <time>2022-05-05T10:08:29.000Z</time>
      </trkpt>
      <trkpt lat="40.39094592444598674774169921875" lon="-1.41808985732495784759521484375">
        <ele>1291.5999755859375</ele>
        <time>2022-05-05T10:08:32.000Z</time>
      </trkpt>
      <trkpt lat="40.39095195941627025604248046875" lon="-1.417887099087238311767578125">
        <ele>1291.800048828125</ele>
        <time>2022-05-05T10:08:39.000Z</time>
      </trkpt>
      <trkpt lat="40.39096537046134471893310546875" lon="-1.4176193810999393463134765625">
        <ele>1292</ele>
        <time>2022-05-05T10:08:47.000Z</time>
      </trkpt>
      <trkpt lat="40.39096704684197902679443359375" lon="-1.41758308745920658111572265625">
        <ele>1292</ele>
        <time>2022-05-05T10:08:48.000Z</time>
      </trkpt>
      <trkpt lat="40.39098699577152729034423828125" lon="-1.4171959273517131805419921875">
        <ele>1292.4000244140625</ele>
        <time>2022-05-05T10:08:58.000Z</time>
      </trkpt>
      <trkpt lat="40.39100074209272861480712890625" lon="-1.41680658794939517974853515625">
        <ele>1294.199951171875</ele>
        <time>2022-05-05T10:09:07.000Z</time>
      </trkpt>
      <trkpt lat="40.3910048492252826690673828125" lon="-1.41667633317410945892333984375">
        <ele>1294.4000244140625</ele>
        <time>2022-05-05T10:09:10.000Z</time>
      </trkpt>
      <trkpt lat="40.3910100460052490234375" lon="-1.41650131903588771820068359375">
        <ele>1294.800048828125</ele>
        <time>2022-05-05T10:09:14.000Z</time>
      </trkpt>
      <trkpt lat="40.39102555252611637115478515625" lon="-1.41621968708932399749755859375">
        <ele>1294.800048828125</ele>
        <time>2022-05-05T10:09:21.000Z</time>
      </trkpt>
      <trkpt lat="40.3910489380359649658203125" lon="-1.415880136191844940185546875">
        <ele>1294.5999755859375</ele>
        <time>2022-05-05T10:09:30.000Z</time>
      </trkpt>
      <trkpt lat="40.3910541348159313201904296875" lon="-1.41579556278884410858154296875">
        <ele>1294.5999755859375</ele>
        <time>2022-05-05T10:09:32.000Z</time>
      </trkpt>
      <trkpt lat="40.39106343872845172882080078125" lon="-1.41555164940655231475830078125">
        <ele>1294.199951171875</ele>
        <time>2022-05-05T10:09:38.000Z</time>
      </trkpt>
      <trkpt lat="40.39108053781092166900634765625" lon="-1.4152045547962188720703125">
        <ele>1293.4000244140625</ele>
        <time>2022-05-05T10:09:46.000Z</time>
      </trkpt>
      <trkpt lat="40.3910796158015727996826171875" lon="-1.41516172327101230621337890625">
        <ele>1293.199951171875</ele>
        <time>2022-05-05T10:09:47.000Z</time>
      </trkpt>
      <trkpt lat="40.39109654724597930908203125" lon="-1.4148129522800445556640625">
        <ele>1293.4000244140625</ele>
        <time>2022-05-05T10:09:55.000Z</time>
      </trkpt>
      <trkpt lat="40.39106008596718311309814453125" lon="-1.41450642608106136322021484375">
        <ele>1293.800048828125</ele>
        <time>2022-05-05T10:10:02.000Z</time>
      </trkpt>
      <trkpt lat="40.39091549813747406005859375" lon="-1.4141526259481906890869140625">
        <ele>1295</ele>
        <time>2022-05-05T10:10:11.000Z</time>
      </trkpt>
      <trkpt lat="40.39081667549908161163330078125" lon="-1.4138971455395221710205078125">
        <ele>1296.800048828125</ele>
        <time>2022-05-05T10:10:18.000Z</time>
      </trkpt>
      <trkpt lat="40.390682481229305267333984375" lon="-1.413572095334529876708984375">
        <ele>1299.800048828125</ele>
        <time>2022-05-05T10:10:27.000Z</time>
      </trkpt>
      <trkpt lat="40.39057896472513675689697265625" lon="-1.41331837512552738189697265625">
        <ele>1300</ele>
        <time>2022-05-05T10:10:34.000Z</time>
      </trkpt>
      <trkpt lat="40.39053772576153278350830078125" lon="-1.4132135175168514251708984375">
        <ele>1300</ele>
        <time>2022-05-05T10:10:37.000Z</time>
      </trkpt>
      <trkpt lat="40.3905240632593631744384765625" lon="-1.41317822970449924468994140625">
        <ele>1300</ele>
        <time>2022-05-05T10:10:38.000Z</time>
      </trkpt>
      <trkpt lat="40.3904050402343273162841796875" lon="-1.4129050634801387786865234375">
        <ele>1302.5999755859375</ele>
        <time>2022-05-05T10:10:46.000Z</time>
      </trkpt>
      <trkpt lat="40.3903778828680515289306640625" lon="-1.41283775679767131805419921875">
        <ele>1303.199951171875</ele>
        <time>2022-05-05T10:10:48.000Z</time>
      </trkpt>
      <trkpt lat="40.3903078101575374603271484375" lon="-1.41265846788883209228515625">
        <ele>1305.199951171875</ele>
        <time>2022-05-05T10:10:54.000Z</time>
      </trkpt>
      <trkpt lat="40.390255339443683624267578125" lon="-1.41255243681371212005615234375">
        <ele>1306.4000244140625</ele>
        <time>2022-05-05T10:10:58.000Z</time>
      </trkpt>
      <trkpt lat="40.39022038690745830535888671875" lon="-1.41248278319835662841796875">
        <ele>1306.4000244140625</ele>
        <time>2022-05-05T10:11:01.000Z</time>
      </trkpt>
      <trkpt lat="40.3901589475572109222412109375" lon="-1.412359066307544708251953125">
        <ele>1306.5999755859375</ele>
        <time>2022-05-05T10:11:06.000Z</time>
      </trkpt>
      <trkpt lat="40.39011863060295581817626953125" lon="-1.41227499581873416900634765625">
        <ele>1306.800048828125</ele>
        <time>2022-05-05T10:11:09.000Z</time>
      </trkpt>
      <trkpt lat="40.39005224592983722686767578125" lon="-1.4121386222541332244873046875">
        <ele>1307.5999755859375</ele>
        <time>2022-05-05T10:11:14.000Z</time>
      </trkpt>
      <trkpt lat="40.39002626203000545501708984375" lon="-1.412085480988025665283203125">
        <ele>1307.800048828125</ele>
        <time>2022-05-05T10:11:16.000Z</time>
      </trkpt>
      <trkpt lat="40.38996465504169464111328125" lon="-1.4119572378695011138916015625">
        <ele>1308.5999755859375</ele>
        <time>2022-05-05T10:11:21.000Z</time>
      </trkpt>
      <trkpt lat="40.38994596339762210845947265625" lon="-1.411913149058818817138671875">
        <ele>1308.800048828125</ele>
        <time>2022-05-05T10:11:23.000Z</time>
      </trkpt>
      <trkpt lat="40.3899157047271728515625" lon="-1.41184483654797077178955078125">
        <ele>1309.199951171875</ele>
        <time>2022-05-05T10:11:26.000Z</time>
      </trkpt>
      <trkpt lat="40.38986264728009700775146484375" lon="-1.4117450080811977386474609375">
        <ele>1309.5999755859375</ele>
        <time>2022-05-05T10:11:30.000Z</time>
      </trkpt>
      <trkpt lat="40.38982593454420566558837890625" lon="-1.41166496090590953826904296875">
        <ele>1310.199951171875</ele>
        <time>2022-05-05T10:11:33.000Z</time>
      </trkpt>
      <trkpt lat="40.38981587626039981842041015625" lon="-1.4116397313773632049560546875">
        <ele>1310.199951171875</ele>
        <time>2022-05-05T10:11:34.000Z</time>
      </trkpt>
      <trkpt lat="40.38976575247943401336669921875" lon="-1.411541663110256195068359375">
        <ele>1310.800048828125</ele>
        <time>2022-05-05T10:11:38.000Z</time>
      </trkpt>
      <trkpt lat="40.38974110968410968780517578125" lon="-1.41149011440575122833251953125">
        <ele>1311</ele>
        <time>2022-05-05T10:11:40.000Z</time>
      </trkpt>
      <trkpt lat="40.38966902531683444976806640625" lon="-1.4113430120050907135009765625">
        <ele>1312</ele>
        <time>2022-05-05T10:11:46.000Z</time>
      </trkpt>
      <trkpt lat="40.3896070830523967742919921875" lon="-1.4111914671957492828369140625">
        <ele>1313.4000244140625</ele>
        <time>2022-05-05T10:11:53.000Z</time>
      </trkpt>
      <trkpt lat="40.38957263343036174774169921875" lon="-1.411049477756023406982421875">
        <ele>1314.5999755859375</ele>
        <time>2022-05-05T10:11:59.000Z</time>
      </trkpt>
      <trkpt lat="40.38956475444138050079345703125" lon="-1.41102458350360393524169921875">
        <ele>1314.800048828125</ele>
        <time>2022-05-05T10:12:00.000Z</time>
      </trkpt>
      <trkpt lat="40.38950943388044834136962890625" lon="-1.4108766429126262664794921875">
        <ele>1316</ele>
        <time>2022-05-05T10:12:06.000Z</time>
      </trkpt>
      <trkpt lat="40.38949132896959781646728515625" lon="-1.41083699651062488555908203125">
        <ele>1316.199951171875</ele>
        <time>2022-05-05T10:12:08.000Z</time>
      </trkpt>
      <trkpt lat="40.38946735672652721405029296875" lon="-1.4107680134475231170654296875">
        <ele>1316.800048828125</ele>
        <time>2022-05-05T10:12:11.000Z</time>
      </trkpt>
      <trkpt lat="40.38941790349781513214111328125" lon="-1.41061889939010143280029296875">
        <ele>1317.5999755859375</ele>
        <time>2022-05-05T10:12:17.000Z</time>
      </trkpt>
      <trkpt lat="40.38934397511184215545654296875" lon="-1.41046131961047649383544921875">
        <ele>1317.4000244140625</ele>
        <time>2022-05-05T10:12:23.000Z</time>
      </trkpt>
      <trkpt lat="40.38923299871385097503662109375" lon="-1.41026300378143787384033203125">
        <ele>1317</ele>
        <time>2022-05-05T10:12:29.000Z</time>
      </trkpt>
      <trkpt lat="40.38911296986043453216552734375" lon="-1.41004457138478755950927734375">
        <ele>1317</ele>
        <time>2022-05-05T10:12:34.000Z</time>
      </trkpt>
      <trkpt lat="40.38901590742170810699462890625" lon="-1.40986620448529720306396484375">
        <ele>1317</ele>
        <time>2022-05-05T10:12:37.000Z</time>
      </trkpt>
      <trkpt lat="40.388990007340908050537109375" lon="-1.4097947068512439727783203125">
        <ele>1317.199951171875</ele>
        <time>2022-05-05T10:12:38.000Z</time>
      </trkpt>
      <trkpt lat="40.3889563120901584625244140625" lon="-1.409725137054920196533203125">
        <ele>1317.5999755859375</ele>
        <time>2022-05-05T10:12:39.000Z</time>
      </trkpt>
      <trkpt lat="40.38884944282472133636474609375" lon="-1.409507878124713897705078125">
        <ele>1316.800048828125</ele>
        <time>2022-05-05T10:12:42.000Z</time>
      </trkpt>
      <trkpt lat="40.38877266459167003631591796875" lon="-1.4093278348445892333984375">
        <ele>1316.4000244140625</ele>
        <time>2022-05-05T10:12:44.000Z</time>
      </trkpt>
      <trkpt lat="40.38874768652021884918212890625" lon="-1.40922549180686473846435546875">
        <ele>1316.199951171875</ele>
        <time>2022-05-05T10:12:45.000Z</time>
      </trkpt>
      <trkpt lat="40.38868264295160770416259765625" lon="-1.40891217626631259918212890625">
        <ele>1316.4000244140625</ele>
        <time>2022-05-05T10:12:48.000Z</time>
      </trkpt>
      <trkpt lat="40.3886642865836620330810546875" lon="-1.4088133536279201507568359375">
        <ele>1317</ele>
        <time>2022-05-05T10:12:49.000Z</time>
      </trkpt>
      <trkpt lat="40.38864140398800373077392578125" lon="-1.40862417407333850860595703125">
        <ele>1318.199951171875</ele>
        <time>2022-05-05T10:12:51.000Z</time>
      </trkpt>
      <trkpt lat="40.3886361233890056610107421875" lon="-1.40853851102292537689208984375">
        <ele>1318.5999755859375</ele>
        <time>2022-05-05T10:12:52.000Z</time>
      </trkpt>
      <trkpt lat="40.38860804401338100433349609375" lon="-1.4082641713321208953857421875">
        <ele>1320</ele>
        <time>2022-05-05T10:12:56.000Z</time>
      </trkpt>
      <trkpt lat="40.38860603235661983489990234375" lon="-1.4082093536853790283203125">
        <ele>1320.199951171875</ele>
        <time>2022-05-05T10:12:57.000Z</time>
      </trkpt>
      <trkpt lat="40.38860351778566837310791015625" lon="-1.40815562568604946136474609375">
        <ele>1320.4000244140625</ele>
        <time>2022-05-05T10:12:58.000Z</time>
      </trkpt>
      <trkpt lat="40.3885683976113796234130859375" lon="-1.40795596875250339508056640625">
        <ele>1321.199951171875</ele>
        <time>2022-05-05T10:13:03.000Z</time>
      </trkpt>
      <trkpt lat="40.38856345228850841522216796875" lon="-1.407787911593914031982421875">
        <ele>1321.800048828125</ele>
        <time>2022-05-05T10:13:08.000Z</time>
      </trkpt>
      <trkpt lat="40.38856227882206439971923828125" lon="-1.40775798819959163665771484375">
        <ele>1321.800048828125</ele>
        <time>2022-05-05T10:13:09.000Z</time>
      </trkpt>
      <trkpt lat="40.3884909488260746002197265625" lon="-1.4076070301234722137451171875">
        <ele>1322</ele>
        <time>2022-05-05T10:13:14.000Z</time>
      </trkpt>
      <trkpt lat="40.38844577036798000335693359375" lon="-1.40747702680528163909912109375">
        <ele>1321.800048828125</ele>
        <time>2022-05-05T10:13:18.000Z</time>
      </trkpt>
      <trkpt lat="40.388407297432422637939453125" lon="-1.4073998294770717620849609375">
        <ele>1321.5999755859375</ele>
        <time>2022-05-05T10:13:21.000Z</time>
      </trkpt>
      <trkpt lat="40.38829020224511623382568359375" lon="-1.40722506679594516754150390625">
        <ele>1320.800048828125</ele>
        <time>2022-05-05T10:13:28.000Z</time>
      </trkpt>
      <trkpt lat="40.38825181312859058380126953125" lon="-1.4071537367999553680419921875">
        <ele>1320.5999755859375</ele>
        <time>2022-05-05T10:13:30.000Z</time>
      </trkpt>
      <trkpt lat="40.38819649256765842437744140625" lon="-1.40706874430179595947265625">
        <ele>1320.199951171875</ele>
        <time>2022-05-05T10:13:33.000Z</time>
      </trkpt>
      <trkpt lat="40.3881419263780117034912109375" lon="-1.4069086499512195587158203125">
        <ele>1319.5999755859375</ele>
        <time>2022-05-05T10:13:39.000Z</time>
      </trkpt>
      <trkpt lat="40.38806640543043613433837890625" lon="-1.4067701809108257293701171875">
        <ele>1319</ele>
        <time>2022-05-05T10:13:45.000Z</time>
      </trkpt>
      <trkpt lat="40.38805265910923480987548828125" lon="-1.4067517407238483428955078125">
        <ele>1318.800048828125</ele>
        <time>2022-05-05T10:13:46.000Z</time>
      </trkpt>
      <trkpt lat="40.3879903815686702728271484375" lon="-1.4066588692367076873779296875">
        <ele>1318.199951171875</ele>
        <time>2022-05-05T10:13:50.000Z</time>
      </trkpt>
      <trkpt lat="40.387853421270847320556640625" lon="-1.40643767081201076507568359375">
        <ele>1318.5999755859375</ele>
        <time>2022-05-05T10:13:58.000Z</time>
      </trkpt>
      <trkpt lat="40.387798435986042022705078125" lon="-1.40632736496627330780029296875">
        <ele>1319.4000244140625</ele>
        <time>2022-05-05T10:14:02.000Z</time>
      </trkpt>
      <trkpt lat="40.38775174878537654876708984375" lon="-1.40622912906110286712646484375">
        <ele>1320</ele>
        <time>2022-05-05T10:14:05.000Z</time>
      </trkpt>
      <trkpt lat="40.387637503445148468017578125" lon="-1.40603072941303253173828125">
        <ele>1321.4000244140625</ele>
        <time>2022-05-05T10:14:11.000Z</time>
      </trkpt>
      <trkpt lat="40.38749073632061481475830078125" lon="-1.40581615269184112548828125">
        <ele>1321</ele>
        <time>2022-05-05T10:14:17.000Z</time>
      </trkpt>
      <trkpt lat="40.38733785040676593780517578125" lon="-1.4055413939058780670166015625">
        <ele>1321.5999755859375</ele>
        <time>2022-05-05T10:14:24.000Z</time>
      </trkpt>
      <trkpt lat="40.3872346691787242889404296875" lon="-1.405398733913898468017578125">
        <ele>1322.199951171875</ele>
        <time>2022-05-05T10:14:29.000Z</time>
      </trkpt>
      <trkpt lat="40.3872158937156200408935546875" lon="-1.40537736006081104278564453125">
        <ele>1322.199951171875</ele>
        <time>2022-05-05T10:14:30.000Z</time>
      </trkpt>
      <trkpt lat="40.3870911709964275360107421875" lon="-1.4052832312881946563720703125">
        <ele>1322.800048828125</ele>
        <time>2022-05-05T10:14:36.000Z</time>
      </trkpt>
      <trkpt lat="40.386999137699604034423828125" lon="-1.4052346162497997283935546875">
        <ele>1323.199951171875</ele>
        <time>2022-05-05T10:14:40.000Z</time>
      </trkpt>
      <trkpt lat="40.3869198448956012725830078125" lon="-1.4052025973796844482421875">
        <ele>1323.4000244140625</ele>
        <time>2022-05-05T10:14:43.000Z</time>
      </trkpt>
      <trkpt lat="40.3867555595934391021728515625" lon="-1.4051382243633270263671875">
        <ele>1324</ele>
        <time>2022-05-05T10:14:49.000Z</time>
      </trkpt>
      <trkpt lat="40.38672127760946750640869140625" lon="-1.40512682497501373291015625">
        <ele>1323.800048828125</ele>
        <time>2022-05-05T10:14:50.000Z</time>
      </trkpt>
      <trkpt lat="40.38654928095638751983642578125" lon="-1.40504409559071063995361328125">
        <ele>1323.800048828125</ele>
        <time>2022-05-05T10:14:56.000Z</time>
      </trkpt>
      <trkpt lat="40.38649831898510456085205078125" lon="-1.40501861460506916046142578125">
        <ele>1323.800048828125</ele>
        <time>2022-05-05T10:14:58.000Z</time>
      </trkpt>
      <trkpt lat="40.38636521436274051666259765625" lon="-1.40494703315198421478271484375">
        <ele>1323.5999755859375</ele>
        <time>2022-05-05T10:15:03.000Z</time>
      </trkpt>
      <trkpt lat="40.38627787493169307708740234375" lon="-1.4048949815332889556884765625">
        <ele>1323.800048828125</ele>
        <time>2022-05-05T10:15:06.000Z</time>
      </trkpt>
      <trkpt lat="40.38616455160081386566162109375" lon="-1.4048627950251102447509765625">
        <ele>1324.4000244140625</ele>
        <time>2022-05-05T10:15:10.000Z</time>
      </trkpt>
      <trkpt lat="40.38608618080615997314453125" lon="-1.404839493334293365478515625">
        <ele>1324.800048828125</ele>
        <time>2022-05-05T10:15:13.000Z</time>
      </trkpt>
      <trkpt lat="40.38598668761551380157470703125" lon="-1.4047895371913909912109375">
        <ele>1325.4000244140625</ele>
        <time>2022-05-05T10:15:17.000Z</time>
      </trkpt>
      <trkpt lat="40.3858816623687744140625" lon="-1.404739581048488616943359375">
        <ele>1326</ele>
        <time>2022-05-05T10:15:21.000Z</time>
      </trkpt>
      <trkpt lat="40.3858308680355548858642578125" lon="-1.40471803955733776092529296875">
        <ele>1326.4000244140625</ele>
        <time>2022-05-05T10:15:23.000Z</time>
      </trkpt>
      <trkpt lat="40.38566398434340953826904296875" lon="-1.4046317897737026214599609375">
        <ele>1327.4000244140625</ele>
        <time>2022-05-05T10:15:30.000Z</time>
      </trkpt>
      <trkpt lat="40.38544001989066600799560546875" lon="-1.40452056191861629486083984375">
        <ele>1328.4000244140625</ele>
        <time>2022-05-05T10:15:38.000Z</time>
      </trkpt>
      <trkpt lat="40.385265089571475982666015625" lon="-1.40444713644683361053466796875">
        <ele>1328.199951171875</ele>
        <time>2022-05-05T10:15:43.000Z</time>
      </trkpt>
      <trkpt lat="40.385043136775493621826171875" lon="-1.404327861964702606201171875">
        <ele>1328</ele>
        <time>2022-05-05T10:15:49.000Z</time>
      </trkpt>
      <trkpt lat="40.38485546596348285675048828125" lon="-1.404234655201435089111328125">
        <ele>1327.4000244140625</ele>
        <time>2022-05-05T10:15:54.000Z</time>
      </trkpt>
      <trkpt lat="40.38463602773845195770263671875" lon="-1.4040950126945972442626953125">
        <ele>1326.800048828125</ele>
        <time>2022-05-05T10:16:01.000Z</time>
      </trkpt>
      <trkpt lat="40.38444978184998035430908203125" lon="-1.4040071703493595123291015625">
        <ele>1327.199951171875</ele>
        <time>2022-05-05T10:16:06.000Z</time>
      </trkpt>
      <trkpt lat="40.38438037969172000885009765625" lon="-1.40398847870528697967529296875">
        <ele>1327.4000244140625</ele>
        <time>2022-05-05T10:16:08.000Z</time>
      </trkpt>
      <trkpt lat="40.38423587568104267120361328125" lon="-1.40397422946989536285400390625">
        <ele>1327.5999755859375</ele>
        <time>2022-05-05T10:16:13.000Z</time>
      </trkpt>
      <trkpt lat="40.38420218043029308319091796875" lon="-1.40397674404084682464599609375">
        <ele>1327.5999755859375</ele>
        <time>2022-05-05T10:16:14.000Z</time>
      </trkpt>
      <trkpt lat="40.3841699101030826568603515625" lon="-1.4039793424308300018310546875">
        <ele>1327.5999755859375</ele>
        <time>2022-05-05T10:16:15.000Z</time>
      </trkpt>
      <trkpt lat="40.3840545751154422760009765625" lon="-1.40397942624986171722412109375">
        <ele>1327.800048828125</ele>
        <time>2022-05-05T10:16:19.000Z</time>
      </trkpt>
      <trkpt lat="40.38393094204366207122802734375" lon="-1.403983868658542633056640625">
        <ele>1327.800048828125</ele>
        <time>2022-05-05T10:16:23.000Z</time>
      </trkpt>
      <trkpt lat="40.38377051241695880889892578125" lon="-1.4039964415132999420166015625">
        <ele>1328</ele>
        <time>2022-05-05T10:16:28.000Z</time>
      </trkpt>
      <trkpt lat="40.38362030871212482452392578125" lon="-1.4040036499500274658203125">
        <ele>1328.199951171875</ele>
        <time>2022-05-05T10:16:33.000Z</time>
      </trkpt>
      <trkpt lat="40.38331839255988597869873046875" lon="-1.404046230018138885498046875">
        <ele>1328.5999755859375</ele>
        <time>2022-05-05T10:16:42.000Z</time>
      </trkpt>
      <trkpt lat="40.383215881884098052978515625" lon="-1.40406106598675251007080078125">
        <ele>1328.800048828125</ele>
        <time>2022-05-05T10:16:45.000Z</time>
      </trkpt>
      <trkpt lat="40.38310834206640720367431640625" lon="-1.40406542457640171051025390625">
        <ele>1329</ele>
        <time>2022-05-05T10:16:48.000Z</time>
      </trkpt>
      <trkpt lat="40.3829907439649105072021484375" lon="-1.4040725491940975189208984375">
        <ele>1329</ele>
        <time>2022-05-05T10:16:52.000Z</time>
      </trkpt>
      <trkpt lat="40.38290910422801971435546875" lon="-1.4040805958211421966552734375">
        <ele>1329.5999755859375</ele>
        <time>2022-05-05T10:16:55.000Z</time>
      </trkpt>
      <trkpt lat="40.38272847421467304229736328125" lon="-1.40405855141580104827880859375">
        <ele>1330.5999755859375</ele>
        <time>2022-05-05T10:17:01.000Z</time>
      </trkpt>
      <trkpt lat="40.38264700211584568023681640625" lon="-1.40402250923216342926025390625">
        <ele>1331</ele>
        <time>2022-05-05T10:17:04.000Z</time>
      </trkpt>
      <trkpt lat="40.3824995644390583038330078125" lon="-1.40395109541714191436767578125">
        <ele>1332</ele>
        <time>2022-05-05T10:17:09.000Z</time>
      </trkpt>
      <trkpt lat="40.382476933300495147705078125" lon="-1.40393617562949657440185546875">
        <ele>1332.199951171875</ele>
        <time>2022-05-05T10:17:10.000Z</time>
      </trkpt>
      <trkpt lat="40.382344163954257965087890625" lon="-1.403854787349700927734375">
        <ele>1333.199951171875</ele>
        <time>2022-05-05T10:17:15.000Z</time>
      </trkpt>
      <trkpt lat="40.38221030496060848236083984375" lon="-1.40378647483885288238525390625">
        <ele>1333.800048828125</ele>
        <time>2022-05-05T10:17:20.000Z</time>
      </trkpt>
      <trkpt lat="40.38215682841837406158447265625" lon="-1.4037604071199893951416015625">
        <ele>1334</ele>
        <time>2022-05-05T10:17:22.000Z</time>
      </trkpt>
      <trkpt lat="40.382023639976978302001953125" lon="-1.40369460918009281158447265625">
        <ele>1334.199951171875</ele>
        <time>2022-05-05T10:17:27.000Z</time>
      </trkpt>
      <trkpt lat="40.381948538124561309814453125" lon="-1.4036591537296772003173828125">
        <ele>1334.4000244140625</ele>
        <time>2022-05-05T10:17:30.000Z</time>
      </trkpt>
      <trkpt lat="40.38179330527782440185546875" lon="-1.40356653369963169097900390625">
        <ele>1334.800048828125</ele>
        <time>2022-05-05T10:17:36.000Z</time>
      </trkpt>
      <trkpt lat="40.3817666508257389068603515625" lon="-1.403550021350383758544921875">
        <ele>1335</ele>
        <time>2022-05-05T10:17:37.000Z</time>
      </trkpt>
      <trkpt lat="40.38156020455062389373779296875" lon="-1.4034377038478851318359375">
        <ele>1335.800048828125</ele>
        <time>2022-05-05T10:17:45.000Z</time>
      </trkpt>
      <trkpt lat="40.3815336339175701141357421875" lon="-1.40342605300247669219970703125">
        <ele>1335.800048828125</ele>
        <time>2022-05-05T10:17:46.000Z</time>
      </trkpt>
      <trkpt lat="40.38137345574796199798583984375" lon="-1.4033396355807781219482421875">
        <ele>1336.5999755859375</ele>
        <time>2022-05-05T10:17:52.000Z</time>
      </trkpt>
      <trkpt lat="40.381294079124927520751953125" lon="-1.4032970555126667022705078125">
        <ele>1336.800048828125</ele>
        <time>2022-05-05T10:17:55.000Z</time>
      </trkpt>
      <trkpt lat="40.38114714436233043670654296875" lon="-1.40320678241550922393798828125">
        <ele>1337.4000244140625</ele>
        <time>2022-05-05T10:18:01.000Z</time>
      </trkpt>
      <trkpt lat="40.38106952793896198272705078125" lon="-1.40316436998546123504638671875">
        <ele>1337.800048828125</ele>
        <time>2022-05-05T10:18:04.000Z</time>
      </trkpt>
      <trkpt lat="40.38096559233963489532470703125" lon="-1.4031183533370494842529296875">
        <ele>1338.199951171875</ele>
        <time>2022-05-05T10:18:08.000Z</time>
      </trkpt>
      <trkpt lat="40.38086383603513240814208984375" lon="-1.40306378714740276336669921875">
        <ele>1338.5999755859375</ele>
        <time>2022-05-05T10:18:12.000Z</time>
      </trkpt>
      <trkpt lat="40.3807832859456539154052734375" lon="-1.40301047824323177337646484375">
        <ele>1339</ele>
        <time>2022-05-05T10:18:15.000Z</time>
      </trkpt>
      <trkpt lat="40.380732156336307525634765625" lon="-1.40297837555408477783203125">
        <ele>1339</ele>
        <time>2022-05-05T10:18:17.000Z</time>
      </trkpt>
      <trkpt lat="40.38067893125116825103759765625" lon="-1.4029520563781261444091796875">
        <ele>1339.199951171875</ele>
        <time>2022-05-05T10:18:19.000Z</time>
      </trkpt>
      <trkpt lat="40.38054465316236019134521484375" lon="-1.40288827009499073028564453125">
        <ele>1339.5999755859375</ele>
        <time>2022-05-05T10:18:24.000Z</time>
      </trkpt>
      <trkpt lat="40.38046686910092830657958984375" lon="-1.40284719876945018768310546875">
        <ele>1339.5999755859375</ele>
        <time>2022-05-05T10:18:27.000Z</time>
      </trkpt>
      <trkpt lat="40.38030736148357391357421875" lon="-1.4027508907020092010498046875">
        <ele>1340.199951171875</ele>
        <time>2022-05-05T10:18:33.000Z</time>
      </trkpt>
      <trkpt lat="40.38025111891329288482666015625" lon="-1.4027287624776363372802734375">
        <ele>1340.4000244140625</ele>
        <time>2022-05-05T10:18:35.000Z</time>
      </trkpt>
      <trkpt lat="40.380093790590763092041015625" lon="-1.4026375673711299896240234375">
        <ele>1340.800048828125</ele>
        <time>2022-05-05T10:18:41.000Z</time>
      </trkpt>
      <trkpt lat="40.3799474425613880157470703125" lon="-1.40256187878549098968505859375">
        <ele>1341.199951171875</ele>
        <time>2022-05-05T10:18:47.000Z</time>
      </trkpt>
      <trkpt lat="40.3797140903770923614501953125" lon="-1.4024253375828266143798828125">
        <ele>1341.800048828125</ele>
        <time>2022-05-05T10:18:56.000Z</time>
      </trkpt>
      <trkpt lat="40.37953346036374568939208984375" lon="-1.40231276862323284149169921875">
        <ele>1342.5999755859375</ele>
        <time>2022-05-05T10:19:03.000Z</time>
      </trkpt>
      <trkpt lat="40.37950999103486537933349609375" lon="-1.40229566954076290130615234375">
        <ele>1342.800048828125</ele>
        <time>2022-05-05T10:19:04.000Z</time>
      </trkpt>
      <trkpt lat="40.379350483417510986328125" lon="-1.40218435786664485931396484375">
        <ele>1343.800048828125</ele>
        <time>2022-05-05T10:19:11.000Z</time>
      </trkpt>
      <trkpt lat="40.3791962563991546630859375" lon="-1.40208184719085693359375">
        <ele>1344.800048828125</ele>
        <time>2022-05-05T10:19:18.000Z</time>
      </trkpt>
      <trkpt lat="40.37915359251201152801513671875" lon="-1.4020461402833461761474609375">
        <ele>1345</ele>
        <time>2022-05-05T10:19:20.000Z</time>
      </trkpt>
      <trkpt lat="40.379074551165103912353515625" lon="-1.40197162516415119171142578125">
        <ele>1345.199951171875</ele>
        <time>2022-05-05T10:19:24.000Z</time>
      </trkpt>
      <trkpt lat="40.37905015982687473297119140625" lon="-1.40191848389804363250732421875">
        <ele>1345.199951171875</ele>
        <time>2022-05-05T10:19:26.000Z</time>
      </trkpt>
      <trkpt lat="40.37903733551502227783203125" lon="-1.4017396979033946990966796875">
        <ele>1344.800048828125</ele>
        <time>2022-05-05T10:19:31.000Z</time>
      </trkpt>
      <trkpt lat="40.37910640239715576171875" lon="-1.40137835405766963958740234375">
        <ele>1344</ele>
        <time>2022-05-05T10:19:38.000Z</time>
      </trkpt>
      <trkpt lat="40.379183851182460784912109375" lon="-1.4010443352162837982177734375">
        <ele>1344.199951171875</ele>
        <time>2022-05-05T10:19:43.000Z</time>
      </trkpt>
      <trkpt lat="40.37922517396509647369384765625" lon="-1.4008475281298160552978515625">
        <ele>1344</ele>
        <time>2022-05-05T10:19:46.000Z</time>
      </trkpt>
      <trkpt lat="40.37932642735540866851806640625" lon="-1.400362215936183929443359375">
        <ele>1344.4000244140625</ele>
        <time>2022-05-05T10:19:54.000Z</time>
      </trkpt>
      <trkpt lat="40.37937537766993045806884765625" lon="-1.40013313852250576019287109375">
        <ele>1344.800048828125</ele>
        <time>2022-05-05T10:19:58.000Z</time>
      </trkpt>
      <trkpt lat="40.3794053010642528533935546875" lon="-1.39995996840298175811767578125">
        <ele>1345.4000244140625</ele>
        <time>2022-05-05T10:20:01.000Z</time>
      </trkpt>
      <trkpt lat="40.379499010741710662841796875" lon="-1.39953332953155040740966796875">
        <ele>1347.800048828125</ele>
        <time>2022-05-05T10:20:09.000Z</time>
      </trkpt>
      <trkpt lat="40.3795166127383708953857421875" lon="-1.3994373567402362823486328125">
        <ele>1348.4000244140625</ele>
        <time>2022-05-05T10:20:11.000Z</time>
      </trkpt>
      <trkpt lat="40.3795544989407062530517578125" lon="-1.3992274738848209381103515625">
        <ele>1349.5999755859375</ele>
        <time>2022-05-05T10:20:16.000Z</time>
      </trkpt>
      <trkpt lat="40.37956614978611469268798828125" lon="-1.39915027655661106109619140625">
        <ele>1350.199951171875</ele>
        <time>2022-05-05T10:20:18.000Z</time>
      </trkpt>
      <trkpt lat="40.37959900684654712677001953125" lon="-1.399003006517887115478515625">
        <ele>1351</ele>
        <time>2022-05-05T10:20:22.000Z</time>
      </trkpt>
      <trkpt lat="40.3796098195016384124755859375" lon="-1.39892932958900928497314453125">
        <ele>1351.4000244140625</ele>
        <time>2022-05-05T10:20:24.000Z</time>
      </trkpt>
      <trkpt lat="40.37963253445923328399658203125" lon="-1.39878549613058567047119140625">
        <ele>1352</ele>
        <time>2022-05-05T10:20:28.000Z</time>
      </trkpt>
      <trkpt lat="40.37964711897075176239013671875" lon="-1.39871634542942047119140625">
        <ele>1352.199951171875</ele>
        <time>2022-05-05T10:20:30.000Z</time>
      </trkpt>
      <trkpt lat="40.3796671517193317413330078125" lon="-1.39858718030154705047607421875">
        <ele>1353</ele>
        <time>2022-05-05T10:20:34.000Z</time>
      </trkpt>
      <trkpt lat="40.37967595271766185760498046875" lon="-1.39845348894596099853515625">
        <ele>1353.800048828125</ele>
        <time>2022-05-05T10:20:38.000Z</time>
      </trkpt>
      <trkpt lat="40.37968785502016544342041015625" lon="-1.398385427892208099365234375">
        <ele>1354.199951171875</ele>
        <time>2022-05-05T10:20:40.000Z</time>
      </trkpt>
      <trkpt lat="40.37971098907291889190673828125" lon="-1.3982246629893779754638671875">
        <ele>1355</ele>
        <time>2022-05-05T10:20:45.000Z</time>
      </trkpt>
      <trkpt lat="40.3797248192131519317626953125" lon="-1.39816490001976490020751953125">
        <ele>1355.4000244140625</ele>
        <time>2022-05-05T10:20:47.000Z</time>
      </trkpt>
      <trkpt lat="40.3797442652285099029541015625" lon="-1.398040764033794403076171875">
        <ele>1355.5999755859375</ele>
        <time>2022-05-05T10:20:51.000Z</time>
      </trkpt>
      <trkpt lat="40.3797541558742523193359375" lon="-1.39792869798839092254638671875">
        <ele>1356.199951171875</ele>
        <time>2022-05-05T10:20:54.000Z</time>
      </trkpt>
      <trkpt lat="40.37976287305355072021484375" lon="-1.39777916483581066131591796875">
        <ele>1357</ele>
        <time>2022-05-05T10:20:58.000Z</time>
      </trkpt>
      <trkpt lat="40.37977536208927631378173828125" lon="-1.3976151309907436370849609375">
        <ele>1357.800048828125</ele>
        <time>2022-05-05T10:21:03.000Z</time>
      </trkpt>
      <trkpt lat="40.37978030741214752197265625" lon="-1.39751563780009746551513671875">
        <ele>1358.199951171875</ele>
        <time>2022-05-05T10:21:06.000Z</time>
      </trkpt>
      <trkpt lat="40.37979346700012683868408203125" lon="-1.39728915877640247344970703125">
        <ele>1359</ele>
        <time>2022-05-05T10:21:13.000Z</time>
      </trkpt>
      <trkpt lat="40.379781983792781829833984375" lon="-1.3971283100545406341552734375">
        <ele>1358</ele>
        <time>2022-05-05T10:21:19.000Z</time>
      </trkpt>
      <trkpt lat="40.37976245395839214324951171875" lon="-1.39693737030029296875">
        <ele>1357</ele>
        <time>2022-05-05T10:21:24.000Z</time>
      </trkpt>
      <trkpt lat="40.3797358833253383636474609375" lon="-1.39683452434837818145751953125">
        <ele>1356.5999755859375</ele>
        <time>2022-05-05T10:21:26.000Z</time>
      </trkpt>
      <trkpt lat="40.37969447672367095947265625" lon="-1.39671315439045429229736328125">
        <ele>1356</ele>
        <time>2022-05-05T10:21:28.000Z</time>
      </trkpt>
      <trkpt lat="40.37967394106090068817138671875" lon="-1.3966481946408748626708984375">
        <ele>1355.800048828125</ele>
        <time>2022-05-05T10:21:29.000Z</time>
      </trkpt>
      <trkpt lat="40.379631780087947845458984375" lon="-1.3965097256004810333251953125">
        <ele>1355.199951171875</ele>
        <time>2022-05-05T10:21:31.000Z</time>
      </trkpt>
      <trkpt lat="40.37957704626023769378662109375" lon="-1.39630730263888835906982421875">
        <ele>1352.199951171875</ele>
        <time>2022-05-05T10:21:34.000Z</time>
      </trkpt>
      <trkpt lat="40.37954955361783504486083984375" lon="-1.39620177447795867919921875">
        <ele>1350.4000244140625</ele>
        <time>2022-05-05T10:21:36.000Z</time>
      </trkpt>
      <trkpt lat="40.37953530438244342803955078125" lon="-1.39613497070968151092529296875">
        <ele>1349.199951171875</ele>
        <time>2022-05-05T10:21:38.000Z</time>
      </trkpt>
      <trkpt lat="40.37953086197376251220703125" lon="-1.39610999263823032379150390625">
        <ele>1348.5999755859375</ele>
        <time>2022-05-05T10:21:40.000Z</time>
      </trkpt>
      <trkpt lat="40.3795320354402065277099609375" lon="-1.39610865153372287750244140625">
        <ele>1348.5999755859375</ele>
        <time>2022-05-05T10:21:41.000Z</time>
      </trkpt>
      <trkpt lat="40.37946774624288082122802734375" lon="-1.39604226686060428619384765625">
        <ele>1348</ele>
        <time>2022-05-05T10:25:08.000Z</time>
      </trkpt>
      <trkpt lat="40.379435978829860687255859375" lon="-1.3960034586489200592041015625">
        <ele>1347.5999755859375</ele>
        <time>2022-05-05T10:25:10.000Z</time>
      </trkpt>
      <trkpt lat="40.37932139821350574493408203125" lon="-1.39583188109099864959716796875">
        <ele>1348.199951171875</ele>
        <time>2022-05-05T10:25:15.000Z</time>
      </trkpt>
      <trkpt lat="40.379207320511341094970703125" lon="-1.3956108503043651580810546875">
        <ele>1350.199951171875</ele>
        <time>2022-05-05T10:25:19.000Z</time>
      </trkpt>
      <trkpt lat="40.3791967593133449554443359375" lon="-1.395540945231914520263671875">
        <ele>1348.800048828125</ele>
        <time>2022-05-05T10:25:20.000Z</time>
      </trkpt>
      <trkpt lat="40.37918309681117534637451171875" lon="-1.39545922167599201202392578125">
        <ele>1347</ele>
        <time>2022-05-05T10:25:21.000Z</time>
      </trkpt>
      <trkpt lat="40.3791514970362186431884765625" lon="-1.39537909068167209625244140625">
        <ele>1346</ele>
        <time>2022-05-05T10:25:22.000Z</time>
      </trkpt>
      <trkpt lat="40.37911671213805675506591796875" lon="-1.3952946849167346954345703125">
        <ele>1345.199951171875</ele>
        <time>2022-05-05T10:25:23.000Z</time>
      </trkpt>
      <trkpt lat="40.3790649957954883575439453125" lon="-1.395109780132770538330078125">
        <ele>1343.5999755859375</ele>
        <time>2022-05-05T10:25:25.000Z</time>
      </trkpt>
      <trkpt lat="40.3790133632719516754150390625" lon="-1.39491691254079341888427734375">
        <ele>1342</ele>
        <time>2022-05-05T10:25:27.000Z</time>
      </trkpt>
      <trkpt lat="40.37895980291068553924560546875" lon="-1.39471423812210559844970703125">
        <ele>1340.199951171875</ele>
        <time>2022-05-05T10:25:29.000Z</time>
      </trkpt>
      <trkpt lat="40.37893381901085376739501953125" lon="-1.394608877599239349365234375">
        <ele>1339</ele>
        <time>2022-05-05T10:25:30.000Z</time>
      </trkpt>
      <trkpt lat="40.37883751094341278076171875" lon="-1.39409716241061687469482421875">
        <ele>1331.5999755859375</ele>
        <time>2022-05-05T10:25:35.000Z</time>
      </trkpt>
      <trkpt lat="40.37882032804191112518310546875" lon="-1.39401988126337528228759765625">
        <ele>1330.5999755859375</ele>
        <time>2022-05-05T10:25:36.000Z</time>
      </trkpt>
      <trkpt lat="40.3787746466696262359619140625" lon="-1.3938389159739017486572265625">
        <ele>1329.4000244140625</ele>
        <time>2022-05-05T10:25:39.000Z</time>
      </trkpt>
      <trkpt lat="40.37871354259550571441650390625" lon="-1.39370908029377460479736328125">
        <ele>1330.199951171875</ele>
        <time>2022-05-05T10:25:43.000Z</time>
      </trkpt>
      <trkpt lat="40.378693677484989166259765625" lon="-1.39368494041264057159423828125">
        <ele>1330.5999755859375</ele>
        <time>2022-05-05T10:25:44.000Z</time>
      </trkpt>
      <trkpt lat="40.37857926450669765472412109375" lon="-1.3935814239084720611572265625">
        <ele>1334.5999755859375</ele>
        <time>2022-05-05T10:25:49.000Z</time>
      </trkpt>
      <trkpt lat="40.37839536555111408233642578125" lon="-1.39347505755722522735595703125">
        <ele>1340.5999755859375</ele>
        <time>2022-05-05T10:25:55.000Z</time>
      </trkpt>
      <trkpt lat="40.37822772748768329620361328125" lon="-1.39335419051349163055419921875">
        <ele>1342.199951171875</ele>
        <time>2022-05-05T10:26:01.000Z</time>
      </trkpt>
      <trkpt lat="40.3781527094542980194091796875" lon="-1.3932930864393711090087890625">
        <ele>1342.800048828125</ele>
        <time>2022-05-05T10:26:04.000Z</time>
      </trkpt>
      <trkpt lat="40.3780346922576427459716796875" lon="-1.393208093941211700439453125">
        <ele>1344.199951171875</ele>
        <time>2022-05-05T10:26:08.000Z</time>
      </trkpt>
      <trkpt lat="40.37795481272041797637939453125" lon="-1.39317682944238185882568359375">
        <ele>1345.5999755859375</ele>
        <time>2022-05-05T10:26:10.000Z</time>
      </trkpt>
      <trkpt lat="40.3778149187564849853515625" lon="-1.3931629993021488189697265625">
        <ele>1348.5999755859375</ele>
        <time>2022-05-05T10:26:13.000Z</time>
      </trkpt>
      <trkpt lat="40.3773562610149383544921875" lon="-1.39320130459964275360107421875">
        <ele>1361.4000244140625</ele>
        <time>2022-05-05T10:26:22.000Z</time>
      </trkpt>
      <trkpt lat="40.3769514150917530059814453125" lon="-1.3931368477642536163330078125">
        <ele>1366.199951171875</ele>
        <time>2022-05-05T10:26:30.000Z</time>
      </trkpt>
      <trkpt lat="40.376549921929836273193359375" lon="-1.392983458936214447021484375">
        <ele>1363.5999755859375</ele>
        <time>2022-05-05T10:26:39.000Z</time>
      </trkpt>
      <trkpt lat="40.37633232772350311279296875" lon="-1.392795033752918243408203125">
        <ele>1359.800048828125</ele>
        <time>2022-05-05T10:26:45.000Z</time>
      </trkpt>
      <trkpt lat="40.3762714751064777374267578125" lon="-1.3927197642624378204345703125">
        <ele>1358.800048828125</ele>
        <time>2022-05-05T10:26:47.000Z</time>
      </trkpt>
      <trkpt lat="40.376142226159572601318359375" lon="-1.39252890832722187042236328125">
        <ele>1356.199951171875</ele>
        <time>2022-05-05T10:26:52.000Z</time>
      </trkpt>
      <trkpt lat="40.37598690949380397796630859375" lon="-1.39227728359401226043701171875">
        <ele>1354</ele>
        <time>2022-05-05T10:26:59.000Z</time>
      </trkpt>
      <trkpt lat="40.37596461363136768341064453125" lon="-1.3922567479312419891357421875">
        <ele>1354.5999755859375</ele>
        <time>2022-05-05T10:27:00.000Z</time>
      </trkpt>
      <trkpt lat="40.3758783638477325439453125" lon="-1.39214769937098026275634765625">
        <ele>1355.800048828125</ele>
        <time>2022-05-05T10:27:04.000Z</time>
      </trkpt>
      <trkpt lat="40.3757896833121776580810546875" lon="-1.39204074628651142120361328125">
        <ele>1357.4000244140625</ele>
        <time>2022-05-05T10:27:08.000Z</time>
      </trkpt>
      <trkpt lat="40.37575137801468372344970703125" lon="-1.39199464581906795501708984375">
        <ele>1357.5999755859375</ele>
        <time>2022-05-05T10:27:10.000Z</time>
      </trkpt>
      <trkpt lat="40.37567652761936187744140625" lon="-1.391902863979339599609375">
        <ele>1357.800048828125</ele>
        <time>2022-05-05T10:27:14.000Z</time>
      </trkpt>
      <trkpt lat="40.3756396472454071044921875" lon="-1.3918626308441162109375">
        <ele>1358</ele>
        <time>2022-05-05T10:27:16.000Z</time>
      </trkpt>
      <trkpt lat="40.37558273412287235260009765625" lon="-1.39179515652358531951904296875">
        <ele>1358.199951171875</ele>
        <time>2022-05-05T10:27:19.000Z</time>
      </trkpt>
      <trkpt lat="40.375503860414028167724609375" lon="-1.391672529280185699462890625">
        <ele>1358</ele>
        <time>2022-05-05T10:27:24.000Z</time>
      </trkpt>
      <trkpt lat="40.3754882700741291046142578125" lon="-1.3916519097983837127685546875">
        <ele>1358</ele>
        <time>2022-05-05T10:27:25.000Z</time>
      </trkpt>
      <trkpt lat="40.37544317543506622314453125" lon="-1.3915573619306087493896484375">
        <ele>1358</ele>
        <time>2022-05-05T10:27:29.000Z</time>
      </trkpt>
      <trkpt lat="40.3754329495131969451904296875" lon="-1.3915281929075717926025390625">
        <ele>1357.800048828125</ele>
        <time>2022-05-05T10:27:30.000Z</time>
      </trkpt>
      <trkpt lat="40.37542046047747135162353515625" lon="-1.39133851043879985809326171875">
        <ele>1358.199951171875</ele>
        <time>2022-05-05T10:27:35.000Z</time>
      </trkpt>
      <trkpt lat="40.3754259087145328521728515625" lon="-1.391303054988384246826171875">
        <ele>1358.199951171875</ele>
        <time>2022-05-05T10:27:36.000Z</time>
      </trkpt>
      <trkpt lat="40.3755060397088527679443359375" lon="-1.39109292067587375640869140625">
        <ele>1356.800048828125</ele>
        <time>2022-05-05T10:27:43.000Z</time>
      </trkpt>
      <trkpt lat="40.37559614516794681549072265625" lon="-1.390941627323627471923828125">
        <ele>1355.800048828125</ele>
        <time>2022-05-05T10:27:49.000Z</time>
      </trkpt>
      <trkpt lat="40.37567376159131526947021484375" lon="-1.39077105559408664703369140625">
        <ele>1355.199951171875</ele>
        <time>2022-05-05T10:27:56.000Z</time>
      </trkpt>
      <trkpt lat="40.3757236339151859283447265625" lon="-1.39062504284083843231201171875">
        <ele>1355.4000244140625</ele>
        <time>2022-05-05T10:28:02.000Z</time>
      </trkpt>
      <trkpt lat="40.37577853538095951080322265625" lon="-1.39046243391931056976318359375">
        <ele>1357.5999755859375</ele>
        <time>2022-05-05T10:28:08.000Z</time>
      </trkpt>
      <trkpt lat="40.3757965564727783203125" lon="-1.39040417969226837158203125">
        <ele>1358.5999755859375</ele>
        <time>2022-05-05T10:28:10.000Z</time>
      </trkpt>
      <trkpt lat="40.375832431018352508544921875" lon="-1.39020276255905628204345703125">
        <ele>1361.199951171875</ele>
        <time>2022-05-05T10:28:17.000Z</time>
      </trkpt>
      <trkpt lat="40.3758332692086696624755859375" lon="-1.39012028463184833526611328125">
        <ele>1362.199951171875</ele>
        <time>2022-05-05T10:28:20.000Z</time>
      </trkpt>
      <trkpt lat="40.37582404911518096923828125" lon="-1.3900052011013031005859375">
        <ele>1364</ele>
        <time>2022-05-05T10:28:24.000Z</time>
      </trkpt>
      <trkpt lat="40.37579990923404693603515625" lon="-1.38978232629597187042236328125">
        <ele>1366.800048828125</ele>
        <time>2022-05-05T10:28:31.000Z</time>
      </trkpt>
      <trkpt lat="40.3757952153682708740234375" lon="-1.389719545841217041015625">
        <ele>1367.199951171875</ele>
        <time>2022-05-05T10:28:33.000Z</time>
      </trkpt>
      <trkpt lat="40.37578842602670192718505859375" lon="-1.38957998715341091156005859375">
        <ele>1367.800048828125</ele>
        <time>2022-05-05T10:28:38.000Z</time>
      </trkpt>
      <trkpt lat="40.3757859952747821807861328125" lon="-1.38946750201284885406494140625">
        <ele>1368</ele>
        <time>2022-05-05T10:28:42.000Z</time>
      </trkpt>
      <trkpt lat="40.37577979266643524169921875" lon="-1.38938318006694316864013671875">
        <ele>1367.800048828125</ele>
        <time>2022-05-05T10:28:45.000Z</time>
      </trkpt>
      <trkpt lat="40.3757107257843017578125" lon="-1.38917430303990840911865234375">
        <ele>1367.800048828125</ele>
        <time>2022-05-05T10:28:51.000Z</time>
      </trkpt>
      <trkpt lat="40.3755269944667816162109375" lon="-1.38894547708332538604736328125">
        <ele>1368.199951171875</ele>
        <time>2022-05-05T10:28:57.000Z</time>
      </trkpt>
      <trkpt lat="40.3752592764794826507568359375" lon="-1.38872318901121616363525390625">
        <ele>1368.199951171875</ele>
        <time>2022-05-05T10:29:02.000Z</time>
      </trkpt>
      <trkpt lat="40.3750423528254032135009765625" lon="-1.38855345547199249267578125">
        <ele>1368.4000244140625</ele>
        <time>2022-05-05T10:29:05.000Z</time>
      </trkpt>
      <trkpt lat="40.3749638982117176055908203125" lon="-1.38848480768501758575439453125">
        <ele>1367.199951171875</ele>
        <time>2022-05-05T10:29:06.000Z</time>
      </trkpt>
      <trkpt lat="40.374887287616729736328125" lon="-1.38841020874679088592529296875">
        <ele>1365.800048828125</ele>
        <time>2022-05-05T10:29:07.000Z</time>
      </trkpt>
      <trkpt lat="40.37474253214895725250244140625" lon="-1.3882387988269329071044921875">
        <ele>1362.5999755859375</ele>
        <time>2022-05-05T10:29:09.000Z</time>
      </trkpt>
      <trkpt lat="40.37460339255630970001220703125" lon="-1.388040147721767425537109375">
        <ele>1360</ele>
        <time>2022-05-05T10:29:11.000Z</time>
      </trkpt>
      <trkpt lat="40.37445880472660064697265625" lon="-1.38785951770842075347900390625">
        <ele>1359.5999755859375</ele>
        <time>2022-05-05T10:29:13.000Z</time>
      </trkpt>
      <trkpt lat="40.3742909990251064300537109375" lon="-1.3877033628523349761962890625">
        <ele>1360</ele>
        <time>2022-05-05T10:29:15.000Z</time>
      </trkpt>
      <trkpt lat="40.37402118556201457977294921875" lon="-1.387467496097087860107421875">
        <ele>1358.5999755859375</ele>
        <time>2022-05-05T10:29:18.000Z</time>
      </trkpt>
      <trkpt lat="40.3738420642912387847900390625" lon="-1.38728904537856578826904296875">
        <ele>1357.199951171875</ele>
        <time>2022-05-05T10:29:20.000Z</time>
      </trkpt>
      <trkpt lat="40.37375698797404766082763671875" lon="-1.38719768263399600982666015625">
        <ele>1357.199951171875</ele>
        <time>2022-05-05T10:29:21.000Z</time>
      </trkpt>
      <trkpt lat="40.373680628836154937744140625" lon="-1.38710883446037769317626953125">
        <ele>1357</ele>
        <time>2022-05-05T10:29:22.000Z</time>
      </trkpt>
      <trkpt lat="40.37353822030127048492431640625" lon="-1.3869367539882659912109375">
        <ele>1356.800048828125</ele>
        <time>2022-05-05T10:29:24.000Z</time>
      </trkpt>
      <trkpt lat="40.37347720004618167877197265625" lon="-1.38685788027942180633544921875">
        <ele>1356.5999755859375</ele>
        <time>2022-05-05T10:29:25.000Z</time>
      </trkpt>
      <trkpt lat="40.37343780510127544403076171875" lon="-1.38681177981197834014892578125">
        <ele>1356.4000244140625</ele>
        <time>2022-05-05T10:29:26.000Z</time>
      </trkpt>
      <trkpt lat="40.37341550923883914947509765625" lon="-1.3867867179214954376220703125">
        <ele>1356.4000244140625</ele>
        <time>2022-05-05T10:29:27.000Z</time>
      </trkpt>
      <trkpt lat="40.3734045289456844329833984375" lon="-1.3867622427642345428466796875">
        <ele>1356.199951171875</ele>
        <time>2022-05-05T10:29:28.000Z</time>
      </trkpt>
      <trkpt lat="40.37343696691095829010009765625" lon="-1.3867221772670745849609375">
        <ele>1355</ele>
        <time>2022-05-05T10:29:30.000Z</time>
      </trkpt>
      <trkpt lat="40.373551882803440093994140625" lon="-1.38672309927642345428466796875">
        <ele>1353.199951171875</ele>
        <time>2022-05-05T10:29:33.000Z</time>
      </trkpt>
      <trkpt lat="40.37365472875535488128662109375" lon="-1.3867972791194915771484375">
        <ele>1352.5999755859375</ele>
        <time>2022-05-05T10:29:35.000Z</time>
      </trkpt>
      <trkpt lat="40.37371373735368251800537109375" lon="-1.38684262521564960479736328125">
        <ele>1352.4000244140625</ele>
        <time>2022-05-05T10:29:36.000Z</time>
      </trkpt>
      <trkpt lat="40.373775176703929901123046875" lon="-1.3868879713118076324462890625">
        <ele>1352</ele>
        <time>2022-05-05T10:29:37.000Z</time>
      </trkpt>
      <trkpt lat="40.37384013645350933074951171875" lon="-1.3869328983128070831298828125">
        <ele>1351.800048828125</ele>
        <time>2022-05-05T10:29:38.000Z</time>
      </trkpt>
      <trkpt lat="40.37398095242679119110107421875" lon="-1.38702115975320339202880859375">
        <ele>1351.5999755859375</ele>
        <time>2022-05-05T10:29:40.000Z</time>
      </trkpt>
      <trkpt lat="40.37411950528621673583984375" lon="-1.38709793798625469207763671875">
        <ele>1351</ele>
        <time>2022-05-05T10:29:42.000Z</time>
      </trkpt>
      <trkpt lat="40.37419167347252368927001953125" lon="-1.387131214141845703125">
        <ele>1350.5999755859375</ele>
        <time>2022-05-05T10:29:43.000Z</time>
      </trkpt>
      <trkpt lat="40.3742655180394649505615234375" lon="-1.3871649093925952911376953125">
        <ele>1350</ele>
        <time>2022-05-05T10:29:44.000Z</time>
      </trkpt>
      <trkpt lat="40.374495685100555419921875" lon="-1.38727395795285701751708984375">
        <ele>1348.4000244140625</ele>
        <time>2022-05-05T10:29:47.000Z</time>
      </trkpt>
      <trkpt lat="40.374658964574337005615234375" lon="-1.387352161109447479248046875">
        <ele>1347.5999755859375</ele>
        <time>2022-05-05T10:29:49.000Z</time>
      </trkpt>
      <trkpt lat="40.37481327541172504425048828125" lon="-1.3874227367341518402099609375">
        <ele>1347.5999755859375</ele>
        <time>2022-05-05T10:29:51.000Z</time>
      </trkpt>
      <trkpt lat="40.37504293955862522125244140625" lon="-1.3875323720276355743408203125">
        <ele>1347.800048828125</ele>
        <time>2022-05-05T10:29:54.000Z</time>
      </trkpt>
      <trkpt lat="40.3751219809055328369140625" lon="-1.38756372034549713134765625">
        <ele>1347.800048828125</ele>
        <time>2022-05-05T10:29:55.000Z</time>
      </trkpt>
      <trkpt lat="40.37527143023908138275146484375" lon="-1.38760931789875030517578125">
        <ele>1347.800048828125</ele>
        <time>2022-05-05T10:29:57.000Z</time>
      </trkpt>
      <trkpt lat="40.37542171776294708251953125" lon="-1.38762884773313999176025390625">
        <ele>1347.5999755859375</ele>
        <time>2022-05-05T10:29:59.000Z</time>
      </trkpt>
      <trkpt lat="40.37549405358731746673583984375" lon="-1.38763354159891605377197265625">
        <ele>1347.5999755859375</ele>
        <time>2022-05-05T10:30:00.000Z</time>
      </trkpt>
      <trkpt lat="40.37574668414890766143798828125" lon="-1.3876440189778804779052734375">
        <ele>1347.800048828125</ele>
        <time>2022-05-05T10:30:04.000Z</time>
      </trkpt>
      <trkpt lat="40.37595153786242008209228515625" lon="-1.3876591064035892486572265625">
        <ele>1348</ele>
        <time>2022-05-05T10:30:08.000Z</time>
      </trkpt>
      <trkpt lat="40.3760367818176746368408203125" lon="-1.3876644708216190338134765625">
        <ele>1347.800048828125</ele>
        <time>2022-05-05T10:30:10.000Z</time>
      </trkpt>
      <trkpt lat="40.37611305713653564453125" lon="-1.38767075724899768829345703125">
        <ele>1347.4000244140625</ele>
        <time>2022-05-05T10:30:12.000Z</time>
      </trkpt>
      <trkpt lat="40.37620618008077144622802734375" lon="-1.38767779804766178131103515625">
        <ele>1346.800048828125</ele>
        <time>2022-05-05T10:30:15.000Z</time>
      </trkpt>
      <trkpt lat="40.37623819895088672637939453125" lon="-1.387680061161518096923828125">
        <ele>1346.800048828125</ele>
        <time>2022-05-05T10:30:16.000Z</time>
      </trkpt>
      <trkpt lat="40.3764086030423641204833984375" lon="-1.3876969926059246063232421875">
        <ele>1345.199951171875</ele>
        <time>2022-05-05T10:30:21.000Z</time>
      </trkpt>
      <trkpt lat="40.376507677137851715087890625" lon="-1.38771803118288516998291015625">
        <ele>1344.199951171875</ele>
        <time>2022-05-05T10:30:24.000Z</time>
      </trkpt>
      <trkpt lat="40.376575402915477752685546875" lon="-1.3877358846366405487060546875">
        <ele>1343.5999755859375</ele>
        <time>2022-05-05T10:30:26.000Z</time>
      </trkpt>
      <trkpt lat="40.37676240317523479461669921875" lon="-1.38782883994281291961669921875">
        <ele>1341.5999755859375</ele>
        <time>2022-05-05T10:30:30.000Z</time>
      </trkpt>
      <trkpt lat="40.37687539122998714447021484375" lon="-1.38788986019790172576904296875">
        <ele>1339.5999755859375</ele>
        <time>2022-05-05T10:30:32.000Z</time>
      </trkpt>
      <trkpt lat="40.37704973481595516204833984375" lon="-1.38798709027469158172607421875">
        <ele>1336.800048828125</ele>
        <time>2022-05-05T10:30:35.000Z</time>
      </trkpt>
      <trkpt lat="40.3772913850843906402587890625" lon="-1.38812421821057796478271484375">
        <ele>1335.5999755859375</ele>
        <time>2022-05-05T10:30:39.000Z</time>
      </trkpt>
      <trkpt lat="40.37742742337286472320556640625" lon="-1.38819999061524868011474609375">
        <ele>1335.5999755859375</ele>
        <time>2022-05-05T10:30:41.000Z</time>
      </trkpt>
      <trkpt lat="40.37749514915049076080322265625" lon="-1.38824089430272579193115234375">
        <ele>1335.4000244140625</ele>
        <time>2022-05-05T10:30:42.000Z</time>
      </trkpt>
      <trkpt lat="40.37756145000457763671875" lon="-1.38827727176249027252197265625">
        <ele>1335.4000244140625</ele>
        <time>2022-05-05T10:30:43.000Z</time>
      </trkpt>
      <trkpt lat="40.37779589183628559112548828125" lon="-1.3883950375020503997802734375">
        <ele>1334.199951171875</ele>
        <time>2022-05-05T10:30:47.000Z</time>
      </trkpt>
      <trkpt lat="40.3778455965220928192138671875" lon="-1.388426721096038818359375">
        <ele>1332.800048828125</ele>
        <time>2022-05-05T10:30:48.000Z</time>
      </trkpt>
      <trkpt lat="40.37794156931340694427490234375" lon="-1.38855990953743457794189453125">
        <ele>1328.800048828125</ele>
        <time>2022-05-05T10:30:51.000Z</time>
      </trkpt>
      <trkpt lat="40.37794743664562702178955078125" lon="-1.388673149049282073974609375">
        <ele>1327</ele>
        <time>2022-05-05T10:30:53.000Z</time>
      </trkpt>
      <trkpt lat="40.37793016992509365081787109375" lon="-1.38873391784727573394775390625">
        <ele>1326.5999755859375</ele>
        <time>2022-05-05T10:30:54.000Z</time>
      </trkpt>
      <trkpt lat="40.377819947898387908935546875" lon="-1.388909518718719482421875">
        <ele>1326.199951171875</ele>
        <time>2022-05-05T10:30:57.000Z</time>
      </trkpt>
      <trkpt lat="40.37777527235448360443115234375" lon="-1.3889593072235584259033203125">
        <ele>1326.4000244140625</ele>
        <time>2022-05-05T10:30:58.000Z</time>
      </trkpt>
      <trkpt lat="40.37773285992443561553955078125" lon="-1.38901077210903167724609375">
        <ele>1326.800048828125</ele>
        <time>2022-05-05T10:30:59.000Z</time>
      </trkpt>
      <trkpt lat="40.37766999565064907073974609375" lon="-1.38912552036345005035400390625">
        <ele>1326.800048828125</ele>
        <time>2022-05-05T10:31:01.000Z</time>
      </trkpt>
      <trkpt lat="40.37765490822494029998779296875" lon="-1.389188468456268310546875">
        <ele>1326.4000244140625</ele>
        <time>2022-05-05T10:31:02.000Z</time>
      </trkpt>
      <trkpt lat="40.37765105254948139190673828125" lon="-1.38926482759416103363037109375">
        <ele>1325.5999755859375</ele>
        <time>2022-05-05T10:31:03.000Z</time>
      </trkpt>
      <trkpt lat="40.37764920853078365325927734375" lon="-1.38934814371168613433837890625">
        <ele>1324.5999755859375</ele>
        <time>2022-05-05T10:31:04.000Z</time>
      </trkpt>
      <trkpt lat="40.3776457719504833221435546875" lon="-1.38943498022854328155517578125">
        <ele>1323.199951171875</ele>
        <time>2022-05-05T10:31:05.000Z</time>
      </trkpt>
      <trkpt lat="40.37763009779155254364013671875" lon="-1.389622651040554046630859375">
        <ele>1320.4000244140625</ele>
        <time>2022-05-05T10:31:07.000Z</time>
      </trkpt>
      <trkpt lat="40.37761249579489231109619140625" lon="-1.3898135907948017120361328125">
        <ele>1317.800048828125</ele>
        <time>2022-05-05T10:31:09.000Z</time>
      </trkpt>
      <trkpt lat="40.37759824655950069427490234375" lon="-1.38991107232868671417236328125">
        <ele>1316.199951171875</ele>
        <time>2022-05-05T10:31:10.000Z</time>
      </trkpt>
      <trkpt lat="40.37757880054414272308349609375" lon="-1.390005536377429962158203125">
        <ele>1315</ele>
        <time>2022-05-05T10:31:11.000Z</time>
      </trkpt>
      <trkpt lat="40.37750788964331150054931640625" lon="-1.39027132652699947357177734375">
        <ele>1311.5999755859375</ele>
        <time>2022-05-05T10:31:14.000Z</time>
      </trkpt>
      <trkpt lat="40.377452485263347625732421875" lon="-1.39044265262782573699951171875">
        <ele>1310.4000244140625</ele>
        <time>2022-05-05T10:31:16.000Z</time>
      </trkpt>
      <trkpt lat="40.37741552107036113739013671875" lon="-1.39052764512598514556884765625">
        <ele>1310</ele>
        <time>2022-05-05T10:31:17.000Z</time>
      </trkpt>
      <trkpt lat="40.37737763486802577972412109375" lon="-1.3906113803386688232421875">
        <ele>1309.800048828125</ele>
        <time>2022-05-05T10:31:18.000Z</time>
      </trkpt>
      <trkpt lat="40.37730001844465732574462890625" lon="-1.39077390544116497039794921875">
        <ele>1310.5999755859375</ele>
        <time>2022-05-05T10:31:20.000Z</time>
      </trkpt>
      <trkpt lat="40.37714964710175991058349609375" lon="-1.39102955348789691925048828125">
        <ele>1313</ele>
        <time>2022-05-05T10:31:23.000Z</time>
      </trkpt>
      <trkpt lat="40.37699458189308643341064453125" lon="-1.39128503389656543731689453125">
        <ele>1316.199951171875</ele>
        <time>2022-05-05T10:31:26.000Z</time>
      </trkpt>
      <trkpt lat="40.3768672607839107513427734375" lon="-1.39153514988720417022705078125">
        <ele>1319.800048828125</ele>
        <time>2022-05-05T10:31:29.000Z</time>
      </trkpt>
      <trkpt lat="40.376836247742176055908203125" lon="-1.39161796309053897857666015625">
        <ele>1321.5999755859375</ele>
        <time>2022-05-05T10:31:30.000Z</time>
      </trkpt>
      <trkpt lat="40.376810096204280853271484375" lon="-1.39187210239470005035400390625">
        <ele>1326.199951171875</ele>
        <time>2022-05-05T10:31:33.000Z</time>
      </trkpt>
      <trkpt lat="40.376830212771892547607421875" lon="-1.391946114599704742431640625">
        <ele>1327.800048828125</ele>
        <time>2022-05-05T10:31:34.000Z</time>
      </trkpt>
      <trkpt lat="40.37689559161663055419921875" lon="-1.3920532353222370147705078125">
        <ele>1329.800048828125</ele>
        <time>2022-05-05T10:31:36.000Z</time>
      </trkpt>
      <trkpt lat="40.37704805843532085418701171875" lon="-1.39210679568350315093994140625">
        <ele>1329</ele>
        <time>2022-05-05T10:31:39.000Z</time>
      </trkpt>
      <trkpt lat="40.3774201311171054840087890625" lon="-1.39221601188182830810546875">
        <ele>1325.199951171875</ele>
        <time>2022-05-05T10:31:46.000Z</time>
      </trkpt>
      <trkpt lat="40.3774771280586719512939453125" lon="-1.3922356255352497100830078125">
        <ele>1324.4000244140625</ele>
        <time>2022-05-05T10:31:47.000Z</time>
      </trkpt>
      <trkpt lat="40.37760126404464244842529296875" lon="-1.3922802172601222991943359375">
        <ele>1323</ele>
        <time>2022-05-05T10:31:49.000Z</time>
      </trkpt>
      <trkpt lat="40.37773269228637218475341796875" lon="-1.39233134686946868896484375">
        <ele>1321.5999755859375</ele>
        <time>2022-05-05T10:31:51.000Z</time>
      </trkpt>
      <trkpt lat="40.37785808555781841278076171875" lon="-1.39238222502171993255615234375">
        <ele>1321</ele>
        <time>2022-05-05T10:31:53.000Z</time>
      </trkpt>
      <trkpt lat="40.3781260550022125244140625" lon="-1.39248196966946125030517578125">
        <ele>1319.4000244140625</ele>
        <time>2022-05-05T10:31:57.000Z</time>
      </trkpt>
      <trkpt lat="40.378445573151111602783203125" lon="-1.39264382421970367431640625">
        <ele>1319.800048828125</ele>
        <time>2022-05-05T10:32:02.000Z</time>
      </trkpt>
      <trkpt lat="40.3787508420646190643310546875" lon="-1.39280232600867748260498046875">
        <ele>1312.199951171875</ele>
        <time>2022-05-05T10:32:07.000Z</time>
      </trkpt>
      <trkpt lat="40.37880574353039264678955078125" lon="-1.392825208604335784912109375">
        <ele>1310.5999755859375</ele>
        <time>2022-05-05T10:32:08.000Z</time>
      </trkpt>
      <trkpt lat="40.37897556088864803314208984375" lon="-1.39287088997662067413330078125">
        <ele>1308.4000244140625</ele>
        <time>2022-05-05T10:32:12.000Z</time>
      </trkpt>
      <trkpt lat="40.37904730997979640960693359375" lon="-1.3928837142884731292724609375">
        <ele>1307.5999755859375</ele>
        <time>2022-05-05T10:32:14.000Z</time>
      </trkpt>
      <trkpt lat="40.37920153699815273284912109375" lon="-1.39292838983237743377685546875">
        <ele>1304.199951171875</ele>
        <time>2022-05-05T10:32:19.000Z</time>
      </trkpt>
      <trkpt lat="40.37932206876575946807861328125" lon="-1.39304037205874919891357421875">
        <ele>1301.5999755859375</ele>
        <time>2022-05-05T10:32:24.000Z</time>
      </trkpt>
      <trkpt lat="40.3793585300445556640625" lon="-1.39327188022434711456298828125">
        <ele>1303.4000244140625</ele>
        <time>2022-05-05T10:32:29.000Z</time>
      </trkpt>
      <trkpt lat="40.37937202490866184234619140625" lon="-1.39338838867843151092529296875">
        <ele>1305.199951171875</ele>
        <time>2022-05-05T10:32:31.000Z</time>
      </trkpt>
      <trkpt lat="40.37940287031233310699462890625" lon="-1.39354932121932506561279296875">
        <ele>1305.199951171875</ele>
        <time>2022-05-05T10:32:33.000Z</time>
      </trkpt>
      <trkpt lat="40.37943840958178043365478515625" lon="-1.39374830760061740875244140625">
        <ele>1304.800048828125</ele>
        <time>2022-05-05T10:32:35.000Z</time>
      </trkpt>
      <trkpt lat="40.3794998489320278167724609375" lon="-1.393958441913127899169921875">
        <ele>1303.5999755859375</ele>
        <time>2022-05-05T10:32:37.000Z</time>
      </trkpt>
      <trkpt lat="40.379568077623844146728515625" lon="-1.39417134225368499755859375">
        <ele>1305</ele>
        <time>2022-05-05T10:32:39.000Z</time>
      </trkpt>
      <trkpt lat="40.37964426912367343902587890625" lon="-1.39437242411077022552490234375">
        <ele>1306</ele>
        <time>2022-05-05T10:32:41.000Z</time>
      </trkpt>
      <trkpt lat="40.3796865977346897125244140625" lon="-1.39446772634983062744140625">
        <ele>1307.5999755859375</ele>
        <time>2022-05-05T10:32:42.000Z</time>
      </trkpt>
      <trkpt lat="40.379870831966400146484375" lon="-1.39479856006801128387451171875">
        <ele>1315</ele>
        <time>2022-05-05T10:32:46.000Z</time>
      </trkpt>
      <trkpt lat="40.379923470318317413330078125" lon="-1.3948584906756877899169921875">
        <ele>1316.800048828125</ele>
        <time>2022-05-05T10:32:47.000Z</time>
      </trkpt>
      <trkpt lat="40.37998474203050136566162109375" lon="-1.394901908934116363525390625">
        <ele>1318</ele>
        <time>2022-05-05T10:32:48.000Z</time>
      </trkpt>
      <trkpt lat="40.38011549971997737884521484375" lon="-1.39494272880256175994873046875">
        <ele>1319.4000244140625</ele>
        <time>2022-05-05T10:32:50.000Z</time>
      </trkpt>
      <trkpt lat="40.38035253994166851043701171875" lon="-1.3948197662830352783203125">
        <ele>1316.800048828125</ele>
        <time>2022-05-05T10:32:54.000Z</time>
      </trkpt>
      <trkpt lat="40.38044281303882598876953125" lon="-1.3946549780666828155517578125">
        <ele>1312.199951171875</ele>
        <time>2022-05-05T10:32:56.000Z</time>
      </trkpt>
      <trkpt lat="40.3804818727076053619384765625" lon="-1.39456789009273052215576171875">
        <ele>1309.800048828125</ele>
        <time>2022-05-05T10:32:57.000Z</time>
      </trkpt>
      <trkpt lat="40.380519926548004150390625" lon="-1.39448918402194976806640625">
        <ele>1307.800048828125</ele>
        <time>2022-05-05T10:32:58.000Z</time>
      </trkpt>
      <trkpt lat="40.3806039132177829742431640625" lon="-1.3943572528660297393798828125">
        <ele>1304.5999755859375</ele>
        <time>2022-05-05T10:33:00.000Z</time>
      </trkpt>
      <trkpt lat="40.38066409528255462646484375" lon="-1.39429681934416294097900390625">
        <ele>1303.199951171875</ele>
        <time>2022-05-05T10:33:01.000Z</time>
      </trkpt>
      <trkpt lat="40.38078739307820796966552734375" lon="-1.39418383128941059112548828125">
        <ele>1300.5999755859375</ele>
        <time>2022-05-05T10:33:03.000Z</time>
      </trkpt>
      <trkpt lat="40.38091085851192474365234375" lon="-1.39409179799258708953857421875">
        <ele>1298.800048828125</ele>
        <time>2022-05-05T10:33:05.000Z</time>
      </trkpt>
      <trkpt lat="40.380970537662506103515625" lon="-1.39406648464500904083251953125">
        <ele>1298.4000244140625</ele>
        <time>2022-05-05T10:33:06.000Z</time>
      </trkpt>
      <trkpt lat="40.3810323961079120635986328125" lon="-1.39405977912247180938720703125">
        <ele>1298.5999755859375</ele>
        <time>2022-05-05T10:33:07.000Z</time>
      </trkpt>
      <trkpt lat="40.38116223178803920745849609375" lon="-1.3940695859491825103759765625">
        <ele>1299.5999755859375</ele>
        <time>2022-05-05T10:33:09.000Z</time>
      </trkpt>
      <trkpt lat="40.3812251798808574676513671875" lon="-1.39407654292881488800048828125">
        <ele>1300.199951171875</ele>
        <time>2022-05-05T10:33:10.000Z</time>
      </trkpt>
      <trkpt lat="40.3813609667122364044189453125" lon="-1.39407084323465824127197265625">
        <ele>1302</ele>
        <time>2022-05-05T10:33:12.000Z</time>
      </trkpt>
      <trkpt lat="40.38150102831423282623291015625" lon="-1.39399356208741664886474609375">
        <ele>1303.199951171875</ele>
        <time>2022-05-05T10:33:14.000Z</time>
      </trkpt>
      <trkpt lat="40.38159205578267574310302734375" lon="-1.39385693706572055816650390625">
        <ele>1303</ele>
        <time>2022-05-05T10:33:16.000Z</time>
      </trkpt>
      <trkpt lat="40.381626002490520477294921875" lon="-1.393782086670398712158203125">
        <ele>1302.4000244140625</ele>
        <time>2022-05-05T10:33:17.000Z</time>
      </trkpt>
      <trkpt lat="40.381691046059131622314453125" lon="-1.39355250634253025054931640625">
        <ele>1299.800048828125</ele>
        <time>2022-05-05T10:33:20.000Z</time>
      </trkpt>
      <trkpt lat="40.3817086480557918548583984375" lon="-1.39348763041198253631591796875">
        <ele>1299.199951171875</ele>
        <time>2022-05-05T10:33:21.000Z</time>
      </trkpt>
      <trkpt lat="40.3817941434681415557861328125" lon="-1.39318839646875858306884765625">
        <ele>1296.199951171875</ele>
        <time>2022-05-05T10:33:26.000Z</time>
      </trkpt>
      <trkpt lat="40.38183965720236301422119140625" lon="-1.39307029545307159423828125">
        <ele>1294.4000244140625</ele>
        <time>2022-05-05T10:33:28.000Z</time>
      </trkpt>
      <trkpt lat="40.381939150393009185791015625" lon="-1.39290668070316314697265625">
        <ele>1292.4000244140625</ele>
        <time>2022-05-05T10:33:31.000Z</time>
      </trkpt>
      <trkpt lat="40.38202858529984951019287109375" lon="-1.39282546006143093109130859375">
        <ele>1292.199951171875</ele>
        <time>2022-05-05T10:33:33.000Z</time>
      </trkpt>
      <trkpt lat="40.38218951784074306488037109375" lon="-1.3927472569048404693603515625">
        <ele>1293.199951171875</ele>
        <time>2022-05-05T10:33:36.000Z</time>
      </trkpt>
      <trkpt lat="40.38231155835092067718505859375" lon="-1.3927093707025051116943359375">
        <ele>1292.5999755859375</ele>
        <time>2022-05-05T10:33:38.000Z</time>
      </trkpt>
      <trkpt lat="40.38250300101935863494873046875" lon="-1.392669975757598876953125">
        <ele>1292.5999755859375</ele>
        <time>2022-05-05T10:33:41.000Z</time>
      </trkpt>
      <trkpt lat="40.38256653584539890289306640625" lon="-1.3926597498357295989990234375">
        <ele>1292.5999755859375</ele>
        <time>2022-05-05T10:33:42.000Z</time>
      </trkpt>
      <trkpt lat="40.38270098157227039337158203125" lon="-1.39264675788581371307373046875">
        <ele>1292.800048828125</ele>
        <time>2022-05-05T10:33:44.000Z</time>
      </trkpt>
      <trkpt lat="40.3828360140323638916015625" lon="-1.3926258869469165802001953125">
        <ele>1292.800048828125</ele>
        <time>2022-05-05T10:33:46.000Z</time>
      </trkpt>
      <trkpt lat="40.38310750387609004974365234375" lon="-1.3925631903111934661865234375">
        <ele>1292.4000244140625</ele>
        <time>2022-05-05T10:33:50.000Z</time>
      </trkpt>
      <trkpt lat="40.38323859684169292449951171875" lon="-1.39250745065510272979736328125">
        <ele>1291.199951171875</ele>
        <time>2022-05-05T10:33:52.000Z</time>
      </trkpt>
      <trkpt lat="40.3834923170506954193115234375" lon="-1.39234609901905059814453125">
        <ele>1287.800048828125</ele>
        <time>2022-05-05T10:33:56.000Z</time>
      </trkpt>
      <trkpt lat="40.38372541777789592742919921875" lon="-1.392095647752285003662109375">
        <ele>1284.5999755859375</ele>
        <time>2022-05-05T10:34:00.000Z</time>
      </trkpt>
      <trkpt lat="40.38378191180527210235595703125" lon="-1.392028592526912689208984375">
        <ele>1283.800048828125</ele>
        <time>2022-05-05T10:34:01.000Z</time>
      </trkpt>
      <trkpt lat="40.38405952043831348419189453125" lon="-1.39178576879203319549560546875">
        <ele>1278</ele>
        <time>2022-05-05T10:34:06.000Z</time>
      </trkpt>
      <trkpt lat="40.38424241356551647186279296875" lon="-1.3916735351085662841796875">
        <ele>1274.5999755859375</ele>
        <time>2022-05-05T10:34:09.000Z</time>
      </trkpt>
      <trkpt lat="40.38430712185800075531005859375" lon="-1.3916413486003875732421875">
        <ele>1273.5999755859375</ele>
        <time>2022-05-05T10:34:10.000Z</time>
      </trkpt>
      <trkpt lat="40.38436462171375751495361328125" lon="-1.3916172087192535400390625">
        <ele>1272.5999755859375</ele>
        <time>2022-05-05T10:34:11.000Z</time>
      </trkpt>
      <trkpt lat="40.3844230435788631439208984375" lon="-1.3915989361703395843505859375">
        <ele>1271.800048828125</ele>
        <time>2022-05-05T10:34:12.000Z</time>
      </trkpt>
      <trkpt lat="40.38448481820523738861083984375" lon="-1.391590051352977752685546875">
        <ele>1271.199951171875</ele>
        <time>2022-05-05T10:34:13.000Z</time>
      </trkpt>
      <trkpt lat="40.38461322896182537078857421875" lon="-1.3915903866291046142578125">
        <ele>1269.4000244140625</ele>
        <time>2022-05-05T10:34:15.000Z</time>
      </trkpt>
      <trkpt lat="40.384676344692707061767578125" lon="-1.391600109636783599853515625">
        <ele>1268.4000244140625</ele>
        <time>2022-05-05T10:34:16.000Z</time>
      </trkpt>
      <trkpt lat="40.38474113680422306060791015625" lon="-1.39162056148052215576171875">
        <ele>1267.5999755859375</ele>
        <time>2022-05-05T10:34:17.000Z</time>
      </trkpt>
      <trkpt lat="40.38480215705931186676025390625" lon="-1.391649730503559112548828125">
        <ele>1267</ele>
        <time>2022-05-05T10:34:18.000Z</time>
      </trkpt>
      <trkpt lat="40.38491631858050823211669921875" lon="-1.39172441326081752777099609375">
        <ele>1265.800048828125</ele>
        <time>2022-05-05T10:34:20.000Z</time>
      </trkpt>
      <trkpt lat="40.3850493393838405609130859375" lon="-1.39187495224177837371826171875">
        <ele>1265</ele>
        <time>2022-05-05T10:34:23.000Z</time>
      </trkpt>
      <trkpt lat="40.38507976569235324859619140625" lon="-1.391936056315898895263671875">
        <ele>1265</ele>
        <time>2022-05-05T10:34:24.000Z</time>
      </trkpt>
      <trkpt lat="40.3851100243628025054931640625" lon="-1.39200554229319095611572265625">
        <ele>1265.199951171875</ele>
        <time>2022-05-05T10:34:25.000Z</time>
      </trkpt>
      <trkpt lat="40.385139025747776031494140625" lon="-1.3920777104794979095458984375">
        <ele>1265.199951171875</ele>
        <time>2022-05-05T10:34:26.000Z</time>
      </trkpt>
      <trkpt lat="40.385172553360462188720703125" lon="-1.3921474479138851165771484375">
        <ele>1265.199951171875</ele>
        <time>2022-05-05T10:34:27.000Z</time>
      </trkpt>
      <trkpt lat="40.3852176479995250701904296875" lon="-1.39221358112990856170654296875">
        <ele>1265</ele>
        <time>2022-05-05T10:34:28.000Z</time>
      </trkpt>
      <trkpt lat="40.38527489639818668365478515625" lon="-1.392269991338253021240234375">
        <ele>1264.5999755859375</ele>
        <time>2022-05-05T10:34:29.000Z</time>
      </trkpt>
      <trkpt lat="40.38533993996679782867431640625" lon="-1.39231131412088871002197265625">
        <ele>1264</ele>
        <time>2022-05-05T10:34:30.000Z</time>
      </trkpt>
      <trkpt lat="40.3854764811694622039794921875" lon="-1.3923499546945095062255859375">
        <ele>1263</ele>
        <time>2022-05-05T10:34:32.000Z</time>
      </trkpt>
      <trkpt lat="40.3855438716709613800048828125" lon="-1.39235305599868297576904296875">
        <ele>1262.5999755859375</ele>
        <time>2022-05-05T10:34:33.000Z</time>
      </trkpt>
      <trkpt lat="40.3856699354946613311767578125" lon="-1.39236277900636196136474609375">
        <ele>1261.800048828125</ele>
        <time>2022-05-05T10:34:35.000Z</time>
      </trkpt>
      <trkpt lat="40.3857792355120182037353515625" lon="-1.39240510761737823486328125">
        <ele>1262.199951171875</ele>
        <time>2022-05-05T10:34:37.000Z</time>
      </trkpt>
      <trkpt lat="40.3858798183500766754150390625" lon="-1.392481885850429534912109375">
        <ele>1263.5999755859375</ele>
        <time>2022-05-05T10:34:39.000Z</time>
      </trkpt>
      <trkpt lat="40.38604536093771457672119140625" lon="-1.39263871125876903533935546875">
        <ele>1266.5999755859375</ele>
        <time>2022-05-05T10:34:42.000Z</time>
      </trkpt>
      <trkpt lat="40.38616639561951160430908203125" lon="-1.39273166656494140625">
        <ele>1266.800048828125</ele>
        <time>2022-05-05T10:34:44.000Z</time>
      </trkpt>
      <trkpt lat="40.38630134426057338714599609375" lon="-1.39279293827712535858154296875">
        <ele>1266.199951171875</ele>
        <time>2022-05-05T10:34:46.000Z</time>
      </trkpt>
      <trkpt lat="40.3865232132375240325927734375" lon="-1.39286820776760578155517578125">
        <ele>1275.800048828125</ele>
        <time>2022-05-05T10:34:49.000Z</time>
      </trkpt>
      <trkpt lat="40.386678278446197509765625" lon="-1.39288664795458316802978515625">
        <ele>1282</ele>
        <time>2022-05-05T10:34:51.000Z</time>
      </trkpt>
      <trkpt lat="40.3867451660335063934326171875" lon="-1.39287650585174560546875">
        <ele>1284.199951171875</ele>
        <time>2022-05-05T10:34:52.000Z</time>
      </trkpt>
      <trkpt lat="40.38686896674335002899169921875" lon="-1.3928216882050037384033203125">
        <ele>1287.5999755859375</ele>
        <time>2022-05-05T10:34:54.000Z</time>
      </trkpt>
      <trkpt lat="40.3869543783366680145263671875" lon="-1.39265597797930240631103515625">
        <ele>1287.5999755859375</ele>
        <time>2022-05-05T10:34:57.000Z</time>
      </trkpt>
      <trkpt lat="40.38699067197740077972412109375" lon="-1.3924642838537693023681640625">
        <ele>1285.199951171875</ele>
        <time>2022-05-05T10:35:01.000Z</time>
      </trkpt>
      <trkpt lat="40.38700156845152378082275390625" lon="-1.392417848110198974609375">
        <ele>1284.5999755859375</ele>
        <time>2022-05-05T10:35:02.000Z</time>
      </trkpt>
      <trkpt lat="40.3870428912341594696044921875" lon="-1.3922999985516071319580078125">
        <ele>1283.4000244140625</ele>
        <time>2022-05-05T10:35:05.000Z</time>
      </trkpt>
      <trkpt lat="40.38707725703716278076171875" lon="-1.39223235659301280975341796875">
        <ele>1283</ele>
        <time>2022-05-05T10:35:07.000Z</time>
      </trkpt>
      <trkpt lat="40.3870918415486812591552734375" lon="-1.39220058917999267578125">
        <ele>1282.800048828125</ele>
        <time>2022-05-05T10:35:08.000Z</time>
      </trkpt>
      <trkpt lat="40.3871498443186283111572265625" lon="-1.392127834260463714599609375">
        <ele>1283.199951171875</ele>
        <time>2022-05-05T10:35:11.000Z</time>
      </trkpt>
      <trkpt lat="40.38716979324817657470703125" lon="-1.392107047140598297119140625">
        <ele>1283.5999755859375</ele>
        <time>2022-05-05T10:35:12.000Z</time>
      </trkpt>
      <trkpt lat="40.3872433863580226898193359375" lon="-1.39204476960003376007080078125">
        <ele>1286</ele>
        <time>2022-05-05T10:35:15.000Z</time>
      </trkpt>
      <trkpt lat="40.38734237663447856903076171875" lon="-1.3919385708868503570556640625">
        <ele>1288.5999755859375</ele>
        <time>2022-05-05T10:35:20.000Z</time>
      </trkpt>
      <trkpt lat="40.38750548847019672393798828125" lon="-1.391730196774005889892578125">
        <ele>1291.800048828125</ele>
        <time>2022-05-05T10:35:28.000Z</time>
      </trkpt>
      <trkpt lat="40.3875977732241153717041015625" lon="-1.39155526645481586456298828125">
        <ele>1292.199951171875</ele>
        <time>2022-05-05T10:35:34.000Z</time>
      </trkpt>
      <trkpt lat="40.38765636272728443145751953125" lon="-1.3913950882852077484130859375">
        <ele>1291.4000244140625</ele>
        <time>2022-05-05T10:35:40.000Z</time>
      </trkpt>
      <trkpt lat="40.3876728750765323638916015625" lon="-1.39131889678537845611572265625">
        <ele>1290.5999755859375</ele>
        <time>2022-05-05T10:35:43.000Z</time>
      </trkpt>
      <trkpt lat="40.38769341073930263519287109375" lon="-1.391227282583713531494140625">
        <ele>1289.5999755859375</ele>
        <time>2022-05-05T10:35:47.000Z</time>
      </trkpt>
      <trkpt lat="40.38771017454564571380615234375" lon="-1.39118009246885776519775390625">
        <ele>1289.4000244140625</ele>
        <time>2022-05-05T10:35:49.000Z</time>
      </trkpt>
      <trkpt lat="40.38774571381509304046630859375" lon="-1.3910485804080963134765625">
        <ele>1288.4000244140625</ele>
        <time>2022-05-05T10:35:54.000Z</time>
      </trkpt>
      <trkpt lat="40.38777957670390605926513671875" lon="-1.39091488905251026153564453125">
        <ele>1287.199951171875</ele>
        <time>2022-05-05T10:35:59.000Z</time>
      </trkpt>
      <trkpt lat="40.38780807517468929290771484375" lon="-1.39080810360610485076904296875">
        <ele>1286.4000244140625</ele>
        <time>2022-05-05T10:36:03.000Z</time>
      </trkpt>
      <trkpt lat="40.3878153674304485321044921875" lon="-1.39078228734433650970458984375">
        <ele>1286.4000244140625</ele>
        <time>2022-05-05T10:36:04.000Z</time>
      </trkpt>
      <trkpt lat="40.387842357158660888671875" lon="-1.39067851938307285308837890625">
        <ele>1286.4000244140625</ele>
        <time>2022-05-05T10:36:08.000Z</time>
      </trkpt>
      <trkpt lat="40.3878589533269405364990234375" lon="-1.39060090295970439910888671875">
        <ele>1286</ele>
        <time>2022-05-05T10:36:11.000Z</time>
      </trkpt>
      <trkpt lat="40.38786490447819232940673828125" lon="-1.39057609252631664276123046875">
        <ele>1285.800048828125</ele>
        <time>2022-05-05T10:36:12.000Z</time>
      </trkpt>
      <trkpt lat="40.38790496997535228729248046875" lon="-1.39045237563550472259521484375">
        <ele>1285</ele>
        <time>2022-05-05T10:36:17.000Z</time>
      </trkpt>
      <trkpt lat="40.3879330493509769439697265625" lon="-1.39038012363016605377197265625">
        <ele>1284.800048828125</ele>
        <time>2022-05-05T10:36:20.000Z</time>
      </trkpt>
      <trkpt lat="40.387941263616085052490234375" lon="-1.390354894101619720458984375">
        <ele>1284.5999755859375</ele>
        <time>2022-05-05T10:36:21.000Z</time>
      </trkpt>
      <trkpt lat="40.387986190617084503173828125" lon="-1.39023025520145893096923828125">
        <ele>1284</ele>
        <time>2022-05-05T10:36:26.000Z</time>
      </trkpt>
      <trkpt lat="40.3880131803452968597412109375" lon="-1.39016487635672092437744140625">
        <ele>1282.800048828125</ele>
        <time>2022-05-05T10:36:29.000Z</time>
      </trkpt>
      <trkpt lat="40.3880346380174160003662109375" lon="-1.3901186920702457427978515625">
        <ele>1282</ele>
        <time>2022-05-05T10:36:31.000Z</time>
      </trkpt>
      <trkpt lat="40.38809138350188732147216796875" lon="-1.3899815641343593597412109375">
        <ele>1279.4000244140625</ele>
        <time>2022-05-05T10:36:37.000Z</time>
      </trkpt>
      <trkpt lat="40.38810127414762973785400390625" lon="-1.38995683752000331878662109375">
        <ele>1278.800048828125</ele>
        <time>2022-05-05T10:36:38.000Z</time>
      </trkpt>
      <trkpt lat="40.3881848417222499847412109375" lon="-1.389756090939044952392578125">
        <ele>1275.5999755859375</ele>
        <time>2022-05-05T10:36:46.000Z</time>
      </trkpt>
      <trkpt lat="40.388310067355632781982421875" lon="-1.38949465937912464141845703125">
        <ele>1273</ele>
        <time>2022-05-05T10:36:55.000Z</time>
      </trkpt>
      <trkpt lat="40.388438142836093902587890625" lon="-1.3892352394759654998779296875">
        <ele>1270.199951171875</ele>
        <time>2022-05-05T10:37:01.000Z</time>
      </trkpt>
      <trkpt lat="40.38846823386847972869873046875" lon="-1.38919140212237834930419921875">
        <ele>1269.5999755859375</ele>
        <time>2022-05-05T10:37:02.000Z</time>
      </trkpt>
      <trkpt lat="40.38853637874126434326171875" lon="-1.3891199044883251190185546875">
        <ele>1269</ele>
        <time>2022-05-05T10:37:04.000Z</time>
      </trkpt>
      <trkpt lat="40.3885794617235660552978515625" lon="-1.3890947587788105010986328125">
        <ele>1268.800048828125</ele>
        <time>2022-05-05T10:37:05.000Z</time>
      </trkpt>
      <trkpt lat="40.3886294178664684295654296875" lon="-1.3890769891440868377685546875">
        <ele>1268.800048828125</ele>
        <time>2022-05-05T10:37:06.000Z</time>
      </trkpt>
      <trkpt lat="40.388786830008029937744140625" lon="-1.38909517787396907806396484375">
        <ele>1269.199951171875</ele>
        <time>2022-05-05T10:37:09.000Z</time>
      </trkpt>
      <trkpt lat="40.38888598792254924774169921875" lon="-1.38917011208832263946533203125">
        <ele>1268.5999755859375</ele>
        <time>2022-05-05T10:37:11.000Z</time>
      </trkpt>
      <trkpt lat="40.38896058686077594757080078125" lon="-1.38928377069532871246337890625">
        <ele>1268.199951171875</ele>
        <time>2022-05-05T10:37:13.000Z</time>
      </trkpt>
      <trkpt lat="40.38898623548448085784912109375" lon="-1.3893569447100162506103515625">
        <ele>1268.4000244140625</ele>
        <time>2022-05-05T10:37:14.000Z</time>
      </trkpt>
      <trkpt lat="40.38902982138097286224365234375" lon="-1.38950421474874019622802734375">
        <ele>1269</ele>
        <time>2022-05-05T10:37:16.000Z</time>
      </trkpt>
      <trkpt lat="40.3890505246818065643310546875" lon="-1.3895782269537448883056640625">
        <ele>1269.4000244140625</ele>
        <time>2022-05-05T10:37:17.000Z</time>
      </trkpt>
      <trkpt lat="40.38907206617295742034912109375" lon="-1.38964989222586154937744140625">
        <ele>1270.5999755859375</ele>
        <time>2022-05-05T10:37:18.000Z</time>
      </trkpt>
      <trkpt lat="40.38912780582904815673828125" lon="-1.38977444730699062347412109375">
        <ele>1272.800048828125</ele>
        <time>2022-05-05T10:37:20.000Z</time>
      </trkpt>
      <trkpt lat="40.3892211802303791046142578125" lon="-1.389876790344715118408203125">
        <ele>1274.5999755859375</ele>
        <time>2022-05-05T10:37:22.000Z</time>
      </trkpt>
      <trkpt lat="40.3893345035612583160400390625" lon="-1.38996086083352565765380859375">
        <ele>1276.199951171875</ele>
        <time>2022-05-05T10:37:24.000Z</time>
      </trkpt>
      <trkpt lat="40.38945059292018413543701171875" lon="-1.39004074037075042724609375">
        <ele>1277.4000244140625</ele>
        <time>2022-05-05T10:37:26.000Z</time>
      </trkpt>
      <trkpt lat="40.38950960151851177215576171875" lon="-1.39008424244821071624755859375">
        <ele>1278</ele>
        <time>2022-05-05T10:37:27.000Z</time>
      </trkpt>
      <trkpt lat="40.38974479772150516510009765625" lon="-1.390227489173412322998046875">
        <ele>1283.4000244140625</ele>
        <time>2022-05-05T10:37:31.000Z</time>
      </trkpt>
      <trkpt lat="40.38981118239462375640869140625" lon="-1.39023654162883758544921875">
        <ele>1285.800048828125</ele>
        <time>2022-05-05T10:37:32.000Z</time>
      </trkpt>
      <trkpt lat="40.3898776508867740631103515625" lon="-1.39022958464920520782470703125">
        <ele>1287.5999755859375</ele>
        <time>2022-05-05T10:37:33.000Z</time>
      </trkpt>
      <trkpt lat="40.3900251723825931549072265625" lon="-1.39016252942383289337158203125">
        <ele>1290.199951171875</ele>
        <time>2022-05-05T10:37:35.000Z</time>
      </trkpt>
      <trkpt lat="40.39009935222566127777099609375" lon="-1.39010737650096416473388671875">
        <ele>1290.800048828125</ele>
        <time>2022-05-05T10:37:36.000Z</time>
      </trkpt>
      <trkpt lat="40.39021284319460391998291015625" lon="-1.3899520598351955413818359375">
        <ele>1289.800048828125</ele>
        <time>2022-05-05T10:37:38.000Z</time>
      </trkpt>
      <trkpt lat="40.39026715792715549468994140625" lon="-1.3898725993931293487548828125">
        <ele>1289</ele>
        <time>2022-05-05T10:37:39.000Z</time>
      </trkpt>
      <trkpt lat="40.39043697528541088104248046875" lon="-1.3896503113210201263427734375">
        <ele>1285.5999755859375</ele>
        <time>2022-05-05T10:37:42.000Z</time>
      </trkpt>
      <trkpt lat="40.390497408807277679443359375" lon="-1.3895913027226924896240234375">
        <ele>1284.5999755859375</ele>
        <time>2022-05-05T10:37:43.000Z</time>
      </trkpt>
      <trkpt lat="40.3905619494616985321044921875" lon="-1.38953983783721923828125">
        <ele>1283.5999755859375</ele>
        <time>2022-05-05T10:37:44.000Z</time>
      </trkpt>
      <trkpt lat="40.39081751368939876556396484375" lon="-1.38936641626060009002685546875">
        <ele>1281</ele>
        <time>2022-05-05T10:37:48.000Z</time>
      </trkpt>
      <trkpt lat="40.3908826410770416259765625" lon="-1.38933154754340648651123046875">
        <ele>1280.800048828125</ele>
        <time>2022-05-05T10:37:49.000Z</time>
      </trkpt>
      <trkpt lat="40.3911508619785308837890625" lon="-1.3891651667654514312744140625">
        <ele>1278.5999755859375</ele>
        <time>2022-05-05T10:37:54.000Z</time>
      </trkpt>
      <trkpt lat="40.39142243564128875732421875" lon="-1.38899392448365688323974609375">
        <ele>1273</ele>
        <time>2022-05-05T10:38:01.000Z</time>
      </trkpt>
      <trkpt lat="40.3914933465421199798583984375" lon="-1.38893843628466129302978515625">
        <ele>1271</ele>
        <time>2022-05-05T10:38:03.000Z</time>
      </trkpt>
      <trkpt lat="40.391596443951129913330078125" lon="-1.38887087814509868621826171875">
        <ele>1269</ele>
        <time>2022-05-05T10:38:06.000Z</time>
      </trkpt>
      <trkpt lat="40.391874052584171295166015625" lon="-1.38868362642824649810791015625">
        <ele>1263.4000244140625</ele>
        <time>2022-05-05T10:38:14.000Z</time>
      </trkpt>
      <trkpt lat="40.39198075421154499053955078125" lon="-1.38861774466931819915771484375">
        <ele>1261.4000244140625</ele>
        <time>2022-05-05T10:38:17.000Z</time>
      </trkpt>
      <trkpt lat="40.39205233566462993621826171875" lon="-1.388562507927417755126953125">
        <ele>1259.800048828125</ele>
        <time>2022-05-05T10:38:19.000Z</time>
      </trkpt>
      <trkpt lat="40.392084605991840362548828125" lon="-1.388528980314731597900390625">
        <ele>1259.199951171875</ele>
        <time>2022-05-05T10:38:20.000Z</time>
      </trkpt>
      <trkpt lat="40.39226087741553783416748046875" lon="-1.3883175887167453765869140625">
        <ele>1253.800048828125</ele>
        <time>2022-05-05T10:38:25.000Z</time>
      </trkpt>
      <trkpt lat="40.39229842834174633026123046875" lon="-1.38826721347868442535400390625">
        <ele>1252.5999755859375</ele>
        <time>2022-05-05T10:38:26.000Z</time>
      </trkpt>
      <trkpt lat="40.3923404216766357421875" lon="-1.3882166706025600433349609375">
        <ele>1251.199951171875</ele>
        <time>2022-05-05T10:38:27.000Z</time>
      </trkpt>
      <trkpt lat="40.39253882132470607757568359375" lon="-1.3880352862179279327392578125">
        <ele>1247.5999755859375</ele>
        <time>2022-05-05T10:38:31.000Z</time>
      </trkpt>
      <trkpt lat="40.39277485571801662445068359375" lon="-1.38789874501526355743408203125">
        <ele>1244</ele>
        <time>2022-05-05T10:38:35.000Z</time>
      </trkpt>
      <trkpt lat="40.392838977277278900146484375" lon="-1.38785566203296184539794921875">
        <ele>1243.199951171875</ele>
        <time>2022-05-05T10:38:36.000Z</time>
      </trkpt>
      <trkpt lat="40.3931217826902866363525390625" lon="-1.38764762319624423980712890625">
        <ele>1239.4000244140625</ele>
        <time>2022-05-05T10:38:40.000Z</time>
      </trkpt>
      <trkpt lat="40.39319311268627643585205078125" lon="-1.38757604174315929412841796875">
        <ele>1238.800048828125</ele>
        <time>2022-05-05T10:38:41.000Z</time>
      </trkpt>
      <trkpt lat="40.3932617604732513427734375" lon="-1.38750135898590087890625">
        <ele>1238.199951171875</ele>
        <time>2022-05-05T10:38:42.000Z</time>
      </trkpt>
      <trkpt lat="40.3933883272111415863037109375" lon="-1.3873513229191303253173828125">
        <ele>1237.199951171875</ele>
        <time>2022-05-05T10:38:44.000Z</time>
      </trkpt>
      <trkpt lat="40.3935058414936065673828125" lon="-1.3871981017291545867919921875">
        <ele>1236</ele>
        <time>2022-05-05T10:38:46.000Z</time>
      </trkpt>
      <trkpt lat="40.3936203382909297943115234375" lon="-1.38703507371246814727783203125">
        <ele>1234.4000244140625</ele>
        <time>2022-05-05T10:38:48.000Z</time>
      </trkpt>
      <trkpt lat="40.39377565495669841766357421875" lon="-1.38679585419595241546630859375">
        <ele>1232.5999755859375</ele>
        <time>2022-05-05T10:38:51.000Z</time>
      </trkpt>
      <trkpt lat="40.39387405849993228912353515625" lon="-1.38664715923368930816650390625">
        <ele>1231.199951171875</ele>
        <time>2022-05-05T10:38:53.000Z</time>
      </trkpt>
      <trkpt lat="40.39392535574734210968017578125" lon="-1.386575661599636077880859375">
        <ele>1230.199951171875</ele>
        <time>2022-05-05T10:38:54.000Z</time>
      </trkpt>
      <trkpt lat="40.39397497661411762237548828125" lon="-1.38650282286107540130615234375">
        <ele>1229.199951171875</ele>
        <time>2022-05-05T10:38:55.000Z</time>
      </trkpt>
      <trkpt lat="40.39407656528055667877197265625" lon="-1.3863451592624187469482421875">
        <ele>1227.5999755859375</ele>
        <time>2022-05-05T10:38:57.000Z</time>
      </trkpt>
      <trkpt lat="40.39412987418472766876220703125" lon="-1.38626779429614543914794921875">
        <ele>1226.800048828125</ele>
        <time>2022-05-05T10:38:58.000Z</time>
      </trkpt>
      <trkpt lat="40.3941812552511692047119140625" lon="-1.38619042932987213134765625">
        <ele>1226</ele>
        <time>2022-05-05T10:38:59.000Z</time>
      </trkpt>
      <trkpt lat="40.39423582144081592559814453125" lon="-1.38611759059131145477294921875">
        <ele>1225</ele>
        <time>2022-05-05T10:39:00.000Z</time>
      </trkpt>
      <trkpt lat="40.39429281838238239288330078125" lon="-1.3860410638153553009033203125">
        <ele>1224</ele>
        <time>2022-05-05T10:39:01.000Z</time>
      </trkpt>
      <trkpt lat="40.39439423941075801849365234375" lon="-1.38590049929916858673095703125">
        <ele>1222.199951171875</ele>
        <time>2022-05-05T10:39:03.000Z</time>
      </trkpt>
      <trkpt lat="40.39446917362511157989501953125" lon="-1.38578315265476703643798828125">
        <ele>1221</ele>
        <time>2022-05-05T10:39:05.000Z</time>
      </trkpt>
      <trkpt lat="40.39450471289455890655517578125" lon="-1.3857279159128665924072265625">
        <ele>1220.4000244140625</ele>
        <time>2022-05-05T10:39:06.000Z</time>
      </trkpt>
      <trkpt lat="40.394571013748645782470703125" lon="-1.3856038637459278106689453125">
        <ele>1219.199951171875</ele>
        <time>2022-05-05T10:39:08.000Z</time>
      </trkpt>
      <trkpt lat="40.39462893269956111907958984375" lon="-1.38547151349484920501708984375">
        <ele>1217.800048828125</ele>
        <time>2022-05-05T10:39:10.000Z</time>
      </trkpt>
      <trkpt lat="40.39469799958169460296630859375" lon="-1.38534058816730976104736328125">
        <ele>1216</ele>
        <time>2022-05-05T10:39:12.000Z</time>
      </trkpt>
      <trkpt lat="40.3947637975215911865234375" lon="-1.38520547188818454742431640625">
        <ele>1214.199951171875</ele>
        <time>2022-05-05T10:39:14.000Z</time>
      </trkpt>
      <trkpt lat="40.394825823605060577392578125" lon="-1.38507974334061145782470703125">
        <ele>1212.5999755859375</ele>
        <time>2022-05-05T10:39:16.000Z</time>
      </trkpt>
      <trkpt lat="40.39487443864345550537109375" lon="-1.38498343527317047119140625">
        <ele>1211.4000244140625</ele>
        <time>2022-05-05T10:39:18.000Z</time>
      </trkpt>
      <trkpt lat="40.3949456848204135894775390625" lon="-1.38495862483978271484375">
        <ele>1209.199951171875</ele>
        <time>2022-05-05T10:39:20.000Z</time>
      </trkpt>
      <trkpt lat="40.39505808614194393157958984375" lon="-1.38502425514161586761474609375">
        <ele>1206</ele>
        <time>2022-05-05T10:39:23.000Z</time>
      </trkpt>
      <trkpt lat="40.3950975649058818817138671875" lon="-1.38511729426681995391845703125">
        <ele>1204.800048828125</ele>
        <time>2022-05-05T10:39:25.000Z</time>
      </trkpt>
      <trkpt lat="40.3951223753392696380615234375" lon="-1.38523229397833347320556640625">
        <ele>1203.5999755859375</ele>
        <time>2022-05-05T10:39:27.000Z</time>
      </trkpt>
      <trkpt lat="40.3951232135295867919921875" lon="-1.38537176884710788726806640625">
        <ele>1202.800048828125</ele>
        <time>2022-05-05T10:39:29.000Z</time>
      </trkpt>
      <trkpt lat="40.39507200010120868682861328125" lon="-1.38555415906012058258056640625">
        <ele>1203.4000244140625</ele>
        <time>2022-05-05T10:39:31.000Z</time>
      </trkpt>
      <trkpt lat="40.395045094192028045654296875" lon="-1.38563998974859714508056640625">
        <ele>1203.800048828125</ele>
        <time>2022-05-05T10:39:32.000Z</time>
      </trkpt>
      <trkpt lat="40.39501667954027652740478515625" lon="-1.38573068194091320037841796875">
        <ele>1204</ele>
        <time>2022-05-05T10:39:33.000Z</time>
      </trkpt>
      <trkpt lat="40.39492900483310222625732421875" lon="-1.385997645556926727294921875">
        <ele>1204.5999755859375</ele>
        <time>2022-05-05T10:39:36.000Z</time>
      </trkpt>
      <trkpt lat="40.39486731402575969696044921875" lon="-1.38617576099932193756103515625">
        <ele>1205.199951171875</ele>
        <time>2022-05-05T10:39:38.000Z</time>
      </trkpt>
      <trkpt lat="40.39484082721173763275146484375" lon="-1.38626209460198879241943359375">
        <ele>1205.4000244140625</ele>
        <time>2022-05-05T10:39:39.000Z</time>
      </trkpt>
      <trkpt lat="40.39477645419538021087646484375" lon="-1.38652260415256023406982421875">
        <ele>1206.199951171875</ele>
        <time>2022-05-05T10:39:42.000Z</time>
      </trkpt>
      <trkpt lat="40.3947210498154163360595703125" lon="-1.38678227551281452178955078125">
        <ele>1204.199951171875</ele>
        <time>2022-05-05T10:39:45.000Z</time>
      </trkpt>
      <trkpt lat="40.3946754522621631622314453125" lon="-1.38704882003366947174072265625">
        <ele>1201.800048828125</ele>
        <time>2022-05-05T10:39:48.000Z</time>
      </trkpt>
      <trkpt lat="40.394644439220428466796875" lon="-1.38720019720494747161865234375">
        <ele>1200.5999755859375</ele>
        <time>2022-05-05T10:39:50.000Z</time>
      </trkpt>
      <trkpt lat="40.394568331539630889892578125" lon="-1.38750026933848857879638671875">
        <ele>1201.199951171875</ele>
        <time>2022-05-05T10:39:54.000Z</time>
      </trkpt>
      <trkpt lat="40.39453455246984958648681640625" lon="-1.3876574300229549407958984375">
        <ele>1202.5999755859375</ele>
        <time>2022-05-05T10:39:56.000Z</time>
      </trkpt>
      <trkpt lat="40.3945091553032398223876953125" lon="-1.3878197036683559417724609375">
        <ele>1203.800048828125</ele>
        <time>2022-05-05T10:39:58.000Z</time>
      </trkpt>
      <trkpt lat="40.3944836743175983428955078125" lon="-1.387987844645977020263671875">
        <ele>1205</ele>
        <time>2022-05-05T10:40:00.000Z</time>
      </trkpt>
      <trkpt lat="40.3944541700184345245361328125" lon="-1.388153471052646636962890625">
        <ele>1206.199951171875</ele>
        <time>2022-05-05T10:40:02.000Z</time>
      </trkpt>
      <trkpt lat="40.394418798387050628662109375" lon="-1.3882971368730068206787109375">
        <ele>1206.4000244140625</ele>
        <time>2022-05-05T10:40:04.000Z</time>
      </trkpt>
      <trkpt lat="40.39439239539206027984619140625" lon="-1.38835991732776165008544921875">
        <ele>1206.5999755859375</ele>
        <time>2022-05-05T10:40:05.000Z</time>
      </trkpt>
      <trkpt lat="40.39436138235032558441162109375" lon="-1.38841993175446987152099609375">
        <ele>1206.800048828125</ele>
        <time>2022-05-05T10:40:06.000Z</time>
      </trkpt>
      <trkpt lat="40.39433271624147891998291015625" lon="-1.3884741626679897308349609375">
        <ele>1207.4000244140625</ele>
        <time>2022-05-05T10:40:07.000Z</time>
      </trkpt>
      <trkpt lat="40.39431025274097919464111328125" lon="-1.38852671720087528228759765625">
        <ele>1208</ele>
        <time>2022-05-05T10:40:08.000Z</time>
      </trkpt>
      <trkpt lat="40.394290052354335784912109375" lon="-1.38862051069736480712890625">
        <ele>1209.199951171875</ele>
        <time>2022-05-05T10:40:10.000Z</time>
      </trkpt>
      <trkpt lat="40.394295752048492431640625" lon="-1.38865931890904903411865234375">
        <ele>1209.800048828125</ele>
        <time>2022-05-05T10:40:11.000Z</time>
      </trkpt>
      <trkpt lat="40.39435115642845630645751953125" lon="-1.38868463225662708282470703125">
        <ele>1210</ele>
        <time>2022-05-05T10:40:14.000Z</time>
      </trkpt>
      <trkpt lat="40.394440256059169769287109375" lon="-1.3885519467294216156005859375">
        <ele>1208.4000244140625</ele>
        <time>2022-05-05T10:40:18.000Z</time>
      </trkpt>
      <trkpt lat="40.3944699279963970184326171875" lon="-1.38850341551005840301513671875">
        <ele>1207.5999755859375</ele>
        <time>2022-05-05T10:40:19.000Z</time>
      </trkpt>
      <trkpt lat="40.394503287971019744873046875" lon="-1.388453207910060882568359375">
        <ele>1207</ele>
        <time>2022-05-05T10:40:20.000Z</time>
      </trkpt>
      <trkpt lat="40.3945946507155895233154296875" lon="-1.388337872922420501708984375">
        <ele>1205.5999755859375</ele>
        <time>2022-05-05T10:40:22.000Z</time>
      </trkpt>
      <trkpt lat="40.39464871399104595184326171875" lon="-1.38827341608703136444091796875">
        <ele>1204.5999755859375</ele>
        <time>2022-05-05T10:40:23.000Z</time>
      </trkpt>
      <trkpt lat="40.39474745281040668487548828125" lon="-1.388124637305736541748046875">
        <ele>1204.4000244140625</ele>
        <time>2022-05-05T10:40:25.000Z</time>
      </trkpt>
      <trkpt lat="40.39484116248786449432373046875" lon="-1.38794920407235622406005859375">
        <ele>1201.800048828125</ele>
        <time>2022-05-05T10:40:27.000Z</time>
      </trkpt>
      <trkpt lat="40.394884161651134490966796875" lon="-1.38785163871943950653076171875">
        <ele>1201.199951171875</ele>
        <time>2022-05-05T10:40:28.000Z</time>
      </trkpt>
      <trkpt lat="40.3949617780745029449462890625" lon="-1.3876557536423206329345703125">
        <ele>1200.199951171875</ele>
        <time>2022-05-05T10:40:30.000Z</time>
      </trkpt>
      <trkpt lat="40.3950454294681549072265625" lon="-1.387461125850677490234375">
        <ele>1199.199951171875</ele>
        <time>2022-05-05T10:40:32.000Z</time>
      </trkpt>
      <trkpt lat="40.39508675225079059600830078125" lon="-1.3873670808970928192138671875">
        <ele>1198.800048828125</ele>
        <time>2022-05-05T10:40:33.000Z</time>
      </trkpt>
      <trkpt lat="40.395127236843109130859375" lon="-1.38727261684834957122802734375">
        <ele>1198</ele>
        <time>2022-05-05T10:40:34.000Z</time>
      </trkpt>
      <trkpt lat="40.39520703256130218505859375" lon="-1.38708896934986114501953125">
        <ele>1196</ele>
        <time>2022-05-05T10:40:36.000Z</time>
      </trkpt>
      <trkpt lat="40.39534960873425006866455078125" lon="-1.38681798242032527923583984375">
        <ele>1192.800048828125</ele>
        <time>2022-05-05T10:40:39.000Z</time>
      </trkpt>
      <trkpt lat="40.395400822162628173828125" lon="-1.38673215173184871673583984375">
        <ele>1191.800048828125</ele>
        <time>2022-05-05T10:40:40.000Z</time>
      </trkpt>
      <trkpt lat="40.39545572362840175628662109375" lon="-1.3866512663662433624267578125">
        <ele>1190.800048828125</ele>
        <time>2022-05-05T10:40:41.000Z</time>
      </trkpt>
      <trkpt lat="40.39556066505610942840576171875" lon="-1.38648874126374721527099609375">
        <ele>1189</ele>
        <time>2022-05-05T10:40:43.000Z</time>
      </trkpt>
      <trkpt lat="40.395674407482147216796875" lon="-1.38631909154355525970458984375">
        <ele>1186.4000244140625</ele>
        <time>2022-05-05T10:40:45.000Z</time>
      </trkpt>
      <trkpt lat="40.39573031477630138397216796875" lon="-1.38624097220599651336669921875">
        <ele>1185.199951171875</ele>
        <time>2022-05-05T10:40:46.000Z</time>
      </trkpt>
      <trkpt lat="40.39584045298397541046142578125" lon="-1.38608154840767383575439453125">
        <ele>1183.4000244140625</ele>
        <time>2022-05-05T10:40:48.000Z</time>
      </trkpt>
      <trkpt lat="40.39593567140400409698486328125" lon="-1.38592028059065341949462890625">
        <ele>1182</ele>
        <time>2022-05-05T10:40:50.000Z</time>
      </trkpt>
      <trkpt lat="40.39597942493855953216552734375" lon="-1.38583771884441375732421875">
        <ele>1181.199951171875</ele>
        <time>2022-05-05T10:40:51.000Z</time>
      </trkpt>
      <trkpt lat="40.3960564546287059783935546875" lon="-1.3856749422848224639892578125">
        <ele>1180</ele>
        <time>2022-05-05T10:40:53.000Z</time>
      </trkpt>
      <trkpt lat="40.39609559811651706695556640625" lon="-1.38558827340602874755859375">
        <ele>1179.4000244140625</ele>
        <time>2022-05-05T10:40:54.000Z</time>
      </trkpt>
      <trkpt lat="40.396181009709835052490234375" lon="-1.38540462590754032135009765625">
        <ele>1177.5999755859375</ele>
        <time>2022-05-05T10:40:56.000Z</time>
      </trkpt>
      <trkpt lat="40.39622182957828044891357421875" lon="-1.3853061385452747344970703125">
        <ele>1176.5999755859375</ele>
        <time>2022-05-05T10:40:57.000Z</time>
      </trkpt>
      <trkpt lat="40.39626558311283588409423828125" lon="-1.3852089084684848785400390625">
        <ele>1175.800048828125</ele>
        <time>2022-05-05T10:40:58.000Z</time>
      </trkpt>
      <trkpt lat="40.39634722284972667694091796875" lon="-1.3850090838968753814697265625">
        <ele>1174.5999755859375</ele>
        <time>2022-05-05T10:41:00.000Z</time>
      </trkpt>
      <trkpt lat="40.39642743766307830810546875" lon="-1.38480297289788722991943359375">
        <ele>1174</ele>
        <time>2022-05-05T10:41:02.000Z</time>
      </trkpt>
      <trkpt lat="40.39646976627409458160400390625" lon="-1.38469015248119831085205078125">
        <ele>1172.800048828125</ele>
        <time>2022-05-05T10:41:03.000Z</time>
      </trkpt>
      <trkpt lat="40.39650815539062023162841796875" lon="-1.3845681957900524139404296875">
        <ele>1172</ele>
        <time>2022-05-05T10:41:04.000Z</time>
      </trkpt>
      <trkpt lat="40.39654537104070186614990234375" lon="-1.38444003649055957794189453125">
        <ele>1171.5999755859375</ele>
        <time>2022-05-05T10:41:05.000Z</time>
      </trkpt>
      <trkpt lat="40.3965814970433712005615234375" lon="-1.38430777005851268768310546875">
        <ele>1171.199951171875</ele>
        <time>2022-05-05T10:41:06.000Z</time>
      </trkpt>
      <trkpt lat="40.3966160304844379425048828125" lon="-1.38417282141745090484619140625">
        <ele>1170.800048828125</ele>
        <time>2022-05-05T10:41:07.000Z</time>
      </trkpt>
      <trkpt lat="40.3966488875448703765869140625" lon="-1.38404441066086292266845703125">
        <ele>1170.199951171875</ele>
        <time>2022-05-05T10:41:08.000Z</time>
      </trkpt>
      <trkpt lat="40.39668627083301544189453125" lon="-1.38392396271228790283203125">
        <ele>1169.5999755859375</ele>
        <time>2022-05-05T10:41:09.000Z</time>
      </trkpt>
      <trkpt lat="40.39680562913417816162109375" lon="-1.38361173681914806365966796875">
        <ele>1167.199951171875</ele>
        <time>2022-05-05T10:41:12.000Z</time>
      </trkpt>
      <trkpt lat="40.39683991111814975738525390625" lon="-1.38351224362850189208984375">
        <ele>1166.4000244140625</ele>
        <time>2022-05-05T10:41:13.000Z</time>
      </trkpt>
      <trkpt lat="40.39701023139059543609619140625" lon="-1.38303522951900959014892578125">
        <ele>1163.5999755859375</ele>
        <time>2022-05-05T10:41:18.000Z</time>
      </trkpt>
      <trkpt lat="40.39704434573650360107421875" lon="-1.38294001109898090362548828125">
        <ele>1162.4000244140625</ele>
        <time>2022-05-05T10:41:19.000Z</time>
      </trkpt>
      <trkpt lat="40.3971383906900882720947265625" lon="-1.38264563865959644317626953125">
        <ele>1159.199951171875</ele>
        <time>2022-05-05T10:41:22.000Z</time>
      </trkpt>
      <trkpt lat="40.3971856646239757537841796875" lon="-1.3824727199971675872802734375">
        <ele>1158.4000244140625</ele>
        <time>2022-05-05T10:41:24.000Z</time>
      </trkpt>
      <trkpt lat="40.39720125496387481689453125" lon="-1.3823121227324008941650390625">
        <ele>1157.5999755859375</ele>
        <time>2022-05-05T10:41:26.000Z</time>
      </trkpt>
      <trkpt lat="40.39720821194350719451904296875" lon="-1.38215160928666591644287109375">
        <ele>1157.4000244140625</ele>
        <time>2022-05-05T10:41:28.000Z</time>
      </trkpt>
      <trkpt lat="40.397229753434658050537109375" lon="-1.38207550160586833953857421875">
        <ele>1157.800048828125</ele>
        <time>2022-05-05T10:41:29.000Z</time>
      </trkpt>
      <trkpt lat="40.3972597606480121612548828125" lon="-1.38200308196246623992919921875">
        <ele>1158</ele>
        <time>2022-05-05T10:41:30.000Z</time>
      </trkpt>
      <trkpt lat="40.3972929529845714569091796875" lon="-1.38193250633776187896728515625">
        <ele>1158</ele>
        <time>2022-05-05T10:41:31.000Z</time>
      </trkpt>
      <trkpt lat="40.3975162468850612640380859375" lon="-1.38156638480722904205322265625">
        <ele>1157.5999755859375</ele>
        <time>2022-05-05T10:41:37.000Z</time>
      </trkpt>
      <trkpt lat="40.39769436232745647430419921875" lon="-1.38135977089405059814453125">
        <ele>1155.4000244140625</ele>
        <time>2022-05-05T10:41:42.000Z</time>
      </trkpt>
      <trkpt lat="40.39777457714080810546875" lon="-1.381292380392551422119140625">
        <ele>1154.199951171875</ele>
        <time>2022-05-05T10:41:44.000Z</time>
      </trkpt>
      <trkpt lat="40.39793408475816249847412109375" lon="-1.38115701265633106231689453125">
        <ele>1151.5999755859375</ele>
        <time>2022-05-05T10:41:48.000Z</time>
      </trkpt>
      <trkpt lat="40.39796300232410430908203125" lon="-1.38112348504364490509033203125">
        <ele>1151.199951171875</ele>
        <time>2022-05-05T10:41:49.000Z</time>
      </trkpt>
      <trkpt lat="40.39804422296583652496337890625" lon="-1.38104997575283050537109375">
        <ele>1150.199951171875</ele>
        <time>2022-05-05T10:41:51.000Z</time>
      </trkpt>
      <trkpt lat="40.39816550910472869873046875" lon="-1.3809341378509998321533203125">
        <ele>1149.199951171875</ele>
        <time>2022-05-05T10:41:54.000Z</time>
      </trkpt>
      <trkpt lat="40.39820515550673007965087890625" lon="-1.38088929466903209686279296875">
        <ele>1148.800048828125</ele>
        <time>2022-05-05T10:41:55.000Z</time>
      </trkpt>
      <trkpt lat="40.39824203588068485260009765625" lon="-1.38084135018289089202880859375">
        <ele>1148.4000244140625</ele>
        <time>2022-05-05T10:41:56.000Z</time>
      </trkpt>
      <trkpt lat="40.398310683667659759521484375" lon="-1.38073238544166088104248046875">
        <ele>1147.800048828125</ele>
        <time>2022-05-05T10:41:58.000Z</time>
      </trkpt>
      <trkpt lat="40.39837597869336605072021484375" lon="-1.38059760443866252899169921875">
        <ele>1147</ele>
        <time>2022-05-05T10:42:00.000Z</time>
      </trkpt>
      <trkpt lat="40.3984067402780055999755859375" lon="-1.38051378540694713592529296875">
        <ele>1146.199951171875</ele>
        <time>2022-05-05T10:42:01.000Z</time>
      </trkpt>
      <trkpt lat="40.39843984879553318023681640625" lon="-1.380415968596935272216796875">
        <ele>1145.4000244140625</ele>
        <time>2022-05-05T10:42:02.000Z</time>
      </trkpt>
      <trkpt lat="40.39847136475145816802978515625" lon="-1.380310356616973876953125">
        <ele>1144.5999755859375</ele>
        <time>2022-05-05T10:42:03.000Z</time>
      </trkpt>
      <trkpt lat="40.39850237779319286346435546875" lon="-1.38019728474318981170654296875">
        <ele>1143.5999755859375</ele>
        <time>2022-05-05T10:42:04.000Z</time>
      </trkpt>
      <trkpt lat="40.3985349833965301513671875" lon="-1.38008396141231060028076171875">
        <ele>1142.800048828125</ele>
        <time>2022-05-05T10:42:05.000Z</time>
      </trkpt>
      <trkpt lat="40.39856976829469203948974609375" lon="-1.379967369139194488525390625">
        <ele>1142</ele>
        <time>2022-05-05T10:42:06.000Z</time>
      </trkpt>
      <trkpt lat="40.398603379726409912109375" lon="-1.37984910048544406890869140625">
        <ele>1141.4000244140625</ele>
        <time>2022-05-05T10:42:07.000Z</time>
      </trkpt>
      <trkpt lat="40.3986315429210662841796875" lon="-1.37973158620297908782958984375">
        <ele>1140.4000244140625</ele>
        <time>2022-05-05T10:42:08.000Z</time>
      </trkpt>
      <trkpt lat="40.39865928702056407928466796875" lon="-1.3796138204634189605712890625">
        <ele>1139.5999755859375</ele>
        <time>2022-05-05T10:42:09.000Z</time>
      </trkpt>
      <trkpt lat="40.39873204194009304046630859375" lon="-1.37926454655826091766357421875">
        <ele>1136.5999755859375</ele>
        <time>2022-05-05T10:42:12.000Z</time>
      </trkpt>
      <trkpt lat="40.39878417737782001495361328125" lon="-1.379044353961944580078125">
        <ele>1134.800048828125</ele>
        <time>2022-05-05T10:42:14.000Z</time>
      </trkpt>
      <trkpt lat="40.3988412581384181976318359375" lon="-1.37883572839200496673583984375">
        <ele>1133.5999755859375</ele>
        <time>2022-05-05T10:42:16.000Z</time>
      </trkpt>
      <trkpt lat="40.39888291619718074798583984375" lon="-1.37852962128818035125732421875">
        <ele>1132.5999755859375</ele>
        <time>2022-05-05T10:42:19.000Z</time>
      </trkpt>
      <trkpt lat="40.39887252263724803924560546875" lon="-1.3783344067633152008056640625">
        <ele>1131.800048828125</ele>
        <time>2022-05-05T10:42:21.000Z</time>
      </trkpt>
      <trkpt lat="40.39887319318950176239013671875" lon="-1.37823860161006450653076171875">
        <ele>1131.4000244140625</ele>
        <time>2022-05-05T10:42:22.000Z</time>
      </trkpt>
      <trkpt lat="40.39888375438749790191650390625" lon="-1.37814857997000217437744140625">
        <ele>1131.199951171875</ele>
        <time>2022-05-05T10:42:23.000Z</time>
      </trkpt>
      <trkpt lat="40.3989279270172119140625" lon="-1.37798379175364971160888671875">
        <ele>1130.4000244140625</ele>
        <time>2022-05-05T10:42:25.000Z</time>
      </trkpt>
      <trkpt lat="40.3989587724208831787109375" lon="-1.3779019005596637725830078125">
        <ele>1130.4000244140625</ele>
        <time>2022-05-05T10:42:26.000Z</time>
      </trkpt>
      <trkpt lat="40.398986600339412689208984375" lon="-1.377812214195728302001953125">
        <ele>1130.4000244140625</ele>
        <time>2022-05-05T10:42:27.000Z</time>
      </trkpt>
      <trkpt lat="40.39904787205159664154052734375" lon="-1.37762772850692272186279296875">
        <ele>1130.4000244140625</ele>
        <time>2022-05-05T10:42:29.000Z</time>
      </trkpt>
      <trkpt lat="40.3991389833390712738037109375" lon="-1.3773416541516780853271484375">
        <ele>1130.199951171875</ele>
        <time>2022-05-05T10:42:32.000Z</time>
      </trkpt>
      <trkpt lat="40.39917209185659885406494140625" lon="-1.37725003995001316070556640625">
        <ele>1129.800048828125</ele>
        <time>2022-05-05T10:42:33.000Z</time>
      </trkpt>
      <trkpt lat="40.39928709156811237335205078125" lon="-1.3769884407520294189453125">
        <ele>1127.800048828125</ele>
        <time>2022-05-05T10:42:36.000Z</time>
      </trkpt>
      <trkpt lat="40.3993699885904788970947265625" lon="-1.3768280111253261566162109375">
        <ele>1126.5999755859375</ele>
        <time>2022-05-05T10:42:38.000Z</time>
      </trkpt>
      <trkpt lat="40.3994139097630977630615234375" lon="-1.37675014324486255645751953125">
        <ele>1126</ele>
        <time>2022-05-05T10:42:39.000Z</time>
      </trkpt>
      <trkpt lat="40.39951742626726627349853515625" lon="-1.37650472111999988555908203125">
        <ele>1125.4000244140625</ele>
        <time>2022-05-05T10:42:42.000Z</time>
      </trkpt>
      <trkpt lat="40.39953988976776599884033203125" lon="-1.37641905806958675384521484375">
        <ele>1124.800048828125</ele>
        <time>2022-05-05T10:42:43.000Z</time>
      </trkpt>
      <trkpt lat="40.3995553962886333465576171875" lon="-1.37633104808628559112548828125">
        <ele>1123.800048828125</ele>
        <time>2022-05-05T10:42:44.000Z</time>
      </trkpt>
      <trkpt lat="40.39956972934305667877197265625" lon="-1.376239098608493804931640625">
        <ele>1123</ele>
        <time>2022-05-05T10:42:45.000Z</time>
      </trkpt>
      <trkpt lat="40.39960677735507488250732421875" lon="-1.3759713806211948394775390625">
        <ele>1120.199951171875</ele>
        <time>2022-05-05T10:42:48.000Z</time>
      </trkpt>
      <trkpt lat="40.399624966084957122802734375" lon="-1.37580248527228832244873046875">
        <ele>1118.5999755859375</ele>
        <time>2022-05-05T10:42:50.000Z</time>
      </trkpt>
      <trkpt lat="40.39965371601283550262451171875" lon="-1.37554935179650783538818359375">
        <ele>1116.4000244140625</ele>
        <time>2022-05-05T10:42:53.000Z</time>
      </trkpt>
      <trkpt lat="40.39967869408428668975830078125" lon="-1.37537333182990550994873046875">
        <ele>1115.5999755859375</ele>
        <time>2022-05-05T10:42:55.000Z</time>
      </trkpt>
      <trkpt lat="40.39969663135707378387451171875" lon="-1.37527710758149623870849609375">
        <ele>1115</ele>
        <time>2022-05-05T10:42:56.000Z</time>
      </trkpt>
      <trkpt lat="40.3997166641056537628173828125" lon="-1.37517501600086688995361328125">
        <ele>1114.4000244140625</ele>
        <time>2022-05-05T10:42:57.000Z</time>
      </trkpt>
      <trkpt lat="40.3997397981584072113037109375" lon="-1.37506194412708282470703125">
        <ele>1114</ele>
        <time>2022-05-05T10:42:58.000Z</time>
      </trkpt>
      <trkpt lat="40.3997612558305263519287109375" lon="-1.37494635768234729766845703125">
        <ele>1113.4000244140625</ele>
        <time>2022-05-05T10:42:59.000Z</time>
      </trkpt>
      <trkpt lat="40.39979629218578338623046875" lon="-1.37472130358219146728515625">
        <ele>1112.199951171875</ele>
        <time>2022-05-05T10:43:01.000Z</time>
      </trkpt>
      <trkpt lat="40.3998018242418766021728515625" lon="-1.3746125064790248870849609375">
        <ele>1112</ele>
        <time>2022-05-05T10:43:02.000Z</time>
      </trkpt>
      <trkpt lat="40.39980106987059116363525390625" lon="-1.3745075650513172149658203125">
        <ele>1112</ele>
        <time>2022-05-05T10:43:03.000Z</time>
      </trkpt>
      <trkpt lat="40.3997817076742649078369140625" lon="-1.3743043877184391021728515625">
        <ele>1112</ele>
        <time>2022-05-05T10:43:05.000Z</time>
      </trkpt>
      <trkpt lat="40.39974843151867389678955078125" lon="-1.3741085864603519439697265625">
        <ele>1112</ele>
        <time>2022-05-05T10:43:07.000Z</time>
      </trkpt>
      <trkpt lat="40.39972831495106220245361328125" lon="-1.37401764281094074249267578125">
        <ele>1112</ele>
        <time>2022-05-05T10:43:08.000Z</time>
      </trkpt>
      <trkpt lat="40.39970803074538707733154296875" lon="-1.373850591480731964111328125">
        <ele>1111.199951171875</ele>
        <time>2022-05-05T10:43:10.000Z</time>
      </trkpt>
      <trkpt lat="40.39969797246158123016357421875" lon="-1.37368169613182544708251953125">
        <ele>1110</ele>
        <time>2022-05-05T10:43:12.000Z</time>
      </trkpt>
      <trkpt lat="40.3997035883367061614990234375" lon="-1.37349796481430530548095703125">
        <ele>1108.5999755859375</ele>
        <time>2022-05-05T10:43:14.000Z</time>
      </trkpt>
      <trkpt lat="40.39971716701984405517578125" lon="-1.37339687906205654144287109375">
        <ele>1107.800048828125</ele>
        <time>2022-05-05T10:43:15.000Z</time>
      </trkpt>
      <trkpt lat="40.39974105544388294219970703125" lon="-1.3732898421585559844970703125">
        <ele>1107.199951171875</ele>
        <time>2022-05-05T10:43:16.000Z</time>
      </trkpt>
      <trkpt lat="40.39978631772100925445556640625" lon="-1.37306495569646358489990234375">
        <ele>1105.4000244140625</ele>
        <time>2022-05-05T10:43:18.000Z</time>
      </trkpt>
      <trkpt lat="40.39980433881282806396484375" lon="-1.37294559739530086517333984375">
        <ele>1104.4000244140625</ele>
        <time>2022-05-05T10:43:19.000Z</time>
      </trkpt>
      <trkpt lat="40.39980794303119182586669921875" lon="-1.37282758019864559173583984375">
        <ele>1103.4000244140625</ele>
        <time>2022-05-05T10:43:20.000Z</time>
      </trkpt>
      <trkpt lat="40.3998135589063167572021484375" lon="-1.37270922772586345672607421875">
        <ele>1102.199951171875</ele>
        <time>2022-05-05T10:43:21.000Z</time>
      </trkpt>
      <trkpt lat="40.3998212702572345733642578125" lon="-1.37258970178663730621337890625">
        <ele>1101</ele>
        <time>2022-05-05T10:43:22.000Z</time>
      </trkpt>
      <trkpt lat="40.399826802313327789306640625" lon="-1.37247000820934772491455078125">
        <ele>1100</ele>
        <time>2022-05-05T10:43:23.000Z</time>
      </trkpt>
      <trkpt lat="40.39983518421649932861328125" lon="-1.3723524101078510284423828125">
        <ele>1098.800048828125</ele>
        <time>2022-05-05T10:43:24.000Z</time>
      </trkpt>
      <trkpt lat="40.3998760879039764404296875" lon="-1.3719148747622966766357421875">
        <ele>1097.199951171875</ele>
        <time>2022-05-05T10:43:28.000Z</time>
      </trkpt>
      <trkpt lat="40.39988488890230655670166015625" lon="-1.37181052006781101226806640625">
        <ele>1097.199951171875</ele>
        <time>2022-05-05T10:43:29.000Z</time>
      </trkpt>
      <trkpt lat="40.3998980484902858734130859375" lon="-1.371507346630096435546875">
        <ele>1097.199951171875</ele>
        <time>2022-05-05T10:43:32.000Z</time>
      </trkpt>
      <trkpt lat="40.39988472126424312591552734375" lon="-1.3711289875209331512451171875">
        <ele>1096</ele>
        <time>2022-05-05T10:43:36.000Z</time>
      </trkpt>
      <trkpt lat="40.3998661972582340240478515625" lon="-1.37057050131261348724365234375">
        <ele>1093.4000244140625</ele>
        <time>2022-05-05T10:43:42.000Z</time>
      </trkpt>
      <trkpt lat="40.39986108429729938507080078125" lon="-1.37047545053064823150634765625">
        <ele>1093</ele>
        <time>2022-05-05T10:43:43.000Z</time>
      </trkpt>
      <trkpt lat="40.3998385369777679443359375" lon="-1.37018091045320034027099609375">
        <ele>1092.199951171875</ele>
        <time>2022-05-05T10:43:46.000Z</time>
      </trkpt>
      <trkpt lat="40.3998175822198390960693359375" lon="-1.3699773140251636505126953125">
        <ele>1091.800048828125</ele>
        <time>2022-05-05T10:43:48.000Z</time>
      </trkpt>
      <trkpt lat="40.39976703934371471405029296875" lon="-1.3696906529366970062255859375">
        <ele>1090.800048828125</ele>
        <time>2022-05-05T10:43:51.000Z</time>
      </trkpt>
      <trkpt lat="40.39974398910999298095703125" lon="-1.3696064986288547515869140625">
        <ele>1090.5999755859375</ele>
        <time>2022-05-05T10:43:52.000Z</time>
      </trkpt>
      <trkpt lat="40.399714820086956024169921875" lon="-1.3695357553660869598388671875">
        <ele>1090.4000244140625</ele>
        <time>2022-05-05T10:43:53.000Z</time>
      </trkpt>
      <trkpt lat="40.39959621615707874298095703125" lon="-1.36939083226025104522705078125">
        <ele>1090.5999755859375</ele>
        <time>2022-05-05T10:43:56.000Z</time>
      </trkpt>
      <trkpt lat="40.39955430664122104644775390625" lon="-1.36935797519981861114501953125">
        <ele>1091</ele>
        <time>2022-05-05T10:43:57.000Z</time>
      </trkpt>
      <trkpt lat="40.39951725862920284271240234375" lon="-1.36932059191167354583740234375">
        <ele>1091.199951171875</ele>
        <time>2022-05-05T10:43:58.000Z</time>
      </trkpt>
      <trkpt lat="40.399445258080959320068359375" lon="-1.369150020182132720947265625">
        <ele>1090.800048828125</ele>
        <time>2022-05-05T10:44:01.000Z</time>
      </trkpt>
      <trkpt lat="40.39944785647094249725341796875" lon="-1.3689927756786346435546875">
        <ele>1088</ele>
        <time>2022-05-05T10:44:03.000Z</time>
      </trkpt>
      <trkpt lat="40.39946277625858783721923828125" lon="-1.36891691945493221282958984375">
        <ele>1087.4000244140625</ele>
        <time>2022-05-05T10:44:04.000Z</time>
      </trkpt>
      <trkpt lat="40.39950887672603130340576171875" lon="-1.36877006851136684417724609375">
        <ele>1086.5999755859375</ele>
        <time>2022-05-05T10:44:06.000Z</time>
      </trkpt>
      <trkpt lat="40.39960191585123538970947265625" lon="-1.36859052814543247222900390625">
        <ele>1085.5999755859375</ele>
        <time>2022-05-05T10:44:09.000Z</time>
      </trkpt>
      <trkpt lat="40.3996412269771099090576171875" lon="-1.36854006908833980560302734375">
        <ele>1085.4000244140625</ele>
        <time>2022-05-05T10:44:10.000Z</time>
      </trkpt>
      <trkpt lat="40.39967969991266727447509765625" lon="-1.36849262751638889312744140625">
        <ele>1085</ele>
        <time>2022-05-05T10:44:11.000Z</time>
      </trkpt>
      <trkpt lat="40.3997213579714298248291015625" lon="-1.368449293076992034912109375">
        <ele>1084.5999755859375</ele>
        <time>2022-05-05T10:44:12.000Z</time>
      </trkpt>
      <trkpt lat="40.3997679613530635833740234375" lon="-1.36841031722724437713623046875">
        <ele>1084.4000244140625</ele>
        <time>2022-05-05T10:44:13.000Z</time>
      </trkpt>
      <trkpt lat="40.39982537738978862762451171875" lon="-1.36837997473776340484619140625">
        <ele>1084</ele>
        <time>2022-05-05T10:44:14.000Z</time>
      </trkpt>
      <trkpt lat="40.39989092387259006500244140625" lon="-1.368361450731754302978515625">
        <ele>1083.800048828125</ele>
        <time>2022-05-05T10:44:15.000Z</time>
      </trkpt>
      <trkpt lat="40.40003232657909393310546875" lon="-1.36837729252874851226806640625">
        <ele>1083.4000244140625</ele>
        <time>2022-05-05T10:44:17.000Z</time>
      </trkpt>
      <trkpt lat="40.40009510703384876251220703125" lon="-1.36838919483125209808349609375">
        <ele>1083.4000244140625</ele>
        <time>2022-05-05T10:44:18.000Z</time>
      </trkpt>
      <trkpt lat="40.40015797130763530731201171875" lon="-1.36839522980153560638427734375">
        <ele>1083.199951171875</ele>
        <time>2022-05-05T10:44:19.000Z</time>
      </trkpt>
      <trkpt lat="40.40028051473200321197509765625" lon="-1.36838215403258800506591796875">
        <ele>1082.800048828125</ele>
        <time>2022-05-05T10:44:21.000Z</time>
      </trkpt>
      <trkpt lat="40.4003419540822505950927734375" lon="-1.3683733530342578887939453125">
        <ele>1082.5999755859375</ele>
        <time>2022-05-05T10:44:22.000Z</time>
      </trkpt>
      <trkpt lat="40.4007075726985931396484375" lon="-1.368326582014560699462890625">
        <ele>1081.4000244140625</ele>
        <time>2022-05-05T10:44:28.000Z</time>
      </trkpt>
      <trkpt lat="40.40087428875267505645751953125" lon="-1.36827168054878711700439453125">
        <ele>1081</ele>
        <time>2022-05-05T10:44:31.000Z</time>
      </trkpt>
      <trkpt lat="40.4010463692247867584228515625" lon="-1.3682362250983715057373046875">
        <ele>1080.5999755859375</ele>
        <time>2022-05-05T10:44:34.000Z</time>
      </trkpt>
      <trkpt lat="40.40115625597536563873291015625" lon="-1.368221305310726165771484375">
        <ele>1080.4000244140625</ele>
        <time>2022-05-05T10:44:36.000Z</time>
      </trkpt>
      <trkpt lat="40.40132188238203525543212890625" lon="-1.3682073913514614105224609375">
        <ele>1081</ele>
        <time>2022-05-05T10:44:39.000Z</time>
      </trkpt>
      <trkpt lat="40.401375778019428253173828125" lon="-1.368193142116069793701171875">
        <ele>1081.199951171875</ele>
        <time>2022-05-05T10:44:40.000Z</time>
      </trkpt>
      <trkpt lat="40.40142984129488468170166015625" lon="-1.3681728579103946685791015625">
        <ele>1081.4000244140625</ele>
        <time>2022-05-05T10:44:41.000Z</time>
      </trkpt>
      <trkpt lat="40.40156512521207332611083984375" lon="-1.3680700957775115966796875">
        <ele>1081.199951171875</ele>
        <time>2022-05-05T10:44:44.000Z</time>
      </trkpt>
      <trkpt lat="40.4016538895666599273681640625" lon="-1.36787094175815582275390625">
        <ele>1079.199951171875</ele>
        <time>2022-05-05T10:44:48.000Z</time>
      </trkpt>
      <trkpt lat="40.40166520513594150543212890625" lon="-1.36778511106967926025390625">
        <ele>1078.199951171875</ele>
        <time>2022-05-05T10:44:50.000Z</time>
      </trkpt>
      <trkpt lat="40.4016733355820178985595703125" lon="-1.3676999509334564208984375">
        <ele>1077.800048828125</ele>
        <time>2022-05-05T10:44:53.000Z</time>
      </trkpt>
      <trkpt lat="40.40167174302041530609130859375" lon="-1.36769567616283893585205078125">
        <ele>1077.800048828125</ele>
        <time>2022-05-05T10:44:55.000Z</time>
      </trkpt>
      <trkpt lat="40.40165229700505733489990234375" lon="-1.36767438612878322601318359375">
        <ele>1077.5999755859375</ele>
        <time>2022-05-05T10:49:40.000Z</time>
      </trkpt>
      <trkpt lat="40.40165782906115055084228515625" lon="-1.36765410192310810089111328125">
        <ele>1077.4000244140625</ele>
        <time>2022-05-05T10:49:41.000Z</time>
      </trkpt>
      <trkpt lat="40.4017321765422821044921875" lon="-1.36748579330742359161376953125">
        <ele>1076.5999755859375</ele>
        <time>2022-05-05T10:49:47.000Z</time>
      </trkpt>
      <trkpt lat="40.4019113816320896148681640625" lon="-1.367269791662693023681640625">
        <ele>1075.5999755859375</ele>
        <time>2022-05-05T10:49:54.000Z</time>
      </trkpt>
      <trkpt lat="40.402061082422733306884765625" lon="-1.3671972043812274932861328125">
        <ele>1075.4000244140625</ele>
        <time>2022-05-05T10:49:58.000Z</time>
      </trkpt>
      <trkpt lat="40.40213375352323055267333984375" lon="-1.36715412139892578125">
        <ele>1075.199951171875</ele>
        <time>2022-05-05T10:50:00.000Z</time>
      </trkpt>
      <trkpt lat="40.4022506810724735260009765625" lon="-1.36706753633916378021240234375">
        <ele>1075</ele>
        <time>2022-05-05T10:50:04.000Z</time>
      </trkpt>
      <trkpt lat="40.40239493362605571746826171875" lon="-1.36690811254084110260009765625">
        <ele>1074.5999755859375</ele>
        <time>2022-05-05T10:50:09.000Z</time>
      </trkpt>
      <trkpt lat="40.40249367244541645050048828125" lon="-1.36681037954986095428466796875">
        <ele>1074.4000244140625</ele>
        <time>2022-05-05T10:50:12.000Z</time>
      </trkpt>
      <trkpt lat="40.40263884700834751129150390625" lon="-1.36667157523334026336669921875">
        <ele>1074.199951171875</ele>
        <time>2022-05-05T10:50:16.000Z</time>
      </trkpt>
      <trkpt lat="40.40276281535625457763671875" lon="-1.36657987721264362335205078125">
        <ele>1074</ele>
        <time>2022-05-05T10:50:19.000Z</time>
      </trkpt>
      <trkpt lat="40.4028407670557498931884765625" lon="-1.3665189407765865325927734375">
        <ele>1073.800048828125</ele>
        <time>2022-05-05T10:50:21.000Z</time>
      </trkpt>
      <trkpt lat="40.403015948832035064697265625" lon="-1.3663774542510509490966796875">
        <ele>1073.5999755859375</ele>
        <time>2022-05-05T10:50:26.000Z</time>
      </trkpt>
      <trkpt lat="40.403222478926181793212890625" lon="-1.36621928773820400238037109375">
        <ele>1072.800048828125</ele>
        <time>2022-05-05T10:50:31.000Z</time>
      </trkpt>
      <trkpt lat="40.40330252610146999359130859375" lon="-1.36615592055022716522216796875">
        <ele>1072.4000244140625</ele>
        <time>2022-05-05T10:50:33.000Z</time>
      </trkpt>
      <trkpt lat="40.4034482873976230621337890625" lon="-1.36603974737226963043212890625">
        <ele>1072</ele>
        <time>2022-05-05T10:50:37.000Z</time>
      </trkpt>
      <trkpt lat="40.40348357520997524261474609375" lon="-1.36601409874856472015380859375">
        <ele>1072</ele>
        <time>2022-05-05T10:50:38.000Z</time>
      </trkpt>
      <trkpt lat="40.40354576893150806427001953125" lon="-1.36596112512052059173583984375">
        <ele>1071.800048828125</ele>
        <time>2022-05-05T10:50:40.000Z</time>
      </trkpt>
      <trkpt lat="40.403687171638011932373046875" lon="-1.36583405546844005584716796875">
        <ele>1071.199951171875</ele>
        <time>2022-05-05T10:50:45.000Z</time>
      </trkpt>
      <trkpt lat="40.40375246666371822357177734375" lon="-1.3657816685736179351806640625">
        <ele>1071</ele>
        <time>2022-05-05T10:50:47.000Z</time>
      </trkpt>
      <trkpt lat="40.40395908057689666748046875" lon="-1.3656690157949924468994140625">
        <ele>1072</ele>
        <time>2022-05-05T10:50:52.000Z</time>
      </trkpt>
      <trkpt lat="40.40413451381027698516845703125" lon="-1.365562565624713897705078125">
        <ele>1073.4000244140625</ele>
        <time>2022-05-05T10:50:56.000Z</time>
      </trkpt>
      <trkpt lat="40.4041708074510097503662109375" lon="-1.365526355803012847900390625">
        <ele>1073.5999755859375</ele>
        <time>2022-05-05T10:50:57.000Z</time>
      </trkpt>
      <trkpt lat="40.40435110218822956085205078125" lon="-1.36525268666446208953857421875">
        <ele>1074</ele>
        <time>2022-05-05T10:51:03.000Z</time>
      </trkpt>
      <trkpt lat="40.40450197644531726837158203125" lon="-1.3649250380694866180419921875">
        <ele>1074.199951171875</ele>
        <time>2022-05-05T10:51:10.000Z</time>
      </trkpt>
      <trkpt lat="40.40455310605466365814208984375" lon="-1.3646353594958782196044921875">
        <ele>1073.800048828125</ele>
        <time>2022-05-05T10:51:16.000Z</time>
      </trkpt>
      <trkpt lat="40.40463524870574474334716796875" lon="-1.3644207827746868133544921875">
        <ele>1072.5999755859375</ele>
        <time>2022-05-05T10:51:21.000Z</time>
      </trkpt>
      <trkpt lat="40.4046512581408023834228515625" lon="-1.3643859140574932098388671875">
        <ele>1072.4000244140625</ele>
        <time>2022-05-05T10:51:22.000Z</time>
      </trkpt>
      <trkpt lat="40.404726527631282806396484375" lon="-1.36417930014431476593017578125">
        <ele>1072.199951171875</ele>
        <time>2022-05-05T10:51:28.000Z</time>
      </trkpt>
      <trkpt lat="40.40476776659488677978515625" lon="-1.36388123966753482818603515625">
        <ele>1070.5999755859375</ele>
        <time>2022-05-05T10:51:34.000Z</time>
      </trkpt>
      <trkpt lat="40.40478042326867580413818359375" lon="-1.3634645752608776092529296875">
        <ele>1069</ele>
        <time>2022-05-05T10:51:41.000Z</time>
      </trkpt>
      <trkpt lat="40.4047791659832000732421875" lon="-1.3632147945463657379150390625">
        <ele>1068.199951171875</ele>
        <time>2022-05-05T10:51:45.000Z</time>
      </trkpt>
      <trkpt lat="40.40478327311575412750244140625" lon="-1.36309702880680561065673828125">
        <ele>1067.5999755859375</ele>
        <time>2022-05-05T10:51:47.000Z</time>
      </trkpt>
      <trkpt lat="40.4047873802483081817626953125" lon="-1.362984962761402130126953125">
        <ele>1067</ele>
        <time>2022-05-05T10:51:49.000Z</time>
      </trkpt>
      <trkpt lat="40.4047867096960544586181640625" lon="-1.3628744892776012420654296875">
        <ele>1066.800048828125</ele>
        <time>2022-05-05T10:51:51.000Z</time>
      </trkpt>
      <trkpt lat="40.4047823511064052581787109375" lon="-1.36258036829531192779541015625">
        <ele>1066.4000244140625</ele>
        <time>2022-05-05T10:51:56.000Z</time>
      </trkpt>
      <trkpt lat="40.40477153845131397247314453125" lon="-1.36238808743655681610107421875">
        <ele>1066.199951171875</ele>
        <time>2022-05-05T10:51:59.000Z</time>
      </trkpt>
      <trkpt lat="40.40476215071976184844970703125" lon="-1.362264119088649749755859375">
        <ele>1065.800048828125</ele>
        <time>2022-05-05T10:52:01.000Z</time>
      </trkpt>
      <trkpt lat="40.4047535173594951629638671875" lon="-1.36214987374842166900634765625">
        <ele>1065.199951171875</ele>
        <time>2022-05-05T10:52:03.000Z</time>
      </trkpt>
      <trkpt lat="40.4047496616840362548828125" lon="-1.362055242061614990234375">
        <ele>1065</ele>
        <time>2022-05-05T10:52:05.000Z</time>
      </trkpt>
      <trkpt lat="40.40477841161191463470458984375" lon="-1.36193864978849887847900390625">
        <ele>1064.4000244140625</ele>
        <time>2022-05-05T10:52:08.000Z</time>
      </trkpt>
      <trkpt lat="40.404835827648639678955078125" lon="-1.3616980053484439849853515625">
        <ele>1063.5999755859375</ele>
        <time>2022-05-05T10:52:14.000Z</time>
      </trkpt>
      <trkpt lat="40.40488335303962230682373046875" lon="-1.36144529096782207489013671875">
        <ele>1063.199951171875</ele>
        <time>2022-05-05T10:52:20.000Z</time>
      </trkpt>
      <trkpt lat="40.40493272244930267333984375" lon="-1.36124094016849994659423828125">
        <ele>1064.4000244140625</ele>
        <time>2022-05-05T10:52:25.000Z</time>
      </trkpt>
      <trkpt lat="40.4049469716846942901611328125" lon="-1.3612054847180843353271484375">
        <ele>1064.5999755859375</ele>
        <time>2022-05-05T10:52:26.000Z</time>
      </trkpt>
      <trkpt lat="40.4049915634095668792724609375" lon="-1.361121833324432373046875">
        <ele>1065</ele>
        <time>2022-05-05T10:52:29.000Z</time>
      </trkpt>
      <trkpt lat="40.40504914708435535430908203125" lon="-1.361061148345470428466796875">
        <ele>1065.199951171875</ele>
        <time>2022-05-05T10:52:32.000Z</time>
      </trkpt>
      <trkpt lat="40.40507328696548938751220703125" lon="-1.36104564182460308074951171875">
        <ele>1065.199951171875</ele>
        <time>2022-05-05T10:52:33.000Z</time>
      </trkpt>
      <trkpt lat="40.40514352731406688690185546875" lon="-1.36099987663328647613525390625">
        <ele>1065</ele>
        <time>2022-05-05T10:52:36.000Z</time>
      </trkpt>
      <trkpt lat="40.4052296094596385955810546875" lon="-1.36093785054981708526611328125">
        <ele>1065</ele>
        <time>2022-05-05T10:52:40.000Z</time>
      </trkpt>
      <trkpt lat="40.4052762128412723541259765625" lon="-1.36091320775449275970458984375">
        <ele>1065</ele>
        <time>2022-05-05T10:52:42.000Z</time>
      </trkpt>
      <trkpt lat="40.405371598899364471435546875" lon="-1.360848583281040191650390625">
        <ele>1065</ele>
        <time>2022-05-05T10:52:47.000Z</time>
      </trkpt>
      <trkpt lat="40.40538844652473926544189453125" lon="-1.36083290912210941314697265625">
        <ele>1065</ele>
        <time>2022-05-05T10:52:48.000Z</time>
      </trkpt>
      <trkpt lat="40.40545172989368438720703125" lon="-1.36076736263930797576904296875">
        <ele>1065.199951171875</ele>
        <time>2022-05-05T10:52:52.000Z</time>
      </trkpt>
      <trkpt lat="40.40550160221755504608154296875" lon="-1.360698379576206207275390625">
        <ele>1065.5999755859375</ele>
        <time>2022-05-05T10:52:56.000Z</time>
      </trkpt>
      <trkpt lat="40.4055115766823291778564453125" lon="-1.36067599989473819732666015625">
        <ele>1065.5999755859375</ele>
        <time>2022-05-05T10:52:57.000Z</time>
      </trkpt>
      <trkpt lat="40.40559028275310993194580078125" lon="-1.3605319149792194366455078125">
        <ele>1067.800048828125</ele>
        <time>2022-05-05T10:53:04.000Z</time>
      </trkpt>
      <trkpt lat="40.405621714890003204345703125" lon="-1.36049344204366207122802734375">
        <ele>1068.4000244140625</ele>
        <time>2022-05-05T10:53:06.000Z</time>
      </trkpt>
      <trkpt lat="40.405706875026226043701171875" lon="-1.36042873375117778778076171875">
        <ele>1069.4000244140625</ele>
        <time>2022-05-05T10:53:11.000Z</time>
      </trkpt>
      <trkpt lat="40.40576194413006305694580078125" lon="-1.36040878482162952423095703125">
        <ele>1069.4000244140625</ele>
        <time>2022-05-05T10:53:14.000Z</time>
      </trkpt>
      <trkpt lat="40.405796729028224945068359375" lon="-1.3603984750807285308837890625">
        <ele>1069.5999755859375</ele>
        <time>2022-05-05T10:53:16.000Z</time>
      </trkpt>
      <trkpt lat="40.40587551891803741455078125" lon="-1.3604035042226314544677734375">
        <ele>1069.199951171875</ele>
        <time>2022-05-05T10:53:20.000Z</time>
      </trkpt>
      <trkpt lat="40.405895300209522247314453125" lon="-1.3603994809091091156005859375">
        <ele>1069.199951171875</ele>
        <time>2022-05-05T10:53:21.000Z</time>
      </trkpt>
      <trkpt lat="40.40595808066427707672119140625" lon="-1.36039369739592075347900390625">
        <ele>1069</ele>
        <time>2022-05-05T10:53:24.000Z</time>
      </trkpt>
      <trkpt lat="40.40605254471302032470703125" lon="-1.36036385782063007354736328125">
        <ele>1069.4000244140625</ele>
        <time>2022-05-05T10:53:29.000Z</time>
      </trkpt>
      <trkpt lat="40.4060694761574268341064453125" lon="-1.36035631410777568817138671875">
        <ele>1069.4000244140625</ele>
        <time>2022-05-05T10:53:30.000Z</time>
      </trkpt>
      <trkpt lat="40.4061516188085079193115234375" lon="-1.36029127053916454315185546875">
        <ele>1070.4000244140625</ele>
        <time>2022-05-05T10:53:35.000Z</time>
      </trkpt>
      <trkpt lat="40.4061663709580898284912109375" lon="-1.36027551256120204925537109375">
        <ele>1070.5999755859375</ele>
        <time>2022-05-05T10:53:36.000Z</time>
      </trkpt>
      <trkpt lat="40.4062213562428951263427734375" lon="-1.36020778678357601165771484375">
        <ele>1071.800048828125</ele>
        <time>2022-05-05T10:53:40.000Z</time>
      </trkpt>
      <trkpt lat="40.4062659479677677154541015625" lon="-1.3601399771869182586669921875">
        <ele>1072.800048828125</ele>
        <time>2022-05-05T10:53:44.000Z</time>
      </trkpt>
      <trkpt lat="40.40628497488796710968017578125" lon="-1.36010150425136089324951171875">
        <ele>1073.5999755859375</ele>
        <time>2022-05-05T10:53:46.000Z</time>
      </trkpt>
      <trkpt lat="40.40630173869431018829345703125" lon="-1.36006194166839122772216796875">
        <ele>1074.199951171875</ele>
        <time>2022-05-05T10:53:48.000Z</time>
      </trkpt>
      <trkpt lat="40.40634633041918277740478515625" lon="-1.35994224809110164642333984375">
        <ele>1076.199951171875</ele>
        <time>2022-05-05T10:53:54.000Z</time>
      </trkpt>
      <trkpt lat="40.40635320357978343963623046875" lon="-1.35992330498993396759033203125">
        <ele>1076.5999755859375</ele>
        <time>2022-05-05T10:53:55.000Z</time>
      </trkpt>
      <trkpt lat="40.4063906706869602203369140625" lon="-1.3598073832690715789794921875">
        <ele>1078.4000244140625</ele>
        <time>2022-05-05T10:54:01.000Z</time>
      </trkpt>
      <trkpt lat="40.40641640312969684600830078125" lon="-1.35972767136991024017333984375">
        <ele>1080</ele>
        <time>2022-05-05T10:54:05.000Z</time>
      </trkpt>
      <trkpt lat="40.40645747445523738861083984375" lon="-1.35954963974654674530029296875">
        <ele>1082.199951171875</ele>
        <time>2022-05-05T10:54:13.000Z</time>
      </trkpt>
      <trkpt lat="40.406460575759410858154296875" lon="-1.3595257513225078582763671875">
        <ele>1082.5999755859375</ele>
        <time>2022-05-05T10:54:14.000Z</time>
      </trkpt>
      <trkpt lat="40.40647440589964389801025390625" lon="-1.359340846538543701171875">
        <ele>1084.800048828125</ele>
        <time>2022-05-05T10:54:21.000Z</time>
      </trkpt>
      <trkpt lat="40.4064635932445526123046875" lon="-1.35921050794422626495361328125">
        <ele>1086.4000244140625</ele>
        <time>2022-05-05T10:54:26.000Z</time>
      </trkpt>
      <trkpt lat="40.40644490160048007965087890625" lon="-1.35905058123171329498291015625">
        <ele>1088.199951171875</ele>
        <time>2022-05-05T10:54:33.000Z</time>
      </trkpt>
      <trkpt lat="40.40642746724188327789306640625" lon="-1.358954608440399169921875">
        <ele>1089.199951171875</ele>
        <time>2022-05-05T10:54:38.000Z</time>
      </trkpt>
      <trkpt lat="40.40642210282385349273681640625" lon="-1.3589185662567615509033203125">
        <ele>1089.199951171875</ele>
        <time>2022-05-05T10:54:40.000Z</time>
      </trkpt>
      <trkpt lat="40.40642931126058101654052734375" lon="-1.3587735593318939208984375">
        <ele>1088.4000244140625</ele>
        <time>2022-05-05T10:54:44.000Z</time>
      </trkpt>
      <trkpt lat="40.406440459191799163818359375" lon="-1.358718574047088623046875">
        <ele>1088.199951171875</ele>
        <time>2022-05-05T10:54:45.000Z</time>
      </trkpt>
      <trkpt lat="40.406500808894634246826171875" lon="-1.35850961320102214813232421875">
        <ele>1087.199951171875</ele>
        <time>2022-05-05T10:54:48.000Z</time>
      </trkpt>
      <trkpt lat="40.40656006895005702972412109375" lon="-1.35835287161171436309814453125">
        <ele>1086.5999755859375</ele>
        <time>2022-05-05T10:54:50.000Z</time>
      </trkpt>
      <trkpt lat="40.406592004001140594482421875" lon="-1.35827408172190189361572265625">
        <ele>1086.199951171875</ele>
        <time>2022-05-05T10:54:51.000Z</time>
      </trkpt>
      <trkpt lat="40.40662595070898532867431640625" lon="-1.35819596238434314727783203125">
        <ele>1086</ele>
        <time>2022-05-05T10:54:52.000Z</time>
      </trkpt>
      <trkpt lat="40.40666006505489349365234375" lon="-1.3581175915896892547607421875">
        <ele>1085.4000244140625</ele>
        <time>2022-05-05T10:54:53.000Z</time>
      </trkpt>
      <trkpt lat="40.40669602341949939727783203125" lon="-1.358036287128925323486328125">
        <ele>1084.199951171875</ele>
        <time>2022-05-05T10:54:54.000Z</time>
      </trkpt>
      <trkpt lat="40.4067353345453739166259765625" lon="-1.3579486124217510223388671875">
        <ele>1083</ele>
        <time>2022-05-05T10:54:55.000Z</time>
      </trkpt>
      <trkpt lat="40.40682678110897541046142578125" lon="-1.35775909759104251861572265625">
        <ele>1080.4000244140625</ele>
        <time>2022-05-05T10:54:57.000Z</time>
      </trkpt>
      <trkpt lat="40.40687925182282924652099609375" lon="-1.35766019113361835479736328125">
        <ele>1079</ele>
        <time>2022-05-05T10:54:58.000Z</time>
      </trkpt>
      <trkpt lat="40.4069344885647296905517578125" lon="-1.3575627095997333526611328125">
        <ele>1077.800048828125</ele>
        <time>2022-05-05T10:54:59.000Z</time>
      </trkpt>
      <trkpt lat="40.40706281550228595733642578125" lon="-1.357372440397739410400390625">
        <ele>1075.800048828125</ele>
        <time>2022-05-05T10:55:01.000Z</time>
      </trkpt>
      <trkpt lat="40.40720161981880664825439453125" lon="-1.3571794889867305755615234375">
        <ele>1072.5999755859375</ele>
        <time>2022-05-05T10:55:03.000Z</time>
      </trkpt>
      <trkpt lat="40.40726465173065662384033203125" lon="-1.35707496665418148040771484375">
        <ele>1070.4000244140625</ele>
        <time>2022-05-05T10:55:04.000Z</time>
      </trkpt>
      <trkpt lat="40.40732231922447681427001953125" lon="-1.35696566663682460784912109375">
        <ele>1068.199951171875</ele>
        <time>2022-05-05T10:55:05.000Z</time>
      </trkpt>
      <trkpt lat="40.40737495757639408111572265625" lon="-1.35685385204851627349853515625">
        <ele>1066</ele>
        <time>2022-05-05T10:55:06.000Z</time>
      </trkpt>
      <trkpt lat="40.4074588604271411895751953125" lon="-1.35662117041647434234619140625">
        <ele>1062</ele>
        <time>2022-05-05T10:55:08.000Z</time>
      </trkpt>
      <trkpt lat="40.40754309855401515960693359375" lon="-1.356286816298961639404296875">
        <ele>1057.800048828125</ele>
        <time>2022-05-05T10:55:11.000Z</time>
      </trkpt>
      <trkpt lat="40.407561622560024261474609375" lon="-1.35618883185088634490966796875">
        <ele>1056.800048828125</ele>
        <time>2022-05-05T10:55:12.000Z</time>
      </trkpt>
      <trkpt lat="40.40757411159574985504150390625" lon="-1.356097050011157989501953125">
        <ele>1056.199951171875</ele>
        <time>2022-05-05T10:55:13.000Z</time>
      </trkpt>
      <trkpt lat="40.40757897309958934783935546875" lon="-1.3560053519904613494873046875">
        <ele>1055.4000244140625</ele>
        <time>2022-05-05T10:55:14.000Z</time>
      </trkpt>
      <trkpt lat="40.4075767099857330322265625" lon="-1.35590971447527408599853515625">
        <ele>1055</ele>
        <time>2022-05-05T10:55:15.000Z</time>
      </trkpt>
      <trkpt lat="40.40756975300610065460205078125" lon="-1.355812735855579376220703125">
        <ele>1054.4000244140625</ele>
        <time>2022-05-05T10:55:16.000Z</time>
      </trkpt>
      <trkpt lat="40.40755868889391422271728515625" lon="-1.35571961291134357452392578125">
        <ele>1054.199951171875</ele>
        <time>2022-05-05T10:55:17.000Z</time>
      </trkpt>
      <trkpt lat="40.4075433500111103057861328125" lon="-1.3556288368999958038330078125">
        <ele>1053.800048828125</ele>
        <time>2022-05-05T10:55:18.000Z</time>
      </trkpt>
      <trkpt lat="40.40751728229224681854248046875" lon="-1.3554461114108562469482421875">
        <ele>1053.4000244140625</ele>
        <time>2022-05-05T10:55:20.000Z</time>
      </trkpt>
      <trkpt lat="40.407509990036487579345703125" lon="-1.35535650886595249176025390625">
        <ele>1053.199951171875</ele>
        <time>2022-05-05T10:55:21.000Z</time>
      </trkpt>
      <trkpt lat="40.407508648931980133056640625" lon="-1.355267576873302459716796875">
        <ele>1052.800048828125</ele>
        <time>2022-05-05T10:55:22.000Z</time>
      </trkpt>
      <trkpt lat="40.40752147324383258819580078125" lon="-1.35507605038583278656005859375">
        <ele>1051.199951171875</ele>
        <time>2022-05-05T10:55:24.000Z</time>
      </trkpt>
      <trkpt lat="40.40753178298473358154296875" lon="-1.35497353971004486083984375">
        <ele>1050.199951171875</ele>
        <time>2022-05-05T10:55:25.000Z</time>
      </trkpt>
      <trkpt lat="40.40754527784883975982666015625" lon="-1.35487102903425693511962890625">
        <ele>1049.4000244140625</ele>
        <time>2022-05-05T10:55:26.000Z</time>
      </trkpt>
      <trkpt lat="40.4075795598328113555908203125" lon="-1.35465712286531925201416015625">
        <ele>1047.800048828125</ele>
        <time>2022-05-05T10:55:28.000Z</time>
      </trkpt>
      <trkpt lat="40.40759657509624958038330078125" lon="-1.35455050505697727203369140625">
        <ele>1047.199951171875</ele>
        <time>2022-05-05T10:55:29.000Z</time>
      </trkpt>
      <trkpt lat="40.40760613046586513519287109375" lon="-1.354444809257984161376953125">
        <ele>1046.5999755859375</ele>
        <time>2022-05-05T10:55:30.000Z</time>
      </trkpt>
      <trkpt lat="40.40760998614132404327392578125" lon="-1.3543383590877056121826171875">
        <ele>1046</ele>
        <time>2022-05-05T10:55:31.000Z</time>
      </trkpt>
      <trkpt lat="40.40760780684649944305419921875" lon="-1.35423165746033191680908203125">
        <ele>1045</ele>
        <time>2022-05-05T10:55:32.000Z</time>
      </trkpt>
      <trkpt lat="40.4076010175049304962158203125" lon="-1.35412705130875110626220703125">
        <ele>1044.199951171875</ele>
        <time>2022-05-05T10:55:33.000Z</time>
      </trkpt>
      <trkpt lat="40.4075926356017589569091796875" lon="-1.354022361338138580322265625">
        <ele>1043.199951171875</ele>
        <time>2022-05-05T10:55:34.000Z</time>
      </trkpt>
      <trkpt lat="40.40759473107755184173583984375" lon="-1.3539214432239532470703125">
        <ele>1042.800048828125</ele>
        <time>2022-05-05T10:55:35.000Z</time>
      </trkpt>
      <trkpt lat="40.40763446129858493804931640625" lon="-1.35374911129474639892578125">
        <ele>1042.4000244140625</ele>
        <time>2022-05-05T10:55:37.000Z</time>
      </trkpt>
      <trkpt lat="40.40767100639641284942626953125" lon="-1.35368398390710353851318359375">
        <ele>1042</ele>
        <time>2022-05-05T10:55:38.000Z</time>
      </trkpt>
      <trkpt lat="40.40771224536001682281494140625" lon="-1.35362983681261539459228515625">
        <ele>1041.5999755859375</ele>
        <time>2022-05-05T10:55:39.000Z</time>
      </trkpt>
      <trkpt lat="40.40775440633296966552734375" lon="-1.35358273051679134368896484375">
        <ele>1041.199951171875</ele>
        <time>2022-05-05T10:55:40.000Z</time>
      </trkpt>
      <trkpt lat="40.407829843461513519287109375" lon="-1.35350234806537628173828125">
        <ele>1040.4000244140625</ele>
        <time>2022-05-05T10:55:42.000Z</time>
      </trkpt>
      <trkpt lat="40.40795682929456233978271484375" lon="-1.35330143384635448455810546875">
        <ele>1039.199951171875</ele>
        <time>2022-05-05T10:55:47.000Z</time>
      </trkpt>
      <trkpt lat="40.40797610767185688018798828125" lon="-1.35325131006538867950439453125">
        <ele>1039</ele>
        <time>2022-05-05T10:55:48.000Z</time>
      </trkpt>
      <trkpt lat="40.408043079078197479248046875" lon="-1.35298761539161205291748046875">
        <ele>1039</ele>
        <time>2022-05-05T10:55:53.000Z</time>
      </trkpt>
      <trkpt lat="40.40811692364513874053955078125" lon="-1.352700032293796539306640625">
        <ele>1039.4000244140625</ele>
        <time>2022-05-05T10:55:59.000Z</time>
      </trkpt>
      <trkpt lat="40.40820158086717128753662109375" lon="-1.35233332403004169464111328125">
        <ele>1040</ele>
        <time>2022-05-05T10:56:06.000Z</time>
      </trkpt>
      <trkpt lat="40.408224128186702728271484375" lon="-1.35223098099231719970703125">
        <ele>1040.4000244140625</ele>
        <time>2022-05-05T10:56:08.000Z</time>
      </trkpt>
      <trkpt lat="40.40823779068887233734130859375" lon="-1.3521806895732879638671875">
        <ele>1040.5999755859375</ele>
        <time>2022-05-05T10:56:09.000Z</time>
      </trkpt>
      <trkpt lat="40.40829646401107311248779296875" lon="-1.35193384252488613128662109375">
        <ele>1041.4000244140625</ele>
        <time>2022-05-05T10:56:14.000Z</time>
      </trkpt>
      <trkpt lat="40.408355556428432464599609375" lon="-1.3516779430210590362548828125">
        <ele>1041.4000244140625</ele>
        <time>2022-05-05T10:56:20.000Z</time>
      </trkpt>
      <trkpt lat="40.4083610884845256805419921875" lon="-1.35163662023842334747314453125">
        <ele>1041.4000244140625</ele>
        <time>2022-05-05T10:56:21.000Z</time>
      </trkpt>
      <trkpt lat="40.40840157307684421539306640625" lon="-1.35148457251489162445068359375">
        <ele>1041.4000244140625</ele>
        <time>2022-05-05T10:56:25.000Z</time>
      </trkpt>
      <trkpt lat="40.4084831289947032928466796875" lon="-1.35126479901373386383056640625">
        <ele>1041.4000244140625</ele>
        <time>2022-05-05T10:56:31.000Z</time>
      </trkpt>
      <trkpt lat="40.40859402157366275787353515625" lon="-1.351027674973011016845703125">
        <ele>1041.4000244140625</ele>
        <time>2022-05-05T10:56:38.000Z</time>
      </trkpt>
      <trkpt lat="40.40869644843041896820068359375" lon="-1.350816786289215087890625">
        <ele>1041.199951171875</ele>
        <time>2022-05-05T10:56:43.000Z</time>
      </trkpt>
      <trkpt lat="40.408828966319561004638671875" lon="-1.3505510799586772918701171875">
        <ele>1041</ele>
        <time>2022-05-05T10:56:49.000Z</time>
      </trkpt>
      <trkpt lat="40.40893449448049068450927734375" lon="-1.350376904010772705078125">
        <ele>1040.199951171875</ele>
        <time>2022-05-05T10:56:54.000Z</time>
      </trkpt>
      <trkpt lat="40.40895896963775157928466796875" lon="-1.3503368385136127471923828125">
        <ele>1040</ele>
        <time>2022-05-05T10:56:55.000Z</time>
      </trkpt>
      <trkpt lat="40.4090608097612857818603515625" lon="-1.35016073472797870635986328125">
        <ele>1039.199951171875</ele>
        <time>2022-05-05T10:56:59.000Z</time>
      </trkpt>
      <trkpt lat="40.40908838622272014617919921875" lon="-1.35011496953666210174560546875">
        <ele>1039</ele>
        <time>2022-05-05T10:57:00.000Z</time>
      </trkpt>
      <trkpt lat="40.4091446287930011749267578125" lon="-1.35003693401813507080078125">
        <ele>1038.5999755859375</ele>
        <time>2022-05-05T10:57:02.000Z</time>
      </trkpt>
      <trkpt lat="40.4091841913759708404541015625" lon="-1.3499772548675537109375">
        <ele>1038.4000244140625</ele>
        <time>2022-05-05T10:57:04.000Z</time>
      </trkpt>
      <trkpt lat="40.40922434069216251373291015625" lon="-1.34990751743316650390625">
        <ele>1038</ele>
        <time>2022-05-05T10:57:06.000Z</time>
      </trkpt>
      <trkpt lat="40.40932307951152324676513671875" lon="-1.349798552691936492919921875">
        <ele>1037.4000244140625</ele>
        <time>2022-05-05T10:57:09.000Z</time>
      </trkpt>
      <trkpt lat="40.40940136648714542388916015625" lon="-1.349699981510639190673828125">
        <ele>1036.4000244140625</ele>
        <time>2022-05-05T10:57:11.000Z</time>
      </trkpt>
      <trkpt lat="40.40948711335659027099609375" lon="-1.3495771028101444244384765625">
        <ele>1035.4000244140625</ele>
        <time>2022-05-05T10:57:13.000Z</time>
      </trkpt>
      <trkpt lat="40.40958744473755359649658203125" lon="-1.34946294128894805908203125">
        <ele>1034.199951171875</ele>
        <time>2022-05-05T10:57:15.000Z</time>
      </trkpt>
      <trkpt lat="40.40972021408379077911376953125" lon="-1.34932539425790309906005859375">
        <ele>1033.5999755859375</ele>
        <time>2022-05-05T10:57:18.000Z</time>
      </trkpt>
      <trkpt lat="40.40980218909680843353271484375" lon="-1.34924844838678836822509765625">
        <ele>1033.5999755859375</ele>
        <time>2022-05-05T10:57:20.000Z</time>
      </trkpt>
      <trkpt lat="40.409907884895801544189453125" lon="-1.34915675036609172821044921875">
        <ele>1033.5999755859375</ele>
        <time>2022-05-05T10:57:23.000Z</time>
      </trkpt>
      <trkpt lat="40.41013528592884540557861328125" lon="-1.348987855017185211181640625">
        <ele>1033.800048828125</ele>
        <time>2022-05-05T10:57:31.000Z</time>
      </trkpt>
      <trkpt lat="40.41016361676156520843505859375" lon="-1.34896815754473209381103515625">
        <ele>1033.800048828125</ele>
        <time>2022-05-05T10:57:32.000Z</time>
      </trkpt>
      <trkpt lat="40.41018155403435230255126953125" lon="-1.3489457778632640838623046875">
        <ele>1034</ele>
        <time>2022-05-05T10:57:33.000Z</time>
      </trkpt>
      <trkpt lat="40.4101782850921154022216796875" lon="-1.3489043712615966796875">
        <ele>1034.199951171875</ele>
        <time>2022-05-05T10:57:35.000Z</time>
      </trkpt>
      <trkpt lat="40.4101481102406978607177734375" lon="-1.348885260522365570068359375">
        <ele>1034.199951171875</ele>
        <time>2022-05-05T10:57:37.000Z</time>
      </trkpt>
      <trkpt lat="40.41012690402567386627197265625" lon="-1.348887272179126739501953125">
        <ele>1034</ele>
        <time>2022-05-05T10:57:38.000Z</time>
      </trkpt>
      <trkpt lat="40.4100116528570652008056640625" lon="-1.3489075563848018646240234375">
        <ele>1033.5999755859375</ele>
        <time>2022-05-05T10:57:44.000Z</time>
      </trkpt>
      <trkpt lat="40.40999212302267551422119140625" lon="-1.3489008508622646331787109375">
        <ele>1033.4000244140625</ele>
        <time>2022-05-05T10:57:47.000Z</time>
      </trkpt>
      <trkpt lat="40.4101662151515483856201171875" lon="-1.34889657609164714813232421875">
        <ele>1034.199951171875</ele>
        <time>2022-05-05T10:58:54.000Z</time>
      </trkpt>
      <trkpt lat="40.41027643717825412750244140625" lon="-1.34885114617645740509033203125">
        <ele>1034.5999755859375</ele>
        <time>2022-05-05T10:58:59.000Z</time>
      </trkpt>
      <trkpt lat="40.4103259742259979248046875" lon="-1.348822228610515594482421875">
        <ele>1035</ele>
        <time>2022-05-05T10:59:01.000Z</time>
      </trkpt>
      <trkpt lat="40.4104223661124706268310546875" lon="-1.34878308512270450592041015625">
        <ele>1035.4000244140625</ele>
        <time>2022-05-05T10:59:05.000Z</time>
      </trkpt>
      <trkpt lat="40.410480536520481109619140625" lon="-1.3487318716943264007568359375">
        <ele>1035.800048828125</ele>
        <time>2022-05-05T10:59:10.000Z</time>
      </trkpt>
      <trkpt lat="40.4104870744049549102783203125" lon="-1.3486966677010059356689453125">
        <ele>1036</ele>
        <time>2022-05-05T10:59:12.000Z</time>
      </trkpt>
      <trkpt lat="40.410488583147525787353515625" lon="-1.34867512620985507965087890625">
        <ele>1036.199951171875</ele>
        <time>2022-05-05T10:59:13.000Z</time>
      </trkpt>
      <trkpt lat="40.41049352847039699554443359375" lon="-1.348651237785816192626953125">
        <ele>1036.199951171875</ele>
        <time>2022-05-05T10:59:14.000Z</time>
      </trkpt>
      <trkpt lat="40.41063099168241024017333984375" lon="-1.3482809253036975860595703125">
        <ele>1039.5999755859375</ele>
        <time>2022-05-05T10:59:31.000Z</time>
      </trkpt>
      <trkpt lat="40.4106372781097888946533203125" lon="-1.348246894776821136474609375">
        <ele>1039.800048828125</ele>
        <time>2022-05-05T10:59:32.000Z</time>
      </trkpt>
      <trkpt lat="40.4106453247368335723876953125" lon="-1.3482108525931835174560546875">
        <ele>1040</ele>
        <time>2022-05-05T10:59:33.000Z</time>
      </trkpt>
      <trkpt lat="40.41072922758758068084716796875" lon="-1.34783509187400341033935546875">
        <ele>1042.4000244140625</ele>
        <time>2022-05-05T10:59:48.000Z</time>
      </trkpt>
      <trkpt lat="40.41073568165302276611328125" lon="-1.34778614155948162078857421875">
        <ele>1042.5999755859375</ele>
        <time>2022-05-05T10:59:50.000Z</time>
      </trkpt>
      <trkpt lat="40.410755462944507598876953125" lon="-1.34775278158485889434814453125">
        <ele>1043</ele>
        <time>2022-05-05T10:59:51.000Z</time>
      </trkpt>
      <trkpt lat="40.410721935331821441650390625" lon="-1.3471849076449871063232421875">
        <ele>1042.5999755859375</ele>
        <time>2022-05-05T11:00:11.000Z</time>
      </trkpt>
      <trkpt lat="40.410717912018299102783203125" lon="-1.34713386185467243194580078125">
        <ele>1042.4000244140625</ele>
        <time>2022-05-05T11:00:13.000Z</time>
      </trkpt>
      <trkpt lat="40.41081237606704235076904296875" lon="-1.34680696763098239898681640625">
        <ele>1043.5999755859375</ele>
        <time>2022-05-05T11:00:22.000Z</time>
      </trkpt>
      <trkpt lat="40.41082813404500484466552734375" lon="-1.34673069231212139129638671875">
        <ele>1043.5999755859375</ele>
        <time>2022-05-05T11:00:25.000Z</time>
      </trkpt>
      <trkpt lat="40.41080298833549022674560546875" lon="-1.34669079445302486419677734375">
        <ele>1043.199951171875</ele>
        <time>2022-05-05T11:00:27.000Z</time>
      </trkpt>
      <trkpt lat="40.41079879738390445709228515625" lon="-1.34668626822531223297119140625">
        <ele>1043.199951171875</ele>
        <time>2022-05-05T11:00:28.000Z</time>
      </trkpt>
      <trkpt lat="40.41076325811445713043212890625" lon="-1.34648979641497135162353515625">
        <ele>1042.4000244140625</ele>
        <time>2022-05-05T11:10:29.000Z</time>
      </trkpt>
      <trkpt lat="40.4107864759862422943115234375" lon="-1.3464483059942722320556640625">
        <ele>1042.5999755859375</ele>
        <time>2022-05-05T11:10:31.000Z</time>
      </trkpt>
      <trkpt lat="40.41086618788540363311767578125" lon="-1.346203386783599853515625">
        <ele>1043.199951171875</ele>
        <time>2022-05-05T11:10:40.000Z</time>
      </trkpt>
      <trkpt lat="40.4108917526900768280029296875" lon="-1.34616910479962825775146484375">
        <ele>1043.5999755859375</ele>
        <time>2022-05-05T11:10:42.000Z</time>
      </trkpt>
      <trkpt lat="40.410948581993579864501953125" lon="-1.34608930908143520355224609375">
        <ele>1044.4000244140625</ele>
        <time>2022-05-05T11:10:46.000Z</time>
      </trkpt>
      <trkpt lat="40.4109561257064342498779296875" lon="-1.34606860578060150146484375">
        <ele>1044.4000244140625</ele>
        <time>2022-05-05T11:10:47.000Z</time>
      </trkpt>
      <trkpt lat="40.41096509434282779693603515625" lon="-1.34604580700397491455078125">
        <ele>1044.4000244140625</ele>
        <time>2022-05-05T11:10:48.000Z</time>
      </trkpt>
      <trkpt lat="40.41098873130977153778076171875" lon="-1.34581555612385272979736328125">
        <ele>1044.800048828125</ele>
        <time>2022-05-05T11:10:56.000Z</time>
      </trkpt>
      <trkpt lat="40.4110865481197834014892578125" lon="-1.345627717673778533935546875">
        <ele>1046.199951171875</ele>
        <time>2022-05-05T11:11:03.000Z</time>
      </trkpt>
      <trkpt lat="40.4111512564122676849365234375" lon="-1.34554381482303142547607421875">
        <ele>1046.5999755859375</ele>
        <time>2022-05-05T11:11:05.000Z</time>
      </trkpt>
      <trkpt lat="40.4111373424530029296875" lon="-1.3453345187008380889892578125">
        <ele>1045.800048828125</ele>
        <time>2022-05-05T11:11:09.000Z</time>
      </trkpt>
      <trkpt lat="40.41114111430943012237548828125" lon="-1.34509555064141750335693359375">
        <ele>1045</ele>
        <time>2022-05-05T11:11:14.000Z</time>
      </trkpt>
      <trkpt lat="40.4111438803374767303466796875" lon="-1.3450589217245578765869140625">
        <ele>1044.800048828125</ele>
        <time>2022-05-05T11:11:15.000Z</time>
      </trkpt>
      <trkpt lat="40.41115142405033111572265625" lon="-1.344867646694183349609375">
        <ele>1044.199951171875</ele>
        <time>2022-05-05T11:11:20.000Z</time>
      </trkpt>
      <trkpt lat="40.411191321909427642822265625" lon="-1.34462155401706695556640625">
        <ele>1044</ele>
        <time>2022-05-05T11:11:26.000Z</time>
      </trkpt>
      <trkpt lat="40.41122878901660442352294921875" lon="-1.34430698119103908538818359375">
        <ele>1043.800048828125</ele>
        <time>2022-05-05T11:11:32.000Z</time>
      </trkpt>
      <trkpt lat="40.41124488227069377899169921875" lon="-1.34396533481776714324951171875">
        <ele>1043.199951171875</ele>
        <time>2022-05-05T11:11:38.000Z</time>
      </trkpt>
      <trkpt lat="40.4112528450787067413330078125" lon="-1.34358630515635013580322265625">
        <ele>1043</ele>
        <time>2022-05-05T11:11:46.000Z</time>
      </trkpt>
      <trkpt lat="40.41129332967102527618408203125" lon="-1.34329386055469512939453125">
        <ele>1043</ele>
        <time>2022-05-05T11:11:52.000Z</time>
      </trkpt>
      <trkpt lat="40.41131696663796901702880859375" lon="-1.3431872427463531494140625">
        <ele>1043</ele>
        <time>2022-05-05T11:11:54.000Z</time>
      </trkpt>
      <trkpt lat="40.41130967438220977783203125" lon="-1.3431324250996112823486328125">
        <ele>1043</ele>
        <time>2022-05-05T11:11:55.000Z</time>
      </trkpt>
      <trkpt lat="40.4112853668630123138427734375" lon="-1.3430254720151424407958984375">
        <ele>1043.199951171875</ele>
        <time>2022-05-05T11:11:57.000Z</time>
      </trkpt>
      <trkpt lat="40.41125762276351451873779296875" lon="-1.3427636213600635528564453125">
        <ele>1043.800048828125</ele>
        <time>2022-05-05T11:12:02.000Z</time>
      </trkpt>
      <trkpt lat="40.411189980804920196533203125" lon="-1.3424202986061573028564453125">
        <ele>1044.4000244140625</ele>
        <time>2022-05-05T11:12:08.000Z</time>
      </trkpt>
      <trkpt lat="40.411175228655338287353515625" lon="-1.34237059392035007476806640625">
        <ele>1043.800048828125</ele>
        <time>2022-05-05T11:12:09.000Z</time>
      </trkpt>
      <trkpt lat="40.41109367273747920989990234375" lon="-1.342018134891986846923828125">
        <ele>1041.5999755859375</ele>
        <time>2022-05-05T11:12:15.000Z</time>
      </trkpt>
      <trkpt lat="40.41107556782662868499755859375" lon="-1.34194931946694850921630859375">
        <ele>1041</ele>
        <time>2022-05-05T11:12:16.000Z</time>
      </trkpt>
      <trkpt lat="40.41102024726569652557373046875" lon="-1.3416691124439239501953125">
        <ele>1039.4000244140625</ele>
        <time>2022-05-05T11:12:20.000Z</time>
      </trkpt>
      <trkpt lat="40.41102108545601367950439453125" lon="-1.34159493260085582733154296875">
        <ele>1039</ele>
        <time>2022-05-05T11:12:21.000Z</time>
      </trkpt>
      <trkpt lat="40.41100926697254180908203125" lon="-1.34144355542957782745361328125">
        <ele>1038.4000244140625</ele>
        <time>2022-05-05T11:12:23.000Z</time>
      </trkpt>
      <trkpt lat="40.41096911765635013580322265625" lon="-1.34109084494411945343017578125">
        <ele>1037.800048828125</ele>
        <time>2022-05-05T11:12:28.000Z</time>
      </trkpt>
      <trkpt lat="40.41096207685768604278564453125" lon="-1.34075758047401905059814453125">
        <ele>1037.5999755859375</ele>
        <time>2022-05-05T11:12:34.000Z</time>
      </trkpt>
      <trkpt lat="40.4109956882894039154052734375" lon="-1.3404693268239498138427734375">
        <ele>1036.800048828125</ele>
        <time>2022-05-05T11:12:41.000Z</time>
      </trkpt>
      <trkpt lat="40.41106198914349079132080078125" lon="-1.34029322303831577301025390625">
        <ele>1036.4000244140625</ele>
        <time>2022-05-05T11:12:47.000Z</time>
      </trkpt>
      <trkpt lat="40.41106115095317363739013671875" lon="-1.340210996568202972412109375">
        <ele>1035.800048828125</ele>
        <time>2022-05-05T11:12:51.000Z</time>
      </trkpt>
      <trkpt lat="40.41106785647571086883544921875" lon="-1.3401933945715427398681640625">
        <ele>1035.800048828125</ele>
        <time>2022-05-05T11:12:52.000Z</time>
      </trkpt>
      <trkpt lat="40.41115670464932918548583984375" lon="-1.340127177536487579345703125">
        <ele>1036.800048828125</ele>
        <time>2022-05-05T11:12:58.000Z</time>
      </trkpt>
      <trkpt lat="40.41119107045233249664306640625" lon="-1.34009172208607196807861328125">
        <ele>1037</ele>
        <time>2022-05-05T11:13:00.000Z</time>
      </trkpt>
      <trkpt lat="40.41127086617052555084228515625" lon="-1.33999281562864780426025390625">
        <ele>1037.800048828125</ele>
        <time>2022-05-05T11:13:04.000Z</time>
      </trkpt>
      <trkpt lat="40.41129031218588352203369140625" lon="-1.3399704359471797943115234375">
        <ele>1037.800048828125</ele>
        <time>2022-05-05T11:13:05.000Z</time>
      </trkpt>
      <trkpt lat="40.41132333688437938690185546875" lon="-1.339930035173892974853515625">
        <ele>1038</ele>
        <time>2022-05-05T11:13:07.000Z</time>
      </trkpt>
      <trkpt lat="40.41137262247502803802490234375" lon="-1.3398587889969348907470703125">
        <ele>1037.5999755859375</ele>
        <time>2022-05-05T11:13:10.000Z</time>
      </trkpt>
      <trkpt lat="40.4114419408142566680908203125" lon="-1.33974202908575534820556640625">
        <ele>1037</ele>
        <time>2022-05-05T11:13:15.000Z</time>
      </trkpt>
      <trkpt lat="40.41145778261125087738037109375" lon="-1.339720152318477630615234375">
        <ele>1037</ele>
        <time>2022-05-05T11:13:16.000Z</time>
      </trkpt>
      <trkpt lat="40.41151025332510471343994140625" lon="-1.33961328305304050445556640625">
        <ele>1036.5999755859375</ele>
        <time>2022-05-05T11:13:21.000Z</time>
      </trkpt>
      <trkpt lat="40.41152483783662319183349609375" lon="-1.33957824669778347015380859375">
        <ele>1036.4000244140625</ele>
        <time>2022-05-05T11:13:23.000Z</time>
      </trkpt>
      <trkpt lat="40.41152768768370151519775390625" lon="-1.33954279124736785888671875">
        <ele>1036.199951171875</ele>
        <time>2022-05-05T11:13:26.000Z</time>
      </trkpt>
      <trkpt lat="40.4116685874760150909423828125" lon="-1.33932326920330524444580078125">
        <ele>1035.199951171875</ele>
        <time>2022-05-05T11:14:47.000Z</time>
      </trkpt>
      <trkpt lat="40.41170538403093814849853515625" lon="-1.339292339980602264404296875">
        <ele>1035.199951171875</ele>
        <time>2022-05-05T11:14:50.000Z</time>
      </trkpt>
      <trkpt lat="40.41174679063260555267333984375" lon="-1.3392653502523899078369140625">
        <ele>1035.199951171875</ele>
        <time>2022-05-05T11:14:53.000Z</time>
      </trkpt>
      <trkpt lat="40.41179356165230274200439453125" lon="-1.3392727263271808624267578125">
        <ele>1035.4000244140625</ele>
        <time>2022-05-05T11:14:56.000Z</time>
      </trkpt>
      <trkpt lat="40.41180848143994808197021484375" lon="-1.33928219787776470184326171875">
        <ele>1035.5999755859375</ele>
        <time>2022-05-05T11:14:57.000Z</time>
      </trkpt>
      <trkpt lat="40.41182306595146656036376953125" lon="-1.3392965309321880340576171875">
        <ele>1035.800048828125</ele>
        <time>2022-05-05T11:14:58.000Z</time>
      </trkpt>
      <trkpt lat="40.41183278895914554595947265625" lon="-1.33933651261031627655029296875">
        <ele>1036</ele>
        <time>2022-05-05T11:15:00.000Z</time>
      </trkpt>
      <trkpt lat="40.4118727706372737884521484375" lon="-1.3394428789615631103515625">
        <ele>1036.5999755859375</ele>
        <time>2022-05-05T11:15:04.000Z</time>
      </trkpt>
      <trkpt lat="40.4118965752422809600830078125" lon="-1.3394698686897754669189453125">
        <ele>1036.800048828125</ele>
        <time>2022-05-05T11:15:05.000Z</time>
      </trkpt>
      <trkpt lat="40.4120451025664806365966796875" lon="-1.33950700052082538604736328125">
        <ele>1037.4000244140625</ele>
        <time>2022-05-05T11:15:10.000Z</time>
      </trkpt>
      <trkpt lat="40.412236042320728302001953125" lon="-1.33950783871114253997802734375">
        <ele>1037.5999755859375</ele>
        <time>2022-05-05T11:15:16.000Z</time>
      </trkpt>
      <trkpt lat="40.41240661405026912689208984375" lon="-1.339481435716152191162109375">
        <ele>1037.800048828125</ele>
        <time>2022-05-05T11:15:23.000Z</time>
      </trkpt>
      <trkpt lat="40.41254156269133090972900390625" lon="-1.33948319591581821441650390625">
        <ele>1038</ele>
        <time>2022-05-05T11:15:28.000Z</time>
      </trkpt>
      <trkpt lat="40.4127505235373973846435546875" lon="-1.3394722156226634979248046875">
        <ele>1038.800048828125</ele>
        <time>2022-05-05T11:15:35.000Z</time>
      </trkpt>
      <trkpt lat="40.41294976137578487396240234375" lon="-1.33945318870246410369873046875">
        <ele>1039.4000244140625</ele>
        <time>2022-05-05T11:15:41.000Z</time>
      </trkpt>
      <trkpt lat="40.41301379911601543426513671875" lon="-1.33945268578827381134033203125">
        <ele>1039.5999755859375</ele>
        <time>2022-05-05T11:15:43.000Z</time>
      </trkpt>
      <trkpt lat="40.4132376797497272491455078125" lon="-1.33945017121732234954833984375">
        <ele>1040.5999755859375</ele>
        <time>2022-05-05T11:15:49.000Z</time>
      </trkpt>
      <trkpt lat="40.41341294534504413604736328125" lon="-1.3394846208393573760986328125">
        <ele>1041.800048828125</ele>
        <time>2022-05-05T11:15:55.000Z</time>
      </trkpt>
      <trkpt lat="40.41354370303452014923095703125" lon="-1.339520327746868133544921875">
        <ele>1043</ele>
        <time>2022-05-05T11:16:01.000Z</time>
      </trkpt>
      <trkpt lat="40.4135856963694095611572265625" lon="-1.33952401578426361083984375">
        <ele>1043.199951171875</ele>
        <time>2022-05-05T11:16:03.000Z</time>
      </trkpt>
      <trkpt lat="40.4137431085109710693359375" lon="-1.33950431831181049346923828125">
        <ele>1044</ele>
        <time>2022-05-05T11:16:08.000Z</time>
      </trkpt>
      <trkpt lat="40.41397503577172756195068359375" lon="-1.33941999636590480804443359375">
        <ele>1044.4000244140625</ele>
        <time>2022-05-05T11:16:15.000Z</time>
      </trkpt>
      <trkpt lat="40.4141910374164581298828125" lon="-1.339356712996959686279296875">
        <ele>1044.5999755859375</ele>
        <time>2022-05-05T11:16:23.000Z</time>
      </trkpt>
      <trkpt lat="40.4143719188868999481201171875" lon="-1.3393324054777622222900390625">
        <ele>1044.800048828125</ele>
        <time>2022-05-05T11:16:30.000Z</time>
      </trkpt>
      <trkpt lat="40.41439714841544628143310546875" lon="-1.3393277116119861602783203125">
        <ele>1044.800048828125</ele>
        <time>2022-05-05T11:16:31.000Z</time>
      </trkpt>
      <trkpt lat="40.4144644550979137420654296875" lon="-1.33932150900363922119140625">
        <ele>1044.800048828125</ele>
        <time>2022-05-05T11:16:34.000Z</time>
      </trkpt>
      <trkpt lat="40.41454735212028026580810546875" lon="-1.33932058699429035186767578125">
        <ele>1045</ele>
        <time>2022-05-05T11:16:38.000Z</time>
      </trkpt>
      <trkpt lat="40.41463963687419891357421875" lon="-1.339317820966243743896484375">
        <ele>1045</ele>
        <time>2022-05-05T11:16:43.000Z</time>
      </trkpt>
      <trkpt lat="40.4146937839686870574951171875" lon="-1.339330561459064483642578125">
        <ele>1045.199951171875</ele>
        <time>2022-05-05T11:16:46.000Z</time>
      </trkpt>
      <trkpt lat="40.41470996104180812835693359375" lon="-1.33933869190514087677001953125">
        <ele>1045.199951171875</ele>
        <time>2022-05-05T11:16:47.000Z</time>
      </trkpt>
      <trkpt lat="40.41479009203612804412841796875" lon="-1.33942334912717342376708984375">
        <ele>1045.800048828125</ele>
        <time>2022-05-05T11:16:52.000Z</time>
      </trkpt>
      <trkpt lat="40.4148034192621707916259765625" lon="-1.33944413624703884124755859375">
        <ele>1045.800048828125</ele>
        <time>2022-05-05T11:16:53.000Z</time>
      </trkpt>
      <trkpt lat="40.414829067885875701904296875" lon="-1.339514963328838348388671875">
        <ele>1046.199951171875</ele>
        <time>2022-05-05T11:16:56.000Z</time>
      </trkpt>
      <trkpt lat="40.414865277707576751708984375" lon="-1.3396083377301692962646484375">
        <ele>1046.800048828125</ele>
        <time>2022-05-05T11:17:00.000Z</time>
      </trkpt>
      <trkpt lat="40.4148942790925502777099609375" lon="-1.3397585414350032806396484375">
        <ele>1047.4000244140625</ele>
        <time>2022-05-05T11:17:06.000Z</time>
      </trkpt>
      <trkpt lat="40.4148991405963897705078125" lon="-1.33978829719126224517822265625">
        <ele>1047.5999755859375</ele>
        <time>2022-05-05T11:17:07.000Z</time>
      </trkpt>
      <trkpt lat="40.4148761741816997528076171875" lon="-1.33998560719192028045654296875">
        <ele>1050.4000244140625</ele>
        <time>2022-05-05T11:17:13.000Z</time>
      </trkpt>
      <trkpt lat="40.41488698683679103851318359375" lon="-1.34002483449876308441162109375">
        <ele>1050.800048828125</ele>
        <time>2022-05-05T11:17:14.000Z</time>
      </trkpt>
      <trkpt lat="40.41494750417768955230712890625" lon="-1.34009188972413539886474609375">
        <ele>1051.800048828125</ele>
        <time>2022-05-05T11:17:16.000Z</time>
      </trkpt>
      <trkpt lat="40.4150914214551448822021484375" lon="-1.340135894715785980224609375">
        <ele>1052.199951171875</ele>
        <time>2022-05-05T11:17:19.000Z</time>
      </trkpt>
      <trkpt lat="40.415140874683856964111328125" lon="-1.340147964656352996826171875">
        <ele>1052.4000244140625</ele>
        <time>2022-05-05T11:17:20.000Z</time>
      </trkpt>
      <trkpt lat="40.41539342142641544342041015625" lon="-1.34024016559123992919921875">
        <ele>1051</ele>
        <time>2022-05-05T11:17:25.000Z</time>
      </trkpt>
      <trkpt lat="40.41543968953192234039306640625" lon="-1.34026036597788333892822265625">
        <ele>1050.5999755859375</ele>
        <time>2022-05-05T11:17:26.000Z</time>
      </trkpt>
      <trkpt lat="40.41567455045878887176513671875" lon="-1.34040168486535549163818359375">
        <ele>1051.800048828125</ele>
        <time>2022-05-05T11:17:32.000Z</time>
      </trkpt>
      <trkpt lat="40.41594830341637134552001953125" lon="-1.34054727852344512939453125">
        <ele>1051.199951171875</ele>
        <time>2022-05-05T11:17:40.000Z</time>
      </trkpt>
      <trkpt lat="40.41597914882004261016845703125" lon="-1.34056228213012218475341796875">
        <ele>1051.199951171875</ele>
        <time>2022-05-05T11:17:41.000Z</time>
      </trkpt>
      <trkpt lat="40.416199006140232086181640625" lon="-1.34070410393178462982177734375">
        <ele>1051.4000244140625</ele>
        <time>2022-05-05T11:17:49.000Z</time>
      </trkpt>
      <trkpt lat="40.41628383100032806396484375" lon="-1.3408082909882068634033203125">
        <ele>1051.4000244140625</ele>
        <time>2022-05-05T11:17:53.000Z</time>
      </trkpt>
      <trkpt lat="40.4163436777889728546142578125" lon="-1.3408885896205902099609375">
        <ele>1051.199951171875</ele>
        <time>2022-05-05T11:17:56.000Z</time>
      </trkpt>
      <trkpt lat="40.41644903831183910369873046875" lon="-1.34110744111239910125732421875">
        <ele>1052.800048828125</ele>
        <time>2022-05-05T11:18:03.000Z</time>
      </trkpt>
      <trkpt lat="40.4164945520460605621337890625" lon="-1.3411965407431125640869140625">
        <ele>1053.4000244140625</ele>
        <time>2022-05-05T11:18:06.000Z</time>
      </trkpt>
      <trkpt lat="40.41655515320599079132080078125" lon="-1.34131330065429210662841796875">
        <ele>1053.800048828125</ele>
        <time>2022-05-05T11:18:10.000Z</time>
      </trkpt>
      <trkpt lat="40.416598655283451080322265625" lon="-1.3413946889340877532958984375">
        <ele>1054.199951171875</ele>
        <time>2022-05-05T11:18:13.000Z</time>
      </trkpt>
      <trkpt lat="40.416667051613330841064453125" lon="-1.3415348343551158905029296875">
        <ele>1055.199951171875</ele>
        <time>2022-05-05T11:18:18.000Z</time>
      </trkpt>
      <trkpt lat="40.41674005798995494842529296875" lon="-1.34171512909233570098876953125">
        <ele>1057.4000244140625</ele>
        <time>2022-05-05T11:18:24.000Z</time>
      </trkpt>
      <trkpt lat="40.416750870645046234130859375" lon="-1.3417450524866580963134765625">
        <ele>1057.800048828125</ele>
        <time>2022-05-05T11:18:25.000Z</time>
      </trkpt>
      <trkpt lat="40.4168170876801013946533203125" lon="-1.3419522531330585479736328125">
        <ele>1059</ele>
        <time>2022-05-05T11:18:32.000Z</time>
      </trkpt>
      <trkpt lat="40.41692622005939483642578125" lon="-1.34221485815942287445068359375">
        <ele>1058.5999755859375</ele>
        <time>2022-05-05T11:18:40.000Z</time>
      </trkpt>
      <trkpt lat="40.41704465635120868682861328125" lon="-1.3423770479857921600341796875">
        <ele>1059</ele>
        <time>2022-05-05T11:18:47.000Z</time>
      </trkpt>
      <trkpt lat="40.4171040840446949005126953125" lon="-1.34243245236575603485107421875">
        <ele>1058.4000244140625</ele>
        <time>2022-05-05T11:18:50.000Z</time>
      </trkpt>
      <trkpt lat="40.41718413121998310089111328125" lon="-1.34250017814338207244873046875">
        <ele>1058</ele>
        <time>2022-05-05T11:18:54.000Z</time>
      </trkpt>
      <trkpt lat="40.41720324195921421051025390625" lon="-1.34251878596842288970947265625">
        <ele>1058.199951171875</ele>
        <time>2022-05-05T11:18:55.000Z</time>
      </trkpt>
      <trkpt lat="40.4173411242663860321044921875" lon="-1.3425979949533939361572265625">
        <ele>1059.5999755859375</ele>
        <time>2022-05-05T11:19:01.000Z</time>
      </trkpt>
      <trkpt lat="40.417433492839336395263671875" lon="-1.34262540377676486968994140625">
        <ele>1060.5999755859375</ele>
        <time>2022-05-05T11:19:05.000Z</time>
      </trkpt>
      <trkpt lat="40.41750867851078510284423828125" lon="-1.34263562969863414764404296875">
        <ele>1061.199951171875</ele>
        <time>2022-05-05T11:19:08.000Z</time>
      </trkpt>
      <trkpt lat="40.417605824768543243408203125" lon="-1.34264199994504451751708984375">
        <ele>1062</ele>
        <time>2022-05-05T11:19:12.000Z</time>
      </trkpt>
      <trkpt lat="40.41769467294216156005859375" lon="-1.342641413211822509765625">
        <ele>1062.5999755859375</ele>
        <time>2022-05-05T11:19:15.000Z</time>
      </trkpt>
      <trkpt lat="40.41781780309975147247314453125" lon="-1.34264283813536167144775390625">
        <ele>1063.199951171875</ele>
        <time>2022-05-05T11:19:19.000Z</time>
      </trkpt>
      <trkpt lat="40.41790178976953029632568359375" lon="-1.3426506333053112030029296875">
        <ele>1063.5999755859375</ele>
        <time>2022-05-05T11:19:22.000Z</time>
      </trkpt>
      <trkpt lat="40.4180467128753662109375" lon="-1.34267720393836498260498046875">
        <ele>1064.800048828125</ele>
        <time>2022-05-05T11:19:27.000Z</time>
      </trkpt>
      <trkpt lat="40.41815123520791530609130859375" lon="-1.34271944873034954071044921875">
        <ele>1066.199951171875</ele>
        <time>2022-05-05T11:19:31.000Z</time>
      </trkpt>
      <trkpt lat="40.41819431819021701812744140625" lon="-1.3427468575537204742431640625">
        <ele>1066.800048828125</ele>
        <time>2022-05-05T11:19:33.000Z</time>
      </trkpt>
      <trkpt lat="40.41830680333077907562255859375" lon="-1.34282925166189670562744140625">
        <ele>1068.199951171875</ele>
        <time>2022-05-05T11:19:39.000Z</time>
      </trkpt>
      <trkpt lat="40.41832624934613704681396484375" lon="-1.34284115396440029144287109375">
        <ele>1068.199951171875</ele>
        <time>2022-05-05T11:19:40.000Z</time>
      </trkpt>
      <trkpt lat="40.41843722574412822723388671875" lon="-1.3428883440792560577392578125">
        <ele>1069</ele>
        <time>2022-05-05T11:19:45.000Z</time>
      </trkpt>
      <trkpt lat="40.41855708695948123931884765625" lon="-1.342963278293609619140625">
        <ele>1069.5999755859375</ele>
        <time>2022-05-05T11:19:51.000Z</time>
      </trkpt>
      <trkpt lat="40.41859530843794345855712890625" lon="-1.34299119003117084503173828125">
        <ele>1069.800048828125</ele>
        <time>2022-05-05T11:19:53.000Z</time>
      </trkpt>
      <trkpt lat="40.41867141611874103546142578125" lon="-1.34304852224886417388916015625">
        <ele>1070.199951171875</ele>
        <time>2022-05-05T11:19:57.000Z</time>
      </trkpt>
      <trkpt lat="40.4187412373721599578857421875" lon="-1.34311574511229991912841796875">
        <ele>1070.4000244140625</ele>
        <time>2022-05-05T11:20:01.000Z</time>
      </trkpt>
      <trkpt lat="40.41884207166731357574462890625" lon="-1.34321582503616809844970703125">
        <ele>1071.4000244140625</ele>
        <time>2022-05-05T11:20:07.000Z</time>
      </trkpt>
      <trkpt lat="40.41887325234711170196533203125" lon="-1.3432591594755649566650390625">
        <ele>1071.800048828125</ele>
        <time>2022-05-05T11:20:09.000Z</time>
      </trkpt>
      <trkpt lat="40.4190024174749851226806640625" lon="-1.343443728983402252197265625">
        <ele>1073.5999755859375</ele>
        <time>2022-05-05T11:20:17.000Z</time>
      </trkpt>
      <trkpt lat="40.41911565698683261871337890625" lon="-1.34352847002446651458740234375">
        <ele>1075.199951171875</ele>
        <time>2022-05-05T11:20:23.000Z</time>
      </trkpt>
      <trkpt lat="40.4191408865153789520263671875" lon="-1.3435257039964199066162109375">
        <ele>1075.4000244140625</ele>
        <time>2022-05-05T11:20:24.000Z</time>
      </trkpt>
      <trkpt lat="40.4192153178155422210693359375" lon="-1.34351070038974285125732421875">
        <ele>1076.199951171875</ele>
        <time>2022-05-05T11:20:27.000Z</time>
      </trkpt>
      <trkpt lat="40.41928245685994625091552734375" lon="-1.34348454885184764862060546875">
        <ele>1076.800048828125</ele>
        <time>2022-05-05T11:20:30.000Z</time>
      </trkpt>
      <trkpt lat="40.4193296469748020172119140625" lon="-1.34347625076770782470703125">
        <ele>1077.199951171875</ele>
        <time>2022-05-05T11:20:33.000Z</time>
      </trkpt>
      <trkpt lat="40.41936971247196197509765625" lon="-1.34348974563181400299072265625">
        <ele>1077.199951171875</ele>
        <time>2022-05-05T11:20:36.000Z</time>
      </trkpt>
      <trkpt lat="40.419378094375133514404296875" lon="-1.3435005582869052886962890625">
        <ele>1077.199951171875</ele>
        <time>2022-05-05T11:20:37.000Z</time>
      </trkpt>
      <trkpt lat="40.4194490052759647369384765625" lon="-1.343577168881893157958984375">
        <ele>1077.199951171875</ele>
        <time>2022-05-05T11:20:44.000Z</time>
      </trkpt>
      <trkpt lat="40.41946266777813434600830078125" lon="-1.34358194656670093536376953125">
        <ele>1077.199951171875</ele>
        <time>2022-05-05T11:20:45.000Z</time>
      </trkpt>
      <trkpt lat="40.41949309408664703369140625" lon="-1.34357356466352939605712890625">
        <ele>1077.4000244140625</ele>
        <time>2022-05-05T11:20:49.000Z</time>
      </trkpt>
      <trkpt lat="40.41958160698413848876953125" lon="-1.34352344088256359100341796875">
        <ele>1078</ele>
        <time>2022-05-05T11:21:05.000Z</time>
      </trkpt>
      <trkpt lat="40.4196555353701114654541015625" lon="-1.3434744067490100860595703125">
        <ele>1078.4000244140625</ele>
        <time>2022-05-05T11:21:10.000Z</time>
      </trkpt>
      <trkpt lat="40.41966768912971019744873046875" lon="-1.3434635102748870849609375">
        <ele>1078.5999755859375</ele>
        <time>2022-05-05T11:21:11.000Z</time>
      </trkpt>
      <trkpt lat="40.419699288904666900634765625" lon="-1.34342201985418796539306640625">
        <ele>1079.4000244140625</ele>
        <time>2022-05-05T11:21:15.000Z</time>
      </trkpt>
      <trkpt lat="40.4197276197373867034912109375" lon="-1.343396790325641632080078125">
        <ele>1080</ele>
        <time>2022-05-05T11:21:17.000Z</time>
      </trkpt>
      <trkpt lat="40.41978922672569751739501953125" lon="-1.34333417750895023345947265625">
        <ele>1081.199951171875</ele>
        <time>2022-05-05T11:21:23.000Z</time>
      </trkpt>
      <trkpt lat="40.41989685036242008209228515625" lon="-1.34314407594501972198486328125">
        <ele>1083.800048828125</ele>
        <time>2022-05-05T11:21:46.000Z</time>
      </trkpt>
      <trkpt lat="40.41988528333604335784912109375" lon="-1.34311683475971221923828125">
        <ele>1084</ele>
        <time>2022-05-05T11:21:48.000Z</time>
      </trkpt>
      <trkpt lat="40.4198774881660938262939453125" lon="-1.343103088438510894775390625">
        <ele>1084.199951171875</ele>
        <time>2022-05-05T11:21:52.000Z</time>
      </trkpt>
      <trkpt lat="40.41981470771133899688720703125" lon="-1.3430452533066272735595703125">
        <ele>1084.199951171875</ele>
        <time>2022-05-05T11:22:08.000Z</time>
      </trkpt>
      <trkpt lat="40.41980431415140628814697265625" lon="-1.34302723221480846405029296875">
        <ele>1084.199951171875</ele>
        <time>2022-05-05T11:22:09.000Z</time>
      </trkpt>
      <trkpt lat="40.419725440442562103271484375" lon="-1.34290519170463085174560546875">
        <ele>1084.199951171875</ele>
        <time>2022-05-05T11:22:14.000Z</time>
      </trkpt>
      <trkpt lat="40.41968981735408306121826171875" lon="-1.34272062219679355621337890625">
        <ele>1085.800048828125</ele>
        <time>2022-05-05T11:22:20.000Z</time>
      </trkpt>
      <trkpt lat="40.419664084911346435546875" lon="-1.34255080483853816986083984375">
        <ele>1087.199951171875</ele>
        <time>2022-05-05T11:22:26.000Z</time>
      </trkpt>
      <trkpt lat="40.41964304633438587188720703125" lon="-1.34250353090465068817138671875">
        <ele>1087.5999755859375</ele>
        <time>2022-05-05T11:22:30.000Z</time>
      </trkpt>
      <trkpt lat="40.42114173062145709991455078125" lon="-1.3404686562716960906982421875">
        <ele>1132.800048828125</ele>
        <time>2022-05-05T11:30:59.000Z</time>
      </trkpt>
      <trkpt lat="40.42123225517570972442626953125" lon="-1.34039380587637424468994140625">
        <ele>1133</ele>
        <time>2022-05-05T11:31:05.000Z</time>
      </trkpt>
      <trkpt lat="40.42124935425817966461181640625" lon="-1.3403801433742046356201171875">
        <ele>1133</ele>
        <time>2022-05-05T11:31:06.000Z</time>
      </trkpt>
      <trkpt lat="40.42134423740208148956298828125" lon="-1.34025818668305873870849609375">
        <ele>1132.199951171875</ele>
        <time>2022-05-05T11:31:14.000Z</time>
      </trkpt>
      <trkpt lat="40.4213714785873889923095703125" lon="-1.3402061350643634796142578125">
        <ele>1131.5999755859375</ele>
        <time>2022-05-05T11:31:17.000Z</time>
      </trkpt>
      <trkpt lat="40.4213986359536647796630859375" lon="-1.34015324525535106658935546875">
        <ele>1130.800048828125</ele>
        <time>2022-05-05T11:31:21.000Z</time>
      </trkpt>
      <trkpt lat="40.4214194230735301971435546875" lon="-1.3401045463979244232177734375">
        <ele>1130.199951171875</ele>
        <time>2022-05-05T11:31:24.000Z</time>
      </trkpt>
      <trkpt lat="40.4214355163276195526123046875" lon="-1.34001678787171840667724609375">
        <ele>1129.4000244140625</ele>
        <time>2022-05-05T11:31:28.000Z</time>
      </trkpt>
      <trkpt lat="40.42144238948822021484375" lon="-1.33998267352581024169921875">
        <ele>1129</ele>
        <time>2022-05-05T11:31:30.000Z</time>
      </trkpt>
      <trkpt lat="40.4214760847389698028564453125" lon="-1.3399590365588665008544921875">
        <ele>1128.5999755859375</ele>
        <time>2022-05-05T11:31:33.000Z</time>
      </trkpt>
      <trkpt lat="40.4215220175683498382568359375" lon="-1.33994671516120433807373046875">
        <ele>1128.199951171875</ele>
        <time>2022-05-05T11:31:36.000Z</time>
      </trkpt>
      <trkpt lat="40.4215954430401325225830078125" lon="-1.33993011899292469024658203125">
        <ele>1127.5999755859375</ele>
        <time>2022-05-05T11:31:39.000Z</time>
      </trkpt>
      <trkpt lat="40.42177389375865459442138671875" lon="-1.34000270627439022064208984375">
        <ele>1127.199951171875</ele>
        <time>2022-05-05T11:31:45.000Z</time>
      </trkpt>
      <trkpt lat="40.4218026436865329742431640625" lon="-1.3400321267545223236083984375">
        <ele>1127.199951171875</ele>
        <time>2022-05-05T11:31:46.000Z</time>
      </trkpt>
      <trkpt lat="40.42190582491457462310791015625" lon="-1.3401276804506778717041015625">
        <ele>1128</ele>
        <time>2022-05-05T11:31:50.000Z</time>
      </trkpt>
      <trkpt lat="40.42195896618068218231201171875" lon="-1.34015165269374847412109375">
        <ele>1128.199951171875</ele>
        <time>2022-05-05T11:31:52.000Z</time>
      </trkpt>
      <trkpt lat="40.4220199026167392730712890625" lon="-1.3401454500854015350341796875">
        <ele>1128</ele>
        <time>2022-05-05T11:31:54.000Z</time>
      </trkpt>
      <trkpt lat="40.42208067141473293304443359375" lon="-1.3401105813682079315185546875">
        <ele>1127.4000244140625</ele>
        <time>2022-05-05T11:31:56.000Z</time>
      </trkpt>
      <trkpt lat="40.42213196866214275360107421875" lon="-1.34005920030176639556884765625">
        <ele>1126.5999755859375</ele>
        <time>2022-05-05T11:31:58.000Z</time>
      </trkpt>
      <trkpt lat="40.4222143627703189849853515625" lon="-1.33994889445602893829345703125">
        <ele>1125</ele>
        <time>2022-05-05T11:32:02.000Z</time>
      </trkpt>
      <trkpt lat="40.422265827655792236328125" lon="-1.339915953576564788818359375">
        <ele>1124.4000244140625</ele>
        <time>2022-05-05T11:32:04.000Z</time>
      </trkpt>
      <trkpt lat="40.4223427735269069671630859375" lon="-1.3399136066436767578125">
        <ele>1124.4000244140625</ele>
        <time>2022-05-05T11:32:07.000Z</time>
      </trkpt>
      <trkpt lat="40.42254100553691387176513671875" lon="-1.33990782313048839569091796875">
        <ele>1124</ele>
        <time>2022-05-05T11:32:13.000Z</time>
      </trkpt>
      <trkpt lat="40.422730185091495513916015625" lon="-1.3398249261081218719482421875">
        <ele>1122.5999755859375</ele>
        <time>2022-05-05T11:32:19.000Z</time>
      </trkpt>
      <trkpt lat="40.42278056032955646514892578125" lon="-1.33977924473583698272705078125">
        <ele>1122</ele>
        <time>2022-05-05T11:32:21.000Z</time>
      </trkpt>
      <trkpt lat="40.42295725084841251373291015625" lon="-1.33962920866906642913818359375">
        <ele>1120.800048828125</ele>
        <time>2022-05-05T11:32:27.000Z</time>
      </trkpt>
      <trkpt lat="40.42298994027078151702880859375" lon="-1.33960716426372528076171875">
        <ele>1120.5999755859375</ele>
        <time>2022-05-05T11:32:28.000Z</time>
      </trkpt>
      <trkpt lat="40.42318121530115604400634765625" lon="-1.33952041156589984893798828125">
        <ele>1120.4000244140625</ele>
        <time>2022-05-05T11:32:34.000Z</time>
      </trkpt>
      <trkpt lat="40.42321600019931793212890625" lon="-1.3395206630229949951171875">
        <ele>1120.4000244140625</ele>
        <time>2022-05-05T11:32:35.000Z</time>
      </trkpt>
      <trkpt lat="40.42330895550549030303955078125" lon="-1.3395126163959503173828125">
        <ele>1120.5999755859375</ele>
        <time>2022-05-05T11:32:38.000Z</time>
      </trkpt>
      <trkpt lat="40.42333510704338550567626953125" lon="-1.3394993729889392852783203125">
        <ele>1120.4000244140625</ele>
        <time>2022-05-05T11:32:39.000Z</time>
      </trkpt>
      <trkpt lat="40.423379279673099517822265625" lon="-1.33946727029979228973388671875">
        <ele>1120.199951171875</ele>
        <time>2022-05-05T11:32:41.000Z</time>
      </trkpt>
      <trkpt lat="40.42344256304204463958740234375" lon="-1.33941915817558765411376953125">
        <ele>1120</ele>
        <time>2022-05-05T11:32:44.000Z</time>
      </trkpt>
      <trkpt lat="40.4234679602086544036865234375" lon="-1.339400969445705413818359375">
        <ele>1119.800048828125</ele>
        <time>2022-05-05T11:32:45.000Z</time>
      </trkpt>
      <trkpt lat="40.42352604679763317108154296875" lon="-1.3393672741949558258056640625">
        <ele>1119.5999755859375</ele>
        <time>2022-05-05T11:32:47.000Z</time>
      </trkpt>
      <trkpt lat="40.4235920123755931854248046875" lon="-1.33935771882534027099609375">
        <ele>1119.4000244140625</ele>
        <time>2022-05-05T11:32:49.000Z</time>
      </trkpt>
      <trkpt lat="40.42362998239696025848388671875" lon="-1.33936165831983089447021484375">
        <ele>1119.4000244140625</ele>
        <time>2022-05-05T11:32:50.000Z</time>
      </trkpt>
      <trkpt lat="40.42370726354420185089111328125" lon="-1.33937439881265163421630859375">
        <ele>1119.199951171875</ele>
        <time>2022-05-05T11:32:52.000Z</time>
      </trkpt>
      <trkpt lat="40.42374766431748867034912109375" lon="-1.3393759913742542266845703125">
        <ele>1119.199951171875</ele>
        <time>2022-05-05T11:32:53.000Z</time>
      </trkpt>
      <trkpt lat="40.42384120635688304901123046875" lon="-1.3393588922917842864990234375">
        <ele>1119</ele>
        <time>2022-05-05T11:32:56.000Z</time>
      </trkpt>
      <trkpt lat="40.42387641035020351409912109375" lon="-1.33934590034186840057373046875">
        <ele>1119.199951171875</ele>
        <time>2022-05-05T11:32:58.000Z</time>
      </trkpt>
      <trkpt lat="40.42395888827741146087646484375" lon="-1.3393275439739227294921875">
        <ele>1119.5999755859375</ele>
        <time>2022-05-05T11:33:02.000Z</time>
      </trkpt>
      <trkpt lat="40.4239822737872600555419921875" lon="-1.33933165110647678375244140625">
        <ele>1119.800048828125</ele>
        <time>2022-05-05T11:33:03.000Z</time>
      </trkpt>
      <trkpt lat="40.42406357824802398681640625" lon="-1.339353024959564208984375">
        <ele>1120.4000244140625</ele>
        <time>2022-05-05T11:33:07.000Z</time>
      </trkpt>
      <trkpt lat="40.42408193461596965789794921875" lon="-1.3393552042543888092041015625">
        <ele>1120.4000244140625</ele>
        <time>2022-05-05T11:33:08.000Z</time>
      </trkpt>
      <trkpt lat="40.42420045472681522369384765625" lon="-1.33933634497225284576416015625">
        <ele>1121.199951171875</ele>
        <time>2022-05-05T11:33:13.000Z</time>
      </trkpt>
      <trkpt lat="40.42422392405569553375244140625" lon="-1.33933098055422306060791015625">
        <ele>1121.199951171875</ele>
        <time>2022-05-05T11:33:14.000Z</time>
      </trkpt>
      <trkpt lat="40.42444537393748760223388671875" lon="-1.33927968330681324005126953125">
        <ele>1122.800048828125</ele>
        <time>2022-05-05T11:33:23.000Z</time>
      </trkpt>
      <trkpt lat="40.4246206395328044891357421875" lon="-1.33921531029045581817626953125">
        <ele>1124.199951171875</ele>
        <time>2022-05-05T11:33:31.000Z</time>
      </trkpt>
      <trkpt lat="40.4248063825070858001708984375" lon="-1.33916585706174373626708984375">
        <ele>1125.199951171875</ele>
        <time>2022-05-05T11:33:40.000Z</time>
      </trkpt>
      <trkpt lat="40.4248796403408050537109375" lon="-1.33913719095289707183837890625">
        <ele>1125.5999755859375</ele>
        <time>2022-05-05T11:33:44.000Z</time>
      </trkpt>
      <trkpt lat="40.4249225556850433349609375" lon="-1.33912243880331516265869140625">
        <ele>1125.800048828125</ele>
        <time>2022-05-05T11:33:46.000Z</time>
      </trkpt>
      <trkpt lat="40.4250112362205982208251953125" lon="-1.339089833199977874755859375">
        <ele>1126.199951171875</ele>
        <time>2022-05-05T11:33:50.000Z</time>
      </trkpt>
      <trkpt lat="40.4251684807240962982177734375" lon="-1.338976509869098663330078125">
        <ele>1126.800048828125</ele>
        <time>2022-05-05T11:33:58.000Z</time>
      </trkpt>
      <trkpt lat="40.4253005795180797576904296875" lon="-1.3388549722731113433837890625">
        <ele>1127.199951171875</ele>
        <time>2022-05-05T11:34:05.000Z</time>
      </trkpt>
      <trkpt lat="40.42540141381323337554931640625" lon="-1.33869412355124950408935546875">
        <ele>1127.4000244140625</ele>
        <time>2022-05-05T11:34:12.000Z</time>
      </trkpt>
      <trkpt lat="40.42550551705062389373779296875" lon="-1.33852849714457988739013671875">
        <ele>1127.5999755859375</ele>
        <time>2022-05-05T11:34:19.000Z</time>
      </trkpt>
      <trkpt lat="40.4255999810993671417236328125" lon="-1.33839472196996212005615234375">
        <ele>1127.5999755859375</ele>
        <time>2022-05-05T11:34:26.000Z</time>
      </trkpt>
      <trkpt lat="40.42567449621856212615966796875" lon="-1.3383161835372447967529296875">
        <ele>1127.800048828125</ele>
        <time>2022-05-05T11:34:30.000Z</time>
      </trkpt>
      <trkpt lat="40.42570349760353565216064453125" lon="-1.33828642778098583221435546875">
        <ele>1127.800048828125</ele>
        <time>2022-05-05T11:34:32.000Z</time>
      </trkpt>
      <trkpt lat="40.42583894915878772735595703125" lon="-1.33814133703708648681640625">
        <ele>1128.199951171875</ele>
        <time>2022-05-05T11:34:40.000Z</time>
      </trkpt>
      <trkpt lat="40.425856299698352813720703125" lon="-1.338120885193347930908203125">
        <ele>1128.199951171875</ele>
        <time>2022-05-05T11:34:41.000Z</time>
      </trkpt>
      <trkpt lat="40.4259927570819854736328125" lon="-1.337958276271820068359375">
        <ele>1128.5999755859375</ele>
        <time>2022-05-05T11:34:49.000Z</time>
      </trkpt>
      <trkpt lat="40.4261092655360698699951171875" lon="-1.337811760604381561279296875">
        <ele>1129</ele>
        <time>2022-05-05T11:34:55.000Z</time>
      </trkpt>
      <trkpt lat="40.4262983612716197967529296875" lon="-1.3376523368060588836669921875">
        <ele>1129.5999755859375</ele>
        <time>2022-05-05T11:35:03.000Z</time>
      </trkpt>
      <trkpt lat="40.42655375786125659942626953125" lon="-1.33742443285882472991943359375">
        <ele>1130.5999755859375</ele>
        <time>2022-05-05T11:35:13.000Z</time>
      </trkpt>
      <trkpt lat="40.426696836948394775390625" lon="-1.33718353696167469024658203125">
        <ele>1130.5999755859375</ele>
        <time>2022-05-05T11:35:20.000Z</time>
      </trkpt>
      <trkpt lat="40.42686003260314464569091796875" lon="-1.33700097911059856414794921875">
        <ele>1130.800048828125</ele>
        <time>2022-05-05T11:35:27.000Z</time>
      </trkpt>
      <trkpt lat="40.42696279473602771759033203125" lon="-1.336914561688899993896484375">
        <ele>1131</ele>
        <time>2022-05-05T11:35:32.000Z</time>
      </trkpt>
      <trkpt lat="40.4270477034151554107666015625" lon="-1.3368483446538448333740234375">
        <ele>1131.199951171875</ele>
        <time>2022-05-05T11:35:36.000Z</time>
      </trkpt>
      <trkpt lat="40.42712959460914134979248046875" lon="-1.3367896713316440582275390625">
        <ele>1131.4000244140625</ele>
        <time>2022-05-05T11:35:40.000Z</time>
      </trkpt>
      <trkpt lat="40.4272089712321758270263671875" lon="-1.33674231357872486114501953125">
        <ele>1131.4000244140625</ele>
        <time>2022-05-05T11:35:44.000Z</time>
      </trkpt>
      <trkpt lat="40.42726772837340831756591796875" lon="-1.33670995943248271942138671875">
        <ele>1131.5999755859375</ele>
        <time>2022-05-05T11:35:47.000Z</time>
      </trkpt>
      <trkpt lat="40.42738557793200016021728515625" lon="-1.33667676709592342376708984375">
        <ele>1131.800048828125</ele>
        <time>2022-05-05T11:35:52.000Z</time>
      </trkpt>
      <trkpt lat="40.4275710694491863250732421875" lon="-1.3366186805069446563720703125">
        <ele>1132.199951171875</ele>
        <time>2022-05-05T11:35:59.000Z</time>
      </trkpt>
      <trkpt lat="40.4276852309703826904296875" lon="-1.33657895028591156005859375">
        <ele>1132.4000244140625</ele>
        <time>2022-05-05T11:36:04.000Z</time>
      </trkpt>
      <trkpt lat="40.42779989540576934814453125" lon="-1.33656646125018596649169921875">
        <ele>1132.800048828125</ele>
        <time>2022-05-05T11:36:09.000Z</time>
      </trkpt>
      <trkpt lat="40.427871979773044586181640625" lon="-1.33656394667923450469970703125">
        <ele>1133</ele>
        <time>2022-05-05T11:36:12.000Z</time>
      </trkpt>
      <trkpt lat="40.42794205248355865478515625" lon="-1.336551122367382049560546875">
        <ele>1133.199951171875</ele>
        <time>2022-05-05T11:36:15.000Z</time>
      </trkpt>
      <trkpt lat="40.42804129421710968017578125" lon="-1.33651516400277614593505859375">
        <ele>1133.5999755859375</ele>
        <time>2022-05-05T11:36:20.000Z</time>
      </trkpt>
      <trkpt lat="40.4280803538858890533447265625" lon="-1.33650007657706737518310546875">
        <ele>1133.5999755859375</ele>
        <time>2022-05-05T11:36:22.000Z</time>
      </trkpt>
      <trkpt lat="40.42821966111660003662109375" lon="-1.3364322669804096221923828125">
        <ele>1134.199951171875</ele>
        <time>2022-05-05T11:36:29.000Z</time>
      </trkpt>
      <trkpt lat="40.428395681083202362060546875" lon="-1.3363970629870891571044921875">
        <ele>1135</ele>
        <time>2022-05-05T11:36:37.000Z</time>
      </trkpt>
      <trkpt lat="40.42841973714530467987060546875" lon="-1.33640058338642120361328125">
        <ele>1135</ele>
        <time>2022-05-05T11:36:38.000Z</time>
      </trkpt>
      <trkpt lat="40.4286268539726734161376953125" lon="-1.33639547042548656463623046875">
        <ele>1136</ele>
        <time>2022-05-05T11:36:47.000Z</time>
      </trkpt>
      <trkpt lat="40.42870924808084964752197265625" lon="-1.336369402706623077392578125">
        <ele>1136.4000244140625</ele>
        <time>2022-05-05T11:36:51.000Z</time>
      </trkpt>
      <trkpt lat="40.428807735443115234375" lon="-1.33631852455437183380126953125">
        <ele>1137</ele>
        <time>2022-05-05T11:36:56.000Z</time>
      </trkpt>
      <trkpt lat="40.42900127358734607696533203125" lon="-1.33621442131698131561279296875">
        <ele>1137.199951171875</ele>
        <time>2022-05-05T11:37:05.000Z</time>
      </trkpt>
      <trkpt lat="40.4290513135492801666259765625" lon="-1.33621861226856708526611328125">
        <ele>1137.199951171875</ele>
        <time>2022-05-05T11:37:07.000Z</time>
      </trkpt>
      <trkpt lat="40.42910286225378513336181640625" lon="-1.3362778723239898681640625">
        <ele>1137.4000244140625</ele>
        <time>2022-05-05T11:37:10.000Z</time>
      </trkpt>
      <trkpt lat="40.42914611287415027618408203125" lon="-1.3364374637603759765625">
        <ele>1137.800048828125</ele>
        <time>2022-05-05T11:37:16.000Z</time>
      </trkpt>
      <trkpt lat="40.42915684171020984649658203125" lon="-1.33651650510728359222412109375">
        <ele>1138</ele>
        <time>2022-05-05T11:37:19.000Z</time>
      </trkpt>
      <trkpt lat="40.429169498383998870849609375" lon="-1.3366716541349887847900390625">
        <ele>1138.4000244140625</ele>
        <time>2022-05-05T11:37:25.000Z</time>
      </trkpt>
      <trkpt lat="40.429182238876819610595703125" lon="-1.33675186894834041595458984375">
        <ele>1138.5999755859375</ele>
        <time>2022-05-05T11:37:28.000Z</time>
      </trkpt>
      <trkpt lat="40.42920931242406368255615234375" lon="-1.336832754313945770263671875">
        <ele>1138.800048828125</ele>
        <time>2022-05-05T11:37:31.000Z</time>
      </trkpt>
      <trkpt lat="40.4292940534651279449462890625" lon="-1.3369940221309661865234375">
        <ele>1139.4000244140625</ele>
        <time>2022-05-05T11:37:38.000Z</time>
      </trkpt>
      <trkpt lat="40.4293202050030231475830078125" lon="-1.3370342552661895751953125">
        <ele>1139.5999755859375</ele>
        <time>2022-05-05T11:37:40.000Z</time>
      </trkpt>
      <trkpt lat="40.429398827254772186279296875" lon="-1.33715696632862091064453125">
        <ele>1140</ele>
        <time>2022-05-05T11:37:46.000Z</time>
      </trkpt>
      <trkpt lat="40.4294125735759735107421875" lon="-1.33718001656234264373779296875">
        <ele>1140.199951171875</ele>
        <time>2022-05-05T11:37:47.000Z</time>
      </trkpt>
      <trkpt lat="40.42951843701303005218505859375" lon="-1.3373663462698459625244140625">
        <ele>1141.199951171875</ele>
        <time>2022-05-05T11:37:55.000Z</time>
      </trkpt>
      <trkpt lat="40.42955137789249420166015625" lon="-1.33740230463445186614990234375">
        <ele>1141.5999755859375</ele>
        <time>2022-05-05T11:37:57.000Z</time>
      </trkpt>
      <trkpt lat="40.429674424231052398681640625" lon="-1.3374602235853672027587890625">
        <ele>1142</ele>
        <time>2022-05-05T11:38:03.000Z</time>
      </trkpt>
      <trkpt lat="40.4297156631946563720703125" lon="-1.337458379566669464111328125">
        <ele>1141.800048828125</ele>
        <time>2022-05-05T11:38:05.000Z</time>
      </trkpt>
      <trkpt lat="40.429765284061431884765625" lon="-1.33740884251892566680908203125">
        <ele>1141.4000244140625</ele>
        <time>2022-05-05T11:38:08.000Z</time>
      </trkpt>
      <trkpt lat="40.42977341450750827789306640625" lon="-1.3373559527099132537841796875">
        <ele>1141.199951171875</ele>
        <time>2022-05-05T11:38:10.000Z</time>
      </trkpt>
      <trkpt lat="40.429775007069110870361328125" lon="-1.3372852094471454620361328125">
        <ele>1140.800048828125</ele>
        <time>2022-05-05T11:38:12.000Z</time>
      </trkpt>
      <trkpt lat="40.4297654516994953155517578125" lon="-1.33702947758138179779052734375">
        <ele>1140</ele>
        <time>2022-05-05T11:38:17.000Z</time>
      </trkpt>
      <trkpt lat="40.4297674633562564849853515625" lon="-1.33696963079273700714111328125">
        <ele>1140</ele>
        <time>2022-05-05T11:38:18.000Z</time>
      </trkpt>
      <trkpt lat="40.42976520024240016937255859375" lon="-1.33678321726620197296142578125">
        <ele>1139.4000244140625</ele>
        <time>2022-05-05T11:38:21.000Z</time>
      </trkpt>
      <trkpt lat="40.42976100929081439971923828125" lon="-1.3367209397256374359130859375">
        <ele>1139.4000244140625</ele>
        <time>2022-05-05T11:38:22.000Z</time>
      </trkpt>
      <trkpt lat="40.42974374257028102874755859375" lon="-1.33659764192998409271240234375">
        <ele>1139</ele>
        <time>2022-05-05T11:38:24.000Z</time>
      </trkpt>
      <trkpt lat="40.4297238774597644805908203125" lon="-1.33647677488625049591064453125">
        <ele>1138.800048828125</ele>
        <time>2022-05-05T11:38:26.000Z</time>
      </trkpt>
      <trkpt lat="40.42971356771886348724365234375" lon="-1.3363320194184780120849609375">
        <ele>1138.5999755859375</ele>
        <time>2022-05-05T11:38:29.000Z</time>
      </trkpt>
      <trkpt lat="40.429727733135223388671875" lon="-1.336307711899280548095703125">
        <ele>1138.5999755859375</ele>
        <time>2022-05-05T11:38:30.000Z</time>
      </trkpt>
      <trkpt lat="40.429836697876453399658203125" lon="-1.33632321842014789581298828125">
        <ele>1138.4000244140625</ele>
        <time>2022-05-05T11:38:34.000Z</time>
      </trkpt>
      <trkpt lat="40.43004917912185192108154296875" lon="-1.3363380543887615203857421875">
        <ele>1137.800048828125</ele>
        <time>2022-05-05T11:38:40.000Z</time>
      </trkpt>
      <trkpt lat="40.4304272867739200592041015625" lon="-1.336313746869564056396484375">
        <ele>1137</ele>
        <time>2022-05-05T11:38:50.000Z</time>
      </trkpt>
      <trkpt lat="40.4307159595191478729248046875" lon="-1.3362616114318370819091796875">
        <ele>1136</ele>
        <time>2022-05-05T11:38:58.000Z</time>
      </trkpt>
      <trkpt lat="40.43080925010144710540771484375" lon="-1.33624694310128688812255859375">
        <ele>1135.5999755859375</ele>
        <time>2022-05-05T11:39:01.000Z</time>
      </trkpt>
      <trkpt lat="40.43095207773149013519287109375" lon="-1.3362133316695690155029296875">
        <ele>1135.199951171875</ele>
        <time>2022-05-05T11:39:05.000Z</time>
      </trkpt>
      <trkpt lat="40.4310542531311511993408203125" lon="-1.33618525229394435882568359375">
        <ele>1135</ele>
        <time>2022-05-05T11:39:08.000Z</time>
      </trkpt>
      <trkpt lat="40.43119481764733791351318359375" lon="-1.33615021593868732452392578125">
        <ele>1134.5999755859375</ele>
        <time>2022-05-05T11:39:12.000Z</time>
      </trkpt>
      <trkpt lat="40.4313920438289642333984375" lon="-1.336089782416820526123046875">
        <ele>1133.800048828125</ele>
        <time>2022-05-05T11:39:18.000Z</time>
      </trkpt>
      <trkpt lat="40.43144828639924526214599609375" lon="-1.3360446877777576446533203125">
        <ele>1133.5999755859375</ele>
        <time>2022-05-05T11:39:20.000Z</time>
      </trkpt>
      <trkpt lat="40.4315990768373012542724609375" lon="-1.3358924724161624908447265625">
        <ele>1132.5999755859375</ele>
        <time>2022-05-05T11:39:26.000Z</time>
      </trkpt>
      <trkpt lat="40.43163034133613109588623046875" lon="-1.33587621152400970458984375">
        <ele>1132.4000244140625</ele>
        <time>2022-05-05T11:39:27.000Z</time>
      </trkpt>
      <trkpt lat="40.43166772462427616119384765625" lon="-1.3358648121356964111328125">
        <ele>1132.199951171875</ele>
        <time>2022-05-05T11:39:28.000Z</time>
      </trkpt>
      <trkpt lat="40.4317595064640045166015625" lon="-1.33585366420447826385498046875">
        <ele>1132</ele>
        <time>2022-05-05T11:39:30.000Z</time>
      </trkpt>
      <trkpt lat="40.431809127330780029296875" lon="-1.33585785515606403350830078125">
        <ele>1131.800048828125</ele>
        <time>2022-05-05T11:39:31.000Z</time>
      </trkpt>
      <trkpt lat="40.43185832910239696502685546875" lon="-1.33586841635406017303466796875">
        <ele>1131.5999755859375</ele>
        <time>2022-05-05T11:39:32.000Z</time>
      </trkpt>
      <trkpt lat="40.4319083690643310546875" lon="-1.33587679825723171234130859375">
        <ele>1131.4000244140625</ele>
        <time>2022-05-05T11:39:33.000Z</time>
      </trkpt>
      <trkpt lat="40.4319561459124088287353515625" lon="-1.335875876247882843017578125">
        <ele>1131.4000244140625</ele>
        <time>2022-05-05T11:39:34.000Z</time>
      </trkpt>
      <trkpt lat="40.4320456646382808685302734375" lon="-1.33585416711866855621337890625">
        <ele>1131.199951171875</ele>
        <time>2022-05-05T11:39:36.000Z</time>
      </trkpt>
      <trkpt lat="40.4322143085300922393798828125" lon="-1.33575140498578548431396484375">
        <ele>1130.5999755859375</ele>
        <time>2022-05-05T11:39:40.000Z</time>
      </trkpt>
      <trkpt lat="40.43229519389569759368896484375" lon="-1.33568166755139827728271484375">
        <ele>1130.199951171875</ele>
        <time>2022-05-05T11:39:42.000Z</time>
      </trkpt>
      <trkpt lat="40.432442128658294677734375" lon="-1.335535235702991485595703125">
        <ele>1129.800048828125</ele>
        <time>2022-05-05T11:39:46.000Z</time>
      </trkpt>
      <trkpt lat="40.432475991547107696533203125" lon="-1.335498355329036712646484375">
        <ele>1129.800048828125</ele>
        <time>2022-05-05T11:39:47.000Z</time>
      </trkpt>
      <trkpt lat="40.4325361736118793487548828125" lon="-1.3354160450398921966552734375">
        <ele>1129.800048828125</ele>
        <time>2022-05-05T11:39:49.000Z</time>
      </trkpt>
      <trkpt lat="40.43256995268166065216064453125" lon="-1.3353771530091762542724609375">
        <ele>1129.5999755859375</ele>
        <time>2022-05-05T11:39:50.000Z</time>
      </trkpt>
      <trkpt lat="40.43271982111036777496337890625" lon="-1.33526156656444072723388671875">
        <ele>1129.5999755859375</ele>
        <time>2022-05-05T11:39:54.000Z</time>
      </trkpt>
      <trkpt lat="40.43283079750835895538330078125" lon="-1.33518420159816741943359375">
        <ele>1129.4000244140625</ele>
        <time>2022-05-05T11:39:57.000Z</time>
      </trkpt>
      <trkpt lat="40.43297521770000457763671875" lon="-1.3350794278085231781005859375">
        <ele>1129.4000244140625</ele>
        <time>2022-05-05T11:40:01.000Z</time>
      </trkpt>
      <trkpt lat="40.43331124819815158843994140625" lon="-1.33485252968966960906982421875">
        <ele>1128.5999755859375</ele>
        <time>2022-05-05T11:40:10.000Z</time>
      </trkpt>
      <trkpt lat="40.43360344134271144866943359375" lon="-1.3347092829644680023193359375">
        <ele>1128</ele>
        <time>2022-05-05T11:40:18.000Z</time>
      </trkpt>
      <trkpt lat="40.43382958509027957916259765625" lon="-1.33452613838016986846923828125">
        <ele>1127.4000244140625</ele>
        <time>2022-05-05T11:40:25.000Z</time>
      </trkpt>
      <trkpt lat="40.4340715706348419189453125" lon="-1.33423679508268833160400390625">
        <ele>1126.4000244140625</ele>
        <time>2022-05-05T11:40:34.000Z</time>
      </trkpt>
      <trkpt lat="40.43416536413133144378662109375" lon="-1.334038563072681427001953125">
        <ele>1125.800048828125</ele>
        <time>2022-05-05T11:40:39.000Z</time>
      </trkpt>
      <trkpt lat="40.43421582318842411041259765625" lon="-1.33397343568503856658935546875">
        <ele>1125.5999755859375</ele>
        <time>2022-05-05T11:40:41.000Z</time>
      </trkpt>
      <trkpt lat="40.4343478381633758544921875" lon="-1.33392079733312129974365234375">
        <ele>1125.199951171875</ele>
        <time>2022-05-05T11:40:45.000Z</time>
      </trkpt>
      <trkpt lat="40.4345501773059368133544921875" lon="-1.333897747099399566650390625">
        <ele>1125</ele>
        <time>2022-05-05T11:40:51.000Z</time>
      </trkpt>
      <trkpt lat="40.4346509277820587158203125" lon="-1.3338479585945606231689453125">
        <ele>1124.800048828125</ele>
        <time>2022-05-05T11:40:54.000Z</time>
      </trkpt>
      <trkpt lat="40.43473742902278900146484375" lon="-1.3337809033691883087158203125">
        <ele>1124.5999755859375</ele>
        <time>2022-05-05T11:40:57.000Z</time>
      </trkpt>
      <trkpt lat="40.43476232327520847320556640625" lon="-1.3337530754506587982177734375">
        <ele>1124.4000244140625</ele>
        <time>2022-05-05T11:40:58.000Z</time>
      </trkpt>
      <trkpt lat="40.4348458908498287200927734375" lon="-1.333611421287059783935546875">
        <ele>1124.199951171875</ele>
        <time>2022-05-05T11:41:02.000Z</time>
      </trkpt>
      <trkpt lat="40.4350383393466472625732421875" lon="-1.3334255106747150421142578125">
        <ele>1123.5999755859375</ele>
        <time>2022-05-05T11:41:09.000Z</time>
      </trkpt>
      <trkpt lat="40.435272864997386932373046875" lon="-1.33329936303198337554931640625">
        <ele>1123.4000244140625</ele>
        <time>2022-05-05T11:41:16.000Z</time>
      </trkpt>
      <trkpt lat="40.4355798102915287017822265625" lon="-1.3331572897732257843017578125">
        <ele>1123.199951171875</ele>
        <time>2022-05-05T11:41:25.000Z</time>
      </trkpt>
      <trkpt lat="40.43585725128650665283203125" lon="-1.33299551904201507568359375">
        <ele>1123.199951171875</ele>
        <time>2022-05-05T11:41:33.000Z</time>
      </trkpt>
      <trkpt lat="40.43596210889518260955810546875" lon="-1.3329363428056240081787109375">
        <ele>1123.199951171875</ele>
        <time>2022-05-05T11:41:36.000Z</time>
      </trkpt>
      <trkpt lat="40.43616025708615779876708984375" lon="-1.33283190429210662841796875">
        <ele>1123.199951171875</ele>
        <time>2022-05-05T11:41:41.000Z</time>
      </trkpt>
      <trkpt lat="40.43623670004308223724365234375" lon="-1.332794018089771270751953125">
        <ele>1123.199951171875</ele>
        <time>2022-05-05T11:41:43.000Z</time>
      </trkpt>
      <trkpt lat="40.436458401381969451904296875" lon="-1.3326868973672389984130859375">
        <ele>1123.199951171875</ele>
        <time>2022-05-05T11:41:49.000Z</time>
      </trkpt>
      <trkpt lat="40.43674699030816555023193359375" lon="-1.33255655877292156219482421875">
        <ele>1123.199951171875</ele>
        <time>2022-05-05T11:41:57.000Z</time>
      </trkpt>
      <trkpt lat="40.43698688037693500518798828125" lon="-1.3324247114360332489013671875">
        <ele>1123.199951171875</ele>
        <time>2022-05-05T11:42:04.000Z</time>
      </trkpt>
      <trkpt lat="40.4371856153011322021484375" lon="-1.33229604922235012054443359375">
        <ele>1122.800048828125</ele>
        <time>2022-05-05T11:42:11.000Z</time>
      </trkpt>
      <trkpt lat="40.43719106353819370269775390625" lon="-1.33226168341934680938720703125">
        <ele>1122.800048828125</ele>
        <time>2022-05-05T11:42:12.000Z</time>
      </trkpt>
      <trkpt lat="40.43714060448110103607177734375" lon="-1.3321021758019924163818359375">
        <ele>1123</ele>
        <time>2022-05-05T11:42:16.000Z</time>
      </trkpt>
      <trkpt lat="40.43695771135389804840087890625" lon="-1.3317960686981678009033203125">
        <ele>1122.5999755859375</ele>
        <time>2022-05-05T11:42:24.000Z</time>
      </trkpt>
      <trkpt lat="40.43677984736859798431396484375" lon="-1.33150261826813220977783203125">
        <ele>1121.199951171875</ele>
        <time>2022-05-05T11:42:31.000Z</time>
      </trkpt>
      <trkpt lat="40.436615310609340667724609375" lon="-1.3311245106160640716552734375">
        <ele>1121.800048828125</ele>
        <time>2022-05-05T11:42:39.000Z</time>
      </trkpt>
      <trkpt lat="40.43643551878631114959716796875" lon="-1.33064984343945980072021484375">
        <ele>1120</ele>
        <time>2022-05-05T11:42:48.000Z</time>
      </trkpt>
      <trkpt lat="40.436369217932224273681640625" lon="-1.3304998911917209625244140625">
        <ele>1120</ele>
        <time>2022-05-05T11:42:51.000Z</time>
      </trkpt>
      <trkpt lat="40.43627089820802211761474609375" lon="-1.3302990607917308807373046875">
        <ele>1121</ele>
        <time>2022-05-05T11:42:55.000Z</time>
      </trkpt>
      <trkpt lat="40.4360671341419219970703125" lon="-1.3298642076551914215087890625">
        <ele>1121.199951171875</ele>
        <time>2022-05-05T11:43:04.000Z</time>
      </trkpt>
      <trkpt lat="40.436024554073810577392578125" lon="-1.329774521291255950927734375">
        <ele>1120.4000244140625</ele>
        <time>2022-05-05T11:43:06.000Z</time>
      </trkpt>
      <trkpt lat="40.435929000377655029296875" lon="-1.32955801673233509063720703125">
        <ele>1119.199951171875</ele>
        <time>2022-05-05T11:43:11.000Z</time>
      </trkpt>
      <trkpt lat="40.4358108155429363250732421875" lon="-1.32924981415271759033203125">
        <ele>1119.199951171875</ele>
        <time>2022-05-05T11:43:17.000Z</time>
      </trkpt>
      <trkpt lat="40.43562364764511585235595703125" lon="-1.3287309743463993072509765625">
        <ele>1119.800048828125</ele>
        <time>2022-05-05T11:43:26.000Z</time>
      </trkpt>
      <trkpt lat="40.43549825437366962432861328125" lon="-1.32838807068765163421630859375">
        <ele>1120.4000244140625</ele>
        <time>2022-05-05T11:43:32.000Z</time>
      </trkpt>
      <trkpt lat="40.4354282654821872711181640625" lon="-1.328223533928394317626953125">
        <ele>1120.4000244140625</ele>
        <time>2022-05-05T11:43:35.000Z</time>
      </trkpt>
      <trkpt lat="40.43521628715097904205322265625" lon="-1.32786470465362071990966796875">
        <ele>1118</ele>
        <time>2022-05-05T11:43:42.000Z</time>
      </trkpt>
      <trkpt lat="40.434953682124614715576171875" lon="-1.3275236450135707855224609375">
        <ele>1116.5999755859375</ele>
        <time>2022-05-05T11:43:49.000Z</time>
      </trkpt>
      <trkpt lat="40.4348938353359699249267578125" lon="-1.32740638218820095062255859375">
        <ele>1116.5999755859375</ele>
        <time>2022-05-05T11:43:51.000Z</time>
      </trkpt>
      <trkpt lat="40.43481278233230113983154296875" lon="-1.3271729461848735809326171875">
        <ele>1116.800048828125</ele>
        <time>2022-05-05T11:43:55.000Z</time>
      </trkpt>
      <trkpt lat="40.43464916758239269256591796875" lon="-1.326632983982563018798828125">
        <ele>1116.800048828125</ele>
        <time>2022-05-05T11:44:04.000Z</time>
      </trkpt>
      <trkpt lat="40.4344700463116168975830078125" lon="-1.3261042535305023193359375">
        <ele>1115.199951171875</ele>
        <time>2022-05-05T11:44:13.000Z</time>
      </trkpt>
      <trkpt lat="40.4344321601092815399169921875" lon="-1.32600224576890468597412109375">
        <ele>1114.800048828125</ele>
        <time>2022-05-05T11:44:15.000Z</time>
      </trkpt>
      <trkpt lat="40.4343181662261486053466796875" lon="-1.32582941092550754547119140625">
        <ele>1114</ele>
        <time>2022-05-05T11:44:19.000Z</time>
      </trkpt>
      <trkpt lat="40.4342923499643802642822265625" lon="-1.32579102180898189544677734375">
        <ele>1113.800048828125</ele>
        <time>2022-05-05T11:44:20.000Z</time>
      </trkpt>
      <trkpt lat="40.43422646820545196533203125" lon="-1.32567199878394603729248046875">
        <ele>1113.4000244140625</ele>
        <time>2022-05-05T11:44:23.000Z</time>
      </trkpt>
      <trkpt lat="40.434201657772064208984375" lon="-1.32555909454822540283203125">
        <ele>1113.199951171875</ele>
        <time>2022-05-05T11:44:25.000Z</time>
      </trkpt>
      <trkpt lat="40.43420157395303249359130859375" lon="-1.32549530826508998870849609375">
        <ele>1113</ele>
        <time>2022-05-05T11:44:26.000Z</time>
      </trkpt>
      <trkpt lat="40.4342165775597095489501953125" lon="-1.3253621198236942291259765625">
        <ele>1112.800048828125</ele>
        <time>2022-05-05T11:44:28.000Z</time>
      </trkpt>
      <trkpt lat="40.4342373646795749664306640625" lon="-1.3252236507833003997802734375">
        <ele>1112.5999755859375</ele>
        <time>2022-05-05T11:44:30.000Z</time>
      </trkpt>
      <trkpt lat="40.43426896445453166961669921875" lon="-1.3247763924300670623779296875">
        <ele>1112</ele>
        <time>2022-05-05T11:44:37.000Z</time>
      </trkpt>
      <trkpt lat="40.43425270356237888336181640625" lon="-1.32447606883943080902099609375">
        <ele>1110.800048828125</ele>
        <time>2022-05-05T11:44:43.000Z</time>
      </trkpt>
      <trkpt lat="40.43425588868558406829833984375" lon="-1.3244193233549594879150390625">
        <ele>1110.5999755859375</ele>
        <time>2022-05-05T11:44:44.000Z</time>
      </trkpt>
      <trkpt lat="40.43428547680377960205078125" lon="-1.324217654764652252197265625">
        <ele>1109.800048828125</ele>
        <time>2022-05-05T11:44:47.000Z</time>
      </trkpt>
      <trkpt lat="40.43429545126855373382568359375" lon="-1.32414850406348705291748046875">
        <ele>1109.4000244140625</ele>
        <time>2022-05-05T11:44:48.000Z</time>
      </trkpt>
      <trkpt lat="40.43433551676571369171142578125" lon="-1.3236736692488193511962890625">
        <ele>1107.800048828125</ele>
        <time>2022-05-05T11:44:55.000Z</time>
      </trkpt>
      <trkpt lat="40.43438698165118694305419921875" lon="-1.32317536510527133941650390625">
        <ele>1108</ele>
        <time>2022-05-05T11:45:03.000Z</time>
      </trkpt>
      <trkpt lat="40.43441983871161937713623046875" lon="-1.3228720240294933319091796875">
        <ele>1108.5999755859375</ele>
        <time>2022-05-05T11:45:08.000Z</time>
      </trkpt>
      <trkpt lat="40.43443526141345500946044921875" lon="-1.32269206456840038299560546875">
        <ele>1109</ele>
        <time>2022-05-05T11:45:11.000Z</time>
      </trkpt>
      <trkpt lat="40.43449276126921176910400390625" lon="-1.3223023898899555206298828125">
        <ele>1109.800048828125</ele>
        <time>2022-05-05T11:45:18.000Z</time>
      </trkpt>
      <trkpt lat="40.43452511541545391082763671875" lon="-1.32215134799480438232421875">
        <ele>1109.5999755859375</ele>
        <time>2022-05-05T11:45:21.000Z</time>
      </trkpt>
      <trkpt lat="40.43460122309625148773193359375" lon="-1.32180442102253437042236328125">
        <ele>1109.4000244140625</ele>
        <time>2022-05-05T11:45:28.000Z</time>
      </trkpt>
      <trkpt lat="40.43468135409057140350341796875" lon="-1.32136001251637935638427734375">
        <ele>1109</ele>
        <time>2022-05-05T11:45:36.000Z</time>
      </trkpt>
      <trkpt lat="40.4347721301019191741943359375" lon="-1.320873610675334930419921875">
        <ele>1109</ele>
        <time>2022-05-05T11:45:45.000Z</time>
      </trkpt>
      <trkpt lat="40.43484714813530445098876953125" lon="-1.3203983567655086517333984375">
        <ele>1108.800048828125</ele>
        <time>2022-05-05T11:45:54.000Z</time>
      </trkpt>
      <trkpt lat="40.43486759997904300689697265625" lon="-1.320235244929790496826171875">
        <ele>1108.5999755859375</ele>
        <time>2022-05-05T11:45:57.000Z</time>
      </trkpt>
      <trkpt lat="40.4349079169332981109619140625" lon="-1.32002578116953372955322265625">
        <ele>1108.199951171875</ele>
        <time>2022-05-05T11:46:01.000Z</time>
      </trkpt>
      <trkpt lat="40.43500640429556369781494140625" lon="-1.31960861384868621826171875">
        <ele>1108.199951171875</ele>
        <time>2022-05-05T11:46:09.000Z</time>
      </trkpt>
      <trkpt lat="40.435083098709583282470703125" lon="-1.31906286813318729400634765625">
        <ele>1108.5999755859375</ele>
        <time>2022-05-05T11:46:20.000Z</time>
      </trkpt>
      <trkpt lat="40.435101203620433807373046875" lon="-1.31864427588880062103271484375">
        <ele>1107.800048828125</ele>
        <time>2022-05-05T11:46:28.000Z</time>
      </trkpt>
      <trkpt lat="40.43509508483111858367919921875" lon="-1.31853581406176090240478515625">
        <ele>1107.4000244140625</ele>
        <time>2022-05-05T11:46:30.000Z</time>
      </trkpt>
      <trkpt lat="40.4350559413433074951171875" lon="-1.3182753883302211761474609375">
        <ele>1107.199951171875</ele>
        <time>2022-05-05T11:46:35.000Z</time>
      </trkpt>
      <trkpt lat="40.4350130259990692138671875" lon="-1.31796902976930141448974609375">
        <ele>1106.800048828125</ele>
        <time>2022-05-05T11:46:40.000Z</time>
      </trkpt>
      <trkpt lat="40.43500774540007114410400390625" lon="-1.31790247745811939239501953125">
        <ele>1106.800048828125</ele>
        <time>2022-05-05T11:46:41.000Z</time>
      </trkpt>
      <trkpt lat="40.43493415229022502899169921875" lon="-1.31747868843376636505126953125">
        <ele>1105.800048828125</ele>
        <time>2022-05-05T11:46:48.000Z</time>
      </trkpt>
      <trkpt lat="40.43491504155099391937255859375" lon="-1.31742420606315135955810546875">
        <ele>1105.5999755859375</ele>
        <time>2022-05-05T11:46:49.000Z</time>
      </trkpt>
      <trkpt lat="40.434780679643154144287109375" lon="-1.31704509258270263671875">
        <ele>1105</ele>
        <time>2022-05-05T11:46:56.000Z</time>
      </trkpt>
      <trkpt lat="40.43475687503814697265625" lon="-1.31698885001242160797119140625">
        <ele>1104.800048828125</ele>
        <time>2022-05-05T11:46:57.000Z</time>
      </trkpt>
      <trkpt lat="40.4346635006368160247802734375" lon="-1.316769830882549285888671875">
        <ele>1104.4000244140625</ele>
        <time>2022-05-05T11:47:01.000Z</time>
      </trkpt>
      <trkpt lat="40.43462435714900493621826171875" lon="-1.31665072403848171234130859375">
        <ele>1104.199951171875</ele>
        <time>2022-05-05T11:47:03.000Z</time>
      </trkpt>
      <trkpt lat="40.4345847107470035552978515625" lon="-1.316435225307941436767578125">
        <ele>1103.800048828125</ele>
        <time>2022-05-05T11:47:06.000Z</time>
      </trkpt>
      <trkpt lat="40.4345890693366527557373046875" lon="-1.3162704370915889739990234375">
        <ele>1103.199951171875</ele>
        <time>2022-05-05T11:47:08.000Z</time>
      </trkpt>
      <trkpt lat="40.4346004687249660491943359375" lon="-1.3161866180598735809326171875">
        <ele>1103</ele>
        <time>2022-05-05T11:47:09.000Z</time>
      </trkpt>
      <trkpt lat="40.43469292111694812774658203125" lon="-1.315853185951709747314453125">
        <ele>1101.800048828125</ele>
        <time>2022-05-05T11:47:13.000Z</time>
      </trkpt>
      <trkpt lat="40.43472259305417537689208984375" lon="-1.315772049129009246826171875">
        <ele>1101.5999755859375</ele>
        <time>2022-05-05T11:47:14.000Z</time>
      </trkpt>
      <trkpt lat="40.43493733741343021392822265625" lon="-1.31523854099214076995849609375">
        <ele>1101.800048828125</ele>
        <time>2022-05-05T11:47:21.000Z</time>
      </trkpt>
      <trkpt lat="40.43495376594364643096923828125" lon="-1.31516779772937297821044921875">
        <ele>1101.800048828125</ele>
        <time>2022-05-05T11:47:22.000Z</time>
      </trkpt>
      <trkpt lat="40.43495695106685161590576171875" lon="-1.3150979764759540557861328125">
        <ele>1101.800048828125</ele>
        <time>2022-05-05T11:47:23.000Z</time>
      </trkpt>
      <trkpt lat="40.4349501617252826690673828125" lon="-1.31503150798380374908447265625">
        <ele>1101.5999755859375</ele>
        <time>2022-05-05T11:47:24.000Z</time>
      </trkpt>
      <trkpt lat="40.43486416339874267578125" lon="-1.3148374669253826141357421875">
        <ele>1101</ele>
        <time>2022-05-05T11:47:28.000Z</time>
      </trkpt>
      <trkpt lat="40.4347111098468303680419921875" lon="-1.31479966454207897186279296875">
        <ele>1100.199951171875</ele>
        <time>2022-05-05T11:47:33.000Z</time>
      </trkpt>
      <trkpt lat="40.43455864302814006805419921875" lon="-1.31471081636846065521240234375">
        <ele>1100.4000244140625</ele>
        <time>2022-05-05T11:47:38.000Z</time>
      </trkpt>
      <trkpt lat="40.43450265191495418548583984375" lon="-1.31445717997848987579345703125">
        <ele>1100.800048828125</ele>
        <time>2022-05-05T11:47:43.000Z</time>
      </trkpt>
      <trkpt lat="40.4344618320465087890625" lon="-1.3143534958362579345703125">
        <ele>1101</ele>
        <time>2022-05-05T11:47:46.000Z</time>
      </trkpt>
      <trkpt lat="40.43444917537271976470947265625" lon="-1.3143234886229038238525390625">
        <ele>1101</ele>
        <time>2022-05-05T11:47:47.000Z</time>
      </trkpt>
      <trkpt lat="40.4344150610268115997314453125" lon="-1.314274705946445465087890625">
        <ele>1101.199951171875</ele>
        <time>2022-05-05T11:47:49.000Z</time>
      </trkpt>
      <trkpt lat="40.4343218542635440826416015625" lon="-1.314193569123744964599609375">
        <ele>1101.800048828125</ele>
        <time>2022-05-05T11:47:53.000Z</time>
      </trkpt>
      <trkpt lat="40.43408003635704517364501953125" lon="-1.31405585445463657379150390625">
        <ele>1103.4000244140625</ele>
        <time>2022-05-05T11:48:02.000Z</time>
      </trkpt>
      <trkpt lat="40.434055812656879425048828125" lon="-1.31404059939086437225341796875">
        <ele>1103.5999755859375</ele>
        <time>2022-05-05T11:48:03.000Z</time>
      </trkpt>
      <trkpt lat="40.43384836055338382720947265625" lon="-1.31391202099621295928955078125">
        <ele>1105</ele>
        <time>2022-05-05T11:48:12.000Z</time>
      </trkpt>
      <trkpt lat="40.433727912604808807373046875" lon="-1.31383792497217655181884765625">
        <ele>1105.5999755859375</ele>
        <time>2022-05-05T11:48:17.000Z</time>
      </trkpt>
      <trkpt lat="40.43367971666157245635986328125" lon="-1.3138014636933803558349609375">
        <ele>1105.800048828125</ele>
        <time>2022-05-05T11:48:19.000Z</time>
      </trkpt>
      <trkpt lat="40.43351233005523681640625" lon="-1.31367615424096584320068359375">
        <ele>1106.4000244140625</ele>
        <time>2022-05-05T11:48:26.000Z</time>
      </trkpt>
      <trkpt lat="40.43342222459614276885986328125" lon="-1.313592754304409027099609375">
        <ele>1106.800048828125</ele>
        <time>2022-05-05T11:48:30.000Z</time>
      </trkpt>
      <trkpt lat="40.43331141583621501922607421875" lon="-1.31347917951643466949462890625">
        <ele>1107.4000244140625</ele>
        <time>2022-05-05T11:48:35.000Z</time>
      </trkpt>
      <trkpt lat="40.43316020630300045013427734375" lon="-1.31332327611744403839111328125">
        <ele>1108.199951171875</ele>
        <time>2022-05-05T11:48:42.000Z</time>
      </trkpt>
      <trkpt lat="40.43311159126460552215576171875" lon="-1.31327181123197078704833984375">
        <ele>1108.4000244140625</ele>
        <time>2022-05-05T11:48:44.000Z</time>
      </trkpt>
      <trkpt lat="40.43290053494274616241455078125" lon="-1.31304256618022918701171875">
        <ele>1109</ele>
        <time>2022-05-05T11:48:53.000Z</time>
      </trkpt>
      <trkpt lat="40.4326823540031909942626953125" lon="-1.3128033466637134552001953125">
        <ele>1109</ele>
        <time>2022-05-05T11:49:02.000Z</time>
      </trkpt>
      <trkpt lat="40.432484038174152374267578125" lon="-1.31260343827307224273681640625">
        <ele>1109.199951171875</ele>
        <time>2022-05-05T11:49:10.000Z</time>
      </trkpt>
      <trkpt lat="40.43240583501756191253662109375" lon="-1.3125294260680675506591796875">
        <ele>1109.4000244140625</ele>
        <time>2022-05-05T11:49:13.000Z</time>
      </trkpt>
      <trkpt lat="40.43221841566264629364013671875" lon="-1.31233555264770984649658203125">
        <ele>1110</ele>
        <time>2022-05-05T11:49:20.000Z</time>
      </trkpt>
      <trkpt lat="40.43214985169470310211181640625" lon="-1.31214075721800327301025390625">
        <ele>1110.199951171875</ele>
        <time>2022-05-05T11:49:26.000Z</time>
      </trkpt>
      <trkpt lat="40.4321730695664882659912109375" lon="-1.31191528402268886566162109375">
        <ele>1110.5999755859375</ele>
        <time>2022-05-05T11:49:32.000Z</time>
      </trkpt>
      <trkpt lat="40.432144068181514739990234375" lon="-1.3117579557001590728759765625">
        <ele>1110.5999755859375</ele>
        <time>2022-05-05T11:49:36.000Z</time>
      </trkpt>
      <trkpt lat="40.43203569017350673675537109375" lon="-1.31167941726744174957275390625">
        <ele>1110.5999755859375</ele>
        <time>2022-05-05T11:49:40.000Z</time>
      </trkpt>
      <trkpt lat="40.43193946592509746551513671875" lon="-1.3116432912647724151611328125">
        <ele>1110.5999755859375</ele>
        <time>2022-05-05T11:49:43.000Z</time>
      </trkpt>
      <trkpt lat="40.43192169629037380218505859375" lon="-1.3116084225475788116455078125">
        <ele>1110.800048828125</ele>
        <time>2022-05-05T11:49:44.000Z</time>
      </trkpt>
      <trkpt lat="40.4319139011204242706298828125" lon="-1.31156676448881626129150390625">
        <ele>1111</ele>
        <time>2022-05-05T11:49:45.000Z</time>
      </trkpt>
      <trkpt lat="40.431879870593547821044921875" lon="-1.31137557327747344970703125">
        <ele>1111.199951171875</ele>
        <time>2022-05-05T11:49:49.000Z</time>
      </trkpt>
      <trkpt lat="40.4318649508059024810791015625" lon="-1.31133056245744228363037109375">
        <ele>1111.199951171875</ele>
        <time>2022-05-05T11:49:50.000Z</time>
      </trkpt>
      <trkpt lat="40.43181373737752437591552734375" lon="-1.31100165657699108123779296875">
        <ele>1110.800048828125</ele>
        <time>2022-05-05T11:49:56.000Z</time>
      </trkpt>
      <trkpt lat="40.4318079538643360137939453125" lon="-1.31062128581106662750244140625">
        <ele>1109.5999755859375</ele>
        <time>2022-05-05T11:50:02.000Z</time>
      </trkpt>
      <trkpt lat="40.43179948814213275909423828125" lon="-1.31055925972759723663330078125">
        <ele>1109.199951171875</ele>
        <time>2022-05-05T11:50:03.000Z</time>
      </trkpt>
      <trkpt lat="40.4317237995564937591552734375" lon="-1.31030797027051448822021484375">
        <ele>1107.5999755859375</ele>
        <time>2022-05-05T11:50:08.000Z</time>
      </trkpt>
      <trkpt lat="40.43153864331543445587158203125" lon="-1.31000488065183162689208984375">
        <ele>1107</ele>
        <time>2022-05-05T11:50:16.000Z</time>
      </trkpt>
      <trkpt lat="40.43139874935150146484375" lon="-1.30969709716737270355224609375">
        <ele>1106.4000244140625</ele>
        <time>2022-05-05T11:50:23.000Z</time>
      </trkpt>
      <trkpt lat="40.43135155923664569854736328125" lon="-1.30937397480010986328125">
        <ele>1105.800048828125</ele>
        <time>2022-05-05T11:50:29.000Z</time>
      </trkpt>
      <trkpt lat="40.431351475417613983154296875" lon="-1.30931387655436992645263671875">
        <ele>1105.800048828125</ele>
        <time>2022-05-05T11:50:30.000Z</time>
      </trkpt>
      <trkpt lat="40.43137351982295513153076171875" lon="-1.309049427509307861328125">
        <ele>1105</ele>
        <time>2022-05-05T11:50:35.000Z</time>
      </trkpt>
      <trkpt lat="40.43143093585968017578125" lon="-1.3086724095046520233154296875">
        <ele>1105</ele>
        <time>2022-05-05T11:50:43.000Z</time>
      </trkpt>
      <trkpt lat="40.43152539990842342376708984375" lon="-1.3082590140402317047119140625">
        <ele>1105.199951171875</ele>
        <time>2022-05-05T11:50:51.000Z</time>
      </trkpt>
      <trkpt lat="40.4315876774489879608154296875" lon="-1.30801786668598651885986328125">
        <ele>1104.5999755859375</ele>
        <time>2022-05-05T11:50:55.000Z</time>
      </trkpt>
      <trkpt lat="40.43162866495549678802490234375" lon="-1.30787931382656097412109375">
        <ele>1103.800048828125</ele>
        <time>2022-05-05T11:50:57.000Z</time>
      </trkpt>
      <trkpt lat="40.431653223931789398193359375" lon="-1.3078043796122074127197265625">
        <ele>1103.4000244140625</ele>
        <time>2022-05-05T11:50:58.000Z</time>
      </trkpt>
      <trkpt lat="40.4316989891231060028076171875" lon="-1.307643949985504150390625">
        <ele>1102.5999755859375</ele>
        <time>2022-05-05T11:51:00.000Z</time>
      </trkpt>
      <trkpt lat="40.43177249841392040252685546875" lon="-1.3073976896703243255615234375">
        <ele>1101.4000244140625</ele>
        <time>2022-05-05T11:51:03.000Z</time>
      </trkpt>
      <trkpt lat="40.4319293238222599029541015625" lon="-1.30718738771975040435791015625">
        <ele>1099.5999755859375</ele>
        <time>2022-05-05T11:51:07.000Z</time>
      </trkpt>
      <trkpt lat="40.4319796152412891387939453125" lon="-1.30715914070606231689453125">
        <ele>1099.199951171875</ele>
        <time>2022-05-05T11:51:08.000Z</time>
      </trkpt>
      <trkpt lat="40.43208966962993144989013671875" lon="-1.30711547099053859710693359375">
        <ele>1098.199951171875</ele>
        <time>2022-05-05T11:51:10.000Z</time>
      </trkpt>
      <trkpt lat="40.43214733712375164031982421875" lon="-1.30708127282559871673583984375">
        <ele>1097.5999755859375</ele>
        <time>2022-05-05T11:51:11.000Z</time>
      </trkpt>
      <trkpt lat="40.43225730769336223602294921875" lon="-1.306967027485370635986328125">
        <ele>1096.4000244140625</ele>
        <time>2022-05-05T11:51:13.000Z</time>
      </trkpt>
      <trkpt lat="40.4323034919798374176025390625" lon="-1.30689670331776142120361328125">
        <ele>1096</ele>
        <time>2022-05-05T11:51:14.000Z</time>
      </trkpt>
      <trkpt lat="40.4323789291083812713623046875" lon="-1.30674339830875396728515625">
        <ele>1095</ele>
        <time>2022-05-05T11:51:16.000Z</time>
      </trkpt>
      <trkpt lat="40.43240927159786224365234375" lon="-1.3066657818853855133056640625">
        <ele>1094.5999755859375</ele>
        <time>2022-05-05T11:51:17.000Z</time>
      </trkpt>
      <trkpt lat="40.4324365966022014617919921875" lon="-1.306590177118778228759765625">
        <ele>1094.199951171875</ele>
        <time>2022-05-05T11:51:18.000Z</time>
      </trkpt>
      <trkpt lat="40.4325199127197265625" lon="-1.30628666840493679046630859375">
        <ele>1092.5999755859375</ele>
        <time>2022-05-05T11:51:22.000Z</time>
      </trkpt>
      <trkpt lat="40.43254480697214603424072265625" lon="-1.3061256520450115203857421875">
        <ele>1091.5999755859375</ele>
        <time>2022-05-05T11:51:24.000Z</time>
      </trkpt>
      <trkpt lat="40.4325534403324127197265625" lon="-1.30604577250778675079345703125">
        <ele>1091.199951171875</ele>
        <time>2022-05-05T11:51:25.000Z</time>
      </trkpt>
      <trkpt lat="40.43255788274109363555908203125" lon="-1.30589179694652557373046875">
        <ele>1090.4000244140625</ele>
        <time>2022-05-05T11:51:27.000Z</time>
      </trkpt>
      <trkpt lat="40.43254916556179523468017578125" lon="-1.30581728182733058929443359375">
        <ele>1090</ele>
        <time>2022-05-05T11:51:28.000Z</time>
      </trkpt>
      <trkpt lat="40.432528965175151824951171875" lon="-1.30574603565037250518798828125">
        <ele>1089.800048828125</ele>
        <time>2022-05-05T11:51:29.000Z</time>
      </trkpt>
      <trkpt lat="40.432496108114719390869140625" lon="-1.30567881278693675994873046875">
        <ele>1089.800048828125</ele>
        <time>2022-05-05T11:51:30.000Z</time>
      </trkpt>
      <trkpt lat="40.43240047059953212738037109375" lon="-1.3055694289505481719970703125">
        <ele>1090</ele>
        <time>2022-05-05T11:51:32.000Z</time>
      </trkpt>
      <trkpt lat="40.43222160078585147857666015625" lon="-1.305471360683441162109375">
        <ele>1090.5999755859375</ele>
        <time>2022-05-05T11:51:35.000Z</time>
      </trkpt>
      <trkpt lat="40.43216527439653873443603515625" lon="-1.30544780753552913665771484375">
        <ele>1090.5999755859375</ele>
        <time>2022-05-05T11:51:36.000Z</time>
      </trkpt>
      <trkpt lat="40.4320250451564788818359375" lon="-1.30537086166441440582275390625">
        <ele>1090.800048828125</ele>
        <time>2022-05-05T11:51:39.000Z</time>
      </trkpt>
      <trkpt lat="40.4319672100245952606201171875" lon="-1.3052978552877902984619140625">
        <ele>1090.4000244140625</ele>
        <time>2022-05-05T11:51:41.000Z</time>
      </trkpt>
      <trkpt lat="40.43195690028369426727294921875" lon="-1.30509777925908565521240234375">
        <ele>1089</ele>
        <time>2022-05-05T11:51:45.000Z</time>
      </trkpt>
      <trkpt lat="40.43199093081057071685791015625" lon="-1.3050085119903087615966796875">
        <ele>1088.199951171875</ele>
        <time>2022-05-05T11:51:47.000Z</time>
      </trkpt>
      <trkpt lat="40.43204792775213718414306640625" lon="-1.30493617616593837738037109375">
        <ele>1087.4000244140625</ele>
        <time>2022-05-05T11:51:49.000Z</time>
      </trkpt>
      <trkpt lat="40.43208849616348743438720703125" lon="-1.304907761514186859130859375">
        <ele>1087</ele>
        <time>2022-05-05T11:51:50.000Z</time>
      </trkpt>
      <trkpt lat="40.4321962036192417144775390625" lon="-1.30486610345542430877685546875">
        <ele>1086.199951171875</ele>
        <time>2022-05-05T11:51:52.000Z</time>
      </trkpt>
      <trkpt lat="40.432309024035930633544921875" lon="-1.30483291111886501312255859375">
        <ele>1085.4000244140625</ele>
        <time>2022-05-05T11:51:54.000Z</time>
      </trkpt>
      <trkpt lat="40.43236434459686279296875" lon="-1.3048244453966617584228515625">
        <ele>1085.199951171875</ele>
        <time>2022-05-05T11:51:55.000Z</time>
      </trkpt>
      <trkpt lat="40.43252049945294857025146484375" lon="-1.30480424501001834869384765625">
        <ele>1084.199951171875</ele>
        <time>2022-05-05T11:51:58.000Z</time>
      </trkpt>
      <trkpt lat="40.4326649196445941925048828125" lon="-1.30477130413055419921875">
        <ele>1083.5999755859375</ele>
        <time>2022-05-05T11:52:01.000Z</time>
      </trkpt>
      <trkpt lat="40.43275066651403903961181640625" lon="-1.3047456555068492889404296875">
        <ele>1083.199951171875</ele>
        <time>2022-05-05T11:52:03.000Z</time>
      </trkpt>
      <trkpt lat="40.4327856190502643585205078125" lon="-1.30471640266478061676025390625">
        <ele>1083.199951171875</ele>
        <time>2022-05-05T11:52:04.000Z</time>
      </trkpt>
      <trkpt lat="40.432836748659610748291015625" lon="-1.30463928915560245513916015625">
        <ele>1083.199951171875</ele>
        <time>2022-05-05T11:52:06.000Z</time>
      </trkpt>
      <trkpt lat="40.4328929074108600616455078125" lon="-1.30452948622405529022216796875">
        <ele>1083.199951171875</ele>
        <time>2022-05-05T11:52:09.000Z</time>
      </trkpt>
      <trkpt lat="40.43300815857946872711181640625" lon="-1.3043279014527797698974609375">
        <ele>1083.199951171875</ele>
        <time>2022-05-05T11:52:14.000Z</time>
      </trkpt>
      <trkpt lat="40.4330374114215373992919921875" lon="-1.30428188480436801910400390625">
        <ele>1083.5999755859375</ele>
        <time>2022-05-05T11:52:15.000Z</time>
      </trkpt>
      <trkpt lat="40.43306297622621059417724609375" lon="-1.304233856499195098876953125">
        <ele>1083.800048828125</ele>
        <time>2022-05-05T11:52:16.000Z</time>
      </trkpt>
      <trkpt lat="40.43308518826961517333984375" lon="-1.30408910103142261505126953125">
        <ele>1084.199951171875</ele>
        <time>2022-05-05T11:52:19.000Z</time>
      </trkpt>
      <trkpt lat="40.43301218189299106597900390625" lon="-1.30398265086114406585693359375">
        <ele>1084.199951171875</ele>
        <time>2022-05-05T11:52:23.000Z</time>
      </trkpt>
      <trkpt lat="40.43292182497680187225341796875" lon="-1.303916014730930328369140625">
        <ele>1084.4000244140625</ele>
        <time>2022-05-05T11:52:27.000Z</time>
      </trkpt>
      <trkpt lat="40.43285259045660495758056640625" lon="-1.303851306438446044921875">
        <ele>1085</ele>
        <time>2022-05-05T11:52:30.000Z</time>
      </trkpt>
      <trkpt lat="40.43278612196445465087890625" lon="-1.30378567613661289215087890625">
        <ele>1085.4000244140625</ele>
        <time>2022-05-05T11:52:33.000Z</time>
      </trkpt>
      <trkpt lat="40.43272535316646099090576171875" lon="-1.3037212193012237548828125">
        <ele>1085.800048828125</ele>
        <time>2022-05-05T11:52:36.000Z</time>
      </trkpt>
      <trkpt lat="40.43267120607197284698486328125" lon="-1.30365642718970775604248046875">
        <ele>1086.199951171875</ele>
        <time>2022-05-05T11:52:39.000Z</time>
      </trkpt>
      <trkpt lat="40.43264262378215789794921875" lon="-1.3036100752651691436767578125">
        <ele>1086.5999755859375</ele>
        <time>2022-05-05T11:52:42.000Z</time>
      </trkpt>
      <trkpt lat="40.432640276849269866943359375" lon="-1.303610242903232574462890625">
        <ele>1086.5999755859375</ele>
        <time>2022-05-05T11:52:44.000Z</time>
      </trkpt>
      <trkpt lat="40.4326810128986835479736328125" lon="-1.30367570556700229644775390625">
        <ele>1086.199951171875</ele>
        <time>2022-05-05T11:52:59.000Z</time>
      </trkpt>
      <trkpt lat="40.4326971061527729034423828125" lon="-1.303698755800724029541015625">
        <ele>1086</ele>
        <time>2022-05-05T11:53:00.000Z</time>
      </trkpt>
      <trkpt lat="40.432842783629894256591796875" lon="-1.30386983044445514678955078125">
        <ele>1084.800048828125</ele>
        <time>2022-05-05T11:53:06.000Z</time>
      </trkpt>
      <trkpt lat="40.43302215635776519775390625" lon="-1.3040398992598056793212890625">
        <ele>1084</ele>
        <time>2022-05-05T11:53:11.000Z</time>
      </trkpt>
      <trkpt lat="40.43308108113706111907958984375" lon="-1.30410703830420970916748046875">
        <ele>1084.199951171875</ele>
        <time>2022-05-05T11:53:13.000Z</time>
      </trkpt>
      <trkpt lat="40.43314679525792598724365234375" lon="-1.3042068667709827423095703125">
        <ele>1084.4000244140625</ele>
        <time>2022-05-05T11:53:16.000Z</time>
      </trkpt>
      <trkpt lat="40.43323212303221225738525390625" lon="-1.304296553134918212890625">
        <ele>1084.5999755859375</ele>
        <time>2022-05-05T11:53:19.000Z</time>
      </trkpt>
      <trkpt lat="40.43336422182619571685791015625" lon="-1.30433787591755390167236328125">
        <ele>1085.4000244140625</ele>
        <time>2022-05-05T11:53:24.000Z</time>
      </trkpt>
      <trkpt lat="40.43341132812201976776123046875" lon="-1.30433385260403156280517578125">
        <ele>1085.5999755859375</ele>
        <time>2022-05-05T11:53:26.000Z</time>
      </trkpt>
      <trkpt lat="40.4335349611937999725341796875" lon="-1.30433234386146068572998046875">
        <ele>1086.4000244140625</ele>
        <time>2022-05-05T11:53:30.000Z</time>
      </trkpt>
      <trkpt lat="40.43364199809730052947998046875" lon="-1.3043971359729766845703125">
        <ele>1086.800048828125</ele>
        <time>2022-05-05T11:53:35.000Z</time>
      </trkpt>
      <trkpt lat="40.43366010300815105438232421875" lon="-1.304417587816715240478515625">
        <ele>1087</ele>
        <time>2022-05-05T11:53:39.000Z</time>
      </trkpt>
      <trkpt lat="40.433632694184780120849609375" lon="-1.3046886585652828216552734375">
        <ele>1086.199951171875</ele>
        <time>2022-05-05T11:54:34.000Z</time>
      </trkpt>
      <trkpt lat="40.43372900225222110748291015625" lon="-1.30469821393489837646484375">
        <ele>1086.5999755859375</ele>
        <time>2022-05-05T11:54:42.000Z</time>
      </trkpt>
      <trkpt lat="40.43380745686590671539306640625" lon="-1.30473685450851917266845703125">
        <ele>1087</ele>
        <time>2022-05-05T11:54:51.000Z</time>
      </trkpt>
      <trkpt lat="40.4338149167597293853759765625" lon="-1.304740794003009796142578125">
        <ele>1087</ele>
        <time>2022-05-05T11:54:54.000Z</time>
      </trkpt>
      <trkpt lat="40.4338544793426990509033203125" lon="-1.30478479899466037750244140625">
        <ele>1087.4000244140625</ele>
        <time>2022-05-05T11:55:09.000Z</time>
      </trkpt>
      <trkpt lat="40.43387149460613727569580078125" lon="-1.30479100160300731658935546875">
        <ele>1087.5999755859375</ele>
        <time>2022-05-05T11:55:10.000Z</time>
      </trkpt>
      <trkpt lat="40.43389228172600269317626953125" lon="-1.30480240099132061004638671875">
        <ele>1087.800048828125</ele>
        <time>2022-05-05T11:55:11.000Z</time>
      </trkpt>
      <trkpt lat="40.43397408910095691680908203125" lon="-1.30487649701535701751708984375">
        <ele>1088.5999755859375</ele>
        <time>2022-05-05T11:55:15.000Z</time>
      </trkpt>
      <trkpt lat="40.43399403803050518035888671875" lon="-1.304898373782634735107421875">
        <ele>1088.800048828125</ele>
        <time>2022-05-05T11:55:16.000Z</time>
      </trkpt>
      <trkpt lat="40.4341079480946063995361328125" lon="-1.30502301268279552459716796875">
        <ele>1090</ele>
        <time>2022-05-05T11:55:22.000Z</time>
      </trkpt>
      <trkpt lat="40.43412378989160060882568359375" lon="-1.30503885447978973388671875">
        <ele>1090.199951171875</ele>
        <time>2022-05-05T11:55:23.000Z</time>
      </trkpt>
      <trkpt lat="40.434142984449863433837890625" lon="-1.30504966713488101959228515625">
        <ele>1090.4000244140625</ele>
        <time>2022-05-05T11:55:26.000Z</time>
      </trkpt>
      <trkpt lat="40.4341056011617183685302734375" lon="-1.3050128705799579620361328125">
        <ele>1090</ele>
        <time>2022-05-05T11:56:16.000Z</time>
      </trkpt>
      <trkpt lat="40.43406662531197071075439453125" lon="-1.3049716316163539886474609375">
        <ele>1089.5999755859375</ele>
        <time>2022-05-05T11:56:18.000Z</time>
      </trkpt>
      <trkpt lat="40.43389731086790561676025390625" lon="-1.30479904823005199432373046875">
        <ele>1087.800048828125</ele>
        <time>2022-05-05T11:56:25.000Z</time>
      </trkpt>
      <trkpt lat="40.43387451209127902984619140625" lon="-1.3047778420150279998779296875">
        <ele>1087.5999755859375</ele>
        <time>2022-05-05T11:56:26.000Z</time>
      </trkpt>
      <trkpt lat="40.43379706330597400665283203125" lon="-1.30469259805977344512939453125">
        <ele>1087.199951171875</ele>
        <time>2022-05-05T11:56:30.000Z</time>
      </trkpt>
      <trkpt lat="40.43374559842050075531005859375" lon="-1.30458380095660686492919921875">
        <ele>1087</ele>
        <time>2022-05-05T11:56:34.000Z</time>
      </trkpt>
      <trkpt lat="40.43374073691666126251220703125" lon="-1.3045513629913330078125">
        <ele>1087.199951171875</ele>
        <time>2022-05-05T11:56:35.000Z</time>
      </trkpt>
      <trkpt lat="40.4337364621460437774658203125" lon="-1.30441046319901943206787109375">
        <ele>1087.4000244140625</ele>
        <time>2022-05-05T11:56:40.000Z</time>
      </trkpt>
      <trkpt lat="40.4337421618402004241943359375" lon="-1.304365955293178558349609375">
        <ele>1087.5999755859375</ele>
        <time>2022-05-05T11:56:44.000Z</time>
      </trkpt>
      <trkpt lat="40.43378055095672607421875" lon="-1.30409966222941875457763671875">
        <ele>1088.4000244140625</ele>
        <time>2022-05-05T11:57:14.000Z</time>
      </trkpt>
      <trkpt lat="40.43382355011999607086181640625" lon="-1.30394007079303264617919921875">
        <ele>1089</ele>
        <time>2022-05-05T11:57:20.000Z</time>
      </trkpt>
      <trkpt lat="40.43382824398577213287353515625" lon="-1.30370906554162502288818359375">
        <ele>1088.4000244140625</ele>
        <time>2022-05-05T11:57:27.000Z</time>
      </trkpt>
      <trkpt lat="40.4338303394615650177001953125" lon="-1.30360412411391735076904296875">
        <ele>1088.199951171875</ele>
        <time>2022-05-05T11:57:30.000Z</time>
      </trkpt>
      <trkpt lat="40.4338326863944530487060546875" lon="-1.30347856320440769195556640625">
        <ele>1088</ele>
        <time>2022-05-05T11:57:34.000Z</time>
      </trkpt>
      <trkpt lat="40.43383377604186534881591796875" lon="-1.30333037115633487701416015625">
        <ele>1087.5999755859375</ele>
        <time>2022-05-05T11:57:39.000Z</time>
      </trkpt>
      <trkpt lat="40.43384157121181488037109375" lon="-1.3032315485179424285888671875">
        <ele>1087.5999755859375</ele>
        <time>2022-05-05T11:57:42.000Z</time>
      </trkpt>
      <trkpt lat="40.4338454268872737884521484375" lon="-1.3030763156712055206298828125">
        <ele>1087</ele>
        <time>2022-05-05T11:57:47.000Z</time>
      </trkpt>
      <trkpt lat="40.4338704049587249755859375" lon="-1.3028637506067752838134765625">
        <ele>1085.800048828125</ele>
        <time>2022-05-05T11:57:54.000Z</time>
      </trkpt>
      <trkpt lat="40.43388792313635349273681640625" lon="-1.3026642613112926483154296875">
        <ele>1084.800048828125</ele>
        <time>2022-05-05T11:58:01.000Z</time>
      </trkpt>
      <trkpt lat="40.4339091293513774871826171875" lon="-1.30259460769593715667724609375">
        <ele>1084.5999755859375</ele>
        <time>2022-05-05T11:58:04.000Z</time>
      </trkpt>
      <trkpt lat="40.43395665474236011505126953125" lon="-1.30251850001513957977294921875">
        <ele>1084.800048828125</ele>
        <time>2022-05-05T11:58:08.000Z</time>
      </trkpt>
      <trkpt lat="40.43401599861681461334228515625" lon="-1.302402578294277191162109375">
        <ele>1085</ele>
        <time>2022-05-05T11:58:14.000Z</time>
      </trkpt>
      <trkpt lat="40.434018932282924652099609375" lon="-1.30239930935204029083251953125">
        <ele>1085</ele>
        <time>2022-05-05T11:58:16.000Z</time>
      </trkpt>
      <trkpt lat="40.43410736136138439178466796875" lon="-1.30211750976741313934326171875">
        <ele>1084.199951171875</ele>
        <time>2022-05-05T11:58:48.000Z</time>
      </trkpt>
      <trkpt lat="40.43411121703684329986572265625" lon="-1.30210183560848236083984375">
        <ele>1084.199951171875</ele>
        <time>2022-05-05T11:58:49.000Z</time>
      </trkpt>
      <trkpt lat="40.4341180063784122467041015625" lon="-1.3019957207143306732177734375">
        <ele>1083.5999755859375</ele>
        <time>2022-05-05T11:58:56.000Z</time>
      </trkpt>
      <trkpt lat="40.43412177823483943939208984375" lon="-1.301982142031192779541015625">
        <ele>1083.5999755859375</ele>
        <time>2022-05-05T11:58:57.000Z</time>
      </trkpt>
      <trkpt lat="40.4341478459537029266357421875" lon="-1.30193746648728847503662109375">
        <ele>1083.800048828125</ele>
        <time>2022-05-05T11:59:01.000Z</time>
      </trkpt>
      <trkpt lat="40.43414759449660778045654296875" lon="-1.301934532821178436279296875">
        <ele>1083.800048828125</ele>
        <time>2022-05-05T11:59:02.000Z</time>
      </trkpt>
      <trkpt lat="40.43425873853266239166259765625" lon="-1.30147126503288745880126953125">
        <ele>1085.5999755859375</ele>
        <time>2022-05-05T11:59:48.000Z</time>
      </trkpt>
      <trkpt lat="40.43428639881312847137451171875" lon="-1.301418878138065338134765625">
        <ele>1085.4000244140625</ele>
        <time>2022-05-05T11:59:52.000Z</time>
      </trkpt>
      <trkpt lat="40.43431632220745086669921875" lon="-1.301324330270290374755859375">
        <ele>1084.800048828125</ele>
        <time>2022-05-05T12:00:00.000Z</time>
      </trkpt>
      <trkpt lat="40.4343221895396709442138671875" lon="-1.30131334997713565826416015625">
        <ele>1084.800048828125</ele>
        <time>2022-05-05T12:00:01.000Z</time>
      </trkpt>
      <trkpt lat="40.4343453235924243927001953125" lon="-1.30127437412738800048828125">
        <ele>1084.5999755859375</ele>
        <time>2022-05-05T12:00:05.000Z</time>
      </trkpt>
      <trkpt lat="40.434393100440502166748046875" lon="-1.3011934049427509307861328125">
        <ele>1084.199951171875</ele>
        <time>2022-05-05T12:00:13.000Z</time>
      </trkpt>
      <trkpt lat="40.43444909155368804931640625" lon="-1.30112810991704463958740234375">
        <ele>1084</ele>
        <time>2022-05-05T12:00:20.000Z</time>
      </trkpt>
      <trkpt lat="40.434458814561367034912109375" lon="-1.3011166267096996307373046875">
        <ele>1083.800048828125</ele>
        <time>2022-05-05T12:00:21.000Z</time>
      </trkpt>
      <trkpt lat="40.43452084064483642578125" lon="-1.30105820484459400177001953125">
        <ele>1083.800048828125</ele>
        <time>2022-05-05T12:00:28.000Z</time>
      </trkpt>
      <trkpt lat="40.43456216342747211456298828125" lon="-1.3010029681026935577392578125">
        <ele>1083.5999755859375</ele>
        <time>2022-05-05T12:00:36.000Z</time>
      </trkpt>
      <trkpt lat="40.43460876680910587310791015625" lon="-1.3009298779070377349853515625">
        <ele>1083.199951171875</ele>
        <time>2022-05-05T12:00:57.000Z</time>
      </trkpt>
      <trkpt lat="40.43463994748890399932861328125" lon="-1.30088419653475284576416015625">
        <ele>1083</ele>
        <time>2022-05-05T12:00:59.000Z</time>
      </trkpt>
      <trkpt lat="40.4347340762615203857421875" lon="-1.30072359926998615264892578125">
        <ele>1082.199951171875</ele>
        <time>2022-05-05T12:01:05.000Z</time>
      </trkpt>
      <trkpt lat="40.43493214063346385955810546875" lon="-1.30046124570071697235107421875">
        <ele>1080.800048828125</ele>
        <time>2022-05-05T12:01:13.000Z</time>
      </trkpt>
      <trkpt lat="40.4351310431957244873046875" lon="-1.3002650253474712371826171875">
        <ele>1079.800048828125</ele>
        <time>2022-05-05T12:01:19.000Z</time>
      </trkpt>
      <trkpt lat="40.43522290885448455810546875" lon="-1.30019637756049633026123046875">
        <ele>1079.5999755859375</ele>
        <time>2022-05-05T12:01:22.000Z</time>
      </trkpt>
      <trkpt lat="40.43531142175197601318359375" lon="-1.30014005117118358612060546875">
        <ele>1079.5999755859375</ele>
        <time>2022-05-05T12:01:25.000Z</time>
      </trkpt>
      <trkpt lat="40.43553429655730724334716796875" lon="-1.3000202737748622894287109375">
        <ele>1080</ele>
        <time>2022-05-05T12:01:31.000Z</time>
      </trkpt>
      <trkpt lat="40.43557000346481800079345703125" lon="-1.2999988161027431488037109375">
        <ele>1080.199951171875</ele>
        <time>2022-05-05T12:01:32.000Z</time>
      </trkpt>
      <trkpt lat="40.43570746667683124542236328125" lon="-1.299859844148159027099609375">
        <ele>1080.199951171875</ele>
        <time>2022-05-05T12:01:37.000Z</time>
      </trkpt>
      <trkpt lat="40.435736216604709625244140625" lon="-1.299818269908428192138671875">
        <ele>1080.199951171875</ele>
        <time>2022-05-05T12:01:38.000Z</time>
      </trkpt>
      <trkpt lat="40.43578592129051685333251953125" lon="-1.2997352890670299530029296875">
        <ele>1080.4000244140625</ele>
        <time>2022-05-05T12:01:40.000Z</time>
      </trkpt>
      <trkpt lat="40.4358322732150554656982421875" lon="-1.29965842701494693756103515625">
        <ele>1080.800048828125</ele>
        <time>2022-05-05T12:01:42.000Z</time>
      </trkpt>
      <trkpt lat="40.4359596781432628631591796875" lon="-1.29946229048073291778564453125">
        <ele>1081.800048828125</ele>
        <time>2022-05-05T12:01:48.000Z</time>
      </trkpt>
      <trkpt lat="40.43601550161838531494140625" lon="-1.2992514856159687042236328125">
        <ele>1082</ele>
        <time>2022-05-05T12:01:53.000Z</time>
      </trkpt>
      <trkpt lat="40.43600418604910373687744140625" lon="-1.299026347696781158447265625">
        <ele>1082</ele>
        <time>2022-05-05T12:01:58.000Z</time>
      </trkpt>
      <trkpt lat="40.43598943389952182769775390625" lon="-1.2988422811031341552734375">
        <ele>1081</ele>
        <time>2022-05-05T12:02:03.000Z</time>
      </trkpt>
      <trkpt lat="40.43599043972790241241455078125" lon="-1.29881118424236774444580078125">
        <ele>1080.800048828125</ele>
        <time>2022-05-05T12:02:04.000Z</time>
      </trkpt>
      <trkpt lat="40.4359786212444305419921875" lon="-1.2986979447305202484130859375">
        <ele>1080</ele>
        <time>2022-05-05T12:02:07.000Z</time>
      </trkpt>
      <trkpt lat="40.43597082607448101043701171875" lon="-1.2986116111278533935546875">
        <ele>1079.4000244140625</ele>
        <time>2022-05-05T12:02:09.000Z</time>
      </trkpt>
      <trkpt lat="40.43593444861471652984619140625" lon="-1.29835051484405994415283203125">
        <ele>1078</ele>
        <time>2022-05-05T12:02:15.000Z</time>
      </trkpt>
      <trkpt lat="40.43594132177531719207763671875" lon="-1.2980444915592670440673828125">
        <ele>1076.5999755859375</ele>
        <time>2022-05-05T12:02:22.000Z</time>
      </trkpt>
      <trkpt lat="40.43594953604042530059814453125" lon="-1.29781432449817657470703125">
        <ele>1074.5999755859375</ele>
        <time>2022-05-05T12:02:27.000Z</time>
      </trkpt>
      <trkpt lat="40.4359469376504421234130859375" lon="-1.297769732773303985595703125">
        <ele>1074.199951171875</ele>
        <time>2022-05-05T12:02:28.000Z</time>
      </trkpt>
      <trkpt lat="40.43597786687314510345458984375" lon="-1.29752020351588726043701171875">
        <ele>1073</ele>
        <time>2022-05-05T12:02:34.000Z</time>
      </trkpt>
      <trkpt lat="40.436047017574310302734375" lon="-1.2972347997128963470458984375">
        <ele>1072</ele>
        <time>2022-05-05T12:02:41.000Z</time>
      </trkpt>
      <trkpt lat="40.43612237088382244110107421875" lon="-1.29703656770288944244384765625">
        <ele>1071.199951171875</ele>
        <time>2022-05-05T12:02:47.000Z</time>
      </trkpt>
      <trkpt lat="40.4362064413726329803466796875" lon="-1.29684546031057834625244140625">
        <ele>1070.5999755859375</ele>
        <time>2022-05-05T12:02:54.000Z</time>
      </trkpt>
      <trkpt lat="40.436211638152599334716796875" lon="-1.29682802595198154449462890625">
        <ele>1070.4000244140625</ele>
        <time>2022-05-05T12:02:55.000Z</time>
      </trkpt>
      <trkpt lat="40.4362181760370731353759765625" lon="-1.29679449833929538726806640625">
        <ele>1070.4000244140625</ele>
        <time>2022-05-05T12:02:59.000Z</time>
      </trkpt>
      <trkpt lat="40.43616528622806072235107421875" lon="-1.29662920720875263214111328125">
        <ele>1069.4000244140625</ele>
        <time>2022-05-05T12:03:19.000Z</time>
      </trkpt>
      <trkpt lat="40.4361782781779766082763671875" lon="-1.29653683863580226898193359375">
        <ele>1069.5999755859375</ele>
        <time>2022-05-05T12:03:26.000Z</time>
      </trkpt>
      <trkpt lat="40.43621725402772426605224609375" lon="-1.29646441899240016937255859375">
        <ele>1069.5999755859375</ele>
        <time>2022-05-05T12:03:33.000Z</time>
      </trkpt>
      <trkpt lat="40.4362309165298938751220703125" lon="-1.296440698206424713134765625">
        <ele>1069.4000244140625</ele>
        <time>2022-05-05T12:03:34.000Z</time>
      </trkpt>
      <trkpt lat="40.43632186017930507659912109375" lon="-1.2962779216468334197998046875">
        <ele>1068.5999755859375</ele>
        <time>2022-05-05T12:03:39.000Z</time>
      </trkpt>
      <trkpt lat="40.436404086649417877197265625" lon="-1.29606694914400577545166015625">
        <ele>1067.800048828125</ele>
        <time>2022-05-05T12:03:44.000Z</time>
      </trkpt>
      <trkpt lat="40.4364213533699512481689453125" lon="-1.29602772183716297149658203125">
        <ele>1067.800048828125</ele>
        <time>2022-05-05T12:03:45.000Z</time>
      </trkpt>
      <trkpt lat="40.43653995729982852935791015625" lon="-1.295797638595104217529296875">
        <ele>1066.800048828125</ele>
        <time>2022-05-05T12:03:51.000Z</time>
      </trkpt>
      <trkpt lat="40.43657532893121242523193359375" lon="-1.2957307510077953338623046875">
        <ele>1066.5999755859375</ele>
        <time>2022-05-05T12:03:53.000Z</time>
      </trkpt>
      <trkpt lat="40.4366406239569187164306640625" lon="-1.2956670485436916351318359375">
        <ele>1066.4000244140625</ele>
        <time>2022-05-05T12:03:56.000Z</time>
      </trkpt>
      <trkpt lat="40.43668739497661590576171875" lon="-1.29563343711197376251220703125">
        <ele>1066.199951171875</ele>
        <time>2022-05-05T12:03:58.000Z</time>
      </trkpt>
      <trkpt lat="40.4368377663195133209228515625" lon="-1.29551173187792301177978515625">
        <ele>1066.4000244140625</ele>
        <time>2022-05-05T12:04:04.000Z</time>
      </trkpt>
      <trkpt lat="40.43688051402568817138671875" lon="-1.29548348486423492431640625">
        <ele>1066.4000244140625</ele>
        <time>2022-05-05T12:04:06.000Z</time>
      </trkpt>
      <trkpt lat="40.43695167638361454010009765625" lon="-1.29546202719211578369140625">
        <ele>1066.4000244140625</ele>
        <time>2022-05-05T12:04:09.000Z</time>
      </trkpt>
      <trkpt lat="40.437146723270416259765625" lon="-1.29543009214103221893310546875">
        <ele>1066</ele>
        <time>2022-05-05T12:04:15.000Z</time>
      </trkpt>
      <trkpt lat="40.437379069626331329345703125" lon="-1.2954420782625675201416015625">
        <ele>1065.4000244140625</ele>
        <time>2022-05-05T12:04:22.000Z</time>
      </trkpt>
      <trkpt lat="40.43763882480561733245849609375" lon="-1.29546470940113067626953125">
        <ele>1065.4000244140625</ele>
        <time>2022-05-05T12:04:30.000Z</time>
      </trkpt>
      <trkpt lat="40.4377715103328227996826171875" lon="-1.29550360143184661865234375">
        <ele>1065.4000244140625</ele>
        <time>2022-05-05T12:04:35.000Z</time>
      </trkpt>
      <trkpt lat="40.437960438430309295654296875" lon="-1.2955443374812602996826171875">
        <ele>1065.199951171875</ele>
        <time>2022-05-05T12:04:42.000Z</time>
      </trkpt>
      <trkpt lat="40.4380678944289684295654296875" lon="-1.2955297529697418212890625">
        <ele>1065.4000244140625</ele>
        <time>2022-05-05T12:04:46.000Z</time>
      </trkpt>
      <trkpt lat="40.438077785074710845947265625" lon="-1.29552816040813922882080078125">
        <ele>1065.4000244140625</ele>
        <time>2022-05-05T12:04:47.000Z</time>
      </trkpt>
      <trkpt lat="40.438078455626964569091796875" lon="-1.295525394380092620849609375">
        <ele>1065.4000244140625</ele>
        <time>2022-05-05T12:04:49.000Z</time>
      </trkpt>
      <trkpt lat="40.43812908232212066650390625" lon="-1.29552547819912433624267578125">
        <ele>1066</ele>
        <time>2022-05-05T12:05:01.000Z</time>
      </trkpt>
      <trkpt lat="40.43814911507070064544677734375" lon="-1.29552497528493404388427734375">
        <ele>1066.199951171875</ele>
        <time>2022-05-05T12:05:02.000Z</time>
      </trkpt>
      <trkpt lat="40.43832513503730297088623046875" lon="-1.29552396945655345916748046875">
        <ele>1068.199951171875</ele>
        <time>2022-05-05T12:05:10.000Z</time>
      </trkpt>
      <trkpt lat="40.43835128657519817352294921875" lon="-1.29552799277007579803466796875">
        <ele>1068.5999755859375</ele>
        <time>2022-05-05T12:05:14.000Z</time>
      </trkpt>
      <trkpt lat="40.4383595846593379974365234375" lon="-1.295526064932346343994140625">
        <ele>1068.5999755859375</ele>
        <time>2022-05-05T12:05:15.000Z</time>
      </trkpt>
      <trkpt lat="40.4384132288396358489990234375" lon="-1.29551089368760585784912109375">
        <ele>1069.199951171875</ele>
        <time>2022-05-05T12:05:25.000Z</time>
      </trkpt>
      <trkpt lat="40.43856837786734104156494140625" lon="-1.29479591734707355499267578125">
        <ele>1068.4000244140625</ele>
        <time>2022-05-05T12:07:24.000Z</time>
      </trkpt>
      <trkpt lat="40.43862554244697093963623046875" lon="-1.29468309693038463592529296875">
        <ele>1067.800048828125</ele>
        <time>2022-05-05T12:07:28.000Z</time>
      </trkpt>
      <trkpt lat="40.438716150820255279541015625" lon="-1.29458016715943813323974609375">
        <ele>1067.4000244140625</ele>
        <time>2022-05-05T12:07:32.000Z</time>
      </trkpt>
      <trkpt lat="40.43873752467334270477294921875" lon="-1.29455183632671833038330078125">
        <ele>1067.4000244140625</ele>
        <time>2022-05-05T12:07:33.000Z</time>
      </trkpt>
      <trkpt lat="40.43884498067200183868408203125" lon="-1.29438721574842929840087890625">
        <ele>1066.5999755859375</ele>
        <time>2022-05-05T12:07:38.000Z</time>
      </trkpt>
      <trkpt lat="40.4388780891895294189453125" lon="-1.29431144334375858306884765625">
        <ele>1066.199951171875</ele>
        <time>2022-05-05T12:07:40.000Z</time>
      </trkpt>
      <trkpt lat="40.43893642723560333251953125" lon="-1.2941207550466060638427734375">
        <ele>1065.199951171875</ele>
        <time>2022-05-05T12:07:45.000Z</time>
      </trkpt>
      <trkpt lat="40.438970625400543212890625" lon="-1.29398454912006855010986328125">
        <ele>1064.4000244140625</ele>
        <time>2022-05-05T12:07:50.000Z</time>
      </trkpt>
      <trkpt lat="40.4390257783234119415283203125" lon="-1.29390089772641658782958984375">
        <ele>1064.199951171875</ele>
        <time>2022-05-05T12:07:55.000Z</time>
      </trkpt>
      <trkpt lat="40.4390365071594715118408203125" lon="-1.29385672509670257568359375">
        <ele>1064.199951171875</ele>
        <time>2022-05-05T12:08:00.000Z</time>
      </trkpt>
      <trkpt lat="40.43943238444626331329345703125" lon="-1.29371188580989837646484375">
        <ele>1064.5999755859375</ele>
        <time>2022-05-05T12:09:05.000Z</time>
      </trkpt>
      <trkpt lat="40.4394743777811527252197265625" lon="-1.2937063537538051605224609375">
        <ele>1064.5999755859375</ele>
        <time>2022-05-05T12:09:07.000Z</time>
      </trkpt>
      <trkpt lat="40.4395954124629497528076171875" lon="-1.29368665628135204315185546875">
        <ele>1064.800048828125</ele>
        <time>2022-05-05T12:09:13.000Z</time>
      </trkpt>
      <trkpt lat="40.4396983422338962554931640625" lon="-1.2936227023601531982421875">
        <ele>1065</ele>
        <time>2022-05-05T12:09:18.000Z</time>
      </trkpt>
      <trkpt lat="40.43971485458314418792724609375" lon="-1.29360434599220752716064453125">
        <ele>1065</ele>
        <time>2022-05-05T12:09:19.000Z</time>
      </trkpt>
      <trkpt lat="40.4398114979267120361328125" lon="-1.29350602626800537109375">
        <ele>1065</ele>
        <time>2022-05-05T12:09:25.000Z</time>
      </trkpt>
      <trkpt lat="40.4398529045283794403076171875" lon="-1.2934170104563236236572265625">
        <ele>1064.800048828125</ele>
        <time>2022-05-05T12:09:30.000Z</time>
      </trkpt>
      <trkpt lat="40.43986204080283641815185546875" lon="-1.29338507540524005889892578125">
        <ele>1064.5999755859375</ele>
        <time>2022-05-05T12:09:32.000Z</time>
      </trkpt>
      <trkpt lat="40.44041474349796772003173828125" lon="-1.29113294184207916259765625">
        <ele>1055</ele>
        <time>2022-05-05T12:11:12.000Z</time>
      </trkpt>
      <trkpt lat="40.440442822873592376708984375" lon="-1.29107468761503696441650390625">
        <ele>1054.800048828125</ele>
        <time>2022-05-05T12:11:14.000Z</time>
      </trkpt>
      <trkpt lat="40.44055338017642498016357421875" lon="-1.29086379893124103546142578125">
        <ele>1054</ele>
        <time>2022-05-05T12:11:21.000Z</time>
      </trkpt>
      <trkpt lat="40.44065077789127826690673828125" lon="-1.29073522053658962249755859375">
        <ele>1053.800048828125</ele>
        <time>2022-05-05T12:11:27.000Z</time>
      </trkpt>
      <trkpt lat="40.44070458970963954925537109375" lon="-1.290720216929912567138671875">
        <ele>1053.800048828125</ele>
        <time>2022-05-05T12:11:29.000Z</time>
      </trkpt>
      <trkpt lat="40.44073509983718395233154296875" lon="-1.29073035903275012969970703125">
        <ele>1054</ele>
        <time>2022-05-05T12:11:30.000Z</time>
      </trkpt>
      <trkpt lat="40.44076410122215747833251953125" lon="-1.29074326716363430023193359375">
        <ele>1054</ele>
        <time>2022-05-05T12:11:31.000Z</time>
      </trkpt>
      <trkpt lat="40.44090726412832736968994140625" lon="-1.290854327380657196044921875">
        <ele>1054.800048828125</ele>
        <time>2022-05-05T12:11:37.000Z</time>
      </trkpt>
      <trkpt lat="40.4409894905984401702880859375" lon="-1.2909396551549434661865234375">
        <ele>1055.4000244140625</ele>
        <time>2022-05-05T12:11:41.000Z</time>
      </trkpt>
      <trkpt lat="40.4410421289503574371337890625" lon="-1.29098801873624324798583984375">
        <ele>1055.800048828125</ele>
        <time>2022-05-05T12:11:44.000Z</time>
      </trkpt>
      <trkpt lat="40.44112184084951877593994140625" lon="-1.290998496115207672119140625">
        <ele>1056.199951171875</ele>
        <time>2022-05-05T12:11:48.000Z</time>
      </trkpt>
      <trkpt lat="40.44116542674601078033447265625" lon="-1.29096941091120243072509765625">
        <ele>1056.199951171875</ele>
        <time>2022-05-05T12:11:50.000Z</time>
      </trkpt>
      <trkpt lat="40.4412813484668731689453125" lon="-1.29091090522706508636474609375">
        <ele>1056.4000244140625</ele>
        <time>2022-05-05T12:11:55.000Z</time>
      </trkpt>
      <trkpt lat="40.44132183305919170379638671875" lon="-1.2909056246280670166015625">
        <ele>1056.5999755859375</ele>
        <time>2022-05-05T12:11:57.000Z</time>
      </trkpt>
      <trkpt lat="40.44140338897705078125" lon="-1.29090067930519580841064453125">
        <ele>1057.4000244140625</ele>
        <time>2022-05-05T12:12:01.000Z</time>
      </trkpt>
      <trkpt lat="40.441476814448833465576171875" lon="-1.2909081391990184783935546875">
        <ele>1058.4000244140625</ele>
        <time>2022-05-05T12:12:05.000Z</time>
      </trkpt>
      <trkpt lat="40.44150958769023418426513671875" lon="-1.29090487025678157806396484375">
        <ele>1058.5999755859375</ele>
        <time>2022-05-05T12:12:07.000Z</time>
      </trkpt>
      <trkpt lat="40.441569350659847259521484375" lon="-1.2909047864377498626708984375">
        <ele>1059.199951171875</ele>
        <time>2022-05-05T12:12:11.000Z</time>
      </trkpt>
      <trkpt lat="40.44161536730825901031494140625" lon="-1.29091274924576282501220703125">
        <ele>1059.800048828125</ele>
        <time>2022-05-05T12:12:14.000Z</time>
      </trkpt>
      <trkpt lat="40.44163615442812442779541015625" lon="-1.2909188680350780487060546875">
        <ele>1060</ele>
        <time>2022-05-05T12:12:17.000Z</time>
      </trkpt>
      <trkpt lat="40.44168971478939056396484375" lon="-1.29090889357030391693115234375">
        <ele>1060.5999755859375</ele>
        <time>2022-05-05T12:12:31.000Z</time>
      </trkpt>
      <trkpt lat="40.4417569376528263092041015625" lon="-1.29089196212589740753173828125">
        <ele>1061.199951171875</ele>
        <time>2022-05-05T12:12:35.000Z</time>
      </trkpt>
      <trkpt lat="40.44177646748721599578857421875" lon="-1.29088123328983783721923828125">
        <ele>1061.4000244140625</ele>
        <time>2022-05-05T12:12:38.000Z</time>
      </trkpt>
      <trkpt lat="40.44180999509990215301513671875" lon="-1.29085709340870380401611328125">
        <ele>1061.5999755859375</ele>
        <time>2022-05-05T12:12:41.000Z</time>
      </trkpt>
      <trkpt lat="40.44185844250023365020751953125" lon="-1.2908293493092060089111328125">
        <ele>1062</ele>
        <time>2022-05-05T12:12:43.000Z</time>
      </trkpt>
      <trkpt lat="40.4418762959539890289306640625" lon="-1.2908206321299076080322265625">
        <ele>1062.199951171875</ele>
        <time>2022-05-05T12:12:46.000Z</time>
      </trkpt>
      <trkpt lat="40.4419319517910480499267578125" lon="-1.29075248725712299346923828125">
        <ele>1062.199951171875</ele>
        <time>2022-05-05T12:12:54.000Z</time>
      </trkpt>
      <trkpt lat="40.44197562150657176971435546875" lon="-1.29068023525178432464599609375">
        <ele>1062.4000244140625</ele>
        <time>2022-05-05T12:13:00.000Z</time>
      </trkpt>
      <trkpt lat="40.4419845901429653167724609375" lon="-1.29067017696797847747802734375">
        <ele>1062.4000244140625</ele>
        <time>2022-05-05T12:13:01.000Z</time>
      </trkpt>
      <trkpt lat="40.44201451353728771209716796875" lon="-1.290641091763973236083984375">
        <ele>1062.5999755859375</ele>
        <time>2022-05-05T12:13:05.000Z</time>
      </trkpt>
      <trkpt lat="40.4420385695993900299072265625" lon="-1.2906157784163951873779296875">
        <ele>1062.5999755859375</ele>
        <time>2022-05-05T12:13:08.000Z</time>
      </trkpt>
      <trkpt lat="40.4420627094805240631103515625" lon="-1.2905859388411045074462890625">
        <ele>1062.5999755859375</ele>
        <time>2022-05-05T12:13:11.000Z</time>
      </trkpt>
      <trkpt lat="40.442124903202056884765625" lon="-1.29051511175930500030517578125">
        <ele>1062.5999755859375</ele>
        <time>2022-05-05T12:13:19.000Z</time>
      </trkpt>
      <trkpt lat="40.44214527122676372528076171875" lon="-1.29050371237099170684814453125">
        <ele>1062.800048828125</ele>
        <time>2022-05-05T12:13:22.000Z</time>
      </trkpt>
      <trkpt lat="40.4421793855726718902587890625" lon="-1.2904994376003742218017578125">
        <ele>1062.800048828125</ele>
        <time>2022-05-05T12:13:28.000Z</time>
      </trkpt>
      <trkpt lat="40.44218533672392368316650390625" lon="-1.2905014492571353912353515625">
        <ele>1063</ele>
        <time>2022-05-05T12:13:29.000Z</time>
      </trkpt>
      <trkpt lat="40.44222489930689334869384765625" lon="-1.29051066935062408447265625">
        <ele>1063</ele>
        <time>2022-05-05T12:13:37.000Z</time>
      </trkpt>
      <trkpt lat="40.44222909025847911834716796875" lon="-1.29050974734127521514892578125">
        <ele>1063</ele>
        <time>2022-05-05T12:13:38.000Z</time>
      </trkpt>
      <trkpt lat="40.4422621987760066986083984375" lon="-1.29051469266414642333984375">
        <ele>1063</ele>
        <time>2022-05-05T12:13:44.000Z</time>
      </trkpt>
      <trkpt lat="40.4422898590564727783203125" lon="-1.2905074842274188995361328125">
        <ele>1063</ele>
        <time>2022-05-05T12:13:48.000Z</time>
      </trkpt>
      <trkpt lat="40.44231123290956020355224609375" lon="-1.29050203599035739898681640625">
        <ele>1063</ele>
        <time>2022-05-05T12:13:51.000Z</time>
      </trkpt>
      <trkpt lat="40.44233218766748905181884765625" lon="-1.29049122333526611328125">
        <ele>1062.800048828125</ele>
        <time>2022-05-05T12:13:55.000Z</time>
      </trkpt>
      <trkpt lat="40.4424613527953624725341796875" lon="-1.29042257554829120635986328125">
        <ele>1062.4000244140625</ele>
        <time>2022-05-05T12:15:16.000Z</time>
      </trkpt>
      <trkpt lat="40.44256922788918018341064453125" lon="-1.290407739579677581787109375">
        <ele>1062.4000244140625</ele>
        <time>2022-05-05T12:15:21.000Z</time>
      </trkpt>
      <trkpt lat="40.4426331818103790283203125" lon="-1.29041855223476886749267578125">
        <ele>1062.5999755859375</ele>
        <time>2022-05-05T12:15:23.000Z</time>
      </trkpt>
      <trkpt lat="40.442736782133579254150390625" lon="-1.29045576788485050201416015625">
        <ele>1063</ele>
        <time>2022-05-05T12:15:26.000Z</time>
      </trkpt>
      <trkpt lat="40.44292143546044826507568359375" lon="-1.29054277203977108001708984375">
        <ele>1064</ele>
        <time>2022-05-05T12:15:33.000Z</time>
      </trkpt>
      <trkpt lat="40.44306225143373012542724609375" lon="-1.2905778922140598297119140625">
        <ele>1064.5999755859375</ele>
        <time>2022-05-05T12:15:39.000Z</time>
      </trkpt>
      <trkpt lat="40.4432217590510845184326171875" lon="-1.2906653992831707000732421875">
        <ele>1066</ele>
        <time>2022-05-05T12:15:45.000Z</time>
      </trkpt>
      <trkpt lat="40.4432715475559234619140625" lon="-1.2907505594193935394287109375">
        <ele>1066.800048828125</ele>
        <time>2022-05-05T12:15:48.000Z</time>
      </trkpt>
      <trkpt lat="40.44328160583972930908203125" lon="-1.2907726876437664031982421875">
        <ele>1067</ele>
        <time>2022-05-05T12:15:49.000Z</time>
      </trkpt>
      <trkpt lat="40.443299375474452972412109375" lon="-1.2907921336591243743896484375">
        <ele>1067.199951171875</ele>
        <time>2022-05-05T12:15:50.000Z</time>
      </trkpt>
      <trkpt lat="40.4433769918978214263916015625" lon="-1.29082691855728626251220703125">
        <ele>1067.800048828125</ele>
        <time>2022-05-05T12:15:53.000Z</time>
      </trkpt>
      <trkpt lat="40.44340431690216064453125" lon="-1.2908305227756500244140625">
        <ele>1068</ele>
        <time>2022-05-05T12:15:54.000Z</time>
      </trkpt>
      <trkpt lat="40.4435617290437221527099609375" lon="-1.29082893021404743194580078125">
        <ele>1068.4000244140625</ele>
        <time>2022-05-05T12:16:01.000Z</time>
      </trkpt>
      <trkpt lat="40.44358176179230213165283203125" lon="-1.29082859493792057037353515625">
        <ele>1068.5999755859375</ele>
        <time>2022-05-05T12:16:02.000Z</time>
      </trkpt>
      <trkpt lat="40.44371319003403186798095703125" lon="-1.29082842729985713958740234375">
        <ele>1069</ele>
        <time>2022-05-05T12:16:09.000Z</time>
      </trkpt>
      <trkpt lat="40.44374688528478145599365234375" lon="-1.290829181671142578125">
        <ele>1069</ele>
        <time>2022-05-05T12:16:11.000Z</time>
      </trkpt>
      <trkpt lat="40.44385886751115322113037109375" lon="-1.290821470320224761962890625">
        <ele>1069.199951171875</ele>
        <time>2022-05-05T12:16:17.000Z</time>
      </trkpt>
      <trkpt lat="40.443898849189281463623046875" lon="-1.2908182851970195770263671875">
        <ele>1069.4000244140625</ele>
        <time>2022-05-05T12:16:19.000Z</time>
      </trkpt>
      <trkpt lat="40.4439369030296802520751953125" lon="-1.29081501625478267669677734375">
        <ele>1069.5999755859375</ele>
        <time>2022-05-05T12:16:21.000Z</time>
      </trkpt>
      <trkpt lat="40.44401980005204677581787109375" lon="-1.29080562852323055267333984375">
        <ele>1069.800048828125</ele>
        <time>2022-05-05T12:16:25.000Z</time>
      </trkpt>
      <trkpt lat="40.4441325366497039794921875" lon="-1.29077193327248096466064453125">
        <ele>1070</ele>
        <time>2022-05-05T12:16:31.000Z</time>
      </trkpt>
      <trkpt lat="40.4441665671765804290771484375" lon="-1.2907669879496097564697265625">
        <ele>1070</ele>
        <time>2022-05-05T12:16:33.000Z</time>
      </trkpt>
      <trkpt lat="40.44432741589844226837158203125" lon="-1.29077008925378322601318359375">
        <ele>1070.5999755859375</ele>
        <time>2022-05-05T12:16:42.000Z</time>
      </trkpt>
      <trkpt lat="40.44445264153182506561279296875" lon="-1.290733627974987030029296875">
        <ele>1070.800048828125</ele>
        <time>2022-05-05T12:16:50.000Z</time>
      </trkpt>
      <trkpt lat="40.4444850794970989227294921875" lon="-1.29072583280503749847412109375">
        <ele>1071</ele>
        <time>2022-05-05T12:16:52.000Z</time>
      </trkpt>
      <trkpt lat="40.44453595764935016632080078125" lon="-1.29071854054927825927734375">
        <ele>1071</ele>
        <time>2022-05-05T12:16:56.000Z</time>
      </trkpt>
      <trkpt lat="40.444544255733489990234375" lon="-1.29071393050253391265869140625">
        <ele>1071</ele>
        <time>2022-05-05T12:16:59.000Z</time>
      </trkpt>
      <trkpt lat="40.44459161348640918731689453125" lon="-1.290680654346942901611328125">
        <ele>1071</ele>
        <time>2022-05-05T12:18:14.000Z</time>
      </trkpt>
      <trkpt lat="40.44460971839725971221923828125" lon="-1.2906731106340885162353515625">
        <ele>1071</ele>
        <time>2022-05-05T12:18:15.000Z</time>
      </trkpt>
      <trkpt lat="40.444775260984897613525390625" lon="-1.29062055610120296478271484375">
        <ele>1070.5999755859375</ele>
        <time>2022-05-05T12:18:21.000Z</time>
      </trkpt>
      <trkpt lat="40.44491834007203578948974609375" lon="-1.290588788688182830810546875">
        <ele>1070.199951171875</ele>
        <time>2022-05-05T12:18:25.000Z</time>
      </trkpt>
      <trkpt lat="40.4451338388025760650634765625" lon="-1.29054981283843517303466796875">
        <ele>1069.4000244140625</ele>
        <time>2022-05-05T12:18:31.000Z</time>
      </trkpt>
      <trkpt lat="40.44544623233377933502197265625" lon="-1.29051142372190952301025390625">
        <ele>1068.5999755859375</ele>
        <time>2022-05-05T12:18:39.000Z</time>
      </trkpt>
      <trkpt lat="40.445471294224262237548828125" lon="-1.2905121780931949615478515625">
        <ele>1068.4000244140625</ele>
        <time>2022-05-05T12:18:40.000Z</time>
      </trkpt>
      <trkpt lat="40.44560498557984828948974609375" lon="-1.29054578952491283416748046875">
        <ele>1068.5999755859375</ele>
        <time>2022-05-05T12:18:45.000Z</time>
      </trkpt>
      <trkpt lat="40.44585191644728183746337890625" lon="-1.2906154431402683258056640625">
        <ele>1068.5999755859375</ele>
        <time>2022-05-05T12:18:51.000Z</time>
      </trkpt>
      <trkpt lat="40.44605794362723827362060546875" lon="-1.29071719944477081298828125">
        <ele>1068.800048828125</ele>
        <time>2022-05-05T12:18:58.000Z</time>
      </trkpt>
      <trkpt lat="40.4460840113461017608642578125" lon="-1.2907285988330841064453125">
        <ele>1068.800048828125</ele>
        <time>2022-05-05T12:18:59.000Z</time>
      </trkpt>
      <trkpt lat="40.44622533023357391357421875" lon="-1.2907515652477741241455078125">
        <ele>1068.800048828125</ele>
        <time>2022-05-05T12:19:05.000Z</time>
      </trkpt>
      <trkpt lat="40.446246452629566192626953125" lon="-1.29073723219335079193115234375">
        <ele>1068.5999755859375</ele>
        <time>2022-05-05T12:19:06.000Z</time>
      </trkpt>
      <trkpt lat="40.4463668167591094970703125" lon="-1.2906043790280818939208984375">
        <ele>1067.800048828125</ele>
        <time>2022-05-05T12:19:12.000Z</time>
      </trkpt>
      <trkpt lat="40.4465124942362308502197265625" lon="-1.29060379229485988616943359375">
        <ele>1067.4000244140625</ele>
        <time>2022-05-05T12:19:17.000Z</time>
      </trkpt>
      <trkpt lat="40.446671582758426666259765625" lon="-1.2906979210674762725830078125">
        <ele>1067.4000244140625</ele>
        <time>2022-05-05T12:19:23.000Z</time>
      </trkpt>
      <trkpt lat="40.446709133684635162353515625" lon="-1.2907156907021999359130859375">
        <ele>1067.4000244140625</ele>
        <time>2022-05-05T12:19:26.000Z</time>
      </trkpt>
      <trkpt lat="40.4467166773974895477294921875" lon="-1.29071225412189960479736328125">
        <ele>1067.4000244140625</ele>
        <time>2022-05-05T12:19:28.000Z</time>
      </trkpt>
      <trkpt lat="40.44671659357845783233642578125" lon="-1.29071124829351902008056640625">
        <ele>1067.4000244140625</ele>
        <time>2022-05-05T12:19:29.000Z</time>
      </trkpt>
      <trkpt lat="40.4467280767858028411865234375" lon="-1.29067537374794483184814453125">
        <ele>1067.199951171875</ele>
        <time>2022-05-05T12:19:40.000Z</time>
      </trkpt>
      <trkpt lat="40.44674207456409931182861328125" lon="-1.29062340594828128814697265625">
        <ele>1067</ele>
        <time>2022-05-05T12:19:42.000Z</time>
      </trkpt>
      <trkpt lat="40.446778200566768646240234375" lon="-1.29054930992424488067626953125">
        <ele>1066.5999755859375</ele>
        <time>2022-05-05T12:19:44.000Z</time>
      </trkpt>
      <trkpt lat="40.44684349559247493743896484375" lon="-1.29045945592224597930908203125">
        <ele>1066.199951171875</ele>
        <time>2022-05-05T12:19:46.000Z</time>
      </trkpt>
      <trkpt lat="40.44691105373203754425048828125" lon="-1.2903584539890289306640625">
        <ele>1065.5999755859375</ele>
        <time>2022-05-05T12:19:48.000Z</time>
      </trkpt>
      <trkpt lat="40.44699202291667461395263671875" lon="-1.29025183618068695068359375">
        <ele>1065</ele>
        <time>2022-05-05T12:19:51.000Z</time>
      </trkpt>
      <trkpt lat="40.447020269930362701416015625" lon="-1.2902458012104034423828125">
        <ele>1065</ele>
        <time>2022-05-05T12:19:52.000Z</time>
      </trkpt>
      <trkpt lat="40.4471035860478878021240234375" lon="-1.2902731262147426605224609375">
        <ele>1064.800048828125</ele>
        <time>2022-05-05T12:19:55.000Z</time>
      </trkpt>
      <trkpt lat="40.44713216833770275115966796875" lon="-1.2902878783643245697021484375">
        <ele>1064.800048828125</ele>
        <time>2022-05-05T12:19:56.000Z</time>
      </trkpt>
      <trkpt lat="40.447162427008152008056640625" lon="-1.29030321724712848663330078125">
        <ele>1064.800048828125</ele>
        <time>2022-05-05T12:19:57.000Z</time>
      </trkpt>
      <trkpt lat="40.44730165041983127593994140625" lon="-1.29038284532725811004638671875">
        <ele>1065.800048828125</ele>
        <time>2022-05-05T12:20:01.000Z</time>
      </trkpt>
      <trkpt lat="40.44734322465956211090087890625" lon="-1.29038728773593902587890625">
        <ele>1066</ele>
        <time>2022-05-05T12:20:02.000Z</time>
      </trkpt>
      <trkpt lat="40.44743743725121021270751953125" lon="-1.290329284965991973876953125">
        <ele>1066.199951171875</ele>
        <time>2022-05-05T12:20:05.000Z</time>
      </trkpt>
      <trkpt lat="40.4474710486829280853271484375" lon="-1.290243454277515411376953125">
        <ele>1066.199951171875</ele>
        <time>2022-05-05T12:20:08.000Z</time>
      </trkpt>
      <trkpt lat="40.44747565872967243194580078125" lon="-1.2902258522808551788330078125">
        <ele>1066</ele>
        <time>2022-05-05T12:20:09.000Z</time>
      </trkpt>
      <trkpt lat="40.44747733511030673980712890625" lon="-1.29021906293928623199462890625">
        <ele>1066</ele>
        <time>2022-05-05T12:20:11.000Z</time>
      </trkpt>
      <trkpt lat="40.44748806394636631011962890625" lon="-1.2901671789586544036865234375">
        <ele>1066</ele>
        <time>2022-05-05T12:20:34.000Z</time>
      </trkpt>
      <trkpt lat="40.44749242253601551055908203125" lon="-1.29014857113361358642578125">
        <ele>1065.800048828125</ele>
        <time>2022-05-05T12:20:35.000Z</time>
      </trkpt>
      <trkpt lat="40.44753290712833404541015625" lon="-1.28999258391559123992919921875">
        <ele>1065.4000244140625</ele>
        <time>2022-05-05T12:20:40.000Z</time>
      </trkpt>
      <trkpt lat="40.4476440511643886566162109375" lon="-1.28974632360041141510009765625">
        <ele>1065</ele>
        <time>2022-05-05T12:20:46.000Z</time>
      </trkpt>
      <trkpt lat="40.44775485992431640625" lon="-1.2895368598401546478271484375">
        <ele>1064.5999755859375</ele>
        <time>2022-05-05T12:20:52.000Z</time>
      </trkpt>
      <trkpt lat="40.447873882949352264404296875" lon="-1.28938137553632259368896484375">
        <ele>1064.4000244140625</ele>
        <time>2022-05-05T12:20:58.000Z</time>
      </trkpt>
      <trkpt lat="40.4480416886508464813232421875" lon="-1.28918029367923736572265625">
        <ele>1064</ele>
        <time>2022-05-05T12:21:06.000Z</time>
      </trkpt>
      <trkpt lat="40.44819868169724941253662109375" lon="-1.289024055004119873046875">
        <ele>1063</ele>
        <time>2022-05-05T12:21:13.000Z</time>
      </trkpt>
      <trkpt lat="40.44837788678705692291259765625" lon="-1.28889354877173900604248046875">
        <ele>1061.5999755859375</ele>
        <time>2022-05-05T12:21:20.000Z</time>
      </trkpt>
      <trkpt lat="40.44862733222544193267822265625" lon="-1.28879782743752002716064453125">
        <ele>1060.199951171875</ele>
        <time>2022-05-05T12:21:28.000Z</time>
      </trkpt>
      <trkpt lat="40.4486683197319507598876953125" lon="-1.28877217881381511688232421875">
        <ele>1059.800048828125</ele>
        <time>2022-05-05T12:21:30.000Z</time>
      </trkpt>
      <trkpt lat="40.44867762364447116851806640625" lon="-1.28875038586556911468505859375">
        <ele>1059.5999755859375</ele>
        <time>2022-05-05T12:21:31.000Z</time>
      </trkpt>
      <trkpt lat="40.44868784956634044647216796875" lon="-1.28872373141348361968994140625">
        <ele>1059.199951171875</ele>
        <time>2022-05-05T12:21:32.000Z</time>
      </trkpt>
      <trkpt lat="40.44873311184346675872802734375" lon="-1.28865399397909641265869140625">
        <ele>1058.4000244140625</ele>
        <time>2022-05-05T12:21:35.000Z</time>
      </trkpt>
      <trkpt lat="40.4487937130033969879150390625" lon="-1.28861032426357269287109375">
        <ele>1057.800048828125</ele>
        <time>2022-05-05T12:21:38.000Z</time>
      </trkpt>
      <trkpt lat="40.44883872382342815399169921875" lon="-1.2885900400578975677490234375">
        <ele>1057.4000244140625</ele>
        <time>2022-05-05T12:21:40.000Z</time>
      </trkpt>
      <trkpt lat="40.448875688016414642333984375" lon="-1.28854637034237384796142578125">
        <ele>1056.800048828125</ele>
        <time>2022-05-05T12:21:43.000Z</time>
      </trkpt>
      <trkpt lat="40.448880381882190704345703125" lon="-1.28849121741950511932373046875">
        <ele>1056.199951171875</ele>
        <time>2022-05-05T12:21:46.000Z</time>
      </trkpt>
      <trkpt lat="40.44889085926115512847900390625" lon="-1.28846271894872188568115234375">
        <ele>1055.800048828125</ele>
        <time>2022-05-05T12:21:49.000Z</time>
      </trkpt>
      <trkpt lat="40.4489502869546413421630859375" lon="-1.28844494931399822235107421875">
        <ele>1055.4000244140625</ele>
        <time>2022-05-05T12:21:54.000Z</time>
      </trkpt>
      <trkpt lat="40.44899445958435535430908203125" lon="-1.288485266268253326416015625">
        <ele>1055.800048828125</ele>
        <time>2022-05-05T12:21:58.000Z</time>
      </trkpt>
      <trkpt lat="40.44902597554028034210205078125" lon="-1.28852038644254207611083984375">
        <ele>1056.199951171875</ele>
        <time>2022-05-05T12:22:00.000Z</time>
      </trkpt>
      <trkpt lat="40.44907375238835811614990234375" lon="-1.28856983967125415802001953125">
        <ele>1056.5999755859375</ele>
        <time>2022-05-05T12:22:03.000Z</time>
      </trkpt>
      <trkpt lat="40.44913209043443202972412109375" lon="-1.28858140669763088226318359375">
        <ele>1056.5999755859375</ele>
        <time>2022-05-05T12:22:05.000Z</time>
      </trkpt>
      <trkpt lat="40.44919428415596485137939453125" lon="-1.28856346942484378814697265625">
        <ele>1056.4000244140625</ele>
        <time>2022-05-05T12:22:07.000Z</time>
      </trkpt>
      <trkpt lat="40.44921289198100566864013671875" lon="-1.28853681497275829315185546875">
        <ele>1056</ele>
        <time>2022-05-05T12:22:08.000Z</time>
      </trkpt>
      <trkpt lat="40.44922194443643093109130859375" lon="-1.288504041731357574462890625">
        <ele>1055.5999755859375</ele>
        <time>2022-05-05T12:22:09.000Z</time>
      </trkpt>
      <trkpt lat="40.44921641238033771514892578125" lon="-1.28844561986625194549560546875">
        <ele>1054.800048828125</ele>
        <time>2022-05-05T12:22:11.000Z</time>
      </trkpt>
      <trkpt lat="40.44921272434294223785400390625" lon="-1.2884230725467205047607421875">
        <ele>1054.5999755859375</ele>
        <time>2022-05-05T12:22:12.000Z</time>
      </trkpt>
      <trkpt lat="40.4491957090795040130615234375" lon="-1.28831570036709308624267578125">
        <ele>1053.4000244140625</ele>
        <time>2022-05-05T12:22:16.000Z</time>
      </trkpt>
      <trkpt lat="40.44919126667082309722900390625" lon="-1.2882641516625881195068359375">
        <ele>1052.800048828125</ele>
        <time>2022-05-05T12:22:18.000Z</time>
      </trkpt>
      <trkpt lat="40.4491879977285861968994140625" lon="-1.28822785802185535430908203125">
        <ele>1052.199951171875</ele>
        <time>2022-05-05T12:22:21.000Z</time>
      </trkpt>
      <trkpt lat="40.4493442364037036895751953125" lon="-1.28778898157179355621337890625">
        <ele>1049.199951171875</ele>
        <time>2022-05-05T12:23:12.000Z</time>
      </trkpt>
      <trkpt lat="40.44935354031622409820556640625" lon="-1.287761740386486053466796875">
        <ele>1049</ele>
        <time>2022-05-05T12:23:13.000Z</time>
      </trkpt>
      <trkpt lat="40.4494122974574565887451171875" lon="-1.2876646779477596282958984375">
        <ele>1048.4000244140625</ele>
        <time>2022-05-05T12:23:16.000Z</time>
      </trkpt>
      <trkpt lat="40.4494384489953517913818359375" lon="-1.28763274289667606353759765625">
        <ele>1048.199951171875</ele>
        <time>2022-05-05T12:23:17.000Z</time>
      </trkpt>
      <trkpt lat="40.44950273819267749786376953125" lon="-1.287596113979816436767578125">
        <ele>1047.800048828125</ele>
        <time>2022-05-05T12:23:19.000Z</time>
      </trkpt>
      <trkpt lat="40.44962427578866481781005859375" lon="-1.2875456549227237701416015625">
        <ele>1047.199951171875</ele>
        <time>2022-05-05T12:23:22.000Z</time>
      </trkpt>
      <trkpt lat="40.449664257466793060302734375" lon="-1.2875369377434253692626953125">
        <ele>1047.199951171875</ele>
        <time>2022-05-05T12:23:23.000Z</time>
      </trkpt>
      <trkpt lat="40.44969803653657436370849609375" lon="-1.2875309027731418609619140625">
        <ele>1047</ele>
        <time>2022-05-05T12:23:24.000Z</time>
      </trkpt>
      <trkpt lat="40.449815802276134490966796875" lon="-1.2875104509294033050537109375">
        <ele>1046.5999755859375</ele>
        <time>2022-05-05T12:23:28.000Z</time>
      </trkpt>
      <trkpt lat="40.44989920221269130706787109375" lon="-1.2875045835971832275390625">
        <ele>1046.4000244140625</ele>
        <time>2022-05-05T12:23:30.000Z</time>
      </trkpt>
      <trkpt lat="40.44999785721302032470703125" lon="-1.28747868351638317108154296875">
        <ele>1046</ele>
        <time>2022-05-05T12:23:32.000Z</time>
      </trkpt>
      <trkpt lat="40.450209416449069976806640625" lon="-1.2873619236052036285400390625">
        <ele>1045</ele>
        <time>2022-05-05T12:23:36.000Z</time>
      </trkpt>
      <trkpt lat="40.45026532374322414398193359375" lon="-1.28732311539351940155029296875">
        <ele>1044.5999755859375</ele>
        <time>2022-05-05T12:23:37.000Z</time>
      </trkpt>
      <trkpt lat="40.45038409531116485595703125" lon="-1.2872378714382648468017578125">
        <ele>1044.199951171875</ele>
        <time>2022-05-05T12:23:39.000Z</time>
      </trkpt>
      <trkpt lat="40.4505006037652492523193359375" lon="-1.28716503269970417022705078125">
        <ele>1044</ele>
        <time>2022-05-05T12:23:41.000Z</time>
      </trkpt>
      <trkpt lat="40.45056204311549663543701171875" lon="-1.2871376238763332366943359375">
        <ele>1044</ele>
        <time>2022-05-05T12:23:42.000Z</time>
      </trkpt>
      <trkpt lat="40.45076354406774044036865234375" lon="-1.28709848038852214813232421875">
        <ele>1044</ele>
        <time>2022-05-05T12:23:45.000Z</time>
      </trkpt>
      <trkpt lat="40.45108742080628871917724609375" lon="-1.2871188484132289886474609375">
        <ele>1043.199951171875</ele>
        <time>2022-05-05T12:23:50.000Z</time>
      </trkpt>
      <trkpt lat="40.451213233172893524169921875" lon="-1.28716452978551387786865234375">
        <ele>1042.800048828125</ele>
        <time>2022-05-05T12:23:52.000Z</time>
      </trkpt>
      <trkpt lat="40.45133099891245365142822265625" lon="-1.28720845095813274383544921875">
        <ele>1042.4000244140625</ele>
        <time>2022-05-05T12:23:54.000Z</time>
      </trkpt>
      <trkpt lat="40.45155680738389492034912109375" lon="-1.287319846451282501220703125">
        <ele>1042.199951171875</ele>
        <time>2022-05-05T12:23:58.000Z</time>
      </trkpt>
      <trkpt lat="40.45167063362896442413330078125" lon="-1.28738363273441791534423828125">
        <ele>1041.800048828125</ele>
        <time>2022-05-05T12:24:00.000Z</time>
      </trkpt>
      <trkpt lat="40.451938770711421966552734375" lon="-1.28752000629901885986328125">
        <ele>1041.4000244140625</ele>
        <time>2022-05-05T12:24:05.000Z</time>
      </trkpt>
      <trkpt lat="40.45198830775916576385498046875" lon="-1.2875443138182163238525390625">
        <ele>1041.199951171875</ele>
        <time>2022-05-05T12:24:06.000Z</time>
      </trkpt>
      <trkpt lat="40.452244542539119720458984375" lon="-1.2876492552459239959716796875">
        <ele>1040</ele>
        <time>2022-05-05T12:24:12.000Z</time>
      </trkpt>
      <trkpt lat="40.4524488933384418487548828125" lon="-1.28766828216612339019775390625">
        <ele>1039.800048828125</ele>
        <time>2022-05-05T12:24:19.000Z</time>
      </trkpt>
      <trkpt lat="40.45250513590872287750244140625" lon="-1.2876630015671253204345703125">
        <ele>1040</ele>
        <time>2022-05-05T12:24:21.000Z</time>
      </trkpt>
      <trkpt lat="40.452598594129085540771484375" lon="-1.28767079673707485198974609375">
        <ele>1039.800048828125</ele>
        <time>2022-05-05T12:24:25.000Z</time>
      </trkpt>
      <trkpt lat="40.45265282504260540008544921875" lon="-1.28772930242121219635009765625">
        <ele>1039.800048828125</ele>
        <time>2022-05-05T12:24:29.000Z</time>
      </trkpt>
      <trkpt lat="40.45273044146597385406494140625" lon="-1.28785352222621440887451171875">
        <ele>1039.800048828125</ele>
        <time>2022-05-05T12:24:33.000Z</time>
      </trkpt>
      <trkpt lat="40.45279196463525295257568359375" lon="-1.28795661963522434234619140625">
        <ele>1039.5999755859375</ele>
        <time>2022-05-05T12:24:35.000Z</time>
      </trkpt>
      <trkpt lat="40.45286706648766994476318359375" lon="-1.2880894728004932403564453125">
        <ele>1039.5999755859375</ele>
        <time>2022-05-05T12:24:37.000Z</time>
      </trkpt>
      <trkpt lat="40.452907383441925048828125" lon="-1.2881615571677684783935546875">
        <ele>1039.4000244140625</ele>
        <time>2022-05-05T12:24:38.000Z</time>
      </trkpt>
      <trkpt lat="40.45299530960619449615478515625" lon="-1.28831368871033191680908203125">
        <ele>1038</ele>
        <time>2022-05-05T12:24:40.000Z</time>
      </trkpt>
      <trkpt lat="40.45308239758014678955078125" lon="-1.28846975974738597869873046875">
        <ele>1036</ele>
        <time>2022-05-05T12:24:42.000Z</time>
      </trkpt>
      <trkpt lat="40.4531539790332317352294921875" lon="-1.28861166536808013916015625">
        <ele>1034</ele>
        <time>2022-05-05T12:24:44.000Z</time>
      </trkpt>
      <trkpt lat="40.45319412834942340850830078125" lon="-1.2886691652238368988037109375">
        <ele>1033.199951171875</ele>
        <time>2022-05-05T12:24:45.000Z</time>
      </trkpt>
      <trkpt lat="40.4532381333410739898681640625" lon="-1.28871853463351726531982421875">
        <ele>1032.4000244140625</ele>
        <time>2022-05-05T12:24:46.000Z</time>
      </trkpt>
      <trkpt lat="40.4532773606479167938232421875" lon="-1.28876882605254650115966796875">
        <ele>1031.800048828125</ele>
        <time>2022-05-05T12:24:47.000Z</time>
      </trkpt>
      <trkpt lat="40.45331549830734729766845703125" lon="-1.288817860186100006103515625">
        <ele>1031.199951171875</ele>
        <time>2022-05-05T12:24:48.000Z</time>
      </trkpt>
      <trkpt lat="40.4533970542252063751220703125" lon="-1.28891701810061931610107421875">
        <ele>1030</ele>
        <time>2022-05-05T12:24:50.000Z</time>
      </trkpt>
      <trkpt lat="40.45348313637077808380126953125" lon="-1.28902380354702472686767578125">
        <ele>1029</ele>
        <time>2022-05-05T12:24:52.000Z</time>
      </trkpt>
      <trkpt lat="40.45351557433605194091796875" lon="-1.28909186460077762603759765625">
        <ele>1028.5999755859375</ele>
        <time>2022-05-05T12:24:53.000Z</time>
      </trkpt>
      <trkpt lat="40.4535737447440624237060546875" lon="-1.28923603333532810211181640625">
        <ele>1027.800048828125</ele>
        <time>2022-05-05T12:24:55.000Z</time>
      </trkpt>
      <trkpt lat="40.453616492450237274169921875" lon="-1.28937601111829280853271484375">
        <ele>1026.4000244140625</ele>
        <time>2022-05-05T12:24:57.000Z</time>
      </trkpt>
      <trkpt lat="40.45363803394138813018798828125" lon="-1.2894465029239654541015625">
        <ele>1025.5999755859375</ele>
        <time>2022-05-05T12:24:58.000Z</time>
      </trkpt>
      <trkpt lat="40.45365245081484317779541015625" lon="-1.28951967693865299224853515625">
        <ele>1024.800048828125</ele>
        <time>2022-05-05T12:24:59.000Z</time>
      </trkpt>
      <trkpt lat="40.45366552658379077911376953125" lon="-1.28959394060075283050537109375">
        <ele>1024</ele>
        <time>2022-05-05T12:25:00.000Z</time>
      </trkpt>
      <trkpt lat="40.453701317310333251953125" lon="-1.28972553648054599761962890625">
        <ele>1022.5999755859375</ele>
        <time>2022-05-05T12:25:02.000Z</time>
      </trkpt>
      <trkpt lat="40.4537725634872913360595703125" lon="-1.289956457912921905517578125">
        <ele>1021.5999755859375</ele>
        <time>2022-05-05T12:25:06.000Z</time>
      </trkpt>
      <trkpt lat="40.45379091985523700714111328125" lon="-1.28999157808721065521240234375">
        <ele>1021.4000244140625</ele>
        <time>2022-05-05T12:25:07.000Z</time>
      </trkpt>
      <trkpt lat="40.45386082492768764495849609375" lon="-1.29003432579338550567626953125">
        <ele>1020.79998779296875</ele>
        <time>2022-05-05T12:25:10.000Z</time>
      </trkpt>
      <trkpt lat="40.45390357263386249542236328125" lon="-1.29000104963779449462890625">
        <ele>1020.5999755859375</ele>
        <time>2022-05-05T12:25:11.000Z</time>
      </trkpt>
      <trkpt lat="40.453978590667247772216796875" lon="-1.28992787562310695648193359375">
        <ele>1020.20001220703125</ele>
        <time>2022-05-05T12:25:13.000Z</time>
      </trkpt>
      <trkpt lat="40.45412519015371799468994140625" lon="-1.289761997759342193603515625">
        <ele>1019.5999755859375</ele>
        <time>2022-05-05T12:25:17.000Z</time>
      </trkpt>
      <trkpt lat="40.45437010936439037322998046875" lon="-1.289485394954681396484375">
        <ele>1018.79998779296875</ele>
        <time>2022-05-05T12:25:23.000Z</time>
      </trkpt>
      <trkpt lat="40.45451561920344829559326171875" lon="-1.28931172192096710205078125">
        <ele>1018.20001220703125</ele>
        <time>2022-05-05T12:25:28.000Z</time>
      </trkpt>
      <trkpt lat="40.4546764679253101348876953125" lon="-1.28914115019142627716064453125">
        <ele>1017.79998779296875</ele>
        <time>2022-05-05T12:25:35.000Z</time>
      </trkpt>
      <trkpt lat="40.454850308597087860107421875" lon="-1.28898524679243564605712890625">
        <ele>1017.79998779296875</ele>
        <time>2022-05-05T12:25:42.000Z</time>
      </trkpt>
      <trkpt lat="40.454873107373714447021484375" lon="-1.2889504618942737579345703125">
        <ele>1017.79998779296875</ele>
        <time>2022-05-05T12:25:43.000Z</time>
      </trkpt>
      <trkpt lat="40.45489766635000705718994140625" lon="-1.28891198895871639251708984375">
        <ele>1017.79998779296875</ele>
        <time>2022-05-05T12:25:44.000Z</time>
      </trkpt>
      <trkpt lat="40.4549768753349781036376953125" lon="-1.28878056071698665618896484375">
        <ele>1017.5999755859375</ele>
        <time>2022-05-05T12:25:47.000Z</time>
      </trkpt>
      <trkpt lat="40.45511928386986255645751953125" lon="-1.28851108253002166748046875">
        <ele>1017.4000244140625</ele>
        <time>2022-05-05T12:25:53.000Z</time>
      </trkpt>
      <trkpt lat="40.455162785947322845458984375" lon="-1.2884165346622467041015625">
        <ele>1017.5999755859375</ele>
        <time>2022-05-05T12:25:55.000Z</time>
      </trkpt>
      <trkpt lat="40.455344505608081817626953125" lon="-1.287946142256259918212890625">
        <ele>1018.5999755859375</ele>
        <time>2022-05-05T12:26:04.000Z</time>
      </trkpt>
      <trkpt lat="40.45551516115665435791015625" lon="-1.28750927746295928955078125">
        <ele>1019.20001220703125</ele>
        <time>2022-05-05T12:26:12.000Z</time>
      </trkpt>
      <trkpt lat="40.45563854277133941650390625" lon="-1.28705623559653759002685546875">
        <ele>1020.20001220703125</ele>
        <time>2022-05-05T12:26:20.000Z</time>
      </trkpt>
      <trkpt lat="40.45563762076199054718017578125" lon="-1.28682665526866912841796875">
        <ele>1021.4000244140625</ele>
        <time>2022-05-05T12:26:24.000Z</time>
      </trkpt>
      <trkpt lat="40.45564516447484493255615234375" lon="-1.2867064587771892547607421875">
        <ele>1022</ele>
        <time>2022-05-05T12:26:26.000Z</time>
      </trkpt>
      <trkpt lat="40.45568087138235569000244140625" lon="-1.28643798641860485076904296875">
        <ele>1022.79998779296875</ele>
        <time>2022-05-05T12:26:30.000Z</time>
      </trkpt>
      <trkpt lat="40.4557087831199169158935546875" lon="-1.28629826009273529052734375">
        <ele>1022.5999755859375</ele>
        <time>2022-05-05T12:26:32.000Z</time>
      </trkpt>
      <trkpt lat="40.45575262047350406646728515625" lon="-1.28600665368139743804931640625">
        <ele>1021.5999755859375</ele>
        <time>2022-05-05T12:26:36.000Z</time>
      </trkpt>
      <trkpt lat="40.45578950084745883941650390625" lon="-1.28578738309442996978759765625">
        <ele>1021</ele>
        <time>2022-05-05T12:26:39.000Z</time>
      </trkpt>
      <trkpt lat="40.4558076895773410797119140625" lon="-1.28551547415554523468017578125">
        <ele>1020.20001220703125</ele>
        <time>2022-05-05T12:26:43.000Z</time>
      </trkpt>
      <trkpt lat="40.4558026604354381561279296875" lon="-1.28545881249010562896728515625">
        <ele>1020.20001220703125</ele>
        <time>2022-05-05T12:26:44.000Z</time>
      </trkpt>
      <trkpt lat="40.45578346587717533111572265625" lon="-1.28529913723468780517578125">
        <ele>1019.79998779296875</ele>
        <time>2022-05-05T12:26:47.000Z</time>
      </trkpt>
      <trkpt lat="40.4557530395686626434326171875" lon="-1.28508062101900577545166015625">
        <ele>1019.79998779296875</ele>
        <time>2022-05-05T12:26:51.000Z</time>
      </trkpt>
      <trkpt lat="40.455727390944957733154296875" lon="-1.28491918556392192840576171875">
        <ele>1019.79998779296875</ele>
        <time>2022-05-05T12:26:54.000Z</time>
      </trkpt>
      <trkpt lat="40.45565857551991939544677734375" lon="-1.28470502793788909912109375">
        <ele>1019.79998779296875</ele>
        <time>2022-05-05T12:26:58.000Z</time>
      </trkpt>
      <trkpt lat="40.455491356551647186279296875" lon="-1.28426874987781047821044921875">
        <ele>1019.79998779296875</ele>
        <time>2022-05-05T12:27:06.000Z</time>
      </trkpt>
      <trkpt lat="40.45534743927419185638427734375" lon="-1.28383574075996875762939453125">
        <ele>1019.4000244140625</ele>
        <time>2022-05-05T12:27:14.000Z</time>
      </trkpt>
      <trkpt lat="40.45521676540374755859375" lon="-1.28342787735164165496826171875">
        <ele>1018.4000244140625</ele>
        <time>2022-05-05T12:27:21.000Z</time>
      </trkpt>
      <trkpt lat="40.45512112788856029510498046875" lon="-1.28309897147119045257568359375">
        <ele>1018.5999755859375</ele>
        <time>2022-05-05T12:27:27.000Z</time>
      </trkpt>
      <trkpt lat="40.455101765692234039306640625" lon="-1.28304541110992431640625">
        <ele>1018.79998779296875</ele>
        <time>2022-05-05T12:27:28.000Z</time>
      </trkpt>
      <trkpt lat="40.45504552312195301055908203125" lon="-1.28288255073130130767822265625">
        <ele>1019.20001220703125</ele>
        <time>2022-05-05T12:27:31.000Z</time>
      </trkpt>
      <trkpt lat="40.4549906216561794281005859375" lon="-1.28270669840276241302490234375">
        <ele>1019.79998779296875</ele>
        <time>2022-05-05T12:27:34.000Z</time>
      </trkpt>
      <trkpt lat="40.45490135438740253448486328125" lon="-1.282365135848522186279296875">
        <ele>1020</ele>
        <time>2022-05-05T12:27:40.000Z</time>
      </trkpt>
      <trkpt lat="40.4548667371273040771484375" lon="-1.28225826658308506011962890625">
        <ele>1020.20001220703125</ele>
        <time>2022-05-05T12:27:42.000Z</time>
      </trkpt>
      <trkpt lat="40.4547985084354877471923828125" lon="-1.28204922191798686981201171875">
        <ele>1020.4000244140625</ele>
        <time>2022-05-05T12:27:46.000Z</time>
      </trkpt>
      <trkpt lat="40.45474469661712646484375" lon="-1.28180799074470996856689453125">
        <ele>1019.79998779296875</ele>
        <time>2022-05-05T12:27:50.000Z</time>
      </trkpt>
      <trkpt lat="40.4547284357249736785888671875" lon="-1.2816251814365386962890625">
        <ele>1019.20001220703125</ele>
        <time>2022-05-05T12:27:53.000Z</time>
      </trkpt>
      <trkpt lat="40.45473019592463970184326171875" lon="-1.28156818449497222900390625">
        <ele>1019</ele>
        <time>2022-05-05T12:27:54.000Z</time>
      </trkpt>
      <trkpt lat="40.454730950295925140380859375" lon="-1.28151185810565948486328125">
        <ele>1018.79998779296875</ele>
        <time>2022-05-05T12:27:55.000Z</time>
      </trkpt>
      <trkpt lat="40.4547460377216339111328125" lon="-1.28128789365291595458984375">
        <ele>1018.4000244140625</ele>
        <time>2022-05-05T12:27:59.000Z</time>
      </trkpt>
      <trkpt lat="40.45477755367755889892578125" lon="-1.280923448503017425537109375">
        <ele>1017.79998779296875</ele>
        <time>2022-05-05T12:28:06.000Z</time>
      </trkpt>
      <trkpt lat="40.45478568412363529205322265625" lon="-1.2808102928102016448974609375">
        <ele>1017.5999755859375</ele>
        <time>2022-05-05T12:28:08.000Z</time>
      </trkpt>
      <trkpt lat="40.4547931440174579620361328125" lon="-1.28052421845495700836181640625">
        <ele>1017.20001220703125</ele>
        <time>2022-05-05T12:28:13.000Z</time>
      </trkpt>
      <trkpt lat="40.45482658781111240386962890625" lon="-1.28030779771506786346435546875">
        <ele>1017</ele>
        <time>2022-05-05T12:28:17.000Z</time>
      </trkpt>
      <trkpt lat="40.4548333771526813507080078125" lon="-1.2802567519247531890869140625">
        <ele>1017</ele>
        <time>2022-05-05T12:28:18.000Z</time>
      </trkpt>
      <trkpt lat="40.4547693394124507904052734375" lon="-1.2800921313464641571044921875">
        <ele>1017.4000244140625</ele>
        <time>2022-05-05T12:28:21.000Z</time>
      </trkpt>
      <trkpt lat="40.4547445289790630340576171875" lon="-1.2800344638526439666748046875">
        <ele>1017.4000244140625</ele>
        <time>2022-05-05T12:28:22.000Z</time>
      </trkpt>
      <trkpt lat="40.4545963369309902191162109375" lon="-1.27967714332044124603271484375">
        <ele>1018</ele>
        <time>2022-05-05T12:28:28.000Z</time>
      </trkpt>
      <trkpt lat="40.45438502915203571319580078125" lon="-1.27919116057455539703369140625">
        <ele>1018.20001220703125</ele>
        <time>2022-05-05T12:28:36.000Z</time>
      </trkpt>
      <trkpt lat="40.45428536832332611083984375" lon="-1.278974153101444244384765625">
        <ele>1017.79998779296875</ele>
        <time>2022-05-05T12:28:40.000Z</time>
      </trkpt>
      <trkpt lat="40.4542114399373531341552734375" lon="-1.2788348458707332611083984375">
        <ele>1018</ele>
        <time>2022-05-05T12:28:43.000Z</time>
      </trkpt>
      <trkpt lat="40.45402075164020061492919921875" lon="-1.27846109680831432342529296875">
        <ele>1018</ele>
        <time>2022-05-05T12:28:51.000Z</time>
      </trkpt>
      <trkpt lat="40.453821681439876556396484375" lon="-1.27808290533721446990966796875">
        <ele>1018</ele>
        <time>2022-05-05T12:28:59.000Z</time>
      </trkpt>
      <trkpt lat="40.45366418547928333282470703125" lon="-1.27780848182737827301025390625">
        <ele>1018.5999755859375</ele>
        <time>2022-05-05T12:29:06.000Z</time>
      </trkpt>
      <trkpt lat="40.453564859926700592041015625" lon="-1.27757412381470203399658203125">
        <ele>1019</ele>
        <time>2022-05-05T12:29:11.000Z</time>
      </trkpt>
      <trkpt lat="40.4534993134438991546630859375" lon="-1.2774424441158771514892578125">
        <ele>1019</ele>
        <time>2022-05-05T12:29:14.000Z</time>
      </trkpt>
      <trkpt lat="40.45347877778112888336181640625" lon="-1.27739357762038707733154296875">
        <ele>1019</ele>
        <time>2022-05-05T12:29:15.000Z</time>
      </trkpt>
      <trkpt lat="40.45336210168898105621337890625" lon="-1.277163662016391754150390625">
        <ele>1019.20001220703125</ele>
        <time>2022-05-05T12:29:20.000Z</time>
      </trkpt>
      <trkpt lat="40.45318624936044216156005859375" lon="-1.2767826206982135772705078125">
        <ele>1019.4000244140625</ele>
        <time>2022-05-05T12:29:28.000Z</time>
      </trkpt>
      <trkpt lat="40.45301307924091815948486328125" lon="-1.2764909304678440093994140625">
        <ele>1019</ele>
        <time>2022-05-05T12:29:35.000Z</time>
      </trkpt>
      <trkpt lat="40.4529866762459278106689453125" lon="-1.276439465582370758056640625">
        <ele>1019</ele>
        <time>2022-05-05T12:29:36.000Z</time>
      </trkpt>
      <trkpt lat="40.45286245644092559814453125" lon="-1.2761757709085941314697265625">
        <ele>1019.20001220703125</ele>
        <time>2022-05-05T12:29:41.000Z</time>
      </trkpt>
      <trkpt lat="40.45284242369234561920166015625" lon="-1.2761154212057590484619140625">
        <ele>1019.20001220703125</ele>
        <time>2022-05-05T12:29:42.000Z</time>
      </trkpt>
      <trkpt lat="40.45282490551471710205078125" lon="-1.27590931020677089691162109375">
        <ele>1018.79998779296875</ele>
        <time>2022-05-05T12:29:45.000Z</time>
      </trkpt>
      <trkpt lat="40.45285834930837154388427734375" lon="-1.2756725214421749114990234375">
        <ele>1017.79998779296875</ele>
        <time>2022-05-05T12:29:48.000Z</time>
      </trkpt>
      <trkpt lat="40.452883578836917877197265625" lon="-1.27558954060077667236328125">
        <ele>1017.4000244140625</ele>
        <time>2022-05-05T12:29:49.000Z</time>
      </trkpt>
      <trkpt lat="40.452911742031574249267578125" lon="-1.275505721569061279296875">
        <ele>1017.20001220703125</ele>
        <time>2022-05-05T12:29:50.000Z</time>
      </trkpt>
      <trkpt lat="40.4530081339180469512939453125" lon="-1.275268010795116424560546875">
        <ele>1016.5999755859375</ele>
        <time>2022-05-05T12:29:53.000Z</time>
      </trkpt>
      <trkpt lat="40.45302749611437320709228515625" lon="-1.27522333525121212005615234375">
        <ele>1016.4000244140625</ele>
        <time>2022-05-05T12:29:54.000Z</time>
      </trkpt>
      <trkpt lat="40.45304174534976482391357421875" lon="-1.27520657144486904144287109375">
        <ele>1016.4000244140625</ele>
        <time>2022-05-05T12:29:55.000Z</time>
      </trkpt>
      <trkpt lat="40.453079044818878173828125" lon="-1.27520170994102954864501953125">
        <ele>1016.4000244140625</ele>
        <time>2022-05-05T12:29:58.000Z</time>
      </trkpt>
      <trkpt lat="40.4530802182853221893310546875" lon="-1.27527513541281223297119140625">
        <ele>1016.4000244140625</ele>
        <time>2022-05-05T12:30:02.000Z</time>
      </trkpt>
      <trkpt lat="40.4529749415814876556396484375" lon="-1.275315620005130767822265625">
        <ele>1016.5999755859375</ele>
        <time>2022-05-05T12:30:06.000Z</time>
      </trkpt>
      <trkpt lat="40.45287108980119228363037109375" lon="-1.27520196139812469482421875">
        <ele>1017</ele>
        <time>2022-05-05T12:30:10.000Z</time>
      </trkpt>
      <trkpt lat="40.45283454470336437225341796875" lon="-1.27511068247258663177490234375">
        <ele>1017</ele>
        <time>2022-05-05T12:30:12.000Z</time>
      </trkpt>
      <trkpt lat="40.45276430435478687286376953125" lon="-1.2749087624251842498779296875">
        <ele>1017</ele>
        <time>2022-05-05T12:30:16.000Z</time>
      </trkpt>
      <trkpt lat="40.45262969098985195159912109375" lon="-1.274462006986141204833984375">
        <ele>1017.79998779296875</ele>
        <time>2022-05-05T12:30:24.000Z</time>
      </trkpt>
      <trkpt lat="40.45249742455780506134033203125" lon="-1.27399857155978679656982421875">
        <ele>1017.5999755859375</ele>
        <time>2022-05-05T12:30:32.000Z</time>
      </trkpt>
      <trkpt lat="40.45234722085297107696533203125" lon="-1.273503117263317108154296875">
        <ele>1016.5999755859375</ele>
        <time>2022-05-05T12:30:40.000Z</time>
      </trkpt>
      <trkpt lat="40.45217991806566715240478515625" lon="-1.273053176701068878173828125">
        <ele>1015</ele>
        <time>2022-05-05T12:30:48.000Z</time>
      </trkpt>
      <trkpt lat="40.45212090946733951568603515625" lon="-1.2728806771337985992431640625">
        <ele>1015</ele>
        <time>2022-05-05T12:30:51.000Z</time>
      </trkpt>
      <trkpt lat="40.4520879685878753662109375" lon="-1.27275645732879638671875">
        <ele>1015.20001220703125</ele>
        <time>2022-05-05T12:30:53.000Z</time>
      </trkpt>
      <trkpt lat="40.452074892818927764892578125" lon="-1.2726885639131069183349609375">
        <ele>1015.20001220703125</ele>
        <time>2022-05-05T12:30:54.000Z</time>
      </trkpt>
      <trkpt lat="40.45202183537185192108154296875" lon="-1.272284053266048431396484375">
        <ele>1015</ele>
        <time>2022-05-05T12:31:00.000Z</time>
      </trkpt>
      <trkpt lat="40.45201546512544155120849609375" lon="-1.27215455286204814910888671875">
        <ele>1014.4000244140625</ele>
        <time>2022-05-05T12:31:02.000Z</time>
      </trkpt>
      <trkpt lat="40.45201630331575870513916015625" lon="-1.2718926183879375457763671875">
        <ele>1013.5999755859375</ele>
        <time>2022-05-05T12:31:06.000Z</time>
      </trkpt>
      <trkpt lat="40.4520073346793651580810546875" lon="-1.27183268778026103973388671875">
        <ele>1013.4000244140625</ele>
        <time>2022-05-05T12:31:07.000Z</time>
      </trkpt>
      <trkpt lat="40.4519994556903839111328125" lon="-1.27170729450881481170654296875">
        <ele>1012.79998779296875</ele>
        <time>2022-05-05T12:31:09.000Z</time>
      </trkpt>
      <trkpt lat="40.45198738574981689453125" lon="-1.2715841643512248992919921875">
        <ele>1012.4000244140625</ele>
        <time>2022-05-05T12:31:11.000Z</time>
      </trkpt>
      <trkpt lat="40.45190893113613128662109375" lon="-1.27124830149114131927490234375">
        <ele>1011.4000244140625</ele>
        <time>2022-05-05T12:31:16.000Z</time>
      </trkpt>
      <trkpt lat="40.451895855367183685302734375" lon="-1.27117621712386608123779296875">
        <ele>1011.4000244140625</ele>
        <time>2022-05-05T12:31:17.000Z</time>
      </trkpt>
      <trkpt lat="40.45179652981460094451904296875" lon="-1.27068252302706241607666015625">
        <ele>1011.20001220703125</ele>
        <time>2022-05-05T12:31:24.000Z</time>
      </trkpt>
      <trkpt lat="40.451761074364185333251953125" lon="-1.2703332491219043731689453125">
        <ele>1011.79998779296875</ele>
        <time>2022-05-05T12:31:29.000Z</time>
      </trkpt>
      <trkpt lat="40.4517588950693607330322265625" lon="-1.2702702172100543975830078125">
        <ele>1011.79998779296875</ele>
        <time>2022-05-05T12:31:30.000Z</time>
      </trkpt>
      <trkpt lat="40.45170399360358715057373046875" lon="-1.26978783868253231048583984375">
        <ele>1011.5999755859375</ele>
        <time>2022-05-05T12:31:37.000Z</time>
      </trkpt>
      <trkpt lat="40.4516418837010860443115234375" lon="-1.26932767219841480255126953125">
        <ele>1011.20001220703125</ele>
        <time>2022-05-05T12:31:44.000Z</time>
      </trkpt>
      <trkpt lat="40.4516130499541759490966796875" lon="-1.26896188594400882720947265625">
        <ele>1010.4000244140625</ele>
        <time>2022-05-05T12:31:49.000Z</time>
      </trkpt>
      <trkpt lat="40.45160911045968532562255859375" lon="-1.2688841857016086578369140625">
        <ele>1010</ele>
        <time>2022-05-05T12:31:50.000Z</time>
      </trkpt>
      <trkpt lat="40.45159787870943546295166015625" lon="-1.26866541802883148193359375">
        <ele>1009.4000244140625</ele>
        <time>2022-05-05T12:31:53.000Z</time>
      </trkpt>
      <trkpt lat="40.45159167610108852386474609375" lon="-1.26845293678343296051025390625">
        <ele>1010</ele>
        <time>2022-05-05T12:31:56.000Z</time>
      </trkpt>
      <trkpt lat="40.451544485986232757568359375" lon="-1.26797583885490894317626953125">
        <ele>1011.4000244140625</ele>
        <time>2022-05-05T12:32:03.000Z</time>
      </trkpt>
      <trkpt lat="40.45145873911678791046142578125" lon="-1.267389692366123199462890625">
        <ele>1009.5999755859375</ele>
        <time>2022-05-05T12:32:12.000Z</time>
      </trkpt>
      <trkpt lat="40.45139788649976253509521484375" lon="-1.266849227249622344970703125">
        <ele>1010</ele>
        <time>2022-05-05T12:32:20.000Z</time>
      </trkpt>
      <trkpt lat="40.45138648711144924163818359375" lon="-1.266719810664653778076171875">
        <ele>1010.4000244140625</ele>
        <time>2022-05-05T12:32:22.000Z</time>
      </trkpt>
      <trkpt lat="40.451363436877727508544921875" lon="-1.26639199443161487579345703125">
        <ele>1010.5999755859375</ele>
        <time>2022-05-05T12:32:27.000Z</time>
      </trkpt>
      <trkpt lat="40.45127735473215579986572265625" lon="-1.26591942273080348968505859375">
        <ele>1009.5999755859375</ele>
        <time>2022-05-05T12:32:34.000Z</time>
      </trkpt>
      <trkpt lat="40.45120795257389545440673828125" lon="-1.26568120904266834259033203125">
        <ele>1009</ele>
        <time>2022-05-05T12:32:38.000Z</time>
      </trkpt>
      <trkpt lat="40.45116587541997432708740234375" lon="-1.26552111469209194183349609375">
        <ele>1008.5999755859375</ele>
        <time>2022-05-05T12:32:41.000Z</time>
      </trkpt>
      <trkpt lat="40.45111960731446743011474609375" lon="-1.2652876786887645721435546875">
        <ele>1007.79998779296875</ele>
        <time>2022-05-05T12:32:47.000Z</time>
      </trkpt>
      <trkpt lat="40.45105791650712490081787109375" lon="-1.26509564928710460662841796875">
        <ele>1007</ele>
        <time>2022-05-05T12:32:52.000Z</time>
      </trkpt>
      <trkpt lat="40.45099790208041667938232421875" lon="-1.2649607844650745391845703125">
        <ele>1007</ele>
        <time>2022-05-05T12:32:55.000Z</time>
      </trkpt>
      <trkpt lat="40.450920201838016510009765625" lon="-1.2648404203355312347412109375">
        <ele>1007</ele>
        <time>2022-05-05T12:32:58.000Z</time>
      </trkpt>
      <trkpt lat="40.450754575431346893310546875" lon="-1.26459390856325626373291015625">
        <ele>1007.4000244140625</ele>
        <time>2022-05-05T12:33:04.000Z</time>
      </trkpt>
      <trkpt lat="40.45068944804370403289794921875" lon="-1.26451377756893634796142578125">
        <ele>1007.5999755859375</ele>
        <time>2022-05-05T12:33:06.000Z</time>
      </trkpt>
      <trkpt lat="40.4505586065351963043212890625" lon="-1.26434731297194957733154296875">
        <ele>1007.79998779296875</ele>
        <time>2022-05-05T12:33:10.000Z</time>
      </trkpt>
      <trkpt lat="40.450344868004322052001953125" lon="-1.26399694941937923431396484375">
        <ele>1008</ele>
        <time>2022-05-05T12:33:17.000Z</time>
      </trkpt>
      <trkpt lat="40.45016189105808734893798828125" lon="-1.26358690671622753143310546875">
        <ele>1007.5999755859375</ele>
        <time>2022-05-05T12:33:25.000Z</time>
      </trkpt>
      <trkpt lat="40.4500372521579265594482421875" lon="-1.2632481940090656280517578125">
        <ele>1007.5999755859375</ele>
        <time>2022-05-05T12:33:31.000Z</time>
      </trkpt>
      <trkpt lat="40.44987581670284271240234375" lon="-1.26281426288187503814697265625">
        <ele>1008.20001220703125</ele>
        <time>2022-05-05T12:33:38.000Z</time>
      </trkpt>
      <trkpt lat="40.4497556202113628387451171875" lon="-1.2625025399029254913330078125">
        <ele>1007.5999755859375</ele>
        <time>2022-05-05T12:33:43.000Z</time>
      </trkpt>
      <trkpt lat="40.44969384558498859405517578125" lon="-1.26238041557371616363525390625">
        <ele>1007.20001220703125</ele>
        <time>2022-05-05T12:33:45.000Z</time>
      </trkpt>
      <trkpt lat="40.44952805154025554656982421875" lon="-1.2620002962648868560791015625">
        <ele>1006.79998779296875</ele>
        <time>2022-05-05T12:33:51.000Z</time>
      </trkpt>
      <trkpt lat="40.44934599660336971282958984375" lon="-1.2615594081580638885498046875">
        <ele>1006.4000244140625</ele>
        <time>2022-05-05T12:33:58.000Z</time>
      </trkpt>
      <trkpt lat="40.449239127337932586669921875" lon="-1.26125807873904705047607421875">
        <ele>1006.20001220703125</ele>
        <time>2022-05-05T12:34:03.000Z</time>
      </trkpt>
      <trkpt lat="40.44906604103744029998779296875" lon="-1.2607477046549320220947265625">
        <ele>1006.20001220703125</ele>
        <time>2022-05-05T12:34:11.000Z</time>
      </trkpt>
      <trkpt lat="40.4489358700811862945556640625" lon="-1.260373704135417938232421875">
        <ele>1006.5999755859375</ele>
        <time>2022-05-05T12:34:17.000Z</time>
      </trkpt>
      <trkpt lat="40.44889672659337520599365234375" lon="-1.2602538429200649261474609375">
        <ele>1006.4000244140625</ele>
        <time>2022-05-05T12:34:19.000Z</time>
      </trkpt>
      <trkpt lat="40.44881240464746952056884765625" lon="-1.26008570194244384765625">
        <ele>1006.4000244140625</ele>
        <time>2022-05-05T12:34:22.000Z</time>
      </trkpt>
      <trkpt lat="40.4486528970301151275634765625" lon="-1.2596764974296092987060546875">
        <ele>1006.4000244140625</ele>
        <time>2022-05-05T12:34:29.000Z</time>
      </trkpt>
      <trkpt lat="40.4486243985593318939208984375" lon="-1.25956174917519092559814453125">
        <ele>1006.5999755859375</ele>
        <time>2022-05-05T12:34:31.000Z</time>
      </trkpt>
      <trkpt lat="40.4486099816858768463134765625" lon="-1.25943987630307674407958984375">
        <ele>1006.5999755859375</ele>
        <time>2022-05-05T12:34:33.000Z</time>
      </trkpt>
      <trkpt lat="40.44860587455332279205322265625" lon="-1.2593735754489898681640625">
        <ele>1006.79998779296875</ele>
        <time>2022-05-05T12:34:34.000Z</time>
      </trkpt>
      <trkpt lat="40.44858994893729686737060546875" lon="-1.259177438914775848388671875">
        <ele>1007</ele>
        <time>2022-05-05T12:34:37.000Z</time>
      </trkpt>
      <trkpt lat="40.44855491258203983306884765625" lon="-1.25899865292012691497802734375">
        <ele>1007</ele>
        <time>2022-05-05T12:34:40.000Z</time>
      </trkpt>
      <trkpt lat="40.44853270053863525390625" lon="-1.258870996534824371337890625">
        <ele>1006.79998779296875</ele>
        <time>2022-05-05T12:34:42.000Z</time>
      </trkpt>
      <trkpt lat="40.44851501472294330596923828125" lon="-1.25874317251145839691162109375">
        <ele>1006.4000244140625</ele>
        <time>2022-05-05T12:34:44.000Z</time>
      </trkpt>
      <trkpt lat="40.44850596226751804351806640625" lon="-1.258682906627655029296875">
        <ele>1006.4000244140625</ele>
        <time>2022-05-05T12:34:45.000Z</time>
      </trkpt>
      <trkpt lat="40.4484986700117588043212890625" lon="-1.2585016898810863494873046875">
        <ele>1006</ele>
        <time>2022-05-05T12:34:48.000Z</time>
      </trkpt>
      <trkpt lat="40.44850160367786884307861328125" lon="-1.2583186291158199310302734375">
        <ele>1005.5999755859375</ele>
        <time>2022-05-05T12:34:51.000Z</time>
      </trkpt>
      <trkpt lat="40.44852071441709995269775390625" lon="-1.25819315202534198760986328125">
        <ele>1005.4000244140625</ele>
        <time>2022-05-05T12:34:53.000Z</time>
      </trkpt>
      <trkpt lat="40.448585338890552520751953125" lon="-1.2579491548240184783935546875">
        <ele>1005.20001220703125</ele>
        <time>2022-05-05T12:34:57.000Z</time>
      </trkpt>
      <trkpt lat="40.44862381182610988616943359375" lon="-1.2576943449676036834716796875">
        <ele>1005.20001220703125</ele>
        <time>2022-05-05T12:35:01.000Z</time>
      </trkpt>
      <trkpt lat="40.448620878159999847412109375" lon="-1.2576316483318805694580078125">
        <ele>1005.20001220703125</ele>
        <time>2022-05-05T12:35:02.000Z</time>
      </trkpt>
      <trkpt lat="40.44857754372060298919677734375" lon="-1.2572806142270565032958984375">
        <ele>1005</ele>
        <time>2022-05-05T12:35:08.000Z</time>
      </trkpt>
      <trkpt lat="40.44856765307486057281494140625" lon="-1.257218085229396820068359375">
        <ele>1005.20001220703125</ele>
        <time>2022-05-05T12:35:09.000Z</time>
      </trkpt>
      <trkpt lat="40.44849087484180927276611328125" lon="-1.25699638389050960540771484375">
        <ele>1005.79998779296875</ele>
        <time>2022-05-05T12:35:13.000Z</time>
      </trkpt>
      <trkpt lat="40.44847075827419757843017578125" lon="-1.25693737529218196868896484375">
        <ele>1005.79998779296875</ele>
        <time>2022-05-05T12:35:14.000Z</time>
      </trkpt>
      <trkpt lat="40.44844125397503376007080078125" lon="-1.25681902281939983367919921875">
        <ele>1006.20001220703125</ele>
        <time>2022-05-05T12:35:16.000Z</time>
      </trkpt>
      <trkpt lat="40.44840001501142978668212890625" lon="-1.25664216466248035430908203125">
        <ele>1006.79998779296875</ele>
        <time>2022-05-05T12:35:19.000Z</time>
      </trkpt>
      <trkpt lat="40.44833798892796039581298828125" lon="-1.25621259212493896484375">
        <ele>1006.5999755859375</ele>
        <time>2022-05-05T12:35:26.000Z</time>
      </trkpt>
      <trkpt lat="40.44828166253864765167236328125" lon="-1.2558553554117679595947265625">
        <ele>1005.79998779296875</ele>
        <time>2022-05-05T12:35:32.000Z</time>
      </trkpt>
      <trkpt lat="40.4483092390000820159912109375" lon="-1.25555134378373622894287109375">
        <ele>1005.20001220703125</ele>
        <time>2022-05-05T12:35:37.000Z</time>
      </trkpt>
      <trkpt lat="40.44831636361777782440185546875" lon="-1.2554902397096157073974609375">
        <ele>1005.20001220703125</ele>
        <time>2022-05-05T12:35:38.000Z</time>
      </trkpt>
      <trkpt lat="40.44832189567387104034423828125" lon="-1.25523350201547145843505859375">
        <ele>1005.20001220703125</ele>
        <time>2022-05-05T12:35:42.000Z</time>
      </trkpt>
      <trkpt lat="40.4483296908438205718994140625" lon="-1.25517080537974834442138671875">
        <ele>1005</ele>
        <time>2022-05-05T12:35:43.000Z</time>
      </trkpt>
      <trkpt lat="40.44836631976068019866943359375" lon="-1.254918090999126434326171875">
        <ele>1004.79998779296875</ele>
        <time>2022-05-05T12:35:47.000Z</time>
      </trkpt>
      <trkpt lat="40.44846556149423122406005859375" lon="-1.2544906139373779296875">
        <ele>1004.79998779296875</ele>
        <time>2022-05-05T12:35:54.000Z</time>
      </trkpt>
      <trkpt lat="40.4485244862735271453857421875" lon="-1.25423379242420196533203125">
        <ele>1005</ele>
        <time>2022-05-05T12:35:58.000Z</time>
      </trkpt>
      <trkpt lat="40.44861744157969951629638671875" lon="-1.2539439462125301361083984375">
        <ele>1005.20001220703125</ele>
        <time>2022-05-05T12:36:03.000Z</time>
      </trkpt>
      <trkpt lat="40.448630265891551971435546875" lon="-1.2538856081664562225341796875">
        <ele>1005</ele>
        <time>2022-05-05T12:36:04.000Z</time>
      </trkpt>
      <trkpt lat="40.44868969358503818511962890625" lon="-1.25360473059117794036865234375">
        <ele>1004.4000244140625</ele>
        <time>2022-05-05T12:36:09.000Z</time>
      </trkpt>
      <trkpt lat="40.44870880432426929473876953125" lon="-1.25355158932507038116455078125">
        <ele>1004.20001220703125</ele>
        <time>2022-05-05T12:36:10.000Z</time>
      </trkpt>
      <trkpt lat="40.44880301691591739654541015625" lon="-1.2533967755734920501708984375">
        <ele>1003.5999755859375</ele>
        <time>2022-05-05T12:36:13.000Z</time>
      </trkpt>
      <trkpt lat="40.44911666773259639739990234375" lon="-1.252982206642627716064453125">
        <ele>1003.5999755859375</ele>
        <time>2022-05-05T12:36:22.000Z</time>
      </trkpt>
      <trkpt lat="40.44923015870153903961181640625" lon="-1.25282554887235164642333984375">
        <ele>1003.5999755859375</ele>
        <time>2022-05-05T12:36:26.000Z</time>
      </trkpt>
      <trkpt lat="40.449282713234424591064453125" lon="-1.25275111757218837738037109375">
        <ele>1003.5999755859375</ele>
        <time>2022-05-05T12:36:28.000Z</time>
      </trkpt>
      <trkpt lat="40.44938991777598857879638671875" lon="-1.252506114542484283447265625">
        <ele>1003.5999755859375</ele>
        <time>2022-05-05T12:36:34.000Z</time>
      </trkpt>
      <trkpt lat="40.44941187836229801177978515625" lon="-1.25220830552279949188232421875">
        <ele>1003.79998779296875</ele>
        <time>2022-05-05T12:36:40.000Z</time>
      </trkpt>
      <trkpt lat="40.44940684922039508819580078125" lon="-1.25204779207706451416015625">
        <ele>1004</ele>
        <time>2022-05-05T12:36:44.000Z</time>
      </trkpt>
      <trkpt lat="40.4494030773639678955078125" lon="-1.252002529799938201904296875">
        <ele>1004</ele>
        <time>2022-05-05T12:36:48.000Z</time>
      </trkpt>
      <trkpt lat="40.44942663051187992095947265625" lon="-1.25188778154551982879638671875">
        <ele>1004.20001220703125</ele>
        <time>2022-05-05T12:36:53.000Z</time>
      </trkpt>
      <trkpt lat="40.449470467865467071533203125" lon="-1.2516231648623943328857421875">
        <ele>1004.5999755859375</ele>
        <time>2022-05-05T12:36:59.000Z</time>
      </trkpt>
      <trkpt lat="40.44952939264476299285888671875" lon="-1.25130750238895416259765625">
        <ele>1005</ele>
        <time>2022-05-05T12:37:05.000Z</time>
      </trkpt>
      <trkpt lat="40.44954213313758373260498046875" lon="-1.25125385820865631103515625">
        <ele>1005.20001220703125</ele>
        <time>2022-05-05T12:37:06.000Z</time>
      </trkpt>
      <trkpt lat="40.449614636600017547607421875" lon="-1.250909529626369476318359375">
        <ele>1006.20001220703125</ele>
        <time>2022-05-05T12:37:13.000Z</time>
      </trkpt>
      <trkpt lat="40.44967188499867916107177734375" lon="-1.2506076134741306304931640625">
        <ele>1007</ele>
        <time>2022-05-05T12:37:19.000Z</time>
      </trkpt>
      <trkpt lat="40.44974396936595439910888671875" lon="-1.2501070462167263031005859375">
        <ele>1006.5999755859375</ele>
        <time>2022-05-05T12:37:28.000Z</time>
      </trkpt>
      <trkpt lat="40.44980348087847232818603515625" lon="-1.24964914284646511077880859375">
        <ele>1006.20001220703125</ele>
        <time>2022-05-05T12:37:36.000Z</time>
      </trkpt>
      <trkpt lat="40.449817143380641937255859375" lon="-1.24947044067084789276123046875">
        <ele>1006.20001220703125</ele>
        <time>2022-05-05T12:37:39.000Z</time>
      </trkpt>
      <trkpt lat="40.4498468153178691864013671875" lon="-1.249117143452167510986328125">
        <ele>1006.20001220703125</ele>
        <time>2022-05-05T12:37:45.000Z</time>
      </trkpt>
      <trkpt lat="40.44988964684307575225830078125" lon="-1.248779855668544769287109375">
        <ele>1007</ele>
        <time>2022-05-05T12:37:51.000Z</time>
      </trkpt>
      <trkpt lat="40.44990624301135540008544921875" lon="-1.24866695143282413482666015625">
        <ele>1007.4000244140625</ele>
        <time>2022-05-05T12:37:53.000Z</time>
      </trkpt>
      <trkpt lat="40.4499359987676143646240234375" lon="-1.24843494035303592681884765625">
        <ele>1008.20001220703125</ele>
        <time>2022-05-05T12:37:57.000Z</time>
      </trkpt>
      <trkpt lat="40.4500127770006656646728515625" lon="-1.2479649670422077178955078125">
        <ele>1009.79998779296875</ele>
        <time>2022-05-05T12:38:05.000Z</time>
      </trkpt>
      <trkpt lat="40.45001939870417118072509765625" lon="-1.247903443872928619384765625">
        <ele>1010</ele>
        <time>2022-05-05T12:38:06.000Z</time>
      </trkpt>
      <trkpt lat="40.4500751383602619171142578125" lon="-1.2473038025200366973876953125">
        <ele>1010</ele>
        <time>2022-05-05T12:38:16.000Z</time>
      </trkpt>
      <trkpt lat="40.450114868581295013427734375" lon="-1.2470077537000179290771484375">
        <ele>1010.79998779296875</ele>
        <time>2022-05-05T12:38:21.000Z</time>
      </trkpt>
      <trkpt lat="40.45014269649982452392578125" lon="-1.24676861800253391265869140625">
        <ele>1011.5999755859375</ele>
        <time>2022-05-05T12:38:25.000Z</time>
      </trkpt>
      <trkpt lat="40.450195334851741790771484375" lon="-1.24622211791574954986572265625">
        <ele>1013.4000244140625</ele>
        <time>2022-05-05T12:38:34.000Z</time>
      </trkpt>
      <trkpt lat="40.45020095072686672210693359375" lon="-1.24591114930808544158935546875">
        <ele>1014.5999755859375</ele>
        <time>2022-05-05T12:38:40.000Z</time>
      </trkpt>
      <trkpt lat="40.4501348175108432769775390625" lon="-1.2455784715712070465087890625">
        <ele>1014.79998779296875</ele>
        <time>2022-05-05T12:38:47.000Z</time>
      </trkpt>
      <trkpt lat="40.450080670416355133056640625" lon="-1.24548970721662044525146484375">
        <ele>1014.5999755859375</ele>
        <time>2022-05-05T12:38:49.000Z</time>
      </trkpt>
      <trkpt lat="40.4499460570514202117919921875" lon="-1.2453303672373294830322265625">
        <ele>1013.79998779296875</ele>
        <time>2022-05-05T12:38:53.000Z</time>
      </trkpt>
      <trkpt lat="40.44966216199100017547607421875" lon="-1.2450215779244899749755859375">
        <ele>1013.4000244140625</ele>
        <time>2022-05-05T12:39:01.000Z</time>
      </trkpt>
      <trkpt lat="40.4496278800070285797119140625" lon="-1.24498310498893260955810546875">
        <ele>1013.4000244140625</ele>
        <time>2022-05-05T12:39:02.000Z</time>
      </trkpt>
      <trkpt lat="40.44939394108951091766357421875" lon="-1.24471304006874561309814453125">
        <ele>1013</ele>
        <time>2022-05-05T12:39:09.000Z</time>
      </trkpt>
      <trkpt lat="40.449152626097202301025390625" lon="-1.2444269657135009765625">
        <ele>1012</ele>
        <time>2022-05-05T12:39:17.000Z</time>
      </trkpt>
      <trkpt lat="40.44887174852192401885986328125" lon="-1.24411784112453460693359375">
        <ele>1009</ele>
        <time>2022-05-05T12:39:25.000Z</time>
      </trkpt>
      <trkpt lat="40.44854870997369289398193359375" lon="-1.2437538988888263702392578125">
        <ele>1008.79998779296875</ele>
        <time>2022-05-05T12:39:34.000Z</time>
      </trkpt>
      <trkpt lat="40.44821930117905139923095703125" lon="-1.24336523003876209259033203125">
        <ele>1009.79998779296875</ele>
        <time>2022-05-05T12:39:43.000Z</time>
      </trkpt>
      <trkpt lat="40.4478411935269832611083984375" lon="-1.2429264374077320098876953125">
        <ele>1010</ele>
        <time>2022-05-05T12:39:52.000Z</time>
      </trkpt>
      <trkpt lat="40.4475303925573825836181640625" lon="-1.2425700388848781585693359375">
        <ele>1009.79998779296875</ele>
        <time>2022-05-05T12:40:00.000Z</time>
      </trkpt>
      <trkpt lat="40.4471783526241779327392578125" lon="-1.242155134677886962890625">
        <ele>1009.4000244140625</ele>
        <time>2022-05-05T12:40:09.000Z</time>
      </trkpt>
      <trkpt lat="40.446890182793140411376953125" lon="-1.2418012507259845733642578125">
        <ele>1011.20001220703125</ele>
        <time>2022-05-05T12:40:16.000Z</time>
      </trkpt>
      <trkpt lat="40.44648910872638225555419921875" lon="-1.2413088977336883544921875">
        <ele>1012.20001220703125</ele>
        <time>2022-05-05T12:40:25.000Z</time>
      </trkpt>
      <trkpt lat="40.44644669629633426666259765625" lon="-1.2412564270198345184326171875">
        <ele>1012</ele>
        <time>2022-05-05T12:40:26.000Z</time>
      </trkpt>
      <trkpt lat="40.44609985314309597015380859375" lon="-1.24085359275341033935546875">
        <ele>1010.20001220703125</ele>
        <time>2022-05-05T12:40:34.000Z</time>
      </trkpt>
      <trkpt lat="40.4458154551684856414794921875" lon="-1.24054337851703166961669921875">
        <ele>1012.20001220703125</ele>
        <time>2022-05-05T12:40:41.000Z</time>
      </trkpt>
      <trkpt lat="40.445447154343128204345703125" lon="-1.2401121295988559722900390625">
        <ele>1011.79998779296875</ele>
        <time>2022-05-05T12:40:50.000Z</time>
      </trkpt>
      <trkpt lat="40.44511933811008930206298828125" lon="-1.23972580768167972564697265625">
        <ele>1009.5999755859375</ele>
        <time>2022-05-05T12:40:58.000Z</time>
      </trkpt>
      <trkpt lat="40.44479512609541416168212890625" lon="-1.239369995892047882080078125">
        <ele>1009.4000244140625</ele>
        <time>2022-05-05T12:41:06.000Z</time>
      </trkpt>
      <trkpt lat="40.4444113187491893768310546875" lon="-1.2389343045651912689208984375">
        <ele>1010.79998779296875</ele>
        <time>2022-05-05T12:41:15.000Z</time>
      </trkpt>
      <trkpt lat="40.44397185556590557098388671875" lon="-1.23842351138591766357421875">
        <ele>1011.4000244140625</ele>
        <time>2022-05-05T12:41:25.000Z</time>
      </trkpt>
      <trkpt lat="40.44377806596457958221435546875" lon="-1.2381913326680660247802734375">
        <ele>1011.79998779296875</ele>
        <time>2022-05-05T12:41:30.000Z</time>
      </trkpt>
      <trkpt lat="40.44361897744238376617431640625" lon="-1.238003075122833251953125">
        <ele>1011.5999755859375</ele>
        <time>2022-05-05T12:41:34.000Z</time>
      </trkpt>
      <trkpt lat="40.44321455061435699462890625" lon="-1.23753326945006847381591796875">
        <ele>1011</ele>
        <time>2022-05-05T12:41:43.000Z</time>
      </trkpt>
      <trkpt lat="40.44316920451819896697998046875" lon="-1.2374818883836269378662109375">
        <ele>1011</ele>
        <time>2022-05-05T12:41:44.000Z</time>
      </trkpt>
      <trkpt lat="40.44272236526012420654296875" lon="-1.2369596958160400390625">
        <ele>1010.20001220703125</ele>
        <time>2022-05-05T12:41:54.000Z</time>
      </trkpt>
      <trkpt lat="40.44240653514862060546875" lon="-1.23659332282841205596923828125">
        <ele>1010</ele>
        <time>2022-05-05T12:42:01.000Z</time>
      </trkpt>
      <trkpt lat="40.44227435253560543060302734375" lon="-1.236433647572994232177734375">
        <ele>1010</ele>
        <time>2022-05-05T12:42:04.000Z</time>
      </trkpt>
      <trkpt lat="40.442014597356319427490234375" lon="-1.23613156378269195556640625">
        <ele>1008.4000244140625</ele>
        <time>2022-05-05T12:42:10.000Z</time>
      </trkpt>
      <trkpt lat="40.441668927669525146484375" lon="-1.23573065735399723052978515625">
        <ele>1007.5999755859375</ele>
        <time>2022-05-05T12:42:18.000Z</time>
      </trkpt>
      <trkpt lat="40.441285707056522369384765625" lon="-1.235299073159694671630859375">
        <ele>1008</ele>
        <time>2022-05-05T12:42:27.000Z</time>
      </trkpt>
      <trkpt lat="40.44089066796004772186279296875" lon="-1.2348489649593830108642578125">
        <ele>1008.4000244140625</ele>
        <time>2022-05-05T12:42:36.000Z</time>
      </trkpt>
      <trkpt lat="40.4405700601637363433837890625" lon="-1.23447622172534465789794921875">
        <ele>1009.20001220703125</ele>
        <time>2022-05-05T12:42:43.000Z</time>
      </trkpt>
      <trkpt lat="40.4402156732976436614990234375" lon="-1.234065257012844085693359375">
        <ele>1009.4000244140625</ele>
        <time>2022-05-05T12:42:51.000Z</time>
      </trkpt>
      <trkpt lat="40.4401274956762790679931640625" lon="-1.2339661829173564910888671875">
        <ele>1009.5999755859375</ele>
        <time>2022-05-05T12:42:53.000Z</time>
      </trkpt>
      <trkpt lat="40.4398763738572597503662109375" lon="-1.23367055319249629974365234375">
        <ele>1009</ele>
        <time>2022-05-05T12:42:59.000Z</time>
      </trkpt>
      <trkpt lat="40.43960890732705593109130859375" lon="-1.23335950076580047607421875">
        <ele>1009.5999755859375</ele>
        <time>2022-05-05T12:43:05.000Z</time>
      </trkpt>
      <trkpt lat="40.43951712548732757568359375" lon="-1.23325816355645656585693359375">
        <ele>1009.5999755859375</ele>
        <time>2022-05-05T12:43:07.000Z</time>
      </trkpt>
      <trkpt lat="40.43939013965427875518798828125" lon="-1.233099997043609619140625">
        <ele>1008.5999755859375</ele>
        <time>2022-05-05T12:43:10.000Z</time>
      </trkpt>
      <trkpt lat="40.43910272419452667236328125" lon="-1.2327588535845279693603515625">
        <ele>1006.4000244140625</ele>
        <time>2022-05-05T12:43:17.000Z</time>
      </trkpt>
      <trkpt lat="40.4390616528689861297607421875" lon="-1.2327125854790210723876953125">
        <ele>1006.20001220703125</ele>
        <time>2022-05-05T12:43:18.000Z</time>
      </trkpt>
      <trkpt lat="40.4387649334967136383056640625" lon="-1.2323702685534954071044921875">
        <ele>1006.20001220703125</ele>
        <time>2022-05-05T12:43:25.000Z</time>
      </trkpt>
      <trkpt lat="40.43846192769706249237060546875" lon="-1.23201730661094188690185546875">
        <ele>1005.79998779296875</ele>
        <time>2022-05-05T12:43:32.000Z</time>
      </trkpt>
      <trkpt lat="40.43813268654048442840576171875" lon="-1.23162268660962581634521484375">
        <ele>1005.20001220703125</ele>
        <time>2022-05-05T12:43:40.000Z</time>
      </trkpt>
      <trkpt lat="40.4380910284817218780517578125" lon="-1.23157021589577198028564453125">
        <ele>1005.20001220703125</ele>
        <time>2022-05-05T12:43:41.000Z</time>
      </trkpt>
      <trkpt lat="40.438002012670040130615234375" lon="-1.23145974241197109222412109375">
        <ele>1005</ele>
        <time>2022-05-05T12:43:43.000Z</time>
      </trkpt>
      <trkpt lat="40.43781417421996593475341796875" lon="-1.2312427349388599395751953125">
        <ele>1005.20001220703125</ele>
        <time>2022-05-05T12:43:47.000Z</time>
      </trkpt>
      <trkpt lat="40.43751309625804424285888671875" lon="-1.23089061118662357330322265625">
        <ele>1005</ele>
        <time>2022-05-05T12:43:54.000Z</time>
      </trkpt>
      <trkpt lat="40.43716222979128360748291015625" lon="-1.2304835021495819091796875">
        <ele>1004.4000244140625</ele>
        <time>2022-05-05T12:44:02.000Z</time>
      </trkpt>
      <trkpt lat="40.436751432716846466064453125" lon="-1.23001051135361194610595703125">
        <ele>1005</ele>
        <time>2022-05-05T12:44:11.000Z</time>
      </trkpt>
      <trkpt lat="40.43631255626678466796875" lon="-1.22949779033660888671875">
        <ele>1003.5999755859375</ele>
        <time>2022-05-05T12:44:21.000Z</time>
      </trkpt>
      <trkpt lat="40.436268635094165802001953125" lon="-1.2294459901750087738037109375">
        <ele>1003.79998779296875</ele>
        <time>2022-05-05T12:44:22.000Z</time>
      </trkpt>
      <trkpt lat="40.436223708093166351318359375" lon="-1.22939444147050380706787109375">
        <ele>1004</ele>
        <time>2022-05-05T12:44:23.000Z</time>
      </trkpt>
      <trkpt lat="40.43586672283709049224853515625" lon="-1.22897886671125888824462890625">
        <ele>1005.4000244140625</ele>
        <time>2022-05-05T12:44:31.000Z</time>
      </trkpt>
      <trkpt lat="40.43551585637032985687255859375" lon="-1.22857485897839069366455078125">
        <ele>1006.4000244140625</ele>
        <time>2022-05-05T12:44:39.000Z</time>
      </trkpt>
      <trkpt lat="40.4351659119129180908203125" lon="-1.2281628884375095367431640625">
        <ele>1006.5999755859375</ele>
        <time>2022-05-05T12:44:47.000Z</time>
      </trkpt>
      <trkpt lat="40.4347261972725391387939453125" lon="-1.22764379717409610748291015625">
        <ele>1005.4000244140625</ele>
        <time>2022-05-05T12:44:57.000Z</time>
      </trkpt>
      <trkpt lat="40.43430919758975505828857421875" lon="-1.22716368176043033599853515625">
        <ele>1004.20001220703125</ele>
        <time>2022-05-05T12:45:06.000Z</time>
      </trkpt>
      <trkpt lat="40.43426242657005786895751953125" lon="-1.22710861265659332275390625">
        <ele>1004</ele>
        <time>2022-05-05T12:45:07.000Z</time>
      </trkpt>
      <trkpt lat="40.433888174593448638916015625" lon="-1.22667518444359302520751953125">
        <ele>1004.5999755859375</ele>
        <time>2022-05-05T12:45:15.000Z</time>
      </trkpt>
      <trkpt lat="40.43379354290664196014404296875" lon="-1.22656739316880702972412109375">
        <ele>1004.79998779296875</ele>
        <time>2022-05-05T12:45:17.000Z</time>
      </trkpt>
      <trkpt lat="40.433522723615169525146484375" lon="-1.22625256888568401336669921875">
        <ele>1004.4000244140625</ele>
        <time>2022-05-05T12:45:23.000Z</time>
      </trkpt>
      <trkpt lat="40.4332120902836322784423828125" lon="-1.22587471269071102142333984375">
        <ele>1004.4000244140625</ele>
        <time>2022-05-05T12:45:30.000Z</time>
      </trkpt>
      <trkpt lat="40.4328976012766361236572265625" lon="-1.2255111895501613616943359375">
        <ele>1005</ele>
        <time>2022-05-05T12:45:37.000Z</time>
      </trkpt>
      <trkpt lat="40.4325036518275737762451171875" lon="-1.22505915351212024688720703125">
        <ele>1004</ele>
        <time>2022-05-05T12:45:46.000Z</time>
      </trkpt>
      <trkpt lat="40.4322069324553012847900390625" lon="-1.22471717186272144317626953125">
        <ele>1001</ele>
        <time>2022-05-05T12:45:53.000Z</time>
      </trkpt>
      <trkpt lat="40.4320359416306018829345703125" lon="-1.22452070005238056182861328125">
        <ele>1001</ele>
        <time>2022-05-05T12:45:57.000Z</time>
      </trkpt>
      <trkpt lat="40.4315987415611743927001953125" lon="-1.22402164153754711151123046875">
        <ele>1000.79998779296875</ele>
        <time>2022-05-05T12:46:07.000Z</time>
      </trkpt>
      <trkpt lat="40.43155708350241184234619140625" lon="-1.22397084720432758331298828125">
        <ele>1000.79998779296875</ele>
        <time>2022-05-05T12:46:08.000Z</time>
      </trkpt>
      <trkpt lat="40.43121158145368099212646484375" lon="-1.2235615588724613189697265625">
        <ele>1000.5999755859375</ele>
        <time>2022-05-05T12:46:16.000Z</time>
      </trkpt>
      <trkpt lat="40.43083791621029376983642578125" lon="-1.2231233529746532440185546875">
        <ele>1000.5999755859375</ele>
        <time>2022-05-05T12:46:24.000Z</time>
      </trkpt>
      <trkpt lat="40.430513285100460052490234375" lon="-1.22274935245513916015625">
        <ele>1001.4000244140625</ele>
        <time>2022-05-05T12:46:31.000Z</time>
      </trkpt>
      <trkpt lat="40.4301526956260204315185546875" lon="-1.22232447378337383270263671875">
        <ele>1001.5999755859375</ele>
        <time>2022-05-05T12:46:39.000Z</time>
      </trkpt>
      <trkpt lat="40.42986360378563404083251953125" lon="-1.221989281475543975830078125">
        <ele>1001.5999755859375</ele>
        <time>2022-05-05T12:46:46.000Z</time>
      </trkpt>
      <trkpt lat="40.42976402677595615386962890625" lon="-1.2218617089092731475830078125">
        <ele>1001</ele>
        <time>2022-05-05T12:46:49.000Z</time>
      </trkpt>
      <trkpt lat="40.42974877171218395233154296875" lon="-1.221808902919292449951171875">
        <ele>1000.79998779296875</ele>
        <time>2022-05-05T12:46:50.000Z</time>
      </trkpt>
      <trkpt lat="40.4297694750130176544189453125" lon="-1.22163296677172183990478515625">
        <ele>1000.79998779296875</ele>
        <time>2022-05-05T12:46:53.000Z</time>
      </trkpt>
      <trkpt lat="40.42978498153388500213623046875" lon="-1.22157027013599872589111328125">
        <ele>1000.79998779296875</ele>
        <time>2022-05-05T12:46:54.000Z</time>
      </trkpt>
      <trkpt lat="40.42982186190783977508544921875" lon="-1.2213666737079620361328125">
        <ele>1000.79998779296875</ele>
        <time>2022-05-05T12:46:57.000Z</time>
      </trkpt>
      <trkpt lat="40.4298237897455692291259765625" lon="-1.22129953466355800628662109375">
        <ele>1000.79998779296875</ele>
        <time>2022-05-05T12:46:58.000Z</time>
      </trkpt>
      <trkpt lat="40.4298073612153530120849609375" lon="-1.2212407775223255157470703125">
        <ele>1000.79998779296875</ele>
        <time>2022-05-05T12:46:59.000Z</time>
      </trkpt>
      <trkpt lat="40.4297393001616001129150390625" lon="-1.22115016914904117584228515625">
        <ele>1001</ele>
        <time>2022-05-05T12:47:01.000Z</time>
      </trkpt>
      <trkpt lat="40.4296957142651081085205078125" lon="-1.2211184017360210418701171875">
        <ele>1001</ele>
        <time>2022-05-05T12:47:02.000Z</time>
      </trkpt>
      <trkpt lat="40.42959622107446193695068359375" lon="-1.22106567956507205963134765625">
        <ele>1001</ele>
        <time>2022-05-05T12:47:04.000Z</time>
      </trkpt>
      <trkpt lat="40.42950117029249668121337890625" lon="-1.22100750915706157684326171875">
        <ele>1001.20001220703125</ele>
        <time>2022-05-05T12:47:06.000Z</time>
      </trkpt>
      <trkpt lat="40.42946177534759044647216796875" lon="-1.22096694074571132659912109375">
        <ele>1001.4000244140625</ele>
        <time>2022-05-05T12:47:07.000Z</time>
      </trkpt>
      <trkpt lat="40.4293715022504329681396484375" lon="-1.22081480920314788818359375">
        <ele>1002</ele>
        <time>2022-05-05T12:47:10.000Z</time>
      </trkpt>
      <trkpt lat="40.42931509204208850860595703125" lon="-1.2207093648612499237060546875">
        <ele>1002.4000244140625</ele>
        <time>2022-05-05T12:47:12.000Z</time>
      </trkpt>
      <trkpt lat="40.42907168157398700714111328125" lon="-1.2202503718435764312744140625">
        <ele>1002.79998779296875</ele>
        <time>2022-05-05T12:47:20.000Z</time>
      </trkpt>
      <trkpt lat="40.4288427717983722686767578125" lon="-1.219839490950107574462890625">
        <ele>1002.20001220703125</ele>
        <time>2022-05-05T12:47:27.000Z</time>
      </trkpt>
      <trkpt lat="40.42851864360272884368896484375" lon="-1.21932392008602619171142578125">
        <ele>1000.79998779296875</ele>
        <time>2022-05-05T12:47:36.000Z</time>
      </trkpt>
      <trkpt lat="40.42809653095901012420654296875" lon="-1.2187969498336315155029296875">
        <ele>1001.20001220703125</ele>
        <time>2022-05-05T12:47:46.000Z</time>
      </trkpt>
      <trkpt lat="40.4280585609376430511474609375" lon="-1.21874238364398479461669921875">
        <ele>1001.20001220703125</ele>
        <time>2022-05-05T12:47:47.000Z</time>
      </trkpt>
      <trkpt lat="40.42785932309925556182861328125" lon="-1.21840878389775753021240234375">
        <ele>1000.79998779296875</ele>
        <time>2022-05-05T12:47:53.000Z</time>
      </trkpt>
      <trkpt lat="40.42782763950526714324951171875" lon="-1.21834960766136646270751953125">
        <ele>1000.79998779296875</ele>
        <time>2022-05-05T12:47:54.000Z</time>
      </trkpt>
      <trkpt lat="40.427729822695255279541015625" lon="-1.21808188967406749725341796875">
        <ele>1000.4000244140625</ele>
        <time>2022-05-05T12:47:58.000Z</time>
      </trkpt>
      <trkpt lat="40.42771515436470508575439453125" lon="-1.2180080451071262359619140625">
        <ele>1000.5999755859375</ele>
        <time>2022-05-05T12:47:59.000Z</time>
      </trkpt>
      <trkpt lat="40.42764994315803050994873046875" lon="-1.21741385199129581451416015625">
        <ele>1001.5999755859375</ele>
        <time>2022-05-05T12:48:07.000Z</time>
      </trkpt>
      <trkpt lat="40.4275308363139629364013671875" lon="-1.2171815894544124603271484375">
        <ele>1001.4000244140625</ele>
        <time>2022-05-05T12:48:11.000Z</time>
      </trkpt>
      <trkpt lat="40.4273742623627185821533203125" lon="-1.2170706130564212799072265625">
        <ele>1000.79998779296875</ele>
        <time>2022-05-05T12:48:14.000Z</time>
      </trkpt>
      <trkpt lat="40.42732304893434047698974609375" lon="-1.21703985147178173065185546875">
        <ele>1000.5999755859375</ele>
        <time>2022-05-05T12:48:15.000Z</time>
      </trkpt>
      <trkpt lat="40.4270564205944538116455078125" lon="-1.21688880957663059234619140625">
        <ele>1000.20001220703125</ele>
        <time>2022-05-05T12:48:21.000Z</time>
      </trkpt>
      <trkpt lat="40.42674100957810878753662109375" lon="-1.21676945127546787261962890625">
        <ele>1000.4000244140625</ele>
        <time>2022-05-05T12:48:28.000Z</time>
      </trkpt>
      <trkpt lat="40.4264334775507450103759765625" lon="-1.21673743240535259246826171875">
        <ele>1000.79998779296875</ele>
        <time>2022-05-05T12:48:34.000Z</time>
      </trkpt>
      <trkpt lat="40.42638511396944522857666015625" lon="-1.2167413718998432159423828125">
        <ele>1001</ele>
        <time>2022-05-05T12:48:35.000Z</time>
      </trkpt>
      <trkpt lat="40.42620456777513027191162109375" lon="-1.21675101108849048614501953125">
        <ele>1001.20001220703125</ele>
        <time>2022-05-05T12:48:39.000Z</time>
      </trkpt>
      <trkpt lat="40.42616198770701885223388671875" lon="-1.21674455702304840087890625">
        <ele>1001.4000244140625</ele>
        <time>2022-05-05T12:48:40.000Z</time>
      </trkpt>
      <trkpt lat="40.426122508943080902099609375" lon="-1.21673005633056163787841796875">
        <ele>1001.4000244140625</ele>
        <time>2022-05-05T12:48:41.000Z</time>
      </trkpt>
      <trkpt lat="40.42605436407029628753662109375" lon="-1.216673813760280609130859375">
        <ele>1001.5999755859375</ele>
        <time>2022-05-05T12:48:43.000Z</time>
      </trkpt>
      <trkpt lat="40.42600725777447223663330078125" lon="-1.2165896594524383544921875">
        <ele>1001.5999755859375</ele>
        <time>2022-05-05T12:48:45.000Z</time>
      </trkpt>
      <trkpt lat="40.4259949363768100738525390625" lon="-1.2165435589849948883056640625">
        <ele>1001.5999755859375</ele>
        <time>2022-05-05T12:48:46.000Z</time>
      </trkpt>
      <trkpt lat="40.4259919188916683197021484375" lon="-1.216406263411045074462890625">
        <ele>1001.4000244140625</ele>
        <time>2022-05-05T12:48:49.000Z</time>
      </trkpt>
      <trkpt lat="40.42599803768098354339599609375" lon="-1.21636225841939449310302734375">
        <ele>1001.20001220703125</ele>
        <time>2022-05-05T12:48:50.000Z</time>
      </trkpt>
      <trkpt lat="40.42602854780852794647216796875" lon="-1.2162448279559612274169921875">
        <ele>1001.20001220703125</ele>
        <time>2022-05-05T12:48:53.000Z</time>
      </trkpt>
      <trkpt lat="40.426062829792499542236328125" lon="-1.21613661758601665496826171875">
        <ele>1001</ele>
        <time>2022-05-05T12:48:56.000Z</time>
      </trkpt>
      <trkpt lat="40.426074564456939697265625" lon="-1.2161050178110599517822265625">
        <ele>1000.79998779296875</ele>
        <time>2022-05-05T12:48:57.000Z</time>
      </trkpt>
      <trkpt lat="40.4261347465217113494873046875" lon="-1.2159353680908679962158203125">
        <ele>1000.5999755859375</ele>
        <time>2022-05-05T12:49:02.000Z</time>
      </trkpt>
      <trkpt lat="40.4261860437691211700439453125" lon="-1.2156678177416324615478515625">
        <ele>1000.20001220703125</ele>
        <time>2022-05-05T12:49:09.000Z</time>
      </trkpt>
      <trkpt lat="40.426104068756103515625" lon="-1.21547193266451358795166015625">
        <ele>1000.4000244140625</ele>
        <time>2022-05-05T12:49:14.000Z</time>
      </trkpt>
      <trkpt lat="40.42606794275343418121337890625" lon="-1.21544544585049152374267578125">
        <ele>1000.5999755859375</ele>
        <time>2022-05-05T12:49:15.000Z</time>
      </trkpt>
      <trkpt lat="40.42593576014041900634765625" lon="-1.21541820466518402099609375">
        <ele>1000.79998779296875</ele>
        <time>2022-05-05T12:49:18.000Z</time>
      </trkpt>
      <trkpt lat="40.42577977292239665985107421875" lon="-1.21549087576568126678466796875">
        <ele>1000.79998779296875</ele>
        <time>2022-05-05T12:49:21.000Z</time>
      </trkpt>
      <trkpt lat="40.42572160251438617706298828125" lon="-1.215520799160003662109375">
        <ele>1000.79998779296875</ele>
        <time>2022-05-05T12:49:22.000Z</time>
      </trkpt>
      <trkpt lat="40.42566083371639251708984375" lon="-1.215545274317264556884765625">
        <ele>1000.79998779296875</ele>
        <time>2022-05-05T12:49:23.000Z</time>
      </trkpt>
      <trkpt lat="40.42559671215713024139404296875" lon="-1.21556128375232219696044921875">
        <ele>1001</ele>
        <time>2022-05-05T12:49:24.000Z</time>
      </trkpt>
      <trkpt lat="40.4254558123648166656494140625" lon="-1.21557251550257205963134765625">
        <ele>1001</ele>
        <time>2022-05-05T12:49:26.000Z</time>
      </trkpt>
      <trkpt lat="40.42537995614111423492431640625" lon="-1.2155655585229396820068359375">
        <ele>1001</ele>
        <time>2022-05-05T12:49:27.000Z</time>
      </trkpt>
      <trkpt lat="40.42522472329437732696533203125" lon="-1.2155186198651790618896484375">
        <ele>1001</ele>
        <time>2022-05-05T12:49:29.000Z</time>
      </trkpt>
      <trkpt lat="40.42514861561357975006103515625" lon="-1.21548634953796863555908203125">
        <ele>1001</ele>
        <time>2022-05-05T12:49:30.000Z</time>
      </trkpt>
      <trkpt lat="40.42500360868871212005615234375" lon="-1.2154210545122623443603515625">
        <ele>1001</ele>
        <time>2022-05-05T12:49:32.000Z</time>
      </trkpt>
      <trkpt lat="40.4247508943080902099609375" lon="-1.21530261822044849395751953125">
        <ele>1001</ele>
        <time>2022-05-05T12:49:36.000Z</time>
      </trkpt>
      <trkpt lat="40.42453388683497905731201171875" lon="-1.21519289910793304443359375">
        <ele>1001.20001220703125</ele>
        <time>2022-05-05T12:49:41.000Z</time>
      </trkpt>
      <trkpt lat="40.424402542412281036376953125" lon="-1.2151320464909076690673828125">
        <ele>1001.5999755859375</ele>
        <time>2022-05-05T12:49:44.000Z</time>
      </trkpt>
      <trkpt lat="40.42435384355485439300537109375" lon="-1.21512693352997303009033203125">
        <ele>1001.79998779296875</ele>
        <time>2022-05-05T12:49:45.000Z</time>
      </trkpt>
      <trkpt lat="40.42430439032614231109619140625" lon="-1.2151305377483367919921875">
        <ele>1001.79998779296875</ele>
        <time>2022-05-05T12:49:46.000Z</time>
      </trkpt>
      <trkpt lat="40.42412132956087589263916015625" lon="-1.21515266597270965576171875">
        <ele>1002.20001220703125</ele>
        <time>2022-05-05T12:49:50.000Z</time>
      </trkpt>
      <trkpt lat="40.42403549887239933013916015625" lon="-1.2151521630585193634033203125">
        <ele>1002.4000244140625</ele>
        <time>2022-05-05T12:49:52.000Z</time>
      </trkpt>
      <trkpt lat="40.42399526573717594146728515625" lon="-1.215144954621791839599609375">
        <ele>1002.5999755859375</ele>
        <time>2022-05-05T12:49:53.000Z</time>
      </trkpt>
      <trkpt lat="40.4238894023001194000244140625" lon="-1.215081922709941864013671875">
        <ele>1002.79998779296875</ele>
        <time>2022-05-05T12:49:56.000Z</time>
      </trkpt>
      <trkpt lat="40.42385780252516269683837890625" lon="-1.2150500714778900146484375">
        <ele>1003</ele>
        <time>2022-05-05T12:49:57.000Z</time>
      </trkpt>
      <trkpt lat="40.42367138899862766265869140625" lon="-1.21483121998608112335205078125">
        <ele>1003.4000244140625</ele>
        <time>2022-05-05T12:50:03.000Z</time>
      </trkpt>
      <trkpt lat="40.423383302986621856689453125" lon="-1.21448957361280918121337890625">
        <ele>1004</ele>
        <time>2022-05-05T12:50:11.000Z</time>
      </trkpt>
      <trkpt lat="40.4231289960443973541259765625" lon="-1.2141805328428745269775390625">
        <ele>1004.5999755859375</ele>
        <time>2022-05-05T12:50:19.000Z</time>
      </trkpt>
      <trkpt lat="40.42289807461202144622802734375" lon="-1.2139149941504001617431640625">
        <ele>1004.79998779296875</ele>
        <time>2022-05-05T12:50:26.000Z</time>
      </trkpt>
      <trkpt lat="40.4226103238761425018310546875" lon="-1.21357544325292110443115234375">
        <ele>1003.20001220703125</ele>
        <time>2022-05-05T12:50:34.000Z</time>
      </trkpt>
      <trkpt lat="40.4222307913005352020263671875" lon="-1.21313086710870265960693359375">
        <ele>1003</ele>
        <time>2022-05-05T12:50:44.000Z</time>
      </trkpt>
      <trkpt lat="40.421898029744625091552734375" lon="-1.212734989821910858154296875">
        <ele>1001.20001220703125</ele>
        <time>2022-05-05T12:50:53.000Z</time>
      </trkpt>
      <trkpt lat="40.42161581106483936309814453125" lon="-1.21239812113344669342041015625">
        <ele>1000.5999755859375</ele>
        <time>2022-05-05T12:51:01.000Z</time>
      </trkpt>
      <trkpt lat="40.42127500288188457489013671875" lon="-1.2120119668543338775634765625">
        <ele>1001</ele>
        <time>2022-05-05T12:51:10.000Z</time>
      </trkpt>
      <trkpt lat="40.4209792055189609527587890625" lon="-1.21166386641561985015869140625">
        <ele>1001.4000244140625</ele>
        <time>2022-05-05T12:51:18.000Z</time>
      </trkpt>
      <trkpt lat="40.420645773410797119140625" lon="-1.21126991696655750274658203125">
        <ele>1001.79998779296875</ele>
        <time>2022-05-05T12:51:27.000Z</time>
      </trkpt>
      <trkpt lat="40.42026448063552379608154296875" lon="-1.21081897057592868804931640625">
        <ele>1002</ele>
        <time>2022-05-05T12:51:37.000Z</time>
      </trkpt>
      <trkpt lat="40.41989970020949840545654296875" lon="-1.21039082296192646026611328125">
        <ele>1000.79998779296875</ele>
        <time>2022-05-05T12:51:47.000Z</time>
      </trkpt>
      <trkpt lat="40.41965880431234836578369140625" lon="-1.210109107196331024169921875">
        <ele>999.79998779296875</ele>
        <time>2022-05-05T12:51:54.000Z</time>
      </trkpt>
      <trkpt lat="40.4194878973066806793212890625" lon="-1.20990760624408721923828125">
        <ele>999.4000244140625</ele>
        <time>2022-05-05T12:51:59.000Z</time>
      </trkpt>
      <trkpt lat="40.4193435609340667724609375" lon="-1.20974759571254253387451171875">
        <ele>999.4000244140625</ele>
        <time>2022-05-05T12:52:03.000Z</time>
      </trkpt>
      <trkpt lat="40.41893846355378627777099609375" lon="-1.209276281297206878662109375">
        <ele>999.5999755859375</ele>
        <time>2022-05-05T12:52:14.000Z</time>
      </trkpt>
      <trkpt lat="40.41890057735145092010498046875" lon="-1.2092315219342708587646484375">
        <ele>999.5999755859375</ele>
        <time>2022-05-05T12:52:15.000Z</time>
      </trkpt>
      <trkpt lat="40.4186842404305934906005859375" lon="-1.2089820764958858489990234375">
        <ele>999.20001220703125</ele>
        <time>2022-05-05T12:52:21.000Z</time>
      </trkpt>
      <trkpt lat="40.41840537451207637786865234375" lon="-1.20865677483379840850830078125">
        <ele>999.4000244140625</ele>
        <time>2022-05-05T12:52:29.000Z</time>
      </trkpt>
      <trkpt lat="40.4181531630456447601318359375" lon="-1.20835418812930583953857421875">
        <ele>998.79998779296875</ele>
        <time>2022-05-05T12:52:36.000Z</time>
      </trkpt>
      <trkpt lat="40.41804696433246135711669921875" lon="-1.208223514258861541748046875">
        <ele>998.4000244140625</ele>
        <time>2022-05-05T12:52:39.000Z</time>
      </trkpt>
      <trkpt lat="40.417873375117778778076171875" lon="-1.20802695862948894500732421875">
        <ele>998.4000244140625</ele>
        <time>2022-05-05T12:52:44.000Z</time>
      </trkpt>
      <trkpt lat="40.4175543598830699920654296875" lon="-1.207650192081928253173828125">
        <ele>999.5999755859375</ele>
        <time>2022-05-05T12:52:53.000Z</time>
      </trkpt>
      <trkpt lat="40.4172522760927677154541015625" lon="-1.20729940943419933319091796875">
        <ele>999.79998779296875</ele>
        <time>2022-05-05T12:53:02.000Z</time>
      </trkpt>
      <trkpt lat="40.416902415454387664794921875" lon="-1.20690462179481983184814453125">
        <ele>1000.4000244140625</ele>
        <time>2022-05-05T12:53:12.000Z</time>
      </trkpt>
      <trkpt lat="40.4166048578917980194091796875" lon="-1.206511594355106353759765625">
        <ele>1001.5999755859375</ele>
        <time>2022-05-05T12:53:21.000Z</time>
      </trkpt>
      <trkpt lat="40.41645021177828311920166015625" lon="-1.20615729130804538726806640625">
        <ele>1001.20001220703125</ele>
        <time>2022-05-05T12:53:28.000Z</time>
      </trkpt>
      <trkpt lat="40.416284166276454925537109375" lon="-1.205747164785861968994140625">
        <ele>1000.20001220703125</ele>
        <time>2022-05-05T12:53:36.000Z</time>
      </trkpt>
      <trkpt lat="40.4162481240928173065185546875" lon="-1.2056467495858669281005859375">
        <ele>1000.20001220703125</ele>
        <time>2022-05-05T12:53:38.000Z</time>
      </trkpt>
      <trkpt lat="40.41622658260166645050048828125" lon="-1.20553233660757541656494140625">
        <ele>1000</ele>
        <time>2022-05-05T12:53:41.000Z</time>
      </trkpt>
      <trkpt lat="40.416168160736560821533203125" lon="-1.20522690005600452423095703125">
        <ele>999</ele>
        <time>2022-05-05T12:53:49.000Z</time>
      </trkpt>
      <trkpt lat="40.416131950914859771728515625" lon="-1.20489380322396755218505859375">
        <ele>998</ele>
        <time>2022-05-05T12:53:56.000Z</time>
      </trkpt>
      <trkpt lat="40.4160918854176998138427734375" lon="-1.204642765223979949951171875">
        <ele>998</ele>
        <time>2022-05-05T12:54:02.000Z</time>
      </trkpt>
      <trkpt lat="40.41604553349316120147705078125" lon="-1.20440304279327392578125">
        <ele>998.4000244140625</ele>
        <time>2022-05-05T12:54:08.000Z</time>
      </trkpt>
      <trkpt lat="40.41600328870117664337158203125" lon="-1.20422802865505218505859375">
        <ele>998.4000244140625</ele>
        <time>2022-05-05T12:54:11.000Z</time>
      </trkpt>
      <trkpt lat="40.41597210802137851715087890625" lon="-1.2040914036333560943603515625">
        <ele>997.5999755859375</ele>
        <time>2022-05-05T12:54:13.000Z</time>
      </trkpt>
      <trkpt lat="40.41588845662772655487060546875" lon="-1.20371966622769832611083984375">
        <ele>996.4000244140625</ele>
        <time>2022-05-05T12:54:18.000Z</time>
      </trkpt>
      <trkpt lat="40.41583565063774585723876953125" lon="-1.20347742922604084014892578125">
        <ele>996.20001220703125</ele>
        <time>2022-05-05T12:54:21.000Z</time>
      </trkpt>
      <trkpt lat="40.41579659096896648406982421875" lon="-1.20331448502838611602783203125">
        <ele>996.20001220703125</ele>
        <time>2022-05-05T12:54:23.000Z</time>
      </trkpt>
      <trkpt lat="40.41567069478332996368408203125" lon="-1.2027844972908496856689453125">
        <ele>996.4000244140625</ele>
        <time>2022-05-05T12:54:30.000Z</time>
      </trkpt>
      <trkpt lat="40.415568016469478607177734375" lon="-1.202431619167327880859375">
        <ele>996</ele>
        <time>2022-05-05T12:54:35.000Z</time>
      </trkpt>
      <trkpt lat="40.41552870534360408782958984375" lon="-1.2023030407726764678955078125">
        <ele>996</ele>
        <time>2022-05-05T12:54:37.000Z</time>
      </trkpt>
      <trkpt lat="40.41551009751856327056884765625" lon="-1.2022453732788562774658203125">
        <ele>996</ele>
        <time>2022-05-05T12:54:38.000Z</time>
      </trkpt>
      <trkpt lat="40.4154300503432750701904296875" lon="-1.202043704688549041748046875">
        <ele>995.4000244140625</ele>
        <time>2022-05-05T12:54:42.000Z</time>
      </trkpt>
      <trkpt lat="40.41539694182574748992919921875" lon="-1.20200808160006999969482421875">
        <ele>995.4000244140625</ele>
        <time>2022-05-05T12:54:43.000Z</time>
      </trkpt>
      <trkpt lat="40.4152714647352695465087890625" lon="-1.2019117735326290130615234375">
        <ele>995.4000244140625</ele>
        <time>2022-05-05T12:54:46.000Z</time>
      </trkpt>
      <trkpt lat="40.415046997368335723876953125" lon="-1.2017283774912357330322265625">
        <ele>995</ele>
        <time>2022-05-05T12:54:51.000Z</time>
      </trkpt>
      <trkpt lat="40.41495806537568569183349609375" lon="-1.20163894258439540863037109375">
        <ele>994.5999755859375</ele>
        <time>2022-05-05T12:54:53.000Z</time>
      </trkpt>
      <trkpt lat="40.4146636091172695159912109375" lon="-1.20133115909993648529052734375">
        <ele>994.20001220703125</ele>
        <time>2022-05-05T12:55:00.000Z</time>
      </trkpt>
      <trkpt lat="40.414303354918956756591796875" lon="-1.2009461782872676849365234375">
        <ele>995.4000244140625</ele>
        <time>2022-05-05T12:55:09.000Z</time>
      </trkpt>
      <trkpt lat="40.41393597610294818878173828125" lon="-1.200538314878940582275390625">
        <ele>994</ele>
        <time>2022-05-05T12:55:19.000Z</time>
      </trkpt>
      <trkpt lat="40.4136493988335132598876953125" lon="-1.20017797686159610748291015625">
        <ele>994.20001220703125</ele>
        <time>2022-05-05T12:55:27.000Z</time>
      </trkpt>
      <trkpt lat="40.413516126573085784912109375" lon="-1.2000033818185329437255859375">
        <ele>994.5999755859375</ele>
        <time>2022-05-05T12:55:31.000Z</time>
      </trkpt>
      <trkpt lat="40.4133429564535617828369140625" lon="-1.19980766437947750091552734375">
        <ele>994.20001220703125</ele>
        <time>2022-05-05T12:55:36.000Z</time>
      </trkpt>
      <trkpt lat="40.41321949101984500885009765625" lon="-1.19966299273073673248291015625">
        <ele>994.5999755859375</ele>
        <time>2022-05-05T12:55:40.000Z</time>
      </trkpt>
      <trkpt lat="40.413145981729030609130859375" lon="-1.199558638036251068115234375">
        <ele>994.79998779296875</ele>
        <time>2022-05-05T12:55:43.000Z</time>
      </trkpt>
      <trkpt lat="40.41294054128229618072509765625" lon="-1.199281699955463409423828125">
        <ele>994.5999755859375</ele>
        <time>2022-05-05T12:55:50.000Z</time>
      </trkpt>
      <trkpt lat="40.41266955435276031494140625" lon="-1.1990522034466266632080078125">
        <ele>995</ele>
        <time>2022-05-05T12:55:57.000Z</time>
      </trkpt>
      <trkpt lat="40.41242002509534358978271484375" lon="-1.19889202527701854705810546875">
        <ele>995.20001220703125</ele>
        <time>2022-05-05T12:56:03.000Z</time>
      </trkpt>
      <trkpt lat="40.4122033528983592987060546875" lon="-1.19873729534447193145751953125">
        <ele>994.79998779296875</ele>
        <time>2022-05-05T12:56:08.000Z</time>
      </trkpt>
      <trkpt lat="40.4121124930679798126220703125" lon="-1.1986939609050750732421875">
        <ele>994.5999755859375</ele>
        <time>2022-05-05T12:56:10.000Z</time>
      </trkpt>
      <trkpt lat="40.41178031824529170989990234375" lon="-1.198485754430294036865234375">
        <ele>993.5999755859375</ele>
        <time>2022-05-05T12:56:17.000Z</time>
      </trkpt>
      <trkpt lat="40.4116327129304409027099609375" lon="-1.19836874306201934814453125">
        <ele>993.4000244140625</ele>
        <time>2022-05-05T12:56:20.000Z</time>
      </trkpt>
      <trkpt lat="40.41142576374113559722900390625" lon="-1.198188029229640960693359375">
        <ele>993</ele>
        <time>2022-05-05T12:56:24.000Z</time>
      </trkpt>
      <trkpt lat="40.41119190864264965057373046875" lon="-1.19788787327706813812255859375">
        <ele>992.4000244140625</ele>
        <time>2022-05-05T12:56:30.000Z</time>
      </trkpt>
      <trkpt lat="40.41098135523498058319091796875" lon="-1.19766340591013431549072265625">
        <ele>991.79998779296875</ele>
        <time>2022-05-05T12:56:36.000Z</time>
      </trkpt>
      <trkpt lat="40.41064716875553131103515625" lon="-1.19738881476223468780517578125">
        <ele>993.20001220703125</ele>
        <time>2022-05-05T12:56:44.000Z</time>
      </trkpt>
      <trkpt lat="40.41031398810446262359619140625" lon="-1.1971099488437175750732421875">
        <ele>993.5999755859375</ele>
        <time>2022-05-05T12:56:51.000Z</time>
      </trkpt>
      <trkpt lat="40.41003721766173839569091796875" lon="-1.19685170240700244903564453125">
        <ele>993</ele>
        <time>2022-05-05T12:56:57.000Z</time>
      </trkpt>
      <trkpt lat="40.40974996984004974365234375" lon="-1.19653101079165935516357421875">
        <ele>993.79998779296875</ele>
        <time>2022-05-05T12:57:05.000Z</time>
      </trkpt>
      <trkpt lat="40.40943472646176815032958984375" lon="-1.196238733828067779541015625">
        <ele>993.79998779296875</ele>
        <time>2022-05-05T12:57:14.000Z</time>
      </trkpt>
      <trkpt lat="40.4091503284871578216552734375" lon="-1.196042597293853759765625">
        <ele>993.79998779296875</ele>
        <time>2022-05-05T12:57:21.000Z</time>
      </trkpt>
      <trkpt lat="40.4088485799729824066162109375" lon="-1.1958231590688228607177734375">
        <ele>994.4000244140625</ele>
        <time>2022-05-05T12:57:28.000Z</time>
      </trkpt>
      <trkpt lat="40.408812873065471649169921875" lon="-1.1957889609038829803466796875">
        <ele>994.4000244140625</ele>
        <time>2022-05-05T12:57:29.000Z</time>
      </trkpt>
      <trkpt lat="40.40878965519368648529052734375" lon="-1.19575434364378452301025390625">
        <ele>994.20001220703125</ele>
        <time>2022-05-05T12:57:30.000Z</time>
      </trkpt>
      <trkpt lat="40.40877724997699260711669921875" lon="-1.19572416879236698150634765625">
        <ele>994.20001220703125</ele>
        <time>2022-05-05T12:57:31.000Z</time>
      </trkpt>
      <trkpt lat="40.408790409564971923828125" lon="-1.1955945007503032684326171875">
        <ele>993.79998779296875</ele>
        <time>2022-05-05T12:57:35.000Z</time>
      </trkpt>
      <trkpt lat="40.4088834486901760101318359375" lon="-1.19546885602176189422607421875">
        <ele>993.20001220703125</ele>
        <time>2022-05-05T12:57:39.000Z</time>
      </trkpt>
      <trkpt lat="40.4089297167956829071044921875" lon="-1.1954080872237682342529296875">
        <ele>992.79998779296875</ele>
        <time>2022-05-05T12:57:41.000Z</time>
      </trkpt>
      <trkpt lat="40.4090946726500988006591796875" lon="-1.19517196901142597198486328125">
        <ele>991.20001220703125</ele>
        <time>2022-05-05T12:57:48.000Z</time>
      </trkpt>
      <trkpt lat="40.40922048501670360565185546875" lon="-1.1949785985052585601806640625">
        <ele>990</ele>
        <time>2022-05-05T12:57:54.000Z</time>
      </trkpt>
      <trkpt lat="40.40934436954557895660400390625" lon="-1.19478774257004261016845703125">
        <ele>988.79998779296875</ele>
        <time>2022-05-05T12:58:01.000Z</time>
      </trkpt>
      <trkpt lat="40.40948417969048023223876953125" lon="-1.19456394575536251068115234375">
        <ele>988.5999755859375</ele>
        <time>2022-05-05T12:58:08.000Z</time>
      </trkpt>
      <trkpt lat="40.409627594053745269775390625" lon="-1.1943063698709011077880859375">
        <ele>988.5999755859375</ele>
        <time>2022-05-05T12:58:13.000Z</time>
      </trkpt>
      <trkpt lat="40.409664474427700042724609375" lon="-1.1942430026829242706298828125">
        <ele>988.79998779296875</ele>
        <time>2022-05-05T12:58:14.000Z</time>
      </trkpt>
      <trkpt lat="40.40978349745273590087890625" lon="-1.19402901269495487213134765625">
        <ele>989.5999755859375</ele>
        <time>2022-05-05T12:58:17.000Z</time>
      </trkpt>
      <trkpt lat="40.40987460874021053314208984375" lon="-1.19386657141149044036865234375">
        <ele>990.5999755859375</ele>
        <time>2022-05-05T12:58:19.000Z</time>
      </trkpt>
      <trkpt lat="40.4099224694073200225830078125" lon="-1.19378241710364818572998046875">
        <ele>991</ele>
        <time>2022-05-05T12:58:20.000Z</time>
      </trkpt>
      <trkpt lat="40.4100891016423702239990234375" lon="-1.19348620064556598663330078125">
        <ele>992.79998779296875</ele>
        <time>2022-05-05T12:58:24.000Z</time>
      </trkpt>
      <trkpt lat="40.41012589819729328155517578125" lon="-1.193423755466938018798828125">
        <ele>993.20001220703125</ele>
        <time>2022-05-05T12:58:25.000Z</time>
      </trkpt>
      <trkpt lat="40.41018038056790828704833984375" lon="-1.19330749846994876861572265625">
        <ele>993.79998779296875</ele>
        <time>2022-05-05T12:58:27.000Z</time>
      </trkpt>
      <trkpt lat="40.41017333976924419403076171875" lon="-1.19319618679583072662353515625">
        <ele>994</ele>
        <time>2022-05-05T12:58:29.000Z</time>
      </trkpt>
      <trkpt lat="40.41007610969245433807373046875" lon="-1.19311857037246227264404296875">
        <ele>993.5999755859375</ele>
        <time>2022-05-05T12:58:31.000Z</time>
      </trkpt>
      <trkpt lat="40.41000938974320888519287109375" lon="-1.19309929199516773223876953125">
        <ele>993.20001220703125</ele>
        <time>2022-05-05T12:58:32.000Z</time>
      </trkpt>
      <trkpt lat="40.40987058542668819427490234375" lon="-1.19309107773005962371826171875">
        <ele>992.20001220703125</ele>
        <time>2022-05-05T12:58:34.000Z</time>
      </trkpt>
      <trkpt lat="40.409734547138214111328125" lon="-1.19313315488398075103759765625">
        <ele>991.4000244140625</ele>
        <time>2022-05-05T12:58:36.000Z</time>
      </trkpt>
      <trkpt lat="40.409511588513851165771484375" lon="-1.19334228336811065673828125">
        <ele>990.20001220703125</ele>
        <time>2022-05-05T12:58:40.000Z</time>
      </trkpt>
      <trkpt lat="40.40947697125375270843505859375" lon="-1.19339701719582080841064453125">
        <ele>990</ele>
        <time>2022-05-05T12:58:41.000Z</time>
      </trkpt>
      <trkpt lat="40.4094453714787960052490234375" lon="-1.1934507451951503753662109375">
        <ele>989.5999755859375</ele>
        <time>2022-05-05T12:58:43.000Z</time>
      </trkpt>
      <trkpt lat="40.4094421863555908203125" lon="-1.1934601329267024993896484375">
        <ele>989.5999755859375</ele>
        <time>2022-05-05T12:58:45.000Z</time>
      </trkpt>
      <trkpt lat="40.40944277308881282806396484375" lon="-1.1934621445834636688232421875">
        <ele>989.5999755859375</ele>
        <time>2022-05-05T12:58:46.000Z</time>
      </trkpt>
      <trkpt lat="40.4094524122774600982666015625" lon="-1.1934007890522480010986328125">
        <ele>989.79998779296875</ele>
        <time>2022-05-05T12:58:55.000Z</time>
      </trkpt>
      <trkpt lat="40.40956380777060985565185546875" lon="-1.19326793588697910308837890625">
        <ele>990.4000244140625</ele>
        <time>2022-05-05T12:59:00.000Z</time>
      </trkpt>
      <trkpt lat="40.40968735702335834503173828125" lon="-1.1931417882442474365234375">
        <ele>991.20001220703125</ele>
        <time>2022-05-05T12:59:04.000Z</time>
      </trkpt>
      <trkpt lat="40.40972490794956684112548828125" lon="-1.193062327802181243896484375">
        <ele>991.4000244140625</ele>
        <time>2022-05-05T12:59:06.000Z</time>
      </trkpt>
      <trkpt lat="40.40972851216793060302734375" lon="-1.19302066974341869354248046875">
        <ele>991.4000244140625</ele>
        <time>2022-05-05T12:59:07.000Z</time>
      </trkpt>
      <trkpt lat="40.4096978344023227691650390625" lon="-1.19295679964125156402587890625">
        <ele>991.5999755859375</ele>
        <time>2022-05-05T12:59:09.000Z</time>
      </trkpt>
      <trkpt lat="40.40962968952953815460205078125" lon="-1.192914806306362152099609375">
        <ele>991.5999755859375</ele>
        <time>2022-05-05T12:59:12.000Z</time>
      </trkpt>
      <trkpt lat="40.40957872755825519561767578125" lon="-1.19288505055010318756103515625">
        <ele>991.4000244140625</ele>
        <time>2022-05-05T12:59:14.000Z</time>
      </trkpt>
      <trkpt lat="40.40955743752419948577880859375" lon="-1.19286778382956981658935546875">
        <ele>991.4000244140625</ele>
        <time>2022-05-05T12:59:15.000Z</time>
      </trkpt>
      <trkpt lat="40.40948468260467052459716796875" lon="-1.19280559010803699493408203125">
        <ele>991.4000244140625</ele>
        <time>2022-05-05T12:59:19.000Z</time>
      </trkpt>
      <trkpt lat="40.40946540422737598419189453125" lon="-1.19278564117848873138427734375">
        <ele>991.20001220703125</ele>
        <time>2022-05-05T12:59:20.000Z</time>
      </trkpt>
      <trkpt lat="40.409319810569286346435546875" lon="-1.19262387044727802276611328125">
        <ele>991.20001220703125</ele>
        <time>2022-05-05T12:59:27.000Z</time>
      </trkpt>
      <trkpt lat="40.40917597711086273193359375" lon="-1.19240912608802318572998046875">
        <ele>992.5999755859375</ele>
        <time>2022-05-05T12:59:34.000Z</time>
      </trkpt>
      <trkpt lat="40.409000627696514129638671875" lon="-1.192234866321086883544921875">
        <ele>993.4000244140625</ele>
        <time>2022-05-05T12:59:41.000Z</time>
      </trkpt>
      <trkpt lat="40.40894438512623310089111328125" lon="-1.19218759238719940185546875">
        <ele>993.4000244140625</ele>
        <time>2022-05-05T12:59:43.000Z</time>
      </trkpt>
      <trkpt lat="40.4087956063449382781982421875" lon="-1.19207301177084445953369140625">
        <ele>993.5999755859375</ele>
        <time>2022-05-05T12:59:48.000Z</time>
      </trkpt>
      <trkpt lat="40.40852931328117847442626953125" lon="-1.19191912002861499786376953125">
        <ele>992.5999755859375</ele>
        <time>2022-05-05T12:59:56.000Z</time>
      </trkpt>
      <trkpt lat="40.40824298746883869171142578125" lon="-1.19164369069039821624755859375">
        <ele>992.20001220703125</ele>
        <time>2022-05-05T13:00:05.000Z</time>
      </trkpt>
      <trkpt lat="40.408062525093555450439453125" lon="-1.191398017108440399169921875">
        <ele>992.4000244140625</ele>
        <time>2022-05-05T13:00:11.000Z</time>
      </trkpt>
      <trkpt lat="40.40798583067953586578369140625" lon="-1.1913328059017658233642578125">
        <ele>992.4000244140625</ele>
        <time>2022-05-05T13:00:13.000Z</time>
      </trkpt>
      <trkpt lat="40.4076419211924076080322265625" lon="-1.1910743080079555511474609375">
        <ele>990.4000244140625</ele>
        <time>2022-05-05T13:00:21.000Z</time>
      </trkpt>
      <trkpt lat="40.4073257558047771453857421875" lon="-1.1907296441495418548583984375">
        <ele>990.4000244140625</ele>
        <time>2022-05-05T13:00:29.000Z</time>
      </trkpt>
      <trkpt lat="40.40728594176471233367919921875" lon="-1.190685220062732696533203125">
        <ele>990.4000244140625</ele>
        <time>2022-05-05T13:00:30.000Z</time>
      </trkpt>
      <trkpt lat="40.40703716687858104705810546875" lon="-1.19044424034655094146728515625">
        <ele>990</ele>
        <time>2022-05-05T13:00:36.000Z</time>
      </trkpt>
      <trkpt lat="40.40689953602850437164306640625" lon="-1.19025707244873046875">
        <ele>990</ele>
        <time>2022-05-05T13:00:40.000Z</time>
      </trkpt>
      <trkpt lat="40.4068473167717456817626953125" lon="-1.1901449225842952728271484375">
        <ele>990.20001220703125</ele>
        <time>2022-05-05T13:00:42.000Z</time>
      </trkpt>
      <trkpt lat="40.40666148997843265533447265625" lon="-1.1897194571793079376220703125">
        <ele>990.20001220703125</ele>
        <time>2022-05-05T13:00:50.000Z</time>
      </trkpt>
      <trkpt lat="40.40650784969329833984375" lon="-1.18939633481204509735107421875">
        <ele>990</ele>
        <time>2022-05-05T13:00:58.000Z</time>
      </trkpt>
      <trkpt lat="40.40633107535541057586669921875" lon="-1.18911445140838623046875">
        <ele>990.4000244140625</ele>
        <time>2022-05-05T13:01:06.000Z</time>
      </trkpt>
      <trkpt lat="40.406145416200160980224609375" lon="-1.18880960159003734588623046875">
        <ele>990.5999755859375</ele>
        <time>2022-05-05T13:01:14.000Z</time>
      </trkpt>
      <trkpt lat="40.406086742877960205078125" lon="-1.18867130018770694732666015625">
        <ele>990.79998779296875</ele>
        <time>2022-05-05T13:01:17.000Z</time>
      </trkpt>
      <trkpt lat="40.4060097970068454742431640625" lon="-1.18855177424848079681396484375">
        <ele>991</ele>
        <time>2022-05-05T13:01:20.000Z</time>
      </trkpt>
      <trkpt lat="40.4058493673801422119140625" lon="-1.1882628500461578369140625">
        <ele>991.20001220703125</ele>
        <time>2022-05-05T13:01:27.000Z</time>
      </trkpt>
      <trkpt lat="40.40580452419817447662353515625" lon="-1.1881718225777149200439453125">
        <ele>991.4000244140625</ele>
        <time>2022-05-05T13:01:29.000Z</time>
      </trkpt>
      <trkpt lat="40.4057285003364086151123046875" lon="-1.188037879765033721923828125">
        <ele>991.4000244140625</ele>
        <time>2022-05-05T13:01:32.000Z</time>
      </trkpt>
      <trkpt lat="40.40566890500485897064208984375" lon="-1.18795900605618953704833984375">
        <ele>991.20001220703125</ele>
        <time>2022-05-05T13:01:34.000Z</time>
      </trkpt>
      <trkpt lat="40.40546623058617115020751953125" lon="-1.18767075240612030029296875">
        <ele>991.4000244140625</ele>
        <time>2022-05-05T13:01:41.000Z</time>
      </trkpt>
      <trkpt lat="40.40520337410271167755126953125" lon="-1.187271773815155029296875">
        <ele>990.4000244140625</ele>
        <time>2022-05-05T13:01:51.000Z</time>
      </trkpt>
      <trkpt lat="40.40494211018085479736328125" lon="-1.186956949532032012939453125">
        <ele>988.4000244140625</ele>
        <time>2022-05-05T13:01:59.000Z</time>
      </trkpt>
      <trkpt lat="40.40462653152644634246826171875" lon="-1.18667925707995891571044921875">
        <ele>989.20001220703125</ele>
        <time>2022-05-05T13:02:07.000Z</time>
      </trkpt>
      <trkpt lat="40.404396951198577880859375" lon="-1.1864357627928256988525390625">
        <ele>989</ele>
        <time>2022-05-05T13:02:13.000Z</time>
      </trkpt>
      <trkpt lat="40.40413878858089447021484375" lon="-1.18607760407030582427978515625">
        <ele>988.4000244140625</ele>
        <time>2022-05-05T13:02:21.000Z</time>
      </trkpt>
      <trkpt lat="40.40388523600995540618896484375" lon="-1.18568935431540012359619140625">
        <ele>991.4000244140625</ele>
        <time>2022-05-05T13:02:29.000Z</time>
      </trkpt>
      <trkpt lat="40.4037222079932689666748046875" lon="-1.18548785336315631866455078125">
        <ele>991.20001220703125</ele>
        <time>2022-05-05T13:02:34.000Z</time>
      </trkpt>
      <trkpt lat="40.40365196764469146728515625" lon="-1.1853980831801891326904296875">
        <ele>990.5999755859375</ele>
        <time>2022-05-05T13:02:36.000Z</time>
      </trkpt>
      <trkpt lat="40.40335558354854583740234375" lon="-1.185045540332794189453125">
        <ele>989.4000244140625</ele>
        <time>2022-05-05T13:02:44.000Z</time>
      </trkpt>
      <trkpt lat="40.40303816087543964385986328125" lon="-1.184642203152179718017578125">
        <ele>990.5999755859375</ele>
        <time>2022-05-05T13:02:53.000Z</time>
      </trkpt>
      <trkpt lat="40.4027666710317134857177734375" lon="-1.18429292924702167510986328125">
        <ele>990</ele>
        <time>2022-05-05T13:03:01.000Z</time>
      </trkpt>
      <trkpt lat="40.40273641236126422882080078125" lon="-1.18423727340996265411376953125">
        <ele>990</ele>
        <time>2022-05-05T13:03:02.000Z</time>
      </trkpt>
      <trkpt lat="40.40265820920467376708984375" lon="-1.184031665325164794921875">
        <ele>990</ele>
        <time>2022-05-05T13:03:05.000Z</time>
      </trkpt>
      <trkpt lat="40.402629375457763671875" lon="-1.1839600838720798492431640625">
        <ele>990.20001220703125</ele>
        <time>2022-05-05T13:03:06.000Z</time>
      </trkpt>
      <trkpt lat="40.40250934660434722900390625" lon="-1.18379571475088596343994140625">
        <ele>988.5999755859375</ele>
        <time>2022-05-05T13:03:09.000Z</time>
      </trkpt>
      <trkpt lat="40.40245058946311473846435546875" lon="-1.18375397287309169769287109375">
        <ele>988</ele>
        <time>2022-05-05T13:03:10.000Z</time>
      </trkpt>
      <trkpt lat="40.40238135494291782379150390625" lon="-1.18371273390948772430419921875">
        <ele>987.20001220703125</ele>
        <time>2022-05-05T13:03:11.000Z</time>
      </trkpt>
      <trkpt lat="40.40230642072856426239013671875" lon="-1.183664537966251373291015625">
        <ele>987.4000244140625</ele>
        <time>2022-05-05T13:03:12.000Z</time>
      </trkpt>
      <trkpt lat="40.40222913958132266998291015625" lon="-1.18360293097794055938720703125">
        <ele>987.5999755859375</ele>
        <time>2022-05-05T13:03:13.000Z</time>
      </trkpt>
      <trkpt lat="40.40215135551989078521728515625" lon="-1.18352950550615787506103515625">
        <ele>988</ele>
        <time>2022-05-05T13:03:14.000Z</time>
      </trkpt>
      <trkpt lat="40.40199930779635906219482421875" lon="-1.183359436690807342529296875">
        <ele>988</ele>
        <time>2022-05-05T13:03:16.000Z</time>
      </trkpt>
      <trkpt lat="40.4018584080040454864501953125" lon="-1.18318081833422183990478515625">
        <ele>988</ele>
        <time>2022-05-05T13:03:18.000Z</time>
      </trkpt>
      <trkpt lat="40.40171314962208271026611328125" lon="-1.1830796487629413604736328125">
        <ele>987.4000244140625</ele>
        <time>2022-05-05T13:03:20.000Z</time>
      </trkpt>
      <trkpt lat="40.4016404785215854644775390625" lon="-1.18305609561502933502197265625">
        <ele>987</ele>
        <time>2022-05-05T13:03:21.000Z</time>
      </trkpt>
      <trkpt lat="40.40157602168619632720947265625" lon="-1.1830239929258823394775390625">
        <ele>986.4000244140625</ele>
        <time>2022-05-05T13:03:22.000Z</time>
      </trkpt>
      <trkpt lat="40.401521287858486175537109375" lon="-1.18297764100134372711181640625">
        <ele>986.20001220703125</ele>
        <time>2022-05-05T13:03:23.000Z</time>
      </trkpt>
      <trkpt lat="40.40137183852493762969970703125" lon="-1.18280363269150257110595703125">
        <ele>986.79998779296875</ele>
        <time>2022-05-05T13:03:26.000Z</time>
      </trkpt>
      <trkpt lat="40.4013102315366268157958984375" lon="-1.18275552056729793548583984375">
        <ele>987</ele>
        <time>2022-05-05T13:03:27.000Z</time>
      </trkpt>
      <trkpt lat="40.40124041028320789337158203125" lon="-1.182719059288501739501953125">
        <ele>986.4000244140625</ele>
        <time>2022-05-05T13:03:28.000Z</time>
      </trkpt>
      <trkpt lat="40.40100454352796077728271484375" lon="-1.182654015719890594482421875">
        <ele>984.4000244140625</ele>
        <time>2022-05-05T13:03:31.000Z</time>
      </trkpt>
      <trkpt lat="40.40084176696836948394775390625" lon="-1.18261705152690410614013671875">
        <ele>983.5999755859375</ele>
        <time>2022-05-05T13:03:33.000Z</time>
      </trkpt>
      <trkpt lat="40.400596596300601959228515625" lon="-1.182556450366973876953125">
        <ele>982.4000244140625</ele>
        <time>2022-05-05T13:03:36.000Z</time>
      </trkpt>
      <trkpt lat="40.4004130326211452484130859375" lon="-1.1824798397719860076904296875">
        <ele>982</ele>
        <time>2022-05-05T13:03:38.000Z</time>
      </trkpt>
      <trkpt lat="40.40031974203884601593017578125" lon="-1.182430721819400787353515625">
        <ele>981.79998779296875</ele>
        <time>2022-05-05T13:03:39.000Z</time>
      </trkpt>
      <trkpt lat="40.4002259485423564910888671875" lon="-1.18237473070621490478515625">
        <ele>980.79998779296875</ele>
        <time>2022-05-05T13:03:40.000Z</time>
      </trkpt>
      <trkpt lat="40.400039367377758026123046875" lon="-1.182255707681179046630859375">
        <ele>978.79998779296875</ele>
        <time>2022-05-05T13:03:42.000Z</time>
      </trkpt>
      <trkpt lat="40.39994875900447368621826171875" lon="-1.18220130912959575653076171875">
        <ele>978</ele>
        <time>2022-05-05T13:03:43.000Z</time>
      </trkpt>
      <trkpt lat="40.3995319269597530364990234375" lon="-1.18186016567051410675048828125">
        <ele>977.79998779296875</ele>
        <time>2022-05-05T13:03:48.000Z</time>
      </trkpt>
      <trkpt lat="40.3994662128388881683349609375" lon="-1.181776262819766998291015625">
        <ele>978.5999755859375</ele>
        <time>2022-05-05T13:03:49.000Z</time>
      </trkpt>
      <trkpt lat="40.39940410293638706207275390625" lon="-1.1816922761499881744384765625">
        <ele>979.20001220703125</ele>
        <time>2022-05-05T13:03:50.000Z</time>
      </trkpt>
      <trkpt lat="40.39928792975842952728271484375" lon="-1.18152287788689136505126953125">
        <ele>978</ele>
        <time>2022-05-05T13:03:52.000Z</time>
      </trkpt>
      <trkpt lat="40.39889951236546039581298828125" lon="-1.18099230341613292694091796875">
        <ele>978.4000244140625</ele>
        <time>2022-05-05T13:03:59.000Z</time>
      </trkpt>
      <trkpt lat="40.3988442756235599517822265625" lon="-1.18092709220945835113525390625">
        <ele>978.79998779296875</ele>
        <time>2022-05-05T13:04:00.000Z</time>
      </trkpt>
      <trkpt lat="40.39853892289102077484130859375" lon="-1.180602796375751495361328125">
        <ele>979.4000244140625</ele>
        <time>2022-05-05T13:04:06.000Z</time>
      </trkpt>
      <trkpt lat="40.39817749522626399993896484375" lon="-1.1802033148705959320068359375">
        <ele>979.4000244140625</ele>
        <time>2022-05-05T13:04:14.000Z</time>
      </trkpt>
      <trkpt lat="40.3978424705564975738525390625" lon="-1.179734766483306884765625">
        <ele>980</ele>
        <time>2022-05-05T13:04:21.000Z</time>
      </trkpt>
      <trkpt lat="40.3975796140730381011962890625" lon="-1.17942002601921558380126953125">
        <ele>977.4000244140625</ele>
        <time>2022-05-05T13:04:26.000Z</time>
      </trkpt>
      <trkpt lat="40.397467799484729766845703125" lon="-1.17931139655411243438720703125">
        <ele>976.5999755859375</ele>
        <time>2022-05-05T13:04:28.000Z</time>
      </trkpt>
      <trkpt lat="40.397412478923797607421875" lon="-1.17925590835511684417724609375">
        <ele>976.20001220703125</ele>
        <time>2022-05-05T13:04:29.000Z</time>
      </trkpt>
      <trkpt lat="40.39710025303065776824951171875" lon="-1.17889934219419956207275390625">
        <ele>975.20001220703125</ele>
        <time>2022-05-05T13:04:35.000Z</time>
      </trkpt>
      <trkpt lat="40.39705364964902400970458984375" lon="-1.17883555591106414794921875">
        <ele>975.5999755859375</ele>
        <time>2022-05-05T13:04:36.000Z</time>
      </trkpt>
      <trkpt lat="40.39686421863734722137451171875" lon="-1.1785772256553173065185546875">
        <ele>977.4000244140625</ele>
        <time>2022-05-05T13:04:40.000Z</time>
      </trkpt>
      <trkpt lat="40.3967420943081378936767578125" lon="-1.1783693544566631317138671875">
        <ele>977.5999755859375</ele>
        <time>2022-05-05T13:04:43.000Z</time>
      </trkpt>
      <trkpt lat="40.396650731563568115234375" lon="-1.17814279161393642425537109375">
        <ele>976.4000244140625</ele>
        <time>2022-05-05T13:04:46.000Z</time>
      </trkpt>
      <trkpt lat="40.3965761326253414154052734375" lon="-1.17801387794315814971923828125">
        <ele>975.4000244140625</ele>
        <time>2022-05-05T13:04:48.000Z</time>
      </trkpt>
      <trkpt lat="40.39642349816858768463134765625" lon="-1.17779360152781009674072265625">
        <ele>973.4000244140625</ele>
        <time>2022-05-05T13:04:52.000Z</time>
      </trkpt>
      <trkpt lat="40.39638041518628597259521484375" lon="-1.17765647359192371368408203125">
        <ele>973.4000244140625</ele>
        <time>2022-05-05T13:04:54.000Z</time>
      </trkpt>
      <trkpt lat="40.3963555209338665008544921875" lon="-1.17749470286071300506591796875">
        <ele>973.5999755859375</ele>
        <time>2022-05-05T13:04:56.000Z</time>
      </trkpt>
      <trkpt lat="40.3962368331849575042724609375" lon="-1.1772334389388561248779296875">
        <ele>973.4000244140625</ele>
        <time>2022-05-05T13:05:00.000Z</time>
      </trkpt>
      <trkpt lat="40.3960708715021610260009765625" lon="-1.1768902838230133056640625">
        <ele>973.79998779296875</ele>
        <time>2022-05-05T13:05:05.000Z</time>
      </trkpt>
      <trkpt lat="40.395994596183300018310546875" lon="-1.17666942067444324493408203125">
        <ele>974.20001220703125</ele>
        <time>2022-05-05T13:05:08.000Z</time>
      </trkpt>
      <trkpt lat="40.395936928689479827880859375" lon="-1.17653966881334781646728515625">
        <ele>973.79998779296875</ele>
        <time>2022-05-05T13:05:10.000Z</time>
      </trkpt>
      <trkpt lat="40.395789407193660736083984375" lon="-1.17630816064774990081787109375">
        <ele>973</ele>
        <time>2022-05-05T13:05:15.000Z</time>
      </trkpt>
      <trkpt lat="40.395609028637409210205078125" lon="-1.17605268023908138275146484375">
        <ele>973.4000244140625</ele>
        <time>2022-05-05T13:05:21.000Z</time>
      </trkpt>
      <trkpt lat="40.39533770643174648284912109375" lon="-1.17569829337298870086669921875">
        <ele>974.5999755859375</ele>
        <time>2022-05-05T13:05:29.000Z</time>
      </trkpt>
      <trkpt lat="40.39510988630354404449462890625" lon="-1.17538263089954853057861328125">
        <ele>974.5999755859375</ele>
        <time>2022-05-05T13:05:36.000Z</time>
      </trkpt>
      <trkpt lat="40.3948508016765117645263671875" lon="-1.17500477470457553863525390625">
        <ele>973.79998779296875</ele>
        <time>2022-05-05T13:05:44.000Z</time>
      </trkpt>
      <trkpt lat="40.39458316750824451446533203125" lon="-1.174708306789398193359375">
        <ele>972.4000244140625</ele>
        <time>2022-05-05T13:05:51.000Z</time>
      </trkpt>
      <trkpt lat="40.3943346440792083740234375" lon="-1.17441334761679172515869140625">
        <ele>974.20001220703125</ele>
        <time>2022-05-05T13:05:58.000Z</time>
      </trkpt>
      <trkpt lat="40.3940350748598575592041015625" lon="-1.17404521442949771881103515625">
        <ele>971.79998779296875</ele>
        <time>2022-05-05T13:06:05.000Z</time>
      </trkpt>
      <trkpt lat="40.393708012998104095458984375" lon="-1.17365864105522632598876953125">
        <ele>971.79998779296875</ele>
        <time>2022-05-05T13:06:13.000Z</time>
      </trkpt>
      <trkpt lat="40.39346451871097087860107421875" lon="-1.17343802936375141143798828125">
        <ele>973</ele>
        <time>2022-05-05T13:06:18.000Z</time>
      </trkpt>
      <trkpt lat="40.3934050910174846649169921875" lon="-1.173381619155406951904296875">
        <ele>972.20001220703125</ele>
        <time>2022-05-05T13:06:19.000Z</time>
      </trkpt>
      <trkpt lat="40.39321037940680980682373046875" lon="-1.17321792058646678924560546875">
        <ele>969.5999755859375</ele>
        <time>2022-05-05T13:06:22.000Z</time>
      </trkpt>
      <trkpt lat="40.39314667694270610809326171875" lon="-1.17316695861518383026123046875">
        <ele>968.79998779296875</ele>
        <time>2022-05-05T13:06:23.000Z</time>
      </trkpt>
      <trkpt lat="40.39308448322117328643798828125" lon="-1.17311515845358371734619140625">
        <ele>968</ele>
        <time>2022-05-05T13:06:24.000Z</time>
      </trkpt>
      <trkpt lat="40.39290326647460460662841796875" lon="-1.17294953204691410064697265625">
        <ele>966.5999755859375</ele>
        <time>2022-05-05T13:06:27.000Z</time>
      </trkpt>
      <trkpt lat="40.39278860203921794891357421875" lon="-1.17282279767096042633056640625">
        <ele>966.4000244140625</ele>
        <time>2022-05-05T13:06:29.000Z</time>
      </trkpt>
      <trkpt lat="40.39273797534406185150146484375" lon="-1.17275021038949489593505859375">
        <ele>966.4000244140625</ele>
        <time>2022-05-05T13:06:30.000Z</time>
      </trkpt>
      <trkpt lat="40.39269648492336273193359375" lon="-1.17267292924225330352783203125">
        <ele>966.5999755859375</ele>
        <time>2022-05-05T13:06:31.000Z</time>
      </trkpt>
      <trkpt lat="40.39260369725525379180908203125" lon="-1.1724312789738178253173828125">
        <ele>966.20001220703125</ele>
        <time>2022-05-05T13:06:34.000Z</time>
      </trkpt>
      <trkpt lat="40.3925524838268756866455078125" lon="-1.17210966534912586212158203125">
        <ele>967</ele>
        <time>2022-05-05T13:06:38.000Z</time>
      </trkpt>
      <trkpt lat="40.3925444371998310089111328125" lon="-1.17203355766832828521728515625">
        <ele>967.4000244140625</ele>
        <time>2022-05-05T13:06:39.000Z</time>
      </trkpt>
      <trkpt lat="40.392509736120700836181640625" lon="-1.17172761820256710052490234375">
        <ele>968.5999755859375</ele>
        <time>2022-05-05T13:06:44.000Z</time>
      </trkpt>
      <trkpt lat="40.39249925874173641204833984375" lon="-1.17168344557285308837890625">
        <ele>968.5999755859375</ele>
        <time>2022-05-05T13:06:45.000Z</time>
      </trkpt>
      <trkpt lat="40.39242633618414402008056640625" lon="-1.171461157500743865966796875">
        <ele>968.20001220703125</ele>
        <time>2022-05-05T13:06:50.000Z</time>
      </trkpt>
      <trkpt lat="40.392335392534732818603515625" lon="-1.17120374925434589385986328125">
        <ele>968</ele>
        <time>2022-05-05T13:06:56.000Z</time>
      </trkpt>
      <trkpt lat="40.39220371283590793609619140625" lon="-1.1709161661565303802490234375">
        <ele>967.79998779296875</ele>
        <time>2022-05-05T13:07:02.000Z</time>
      </trkpt>
      <trkpt lat="40.3921672515571117401123046875" lon="-1.1708192713558673858642578125">
        <ele>967.79998779296875</ele>
        <time>2022-05-05T13:07:04.000Z</time>
      </trkpt>
      <trkpt lat="40.39202861487865447998046875" lon="-1.17045440711081027984619140625">
        <ele>969</ele>
        <time>2022-05-05T13:07:12.000Z</time>
      </trkpt>
      <trkpt lat="40.39181395433843135833740234375" lon="-1.16995803080499172210693359375">
        <ele>970.79998779296875</ele>
        <time>2022-05-05T13:07:22.000Z</time>
      </trkpt>
      <trkpt lat="40.391758047044277191162109375" lon="-1.1698654107749462127685546875">
        <ele>970.5999755859375</ele>
        <time>2022-05-05T13:07:24.000Z</time>
      </trkpt>
      <trkpt lat="40.39166986942291259765625" lon="-1.16972032003104686737060546875">
        <ele>970.4000244140625</ele>
        <time>2022-05-05T13:07:27.000Z</time>
      </trkpt>
      <trkpt lat="40.3916422091424465179443359375" lon="-1.16966650821268558502197265625">
        <ele>970.4000244140625</ele>
        <time>2022-05-05T13:07:28.000Z</time>
      </trkpt>
      <trkpt lat="40.3915531933307647705078125" lon="-1.1695338226854801177978515625">
        <ele>970</ele>
        <time>2022-05-05T13:07:31.000Z</time>
      </trkpt>
      <trkpt lat="40.39150902070105075836181640625" lon="-1.1694392748177051544189453125">
        <ele>969.79998779296875</ele>
        <time>2022-05-05T13:07:33.000Z</time>
      </trkpt>
      <trkpt lat="40.3913796879351139068603515625" lon="-1.169224195182323455810546875">
        <ele>968.5999755859375</ele>
        <time>2022-05-05T13:07:38.000Z</time>
      </trkpt>
      <trkpt lat="40.391319505870342254638671875" lon="-1.16913735866546630859375">
        <ele>968</ele>
        <time>2022-05-05T13:07:40.000Z</time>
      </trkpt>
      <trkpt lat="40.3911983035504817962646484375" lon="-1.16893862374126911163330078125">
        <ele>967</ele>
        <time>2022-05-05T13:07:44.000Z</time>
      </trkpt>
      <trkpt lat="40.39110325276851654052734375" lon="-1.16877618245780467987060546875">
        <ele>967</ele>
        <time>2022-05-05T13:07:47.000Z</time>
      </trkpt>
      <trkpt lat="40.3910222835838794708251953125" lon="-1.1686929501593112945556640625">
        <ele>966.4000244140625</ele>
        <time>2022-05-05T13:07:49.000Z</time>
      </trkpt>
      <trkpt lat="40.39084374904632568359375" lon="-1.1685432493686676025390625">
        <ele>964.79998779296875</ele>
        <time>2022-05-05T13:07:53.000Z</time>
      </trkpt>
      <trkpt lat="40.39079454727470874786376953125" lon="-1.16851265542209148406982421875">
        <ele>964</ele>
        <time>2022-05-05T13:07:54.000Z</time>
      </trkpt>
      <trkpt lat="40.39069564081728458404541015625" lon="-1.168459095060825347900390625">
        <ele>962.20001220703125</ele>
        <time>2022-05-05T13:07:56.000Z</time>
      </trkpt>
      <trkpt lat="40.3903235681354999542236328125" lon="-1.16822498850524425506591796875">
        <ele>958.79998779296875</ele>
        <time>2022-05-05T13:08:03.000Z</time>
      </trkpt>
      <trkpt lat="40.39026447571814060211181640625" lon="-1.16818425245583057403564453125">
        <ele>958.4000244140625</ele>
        <time>2022-05-05T13:08:04.000Z</time>
      </trkpt>
      <trkpt lat="40.390150733292102813720703125" lon="-1.1681125871837139129638671875">
        <ele>957.5999755859375</ele>
        <time>2022-05-05T13:08:06.000Z</time>
      </trkpt>
      <trkpt lat="40.3900426067411899566650390625" lon="-1.16802767850458621978759765625">
        <ele>958.20001220703125</ele>
        <time>2022-05-05T13:08:08.000Z</time>
      </trkpt>
      <trkpt lat="40.38988209329545497894287109375" lon="-1.16789004765450954437255859375">
        <ele>959.20001220703125</ele>
        <time>2022-05-05T13:08:11.000Z</time>
      </trkpt>
      <trkpt lat="40.38966969586908817291259765625" lon="-1.16769810207188129425048828125">
        <ele>959.20001220703125</ele>
        <time>2022-05-05T13:08:15.000Z</time>
      </trkpt>
      <trkpt lat="40.3894676081836223602294921875" lon="-1.167518980801105499267578125">
        <ele>960.20001220703125</ele>
        <time>2022-05-05T13:08:19.000Z</time>
      </trkpt>
      <trkpt lat="40.3893187455832958221435546875" lon="-1.1673950962722301483154296875">
        <ele>959.4000244140625</ele>
        <time>2022-05-05T13:08:22.000Z</time>
      </trkpt>
      <trkpt lat="40.38910324685275554656982421875" lon="-1.16722368635237216949462890625">
        <ele>958.20001220703125</ele>
        <time>2022-05-05T13:08:27.000Z</time>
      </trkpt>
      <trkpt lat="40.38902797736227512359619140625" lon="-1.167157553136348724365234375">
        <ele>958.20001220703125</ele>
        <time>2022-05-05T13:08:29.000Z</time>
      </trkpt>
      <trkpt lat="40.38892169483006000518798828125" lon="-1.1670145578682422637939453125">
        <ele>959</ele>
        <time>2022-05-05T13:08:32.000Z</time>
      </trkpt>
      <trkpt lat="40.3888828866183757781982421875" lon="-1.16696535609662532806396484375">
        <ele>959.20001220703125</ele>
        <time>2022-05-05T13:08:33.000Z</time>
      </trkpt>
      <trkpt lat="40.38871885277330875396728515625" lon="-1.1666879989206790924072265625">
        <ele>962</ele>
        <time>2022-05-05T13:08:38.000Z</time>
      </trkpt>
      <trkpt lat="40.38866520859301090240478515625" lon="-1.16656503640115261077880859375">
        <ele>963.20001220703125</ele>
        <time>2022-05-05T13:08:40.000Z</time>
      </trkpt>
      <trkpt lat="40.38860066793859004974365234375" lon="-1.166442073881626129150390625">
        <ele>962.4000244140625</ele>
        <time>2022-05-05T13:08:42.000Z</time>
      </trkpt>
      <trkpt lat="40.38854350335896015167236328125" lon="-1.1663098074495792388916015625">
        <ele>963</ele>
        <time>2022-05-05T13:08:44.000Z</time>
      </trkpt>
      <trkpt lat="40.3883318603038787841796875" lon="-1.16573673672974109649658203125">
        <ele>963.79998779296875</ele>
        <time>2022-05-05T13:08:52.000Z</time>
      </trkpt>
      <trkpt lat="40.388304702937602996826171875" lon="-1.16566616110503673553466796875">
        <ele>963.4000244140625</ele>
        <time>2022-05-05T13:08:53.000Z</time>
      </trkpt>
      <trkpt lat="40.38811929523944854736328125" lon="-1.16515570320188999176025390625">
        <ele>961</ele>
        <time>2022-05-05T13:09:00.000Z</time>
      </trkpt>
      <trkpt lat="40.388062298297882080078125" lon="-1.16501404903829097747802734375">
        <ele>960.5999755859375</ele>
        <time>2022-05-05T13:09:02.000Z</time>
      </trkpt>
      <trkpt lat="40.3878314606845378875732421875" lon="-1.16444475017488002777099609375">
        <ele>961.5999755859375</ele>
        <time>2022-05-05T13:09:10.000Z</time>
      </trkpt>
      <trkpt lat="40.38756265304982662200927734375" lon="-1.16377419792115688323974609375">
        <ele>962</ele>
        <time>2022-05-05T13:09:20.000Z</time>
      </trkpt>
      <trkpt lat="40.38747422397136688232421875" lon="-1.163389049470424652099609375">
        <ele>962</ele>
        <time>2022-05-05T13:09:26.000Z</time>
      </trkpt>
      <trkpt lat="40.38743809796869754791259765625" lon="-1.16302871145308017730712890625">
        <ele>962.4000244140625</ele>
        <time>2022-05-05T13:09:32.000Z</time>
      </trkpt>
      <trkpt lat="40.3873764909803867340087890625" lon="-1.1626271344721317291259765625">
        <ele>960.5999755859375</ele>
        <time>2022-05-05T13:09:38.000Z</time>
      </trkpt>
      <trkpt lat="40.3873738087713718414306640625" lon="-1.16240308620035648345947265625">
        <ele>960</ele>
        <time>2022-05-05T13:09:41.000Z</time>
      </trkpt>
      <trkpt lat="40.387377999722957611083984375" lon="-1.1621758528053760528564453125">
        <ele>960</ele>
        <time>2022-05-05T13:09:44.000Z</time>
      </trkpt>
      <trkpt lat="40.38736567832529544830322265625" lon="-1.1619565822184085845947265625">
        <ele>960</ele>
        <time>2022-05-05T13:09:47.000Z</time>
      </trkpt>
      <trkpt lat="40.38736215792596340179443359375" lon="-1.1617547459900379180908203125">
        <ele>960.4000244140625</ele>
        <time>2022-05-05T13:09:50.000Z</time>
      </trkpt>
      <trkpt lat="40.38736023008823394775390625" lon="-1.1616099067032337188720703125">
        <ele>960.5999755859375</ele>
        <time>2022-05-05T13:09:52.000Z</time>
      </trkpt>
      <trkpt lat="40.38731773383915424346923828125" lon="-1.1613664962351322174072265625">
        <ele>960.20001220703125</ele>
        <time>2022-05-05T13:09:55.000Z</time>
      </trkpt>
      <trkpt lat="40.38729853928089141845703125" lon="-1.16128829307854175567626953125">
        <ele>960</ele>
        <time>2022-05-05T13:09:56.000Z</time>
      </trkpt>
      <trkpt lat="40.387284122407436370849609375" lon="-1.16121000610291957855224609375">
        <ele>960.20001220703125</ele>
        <time>2022-05-05T13:09:57.000Z</time>
      </trkpt>
      <trkpt lat="40.3872229345142841339111328125" lon="-1.16088897921144962310791015625">
        <ele>960.79998779296875</ele>
        <time>2022-05-05T13:10:01.000Z</time>
      </trkpt>
      <trkpt lat="40.38721011020243167877197265625" lon="-1.1608092673122882843017578125">
        <ele>961</ele>
        <time>2022-05-05T13:10:02.000Z</time>
      </trkpt>
      <trkpt lat="40.387186892330646514892578125" lon="-1.16051011718809604644775390625">
        <ele>962</ele>
        <time>2022-05-05T13:10:06.000Z</time>
      </trkpt>
      <trkpt lat="40.38718211464583873748779296875" lon="-1.16043384186923503875732421875">
        <ele>962</ele>
        <time>2022-05-05T13:10:07.000Z</time>
      </trkpt>
      <trkpt lat="40.38716384209692478179931640625" lon="-1.1602835543453693389892578125">
        <ele>962</ele>
        <time>2022-05-05T13:10:09.000Z</time>
      </trkpt>
      <trkpt lat="40.38710399530827999114990234375" lon="-1.1600768566131591796875">
        <ele>961.5999755859375</ele>
        <time>2022-05-05T13:10:12.000Z</time>
      </trkpt>
      <trkpt lat="40.3869532048702239990234375" lon="-1.15960168652236461639404296875">
        <ele>961</ele>
        <time>2022-05-05T13:10:19.000Z</time>
      </trkpt>
      <trkpt lat="40.38677274249494075775146484375" lon="-1.15911453031003475189208984375">
        <ele>960.4000244140625</ele>
        <time>2022-05-05T13:10:26.000Z</time>
      </trkpt>
      <trkpt lat="40.3867371194064617156982421875" lon="-1.15905786864459514617919921875">
        <ele>959.79998779296875</ele>
        <time>2022-05-05T13:10:27.000Z</time>
      </trkpt>
      <trkpt lat="40.3865805454552173614501953125" lon="-1.15871630609035491943359375">
        <ele>957.5999755859375</ele>
        <time>2022-05-05T13:10:33.000Z</time>
      </trkpt>
      <trkpt lat="40.38654576055705547332763671875" lon="-1.15846929140388965606689453125">
        <ele>958.20001220703125</ele>
        <time>2022-05-05T13:10:38.000Z</time>
      </trkpt>
      <trkpt lat="40.3865275718271732330322265625" lon="-1.1583513580262660980224609375">
        <ele>958.5999755859375</ele>
        <time>2022-05-05T13:10:40.000Z</time>
      </trkpt>
      <trkpt lat="40.38646697066724300384521484375" lon="-1.15815279074013233184814453125">
        <ele>958.5999755859375</ele>
        <time>2022-05-05T13:10:43.000Z</time>
      </trkpt>
      <trkpt lat="40.386407375335693359375" lon="-1.15793553180992603302001953125">
        <ele>957.4000244140625</ele>
        <time>2022-05-05T13:10:46.000Z</time>
      </trkpt>
      <trkpt lat="40.386350043118000030517578125" lon="-1.15771424956619739532470703125">
        <ele>956.20001220703125</ele>
        <time>2022-05-05T13:10:49.000Z</time>
      </trkpt>
      <trkpt lat="40.38633923046290874481201171875" lon="-1.1576449312269687652587890625">
        <ele>955.79998779296875</ele>
        <time>2022-05-05T13:10:50.000Z</time>
      </trkpt>
      <trkpt lat="40.38630251772701740264892578125" lon="-1.15745164453983306884765625">
        <ele>955</ele>
        <time>2022-05-05T13:10:53.000Z</time>
      </trkpt>
      <trkpt lat="40.386222638189792633056640625" lon="-1.156966499984264373779296875">
        <ele>953.4000244140625</ele>
        <time>2022-05-05T13:11:00.000Z</time>
      </trkpt>
      <trkpt lat="40.38618064485490322113037109375" lon="-1.1566676013171672821044921875">
        <ele>952.4000244140625</ele>
        <time>2022-05-05T13:11:04.000Z</time>
      </trkpt>
      <trkpt lat="40.38612616248428821563720703125" lon="-1.15631011314690113067626953125">
        <ele>951.5999755859375</ele>
        <time>2022-05-05T13:11:09.000Z</time>
      </trkpt>
      <trkpt lat="40.38607771508395671844482421875" lon="-1.15592789836227893829345703125">
        <ele>950.5999755859375</ele>
        <time>2022-05-05T13:11:16.000Z</time>
      </trkpt>
      <trkpt lat="40.3860648907721042633056640625" lon="-1.15569957531988620758056640625">
        <ele>950.4000244140625</ele>
        <time>2022-05-05T13:11:20.000Z</time>
      </trkpt>
      <trkpt lat="40.386057011783123016357421875" lon="-1.15563444793224334716796875">
        <ele>950.4000244140625</ele>
        <time>2022-05-05T13:11:21.000Z</time>
      </trkpt>
      <trkpt lat="40.38601107895374298095703125" lon="-1.15528953261673450469970703125">
        <ele>949.79998779296875</ele>
        <time>2022-05-05T13:11:26.000Z</time>
      </trkpt>
      <trkpt lat="40.38594494573771953582763671875" lon="-1.15508618764579296112060546875">
        <ele>949.20001220703125</ele>
        <time>2022-05-05T13:11:30.000Z</time>
      </trkpt>
      <trkpt lat="40.38587202318012714385986328125" lon="-1.155025251209735870361328125">
        <ele>949.20001220703125</ele>
        <time>2022-05-05T13:11:32.000Z</time>
      </trkpt>
      <trkpt lat="40.3857944905757904052734375" lon="-1.1550126783549785614013671875">
        <ele>949</ele>
        <time>2022-05-05T13:11:34.000Z</time>
      </trkpt>
      <trkpt lat="40.385642610490322113037109375" lon="-1.15497554652392864227294921875">
        <ele>948.5999755859375</ele>
        <time>2022-05-05T13:11:38.000Z</time>
      </trkpt>
      <trkpt lat="40.3855991922318935394287109375" lon="-1.154951490461826324462890625">
        <ele>948.5999755859375</ele>
        <time>2022-05-05T13:11:39.000Z</time>
      </trkpt>
      <trkpt lat="40.38551009260118007659912109375" lon="-1.15489013493061065673828125">
        <ele>948.5999755859375</ele>
        <time>2022-05-05T13:11:41.000Z</time>
      </trkpt>
      <trkpt lat="40.385414622724056243896484375" lon="-1.15483422763645648956298828125">
        <ele>948.5999755859375</ele>
        <time>2022-05-05T13:11:43.000Z</time>
      </trkpt>
      <trkpt lat="40.38536676205694675445556640625" lon="-1.15480296313762664794921875">
        <ele>948.4000244140625</ele>
        <time>2022-05-05T13:11:44.000Z</time>
      </trkpt>
      <trkpt lat="40.385321080684661865234375" lon="-1.1547659151256084442138671875">
        <ele>948.4000244140625</ele>
        <time>2022-05-05T13:11:45.000Z</time>
      </trkpt>
      <trkpt lat="40.38515486754477024078369140625" lon="-1.15457505919039249420166015625">
        <ele>949.79998779296875</ele>
        <time>2022-05-05T13:11:49.000Z</time>
      </trkpt>
      <trkpt lat="40.385071970522403717041015625" lon="-1.15447464399039745330810546875">
        <ele>950.5999755859375</ele>
        <time>2022-05-05T13:11:51.000Z</time>
      </trkpt>
      <trkpt lat="40.3849051706492900848388671875" lon="-1.15430030040442943572998046875">
        <ele>950.5999755859375</ele>
        <time>2022-05-05T13:11:55.000Z</time>
      </trkpt>
      <trkpt lat="40.384670980274677276611328125" lon="-1.153986565768718719482421875">
        <ele>950</ele>
        <time>2022-05-05T13:12:01.000Z</time>
      </trkpt>
      <trkpt lat="40.38442933000624179840087890625" lon="-1.15367568098008632659912109375">
        <ele>951</ele>
        <time>2022-05-05T13:12:08.000Z</time>
      </trkpt>
      <trkpt lat="40.3841672278940677642822265625" lon="-1.153331436216831207275390625">
        <ele>951</ele>
        <time>2022-05-05T13:12:15.000Z</time>
      </trkpt>
      <trkpt lat="40.38393228314816951751708984375" lon="-1.15306681953370571136474609375">
        <ele>948.79998779296875</ele>
        <time>2022-05-05T13:12:21.000Z</time>
      </trkpt>
      <trkpt lat="40.38364495150744915008544921875" lon="-1.15265342406928539276123046875">
        <ele>950.20001220703125</ele>
        <time>2022-05-05T13:12:29.000Z</time>
      </trkpt>
      <trkpt lat="40.38328788243234157562255859375" lon="-1.152263581752777099609375">
        <ele>950.5999755859375</ele>
        <time>2022-05-05T13:12:37.000Z</time>
      </trkpt>
      <trkpt lat="40.38296786136925220489501953125" lon="-1.15188295952975749969482421875">
        <ele>951.20001220703125</ele>
        <time>2022-05-05T13:12:44.000Z</time>
      </trkpt>
      <trkpt lat="40.38278195075690746307373046875" lon="-1.15164826624095439910888671875">
        <ele>951.5999755859375</ele>
        <time>2022-05-05T13:12:49.000Z</time>
      </trkpt>
      <trkpt lat="40.3825750015676021575927734375" lon="-1.15132723934948444366455078125">
        <ele>950</ele>
        <time>2022-05-05T13:12:55.000Z</time>
      </trkpt>
      <trkpt lat="40.38236335851252079010009765625" lon="-1.1508964933454990386962890625">
        <ele>949.5999755859375</ele>
        <time>2022-05-05T13:13:02.000Z</time>
      </trkpt>
      <trkpt lat="40.3822434134781360626220703125" lon="-1.1506001092493534088134765625">
        <ele>950</ele>
        <time>2022-05-05T13:13:07.000Z</time>
      </trkpt>
      <trkpt lat="40.38221349008381366729736328125" lon="-1.1505471356213092803955078125">
        <ele>949.79998779296875</ele>
        <time>2022-05-05T13:13:08.000Z</time>
      </trkpt>
      <trkpt lat="40.38190654478967189788818359375" lon="-1.1501137912273406982421875">
        <ele>947.79998779296875</ele>
        <time>2022-05-05T13:13:17.000Z</time>
      </trkpt>
      <trkpt lat="40.38178869523108005523681640625" lon="-1.14995998330414295196533203125">
        <ele>947.4000244140625</ele>
        <time>2022-05-05T13:13:20.000Z</time>
      </trkpt>
      <trkpt lat="40.38169045932590961456298828125" lon="-1.14978614263236522674560546875">
        <ele>947.5999755859375</ele>
        <time>2022-05-05T13:13:23.000Z</time>
      </trkpt>
      <trkpt lat="40.3816486336290836334228515625" lon="-1.14973970688879489898681640625">
        <ele>947.5999755859375</ele>
        <time>2022-05-05T13:13:24.000Z</time>
      </trkpt>
      <trkpt lat="40.38152768276631832122802734375" lon="-1.14960861392319202423095703125">
        <ele>948</ele>
        <time>2022-05-05T13:13:27.000Z</time>
      </trkpt>
      <trkpt lat="40.3814166225492954254150390625" lon="-1.14948950707912445068359375">
        <ele>947.79998779296875</ele>
        <time>2022-05-05T13:13:31.000Z</time>
      </trkpt>
      <trkpt lat="40.38129617460072040557861328125" lon="-1.14934123121201992034912109375">
        <ele>947.4000244140625</ele>
        <time>2022-05-05T13:13:36.000Z</time>
      </trkpt>
      <trkpt lat="40.38126088678836822509765625" lon="-1.14930971525609493255615234375">
        <ele>947.4000244140625</ele>
        <time>2022-05-05T13:13:37.000Z</time>
      </trkpt>
      <trkpt lat="40.38110473193228244781494140625" lon="-1.14913537167012691497802734375">
        <ele>947.5999755859375</ele>
        <time>2022-05-05T13:13:41.000Z</time>
      </trkpt>
      <trkpt lat="40.3809298016130924224853515625" lon="-1.1488895304501056671142578125">
        <ele>948.5999755859375</ele>
        <time>2022-05-05T13:13:46.000Z</time>
      </trkpt>
      <trkpt lat="40.38089367561042308807373046875" lon="-1.14885524846613407135009765625">
        <ele>948.79998779296875</ele>
        <time>2022-05-05T13:13:47.000Z</time>
      </trkpt>
      <trkpt lat="40.3807896561920642852783203125" lon="-1.14875818602740764617919921875">
        <ele>949.20001220703125</ele>
        <time>2022-05-05T13:13:50.000Z</time>
      </trkpt>
      <trkpt lat="40.38076258264482021331787109375" lon="-1.14871962927281856536865234375">
        <ele>949.5999755859375</ele>
        <time>2022-05-05T13:13:51.000Z</time>
      </trkpt>
      <trkpt lat="40.38063819520175457000732421875" lon="-1.14855333231389522552490234375">
        <ele>949.79998779296875</ele>
        <time>2022-05-05T13:13:56.000Z</time>
      </trkpt>
      <trkpt lat="40.38056326098740100860595703125" lon="-1.14841461181640625">
        <ele>950.20001220703125</ele>
        <time>2022-05-05T13:14:00.000Z</time>
      </trkpt>
      <trkpt lat="40.38053828291594982147216796875" lon="-1.14837932400405406951904296875">
        <ele>950.20001220703125</ele>
        <time>2022-05-05T13:14:01.000Z</time>
      </trkpt>
      <trkpt lat="40.38046938367187976837158203125" lon="-1.1482458002865314483642578125">
        <ele>950.5999755859375</ele>
        <time>2022-05-05T13:14:04.000Z</time>
      </trkpt>
      <trkpt lat="40.38042898289859294891357421875" lon="-1.14815116859972476959228515625">
        <ele>951.20001220703125</ele>
        <time>2022-05-05T13:14:06.000Z</time>
      </trkpt>
      <trkpt lat="40.3803335130214691162109375" lon="-1.14797674119472503662109375">
        <ele>951.79998779296875</ele>
        <time>2022-05-05T13:14:11.000Z</time>
      </trkpt>
      <trkpt lat="40.3802900947630405426025390625" lon="-1.14789585582911968231201171875">
        <ele>952.20001220703125</ele>
        <time>2022-05-05T13:14:13.000Z</time>
      </trkpt>
      <trkpt lat="40.38022982887923717498779296875" lon="-1.14779979921877384185791015625">
        <ele>952.5999755859375</ele>
        <time>2022-05-05T13:14:15.000Z</time>
      </trkpt>
      <trkpt lat="40.380126647651195526123046875" lon="-1.14762377925217151641845703125">
        <ele>953.4000244140625</ele>
        <time>2022-05-05T13:14:18.000Z</time>
      </trkpt>
      <trkpt lat="40.3800916112959384918212890625" lon="-1.14755789749324321746826171875">
        <ele>953.20001220703125</ele>
        <time>2022-05-05T13:14:19.000Z</time>
      </trkpt>
      <trkpt lat="40.380057580769062042236328125" lon="-1.14749419502913951873779296875">
        <ele>953</ele>
        <time>2022-05-05T13:14:20.000Z</time>
      </trkpt>
      <trkpt lat="40.3800188563764095306396484375" lon="-1.14743493497371673583984375">
        <ele>952.79998779296875</ele>
        <time>2022-05-05T13:14:21.000Z</time>
      </trkpt>
      <trkpt lat="40.37993193604052066802978515625" lon="-1.147262267768383026123046875">
        <ele>952.5999755859375</ele>
        <time>2022-05-05T13:14:24.000Z</time>
      </trkpt>
      <trkpt lat="40.3798887692391872406005859375" lon="-1.14715506322681903839111328125">
        <ele>952.79998779296875</ele>
        <time>2022-05-05T13:14:26.000Z</time>
      </trkpt>
      <trkpt lat="40.3798777051270008087158203125" lon="-1.14698222838342189788818359375">
        <ele>953.79998779296875</ele>
        <time>2022-05-05T13:14:29.000Z</time>
      </trkpt>
      <trkpt lat="40.37990494631230831146240234375" lon="-1.14685314707458019256591796875">
        <ele>955</ele>
        <time>2022-05-05T13:14:33.000Z</time>
      </trkpt>
      <trkpt lat="40.37992070429027080535888671875" lon="-1.14686052314937114715576171875">
        <ele>955.20001220703125</ele>
        <time>2022-05-05T13:14:34.000Z</time>
      </trkpt>
      <trkpt lat="40.37994249723851680755615234375" lon="-1.14687829278409481048583984375">
        <ele>955.5999755859375</ele>
        <time>2022-05-05T13:14:37.000Z</time>
      </trkpt>
      <trkpt lat="40.379943586885929107666015625" lon="-1.1468805558979511260986328125">
        <ele>955.5999755859375</ele>
        <time>2022-05-05T13:14:39.000Z</time>
      </trkpt>
      <trkpt lat="40.37992623634636402130126953125" lon="-1.14690058864653110504150390625">
        <ele>955.20001220703125</ele>
        <time>2022-05-05T13:14:42.000Z</time>
      </trkpt>
      <trkpt lat="40.37990662269294261932373046875" lon="-1.14696110598742961883544921875">
        <ele>954.4000244140625</ele>
        <time>2022-05-05T13:14:44.000Z</time>
      </trkpt>
      <trkpt lat="40.37986613810062408447265625" lon="-1.14701022394001483917236328125">
        <ele>953.4000244140625</ele>
        <time>2022-05-05T13:14:46.000Z</time>
      </trkpt>
      <trkpt lat="40.37978776730597019195556640625" lon="-1.14702061749994754791259765625">
        <ele>952</ele>
        <time>2022-05-05T13:14:48.000Z</time>
      </trkpt>
      <trkpt lat="40.3797456063330173492431640625" lon="-1.14701407961547374725341796875">
        <ele>951.20001220703125</ele>
        <time>2022-05-05T13:14:49.000Z</time>
      </trkpt>
      <trkpt lat="40.3796762041747570037841796875" lon="-1.147007457911968231201171875">
        <ele>949.79998779296875</ele>
        <time>2022-05-05T13:14:51.000Z</time>
      </trkpt>
      <trkpt lat="40.379651226103305816650390625" lon="-1.14701449871063232421875">
        <ele>949.4000244140625</ele>
        <time>2022-05-05T13:14:52.000Z</time>
      </trkpt>
      <trkpt lat="40.3796262480318546295166015625" lon="-1.14703486673533916473388671875">
        <ele>948.79998779296875</ele>
        <time>2022-05-05T13:14:53.000Z</time>
      </trkpt>
      <trkpt lat="40.3795082308351993560791015625" lon="-1.1470797099173069000244140625">
        <ele>947</ele>
        <time>2022-05-05T13:14:57.000Z</time>
      </trkpt>
      <trkpt lat="40.3794770501554012298583984375" lon="-1.14706370048224925994873046875">
        <ele>946.5999755859375</ele>
        <time>2022-05-05T13:14:58.000Z</time>
      </trkpt>
      <trkpt lat="40.37944503128528594970703125" lon="-1.147044338285923004150390625">
        <ele>946.20001220703125</ele>
        <time>2022-05-05T13:14:59.000Z</time>
      </trkpt>
      <trkpt lat="40.3794133476912975311279296875" lon="-1.1470139957964420318603515625">
        <ele>945.79998779296875</ele>
        <time>2022-05-05T13:15:00.000Z</time>
      </trkpt>
      <trkpt lat="40.3793858550488948822021484375" lon="-1.146971918642520904541015625">
        <ele>945.5999755859375</ele>
        <time>2022-05-05T13:15:01.000Z</time>
      </trkpt>
      <trkpt lat="40.3793585300445556640625" lon="-1.1469278298318386077880859375">
        <ele>945.5999755859375</ele>
        <time>2022-05-05T13:15:02.000Z</time>
      </trkpt>
      <trkpt lat="40.37924109958112239837646484375" lon="-1.14669137634336948394775390625">
        <ele>944.79998779296875</ele>
        <time>2022-05-05T13:15:06.000Z</time>
      </trkpt>
      <trkpt lat="40.37922249175608158111572265625" lon="-1.1466207168996334075927734375">
        <ele>944.79998779296875</ele>
        <time>2022-05-05T13:15:07.000Z</time>
      </trkpt>
      <trkpt lat="40.3792445361614227294921875" lon="-1.14637990482151508331298828125">
        <ele>945.4000244140625</ele>
        <time>2022-05-05T13:15:10.000Z</time>
      </trkpt>
      <trkpt lat="40.37926037795841693878173828125" lon="-1.1462968401610851287841796875">
        <ele>945.20001220703125</ele>
        <time>2022-05-05T13:15:11.000Z</time>
      </trkpt>
      <trkpt lat="40.37933883257210254669189453125" lon="-1.1460671760141849517822265625">
        <ele>945.4000244140625</ele>
        <time>2022-05-05T13:15:14.000Z</time>
      </trkpt>
      <trkpt lat="40.3794056363403797149658203125" lon="-1.14593868143856525421142578125">
        <ele>945.79998779296875</ele>
        <time>2022-05-05T13:15:16.000Z</time>
      </trkpt>
      <trkpt lat="40.37946104072034358978271484375" lon="-1.1458468995988368988037109375">
        <ele>946.20001220703125</ele>
        <time>2022-05-05T13:15:18.000Z</time>
      </trkpt>
      <trkpt lat="40.37950898520648479461669921875" lon="-1.1457587219774723052978515625">
        <ele>946.5999755859375</ele>
        <time>2022-05-05T13:15:21.000Z</time>
      </trkpt>
      <trkpt lat="40.3794995136559009552001953125" lon="-1.14572494290769100189208984375">
        <ele>946.4000244140625</ele>
        <time>2022-05-05T13:15:22.000Z</time>
      </trkpt>
      <trkpt lat="40.379413850605487823486328125" lon="-1.1455984599888324737548828125">
        <ele>945.5999755859375</ele>
        <time>2022-05-05T13:15:26.000Z</time>
      </trkpt>
      <trkpt lat="40.37932491861283779144287109375" lon="-1.14533149637281894683837890625">
        <ele>947.79998779296875</ele>
        <time>2022-05-05T13:15:32.000Z</time>
      </trkpt>
      <trkpt lat="40.37926155142486095428466796875" lon="-1.14502086304128170013427734375">
        <ele>949.5999755859375</ele>
        <time>2022-05-05T13:15:39.000Z</time>
      </trkpt>
      <trkpt lat="40.37918980233371257781982421875" lon="-1.14480100572109222412109375">
        <ele>948.5999755859375</ele>
        <time>2022-05-05T13:15:44.000Z</time>
      </trkpt>
      <trkpt lat="40.37917069159448146820068359375" lon="-1.14474878646433353424072265625">
        <ele>948.4000244140625</ele>
        <time>2022-05-05T13:15:45.000Z</time>
      </trkpt>
      <trkpt lat="40.3791283629834651947021484375" lon="-1.144574694335460662841796875">
        <ele>948.5999755859375</ele>
        <time>2022-05-05T13:15:48.000Z</time>
      </trkpt>
      <trkpt lat="40.37908653728663921356201171875" lon="-1.1444112472236156463623046875">
        <ele>948.4000244140625</ele>
        <time>2022-05-05T13:15:51.000Z</time>
      </trkpt>
      <trkpt lat="40.37898981012403964996337890625" lon="-1.14398217760026454925537109375">
        <ele>947.20001220703125</ele>
        <time>2022-05-05T13:15:59.000Z</time>
      </trkpt>
      <trkpt lat="40.3789214976131916046142578125" lon="-1.14364572800695896148681640625">
        <ele>946.20001220703125</ele>
        <time>2022-05-05T13:16:06.000Z</time>
      </trkpt>
      <trkpt lat="40.37884966470301151275634765625" lon="-1.143196709454059600830078125">
        <ele>947.20001220703125</ele>
        <time>2022-05-05T13:16:15.000Z</time>
      </trkpt>
      <trkpt lat="40.378797948360443115234375" lon="-1.1427605152130126953125">
        <ele>948</ele>
        <time>2022-05-05T13:16:24.000Z</time>
      </trkpt>
      <trkpt lat="40.3787873871624469757080078125" lon="-1.1426701582968235015869140625">
        <ele>948.20001220703125</ele>
        <time>2022-05-05T13:16:26.000Z</time>
      </trkpt>
      <trkpt lat="40.37876953370869159698486328125" lon="-1.14245180971920490264892578125">
        <ele>948.5999755859375</ele>
        <time>2022-05-05T13:16:31.000Z</time>
      </trkpt>
      <trkpt lat="40.37875394336879253387451171875" lon="-1.142227761447429656982421875">
        <ele>949.20001220703125</ele>
        <time>2022-05-05T13:16:38.000Z</time>
      </trkpt>
      <trkpt lat="40.3787362575531005859375" lon="-1.142200939357280731201171875">
        <ele>948.79998779296875</ele>
        <time>2022-05-05T13:16:42.000Z</time>
      </trkpt>
      <trkpt lat="40.37875830195844173431396484375" lon="-1.1422731913626194000244140625">
        <ele>949.20001220703125</ele>
        <time>2022-05-05T13:17:24.000Z</time>
      </trkpt>
      <trkpt lat="40.37879216484725475311279296875" lon="-1.14246035926043987274169921875">
        <ele>949</ele>
        <time>2022-05-05T13:17:29.000Z</time>
      </trkpt>
      <trkpt lat="40.37883340381085872650146484375" lon="-1.14283586852252483367919921875">
        <ele>948</ele>
        <time>2022-05-05T13:17:36.000Z</time>
      </trkpt>
      <trkpt lat="40.3788497485220432281494140625" lon="-1.1429947055876255035400390625">
        <ele>947.5999755859375</ele>
        <time>2022-05-05T13:17:39.000Z</time>
      </trkpt>
      <trkpt lat="40.3788691945374011993408203125" lon="-1.143108196556568145751953125">
        <ele>948</ele>
        <time>2022-05-05T13:17:42.000Z</time>
      </trkpt>
      <trkpt lat="40.37888570688664913177490234375" lon="-1.1433071829378604888916015625">
        <ele>947.20001220703125</ele>
        <time>2022-05-05T13:17:48.000Z</time>
      </trkpt>
      <trkpt lat="40.3788353316485881805419921875" lon="-1.14334297366440296173095703125">
        <ele>946.20001220703125</ele>
        <time>2022-05-05T13:17:51.000Z</time>
      </trkpt>
      <trkpt lat="40.37878830917179584503173828125" lon="-1.14323585294187068939208984375">
        <ele>946</ele>
        <time>2022-05-05T13:17:54.000Z</time>
      </trkpt>
      <trkpt lat="40.3787471540272235870361328125" lon="-1.1431070230901241302490234375">
        <ele>946</ele>
        <time>2022-05-05T13:17:56.000Z</time>
      </trkpt>
      <trkpt lat="40.37871656008064746856689453125" lon="-1.14304357208311557769775390625">
        <ele>945.79998779296875</ele>
        <time>2022-05-05T13:17:57.000Z</time>
      </trkpt>
      <trkpt lat="40.378686301410198211669921875" lon="-1.14297844469547271728515625">
        <ele>945.4000244140625</ele>
        <time>2022-05-05T13:17:58.000Z</time>
      </trkpt>
      <trkpt lat="40.37866056896746158599853515625" lon="-1.14291113801300525665283203125">
        <ele>945.4000244140625</ele>
        <time>2022-05-05T13:17:59.000Z</time>
      </trkpt>
      <trkpt lat="40.37860684096813201904296875" lon="-1.1427779495716094970703125">
        <ele>945</ele>
        <time>2022-05-05T13:18:01.000Z</time>
      </trkpt>
      <trkpt lat="40.3785748220980167388916015625" lon="-1.14271366037428379058837890625">
        <ele>944.5999755859375</ele>
        <time>2022-05-05T13:18:02.000Z</time>
      </trkpt>
      <trkpt lat="40.3785453177988529205322265625" lon="-1.14264559932053089141845703125">
        <ele>944.4000244140625</ele>
        <time>2022-05-05T13:18:03.000Z</time>
      </trkpt>
      <trkpt lat="40.3784913383424282073974609375" lon="-1.14250981248915195465087890625">
        <ele>944.4000244140625</ele>
        <time>2022-05-05T13:18:05.000Z</time>
      </trkpt>
      <trkpt lat="40.3784353472292423248291015625" lon="-1.14231971092522144317626953125">
        <ele>944.79998779296875</ele>
        <time>2022-05-05T13:18:08.000Z</time>
      </trkpt>
      <trkpt lat="40.378413386642932891845703125" lon="-1.142263300716876983642578125">
        <ele>944.5999755859375</ele>
        <time>2022-05-05T13:18:09.000Z</time>
      </trkpt>
      <trkpt lat="40.3783485107123851776123046875" lon="-1.1421062238514423370361328125">
        <ele>943.4000244140625</ele>
        <time>2022-05-05T13:18:12.000Z</time>
      </trkpt>
      <trkpt lat="40.37828975357115268707275390625" lon="-1.14202818833291530609130859375">
        <ele>942.5999755859375</ele>
        <time>2022-05-05T13:18:14.000Z</time>
      </trkpt>
      <trkpt lat="40.37825337611138820648193359375" lon="-1.14198761992156505584716796875">
        <ele>942</ele>
        <time>2022-05-05T13:18:15.000Z</time>
      </trkpt>
      <trkpt lat="40.37815799005329608917236328125" lon="-1.14191117696464061737060546875">
        <ele>942.4000244140625</ele>
        <time>2022-05-05T13:18:17.000Z</time>
      </trkpt>
      <trkpt lat="40.378102920949459075927734375" lon="-1.14187077619135379791259765625">
        <ele>942.5999755859375</ele>
        <time>2022-05-05T13:18:18.000Z</time>
      </trkpt>
      <trkpt lat="40.3779914416372776031494140625" lon="-1.1417719535529613494873046875">
        <ele>943.20001220703125</ele>
        <time>2022-05-05T13:18:20.000Z</time>
      </trkpt>
      <trkpt lat="40.37782958708703517913818359375" lon="-1.14159819670021533966064453125">
        <ele>942.5999755859375</ele>
        <time>2022-05-05T13:18:23.000Z</time>
      </trkpt>
      <trkpt lat="40.377778373658657073974609375" lon="-1.1415389366447925567626953125">
        <ele>941.79998779296875</ele>
        <time>2022-05-05T13:18:24.000Z</time>
      </trkpt>
      <trkpt lat="40.37752993404865264892578125" lon="-1.14122972823679447174072265625">
        <ele>937.79998779296875</ele>
        <time>2022-05-05T13:18:29.000Z</time>
      </trkpt>
      <trkpt lat="40.37742893211543560028076171875" lon="-1.1411191709339618682861328125">
        <ele>936.5999755859375</ele>
        <time>2022-05-05T13:18:31.000Z</time>
      </trkpt>
      <trkpt lat="40.377152748405933380126953125" lon="-1.14087081514298915863037109375">
        <ele>936.79998779296875</ele>
        <time>2022-05-05T13:18:36.000Z</time>
      </trkpt>
      <trkpt lat="40.37703800015151500701904296875" lon="-1.14077442325651645660400390625">
        <ele>937.4000244140625</ele>
        <time>2022-05-05T13:18:38.000Z</time>
      </trkpt>
      <trkpt lat="40.37697982974350452423095703125" lon="-1.14072312600910663604736328125">
        <ele>937.4000244140625</ele>
        <time>2022-05-05T13:18:39.000Z</time>
      </trkpt>
      <trkpt lat="40.37659577094018459320068359375" lon="-1.1403882689774036407470703125">
        <ele>933.5999755859375</ele>
        <time>2022-05-05T13:18:45.000Z</time>
      </trkpt>
      <trkpt lat="40.37645914591848850250244140625" lon="-1.14029749296605587005615234375">
        <ele>931.5999755859375</ele>
        <time>2022-05-05T13:18:47.000Z</time>
      </trkpt>
      <trkpt lat="40.3763331659138202667236328125" lon="-1.1402218043804168701171875">
        <ele>929.4000244140625</ele>
        <time>2022-05-05T13:18:49.000Z</time>
      </trkpt>
      <trkpt lat="40.376279354095458984375" lon="-1.14018131978809833526611328125">
        <ele>928.79998779296875</ele>
        <time>2022-05-05T13:18:50.000Z</time>
      </trkpt>
      <trkpt lat="40.376185141503810882568359375" lon="-1.14007688127458095550537109375">
        <ele>928.5999755859375</ele>
        <time>2022-05-05T13:18:52.000Z</time>
      </trkpt>
      <trkpt lat="40.376144237816333770751953125" lon="-1.1400157772004604339599609375">
        <ele>928.4000244140625</ele>
        <time>2022-05-05T13:18:53.000Z</time>
      </trkpt>
      <trkpt lat="40.376110710203647613525390625" lon="-1.1399473808705806732177734375">
        <ele>928.4000244140625</ele>
        <time>2022-05-05T13:18:54.000Z</time>
      </trkpt>
      <trkpt lat="40.37593745626509189605712890625" lon="-1.1396292038261890411376953125">
        <ele>928.79998779296875</ele>
        <time>2022-05-05T13:18:59.000Z</time>
      </trkpt>
      <trkpt lat="40.37581508047878742218017578125" lon="-1.1394466459751129150390625">
        <ele>930.20001220703125</ele>
        <time>2022-05-05T13:19:02.000Z</time>
      </trkpt>
      <trkpt lat="40.375780798494815826416015625" lon="-1.1393753997981548309326171875">
        <ele>930</ele>
        <time>2022-05-05T13:19:03.000Z</time>
      </trkpt>
      <trkpt lat="40.37557099945843219757080078125" lon="-1.13887927494943141937255859375">
        <ele>929.5999755859375</ele>
        <time>2022-05-05T13:19:10.000Z</time>
      </trkpt>
      <trkpt lat="40.37535876967012882232666015625" lon="-1.138502173125743865966796875">
        <ele>931.79998779296875</ele>
        <time>2022-05-05T13:19:16.000Z</time>
      </trkpt>
      <trkpt lat="40.37510077469050884246826171875" lon="-1.138198412954807281494140625">
        <ele>930.5999755859375</ele>
        <time>2022-05-05T13:19:22.000Z</time>
      </trkpt>
      <trkpt lat="40.37478762678802013397216796875" lon="-1.13787881098687648773193359375">
        <ele>927.20001220703125</ele>
        <time>2022-05-05T13:19:29.000Z</time>
      </trkpt>
      <trkpt lat="40.37465603090822696685791015625" lon="-1.13775291480123996734619140625">
        <ele>927</ele>
        <time>2022-05-05T13:19:33.000Z</time>
      </trkpt>
      <trkpt lat="40.37454069592058658599853515625" lon="-1.1376742087304592132568359375">
        <ele>927</ele>
        <time>2022-05-05T13:19:36.000Z</time>
      </trkpt>
      <trkpt lat="40.3742839582264423370361328125" lon="-1.13751453347504138946533203125">
        <ele>926.79998779296875</ele>
        <time>2022-05-05T13:19:42.000Z</time>
      </trkpt>
      <trkpt lat="40.37424196489155292510986328125" lon="-1.1374918185174465179443359375">
        <ele>926.5999755859375</ele>
        <time>2022-05-05T13:19:43.000Z</time>
      </trkpt>
      <trkpt lat="40.37405990995466709136962890625" lon="-1.13739073276519775390625">
        <ele>925.5999755859375</ele>
        <time>2022-05-05T13:19:48.000Z</time>
      </trkpt>
      <trkpt lat="40.374023951590061187744140625" lon="-1.13736684434115886688232421875">
        <ele>925.4000244140625</ele>
        <time>2022-05-05T13:19:49.000Z</time>
      </trkpt>
      <trkpt lat="40.3739203512668609619140625" lon="-1.137290485203266143798828125">
        <ele>925</ele>
        <time>2022-05-05T13:19:52.000Z</time>
      </trkpt>
      <trkpt lat="40.3738883323967456817626953125" lon="-1.137256957590579986572265625">
        <ele>924.79998779296875</ele>
        <time>2022-05-05T13:19:53.000Z</time>
      </trkpt>
      <trkpt lat="40.37370652891695499420166015625" lon="-1.1370703764259815216064453125">
        <ele>925</ele>
        <time>2022-05-05T13:19:59.000Z</time>
      </trkpt>
      <trkpt lat="40.37352447398006916046142578125" lon="-1.1367904208600521087646484375">
        <ele>926.20001220703125</ele>
        <time>2022-05-05T13:20:07.000Z</time>
      </trkpt>
      <trkpt lat="40.37350335158407688140869140625" lon="-1.13675664179027080535888671875">
        <ele>926.4000244140625</ele>
        <time>2022-05-05T13:20:08.000Z</time>
      </trkpt>
      <trkpt lat="40.37337309680879116058349609375" lon="-1.13650820218026638031005859375">
        <ele>925</ele>
        <time>2022-05-05T13:20:14.000Z</time>
      </trkpt>
      <trkpt lat="40.3733344562351703643798828125" lon="-1.1363984830677509307861328125">
        <ele>924.5999755859375</ele>
        <time>2022-05-05T13:20:16.000Z</time>
      </trkpt>
      <trkpt lat="40.37332565523684024810791015625" lon="-1.1362694017589092254638671875">
        <ele>924.79998779296875</ele>
        <time>2022-05-05T13:20:18.000Z</time>
      </trkpt>
      <trkpt lat="40.3733522258698940277099609375" lon="-1.13612405955791473388671875">
        <ele>925.5999755859375</ele>
        <time>2022-05-05T13:20:20.000Z</time>
      </trkpt>
      <trkpt lat="40.3733917884528636932373046875" lon="-1.13597947172820568084716796875">
        <ele>926.5999755859375</ele>
        <time>2022-05-05T13:20:22.000Z</time>
      </trkpt>
      <trkpt lat="40.3734062053263187408447265625" lon="-1.13590319640934467315673828125">
        <ele>927</ele>
        <time>2022-05-05T13:20:23.000Z</time>
      </trkpt>
      <trkpt lat="40.3734155930578708648681640625" lon="-1.135671101510524749755859375">
        <ele>927.5999755859375</ele>
        <time>2022-05-05T13:20:26.000Z</time>
      </trkpt>
      <trkpt lat="40.37339933216571807861328125" lon="-1.13553531467914581298828125">
        <ele>927.4000244140625</ele>
        <time>2022-05-05T13:20:28.000Z</time>
      </trkpt>
      <trkpt lat="40.37337812595069408416748046875" lon="-1.13532836548984050750732421875">
        <ele>926.20001220703125</ele>
        <time>2022-05-05T13:20:31.000Z</time>
      </trkpt>
      <trkpt lat="40.3733525611460208892822265625" lon="-1.134922765195369720458984375">
        <ele>925.4000244140625</ele>
        <time>2022-05-05T13:20:36.000Z</time>
      </trkpt>
      <trkpt lat="40.3732216358184814453125" lon="-1.1346642673015594482421875">
        <ele>923.5999755859375</ele>
        <time>2022-05-05T13:20:40.000Z</time>
      </trkpt>
      <trkpt lat="40.37310420535504817962646484375" lon="-1.1344696395099163055419921875">
        <ele>922</ele>
        <time>2022-05-05T13:20:44.000Z</time>
      </trkpt>
      <trkpt lat="40.37308207713067531585693359375" lon="-1.1342637799680233001708984375">
        <ele>921.5999755859375</ele>
        <time>2022-05-05T13:20:47.000Z</time>
      </trkpt>
      <trkpt lat="40.37309196777641773223876953125" lon="-1.13410427235066890716552734375">
        <ele>921.4000244140625</ele>
        <time>2022-05-05T13:20:49.000Z</time>
      </trkpt>
      <trkpt lat="40.37309532053768634796142578125" lon="-1.1340220458805561065673828125">
        <ele>921.4000244140625</ele>
        <time>2022-05-05T13:20:50.000Z</time>
      </trkpt>
      <trkpt lat="40.373081155121326446533203125" lon="-1.133855246007442474365234375">
        <ele>920.5999755859375</ele>
        <time>2022-05-05T13:20:52.000Z</time>
      </trkpt>
      <trkpt lat="40.37299691699445247650146484375" lon="-1.13359649665653705596923828125">
        <ele>919.5999755859375</ele>
        <time>2022-05-05T13:20:56.000Z</time>
      </trkpt>
      <trkpt lat="40.37297545932233333587646484375" lon="-1.133537404239177703857421875">
        <ele>919.4000244140625</ele>
        <time>2022-05-05T13:20:57.000Z</time>
      </trkpt>
      <trkpt lat="40.372917540371417999267578125" lon="-1.13337320275604724884033203125">
        <ele>918.79998779296875</ele>
        <time>2022-05-05T13:21:00.000Z</time>
      </trkpt>
      <trkpt lat="40.372897423803806304931640625" lon="-1.133244037628173828125">
        <ele>918.5999755859375</ele>
        <time>2022-05-05T13:21:02.000Z</time>
      </trkpt>
      <trkpt lat="40.37293053232133388519287109375" lon="-1.13305561244487762451171875">
        <ele>918.5999755859375</ele>
        <time>2022-05-05T13:21:05.000Z</time>
      </trkpt>
      <trkpt lat="40.37295400165021419525146484375" lon="-1.13300523720681667327880859375">
        <ele>918.5999755859375</ele>
        <time>2022-05-05T13:21:06.000Z</time>
      </trkpt>
      <trkpt lat="40.37301267497241497039794921875" lon="-1.1329166404902935028076171875">
        <ele>918.4000244140625</ele>
        <time>2022-05-05T13:21:08.000Z</time>
      </trkpt>
      <trkpt lat="40.37307369522750377655029296875" lon="-1.132829301059246063232421875">
        <ele>918.4000244140625</ele>
        <time>2022-05-05T13:21:10.000Z</time>
      </trkpt>
      <trkpt lat="40.37312448956072330474853515625" lon="-1.132726036012172698974609375">
        <ele>918.20001220703125</ele>
        <time>2022-05-05T13:21:12.000Z</time>
      </trkpt>
      <trkpt lat="40.3731398284435272216796875" lon="-1.13260039128363132476806640625">
        <ele>917.79998779296875</ele>
        <time>2022-05-05T13:21:14.000Z</time>
      </trkpt>
      <trkpt lat="40.37307403050363063812255859375" lon="-1.13245404325425624847412109375">
        <ele>917</ele>
        <time>2022-05-05T13:21:17.000Z</time>
      </trkpt>
      <trkpt lat="40.37299297749996185302734375" lon="-1.13238547928631305694580078125">
        <ele>916.4000244140625</ele>
        <time>2022-05-05T13:21:20.000Z</time>
      </trkpt>
      <trkpt lat="40.3729532472789287567138671875" lon="-1.13234750926494598388671875">
        <ele>916.20001220703125</ele>
        <time>2022-05-05T13:21:22.000Z</time>
      </trkpt>
      <trkpt lat="40.37292583845555782318115234375" lon="-1.13232747651636600494384765625">
        <ele>916</ele>
        <time>2022-05-05T13:21:26.000Z</time>
      </trkpt>
      <trkpt lat="40.37289784289896488189697265625" lon="-1.13230752758681774139404296875">
        <ele>916</ele>
        <time>2022-05-05T13:21:39.000Z</time>
      </trkpt>
      <trkpt lat="40.37284838967025279998779296875" lon="-1.13229327835142612457275390625">
        <ele>915.79998779296875</ele>
        <time>2022-05-05T13:21:41.000Z</time>
      </trkpt>
      <trkpt lat="40.37277437746524810791015625" lon="-1.1322940327227115631103515625">
        <ele>915.79998779296875</ele>
        <time>2022-05-05T13:21:43.000Z</time>
      </trkpt>
      <trkpt lat="40.37263884209096431732177734375" lon="-1.13231825642287731170654296875">
        <ele>915.5999755859375</ele>
        <time>2022-05-05T13:21:46.000Z</time>
      </trkpt>
      <trkpt lat="40.3725901432335376739501953125" lon="-1.13233418203890323638916015625">
        <ele>915.5999755859375</ele>
        <time>2022-05-05T13:21:47.000Z</time>
      </trkpt>
      <trkpt lat="40.37239761091768741607666015625" lon="-1.13245387561619281768798828125">
        <ele>915.4000244140625</ele>
        <time>2022-05-05T13:21:51.000Z</time>
      </trkpt>
      <trkpt lat="40.37230071611702442169189453125" lon="-1.13253635354340076446533203125">
        <ele>915.20001220703125</ele>
        <time>2022-05-05T13:21:53.000Z</time>
      </trkpt>
      <trkpt lat="40.37205512635409832000732421875" lon="-1.1327704600989818572998046875">
        <ele>914.79998779296875</ele>
        <time>2022-05-05T13:21:58.000Z</time>
      </trkpt>
      <trkpt lat="40.371860079467296600341796875" lon="-1.132966093719005584716796875">
        <ele>914.5999755859375</ele>
        <time>2022-05-05T13:22:02.000Z</time>
      </trkpt>
      <trkpt lat="40.371672995388507843017578125" lon="-1.133145801723003387451171875">
        <ele>914.4000244140625</ele>
        <time>2022-05-05T13:22:06.000Z</time>
      </trkpt>
      <trkpt lat="40.3713747672736644744873046875" lon="-1.13340958021581172943115234375">
        <ele>914.4000244140625</ele>
        <time>2022-05-05T13:22:13.000Z</time>
      </trkpt>
      <trkpt lat="40.37123990245163440704345703125" lon="-1.13350488245487213134765625">
        <ele>914.5999755859375</ele>
        <time>2022-05-05T13:22:18.000Z</time>
      </trkpt>
      <trkpt lat="40.371228754520416259765625" lon="-1.1335109174251556396484375">
        <ele>914.5999755859375</ele>
        <time>2022-05-05T13:22:20.000Z</time>
      </trkpt>
      <trkpt lat="40.371239148080348968505859375" lon="-1.133465655148029327392578125">
        <ele>914.5999755859375</ele>
        <time>2022-05-05T13:22:27.000Z</time>
      </trkpt>
      <trkpt lat="40.3712597675621509552001953125" lon="-1.13344344310462474822998046875">
        <ele>914.4000244140625</ele>
        <time>2022-05-05T13:22:28.000Z</time>
      </trkpt>
      <trkpt lat="40.3714106418192386627197265625" lon="-1.133321486413478851318359375">
        <ele>914.4000244140625</ele>
        <time>2022-05-05T13:22:32.000Z</time>
      </trkpt>
      <trkpt lat="40.37159697152674198150634765625" lon="-1.13314571790397167205810546875">
        <ele>914.4000244140625</ele>
        <time>2022-05-05T13:22:37.000Z</time>
      </trkpt>
      <trkpt lat="40.3718243725597858428955078125" lon="-1.13293684087693691253662109375">
        <ele>914.5999755859375</ele>
        <time>2022-05-05T13:22:45.000Z</time>
      </trkpt>
      <trkpt lat="40.37207893095910549163818359375" lon="-1.13268823362886905670166015625">
        <ele>915</ele>
        <time>2022-05-05T13:22:54.000Z</time>
      </trkpt>
      <trkpt lat="40.37228261120617389678955078125" lon="-1.1324955336749553680419921875">
        <ele>915.20001220703125</ele>
        <time>2022-05-05T13:23:01.000Z</time>
      </trkpt>
      <trkpt lat="40.3724191524088382720947265625" lon="-1.132386066019535064697265625">
        <ele>915.4000244140625</ele>
        <time>2022-05-05T13:23:06.000Z</time>
      </trkpt>
      <trkpt lat="40.372506491839885711669921875" lon="-1.1323268897831439971923828125">
        <ele>915.4000244140625</ele>
        <time>2022-05-05T13:23:09.000Z</time>
      </trkpt>
      <trkpt lat="40.37270304746925830841064453125" lon="-1.1322095431387424468994140625">
        <ele>915.5999755859375</ele>
        <time>2022-05-05T13:23:16.000Z</time>
      </trkpt>
      <trkpt lat="40.37275300361216068267822265625" lon="-1.13217526115477085113525390625">
        <ele>915.4000244140625</ele>
        <time>2022-05-05T13:23:18.000Z</time>
      </trkpt>
      <trkpt lat="40.37289918400347232818603515625" lon="-1.13205037079751491546630859375">
        <ele>915.4000244140625</ele>
        <time>2022-05-05T13:23:23.000Z</time>
      </trkpt>
      <trkpt lat="40.37293287925422191619873046875" lon="-1.1320088803768157958984375">
        <ele>915.4000244140625</ele>
        <time>2022-05-05T13:23:24.000Z</time>
      </trkpt>
      <trkpt lat="40.37302508018910884857177734375" lon="-1.13181450404226779937744140625">
        <ele>915</ele>
        <time>2022-05-05T13:23:27.000Z</time>
      </trkpt>
      <trkpt lat="40.3730494715273380279541015625" lon="-1.13173671998083591461181640625">
        <ele>914.79998779296875</ele>
        <time>2022-05-05T13:23:28.000Z</time>
      </trkpt>
      <trkpt lat="40.373063720762729644775390625" lon="-1.1316563375294208526611328125">
        <ele>914.79998779296875</ele>
        <time>2022-05-05T13:23:29.000Z</time>
      </trkpt>
      <trkpt lat="40.37305726669728755950927734375" lon="-1.13150873221457004547119140625">
        <ele>914.4000244140625</ele>
        <time>2022-05-05T13:23:31.000Z</time>
      </trkpt>
      <trkpt lat="40.3729522414505481719970703125" lon="-1.1312603764235973358154296875">
        <ele>915</ele>
        <time>2022-05-05T13:23:35.000Z</time>
      </trkpt>
      <trkpt lat="40.372752584517002105712890625" lon="-1.13111226819455623626708984375">
        <ele>915.5999755859375</ele>
        <time>2022-05-05T13:23:39.000Z</time>
      </trkpt>
      <trkpt lat="40.37264705635607242584228515625" lon="-1.13104772754013538360595703125">
        <ele>916</ele>
        <time>2022-05-05T13:23:41.000Z</time>
      </trkpt>
      <trkpt lat="40.37251110188663005828857421875" lon="-1.13091512583196163177490234375">
        <ele>915.79998779296875</ele>
        <time>2022-05-05T13:23:44.000Z</time>
      </trkpt>
      <trkpt lat="40.372421331703662872314453125" lon="-1.130832396447658538818359375">
        <ele>915.4000244140625</ele>
        <time>2022-05-05T13:23:46.000Z</time>
      </trkpt>
      <trkpt lat="40.37227875553071498870849609375" lon="-1.130751930177211761474609375">
        <ele>914.5999755859375</ele>
        <time>2022-05-05T13:23:49.000Z</time>
      </trkpt>
      <trkpt lat="40.3722330741584300994873046875" lon="-1.1307390220463275909423828125">
        <ele>914.4000244140625</ele>
        <time>2022-05-05T13:23:50.000Z</time>
      </trkpt>
      <trkpt lat="40.3721876442432403564453125" lon="-1.13073072396218776702880859375">
        <ele>914.20001220703125</ele>
        <time>2022-05-05T13:23:51.000Z</time>
      </trkpt>
      <trkpt lat="40.37209846079349517822265625" lon="-1.1307321488857269287109375">
        <ele>913.79998779296875</ele>
        <time>2022-05-05T13:23:53.000Z</time>
      </trkpt>
      <trkpt lat="40.37201263010501861572265625" lon="-1.13073281943798065185546875">
        <ele>913.5999755859375</ele>
        <time>2022-05-05T13:23:55.000Z</time>
      </trkpt>
      <trkpt lat="40.371885560452938079833984375" lon="-1.1307256110012531280517578125">
        <ele>913.79998779296875</ele>
        <time>2022-05-05T13:23:58.000Z</time>
      </trkpt>
      <trkpt lat="40.37180207669734954833984375" lon="-1.1306997947394847869873046875">
        <ele>913.79998779296875</ele>
        <time>2022-05-05T13:24:00.000Z</time>
      </trkpt>
      <trkpt lat="40.37176293320953845977783203125" lon="-1.13067305646836757659912109375">
        <ele>913.79998779296875</ele>
        <time>2022-05-05T13:24:01.000Z</time>
      </trkpt>
      <trkpt lat="40.37162211723625659942626953125" lon="-1.130527295172214508056640625">
        <ele>914.4000244140625</ele>
        <time>2022-05-05T13:24:05.000Z</time>
      </trkpt>
      <trkpt lat="40.371561683714389801025390625" lon="-1.13045495934784412384033203125">
        <ele>914.79998779296875</ele>
        <time>2022-05-05T13:24:07.000Z</time>
      </trkpt>
      <trkpt lat="40.37144609726965427398681640625" lon="-1.1303289793431758880615234375">
        <ele>915.20001220703125</ele>
        <time>2022-05-05T13:24:11.000Z</time>
      </trkpt>
      <trkpt lat="40.371369905769824981689453125" lon="-1.13022529520094394683837890625">
        <ele>915.4000244140625</ele>
        <time>2022-05-05T13:24:14.000Z</time>
      </trkpt>
      <trkpt lat="40.3713147528469562530517578125" lon="-1.13015505485236644744873046875">
        <ele>915.5999755859375</ele>
        <time>2022-05-05T13:24:16.000Z</time>
      </trkpt>
      <trkpt lat="40.3711898624897003173828125" lon="-1.130008958280086517333984375">
        <ele>915.79998779296875</ele>
        <time>2022-05-05T13:24:21.000Z</time>
      </trkpt>
      <trkpt lat="40.37117041647434234619140625" lon="-1.129980124533176422119140625">
        <ele>915.79998779296875</ele>
        <time>2022-05-05T13:24:22.000Z</time>
      </trkpt>
      <trkpt lat="40.37104527465999126434326171875" lon="-1.12975909374654293060302734375">
        <ele>916</ele>
        <time>2022-05-05T13:24:28.000Z</time>
      </trkpt>
      <trkpt lat="40.3710307739675045013427734375" lon="-1.12970896996557712554931640625">
        <ele>916</ele>
        <time>2022-05-05T13:24:29.000Z</time>
      </trkpt>
      <trkpt lat="40.37098945118486881256103515625" lon="-1.12935475073754787445068359375">
        <ele>915.79998779296875</ele>
        <time>2022-05-05T13:24:35.000Z</time>
      </trkpt>
      <trkpt lat="40.3709878586232662200927734375" lon="-1.12927814014256000518798828125">
        <ele>915.79998779296875</ele>
        <time>2022-05-05T13:24:36.000Z</time>
      </trkpt>
      <trkpt lat="40.37097319029271602630615234375" lon="-1.12892945297062397003173828125">
        <ele>915</ele>
        <time>2022-05-05T13:24:40.000Z</time>
      </trkpt>
      <trkpt lat="40.37096162326633930206298828125" lon="-1.128615550696849822998046875">
        <ele>913.4000244140625</ele>
        <time>2022-05-05T13:24:43.000Z</time>
      </trkpt>
      <trkpt lat="40.37093614228069782257080078125" lon="-1.1283937655389308929443359375">
        <ele>912.4000244140625</ele>
        <time>2022-05-05T13:24:45.000Z</time>
      </trkpt>
      <trkpt lat="40.37084628827869892120361328125" lon="-1.12811842001974582672119140625">
        <ele>911.4000244140625</ele>
        <time>2022-05-05T13:24:48.000Z</time>
      </trkpt>
      <trkpt lat="40.370818041265010833740234375" lon="-1.128031499683856964111328125">
        <ele>911.20001220703125</ele>
        <time>2022-05-05T13:24:49.000Z</time>
      </trkpt>
      <trkpt lat="40.37078744731843471527099609375" lon="-1.127859167754650115966796875">
        <ele>910.79998779296875</ele>
        <time>2022-05-05T13:24:51.000Z</time>
      </trkpt>
      <trkpt lat="40.37077990360558032989501953125" lon="-1.127700917422771453857421875">
        <ele>911</ele>
        <time>2022-05-05T13:24:53.000Z</time>
      </trkpt>
      <trkpt lat="40.370778143405914306640625" lon="-1.127494387328624725341796875">
        <ele>911.4000244140625</ele>
        <time>2022-05-05T13:24:57.000Z</time>
      </trkpt>
      <trkpt lat="40.3707806579768657684326171875" lon="-1.127448789775371551513671875">
        <ele>911.5999755859375</ele>
        <time>2022-05-05T13:24:59.000Z</time>
      </trkpt>
      <trkpt lat="40.3707816638052463531494140625" lon="-1.12743596546351909637451171875">
        <ele>911.5999755859375</ele>
        <time>2022-05-05T13:25:01.000Z</time>
      </trkpt>
      <trkpt lat="40.37078015506267547607421875" lon="-1.1274281702935695648193359375">
        <ele>911.5999755859375</ele>
        <time>2022-05-05T13:25:02.000Z</time>
      </trkpt>
      <trkpt lat="40.3707840107381343841552734375" lon="-1.12741031683981418609619140625">
        <ele>911.5999755859375</ele>
        <time>2022-05-05T13:25:03.000Z</time>
      </trkpt>
      <trkpt lat="40.37078015506267547607421875" lon="-1.12737142480909824371337890625">
        <ele>911.79998779296875</ele>
        <time>2022-05-05T13:25:06.000Z</time>
      </trkpt>
      <trkpt lat="40.37077755667269229888916015625" lon="-1.12734317779541015625">
        <ele>911.79998779296875</ele>
        <time>2022-05-05T13:25:08.000Z</time>
      </trkpt>
      <trkpt lat="40.370763726532459259033203125" lon="-1.12726279534399509429931640625">
        <ele>912</ele>
        <time>2022-05-05T13:25:13.000Z</time>
      </trkpt>
      <trkpt lat="40.37074989639222621917724609375" lon="-1.12721644341945648193359375">
        <ele>912</ele>
        <time>2022-05-05T13:25:16.000Z</time>
      </trkpt>
      <trkpt lat="40.3707333840429782867431640625" lon="-1.12715953029692173004150390625">
        <ele>912</ele>
        <time>2022-05-05T13:25:22.000Z</time>
      </trkpt>
      <trkpt lat="40.370684601366519927978515625" lon="-1.12705240957438945770263671875">
        <ele>912</ele>
        <time>2022-05-05T13:25:27.000Z</time>
      </trkpt>
      <trkpt lat="40.37057437933981418609619140625" lon="-1.126849316060543060302734375">
        <ele>912.79998779296875</ele>
        <time>2022-05-05T13:25:33.000Z</time>
      </trkpt>
      <trkpt lat="40.370365418493747711181640625" lon="-1.12646249122917652130126953125">
        <ele>914.20001220703125</ele>
        <time>2022-05-05T13:25:42.000Z</time>
      </trkpt>
      <trkpt lat="40.37027531303465366363525390625" lon="-1.1263274587690830230712890625">
        <ele>914.79998779296875</ele>
        <time>2022-05-05T13:25:46.000Z</time>
      </trkpt>
      <trkpt lat="40.3702296316623687744140625" lon="-1.126253865659236907958984375">
        <ele>915.20001220703125</ele>
        <time>2022-05-05T13:25:48.000Z</time>
      </trkpt>
      <trkpt lat="40.37008521147072315216064453125" lon="-1.125997714698314666748046875">
        <ele>916</ele>
        <time>2022-05-05T13:25:56.000Z</time>
      </trkpt>
      <trkpt lat="40.36999183706939220428466796875" lon="-1.1258134804666042327880859375">
        <ele>915.79998779296875</ele>
        <time>2022-05-05T13:26:00.000Z</time>
      </trkpt>
      <trkpt lat="40.36995579488575458526611328125" lon="-1.1257621832191944122314453125">
        <ele>915.79998779296875</ele>
        <time>2022-05-05T13:26:01.000Z</time>
      </trkpt>
      <trkpt lat="40.36980383098125457763671875" lon="-1.12564777024090290069580078125">
        <ele>915.79998779296875</ele>
        <time>2022-05-05T13:26:04.000Z</time>
      </trkpt>
      <trkpt lat="40.3697495162487030029296875" lon="-1.12560669891536235809326171875">
        <ele>915.79998779296875</ele>
        <time>2022-05-05T13:26:05.000Z</time>
      </trkpt>
      <trkpt lat="40.3696474246680736541748046875" lon="-1.12550921738147735595703125">
        <ele>916</ele>
        <time>2022-05-05T13:26:07.000Z</time>
      </trkpt>
      <trkpt lat="40.36947249434888362884521484375" lon="-1.12528030760586261749267578125">
        <ele>914.4000244140625</ele>
        <time>2022-05-05T13:26:11.000Z</time>
      </trkpt>
      <trkpt lat="40.36924953572452068328857421875" lon="-1.1248971708118915557861328125">
        <ele>912.5999755859375</ele>
        <time>2022-05-05T13:26:17.000Z</time>
      </trkpt>
      <trkpt lat="40.36914224736392498016357421875" lon="-1.12463884055614471435546875">
        <ele>912</ele>
        <time>2022-05-05T13:26:20.000Z</time>
      </trkpt>
      <trkpt lat="40.369061194360256195068359375" lon="-1.12445116974413394927978515625">
        <ele>911.5999755859375</ele>
        <time>2022-05-05T13:26:22.000Z</time>
      </trkpt>
      <trkpt lat="40.3689644671976566314697265625" lon="-1.12416132353246212005615234375">
        <ele>911.5999755859375</ele>
        <time>2022-05-05T13:26:25.000Z</time>
      </trkpt>
      <trkpt lat="40.36894342862069606781005859375" lon="-1.12397189252078533172607421875">
        <ele>911.79998779296875</ele>
        <time>2022-05-05T13:26:27.000Z</time>
      </trkpt>
      <trkpt lat="40.3689456917345523834228515625" lon="-1.1237827129662036895751953125">
        <ele>911.5999755859375</ele>
        <time>2022-05-05T13:26:30.000Z</time>
      </trkpt>
      <trkpt lat="40.3689748607575893402099609375" lon="-1.12368774600327014923095703125">
        <ele>912</ele>
        <time>2022-05-05T13:26:33.000Z</time>
      </trkpt>
      <trkpt lat="40.36898282356560230255126953125" lon="-1.1236794479191303253173828125">
        <ele>912</ele>
        <time>2022-05-05T13:26:34.000Z</time>
      </trkpt>
      <trkpt lat="40.36898382939398288726806640625" lon="-1.123685650527477264404296875">
        <ele>912</ele>
        <time>2022-05-05T13:26:36.000Z</time>
      </trkpt>
      <trkpt lat="40.3689808957278728485107421875" lon="-1.12375010736286640167236328125">
        <ele>911.79998779296875</ele>
        <time>2022-05-05T13:26:40.000Z</time>
      </trkpt>
      <trkpt lat="40.368976704776287078857421875" lon="-1.1238040030002593994140625">
        <ele>911.79998779296875</ele>
        <time>2022-05-05T13:26:42.000Z</time>
      </trkpt>
      <trkpt lat="40.3689705021679401397705078125" lon="-1.12403525970876216888427734375">
        <ele>912</ele>
        <time>2022-05-05T13:26:47.000Z</time>
      </trkpt>
      <trkpt lat="40.36900696344673633575439453125" lon="-1.12431555055081844329833984375">
        <ele>911.4000244140625</ele>
        <time>2022-05-05T13:26:53.000Z</time>
      </trkpt>
      <trkpt lat="40.36902741529047489166259765625" lon="-1.12450598739087581634521484375">
        <ele>911.20001220703125</ele>
        <time>2022-05-05T13:26:57.000Z</time>
      </trkpt>
      <trkpt lat="40.36903462372720241546630859375" lon="-1.1245669238269329071044921875">
        <ele>911.20001220703125</ele>
        <time>2022-05-05T13:26:58.000Z</time>
      </trkpt>
      <trkpt lat="40.369040407240390777587890625" lon="-1.12463238649070262908935546875">
        <ele>911</ele>
        <time>2022-05-05T13:26:59.000Z</time>
      </trkpt>
      <trkpt lat="40.3690667264163494110107421875" lon="-1.12486858852207660675048828125">
        <ele>911</ele>
        <time>2022-05-05T13:27:02.000Z</time>
      </trkpt>
      <trkpt lat="40.36906890571117401123046875" lon="-1.12491284497082233428955078125">
        <ele>911</ele>
        <time>2022-05-05T13:27:04.000Z</time>
      </trkpt>
      <trkpt lat="40.36906354129314422607421875" lon="-1.12494436092674732208251953125">
        <ele>911</ele>
        <time>2022-05-05T13:27:05.000Z</time>
      </trkpt>
      <trkpt lat="40.36902808584272861480712890625" lon="-1.124969758093357086181640625">
        <ele>910.5999755859375</ele>
        <time>2022-05-05T13:27:07.000Z</time>
      </trkpt>
      <trkpt lat="40.368975363671779632568359375" lon="-1.124914102256298065185546875">
        <ele>910.20001220703125</ele>
        <time>2022-05-05T13:27:11.000Z</time>
      </trkpt>
      <trkpt lat="40.3689634613692760467529296875" lon="-1.12487227655947208404541015625">
        <ele>910.20001220703125</ele>
        <time>2022-05-05T13:27:12.000Z</time>
      </trkpt>
      <trkpt lat="40.368953905999660491943359375" lon="-1.12482927739620208740234375">
        <ele>910.20001220703125</ele>
        <time>2022-05-05T13:27:17.000Z</time>
      </trkpt>
      <trkpt lat="40.36893119104206562042236328125" lon="-1.1247374117374420166015625">
        <ele>910</ele>
        <time>2022-05-05T13:28:07.000Z</time>
      </trkpt>
      <trkpt lat="40.3689027763903141021728515625" lon="-1.12467966042459011077880859375">
        <ele>909.79998779296875</ele>
        <time>2022-05-05T13:28:10.000Z</time>
      </trkpt>
      <trkpt lat="40.3687907941639423370361328125" lon="-1.12452442757785320281982421875">
        <ele>909.4000244140625</ele>
        <time>2022-05-05T13:28:18.000Z</time>
      </trkpt>
      <trkpt lat="40.36871108226478099822998046875" lon="-1.1244405247271060943603515625">
        <ele>908.79998779296875</ele>
        <time>2022-05-05T13:28:23.000Z</time>
      </trkpt>
      <trkpt lat="40.368551909923553466796875" lon="-1.12429878674447536468505859375">
        <ele>907.5999755859375</ele>
        <time>2022-05-05T13:28:29.000Z</time>
      </trkpt>
      <trkpt lat="40.3684236668050289154052734375" lon="-1.12420205958187580108642578125">
        <ele>907</ele>
        <time>2022-05-05T13:28:32.000Z</time>
      </trkpt>
      <trkpt lat="40.36834512837231159210205078125" lon="-1.1241394467651844024658203125">
        <ele>907</ele>
        <time>2022-05-05T13:28:34.000Z</time>
      </trkpt>
      <trkpt lat="40.36834512837231159210205078125" lon="-1.1241394467651844024658203125">
        <ele>907</ele>
        <time>2022-05-05T13:28:35.000Z</time>
      </trkpt>
      <trkpt lat="40.36814354360103607177734375" lon="-1.12396485172212123870849609375">
        <ele>906.79998779296875</ele>
        <time>2022-05-05T13:28:40.000Z</time>
      </trkpt>
      <trkpt lat="40.3680763207376003265380859375" lon="-1.123838536441326141357421875">
        <ele>906.79998779296875</ele>
        <time>2022-05-05T13:28:43.000Z</time>
      </trkpt>
      <trkpt lat="40.36805729381740093231201171875" lon="-1.12368355505168437957763671875">
        <ele>907.4000244140625</ele>
        <time>2022-05-05T13:28:46.000Z</time>
      </trkpt>
      <trkpt lat="40.3680793382227420806884765625" lon="-1.12359118647873401641845703125">
        <ele>908</ele>
        <time>2022-05-05T13:28:48.000Z</time>
      </trkpt>
      <trkpt lat="40.36809786222875118255615234375" lon="-1.12355682067573070526123046875">
        <ele>908.20001220703125</ele>
        <time>2022-05-05T13:28:50.000Z</time>
      </trkpt>
      <trkpt lat="40.36810037679970264434814453125" lon="-1.12355547957122325897216796875">
        <ele>908.20001220703125</ele>
        <time>2022-05-05T13:28:53.000Z</time>
      </trkpt>
      <trkpt lat="40.3680950962007045745849609375" lon="-1.1236408911645412445068359375">
        <ele>907.79998779296875</ele>
        <time>2022-05-05T13:28:59.000Z</time>
      </trkpt>
      <trkpt lat="40.36807439289987087249755859375" lon="-1.1237086169421672821044921875">
        <ele>907.4000244140625</ele>
        <time>2022-05-05T13:29:00.000Z</time>
      </trkpt>
      <trkpt lat="40.36801278591156005859375" lon="-1.1237967945635318756103515625">
        <ele>906.79998779296875</ele>
        <time>2022-05-05T13:29:04.000Z</time>
      </trkpt>
      <trkpt lat="40.36801278591156005859375" lon="-1.1237967945635318756103515625">
        <ele>906.79998779296875</ele>
        <time>2022-05-05T13:29:05.000Z</time>
      </trkpt>
      <trkpt lat="40.36783031187951564788818359375" lon="-1.12385253421962261199951171875">
        <ele>905.4000244140625</ele>
        <time>2022-05-05T13:29:10.000Z</time>
      </trkpt>
      <trkpt lat="40.36783031187951564788818359375" lon="-1.12385253421962261199951171875">
        <ele>905.4000244140625</ele>
        <time>2022-05-05T13:29:11.000Z</time>
      </trkpt>
      <trkpt lat="40.36756460554897785186767578125" lon="-1.1238752491772174835205078125">
        <ele>903.4000244140625</ele>
        <time>2022-05-05T13:29:18.000Z</time>
      </trkpt>
      <trkpt lat="40.36737869493663311004638671875" lon="-1.1237557232379913330078125">
        <ele>902.5999755859375</ele>
        <time>2022-05-05T13:29:24.000Z</time>
      </trkpt>
      <trkpt lat="40.367226898670196533203125" lon="-1.1236509494483470916748046875">
        <ele>903</ele>
        <time>2022-05-05T13:29:28.000Z</time>
      </trkpt>
      <trkpt lat="40.36714576184749603271484375" lon="-1.123612560331821441650390625">
        <ele>903.20001220703125</ele>
        <time>2022-05-05T13:29:30.000Z</time>
      </trkpt>
      <trkpt lat="40.36688148044049739837646484375" lon="-1.12355346791446208953857421875">
        <ele>903.5999755859375</ele>
        <time>2022-05-05T13:29:37.000Z</time>
      </trkpt>
      <trkpt lat="40.36664125509560108184814453125" lon="-1.1235396377742290496826171875">
        <ele>903.79998779296875</ele>
        <time>2022-05-05T13:29:45.000Z</time>
      </trkpt>
      <trkpt lat="40.36644327454268932342529296875" lon="-1.12355631776154041290283203125">
        <ele>903.4000244140625</ele>
        <time>2022-05-05T13:29:51.000Z</time>
      </trkpt>
      <trkpt lat="40.3660844452679157257080078125" lon="-1.12362421117722988128662109375">
        <ele>902.79998779296875</ele>
        <time>2022-05-05T13:29:58.000Z</time>
      </trkpt>
      <trkpt lat="40.365638025104999542236328125" lon="-1.12368321977555751800537109375">
        <ele>902.79998779296875</ele>
        <time>2022-05-05T13:30:06.000Z</time>
      </trkpt>
      <trkpt lat="40.36558127962052822113037109375" lon="-1.123692691326141357421875">
        <ele>902.79998779296875</ele>
        <time>2022-05-05T13:30:07.000Z</time>
      </trkpt>
      <trkpt lat="40.36526477895677089691162109375" lon="-1.12383677624166011810302734375">
        <ele>901.4000244140625</ele>
        <time>2022-05-05T13:30:12.000Z</time>
      </trkpt>
      <trkpt lat="40.36511323414742946624755859375" lon="-1.12388438545167446136474609375">
        <ele>901</ele>
        <time>2022-05-05T13:30:14.000Z</time>
      </trkpt>
      <trkpt lat="40.36495900712907314300537109375" lon="-1.12392134964466094970703125">
        <ele>900.4000244140625</ele>
        <time>2022-05-05T13:30:16.000Z</time>
      </trkpt>
      <trkpt lat="40.3648197837173938751220703125" lon="-1.123943813145160675048828125">
        <ele>900.20001220703125</ele>
        <time>2022-05-05T13:30:18.000Z</time>
      </trkpt>
      <trkpt lat="40.36469698883593082427978515625" lon="-1.12392998300492763519287109375">
        <ele>900.20001220703125</ele>
        <time>2022-05-05T13:30:20.000Z</time>
      </trkpt>
      <trkpt lat="40.3645916283130645751953125" lon="-1.1238588206470012664794921875">
        <ele>900.79998779296875</ele>
        <time>2022-05-05T13:30:22.000Z</time>
      </trkpt>
      <trkpt lat="40.364500768482685089111328125" lon="-1.12376418896019458770751953125">
        <ele>901.79998779296875</ele>
        <time>2022-05-05T13:30:24.000Z</time>
      </trkpt>
      <trkpt lat="40.3643289394676685333251953125" lon="-1.12354181706905364990234375">
        <ele>903.79998779296875</ele>
        <time>2022-05-05T13:30:28.000Z</time>
      </trkpt>
      <trkpt lat="40.3643289394676685333251953125" lon="-1.12354181706905364990234375">
        <ele>903.79998779296875</ele>
        <time>2022-05-05T13:30:29.000Z</time>
      </trkpt>
      <trkpt lat="40.3642682544887065887451171875" lon="-1.12341784872114658355712890625">
        <ele>904.20001220703125</ele>
        <time>2022-05-05T13:30:30.000Z</time>
      </trkpt>
      <trkpt lat="40.36421888507902622222900390625" lon="-1.123281307518482208251953125">
        <ele>902.79998779296875</ele>
        <time>2022-05-05T13:30:33.000Z</time>
      </trkpt>
      <trkpt lat="40.36417932249605655670166015625" lon="-1.123143173754215240478515625">
        <ele>901.4000244140625</ele>
        <time>2022-05-05T13:30:35.000Z</time>
      </trkpt>
      <trkpt lat="40.36409550346434116363525390625" lon="-1.12272768281400203704833984375">
        <ele>901.20001220703125</ele>
        <time>2022-05-05T13:30:40.000Z</time>
      </trkpt>
      <trkpt lat="40.364081002771854400634765625" lon="-1.1223554424941539764404296875">
        <ele>901.4000244140625</ele>
        <time>2022-05-05T13:30:46.000Z</time>
      </trkpt>
      <trkpt lat="40.364081002771854400634765625" lon="-1.1223554424941539764404296875">
        <ele>901.4000244140625</ele>
        <time>2022-05-05T13:30:47.000Z</time>
      </trkpt>
      <trkpt lat="40.3640337288379669189453125" lon="-1.12203131429851055145263671875">
        <ele>901.5999755859375</ele>
        <time>2022-05-05T13:30:52.000Z</time>
      </trkpt>
      <trkpt lat="40.3640337288379669189453125" lon="-1.12203131429851055145263671875">
        <ele>901.5999755859375</ele>
        <time>2022-05-05T13:30:53.000Z</time>
      </trkpt>
      <trkpt lat="40.363960303366184234619140625" lon="-1.1217708885669708251953125">
        <ele>901.20001220703125</ele>
        <time>2022-05-05T13:30:56.000Z</time>
      </trkpt>
      <trkpt lat="40.36393004469573497772216796875" lon="-1.1216396279633045196533203125">
        <ele>901</ele>
        <time>2022-05-05T13:30:58.000Z</time>
      </trkpt>
      <trkpt lat="40.36390054039657115936279296875" lon="-1.12146201543509960174560546875">
        <ele>901</ele>
        <time>2022-05-05T13:31:01.000Z</time>
      </trkpt>
      <trkpt lat="40.36385142244398593902587890625" lon="-1.12127124331891536712646484375">
        <ele>900.79998779296875</ele>
        <time>2022-05-05T13:31:04.000Z</time>
      </trkpt>
      <trkpt lat="40.3637898154556751251220703125" lon="-1.121011488139629364013671875">
        <ele>901</ele>
        <time>2022-05-05T13:31:08.000Z</time>
      </trkpt>
      <trkpt lat="40.36375813186168670654296875" lon="-1.1208822391927242279052734375">
        <ele>901.20001220703125</ele>
        <time>2022-05-05T13:31:11.000Z</time>
      </trkpt>
      <trkpt lat="40.3637210838496685028076171875" lon="-1.12076832912862300872802734375">
        <ele>901.4000244140625</ele>
        <time>2022-05-05T13:31:12.000Z</time>
      </trkpt>
      <trkpt lat="40.363622009754180908203125" lon="-1.12055392004549503326416015625">
        <ele>900.20001220703125</ele>
        <time>2022-05-05T13:31:16.000Z</time>
      </trkpt>
      <trkpt lat="40.36342210136353969573974609375" lon="-1.1201429553329944610595703125">
        <ele>897.5999755859375</ele>
        <time>2022-05-05T13:31:24.000Z</time>
      </trkpt>
      <trkpt lat="40.36339645273983478546142578125" lon="-1.120096184313297271728515625">
        <ele>897.4000244140625</ele>
        <time>2022-05-05T13:31:25.000Z</time>
      </trkpt>
      <trkpt lat="40.363223366439342498779296875" lon="-1.11976920627057552337646484375">
        <ele>894.5999755859375</ele>
        <time>2022-05-05T13:31:32.000Z</time>
      </trkpt>
      <trkpt lat="40.36298138089478015899658203125" lon="-1.1193523742258548736572265625">
        <ele>893.5999755859375</ele>
        <time>2022-05-05T13:31:41.000Z</time>
      </trkpt>
      <trkpt lat="40.36293326877057552337646484375" lon="-1.1192330159246921539306640625">
        <ele>894</ele>
        <time>2022-05-05T13:31:44.000Z</time>
      </trkpt>
      <trkpt lat="40.36293326877057552337646484375" lon="-1.1192330159246921539306640625">
        <ele>894</ele>
        <time>2022-05-05T13:31:45.000Z</time>
      </trkpt>
      <trkpt lat="40.36283520050346851348876953125" lon="-1.11941121518611907958984375">
        <ele>893.5999755859375</ele>
        <time>2022-05-05T13:32:39.000Z</time>
      </trkpt>
      <trkpt lat="40.3628181852400302886962890625" lon="-1.1194534599781036376953125">
        <ele>893.5999755859375</ele>
        <time>2022-05-05T13:32:41.000Z</time>
      </trkpt>
      <trkpt lat="40.3627762757241725921630859375" lon="-1.1195830442011356353759765625">
        <ele>893.20001220703125</ele>
        <time>2022-05-05T13:32:46.000Z</time>
      </trkpt>
      <trkpt lat="40.36276211030781269073486328125" lon="-1.11961531452834606170654296875">
        <ele>893</ele>
        <time>2022-05-05T13:32:49.000Z</time>
      </trkpt>
      <trkpt lat="40.36274668760597705841064453125" lon="-1.11965554766356945037841796875">
        <ele>893</ele>
        <time>2022-05-05T13:32:53.000Z</time>
      </trkpt>
      <trkpt lat="40.3627326898276805877685546875" lon="-1.119685135781764984130859375">
        <ele>892.79998779296875</ele>
        <time>2022-05-05T13:32:54.000Z</time>
      </trkpt>
      <trkpt lat="40.36270544864237308502197265625" lon="-1.11971271224319934844970703125">
        <ele>892.79998779296875</ele>
        <time>2022-05-05T13:32:58.000Z</time>
      </trkpt>
      <trkpt lat="40.36270544864237308502197265625" lon="-1.11971271224319934844970703125">
        <ele>892.79998779296875</ele>
        <time>2022-05-05T13:32:59.000Z</time>
      </trkpt>
      <trkpt lat="40.36269388161599636077880859375" lon="-1.11972092650830745697021484375">
        <ele>892.79998779296875</ele>
        <time>2022-05-05T13:33:01.000Z</time>
      </trkpt>
      <trkpt lat="40.3626250661909580230712890625" lon="-1.11973584629595279693603515625">
        <ele>893</ele>
        <time>2022-05-05T13:33:07.000Z</time>
      </trkpt>
      <trkpt lat="40.36260587163269519805908203125" lon="-1.11973986960947513580322265625">
        <ele>893</ele>
        <time>2022-05-05T13:33:09.000Z</time>
      </trkpt>
      <trkpt lat="40.362466983497142791748046875" lon="-1.11974959261715412139892578125">
        <ele>893.20001220703125</ele>
        <time>2022-05-05T13:33:14.000Z</time>
      </trkpt>
      <trkpt lat="40.36231242120265960693359375" lon="-1.11984682269394397735595703125">
        <ele>894</ele>
        <time>2022-05-05T13:33:19.000Z</time>
      </trkpt>
      <trkpt lat="40.36214000545442104339599609375" lon="-1.11996953375637531280517578125">
        <ele>895.20001220703125</ele>
        <time>2022-05-05T13:33:25.000Z</time>
      </trkpt>
      <trkpt lat="40.36198594607412815093994140625" lon="-1.12016952596604824066162109375">
        <ele>895.79998779296875</ele>
        <time>2022-05-05T13:33:32.000Z</time>
      </trkpt>
      <trkpt lat="40.36185803823173046112060546875" lon="-1.12035795114934444427490234375">
        <ele>896.5999755859375</ele>
        <time>2022-05-05T13:33:39.000Z</time>
      </trkpt>
      <trkpt lat="40.36171504296362400054931640625" lon="-1.12053263001143932342529296875">
        <ele>897</ele>
        <time>2022-05-05T13:33:44.000Z</time>
      </trkpt>
      <trkpt lat="40.3615062497556209564208984375" lon="-1.12067629583179950714111328125">
        <ele>897.20001220703125</ele>
        <time>2022-05-05T13:33:51.000Z</time>
      </trkpt>
      <trkpt lat="40.3612997196614742279052734375" lon="-1.12078584730625152587890625">
        <ele>897.4000244140625</ele>
        <time>2022-05-05T13:33:56.000Z</time>
      </trkpt>
      <trkpt lat="40.36114473827183246612548828125" lon="-1.1208307743072509765625">
        <ele>897.5999755859375</ele>
        <time>2022-05-05T13:34:00.000Z</time>
      </trkpt>
      <trkpt lat="40.36105505190789699554443359375" lon="-1.12083546817302703857421875">
        <ele>897.5999755859375</ele>
        <time>2022-05-05T13:34:03.000Z</time>
      </trkpt>
      <trkpt lat="40.36074659787118434906005859375" lon="-1.1208772100508213043212890625">
        <ele>896.5999755859375</ele>
        <time>2022-05-05T13:34:10.000Z</time>
      </trkpt>
      <trkpt lat="40.3604380600154399871826171875" lon="-1.1209077201783657073974609375">
        <ele>895.5999755859375</ele>
        <time>2022-05-05T13:34:18.000Z</time>
      </trkpt>
      <trkpt lat="40.36039455793797969818115234375" lon="-1.12091585062444210052490234375">
        <ele>895.4000244140625</ele>
        <time>2022-05-05T13:34:19.000Z</time>
      </trkpt>
      <trkpt lat="40.36026949994266033172607421875" lon="-1.1209838278591632843017578125">
        <ele>895.79998779296875</ele>
        <time>2022-05-05T13:34:22.000Z</time>
      </trkpt>
      <trkpt lat="40.36026949994266033172607421875" lon="-1.1209838278591632843017578125">
        <ele>895.79998779296875</ele>
        <time>2022-05-05T13:34:23.000Z</time>
      </trkpt>
      <trkpt lat="40.36012885160744190216064453125" lon="-1.1210703290998935699462890625">
        <ele>896.4000244140625</ele>
        <time>2022-05-05T13:34:26.000Z</time>
      </trkpt>
      <trkpt lat="40.36012885160744190216064453125" lon="-1.1210703290998935699462890625">
        <ele>896.4000244140625</ele>
        <time>2022-05-05T13:34:27.000Z</time>
      </trkpt>
      <trkpt lat="40.35998099483549594879150390625" lon="-1.12119044177234172821044921875">
        <ele>897.20001220703125</ele>
        <time>2022-05-05T13:34:31.000Z</time>
      </trkpt>
      <trkpt lat="40.35984151996672153472900390625" lon="-1.12136210314929485321044921875">
        <ele>898.79998779296875</ele>
        <time>2022-05-05T13:34:37.000Z</time>
      </trkpt>
      <trkpt lat="40.359825007617473602294921875" lon="-1.1213926970958709716796875">
        <ele>899.20001220703125</ele>
        <time>2022-05-05T13:34:39.000Z</time>
      </trkpt>
      <trkpt lat="40.3597658313810825347900390625" lon="-1.12152236513793468475341796875">
        <ele>899.79998779296875</ele>
        <time>2022-05-05T13:34:43.000Z</time>
      </trkpt>
      <trkpt lat="40.35976440645754337310791015625" lon="-1.1215249635279178619384765625">
        <ele>899.79998779296875</ele>
        <time>2022-05-05T13:34:45.000Z</time>
      </trkpt>
      <trkpt lat="40.35974076949059963226318359375" lon="-1.12151264213025569915771484375">
        <ele>899.5999755859375</ele>
        <time>2022-05-05T13:37:21.000Z</time>
      </trkpt>
      <trkpt lat="40.35972635261714458465576171875" lon="-1.1215239576995372772216796875">
        <ele>899.5999755859375</ele>
        <time>2022-05-05T13:37:22.000Z</time>
      </trkpt>
      <trkpt lat="40.35958318971097469329833984375" lon="-1.12161037512123584747314453125">
        <ele>899</ele>
        <time>2022-05-05T13:37:30.000Z</time>
      </trkpt>
      <trkpt lat="40.35944120027124881744384765625" lon="-1.12175269983708858489990234375">
        <ele>898.20001220703125</ele>
        <time>2022-05-05T13:37:37.000Z</time>
      </trkpt>
      <trkpt lat="40.3592525236308574676513671875" lon="-1.122013628482818603515625">
        <ele>897.4000244140625</ele>
        <time>2022-05-05T13:37:46.000Z</time>
      </trkpt>
      <trkpt lat="40.35908865742385387420654296875" lon="-1.1220925860106945037841796875">
        <ele>896</ele>
        <time>2022-05-05T13:37:52.000Z</time>
      </trkpt>
      <trkpt lat="40.35908865742385387420654296875" lon="-1.1220925860106945037841796875">
        <ele>896</ele>
        <time>2022-05-05T13:37:53.000Z</time>
      </trkpt>
      <trkpt lat="40.3589584864675998687744140625" lon="-1.12214648164808750152587890625">
        <ele>895</ele>
        <time>2022-05-05T13:37:58.000Z</time>
      </trkpt>
      <trkpt lat="40.35895823501050472259521484375" lon="-1.12214664928615093231201171875">
        <ele>895</ele>
        <time>2022-05-05T13:37:59.000Z</time>
      </trkpt>
      <trkpt lat="40.3589537926018238067626953125" lon="-1.12218487076461315155029296875">
        <ele>895</ele>
        <time>2022-05-05T13:38:17.000Z</time>
      </trkpt>
      <trkpt lat="40.35895706154406070709228515625" lon="-1.1222786642611026763916015625">
        <ele>895.4000244140625</ele>
        <time>2022-05-05T13:38:20.000Z</time>
      </trkpt>
      <trkpt lat="40.35896108485758304595947265625" lon="-1.1223769001662731170654296875">
        <ele>896</ele>
        <time>2022-05-05T13:38:24.000Z</time>
      </trkpt>
      <trkpt lat="40.35894566215574741363525390625" lon="-1.1225192248821258544921875">
        <ele>896.4000244140625</ele>
        <time>2022-05-05T13:38:29.000Z</time>
      </trkpt>
      <trkpt lat="40.35888112150132656097412109375" lon="-1.12257085740566253662109375">
        <ele>896.20001220703125</ele>
        <time>2022-05-05T13:38:30.000Z</time>
      </trkpt>
      <trkpt lat="40.358809120953083038330078125" lon="-1.12259323708713054656982421875">
        <ele>895.5999755859375</ele>
        <time>2022-05-05T13:38:32.000Z</time>
      </trkpt>
      <trkpt lat="40.35859362222254276275634765625" lon="-1.12261385656893253326416015625">
        <ele>895.5999755859375</ele>
        <time>2022-05-05T13:38:37.000Z</time>
      </trkpt>
      <trkpt lat="40.35850946791470050811767578125" lon="-1.12262357957661151885986328125">
        <ele>895.5999755859375</ele>
        <time>2022-05-05T13:38:39.000Z</time>
      </trkpt>
      <trkpt lat="40.3583808057010173797607421875" lon="-1.1226399242877960205078125">
        <ele>895.4000244140625</ele>
        <time>2022-05-05T13:38:42.000Z</time>
      </trkpt>
      <trkpt lat="40.35833763889968395233154296875" lon="-1.122640930116176605224609375">
        <ele>895</ele>
        <time>2022-05-05T13:38:43.000Z</time>
      </trkpt>
      <trkpt lat="40.358293466269969940185546875" lon="-1.12263916991651058197021484375">
        <ele>894.79998779296875</ele>
        <time>2022-05-05T13:38:44.000Z</time>
      </trkpt>
      <trkpt lat="40.35806405358016490936279296875" lon="-1.12261385656893253326416015625">
        <ele>892.79998779296875</ele>
        <time>2022-05-05T13:38:49.000Z</time>
      </trkpt>
      <trkpt lat="40.35772190429270267486572265625" lon="-1.1225482262670993804931640625">
        <ele>889.5999755859375</ele>
        <time>2022-05-05T13:38:56.000Z</time>
      </trkpt>
      <trkpt lat="40.357618220150470733642578125" lon="-1.1225219070911407470703125">
        <ele>889.20001220703125</ele>
        <time>2022-05-05T13:38:58.000Z</time>
      </trkpt>
      <trkpt lat="40.35715092904865741729736328125" lon="-1.12239643000066280364990234375">
        <ele>888.5999755859375</ele>
        <time>2022-05-05T13:39:07.000Z</time>
      </trkpt>
      <trkpt lat="40.356989912688732147216796875" lon="-1.12236524932086467742919921875">
        <ele>888</ele>
        <time>2022-05-05T13:39:10.000Z</time>
      </trkpt>
      <trkpt lat="40.3567744977772235870361328125" lon="-1.12237916328012943267822265625">
        <ele>887.79998779296875</ele>
        <time>2022-05-05T13:39:14.000Z</time>
      </trkpt>
      <trkpt lat="40.3563760221004486083984375" lon="-1.122456528246402740478515625">
        <ele>887.5999755859375</ele>
        <time>2022-05-05T13:39:22.000Z</time>
      </trkpt>
      <trkpt lat="40.35585525445640087127685546875" lon="-1.1225465498864650726318359375">
        <ele>888.79998779296875</ele>
        <time>2022-05-05T13:39:32.000Z</time>
      </trkpt>
      <trkpt lat="40.35541168414056301116943359375" lon="-1.12262659706175327301025390625">
        <ele>890</ele>
        <time>2022-05-05T13:39:40.000Z</time>
      </trkpt>
      <trkpt lat="40.35497725009918212890625" lon="-1.1226947419345378875732421875">
        <ele>890.4000244140625</ele>
        <time>2022-05-05T13:39:48.000Z</time>
      </trkpt>
      <trkpt lat="40.35466468892991542816162109375" lon="-1.12270924262702465057373046875">
        <ele>890.20001220703125</ele>
        <time>2022-05-05T13:39:54.000Z</time>
      </trkpt>
      <trkpt lat="40.3545749187469482421875" lon="-1.12268812023103237152099609375">
        <ele>890.20001220703125</ele>
        <time>2022-05-05T13:39:56.000Z</time>
      </trkpt>
      <trkpt lat="40.3544936142861843109130859375" lon="-1.12265828065574169158935546875">
        <ele>890.20001220703125</ele>
        <time>2022-05-05T13:39:58.000Z</time>
      </trkpt>
      <trkpt lat="40.35431818105280399322509765625" lon="-1.122578568756580352783203125">
        <ele>890.20001220703125</ele>
        <time>2022-05-05T13:40:02.000Z</time>
      </trkpt>
      <trkpt lat="40.35423251800239086151123046875" lon="-1.122558116912841796875">
        <ele>889.79998779296875</ele>
        <time>2022-05-05T13:40:04.000Z</time>
      </trkpt>
      <trkpt lat="40.3540245629847049713134765625" lon="-1.12253942526876926422119140625">
        <ele>889.20001220703125</ele>
        <time>2022-05-05T13:40:09.000Z</time>
      </trkpt>
      <trkpt lat="40.3537734411656856536865234375" lon="-1.1225317977368831634521484375">
        <ele>888.4000244140625</ele>
        <time>2022-05-05T13:40:14.000Z</time>
      </trkpt>
      <trkpt lat="40.35348652862012386322021484375" lon="-1.1225331388413906097412109375">
        <ele>888.20001220703125</ele>
        <time>2022-05-05T13:40:20.000Z</time>
      </trkpt>
      <trkpt lat="40.3533536754548549652099609375" lon="-1.1225111782550811767578125">
        <ele>888</ele>
        <time>2022-05-05T13:40:24.000Z</time>
      </trkpt>
      <trkpt lat="40.35314287059009075164794921875" lon="-1.12244621850550174713134765625">
        <ele>887.4000244140625</ele>
        <time>2022-05-05T13:40:29.000Z</time>
      </trkpt>
      <trkpt lat="40.35291655920445919036865234375" lon="-1.12241587601602077484130859375">
        <ele>887.20001220703125</ele>
        <time>2022-05-05T13:40:33.000Z</time>
      </trkpt>
      <trkpt lat="40.35279720090329647064208984375" lon="-1.12242828123271465301513671875">
        <ele>887.5999755859375</ele>
        <time>2022-05-05T13:40:35.000Z</time>
      </trkpt>
      <trkpt lat="40.35262470133602619171142578125" lon="-1.12245577387511730194091796875">
        <ele>888</ele>
        <time>2022-05-05T13:40:38.000Z</time>
      </trkpt>
      <trkpt lat="40.35256384871900081634521484375" lon="-1.12245979718863964080810546875">
        <ele>888</ele>
        <time>2022-05-05T13:40:39.000Z</time>
      </trkpt>
      <trkpt lat="40.35238363780081272125244140625" lon="-1.12247354350984096527099609375">
        <ele>888.4000244140625</ele>
        <time>2022-05-05T13:40:42.000Z</time>
      </trkpt>
      <trkpt lat="40.35232094116508960723876953125" lon="-1.12247765064239501953125">
        <ele>888.5999755859375</ele>
        <time>2022-05-05T13:40:43.000Z</time>
      </trkpt>
      <trkpt lat="40.35212899558246135711669921875" lon="-1.1225043050944805145263671875">
        <ele>889</ele>
        <time>2022-05-05T13:40:46.000Z</time>
      </trkpt>
      <trkpt lat="40.35206864587962627410888671875" lon="-1.12250187434256076812744140625">
        <ele>889</ele>
        <time>2022-05-05T13:40:47.000Z</time>
      </trkpt>
      <trkpt lat="40.351748205721378326416015625" lon="-1.12250857986509799957275390625">
        <ele>888.5999755859375</ele>
        <time>2022-05-05T13:40:52.000Z</time>
      </trkpt>
      <trkpt lat="40.35133992321789264678955078125" lon="-1.1225861124694347381591796875">
        <ele>888.4000244140625</ele>
        <time>2022-05-05T13:40:59.000Z</time>
      </trkpt>
      <trkpt lat="40.35128594376146793365478515625" lon="-1.12259239889681339263916015625">
        <ele>888.4000244140625</ele>
        <time>2022-05-05T13:41:00.000Z</time>
      </trkpt>
      <trkpt lat="40.35117991268634796142578125" lon="-1.12260036170482635498046875">
        <ele>888.4000244140625</ele>
        <time>2022-05-05T13:41:02.000Z</time>
      </trkpt>
      <trkpt lat="40.35101537592709064483642578125" lon="-1.12258150242269039154052734375">
        <ele>888</ele>
        <time>2022-05-05T13:41:05.000Z</time>
      </trkpt>
      <trkpt lat="40.35084865987300872802734375" lon="-1.12255468033254146575927734375">
        <ele>887.20001220703125</ele>
        <time>2022-05-05T13:41:08.000Z</time>
      </trkpt>
      <trkpt lat="40.35074430517852306365966796875" lon="-1.122555434703826904296875">
        <ele>886.79998779296875</ele>
        <time>2022-05-05T13:41:10.000Z</time>
      </trkpt>
      <trkpt lat="40.35059326328337192535400390625" lon="-1.12256607972085475921630859375">
        <ele>886.4000244140625</ele>
        <time>2022-05-05T13:41:13.000Z</time>
      </trkpt>
      <trkpt lat="40.35048379562795162200927734375" lon="-1.12255853600800037384033203125">
        <ele>885.79998779296875</ele>
        <time>2022-05-05T13:41:15.000Z</time>
      </trkpt>
      <trkpt lat="40.35020065493881702423095703125" lon="-1.122569851577281951904296875">
        <ele>885.4000244140625</ele>
        <time>2022-05-05T13:41:20.000Z</time>
      </trkpt>
      <trkpt lat="40.3499214537441730499267578125" lon="-1.12265107221901416778564453125">
        <ele>886.79998779296875</ele>
        <time>2022-05-05T13:41:25.000Z</time>
      </trkpt>
      <trkpt lat="40.349869988858699798583984375" lon="-1.122688539326190948486328125">
        <ele>887.20001220703125</ele>
        <time>2022-05-05T13:41:26.000Z</time>
      </trkpt>
      <trkpt lat="40.3497715853154659271240234375" lon="-1.12283497117459774017333984375">
        <ele>888.5999755859375</ele>
        <time>2022-05-05T13:41:29.000Z</time>
      </trkpt>
      <trkpt lat="40.34977971576154232025146484375" lon="-1.122966818511486053466796875">
        <ele>889.5999755859375</ele>
        <time>2022-05-05T13:41:32.000Z</time>
      </trkpt>
      <trkpt lat="40.349803604185581207275390625" lon="-1.1230407468974590301513671875">
        <ele>890.5999755859375</ele>
        <time>2022-05-05T13:41:34.000Z</time>
      </trkpt>
      <trkpt lat="40.3498282469809055328369140625" lon="-1.12309682182967662811279296875">
        <ele>891.4000244140625</ele>
        <time>2022-05-05T13:41:36.000Z</time>
      </trkpt>
      <trkpt lat="40.34984040074050426483154296875" lon="-1.123124398291110992431640625">
        <ele>891.5999755859375</ele>
        <time>2022-05-05T13:41:37.000Z</time>
      </trkpt>
      <trkpt lat="40.3498533926904201507568359375" lon="-1.12314795143902301788330078125">
        <ele>891.5999755859375</ele>
        <time>2022-05-05T13:41:38.000Z</time>
      </trkpt>
      <trkpt lat="40.3498587571084499359130859375" lon="-1.1231708340346813201904296875">
        <ele>891.5999755859375</ele>
        <time>2022-05-05T13:41:39.000Z</time>
      </trkpt>
      <trkpt lat="40.34985817037522792816162109375" lon="-1.12323495559394359588623046875">
        <ele>891.79998779296875</ele>
        <time>2022-05-05T13:41:41.000Z</time>
      </trkpt>
      <trkpt lat="40.34986521117389202117919921875" lon="-1.12329907715320587158203125">
        <ele>892</ele>
        <time>2022-05-05T13:41:43.000Z</time>
      </trkpt>
      <trkpt lat="40.34985749982297420501708984375" lon="-1.12337778322398662567138671875">
        <ele>892.20001220703125</ele>
        <time>2022-05-05T13:41:46.000Z</time>
      </trkpt>
      <trkpt lat="40.3498510457575321197509765625" lon="-1.1234004981815814971923828125">
        <ele>892.20001220703125</ele>
        <time>2022-05-05T13:41:47.000Z</time>
      </trkpt>
      <trkpt lat="40.349835455417633056640625" lon="-1.12347400747239589691162109375">
        <ele>892.4000244140625</ele>
        <time>2022-05-05T13:41:50.000Z</time>
      </trkpt>
      <trkpt lat="40.3498198650777339935302734375" lon="-1.12349747680127620697021484375">
        <ele>892.4000244140625</ele>
        <time>2022-05-05T13:41:52.000Z</time>
      </trkpt>
      <trkpt lat="40.349820367991924285888671875" lon="-1.12349462695419788360595703125">
        <ele>892.4000244140625</ele>
        <time>2022-05-05T13:41:53.000Z</time>
      </trkpt>
      <trkpt lat="40.3497732616961002349853515625" lon="-1.12350015901029109954833984375">
        <ele>892.20001220703125</ele>
        <time>2022-05-05T13:42:01.000Z</time>
      </trkpt>
      <trkpt lat="40.34974333830177783966064453125" lon="-1.12347870133817195892333984375">
        <ele>892.20001220703125</ele>
        <time>2022-05-05T13:42:03.000Z</time>
      </trkpt>
      <trkpt lat="40.34966119565069675445556640625" lon="-1.1232854984700679779052734375">
        <ele>891.4000244140625</ele>
        <time>2022-05-05T13:42:08.000Z</time>
      </trkpt>
      <trkpt lat="40.3495288453996181488037109375" lon="-1.1228965781629085540771484375">
        <ele>888.20001220703125</ele>
        <time>2022-05-05T13:42:14.000Z</time>
      </trkpt>
      <trkpt lat="40.3495026938617229461669921875" lon="-1.12282030284404754638671875">
        <ele>887.20001220703125</ele>
        <time>2022-05-05T13:42:15.000Z</time>
      </trkpt>
      <trkpt lat="40.3493727743625640869140625" lon="-1.12242333590984344482421875">
        <ele>883.5999755859375</ele>
        <time>2022-05-05T13:42:20.000Z</time>
      </trkpt>
      <trkpt lat="40.34934804774820804595947265625" lon="-1.12234018743038177490234375">
        <ele>883.4000244140625</ele>
        <time>2022-05-05T13:42:21.000Z</time>
      </trkpt>
      <trkpt lat="40.34916196949779987335205078125" lon="-1.1217697151005268096923828125">
        <ele>881.20001220703125</ele>
        <time>2022-05-05T13:42:28.000Z</time>
      </trkpt>
      <trkpt lat="40.349109582602977752685546875" lon="-1.1216094531118869781494140625">
        <ele>881</ele>
        <time>2022-05-05T13:42:30.000Z</time>
      </trkpt>
      <trkpt lat="40.34901210106909275054931640625" lon="-1.12132539041340351104736328125">
        <ele>880.5999755859375</ele>
        <time>2022-05-05T13:42:34.000Z</time>
      </trkpt>
      <trkpt lat="40.34896549768745899200439453125" lon="-1.1211968958377838134765625">
        <ele>880.20001220703125</ele>
        <time>2022-05-05T13:42:36.000Z</time>
      </trkpt>
      <trkpt lat="40.34883591346442699432373046875" lon="-1.12079364247620105743408203125">
        <ele>879.4000244140625</ele>
        <time>2022-05-05T13:42:42.000Z</time>
      </trkpt>
      <trkpt lat="40.34873935393989086151123046875" lon="-1.12051737494766712188720703125">
        <ele>879</ele>
        <time>2022-05-05T13:42:46.000Z</time>
      </trkpt>
      <trkpt lat="40.348660983145236968994140625" lon="-1.12030439078807830810546875">
        <ele>879.20001220703125</ele>
        <time>2022-05-05T13:42:49.000Z</time>
      </trkpt>
      <trkpt lat="40.3484956920146942138671875" lon="-1.1198428831994533538818359375">
        <ele>880</ele>
        <time>2022-05-05T13:42:55.000Z</time>
      </trkpt>
      <trkpt lat="40.3484653495252132415771484375" lon="-1.11975445412099361419677734375">
        <ele>880.20001220703125</ele>
        <time>2022-05-05T13:42:56.000Z</time>
      </trkpt>
      <trkpt lat="40.3483614139258861541748046875" lon="-1.11947634257376194000244140625">
        <ele>881.4000244140625</ele>
        <time>2022-05-05T13:42:59.000Z</time>
      </trkpt>
      <trkpt lat="40.3482923470437526702880859375" lon="-1.11929713748395442962646484375">
        <ele>881.4000244140625</ele>
        <time>2022-05-05T13:43:01.000Z</time>
      </trkpt>
      <trkpt lat="40.34818547777831554412841796875" lon="-1.119021289050579071044921875">
        <ele>881.20001220703125</ele>
        <time>2022-05-05T13:43:04.000Z</time>
      </trkpt>
      <trkpt lat="40.34809109754860401153564453125" lon="-1.11874845810234546661376953125">
        <ele>881.20001220703125</ele>
        <time>2022-05-05T13:43:07.000Z</time>
      </trkpt>
      <trkpt lat="40.3479617647826671600341796875" lon="-1.11839063465595245361328125">
        <ele>881.5999755859375</ele>
        <time>2022-05-05T13:43:12.000Z</time>
      </trkpt>
      <trkpt lat="40.3478819690644741058349609375" lon="-1.11819215118885040283203125">
        <ele>881.5999755859375</ele>
        <time>2022-05-05T13:43:16.000Z</time>
      </trkpt>
      <trkpt lat="40.347864367067813873291015625" lon="-1.1181551031768321990966796875">
        <ele>881.4000244140625</ele>
        <time>2022-05-05T13:43:17.000Z</time>
      </trkpt>
      <trkpt lat="40.347829498350620269775390625" lon="-1.11808327026665210723876953125">
        <ele>881.4000244140625</ele>
        <time>2022-05-05T13:43:19.000Z</time>
      </trkpt>
      <trkpt lat="40.34772799350321292877197265625" lon="-1.1178696155548095703125">
        <ele>880.79998779296875</ele>
        <time>2022-05-05T13:43:24.000Z</time>
      </trkpt>
      <trkpt lat="40.34765691496431827545166015625" lon="-1.11773106269538402557373046875">
        <ele>880.4000244140625</ele>
        <time>2022-05-05T13:43:27.000Z</time>
      </trkpt>
      <trkpt lat="40.3476114012300968170166015625" lon="-1.11762360669672489166259765625">
        <ele>880.20001220703125</ele>
        <time>2022-05-05T13:43:29.000Z</time>
      </trkpt>
      <trkpt lat="40.34742272458970546722412109375" lon="-1.11733024008572101593017578125">
        <ele>881.79998779296875</ele>
        <time>2022-05-05T13:43:35.000Z</time>
      </trkpt>
      <trkpt lat="40.34738768823444843292236328125" lon="-1.117285899817943572998046875">
        <ele>882</ele>
        <time>2022-05-05T13:43:36.000Z</time>
      </trkpt>
      <trkpt lat="40.3473559208214282989501953125" lon="-1.11724055372178554534912109375">
        <ele>882</ele>
        <time>2022-05-05T13:43:37.000Z</time>
      </trkpt>
      <trkpt lat="40.34719691611826419830322265625" lon="-1.11701139248907566070556640625">
        <ele>881.79998779296875</ele>
        <time>2022-05-05T13:43:42.000Z</time>
      </trkpt>
      <trkpt lat="40.34695752896368503570556640625" lon="-1.1166490428149700164794921875">
        <ele>880.5999755859375</ele>
        <time>2022-05-05T13:43:49.000Z</time>
      </trkpt>
      <trkpt lat="40.34691846929490566253662109375" lon="-1.11659380607306957244873046875">
        <ele>880.4000244140625</ele>
        <time>2022-05-05T13:43:50.000Z</time>
      </trkpt>
      <trkpt lat="40.34679844044148921966552734375" lon="-1.1164247430860996246337890625">
        <ele>879.79998779296875</ele>
        <time>2022-05-05T13:43:53.000Z</time>
      </trkpt>
      <trkpt lat="40.3467587940394878387451171875" lon="-1.11636732704937458038330078125">
        <ele>879.5999755859375</ele>
        <time>2022-05-05T13:43:54.000Z</time>
      </trkpt>
      <trkpt lat="40.34659576602280139923095703125" lon="-1.11612324602901935577392578125">
        <ele>879</ele>
        <time>2022-05-05T13:43:58.000Z</time>
      </trkpt>
      <trkpt lat="40.3465170599520206451416015625" lon="-1.11599885858595371246337890625">
        <ele>879</ele>
        <time>2022-05-05T13:44:00.000Z</time>
      </trkpt>
      <trkpt lat="40.3463526070117950439453125" lon="-1.11576047725975513458251953125">
        <ele>879</ele>
        <time>2022-05-05T13:44:04.000Z</time>
      </trkpt>
      <trkpt lat="40.34625713713467121124267578125" lon="-1.11564463935792446136474609375">
        <ele>878.79998779296875</ele>
        <time>2022-05-05T13:44:06.000Z</time>
      </trkpt>
      <trkpt lat="40.345962010324001312255859375" lon="-1.11517843790352344512939453125">
        <ele>880</ele>
        <time>2022-05-05T13:44:13.000Z</time>
      </trkpt>
      <trkpt lat="40.34583200700581073760986328125" lon="-1.11497350037097930908203125">
        <ele>880.5999755859375</ele>
        <time>2022-05-05T13:44:16.000Z</time>
      </trkpt>
      <trkpt lat="40.3456942923367023468017578125" lon="-1.11475565470755100250244140625">
        <ele>881.20001220703125</ele>
        <time>2022-05-05T13:44:19.000Z</time>
      </trkpt>
      <trkpt lat="40.34542079083621501922607421875" lon="-1.11432951875030994415283203125">
        <ele>880.79998779296875</ele>
        <time>2022-05-05T13:44:25.000Z</time>
      </trkpt>
      <trkpt lat="40.3452046215534210205078125" lon="-1.113995499908924102783203125">
        <ele>880.5999755859375</ele>
        <time>2022-05-05T13:44:30.000Z</time>
      </trkpt>
      <trkpt lat="40.3451241552829742431640625" lon="-1.1138664186000823974609375">
        <ele>880.79998779296875</ele>
        <time>2022-05-05T13:44:32.000Z</time>
      </trkpt>
      <trkpt lat="40.345017202198505401611328125" lon="-1.113697774708271026611328125">
        <ele>881.4000244140625</ele>
        <time>2022-05-05T13:44:35.000Z</time>
      </trkpt>
      <trkpt lat="40.344951488077640533447265625" lon="-1.1135980300605297088623046875">
        <ele>881.4000244140625</ele>
        <time>2022-05-05T13:44:37.000Z</time>
      </trkpt>
      <trkpt lat="40.344919301569461822509765625" lon="-1.1135554499924182891845703125">
        <ele>881.4000244140625</ele>
        <time>2022-05-05T13:44:38.000Z</time>
      </trkpt>
      <trkpt lat="40.34483808092772960662841796875" lon="-1.11344539560377597808837890625">
        <ele>881</ele>
        <time>2022-05-05T13:44:41.000Z</time>
      </trkpt>
      <trkpt lat="40.34474906511604785919189453125" lon="-1.11333475448191165924072265625">
        <ele>880.5999755859375</ele>
        <time>2022-05-05T13:44:44.000Z</time>
      </trkpt>
      <trkpt lat="40.3446877934038639068603515625" lon="-1.11325579695403575897216796875">
        <ele>880.20001220703125</ele>
        <time>2022-05-05T13:44:46.000Z</time>
      </trkpt>
      <trkpt lat="40.34457908011972904205322265625" lon="-1.1130402982234954833984375">
        <ele>880.20001220703125</ele>
        <time>2022-05-05T13:44:50.000Z</time>
      </trkpt>
      <trkpt lat="40.34453398548066616058349609375" lon="-1.112911216914653778076171875">
        <ele>880.4000244140625</ele>
        <time>2022-05-05T13:44:52.000Z</time>
      </trkpt>
      <trkpt lat="40.3444051556289196014404296875" lon="-1.11268029548227787017822265625">
        <ele>880.79998779296875</ele>
        <time>2022-05-05T13:44:56.000Z</time>
      </trkpt>
      <trkpt lat="40.3442774154245853424072265625" lon="-1.11245951615273952484130859375">
        <ele>881</ele>
        <time>2022-05-05T13:45:00.000Z</time>
      </trkpt>
      <trkpt lat="40.3442237712442874908447265625" lon="-1.11233730800449848175048828125">
        <ele>881</ele>
        <time>2022-05-05T13:45:02.000Z</time>
      </trkpt>
      <trkpt lat="40.344201810657978057861328125" lon="-1.11227477900683879852294921875">
        <ele>881</ele>
        <time>2022-05-05T13:45:03.000Z</time>
      </trkpt>
      <trkpt lat="40.3441101126372814178466796875" lon="-1.112022064626216888427734375">
        <ele>883.4000244140625</ele>
        <time>2022-05-05T13:45:07.000Z</time>
      </trkpt>
      <trkpt lat="40.3440879844129085540771484375" lon="-1.1119602061808109283447265625">
        <ele>883.79998779296875</ele>
        <time>2022-05-05T13:45:08.000Z</time>
      </trkpt>
      <trkpt lat="40.34400206990540027618408203125" lon="-1.111732386052608489990234375">
        <ele>885.4000244140625</ele>
        <time>2022-05-05T13:45:12.000Z</time>
      </trkpt>
      <trkpt lat="40.34394842572510242462158203125" lon="-1.1115800030529499053955078125">
        <ele>886.20001220703125</ele>
        <time>2022-05-05T13:45:15.000Z</time>
      </trkpt>
      <trkpt lat="40.34393115900456905364990234375" lon="-1.111529208719730377197265625">
        <ele>886.5999755859375</ele>
        <time>2022-05-05T13:45:16.000Z</time>
      </trkpt>
      <trkpt lat="40.34382797777652740478515625" lon="-1.1113315634429454803466796875">
        <ele>888</ele>
        <time>2022-05-05T13:45:21.000Z</time>
      </trkpt>
      <trkpt lat="40.343765281140804290771484375" lon="-1.11122838221490383148193359375">
        <ele>888.79998779296875</ele>
        <time>2022-05-05T13:45:26.000Z</time>
      </trkpt>
      <trkpt lat="40.3437657840549945831298828125" lon="-1.1112212575972080230712890625">
        <ele>888.79998779296875</ele>
        <time>2022-05-05T13:45:28.000Z</time>
      </trkpt>
      <trkpt lat="40.3436970524489879608154296875" lon="-1.11118194647133350372314453125">
        <ele>888.79998779296875</ele>
        <time>2022-05-05T13:45:35.000Z</time>
      </trkpt>
      <trkpt lat="40.3436802886426448822021484375" lon="-1.11116317100822925567626953125">
        <ele>889</ele>
        <time>2022-05-05T13:45:36.000Z</time>
      </trkpt>
      <trkpt lat="40.3436776064336299896240234375" lon="-1.11108555458486080169677734375">
        <ele>889.79998779296875</ele>
        <time>2022-05-05T13:45:39.000Z</time>
      </trkpt>
      <trkpt lat="40.34374625422060489654541015625" lon="-1.111059486865997314453125">
        <ele>890.4000244140625</ele>
        <time>2022-05-05T13:45:43.000Z</time>
      </trkpt>
      <trkpt lat="40.34377374686300754547119140625" lon="-1.111051775515079498291015625">
        <ele>890.5999755859375</ele>
        <time>2022-05-05T13:45:44.000Z</time>
      </trkpt>
      <trkpt lat="40.3438479267060756683349609375" lon="-1.11106979660689830780029296875">
        <ele>890.5999755859375</ele>
        <time>2022-05-05T13:45:46.000Z</time>
      </trkpt>
      <trkpt lat="40.3439428098499774932861328125" lon="-1.11111388541758060455322265625">
        <ele>890.5999755859375</ele>
        <time>2022-05-05T13:45:48.000Z</time>
      </trkpt>
      <trkpt lat="40.34406661055982112884521484375" lon="-1.1111770011484622955322265625">
        <ele>890.4000244140625</ele>
        <time>2022-05-05T13:45:51.000Z</time>
      </trkpt>
      <trkpt lat="40.34409510903060436248779296875" lon="-1.111192591488361358642578125">
        <ele>890.4000244140625</ele>
        <time>2022-05-05T13:45:52.000Z</time>
      </trkpt>
      <trkpt lat="40.3441349230706691741943359375" lon="-1.111178509891033172607421875">
        <ele>890.5999755859375</ele>
        <time>2022-05-05T13:45:54.000Z</time>
      </trkpt>
      <trkpt lat="40.344152189791202545166015625" lon="-1.111142970621585845947265625">
        <ele>891</ele>
        <time>2022-05-05T13:45:55.000Z</time>
      </trkpt>
      <trkpt lat="40.3442363440990447998046875" lon="-1.11092763952910900115966796875">
        <ele>893.4000244140625</ele>
        <time>2022-05-05T13:46:00.000Z</time>
      </trkpt>
      <trkpt lat="40.3443129546940326690673828125" lon="-1.11073904670774936676025390625">
        <ele>895.4000244140625</ele>
        <time>2022-05-05T13:46:05.000Z</time>
      </trkpt>
      <trkpt lat="40.3443382680416107177734375" lon="-1.11068171449005603790283203125">
        <ele>896.20001220703125</ele>
        <time>2022-05-05T13:46:07.000Z</time>
      </trkpt>
      <trkpt lat="40.3443726338446140289306640625" lon="-1.1106254719197750091552734375">
        <ele>896.79998779296875</ele>
        <time>2022-05-05T13:46:09.000Z</time>
      </trkpt>
      <trkpt lat="40.34440607763826847076416015625" lon="-1.11058414913713932037353515625">
        <ele>897.20001220703125</ele>
        <time>2022-05-05T13:46:11.000Z</time>
      </trkpt>
      <trkpt lat="40.34444932825863361358642578125" lon="-1.11051701009273529052734375">
        <ele>897.4000244140625</ele>
        <time>2022-05-05T13:46:14.000Z</time>
      </trkpt>
      <trkpt lat="40.34447262994945049285888671875" lon="-1.1103823967278003692626953125">
        <ele>897.4000244140625</ele>
        <time>2022-05-05T13:46:18.000Z</time>
      </trkpt>
      <trkpt lat="40.34448168240487575531005859375" lon="-1.1103458516299724578857421875">
        <ele>897.4000244140625</ele>
        <time>2022-05-05T13:46:19.000Z</time>
      </trkpt>
      <trkpt lat="40.344609506428241729736328125" lon="-1.11012951470911502838134765625">
        <ele>897.79998779296875</ele>
        <time>2022-05-05T13:46:26.000Z</time>
      </trkpt>
      <trkpt lat="40.3447540104389190673828125" lon="-1.109903119504451751708984375">
        <ele>900</ele>
        <time>2022-05-05T13:46:34.000Z</time>
      </trkpt>
      <trkpt lat="40.34484746865928173065185546875" lon="-1.109701283276081085205078125">
        <ele>901.5999755859375</ele>
        <time>2022-05-05T13:46:40.000Z</time>
      </trkpt>
      <trkpt lat="40.3449684195220470428466796875" lon="-1.1094836890697479248046875">
        <ele>903.5999755859375</ele>
        <time>2022-05-05T13:46:46.000Z</time>
      </trkpt>
      <trkpt lat="40.34504913724958896636962890625" lon="-1.109353266656398773193359375">
        <ele>905</ele>
        <time>2022-05-05T13:46:49.000Z</time>
      </trkpt>
      <trkpt lat="40.34519255161285400390625" lon="-1.1091376841068267822265625">
        <ele>907.79998779296875</ele>
        <time>2022-05-05T13:46:54.000Z</time>
      </trkpt>
      <trkpt lat="40.345282070338726043701171875" lon="-1.10900566913187503814697265625">
        <ele>909.5999755859375</ele>
        <time>2022-05-05T13:46:57.000Z</time>
      </trkpt>
      <trkpt lat="40.34531568177044391632080078125" lon="-1.10896174795925617218017578125">
        <ele>910.20001220703125</ele>
        <time>2022-05-05T13:46:58.000Z</time>
      </trkpt>
      <trkpt lat="40.345379300415515899658203125" lon="-1.10887415707111358642578125">
        <ele>910.79998779296875</ele>
        <time>2022-05-05T13:47:00.000Z</time>
      </trkpt>
      <trkpt lat="40.34555263817310333251953125" lon="-1.1086664535105228424072265625">
        <ele>911.4000244140625</ele>
        <time>2022-05-05T13:47:06.000Z</time>
      </trkpt>
      <trkpt lat="40.3456134907901287078857421875" lon="-1.10846780240535736083984375">
        <ele>911</ele>
        <time>2022-05-05T13:47:11.000Z</time>
      </trkpt>
      <trkpt lat="40.34561298787593841552734375" lon="-1.10842262394726276397705078125">
        <ele>910.79998779296875</ele>
        <time>2022-05-05T13:47:12.000Z</time>
      </trkpt>
      <trkpt lat="40.3455920331180095672607421875" lon="-1.10817678272724151611328125">
        <ele>909</ele>
        <time>2022-05-05T13:47:18.000Z</time>
      </trkpt>
      <trkpt lat="40.3455766104161739349365234375" lon="-1.10806304030120372772216796875">
        <ele>908</ele>
        <time>2022-05-05T13:47:21.000Z</time>
      </trkpt>
      <trkpt lat="40.3455769456923007965087890625" lon="-1.10795374028384685516357421875">
        <ele>907.20001220703125</ele>
        <time>2022-05-05T13:47:24.000Z</time>
      </trkpt>
      <trkpt lat="40.34561675973236560821533203125" lon="-1.10773690044879913330078125">
        <ele>906.79998779296875</ele>
        <time>2022-05-05T13:47:30.000Z</time>
      </trkpt>
      <trkpt lat="40.3456651233136653900146484375" lon="-1.10752006061375141143798828125">
        <ele>906.5999755859375</ele>
        <time>2022-05-05T13:47:36.000Z</time>
      </trkpt>
      <trkpt lat="40.34568850882351398468017578125" lon="-1.10732928849756717681884765625">
        <ele>906.20001220703125</ele>
        <time>2022-05-05T13:47:41.000Z</time>
      </trkpt>
      <trkpt lat="40.3456932865083217620849609375" lon="-1.107293665409088134765625">
        <ele>906.20001220703125</ele>
        <time>2022-05-05T13:47:42.000Z</time>
      </trkpt>
      <trkpt lat="40.34570896066725254058837890625" lon="-1.10705000348389148712158203125">
        <ele>908</ele>
        <time>2022-05-05T13:47:49.000Z</time>
      </trkpt>
      <trkpt lat="40.34571181051433086395263671875" lon="-1.1069877259433269500732421875">
        <ele>908.20001220703125</ele>
        <time>2022-05-05T13:47:51.000Z</time>
      </trkpt>
      <trkpt lat="40.34571197815239429473876953125" lon="-1.10689728520810604095458984375">
        <ele>908.5999755859375</ele>
        <time>2022-05-05T13:47:54.000Z</time>
      </trkpt>
      <trkpt lat="40.34573075361549854278564453125" lon="-1.1067389510571956634521484375">
        <ele>909.4000244140625</ele>
        <time>2022-05-05T13:47:59.000Z</time>
      </trkpt>
      <trkpt lat="40.34577660262584686279296875" lon="-1.10650886781513690948486328125">
        <ele>910.5999755859375</ele>
        <time>2022-05-05T13:48:05.000Z</time>
      </trkpt>
      <trkpt lat="40.34577199257910251617431640625" lon="-1.1064009927213191986083984375">
        <ele>910.79998779296875</ele>
        <time>2022-05-05T13:48:08.000Z</time>
      </trkpt>
      <trkpt lat="40.34578733146190643310546875" lon="-1.10632061026990413665771484375">
        <ele>910.79998779296875</ele>
        <time>2022-05-05T13:48:10.000Z</time>
      </trkpt>
      <trkpt lat="40.34583217464387416839599609375" lon="-1.106129586696624755859375">
        <ele>911</ele>
        <time>2022-05-05T13:48:15.000Z</time>
      </trkpt>
      <trkpt lat="40.34585715271532535552978515625" lon="-1.1059279181063175201416015625">
        <ele>911</ele>
        <time>2022-05-05T13:48:21.000Z</time>
      </trkpt>
      <trkpt lat="40.34587609581649303436279296875" lon="-1.10573421232402324676513671875">
        <ele>911</ele>
        <time>2022-05-05T13:48:27.000Z</time>
      </trkpt>
      <trkpt lat="40.34588112495839595794677734375" lon="-1.10569775104522705078125">
        <ele>911</ele>
        <time>2022-05-05T13:48:28.000Z</time>
      </trkpt>
      <trkpt lat="40.34591616131365299224853515625" lon="-1.105441935360431671142578125">
        <ele>909.79998779296875</ele>
        <time>2022-05-05T13:48:35.000Z</time>
      </trkpt>
      <trkpt lat="40.34592638723552227020263671875" lon="-1.10541502945125102996826171875">
        <ele>909.5999755859375</ele>
        <time>2022-05-05T13:48:36.000Z</time>
      </trkpt>
      <trkpt lat="40.3459417261183261871337890625" lon="-1.1053968407213687896728515625">
        <ele>909.5999755859375</ele>
        <time>2022-05-05T13:48:37.000Z</time>
      </trkpt>
      <trkpt lat="40.34597701393067836761474609375" lon="-1.10538669861853122711181640625">
        <ele>909.79998779296875</ele>
        <time>2022-05-05T13:48:39.000Z</time>
      </trkpt>
      <trkpt lat="40.34611548297107219696044921875" lon="-1.1052563600242137908935546875">
        <ele>909.79998779296875</ele>
        <time>2022-05-05T13:48:45.000Z</time>
      </trkpt>
      <trkpt lat="40.34622092731297016143798828125" lon="-1.1050883866846561431884765625">
        <ele>909.20001220703125</ele>
        <time>2022-05-05T13:48:51.000Z</time>
      </trkpt>
      <trkpt lat="40.3462904132902622222900390625" lon="-1.10495586879551410675048828125">
        <ele>908.5999755859375</ele>
        <time>2022-05-05T13:48:56.000Z</time>
      </trkpt>
      <trkpt lat="40.34637917764484882354736328125" lon="-1.10484036616981029510498046875">
        <ele>908.4000244140625</ele>
        <time>2022-05-05T13:49:02.000Z</time>
      </trkpt>
      <trkpt lat="40.34649032168090343475341796875" lon="-1.10473810695111751556396484375">
        <ele>908.79998779296875</ele>
        <time>2022-05-05T13:49:09.000Z</time>
      </trkpt>
      <trkpt lat="40.34663784317672252655029296875" lon="-1.1046441458165645599365234375">
        <ele>910.20001220703125</ele>
        <time>2022-05-05T13:49:15.000Z</time>
      </trkpt>
      <trkpt lat="40.346672125160694122314453125" lon="-1.1046302318572998046875">
        <ele>910.4000244140625</ele>
        <time>2022-05-05T13:49:16.000Z</time>
      </trkpt>
      <trkpt lat="40.34676575101912021636962890625" lon="-1.10460919328033924102783203125">
        <ele>911.4000244140625</ele>
        <time>2022-05-05T13:49:20.000Z</time>
      </trkpt>
      <trkpt lat="40.34681327641010284423828125" lon="-1.1046127974987030029296875">
        <ele>912</ele>
        <time>2022-05-05T13:49:22.000Z</time>
      </trkpt>
      <trkpt lat="40.346928276121616363525390625" lon="-1.10458924435079097747802734375">
        <ele>913</ele>
        <time>2022-05-05T13:49:26.000Z</time>
      </trkpt>
      <trkpt lat="40.34697596915066242218017578125" lon="-1.1045817844569683074951171875">
        <ele>913.5999755859375</ele>
        <time>2022-05-05T13:49:28.000Z</time>
      </trkpt>
      <trkpt lat="40.34709733910858631134033203125" lon="-1.10451154410839080810546875">
        <ele>914.5999755859375</ele>
        <time>2022-05-05T13:49:32.000Z</time>
      </trkpt>
      <trkpt lat="40.34713220782577991485595703125" lon="-1.1044785194098949432373046875">
        <ele>914.79998779296875</ele>
        <time>2022-05-05T13:49:34.000Z</time>
      </trkpt>
      <trkpt lat="40.34714964218437671661376953125" lon="-1.1044560559093952178955078125">
        <ele>914.79998779296875</ele>
        <time>2022-05-05T13:49:36.000Z</time>
      </trkpt>
      <trkpt lat="40.34725273959338665008544921875" lon="-1.10402246005833148956298828125">
        <ele>913.4000244140625</ele>
        <time>2022-05-06T07:25:49.000Z</time>
      </trkpt>
      <trkpt lat="40.34727671183645725250244140625" lon="-1.1040383018553256988525390625">
        <ele>913.5999755859375</ele>
        <time>2022-05-06T07:25:50.000Z</time>
      </trkpt>
      <trkpt lat="40.34725441597402095794677734375" lon="-1.10420585609972476959228515625">
        <ele>914.20001220703125</ele>
        <time>2022-05-06T07:26:04.000Z</time>
      </trkpt>
      <trkpt lat="40.34723413176834583282470703125" lon="-1.10426989383995532989501953125">
        <ele>914.4000244140625</ele>
        <time>2022-05-06T07:26:06.000Z</time>
      </trkpt>
      <trkpt lat="40.3472342155873775482177734375" lon="-1.1042957939207553863525390625">
        <ele>914.4000244140625</ele>
        <time>2022-05-06T07:26:07.000Z</time>
      </trkpt>
      <trkpt lat="40.347240753471851348876953125" lon="-1.1042994819581508636474609375">
        <ele>914.4000244140625</ele>
        <time>2022-05-06T07:26:08.000Z</time>
      </trkpt>
      <trkpt lat="40.3472871892154216766357421875" lon="-1.1042884178459644317626953125">
        <ele>914.4000244140625</ele>
        <time>2022-05-06T07:26:10.000Z</time>
      </trkpt>
      <trkpt lat="40.347372852265834808349609375" lon="-1.10427509061992168426513671875">
        <ele>914.5999755859375</ele>
        <time>2022-05-06T07:26:12.000Z</time>
      </trkpt>
      <trkpt lat="40.347410403192043304443359375" lon="-1.10425950028002262115478515625">
        <ele>914.4000244140625</ele>
        <time>2022-05-06T07:26:13.000Z</time>
      </trkpt>
      <trkpt lat="40.3474524803459644317626953125" lon="-1.10424466431140899658203125">
        <ele>914.4000244140625</ele>
        <time>2022-05-06T07:26:14.000Z</time>
      </trkpt>
      <trkpt lat="40.34749229438602924346923828125" lon="-1.10423016361892223358154296875">
        <ele>914.4000244140625</ele>
        <time>2022-05-06T07:26:15.000Z</time>
      </trkpt>
      <trkpt lat="40.347525738179683685302734375" lon="-1.10420652665197849273681640625">
        <ele>914.4000244140625</ele>
        <time>2022-05-06T07:26:16.000Z</time>
      </trkpt>
      <trkpt lat="40.34754820168018341064453125" lon="-1.10417802818119525909423828125">
        <ele>914.4000244140625</ele>
        <time>2022-05-06T07:26:17.000Z</time>
      </trkpt>
      <trkpt lat="40.3475614450871944427490234375" lon="-1.104153133928775787353515625">
        <ele>914.20001220703125</ele>
        <time>2022-05-06T07:26:18.000Z</time>
      </trkpt>
      <trkpt lat="40.3476103954017162322998046875" lon="-1.10409135930240154266357421875">
        <ele>914.20001220703125</ele>
        <time>2022-05-06T07:26:20.000Z</time>
      </trkpt>
      <trkpt lat="40.347618274390697479248046875" lon="-1.10405682586133480072021484375">
        <ele>914</ele>
        <time>2022-05-06T07:26:21.000Z</time>
      </trkpt>
      <trkpt lat="40.34762288443744182586669921875" lon="-1.10402279533445835113525390625">
        <ele>913.79998779296875</ele>
        <time>2022-05-06T07:26:22.000Z</time>
      </trkpt>
      <trkpt lat="40.347630679607391357421875" lon="-1.10396512784063816070556640625">
        <ele>913.79998779296875</ele>
        <time>2022-05-06T07:26:24.000Z</time>
      </trkpt>
      <trkpt lat="40.347632355988025665283203125" lon="-1.1039395630359649658203125">
        <ele>913.5999755859375</ele>
        <time>2022-05-06T07:26:25.000Z</time>
      </trkpt>
      <trkpt lat="40.34763336181640625" lon="-1.103912405669689178466796875">
        <ele>913.5999755859375</ele>
        <time>2022-05-06T07:26:26.000Z</time>
      </trkpt>
      <trkpt lat="40.347635708749294281005859375" lon="-1.103884242475032806396484375">
        <ele>913.5999755859375</ele>
        <time>2022-05-06T07:26:27.000Z</time>
      </trkpt>
      <trkpt lat="40.34763813950121402740478515625" lon="-1.10385172069072723388671875">
        <ele>913.5999755859375</ele>
        <time>2022-05-06T07:26:28.000Z</time>
      </trkpt>
      <trkpt lat="40.347638390958309173583984375" lon="-1.10377972014248371124267578125">
        <ele>913.79998779296875</ele>
        <time>2022-05-06T07:26:30.000Z</time>
      </trkpt>
      <trkpt lat="40.34763897769153118133544921875" lon="-1.10371920280158519744873046875">
        <ele>913.79998779296875</ele>
        <time>2022-05-06T07:26:32.000Z</time>
      </trkpt>
      <trkpt lat="40.34764132462441921234130859375" lon="-1.10366086475551128387451171875">
        <ele>914</ele>
        <time>2022-05-06T07:26:34.000Z</time>
      </trkpt>
      <trkpt lat="40.3476412408053874969482421875" lon="-1.1036339588463306427001953125">
        <ele>914</ele>
        <time>2022-05-06T07:26:35.000Z</time>
      </trkpt>
      <trkpt lat="40.34763981588184833526611328125" lon="-1.1036057956516742706298828125">
        <ele>914</ele>
        <time>2022-05-06T07:26:36.000Z</time>
      </trkpt>
      <trkpt lat="40.34764048643410205841064453125" lon="-1.103552319109439849853515625">
        <ele>914</ele>
        <time>2022-05-06T07:26:38.000Z</time>
      </trkpt>
      <trkpt lat="40.34764031879603862762451171875" lon="-1.10350630246102809906005859375">
        <ele>914.20001220703125</ele>
        <time>2022-05-06T07:26:40.000Z</time>
      </trkpt>
      <trkpt lat="40.34763797186315059661865234375" lon="-1.10346288420259952545166015625">
        <ele>914.20001220703125</ele>
        <time>2022-05-06T07:26:42.000Z</time>
      </trkpt>
      <trkpt lat="40.3476489521563053131103515625" lon="-1.10342063941061496734619140625">
        <ele>914.20001220703125</ele>
        <time>2022-05-06T07:26:44.000Z</time>
      </trkpt>
      <trkpt lat="40.34768742509186267852783203125" lon="-1.10338828526437282562255859375">
        <ele>914.4000244140625</ele>
        <time>2022-05-06T07:26:46.000Z</time>
      </trkpt>
      <trkpt lat="40.34772564657032489776611328125" lon="-1.103373281657695770263671875">
        <ele>914.4000244140625</ele>
        <time>2022-05-06T07:26:48.000Z</time>
      </trkpt>
      <trkpt lat="40.3477599285542964935302734375" lon="-1.1033617146313190460205078125">
        <ele>914.4000244140625</ele>
        <time>2022-05-06T07:26:50.000Z</time>
      </trkpt>
      <trkpt lat="40.34779940731823444366455078125" lon="-1.1033506505191326141357421875">
        <ele>914.4000244140625</ele>
        <time>2022-05-06T07:26:52.000Z</time>
      </trkpt>
      <trkpt lat="40.34782203845679759979248046875" lon="-1.10334319062530994415283203125">
        <ele>914.5999755859375</ele>
        <time>2022-05-06T07:26:53.000Z</time>
      </trkpt>
      <trkpt lat="40.3478424064815044403076171875" lon="-1.10332910902798175811767578125">
        <ele>914.5999755859375</ele>
        <time>2022-05-06T07:26:54.000Z</time>
      </trkpt>
      <trkpt lat="40.34788389690220355987548828125" lon="-1.10327982343733310699462890625">
        <ele>914.5999755859375</ele>
        <time>2022-05-06T07:26:56.000Z</time>
      </trkpt>
      <trkpt lat="40.3478967212140560150146484375" lon="-1.10324285924434661865234375">
        <ele>914.79998779296875</ele>
        <time>2022-05-06T07:26:57.000Z</time>
      </trkpt>
      <trkpt lat="40.34789412282407283782958984375" lon="-1.10319080762565135955810546875">
        <ele>914.79998779296875</ele>
        <time>2022-05-06T07:26:58.000Z</time>
      </trkpt>
      <trkpt lat="40.34787786193192005157470703125" lon="-1.1031126044690608978271484375">
        <ele>914.79998779296875</ele>
        <time>2022-05-06T07:27:00.000Z</time>
      </trkpt>
      <trkpt lat="40.3478698991239070892333984375" lon="-1.103082932531833648681640625">
        <ele>915</ele>
        <time>2022-05-06T07:27:01.000Z</time>
      </trkpt>
      <trkpt lat="40.3478618524968624114990234375" lon="-1.10305468551814556121826171875">
        <ele>915.20001220703125</ele>
        <time>2022-05-06T07:27:02.000Z</time>
      </trkpt>
      <trkpt lat="40.3478491120040416717529296875" lon="-1.103001125156879425048828125">
        <ele>915.5999755859375</ele>
        <time>2022-05-06T07:27:04.000Z</time>
      </trkpt>
      <trkpt lat="40.34784181974828243255615234375" lon="-1.102942787110805511474609375">
        <ele>916.20001220703125</ele>
        <time>2022-05-06T07:27:06.000Z</time>
      </trkpt>
      <trkpt lat="40.34782974980771541595458984375" lon="-1.1028628237545490264892578125">
        <ele>916.79998779296875</ele>
        <time>2022-05-06T07:27:08.000Z</time>
      </trkpt>
      <trkpt lat="40.34782622940838336944580078125" lon="-1.10282619483768939971923828125">
        <ele>917.20001220703125</ele>
        <time>2022-05-06T07:27:09.000Z</time>
      </trkpt>
      <trkpt lat="40.34782312810420989990234375" lon="-1.1027927510440349578857421875">
        <ele>917.4000244140625</ele>
        <time>2022-05-06T07:27:10.000Z</time>
      </trkpt>
      <trkpt lat="40.34781969152390956878662109375" lon="-1.10275981016457080841064453125">
        <ele>917.5999755859375</ele>
        <time>2022-05-06T07:27:11.000Z</time>
      </trkpt>
      <trkpt lat="40.34781667403876781463623046875" lon="-1.1027293838560581207275390625">
        <ele>918</ele>
        <time>2022-05-06T07:27:12.000Z</time>
      </trkpt>
      <trkpt lat="40.34781583584845066070556640625" lon="-1.1026663519442081451416015625">
        <ele>918.4000244140625</ele>
        <time>2022-05-06T07:27:14.000Z</time>
      </trkpt>
      <trkpt lat="40.347817428410053253173828125" lon="-1.10260223038494586944580078125">
        <ele>919</ele>
        <time>2022-05-06T07:27:16.000Z</time>
      </trkpt>
      <trkpt lat="40.34780141897499561309814453125" lon="-1.10253986902534961700439453125">
        <ele>919.4000244140625</ele>
        <time>2022-05-06T07:27:18.000Z</time>
      </trkpt>
      <trkpt lat="40.34778851084411144256591796875" lon="-1.10247910022735595703125">
        <ele>920</ele>
        <time>2022-05-06T07:27:20.000Z</time>
      </trkpt>
      <trkpt lat="40.34777627326548099517822265625" lon="-1.1024133861064910888671875">
        <ele>920.4000244140625</ele>
        <time>2022-05-06T07:27:22.000Z</time>
      </trkpt>
      <trkpt lat="40.34776680171489715576171875" lon="-1.1023485101759433746337890625">
        <ele>920.5999755859375</ele>
        <time>2022-05-06T07:27:24.000Z</time>
      </trkpt>
      <trkpt lat="40.34775766544044017791748046875" lon="-1.10228438861668109893798828125">
        <ele>920.79998779296875</ele>
        <time>2022-05-06T07:27:26.000Z</time>
      </trkpt>
      <trkpt lat="40.3477527201175689697265625" lon="-1.10225270502269268035888671875">
        <ele>921</ele>
        <time>2022-05-06T07:27:27.000Z</time>
      </trkpt>
      <trkpt lat="40.34774727188050746917724609375" lon="-1.10222630202770233154296875">
        <ele>921</ele>
        <time>2022-05-06T07:27:28.000Z</time>
      </trkpt>
      <trkpt lat="40.34774542786180973052978515625" lon="-1.1021986417472362518310546875">
        <ele>921</ele>
        <time>2022-05-06T07:27:29.000Z</time>
      </trkpt>
      <trkpt lat="40.3477441705763339996337890625" lon="-1.10217140056192874908447265625">
        <ele>921</ele>
        <time>2022-05-06T07:27:30.000Z</time>
      </trkpt>
      <trkpt lat="40.34772983752191066741943359375" lon="-1.10211364924907684326171875">
        <ele>921</ele>
        <time>2022-05-06T07:27:32.000Z</time>
      </trkpt>
      <trkpt lat="40.34771491773426532745361328125" lon="-1.10205472446978092193603515625">
        <ele>921</ele>
        <time>2022-05-06T07:27:34.000Z</time>
      </trkpt>
      <trkpt lat="40.34770268015563488006591796875" lon="-1.10199957154691219329833984375">
        <ele>921</ele>
        <time>2022-05-06T07:27:36.000Z</time>
      </trkpt>
      <trkpt lat="40.34769681282341480255126953125" lon="-1.101961098611354827880859375">
        <ele>921</ele>
        <time>2022-05-06T07:27:38.000Z</time>
      </trkpt>
      <trkpt lat="40.347705446183681488037109375" lon="-1.1019491963088512420654296875">
        <ele>921</ele>
        <time>2022-05-06T07:27:39.000Z</time>
      </trkpt>
      <trkpt lat="40.3477196954190731048583984375" lon="-1.101946346461772918701171875">
        <ele>921.20001220703125</ele>
        <time>2022-05-06T07:27:40.000Z</time>
      </trkpt>
      <trkpt lat="40.34775213338434696197509765625" lon="-1.10195749439299106597900390625">
        <ele>921.4000244140625</ele>
        <time>2022-05-06T07:27:42.000Z</time>
      </trkpt>
      <trkpt lat="40.34776680171489715576171875" lon="-1.101959757506847381591796875">
        <ele>921.4000244140625</ele>
        <time>2022-05-06T07:27:43.000Z</time>
      </trkpt>
      <trkpt lat="40.34778482280671596527099609375" lon="-1.10196135006844997406005859375">
        <ele>921.4000244140625</ele>
        <time>2022-05-06T07:27:44.000Z</time>
      </trkpt>
      <trkpt lat="40.34782220609486103057861328125" lon="-1.10194860957562923431396484375">
        <ele>921.5999755859375</ele>
        <time>2022-05-06T07:27:46.000Z</time>
      </trkpt>
      <trkpt lat="40.34786872565746307373046875" lon="-1.10191608779132366180419921875">
        <ele>922</ele>
        <time>2022-05-06T07:27:48.000Z</time>
      </trkpt>
      <trkpt lat="40.347889848053455352783203125" lon="-1.1018952168524265289306640625">
        <ele>922</ele>
        <time>2022-05-06T07:27:49.000Z</time>
      </trkpt>
      <trkpt lat="40.34790418110787868499755859375" lon="-1.10186529345810413360595703125">
        <ele>922.20001220703125</ele>
        <time>2022-05-06T07:27:50.000Z</time>
      </trkpt>
      <trkpt lat="40.34790703095495700836181640625" lon="-1.10180008225142955780029296875">
        <ele>922.20001220703125</ele>
        <time>2022-05-06T07:27:52.000Z</time>
      </trkpt>
      <trkpt lat="40.34790485166013240814208984375" lon="-1.10176688991487026214599609375">
        <ele>922.20001220703125</ele>
        <time>2022-05-06T07:27:53.000Z</time>
      </trkpt>
      <trkpt lat="40.3479010798037052154541015625" lon="-1.10173277556896209716796875">
        <ele>922.20001220703125</ele>
        <time>2022-05-06T07:27:54.000Z</time>
      </trkpt>
      <trkpt lat="40.34789881668984889984130859375" lon="-1.1016974039375782012939453125">
        <ele>922.4000244140625</ele>
        <time>2022-05-06T07:27:55.000Z</time>
      </trkpt>
      <trkpt lat="40.34789621829986572265625" lon="-1.10166261903941631317138671875">
        <ele>922.4000244140625</ele>
        <time>2022-05-06T07:27:56.000Z</time>
      </trkpt>
      <trkpt lat="40.34789361990988254547119140625" lon="-1.10160109587013721466064453125">
        <ele>922.4000244140625</ele>
        <time>2022-05-06T07:27:58.000Z</time>
      </trkpt>
      <trkpt lat="40.347897894680500030517578125" lon="-1.10157125629484653472900390625">
        <ele>922.4000244140625</ele>
        <time>2022-05-06T07:27:59.000Z</time>
      </trkpt>
      <trkpt lat="40.34790384583175182342529296875" lon="-1.10154099762439727783203125">
        <ele>922.5999755859375</ele>
        <time>2022-05-06T07:28:00.000Z</time>
      </trkpt>
      <trkpt lat="40.34792211838066577911376953125" lon="-1.1014818213880062103271484375">
        <ele>922.5999755859375</ele>
        <time>2022-05-06T07:28:02.000Z</time>
      </trkpt>
      <trkpt lat="40.347943492233753204345703125" lon="-1.1014241538941860198974609375">
        <ele>922.5999755859375</ele>
        <time>2022-05-06T07:28:04.000Z</time>
      </trkpt>
      <trkpt lat="40.3479580767452716827392578125" lon="-1.101395152509212493896484375">
        <ele>922.5999755859375</ele>
        <time>2022-05-06T07:28:05.000Z</time>
      </trkpt>
      <trkpt lat="40.34797492437064647674560546875" lon="-1.10136472620069980621337890625">
        <ele>922.5999755859375</ele>
        <time>2022-05-06T07:28:06.000Z</time>
      </trkpt>
      <trkpt lat="40.3480117209255695343017578125" lon="-1.101303957402706146240234375">
        <ele>922.5999755859375</ele>
        <time>2022-05-06T07:28:08.000Z</time>
      </trkpt>
      <trkpt lat="40.3480529598891735076904296875" lon="-1.10124201513826847076416015625">
        <ele>922.5999755859375</ele>
        <time>2022-05-06T07:28:10.000Z</time>
      </trkpt>
      <trkpt lat="40.34809730015695095062255859375" lon="-1.101180575788021087646484375">
        <ele>922.5999755859375</ele>
        <time>2022-05-06T07:28:12.000Z</time>
      </trkpt>
      <trkpt lat="40.34812093712389469146728515625" lon="-1.101151071488857269287109375">
        <ele>922.79998779296875</ele>
        <time>2022-05-06T07:28:13.000Z</time>
      </trkpt>
      <trkpt lat="40.348145999014377593994140625" lon="-1.1011219024658203125">
        <ele>922.79998779296875</ele>
        <time>2022-05-06T07:28:14.000Z</time>
      </trkpt>
      <trkpt lat="40.34819637425243854522705078125" lon="-1.1010701023042201995849609375">
        <ele>923</ele>
        <time>2022-05-06T07:28:16.000Z</time>
      </trkpt>
      <trkpt lat="40.34825286827981472015380859375" lon="-1.10102190636098384857177734375">
        <ele>923.20001220703125</ele>
        <time>2022-05-06T07:28:18.000Z</time>
      </trkpt>
      <trkpt lat="40.34831263124942779541015625" lon="-1.10097614116966724395751953125">
        <ele>923.5999755859375</ele>
        <time>2022-05-06T07:28:20.000Z</time>
      </trkpt>
      <trkpt lat="40.34834104590117931365966796875" lon="-1.100956611335277557373046875">
        <ele>923.5999755859375</ele>
        <time>2022-05-06T07:28:21.000Z</time>
      </trkpt>
      <trkpt lat="40.34836803562939167022705078125" lon="-1.10093875788152217864990234375">
        <ele>923.79998779296875</ele>
        <time>2022-05-06T07:28:22.000Z</time>
      </trkpt>
      <trkpt lat="40.3484227694571018218994140625" lon="-1.1009054817259311676025390625">
        <ele>924.20001220703125</ele>
        <time>2022-05-06T07:28:24.000Z</time>
      </trkpt>
      <trkpt lat="40.3484814427793025970458984375" lon="-1.1008786596357822418212890625">
        <ele>924.5999755859375</ele>
        <time>2022-05-06T07:28:26.000Z</time>
      </trkpt>
      <trkpt lat="40.348544307053089141845703125" lon="-1.10085544176399707794189453125">
        <ele>925</ele>
        <time>2022-05-06T07:28:28.000Z</time>
      </trkpt>
      <trkpt lat="40.34860474057495594024658203125" lon="-1.10082359053194522857666015625">
        <ele>925.20001220703125</ele>
        <time>2022-05-06T07:28:30.000Z</time>
      </trkpt>
      <trkpt lat="40.3486564569175243377685546875" lon="-1.1007810942828655242919921875">
        <ele>925.4000244140625</ele>
        <time>2022-05-06T07:28:32.000Z</time>
      </trkpt>
      <trkpt lat="40.34869350492954254150390625" lon="-1.10073708929121494293212890625">
        <ele>925.5999755859375</ele>
        <time>2022-05-06T07:28:34.000Z</time>
      </trkpt>
      <trkpt lat="40.348732732236385345458984375" lon="-1.1006781645119190216064453125">
        <ele>925.79998779296875</ele>
        <time>2022-05-06T07:28:36.000Z</time>
      </trkpt>
      <trkpt lat="40.34876449964940547943115234375" lon="-1.1006131209433078765869140625">
        <ele>925.5999755859375</ele>
        <time>2022-05-06T07:28:38.000Z</time>
      </trkpt>
      <trkpt lat="40.34879148937761783599853515625" lon="-1.10054078511893749237060546875">
        <ele>925.79998779296875</ele>
        <time>2022-05-06T07:28:40.000Z</time>
      </trkpt>
      <trkpt lat="40.348810851573944091796875" lon="-1.1004625819623470306396484375">
        <ele>926</ele>
        <time>2022-05-06T07:28:42.000Z</time>
      </trkpt>
      <trkpt lat="40.348813869059085845947265625" lon="-1.1004240252077579498291015625">
        <ele>926</ele>
        <time>2022-05-06T07:28:43.000Z</time>
      </trkpt>
      <trkpt lat="40.348805822432041168212890625" lon="-1.10039024613797664642333984375">
        <ele>926</ele>
        <time>2022-05-06T07:28:44.000Z</time>
      </trkpt>
      <trkpt lat="40.3487647511065006256103515625" lon="-1.10032998025417327880859375">
        <ele>925.5999755859375</ele>
        <time>2022-05-06T07:28:46.000Z</time>
      </trkpt>
      <trkpt lat="40.34874035976827144622802734375" lon="-1.10030508600175380706787109375">
        <ele>925.4000244140625</ele>
        <time>2022-05-06T07:28:47.000Z</time>
      </trkpt>
      <trkpt lat="40.348709933459758758544921875" lon="-1.10028765164315700531005859375">
        <ele>925</ele>
        <time>2022-05-06T07:28:48.000Z</time>
      </trkpt>
      <trkpt lat="40.34863541834056377410888671875" lon="-1.10027088783681392669677734375">
        <ele>924.4000244140625</ele>
        <time>2022-05-06T07:28:50.000Z</time>
      </trkpt>
      <trkpt lat="40.34859367646276950836181640625" lon="-1.10026719979941844940185546875">
        <ele>924</ele>
        <time>2022-05-06T07:28:51.000Z</time>
      </trkpt>
      <trkpt lat="40.348550342023372650146484375" lon="-1.1002640984952449798583984375">
        <ele>923.5999755859375</ele>
        <time>2022-05-06T07:28:52.000Z</time>
      </trkpt>
      <trkpt lat="40.3484589792788028717041015625" lon="-1.10025680623948574066162109375">
        <ele>922.5999755859375</ele>
        <time>2022-05-06T07:28:54.000Z</time>
      </trkpt>
      <trkpt lat="40.3483615815639495849609375" lon="-1.100247167050838470458984375">
        <ele>921.79998779296875</ele>
        <time>2022-05-06T07:28:56.000Z</time>
      </trkpt>
      <trkpt lat="40.34826259128749370574951171875" lon="-1.10023635439574718475341796875">
        <ele>920.79998779296875</ele>
        <time>2022-05-06T07:28:58.000Z</time>
      </trkpt>
      <trkpt lat="40.34816251136362552642822265625" lon="-1.10022713430225849151611328125">
        <ele>919.79998779296875</ele>
        <time>2022-05-06T07:29:00.000Z</time>
      </trkpt>
      <trkpt lat="40.34805404953658580780029296875" lon="-1.100217662751674652099609375">
        <ele>918.79998779296875</ele>
        <time>2022-05-06T07:29:02.000Z</time>
      </trkpt>
      <trkpt lat="40.347943492233753204345703125" lon="-1.10020919702947139739990234375">
        <ele>917.5999755859375</ele>
        <time>2022-05-06T07:29:04.000Z</time>
      </trkpt>
      <trkpt lat="40.34783544950187206268310546875" lon="-1.10020148567855358123779296875">
        <ele>916.5999755859375</ele>
        <time>2022-05-06T07:29:06.000Z</time>
      </trkpt>
      <trkpt lat="40.3477304242551326751708984375" lon="-1.1001913435757160186767578125">
        <ele>915.5999755859375</ele>
        <time>2022-05-06T07:29:08.000Z</time>
      </trkpt>
      <trkpt lat="40.34767921082675457000732421875" lon="-1.10018514096736907958984375">
        <ele>915.20001220703125</ele>
        <time>2022-05-06T07:29:09.000Z</time>
      </trkpt>
      <trkpt lat="40.34762657247483730316162109375" lon="-1.10017952509224414825439453125">
        <ele>914.5999755859375</ele>
        <time>2022-05-06T07:29:10.000Z</time>
      </trkpt>
      <trkpt lat="40.34752079285681247711181640625" lon="-1.10016963444650173187255859375">
        <ele>914</ele>
        <time>2022-05-06T07:29:12.000Z</time>
      </trkpt>
      <trkpt lat="40.34741853363811969757080078125" lon="-1.100152619183063507080078125">
        <ele>913.5999755859375</ele>
        <time>2022-05-06T07:29:14.000Z</time>
      </trkpt>
      <trkpt lat="40.34731962718069553375244140625" lon="-1.10013283789157867431640625">
        <ele>913.4000244140625</ele>
        <time>2022-05-06T07:29:16.000Z</time>
      </trkpt>
      <trkpt lat="40.3472211398184299468994140625" lon="-1.1001135595142841339111328125">
        <ele>913.20001220703125</ele>
        <time>2022-05-06T07:29:18.000Z</time>
      </trkpt>
      <trkpt lat="40.3471235744655132293701171875" lon="-1.1000880785286426544189453125">
        <ele>913</ele>
        <time>2022-05-06T07:29:20.000Z</time>
      </trkpt>
      <trkpt lat="40.34707504324615001678466796875" lon="-1.10007273964583873748779296875">
        <ele>913</ele>
        <time>2022-05-06T07:29:21.000Z</time>
      </trkpt>
      <trkpt lat="40.3470263443887233734130859375" lon="-1.10005564056336879730224609375">
        <ele>912.79998779296875</ele>
        <time>2022-05-06T07:29:22.000Z</time>
      </trkpt>
      <trkpt lat="40.34692768938839435577392578125" lon="-1.1000166647136211395263671875">
        <ele>912.79998779296875</ele>
        <time>2022-05-06T07:29:24.000Z</time>
      </trkpt>
      <trkpt lat="40.3468281961977481842041015625" lon="-1.09997299499809741973876953125">
        <ele>912.79998779296875</ele>
        <time>2022-05-06T07:29:26.000Z</time>
      </trkpt>
      <trkpt lat="40.3467286191880702972412109375" lon="-1.0999224521219730377197265625">
        <ele>913.20001220703125</ele>
        <time>2022-05-06T07:29:28.000Z</time>
      </trkpt>
      <trkpt lat="40.346628539264202117919921875" lon="-1.0998664610087871551513671875">
        <ele>913.5999755859375</ele>
        <time>2022-05-06T07:29:30.000Z</time>
      </trkpt>
      <trkpt lat="40.3465274535119533538818359375" lon="-1.0998035967350006103515625">
        <ele>914</ele>
        <time>2022-05-06T07:29:32.000Z</time>
      </trkpt>
      <trkpt lat="40.3464268706738948822021484375" lon="-1.0997333563864231109619140625">
        <ele>914.4000244140625</ele>
        <time>2022-05-06T07:29:34.000Z</time>
      </trkpt>
      <trkpt lat="40.3463293053209781646728515625" lon="-1.09965615905821323394775390625">
        <ele>914.79998779296875</ele>
        <time>2022-05-06T07:29:36.000Z</time>
      </trkpt>
      <trkpt lat="40.3462334163486957550048828125" lon="-1.09957569278776645660400390625">
        <ele>915.20001220703125</ele>
        <time>2022-05-06T07:29:38.000Z</time>
      </trkpt>
      <trkpt lat="40.34618832170963287353515625" lon="-1.099537052214145660400390625">
        <ele>915.20001220703125</ele>
        <time>2022-05-06T07:29:39.000Z</time>
      </trkpt>
      <trkpt lat="40.3461472503840923309326171875" lon="-1.099499166011810302734375">
        <ele>915.4000244140625</ele>
        <time>2022-05-06T07:29:40.000Z</time>
      </trkpt>
      <trkpt lat="40.34610919654369354248046875" lon="-1.0994634591042995452880859375">
        <ele>915.4000244140625</ele>
        <time>2022-05-06T07:29:41.000Z</time>
      </trkpt>
      <trkpt lat="40.34607374109327793121337890625" lon="-1.09943009912967681884765625">
        <ele>915.5999755859375</ele>
        <time>2022-05-06T07:29:42.000Z</time>
      </trkpt>
      <trkpt lat="40.34603954292833805084228515625" lon="-1.09939782880246639251708984375">
        <ele>915.5999755859375</ele>
        <time>2022-05-06T07:29:43.000Z</time>
      </trkpt>
      <trkpt lat="40.34600568003952503204345703125" lon="-1.09936430118978023529052734375">
        <ele>915.79998779296875</ele>
        <time>2022-05-06T07:29:44.000Z</time>
      </trkpt>
      <trkpt lat="40.34597240388393402099609375" lon="-1.099329851567745208740234375">
        <ele>916</ele>
        <time>2022-05-06T07:29:45.000Z</time>
      </trkpt>
      <trkpt lat="40.34593912772834300994873046875" lon="-1.09929439611732959747314453125">
        <ele>916</ele>
        <time>2022-05-06T07:29:46.000Z</time>
      </trkpt>
      <trkpt lat="40.34590392373502254486083984375" lon="-1.0992591083049774169921875">
        <ele>915.5999755859375</ele>
        <time>2022-05-06T07:29:47.000Z</time>
      </trkpt>
      <trkpt lat="40.34586855210363864898681640625" lon="-1.09922130592167377471923828125">
        <ele>915.20001220703125</ele>
        <time>2022-05-06T07:29:48.000Z</time>
      </trkpt>
      <trkpt lat="40.3458009101450443267822265625" lon="-1.0991348884999752044677734375">
        <ele>914.5999755859375</ele>
        <time>2022-05-06T07:29:50.000Z</time>
      </trkpt>
      <trkpt lat="40.3457268141210079193115234375" lon="-1.09904143027961254119873046875">
        <ele>913.79998779296875</ele>
        <time>2022-05-06T07:29:52.000Z</time>
      </trkpt>
      <trkpt lat="40.34568700008094310760498046875" lon="-1.09899298287928104400634765625">
        <ele>913.20001220703125</ele>
        <time>2022-05-06T07:29:53.000Z</time>
      </trkpt>
      <trkpt lat="40.34564592875540256500244140625" lon="-1.0989427752792835235595703125">
        <ele>912.79998779296875</ele>
        <time>2022-05-06T07:29:54.000Z</time>
      </trkpt>
      <trkpt lat="40.34556093625724315643310546875" lon="-1.09883892349898815155029296875">
        <ele>911.79998779296875</ele>
        <time>2022-05-06T07:29:56.000Z</time>
      </trkpt>
      <trkpt lat="40.34547644667327404022216796875" lon="-1.09873716719448566436767578125">
        <ele>911</ele>
        <time>2022-05-06T07:29:58.000Z</time>
      </trkpt>
      <trkpt lat="40.34543520770967006683349609375" lon="-1.0986866243183612823486328125">
        <ele>910.79998779296875</ele>
        <time>2022-05-06T07:29:59.000Z</time>
      </trkpt>
      <trkpt lat="40.34539463929831981658935546875" lon="-1.09863641671836376190185546875">
        <ele>910.5999755859375</ele>
        <time>2022-05-06T07:30:00.000Z</time>
      </trkpt>
      <trkpt lat="40.345311574637889862060546875" lon="-1.09853851608932018280029296875">
        <ele>910</ele>
        <time>2022-05-06T07:30:02.000Z</time>
      </trkpt>
      <trkpt lat="40.345227085053920745849609375" lon="-1.09843659214675426483154296875">
        <ele>909.5999755859375</ele>
        <time>2022-05-06T07:30:04.000Z</time>
      </trkpt>
      <trkpt lat="40.345183499157428741455078125" lon="-1.09838403761386871337890625">
        <ele>909.20001220703125</ele>
        <time>2022-05-06T07:30:05.000Z</time>
      </trkpt>
      <trkpt lat="40.3451397456228733062744140625" lon="-1.09833047725260257720947265625">
        <ele>908.79998779296875</ele>
        <time>2022-05-06T07:30:06.000Z</time>
      </trkpt>
      <trkpt lat="40.34504829905927181243896484375" lon="-1.09822402708232402801513671875">
        <ele>908</ele>
        <time>2022-05-06T07:30:08.000Z</time>
      </trkpt>
      <trkpt lat="40.34499985165894031524658203125" lon="-1.098171137273311614990234375">
        <ele>907.5999755859375</ele>
        <time>2022-05-06T07:30:09.000Z</time>
      </trkpt>
      <trkpt lat="40.34495023079216480255126953125" lon="-1.098118163645267486572265625">
        <ele>907.20001220703125</ele>
        <time>2022-05-06T07:30:10.000Z</time>
      </trkpt>
      <trkpt lat="40.344898514449596405029296875" lon="-1.0980666987597942352294921875">
        <ele>907</ele>
        <time>2022-05-06T07:30:11.000Z</time>
      </trkpt>
      <trkpt lat="40.34484528936445713043212890625" lon="-1.09801598824560642242431640625">
        <ele>906.5999755859375</ele>
        <time>2022-05-06T07:30:12.000Z</time>
      </trkpt>
      <trkpt lat="40.34473364241421222686767578125" lon="-1.09791959635913372039794921875">
        <ele>906.5999755859375</ele>
        <time>2022-05-06T07:30:14.000Z</time>
      </trkpt>
      <trkpt lat="40.34461713396012783050537109375" lon="-1.09783125109970569610595703125">
        <ele>906.79998779296875</ele>
        <time>2022-05-06T07:30:16.000Z</time>
      </trkpt>
      <trkpt lat="40.34455745480954647064208984375" lon="-1.0977904312312602996826171875">
        <ele>907</ele>
        <time>2022-05-06T07:30:17.000Z</time>
      </trkpt>
      <trkpt lat="40.34449593164026737213134765625" lon="-1.09775179065763950347900390625">
        <ele>907</ele>
        <time>2022-05-06T07:30:18.000Z</time>
      </trkpt>
      <trkpt lat="40.344369113445281982421875" lon="-1.0976821370422840118408203125">
        <ele>907</ele>
        <time>2022-05-06T07:30:20.000Z</time>
      </trkpt>
      <trkpt lat="40.3442412056028842926025390625" lon="-1.09762438572943210601806640625">
        <ele>906.79998779296875</ele>
        <time>2022-05-06T07:30:22.000Z</time>
      </trkpt>
      <trkpt lat="40.34411229193210601806640625" lon="-1.09757526777684688568115234375">
        <ele>906</ele>
        <time>2022-05-06T07:30:24.000Z</time>
      </trkpt>
      <trkpt lat="40.34398698247969150543212890625" lon="-1.09752799384295940399169921875">
        <ele>905.4000244140625</ele>
        <time>2022-05-06T07:30:26.000Z</time>
      </trkpt>
      <trkpt lat="40.343860499560832977294921875" lon="-1.09748641960322856903076171875">
        <ele>904.5999755859375</ele>
        <time>2022-05-06T07:30:28.000Z</time>
      </trkpt>
      <trkpt lat="40.34373217262327671051025390625" lon="-1.09745071269571781158447265625">
        <ele>904</ele>
        <time>2022-05-06T07:30:30.000Z</time>
      </trkpt>
      <trkpt lat="40.34360795281827449798583984375" lon="-1.0974192805588245391845703125">
        <ele>903.79998779296875</ele>
        <time>2022-05-06T07:30:32.000Z</time>
      </trkpt>
      <trkpt lat="40.3435485251247882843017578125" lon="-1.097402684390544891357421875">
        <ele>904</ele>
        <time>2022-05-06T07:30:33.000Z</time>
      </trkpt>
      <trkpt lat="40.34349144436419010162353515625" lon="-1.0973842442035675048828125">
        <ele>904.20001220703125</ele>
        <time>2022-05-06T07:30:34.000Z</time>
      </trkpt>
      <trkpt lat="40.34343662671744823455810546875" lon="-1.0973663069307804107666015625">
        <ele>904.20001220703125</ele>
        <time>2022-05-06T07:30:35.000Z</time>
      </trkpt>
      <trkpt lat="40.3433834016323089599609375" lon="-1.0973502136766910552978515625">
        <ele>904.4000244140625</ele>
        <time>2022-05-06T07:30:36.000Z</time>
      </trkpt>
      <trkpt lat="40.34327988512814044952392578125" lon="-1.0973163507878780364990234375">
        <ele>904.5999755859375</ele>
        <time>2022-05-06T07:30:38.000Z</time>
      </trkpt>
      <trkpt lat="40.34318349324166774749755859375" lon="-1.09728164970874786376953125">
        <ele>904.79998779296875</ele>
        <time>2022-05-06T07:30:40.000Z</time>
      </trkpt>
      <trkpt lat="40.34309766255319118499755859375" lon="-1.09724753536283969879150390625">
        <ele>905.20001220703125</ele>
        <time>2022-05-06T07:30:42.000Z</time>
      </trkpt>
      <trkpt lat="40.34301551990211009979248046875" lon="-1.09721166081726551055908203125">
        <ele>905.4000244140625</ele>
        <time>2022-05-06T07:30:44.000Z</time>
      </trkpt>
      <trkpt lat="40.34293605946004390716552734375" lon="-1.0971768759191036224365234375">
        <ele>905.4000244140625</ele>
        <time>2022-05-06T07:30:46.000Z</time>
      </trkpt>
      <trkpt lat="40.342858694493770599365234375" lon="-1.097155250608921051025390625">
        <ele>905.5999755859375</ele>
        <time>2022-05-06T07:30:48.000Z</time>
      </trkpt>
      <trkpt lat="40.3427948243916034698486328125" lon="-1.09717729501426219940185546875">
        <ele>905.4000244140625</ele>
        <time>2022-05-06T07:30:50.000Z</time>
      </trkpt>
      <trkpt lat="40.34275400452315807342529296875" lon="-1.09721668995916843414306640625">
        <ele>905</ele>
        <time>2022-05-06T07:30:52.000Z</time>
      </trkpt>
      <trkpt lat="40.3427284397184848785400390625" lon="-1.09725859947502613067626953125">
        <ele>904.79998779296875</ele>
        <time>2022-05-06T07:30:54.000Z</time>
      </trkpt>
      <trkpt lat="40.3427136875689029693603515625" lon="-1.097308807075023651123046875">
        <ele>904.5999755859375</ele>
        <time>2022-05-06T07:30:56.000Z</time>
      </trkpt>
      <trkpt lat="40.34270706586539745330810546875" lon="-1.0973693244159221649169921875">
        <ele>904.4000244140625</ele>
        <time>2022-05-06T07:30:58.000Z</time>
      </trkpt>
      <trkpt lat="40.34269315190613269805908203125" lon="-1.0974276624619960784912109375">
        <ele>904.20001220703125</ele>
        <time>2022-05-06T07:31:00.000Z</time>
      </trkpt>
      <trkpt lat="40.34267823211848735809326171875" lon="-1.09745088033378124237060546875">
        <ele>904.20001220703125</ele>
        <time>2022-05-06T07:31:01.000Z</time>
      </trkpt>
      <trkpt lat="40.34266054630279541015625" lon="-1.097460351884365081787109375">
        <ele>904.20001220703125</ele>
        <time>2022-05-06T07:31:02.000Z</time>
      </trkpt>
      <trkpt lat="40.342641770839691162109375" lon="-1.097453646361827850341796875">
        <ele>904.20001220703125</ele>
        <time>2022-05-06T07:31:03.000Z</time>
      </trkpt>
      <trkpt lat="40.34262894652783870697021484375" lon="-1.0974350385367870330810546875">
        <ele>904.20001220703125</ele>
        <time>2022-05-06T07:31:04.000Z</time>
      </trkpt>
      <trkpt lat="40.34262207336723804473876953125" lon="-1.0973810590803623199462890625">
        <ele>904.4000244140625</ele>
        <time>2022-05-06T07:31:06.000Z</time>
      </trkpt>
      <trkpt lat="40.34262576140463352203369140625" lon="-1.0973549075424671173095703125">
        <ele>904.4000244140625</ele>
        <time>2022-05-06T07:31:07.000Z</time>
      </trkpt>
      <trkpt lat="40.34262676723301410675048828125" lon="-1.0973284207284450531005859375">
        <ele>904.4000244140625</ele>
        <time>2022-05-06T07:31:08.000Z</time>
      </trkpt>
      <trkpt lat="40.3426255099475383758544921875" lon="-1.09727083705365657806396484375">
        <ele>904.5999755859375</ele>
        <time>2022-05-06T07:31:10.000Z</time>
      </trkpt>
      <trkpt lat="40.34261872060596942901611328125" lon="-1.09719774685800075531005859375">
        <ele>905</ele>
        <time>2022-05-06T07:31:12.000Z</time>
      </trkpt>
      <trkpt lat="40.3426127694547176361083984375" lon="-1.09716002829372882843017578125">
        <ele>905.20001220703125</ele>
        <time>2022-05-06T07:31:13.000Z</time>
      </trkpt>
      <trkpt lat="40.34260380081832408905029296875" lon="-1.09712633304297924041748046875">
        <ele>905.4000244140625</ele>
        <time>2022-05-06T07:31:14.000Z</time>
      </trkpt>
      <trkpt lat="40.342577062547206878662109375" lon="-1.0970689170062541961669921875">
        <ele>905.79998779296875</ele>
        <time>2022-05-06T07:31:16.000Z</time>
      </trkpt>
      <trkpt lat="40.34255116246640682220458984375" lon="-1.09700932167470455169677734375">
        <ele>906</ele>
        <time>2022-05-06T07:31:18.000Z</time>
      </trkpt>
      <trkpt lat="40.34254076890647411346435546875" lon="-1.09697395004332065582275390625">
        <ele>906.20001220703125</ele>
        <time>2022-05-06T07:31:19.000Z</time>
      </trkpt>
      <trkpt lat="40.3425309620797634124755859375" lon="-1.0969358123838901519775390625">
        <ele>906.4000244140625</ele>
        <time>2022-05-06T07:31:20.000Z</time>
      </trkpt>
      <trkpt lat="40.34250455908477306365966796875" lon="-1.09686188399791717529296875">
        <ele>906.5999755859375</ele>
        <time>2022-05-06T07:31:22.000Z</time>
      </trkpt>
      <trkpt lat="40.34246767871081829071044921875" lon="-1.0968075692653656005859375">
        <ele>906.5999755859375</ele>
        <time>2022-05-06T07:31:24.000Z</time>
      </trkpt>
      <trkpt lat="40.34244798123836517333984375" lon="-1.09678619541227817535400390625">
        <ele>906.4000244140625</ele>
        <time>2022-05-06T07:31:25.000Z</time>
      </trkpt>
      <trkpt lat="40.34242660738527774810791015625" lon="-1.09676239080727100372314453125">
        <ele>906.4000244140625</ele>
        <time>2022-05-06T07:31:26.000Z</time>
      </trkpt>
      <trkpt lat="40.34238235093653202056884765625" lon="-1.09670740552246570587158203125">
        <ele>906.20001220703125</ele>
        <time>2022-05-06T07:31:28.000Z</time>
      </trkpt>
      <trkpt lat="40.34233591519296169281005859375" lon="-1.0966535098850727081298828125">
        <ele>906</ele>
        <time>2022-05-06T07:31:30.000Z</time>
      </trkpt>
      <trkpt lat="40.34231445752084255218505859375" lon="-1.0966263525187969207763671875">
        <ele>905.79998779296875</ele>
        <time>2022-05-06T07:31:31.000Z</time>
      </trkpt>
      <trkpt lat="40.3422935865819454193115234375" lon="-1.09659894369542598724365234375">
        <ele>905.79998779296875</ele>
        <time>2022-05-06T07:31:32.000Z</time>
      </trkpt>
      <trkpt lat="40.3422536887228488922119140625" lon="-1.0965405218303203582763671875">
        <ele>905.5999755859375</ele>
        <time>2022-05-06T07:31:34.000Z</time>
      </trkpt>
      <trkpt lat="40.34221404232084751129150390625" lon="-1.09648344106972217559814453125">
        <ele>905.4000244140625</ele>
        <time>2022-05-06T07:31:36.000Z</time>
      </trkpt>
      <trkpt lat="40.34217263571918010711669921875" lon="-1.09642527066171169281005859375">
        <ele>905.20001220703125</ele>
        <time>2022-05-06T07:31:38.000Z</time>
      </trkpt>
      <trkpt lat="40.34213491715490818023681640625" lon="-1.09636123292148113250732421875">
        <ele>905.20001220703125</ele>
        <time>2022-05-06T07:31:40.000Z</time>
      </trkpt>
      <trkpt lat="40.3421148844063282012939453125" lon="-1.096331141889095306396484375">
        <ele>905.4000244140625</ele>
        <time>2022-05-06T07:31:41.000Z</time>
      </trkpt>
      <trkpt lat="40.3420947678387165069580078125" lon="-1.0963006317615509033203125">
        <ele>905.5999755859375</ele>
        <time>2022-05-06T07:31:42.000Z</time>
      </trkpt>
      <trkpt lat="40.34205730073153972625732421875" lon="-1.0962411202490329742431640625">
        <ele>906</ele>
        <time>2022-05-06T07:31:44.000Z</time>
      </trkpt>
      <trkpt lat="40.3420173190534114837646484375" lon="-1.0961864702403545379638671875">
        <ele>906.4000244140625</ele>
        <time>2022-05-06T07:31:46.000Z</time>
      </trkpt>
      <trkpt lat="40.3419779241085052490234375" lon="-1.0961261205375194549560546875">
        <ele>906.79998779296875</ele>
        <time>2022-05-06T07:31:48.000Z</time>
      </trkpt>
      <trkpt lat="40.34194246865808963775634765625" lon="-1.09606618992984294891357421875">
        <ele>907.20001220703125</ele>
        <time>2022-05-06T07:31:50.000Z</time>
      </trkpt>
      <trkpt lat="40.34191413782536983489990234375" lon="-1.0960042476654052734375">
        <ele>907.5999755859375</ele>
        <time>2022-05-06T07:31:52.000Z</time>
      </trkpt>
      <trkpt lat="40.3418822027742862701416015625" lon="-1.0959460772573947906494140625">
        <ele>908</ele>
        <time>2022-05-06T07:31:54.000Z</time>
      </trkpt>
      <trkpt lat="40.34185010008513927459716796875" lon="-1.095893941819667816162109375">
        <ele>908.4000244140625</ele>
        <time>2022-05-06T07:31:56.000Z</time>
      </trkpt>
      <trkpt lat="40.3418211825191974639892578125" lon="-1.09584004618227481842041015625">
        <ele>908.5999755859375</ele>
        <time>2022-05-06T07:31:58.000Z</time>
      </trkpt>
      <trkpt lat="40.3417920134961605072021484375" lon="-1.09578824602067470550537109375">
        <ele>909</ele>
        <time>2022-05-06T07:32:00.000Z</time>
      </trkpt>
      <trkpt lat="40.3417759202420711517333984375" lon="-1.09576645307242870330810546875">
        <ele>909.20001220703125</ele>
        <time>2022-05-06T07:32:01.000Z</time>
      </trkpt>
      <trkpt lat="40.34175907261669635772705078125" lon="-1.09574608504772186279296875">
        <ele>909.4000244140625</ele>
        <time>2022-05-06T07:32:02.000Z</time>
      </trkpt>
      <trkpt lat="40.34173375926911830902099609375" lon="-1.0957030020654201507568359375">
        <ele>909.5999755859375</ele>
        <time>2022-05-06T07:32:04.000Z</time>
      </trkpt>
      <trkpt lat="40.34172110259532928466796875" lon="-1.0956798680126667022705078125">
        <ele>909.79998779296875</ele>
        <time>2022-05-06T07:32:05.000Z</time>
      </trkpt>
      <trkpt lat="40.34170961938798427581787109375" lon="-1.09565748833119869232177734375">
        <ele>909.79998779296875</ele>
        <time>2022-05-06T07:32:06.000Z</time>
      </trkpt>
      <trkpt lat="40.34168531186878681182861328125" lon="-1.09561356715857982635498046875">
        <ele>910.20001220703125</ele>
        <time>2022-05-06T07:32:08.000Z</time>
      </trkpt>
      <trkpt lat="40.3416609205305576324462890625" lon="-1.0955638624727725982666015625">
        <ele>910.5999755859375</ele>
        <time>2022-05-06T07:32:10.000Z</time>
      </trkpt>
      <trkpt lat="40.34165111370384693145751953125" lon="-1.09553846530616283416748046875">
        <ele>910.79998779296875</ele>
        <time>2022-05-06T07:32:11.000Z</time>
      </trkpt>
      <trkpt lat="40.34164155833423137664794921875" lon="-1.0955135710537433624267578125">
        <ele>911</ele>
        <time>2022-05-06T07:32:12.000Z</time>
      </trkpt>
      <trkpt lat="40.34161456860601902008056640625" lon="-1.09546713531017303466796875">
        <ele>911.4000244140625</ele>
        <time>2022-05-06T07:32:14.000Z</time>
      </trkpt>
      <trkpt lat="40.34158875234425067901611328125" lon="-1.09542028047144412994384765625">
        <ele>912</ele>
        <time>2022-05-06T07:32:16.000Z</time>
      </trkpt>
      <trkpt lat="40.3415621817111968994140625" lon="-1.09537133015692234039306640625">
        <ele>912.4000244140625</ele>
        <time>2022-05-06T07:32:18.000Z</time>
      </trkpt>
      <trkpt lat="40.34153661690652370452880859375" lon="-1.0953217931091785430908203125">
        <ele>912.79998779296875</ele>
        <time>2022-05-06T07:32:20.000Z</time>
      </trkpt>
      <trkpt lat="40.34150945954024791717529296875" lon="-1.0952768661081790924072265625">
        <ele>913.4000244140625</ele>
        <time>2022-05-06T07:32:22.000Z</time>
      </trkpt>
      <trkpt lat="40.3414959646761417388916015625" lon="-1.0952550731599330902099609375">
        <ele>913.5999755859375</ele>
        <time>2022-05-06T07:32:23.000Z</time>
      </trkpt>
      <trkpt lat="40.341482050716876983642578125" lon="-1.0952339507639408111572265625">
        <ele>913.79998779296875</ele>
        <time>2022-05-06T07:32:24.000Z</time>
      </trkpt>
      <trkpt lat="40.34145514480769634246826171875" lon="-1.09519111923873424530029296875">
        <ele>914.20001220703125</ele>
        <time>2022-05-06T07:32:26.000Z</time>
      </trkpt>
      <trkpt lat="40.34142731688916683197021484375" lon="-1.095148622989654541015625">
        <ele>914.5999755859375</ele>
        <time>2022-05-06T07:32:28.000Z</time>
      </trkpt>
      <trkpt lat="40.34141440875828266143798828125" lon="-1.0951276682317256927490234375">
        <ele>914.79998779296875</ele>
        <time>2022-05-06T07:32:29.000Z</time>
      </trkpt>
      <trkpt lat="40.34140099771320819854736328125" lon="-1.0951062105596065521240234375">
        <ele>915</ele>
        <time>2022-05-06T07:32:30.000Z</time>
      </trkpt>
      <trkpt lat="40.341387502849102020263671875" lon="-1.09508550725877285003662109375">
        <ele>915.4000244140625</ele>
        <time>2022-05-06T07:32:31.000Z</time>
      </trkpt>
      <trkpt lat="40.34137509763240814208984375" lon="-1.09506438486278057098388671875">
        <ele>915.5999755859375</ele>
        <time>2022-05-06T07:32:32.000Z</time>
      </trkpt>
      <trkpt lat="40.341345928609371185302734375" lon="-1.0950207151472568511962890625">
        <ele>916</ele>
        <time>2022-05-06T07:32:34.000Z</time>
      </trkpt>
      <trkpt lat="40.341321788728237152099609375" lon="-1.09497754834592342376708984375">
        <ele>916.4000244140625</ele>
        <time>2022-05-06T07:32:36.000Z</time>
      </trkpt>
      <trkpt lat="40.3413098864257335662841796875" lon="-1.09495676122605800628662109375">
        <ele>916.5999755859375</ele>
        <time>2022-05-06T07:32:37.000Z</time>
      </trkpt>
      <trkpt lat="40.3412971459329128265380859375" lon="-1.0949358902871608734130859375">
        <ele>917</ele>
        <time>2022-05-06T07:32:38.000Z</time>
      </trkpt>
      <trkpt lat="40.341271497309207916259765625" lon="-1.09489289112389087677001953125">
        <ele>918</ele>
        <time>2022-05-06T07:32:40.000Z</time>
      </trkpt>
      <trkpt lat="40.34123830497264862060546875" lon="-1.0948544181883335113525390625">
        <ele>919</ele>
        <time>2022-05-06T07:32:42.000Z</time>
      </trkpt>
      <trkpt lat="40.3412076272070407867431640625" lon="-1.0948141850531101226806640625">
        <ele>919.5999755859375</ele>
        <time>2022-05-06T07:32:44.000Z</time>
      </trkpt>
      <trkpt lat="40.34118088893592357635498046875" lon="-1.094772107899188995361328125">
        <ele>919.79998779296875</ele>
        <time>2022-05-06T07:32:46.000Z</time>
      </trkpt>
      <trkpt lat="40.3411563299596309661865234375" lon="-1.09472818672657012939453125">
        <ele>920.5999755859375</ele>
        <time>2022-05-06T07:32:48.000Z</time>
      </trkpt>
      <trkpt lat="40.34113193862140178680419921875" lon="-1.09468082897365093231201171875">
        <ele>921.4000244140625</ele>
        <time>2022-05-06T07:32:50.000Z</time>
      </trkpt>
      <trkpt lat="40.3411043621599674224853515625" lon="-1.0946348123252391815185546875">
        <ele>922.20001220703125</ele>
        <time>2022-05-06T07:32:52.000Z</time>
      </trkpt>
      <trkpt lat="40.34107510931789875030517578125" lon="-1.0945902206003665924072265625">
        <ele>923</ele>
        <time>2022-05-06T07:32:54.000Z</time>
      </trkpt>
      <trkpt lat="40.34104920923709869384765625" lon="-1.0945491492748260498046875">
        <ele>923.79998779296875</ele>
        <time>2022-05-06T07:32:56.000Z</time>
      </trkpt>
      <trkpt lat="40.341021381318569183349609375" lon="-1.09451352618634700775146484375">
        <ele>924.5999755859375</ele>
        <time>2022-05-06T07:32:58.000Z</time>
      </trkpt>
      <trkpt lat="40.34099967218935489654541015625" lon="-1.0944725386798381805419921875">
        <ele>925.20001220703125</ele>
        <time>2022-05-06T07:33:00.000Z</time>
      </trkpt>
      <trkpt lat="40.34097813069820404052734375" lon="-1.09443004243075847625732421875">
        <ele>926</ele>
        <time>2022-05-06T07:33:02.000Z</time>
      </trkpt>
      <trkpt lat="40.34095675684511661529541015625" lon="-1.09438695944845676422119140625">
        <ele>926.5999755859375</ele>
        <time>2022-05-06T07:33:04.000Z</time>
      </trkpt>
      <trkpt lat="40.340933538973331451416015625" lon="-1.0943488217890262603759765625">
        <ele>927.4000244140625</ele>
        <time>2022-05-06T07:33:06.000Z</time>
      </trkpt>
      <trkpt lat="40.34090931527316570281982421875" lon="-1.09430867247283458709716796875">
        <ele>927.79998779296875</ele>
        <time>2022-05-06T07:33:08.000Z</time>
      </trkpt>
      <trkpt lat="40.34088567830622196197509765625" lon="-1.09427061863243579864501953125">
        <ele>927.79998779296875</ele>
        <time>2022-05-06T07:33:10.000Z</time>
      </trkpt>
      <trkpt lat="40.34086145460605621337890625" lon="-1.09423172660171985626220703125">
        <ele>927.79998779296875</ele>
        <time>2022-05-06T07:33:12.000Z</time>
      </trkpt>
      <trkpt lat="40.3408344648778438568115234375" lon="-1.0941956005990505218505859375">
        <ele>927.79998779296875</ele>
        <time>2022-05-06T07:33:14.000Z</time>
      </trkpt>
      <trkpt lat="40.340823568403720855712890625" lon="-1.09417774714529514312744140625">
        <ele>927.79998779296875</ele>
        <time>2022-05-06T07:33:15.000Z</time>
      </trkpt>
      <trkpt lat="40.34081309102475643157958984375" lon="-1.0941573791205883026123046875">
        <ele>927.79998779296875</ele>
        <time>2022-05-06T07:33:16.000Z</time>
      </trkpt>
      <trkpt lat="40.340788364410400390625" lon="-1.0941191576421260833740234375">
        <ele>927.5999755859375</ele>
        <time>2022-05-06T07:33:18.000Z</time>
      </trkpt>
      <trkpt lat="40.34076347015798091888427734375" lon="-1.09408043324947357177734375">
        <ele>927.5999755859375</ele>
        <time>2022-05-06T07:33:20.000Z</time>
      </trkpt>
      <trkpt lat="40.3407553397119045257568359375" lon="-1.09405838884413242340087890625">
        <ele>927.5999755859375</ele>
        <time>2022-05-06T07:33:21.000Z</time>
      </trkpt>
      <trkpt lat="40.340744443237781524658203125" lon="-1.09403776936233043670654296875">
        <ele>927.5999755859375</ele>
        <time>2022-05-06T07:33:22.000Z</time>
      </trkpt>
      <trkpt lat="40.34072156064212322235107421875" lon="-1.0939974524080753326416015625">
        <ele>927.5999755859375</ele>
        <time>2022-05-06T07:33:24.000Z</time>
      </trkpt>
      <trkpt lat="40.34070110879838466644287109375" lon="-1.09395579434931278228759765625">
        <ele>927.5999755859375</ele>
        <time>2022-05-06T07:33:26.000Z</time>
      </trkpt>
      <trkpt lat="40.340676717460155487060546875" lon="-1.09391556121408939361572265625">
        <ele>927.79998779296875</ele>
        <time>2022-05-06T07:33:28.000Z</time>
      </trkpt>
      <trkpt lat="40.34065484069287776947021484375" lon="-1.093876250088214874267578125">
        <ele>928.4000244140625</ele>
        <time>2022-05-06T07:33:30.000Z</time>
      </trkpt>
      <trkpt lat="40.34062944352626800537109375" lon="-1.0938371904194355010986328125">
        <ele>929</ele>
        <time>2022-05-06T07:33:32.000Z</time>
      </trkpt>
      <trkpt lat="40.3406054712831974029541015625" lon="-1.09380139969289302825927734375">
        <ele>929.5999755859375</ele>
        <time>2022-05-06T07:33:34.000Z</time>
      </trkpt>
      <trkpt lat="40.340582840144634246826171875" lon="-1.09376619569957256317138671875">
        <ele>930</ele>
        <time>2022-05-06T07:33:36.000Z</time>
      </trkpt>
      <trkpt lat="40.34055710770189762115478515625" lon="-1.09373174607753753662109375">
        <ele>930.4000244140625</ele>
        <time>2022-05-06T07:33:38.000Z</time>
      </trkpt>
      <trkpt lat="40.3405293636023998260498046875" lon="-1.09369243495166301727294921875">
        <ele>930.79998779296875</ele>
        <time>2022-05-06T07:33:40.000Z</time>
      </trkpt>
      <trkpt lat="40.3405062295496463775634765625" lon="-1.09365521930158138275146484375">
        <ele>931.4000244140625</ele>
        <time>2022-05-06T07:33:42.000Z</time>
      </trkpt>
      <trkpt lat="40.3404854424297809600830078125" lon="-1.09362001530826091766357421875">
        <ele>931.79998779296875</ele>
        <time>2022-05-06T07:33:44.000Z</time>
      </trkpt>
      <trkpt lat="40.340464822947978973388671875" lon="-1.09358196146786212921142578125">
        <ele>932.4000244140625</ele>
        <time>2022-05-06T07:33:46.000Z</time>
      </trkpt>
      <trkpt lat="40.340442694723606109619140625" lon="-1.09354072250425815582275390625">
        <ele>933.4000244140625</ele>
        <time>2022-05-06T07:33:48.000Z</time>
      </trkpt>
      <trkpt lat="40.34042383544147014617919921875" lon="-1.09349914826452732086181640625">
        <ele>934.4000244140625</ele>
        <time>2022-05-06T07:33:50.000Z</time>
      </trkpt>
      <trkpt lat="40.34040254540741443634033203125" lon="-1.09346193261444568634033203125">
        <ele>935.20001220703125</ele>
        <time>2022-05-06T07:33:52.000Z</time>
      </trkpt>
      <trkpt lat="40.3403828479349613189697265625" lon="-1.09342387877404689788818359375">
        <ele>936.20001220703125</ele>
        <time>2022-05-06T07:33:54.000Z</time>
      </trkpt>
      <trkpt lat="40.3403714485466480255126953125" lon="-1.09340409748256206512451171875">
        <ele>936.5999755859375</ele>
        <time>2022-05-06T07:33:55.000Z</time>
      </trkpt>
      <trkpt lat="40.3403587080538272857666015625" lon="-1.09338632784783840179443359375">
        <ele>937.20001220703125</ele>
        <time>2022-05-06T07:33:56.000Z</time>
      </trkpt>
      <trkpt lat="40.3403369151055812835693359375" lon="-1.093346178531646728515625">
        <ele>938.20001220703125</ele>
        <time>2022-05-06T07:33:58.000Z</time>
      </trkpt>
      <trkpt lat="40.3403167985379695892333984375" lon="-1.09330452047288417816162109375">
        <ele>939.20001220703125</ele>
        <time>2022-05-06T07:34:00.000Z</time>
      </trkpt>
      <trkpt lat="40.34030045382678508758544921875" lon="-1.09326235949993133544921875">
        <ele>940</ele>
        <time>2022-05-06T07:34:02.000Z</time>
      </trkpt>
      <trkpt lat="40.34027866087853908538818359375" lon="-1.09322338365018367767333984375">
        <ele>940.5999755859375</ele>
        <time>2022-05-06T07:34:04.000Z</time>
      </trkpt>
      <trkpt lat="40.34025720320641994476318359375" lon="-1.093184240162372589111328125">
        <ele>941.4000244140625</ele>
        <time>2022-05-06T07:34:06.000Z</time>
      </trkpt>
      <trkpt lat="40.34023784101009368896484375" lon="-1.09314124099910259246826171875">
        <ele>942.20001220703125</ele>
        <time>2022-05-06T07:34:08.000Z</time>
      </trkpt>
      <trkpt lat="40.3402135334908962249755859375" lon="-1.09310151077806949615478515625">
        <ele>943</ele>
        <time>2022-05-06T07:34:10.000Z</time>
      </trkpt>
      <trkpt lat="40.34018998034298419952392578125" lon="-1.09306412748992443084716796875">
        <ele>944</ele>
        <time>2022-05-06T07:34:12.000Z</time>
      </trkpt>
      <trkpt lat="40.3401759825646877288818359375" lon="-1.09304434619843959808349609375">
        <ele>944.5999755859375</ele>
        <time>2022-05-06T07:34:13.000Z</time>
      </trkpt>
      <trkpt lat="40.34016248770058155059814453125" lon="-1.09302339144051074981689453125">
        <ele>945.20001220703125</ele>
        <time>2022-05-06T07:34:14.000Z</time>
      </trkpt>
      <trkpt lat="40.3401377610862255096435546875" lon="-1.0929805599153041839599609375">
        <ele>946.20001220703125</ele>
        <time>2022-05-06T07:34:16.000Z</time>
      </trkpt>
      <trkpt lat="40.34011621959507465362548828125" lon="-1.09293621964752674102783203125">
        <ele>947.4000244140625</ele>
        <time>2022-05-06T07:34:18.000Z</time>
      </trkpt>
      <trkpt lat="40.3400914929807186126708984375" lon="-1.09289414249360561370849609375">
        <ele>948.5999755859375</ele>
        <time>2022-05-06T07:34:20.000Z</time>
      </trkpt>
      <trkpt lat="40.3400655090808868408203125" lon="-1.0928531549870967864990234375">
        <ele>949.5999755859375</ele>
        <time>2022-05-06T07:34:22.000Z</time>
      </trkpt>
      <trkpt lat="40.340039022266864776611328125" lon="-1.09281308948993682861328125">
        <ele>950.79998779296875</ele>
        <time>2022-05-06T07:34:24.000Z</time>
      </trkpt>
      <trkpt lat="40.34000976942479610443115234375" lon="-1.0927740298211574554443359375">
        <ele>952</ele>
        <time>2022-05-06T07:34:26.000Z</time>
      </trkpt>
      <trkpt lat="40.33998479135334491729736328125" lon="-1.09273153357207775115966796875">
        <ele>952.79998779296875</ele>
        <time>2022-05-06T07:34:28.000Z</time>
      </trkpt>
      <trkpt lat="40.3399711288511753082275390625" lon="-1.09271292574703693389892578125">
        <ele>953</ele>
        <time>2022-05-06T07:34:29.000Z</time>
      </trkpt>
      <trkpt lat="40.33995889127254486083984375" lon="-1.0926957428455352783203125">
        <ele>953.20001220703125</ele>
        <time>2022-05-06T07:34:30.000Z</time>
      </trkpt>
      <trkpt lat="40.3399335779249668121337890625" lon="-1.09265827573835849761962890625">
        <ele>953.4000244140625</ele>
        <time>2022-05-06T07:34:32.000Z</time>
      </trkpt>
      <trkpt lat="40.3399044089019298553466796875" lon="-1.0926286876201629638671875">
        <ele>953.79998779296875</ele>
        <time>2022-05-06T07:34:34.000Z</time>
      </trkpt>
      <trkpt lat="40.33987716771662235260009765625" lon="-1.0925946570932865142822265625">
        <ele>954.20001220703125</ele>
        <time>2022-05-06T07:34:36.000Z</time>
      </trkpt>
      <trkpt lat="40.33985017798840999603271484375" lon="-1.0925618000328540802001953125">
        <ele>954.4000244140625</ele>
        <time>2022-05-06T07:34:38.000Z</time>
      </trkpt>
      <trkpt lat="40.3398229368031024932861328125" lon="-1.0925262607634067535400390625">
        <ele>954.79998779296875</ele>
        <time>2022-05-06T07:34:40.000Z</time>
      </trkpt>
      <trkpt lat="40.33979217521846294403076171875" lon="-1.0924913920462131500244140625">
        <ele>955</ele>
        <time>2022-05-06T07:34:42.000Z</time>
      </trkpt>
      <trkpt lat="40.3397642634809017181396484375" lon="-1.09245543368160724639892578125">
        <ele>955.4000244140625</ele>
        <time>2022-05-06T07:34:44.000Z</time>
      </trkpt>
      <trkpt lat="40.3397490084171295166015625" lon="-1.09243984334170818328857421875">
        <ele>955.5999755859375</ele>
        <time>2022-05-06T07:34:45.000Z</time>
      </trkpt>
      <trkpt lat="40.33973316662013530731201171875" lon="-1.0924233309924602508544921875">
        <ele>955.79998779296875</ele>
        <time>2022-05-06T07:34:46.000Z</time>
      </trkpt>
      <trkpt lat="40.33970676362514495849609375" lon="-1.09238686971366405487060546875">
        <ele>956</ele>
        <time>2022-05-06T07:34:48.000Z</time>
      </trkpt>
      <trkpt lat="40.3396851383149623870849609375" lon="-1.0923475585877895355224609375">
        <ele>956.4000244140625</ele>
        <time>2022-05-06T07:34:50.000Z</time>
      </trkpt>
      <trkpt lat="40.33965588547289371490478515625" lon="-1.0923150368034839630126953125">
        <ele>956.79998779296875</ele>
        <time>2022-05-06T07:34:52.000Z</time>
      </trkpt>
      <trkpt lat="40.3396261297166347503662109375" lon="-1.09228192828595638275146484375">
        <ele>957</ele>
        <time>2022-05-06T07:34:54.000Z</time>
      </trkpt>
      <trkpt lat="40.339593105018138885498046875" lon="-1.09224957413971424102783203125">
        <ele>957.4000244140625</ele>
        <time>2022-05-06T07:34:56.000Z</time>
      </trkpt>
      <trkpt lat="40.33955899067223072052001953125" lon="-1.09221856109797954559326171875">
        <ele>958</ele>
        <time>2022-05-06T07:34:58.000Z</time>
      </trkpt>
      <trkpt lat="40.3395228646695613861083984375" lon="-1.09218654222786426544189453125">
        <ele>958.4000244140625</ele>
        <time>2022-05-06T07:35:00.000Z</time>
      </trkpt>
      <trkpt lat="40.33948657102882862091064453125" lon="-1.09215670265257358551025390625">
        <ele>958.79998779296875</ele>
        <time>2022-05-06T07:35:02.000Z</time>
      </trkpt>
      <trkpt lat="40.3394517861306667327880859375" lon="-1.09212703071534633636474609375">
        <ele>959.4000244140625</ele>
        <time>2022-05-06T07:35:04.000Z</time>
      </trkpt>
      <trkpt lat="40.33941750414669513702392578125" lon="-1.09209802933037281036376953125">
        <ele>959.79998779296875</ele>
        <time>2022-05-06T07:35:06.000Z</time>
      </trkpt>
      <trkpt lat="40.3393790312111377716064453125" lon="-1.092065759003162384033203125">
        <ele>960.4000244140625</ele>
        <time>2022-05-06T07:35:08.000Z</time>
      </trkpt>
      <trkpt lat="40.33934039063751697540283203125" lon="-1.09203734435141086578369140625">
        <ele>960.79998779296875</ele>
        <time>2022-05-06T07:35:10.000Z</time>
      </trkpt>
      <trkpt lat="40.3393032588064670562744140625" lon="-1.09200918115675449371337890625">
        <ele>961.20001220703125</ele>
        <time>2022-05-06T07:35:12.000Z</time>
      </trkpt>
      <trkpt lat="40.3392851538956165313720703125" lon="-1.0919938422739505767822265625">
        <ele>961.5999755859375</ele>
        <time>2022-05-06T07:35:13.000Z</time>
      </trkpt>
      <trkpt lat="40.33926780335605144500732421875" lon="-1.09198152087628841400146484375">
        <ele>961.79998779296875</ele>
        <time>2022-05-06T07:35:14.000Z</time>
      </trkpt>
      <trkpt lat="40.33923310227692127227783203125" lon="-1.09195922501385211944580078125">
        <ele>962.20001220703125</ele>
        <time>2022-05-06T07:35:16.000Z</time>
      </trkpt>
      <trkpt lat="40.3391989879310131072998046875" lon="-1.09193206764757633209228515625">
        <ele>962.5999755859375</ele>
        <time>2022-05-06T07:35:18.000Z</time>
      </trkpt>
      <trkpt lat="40.33916093409061431884765625" lon="-1.0919053293764591217041015625">
        <ele>963</ele>
        <time>2022-05-06T07:35:20.000Z</time>
      </trkpt>
      <trkpt lat="40.33912614919245243072509765625" lon="-1.09188077040016651153564453125">
        <ele>963.20001220703125</ele>
        <time>2022-05-06T07:35:22.000Z</time>
      </trkpt>
      <trkpt lat="40.33909429796040058135986328125" lon="-1.09185176901519298553466796875">
        <ele>963.4000244140625</ele>
        <time>2022-05-06T07:35:24.000Z</time>
      </trkpt>
      <trkpt lat="40.339058339595794677734375" lon="-1.0918258689343929290771484375">
        <ele>963.4000244140625</ele>
        <time>2022-05-06T07:35:26.000Z</time>
      </trkpt>
      <trkpt lat="40.339018441736698150634765625" lon="-1.091804243624210357666015625">
        <ele>963.5999755859375</ele>
        <time>2022-05-06T07:35:28.000Z</time>
      </trkpt>
      <trkpt lat="40.33898332156240940093994140625" lon="-1.091785468161106109619140625">
        <ele>963.79998779296875</ele>
        <time>2022-05-06T07:35:30.000Z</time>
      </trkpt>
      <trkpt lat="40.33895063214004039764404296875" lon="-1.0917661897838115692138671875">
        <ele>963.79998779296875</ele>
        <time>2022-05-06T07:35:32.000Z</time>
      </trkpt>
      <trkpt lat="40.33891693688929080963134765625" lon="-1.09174414537847042083740234375">
        <ele>964</ele>
        <time>2022-05-06T07:35:34.000Z</time>
      </trkpt>
      <trkpt lat="40.33888240344822406768798828125" lon="-1.09171950258314609527587890625">
        <ele>964.20001220703125</ele>
        <time>2022-05-06T07:35:36.000Z</time>
      </trkpt>
      <trkpt lat="40.33884552307426929473876953125" lon="-1.091700978577136993408203125">
        <ele>964.20001220703125</ele>
        <time>2022-05-06T07:35:38.000Z</time>
      </trkpt>
      <trkpt lat="40.33882834017276763916015625" lon="-1.09168999828398227691650390625">
        <ele>964.4000244140625</ele>
        <time>2022-05-06T07:35:39.000Z</time>
      </trkpt>
      <trkpt lat="40.33881090581417083740234375" lon="-1.09167859889566898345947265625">
        <ele>964.4000244140625</ele>
        <time>2022-05-06T07:35:40.000Z</time>
      </trkpt>
      <trkpt lat="40.33879271708428859710693359375" lon="-1.09166703186929225921630859375">
        <ele>964.4000244140625</ele>
        <time>2022-05-06T07:35:41.000Z</time>
      </trkpt>
      <trkpt lat="40.33877335488796234130859375" lon="-1.0916568897664546966552734375">
        <ele>964.4000244140625</ele>
        <time>2022-05-06T07:35:42.000Z</time>
      </trkpt>
      <trkpt lat="40.33873379230499267578125" lon="-1.0916397906839847564697265625">
        <ele>964.20001220703125</ele>
        <time>2022-05-06T07:35:44.000Z</time>
      </trkpt>
      <trkpt lat="40.338716022670269012451171875" lon="-1.0916282236576080322265625">
        <ele>964.20001220703125</ele>
        <time>2022-05-06T07:35:45.000Z</time>
      </trkpt>
      <trkpt lat="40.338697247207164764404296875" lon="-1.09161623753607273101806640625">
        <ele>964.20001220703125</ele>
        <time>2022-05-06T07:35:46.000Z</time>
      </trkpt>
      <trkpt lat="40.33865843899548053741455078125" lon="-1.09159276820719242095947265625">
        <ele>964</ele>
        <time>2022-05-06T07:35:48.000Z</time>
      </trkpt>
      <trkpt lat="40.3386407531797885894775390625" lon="-1.09158036299049854278564453125">
        <ele>964</ele>
        <time>2022-05-06T07:35:49.000Z</time>
      </trkpt>
      <trkpt lat="40.338623821735382080078125" lon="-1.09156812541186809539794921875">
        <ele>963.79998779296875</ele>
        <time>2022-05-06T07:35:50.000Z</time>
      </trkpt>
      <trkpt lat="40.338586606085300445556640625" lon="-1.0915477573871612548828125">
        <ele>963.5999755859375</ele>
        <time>2022-05-06T07:35:52.000Z</time>
      </trkpt>
      <trkpt lat="40.33854997716844081878662109375" lon="-1.0915274731814861297607421875">
        <ele>963.20001220703125</ele>
        <time>2022-05-06T07:35:54.000Z</time>
      </trkpt>
      <trkpt lat="40.3385116718709468841552734375" lon="-1.0915097035467624664306640625">
        <ele>963</ele>
        <time>2022-05-06T07:35:56.000Z</time>
      </trkpt>
      <trkpt lat="40.338477976620197296142578125" lon="-1.0914855636656284332275390625">
        <ele>962.5999755859375</ele>
        <time>2022-05-06T07:35:58.000Z</time>
      </trkpt>
      <trkpt lat="40.33844436518847942352294921875" lon="-1.09146553091704845428466796875">
        <ele>962.4000244140625</ele>
        <time>2022-05-06T07:36:00.000Z</time>
      </trkpt>
      <trkpt lat="40.33842743374407291412353515625" lon="-1.09145882539451122283935546875">
        <ele>962.4000244140625</ele>
        <time>2022-05-06T07:36:01.000Z</time>
      </trkpt>
      <trkpt lat="40.3384107537567615509033203125" lon="-1.09145186841487884521484375">
        <ele>962.20001220703125</ele>
        <time>2022-05-06T07:36:02.000Z</time>
      </trkpt>
      <trkpt lat="40.3383765555918216705322265625" lon="-1.09143284149467945098876953125">
        <ele>962</ele>
        <time>2022-05-06T07:36:04.000Z</time>
      </trkpt>
      <trkpt lat="40.33834017813205718994140625" lon="-1.091413311660289764404296875">
        <ele>961.5999755859375</ele>
        <time>2022-05-06T07:36:06.000Z</time>
      </trkpt>
      <trkpt lat="40.3383032977581024169921875" lon="-1.09139495529234409332275390625">
        <ele>961.4000244140625</ele>
        <time>2022-05-06T07:36:08.000Z</time>
      </trkpt>
      <trkpt lat="40.3382665850222110748291015625" lon="-1.091379784047603607177734375">
        <ele>961.20001220703125</ele>
        <time>2022-05-06T07:36:10.000Z</time>
      </trkpt>
      <trkpt lat="40.33824856393039226531982421875" lon="-1.09137299470603466033935546875">
        <ele>961</ele>
        <time>2022-05-06T07:36:11.000Z</time>
      </trkpt>
      <trkpt lat="40.33823045901954174041748046875" lon="-1.09136427752673625946044921875">
        <ele>961</ele>
        <time>2022-05-06T07:36:12.000Z</time>
      </trkpt>
      <trkpt lat="40.33819257281720638275146484375" lon="-1.09134784899652004241943359375">
        <ele>960.5999755859375</ele>
        <time>2022-05-06T07:36:14.000Z</time>
      </trkpt>
      <trkpt lat="40.33815200440585613250732421875" lon="-1.091330833733081817626953125">
        <ele>960.4000244140625</ele>
        <time>2022-05-06T07:36:16.000Z</time>
      </trkpt>
      <trkpt lat="40.33811026252806186676025390625" lon="-1.0913135670125484466552734375">
        <ele>960.20001220703125</ele>
        <time>2022-05-06T07:36:18.000Z</time>
      </trkpt>
      <trkpt lat="40.3380902297794818878173828125" lon="-1.0913048498332500457763671875">
        <ele>960</ele>
        <time>2022-05-06T07:36:19.000Z</time>
      </trkpt>
      <trkpt lat="40.33806902356445789337158203125" lon="-1.09129755757749080657958984375">
        <ele>959.79998779296875</ele>
        <time>2022-05-06T07:36:20.000Z</time>
      </trkpt>
      <trkpt lat="40.33802795223891735076904296875" lon="-1.0912822186946868896484375">
        <ele>959.5999755859375</ele>
        <time>2022-05-06T07:36:22.000Z</time>
      </trkpt>
      <trkpt lat="40.33798621036112308502197265625" lon="-1.0912652872502803802490234375">
        <ele>959.4000244140625</ele>
        <time>2022-05-06T07:36:24.000Z</time>
      </trkpt>
      <trkpt lat="40.33794564194977283477783203125" lon="-1.09124810434877872467041015625">
        <ele>959.4000244140625</ele>
        <time>2022-05-06T07:36:26.000Z</time>
      </trkpt>
      <trkpt lat="40.33790557645261287689208984375" lon="-1.09122832305729389190673828125">
        <ele>959.20001220703125</ele>
        <time>2022-05-06T07:36:28.000Z</time>
      </trkpt>
      <trkpt lat="40.33788420259952545166015625" lon="-1.09122010879218578338623046875">
        <ele>959</ele>
        <time>2022-05-06T07:36:29.000Z</time>
      </trkpt>
      <trkpt lat="40.3378629125654697418212890625" lon="-1.091211475431919097900390625">
        <ele>959</ele>
        <time>2022-05-06T07:36:30.000Z</time>
      </trkpt>
      <trkpt lat="40.33782192505896091461181640625" lon="-1.0911938734352588653564453125">
        <ele>958.79998779296875</ele>
        <time>2022-05-06T07:36:32.000Z</time>
      </trkpt>
      <trkpt lat="40.337781272828578948974609375" lon="-1.09117618761956691741943359375">
        <ele>958.5999755859375</ele>
        <time>2022-05-06T07:36:34.000Z</time>
      </trkpt>
      <trkpt lat="40.33773860894143581390380859375" lon="-1.0911549814045429229736328125">
        <ele>958.5999755859375</ele>
        <time>2022-05-06T07:36:36.000Z</time>
      </trkpt>
      <trkpt lat="40.337692759931087493896484375" lon="-1.09113696031272411346435546875">
        <ele>958.4000244140625</ele>
        <time>2022-05-06T07:36:38.000Z</time>
      </trkpt>
      <trkpt lat="40.337648503482341766357421875" lon="-1.0911164246499538421630859375">
        <ele>958.20001220703125</ele>
        <time>2022-05-06T07:36:40.000Z</time>
      </trkpt>
      <trkpt lat="40.33760701306164264678955078125" lon="-1.09109857119619846343994140625">
        <ele>958</ele>
        <time>2022-05-06T07:36:42.000Z</time>
      </trkpt>
      <trkpt lat="40.33756543882191181182861328125" lon="-1.09108038246631622314453125">
        <ele>957.79998779296875</ele>
        <time>2022-05-06T07:36:44.000Z</time>
      </trkpt>
      <trkpt lat="40.3375216014683246612548828125" lon="-1.091060936450958251953125">
        <ele>957.79998779296875</ele>
        <time>2022-05-06T07:36:46.000Z</time>
      </trkpt>
      <trkpt lat="40.33747692592442035675048828125" lon="-1.09104090370237827301025390625">
        <ele>957.79998779296875</ele>
        <time>2022-05-06T07:36:48.000Z</time>
      </trkpt>
      <trkpt lat="40.33742956817150115966796875" lon="-1.0910198651254177093505859375">
        <ele>957.79998779296875</ele>
        <time>2022-05-06T07:36:50.000Z</time>
      </trkpt>
      <trkpt lat="40.3373801149427890777587890625" lon="-1.09100033529102802276611328125">
        <ele>957.79998779296875</ele>
        <time>2022-05-06T07:36:52.000Z</time>
      </trkpt>
      <trkpt lat="40.337331332266330718994140625" lon="-1.090982817113399505615234375">
        <ele>958</ele>
        <time>2022-05-06T07:36:54.000Z</time>
      </trkpt>
      <trkpt lat="40.3372892551124095916748046875" lon="-1.09096747823059558868408203125">
        <ele>958</ele>
        <time>2022-05-06T07:36:56.000Z</time>
      </trkpt>
      <trkpt lat="40.3372677974402904510498046875" lon="-1.09095708467066287994384765625">
        <ele>958</ele>
        <time>2022-05-06T07:36:57.000Z</time>
      </trkpt>
      <trkpt lat="40.33724457956850528717041015625" lon="-1.09094493091106414794921875">
        <ele>958</ele>
        <time>2022-05-06T07:36:58.000Z</time>
      </trkpt>
      <trkpt lat="40.3371963836252689361572265625" lon="-1.09092070721089839935302734375">
        <ele>958.20001220703125</ele>
        <time>2022-05-06T07:37:00.000Z</time>
      </trkpt>
      <trkpt lat="40.33717081882059574127197265625" lon="-1.09090897254645824432373046875">
        <ele>958.20001220703125</ele>
        <time>2022-05-06T07:37:01.000Z</time>
      </trkpt>
      <trkpt lat="40.337143577635288238525390625" lon="-1.0908974893391132354736328125">
        <ele>958.20001220703125</ele>
        <time>2022-05-06T07:37:02.000Z</time>
      </trkpt>
      <trkpt lat="40.3370901010930538177490234375" lon="-1.09087795950472354888916015625">
        <ele>958.4000244140625</ele>
        <time>2022-05-06T07:37:04.000Z</time>
      </trkpt>
      <trkpt lat="40.33703863620758056640625" lon="-1.090856082737445831298828125">
        <ele>958.79998779296875</ele>
        <time>2022-05-06T07:37:06.000Z</time>
      </trkpt>
      <trkpt lat="40.3369834832847118377685546875" lon="-1.0908324457705020904541015625">
        <ele>959.20001220703125</ele>
        <time>2022-05-06T07:37:08.000Z</time>
      </trkpt>
      <trkpt lat="40.33693076111376285552978515625" lon="-1.09080654568970203399658203125">
        <ele>959.5999755859375</ele>
        <time>2022-05-06T07:37:10.000Z</time>
      </trkpt>
      <trkpt lat="40.3368835709989070892333984375" lon="-1.0907845012843608856201171875">
        <ele>959.79998779296875</ele>
        <time>2022-05-06T07:37:12.000Z</time>
      </trkpt>
      <trkpt lat="40.33683218993246555328369140625" lon="-1.09076128341257572174072265625">
        <ele>960</ele>
        <time>2022-05-06T07:37:14.000Z</time>
      </trkpt>
      <trkpt lat="40.3367759473621845245361328125" lon="-1.09073638916015625">
        <ele>960.20001220703125</ele>
        <time>2022-05-06T07:37:16.000Z</time>
      </trkpt>
      <trkpt lat="40.33671517856419086456298828125" lon="-1.09070763923227787017822265625">
        <ele>960.4000244140625</ele>
        <time>2022-05-06T07:37:18.000Z</time>
      </trkpt>
      <trkpt lat="40.33665348775684833526611328125" lon="-1.09067779965698719024658203125">
        <ele>960.79998779296875</ele>
        <time>2022-05-06T07:37:20.000Z</time>
      </trkpt>
      <trkpt lat="40.336593724787235260009765625" lon="-1.090652905404567718505859375">
        <ele>961</ele>
        <time>2022-05-06T07:37:22.000Z</time>
      </trkpt>
      <trkpt lat="40.33656329847872257232666015625" lon="-1.09064192511141300201416015625">
        <ele>961.20001220703125</ele>
        <time>2022-05-06T07:37:23.000Z</time>
      </trkpt>
      <trkpt lat="40.33653396181762218475341796875" lon="-1.09062935225665569305419921875">
        <ele>961.4000244140625</ele>
        <time>2022-05-06T07:37:24.000Z</time>
      </trkpt>
      <trkpt lat="40.33647143281996250152587890625" lon="-1.0906031168997287750244140625">
        <ele>961.5999755859375</ele>
        <time>2022-05-06T07:37:26.000Z</time>
      </trkpt>
      <trkpt lat="40.33640404231846332550048828125" lon="-1.09057210385799407958984375">
        <ele>962</ele>
        <time>2022-05-06T07:37:28.000Z</time>
      </trkpt>
      <trkpt lat="40.3363357298076152801513671875" lon="-1.09054285101592540740966796875">
        <ele>962.20001220703125</ele>
        <time>2022-05-06T07:37:30.000Z</time>
      </trkpt>
      <trkpt lat="40.33630094490945339202880859375" lon="-1.0905280150473117828369140625">
        <ele>962.20001220703125</ele>
        <time>2022-05-06T07:37:31.000Z</time>
      </trkpt>
      <trkpt lat="40.33626473508775234222412109375" lon="-1.090513430535793304443359375">
        <ele>962.20001220703125</ele>
        <time>2022-05-06T07:37:32.000Z</time>
      </trkpt>
      <trkpt lat="40.33619080670177936553955078125" lon="-1.0904827527701854705810546875">
        <ele>962</ele>
        <time>2022-05-06T07:37:34.000Z</time>
      </trkpt>
      <trkpt lat="40.33611687831580638885498046875" lon="-1.09044964425265789031982421875">
        <ele>962</ele>
        <time>2022-05-06T07:37:36.000Z</time>
      </trkpt>
      <trkpt lat="40.33604462631046772003173828125" lon="-1.09041661955416202545166015625">
        <ele>961.79998779296875</ele>
        <time>2022-05-06T07:37:38.000Z</time>
      </trkpt>
      <trkpt lat="40.3359716199338436126708984375" lon="-1.09038543887436389923095703125">
        <ele>961.79998779296875</ele>
        <time>2022-05-06T07:37:40.000Z</time>
      </trkpt>
      <trkpt lat="40.33593230880796909332275390625" lon="-1.0903694294393062591552734375">
        <ele>961.5999755859375</ele>
        <time>2022-05-06T07:37:41.000Z</time>
      </trkpt>
      <trkpt lat="40.335890315473079681396484375" lon="-1.0903513245284557342529296875">
        <ele>961.5999755859375</ele>
        <time>2022-05-06T07:37:42.000Z</time>
      </trkpt>
      <trkpt lat="40.335807166993618011474609375" lon="-1.09031318686902523040771484375">
        <ele>961.4000244140625</ele>
        <time>2022-05-06T07:37:44.000Z</time>
      </trkpt>
      <trkpt lat="40.3357261978089809417724609375" lon="-1.09027706086635589599609375">
        <ele>961.4000244140625</ele>
        <time>2022-05-06T07:37:46.000Z</time>
      </trkpt>
      <trkpt lat="40.33564732410013675689697265625" lon="-1.09024043194949626922607421875">
        <ele>961.4000244140625</ele>
        <time>2022-05-06T07:37:48.000Z</time>
      </trkpt>
      <trkpt lat="40.3355728089809417724609375" lon="-1.090202629566192626953125">
        <ele>961.5999755859375</ele>
        <time>2022-05-06T07:37:50.000Z</time>
      </trkpt>
      <trkpt lat="40.33549929969012737274169921875" lon="-1.09017019160091876983642578125">
        <ele>961.5999755859375</ele>
        <time>2022-05-06T07:37:52.000Z</time>
      </trkpt>
      <trkpt lat="40.335423611104488372802734375" lon="-1.09013892710208892822265625">
        <ele>961.4000244140625</ele>
        <time>2022-05-06T07:37:54.000Z</time>
      </trkpt>
      <trkpt lat="40.33534121699631214141845703125" lon="-1.09010296873748302459716796875">
        <ele>961</ele>
        <time>2022-05-06T07:37:56.000Z</time>
      </trkpt>
      <trkpt lat="40.335254631936550140380859375" lon="-1.0900671780109405517578125">
        <ele>960.5999755859375</ele>
        <time>2022-05-06T07:37:58.000Z</time>
      </trkpt>
      <trkpt lat="40.33516444265842437744140625" lon="-1.09003004617989063262939453125">
        <ele>960.20001220703125</ele>
        <time>2022-05-06T07:38:00.000Z</time>
      </trkpt>
      <trkpt lat="40.33507131971418857574462890625" lon="-1.08999148942530155181884765625">
        <ele>960</ele>
        <time>2022-05-06T07:38:02.000Z</time>
      </trkpt>
      <trkpt lat="40.3349721617996692657470703125" lon="-1.08995578251779079437255859375">
        <ele>959.5999755859375</ele>
        <time>2022-05-06T07:38:04.000Z</time>
      </trkpt>
      <trkpt lat="40.33486730419099330902099609375" lon="-1.089922003448009490966796875">
        <ele>959.4000244140625</ele>
        <time>2022-05-06T07:38:06.000Z</time>
      </trkpt>
      <trkpt lat="40.33481164835393428802490234375" lon="-1.08990532346069812774658203125">
        <ele>959.20001220703125</ele>
        <time>2022-05-06T07:38:07.000Z</time>
      </trkpt>
      <trkpt lat="40.334755070507526397705078125" lon="-1.0898928344249725341796875">
        <ele>959</ele>
        <time>2022-05-06T07:38:08.000Z</time>
      </trkpt>
      <trkpt lat="40.33463596366345882415771484375" lon="-1.089871712028980255126953125">
        <ele>958.4000244140625</ele>
        <time>2022-05-06T07:38:10.000Z</time>
      </trkpt>
      <trkpt lat="40.334511660039424896240234375" lon="-1.08985654078423976898193359375">
        <ele>958.4000244140625</ele>
        <time>2022-05-06T07:38:12.000Z</time>
      </trkpt>
      <trkpt lat="40.33438526093959808349609375" lon="-1.08984983526170253753662109375">
        <ele>958.4000244140625</ele>
        <time>2022-05-06T07:38:14.000Z</time>
      </trkpt>
      <trkpt lat="40.3342593647539615631103515625" lon="-1.0898524336516857147216796875">
        <ele>958.4000244140625</ele>
        <time>2022-05-06T07:38:16.000Z</time>
      </trkpt>
      <trkpt lat="40.334133803844451904296875" lon="-1.08986207284033298492431640625">
        <ele>958.20001220703125</ele>
        <time>2022-05-06T07:38:18.000Z</time>
      </trkpt>
      <trkpt lat="40.3340119309723377227783203125" lon="-1.08987598679959774017333984375">
        <ele>958.20001220703125</ele>
        <time>2022-05-06T07:38:20.000Z</time>
      </trkpt>
      <trkpt lat="40.33389030955731868743896484375" lon="-1.08989090658724308013916015625">
        <ele>958</ele>
        <time>2022-05-06T07:38:22.000Z</time>
      </trkpt>
      <trkpt lat="40.33382979221642017364501953125" lon="-1.08989677391946315765380859375">
        <ele>958</ele>
        <time>2022-05-06T07:38:23.000Z</time>
      </trkpt>
      <trkpt lat="40.33377103507518768310546875" lon="-1.08990197069942951202392578125">
        <ele>957.79998779296875</ele>
        <time>2022-05-06T07:38:24.000Z</time>
      </trkpt>
      <trkpt lat="40.333714373409748077392578125" lon="-1.0899077542126178741455078125">
        <ele>957.5999755859375</ele>
        <time>2022-05-06T07:38:25.000Z</time>
      </trkpt>
      <trkpt lat="40.333661399781703948974609375" lon="-1.089913286268711090087890625">
        <ele>957.4000244140625</ele>
        <time>2022-05-06T07:38:26.000Z</time>
      </trkpt>
      <trkpt lat="40.33356274478137493133544921875" lon="-1.08992275781929492950439453125">
        <ele>957</ele>
        <time>2022-05-06T07:38:28.000Z</time>
      </trkpt>
      <trkpt lat="40.33351329155266284942626953125" lon="-1.0899265296757221221923828125">
        <ele>957</ele>
        <time>2022-05-06T07:38:29.000Z</time>
      </trkpt>
      <trkpt lat="40.3334672749042510986328125" lon="-1.0899312235414981842041015625">
        <ele>956.79998779296875</ele>
        <time>2022-05-06T07:38:30.000Z</time>
      </trkpt>
      <trkpt lat="40.33338437788188457489013671875" lon="-1.08993985690176486968994140625">
        <ele>956.5999755859375</ele>
        <time>2022-05-06T07:38:32.000Z</time>
      </trkpt>
      <trkpt lat="40.33331681974232196807861328125" lon="-1.08994756825268268585205078125">
        <ele>956.20001220703125</ele>
        <time>2022-05-06T07:38:34.000Z</time>
      </trkpt>
      <trkpt lat="40.33326904289424419403076171875" lon="-1.08995293267071247100830078125">
        <ele>956.20001220703125</ele>
        <time>2022-05-06T07:38:36.000Z</time>
      </trkpt>
      <trkpt lat="40.33325470983982086181640625" lon="-1.0899567045271396636962890625">
        <ele>956</ele>
        <time>2022-05-06T07:38:38.000Z</time>
      </trkpt>
      <trkpt lat="40.3332553803920745849609375" lon="-1.08995762653648853302001953125">
        <ele>956</ele>
        <time>2022-05-06T07:38:39.000Z</time>
      </trkpt>
      <trkpt lat="40.33321707509458065032958984375" lon="-1.08990515582263469696044921875">
        <ele>956.4000244140625</ele>
        <time>2022-05-06T07:39:27.000Z</time>
      </trkpt>
      <trkpt lat="40.3332166559994220733642578125" lon="-1.0898748971521854400634765625">
        <ele>956.5999755859375</ele>
        <time>2022-05-06T07:39:28.000Z</time>
      </trkpt>
      <trkpt lat="40.3332119621336460113525390625" lon="-1.089808680117130279541015625">
        <ele>957.20001220703125</ele>
        <time>2022-05-06T07:39:30.000Z</time>
      </trkpt>
      <trkpt lat="40.333186648786067962646484375" lon="-1.089779846370220184326171875">
        <ele>957.4000244140625</ele>
        <time>2022-05-06T07:39:32.000Z</time>
      </trkpt>
      <trkpt lat="40.33313644118607044219970703125" lon="-1.08977892436087131500244140625">
        <ele>957.20001220703125</ele>
        <time>2022-05-06T07:39:34.000Z</time>
      </trkpt>
      <trkpt lat="40.33310794271528720855712890625" lon="-1.089771799743175506591796875">
        <ele>957.20001220703125</ele>
        <time>2022-05-06T07:39:35.000Z</time>
      </trkpt>
      <trkpt lat="40.333080701529979705810546875" lon="-1.0897506773471832275390625">
        <ele>957.20001220703125</ele>
        <time>2022-05-06T07:39:36.000Z</time>
      </trkpt>
      <trkpt lat="40.33303267322480678558349609375" lon="-1.0896904952824115753173828125">
        <ele>957.20001220703125</ele>
        <time>2022-05-06T07:39:38.000Z</time>
      </trkpt>
      <trkpt lat="40.33300434239208698272705078125" lon="-1.089626960456371307373046875">
        <ele>957</ele>
        <time>2022-05-06T07:39:40.000Z</time>
      </trkpt>
      <trkpt lat="40.33300166018307209014892578125" lon="-1.08959686942398548126220703125">
        <ele>957</ele>
        <time>2022-05-06T07:39:41.000Z</time>
      </trkpt>
      <trkpt lat="40.33299813978374004364013671875" lon="-1.08957356773316860198974609375">
        <ele>956.79998779296875</ele>
        <time>2022-05-06T07:39:42.000Z</time>
      </trkpt>
      <trkpt lat="40.3329890035092830657958984375" lon="-1.08953635208308696746826171875">
        <ele>956.79998779296875</ele>
        <time>2022-05-06T07:39:44.000Z</time>
      </trkpt>
      <trkpt lat="40.33298556692898273468017578125" lon="-1.089519672095775604248046875">
        <ele>956.79998779296875</ele>
        <time>2022-05-06T07:39:45.000Z</time>
      </trkpt>
      <trkpt lat="40.33298187889158725738525390625" lon="-1.08950533904135227203369140625">
        <ele>956.79998779296875</ele>
        <time>2022-05-06T07:39:46.000Z</time>
      </trkpt>
      <trkpt lat="40.33297215588390827178955078125" lon="-1.08948849141597747802734375">
        <ele>956.5999755859375</ele>
        <time>2022-05-06T07:39:48.000Z</time>
      </trkpt>
      <trkpt lat="40.33295572735369205474853515625" lon="-1.08948337845504283905029296875">
        <ele>956.5999755859375</ele>
        <time>2022-05-06T07:39:50.000Z</time>
      </trkpt>
      <trkpt lat="40.3329444117844104766845703125" lon="-1.08948203735053539276123046875">
        <ele>956.5999755859375</ele>
        <time>2022-05-06T07:39:51.000Z</time>
      </trkpt>
      <trkpt lat="40.33292748034000396728515625" lon="-1.0894849710166454315185546875">
        <ele>956.5999755859375</ele>
        <time>2022-05-06T07:39:52.000Z</time>
      </trkpt>
      <trkpt lat="40.33287442289292812347412109375" lon="-1.08947105705738067626953125">
        <ele>956.4000244140625</ele>
        <time>2022-05-06T07:39:54.000Z</time>
      </trkpt>
      <trkpt lat="40.33284860663115978240966796875" lon="-1.08944264240562915802001953125">
        <ele>956.4000244140625</ele>
        <time>2022-05-06T07:39:55.000Z</time>
      </trkpt>
      <trkpt lat="40.332828573882579803466796875" lon="-1.0894014872610569000244140625">
        <ele>956.20001220703125</ele>
        <time>2022-05-06T07:39:56.000Z</time>
      </trkpt>
      <trkpt lat="40.33280116505920886993408203125" lon="-1.0892955400049686431884765625">
        <ele>956</ele>
        <time>2022-05-06T07:39:58.000Z</time>
      </trkpt>
      <trkpt lat="40.33279278315603733062744140625" lon="-1.0892418958246707916259765625">
        <ele>956</ele>
        <time>2022-05-06T07:39:59.000Z</time>
      </trkpt>
      <trkpt lat="40.33278456889092922210693359375" lon="-1.08919001184403896331787109375">
        <ele>955.79998779296875</ele>
        <time>2022-05-06T07:40:00.000Z</time>
      </trkpt>
      <trkpt lat="40.332770235836505889892578125" lon="-1.08909127302467823028564453125">
        <ele>955.79998779296875</ele>
        <time>2022-05-06T07:40:02.000Z</time>
      </trkpt>
      <trkpt lat="40.3327526338398456573486328125" lon="-1.08898733742535114288330078125">
        <ele>956</ele>
        <time>2022-05-06T07:40:04.000Z</time>
      </trkpt>
      <trkpt lat="40.33273327164351940155029296875" lon="-1.08887753449380397796630859375">
        <ele>956.20001220703125</ele>
        <time>2022-05-06T07:40:06.000Z</time>
      </trkpt>
      <trkpt lat="40.3327140770852565765380859375" lon="-1.08876387588679790496826171875">
        <ele>956.4000244140625</ele>
        <time>2022-05-06T07:40:08.000Z</time>
      </trkpt>
      <trkpt lat="40.3327003307640552520751953125" lon="-1.0886487923562526702880859375">
        <ele>956.5999755859375</ele>
        <time>2022-05-06T07:40:10.000Z</time>
      </trkpt>
      <trkpt lat="40.3326812200248241424560546875" lon="-1.08853572048246860504150390625">
        <ele>957</ele>
        <time>2022-05-06T07:40:12.000Z</time>
      </trkpt>
      <trkpt lat="40.3326706588268280029296875" lon="-1.08847905881702899932861328125">
        <ele>957</ele>
        <time>2022-05-06T07:40:13.000Z</time>
      </trkpt>
      <trkpt lat="40.33265934325754642486572265625" lon="-1.08842306770384311676025390625">
        <ele>957.20001220703125</ele>
        <time>2022-05-06T07:40:14.000Z</time>
      </trkpt>
      <trkpt lat="40.33264744095504283905029296875" lon="-1.08836757950484752655029296875">
        <ele>957.4000244140625</ele>
        <time>2022-05-06T07:40:15.000Z</time>
      </trkpt>
      <trkpt lat="40.33263838849961757659912109375" lon="-1.08830907382071018218994140625">
        <ele>957.4000244140625</ele>
        <time>2022-05-06T07:40:16.000Z</time>
      </trkpt>
      <trkpt lat="40.3326171822845935821533203125" lon="-1.08819759450852870941162109375">
        <ele>957.79998779296875</ele>
        <time>2022-05-06T07:40:18.000Z</time>
      </trkpt>
      <trkpt lat="40.33259890973567962646484375" lon="-1.08808460645377635955810546875">
        <ele>958</ele>
        <time>2022-05-06T07:40:20.000Z</time>
      </trkpt>
      <trkpt lat="40.33258960582315921783447265625" lon="-1.08802760951220989227294921875">
        <ele>958</ele>
        <time>2022-05-06T07:40:21.000Z</time>
      </trkpt>
      <trkpt lat="40.332579798996448516845703125" lon="-1.08797228895127773284912109375">
        <ele>958</ele>
        <time>2022-05-06T07:40:22.000Z</time>
      </trkpt>
      <trkpt lat="40.33256060443818569183349609375" lon="-1.0878624022006988525390625">
        <ele>958</ele>
        <time>2022-05-06T07:40:24.000Z</time>
      </trkpt>
      <trkpt lat="40.33254325389862060546875" lon="-1.08775041997432708740234375">
        <ele>958</ele>
        <time>2022-05-06T07:40:26.000Z</time>
      </trkpt>
      <trkpt lat="40.33252179622650146484375" lon="-1.0876345820724964141845703125">
        <ele>958.20001220703125</ele>
        <time>2022-05-06T07:40:28.000Z</time>
      </trkpt>
      <trkpt lat="40.3325048647820949554443359375" lon="-1.0875165648758411407470703125">
        <ele>958.5999755859375</ele>
        <time>2022-05-06T07:40:30.000Z</time>
      </trkpt>
      <trkpt lat="40.3324904479086399078369140625" lon="-1.0874042473733425140380859375">
        <ele>958.79998779296875</ele>
        <time>2022-05-06T07:40:32.000Z</time>
      </trkpt>
      <trkpt lat="40.3324763663113117218017578125" lon="-1.08730576001107692718505859375">
        <ele>959</ele>
        <time>2022-05-06T07:40:34.000Z</time>
      </trkpt>
      <trkpt lat="40.33245214261114597320556640625" lon="-1.08721339143812656402587890625">
        <ele>959.20001220703125</ele>
        <time>2022-05-06T07:40:36.000Z</time>
      </trkpt>
      <trkpt lat="40.3324190340936183929443359375" lon="-1.08712286688387393951416015625">
        <ele>959.4000244140625</ele>
        <time>2022-05-06T07:40:38.000Z</time>
      </trkpt>
      <trkpt lat="40.3323942236602306365966796875" lon="-1.08702714554965496063232421875">
        <ele>959.4000244140625</ele>
        <time>2022-05-06T07:40:40.000Z</time>
      </trkpt>
      <trkpt lat="40.332391373813152313232421875" lon="-1.08697450719773769378662109375">
        <ele>959.4000244140625</ele>
        <time>2022-05-06T07:40:41.000Z</time>
      </trkpt>
      <trkpt lat="40.3323922120034694671630859375" lon="-1.08691851608455181121826171875">
        <ele>959.20001220703125</ele>
        <time>2022-05-06T07:40:42.000Z</time>
      </trkpt>
      <trkpt lat="40.33239766024053096771240234375" lon="-1.0867984034121036529541015625">
        <ele>958.79998779296875</ele>
        <time>2022-05-06T07:40:44.000Z</time>
      </trkpt>
      <trkpt lat="40.33239816315472126007080078125" lon="-1.0866783745586872100830078125">
        <ele>958.5999755859375</ele>
        <time>2022-05-06T07:40:46.000Z</time>
      </trkpt>
      <trkpt lat="40.3323875181376934051513671875" lon="-1.086565218865871429443359375">
        <ele>958.4000244140625</ele>
        <time>2022-05-06T07:40:48.000Z</time>
      </trkpt>
      <trkpt lat="40.33238022588193416595458984375" lon="-1.0865127481520175933837890625">
        <ele>958.20001220703125</ele>
        <time>2022-05-06T07:40:49.000Z</time>
      </trkpt>
      <trkpt lat="40.3323744423687458038330078125" lon="-1.08646170236170291900634765625">
        <ele>958</ele>
        <time>2022-05-06T07:40:50.000Z</time>
      </trkpt>
      <trkpt lat="40.33236966468393802642822265625" lon="-1.08636237680912017822265625">
        <ele>958.20001220703125</ele>
        <time>2022-05-06T07:40:52.000Z</time>
      </trkpt>
      <trkpt lat="40.33237067051231861114501953125" lon="-1.0862633027136325836181640625">
        <ele>958.5999755859375</ele>
        <time>2022-05-06T07:40:54.000Z</time>
      </trkpt>
      <trkpt lat="40.3323720954358577728271484375" lon="-1.08616179786622524261474609375">
        <ele>958.79998779296875</ele>
        <time>2022-05-06T07:40:56.000Z</time>
      </trkpt>
      <trkpt lat="40.33237268216907978057861328125" lon="-1.0860537551343441009521484375">
        <ele>958.5999755859375</ele>
        <time>2022-05-06T07:40:58.000Z</time>
      </trkpt>
      <trkpt lat="40.33236346207559108734130859375" lon="-1.08594336546957492828369140625">
        <ele>958.4000244140625</ele>
        <time>2022-05-06T07:41:00.000Z</time>
      </trkpt>
      <trkpt lat="40.33234301023185253143310546875" lon="-1.08583708293735980987548828125">
        <ele>958.20001220703125</ele>
        <time>2022-05-06T07:41:02.000Z</time>
      </trkpt>
      <trkpt lat="40.332331359386444091796875" lon="-1.085788048803806304931640625">
        <ele>958.20001220703125</ele>
        <time>2022-05-06T07:41:03.000Z</time>
      </trkpt>
      <trkpt lat="40.33231970854103565216064453125" lon="-1.08573851175606250762939453125">
        <ele>958</ele>
        <time>2022-05-06T07:41:04.000Z</time>
      </trkpt>
      <trkpt lat="40.332299172878265380859375" lon="-1.08563709072768688201904296875">
        <ele>957.79998779296875</ele>
        <time>2022-05-06T07:41:06.000Z</time>
      </trkpt>
      <trkpt lat="40.33227830193936824798583984375" lon="-1.08553298749029636383056640625">
        <ele>957.5999755859375</ele>
        <time>2022-05-06T07:41:08.000Z</time>
      </trkpt>
      <trkpt lat="40.3322575986385345458984375" lon="-1.085427962243556976318359375">
        <ele>957.5999755859375</ele>
        <time>2022-05-06T07:41:10.000Z</time>
      </trkpt>
      <trkpt lat="40.33224762417376041412353515625" lon="-1.08537423424422740936279296875">
        <ele>957.79998779296875</ele>
        <time>2022-05-06T07:41:11.000Z</time>
      </trkpt>
      <trkpt lat="40.332237817347049713134765625" lon="-1.08531807549297809600830078125">
        <ele>958</ele>
        <time>2022-05-06T07:41:12.000Z</time>
      </trkpt>
      <trkpt lat="40.3322165273129940032958984375" lon="-1.08520542271435260772705078125">
        <ele>958.20001220703125</ele>
        <time>2022-05-06T07:41:14.000Z</time>
      </trkpt>
      <trkpt lat="40.33219884149730205535888671875" lon="-1.08509276993572711944580078125">
        <ele>958.4000244140625</ele>
        <time>2022-05-06T07:41:16.000Z</time>
      </trkpt>
      <trkpt lat="40.3321799822151660919189453125" lon="-1.08498313464224338531494140625">
        <ele>958.5999755859375</ele>
        <time>2022-05-06T07:41:18.000Z</time>
      </trkpt>
      <trkpt lat="40.332159698009490966796875" lon="-1.08487584628164768218994140625">
        <ele>958.79998779296875</ele>
        <time>2022-05-06T07:41:20.000Z</time>
      </trkpt>
      <trkpt lat="40.33213983289897441864013671875" lon="-1.0847689770162105560302734375">
        <ele>959</ele>
        <time>2022-05-06T07:41:22.000Z</time>
      </trkpt>
      <trkpt lat="40.3321206383407115936279296875" lon="-1.0846667177975177764892578125">
        <ele>959.20001220703125</ele>
        <time>2022-05-06T07:41:24.000Z</time>
      </trkpt>
      <trkpt lat="40.33210010267794132232666015625" lon="-1.08456194400787353515625">
        <ele>959.4000244140625</ele>
        <time>2022-05-06T07:41:26.000Z</time>
      </trkpt>
      <trkpt lat="40.33208920620381832122802734375" lon="-1.084509305655956268310546875">
        <ele>959.4000244140625</ele>
        <time>2022-05-06T07:41:27.000Z</time>
      </trkpt>
      <trkpt lat="40.3320790641009807586669921875" lon="-1.0844571702182292938232421875">
        <ele>959.5999755859375</ele>
        <time>2022-05-06T07:41:28.000Z</time>
      </trkpt>
      <trkpt lat="40.33206087537109851837158203125" lon="-1.08435340225696563720703125">
        <ele>959.79998779296875</ele>
        <time>2022-05-06T07:41:30.000Z</time>
      </trkpt>
      <trkpt lat="40.33204595558345317840576171875" lon="-1.08425307087600231170654296875">
        <ele>960</ele>
        <time>2022-05-06T07:41:32.000Z</time>
      </trkpt>
      <trkpt lat="40.33203975297510623931884765625" lon="-1.08420395292341709136962890625">
        <ele>960.20001220703125</ele>
        <time>2022-05-06T07:41:33.000Z</time>
      </trkpt>
      <trkpt lat="40.33203204162418842315673828125" lon="-1.08415517024695873260498046875">
        <ele>960.20001220703125</ele>
        <time>2022-05-06T07:41:34.000Z</time>
      </trkpt>
      <trkpt lat="40.33201754093170166015625" lon="-1.08405768871307373046875">
        <ele>960.4000244140625</ele>
        <time>2022-05-06T07:41:36.000Z</time>
      </trkpt>
      <trkpt lat="40.3320076502859592437744140625" lon="-1.0839579440653324127197265625">
        <ele>960.20001220703125</ele>
        <time>2022-05-06T07:41:38.000Z</time>
      </trkpt>
      <trkpt lat="40.33199532888829708099365234375" lon="-1.0838578641414642333984375">
        <ele>960.20001220703125</ele>
        <time>2022-05-06T07:41:40.000Z</time>
      </trkpt>
      <trkpt lat="40.33198225311934947967529296875" lon="-1.08376289717853069305419921875">
        <ele>960.20001220703125</ele>
        <time>2022-05-06T07:41:42.000Z</time>
      </trkpt>
      <trkpt lat="40.3319734521210193634033203125" lon="-1.0836701095104217529296875">
        <ele>960.4000244140625</ele>
        <time>2022-05-06T07:41:44.000Z</time>
      </trkpt>
      <trkpt lat="40.3319647349417209625244140625" lon="-1.0835790820419788360595703125">
        <ele>960.4000244140625</ele>
        <time>2022-05-06T07:41:46.000Z</time>
      </trkpt>
      <trkpt lat="40.3319566883146762847900390625" lon="-1.08348973095417022705078125">
        <ele>960.4000244140625</ele>
        <time>2022-05-06T07:41:48.000Z</time>
      </trkpt>
      <trkpt lat="40.33194889314472675323486328125" lon="-1.0833987034857273101806640625">
        <ele>960.4000244140625</ele>
        <time>2022-05-06T07:41:50.000Z</time>
      </trkpt>
      <trkpt lat="40.33193984068930149078369140625" lon="-1.08330658636987209320068359375">
        <ele>960.5999755859375</ele>
        <time>2022-05-06T07:41:52.000Z</time>
      </trkpt>
      <trkpt lat="40.33193497918546199798583984375" lon="-1.08326199464499950408935546875">
        <ele>960.5999755859375</ele>
        <time>2022-05-06T07:41:53.000Z</time>
      </trkpt>
      <trkpt lat="40.3319302015006542205810546875" lon="-1.08321622945368289947509765625">
        <ele>960.79998779296875</ele>
        <time>2022-05-06T07:41:54.000Z</time>
      </trkpt>
      <trkpt lat="40.3319181315600872039794921875" lon="-1.0831227712333202362060546875">
        <ele>961.20001220703125</ele>
        <time>2022-05-06T07:41:56.000Z</time>
      </trkpt>
      <trkpt lat="40.33190346322953701019287109375" lon="-1.083036772906780242919921875">
        <ele>961.20001220703125</ele>
        <time>2022-05-06T07:41:58.000Z</time>
      </trkpt>
      <trkpt lat="40.33188686706125736236572265625" lon="-1.08295940794050693511962890625">
        <ele>961</ele>
        <time>2022-05-06T07:42:00.000Z</time>
      </trkpt>
      <trkpt lat="40.33186641521751880645751953125" lon="-1.0828788578510284423828125">
        <ele>961</ele>
        <time>2022-05-06T07:42:02.000Z</time>
      </trkpt>
      <trkpt lat="40.331842191517353057861328125" lon="-1.0827908478677272796630859375">
        <ele>961</ele>
        <time>2022-05-06T07:42:04.000Z</time>
      </trkpt>
      <trkpt lat="40.33182484097778797149658203125" lon="-1.08269101940095424652099609375">
        <ele>960.79998779296875</ele>
        <time>2022-05-06T07:42:06.000Z</time>
      </trkpt>
      <trkpt lat="40.33182199113070964813232421875" lon="-1.08263678848743438720703125">
        <ele>960.79998779296875</ele>
        <time>2022-05-06T07:42:07.000Z</time>
      </trkpt>
      <trkpt lat="40.3318222425878047943115234375" lon="-1.082582809031009674072265625">
        <ele>960.79998779296875</ele>
        <time>2022-05-06T07:42:08.000Z</time>
      </trkpt>
      <trkpt lat="40.33183204941451549530029296875" lon="-1.08247744850814342498779296875">
        <ele>961.20001220703125</ele>
        <time>2022-05-06T07:42:10.000Z</time>
      </trkpt>
      <trkpt lat="40.3318440355360507965087890625" lon="-1.0823740996420383453369140625">
        <ele>961.5999755859375</ele>
        <time>2022-05-06T07:42:12.000Z</time>
      </trkpt>
      <trkpt lat="40.3318487294018268585205078125" lon="-1.0823231376707553863525390625">
        <ele>961.79998779296875</ele>
        <time>2022-05-06T07:42:13.000Z</time>
      </trkpt>
      <trkpt lat="40.3318524174392223358154296875" lon="-1.082272343337535858154296875">
        <ele>962</ele>
        <time>2022-05-06T07:42:14.000Z</time>
      </trkpt>
      <trkpt lat="40.331860296428203582763671875" lon="-1.08216849155724048614501953125">
        <ele>962</ele>
        <time>2022-05-06T07:42:16.000Z</time>
      </trkpt>
      <trkpt lat="40.3318668343126773834228515625" lon="-1.0820661485195159912109375">
        <ele>962</ele>
        <time>2022-05-06T07:42:18.000Z</time>
      </trkpt>
      <trkpt lat="40.3318713605403900146484375" lon="-1.08196548186242580413818359375">
        <ele>962</ele>
        <time>2022-05-06T07:42:20.000Z</time>
      </trkpt>
      <trkpt lat="40.3318732045590877532958984375" lon="-1.0818661563098430633544921875">
        <ele>962</ele>
        <time>2022-05-06T07:42:22.000Z</time>
      </trkpt>
      <trkpt lat="40.3318772278726100921630859375" lon="-1.081766076385974884033203125">
        <ele>962</ele>
        <time>2022-05-06T07:42:24.000Z</time>
      </trkpt>
      <trkpt lat="40.3318768925964832305908203125" lon="-1.081660129129886627197265625">
        <ele>962</ele>
        <time>2022-05-06T07:42:26.000Z</time>
      </trkpt>
      <trkpt lat="40.33187798224389553070068359375" lon="-1.0815516673028469085693359375">
        <ele>962.4000244140625</ele>
        <time>2022-05-06T07:42:28.000Z</time>
      </trkpt>
      <trkpt lat="40.3318765573203563690185546875" lon="-1.0814440436661243438720703125">
        <ele>962.5999755859375</ele>
        <time>2022-05-06T07:42:30.000Z</time>
      </trkpt>
      <trkpt lat="40.33187379129230976104736328125" lon="-1.08133432455360889434814453125">
        <ele>962.79998779296875</ele>
        <time>2022-05-06T07:42:32.000Z</time>
      </trkpt>
      <trkpt lat="40.33187194727361202239990234375" lon="-1.08122569508850574493408203125">
        <ele>963.20001220703125</ele>
        <time>2022-05-06T07:42:34.000Z</time>
      </trkpt>
      <trkpt lat="40.33186876215040683746337890625" lon="-1.08111488632857799530029296875">
        <ele>963.4000244140625</ele>
        <time>2022-05-06T07:42:36.000Z</time>
      </trkpt>
      <trkpt lat="40.33186356537044048309326171875" lon="-1.0810034908354282379150390625">
        <ele>963.5999755859375</ele>
        <time>2022-05-06T07:42:38.000Z</time>
      </trkpt>
      <trkpt lat="40.33185660839080810546875" lon="-1.0808925144374370574951171875">
        <ele>964</ele>
        <time>2022-05-06T07:42:40.000Z</time>
      </trkpt>
      <trkpt lat="40.33185065723955631256103515625" lon="-1.08078028075397014617919921875">
        <ele>963.79998779296875</ele>
        <time>2022-05-06T07:42:42.000Z</time>
      </trkpt>
      <trkpt lat="40.33184680156409740447998046875" lon="-1.0807252116501331329345703125">
        <ele>963.79998779296875</ele>
        <time>2022-05-06T07:42:43.000Z</time>
      </trkpt>
      <trkpt lat="40.33184160478413105010986328125" lon="-1.0806715674698352813720703125">
        <ele>963.79998779296875</ele>
        <time>2022-05-06T07:42:44.000Z</time>
      </trkpt>
      <trkpt lat="40.3318306244909763336181640625" lon="-1.0805646143853664398193359375">
        <ele>963.5999755859375</ele>
        <time>2022-05-06T07:42:46.000Z</time>
      </trkpt>
      <trkpt lat="40.33182567916810512542724609375" lon="-1.080509461462497711181640625">
        <ele>963.5999755859375</ele>
        <time>2022-05-06T07:42:47.000Z</time>
      </trkpt>
      <trkpt lat="40.3318203985691070556640625" lon="-1.080454476177692413330078125">
        <ele>963.5999755859375</ele>
        <time>2022-05-06T07:42:48.000Z</time>
      </trkpt>
      <trkpt lat="40.331811010837554931640625" lon="-1.08034484088420867919921875">
        <ele>963.5999755859375</ele>
        <time>2022-05-06T07:42:50.000Z</time>
      </trkpt>
      <trkpt lat="40.33179651014506816864013671875" lon="-1.08023445121943950653076171875">
        <ele>963.5999755859375</ele>
        <time>2022-05-06T07:42:52.000Z</time>
      </trkpt>
      <trkpt lat="40.33178209327161312103271484375" lon="-1.08012246899306774139404296875">
        <ele>963.5999755859375</ele>
        <time>2022-05-06T07:42:54.000Z</time>
      </trkpt>
      <trkpt lat="40.33177186734974384307861328125" lon="-1.08000847510993480682373046875">
        <ele>963.20001220703125</ele>
        <time>2022-05-06T07:42:56.000Z</time>
      </trkpt>
      <trkpt lat="40.3317612223327159881591796875" lon="-1.07989615760743618011474609375">
        <ele>963</ele>
        <time>2022-05-06T07:42:58.000Z</time>
      </trkpt>
      <trkpt lat="40.33174890093505382537841796875" lon="-1.0797881148755550384521484375">
        <ele>962.5999755859375</ele>
        <time>2022-05-06T07:43:00.000Z</time>
      </trkpt>
      <trkpt lat="40.3317344002425670623779296875" lon="-1.07968023978173732757568359375">
        <ele>962.5999755859375</ele>
        <time>2022-05-06T07:43:02.000Z</time>
      </trkpt>
      <trkpt lat="40.331718809902667999267578125" lon="-1.0795688442885875701904296875">
        <ele>962.4000244140625</ele>
        <time>2022-05-06T07:43:04.000Z</time>
      </trkpt>
      <trkpt lat="40.33170296810567378997802734375" lon="-1.07945443131029605865478515625">
        <ele>962.4000244140625</ele>
        <time>2022-05-06T07:43:06.000Z</time>
      </trkpt>
      <trkpt lat="40.33168855123221874237060546875" lon="-1.07933976687490940093994140625">
        <ele>962.5999755859375</ele>
        <time>2022-05-06T07:43:08.000Z</time>
      </trkpt>
      <trkpt lat="40.33167195506393909454345703125" lon="-1.07922392897307872772216796875">
        <ele>963</ele>
        <time>2022-05-06T07:43:10.000Z</time>
      </trkpt>
      <trkpt lat="40.33165686763823032379150390625" lon="-1.07910825870931148529052734375">
        <ele>963.4000244140625</ele>
        <time>2022-05-06T07:43:12.000Z</time>
      </trkpt>
      <trkpt lat="40.33164136111736297607421875" lon="-1.078995354473590850830078125">
        <ele>963.79998779296875</ele>
        <time>2022-05-06T07:43:14.000Z</time>
      </trkpt>
      <trkpt lat="40.33162686042487621307373046875" lon="-1.07888035476207733154296875">
        <ele>964.20001220703125</ele>
        <time>2022-05-06T07:43:16.000Z</time>
      </trkpt>
      <trkpt lat="40.33161194063723087310791015625" lon="-1.078765355050563812255859375">
        <ele>964.79998779296875</ele>
        <time>2022-05-06T07:43:18.000Z</time>
      </trkpt>
      <trkpt lat="40.33159903250634670257568359375" lon="-1.07865010388195514678955078125">
        <ele>965.4000244140625</ele>
        <time>2022-05-06T07:43:20.000Z</time>
      </trkpt>
      <trkpt lat="40.33158528618514537811279296875" lon="-1.078534685075283050537109375">
        <ele>965.5999755859375</ele>
        <time>2022-05-06T07:43:22.000Z</time>
      </trkpt>
      <trkpt lat="40.33157028257846832275390625" lon="-1.07842178083956241607666015625">
        <ele>965.79998779296875</ele>
        <time>2022-05-06T07:43:24.000Z</time>
      </trkpt>
      <trkpt lat="40.331554524600505828857421875" lon="-1.078312061727046966552734375">
        <ele>966</ele>
        <time>2022-05-06T07:43:26.000Z</time>
      </trkpt>
      <trkpt lat="40.33154639415442943572998046875" lon="-1.07825808227062225341796875">
        <ele>966.20001220703125</ele>
        <time>2022-05-06T07:43:27.000Z</time>
      </trkpt>
      <trkpt lat="40.33153801225125789642333984375" lon="-1.0782062821090221405029296875">
        <ele>966.20001220703125</ele>
        <time>2022-05-06T07:43:28.000Z</time>
      </trkpt>
      <trkpt lat="40.3315238468348979949951171875" lon="-1.0781013406813144683837890625">
        <ele>966.5999755859375</ele>
        <time>2022-05-06T07:43:30.000Z</time>
      </trkpt>
      <trkpt lat="40.33150850795209407806396484375" lon="-1.07799396850168704986572265625">
        <ele>966.79998779296875</ele>
        <time>2022-05-06T07:43:32.000Z</time>
      </trkpt>
      <trkpt lat="40.33150012604892253875732421875" lon="-1.0779410786926746368408203125">
        <ele>967</ele>
        <time>2022-05-06T07:43:33.000Z</time>
      </trkpt>
      <trkpt lat="40.33149157650768756866455078125" lon="-1.0778864286839962005615234375">
        <ele>967.20001220703125</ele>
        <time>2022-05-06T07:43:34.000Z</time>
      </trkpt>
      <trkpt lat="40.3314742259681224822998046875" lon="-1.07777520082890987396240234375">
        <ele>967.5999755859375</ele>
        <time>2022-05-06T07:43:36.000Z</time>
      </trkpt>
      <trkpt lat="40.3314581327140331268310546875" lon="-1.07766263186931610107421875">
        <ele>968</ele>
        <time>2022-05-06T07:43:38.000Z</time>
      </trkpt>
      <trkpt lat="40.33144078217446804046630859375" lon="-1.077549643814563751220703125">
        <ele>968.20001220703125</ele>
        <time>2022-05-06T07:43:40.000Z</time>
      </trkpt>
      <trkpt lat="40.33142284490168094635009765625" lon="-1.0774395056068897247314453125">
        <ele>968.5999755859375</ele>
        <time>2022-05-06T07:43:42.000Z</time>
      </trkpt>
      <trkpt lat="40.3314028121531009674072265625" lon="-1.07732735574245452880859375">
        <ele>969</ele>
        <time>2022-05-06T07:43:44.000Z</time>
      </trkpt>
      <trkpt lat="40.3313820250332355499267578125" lon="-1.07721336185932159423828125">
        <ele>969.4000244140625</ele>
        <time>2022-05-06T07:43:46.000Z</time>
      </trkpt>
      <trkpt lat="40.33135947771370410919189453125" lon="-1.0770981945097446441650390625">
        <ele>970</ele>
        <time>2022-05-06T07:43:48.000Z</time>
      </trkpt>
      <trkpt lat="40.33134656958281993865966796875" lon="-1.07704170048236846923828125">
        <ele>970.20001220703125</ele>
        <time>2022-05-06T07:43:49.000Z</time>
      </trkpt>
      <trkpt lat="40.3313340805470943450927734375" lon="-1.076985038816928863525390625">
        <ele>970.4000244140625</ele>
        <time>2022-05-06T07:43:50.000Z</time>
      </trkpt>
      <trkpt lat="40.33130851574242115020751953125" lon="-1.07687213458120822906494140625">
        <ele>970.79998779296875</ele>
        <time>2022-05-06T07:43:52.000Z</time>
      </trkpt>
      <trkpt lat="40.33128035254776477813720703125" lon="-1.07676166109740734100341796875">
        <ele>971.4000244140625</ele>
        <time>2022-05-06T07:43:54.000Z</time>
      </trkpt>
      <trkpt lat="40.3312519378960132598876953125" lon="-1.0766512714326381683349609375">
        <ele>971.79998779296875</ele>
        <time>2022-05-06T07:43:56.000Z</time>
      </trkpt>
      <trkpt lat="40.33122302033007144927978515625" lon="-1.0765429772436618804931640625">
        <ele>972.20001220703125</ele>
        <time>2022-05-06T07:43:58.000Z</time>
      </trkpt>
      <trkpt lat="40.3311905823647975921630859375" lon="-1.07643577270209789276123046875">
        <ele>972.20001220703125</ele>
        <time>2022-05-06T07:44:00.000Z</time>
      </trkpt>
      <trkpt lat="40.33115613274276256561279296875" lon="-1.07632999308407306671142578125">
        <ele>972.20001220703125</ele>
        <time>2022-05-06T07:44:02.000Z</time>
      </trkpt>
      <trkpt lat="40.3311216831207275390625" lon="-1.0762216150760650634765625">
        <ele>972.20001220703125</ele>
        <time>2022-05-06T07:44:04.000Z</time>
      </trkpt>
      <trkpt lat="40.33108471892774105072021484375" lon="-1.0761121474206447601318359375">
        <ele>972</ele>
        <time>2022-05-06T07:44:06.000Z</time>
      </trkpt>
      <trkpt lat="40.3310454078018665313720703125" lon="-1.07600276358425617218017578125">
        <ele>972</ele>
        <time>2022-05-06T07:44:08.000Z</time>
      </trkpt>
      <trkpt lat="40.33100592903792858123779296875" lon="-1.0758952237665653228759765625">
        <ele>971.79998779296875</ele>
        <time>2022-05-06T07:44:10.000Z</time>
      </trkpt>
      <trkpt lat="40.3309649415314197540283203125" lon="-1.075788773596286773681640625">
        <ele>972</ele>
        <time>2022-05-06T07:44:12.000Z</time>
      </trkpt>
      <trkpt lat="40.33092412166297435760498046875" lon="-1.07568450272083282470703125">
        <ele>972</ele>
        <time>2022-05-06T07:44:14.000Z</time>
      </trkpt>
      <trkpt lat="40.33088103868067264556884765625" lon="-1.07558869756758213043212890625">
        <ele>972</ele>
        <time>2022-05-06T07:44:16.000Z</time>
      </trkpt>
      <trkpt lat="40.33084047026932239532470703125" lon="-1.07548694126307964324951171875">
        <ele>972</ele>
        <time>2022-05-06T07:44:18.000Z</time>
      </trkpt>
      <trkpt lat="40.33081817440688610076904296875" lon="-1.07543631456792354583740234375">
        <ele>972</ele>
        <time>2022-05-06T07:44:19.000Z</time>
      </trkpt>
      <trkpt lat="40.330795459449291229248046875" lon="-1.07538484968245029449462890625">
        <ele>972</ele>
        <time>2022-05-06T07:44:20.000Z</time>
      </trkpt>
      <trkpt lat="40.3307475149631500244140625" lon="-1.07528326101601123809814453125">
        <ele>972</ele>
        <time>2022-05-06T07:44:22.000Z</time>
      </trkpt>
      <trkpt lat="40.330700241029262542724609375" lon="-1.07518133707344532012939453125">
        <ele>971.5999755859375</ele>
        <time>2022-05-06T07:44:24.000Z</time>
      </trkpt>
      <trkpt lat="40.330653972923755645751953125" lon="-1.075080335140228271484375">
        <ele>971.4000244140625</ele>
        <time>2022-05-06T07:44:26.000Z</time>
      </trkpt>
      <trkpt lat="40.33060410059988498687744140625" lon="-1.07498117722570896148681640625">
        <ele>971</ele>
        <time>2022-05-06T07:44:28.000Z</time>
      </trkpt>
      <trkpt lat="40.33057761378586292266845703125" lon="-1.074931807816028594970703125">
        <ele>970.79998779296875</ele>
        <time>2022-05-06T07:44:29.000Z</time>
      </trkpt>
      <trkpt lat="40.3305525518953800201416015625" lon="-1.07488210313022136688232421875">
        <ele>970.5999755859375</ele>
        <time>2022-05-06T07:44:30.000Z</time>
      </trkpt>
      <trkpt lat="40.3305042721331119537353515625" lon="-1.07477950863540172576904296875">
        <ele>970.20001220703125</ele>
        <time>2022-05-06T07:44:32.000Z</time>
      </trkpt>
      <trkpt lat="40.3304546512663364410400390625" lon="-1.074681021273136138916015625">
        <ele>970</ele>
        <time>2022-05-06T07:44:34.000Z</time>
      </trkpt>
      <trkpt lat="40.3304090537130832672119140625" lon="-1.0745909996330738067626953125">
        <ele>969.79998779296875</ele>
        <time>2022-05-06T07:44:36.000Z</time>
      </trkpt>
      <trkpt lat="40.33038717694580554962158203125" lon="-1.074544228613376617431640625">
        <ele>969.79998779296875</ele>
        <time>2022-05-06T07:44:37.000Z</time>
      </trkpt>
      <trkpt lat="40.33036387525498867034912109375" lon="-1.07449720613658428192138671875">
        <ele>969.5999755859375</ele>
        <time>2022-05-06T07:44:38.000Z</time>
      </trkpt>
      <trkpt lat="40.3303155116736888885498046875" lon="-1.0744015686213970184326171875">
        <ele>969.5999755859375</ele>
        <time>2022-05-06T07:44:40.000Z</time>
      </trkpt>
      <trkpt lat="40.330266393721103668212890625" lon="-1.074308194220066070556640625">
        <ele>969.4000244140625</ele>
        <time>2022-05-06T07:44:42.000Z</time>
      </trkpt>
      <trkpt lat="40.3302166052162647247314453125" lon="-1.07421088032424449920654296875">
        <ele>969.4000244140625</ele>
        <time>2022-05-06T07:44:44.000Z</time>
      </trkpt>
      <trkpt lat="40.33016539178788661956787109375" lon="-1.07410845346748828887939453125">
        <ele>969.5999755859375</ele>
        <time>2022-05-06T07:44:46.000Z</time>
      </trkpt>
      <trkpt lat="40.33011308871209621429443359375" lon="-1.07400669716298580169677734375">
        <ele>970.20001220703125</ele>
        <time>2022-05-06T07:44:48.000Z</time>
      </trkpt>
      <trkpt lat="40.33006195910274982452392578125" lon="-1.07390929944813251495361328125">
        <ele>970.5999755859375</ele>
        <time>2022-05-06T07:44:50.000Z</time>
      </trkpt>
      <trkpt lat="40.33001284115016460418701171875" lon="-1.07381206937134265899658203125">
        <ele>971.4000244140625</ele>
        <time>2022-05-06T07:44:52.000Z</time>
      </trkpt>
      <trkpt lat="40.3299634717404842376708984375" lon="-1.07371844351291656494140625">
        <ele>972.4000244140625</ele>
        <time>2022-05-06T07:44:54.000Z</time>
      </trkpt>
      <trkpt lat="40.32991913147270679473876953125" lon="-1.07363135553896427154541015625">
        <ele>973</ele>
        <time>2022-05-06T07:44:56.000Z</time>
      </trkpt>
      <trkpt lat="40.3298838436603546142578125" lon="-1.07355642132461071014404296875">
        <ele>973.20001220703125</ele>
        <time>2022-05-06T07:44:58.000Z</time>
      </trkpt>
      <trkpt lat="40.32986707985401153564453125" lon="-1.073522977530956268310546875">
        <ele>973.20001220703125</ele>
        <time>2022-05-06T07:44:59.000Z</time>
      </trkpt>
      <trkpt lat="40.329849980771541595458984375" lon="-1.07349020428955554962158203125">
        <ele>973.4000244140625</ele>
        <time>2022-05-06T07:45:00.000Z</time>
      </trkpt>
      <trkpt lat="40.32981737516820430755615234375" lon="-1.07343018986284732818603515625">
        <ele>973.4000244140625</ele>
        <time>2022-05-06T07:45:02.000Z</time>
      </trkpt>
      <trkpt lat="40.32979139126837253570556640625" lon="-1.073377132415771484375">
        <ele>973.5999755859375</ele>
        <time>2022-05-06T07:45:04.000Z</time>
      </trkpt>
      <trkpt lat="40.329776890575885772705078125" lon="-1.0733196325600147247314453125">
        <ele>973.5999755859375</ele>
        <time>2022-05-06T07:45:06.000Z</time>
      </trkpt>
      <trkpt lat="40.3297810815274715423583984375" lon="-1.07325450517237186431884765625">
        <ele>973.79998779296875</ele>
        <time>2022-05-06T07:45:08.000Z</time>
      </trkpt>
      <trkpt lat="40.3298072330653667449951171875" lon="-1.07318694703280925750732421875">
        <ele>974</ele>
        <time>2022-05-06T07:45:10.000Z</time>
      </trkpt>
      <trkpt lat="40.329833216965198516845703125" lon="-1.0731556825339794158935546875">
        <ele>974</ele>
        <time>2022-05-06T07:45:11.000Z</time>
      </trkpt>
      <trkpt lat="40.32985827885568141937255859375" lon="-1.07312777079641819000244140625">
        <ele>974.20001220703125</ele>
        <time>2022-05-06T07:45:12.000Z</time>
      </trkpt>
      <trkpt lat="40.3298856876790523529052734375" lon="-1.073066331446170806884765625">
        <ele>974.4000244140625</ele>
        <time>2022-05-06T07:45:14.000Z</time>
      </trkpt>
      <trkpt lat="40.329886861145496368408203125" lon="-1.07303506694734096527099609375">
        <ele>974.4000244140625</ele>
        <time>2022-05-06T07:45:15.000Z</time>
      </trkpt>
      <trkpt lat="40.329887531697750091552734375" lon="-1.07300698757171630859375">
        <ele>974.4000244140625</ele>
        <time>2022-05-06T07:45:16.000Z</time>
      </trkpt>
      <trkpt lat="40.329888202250003814697265625" lon="-1.07297991402447223663330078125">
        <ele>974.4000244140625</ele>
        <time>2022-05-06T07:45:17.000Z</time>
      </trkpt>
      <trkpt lat="40.32989096827805042266845703125" lon="-1.0729535110294818878173828125">
        <ele>974.4000244140625</ele>
        <time>2022-05-06T07:45:18.000Z</time>
      </trkpt>
      <trkpt lat="40.329898260533809661865234375" lon="-1.0728921554982662200927734375">
        <ele>974.5999755859375</ele>
        <time>2022-05-06T07:45:20.000Z</time>
      </trkpt>
      <trkpt lat="40.3298930637538433074951171875" lon="-1.07286558486521244049072265625">
        <ele>974.5999755859375</ele>
        <time>2022-05-06T07:45:21.000Z</time>
      </trkpt>
      <trkpt lat="40.3298927284777164459228515625" lon="-1.0728411935269832611083984375">
        <ele>974.5999755859375</ele>
        <time>2022-05-06T07:45:22.000Z</time>
      </trkpt>
      <trkpt lat="40.3298918902873992919921875" lon="-1.072790063917636871337890625">
        <ele>974.5999755859375</ele>
        <time>2022-05-06T07:45:24.000Z</time>
      </trkpt>
      <trkpt lat="40.3298809938132762908935546875" lon="-1.07274186797440052032470703125">
        <ele>974.79998779296875</ele>
        <time>2022-05-06T07:45:26.000Z</time>
      </trkpt>
      <trkpt lat="40.3298709355294704437255859375" lon="-1.0727181471884250640869140625">
        <ele>974.79998779296875</ele>
        <time>2022-05-06T07:45:27.000Z</time>
      </trkpt>
      <trkpt lat="40.3298597037792205810546875" lon="-1.07269492931663990020751953125">
        <ele>974.79998779296875</ele>
        <time>2022-05-06T07:45:28.000Z</time>
      </trkpt>
      <trkpt lat="40.3298390842974185943603515625" lon="-1.07263885438442230224609375">
        <ele>974.79998779296875</ele>
        <time>2022-05-06T07:45:30.000Z</time>
      </trkpt>
      <trkpt lat="40.329827181994915008544921875" lon="-1.07257422991096973419189453125">
        <ele>974.79998779296875</ele>
        <time>2022-05-06T07:45:32.000Z</time>
      </trkpt>
      <trkpt lat="40.32982341013848781585693359375" lon="-1.072511114180088043212890625">
        <ele>975</ele>
        <time>2022-05-06T07:45:34.000Z</time>
      </trkpt>
      <trkpt lat="40.32982475124299526214599609375" lon="-1.0724455676972866058349609375">
        <ele>975</ele>
        <time>2022-05-06T07:45:36.000Z</time>
      </trkpt>
      <trkpt lat="40.32982709817588329315185546875" lon="-1.07238161377608776092529296875">
        <ele>975</ele>
        <time>2022-05-06T07:45:38.000Z</time>
      </trkpt>
      <trkpt lat="40.3298239968717098236083984375" lon="-1.072315312922000885009765625">
        <ele>975.20001220703125</ele>
        <time>2022-05-06T07:45:40.000Z</time>
      </trkpt>
      <trkpt lat="40.32982374541461467742919921875" lon="-1.07228287495672702789306640625">
        <ele>975.20001220703125</ele>
        <time>2022-05-06T07:45:41.000Z</time>
      </trkpt>
      <trkpt lat="40.3298219852149486541748046875" lon="-1.0722524486482143402099609375">
        <ele>975.20001220703125</ele>
        <time>2022-05-06T07:45:42.000Z</time>
      </trkpt>
      <trkpt lat="40.32981150783598423004150390625" lon="-1.0721971280872821807861328125">
        <ele>975.4000244140625</ele>
        <time>2022-05-06T07:45:44.000Z</time>
      </trkpt>
      <trkpt lat="40.32980396412312984466552734375" lon="-1.072171144187450408935546875">
        <ele>975.4000244140625</ele>
        <time>2022-05-06T07:45:45.000Z</time>
      </trkpt>
      <trkpt lat="40.32979457639157772064208984375" lon="-1.0721454955637454986572265625">
        <ele>975.4000244140625</ele>
        <time>2022-05-06T07:45:46.000Z</time>
      </trkpt>
      <trkpt lat="40.32978527247905731201171875" lon="-1.07211909256875514984130859375">
        <ele>975.5999755859375</ele>
        <time>2022-05-06T07:45:47.000Z</time>
      </trkpt>
      <trkpt lat="40.3297777287662029266357421875" lon="-1.0720915161073207855224609375">
        <ele>975.5999755859375</ele>
        <time>2022-05-06T07:45:48.000Z</time>
      </trkpt>
      <trkpt lat="40.3297711908817291259765625" lon="-1.07206259854137897491455078125">
        <ele>975.79998779296875</ele>
        <time>2022-05-06T07:45:49.000Z</time>
      </trkpt>
      <trkpt lat="40.3297643177211284637451171875" lon="-1.0720338486135005950927734375">
        <ele>976</ele>
        <time>2022-05-06T07:45:50.000Z</time>
      </trkpt>
      <trkpt lat="40.32975384034216403961181640625" lon="-1.07198238372802734375">
        <ele>976.20001220703125</ele>
        <time>2022-05-06T07:45:52.000Z</time>
      </trkpt>
      <trkpt lat="40.32974638044834136962890625" lon="-1.0719594173133373260498046875">
        <ele>976.4000244140625</ele>
        <time>2022-05-06T07:45:53.000Z</time>
      </trkpt>
      <trkpt lat="40.32973975874483585357666015625" lon="-1.07193410396575927734375">
        <ele>976.4000244140625</ele>
        <time>2022-05-06T07:45:54.000Z</time>
      </trkpt>
      <trkpt lat="40.32972651533782482147216796875" lon="-1.07188045978546142578125">
        <ele>976.79998779296875</ele>
        <time>2022-05-06T07:45:56.000Z</time>
      </trkpt>
      <trkpt lat="40.32971930690109729766845703125" lon="-1.0718283243477344512939453125">
        <ele>977</ele>
        <time>2022-05-06T07:45:58.000Z</time>
      </trkpt>
      <trkpt lat="40.32971846871078014373779296875" lon="-1.071776188910007476806640625">
        <ele>977.20001220703125</ele>
        <time>2022-05-06T07:46:00.000Z</time>
      </trkpt>
      <trkpt lat="40.32972115091979503631591796875" lon="-1.07173117808997631072998046875">
        <ele>977.4000244140625</ele>
        <time>2022-05-06T07:46:02.000Z</time>
      </trkpt>
      <trkpt lat="40.3297227434813976287841796875" lon="-1.07169480063021183013916015625">
        <ele>977.5999755859375</ele>
        <time>2022-05-06T07:46:04.000Z</time>
      </trkpt>
      <trkpt lat="40.32972081564366817474365234375" lon="-1.07167200185358524322509765625">
        <ele>977.79998779296875</ele>
        <time>2022-05-06T07:46:06.000Z</time>
      </trkpt>
      <trkpt lat="40.3297210671007633209228515625" lon="-1.07167099602520465850830078125">
        <ele>977.79998779296875</ele>
        <time>2022-05-06T07:46:07.000Z</time>
      </trkpt>
      <trkpt lat="40.3297036327421665191650390625" lon="-1.07159572653472423553466796875">
        <ele>978.20001220703125</ele>
        <time>2022-05-06T07:46:22.000Z</time>
      </trkpt>
      <trkpt lat="40.3296952508389949798583984375" lon="-1.07157292775809764862060546875">
        <ele>978.20001220703125</ele>
        <time>2022-05-06T07:46:23.000Z</time>
      </trkpt>
      <trkpt lat="40.32968066632747650146484375" lon="-1.0715456865727901458740234375">
        <ele>978.4000244140625</ele>
        <time>2022-05-06T07:46:24.000Z</time>
      </trkpt>
      <trkpt lat="40.32964956946671009063720703125" lon="-1.07149665243923664093017578125">
        <ele>978.5999755859375</ele>
        <time>2022-05-06T07:46:26.000Z</time>
      </trkpt>
      <trkpt lat="40.329628698527812957763671875" lon="-1.071464382112026214599609375">
        <ele>978.79998779296875</ele>
        <time>2022-05-06T07:46:28.000Z</time>
      </trkpt>
      <trkpt lat="40.3296191431581974029541015625" lon="-1.07145155780017375946044921875">
        <ele>978.79998779296875</ele>
        <time>2022-05-06T07:46:29.000Z</time>
      </trkpt>
      <trkpt lat="40.32960824668407440185546875" lon="-1.07144116424024105072021484375">
        <ele>979</ele>
        <time>2022-05-06T07:46:30.000Z</time>
      </trkpt>
      <trkpt lat="40.329595506191253662109375" lon="-1.07143563218414783477783203125">
        <ele>979</ele>
        <time>2022-05-06T07:46:31.000Z</time>
      </trkpt>
      <trkpt lat="40.32958067022264003753662109375" lon="-1.0714350454509258270263671875">
        <ele>979</ele>
        <time>2022-05-06T07:46:32.000Z</time>
      </trkpt>
      <trkpt lat="40.3295673429965972900390625" lon="-1.07143454253673553466796875">
        <ele>979.20001220703125</ele>
        <time>2022-05-06T07:46:33.000Z</time>
      </trkpt>
      <trkpt lat="40.3295567817986011505126953125" lon="-1.07143294997513294219970703125">
        <ele>979.20001220703125</ele>
        <time>2022-05-06T07:46:34.000Z</time>
      </trkpt>
      <trkpt lat="40.3295517526566982269287109375" lon="-1.07143144123256206512451171875">
        <ele>979.20001220703125</ele>
        <time>2022-05-06T07:46:36.000Z</time>
      </trkpt>
      <trkpt lat="40.32956407405436038970947265625" lon="-1.0713736899197101593017578125">
        <ele>979.79998779296875</ele>
        <time>2022-05-06T07:46:42.000Z</time>
      </trkpt>
      <trkpt lat="40.329575724899768829345703125" lon="-1.07134024612605571746826171875">
        <ele>980</ele>
        <time>2022-05-06T07:46:44.000Z</time>
      </trkpt>
      <trkpt lat="40.3295825980603694915771484375" lon="-1.07130370102822780609130859375">
        <ele>980.4000244140625</ele>
        <time>2022-05-06T07:46:46.000Z</time>
      </trkpt>
      <trkpt lat="40.3295879624783992767333984375" lon="-1.07126866467297077178955078125">
        <ele>980.79998779296875</ele>
        <time>2022-05-06T07:46:48.000Z</time>
      </trkpt>
      <trkpt lat="40.32959374599158763885498046875" lon="-1.071239747107028961181640625">
        <ele>981.20001220703125</ele>
        <time>2022-05-06T07:46:50.000Z</time>
      </trkpt>
      <trkpt lat="40.32959978096187114715576171875" lon="-1.07121535576879978179931640625">
        <ele>981.4000244140625</ele>
        <time>2022-05-06T07:46:52.000Z</time>
      </trkpt>
      <trkpt lat="40.32960313372313976287841796875" lon="-1.07120093889534473419189453125">
        <ele>981.5999755859375</ele>
        <time>2022-05-06T07:46:54.000Z</time>
      </trkpt>
      <trkpt lat="40.32960330136120319366455078125" lon="-1.07119725085794925689697265625">
        <ele>981.5999755859375</ele>
        <time>2022-05-06T07:46:55.000Z</time>
      </trkpt>
      <trkpt lat="40.32962593249976634979248046875" lon="-1.07116095721721649169921875">
        <ele>982</ele>
        <time>2022-05-06T07:47:02.000Z</time>
      </trkpt>
      <trkpt lat="40.32963817007839679718017578125" lon="-1.07112835161387920379638671875">
        <ele>982.20001220703125</ele>
        <time>2022-05-06T07:47:04.000Z</time>
      </trkpt>
      <trkpt lat="40.3296478092670440673828125" lon="-1.071111671626567840576171875">
        <ele>982.4000244140625</ele>
        <time>2022-05-06T07:47:05.000Z</time>
      </trkpt>
      <trkpt lat="40.3296590410172939300537109375" lon="-1.07109482400119304656982421875">
        <ele>982.4000244140625</ele>
        <time>2022-05-06T07:47:06.000Z</time>
      </trkpt>
      <trkpt lat="40.329685695469379425048828125" lon="-1.07106364332139492034912109375">
        <ele>982.5999755859375</ele>
        <time>2022-05-06T07:47:08.000Z</time>
      </trkpt>
      <trkpt lat="40.329720564186573028564453125" lon="-1.0710234940052032470703125">
        <ele>982.79998779296875</ele>
        <time>2022-05-06T07:47:10.000Z</time>
      </trkpt>
      <trkpt lat="40.329735986888408660888671875" lon="-1.0709978453814983367919921875">
        <ele>983</ele>
        <time>2022-05-06T07:47:11.000Z</time>
      </trkpt>
      <trkpt lat="40.3297485597431659698486328125" lon="-1.0709713585674762725830078125">
        <ele>983.20001220703125</ele>
        <time>2022-05-06T07:47:12.000Z</time>
      </trkpt>
      <trkpt lat="40.329766832292079925537109375" lon="-1.0709032975137233734130859375">
        <ele>983.79998779296875</ele>
        <time>2022-05-06T07:47:14.000Z</time>
      </trkpt>
      <trkpt lat="40.32977596856653690338134765625" lon="-1.0708115994930267333984375">
        <ele>984.79998779296875</ele>
        <time>2022-05-06T07:47:16.000Z</time>
      </trkpt>
      <trkpt lat="40.329782254993915557861328125" lon="-1.0706944204866886138916015625">
        <ele>986</ele>
        <time>2022-05-06T07:47:18.000Z</time>
      </trkpt>
      <trkpt lat="40.32978954724967479705810546875" lon="-1.0705728828907012939453125">
        <ele>987.20001220703125</ele>
        <time>2022-05-06T07:47:20.000Z</time>
      </trkpt>
      <trkpt lat="40.32980128191411495208740234375" lon="-1.07046701945364475250244140625">
        <ele>988</ele>
        <time>2022-05-06T07:47:22.000Z</time>
      </trkpt>
      <trkpt lat="40.3298112563788890838623046875" lon="-1.07041991315782070159912109375">
        <ele>988.20001220703125</ele>
        <time>2022-05-06T07:47:23.000Z</time>
      </trkpt>
      <trkpt lat="40.32982282340526580810546875" lon="-1.0703775845468044281005859375">
        <ele>988.20001220703125</ele>
        <time>2022-05-06T07:47:24.000Z</time>
      </trkpt>
      <trkpt lat="40.3298451192677021026611328125" lon="-1.07029787264764308929443359375">
        <ele>988.4000244140625</ele>
        <time>2022-05-06T07:47:26.000Z</time>
      </trkpt>
      <trkpt lat="40.329853333532810211181640625" lon="-1.07025512494146823883056640625">
        <ele>988.5999755859375</ele>
        <time>2022-05-06T07:47:27.000Z</time>
      </trkpt>
      <trkpt lat="40.3298625536262989044189453125" lon="-1.07021011412143707275390625">
        <ele>988.5999755859375</ele>
        <time>2022-05-06T07:47:28.000Z</time>
      </trkpt>
      <trkpt lat="40.3298793174326419830322265625" lon="-1.07012772001326084136962890625">
        <ele>988.79998779296875</ele>
        <time>2022-05-06T07:47:30.000Z</time>
      </trkpt>
      <trkpt lat="40.329888202250003814697265625" lon="-1.07003769837319850921630859375">
        <ele>989</ele>
        <time>2022-05-06T07:47:32.000Z</time>
      </trkpt>
      <trkpt lat="40.32989180646836757659912109375" lon="-1.0699896700680255889892578125">
        <ele>989.20001220703125</ele>
        <time>2022-05-06T07:47:33.000Z</time>
      </trkpt>
      <trkpt lat="40.32989130355417728424072265625" lon="-1.06994180940091609954833984375">
        <ele>989.20001220703125</ele>
        <time>2022-05-06T07:47:34.000Z</time>
      </trkpt>
      <trkpt lat="40.3298796527087688446044921875" lon="-1.06983770616352558135986328125">
        <ele>989.5999755859375</ele>
        <time>2022-05-06T07:47:36.000Z</time>
      </trkpt>
      <trkpt lat="40.3298595361411571502685546875" lon="-1.0697533003985881805419921875">
        <ele>989.79998779296875</ele>
        <time>2022-05-06T07:47:38.000Z</time>
      </trkpt>
      <trkpt lat="40.3298489749431610107421875" lon="-1.069692112505435943603515625">
        <ele>989.4000244140625</ele>
        <time>2022-05-06T07:47:40.000Z</time>
      </trkpt>
      <trkpt lat="40.32984805293381214141845703125" lon="-1.06962799094617366790771484375">
        <ele>989.20001220703125</ele>
        <time>2022-05-06T07:47:42.000Z</time>
      </trkpt>
      <trkpt lat="40.32984562218189239501953125" lon="-1.06958658434450626373291015625">
        <ele>989.20001220703125</ele>
        <time>2022-05-06T07:47:43.000Z</time>
      </trkpt>
      <trkpt lat="40.32984470017254352569580078125" lon="-1.0695383884012699127197265625">
        <ele>989</ele>
        <time>2022-05-06T07:47:44.000Z</time>
      </trkpt>
      <trkpt lat="40.329845286905765533447265625" lon="-1.0694532282650470733642578125">
        <ele>988.79998779296875</ele>
        <time>2022-05-06T07:47:46.000Z</time>
      </trkpt>
      <trkpt lat="40.32983950339257717132568359375" lon="-1.06938390992581844329833984375">
        <ele>988.79998779296875</ele>
        <time>2022-05-06T07:47:48.000Z</time>
      </trkpt>
      <trkpt lat="40.32982776872813701629638671875" lon="-1.06930914334952831268310546875">
        <ele>988.79998779296875</ele>
        <time>2022-05-06T07:47:50.000Z</time>
      </trkpt>
      <trkpt lat="40.32977798022329807281494140625" lon="-1.06924778781831264495849609375">
        <ele>988.79998779296875</ele>
        <time>2022-05-06T07:47:52.000Z</time>
      </trkpt>
      <trkpt lat="40.3297106735408306121826171875" lon="-1.06923110783100128173828125">
        <ele>989.20001220703125</ele>
        <time>2022-05-06T07:47:54.000Z</time>
      </trkpt>
      <trkpt lat="40.32963850535452365875244140625" lon="-1.06922565959393978118896484375">
        <ele>989.4000244140625</ele>
        <time>2022-05-06T07:47:56.000Z</time>
      </trkpt>
      <trkpt lat="40.32959139905869960784912109375" lon="-1.06921442784368991851806640625">
        <ele>989</ele>
        <time>2022-05-06T07:47:57.000Z</time>
      </trkpt>
      <trkpt lat="40.32954228110611438751220703125" lon="-1.0691933892667293548583984375">
        <ele>988.5999755859375</ele>
        <time>2022-05-06T07:47:58.000Z</time>
      </trkpt>
      <trkpt lat="40.329444296658039093017578125" lon="-1.06914351694285869598388671875">
        <ele>987.79998779296875</ele>
        <time>2022-05-06T07:48:00.000Z</time>
      </trkpt>
      <trkpt lat="40.32939794473350048065185546875" lon="-1.069114767014980316162109375">
        <ele>987.4000244140625</ele>
        <time>2022-05-06T07:48:01.000Z</time>
      </trkpt>
      <trkpt lat="40.32935553230345249176025390625" lon="-1.069071851670742034912109375">
        <ele>987</ele>
        <time>2022-05-06T07:48:02.000Z</time>
      </trkpt>
      <trkpt lat="40.32926316373050212860107421875" lon="-1.0689647309482097625732421875">
        <ele>986</ele>
        <time>2022-05-06T07:48:04.000Z</time>
      </trkpt>
      <trkpt lat="40.32917297445237636566162109375" lon="-1.0688601247966289520263671875">
        <ele>984.5999755859375</ele>
        <time>2022-05-06T07:48:06.000Z</time>
      </trkpt>
      <trkpt lat="40.32908865250647068023681640625" lon="-1.06876364909112453460693359375">
        <ele>983</ele>
        <time>2022-05-06T07:48:08.000Z</time>
      </trkpt>
      <trkpt lat="40.3290496766567230224609375" lon="-1.06873062439262866973876953125">
        <ele>982.4000244140625</ele>
        <time>2022-05-06T07:48:09.000Z</time>
      </trkpt>
      <trkpt lat="40.329013131558895111083984375" lon="-1.06871151365339756011962890625">
        <ele>982</ele>
        <time>2022-05-06T07:48:10.000Z</time>
      </trkpt>
      <trkpt lat="40.32894984818994998931884765625" lon="-1.06869542039930820465087890625">
        <ele>982</ele>
        <time>2022-05-06T07:48:12.000Z</time>
      </trkpt>
      <trkpt lat="40.32892554067075252532958984375" lon="-1.06868703849613666534423828125">
        <ele>982</ele>
        <time>2022-05-06T07:48:13.000Z</time>
      </trkpt>
      <trkpt lat="40.32890475355088710784912109375" lon="-1.0686750523746013641357421875">
        <ele>982</ele>
        <time>2022-05-06T07:48:14.000Z</time>
      </trkpt>
      <trkpt lat="40.32885932363569736480712890625" lon="-1.06864496134221553802490234375">
        <ele>982</ele>
        <time>2022-05-06T07:48:16.000Z</time>
      </trkpt>
      <trkpt lat="40.32880567945539951324462890625" lon="-1.06861126609146595001220703125">
        <ele>982</ele>
        <time>2022-05-06T07:48:18.000Z</time>
      </trkpt>
      <trkpt lat="40.32876159064471721649169921875" lon="-1.068557202816009521484375">
        <ele>981.5999755859375</ele>
        <time>2022-05-06T07:48:20.000Z</time>
      </trkpt>
      <trkpt lat="40.328730829060077667236328125" lon="-1.06847849674522876739501953125">
        <ele>981.4000244140625</ele>
        <time>2022-05-06T07:48:22.000Z</time>
      </trkpt>
      <trkpt lat="40.32871498726308345794677734375" lon="-1.06843222863972187042236328125">
        <ele>981.4000244140625</ele>
        <time>2022-05-06T07:48:23.000Z</time>
      </trkpt>
      <trkpt lat="40.32869587652385234832763671875" lon="-1.0683868825435638427734375">
        <ele>981.20001220703125</ele>
        <time>2022-05-06T07:48:24.000Z</time>
      </trkpt>
      <trkpt lat="40.32864390872418880462646484375" lon="-1.06830582953989505767822265625">
        <ele>980.79998779296875</ele>
        <time>2022-05-06T07:48:26.000Z</time>
      </trkpt>
      <trkpt lat="40.32858624123036861419677734375" lon="-1.06824732385575771331787109375">
        <ele>980.4000244140625</ele>
        <time>2022-05-06T07:48:28.000Z</time>
      </trkpt>
      <trkpt lat="40.32853008247911930084228515625" lon="-1.06818747706711292266845703125">
        <ele>979.79998779296875</ele>
        <time>2022-05-06T07:48:30.000Z</time>
      </trkpt>
      <trkpt lat="40.32848465256392955780029296875" lon="-1.06814439408481121063232421875">
        <ele>979.4000244140625</ele>
        <time>2022-05-06T07:48:32.000Z</time>
      </trkpt>
      <trkpt lat="40.32846872694790363311767578125" lon="-1.06813165359199047088623046875">
        <ele>979.20001220703125</ele>
        <time>2022-05-06T07:48:33.000Z</time>
      </trkpt>
      <trkpt lat="40.3284560702741146087646484375" lon="-1.068121679127216339111328125">
        <ele>979.20001220703125</ele>
        <time>2022-05-06T07:48:34.000Z</time>
      </trkpt>
      <trkpt lat="40.3284369595348834991455078125" lon="-1.06810382567346096038818359375">
        <ele>979</ele>
        <time>2022-05-06T07:48:36.000Z</time>
      </trkpt>
      <trkpt lat="40.32843218185007572174072265625" lon="-1.06810013763606548309326171875">
        <ele>978.79998779296875</ele>
        <time>2022-05-06T07:48:38.000Z</time>
      </trkpt>
      <trkpt lat="40.32839144580066204071044921875" lon="-1.06805034913122653961181640625">
        <ele>978.20001220703125</ele>
        <time>2022-05-06T07:48:49.000Z</time>
      </trkpt>
      <trkpt lat="40.3283764421939849853515625" lon="-1.068028472363948822021484375">
        <ele>978</ele>
        <time>2022-05-06T07:48:50.000Z</time>
      </trkpt>
      <trkpt lat="40.32833998091518878936767578125" lon="-1.06797424145042896270751953125">
        <ele>977.20001220703125</ele>
        <time>2022-05-06T07:48:52.000Z</time>
      </trkpt>
      <trkpt lat="40.3283055312931537628173828125" lon="-1.06790073215961456298828125">
        <ele>976.4000244140625</ele>
        <time>2022-05-06T07:48:54.000Z</time>
      </trkpt>
      <trkpt lat="40.32829337753355503082275390625" lon="-1.0678611695766448974609375">
        <ele>976</ele>
        <time>2022-05-06T07:48:55.000Z</time>
      </trkpt>
      <trkpt lat="40.3282840736210346221923828125" lon="-1.0678224451839923858642578125">
        <ele>975.5999755859375</ele>
        <time>2022-05-06T07:48:56.000Z</time>
      </trkpt>
      <trkpt lat="40.32827946357429027557373046875" lon="-1.06778145767748355865478515625">
        <ele>975.4000244140625</ele>
        <time>2022-05-06T07:48:57.000Z</time>
      </trkpt>
      <trkpt lat="40.328273512423038482666015625" lon="-1.06773912906646728515625">
        <ele>975.20001220703125</ele>
        <time>2022-05-06T07:48:58.000Z</time>
      </trkpt>
      <trkpt lat="40.32827141694724559783935546875" lon="-1.06769998557865619659423828125">
        <ele>975</ele>
        <time>2022-05-06T07:48:59.000Z</time>
      </trkpt>
      <trkpt lat="40.32826856710016727447509765625" lon="-1.06766176410019397735595703125">
        <ele>974.79998779296875</ele>
        <time>2022-05-06T07:49:00.000Z</time>
      </trkpt>
      <trkpt lat="40.32826471142470836639404296875" lon="-1.06761951930820941925048828125">
        <ele>974.4000244140625</ele>
        <time>2022-05-06T07:49:01.000Z</time>
      </trkpt>
      <trkpt lat="40.32825632952153682708740234375" lon="-1.0675713233649730682373046875">
        <ele>974.20001220703125</ele>
        <time>2022-05-06T07:49:02.000Z</time>
      </trkpt>
      <trkpt lat="40.32822632230818271636962890625" lon="-1.06744634918868541717529296875">
        <ele>973.4000244140625</ele>
        <time>2022-05-06T07:49:04.000Z</time>
      </trkpt>
      <trkpt lat="40.32820545136928558349609375" lon="-1.06738172471523284912109375">
        <ele>973</ele>
        <time>2022-05-06T07:49:05.000Z</time>
      </trkpt>
      <trkpt lat="40.3281851671636104583740234375" lon="-1.06731995008885860443115234375">
        <ele>972.5999755859375</ele>
        <time>2022-05-06T07:49:06.000Z</time>
      </trkpt>
      <trkpt lat="40.32816329039633274078369140625" lon="-1.0672544874250888824462890625">
        <ele>972.20001220703125</ele>
        <time>2022-05-06T07:49:07.000Z</time>
      </trkpt>
      <trkpt lat="40.32814099453389644622802734375" lon="-1.06718684546649456024169921875">
        <ele>971.79998779296875</ele>
        <time>2022-05-06T07:49:08.000Z</time>
      </trkpt>
      <trkpt lat="40.3281161002814769744873046875" lon="-1.067117191851139068603515625">
        <ele>971.4000244140625</ele>
        <time>2022-05-06T07:49:09.000Z</time>
      </trkpt>
      <trkpt lat="40.3280906192958354949951171875" lon="-1.06704519130289554595947265625">
        <ele>970.79998779296875</ele>
        <time>2022-05-06T07:49:10.000Z</time>
      </trkpt>
      <trkpt lat="40.328063629567623138427734375" lon="-1.0669752024114131927490234375">
        <ele>970</ele>
        <time>2022-05-06T07:49:11.000Z</time>
      </trkpt>
      <trkpt lat="40.32803378999233245849609375" lon="-1.0669078119099140167236328125">
        <ele>969.4000244140625</ele>
        <time>2022-05-06T07:49:12.000Z</time>
      </trkpt>
      <trkpt lat="40.32799766398966312408447265625" lon="-1.0668424330651760101318359375">
        <ele>968.79998779296875</ele>
        <time>2022-05-06T07:49:13.000Z</time>
      </trkpt>
      <trkpt lat="40.32796229235827922821044921875" lon="-1.06678082607686519622802734375">
        <ele>968</ele>
        <time>2022-05-06T07:49:14.000Z</time>
      </trkpt>
      <trkpt lat="40.32793127931654453277587890625" lon="-1.0667150281369686126708984375">
        <ele>967.5999755859375</ele>
        <time>2022-05-06T07:49:15.000Z</time>
      </trkpt>
      <trkpt lat="40.32790395431220531463623046875" lon="-1.06663866899907588958740234375">
        <ele>967</ele>
        <time>2022-05-06T07:49:16.000Z</time>
      </trkpt>
      <trkpt lat="40.32785885967314243316650390625" lon="-1.0665118508040904998779296875">
        <ele>966</ele>
        <time>2022-05-06T07:49:18.000Z</time>
      </trkpt>
      <trkpt lat="40.32784762792289257049560546875" lon="-1.06647119857370853424072265625">
        <ele>965.5999755859375</ele>
        <time>2022-05-06T07:49:19.000Z</time>
      </trkpt>
      <trkpt lat="40.32783740200102329254150390625" lon="-1.06643767096102237701416015625">
        <ele>965.4000244140625</ele>
        <time>2022-05-06T07:49:20.000Z</time>
      </trkpt>
      <trkpt lat="40.327819883823394775390625" lon="-1.06636927463114261627197265625">
        <ele>965.5999755859375</ele>
        <time>2022-05-06T07:49:22.000Z</time>
      </trkpt>
      <trkpt lat="40.32780135981738567352294921875" lon="-1.0663043148815631866455078125">
        <ele>966</ele>
        <time>2022-05-06T07:49:24.000Z</time>
      </trkpt>
      <trkpt lat="40.32778157852590084075927734375" lon="-1.0662513412535190582275390625">
        <ele>966.20001220703125</ele>
        <time>2022-05-06T07:49:26.000Z</time>
      </trkpt>
      <trkpt lat="40.327771939337253570556640625" lon="-1.06622862629592418670654296875">
        <ele>966.20001220703125</ele>
        <time>2022-05-06T07:49:27.000Z</time>
      </trkpt>
      <trkpt lat="40.32776330597698688507080078125" lon="-1.06620716862380504608154296875">
        <ele>966.4000244140625</ele>
        <time>2022-05-06T07:49:28.000Z</time>
      </trkpt>
      <trkpt lat="40.32775123603641986846923828125" lon="-1.06617850251495838165283203125">
        <ele>966.4000244140625</ele>
        <time>2022-05-06T07:49:30.000Z</time>
      </trkpt>
      <trkpt lat="40.32775123603641986846923828125" lon="-1.0661769099533557891845703125">
        <ele>966.4000244140625</ele>
        <time>2022-05-06T07:49:32.000Z</time>
      </trkpt>
      <trkpt lat="40.3277275152504444122314453125" lon="-1.0661366768181324005126953125">
        <ele>966.5999755859375</ele>
        <time>2022-05-06T07:49:43.000Z</time>
      </trkpt>
      <trkpt lat="40.3277151100337505340576171875" lon="-1.06611630879342555999755859375">
        <ele>966.5999755859375</ele>
        <time>2022-05-06T07:49:44.000Z</time>
      </trkpt>
      <trkpt lat="40.3276909701526165008544921875" lon="-1.0660723038017749786376953125">
        <ele>966.79998779296875</ele>
        <time>2022-05-06T07:49:46.000Z</time>
      </trkpt>
      <trkpt lat="40.327649228274822235107421875" lon="-1.06600147671997547149658203125">
        <ele>967</ele>
        <time>2022-05-06T07:49:48.000Z</time>
      </trkpt>
      <trkpt lat="40.3276222385466098785400390625" lon="-1.06595520861446857452392578125">
        <ele>967.20001220703125</ele>
        <time>2022-05-06T07:49:49.000Z</time>
      </trkpt>
      <trkpt lat="40.32760136760771274566650390625" lon="-1.06591464020311832427978515625">
        <ele>967</ele>
        <time>2022-05-06T07:49:50.000Z</time>
      </trkpt>
      <trkpt lat="40.32756281085312366485595703125" lon="-1.06583568267524242401123046875">
        <ele>966.5999755859375</ele>
        <time>2022-05-06T07:49:52.000Z</time>
      </trkpt>
      <trkpt lat="40.3275382518768310546875" lon="-1.06579109095036983489990234375">
        <ele>966.4000244140625</ele>
        <time>2022-05-06T07:49:53.000Z</time>
      </trkpt>
      <trkpt lat="40.32751436345279216766357421875" lon="-1.06574666686356067657470703125">
        <ele>966</ele>
        <time>2022-05-06T07:49:54.000Z</time>
      </trkpt>
      <trkpt lat="40.3274720348417758941650390625" lon="-1.06567491777241230010986328125">
        <ele>965.5999755859375</ele>
        <time>2022-05-06T07:49:56.000Z</time>
      </trkpt>
      <trkpt lat="40.3274341486394405364990234375" lon="-1.0656183399260044097900390625">
        <ele>965.20001220703125</ele>
        <time>2022-05-06T07:49:58.000Z</time>
      </trkpt>
      <trkpt lat="40.3274006210267543792724609375" lon="-1.0655625164508819580078125">
        <ele>965</ele>
        <time>2022-05-06T07:50:00.000Z</time>
      </trkpt>
      <trkpt lat="40.3273674286901950836181640625" lon="-1.06552806682884693145751953125">
        <ele>964.5999755859375</ele>
        <time>2022-05-06T07:50:02.000Z</time>
      </trkpt>
      <trkpt lat="40.3273513354361057281494140625" lon="-1.0655157454311847686767578125">
        <ele>964.4000244140625</ele>
        <time>2022-05-06T07:50:03.000Z</time>
      </trkpt>
      <trkpt lat="40.32733985222876071929931640625" lon="-1.06550015509128570556640625">
        <ele>964.4000244140625</ele>
        <time>2022-05-06T07:50:04.000Z</time>
      </trkpt>
      <trkpt lat="40.32732660882174968719482421875" lon="-1.0654701478779315948486328125">
        <ele>964.4000244140625</ele>
        <time>2022-05-06T07:50:06.000Z</time>
      </trkpt>
      <trkpt lat="40.32732166349887847900390625" lon="-1.06544324196875095367431640625">
        <ele>964.4000244140625</ele>
        <time>2022-05-06T07:50:07.000Z</time>
      </trkpt>
      <trkpt lat="40.327322669327259063720703125" lon="-1.06540627777576446533203125">
        <ele>964.4000244140625</ele>
        <time>2022-05-06T07:50:08.000Z</time>
      </trkpt>
      <trkpt lat="40.3273451328277587890625" lon="-1.06532606296241283416748046875">
        <ele>964.79998779296875</ele>
        <time>2022-05-06T07:50:10.000Z</time>
      </trkpt>
      <trkpt lat="40.3273805044591426849365234375" lon="-1.06523084454238414764404296875">
        <ele>965.20001220703125</ele>
        <time>2022-05-06T07:50:12.000Z</time>
      </trkpt>
      <trkpt lat="40.3274022974073886871337890625" lon="-1.06518172658979892730712890625">
        <ele>965.4000244140625</ele>
        <time>2022-05-06T07:50:13.000Z</time>
      </trkpt>
      <trkpt lat="40.327425263822078704833984375" lon="-1.0651288367807865142822265625">
        <ele>965.79998779296875</ele>
        <time>2022-05-06T07:50:14.000Z</time>
      </trkpt>
      <trkpt lat="40.327474884688854217529296875" lon="-1.065022051334381103515625">
        <ele>966.4000244140625</ele>
        <time>2022-05-06T07:50:16.000Z</time>
      </trkpt>
      <trkpt lat="40.32750749029219150543212890625" lon="-1.06496765278279781341552734375">
        <ele>966.79998779296875</ele>
        <time>2022-05-06T07:50:17.000Z</time>
      </trkpt>
      <trkpt lat="40.32754202373325824737548828125" lon="-1.06491141021251678466796875">
        <ele>967.4000244140625</ele>
        <time>2022-05-06T07:50:18.000Z</time>
      </trkpt>
      <trkpt lat="40.3275799937546253204345703125" lon="-1.06485583819448947906494140625">
        <ele>967.79998779296875</ele>
        <time>2022-05-06T07:50:19.000Z</time>
      </trkpt>
      <trkpt lat="40.32762098126113414764404296875" lon="-1.06480001471936702728271484375">
        <ele>968.4000244140625</ele>
        <time>2022-05-06T07:50:20.000Z</time>
      </trkpt>
      <trkpt lat="40.32770521938800811767578125" lon="-1.0646812431514263153076171875">
        <ele>968.20001220703125</ele>
        <time>2022-05-06T07:50:22.000Z</time>
      </trkpt>
      <trkpt lat="40.3277489729225635528564453125" lon="-1.06461904942989349365234375">
        <ele>967.79998779296875</ele>
        <time>2022-05-06T07:50:23.000Z</time>
      </trkpt>
      <trkpt lat="40.32779373228549957275390625" lon="-1.0645513236522674560546875">
        <ele>967.4000244140625</ele>
        <time>2022-05-06T07:50:24.000Z</time>
      </trkpt>
      <trkpt lat="40.32783723436295986175537109375" lon="-1.064477898180484771728515625">
        <ele>966.79998779296875</ele>
        <time>2022-05-06T07:50:25.000Z</time>
      </trkpt>
      <trkpt lat="40.32787956297397613525390625" lon="-1.0643984377384185791015625">
        <ele>966.20001220703125</ele>
        <time>2022-05-06T07:50:26.000Z</time>
      </trkpt>
      <trkpt lat="40.32791954465210437774658203125" lon="-1.0643144510686397552490234375">
        <ele>965.4000244140625</ele>
        <time>2022-05-06T07:50:27.000Z</time>
      </trkpt>
      <trkpt lat="40.32795743085443973541259765625" lon="-1.06422736309468746185302734375">
        <ele>964.5999755859375</ele>
        <time>2022-05-06T07:50:28.000Z</time>
      </trkpt>
      <trkpt lat="40.32802398316562175750732421875" lon="-1.064064502716064453125">
        <ele>962.4000244140625</ele>
        <time>2022-05-06T07:50:30.000Z</time>
      </trkpt>
      <trkpt lat="40.3280755318701267242431640625" lon="-1.06393315829336643218994140625">
        <ele>960.79998779296875</ele>
        <time>2022-05-06T07:50:32.000Z</time>
      </trkpt>
      <trkpt lat="40.32810780219733715057373046875" lon="-1.06384363956749439239501953125">
        <ele>960.20001220703125</ele>
        <time>2022-05-06T07:50:34.000Z</time>
      </trkpt>
      <trkpt lat="40.328117273747920989990234375" lon="-1.06381162069737911224365234375">
        <ele>960</ele>
        <time>2022-05-06T07:50:36.000Z</time>
      </trkpt>
      <trkpt lat="40.328116603195667266845703125" lon="-1.06380893848836421966552734375">
        <ele>960</ele>
        <time>2022-05-06T07:50:37.000Z</time>
      </trkpt>
      <trkpt lat="40.3281154297292232513427734375" lon="-1.0638095252215862274169921875">
        <ele>960</ele>
        <time>2022-05-06T07:50:38.000Z</time>
      </trkpt>
      <trkpt lat="40.328143425285816192626953125" lon="-1.06377013027667999267578125">
        <ele>960</ele>
        <time>2022-05-06T07:52:49.000Z</time>
      </trkpt>
      <trkpt lat="40.3281529806554317474365234375" lon="-1.06375227682292461395263671875">
        <ele>959.79998779296875</ele>
        <time>2022-05-06T07:52:50.000Z</time>
      </trkpt>
      <trkpt lat="40.3281798027455806732177734375" lon="-1.06370483525097370147705078125">
        <ele>959.5999755859375</ele>
        <time>2022-05-06T07:52:52.000Z</time>
      </trkpt>
      <trkpt lat="40.3282103128731250762939453125" lon="-1.06364197097718715667724609375">
        <ele>959.20001220703125</ele>
        <time>2022-05-06T07:52:54.000Z</time>
      </trkpt>
      <trkpt lat="40.3282441757619380950927734375" lon="-1.0635801963508129119873046875">
        <ele>959</ele>
        <time>2022-05-06T07:52:56.000Z</time>
      </trkpt>
      <trkpt lat="40.32827711664140224456787109375" lon="-1.06352412141859531402587890625">
        <ele>958.79998779296875</ele>
        <time>2022-05-06T07:52:58.000Z</time>
      </trkpt>
      <trkpt lat="40.3283125720918178558349609375" lon="-1.06347240507602691650390625">
        <ele>958.5999755859375</ele>
        <time>2022-05-06T07:53:00.000Z</time>
      </trkpt>
      <trkpt lat="40.3283481113612651824951171875" lon="-1.063424460589885711669921875">
        <ele>958.4000244140625</ele>
        <time>2022-05-06T07:53:02.000Z</time>
      </trkpt>
      <trkpt lat="40.32838323153555393218994140625" lon="-1.0633790306746959686279296875">
        <ele>958.20001220703125</ele>
        <time>2022-05-06T07:53:04.000Z</time>
      </trkpt>
      <trkpt lat="40.32841709442436695098876953125" lon="-1.063330583274364471435546875">
        <ele>958</ele>
        <time>2022-05-06T07:53:06.000Z</time>
      </trkpt>
      <trkpt lat="40.32845489680767059326171875" lon="-1.06328238733112812042236328125">
        <ele>957.79998779296875</ele>
        <time>2022-05-06T07:53:08.000Z</time>
      </trkpt>
      <trkpt lat="40.32849848270416259765625" lon="-1.06322991661727428436279296875">
        <ele>957.79998779296875</ele>
        <time>2022-05-06T07:53:10.000Z</time>
      </trkpt>
      <trkpt lat="40.3285214491188526153564453125" lon="-1.06320083141326904296875">
        <ele>957.5999755859375</ele>
        <time>2022-05-06T07:53:11.000Z</time>
      </trkpt>
      <trkpt lat="40.32854340970516204833984375" lon="-1.06317157857120037078857421875">
        <ele>957.5999755859375</ele>
        <time>2022-05-06T07:53:12.000Z</time>
      </trkpt>
      <trkpt lat="40.32859160564839839935302734375" lon="-1.0631178505718708038330078125">
        <ele>957.4000244140625</ele>
        <time>2022-05-06T07:53:14.000Z</time>
      </trkpt>
      <trkpt lat="40.328646004199981689453125" lon="-1.063065044581890106201171875">
        <ele>957.4000244140625</ele>
        <time>2022-05-06T07:53:16.000Z</time>
      </trkpt>
      <trkpt lat="40.32869855873286724090576171875" lon="-1.06301500461995601654052734375">
        <ele>957.5999755859375</ele>
        <time>2022-05-06T07:53:18.000Z</time>
      </trkpt>
      <trkpt lat="40.32875488512217998504638671875" lon="-1.06296169571578502655029296875">
        <ele>957.5999755859375</ele>
        <time>2022-05-06T07:53:20.000Z</time>
      </trkpt>
      <trkpt lat="40.32881104387342929840087890625" lon="-1.06290687806904315948486328125">
        <ele>957.79998779296875</ele>
        <time>2022-05-06T07:53:22.000Z</time>
      </trkpt>
      <trkpt lat="40.32886527478694915771484375" lon="-1.06285172514617443084716796875">
        <ele>957.5999755859375</ele>
        <time>2022-05-06T07:53:24.000Z</time>
      </trkpt>
      <trkpt lat="40.32891414128243923187255859375" lon="-1.06280612759292125701904296875">
        <ele>957.79998779296875</ele>
        <time>2022-05-06T07:53:26.000Z</time>
      </trkpt>
      <trkpt lat="40.32893903553485870361328125" lon="-1.062786094844341278076171875">
        <ele>957.79998779296875</ele>
        <time>2022-05-06T07:53:27.000Z</time>
      </trkpt>
      <trkpt lat="40.3289660252630710601806640625" lon="-1.06276488862931728363037109375">
        <ele>957.79998779296875</ele>
        <time>2022-05-06T07:53:28.000Z</time>
      </trkpt>
      <trkpt lat="40.32902277074754238128662109375" lon="-1.062713675200939178466796875">
        <ele>957.79998779296875</ele>
        <time>2022-05-06T07:53:30.000Z</time>
      </trkpt>
      <trkpt lat="40.329080857336521148681640625" lon="-1.0626632161438465118408203125">
        <ele>957.79998779296875</ele>
        <time>2022-05-06T07:53:32.000Z</time>
      </trkpt>
      <trkpt lat="40.32910910435020923614501953125" lon="-1.06264494359493255615234375">
        <ele>958</ele>
        <time>2022-05-06T07:53:33.000Z</time>
      </trkpt>
      <trkpt lat="40.32913592644035816192626953125" lon="-1.062627844512462615966796875">
        <ele>958</ele>
        <time>2022-05-06T07:53:34.000Z</time>
      </trkpt>
      <trkpt lat="40.32918982207775115966796875" lon="-1.0625854320824146270751953125">
        <ele>958.20001220703125</ele>
        <time>2022-05-06T07:53:36.000Z</time>
      </trkpt>
      <trkpt lat="40.32924673520028591156005859375" lon="-1.0625394992530345916748046875">
        <ele>958.20001220703125</ele>
        <time>2022-05-06T07:53:38.000Z</time>
      </trkpt>
      <trkpt lat="40.329308174550533294677734375" lon="-1.0624908842146396636962890625">
        <ele>958.20001220703125</ele>
        <time>2022-05-06T07:53:40.000Z</time>
      </trkpt>
      <trkpt lat="40.32934094779193401336669921875" lon="-1.06246598996222019195556640625">
        <ele>958.4000244140625</ele>
        <time>2022-05-06T07:53:41.000Z</time>
      </trkpt>
      <trkpt lat="40.329372547566890716552734375" lon="-1.06243816204369068145751953125">
        <ele>958.4000244140625</ele>
        <time>2022-05-06T07:53:42.000Z</time>
      </trkpt>
      <trkpt lat="40.32943247817456722259521484375" lon="-1.062379069626331329345703125">
        <ele>958.4000244140625</ele>
        <time>2022-05-06T07:53:44.000Z</time>
      </trkpt>
      <trkpt lat="40.32949131913483142852783203125" lon="-1.06232039630413055419921875">
        <ele>958.4000244140625</ele>
        <time>2022-05-06T07:53:46.000Z</time>
      </trkpt>
      <trkpt lat="40.329546891152858734130859375" lon="-1.062261722981929779052734375">
        <ele>958.4000244140625</ele>
        <time>2022-05-06T07:53:48.000Z</time>
      </trkpt>
      <trkpt lat="40.3295981884002685546875" lon="-1.06220212765038013458251953125">
        <ele>958.5999755859375</ele>
        <time>2022-05-06T07:53:50.000Z</time>
      </trkpt>
      <trkpt lat="40.3296449594199657440185546875" lon="-1.06214194558560848236083984375">
        <ele>958.79998779296875</ele>
        <time>2022-05-06T07:53:52.000Z</time>
      </trkpt>
      <trkpt lat="40.32968326471745967864990234375" lon="-1.06208545155823230743408203125">
        <ele>958.79998779296875</ele>
        <time>2022-05-06T07:53:54.000Z</time>
      </trkpt>
      <trkpt lat="40.3297126851975917816162109375" lon="-1.06203339993953704833984375">
        <ele>958.79998779296875</ele>
        <time>2022-05-06T07:53:56.000Z</time>
      </trkpt>
      <trkpt lat="40.3297304548323154449462890625" lon="-1.0619913227856159210205078125">
        <ele>958.79998779296875</ele>
        <time>2022-05-06T07:53:58.000Z</time>
      </trkpt>
      <trkpt lat="40.32975065521895885467529296875" lon="-1.061953604221343994140625">
        <ele>958.79998779296875</ele>
        <time>2022-05-06T07:54:00.000Z</time>
      </trkpt>
      <trkpt lat="40.3297700174152851104736328125" lon="-1.0619182325899600982666015625">
        <ele>958.79998779296875</ele>
        <time>2022-05-06T07:54:02.000Z</time>
      </trkpt>
      <trkpt lat="40.32977546565234661102294921875" lon="-1.06190289370715618133544921875">
        <ele>958.79998779296875</ele>
        <time>2022-05-06T07:54:03.000Z</time>
      </trkpt>
      <trkpt lat="40.32978066243231296539306640625" lon="-1.0618920810520648956298828125">
        <ele>958.79998779296875</ele>
        <time>2022-05-06T07:54:04.000Z</time>
      </trkpt>
      <trkpt lat="40.32978351227939128875732421875" lon="-1.06189191341400146484375">
        <ele>958.79998779296875</ele>
        <time>2022-05-06T07:54:06.000Z</time>
      </trkpt>
      <trkpt lat="40.32981620170176029205322265625" lon="-1.061831898987293243408203125">
        <ele>958.79998779296875</ele>
        <time>2022-05-06T07:55:26.000Z</time>
      </trkpt>
      <trkpt lat="40.3298377431929111480712890625" lon="-1.0617821104824542999267578125">
        <ele>958.79998779296875</ele>
        <time>2022-05-06T07:55:28.000Z</time>
      </trkpt>
      <trkpt lat="40.329855345189571380615234375" lon="-1.06172000057995319366455078125">
        <ele>958.79998779296875</ele>
        <time>2022-05-06T07:55:30.000Z</time>
      </trkpt>
      <trkpt lat="40.32987453974783420562744140625" lon="-1.06165043078362941741943359375">
        <ele>958.5999755859375</ele>
        <time>2022-05-06T07:55:32.000Z</time>
      </trkpt>
      <trkpt lat="40.32989247702062129974365234375" lon="-1.06157532893121242523193359375">
        <ele>958.5999755859375</ele>
        <time>2022-05-06T07:55:34.000Z</time>
      </trkpt>
      <trkpt lat="40.32990806736052036285400390625" lon="-1.061502993106842041015625">
        <ele>958.4000244140625</ele>
        <time>2022-05-06T07:55:36.000Z</time>
      </trkpt>
      <trkpt lat="40.32992701046168804168701171875" lon="-1.0614357702434062957763671875">
        <ele>958.4000244140625</ele>
        <time>2022-05-06T07:55:38.000Z</time>
      </trkpt>
      <trkpt lat="40.32994494773447513580322265625" lon="-1.0613687150180339813232421875">
        <ele>958.4000244140625</ele>
        <time>2022-05-06T07:55:40.000Z</time>
      </trkpt>
      <trkpt lat="40.32995718531310558319091796875" lon="-1.0613030008971691131591796875">
        <ele>958.5999755859375</ele>
        <time>2022-05-06T07:55:42.000Z</time>
      </trkpt>
      <trkpt lat="40.3299681656062602996826171875" lon="-1.06123636476695537567138671875">
        <ele>958.5999755859375</ele>
        <time>2022-05-06T07:55:44.000Z</time>
      </trkpt>
      <trkpt lat="40.3299792297184467315673828125" lon="-1.06116972863674163818359375">
        <ele>958.5999755859375</ele>
        <time>2022-05-06T07:55:46.000Z</time>
      </trkpt>
      <trkpt lat="40.32998853363096714019775390625" lon="-1.061106361448764801025390625">
        <ele>958.5999755859375</ele>
        <time>2022-05-06T07:55:48.000Z</time>
      </trkpt>
      <trkpt lat="40.3300013579428195953369140625" lon="-1.061042658984661102294921875">
        <ele>958.79998779296875</ele>
        <time>2022-05-06T07:55:50.000Z</time>
      </trkpt>
      <trkpt lat="40.3300171159207820892333984375" lon="-1.0609717480838298797607421875">
        <ele>958.79998779296875</ele>
        <time>2022-05-06T07:55:52.000Z</time>
      </trkpt>
      <trkpt lat="40.3300328738987445831298828125" lon="-1.0608993284404277801513671875">
        <ele>958.79998779296875</ele>
        <time>2022-05-06T07:55:54.000Z</time>
      </trkpt>
      <trkpt lat="40.33005005680024623870849609375" lon="-1.0608310997486114501953125">
        <ele>959</ele>
        <time>2022-05-06T07:55:56.000Z</time>
      </trkpt>
      <trkpt lat="40.3300660662353038787841796875" lon="-1.06076479889452457427978515625">
        <ele>959</ele>
        <time>2022-05-06T07:55:58.000Z</time>
      </trkpt>
      <trkpt lat="40.33007235266268253326416015625" lon="-1.060730516910552978515625">
        <ele>959</ele>
        <time>2022-05-06T07:55:59.000Z</time>
      </trkpt>
      <trkpt lat="40.3300778008997440338134765625" lon="-1.0606958158314228057861328125">
        <ele>959.20001220703125</ele>
        <time>2022-05-06T07:56:00.000Z</time>
      </trkpt>
      <trkpt lat="40.33008928410708904266357421875" lon="-1.0606274195015430450439453125">
        <ele>959.20001220703125</ele>
        <time>2022-05-06T07:56:02.000Z</time>
      </trkpt>
      <trkpt lat="40.3300995938479900360107421875" lon="-1.0605610348284244537353515625">
        <ele>959.20001220703125</ele>
        <time>2022-05-06T07:56:04.000Z</time>
      </trkpt>
      <trkpt lat="40.330110825598239898681640625" lon="-1.06049691326916217803955078125">
        <ele>959.4000244140625</ele>
        <time>2022-05-06T07:56:06.000Z</time>
      </trkpt>
      <trkpt lat="40.330124236643314361572265625" lon="-1.06043421663343906402587890625">
        <ele>959.5999755859375</ele>
        <time>2022-05-06T07:56:08.000Z</time>
      </trkpt>
      <trkpt lat="40.3301287628710269927978515625" lon="-1.0604017786681652069091796875">
        <ele>959.5999755859375</ele>
        <time>2022-05-06T07:56:09.000Z</time>
      </trkpt>
      <trkpt lat="40.3301327861845493316650390625" lon="-1.0603697597980499267578125">
        <ele>959.5999755859375</ele>
        <time>2022-05-06T07:56:10.000Z</time>
      </trkpt>
      <trkpt lat="40.33014527522027492523193359375" lon="-1.060304380953311920166015625">
        <ele>959.79998779296875</ele>
        <time>2022-05-06T07:56:12.000Z</time>
      </trkpt>
      <trkpt lat="40.3301606141030788421630859375" lon="-1.0602410137653350830078125">
        <ele>960</ele>
        <time>2022-05-06T07:56:14.000Z</time>
      </trkpt>
      <trkpt lat="40.33017260022461414337158203125" lon="-1.06017320416867733001708984375">
        <ele>960</ele>
        <time>2022-05-06T07:56:16.000Z</time>
      </trkpt>
      <trkpt lat="40.3301775455474853515625" lon="-1.0601395927369594573974609375">
        <ele>960.20001220703125</ele>
        <time>2022-05-06T07:56:17.000Z</time>
      </trkpt>
      <trkpt lat="40.330182574689388275146484375" lon="-1.0601067356765270233154296875">
        <ele>960.20001220703125</ele>
        <time>2022-05-06T07:56:18.000Z</time>
      </trkpt>
      <trkpt lat="40.33019657246768474578857421875" lon="-1.06003926135599613189697265625">
        <ele>960.4000244140625</ele>
        <time>2022-05-06T07:56:20.000Z</time>
      </trkpt>
      <trkpt lat="40.33021098934113979339599609375" lon="-1.05996944010257720947265625">
        <ele>960.5999755859375</ele>
        <time>2022-05-06T07:56:22.000Z</time>
      </trkpt>
      <trkpt lat="40.33022808842360973358154296875" lon="-1.05989861302077770233154296875">
        <ele>960.79998779296875</ele>
        <time>2022-05-06T07:56:24.000Z</time>
      </trkpt>
      <trkpt lat="40.33023714087903499603271484375" lon="-1.0598629899322986602783203125">
        <ele>961</ele>
        <time>2022-05-06T07:56:25.000Z</time>
      </trkpt>
      <trkpt lat="40.33024602569639682769775390625" lon="-1.05982887558639049530029296875">
        <ele>961</ele>
        <time>2022-05-06T07:56:26.000Z</time>
      </trkpt>
      <trkpt lat="40.3302601911127567291259765625" lon="-1.05975494720041751861572265625">
        <ele>961.20001220703125</ele>
        <time>2022-05-06T07:56:28.000Z</time>
      </trkpt>
      <trkpt lat="40.330272428691387176513671875" lon="-1.05967448092997074127197265625">
        <ele>961.20001220703125</ele>
        <time>2022-05-06T07:56:30.000Z</time>
      </trkpt>
      <trkpt lat="40.3302848339080810546875" lon="-1.0595967806875705718994140625">
        <ele>961.20001220703125</ele>
        <time>2022-05-06T07:56:32.000Z</time>
      </trkpt>
      <trkpt lat="40.33029044978320598602294921875" lon="-1.05955914594233036041259765625">
        <ele>961.20001220703125</ele>
        <time>2022-05-06T07:56:33.000Z</time>
      </trkpt>
      <trkpt lat="40.3302977420389652252197265625" lon="-1.05952058918774127960205078125">
        <ele>961</ele>
        <time>2022-05-06T07:56:34.000Z</time>
      </trkpt>
      <trkpt lat="40.330310650169849395751953125" lon="-1.05944498442113399505615234375">
        <ele>961</ele>
        <time>2022-05-06T07:56:36.000Z</time>
      </trkpt>
      <trkpt lat="40.33032733015716075897216796875" lon="-1.05937457643449306488037109375">
        <ele>961</ele>
        <time>2022-05-06T07:56:38.000Z</time>
      </trkpt>
      <trkpt lat="40.3303366340696811676025390625" lon="-1.05930986814200878143310546875">
        <ele>961</ele>
        <time>2022-05-06T07:56:40.000Z</time>
      </trkpt>
      <trkpt lat="40.3303476981818675994873046875" lon="-1.059242226183414459228515625">
        <ele>961</ele>
        <time>2022-05-06T07:56:42.000Z</time>
      </trkpt>
      <trkpt lat="40.33035926520824432373046875" lon="-1.05916972272098064422607421875">
        <ele>960.79998779296875</ele>
        <time>2022-05-06T07:56:44.000Z</time>
      </trkpt>
      <trkpt lat="40.33037091605365276336669921875" lon="-1.05909545905888080596923828125">
        <ele>960.79998779296875</ele>
        <time>2022-05-06T07:56:46.000Z</time>
      </trkpt>
      <trkpt lat="40.33038734458386898040771484375" lon="-1.05902069248259067535400390625">
        <ele>960.79998779296875</ele>
        <time>2022-05-06T07:56:48.000Z</time>
      </trkpt>
      <trkpt lat="40.33039673231542110443115234375" lon="-1.0589812137186527252197265625">
        <ele>960.79998779296875</ele>
        <time>2022-05-06T07:56:49.000Z</time>
      </trkpt>
      <trkpt lat="40.33040528185665607452392578125" lon="-1.0589419864118099212646484375">
        <ele>960.79998779296875</ele>
        <time>2022-05-06T07:56:50.000Z</time>
      </trkpt>
      <trkpt lat="40.33042020164430141448974609375" lon="-1.058867387473583221435546875">
        <ele>961</ele>
        <time>2022-05-06T07:56:52.000Z</time>
      </trkpt>
      <trkpt lat="40.330434702336788177490234375" lon="-1.0587984882295131683349609375">
        <ele>961</ele>
        <time>2022-05-06T07:56:54.000Z</time>
      </trkpt>
      <trkpt lat="40.33044937066733837127685546875" lon="-1.0587284155189990997314453125">
        <ele>961.20001220703125</ele>
        <time>2022-05-06T07:56:56.000Z</time>
      </trkpt>
      <trkpt lat="40.33045758493244647979736328125" lon="-1.05869673192501068115234375">
        <ele>961.20001220703125</ele>
        <time>2022-05-06T07:56:57.000Z</time>
      </trkpt>
      <trkpt lat="40.33046253025531768798828125" lon="-1.058664210140705108642578125">
        <ele>961.20001220703125</ele>
        <time>2022-05-06T07:56:58.000Z</time>
      </trkpt>
      <trkpt lat="40.330474935472011566162109375" lon="-1.05860159732401371002197265625">
        <ele>961.4000244140625</ele>
        <time>2022-05-06T07:57:00.000Z</time>
      </trkpt>
      <trkpt lat="40.33048138953745365142822265625" lon="-1.0585684888064861297607421875">
        <ele>961.5999755859375</ele>
        <time>2022-05-06T07:57:01.000Z</time>
      </trkpt>
      <trkpt lat="40.33048667013645172119140625" lon="-1.05853554792702198028564453125">
        <ele>961.5999755859375</ele>
        <time>2022-05-06T07:57:02.000Z</time>
      </trkpt>
      <trkpt lat="40.33049798570573329925537109375" lon="-1.0584692470729351043701171875">
        <ele>961.79998779296875</ele>
        <time>2022-05-06T07:57:04.000Z</time>
      </trkpt>
      <trkpt lat="40.3305032663047313690185546875" lon="-1.0584367252886295318603515625">
        <ele>961.79998779296875</ele>
        <time>2022-05-06T07:57:05.000Z</time>
      </trkpt>
      <trkpt lat="40.33050854690372943878173828125" lon="-1.05840428732335567474365234375">
        <ele>962</ele>
        <time>2022-05-06T07:57:06.000Z</time>
      </trkpt>
      <trkpt lat="40.330523550510406494140625" lon="-1.0583418421447277069091796875">
        <ele>962.20001220703125</ele>
        <time>2022-05-06T07:57:08.000Z</time>
      </trkpt>
      <trkpt lat="40.3305300883948802947998046875" lon="-1.05830873362720012664794921875">
        <ele>962.20001220703125</ele>
        <time>2022-05-06T07:57:09.000Z</time>
      </trkpt>
      <trkpt lat="40.33053570427000522613525390625" lon="-1.0582749545574188232421875">
        <ele>962.4000244140625</ele>
        <time>2022-05-06T07:57:10.000Z</time>
      </trkpt>
      <trkpt lat="40.330542661249637603759765625" lon="-1.05820932425558567047119140625">
        <ele>962.4000244140625</ele>
        <time>2022-05-06T07:57:12.000Z</time>
      </trkpt>
      <trkpt lat="40.33055012114346027374267578125" lon="-1.0581463761627674102783203125">
        <ele>962.5999755859375</ele>
        <time>2022-05-06T07:57:14.000Z</time>
      </trkpt>
      <trkpt lat="40.33055615611374378204345703125" lon="-1.0580843500792980194091796875">
        <ele>962.5999755859375</ele>
        <time>2022-05-06T07:57:16.000Z</time>
      </trkpt>
      <trkpt lat="40.33055816777050495147705078125" lon="-1.0580524988472461700439453125">
        <ele>962.5999755859375</ele>
        <time>2022-05-06T07:57:17.000Z</time>
      </trkpt>
      <trkpt lat="40.33055984415113925933837890625" lon="-1.05802039615809917449951171875">
        <ele>962.5999755859375</ele>
        <time>2022-05-06T07:57:18.000Z</time>
      </trkpt>
      <trkpt lat="40.3305659629404544830322265625" lon="-1.05795535258948802947998046875">
        <ele>962.79998779296875</ele>
        <time>2022-05-06T07:57:20.000Z</time>
      </trkpt>
      <trkpt lat="40.3305637836456298828125" lon="-1.05788947083055973052978515625">
        <ele>963</ele>
        <time>2022-05-06T07:57:22.000Z</time>
      </trkpt>
      <trkpt lat="40.33056235872209072113037109375" lon="-1.05785585939884185791015625">
        <ele>963.20001220703125</ele>
        <time>2022-05-06T07:57:23.000Z</time>
      </trkpt>
      <trkpt lat="40.33056051470339298248291015625" lon="-1.057824678719043731689453125">
        <ele>963.4000244140625</ele>
        <time>2022-05-06T07:57:24.000Z</time>
      </trkpt>
      <trkpt lat="40.33055498264729976654052734375" lon="-1.0577638261020183563232421875">
        <ele>963.5999755859375</ele>
        <time>2022-05-06T07:57:26.000Z</time>
      </trkpt>
      <trkpt lat="40.3305495344102382659912109375" lon="-1.057703308761119842529296875">
        <ele>964</ele>
        <time>2022-05-06T07:57:28.000Z</time>
      </trkpt>
      <trkpt lat="40.3305463492870330810546875" lon="-1.0576741397380828857421875">
        <ele>964</ele>
        <time>2022-05-06T07:57:29.000Z</time>
      </trkpt>
      <trkpt lat="40.3305414877831935882568359375" lon="-1.0576464794576168060302734375">
        <ele>964.20001220703125</ele>
        <time>2022-05-06T07:57:30.000Z</time>
      </trkpt>
      <trkpt lat="40.3305307589471340179443359375" lon="-1.05758965015411376953125">
        <ele>964.4000244140625</ele>
        <time>2022-05-06T07:57:32.000Z</time>
      </trkpt>
      <trkpt lat="40.330521203577518463134765625" lon="-1.05752770788967609405517578125">
        <ele>964.79998779296875</ele>
        <time>2022-05-06T07:57:34.000Z</time>
      </trkpt>
      <trkpt lat="40.33050955273211002349853515625" lon="-1.0574728064239025115966796875">
        <ele>965</ele>
        <time>2022-05-06T07:57:36.000Z</time>
      </trkpt>
      <trkpt lat="40.330502092838287353515625" lon="-1.05744539760053157806396484375">
        <ele>965.20001220703125</ele>
        <time>2022-05-06T07:57:37.000Z</time>
      </trkpt>
      <trkpt lat="40.33049513585865497589111328125" lon="-1.0574181564152240753173828125">
        <ele>965.20001220703125</ele>
        <time>2022-05-06T07:57:38.000Z</time>
      </trkpt>
      <trkpt lat="40.3304819762706756591796875" lon="-1.0573625005781650543212890625">
        <ele>965.5999755859375</ele>
        <time>2022-05-06T07:57:40.000Z</time>
      </trkpt>
      <trkpt lat="40.330469571053981781005859375" lon="-1.05730961076915264129638671875">
        <ele>965.79998779296875</ele>
        <time>2022-05-06T07:57:42.000Z</time>
      </trkpt>
      <trkpt lat="40.33045590855181217193603515625" lon="-1.0572572238743305206298828125">
        <ele>966</ele>
        <time>2022-05-06T07:57:44.000Z</time>
      </trkpt>
      <trkpt lat="40.33044040203094482421875" lon="-1.057208441197872161865234375">
        <ele>966</ele>
        <time>2022-05-06T07:57:46.000Z</time>
      </trkpt>
      <trkpt lat="40.33043277449905872344970703125" lon="-1.05718270875513553619384765625">
        <ele>966.20001220703125</ele>
        <time>2022-05-06T07:57:47.000Z</time>
      </trkpt>
      <trkpt lat="40.3304234705865383148193359375" lon="-1.0571576468646526336669921875">
        <ele>966.20001220703125</ele>
        <time>2022-05-06T07:57:48.000Z</time>
      </trkpt>
      <trkpt lat="40.33040176145732402801513671875" lon="-1.05710626579821109771728515625">
        <ele>966.4000244140625</ele>
        <time>2022-05-06T07:57:50.000Z</time>
      </trkpt>
      <trkpt lat="40.33038399182260036468505859375" lon="-1.057051531970500946044921875">
        <ele>966.5999755859375</ele>
        <time>2022-05-06T07:57:52.000Z</time>
      </trkpt>
      <trkpt lat="40.330375693738460540771484375" lon="-1.05702311731874942779541015625">
        <ele>966.5999755859375</ele>
        <time>2022-05-06T07:57:53.000Z</time>
      </trkpt>
      <trkpt lat="40.33036756329238414764404296875" lon="-1.05699294246733188629150390625">
        <ele>966.79998779296875</ele>
        <time>2022-05-06T07:57:54.000Z</time>
      </trkpt>
      <trkpt lat="40.33034794963896274566650390625" lon="-1.05693561024963855743408203125">
        <ele>967</ele>
        <time>2022-05-06T07:57:56.000Z</time>
      </trkpt>
      <trkpt lat="40.33032976090908050537109375" lon="-1.05687626637518405914306640625">
        <ele>967.20001220703125</ele>
        <time>2022-05-06T07:57:58.000Z</time>
      </trkpt>
      <trkpt lat="40.33031693659722805023193359375" lon="-1.0568211972713470458984375">
        <ele>967.4000244140625</ele>
        <time>2022-05-06T07:58:00.000Z</time>
      </trkpt>
      <trkpt lat="40.3303064592182636260986328125" lon="-1.05679596774280071258544921875">
        <ele>967.4000244140625</ele>
        <time>2022-05-06T07:58:01.000Z</time>
      </trkpt>
      <trkpt lat="40.33029598183929920196533203125" lon="-1.05676763691008090972900390625">
        <ele>967.5999755859375</ele>
        <time>2022-05-06T07:58:02.000Z</time>
      </trkpt>
      <trkpt lat="40.33027485944330692291259765625" lon="-1.05670829303562641143798828125">
        <ele>967.5999755859375</ele>
        <time>2022-05-06T07:58:04.000Z</time>
      </trkpt>
      <trkpt lat="40.33024971373379230499267578125" lon="-1.056647188961505889892578125">
        <ele>967.79998779296875</ele>
        <time>2022-05-06T07:58:06.000Z</time>
      </trkpt>
      <trkpt lat="40.33023831434547901153564453125" lon="-1.0566168464720249176025390625">
        <ele>968</ele>
        <time>2022-05-06T07:58:07.000Z</time>
      </trkpt>
      <trkpt lat="40.33022783696651458740234375" lon="-1.056586168706417083740234375">
        <ele>968.20001220703125</ele>
        <time>2022-05-06T07:58:08.000Z</time>
      </trkpt>
      <trkpt lat="40.330207385122776031494140625" lon="-1.05652146041393280029296875">
        <ele>968.5999755859375</ele>
        <time>2022-05-06T07:58:10.000Z</time>
      </trkpt>
      <trkpt lat="40.33018953166902065277099609375" lon="-1.05645180679857730865478515625">
        <ele>969.20001220703125</ele>
        <time>2022-05-06T07:58:12.000Z</time>
      </trkpt>
      <trkpt lat="40.33017595298588275909423828125" lon="-1.05637737549841403961181640625">
        <ele>969.20001220703125</ele>
        <time>2022-05-06T07:58:14.000Z</time>
      </trkpt>
      <trkpt lat="40.330169163644313812255859375" lon="-1.05633680708706378936767578125">
        <ele>969.20001220703125</ele>
        <time>2022-05-06T07:58:15.000Z</time>
      </trkpt>
      <trkpt lat="40.33016212284564971923828125" lon="-1.0562954843044281005859375">
        <ele>969.20001220703125</ele>
        <time>2022-05-06T07:58:16.000Z</time>
      </trkpt>
      <trkpt lat="40.33015265129506587982177734375" lon="-1.05620361864566802978515625">
        <ele>969.20001220703125</ele>
        <time>2022-05-06T07:58:18.000Z</time>
      </trkpt>
      <trkpt lat="40.3301440179347991943359375" lon="-1.05610781349241733551025390625">
        <ele>969.20001220703125</ele>
        <time>2022-05-06T07:58:20.000Z</time>
      </trkpt>
      <trkpt lat="40.33014074899256229400634765625" lon="-1.05601452291011810302734375">
        <ele>969.20001220703125</ele>
        <time>2022-05-06T07:58:22.000Z</time>
      </trkpt>
      <trkpt lat="40.330139659345149993896484375" lon="-1.0559660755097866058349609375">
        <ele>969.20001220703125</ele>
        <time>2022-05-06T07:58:23.000Z</time>
      </trkpt>
      <trkpt lat="40.33014041371643543243408203125" lon="-1.05591737665235996246337890625">
        <ele>969.20001220703125</ele>
        <time>2022-05-06T07:58:24.000Z</time>
      </trkpt>
      <trkpt lat="40.3301448561251163482666015625" lon="-1.0558219067752361297607421875">
        <ele>969.4000244140625</ele>
        <time>2022-05-06T07:58:26.000Z</time>
      </trkpt>
      <trkpt lat="40.33015407621860504150390625" lon="-1.05573020875453948974609375">
        <ele>969.5999755859375</ele>
        <time>2022-05-06T07:58:28.000Z</time>
      </trkpt>
      <trkpt lat="40.3301663137972354888916015625" lon="-1.05563926510512828826904296875">
        <ele>969.79998779296875</ele>
        <time>2022-05-06T07:58:30.000Z</time>
      </trkpt>
      <trkpt lat="40.3301723487675189971923828125" lon="-1.055595763027667999267578125">
        <ele>970</ele>
        <time>2022-05-06T07:58:31.000Z</time>
      </trkpt>
      <trkpt lat="40.330181904137134552001953125" lon="-1.0555516742169857025146484375">
        <ele>970.20001220703125</ele>
        <time>2022-05-06T07:58:32.000Z</time>
      </trkpt>
      <trkpt lat="40.330201685428619384765625" lon="-1.0554641671478748321533203125">
        <ele>970.4000244140625</ele>
        <time>2022-05-06T07:58:34.000Z</time>
      </trkpt>
      <trkpt lat="40.330223143100738525390625" lon="-1.05538152158260345458984375">
        <ele>970.79998779296875</ele>
        <time>2022-05-06T07:58:36.000Z</time>
      </trkpt>
      <trkpt lat="40.33024300821125507354736328125" lon="-1.0553065873682498931884765625">
        <ele>971</ele>
        <time>2022-05-06T07:58:38.000Z</time>
      </trkpt>
      <trkpt lat="40.3302551619708538055419921875" lon="-1.055269204080104827880859375">
        <ele>971.20001220703125</ele>
        <time>2022-05-06T07:58:39.000Z</time>
      </trkpt>
      <trkpt lat="40.3302692435681819915771484375" lon="-1.05522955767810344696044921875">
        <ele>971.4000244140625</ele>
        <time>2022-05-06T07:58:40.000Z</time>
      </trkpt>
      <trkpt lat="40.3303004242479801177978515625" lon="-1.05514992959797382354736328125">
        <ele>971.5999755859375</ele>
        <time>2022-05-06T07:58:42.000Z</time>
      </trkpt>
      <trkpt lat="40.33033101819455623626708984375" lon="-1.05506845749914646148681640625">
        <ele>971.79998779296875</ele>
        <time>2022-05-06T07:58:44.000Z</time>
      </trkpt>
      <trkpt lat="40.3303456865251064300537109375" lon="-1.055027805268764495849609375">
        <ele>972</ele>
        <time>2022-05-06T07:58:45.000Z</time>
      </trkpt>
      <trkpt lat="40.33035884611308574676513671875" lon="-1.05498614721000194549560546875">
        <ele>972.20001220703125</ele>
        <time>2022-05-06T07:58:46.000Z</time>
      </trkpt>
      <trkpt lat="40.33037192188203334808349609375" lon="-1.05494432151317596435546875">
        <ele>972.4000244140625</ele>
        <time>2022-05-06T07:58:47.000Z</time>
      </trkpt>
      <trkpt lat="40.3303839080035686492919921875" lon="-1.05490484274923801422119140625">
        <ele>972.4000244140625</ele>
        <time>2022-05-06T07:58:48.000Z</time>
      </trkpt>
      <trkpt lat="40.3304063715040683746337890625" lon="-1.054823286831378936767578125">
        <ele>972.79998779296875</ele>
        <time>2022-05-06T07:58:50.000Z</time>
      </trkpt>
      <trkpt lat="40.3304264880716800689697265625" lon="-1.0547359474003314971923828125">
        <ele>973</ele>
        <time>2022-05-06T07:58:52.000Z</time>
      </trkpt>
      <trkpt lat="40.330452136695384979248046875" lon="-1.054642237722873687744140625">
        <ele>973.4000244140625</ele>
        <time>2022-05-06T07:58:54.000Z</time>
      </trkpt>
      <trkpt lat="40.33047853969037532806396484375" lon="-1.05454333126544952392578125">
        <ele>973.79998779296875</ele>
        <time>2022-05-06T07:58:56.000Z</time>
      </trkpt>
      <trkpt lat="40.3305039368569850921630859375" lon="-1.05444677174091339111328125">
        <ele>974</ele>
        <time>2022-05-06T07:58:58.000Z</time>
      </trkpt>
      <trkpt lat="40.33052028156816959381103515625" lon="-1.0543540678918361663818359375">
        <ele>974.20001220703125</ele>
        <time>2022-05-06T07:59:00.000Z</time>
      </trkpt>
      <trkpt lat="40.33053184859454631805419921875" lon="-1.0542672313749790191650390625">
        <ele>974.5999755859375</ele>
        <time>2022-05-06T07:59:02.000Z</time>
      </trkpt>
      <trkpt lat="40.33053754828870296478271484375" lon="-1.05417997576296329498291015625">
        <ele>974.79998779296875</ele>
        <time>2022-05-06T07:59:04.000Z</time>
      </trkpt>
      <trkpt lat="40.3305394761264324188232421875" lon="-1.05409515090286731719970703125">
        <ele>975.20001220703125</ele>
        <time>2022-05-06T07:59:06.000Z</time>
      </trkpt>
      <trkpt lat="40.33054140396416187286376953125" lon="-1.054052151739597320556640625">
        <ele>975.20001220703125</ele>
        <time>2022-05-06T07:59:07.000Z</time>
      </trkpt>
      <trkpt lat="40.3305436670780181884765625" lon="-1.0540090687572956085205078125">
        <ele>975.4000244140625</ele>
        <time>2022-05-06T07:59:08.000Z</time>
      </trkpt>
      <trkpt lat="40.330546684563159942626953125" lon="-1.0539654828608036041259765625">
        <ele>975.5999755859375</ele>
        <time>2022-05-06T07:59:09.000Z</time>
      </trkpt>
      <trkpt lat="40.33054693602025508880615234375" lon="-1.0539205558598041534423828125">
        <ele>975.79998779296875</ele>
        <time>2022-05-06T07:59:10.000Z</time>
      </trkpt>
      <trkpt lat="40.3305463492870330810546875" lon="-1.05383480899035930633544921875">
        <ele>977.20001220703125</ele>
        <time>2022-05-06T07:59:12.000Z</time>
      </trkpt>
      <trkpt lat="40.330535955727100372314453125" lon="-1.05375585146248340606689453125">
        <ele>977.20001220703125</ele>
        <time>2022-05-06T07:59:14.000Z</time>
      </trkpt>
      <trkpt lat="40.33052531071007251739501953125" lon="-1.05367789976298809051513671875">
        <ele>977.4000244140625</ele>
        <time>2022-05-06T07:59:16.000Z</time>
      </trkpt>
      <trkpt lat="40.33051013946533203125" lon="-1.05360313318669795989990234375">
        <ele>977.5999755859375</ele>
        <time>2022-05-06T07:59:18.000Z</time>
      </trkpt>
      <trkpt lat="40.33049530349671840667724609375" lon="-1.05352585203945636749267578125">
        <ele>977.5999755859375</ele>
        <time>2022-05-06T07:59:20.000Z</time>
      </trkpt>
      <trkpt lat="40.3304744325578212738037109375" lon="-1.05344857089221477508544921875">
        <ele>977.79998779296875</ele>
        <time>2022-05-06T07:59:22.000Z</time>
      </trkpt>
      <trkpt lat="40.33046412281692028045654296875" lon="-1.053409092128276824951171875">
        <ele>977.79998779296875</ele>
        <time>2022-05-06T07:59:23.000Z</time>
      </trkpt>
      <trkpt lat="40.33045289106667041778564453125" lon="-1.05337011627852916717529296875">
        <ele>978</ele>
        <time>2022-05-06T07:59:24.000Z</time>
      </trkpt>
      <trkpt lat="40.3304315172135829925537109375" lon="-1.0532914102077484130859375">
        <ele>978</ele>
        <time>2022-05-06T07:59:26.000Z</time>
      </trkpt>
      <trkpt lat="40.3304100595414638519287109375" lon="-1.05321588926017284393310546875">
        <ele>978.20001220703125</ele>
        <time>2022-05-06T07:59:28.000Z</time>
      </trkpt>
      <trkpt lat="40.33038566820323467254638671875" lon="-1.05314279906451702117919921875">
        <ele>978.4000244140625</ele>
        <time>2022-05-06T07:59:30.000Z</time>
      </trkpt>
      <trkpt lat="40.33036404289305210113525390625" lon="-1.05307205580174922943115234375">
        <ele>978.4000244140625</ele>
        <time>2022-05-06T07:59:32.000Z</time>
      </trkpt>
      <trkpt lat="40.33034384250640869140625" lon="-1.05300298891961574554443359375">
        <ele>978.79998779296875</ele>
        <time>2022-05-06T07:59:34.000Z</time>
      </trkpt>
      <trkpt lat="40.33033018000423908233642578125" lon="-1.0529281385242938995361328125">
        <ele>979.4000244140625</ele>
        <time>2022-05-06T07:59:36.000Z</time>
      </trkpt>
      <trkpt lat="40.33032313920557498931884765625" lon="-1.0528882406651973724365234375">
        <ele>979.5999755859375</ele>
        <time>2022-05-06T07:59:37.000Z</time>
      </trkpt>
      <trkpt lat="40.3303155116736888885498046875" lon="-1.05284750461578369140625">
        <ele>979.79998779296875</ele>
        <time>2022-05-06T07:59:38.000Z</time>
      </trkpt>
      <trkpt lat="40.3303021006286144256591796875" lon="-1.05276477523148059844970703125">
        <ele>980.4000244140625</ele>
        <time>2022-05-06T07:59:40.000Z</time>
      </trkpt>
      <trkpt lat="40.33029765821993350982666015625" lon="-1.05272521264851093292236328125">
        <ele>980.5999755859375</ele>
        <time>2022-05-06T07:59:41.000Z</time>
      </trkpt>
      <trkpt lat="40.33029279671609401702880859375" lon="-1.0526864044368267059326171875">
        <ele>980.79998779296875</ele>
        <time>2022-05-06T07:59:42.000Z</time>
      </trkpt>
      <trkpt lat="40.33028458245098590850830078125" lon="-1.0526099614799022674560546875">
        <ele>981.4000244140625</ele>
        <time>2022-05-06T07:59:44.000Z</time>
      </trkpt>
      <trkpt lat="40.33027469180524349212646484375" lon="-1.052529998123645782470703125">
        <ele>981.79998779296875</ele>
        <time>2022-05-06T07:59:46.000Z</time>
      </trkpt>
      <trkpt lat="40.330269075930118560791015625" lon="-1.05244810692965984344482421875">
        <ele>982.4000244140625</ele>
        <time>2022-05-06T07:59:48.000Z</time>
      </trkpt>
      <trkpt lat="40.33026413060724735260009765625" lon="-1.052364371716976165771484375">
        <ele>982.5999755859375</ele>
        <time>2022-05-06T07:59:50.000Z</time>
      </trkpt>
      <trkpt lat="40.33025742508471012115478515625" lon="-1.0522777028381824493408203125">
        <ele>982.79998779296875</ele>
        <time>2022-05-06T07:59:52.000Z</time>
      </trkpt>
      <trkpt lat="40.33025021664798259735107421875" lon="-1.0521942190825939178466796875">
        <ele>982.79998779296875</ele>
        <time>2022-05-06T07:59:54.000Z</time>
      </trkpt>
      <trkpt lat="40.33024233765900135040283203125" lon="-1.05210813693702220916748046875">
        <ele>982.79998779296875</ele>
        <time>2022-05-06T07:59:56.000Z</time>
      </trkpt>
      <trkpt lat="40.33023630268871784210205078125" lon="-1.05202716775238513946533203125">
        <ele>982.79998779296875</ele>
        <time>2022-05-06T07:59:58.000Z</time>
      </trkpt>
      <trkpt lat="40.3302337042987346649169921875" lon="-1.05194829404354095458984375">
        <ele>982.79998779296875</ele>
        <time>2022-05-06T08:00:00.000Z</time>
      </trkpt>
      <trkpt lat="40.33023051917552947998046875" lon="-1.0519095696508884429931640625">
        <ele>982.5999755859375</ele>
        <time>2022-05-06T08:00:01.000Z</time>
      </trkpt>
      <trkpt lat="40.33022775314748287200927734375" lon="-1.05187025852501392364501953125">
        <ele>982.5999755859375</ele>
        <time>2022-05-06T08:00:02.000Z</time>
      </trkpt>
      <trkpt lat="40.3302164375782012939453125" lon="-1.05179163627326488494873046875">
        <ele>982.5999755859375</ele>
        <time>2022-05-06T08:00:04.000Z</time>
      </trkpt>
      <trkpt lat="40.33020629547536373138427734375" lon="-1.05170555412769317626953125">
        <ele>982.4000244140625</ele>
        <time>2022-05-06T08:00:06.000Z</time>
      </trkpt>
      <trkpt lat="40.33019363880157470703125" lon="-1.051666326820850372314453125">
        <ele>982.4000244140625</ele>
        <time>2022-05-06T08:00:07.000Z</time>
      </trkpt>
      <trkpt lat="40.3301817364990711212158203125" lon="-1.05162332765758037567138671875">
        <ele>982.20001220703125</ele>
        <time>2022-05-06T08:00:08.000Z</time>
      </trkpt>
      <trkpt lat="40.33015348948538303375244140625" lon="-1.05155006982386112213134765625">
        <ele>982</ele>
        <time>2022-05-06T08:00:10.000Z</time>
      </trkpt>
      <trkpt lat="40.3301250748336315155029296875" lon="-1.05147756636142730712890625">
        <ele>981.5999755859375</ele>
        <time>2022-05-06T08:00:12.000Z</time>
      </trkpt>
      <trkpt lat="40.33009565435349941253662109375" lon="-1.05141897685825824737548828125">
        <ele>981.4000244140625</ele>
        <time>2022-05-06T08:00:14.000Z</time>
      </trkpt>
      <trkpt lat="40.33005542121827602386474609375" lon="-1.05134990997612476348876953125">
        <ele>981</ele>
        <time>2022-05-06T08:00:16.000Z</time>
      </trkpt>
      <trkpt lat="40.3300340473651885986328125" lon="-1.051314957439899444580078125">
        <ele>980.79998779296875</ele>
        <time>2022-05-06T08:00:17.000Z</time>
      </trkpt>
      <trkpt lat="40.33001569099724292755126953125" lon="-1.0512829385697841644287109375">
        <ele>980.5999755859375</ele>
        <time>2022-05-06T08:00:18.000Z</time>
      </trkpt>
      <trkpt lat="40.3299815766513347625732421875" lon="-1.05123725719749927520751953125">
        <ele>980.20001220703125</ele>
        <time>2022-05-06T08:00:20.000Z</time>
      </trkpt>
      <trkpt lat="40.32993924804031848907470703125" lon="-1.0511897318065166473388671875">
        <ele>979.79998779296875</ele>
        <time>2022-05-06T08:00:22.000Z</time>
      </trkpt>
      <trkpt lat="40.329885184764862060546875" lon="-1.05114161968231201171875">
        <ele>979.4000244140625</ele>
        <time>2022-05-06T08:00:24.000Z</time>
      </trkpt>
      <trkpt lat="40.329837240278720855712890625" lon="-1.0510868020355701446533203125">
        <ele>979.20001220703125</ele>
        <time>2022-05-06T08:00:26.000Z</time>
      </trkpt>
      <trkpt lat="40.3298233263194561004638671875" lon="-1.05105645954608917236328125">
        <ele>979.20001220703125</ele>
        <time>2022-05-06T08:00:27.000Z</time>
      </trkpt>
      <trkpt lat="40.32981636933982372283935546875" lon="-1.0510200820863246917724609375">
        <ele>979.20001220703125</ele>
        <time>2022-05-06T08:00:28.000Z</time>
      </trkpt>
      <trkpt lat="40.32981745898723602294921875" lon="-1.05095059610903263092041015625">
        <ele>979.4000244140625</ele>
        <time>2022-05-06T08:00:30.000Z</time>
      </trkpt>
      <trkpt lat="40.3298194706439971923828125" lon="-1.05091807432472705841064453125">
        <ele>979.5999755859375</ele>
        <time>2022-05-06T08:00:31.000Z</time>
      </trkpt>
      <trkpt lat="40.3298221528530120849609375" lon="-1.05088806711137294769287109375">
        <ele>979.5999755859375</ele>
        <time>2022-05-06T08:00:32.000Z</time>
      </trkpt>
      <trkpt lat="40.3298243321478366851806640625" lon="-1.05083785951137542724609375">
        <ele>979.79998779296875</ele>
        <time>2022-05-06T08:00:34.000Z</time>
      </trkpt>
      <trkpt lat="40.329825170338153839111328125" lon="-1.050826124846935272216796875">
        <ele>979.79998779296875</ele>
        <time>2022-05-06T08:00:36.000Z</time>
      </trkpt>
      <trkpt lat="40.3298409283161163330078125" lon="-1.05088203214108943939208984375">
        <ele>979.79998779296875</ele>
        <time>2022-05-06T08:04:25.000Z</time>
      </trkpt>
      <trkpt lat="40.3298436105251312255859375" lon="-1.0509137995541095733642578125">
        <ele>979.79998779296875</ele>
        <time>2022-05-06T08:04:26.000Z</time>
      </trkpt>
      <trkpt lat="40.3298689238727092742919921875" lon="-1.05099015869200229644775390625">
        <ele>979.79998779296875</ele>
        <time>2022-05-06T08:04:28.000Z</time>
      </trkpt>
      <trkpt lat="40.32989331521093845367431640625" lon="-1.0510294698178768157958984375">
        <ele>979.79998779296875</ele>
        <time>2022-05-06T08:04:29.000Z</time>
      </trkpt>
      <trkpt lat="40.3299213945865631103515625" lon="-1.051069535315036773681640625">
        <ele>979.79998779296875</ele>
        <time>2022-05-06T08:04:30.000Z</time>
      </trkpt>
      <trkpt lat="40.32997378148138523101806640625" lon="-1.0511290468275547027587890625">
        <ele>980.20001220703125</ele>
        <time>2022-05-06T08:04:32.000Z</time>
      </trkpt>
      <trkpt lat="40.3300288505852222442626953125" lon="-1.05116047896444797515869140625">
        <ele>980.79998779296875</ele>
        <time>2022-05-06T08:04:34.000Z</time>
      </trkpt>
      <trkpt lat="40.33007704652845859527587890625" lon="-1.05116332881152629852294921875">
        <ele>981.20001220703125</ele>
        <time>2022-05-06T08:04:36.000Z</time>
      </trkpt>
      <trkpt lat="40.33012901432812213897705078125" lon="-1.0511716268956661224365234375">
        <ele>981.79998779296875</ele>
        <time>2022-05-06T08:04:38.000Z</time>
      </trkpt>
      <trkpt lat="40.33015407621860504150390625" lon="-1.051181852817535400390625">
        <ele>982</ele>
        <time>2022-05-06T08:04:39.000Z</time>
      </trkpt>
      <trkpt lat="40.33017779700458049774169921875" lon="-1.05119165964424610137939453125">
        <ele>982.20001220703125</ele>
        <time>2022-05-06T08:04:40.000Z</time>
      </trkpt>
      <trkpt lat="40.33020176924765110015869140625" lon="-1.051203310489654541015625">
        <ele>982.4000244140625</ele>
        <time>2022-05-06T08:04:41.000Z</time>
      </trkpt>
      <trkpt lat="40.33022440038621425628662109375" lon="-1.05121470987796783447265625">
        <ele>982.5999755859375</ele>
        <time>2022-05-06T08:04:42.000Z</time>
      </trkpt>
      <trkpt lat="40.33026999793946743011474609375" lon="-1.05123893357813358306884765625">
        <ele>983</ele>
        <time>2022-05-06T08:04:44.000Z</time>
      </trkpt>
      <trkpt lat="40.33029614947736263275146484375" lon="-1.0512450523674488067626953125">
        <ele>983.4000244140625</ele>
        <time>2022-05-06T08:04:45.000Z</time>
      </trkpt>
      <trkpt lat="40.33032330684363842010498046875" lon="-1.05124815367162227630615234375">
        <ele>983.5999755859375</ele>
        <time>2022-05-06T08:04:46.000Z</time>
      </trkpt>
      <trkpt lat="40.3303880989551544189453125" lon="-1.051233820617198944091796875">
        <ele>984.20001220703125</ele>
        <time>2022-05-06T08:04:48.000Z</time>
      </trkpt>
      <trkpt lat="40.330440066754817962646484375" lon="-1.0512073338031768798828125">
        <ele>984.5999755859375</ele>
        <time>2022-05-06T08:04:50.000Z</time>
      </trkpt>
      <trkpt lat="40.3304915316402912139892578125" lon="-1.05117238126695156097412109375">
        <ele>985.4000244140625</ele>
        <time>2022-05-06T08:04:52.000Z</time>
      </trkpt>
      <trkpt lat="40.3305401466786861419677734375" lon="-1.05112996883690357208251953125">
        <ele>986.4000244140625</ele>
        <time>2022-05-06T08:04:54.000Z</time>
      </trkpt>
      <trkpt lat="40.330590941011905670166015625" lon="-1.051078923046588897705078125">
        <ele>987.20001220703125</ele>
        <time>2022-05-06T08:04:56.000Z</time>
      </trkpt>
      <trkpt lat="40.33061197958886623382568359375" lon="-1.0510536096990108489990234375">
        <ele>987.5999755859375</ele>
        <time>2022-05-06T08:04:57.000Z</time>
      </trkpt>
      <trkpt lat="40.33063293434679508209228515625" lon="-1.0510267876088619232177734375">
        <ele>988</ele>
        <time>2022-05-06T08:04:58.000Z</time>
      </trkpt>
      <trkpt lat="40.33068071119487285614013671875" lon="-1.05097574181854724884033203125">
        <ele>989</ele>
        <time>2022-05-06T08:05:00.000Z</time>
      </trkpt>
      <trkpt lat="40.33072806894779205322265625" lon="-1.05091966688632965087890625">
        <ele>990</ele>
        <time>2022-05-06T08:05:02.000Z</time>
      </trkpt>
      <trkpt lat="40.330747179687023162841796875" lon="-1.05088756419718265533447265625">
        <ele>990.20001220703125</ele>
        <time>2022-05-06T08:05:03.000Z</time>
      </trkpt>
      <trkpt lat="40.3307636082172393798828125" lon="-1.050854288041591644287109375">
        <ele>990.5999755859375</ele>
        <time>2022-05-06T08:05:04.000Z</time>
      </trkpt>
      <trkpt lat="40.33079772256314754486083984375" lon="-1.05078756809234619140625">
        <ele>991.20001220703125</ele>
        <time>2022-05-06T08:05:06.000Z</time>
      </trkpt>
      <trkpt lat="40.330830328166484832763671875" lon="-1.050719507038593292236328125">
        <ele>991.79998779296875</ele>
        <time>2022-05-06T08:05:08.000Z</time>
      </trkpt>
      <trkpt lat="40.33086041919887065887451171875" lon="-1.0506475903093814849853515625">
        <ele>992.4000244140625</ele>
        <time>2022-05-06T08:05:10.000Z</time>
      </trkpt>
      <trkpt lat="40.33089327625930309295654296875" lon="-1.05056921951472759246826171875">
        <ele>993</ele>
        <time>2022-05-06T08:05:12.000Z</time>
      </trkpt>
      <trkpt lat="40.33092529512941837310791015625" lon="-1.05048942379653453826904296875">
        <ele>993.4000244140625</ele>
        <time>2022-05-06T08:05:14.000Z</time>
      </trkpt>
      <trkpt lat="40.33095446415245532989501953125" lon="-1.05040811933577060699462890625">
        <ele>993.79998779296875</ele>
        <time>2022-05-06T08:05:16.000Z</time>
      </trkpt>
      <trkpt lat="40.33097458072006702423095703125" lon="-1.05033016763627529144287109375">
        <ele>994</ele>
        <time>2022-05-06T08:05:18.000Z</time>
      </trkpt>
      <trkpt lat="40.33098933286964893341064453125" lon="-1.05024534277617931365966796875">
        <ele>994.20001220703125</ele>
        <time>2022-05-06T08:05:20.000Z</time>
      </trkpt>
      <trkpt lat="40.330998636782169342041015625" lon="-1.05015255510807037353515625">
        <ele>994</ele>
        <time>2022-05-06T08:05:22.000Z</time>
      </trkpt>
      <trkpt lat="40.3310041688382625579833984375" lon="-1.05004870332777500152587890625">
        <ele>994</ele>
        <time>2022-05-06T08:05:24.000Z</time>
      </trkpt>
      <trkpt lat="40.331004001200199127197265625" lon="-1.04994091205298900604248046875">
        <ele>993.5999755859375</ele>
        <time>2022-05-06T08:05:26.000Z</time>
      </trkpt>
      <trkpt lat="40.331006683409214019775390625" lon="-1.04982926510274410247802734375">
        <ele>993.4000244140625</ele>
        <time>2022-05-06T08:05:28.000Z</time>
      </trkpt>
      <trkpt lat="40.33101380802690982818603515625" lon="-1.04972113855183124542236328125">
        <ele>993.4000244140625</ele>
        <time>2022-05-06T08:05:30.000Z</time>
      </trkpt>
      <trkpt lat="40.33101900480687618255615234375" lon="-1.0496665723621845245361328125">
        <ele>993.79998779296875</ele>
        <time>2022-05-06T08:05:31.000Z</time>
      </trkpt>
      <trkpt lat="40.331022441387176513671875" lon="-1.0496139340102672576904296875">
        <ele>994</ele>
        <time>2022-05-06T08:05:32.000Z</time>
      </trkpt>
      <trkpt lat="40.3310205973684787750244140625" lon="-1.04951377026736736297607421875">
        <ele>994.20001220703125</ele>
        <time>2022-05-06T08:05:34.000Z</time>
      </trkpt>
      <trkpt lat="40.3310226090252399444580078125" lon="-1.04942240752279758453369140625">
        <ele>994.4000244140625</ele>
        <time>2022-05-06T08:05:36.000Z</time>
      </trkpt>
      <trkpt lat="40.3310184180736541748046875" lon="-1.049338169395923614501953125">
        <ele>994.4000244140625</ele>
        <time>2022-05-06T08:05:38.000Z</time>
      </trkpt>
      <trkpt lat="40.33101498149335384368896484375" lon="-1.0492541827261447906494140625">
        <ele>994.5999755859375</ele>
        <time>2022-05-06T08:05:40.000Z</time>
      </trkpt>
      <trkpt lat="40.3310108743607997894287109375" lon="-1.0491688549518585205078125">
        <ele>994.79998779296875</ele>
        <time>2022-05-06T08:05:42.000Z</time>
      </trkpt>
      <trkpt lat="40.3310045041143894195556640625" lon="-1.0491009615361690521240234375">
        <ele>995</ele>
        <time>2022-05-06T08:05:44.000Z</time>
      </trkpt>
      <trkpt lat="40.33100324682891368865966796875" lon="-1.0490429587662220001220703125">
        <ele>995.4000244140625</ele>
        <time>2022-05-06T08:05:46.000Z</time>
      </trkpt>
      <trkpt lat="40.3309964574873447418212890625" lon="-1.0490178130567073822021484375">
        <ele>995.4000244140625</ele>
        <time>2022-05-06T08:05:47.000Z</time>
      </trkpt>
      <trkpt lat="40.33098681829869747161865234375" lon="-1.04899459518492221832275390625">
        <ele>995.4000244140625</ele>
        <time>2022-05-06T08:05:48.000Z</time>
      </trkpt>
      <trkpt lat="40.330975838005542755126953125" lon="-1.0489477403461933135986328125">
        <ele>995.4000244140625</ele>
        <time>2022-05-06T08:05:50.000Z</time>
      </trkpt>
      <trkpt lat="40.33096804283559322357177734375" lon="-1.04892804287374019622802734375">
        <ele>995.4000244140625</ele>
        <time>2022-05-06T08:05:51.000Z</time>
      </trkpt>
      <trkpt lat="40.33096401952207088470458984375" lon="-1.04890340007841587066650390625">
        <ele>995.4000244140625</ele>
        <time>2022-05-06T08:05:52.000Z</time>
      </trkpt>
      <trkpt lat="40.33095203340053558349609375" lon="-1.048843301832675933837890625">
        <ele>995.4000244140625</ele>
        <time>2022-05-06T08:05:54.000Z</time>
      </trkpt>
      <trkpt lat="40.33094608224928379058837890625" lon="-1.0487730614840984344482421875">
        <ele>995.5999755859375</ele>
        <time>2022-05-06T08:05:56.000Z</time>
      </trkpt>
      <trkpt lat="40.33093669451773166656494140625" lon="-1.04869754053652286529541015625">
        <ele>995.5999755859375</ele>
        <time>2022-05-06T08:05:58.000Z</time>
      </trkpt>
      <trkpt lat="40.3309290669858455657958984375" lon="-1.04866392910480499267578125">
        <ele>995.5999755859375</ele>
        <time>2022-05-06T08:05:59.000Z</time>
      </trkpt>
      <trkpt lat="40.3309218585491180419921875" lon="-1.04862662963569164276123046875">
        <ele>995.5999755859375</ele>
        <time>2022-05-06T08:06:00.000Z</time>
      </trkpt>
      <trkpt lat="40.3309086151421070098876953125" lon="-1.0485554672777652740478515625">
        <ele>995.5999755859375</ele>
        <time>2022-05-06T08:06:02.000Z</time>
      </trkpt>
      <trkpt lat="40.33088724128901958465576171875" lon="-1.04848514311015605926513671875">
        <ele>995.5999755859375</ele>
        <time>2022-05-06T08:06:04.000Z</time>
      </trkpt>
      <trkpt lat="40.33086276613175868988037109375" lon="-1.04841473512351512908935546875">
        <ele>995.4000244140625</ele>
        <time>2022-05-06T08:06:06.000Z</time>
      </trkpt>
      <trkpt lat="40.330837704241275787353515625" lon="-1.04834935627877712249755859375">
        <ele>995.20001220703125</ele>
        <time>2022-05-06T08:06:08.000Z</time>
      </trkpt>
      <trkpt lat="40.33082420937716960906982421875" lon="-1.048288755118846893310546875">
        <ele>995.20001220703125</ele>
        <time>2022-05-06T08:06:10.000Z</time>
      </trkpt>
      <trkpt lat="40.3308137319982051849365234375" lon="-1.04822597466409206390380859375">
        <ele>995.20001220703125</ele>
        <time>2022-05-06T08:06:12.000Z</time>
      </trkpt>
      <trkpt lat="40.3308043442666530609130859375" lon="-1.048172079026699066162109375">
        <ele>995.20001220703125</ele>
        <time>2022-05-06T08:06:14.000Z</time>
      </trkpt>
      <trkpt lat="40.33079504035413265228271484375" lon="-1.04814416728913784027099609375">
        <ele>995.20001220703125</ele>
        <time>2022-05-06T08:06:15.000Z</time>
      </trkpt>
      <trkpt lat="40.33078841865062713623046875" lon="-1.04811650700867176055908203125">
        <ele>995.20001220703125</ele>
        <time>2022-05-06T08:06:16.000Z</time>
      </trkpt>
      <trkpt lat="40.330778025090694427490234375" lon="-1.04808934964239597320556640625">
        <ele>995.20001220703125</ele>
        <time>2022-05-06T08:06:17.000Z</time>
      </trkpt>
      <trkpt lat="40.3307662904262542724609375" lon="-1.04805883951485157012939453125">
        <ele>995</ele>
        <time>2022-05-06T08:06:18.000Z</time>
      </trkpt>
      <trkpt lat="40.33074357546865940093994140625" lon="-1.04798692278563976287841796875">
        <ele>994.79998779296875</ele>
        <time>2022-05-06T08:06:20.000Z</time>
      </trkpt>
      <trkpt lat="40.33072915859520435333251953125" lon="-1.04792095720767974853515625">
        <ele>994.79998779296875</ele>
        <time>2022-05-06T08:06:22.000Z</time>
      </trkpt>
      <trkpt lat="40.33071792684495449066162109375" lon="-1.04784476570785045623779296875">
        <ele>994.79998779296875</ele>
        <time>2022-05-06T08:06:24.000Z</time>
      </trkpt>
      <trkpt lat="40.3306967206299304962158203125" lon="-1.0477687418460845947265625">
        <ele>994.5999755859375</ele>
        <time>2022-05-06T08:06:26.000Z</time>
      </trkpt>
      <trkpt lat="40.33067786134779453277587890625" lon="-1.047688610851764678955078125">
        <ele>994.4000244140625</ele>
        <time>2022-05-06T08:06:28.000Z</time>
      </trkpt>
      <trkpt lat="40.33065992407500743865966796875" lon="-1.0476109944283962249755859375">
        <ele>994.4000244140625</ele>
        <time>2022-05-06T08:06:30.000Z</time>
      </trkpt>
      <trkpt lat="40.33064852468669414520263671875" lon="-1.04753094725310802459716796875">
        <ele>994.4000244140625</ele>
        <time>2022-05-06T08:06:32.000Z</time>
      </trkpt>
      <trkpt lat="40.33064450137317180633544921875" lon="-1.04744059033691883087158203125">
        <ele>994.4000244140625</ele>
        <time>2022-05-06T08:06:34.000Z</time>
      </trkpt>
      <trkpt lat="40.3306437470018863677978515625" lon="-1.04739599861204624176025390625">
        <ele>994.5999755859375</ele>
        <time>2022-05-06T08:06:35.000Z</time>
      </trkpt>
      <trkpt lat="40.33064081333577632904052734375" lon="-1.04735258035361766815185546875">
        <ele>994.5999755859375</ele>
        <time>2022-05-06T08:06:36.000Z</time>
      </trkpt>
      <trkpt lat="40.33062673173844814300537109375" lon="-1.04726859368383884429931640625">
        <ele>994.5999755859375</ele>
        <time>2022-05-06T08:06:38.000Z</time>
      </trkpt>
      <trkpt lat="40.3306196071207523345947265625" lon="-1.04718963615596294403076171875">
        <ele>994.4000244140625</ele>
        <time>2022-05-06T08:06:40.000Z</time>
      </trkpt>
      <trkpt lat="40.33061684109270572662353515625" lon="-1.04714839719235897064208984375">
        <ele>994.20001220703125</ele>
        <time>2022-05-06T08:06:41.000Z</time>
      </trkpt>
      <trkpt lat="40.33061399124562740325927734375" lon="-1.0471090860664844512939453125">
        <ele>994</ele>
        <time>2022-05-06T08:06:42.000Z</time>
      </trkpt>
      <trkpt lat="40.33060477115213871002197265625" lon="-1.04702803306281566619873046875">
        <ele>994</ele>
        <time>2022-05-06T08:06:44.000Z</time>
      </trkpt>
      <trkpt lat="40.33060334622859954833984375" lon="-1.04698779992759227752685546875">
        <ele>994</ele>
        <time>2022-05-06T08:06:45.000Z</time>
      </trkpt>
      <trkpt lat="40.3305984847247600555419921875" lon="-1.04694237001240253448486328125">
        <ele>994</ele>
        <time>2022-05-06T08:06:46.000Z</time>
      </trkpt>
      <trkpt lat="40.3305946290493011474609375" lon="-1.04685905389487743377685546875">
        <ele>994</ele>
        <time>2022-05-06T08:06:48.000Z</time>
      </trkpt>
      <trkpt lat="40.33059152774512767791748046875" lon="-1.04677833616733551025390625">
        <ele>994.20001220703125</ele>
        <time>2022-05-06T08:06:50.000Z</time>
      </trkpt>
      <trkpt lat="40.33058247528970241546630859375" lon="-1.046700216829776763916015625">
        <ele>994.20001220703125</ele>
        <time>2022-05-06T08:06:52.000Z</time>
      </trkpt>
      <trkpt lat="40.3305844031274318695068359375" lon="-1.04666140861809253692626953125">
        <ele>994.20001220703125</ele>
        <time>2022-05-06T08:06:53.000Z</time>
      </trkpt>
      <trkpt lat="40.3305839002132415771484375" lon="-1.0466179065406322479248046875">
        <ele>994.20001220703125</ele>
        <time>2022-05-06T08:06:54.000Z</time>
      </trkpt>
      <trkpt lat="40.33058415167033672332763671875" lon="-1.04653702117502689361572265625">
        <ele>994.4000244140625</ele>
        <time>2022-05-06T08:06:56.000Z</time>
      </trkpt>
      <trkpt lat="40.3305911086499691009521484375" lon="-1.0464626736938953399658203125">
        <ele>994.5999755859375</ele>
        <time>2022-05-06T08:06:58.000Z</time>
      </trkpt>
      <trkpt lat="40.33060066401958465576171875" lon="-1.04642252437770366668701171875">
        <ele>994.5999755859375</ele>
        <time>2022-05-06T08:06:59.000Z</time>
      </trkpt>
      <trkpt lat="40.33060711808502674102783203125" lon="-1.04638547636568546295166015625">
        <ele>994.79998779296875</ele>
        <time>2022-05-06T08:07:00.000Z</time>
      </trkpt>
      <trkpt lat="40.33060644753277301788330078125" lon="-1.0463101230561733245849609375">
        <ele>994.5999755859375</ele>
        <time>2022-05-06T08:07:02.000Z</time>
      </trkpt>
      <trkpt lat="40.33060133457183837890625" lon="-1.04623661376535892486572265625">
        <ele>994.5999755859375</ele>
        <time>2022-05-06T08:07:04.000Z</time>
      </trkpt>
      <trkpt lat="40.33061206340789794921875" lon="-1.04615547694265842437744140625">
        <ele>994.5999755859375</ele>
        <time>2022-05-06T08:07:06.000Z</time>
      </trkpt>
      <trkpt lat="40.33062187023460865020751953125" lon="-1.04608121328055858612060546875">
        <ele>994.79998779296875</ele>
        <time>2022-05-06T08:07:08.000Z</time>
      </trkpt>
      <trkpt lat="40.3306253068149089813232421875" lon="-1.0460415668785572052001953125">
        <ele>994.79998779296875</ele>
        <time>2022-05-06T08:07:09.000Z</time>
      </trkpt>
      <trkpt lat="40.33062891103327274322509765625" lon="-1.0460038483142852783203125">
        <ele>994.79998779296875</ele>
        <time>2022-05-06T08:07:10.000Z</time>
      </trkpt>
      <trkpt lat="40.330645255744457244873046875" lon="-1.04592983610928058624267578125">
        <ele>995</ele>
        <time>2022-05-06T08:07:12.000Z</time>
      </trkpt>
      <trkpt lat="40.33065908588469028472900390625" lon="-1.0458544827997684478759765625">
        <ele>995.20001220703125</ele>
        <time>2022-05-06T08:07:14.000Z</time>
      </trkpt>
      <trkpt lat="40.33067400567233562469482421875" lon="-1.04577359743416309356689453125">
        <ele>995.4000244140625</ele>
        <time>2022-05-06T08:07:16.000Z</time>
      </trkpt>
      <trkpt lat="40.33068339340388774871826171875" lon="-1.04570168070495128631591796875">
        <ele>995.5999755859375</ele>
        <time>2022-05-06T08:07:18.000Z</time>
      </trkpt>
      <trkpt lat="40.330690182745456695556640625" lon="-1.04566278867423534393310546875">
        <ele>995.5999755859375</ele>
        <time>2022-05-06T08:07:19.000Z</time>
      </trkpt>
      <trkpt lat="40.33069529570639133453369140625" lon="-1.04562590830028057098388671875">
        <ele>995.5999755859375</ele>
        <time>2022-05-06T08:07:20.000Z</time>
      </trkpt>
      <trkpt lat="40.33070434816181659698486328125" lon="-1.0455570928752422332763671875">
        <ele>995.79998779296875</ele>
        <time>2022-05-06T08:07:22.000Z</time>
      </trkpt>
      <trkpt lat="40.33072002232074737548828125" lon="-1.04548660106956958770751953125">
        <ele>996</ele>
        <time>2022-05-06T08:07:24.000Z</time>
      </trkpt>
      <trkpt lat="40.330722033977508544921875" lon="-1.04545332491397857666015625">
        <ele>996</ele>
        <time>2022-05-06T08:07:25.000Z</time>
      </trkpt>
      <trkpt lat="40.33072714693844318389892578125" lon="-1.045419462025165557861328125">
        <ele>996</ele>
        <time>2022-05-06T08:07:26.000Z</time>
      </trkpt>
      <trkpt lat="40.330735109746456146240234375" lon="-1.045353747904300689697265625">
        <ele>996.20001220703125</ele>
        <time>2022-05-06T08:07:28.000Z</time>
      </trkpt>
      <trkpt lat="40.3307480178773403167724609375" lon="-1.0452838428318500518798828125">
        <ele>996.4000244140625</ele>
        <time>2022-05-06T08:07:30.000Z</time>
      </trkpt>
      <trkpt lat="40.3307569026947021484375" lon="-1.045215614140033721923828125">
        <ele>996.4000244140625</ele>
        <time>2022-05-06T08:07:32.000Z</time>
      </trkpt>
      <trkpt lat="40.33076872117817401885986328125" lon="-1.04514813981950283050537109375">
        <ele>996.5999755859375</ele>
        <time>2022-05-06T08:07:34.000Z</time>
      </trkpt>
      <trkpt lat="40.33077257685363292694091796875" lon="-1.0451158694922924041748046875">
        <ele>996.5999755859375</ele>
        <time>2022-05-06T08:07:35.000Z</time>
      </trkpt>
      <trkpt lat="40.3307748399674892425537109375" lon="-1.04508586227893829345703125">
        <ele>996.5999755859375</ele>
        <time>2022-05-06T08:07:36.000Z</time>
      </trkpt>
      <trkpt lat="40.3307865746319293975830078125" lon="-1.04501252062618732452392578125">
        <ele>996.79998779296875</ele>
        <time>2022-05-06T08:07:38.000Z</time>
      </trkpt>
      <trkpt lat="40.3307926096022129058837890625" lon="-1.0449760593473911285400390625">
        <ele>996.79998779296875</ele>
        <time>2022-05-06T08:07:39.000Z</time>
      </trkpt>
      <trkpt lat="40.33079889602959156036376953125" lon="-1.04494278319180011749267578125">
        <ele>997</ele>
        <time>2022-05-06T08:07:40.000Z</time>
      </trkpt>
      <trkpt lat="40.33080526627600193023681640625" lon="-1.04491193778812885284423828125">
        <ele>997</ele>
        <time>2022-05-06T08:07:41.000Z</time>
      </trkpt>
      <trkpt lat="40.33081498928368091583251953125" lon="-1.04487908072769641876220703125">
        <ele>997.20001220703125</ele>
        <time>2022-05-06T08:07:42.000Z</time>
      </trkpt>
      <trkpt lat="40.3308279812335968017578125" lon="-1.04481772519648075103759765625">
        <ele>997.20001220703125</ele>
        <time>2022-05-06T08:07:44.000Z</time>
      </trkpt>
      <trkpt lat="40.3308345191180706024169921875" lon="-1.04478704743087291717529296875">
        <ele>997.4000244140625</ele>
        <time>2022-05-06T08:07:45.000Z</time>
      </trkpt>
      <trkpt lat="40.33084197901189327239990234375" lon="-1.04475636966526508331298828125">
        <ele>997.4000244140625</ele>
        <time>2022-05-06T08:07:46.000Z</time>
      </trkpt>
      <trkpt lat="40.33085622824728488922119140625" lon="-1.04469157755374908447265625">
        <ele>997.4000244140625</ele>
        <time>2022-05-06T08:07:48.000Z</time>
      </trkpt>
      <trkpt lat="40.3308667056262493133544921875" lon="-1.044657044112682342529296875">
        <ele>997.4000244140625</ele>
        <time>2022-05-06T08:07:49.000Z</time>
      </trkpt>
      <trkpt lat="40.33087433315813541412353515625" lon="-1.0446256957948207855224609375">
        <ele>997.5999755859375</ele>
        <time>2022-05-06T08:07:50.000Z</time>
      </trkpt>
      <trkpt lat="40.3308891691267490386962890625" lon="-1.044568531215190887451171875">
        <ele>997.5999755859375</ele>
        <time>2022-05-06T08:07:52.000Z</time>
      </trkpt>
      <trkpt lat="40.3309005685150623321533203125" lon="-1.04451245628297328948974609375">
        <ele>997.5999755859375</ele>
        <time>2022-05-06T08:07:54.000Z</time>
      </trkpt>
      <trkpt lat="40.33091993071138858795166015625" lon="-1.0444530285894870758056640625">
        <ele>997.5999755859375</ele>
        <time>2022-05-06T08:07:56.000Z</time>
      </trkpt>
      <trkpt lat="40.33093116246163845062255859375" lon="-1.04439460672438144683837890625">
        <ele>997.5999755859375</ele>
        <time>2022-05-06T08:07:58.000Z</time>
      </trkpt>
      <trkpt lat="40.3309421427547931671142578125" lon="-1.044333837926387786865234375">
        <ele>997.5999755859375</ele>
        <time>2022-05-06T08:08:00.000Z</time>
      </trkpt>
      <trkpt lat="40.33095597289502620697021484375" lon="-1.04426376521587371826171875">
        <ele>997.5999755859375</ele>
        <time>2022-05-06T08:08:02.000Z</time>
      </trkpt>
      <trkpt lat="40.330967120826244354248046875" lon="-1.04422621428966522216796875">
        <ele>997.79998779296875</ele>
        <time>2022-05-06T08:08:03.000Z</time>
      </trkpt>
      <trkpt lat="40.33097843639552593231201171875" lon="-1.04418740607798099517822265625">
        <ele>997.79998779296875</ele>
        <time>2022-05-06T08:08:04.000Z</time>
      </trkpt>
      <trkpt lat="40.33100358210504055023193359375" lon="-1.0441021621227264404296875">
        <ele>998.20001220703125</ele>
        <time>2022-05-06T08:08:06.000Z</time>
      </trkpt>
      <trkpt lat="40.33103912137448787689208984375" lon="-1.04401071555912494659423828125">
        <ele>998.4000244140625</ele>
        <time>2022-05-06T08:08:08.000Z</time>
      </trkpt>
      <trkpt lat="40.33105839975178241729736328125" lon="-1.04396126233041286468505859375">
        <ele>998.5999755859375</ele>
        <time>2022-05-06T08:08:09.000Z</time>
      </trkpt>
      <trkpt lat="40.33107600174844264984130859375" lon="-1.04391038417816162109375">
        <ele>998.79998779296875</ele>
        <time>2022-05-06T08:08:10.000Z</time>
      </trkpt>
      <trkpt lat="40.33110600896179676055908203125" lon="-1.04381290264427661895751953125">
        <ele>999.4000244140625</ele>
        <time>2022-05-06T08:08:12.000Z</time>
      </trkpt>
      <trkpt lat="40.33112210221588611602783203125" lon="-1.0437231324613094329833984375">
        <ele>999.79998779296875</ele>
        <time>2022-05-06T08:08:14.000Z</time>
      </trkpt>
      <trkpt lat="40.33112704753875732421875" lon="-1.04367912746965885162353515625">
        <ele>999.79998779296875</ele>
        <time>2022-05-06T08:08:15.000Z</time>
      </trkpt>
      <trkpt lat="40.331132076680660247802734375" lon="-1.04363202117383480072021484375">
        <ele>1000</ele>
        <time>2022-05-06T08:08:16.000Z</time>
      </trkpt>
      <trkpt lat="40.3311453200876712799072265625" lon="-1.0435313545167446136474609375">
        <ele>1000.4000244140625</ele>
        <time>2022-05-06T08:08:18.000Z</time>
      </trkpt>
      <trkpt lat="40.33115529455244541168212890625" lon="-1.04343353770673274993896484375">
        <ele>1000.79998779296875</ele>
        <time>2022-05-06T08:08:20.000Z</time>
      </trkpt>
      <trkpt lat="40.3311557136476039886474609375" lon="-1.04338802397251129150390625">
        <ele>1000.79998779296875</ele>
        <time>2022-05-06T08:08:21.000Z</time>
      </trkpt>
      <trkpt lat="40.33115495927631855010986328125" lon="-1.04334644973278045654296875">
        <ele>1001</ele>
        <time>2022-05-06T08:08:22.000Z</time>
      </trkpt>
      <trkpt lat="40.3311540372669696807861328125" lon="-1.04326665401458740234375">
        <ele>1001.20001220703125</ele>
        <time>2022-05-06T08:08:24.000Z</time>
      </trkpt>
      <trkpt lat="40.33115428872406482696533203125" lon="-1.04318526573479175567626953125">
        <ele>1001.20001220703125</ele>
        <time>2022-05-06T08:08:26.000Z</time>
      </trkpt>
      <trkpt lat="40.33115479163825511932373046875" lon="-1.043112762272357940673828125">
        <ele>1001.20001220703125</ele>
        <time>2022-05-06T08:08:28.000Z</time>
      </trkpt>
      <trkpt lat="40.331156551837921142578125" lon="-1.04303053580224514007568359375">
        <ele>1001.4000244140625</ele>
        <time>2022-05-06T08:08:30.000Z</time>
      </trkpt>
      <trkpt lat="40.33115680329501628875732421875" lon="-1.042951829731464385986328125">
        <ele>1001.79998779296875</ele>
        <time>2022-05-06T08:08:32.000Z</time>
      </trkpt>
      <trkpt lat="40.33115663565695285797119140625" lon="-1.0429166257381439208984375">
        <ele>1002</ele>
        <time>2022-05-06T08:08:33.000Z</time>
      </trkpt>
      <trkpt lat="40.3311557136476039886474609375" lon="-1.04287999682128429412841796875">
        <ele>1002.20001220703125</ele>
        <time>2022-05-06T08:08:34.000Z</time>
      </trkpt>
      <trkpt lat="40.3311614133417606353759765625" lon="-1.04280187748372554779052734375">
        <ele>1002.5999755859375</ele>
        <time>2022-05-06T08:08:36.000Z</time>
      </trkpt>
      <trkpt lat="40.331162922084331512451171875" lon="-1.042721159756183624267578125">
        <ele>1003</ele>
        <time>2022-05-06T08:08:38.000Z</time>
      </trkpt>
      <trkpt lat="40.33116367645561695098876953125" lon="-1.04268285445868968963623046875">
        <ele>1003.20001220703125</ele>
        <time>2022-05-06T08:08:39.000Z</time>
      </trkpt>
      <trkpt lat="40.3311637602746486663818359375" lon="-1.04264597408473491668701171875">
        <ele>1003.4000244140625</ele>
        <time>2022-05-06T08:08:40.000Z</time>
      </trkpt>
      <trkpt lat="40.33116904087364673614501953125" lon="-1.04257707484066486358642578125">
        <ele>1003.79998779296875</ele>
        <time>2022-05-06T08:08:42.000Z</time>
      </trkpt>
      <trkpt lat="40.33116987906396389007568359375" lon="-1.042553521692752838134765625">
        <ele>1004</ele>
        <time>2022-05-06T08:08:43.000Z</time>
      </trkpt>
      <trkpt lat="40.3311701305210590362548828125" lon="-1.0425295494496822357177734375">
        <ele>1004</ele>
        <time>2022-05-06T08:08:44.000Z</time>
      </trkpt>
      <trkpt lat="40.33117004670202732086181640625" lon="-1.04247833602130413055419921875">
        <ele>1004.4000244140625</ele>
        <time>2022-05-06T08:08:46.000Z</time>
      </trkpt>
      <trkpt lat="40.33117071725428104400634765625" lon="-1.0424259491264820098876953125">
        <ele>1004.5999755859375</ele>
        <time>2022-05-06T08:08:48.000Z</time>
      </trkpt>
      <trkpt lat="40.33116904087364673614501953125" lon="-1.042368113994598388671875">
        <ele>1004.79998779296875</ele>
        <time>2022-05-06T08:08:50.000Z</time>
      </trkpt>
      <trkpt lat="40.3311687894165515899658203125" lon="-1.04230935685336589813232421875">
        <ele>1005.20001220703125</ele>
        <time>2022-05-06T08:08:52.000Z</time>
      </trkpt>
      <trkpt lat="40.3311691246926784515380859375" lon="-1.04227951727807521820068359375">
        <ele>1005.20001220703125</ele>
        <time>2022-05-06T08:08:53.000Z</time>
      </trkpt>
      <trkpt lat="40.3311701305210590362548828125" lon="-1.042249090969562530517578125">
        <ele>1005.4000244140625</ele>
        <time>2022-05-06T08:08:54.000Z</time>
      </trkpt>
      <trkpt lat="40.331172980368137359619140625" lon="-1.04218916036188602447509765625">
        <ele>1005.4000244140625</ele>
        <time>2022-05-06T08:08:56.000Z</time>
      </trkpt>
      <trkpt lat="40.3311751596629619598388671875" lon="-1.0421285592019557952880859375">
        <ele>1005.20001220703125</ele>
        <time>2022-05-06T08:08:58.000Z</time>
      </trkpt>
      <trkpt lat="40.33117742277681827545166015625" lon="-1.04206427000463008880615234375">
        <ele>1005.20001220703125</ele>
        <time>2022-05-06T08:09:00.000Z</time>
      </trkpt>
      <trkpt lat="40.3311793506145477294921875" lon="-1.04200132191181182861328125">
        <ele>1005.20001220703125</ele>
        <time>2022-05-06T08:09:02.000Z</time>
      </trkpt>
      <trkpt lat="40.3311781771481037139892578125" lon="-1.04197315871715545654296875">
        <ele>1005.20001220703125</ele>
        <time>2022-05-06T08:09:03.000Z</time>
      </trkpt>
      <trkpt lat="40.3311771713197231292724609375" lon="-1.04194424115121364593505859375">
        <ele>1005</ele>
        <time>2022-05-06T08:09:04.000Z</time>
      </trkpt>
      <trkpt lat="40.33117541112005710601806640625" lon="-1.04188774712383747100830078125">
        <ele>1005</ele>
        <time>2022-05-06T08:09:06.000Z</time>
      </trkpt>
      <trkpt lat="40.33117574639618396759033203125" lon="-1.04182739742100238800048828125">
        <ele>1005</ele>
        <time>2022-05-06T08:09:08.000Z</time>
      </trkpt>
      <trkpt lat="40.33117876388132572174072265625" lon="-1.0417681373655796051025390625">
        <ele>1004.79998779296875</ele>
        <time>2022-05-06T08:09:10.000Z</time>
      </trkpt>
      <trkpt lat="40.33118077553808689117431640625" lon="-1.04173787869513034820556640625">
        <ele>1004.79998779296875</ele>
        <time>2022-05-06T08:09:11.000Z</time>
      </trkpt>
      <trkpt lat="40.33118211664259433746337890625" lon="-1.04170720092952251434326171875">
        <ele>1004.79998779296875</ele>
        <time>2022-05-06T08:09:12.000Z</time>
      </trkpt>
      <trkpt lat="40.3311820328235626220703125" lon="-1.04164383374154567718505859375">
        <ele>1004.79998779296875</ele>
        <time>2022-05-06T08:09:14.000Z</time>
      </trkpt>
      <trkpt lat="40.33118496648967266082763671875" lon="-1.04157979600131511688232421875">
        <ele>1004.79998779296875</ele>
        <time>2022-05-06T08:09:16.000Z</time>
      </trkpt>
      <trkpt lat="40.3311925940215587615966796875" lon="-1.0415126569569110870361328125">
        <ele>1004.79998779296875</ele>
        <time>2022-05-06T08:09:18.000Z</time>
      </trkpt>
      <trkpt lat="40.331194438040256500244140625" lon="-1.041477620601654052734375">
        <ele>1004.79998779296875</ele>
        <time>2022-05-06T08:09:19.000Z</time>
      </trkpt>
      <trkpt lat="40.3311956115067005157470703125" lon="-1.04144199751317501068115234375">
        <ele>1004.79998779296875</ele>
        <time>2022-05-06T08:09:20.000Z</time>
      </trkpt>
      <trkpt lat="40.33119854517281055450439453125" lon="-1.041369326412677764892578125">
        <ele>1004.79998779296875</ele>
        <time>2022-05-06T08:09:22.000Z</time>
      </trkpt>
      <trkpt lat="40.33119938336312770843505859375" lon="-1.0413322784006595611572265625">
        <ele>1004.5999755859375</ele>
        <time>2022-05-06T08:09:23.000Z</time>
      </trkpt>
      <trkpt lat="40.33120055682957172393798828125" lon="-1.04129531420767307281494140625">
        <ele>1004.5999755859375</ele>
        <time>2022-05-06T08:09:24.000Z</time>
      </trkpt>
      <trkpt lat="40.33120390959084033966064453125" lon="-1.04122390039265155792236328125">
        <ele>1004.4000244140625</ele>
        <time>2022-05-06T08:09:26.000Z</time>
      </trkpt>
      <trkpt lat="40.33121329732239246368408203125" lon="-1.0411545820534229278564453125">
        <ele>1004.4000244140625</ele>
        <time>2022-05-06T08:09:28.000Z</time>
      </trkpt>
      <trkpt lat="40.3312200866639614105224609375" lon="-1.04108325205743312835693359375">
        <ele>1004.20001220703125</ele>
        <time>2022-05-06T08:09:30.000Z</time>
      </trkpt>
      <trkpt lat="40.33122905530035495758056640625" lon="-1.0410068929195404052734375">
        <ele>1004.20001220703125</ele>
        <time>2022-05-06T08:09:32.000Z</time>
      </trkpt>
      <trkpt lat="40.33124439418315887451171875" lon="-1.040931455790996551513671875">
        <ele>1004.20001220703125</ele>
        <time>2022-05-06T08:09:34.000Z</time>
      </trkpt>
      <trkpt lat="40.33125646412372589111328125" lon="-1.04085459373891353607177734375">
        <ele>1004.20001220703125</ele>
        <time>2022-05-06T08:09:36.000Z</time>
      </trkpt>
      <trkpt lat="40.33126710914075374603271484375" lon="-1.04077446274459362030029296875">
        <ele>1004</ele>
        <time>2022-05-06T08:09:38.000Z</time>
      </trkpt>
      <trkpt lat="40.33127834089100360870361328125" lon="-1.0406895540654659271240234375">
        <ele>1004</ele>
        <time>2022-05-06T08:09:40.000Z</time>
      </trkpt>
      <trkpt lat="40.3312946856021881103515625" lon="-1.04060162790119647979736328125">
        <ele>1004</ele>
        <time>2022-05-06T08:09:42.000Z</time>
      </trkpt>
      <trkpt lat="40.33130365423858165740966796875" lon="-1.0405564494431018829345703125">
        <ele>1004</ele>
        <time>2022-05-06T08:09:43.000Z</time>
      </trkpt>
      <trkpt lat="40.33131237141788005828857421875" lon="-1.04051261208951473236083984375">
        <ele>1004.20001220703125</ele>
        <time>2022-05-06T08:09:44.000Z</time>
      </trkpt>
      <trkpt lat="40.3313364274799823760986328125" lon="-1.040424518287181854248046875">
        <ele>1004.4000244140625</ele>
        <time>2022-05-06T08:09:46.000Z</time>
      </trkpt>
      <trkpt lat="40.3313577175140380859375" lon="-1.04033793322741985321044921875">
        <ele>1004.79998779296875</ele>
        <time>2022-05-06T08:09:48.000Z</time>
      </trkpt>
      <trkpt lat="40.33137439750134944915771484375" lon="-1.04025696404278278350830078125">
        <ele>1005</ele>
        <time>2022-05-06T08:09:50.000Z</time>
      </trkpt>
      <trkpt lat="40.33139267005026340484619140625" lon="-1.040180437266826629638671875">
        <ele>1005.4000244140625</ele>
        <time>2022-05-06T08:09:52.000Z</time>
      </trkpt>
      <trkpt lat="40.33140926621854305267333984375" lon="-1.04010223411023616790771484375">
        <ele>1005.5999755859375</ele>
        <time>2022-05-06T08:09:54.000Z</time>
      </trkpt>
      <trkpt lat="40.33142368309199810028076171875" lon="-1.04002428241074085235595703125">
        <ele>1005.79998779296875</ele>
        <time>2022-05-06T08:09:56.000Z</time>
      </trkpt>
      <trkpt lat="40.3314296342432498931884765625" lon="-1.03998706676065921783447265625">
        <ele>1006</ele>
        <time>2022-05-06T08:09:57.000Z</time>
      </trkpt>
      <trkpt lat="40.33143642358481884002685546875" lon="-1.0399502702057361602783203125">
        <ele>1006</ele>
        <time>2022-05-06T08:09:58.000Z</time>
      </trkpt>
      <trkpt lat="40.331452600657939910888671875" lon="-1.03987894020974636077880859375">
        <ele>1006.20001220703125</ele>
        <time>2022-05-06T08:10:00.000Z</time>
      </trkpt>
      <trkpt lat="40.33147037029266357421875" lon="-1.0398074425756931304931640625">
        <ele>1006.5999755859375</ele>
        <time>2022-05-06T08:10:02.000Z</time>
      </trkpt>
      <trkpt lat="40.3314913250505924224853515625" lon="-1.039739549160003662109375">
        <ele>1006.79998779296875</ele>
        <time>2022-05-06T08:10:04.000Z</time>
      </trkpt>
      <trkpt lat="40.33151186071336269378662109375" lon="-1.03966922499239444732666015625">
        <ele>1007</ele>
        <time>2022-05-06T08:10:06.000Z</time>
      </trkpt>
      <trkpt lat="40.33153315074741840362548828125" lon="-1.039602756500244140625">
        <ele>1007</ele>
        <time>2022-05-06T08:10:08.000Z</time>
      </trkpt>
      <trkpt lat="40.331557877361774444580078125" lon="-1.03953125886619091033935546875">
        <ele>1007.20001220703125</ele>
        <time>2022-05-06T08:10:10.000Z</time>
      </trkpt>
      <trkpt lat="40.33157086931169033050537109375" lon="-1.039493791759014129638671875">
        <ele>1007.20001220703125</ele>
        <time>2022-05-06T08:10:11.000Z</time>
      </trkpt>
      <trkpt lat="40.3315870463848114013671875" lon="-1.03945590555667877197265625">
        <ele>1007.4000244140625</ele>
        <time>2022-05-06T08:10:12.000Z</time>
      </trkpt>
      <trkpt lat="40.3316230885684490203857421875" lon="-1.039378456771373748779296875">
        <ele>1007.79998779296875</ele>
        <time>2022-05-06T08:10:14.000Z</time>
      </trkpt>
      <trkpt lat="40.33166055567562580108642578125" lon="-1.0393078811466693878173828125">
        <ele>1008.20001220703125</ele>
        <time>2022-05-06T08:10:16.000Z</time>
      </trkpt>
      <trkpt lat="40.3316948376595973968505859375" lon="-1.0392414964735507965087890625">
        <ele>1008.5999755859375</ele>
        <time>2022-05-06T08:10:18.000Z</time>
      </trkpt>
      <trkpt lat="40.33171269111335277557373046875" lon="-1.03921039961278438568115234375">
        <ele>1008.79998779296875</ele>
        <time>2022-05-06T08:10:19.000Z</time>
      </trkpt>
      <trkpt lat="40.3317303769290447235107421875" lon="-1.0391781292855739593505859375">
        <ele>1009</ele>
        <time>2022-05-06T08:10:20.000Z</time>
      </trkpt>
      <trkpt lat="40.3317652456462383270263671875" lon="-1.03910713456571102142333984375">
        <ele>1009.5999755859375</ele>
        <time>2022-05-06T08:10:22.000Z</time>
      </trkpt>
      <trkpt lat="40.3318043053150177001953125" lon="-1.03903236798942089080810546875">
        <ele>1010</ele>
        <time>2022-05-06T08:10:24.000Z</time>
      </trkpt>
      <trkpt lat="40.3318457119166851043701171875" lon="-1.03895676322281360626220703125">
        <ele>1010.4000244140625</ele>
        <time>2022-05-06T08:10:26.000Z</time>
      </trkpt>
      <trkpt lat="40.331886447966098785400390625" lon="-1.0388820804655551910400390625">
        <ele>1010.79998779296875</ele>
        <time>2022-05-06T08:10:28.000Z</time>
      </trkpt>
      <trkpt lat="40.33192475326359272003173828125" lon="-1.03880924172699451446533203125">
        <ele>1011</ele>
        <time>2022-05-06T08:10:30.000Z</time>
      </trkpt>
      <trkpt lat="40.3319660760462284088134765625" lon="-1.0387375764548778533935546875">
        <ele>1011.20001220703125</ele>
        <time>2022-05-06T08:10:32.000Z</time>
      </trkpt>
      <trkpt lat="40.3319871984422206878662109375" lon="-1.0387028753757476806640625">
        <ele>1011.4000244140625</ele>
        <time>2022-05-06T08:10:33.000Z</time>
      </trkpt>
      <trkpt lat="40.332004465162754058837890625" lon="-1.0386688448488712310791015625">
        <ele>1011.4000244140625</ele>
        <time>2022-05-06T08:10:34.000Z</time>
      </trkpt>
      <trkpt lat="40.3320351429283618927001953125" lon="-1.03859935887157917022705078125">
        <ele>1011.5999755859375</ele>
        <time>2022-05-06T08:10:36.000Z</time>
      </trkpt>
      <trkpt lat="40.3320703469216823577880859375" lon="-1.0385310463607311248779296875">
        <ele>1011.79998779296875</ele>
        <time>2022-05-06T08:10:38.000Z</time>
      </trkpt>
      <trkpt lat="40.33208467997610569000244140625" lon="-1.038493998348712921142578125">
        <ele>1011.79998779296875</ele>
        <time>2022-05-06T08:10:39.000Z</time>
      </trkpt>
      <trkpt lat="40.3320998512208461761474609375" lon="-1.03845544159412384033203125">
        <ele>1011.79998779296875</ele>
        <time>2022-05-06T08:10:40.000Z</time>
      </trkpt>
      <trkpt lat="40.33213245682418346405029296875" lon="-1.0383808426558971405029296875">
        <ele>1012</ele>
        <time>2022-05-06T08:10:42.000Z</time>
      </trkpt>
      <trkpt lat="40.3321608714759349822998046875" lon="-1.03830850683152675628662109375">
        <ele>1012.20001220703125</ele>
        <time>2022-05-06T08:10:44.000Z</time>
      </trkpt>
      <trkpt lat="40.33218777738511562347412109375" lon="-1.03823508135974407196044921875">
        <ele>1012.5999755859375</ele>
        <time>2022-05-06T08:10:46.000Z</time>
      </trkpt>
      <trkpt lat="40.33221225254237651824951171875" lon="-1.03816031478345394134521484375">
        <ele>1012.79998779296875</ele>
        <time>2022-05-06T08:10:48.000Z</time>
      </trkpt>
      <trkpt lat="40.3322349674999713897705078125" lon="-1.03807867504656314849853515625">
        <ele>1013</ele>
        <time>2022-05-06T08:10:50.000Z</time>
      </trkpt>
      <trkpt lat="40.33224611543118953704833984375" lon="-1.0380381904542446136474609375">
        <ele>1013</ele>
        <time>2022-05-06T08:10:51.000Z</time>
      </trkpt>
      <trkpt lat="40.33225634135305881500244140625" lon="-1.03799921460449695587158203125">
        <ele>1013</ele>
        <time>2022-05-06T08:10:52.000Z</time>
      </trkpt>
      <trkpt lat="40.33228601329028606414794921875" lon="-1.03792042471468448638916015625">
        <ele>1013.20001220703125</ele>
        <time>2022-05-06T08:10:54.000Z</time>
      </trkpt>
      <trkpt lat="40.33229791559278964996337890625" lon="-1.037881784141063690185546875">
        <ele>1013.4000244140625</ele>
        <time>2022-05-06T08:10:55.000Z</time>
      </trkpt>
      <trkpt lat="40.332308225333690643310546875" lon="-1.03784255683422088623046875">
        <ele>1013.5999755859375</ele>
        <time>2022-05-06T08:10:56.000Z</time>
      </trkpt>
      <trkpt lat="40.33232708461582660675048828125" lon="-1.03776670061051845550537109375">
        <ele>1013.79998779296875</ele>
        <time>2022-05-06T08:10:58.000Z</time>
      </trkpt>
      <trkpt lat="40.33234284259378910064697265625" lon="-1.03769344277679920196533203125">
        <ele>1014</ele>
        <time>2022-05-06T08:11:00.000Z</time>
      </trkpt>
      <trkpt lat="40.33235793001949787139892578125" lon="-1.037626974284648895263671875">
        <ele>1014.20001220703125</ele>
        <time>2022-05-06T08:11:02.000Z</time>
      </trkpt>
      <trkpt lat="40.332364551723003387451171875" lon="-1.0375942848622798919677734375">
        <ele>1014.20001220703125</ele>
        <time>2022-05-06T08:11:03.000Z</time>
      </trkpt>
      <trkpt lat="40.33237352035939693450927734375" lon="-1.0375602543354034423828125">
        <ele>1014.4000244140625</ele>
        <time>2022-05-06T08:11:04.000Z</time>
      </trkpt>
      <trkpt lat="40.33238911069929599761962890625" lon="-1.03748875670135021209716796875">
        <ele>1014.4000244140625</ele>
        <time>2022-05-06T08:11:06.000Z</time>
      </trkpt>
      <trkpt lat="40.33239950425922870635986328125" lon="-1.03741365484893321990966796875">
        <ele>1014.5999755859375</ele>
        <time>2022-05-06T08:11:08.000Z</time>
      </trkpt>
      <trkpt lat="40.3324099816381931304931640625" lon="-1.0373374633491039276123046875">
        <ele>1014.5999755859375</ele>
        <time>2022-05-06T08:11:10.000Z</time>
      </trkpt>
      <trkpt lat="40.33241224475204944610595703125" lon="-1.0372995771467685699462890625">
        <ele>1014.5999755859375</ele>
        <time>2022-05-06T08:11:11.000Z</time>
      </trkpt>
      <trkpt lat="40.33241559751331806182861328125" lon="-1.03726177476346492767333984375">
        <ele>1014.5999755859375</ele>
        <time>2022-05-06T08:11:12.000Z</time>
      </trkpt>
      <trkpt lat="40.3324238955974578857421875" lon="-1.037183739244937896728515625">
        <ele>1014.20001220703125</ele>
        <time>2022-05-06T08:11:14.000Z</time>
      </trkpt>
      <trkpt lat="40.33243537880480289459228515625" lon="-1.037105284631252288818359375">
        <ele>1013.79998779296875</ele>
        <time>2022-05-06T08:11:16.000Z</time>
      </trkpt>
      <trkpt lat="40.33244124613702297210693359375" lon="-1.03702775202691555023193359375">
        <ele>1013.4000244140625</ele>
        <time>2022-05-06T08:11:18.000Z</time>
      </trkpt>
      <trkpt lat="40.33244627527892589569091796875" lon="-1.036989279091358184814453125">
        <ele>1013.20001220703125</ele>
        <time>2022-05-06T08:11:19.000Z</time>
      </trkpt>
      <trkpt lat="40.33245063386857509613037109375" lon="-1.03694996796548366546630859375">
        <ele>1013</ele>
        <time>2022-05-06T08:11:20.000Z</time>
      </trkpt>
      <trkpt lat="40.3324656374752521514892578125" lon="-1.036870591342449188232421875">
        <ele>1013</ele>
        <time>2022-05-06T08:11:22.000Z</time>
      </trkpt>
      <trkpt lat="40.3324710018932819366455078125" lon="-1.03679054416716098785400390625">
        <ele>1013</ele>
        <time>2022-05-06T08:11:24.000Z</time>
      </trkpt>
      <trkpt lat="40.3324807249009609222412109375" lon="-1.0367148555815219879150390625">
        <ele>1013</ele>
        <time>2022-05-06T08:11:26.000Z</time>
      </trkpt>
      <trkpt lat="40.33248365856707096099853515625" lon="-1.036635227501392364501953125">
        <ele>1013</ele>
        <time>2022-05-06T08:11:28.000Z</time>
      </trkpt>
      <trkpt lat="40.3324847482144832611083984375" lon="-1.036558784544467926025390625">
        <ele>1012.79998779296875</ele>
        <time>2022-05-06T08:11:30.000Z</time>
      </trkpt>
      <trkpt lat="40.3324855864048004150390625" lon="-1.03652433492243289947509765625">
        <ele>1012.79998779296875</ele>
        <time>2022-05-06T08:11:31.000Z</time>
      </trkpt>
      <trkpt lat="40.33248516730964183807373046875" lon="-1.03649072349071502685546875">
        <ele>1012.79998779296875</ele>
        <time>2022-05-06T08:11:32.000Z</time>
      </trkpt>
      <trkpt lat="40.332481227815151214599609375" lon="-1.03642174042761325836181640625">
        <ele>1012.5999755859375</ele>
        <time>2022-05-06T08:11:34.000Z</time>
      </trkpt>
      <trkpt lat="40.33248567022383213043212890625" lon="-1.03635367937386035919189453125">
        <ele>1012.79998779296875</ele>
        <time>2022-05-06T08:11:36.000Z</time>
      </trkpt>
      <trkpt lat="40.33248650841414928436279296875" lon="-1.0362880490720272064208984375">
        <ele>1013</ele>
        <time>2022-05-06T08:11:38.000Z</time>
      </trkpt>
      <trkpt lat="40.3324874304234981536865234375" lon="-1.036254353821277618408203125">
        <ele>1013</ele>
        <time>2022-05-06T08:11:39.000Z</time>
      </trkpt>
      <trkpt lat="40.33248935826122760772705078125" lon="-1.0362193174660205841064453125">
        <ele>1013</ele>
        <time>2022-05-06T08:11:40.000Z</time>
      </trkpt>
      <trkpt lat="40.33249824307858943939208984375" lon="-1.03615469299256801605224609375">
        <ele>1013.20001220703125</ele>
        <time>2022-05-06T08:11:42.000Z</time>
      </trkpt>
      <trkpt lat="40.33250109292566776275634765625" lon="-1.03608705103397369384765625">
        <ele>1013.4000244140625</ele>
        <time>2022-05-06T08:11:44.000Z</time>
      </trkpt>
      <trkpt lat="40.3325025178492069244384765625" lon="-1.0360533557832241058349609375">
        <ele>1013.4000244140625</ele>
        <time>2022-05-06T08:11:45.000Z</time>
      </trkpt>
      <trkpt lat="40.33250109292566776275634765625" lon="-1.0360206663608551025390625">
        <ele>1013.4000244140625</ele>
        <time>2022-05-06T08:11:46.000Z</time>
      </trkpt>
      <trkpt lat="40.33250176347792148590087890625" lon="-1.0359541140496730804443359375">
        <ele>1013.5999755859375</ele>
        <time>2022-05-06T08:11:48.000Z</time>
      </trkpt>
      <trkpt lat="40.332507379353046417236328125" lon="-1.03589116595685482025146484375">
        <ele>1013.79998779296875</ele>
        <time>2022-05-06T08:11:50.000Z</time>
      </trkpt>
      <trkpt lat="40.33250947482883930206298828125" lon="-1.0358300618827342987060546875">
        <ele>1014</ele>
        <time>2022-05-06T08:11:52.000Z</time>
      </trkpt>
      <trkpt lat="40.33251182176172733306884765625" lon="-1.03577180765569210052490234375">
        <ele>1014.20001220703125</ele>
        <time>2022-05-06T08:11:54.000Z</time>
      </trkpt>
      <trkpt lat="40.33251014538109302520751953125" lon="-1.0357417166233062744140625">
        <ele>1014.20001220703125</ele>
        <time>2022-05-06T08:11:55.000Z</time>
      </trkpt>
      <trkpt lat="40.33250930719077587127685546875" lon="-1.03571154177188873291015625">
        <ele>1014.20001220703125</ele>
        <time>2022-05-06T08:11:56.000Z</time>
      </trkpt>
      <trkpt lat="40.332509391009807586669921875" lon="-1.0356503538787364959716796875">
        <ele>1014.4000244140625</ele>
        <time>2022-05-06T08:11:58.000Z</time>
      </trkpt>
      <trkpt lat="40.3325085528194904327392578125" lon="-1.0356191731989383697509765625">
        <ele>1014.4000244140625</ele>
        <time>2022-05-06T08:11:59.000Z</time>
      </trkpt>
      <trkpt lat="40.33250997774302959442138671875" lon="-1.03558757342398166656494140625">
        <ele>1014.5999755859375</ele>
        <time>2022-05-06T08:12:00.000Z</time>
      </trkpt>
      <trkpt lat="40.33251249231398105621337890625" lon="-1.0355266369879245758056640625">
        <ele>1014.79998779296875</ele>
        <time>2022-05-06T08:12:02.000Z</time>
      </trkpt>
      <trkpt lat="40.33251651562750339508056640625" lon="-1.0354605875909328460693359375">
        <ele>1015</ele>
        <time>2022-05-06T08:12:04.000Z</time>
      </trkpt>
      <trkpt lat="40.33252305351197719573974609375" lon="-1.03539546020328998565673828125">
        <ele>1015.20001220703125</ele>
        <time>2022-05-06T08:12:06.000Z</time>
      </trkpt>
      <trkpt lat="40.33253311179578304290771484375" lon="-1.0353313386440277099609375">
        <ele>1015.4000244140625</ele>
        <time>2022-05-06T08:12:08.000Z</time>
      </trkpt>
      <trkpt lat="40.33254115842282772064208984375" lon="-1.0352624393999576568603515625">
        <ele>1015.5999755859375</ele>
        <time>2022-05-06T08:12:10.000Z</time>
      </trkpt>
      <trkpt lat="40.33254618756473064422607421875" lon="-1.0351987369358539581298828125">
        <ele>1015.79998779296875</ele>
        <time>2022-05-06T08:12:12.000Z</time>
      </trkpt>
      <trkpt lat="40.33255490474402904510498046875" lon="-1.0351350344717502593994140625">
        <ele>1016</ele>
        <time>2022-05-06T08:12:14.000Z</time>
      </trkpt>
      <trkpt lat="40.33256328664720058441162109375" lon="-1.03507108055055141448974609375">
        <ele>1016.20001220703125</ele>
        <time>2022-05-06T08:12:16.000Z</time>
      </trkpt>
      <trkpt lat="40.33256563358008861541748046875" lon="-1.0350398160517215728759765625">
        <ele>1016.20001220703125</ele>
        <time>2022-05-06T08:12:17.000Z</time>
      </trkpt>
      <trkpt lat="40.332568399608135223388671875" lon="-1.03500888682901859283447265625">
        <ele>1016.4000244140625</ele>
        <time>2022-05-06T08:12:18.000Z</time>
      </trkpt>
      <trkpt lat="40.33257502131164073944091796875" lon="-1.03494401089847087860107421875">
        <ele>1016.4000244140625</ele>
        <time>2022-05-06T08:12:20.000Z</time>
      </trkpt>
      <trkpt lat="40.33258407376706600189208984375" lon="-1.03488081134855747222900390625">
        <ele>1016.5999755859375</ele>
        <time>2022-05-06T08:12:22.000Z</time>
      </trkpt>
      <trkpt lat="40.33259128220379352569580078125" lon="-1.0348215512931346893310546875">
        <ele>1016.79998779296875</ele>
        <time>2022-05-06T08:12:24.000Z</time>
      </trkpt>
      <trkpt lat="40.3325947187840938568115234375" lon="-1.0347913764417171478271484375">
        <ele>1016.79998779296875</ele>
        <time>2022-05-06T08:12:25.000Z</time>
      </trkpt>
      <trkpt lat="40.3325990773737430572509765625" lon="-1.0347598604857921600341796875">
        <ele>1017</ele>
        <time>2022-05-06T08:12:26.000Z</time>
      </trkpt>
      <trkpt lat="40.33260737545788288116455078125" lon="-1.03469708003103733062744140625">
        <ele>1016.5999755859375</ele>
        <time>2022-05-06T08:12:28.000Z</time>
      </trkpt>
      <trkpt lat="40.33261542208492755889892578125" lon="-1.03463337756693363189697265625">
        <ele>1016.20001220703125</ele>
        <time>2022-05-06T08:12:30.000Z</time>
      </trkpt>
      <trkpt lat="40.33262313343584537506103515625" lon="-1.03456732816994190216064453125">
        <ele>1015.79998779296875</ele>
        <time>2022-05-06T08:12:32.000Z</time>
      </trkpt>
      <trkpt lat="40.33263201825320720672607421875" lon="-1.03450060822069644927978515625">
        <ele>1015.4000244140625</ele>
        <time>2022-05-06T08:12:34.000Z</time>
      </trkpt>
      <trkpt lat="40.33264241181313991546630859375" lon="-1.034434475004673004150390625">
        <ele>1015.20001220703125</ele>
        <time>2022-05-06T08:12:36.000Z</time>
      </trkpt>
      <trkpt lat="40.3326483629643917083740234375" lon="-1.034364067018032073974609375">
        <ele>1014.5999755859375</ele>
        <time>2022-05-06T08:12:38.000Z</time>
      </trkpt>
      <trkpt lat="40.3326545655727386474609375" lon="-1.03428971953690052032470703125">
        <ele>1014.20001220703125</ele>
        <time>2022-05-06T08:12:40.000Z</time>
      </trkpt>
      <trkpt lat="40.3326626121997833251953125" lon="-1.03421092964708805084228515625">
        <ele>1013.79998779296875</ele>
        <time>2022-05-06T08:12:42.000Z</time>
      </trkpt>
      <trkpt lat="40.33266806043684482574462890625" lon="-1.0341315530240535736083984375">
        <ele>1013.79998779296875</ele>
        <time>2022-05-06T08:12:44.000Z</time>
      </trkpt>
      <trkpt lat="40.332680046558380126953125" lon="-1.03405334986746311187744140625">
        <ele>1013.79998779296875</ele>
        <time>2022-05-06T08:12:46.000Z</time>
      </trkpt>
      <trkpt lat="40.332687757909297943115234375" lon="-1.03397824801504611968994140625">
        <ele>1013.79998779296875</ele>
        <time>2022-05-06T08:12:48.000Z</time>
      </trkpt>
      <trkpt lat="40.33269488252699375152587890625" lon="-1.0339017212390899658203125">
        <ele>1013.79998779296875</ele>
        <time>2022-05-06T08:12:50.000Z</time>
      </trkpt>
      <trkpt lat="40.332703180611133575439453125" lon="-1.0338251106441020965576171875">
        <ele>1014.20001220703125</ele>
        <time>2022-05-06T08:12:52.000Z</time>
      </trkpt>
      <trkpt lat="40.332715250551700592041015625" lon="-1.03375059552490711212158203125">
        <ele>1014.5999755859375</ele>
        <time>2022-05-06T08:12:54.000Z</time>
      </trkpt>
      <trkpt lat="40.33271558582782745361328125" lon="-1.03367985226213932037353515625">
        <ele>1015</ele>
        <time>2022-05-06T08:12:56.000Z</time>
      </trkpt>
      <trkpt lat="40.3327204473316669464111328125" lon="-1.03360592387616634368896484375">
        <ele>1015.4000244140625</ele>
        <time>2022-05-06T08:12:58.000Z</time>
      </trkpt>
      <trkpt lat="40.33273410983383655548095703125" lon="-1.0335320793092250823974609375">
        <ele>1015.79998779296875</ele>
        <time>2022-05-06T08:13:00.000Z</time>
      </trkpt>
      <trkpt lat="40.33274685032665729522705078125" lon="-1.03344867937266826629638671875">
        <ele>1016.20001220703125</ele>
        <time>2022-05-06T08:13:02.000Z</time>
      </trkpt>
      <trkpt lat="40.3327524662017822265625" lon="-1.03336553089320659637451171875">
        <ele>1016.5999755859375</ele>
        <time>2022-05-06T08:13:04.000Z</time>
      </trkpt>
      <trkpt lat="40.3327653743326663970947265625" lon="-1.03328355588018894195556640625">
        <ele>1017</ele>
        <time>2022-05-06T08:13:06.000Z</time>
      </trkpt>
      <trkpt lat="40.332774259150028228759765625" lon="-1.0332075320184230804443359375">
        <ele>1017.20001220703125</ele>
        <time>2022-05-06T08:13:08.000Z</time>
      </trkpt>
      <trkpt lat="40.33277534879744052886962890625" lon="-1.0331341065466403961181640625">
        <ele>1017.20001220703125</ele>
        <time>2022-05-06T08:13:10.000Z</time>
      </trkpt>
      <trkpt lat="40.3327774442732334136962890625" lon="-1.03309881873428821563720703125">
        <ele>1017.4000244140625</ele>
        <time>2022-05-06T08:13:11.000Z</time>
      </trkpt>
      <trkpt lat="40.33277752809226512908935546875" lon="-1.03306093253195285797119140625">
        <ele>1017.4000244140625</ele>
        <time>2022-05-06T08:13:12.000Z</time>
      </trkpt>
      <trkpt lat="40.3327761031687259674072265625" lon="-1.0329765267670154571533203125">
        <ele>1017.79998779296875</ele>
        <time>2022-05-06T08:13:14.000Z</time>
      </trkpt>
      <trkpt lat="40.3327653743326663970947265625" lon="-1.0328960604965686798095703125">
        <ele>1018</ele>
        <time>2022-05-06T08:13:16.000Z</time>
      </trkpt>
      <trkpt lat="40.33275590278208255767822265625" lon="-1.03281534276902675628662109375">
        <ele>1018.20001220703125</ele>
        <time>2022-05-06T08:13:18.000Z</time>
      </trkpt>
      <trkpt lat="40.33274282701313495635986328125" lon="-1.03273537941277027130126953125">
        <ele>1018.4000244140625</ele>
        <time>2022-05-06T08:13:20.000Z</time>
      </trkpt>
      <trkpt lat="40.33273511566221714019775390625" lon="-1.03265826590359210968017578125">
        <ele>1018.5999755859375</ele>
        <time>2022-05-06T08:13:22.000Z</time>
      </trkpt>
      <trkpt lat="40.33272287808358669281005859375" lon="-1.03258132003247737884521484375">
        <ele>1018.79998779296875</ele>
        <time>2022-05-06T08:13:24.000Z</time>
      </trkpt>
      <trkpt lat="40.3327164240181446075439453125" lon="-1.03250990621745586395263671875">
        <ele>1019</ele>
        <time>2022-05-06T08:13:26.000Z</time>
      </trkpt>
      <trkpt lat="40.332706868648529052734375" lon="-1.03243983350694179534912109375">
        <ele>1019</ele>
        <time>2022-05-06T08:13:28.000Z</time>
      </trkpt>
      <trkpt lat="40.33269605599343776702880859375" lon="-1.03240563534200191497802734375">
        <ele>1018.79998779296875</ele>
        <time>2022-05-06T08:13:29.000Z</time>
      </trkpt>
      <trkpt lat="40.3326894342899322509765625" lon="-1.032368838787078857421875">
        <ele>1018.79998779296875</ele>
        <time>2022-05-06T08:13:30.000Z</time>
      </trkpt>
      <trkpt lat="40.3326751850545406341552734375" lon="-1.03229465894401073455810546875">
        <ele>1018.79998779296875</ele>
        <time>2022-05-06T08:13:32.000Z</time>
      </trkpt>
      <trkpt lat="40.3326584212481975555419921875" lon="-1.032227687537670135498046875">
        <ele>1018.79998779296875</ele>
        <time>2022-05-06T08:13:34.000Z</time>
      </trkpt>
      <trkpt lat="40.33264878205955028533935546875" lon="-1.03215493261814117431640625">
        <ele>1018.79998779296875</ele>
        <time>2022-05-06T08:13:36.000Z</time>
      </trkpt>
      <trkpt lat="40.332634784281253814697265625" lon="-1.03208125568926334381103515625">
        <ele>1019</ele>
        <time>2022-05-06T08:13:38.000Z</time>
      </trkpt>
      <trkpt lat="40.33262665383517742156982421875" lon="-1.03204521350562572479248046875">
        <ele>1019</ele>
        <time>2022-05-06T08:13:39.000Z</time>
      </trkpt>
      <trkpt lat="40.3326158411800861358642578125" lon="-1.03201185353100299835205078125">
        <ele>1019</ele>
        <time>2022-05-06T08:13:40.000Z</time>
      </trkpt>
      <trkpt lat="40.3325980715453624725341796875" lon="-1.0319408588111400604248046875">
        <ele>1019</ele>
        <time>2022-05-06T08:13:42.000Z</time>
      </trkpt>
      <trkpt lat="40.33258692361414432525634765625" lon="-1.03186299093067646026611328125">
        <ele>1019.20001220703125</ele>
        <time>2022-05-06T08:13:44.000Z</time>
      </trkpt>
      <trkpt lat="40.33258021809160709381103515625" lon="-1.03181873448193073272705078125">
        <ele>1019.4000244140625</ele>
        <time>2022-05-06T08:13:45.000Z</time>
      </trkpt>
      <trkpt lat="40.332573764026165008544921875" lon="-1.031777076423168182373046875">
        <ele>1019.4000244140625</ele>
        <time>2022-05-06T08:13:46.000Z</time>
      </trkpt>
      <trkpt lat="40.3325632028281688690185546875" lon="-1.031689904630184173583984375">
        <ele>1019.5999755859375</ele>
        <time>2022-05-06T08:13:48.000Z</time>
      </trkpt>
      <trkpt lat="40.3325575031340122222900390625" lon="-1.03160097263753414154052734375">
        <ele>1019.79998779296875</ele>
        <time>2022-05-06T08:13:50.000Z</time>
      </trkpt>
      <trkpt lat="40.332546271383762359619140625" lon="-1.031521596014499664306640625">
        <ele>1020</ele>
        <time>2022-05-06T08:13:52.000Z</time>
      </trkpt>
      <trkpt lat="40.33253319561481475830078125" lon="-1.03144322521984577178955078125">
        <ele>1020.20001220703125</ele>
        <time>2022-05-06T08:13:54.000Z</time>
      </trkpt>
      <trkpt lat="40.3325266577303409576416015625" lon="-1.03136636316776275634765625">
        <ele>1020.4000244140625</ele>
        <time>2022-05-06T08:13:56.000Z</time>
      </trkpt>
      <trkpt lat="40.33251668326556682586669921875" lon="-1.03129000402987003326416015625">
        <ele>1020.4000244140625</ele>
        <time>2022-05-06T08:13:58.000Z</time>
      </trkpt>
      <trkpt lat="40.33251307904720306396484375" lon="-1.03124834597110748291015625">
        <ele>1020.4000244140625</ele>
        <time>2022-05-06T08:13:59.000Z</time>
      </trkpt>
      <trkpt lat="40.33250897191464900970458984375" lon="-1.0312061011791229248046875">
        <ele>1020.5999755859375</ele>
        <time>2022-05-06T08:14:00.000Z</time>
      </trkpt>
      <trkpt lat="40.332499332726001739501953125" lon="-1.03112094104290008544921875">
        <ele>1020.5999755859375</ele>
        <time>2022-05-06T08:14:02.000Z</time>
      </trkpt>
      <trkpt lat="40.33249103464186191558837890625" lon="-1.03103737346827983856201171875">
        <ele>1020.5999755859375</ele>
        <time>2022-05-06T08:14:04.000Z</time>
      </trkpt>
      <trkpt lat="40.332480557262897491455078125" lon="-1.03095187805593013763427734375">
        <ele>1020.5999755859375</ele>
        <time>2022-05-06T08:14:06.000Z</time>
      </trkpt>
      <trkpt lat="40.33247661776840686798095703125" lon="-1.03090443648397922515869140625">
        <ele>1020.4000244140625</ele>
        <time>2022-05-06T08:14:07.000Z</time>
      </trkpt>
      <trkpt lat="40.33247192390263080596923828125" lon="-1.03085942566394805908203125">
        <ele>1020.4000244140625</ele>
        <time>2022-05-06T08:14:08.000Z</time>
      </trkpt>
      <trkpt lat="40.3324676491320133209228515625" lon="-1.03081382811069488525390625">
        <ele>1020.4000244140625</ele>
        <time>2022-05-06T08:14:09.000Z</time>
      </trkpt>
      <trkpt lat="40.33246345818042755126953125" lon="-1.03076848201453685760498046875">
        <ele>1020.20001220703125</ele>
        <time>2022-05-06T08:14:10.000Z</time>
      </trkpt>
      <trkpt lat="40.33245264552533626556396484375" lon="-1.03068181313574314117431640625">
        <ele>1020.20001220703125</ele>
        <time>2022-05-06T08:14:12.000Z</time>
      </trkpt>
      <trkpt lat="40.33244392834603786468505859375" lon="-1.03060034103691577911376953125">
        <ele>1020</ele>
        <time>2022-05-06T08:14:14.000Z</time>
      </trkpt>
      <trkpt lat="40.33243319950997829437255859375" lon="-1.03052490390837192535400390625">
        <ele>1020.20001220703125</ele>
        <time>2022-05-06T08:14:16.000Z</time>
      </trkpt>
      <trkpt lat="40.33242716453969478607177734375" lon="-1.0304448567330837249755859375">
        <ele>1020.4000244140625</ele>
        <time>2022-05-06T08:14:18.000Z</time>
      </trkpt>
      <trkpt lat="40.33242247067391872406005859375" lon="-1.03036858141422271728515625">
        <ele>1020.79998779296875</ele>
        <time>2022-05-06T08:14:20.000Z</time>
      </trkpt>
      <trkpt lat="40.33241475932300090789794921875" lon="-1.03029037825763225555419921875">
        <ele>1021</ele>
        <time>2022-05-06T08:14:22.000Z</time>
      </trkpt>
      <trkpt lat="40.33240537159144878387451171875" lon="-1.0302091576159000396728515625">
        <ele>1021</ele>
        <time>2022-05-06T08:14:24.000Z</time>
      </trkpt>
      <trkpt lat="40.33240000717341899871826171875" lon="-1.030126847326755523681640625">
        <ele>1021.20001220703125</ele>
        <time>2022-05-06T08:14:26.000Z</time>
      </trkpt>
      <trkpt lat="40.33239715732634067535400390625" lon="-1.03004931472241878509521484375">
        <ele>1021.4000244140625</ele>
        <time>2022-05-06T08:14:28.000Z</time>
      </trkpt>
      <trkpt lat="40.332395397126674652099609375" lon="-1.029975302517414093017578125">
        <ele>1021.4000244140625</ele>
        <time>2022-05-06T08:14:30.000Z</time>
      </trkpt>
      <trkpt lat="40.33239481039345264434814453125" lon="-1.02993867360055446624755859375">
        <ele>1021.5999755859375</ele>
        <time>2022-05-06T08:14:31.000Z</time>
      </trkpt>
      <trkpt lat="40.33239481039345264434814453125" lon="-1.02990263141691684722900390625">
        <ele>1021.5999755859375</ele>
        <time>2022-05-06T08:14:32.000Z</time>
      </trkpt>
      <trkpt lat="40.33239715732634067535400390625" lon="-1.029828451573848724365234375">
        <ele>1021.79998779296875</ele>
        <time>2022-05-06T08:14:34.000Z</time>
      </trkpt>
      <trkpt lat="40.33240252174437046051025390625" lon="-1.02975544519722461700439453125">
        <ele>1022.20001220703125</ele>
        <time>2022-05-06T08:14:36.000Z</time>
      </trkpt>
      <trkpt lat="40.33241040073335170745849609375" lon="-1.029681600630283355712890625">
        <ele>1022.20001220703125</ele>
        <time>2022-05-06T08:14:38.000Z</time>
      </trkpt>
      <trkpt lat="40.3324190340936183929443359375" lon="-1.02960825897753238677978515625">
        <ele>1022.4000244140625</ele>
        <time>2022-05-06T08:14:40.000Z</time>
      </trkpt>
      <trkpt lat="40.3324265778064727783203125" lon="-1.02953047491610050201416015625">
        <ele>1022.4000244140625</ele>
        <time>2022-05-06T08:14:42.000Z</time>
      </trkpt>
      <trkpt lat="40.3324357978999614715576171875" lon="-1.02944699116051197052001953125">
        <ele>1022.5999755859375</ele>
        <time>2022-05-06T08:14:44.000Z</time>
      </trkpt>
      <trkpt lat="40.33244443126022815704345703125" lon="-1.029359735548496246337890625">
        <ele>1023</ele>
        <time>2022-05-06T08:14:46.000Z</time>
      </trkpt>
      <trkpt lat="40.3324478678405284881591796875" lon="-1.02927583269774913787841796875">
        <ele>1023.4000244140625</ele>
        <time>2022-05-06T08:14:48.000Z</time>
      </trkpt>
      <trkpt lat="40.3324508853256702423095703125" lon="-1.029233671724796295166015625">
        <ele>1023.5999755859375</ele>
        <time>2022-05-06T08:14:49.000Z</time>
      </trkpt>
      <trkpt lat="40.33245298080146312713623046875" lon="-1.02919184602797031402587890625">
        <ele>1023.79998779296875</ele>
        <time>2022-05-06T08:14:50.000Z</time>
      </trkpt>
      <trkpt lat="40.33245180733501911163330078125" lon="-1.02910660207271575927734375">
        <ele>1024</ele>
        <time>2022-05-06T08:14:52.000Z</time>
      </trkpt>
      <trkpt lat="40.33244091086089611053466796875" lon="-1.02901917882263660430908203125">
        <ele>1024.199951171875</ele>
        <time>2022-05-06T08:14:54.000Z</time>
      </trkpt>
      <trkpt lat="40.33241928555071353912353515625" lon="-1.0289381258189678192138671875">
        <ele>1024.4000244140625</ele>
        <time>2022-05-06T08:14:56.000Z</time>
      </trkpt>
      <trkpt lat="40.33239196054637432098388671875" lon="-1.0288643650710582733154296875">
        <ele>1024.4000244140625</ele>
        <time>2022-05-06T08:14:58.000Z</time>
      </trkpt>
      <trkpt lat="40.33236555755138397216796875" lon="-1.02878934703767299652099609375">
        <ele>1024.4000244140625</ele>
        <time>2022-05-06T08:15:00.000Z</time>
      </trkpt>
      <trkpt lat="40.3323506377637386322021484375" lon="-1.0287523828446865081787109375">
        <ele>1024.4000244140625</ele>
        <time>2022-05-06T08:15:01.000Z</time>
      </trkpt>
      <trkpt lat="40.33233261667191982269287109375" lon="-1.02871608920395374298095703125">
        <ele>1024.199951171875</ele>
        <time>2022-05-06T08:15:02.000Z</time>
      </trkpt>
      <trkpt lat="40.3322951495647430419921875" lon="-1.0286437533795833587646484375">
        <ele>1023.79998779296875</ele>
        <time>2022-05-06T08:15:04.000Z</time>
      </trkpt>
      <trkpt lat="40.3322629630565643310546875" lon="-1.02857074700295925140380859375">
        <ele>1023.4000244140625</ele>
        <time>2022-05-06T08:15:06.000Z</time>
      </trkpt>
      <trkpt lat="40.33222784288227558135986328125" lon="-1.02850017137825489044189453125">
        <ele>1022.79998779296875</ele>
        <time>2022-05-06T08:15:08.000Z</time>
      </trkpt>
      <trkpt lat="40.33221065998077392578125" lon="-1.02846463210880756378173828125">
        <ele>1022.5999755859375</ele>
        <time>2022-05-06T08:15:09.000Z</time>
      </trkpt>
      <trkpt lat="40.3321950696408748626708984375" lon="-1.02842942811548709869384765625">
        <ele>1022.4000244140625</ele>
        <time>2022-05-06T08:15:10.000Z</time>
      </trkpt>
      <trkpt lat="40.33216346986591815948486328125" lon="-1.02835969068109989166259765625">
        <ele>1022</ele>
        <time>2022-05-06T08:15:12.000Z</time>
      </trkpt>
      <trkpt lat="40.3321337141096591949462890625" lon="-1.02829162962734699249267578125">
        <ele>1021.79998779296875</ele>
        <time>2022-05-06T08:15:14.000Z</time>
      </trkpt>
      <trkpt lat="40.33210144378244876861572265625" lon="-1.028223149478435516357421875">
        <ele>1022.20001220703125</ele>
        <time>2022-05-06T08:15:16.000Z</time>
      </trkpt>
      <trkpt lat="40.3320671617984771728515625" lon="-1.0281515680253505706787109375">
        <ele>1022.4000244140625</ele>
        <time>2022-05-06T08:15:18.000Z</time>
      </trkpt>
      <trkpt lat="40.33204863779246807098388671875" lon="-1.0281177051365375518798828125">
        <ele>1022.20001220703125</ele>
        <time>2022-05-06T08:15:19.000Z</time>
      </trkpt>
      <trkpt lat="40.33203304745256900787353515625" lon="-1.02808333933353424072265625">
        <ele>1022.20001220703125</ele>
        <time>2022-05-06T08:15:20.000Z</time>
      </trkpt>
      <trkpt lat="40.3320014476776123046875" lon="-1.02801871486008167266845703125">
        <ele>1022.79998779296875</ele>
        <time>2022-05-06T08:15:22.000Z</time>
      </trkpt>
      <trkpt lat="40.3319835104048252105712890625" lon="-1.02799071930348873138427734375">
        <ele>1023</ele>
        <time>2022-05-06T08:15:23.000Z</time>
      </trkpt>
      <trkpt lat="40.3319647349417209625244140625" lon="-1.02796238847076892852783203125">
        <ele>1023.20001220703125</ele>
        <time>2022-05-06T08:15:24.000Z</time>
      </trkpt>
      <trkpt lat="40.33194889314472675323486328125" lon="-1.0279322974383831024169921875">
        <ele>1023.5999755859375</ele>
        <time>2022-05-06T08:15:25.000Z</time>
      </trkpt>
      <trkpt lat="40.33193447627127170562744140625" lon="-1.02789902128279209136962890625">
        <ele>1023.79998779296875</ele>
        <time>2022-05-06T08:15:26.000Z</time>
      </trkpt>
      <trkpt lat="40.33190832473337650299072265625" lon="-1.02783196605741977691650390625">
        <ele>1024.4000244140625</ele>
        <time>2022-05-06T08:15:28.000Z</time>
      </trkpt>
      <trkpt lat="40.33188133500516414642333984375" lon="-1.0277782380580902099609375">
        <ele>1025</ele>
        <time>2022-05-06T08:15:30.000Z</time>
      </trkpt>
      <trkpt lat="40.33185685984790325164794921875" lon="-1.0277204029262065887451171875">
        <ele>1025.4000244140625</ele>
        <time>2022-05-06T08:15:32.000Z</time>
      </trkpt>
      <trkpt lat="40.33183523453772068023681640625" lon="-1.02767053060233592987060546875">
        <ele>1025.800048828125</ele>
        <time>2022-05-06T08:15:34.000Z</time>
      </trkpt>
      <trkpt lat="40.33181704580783843994140625" lon="-1.02762191556394100189208984375">
        <ele>1026.199951171875</ele>
        <time>2022-05-06T08:15:36.000Z</time>
      </trkpt>
      <trkpt lat="40.33180631697177886962890625" lon="-1.02759517729282379150390625">
        <ele>1026.5999755859375</ele>
        <time>2022-05-06T08:15:37.000Z</time>
      </trkpt>
      <trkpt lat="40.3317934088408946990966796875" lon="-1.027566008269786834716796875">
        <ele>1026.4000244140625</ele>
        <time>2022-05-06T08:15:38.000Z</time>
      </trkpt>
      <trkpt lat="40.3317742981016635894775390625" lon="-1.02749953977763652801513671875">
        <ele>1026.199951171875</ele>
        <time>2022-05-06T08:15:40.000Z</time>
      </trkpt>
      <trkpt lat="40.33175493590533733367919921875" lon="-1.02743483148515224456787109375">
        <ele>1026</ele>
        <time>2022-05-06T08:15:42.000Z</time>
      </trkpt>
      <trkpt lat="40.33174420706927776336669921875" lon="-1.027401387691497802734375">
        <ele>1025.800048828125</ele>
        <time>2022-05-06T08:15:43.000Z</time>
      </trkpt>
      <trkpt lat="40.3317323885858058929443359375" lon="-1.02736744098365306854248046875">
        <ele>1025.800048828125</ele>
        <time>2022-05-06T08:15:44.000Z</time>
      </trkpt>
      <trkpt lat="40.33171621151268482208251953125" lon="-1.027298457920551300048828125">
        <ele>1025.5999755859375</ele>
        <time>2022-05-06T08:15:46.000Z</time>
      </trkpt>
      <trkpt lat="40.33170565031468868255615234375" lon="-1.02723601274192333221435546875">
        <ele>1025.4000244140625</ele>
        <time>2022-05-06T08:15:48.000Z</time>
      </trkpt>
      <trkpt lat="40.3316975198686122894287109375" lon="-1.0271739028394222259521484375">
        <ele>1025.800048828125</ele>
        <time>2022-05-06T08:15:50.000Z</time>
      </trkpt>
      <trkpt lat="40.33168938942253589630126953125" lon="-1.027106679975986480712890625">
        <ele>1026.199951171875</ele>
        <time>2022-05-06T08:15:52.000Z</time>
      </trkpt>
      <trkpt lat="40.3316820971667766571044921875" lon="-1.027026213705539703369140625">
        <ele>1026.800048828125</ele>
        <time>2022-05-06T08:15:54.000Z</time>
      </trkpt>
      <trkpt lat="40.33167296089231967926025390625" lon="-1.0269494354724884033203125">
        <ele>1027.199951171875</ele>
        <time>2022-05-06T08:15:56.000Z</time>
      </trkpt>
      <trkpt lat="40.331666506826877593994140625" lon="-1.026878692209720611572265625">
        <ele>1027.5999755859375</ele>
        <time>2022-05-06T08:15:58.000Z</time>
      </trkpt>
      <trkpt lat="40.33165737055242061614990234375" lon="-1.0268175043165683746337890625">
        <ele>1027.800048828125</ele>
        <time>2022-05-06T08:16:00.000Z</time>
      </trkpt>
      <trkpt lat="40.3316549398005008697509765625" lon="-1.02678841911256313323974609375">
        <ele>1027.800048828125</ele>
        <time>2022-05-06T08:16:01.000Z</time>
      </trkpt>
      <trkpt lat="40.33165334723889827728271484375" lon="-1.02675539441406726837158203125">
        <ele>1028</ele>
        <time>2022-05-06T08:16:02.000Z</time>
      </trkpt>
      <trkpt lat="40.3316569514572620391845703125" lon="-1.02668331004679203033447265625">
        <ele>1028.199951171875</ele>
        <time>2022-05-06T08:16:04.000Z</time>
      </trkpt>
      <trkpt lat="40.33165820874273777008056640625" lon="-1.026603765785694122314453125">
        <ele>1028.5999755859375</ele>
        <time>2022-05-06T08:16:06.000Z</time>
      </trkpt>
      <trkpt lat="40.3316656686365604400634765625" lon="-1.0265227966010570526123046875">
        <ele>1029</ele>
        <time>2022-05-06T08:16:08.000Z</time>
      </trkpt>
      <trkpt lat="40.331671871244907379150390625" lon="-1.02643906138837337493896484375">
        <ele>1029.4000244140625</ele>
        <time>2022-05-06T08:16:10.000Z</time>
      </trkpt>
      <trkpt lat="40.3316782414913177490234375" lon="-1.02635725401341915130615234375">
        <ele>1030</ele>
        <time>2022-05-06T08:16:12.000Z</time>
      </trkpt>
      <trkpt lat="40.33168754540383815765380859375" lon="-1.02627846412360668182373046875">
        <ele>1030.800048828125</ele>
        <time>2022-05-06T08:16:14.000Z</time>
      </trkpt>
      <trkpt lat="40.33169232308864593505859375" lon="-1.02621107362210750579833984375">
        <ele>1031.4000244140625</ele>
        <time>2022-05-06T08:16:16.000Z</time>
      </trkpt>
      <trkpt lat="40.3316995315253734588623046875" lon="-1.026143096387386322021484375">
        <ele>1032</ele>
        <time>2022-05-06T08:16:18.000Z</time>
      </trkpt>
      <trkpt lat="40.33170699141919612884521484375" lon="-1.02606874890625476837158203125">
        <ele>1032.800048828125</ele>
        <time>2022-05-06T08:16:20.000Z</time>
      </trkpt>
      <trkpt lat="40.3317142836749553680419921875" lon="-1.02599599398672580718994140625">
        <ele>1033.4000244140625</ele>
        <time>2022-05-06T08:16:22.000Z</time>
      </trkpt>
      <trkpt lat="40.33171956427395343780517578125" lon="-1.0259565152227878570556640625">
        <ele>1033.5999755859375</ele>
        <time>2022-05-06T08:16:23.000Z</time>
      </trkpt>
      <trkpt lat="40.3317250125110149383544921875" lon="-1.025916449725627899169921875">
        <ele>1033.800048828125</ele>
        <time>2022-05-06T08:16:24.000Z</time>
      </trkpt>
      <trkpt lat="40.331738255918025970458984375" lon="-1.0258384980261325836181640625">
        <ele>1034.199951171875</ele>
        <time>2022-05-06T08:16:26.000Z</time>
      </trkpt>
      <trkpt lat="40.33175510354340076446533203125" lon="-1.025764234364032745361328125">
        <ele>1034.5999755859375</ele>
        <time>2022-05-06T08:16:28.000Z</time>
      </trkpt>
      <trkpt lat="40.3317625634372234344482421875" lon="-1.0257281921803951263427734375">
        <ele>1034.800048828125</ele>
        <time>2022-05-06T08:16:29.000Z</time>
      </trkpt>
      <trkpt lat="40.33177019096910953521728515625" lon="-1.02568971924483776092529296875">
        <ele>1035.199951171875</ele>
        <time>2022-05-06T08:16:30.000Z</time>
      </trkpt>
      <trkpt lat="40.331787206232547760009765625" lon="-1.02561897598206996917724609375">
        <ele>1035.5999755859375</ele>
        <time>2022-05-06T08:16:32.000Z</time>
      </trkpt>
      <trkpt lat="40.3317997790873050689697265625" lon="-1.02555091492831707000732421875">
        <ele>1035.5999755859375</ele>
        <time>2022-05-06T08:16:34.000Z</time>
      </trkpt>
      <trkpt lat="40.33180992119014263153076171875" lon="-1.0254824347794055938720703125">
        <ele>1035.4000244140625</ele>
        <time>2022-05-06T08:16:36.000Z</time>
      </trkpt>
      <trkpt lat="40.331820063292980194091796875" lon="-1.02544932626187801361083984375">
        <ele>1035.4000244140625</ele>
        <time>2022-05-06T08:16:37.000Z</time>
      </trkpt>
      <trkpt lat="40.33183121122419834136962890625" lon="-1.02541747502982616424560546875">
        <ele>1035.4000244140625</ele>
        <time>2022-05-06T08:16:38.000Z</time>
      </trkpt>
      <trkpt lat="40.33185250125825405120849609375" lon="-1.02535016834735870361328125">
        <ele>1035.4000244140625</ele>
        <time>2022-05-06T08:16:40.000Z</time>
      </trkpt>
      <trkpt lat="40.33188267610967159271240234375" lon="-1.0252802632749080657958984375">
        <ele>1035.5999755859375</ele>
        <time>2022-05-06T08:16:42.000Z</time>
      </trkpt>
      <trkpt lat="40.33191050402820110321044921875" lon="-1.02521295659244060516357421875">
        <ele>1035.5999755859375</ele>
        <time>2022-05-06T08:16:44.000Z</time>
      </trkpt>
      <trkpt lat="40.33194352872669696807861328125" lon="-1.0251518525183200836181640625">
        <ele>1035.800048828125</ele>
        <time>2022-05-06T08:16:46.000Z</time>
      </trkpt>
      <trkpt lat="40.33197462558746337890625" lon="-1.02508655749261379241943359375">
        <ele>1036</ele>
        <time>2022-05-06T08:16:48.000Z</time>
      </trkpt>
      <trkpt lat="40.33200614154338836669921875" lon="-1.025019250810146331787109375">
        <ele>1036.199951171875</ele>
        <time>2022-05-06T08:16:50.000Z</time>
      </trkpt>
      <trkpt lat="40.33203891478478908538818359375" lon="-1.02495588362216949462890625">
        <ele>1036.4000244140625</ele>
        <time>2022-05-06T08:16:52.000Z</time>
      </trkpt>
      <trkpt lat="40.3320564329624176025390625" lon="-1.02492579258978366851806640625">
        <ele>1036.5999755859375</ele>
        <time>2022-05-06T08:16:53.000Z</time>
      </trkpt>
      <trkpt lat="40.33207210712134838104248046875" lon="-1.02489645592868328094482421875">
        <ele>1036.5999755859375</ele>
        <time>2022-05-06T08:16:54.000Z</time>
      </trkpt>
      <trkpt lat="40.33210278488695621490478515625" lon="-1.0248380340635776519775390625">
        <ele>1036.800048828125</ele>
        <time>2022-05-06T08:16:56.000Z</time>
      </trkpt>
      <trkpt lat="40.33213161863386631011962890625" lon="-1.0247768461704254150390625">
        <ele>1037</ele>
        <time>2022-05-06T08:16:58.000Z</time>
      </trkpt>
      <trkpt lat="40.332163386046886444091796875" lon="-1.02471523918211460113525390625">
        <ele>1037</ele>
        <time>2022-05-06T08:17:00.000Z</time>
      </trkpt>
      <trkpt lat="40.33220286481082439422607421875" lon="-1.02465606294572353363037109375">
        <ele>1037</ele>
        <time>2022-05-06T08:17:02.000Z</time>
      </trkpt>
      <trkpt lat="40.3322403319180011749267578125" lon="-1.02459822781383991241455078125">
        <ele>1037</ele>
        <time>2022-05-06T08:17:04.000Z</time>
      </trkpt>
      <trkpt lat="40.33227503299713134765625" lon="-1.02454324252903461456298828125">
        <ele>1036.800048828125</ele>
        <time>2022-05-06T08:17:06.000Z</time>
      </trkpt>
      <trkpt lat="40.3323139250278472900390625" lon="-1.02448691613972187042236328125">
        <ele>1036.800048828125</ele>
        <time>2022-05-06T08:17:08.000Z</time>
      </trkpt>
      <trkpt lat="40.332349129021167755126953125" lon="-1.0244343616068363189697265625">
        <ele>1036.800048828125</ele>
        <time>2022-05-06T08:17:10.000Z</time>
      </trkpt>
      <trkpt lat="40.33239481039345264434814453125" lon="-1.0243894346058368682861328125">
        <ele>1037</ele>
        <time>2022-05-06T08:17:12.000Z</time>
      </trkpt>
      <trkpt lat="40.33243889920413494110107421875" lon="-1.02434031665325164794921875">
        <ele>1037.199951171875</ele>
        <time>2022-05-06T08:17:14.000Z</time>
      </trkpt>
      <trkpt lat="40.332477875053882598876953125" lon="-1.024287007749080657958984375">
        <ele>1037.199951171875</ele>
        <time>2022-05-06T08:17:16.000Z</time>
      </trkpt>
      <trkpt lat="40.3325199522078037261962890625" lon="-1.0242350399494171142578125">
        <ele>1037.199951171875</ele>
        <time>2022-05-06T08:17:18.000Z</time>
      </trkpt>
      <trkpt lat="40.33257535658776760101318359375" lon="-1.0241832397878170013427734375">
        <ele>1037.4000244140625</ele>
        <time>2022-05-06T08:17:20.000Z</time>
      </trkpt>
      <trkpt lat="40.33261441625654697418212890625" lon="-1.02412708103656768798828125">
        <ele>1037.4000244140625</ele>
        <time>2022-05-06T08:17:22.000Z</time>
      </trkpt>
      <trkpt lat="40.3326336108148097991943359375" lon="-1.0241007618606090545654296875">
        <ele>1037.4000244140625</ele>
        <time>2022-05-06T08:17:23.000Z</time>
      </trkpt>
      <trkpt lat="40.33265548758208751678466796875" lon="-1.0240762867033481597900390625">
        <ele>1037.5999755859375</ele>
        <time>2022-05-06T08:17:24.000Z</time>
      </trkpt>
      <trkpt lat="40.3326936252415180206298828125" lon="-1.024029515683650970458984375">
        <ele>1037.5999755859375</ele>
        <time>2022-05-06T08:17:26.000Z</time>
      </trkpt>
      <trkpt lat="40.332736708223819732666015625" lon="-1.0239844210445880889892578125">
        <ele>1037.800048828125</ele>
        <time>2022-05-06T08:17:28.000Z</time>
      </trkpt>
      <trkpt lat="40.33275774680078029632568359375" lon="-1.02396170608699321746826171875">
        <ele>1037.800048828125</ele>
        <time>2022-05-06T08:17:29.000Z</time>
      </trkpt>
      <trkpt lat="40.33278155140578746795654296875" lon="-1.0239408351480960845947265625">
        <ele>1037.800048828125</ele>
        <time>2022-05-06T08:17:30.000Z</time>
      </trkpt>
      <trkpt lat="40.3328263945877552032470703125" lon="-1.02389398030936717987060546875">
        <ele>1038</ele>
        <time>2022-05-06T08:17:32.000Z</time>
      </trkpt>
      <trkpt lat="40.33286620862782001495361328125" lon="-1.02384955622255802154541015625">
        <ele>1038.4000244140625</ele>
        <time>2022-05-06T08:17:34.000Z</time>
      </trkpt>
      <trkpt lat="40.332905352115631103515625" lon="-1.0238006897270679473876953125">
        <ele>1038.4000244140625</ele>
        <time>2022-05-06T08:17:36.000Z</time>
      </trkpt>
      <trkpt lat="40.33294868655502796173095703125" lon="-1.02375349961221218109130859375">
        <ele>1038.800048828125</ele>
        <time>2022-05-06T08:17:38.000Z</time>
      </trkpt>
      <trkpt lat="40.33299512229859828948974609375" lon="-1.02370798587799072265625">
        <ele>1039</ele>
        <time>2022-05-06T08:17:40.000Z</time>
      </trkpt>
      <trkpt lat="40.33303719945251941680908203125" lon="-1.0236598737537860870361328125">
        <ele>1039</ele>
        <time>2022-05-06T08:17:42.000Z</time>
      </trkpt>
      <trkpt lat="40.33307810313999652862548828125" lon="-1.02361385710537433624267578125">
        <ele>1039</ele>
        <time>2022-05-06T08:17:44.000Z</time>
      </trkpt>
      <trkpt lat="40.333125293254852294921875" lon="-1.02357513271272182464599609375">
        <ele>1039.199951171875</ele>
        <time>2022-05-06T08:17:46.000Z</time>
      </trkpt>
      <trkpt lat="40.33315018750727176666259765625" lon="-1.0235569439828395843505859375">
        <ele>1039.4000244140625</ele>
        <time>2022-05-06T08:17:47.000Z</time>
      </trkpt>
      <trkpt lat="40.33317382447421550750732421875" lon="-1.02353699505329132080078125">
        <ele>1039.4000244140625</ele>
        <time>2022-05-06T08:17:48.000Z</time>
      </trkpt>
      <trkpt lat="40.333221517503261566162109375" lon="-1.0235016234219074249267578125">
        <ele>1039.5999755859375</ele>
        <time>2022-05-06T08:17:50.000Z</time>
      </trkpt>
      <trkpt lat="40.33326418139040470123291015625" lon="-1.0234677605330944061279296875">
        <ele>1039.800048828125</ele>
        <time>2022-05-06T08:17:52.000Z</time>
      </trkpt>
      <trkpt lat="40.33330407924950122833251953125" lon="-1.02343649603426456451416015625">
        <ele>1039.800048828125</ele>
        <time>2022-05-06T08:17:54.000Z</time>
      </trkpt>
      <trkpt lat="40.33332419581711292266845703125" lon="-1.023422665894031524658203125">
        <ele>1040</ele>
        <time>2022-05-06T08:17:55.000Z</time>
      </trkpt>
      <trkpt lat="40.33334632404148578643798828125" lon="-1.02341118268668651580810546875">
        <ele>1040</ele>
        <time>2022-05-06T08:17:56.000Z</time>
      </trkpt>
      <trkpt lat="40.333398543298244476318359375" lon="-1.02338687516748905181884765625">
        <ele>1040.4000244140625</ele>
        <time>2022-05-06T08:17:58.000Z</time>
      </trkpt>
      <trkpt lat="40.33344791270792484283447265625" lon="-1.02336240001022815704345703125">
        <ele>1040.5999755859375</ele>
        <time>2022-05-06T08:18:00.000Z</time>
      </trkpt>
      <trkpt lat="40.33350004814565181732177734375" lon="-1.02334278635680675506591796875">
        <ele>1041</ele>
        <time>2022-05-06T08:18:02.000Z</time>
      </trkpt>
      <trkpt lat="40.33355117775499820709228515625" lon="-1.0233262740075588226318359375">
        <ele>1041.199951171875</ele>
        <time>2022-05-06T08:18:04.000Z</time>
      </trkpt>
      <trkpt lat="40.3335767425596714019775390625" lon="-1.02331646718084812164306640625">
        <ele>1041.4000244140625</ele>
        <time>2022-05-06T08:18:05.000Z</time>
      </trkpt>
      <trkpt lat="40.33360448665916919708251953125" lon="-1.02330808527767658233642578125">
        <ele>1041.5999755859375</ele>
        <time>2022-05-06T08:18:06.000Z</time>
      </trkpt>
      <trkpt lat="40.33366098068654537200927734375" lon="-1.02329551242291927337646484375">
        <ele>1042.199951171875</ele>
        <time>2022-05-06T08:18:08.000Z</time>
      </trkpt>
      <trkpt lat="40.33371060155332088470458984375" lon="-1.0232793353497982025146484375">
        <ele>1042.4000244140625</ele>
        <time>2022-05-06T08:18:10.000Z</time>
      </trkpt>
      <trkpt lat="40.3337631560862064361572265625" lon="-1.0232642479240894317626953125">
        <ele>1042.800048828125</ele>
        <time>2022-05-06T08:18:12.000Z</time>
      </trkpt>
      <trkpt lat="40.33381671644747257232666015625" lon="-1.023247651755809783935546875">
        <ele>1043.199951171875</ele>
        <time>2022-05-06T08:18:14.000Z</time>
      </trkpt>
      <trkpt lat="40.33386348746716976165771484375" lon="-1.02322041057050228118896484375">
        <ele>1043.4000244140625</ele>
        <time>2022-05-06T08:18:16.000Z</time>
      </trkpt>
      <trkpt lat="40.33388930372893810272216796875" lon="-1.023210100829601287841796875">
        <ele>1043.5999755859375</ele>
        <time>2022-05-06T08:18:17.000Z</time>
      </trkpt>
      <trkpt lat="40.3339143656194210052490234375" lon="-1.02319777943193912506103515625">
        <ele>1043.800048828125</ele>
        <time>2022-05-06T08:18:18.000Z</time>
      </trkpt>
      <trkpt lat="40.33396725542843341827392578125" lon="-1.02317154407501220703125">
        <ele>1044</ele>
        <time>2022-05-06T08:18:20.000Z</time>
      </trkpt>
      <trkpt lat="40.33402291126549243927001953125" lon="-1.02314430288970470428466796875">
        <ele>1044.199951171875</ele>
        <time>2022-05-06T08:18:22.000Z</time>
      </trkpt>
      <trkpt lat="40.334077142179012298583984375" lon="-1.02311060763895511627197265625">
        <ele>1044.4000244140625</ele>
        <time>2022-05-06T08:18:24.000Z</time>
      </trkpt>
      <trkpt lat="40.33414243720471858978271484375" lon="-1.02307431399822235107421875">
        <ele>1044.800048828125</ele>
        <time>2022-05-06T08:18:26.000Z</time>
      </trkpt>
      <trkpt lat="40.33420211635529994964599609375" lon="-1.02302611805498600006103515625">
        <ele>1044.800048828125</ele>
        <time>2022-05-06T08:18:28.000Z</time>
      </trkpt>
      <trkpt lat="40.33426883630454540252685546875" lon="-1.02297649718821048736572265625">
        <ele>1045</ele>
        <time>2022-05-06T08:18:30.000Z</time>
      </trkpt>
      <trkpt lat="40.33430202864110469818115234375" lon="-1.0229517705738544464111328125">
        <ele>1045</ele>
        <time>2022-05-06T08:18:31.000Z</time>
      </trkpt>
      <trkpt lat="40.334332287311553955078125" lon="-1.022929139435291290283203125">
        <ele>1045</ele>
        <time>2022-05-06T08:18:32.000Z</time>
      </trkpt>
      <trkpt lat="40.334375537931919097900390625" lon="-1.022880189120769500732421875">
        <ele>1045</ele>
        <time>2022-05-06T08:18:34.000Z</time>
      </trkpt>
      <trkpt lat="40.3344275057315826416015625" lon="-1.02282713167369365692138671875">
        <ele>1045</ele>
        <time>2022-05-06T08:18:36.000Z</time>
      </trkpt>
      <trkpt lat="40.3344779647886753082275390625" lon="-1.022771559655666351318359375">
        <ele>1045</ele>
        <time>2022-05-06T08:18:38.000Z</time>
      </trkpt>
      <trkpt lat="40.3345349617302417755126953125" lon="-1.02271221578121185302734375">
        <ele>1045</ele>
        <time>2022-05-06T08:18:40.000Z</time>
      </trkpt>
      <trkpt lat="40.33458583988249301910400390625" lon="-1.0226525366306304931640625">
        <ele>1045</ele>
        <time>2022-05-06T08:18:42.000Z</time>
      </trkpt>
      <trkpt lat="40.334637723863124847412109375" lon="-1.02259009145200252532958984375">
        <ele>1044.800048828125</ele>
        <time>2022-05-06T08:18:44.000Z</time>
      </trkpt>
      <trkpt lat="40.33468055538833141326904296875" lon="-1.0225345194339752197265625">
        <ele>1044.800048828125</ele>
        <time>2022-05-06T08:18:46.000Z</time>
      </trkpt>
      <trkpt lat="40.3347156755626201629638671875" lon="-1.02247794158756732940673828125">
        <ele>1044.800048828125</ele>
        <time>2022-05-06T08:18:48.000Z</time>
      </trkpt>
      <trkpt lat="40.3347435034811496734619140625" lon="-1.02242278866469860076904296875">
        <ele>1044.5999755859375</ele>
        <time>2022-05-06T08:18:50.000Z</time>
      </trkpt>
      <trkpt lat="40.33477820456027984619140625" lon="-1.02236218750476837158203125">
        <ele>1044.5999755859375</ele>
        <time>2022-05-06T08:18:52.000Z</time>
      </trkpt>
      <trkpt lat="40.33482891507446765899658203125" lon="-1.0223040170967578887939453125">
        <ele>1044.800048828125</ele>
        <time>2022-05-06T08:18:54.000Z</time>
      </trkpt>
      <trkpt lat="40.3348836489021778106689453125" lon="-1.02225330658257007598876953125">
        <ele>1045</ele>
        <time>2022-05-06T08:18:56.000Z</time>
      </trkpt>
      <trkpt lat="40.3349262289702892303466796875" lon="-1.02220058441162109375">
        <ele>1045</ele>
        <time>2022-05-06T08:18:58.000Z</time>
      </trkpt>
      <trkpt lat="40.334972329437732696533203125" lon="-1.022146604955196380615234375">
        <ele>1045</ele>
        <time>2022-05-06T08:19:00.000Z</time>
      </trkpt>
      <trkpt lat="40.33501264639198780059814453125" lon="-1.0220954753458499908447265625">
        <ele>1045.199951171875</ele>
        <time>2022-05-06T08:19:02.000Z</time>
      </trkpt>
      <trkpt lat="40.33505338244140148162841796875" lon="-1.02204828523099422454833984375">
        <ele>1045.199951171875</ele>
        <time>2022-05-06T08:19:04.000Z</time>
      </trkpt>
      <trkpt lat="40.33510317094624042510986328125" lon="-1.02199564687907695770263671875">
        <ele>1045.4000244140625</ele>
        <time>2022-05-06T08:19:06.000Z</time>
      </trkpt>
      <trkpt lat="40.3351451642811298370361328125" lon="-1.02194384671747684478759765625">
        <ele>1045.4000244140625</ele>
        <time>2022-05-06T08:19:08.000Z</time>
      </trkpt>
      <trkpt lat="40.33518933691084384918212890625" lon="-1.02189053781330585479736328125">
        <ele>1045.5999755859375</ele>
        <time>2022-05-06T08:19:10.000Z</time>
      </trkpt>
      <trkpt lat="40.3352363593876361846923828125" lon="-1.02184376679360866546630859375">
        <ele>1045.800048828125</ele>
        <time>2022-05-06T08:19:12.000Z</time>
      </trkpt>
      <trkpt lat="40.33528220839798450469970703125" lon="-1.0217923857271671295166015625">
        <ele>1045.800048828125</ele>
        <time>2022-05-06T08:19:14.000Z</time>
      </trkpt>
      <trkpt lat="40.33532378263771533966064453125" lon="-1.021738909184932708740234375">
        <ele>1045.800048828125</ele>
        <time>2022-05-06T08:19:16.000Z</time>
      </trkpt>
      <trkpt lat="40.335365273058414459228515625" lon="-1.02168819867074489593505859375">
        <ele>1046</ele>
        <time>2022-05-06T08:19:18.000Z</time>
      </trkpt>
      <trkpt lat="40.33540944568812847137451171875" lon="-1.02163790725171566009521484375">
        <ele>1046</ele>
        <time>2022-05-06T08:19:20.000Z</time>
      </trkpt>
      <trkpt lat="40.335449762642383575439453125" lon="-1.02158510126173496246337890625">
        <ele>1046.199951171875</ele>
        <time>2022-05-06T08:19:22.000Z</time>
      </trkpt>
      <trkpt lat="40.33548890613019466400146484375" lon="-1.02153950370848178863525390625">
        <ele>1046.199951171875</ele>
        <time>2022-05-06T08:19:24.000Z</time>
      </trkpt>
      <trkpt lat="40.33552092500030994415283203125" lon="-1.021487452089786529541015625">
        <ele>1046</ele>
        <time>2022-05-06T08:19:26.000Z</time>
      </trkpt>
      <trkpt lat="40.33556082285940647125244140625" lon="-1.02143405936658382415771484375">
        <ele>1045.800048828125</ele>
        <time>2022-05-06T08:19:28.000Z</time>
      </trkpt>
      <trkpt lat="40.33560290001332759857177734375" lon="-1.0213749669492244720458984375">
        <ele>1045.800048828125</ele>
        <time>2022-05-06T08:19:30.000Z</time>
      </trkpt>
      <trkpt lat="40.3356437198817729949951171875" lon="-1.021319143474102020263671875">
        <ele>1045.800048828125</ele>
        <time>2022-05-06T08:19:32.000Z</time>
      </trkpt>
      <trkpt lat="40.3356862999498844146728515625" lon="-1.0212653316557407379150390625">
        <ele>1045.800048828125</ele>
        <time>2022-05-06T08:19:34.000Z</time>
      </trkpt>
      <trkpt lat="40.335728712379932403564453125" lon="-1.02121286094188690185546875">
        <ele>1046</ele>
        <time>2022-05-06T08:19:36.000Z</time>
      </trkpt>
      <trkpt lat="40.335766933858394622802734375" lon="-1.02115846239030361175537109375">
        <ele>1046</ele>
        <time>2022-05-06T08:19:38.000Z</time>
      </trkpt>
      <trkpt lat="40.33580624498426914215087890625" lon="-1.02110297419130802154541015625">
        <ele>1046</ele>
        <time>2022-05-06T08:19:40.000Z</time>
      </trkpt>
      <trkpt lat="40.33584698103368282318115234375" lon="-1.021046899259090423583984375">
        <ele>1046</ele>
        <time>2022-05-06T08:19:42.000Z</time>
      </trkpt>
      <trkpt lat="40.33586458303034305572509765625" lon="-1.02101865224540233612060546875">
        <ele>1046</ele>
        <time>2022-05-06T08:19:43.000Z</time>
      </trkpt>
      <trkpt lat="40.33588352613151073455810546875" lon="-1.020991913974285125732421875">
        <ele>1046</ele>
        <time>2022-05-06T08:19:44.000Z</time>
      </trkpt>
      <trkpt lat="40.3359273634850978851318359375" lon="-1.02093533612787723541259765625">
        <ele>1046</ele>
        <time>2022-05-06T08:19:46.000Z</time>
      </trkpt>
      <trkpt lat="40.33596868626773357391357421875" lon="-1.02087498642504215240478515625">
        <ele>1046</ele>
        <time>2022-05-06T08:19:48.000Z</time>
      </trkpt>
      <trkpt lat="40.335988886654376983642578125" lon="-1.0208445601165294647216796875">
        <ele>1046</ele>
        <time>2022-05-06T08:19:49.000Z</time>
      </trkpt>
      <trkpt lat="40.33600741066038608551025390625" lon="-1.020815558731555938720703125">
        <ele>1046</ele>
        <time>2022-05-06T08:19:50.000Z</time>
      </trkpt>
      <trkpt lat="40.336048565804958343505859375" lon="-1.02076434530317783355712890625">
        <ele>1046</ele>
        <time>2022-05-06T08:19:52.000Z</time>
      </trkpt>
      <trkpt lat="40.3360939957201480865478515625" lon="-1.0207040794193744659423828125">
        <ele>1046.199951171875</ele>
        <time>2022-05-06T08:19:54.000Z</time>
      </trkpt>
      <trkpt lat="40.33611469902098178863525390625" lon="-1.02067633531987667083740234375">
        <ele>1046.199951171875</ele>
        <time>2022-05-06T08:19:55.000Z</time>
      </trkpt>
      <trkpt lat="40.336133725941181182861328125" lon="-1.02065135724842548370361328125">
        <ele>1046.199951171875</ele>
        <time>2022-05-06T08:19:56.000Z</time>
      </trkpt>
      <trkpt lat="40.3361704386770725250244140625" lon="-1.020605005323886871337890625">
        <ele>1046.199951171875</ele>
        <time>2022-05-06T08:19:58.000Z</time>
      </trkpt>
      <trkpt lat="40.33621394075453281402587890625" lon="-1.020556055009365081787109375">
        <ele>1046.4000244140625</ele>
        <time>2022-05-06T08:20:00.000Z</time>
      </trkpt>
      <trkpt lat="40.33625769428908824920654296875" lon="-1.02050400339066982269287109375">
        <ele>1046.5999755859375</ele>
        <time>2022-05-06T08:20:02.000Z</time>
      </trkpt>
      <trkpt lat="40.33629977144300937652587890625" lon="-1.02046041749417781829833984375">
        <ele>1046.800048828125</ele>
        <time>2022-05-06T08:20:04.000Z</time>
      </trkpt>
      <trkpt lat="40.3363399207592010498046875" lon="-1.0204100422561168670654296875">
        <ele>1047.199951171875</ele>
        <time>2022-05-06T08:20:06.000Z</time>
      </trkpt>
      <trkpt lat="40.3363608755171298980712890625" lon="-1.020383723080158233642578125">
        <ele>1047.4000244140625</ele>
        <time>2022-05-06T08:20:07.000Z</time>
      </trkpt>
      <trkpt lat="40.3363806568086147308349609375" lon="-1.02035363204777240753173828125">
        <ele>1047.5999755859375</ele>
        <time>2022-05-06T08:20:08.000Z</time>
      </trkpt>
      <trkpt lat="40.3364202193915843963623046875" lon="-1.02030090987682342529296875">
        <ele>1047.800048828125</ele>
        <time>2022-05-06T08:20:10.000Z</time>
      </trkpt>
      <trkpt lat="40.33646221272647380828857421875" lon="-1.020246930420398712158203125">
        <ele>1048.199951171875</ele>
        <time>2022-05-06T08:20:12.000Z</time>
      </trkpt>
      <trkpt lat="40.33649087883532047271728515625" lon="-1.02019705809652805328369140625">
        <ele>1048.5999755859375</ele>
        <time>2022-05-06T08:20:14.000Z</time>
      </trkpt>
      <trkpt lat="40.3365107439458370208740234375" lon="-1.020170152187347412109375">
        <ele>1048.800048828125</ele>
        <time>2022-05-06T08:20:15.000Z</time>
      </trkpt>
      <trkpt lat="40.33652968704700469970703125" lon="-1.02014743722975254058837890625">
        <ele>1048.800048828125</ele>
        <time>2022-05-06T08:20:16.000Z</time>
      </trkpt>
      <trkpt lat="40.33656832762062549591064453125" lon="-1.02009463123977184295654296875">
        <ele>1049.199951171875</ele>
        <time>2022-05-06T08:20:18.000Z</time>
      </trkpt>
      <trkpt lat="40.3365989215672016143798828125" lon="-1.02003403007984161376953125">
        <ele>1049.4000244140625</ele>
        <time>2022-05-06T08:20:20.000Z</time>
      </trkpt>
      <trkpt lat="40.3366161882877349853515625" lon="-1.02000578306615352630615234375">
        <ele>1049.5999755859375</ele>
        <time>2022-05-06T08:20:21.000Z</time>
      </trkpt>
      <trkpt lat="40.33663270063698291778564453125" lon="-1.01997594349086284637451171875">
        <ele>1049.800048828125</ele>
        <time>2022-05-06T08:20:22.000Z</time>
      </trkpt>
      <trkpt lat="40.33666555769741535186767578125" lon="-1.01992079056799411773681640625">
        <ele>1050</ele>
        <time>2022-05-06T08:20:24.000Z</time>
      </trkpt>
      <trkpt lat="40.3366993367671966552734375" lon="-1.0198684036731719970703125">
        <ele>1050.4000244140625</ele>
        <time>2022-05-06T08:20:26.000Z</time>
      </trkpt>
      <trkpt lat="40.33671886660158634185791015625" lon="-1.01984049193561077117919921875">
        <ele>1050.5999755859375</ele>
        <time>2022-05-06T08:20:27.000Z</time>
      </trkpt>
      <trkpt lat="40.33673889935016632080078125" lon="-1.01981140673160552978515625">
        <ele>1050.800048828125</ele>
        <time>2022-05-06T08:20:28.000Z</time>
      </trkpt>
      <trkpt lat="40.33678156323730945587158203125" lon="-1.01975851692259311676025390625">
        <ele>1051.199951171875</ele>
        <time>2022-05-06T08:20:30.000Z</time>
      </trkpt>
      <trkpt lat="40.33681877888739109039306640625" lon="-1.01970948278903961181640625">
        <ele>1051.199951171875</ele>
        <time>2022-05-06T08:20:32.000Z</time>
      </trkpt>
      <trkpt lat="40.33683671616017818450927734375" lon="-1.01968534290790557861328125">
        <ele>1051.199951171875</ele>
        <time>2022-05-06T08:20:33.000Z</time>
      </trkpt>
      <trkpt lat="40.336859263479709625244140625" lon="-1.0196590237319469451904296875">
        <ele>1051.199951171875</ele>
        <time>2022-05-06T08:20:34.000Z</time>
      </trkpt>
      <trkpt lat="40.336903519928455352783203125" lon="-1.01960797794163227081298828125">
        <ele>1051.4000244140625</ele>
        <time>2022-05-06T08:20:36.000Z</time>
      </trkpt>
      <trkpt lat="40.3369460999965667724609375" lon="-1.01956070400774478912353515625">
        <ele>1051.5999755859375</ele>
        <time>2022-05-06T08:20:38.000Z</time>
      </trkpt>
      <trkpt lat="40.3369834832847118377685546875" lon="-1.01951661519706249237060546875">
        <ele>1051.5999755859375</ele>
        <time>2022-05-06T08:20:40.000Z</time>
      </trkpt>
      <trkpt lat="40.33700234256684780120849609375" lon="-1.01949381642043590545654296875">
        <ele>1051.5999755859375</ele>
        <time>2022-05-06T08:20:41.000Z</time>
      </trkpt>
      <trkpt lat="40.33702396787703037261962890625" lon="-1.0194682516157627105712890625">
        <ele>1051.800048828125</ele>
        <time>2022-05-06T08:20:42.000Z</time>
      </trkpt>
      <trkpt lat="40.33704676665365695953369140625" lon="-1.019443608820438385009765625">
        <ele>1051.800048828125</ele>
        <time>2022-05-06T08:20:43.000Z</time>
      </trkpt>
      <trkpt lat="40.33706822432577610015869140625" lon="-1.01941921748220920562744140625">
        <ele>1051.800048828125</ele>
        <time>2022-05-06T08:20:44.000Z</time>
      </trkpt>
      <trkpt lat="40.337110050022602081298828125" lon="-1.01937009952962398529052734375">
        <ele>1052</ele>
        <time>2022-05-06T08:20:46.000Z</time>
      </trkpt>
      <trkpt lat="40.3371521271765232086181640625" lon="-1.01932324469089508056640625">
        <ele>1052</ele>
        <time>2022-05-06T08:20:48.000Z</time>
      </trkpt>
      <trkpt lat="40.33717266283929347991943359375" lon="-1.01930270902812480926513671875">
        <ele>1052</ele>
        <time>2022-05-06T08:20:49.000Z</time>
      </trkpt>
      <trkpt lat="40.33719277940690517425537109375" lon="-1.01928443647921085357666015625">
        <ele>1052</ele>
        <time>2022-05-06T08:20:50.000Z</time>
      </trkpt>
      <trkpt lat="40.33722949214279651641845703125" lon="-1.01923850364983081817626953125">
        <ele>1052</ele>
        <time>2022-05-06T08:20:52.000Z</time>
      </trkpt>
      <trkpt lat="40.3372572362422943115234375" lon="-1.01919273845851421356201171875">
        <ele>1051.800048828125</ele>
        <time>2022-05-06T08:20:54.000Z</time>
      </trkpt>
      <trkpt lat="40.3372902609407901763916015625" lon="-1.0191549360752105712890625">
        <ele>1051.800048828125</ele>
        <time>2022-05-06T08:20:56.000Z</time>
      </trkpt>
      <trkpt lat="40.33732890151441097259521484375" lon="-1.0191229172050952911376953125">
        <ele>1051.800048828125</ele>
        <time>2022-05-06T08:20:58.000Z</time>
      </trkpt>
      <trkpt lat="40.33735035918653011322021484375" lon="-1.0190981067717075347900390625">
        <ele>1051.800048828125</ele>
        <time>2022-05-06T08:20:59.000Z</time>
      </trkpt>
      <trkpt lat="40.3373724035918712615966796875" lon="-1.01907036267220973968505859375">
        <ele>1051.800048828125</ele>
        <time>2022-05-06T08:21:00.000Z</time>
      </trkpt>
      <trkpt lat="40.33741121180355548858642578125" lon="-1.01901319809257984161376953125">
        <ele>1051.5999755859375</ele>
        <time>2022-05-06T08:21:02.000Z</time>
      </trkpt>
      <trkpt lat="40.33745530061423778533935546875" lon="-1.01896475069224834442138671875">
        <ele>1051.5999755859375</ele>
        <time>2022-05-06T08:21:04.000Z</time>
      </trkpt>
      <trkpt lat="40.33750223927199840545654296875" lon="-1.01890959776937961578369140625">
        <ele>1051.5999755859375</ele>
        <time>2022-05-06T08:21:06.000Z</time>
      </trkpt>
      <trkpt lat="40.3375464119017124176025390625" lon="-1.01885310374200344085693359375">
        <ele>1051.800048828125</ele>
        <time>2022-05-06T08:21:08.000Z</time>
      </trkpt>
      <trkpt lat="40.33759259618818759918212890625" lon="-1.018795184791088104248046875">
        <ele>1052</ele>
        <time>2022-05-06T08:21:10.000Z</time>
      </trkpt>
      <trkpt lat="40.33761858008801937103271484375" lon="-1.01876308210194110870361328125">
        <ele>1052</ele>
        <time>2022-05-06T08:21:11.000Z</time>
      </trkpt>
      <trkpt lat="40.33764657564461231231689453125" lon="-1.01873290725052356719970703125">
        <ele>1052.199951171875</ele>
        <time>2022-05-06T08:21:12.000Z</time>
      </trkpt>
      <trkpt lat="40.33769954927265644073486328125" lon="-1.01868898607790470123291015625">
        <ele>1052.4000244140625</ele>
        <time>2022-05-06T08:21:14.000Z</time>
      </trkpt>
      <trkpt lat="40.33771832473576068878173828125" lon="-1.01867037825286388397216796875">
        <ele>1052.5999755859375</ele>
        <time>2022-05-06T08:21:15.000Z</time>
      </trkpt>
      <trkpt lat="40.33773441798985004425048828125" lon="-1.018652357161045074462890625">
        <ele>1052.5999755859375</ele>
        <time>2022-05-06T08:21:16.000Z</time>
      </trkpt>
      <trkpt lat="40.337772555649280548095703125" lon="-1.01861757226288318634033203125">
        <ele>1052.800048828125</ele>
        <time>2022-05-06T08:21:18.000Z</time>
      </trkpt>
      <trkpt lat="40.33781974576413631439208984375" lon="-1.01857566274702548980712890625">
        <ele>1053</ele>
        <time>2022-05-06T08:21:20.000Z</time>
      </trkpt>
      <trkpt lat="40.3378662653267383575439453125" lon="-1.0185355134308338165283203125">
        <ele>1053.4000244140625</ele>
        <time>2022-05-06T08:21:22.000Z</time>
      </trkpt>
      <trkpt lat="40.33788428641855716705322265625" lon="-1.01851279847323894500732421875">
        <ele>1053.4000244140625</ele>
        <time>2022-05-06T08:21:23.000Z</time>
      </trkpt>
      <trkpt lat="40.3379034809768199920654296875" lon="-1.01849234662950038909912109375">
        <ele>1053.4000244140625</ele>
        <time>2022-05-06T08:21:24.000Z</time>
      </trkpt>
      <trkpt lat="40.33794295974075794219970703125" lon="-1.018453538417816162109375">
        <ele>1053.5999755859375</ele>
        <time>2022-05-06T08:21:26.000Z</time>
      </trkpt>
      <trkpt lat="40.33798486925661563873291015625" lon="-1.01841305382549762725830078125">
        <ele>1053.800048828125</ele>
        <time>2022-05-06T08:21:28.000Z</time>
      </trkpt>
      <trkpt lat="40.33800800330936908721923828125" lon="-1.01839528419077396392822265625">
        <ele>1054</ele>
        <time>2022-05-06T08:21:29.000Z</time>
      </trkpt>
      <trkpt lat="40.3380310535430908203125" lon="-1.01837717927992343902587890625">
        <ele>1054.199951171875</ele>
        <time>2022-05-06T08:21:30.000Z</time>
      </trkpt>
      <trkpt lat="40.33807732164859771728515625" lon="-1.01833753287792205810546875">
        <ele>1054.4000244140625</ele>
        <time>2022-05-06T08:21:32.000Z</time>
      </trkpt>
      <trkpt lat="40.3381237573921680450439453125" lon="-1.0182967968285083770751953125">
        <ele>1054.5999755859375</ele>
        <time>2022-05-06T08:21:34.000Z</time>
      </trkpt>
      <trkpt lat="40.338172875344753265380859375" lon="-1.018255390226840972900390625">
        <ele>1054.800048828125</ele>
        <time>2022-05-06T08:21:36.000Z</time>
      </trkpt>
      <trkpt lat="40.33819139935076236724853515625" lon="-1.01823301054537296295166015625">
        <ele>1055</ele>
        <time>2022-05-06T08:21:37.000Z</time>
      </trkpt>
      <trkpt lat="40.3382109291851520538330078125" lon="-1.01821239106357097625732421875">
        <ele>1055</ele>
        <time>2022-05-06T08:21:38.000Z</time>
      </trkpt>
      <trkpt lat="40.3382551856338977813720703125" lon="-1.018174253404140472412109375">
        <ele>1055.199951171875</ele>
        <time>2022-05-06T08:21:40.000Z</time>
      </trkpt>
      <trkpt lat="40.3382977657020092010498046875" lon="-1.01813460700213909149169921875">
        <ele>1055.4000244140625</ele>
        <time>2022-05-06T08:21:42.000Z</time>
      </trkpt>
      <trkpt lat="40.338314361870288848876953125" lon="-1.01811683736741542816162109375">
        <ele>1055.5999755859375</ele>
        <time>2022-05-06T08:21:43.000Z</time>
      </trkpt>
      <trkpt lat="40.338331796228885650634765625" lon="-1.01809906773269176483154296875">
        <ele>1055.5999755859375</ele>
        <time>2022-05-06T08:21:44.000Z</time>
      </trkpt>
      <trkpt lat="40.3383676707744598388671875" lon="-1.01806319318711757659912109375">
        <ele>1055.800048828125</ele>
        <time>2022-05-06T08:21:46.000Z</time>
      </trkpt>
      <trkpt lat="40.3384020365774631500244140625" lon="-1.0180282406508922576904296875">
        <ele>1056</ele>
        <time>2022-05-06T08:21:48.000Z</time>
      </trkpt>
      <trkpt lat="40.3384446166455745697021484375" lon="-1.01799781434237957000732421875">
        <ele>1056.199951171875</ele>
        <time>2022-05-06T08:21:50.000Z</time>
      </trkpt>
      <trkpt lat="40.3384803235530853271484375" lon="-1.017967052757740020751953125">
        <ele>1056.4000244140625</ele>
        <time>2022-05-06T08:21:52.000Z</time>
      </trkpt>
      <trkpt lat="40.338510833680629730224609375" lon="-1.01793344132602214813232421875">
        <ele>1056.5999755859375</ele>
        <time>2022-05-06T08:21:54.000Z</time>
      </trkpt>
      <trkpt lat="40.3385532461106777191162109375" lon="-1.0178958065807819366455078125">
        <ele>1056.800048828125</ele>
        <time>2022-05-06T08:21:56.000Z</time>
      </trkpt>
      <trkpt lat="40.33860093913972377777099609375" lon="-1.01785968057811260223388671875">
        <ele>1057</ele>
        <time>2022-05-06T08:21:58.000Z</time>
      </trkpt>
      <trkpt lat="40.338644944131374359130859375" lon="-1.01782062090933322906494140625">
        <ele>1057.199951171875</ele>
        <time>2022-05-06T08:22:00.000Z</time>
      </trkpt>
      <trkpt lat="40.33867000602185726165771484375" lon="-1.017799414694309234619140625">
        <ele>1057.4000244140625</ele>
        <time>2022-05-06T08:22:01.000Z</time>
      </trkpt>
      <trkpt lat="40.338693559169769287109375" lon="-1.01777837611734867095947265625">
        <ele>1057.4000244140625</ele>
        <time>2022-05-06T08:22:02.000Z</time>
      </trkpt>
      <trkpt lat="40.3387431800365447998046875" lon="-1.01774216629564762115478515625">
        <ele>1057.800048828125</ele>
        <time>2022-05-06T08:22:04.000Z</time>
      </trkpt>
      <trkpt lat="40.33878919668495655059814453125" lon="-1.01770260371267795562744140625">
        <ele>1058</ele>
        <time>2022-05-06T08:22:06.000Z</time>
      </trkpt>
      <trkpt lat="40.33883580006659030914306640625" lon="-1.01766220293939113616943359375">
        <ele>1058.199951171875</ele>
        <time>2022-05-06T08:22:08.000Z</time>
      </trkpt>
      <trkpt lat="40.33887603320181369781494140625" lon="-1.0176235623657703399658203125">
        <ele>1058.4000244140625</ele>
        <time>2022-05-06T08:22:10.000Z</time>
      </trkpt>
      <trkpt lat="40.33891953527927398681640625" lon="-1.01758525706827640533447265625">
        <ele>1058.5999755859375</ele>
        <time>2022-05-06T08:22:12.000Z</time>
      </trkpt>
      <trkpt lat="40.3389653004705905914306640625" lon="-1.017549969255924224853515625">
        <ele>1058.800048828125</ele>
        <time>2022-05-06T08:22:14.000Z</time>
      </trkpt>
      <trkpt lat="40.33900930546224117279052734375" lon="-1.0175125859677791595458984375">
        <ele>1059</ele>
        <time>2022-05-06T08:22:16.000Z</time>
      </trkpt>
      <trkpt lat="40.3390561603009700775146484375" lon="-1.0174785554409027099609375">
        <ele>1059.4000244140625</ele>
        <time>2022-05-06T08:22:18.000Z</time>
      </trkpt>
      <trkpt lat="40.339098908007144927978515625" lon="-1.01744460873305797576904296875">
        <ele>1059.5999755859375</ele>
        <time>2022-05-06T08:22:20.000Z</time>
      </trkpt>
      <trkpt lat="40.33914106898009777069091796875" lon="-1.01741007529199123382568359375">
        <ele>1059.800048828125</ele>
        <time>2022-05-06T08:22:22.000Z</time>
      </trkpt>
      <trkpt lat="40.33916294574737548828125" lon="-1.01739473640918731689453125">
        <ele>1060</ele>
        <time>2022-05-06T08:22:23.000Z</time>
      </trkpt>
      <trkpt lat="40.33918448723852634429931640625" lon="-1.0173791460692882537841796875">
        <ele>1060</ele>
        <time>2022-05-06T08:22:24.000Z</time>
      </trkpt>
      <trkpt lat="40.3392221219837665557861328125" lon="-1.0173452831804752349853515625">
        <ele>1060.199951171875</ele>
        <time>2022-05-06T08:22:26.000Z</time>
      </trkpt>
      <trkpt lat="40.33926688134670257568359375" lon="-1.017310917377471923828125">
        <ele>1060.4000244140625</ele>
        <time>2022-05-06T08:22:28.000Z</time>
      </trkpt>
      <trkpt lat="40.33931105397641658782958984375" lon="-1.01727613247931003570556640625">
        <ele>1060.5999755859375</ele>
        <time>2022-05-06T08:22:30.000Z</time>
      </trkpt>
      <trkpt lat="40.33935899846255779266357421875" lon="-1.01724444888532161712646484375">
        <ele>1061</ele>
        <time>2022-05-06T08:22:32.000Z</time>
      </trkpt>
      <trkpt lat="40.3393994830548763275146484375" lon="-1.01720907725393772125244140625">
        <ele>1061</ele>
        <time>2022-05-06T08:22:34.000Z</time>
      </trkpt>
      <trkpt lat="40.33944147638976573944091796875" lon="-1.01717320270836353302001953125">
        <ele>1061.199951171875</ele>
        <time>2022-05-06T08:22:36.000Z</time>
      </trkpt>
      <trkpt lat="40.3394645266234874725341796875" lon="-1.01715744473040103912353515625">
        <ele>1061.199951171875</ele>
        <time>2022-05-06T08:22:37.000Z</time>
      </trkpt>
      <trkpt lat="40.3394896723330020904541015625" lon="-1.01714168675243854522705078125">
        <ele>1061.4000244140625</ele>
        <time>2022-05-06T08:22:38.000Z</time>
      </trkpt>
      <trkpt lat="40.3395406343042850494384765625" lon="-1.01710866205394268035888671875">
        <ele>1061.5999755859375</ele>
        <time>2022-05-06T08:22:40.000Z</time>
      </trkpt>
      <trkpt lat="40.33959209918975830078125" lon="-1.01708360016345977783203125">
        <ele>1061.800048828125</ele>
        <time>2022-05-06T08:22:42.000Z</time>
      </trkpt>
      <trkpt lat="40.339638032019138336181640625" lon="-1.01705543696880340576171875">
        <ele>1062</ele>
        <time>2022-05-06T08:22:44.000Z</time>
      </trkpt>
      <trkpt lat="40.33969075419008731842041015625" lon="-1.01702316664159297943115234375">
        <ele>1062.199951171875</ele>
        <time>2022-05-06T08:22:46.000Z</time>
      </trkpt>
      <trkpt lat="40.33974473364651203155517578125" lon="-1.0169986076653003692626953125">
        <ele>1062.199951171875</ele>
        <time>2022-05-06T08:22:48.000Z</time>
      </trkpt>
      <trkpt lat="40.3397998027503490447998046875" lon="-1.016973294317722320556640625">
        <ele>1062.4000244140625</ele>
        <time>2022-05-06T08:22:50.000Z</time>
      </trkpt>
      <trkpt lat="40.33985520713031291961669921875" lon="-1.016951166093349456787109375">
        <ele>1062.5999755859375</ele>
        <time>2022-05-06T08:22:52.000Z</time>
      </trkpt>
      <trkpt lat="40.3399151377379894256591796875" lon="-1.01691889576613903045654296875">
        <ele>1062.800048828125</ele>
        <time>2022-05-06T08:22:54.000Z</time>
      </trkpt>
      <trkpt lat="40.33994573168456554412841796875" lon="-1.01690129376947879791259765625">
        <ele>1062.800048828125</ele>
        <time>2022-05-06T08:22:55.000Z</time>
      </trkpt>
      <trkpt lat="40.339975990355014801025390625" lon="-1.0168832726776599884033203125">
        <ele>1062.800048828125</ele>
        <time>2022-05-06T08:22:56.000Z</time>
      </trkpt>
      <trkpt lat="40.34003374166786670684814453125" lon="-1.016847901046276092529296875">
        <ele>1063</ele>
        <time>2022-05-06T08:22:58.000Z</time>
      </trkpt>
      <trkpt lat="40.34009166061878204345703125" lon="-1.01681269705295562744140625">
        <ele>1063</ele>
        <time>2022-05-06T08:23:00.000Z</time>
      </trkpt>
      <trkpt lat="40.34011856652796268463134765625" lon="-1.01679526269435882568359375">
        <ele>1063.199951171875</ele>
        <time>2022-05-06T08:23:01.000Z</time>
      </trkpt>
      <trkpt lat="40.34014555625617504119873046875" lon="-1.01677916944026947021484375">
        <ele>1063.199951171875</ele>
        <time>2022-05-06T08:23:02.000Z</time>
      </trkpt>
      <trkpt lat="40.34019517712295055389404296875" lon="-1.016741283237934112548828125">
        <ele>1063.199951171875</ele>
        <time>2022-05-06T08:23:04.000Z</time>
      </trkpt>
      <trkpt lat="40.3402178920805454254150390625" lon="-1.01672125048935413360595703125">
        <ele>1063.199951171875</ele>
        <time>2022-05-06T08:23:05.000Z</time>
      </trkpt>
      <trkpt lat="40.340241529047489166259765625" lon="-1.016704402863979339599609375">
        <ele>1063.199951171875</ele>
        <time>2022-05-06T08:23:06.000Z</time>
      </trkpt>
      <trkpt lat="40.340265668928623199462890625" lon="-1.01668654941022396087646484375">
        <ele>1063.199951171875</ele>
        <time>2022-05-06T08:23:07.000Z</time>
      </trkpt>
      <trkpt lat="40.3402909822762012481689453125" lon="-1.0166683606803417205810546875">
        <ele>1063.4000244140625</ele>
        <time>2022-05-06T08:23:08.000Z</time>
      </trkpt>
      <trkpt lat="40.34034236334264278411865234375" lon="-1.01663391105830669403076171875">
        <ele>1063.4000244140625</ele>
        <time>2022-05-06T08:23:10.000Z</time>
      </trkpt>
      <trkpt lat="40.3403895534574985504150390625" lon="-1.01659920997917652130126953125">
        <ele>1063.4000244140625</ele>
        <time>2022-05-06T08:23:12.000Z</time>
      </trkpt>
      <trkpt lat="40.34043724648654460906982421875" lon="-1.0165640898048877716064453125">
        <ele>1063.5999755859375</ele>
        <time>2022-05-06T08:23:14.000Z</time>
      </trkpt>
      <trkpt lat="40.340488292276859283447265625" lon="-1.01652595214545726776123046875">
        <ele>1063.5999755859375</ele>
        <time>2022-05-06T08:23:16.000Z</time>
      </trkpt>
      <trkpt lat="40.3405400924384593963623046875" lon="-1.0164863057434558868408203125">
        <ele>1063.5999755859375</ele>
        <time>2022-05-06T08:23:18.000Z</time>
      </trkpt>
      <trkpt lat="40.34056649543344974517822265625" lon="-1.0164668597280979156494140625">
        <ele>1063.5999755859375</ele>
        <time>2022-05-06T08:23:19.000Z</time>
      </trkpt>
      <trkpt lat="40.34059365279972553253173828125" lon="-1.0164460726082324981689453125">
        <ele>1063.800048828125</ele>
        <time>2022-05-06T08:23:20.000Z</time>
      </trkpt>
      <trkpt lat="40.34064763225615024566650390625" lon="-1.0164055041968822479248046875">
        <ele>1063.800048828125</ele>
        <time>2022-05-06T08:23:22.000Z</time>
      </trkpt>
      <trkpt lat="40.34069675020873546600341796875" lon="-1.01635512895882129669189453125">
        <ele>1064</ele>
        <time>2022-05-06T08:23:24.000Z</time>
      </trkpt>
      <trkpt lat="40.34071871079504489898681640625" lon="-1.0163297317922115325927734375">
        <ele>1064</ele>
        <time>2022-05-06T08:23:25.000Z</time>
      </trkpt>
      <trkpt lat="40.34073815681040287017822265625" lon="-1.01630399934947490692138671875">
        <ele>1064</ele>
        <time>2022-05-06T08:23:26.000Z</time>
      </trkpt>
      <trkpt lat="40.34077989868819713592529296875" lon="-1.0162512771785259246826171875">
        <ele>1064</ele>
        <time>2022-05-06T08:23:28.000Z</time>
      </trkpt>
      <trkpt lat="40.3408111631870269775390625" lon="-1.01619042456150054931640625">
        <ele>1064</ele>
        <time>2022-05-06T08:23:30.000Z</time>
      </trkpt>
      <trkpt lat="40.34083153121173381805419921875" lon="-1.01613250561058521270751953125">
        <ele>1064</ele>
        <time>2022-05-06T08:23:32.000Z</time>
      </trkpt>
      <trkpt lat="40.34085148014128208160400390625" lon="-1.016069389879703521728515625">
        <ele>1064</ele>
        <time>2022-05-06T08:23:34.000Z</time>
      </trkpt>
      <trkpt lat="40.34086036495864391326904296875" lon="-1.01601214148104190826416015625">
        <ele>1063.800048828125</ele>
        <time>2022-05-06T08:23:36.000Z</time>
      </trkpt>
      <trkpt lat="40.34087226726114749908447265625" lon="-1.01595967076718807220458984375">
        <ele>1063.800048828125</ele>
        <time>2022-05-06T08:23:38.000Z</time>
      </trkpt>
      <trkpt lat="40.34087310545146465301513671875" lon="-1.01590150035917758941650390625">
        <ele>1063.5999755859375</ele>
        <time>2022-05-06T08:23:40.000Z</time>
      </trkpt>
      <trkpt lat="40.34087159670889377593994140625" lon="-1.01585053838789463043212890625">
        <ele>1063.5999755859375</ele>
        <time>2022-05-06T08:23:42.000Z</time>
      </trkpt>
      <trkpt lat="40.34087352454662322998046875" lon="-1.0157832317054271697998046875">
        <ele>1063.4000244140625</ele>
        <time>2022-05-06T08:23:44.000Z</time>
      </trkpt>
      <trkpt lat="40.340889282524585723876953125" lon="-1.015722714364528656005859375">
        <ele>1063.4000244140625</ele>
        <time>2022-05-06T08:23:46.000Z</time>
      </trkpt>
      <trkpt lat="40.34090344794094562530517578125" lon="-1.01569463498890399932861328125">
        <ele>1063.4000244140625</ele>
        <time>2022-05-06T08:23:47.000Z</time>
      </trkpt>
      <trkpt lat="40.340926162898540496826171875" lon="-1.0156667232513427734375">
        <ele>1063.4000244140625</ele>
        <time>2022-05-06T08:23:48.000Z</time>
      </trkpt>
      <trkpt lat="40.34097142517566680908203125" lon="-1.01564166136085987091064453125">
        <ele>1063.5999755859375</ele>
        <time>2022-05-06T08:23:50.000Z</time>
      </trkpt>
      <trkpt lat="40.34099028445780277252197265625" lon="-1.0156467743217945098876953125">
        <ele>1063.5999755859375</ele>
        <time>2022-05-06T08:23:51.000Z</time>
      </trkpt>
      <trkpt lat="40.34100503660738468170166015625" lon="-1.0156575031578540802001953125">
        <ele>1063.800048828125</ele>
        <time>2022-05-06T08:23:52.000Z</time>
      </trkpt>
      <trkpt lat="40.34102783538401126861572265625" lon="-1.01569262333214282989501953125">
        <ele>1064</ele>
        <time>2022-05-06T08:23:54.000Z</time>
      </trkpt>
      <trkpt lat="40.34104895778000354766845703125" lon="-1.01572849787771701812744140625">
        <ele>1064.199951171875</ele>
        <time>2022-05-06T08:23:56.000Z</time>
      </trkpt>
      <trkpt lat="40.3410617820918560028076171875" lon="-1.01574811153113842010498046875">
        <ele>1064.199951171875</ele>
        <time>2022-05-06T08:23:57.000Z</time>
      </trkpt>
      <trkpt lat="40.34107603132724761962890625" lon="-1.01576571352779865264892578125">
        <ele>1064.4000244140625</ele>
        <time>2022-05-06T08:23:58.000Z</time>
      </trkpt>
      <trkpt lat="40.34110008738934993743896484375" lon="-1.0158053599298000335693359375">
        <ele>1064.5999755859375</ele>
        <time>2022-05-06T08:24:00.000Z</time>
      </trkpt>
      <trkpt lat="40.3411258198320865631103515625" lon="-1.01584819145500659942626953125">
        <ele>1064.800048828125</ele>
        <time>2022-05-06T08:24:02.000Z</time>
      </trkpt>
      <trkpt lat="40.34113864414393901824951171875" lon="-1.01587065495550632476806640625">
        <ele>1064.800048828125</ele>
        <time>2022-05-06T08:24:03.000Z</time>
      </trkpt>
      <trkpt lat="40.3411499597132205963134765625" lon="-1.01589672267436981201171875">
        <ele>1065</ele>
        <time>2022-05-06T08:24:04.000Z</time>
      </trkpt>
      <trkpt lat="40.34118122421205043792724609375" lon="-1.01594424806535243988037109375">
        <ele>1065.199951171875</ele>
        <time>2022-05-06T08:24:06.000Z</time>
      </trkpt>
      <trkpt lat="40.34121458418667316436767578125" lon="-1.0159974731504917144775390625">
        <ele>1065.5999755859375</ele>
        <time>2022-05-06T08:24:08.000Z</time>
      </trkpt>
      <trkpt lat="40.3412471897900104522705078125" lon="-1.0160541348159313201904296875">
        <ele>1065.800048828125</ele>
        <time>2022-05-06T08:24:10.000Z</time>
      </trkpt>
      <trkpt lat="40.341283567249774932861328125" lon="-1.01612613536417484283447265625">
        <ele>1066.199951171875</ele>
        <time>2022-05-06T08:24:12.000Z</time>
      </trkpt>
      <trkpt lat="40.3413159213960170745849609375" lon="-1.016199477016925811767578125">
        <ele>1066.5999755859375</ele>
        <time>2022-05-06T08:24:14.000Z</time>
      </trkpt>
      <trkpt lat="40.3413477726280689239501953125" lon="-1.0162673704326152801513671875">
        <ele>1067</ele>
        <time>2022-05-06T08:24:16.000Z</time>
      </trkpt>
      <trkpt lat="40.34135925583541393280029296875" lon="-1.01630282588303089141845703125">
        <ele>1067</ele>
        <time>2022-05-06T08:24:17.000Z</time>
      </trkpt>
      <trkpt lat="40.3413717448711395263671875" lon="-1.0163361020386219024658203125">
        <ele>1067.199951171875</ele>
        <time>2022-05-06T08:24:18.000Z</time>
      </trkpt>
      <trkpt lat="40.34139965660870075225830078125" lon="-1.0163967870175838470458984375">
        <ele>1067.800048828125</ele>
        <time>2022-05-06T08:24:20.000Z</time>
      </trkpt>
      <trkpt lat="40.34141398966312408447265625" lon="-1.0164296440780162811279296875">
        <ele>1068.199951171875</ele>
        <time>2022-05-06T08:24:21.000Z</time>
      </trkpt>
      <trkpt lat="40.34142999909818172454833984375" lon="-1.01645705290138721466064453125">
        <ele>1068.4000244140625</ele>
        <time>2022-05-06T08:24:22.000Z</time>
      </trkpt>
      <trkpt lat="40.34146050922572612762451171875" lon="-1.01651170291006565093994140625">
        <ele>1069.199951171875</ele>
        <time>2022-05-06T08:24:24.000Z</time>
      </trkpt>
      <trkpt lat="40.341490097343921661376953125" lon="-1.0165593959391117095947265625">
        <ele>1069.800048828125</ele>
        <time>2022-05-06T08:24:26.000Z</time>
      </trkpt>
      <trkpt lat="40.34152303822338581085205078125" lon="-1.0165979526937007904052734375">
        <ele>1070.4000244140625</ele>
        <time>2022-05-06T08:24:28.000Z</time>
      </trkpt>
      <trkpt lat="40.34155480563640594482421875" lon="-1.01663508452475070953369140625">
        <ele>1071</ele>
        <time>2022-05-06T08:24:30.000Z</time>
      </trkpt>
      <trkpt lat="40.34158556722104549407958984375" lon="-1.016689650714397430419921875">
        <ele>1071.5999755859375</ele>
        <time>2022-05-06T08:24:32.000Z</time>
      </trkpt>
      <trkpt lat="40.3415988944470882415771484375" lon="-1.01671370677649974822998046875">
        <ele>1072</ele>
        <time>2022-05-06T08:24:33.000Z</time>
      </trkpt>
      <trkpt lat="40.3416139818727970123291015625" lon="-1.0167384333908557891845703125">
        <ele>1072.199951171875</ele>
        <time>2022-05-06T08:24:34.000Z</time>
      </trkpt>
      <trkpt lat="40.341638289391994476318359375" lon="-1.01678897626698017120361328125">
        <ele>1072.800048828125</ele>
        <time>2022-05-06T08:24:36.000Z</time>
      </trkpt>
      <trkpt lat="40.34164926968514919281005859375" lon="-1.01681412197649478912353515625">
        <ele>1073.199951171875</ele>
        <time>2022-05-06T08:24:37.000Z</time>
      </trkpt>
      <trkpt lat="40.34165983088314533233642578125" lon="-1.0168375074863433837890625">
        <ele>1073.4000244140625</ele>
        <time>2022-05-06T08:24:38.000Z</time>
      </trkpt>
      <trkpt lat="40.34166988916695117950439453125" lon="-1.0168628208339214324951171875">
        <ele>1073.5999755859375</ele>
        <time>2022-05-06T08:24:39.000Z</time>
      </trkpt>
      <trkpt lat="40.3416820429265499114990234375" lon="-1.0168876312673091888427734375">
        <ele>1074</ele>
        <time>2022-05-06T08:24:40.000Z</time>
      </trkpt>
      <trkpt lat="40.34170341677963733673095703125" lon="-1.01694437675178050994873046875">
        <ele>1074.4000244140625</ele>
        <time>2022-05-06T08:24:42.000Z</time>
      </trkpt>
      <trkpt lat="40.3417217731475830078125" lon="-1.016996093094348907470703125">
        <ele>1074.800048828125</ele>
        <time>2022-05-06T08:24:44.000Z</time>
      </trkpt>
      <trkpt lat="40.34173996187746524810791015625" lon="-1.0170438699424266815185546875">
        <ele>1075.199951171875</ele>
        <time>2022-05-06T08:24:46.000Z</time>
      </trkpt>
      <trkpt lat="40.34175731241703033447265625" lon="-1.017093658447265625">
        <ele>1075.4000244140625</ele>
        <time>2022-05-06T08:24:48.000Z</time>
      </trkpt>
      <trkpt lat="40.34177365712821483612060546875" lon="-1.01713732816278934478759765625">
        <ele>1075.800048828125</ele>
        <time>2022-05-06T08:24:50.000Z</time>
      </trkpt>
      <trkpt lat="40.341800563037395477294921875" lon="-1.0171719454228878021240234375">
        <ele>1076.199951171875</ele>
        <time>2022-05-06T08:24:52.000Z</time>
      </trkpt>
      <trkpt lat="40.34182093106210231781005859375" lon="-1.01718359626829624176025390625">
        <ele>1076.4000244140625</ele>
        <time>2022-05-06T08:24:54.000Z</time>
      </trkpt>
      <trkpt lat="40.3418290615081787109375" lon="-1.0171856917440891265869140625">
        <ele>1076.4000244140625</ele>
        <time>2022-05-06T08:24:56.000Z</time>
      </trkpt>
      <trkpt lat="40.3418433107435703277587890625" lon="-1.01718845777213573455810546875">
        <ele>1076.5999755859375</ele>
        <time>2022-05-06T08:24:58.000Z</time>
      </trkpt>
      <trkpt lat="40.34185412339866161346435546875" lon="-1.01718929596245288848876953125">
        <ele>1076.5999755859375</ele>
        <time>2022-05-06T08:25:00.000Z</time>
      </trkpt>
      <trkpt lat="40.341860242187976837158203125" lon="-1.01718292571604251861572265625">
        <ele>1076.5999755859375</ele>
        <time>2022-05-06T08:25:01.000Z</time>
      </trkpt>
      <trkpt lat="40.34186200238764286041259765625" lon="-1.01717957295477390289306640625">
        <ele>1076.5999755859375</ele>
        <time>2022-05-06T08:25:02.000Z</time>
      </trkpt>
      <trkpt lat="40.34186636097729206085205078125" lon="-1.01716700010001659393310546875">
        <ele>1076.5999755859375</ele>
        <time>2022-05-06T08:25:04.000Z</time>
      </trkpt>
      <trkpt lat="40.3418697975575923919677734375" lon="-1.01715174503624439239501953125">
        <ele>1076.5999755859375</ele>
        <time>2022-05-06T08:25:06.000Z</time>
      </trkpt>
      <trkpt lat="40.34187273122370243072509765625" lon="-1.017139591276645660400390625">
        <ele>1076.5999755859375</ele>
        <time>2022-05-06T08:25:08.000Z</time>
      </trkpt>
      <trkpt lat="40.341803245246410369873046875" lon="-1.01689844392240047454833984375">
        <ele>1074.800048828125</ele>
        <time>2022-05-06T08:30:57.000Z</time>
      </trkpt>
      <trkpt lat="40.34179846756160259246826171875" lon="-1.01688201539218425750732421875">
        <ele>1074.800048828125</ele>
        <time>2022-05-06T08:30:58.000Z</time>
      </trkpt>
      <trkpt lat="40.34178924746811389923095703125" lon="-1.0168453864753246307373046875">
        <ele>1074.5999755859375</ele>
        <time>2022-05-06T08:31:00.000Z</time>
      </trkpt>
      <trkpt lat="40.341780446469783782958984375" lon="-1.016806997358798980712890625">
        <ele>1074.199951171875</ele>
        <time>2022-05-06T08:31:02.000Z</time>
      </trkpt>
      <trkpt lat="40.34177516587078571319580078125" lon="-1.01678579114377498626708984375">
        <ele>1074.199951171875</ele>
        <time>2022-05-06T08:31:03.000Z</time>
      </trkpt>
      <trkpt lat="40.34176913090050220489501953125" lon="-1.01676232181489467620849609375">
        <ele>1074</ele>
        <time>2022-05-06T08:31:04.000Z</time>
      </trkpt>
      <trkpt lat="40.34175571985542774200439453125" lon="-1.0167139582335948944091796875">
        <ele>1073.4000244140625</ele>
        <time>2022-05-06T08:31:06.000Z</time>
      </trkpt>
      <trkpt lat="40.3417403809726238250732421875" lon="-1.01666525937616825103759765625">
        <ele>1073</ele>
        <time>2022-05-06T08:31:08.000Z</time>
      </trkpt>
      <trkpt lat="40.34172286279499530792236328125" lon="-1.0166157223284244537353515625">
        <ele>1072.4000244140625</ele>
        <time>2022-05-06T08:31:10.000Z</time>
      </trkpt>
      <trkpt lat="40.34171666018664836883544921875" lon="-1.01659133099019527435302734375">
        <ele>1072.199951171875</ele>
        <time>2022-05-06T08:31:11.000Z</time>
      </trkpt>
      <trkpt lat="40.3417102061212062835693359375" lon="-1.016567610204219818115234375">
        <ele>1072</ele>
        <time>2022-05-06T08:31:12.000Z</time>
      </trkpt>
      <trkpt lat="40.34169428050518035888671875" lon="-1.01651807315647602081298828125">
        <ele>1071.4000244140625</ele>
        <time>2022-05-06T08:31:14.000Z</time>
      </trkpt>
      <trkpt lat="40.34167910926043987274169921875" lon="-1.01646325550973415374755859375">
        <ele>1070.800048828125</ele>
        <time>2022-05-06T08:31:16.000Z</time>
      </trkpt>
      <trkpt lat="40.34166469238698482513427734375" lon="-1.01640500128269195556640625">
        <ele>1070.4000244140625</ele>
        <time>2022-05-06T08:31:18.000Z</time>
      </trkpt>
      <trkpt lat="40.34164608456194400787353515625" lon="-1.016345322132110595703125">
        <ele>1070</ele>
        <time>2022-05-06T08:31:20.000Z</time>
      </trkpt>
      <trkpt lat="40.341627895832061767578125" lon="-1.01628522388637065887451171875">
        <ele>1069.4000244140625</ele>
        <time>2022-05-06T08:31:22.000Z</time>
      </trkpt>
      <trkpt lat="40.34161121584475040435791015625" lon="-1.0162288136780261993408203125">
        <ele>1069</ele>
        <time>2022-05-06T08:31:24.000Z</time>
      </trkpt>
      <trkpt lat="40.341592691838741302490234375" lon="-1.0161698050796985626220703125">
        <ele>1068.5999755859375</ele>
        <time>2022-05-06T08:31:26.000Z</time>
      </trkpt>
      <trkpt lat="40.34157282672822475433349609375" lon="-1.01610987447202205657958984375">
        <ele>1068.199951171875</ele>
        <time>2022-05-06T08:31:28.000Z</time>
      </trkpt>
      <trkpt lat="40.34156176261603832244873046875" lon="-1.0160776041448116302490234375">
        <ele>1068</ele>
        <time>2022-05-06T08:31:29.000Z</time>
      </trkpt>
      <trkpt lat="40.341550447046756744384765625" lon="-1.01604617200791835784912109375">
        <ele>1067.800048828125</ele>
        <time>2022-05-06T08:31:30.000Z</time>
      </trkpt>
      <trkpt lat="40.34152798354625701904296875" lon="-1.015984229743480682373046875">
        <ele>1067.5999755859375</ele>
        <time>2022-05-06T08:31:32.000Z</time>
      </trkpt>
      <trkpt lat="40.341505520045757293701171875" lon="-1.01591952145099639892578125">
        <ele>1067.199951171875</ele>
        <time>2022-05-06T08:31:34.000Z</time>
      </trkpt>
      <trkpt lat="40.3414805419743061065673828125" lon="-1.015856824815273284912109375">
        <ele>1066.800048828125</ele>
        <time>2022-05-06T08:31:36.000Z</time>
      </trkpt>
      <trkpt lat="40.34145447425544261932373046875" lon="-1.01579437963664531707763671875">
        <ele>1066.5999755859375</ele>
        <time>2022-05-06T08:31:38.000Z</time>
      </trkpt>
      <trkpt lat="40.34144139848649501800537109375" lon="-1.0157644562423229217529296875">
        <ele>1066.4000244140625</ele>
        <time>2022-05-06T08:31:39.000Z</time>
      </trkpt>
      <trkpt lat="40.34142798744142055511474609375" lon="-1.0157352872192859649658203125">
        <ele>1066.199951171875</ele>
        <time>2022-05-06T08:31:40.000Z</time>
      </trkpt>
      <trkpt lat="40.34139596857130527496337890625" lon="-1.01567552424967288970947265625">
        <ele>1065.800048828125</ele>
        <time>2022-05-06T08:31:42.000Z</time>
      </trkpt>
      <trkpt lat="40.34136277623474597930908203125" lon="-1.0156132467091083526611328125">
        <ele>1065.4000244140625</ele>
        <time>2022-05-06T08:31:44.000Z</time>
      </trkpt>
      <trkpt lat="40.34132958389818668365478515625" lon="-1.0155518911778926849365234375">
        <ele>1065</ele>
        <time>2022-05-06T08:31:46.000Z</time>
      </trkpt>
      <trkpt lat="40.341313071548938751220703125" lon="-1.01552464999258518218994140625">
        <ele>1065</ele>
        <time>2022-05-06T08:31:47.000Z</time>
      </trkpt>
      <trkpt lat="40.34129756502807140350341796875" lon="-1.01550084538757801055908203125">
        <ele>1065</ele>
        <time>2022-05-06T08:31:48.000Z</time>
      </trkpt>
      <trkpt lat="40.34126780927181243896484375" lon="-1.015456505119800567626953125">
        <ele>1064.800048828125</ele>
        <time>2022-05-06T08:31:50.000Z</time>
      </trkpt>
      <trkpt lat="40.3412371315062046051025390625" lon="-1.01541258394718170166015625">
        <ele>1064.5999755859375</ele>
        <time>2022-05-06T08:31:52.000Z</time>
      </trkpt>
      <trkpt lat="40.34120838157832622528076171875" lon="-1.01537142880260944366455078125">
        <ele>1064.5999755859375</ele>
        <time>2022-05-06T08:31:54.000Z</time>
      </trkpt>
      <trkpt lat="40.34117736853659152984619140625" lon="-1.01532943546772003173828125">
        <ele>1064.4000244140625</ele>
        <time>2022-05-06T08:31:56.000Z</time>
      </trkpt>
      <trkpt lat="40.34114367328584194183349609375" lon="-1.01528928615152835845947265625">
        <ele>1064.199951171875</ele>
        <time>2022-05-06T08:31:58.000Z</time>
      </trkpt>
      <trkpt lat="40.3411090560257434844970703125" lon="-1.01524955593049526214599609375">
        <ele>1064</ele>
        <time>2022-05-06T08:32:00.000Z</time>
      </trkpt>
      <trkpt lat="40.34107544459402561187744140625" lon="-1.01520814932882785797119140625">
        <ele>1063.800048828125</ele>
        <time>2022-05-06T08:32:02.000Z</time>
      </trkpt>
      <trkpt lat="40.34104141406714916229248046875" lon="-1.015166826546192169189453125">
        <ele>1063.800048828125</ele>
        <time>2022-05-06T08:32:04.000Z</time>
      </trkpt>
      <trkpt lat="40.34102431498467922210693359375" lon="-1.01514562033116817474365234375">
        <ele>1063.5999755859375</ele>
        <time>2022-05-06T08:32:05.000Z</time>
      </trkpt>
      <trkpt lat="40.34100704826414585113525390625" lon="-1.0151237435638904571533203125">
        <ele>1063.5999755859375</ele>
        <time>2022-05-06T08:32:06.000Z</time>
      </trkpt>
      <trkpt lat="40.34097234718501567840576171875" lon="-1.0150804929435253143310546875">
        <ele>1063.4000244140625</ele>
        <time>2022-05-06T08:32:08.000Z</time>
      </trkpt>
      <trkpt lat="40.34093655645847320556640625" lon="-1.01503707468509674072265625">
        <ele>1063.4000244140625</ele>
        <time>2022-05-06T08:32:10.000Z</time>
      </trkpt>
      <trkpt lat="40.34089942462742328643798828125" lon="-1.0149923153221607208251953125">
        <ele>1063.4000244140625</ele>
        <time>2022-05-06T08:32:12.000Z</time>
      </trkpt>
      <trkpt lat="40.34086145460605621337890625" lon="-1.01494613103568553924560546875">
        <ele>1063.4000244140625</ele>
        <time>2022-05-06T08:32:14.000Z</time>
      </trkpt>
      <trkpt lat="40.3408428467810153961181640625" lon="-1.014923416078090667724609375">
        <ele>1063.4000244140625</ele>
        <time>2022-05-06T08:32:15.000Z</time>
      </trkpt>
      <trkpt lat="40.340823568403720855712890625" lon="-1.0149007849395275115966796875">
        <ele>1063.4000244140625</ele>
        <time>2022-05-06T08:32:16.000Z</time>
      </trkpt>
      <trkpt lat="40.34078442491590976715087890625" lon="-1.01485393010079860687255859375">
        <ele>1063.5999755859375</ele>
        <time>2022-05-06T08:32:18.000Z</time>
      </trkpt>
      <trkpt lat="40.340744443237781524658203125" lon="-1.0148055665194988250732421875">
        <ele>1063.5999755859375</ele>
        <time>2022-05-06T08:32:20.000Z</time>
      </trkpt>
      <trkpt lat="40.34072466194629669189453125" lon="-1.01478167809545993804931640625">
        <ele>1063.5999755859375</ele>
        <time>2022-05-06T08:32:21.000Z</time>
      </trkpt>
      <trkpt lat="40.34070462919771671295166015625" lon="-1.01475787349045276641845703125">
        <ele>1063.5999755859375</ele>
        <time>2022-05-06T08:32:22.000Z</time>
      </trkpt>
      <trkpt lat="40.3406664915382862091064453125" lon="-1.01470976136624813079833984375">
        <ele>1063.800048828125</ele>
        <time>2022-05-06T08:32:24.000Z</time>
      </trkpt>
      <trkpt lat="40.34062466584146022796630859375" lon="-1.01466181688010692596435546875">
        <ele>1064</ele>
        <time>2022-05-06T08:32:26.000Z</time>
      </trkpt>
      <trkpt lat="40.3406048007309436798095703125" lon="-1.0146380960941314697265625">
        <ele>1064.199951171875</ele>
        <time>2022-05-06T08:32:27.000Z</time>
      </trkpt>
      <trkpt lat="40.34058476798236370086669921875" lon="-1.01461462676525115966796875">
        <ele>1064.199951171875</ele>
        <time>2022-05-06T08:32:28.000Z</time>
      </trkpt>
      <trkpt lat="40.34054738469421863555908203125" lon="-1.0145702026784420013427734375">
        <ele>1064.4000244140625</ele>
        <time>2022-05-06T08:32:30.000Z</time>
      </trkpt>
      <trkpt lat="40.3405105881392955780029296875" lon="-1.01452485658228397369384765625">
        <ele>1064.4000244140625</ele>
        <time>2022-05-06T08:32:32.000Z</time>
      </trkpt>
      <trkpt lat="40.34047027118504047393798828125" lon="-1.01447976194322109222412109375">
        <ele>1064.5999755859375</ele>
        <time>2022-05-06T08:32:34.000Z</time>
      </trkpt>
      <trkpt lat="40.34043104387819766998291015625" lon="-1.0144337452948093414306640625">
        <ele>1065.199951171875</ele>
        <time>2022-05-06T08:32:36.000Z</time>
      </trkpt>
      <trkpt lat="40.34041109494864940643310546875" lon="-1.01440985687077045440673828125">
        <ele>1065.4000244140625</ele>
        <time>2022-05-06T08:32:37.000Z</time>
      </trkpt>
      <trkpt lat="40.34039081074297428131103515625" lon="-1.01438605226576328277587890625">
        <ele>1065.5999755859375</ele>
        <time>2022-05-06T08:32:38.000Z</time>
      </trkpt>
      <trkpt lat="40.340351164340972900390625" lon="-1.0143395327031612396240234375">
        <ele>1066</ele>
        <time>2022-05-06T08:32:40.000Z</time>
      </trkpt>
      <trkpt lat="40.34031151793897151947021484375" lon="-1.01429385133087635040283203125">
        <ele>1066.5999755859375</ele>
        <time>2022-05-06T08:32:42.000Z</time>
      </trkpt>
      <trkpt lat="40.340270362794399261474609375" lon="-1.01424758322536945343017578125">
        <ele>1067</ele>
        <time>2022-05-06T08:32:44.000Z</time>
      </trkpt>
      <trkpt lat="40.34023088403046131134033203125" lon="-1.014199219644069671630859375">
        <ele>1067.4000244140625</ele>
        <time>2022-05-06T08:32:46.000Z</time>
      </trkpt>
      <trkpt lat="40.3401924110949039459228515625" lon="-1.0141552984714508056640625">
        <ele>1068</ele>
        <time>2022-05-06T08:32:48.000Z</time>
      </trkpt>
      <trkpt lat="40.34017271362245082855224609375" lon="-1.0141340084373950958251953125">
        <ele>1068.4000244140625</ele>
        <time>2022-05-06T08:32:49.000Z</time>
      </trkpt>
      <trkpt lat="40.34015276469290256500244140625" lon="-1.014115400612354278564453125">
        <ele>1068.5999755859375</ele>
        <time>2022-05-06T08:32:50.000Z</time>
      </trkpt>
      <trkpt lat="40.34011152572929859161376953125" lon="-1.0140706412494182586669921875">
        <ele>1069.4000244140625</ele>
        <time>2022-05-06T08:32:52.000Z</time>
      </trkpt>
      <trkpt lat="40.3400697000324726104736328125" lon="-1.014021523296833038330078125">
        <ele>1070</ele>
        <time>2022-05-06T08:32:54.000Z</time>
      </trkpt>
      <trkpt lat="40.34002938307821750640869140625" lon="-1.0139715671539306640625">
        <ele>1070.800048828125</ele>
        <time>2022-05-06T08:32:56.000Z</time>
      </trkpt>
      <trkpt lat="40.3400086797773838043212890625" lon="-1.013947091996669769287109375">
        <ele>1071.199951171875</ele>
        <time>2022-05-06T08:32:57.000Z</time>
      </trkpt>
      <trkpt lat="40.339988730847835540771484375" lon="-1.01392353884875774383544921875">
        <ele>1071.4000244140625</ele>
        <time>2022-05-06T08:32:58.000Z</time>
      </trkpt>
      <trkpt lat="40.33994673751294612884521484375" lon="-1.01387307979166507720947265625">
        <ele>1072.4000244140625</ele>
        <time>2022-05-06T08:33:00.000Z</time>
      </trkpt>
      <trkpt lat="40.3399054147303104400634765625" lon="-1.0138215310871601104736328125">
        <ele>1073.199951171875</ele>
        <time>2022-05-06T08:33:02.000Z</time>
      </trkpt>
      <trkpt lat="40.33986174501478672027587890625" lon="-1.01377299986779689788818359375">
        <ele>1074.199951171875</ele>
        <time>2022-05-06T08:33:04.000Z</time>
      </trkpt>
      <trkpt lat="40.33981941640377044677734375" lon="-1.01372773759067058563232421875">
        <ele>1075</ele>
        <time>2022-05-06T08:33:06.000Z</time>
      </trkpt>
      <trkpt lat="40.33977859653532505035400390625" lon="-1.01368180476129055023193359375">
        <ele>1076.199951171875</ele>
        <time>2022-05-06T08:33:08.000Z</time>
      </trkpt>
      <trkpt lat="40.3397377766668796539306640625" lon="-1.01363151334226131439208984375">
        <ele>1077.4000244140625</ele>
        <time>2022-05-06T08:33:10.000Z</time>
      </trkpt>
      <trkpt lat="40.33971791155636310577392578125" lon="-1.013608463108539581298828125">
        <ele>1078</ele>
        <time>2022-05-06T08:33:11.000Z</time>
      </trkpt>
      <trkpt lat="40.3396972082555294036865234375" lon="-1.01358574815094470977783203125">
        <ele>1078.5999755859375</ele>
        <time>2022-05-06T08:33:12.000Z</time>
      </trkpt>
      <trkpt lat="40.33965672366321086883544921875" lon="-1.013543419539928436279296875">
        <ele>1079.5999755859375</ele>
        <time>2022-05-06T08:33:14.000Z</time>
      </trkpt>
      <trkpt lat="40.339635349810123443603515625" lon="-1.013523302972316741943359375">
        <ele>1080.199951171875</ele>
        <time>2022-05-06T08:33:15.000Z</time>
      </trkpt>
      <trkpt lat="40.33961498178541660308837890625" lon="-1.01350125856697559356689453125">
        <ele>1080.5999755859375</ele>
        <time>2022-05-06T08:33:16.000Z</time>
      </trkpt>
      <trkpt lat="40.3395746648311614990234375" lon="-1.01345616392791271209716796875">
        <ele>1081.199951171875</ele>
        <time>2022-05-06T08:33:18.000Z</time>
      </trkpt>
      <trkpt lat="40.33953418023884296417236328125" lon="-1.0134074650704860687255859375">
        <ele>1082</ele>
        <time>2022-05-06T08:33:20.000Z</time>
      </trkpt>
      <trkpt lat="40.33949143253266811370849609375" lon="-1.01336111314594745635986328125">
        <ele>1082.800048828125</ele>
        <time>2022-05-06T08:33:22.000Z</time>
      </trkpt>
      <trkpt lat="40.33945069648325443267822265625" lon="-1.01331266574561595916748046875">
        <ele>1083.5999755859375</ele>
        <time>2022-05-06T08:33:24.000Z</time>
      </trkpt>
      <trkpt lat="40.3394075296819210052490234375" lon="-1.0132648050785064697265625">
        <ele>1084.4000244140625</ele>
        <time>2022-05-06T08:33:26.000Z</time>
      </trkpt>
      <trkpt lat="40.3393629379570484161376953125" lon="-1.01321795023977756500244140625">
        <ele>1085</ele>
        <time>2022-05-06T08:33:28.000Z</time>
      </trkpt>
      <trkpt lat="40.339341647922992706298828125" lon="-1.013192720711231231689453125">
        <ele>1085.199951171875</ele>
        <time>2022-05-06T08:33:29.000Z</time>
      </trkpt>
      <trkpt lat="40.3393210284411907196044921875" lon="-1.01316698826849460601806640625">
        <ele>1085.5999755859375</ele>
        <time>2022-05-06T08:33:30.000Z</time>
      </trkpt>
      <trkpt lat="40.339278616011142730712890625" lon="-1.01311502046883106231689453125">
        <ele>1086.199951171875</ele>
        <time>2022-05-06T08:33:32.000Z</time>
      </trkpt>
      <trkpt lat="40.3392392210662364959716796875" lon="-1.013063974678516387939453125">
        <ele>1086.800048828125</ele>
        <time>2022-05-06T08:33:34.000Z</time>
      </trkpt>
      <trkpt lat="40.33919823355972766876220703125" lon="-1.0130138508975505828857421875">
        <ele>1087.4000244140625</ele>
        <time>2022-05-06T08:33:36.000Z</time>
      </trkpt>
      <trkpt lat="40.3391570784151554107666015625" lon="-1.012966074049472808837890625">
        <ele>1088.199951171875</ele>
        <time>2022-05-06T08:33:38.000Z</time>
      </trkpt>
      <trkpt lat="40.3391185216605663299560546875" lon="-1.01291544735431671142578125">
        <ele>1088.800048828125</ele>
        <time>2022-05-06T08:33:40.000Z</time>
      </trkpt>
      <trkpt lat="40.3390784561634063720703125" lon="-1.01286021061241626739501953125">
        <ele>1089.5999755859375</ele>
        <time>2022-05-06T08:33:42.000Z</time>
      </trkpt>
      <trkpt lat="40.33904157578945159912109375" lon="-1.01280773989856243133544921875">
        <ele>1090.199951171875</ele>
        <time>2022-05-06T08:33:44.000Z</time>
      </trkpt>
      <trkpt lat="40.33900276757776737213134765625" lon="-1.01275627501308917999267578125">
        <ele>1090.4000244140625</ele>
        <time>2022-05-06T08:33:46.000Z</time>
      </trkpt>
      <trkpt lat="40.3389622829854488372802734375" lon="-1.01270615123212337493896484375">
        <ele>1090.800048828125</ele>
        <time>2022-05-06T08:33:48.000Z</time>
      </trkpt>
      <trkpt lat="40.33892213366925716400146484375" lon="-1.0126561112701892852783203125">
        <ele>1091.199951171875</ele>
        <time>2022-05-06T08:33:50.000Z</time>
      </trkpt>
      <trkpt lat="40.3388801403343677520751953125" lon="-1.012604646384716033935546875">
        <ele>1091.5999755859375</ele>
        <time>2022-05-06T08:33:52.000Z</time>
      </trkpt>
      <trkpt lat="40.33883999101817607879638671875" lon="-1.01255410350859165191650390625">
        <ele>1091.800048828125</ele>
        <time>2022-05-06T08:33:54.000Z</time>
      </trkpt>
      <trkpt lat="40.33879925496876239776611328125" lon="-1.01250029169023036956787109375">
        <ele>1092.4000244140625</ele>
        <time>2022-05-06T08:33:56.000Z</time>
      </trkpt>
      <trkpt lat="40.33875717781484127044677734375" lon="-1.0124489106237888336181640625">
        <ele>1093</ele>
        <time>2022-05-06T08:33:58.000Z</time>
      </trkpt>
      <trkpt lat="40.33871300518512725830078125" lon="-1.012396775186061859130859375">
        <ele>1093.5999755859375</ele>
        <time>2022-05-06T08:34:00.000Z</time>
      </trkpt>
      <trkpt lat="40.338667742908000946044921875" lon="-1.0123459808528423309326171875">
        <ele>1094</ele>
        <time>2022-05-06T08:34:02.000Z</time>
      </trkpt>
      <trkpt lat="40.338644944131374359130859375" lon="-1.0123184882104396820068359375">
        <ele>1094.199951171875</ele>
        <time>2022-05-06T08:34:03.000Z</time>
      </trkpt>
      <trkpt lat="40.33862206153571605682373046875" lon="-1.01229024119675159454345703125">
        <ele>1094.199951171875</ele>
        <time>2022-05-06T08:34:04.000Z</time>
      </trkpt>
      <trkpt lat="40.3385715186595916748046875" lon="-1.012245230376720428466796875">
        <ele>1094.4000244140625</ele>
        <time>2022-05-06T08:34:06.000Z</time>
      </trkpt>
      <trkpt lat="40.33852365799248218536376953125" lon="-1.01220072247087955474853515625">
        <ele>1094.5999755859375</ele>
        <time>2022-05-06T08:34:08.000Z</time>
      </trkpt>
      <trkpt lat="40.33847772516310214996337890625" lon="-1.0121552087366580963134765625">
        <ele>1095</ele>
        <time>2022-05-06T08:34:10.000Z</time>
      </trkpt>
      <trkpt lat="40.3384305350482463836669921875" lon="-1.01210952736437320709228515625">
        <ele>1095.199951171875</ele>
        <time>2022-05-06T08:34:12.000Z</time>
      </trkpt>
      <trkpt lat="40.3383886255323886871337890625" lon="-1.012064181268215179443359375">
        <ele>1095.4000244140625</ele>
        <time>2022-05-06T08:34:14.000Z</time>
      </trkpt>
      <trkpt lat="40.33837060444056987762451171875" lon="-1.01204113103449344635009765625">
        <ele>1095.4000244140625</ele>
        <time>2022-05-06T08:34:15.000Z</time>
      </trkpt>
      <trkpt lat="40.338349901139736175537109375" lon="-1.0120187513530254364013671875">
        <ele>1095.5999755859375</ele>
        <time>2022-05-06T08:34:16.000Z</time>
      </trkpt>
      <trkpt lat="40.33830924890935420989990234375" lon="-1.01196938194334506988525390625">
        <ele>1095.800048828125</ele>
        <time>2022-05-06T08:34:18.000Z</time>
      </trkpt>
      <trkpt lat="40.33826549537479877471923828125" lon="-1.01192210800945758819580078125">
        <ele>1095.800048828125</ele>
        <time>2022-05-06T08:34:20.000Z</time>
      </trkpt>
      <trkpt lat="40.33824403770267963409423828125" lon="-1.01190098561346530914306640625">
        <ele>1095.5999755859375</ele>
        <time>2022-05-06T08:34:21.000Z</time>
      </trkpt>
      <trkpt lat="40.33822392113506793975830078125" lon="-1.01188011467456817626953125">
        <ele>1095.5999755859375</ele>
        <time>2022-05-06T08:34:22.000Z</time>
      </trkpt>
      <trkpt lat="40.3381861187517642974853515625" lon="-1.0118410550057888031005859375">
        <ele>1095.199951171875</ele>
        <time>2022-05-06T08:34:24.000Z</time>
      </trkpt>
      <trkpt lat="40.33814647234976291656494140625" lon="-1.01179671473801136016845703125">
        <ele>1095</ele>
        <time>2022-05-06T08:34:26.000Z</time>
      </trkpt>
      <trkpt lat="40.33812685869634151458740234375" lon="-1.01177341304719448089599609375">
        <ele>1094.800048828125</ele>
        <time>2022-05-06T08:34:27.000Z</time>
      </trkpt>
      <trkpt lat="40.33810489811003208160400390625" lon="-1.011753380298614501953125">
        <ele>1094.800048828125</ele>
        <time>2022-05-06T08:34:28.000Z</time>
      </trkpt>
      <trkpt lat="40.33806500025093555450439453125" lon="-1.01170317269861698150634765625">
        <ele>1094.4000244140625</ele>
        <time>2022-05-06T08:34:30.000Z</time>
      </trkpt>
      <trkpt lat="40.33802711404860019683837890625" lon="-1.0116543062031269073486328125">
        <ele>1094.199951171875</ele>
        <time>2022-05-06T08:34:32.000Z</time>
      </trkpt>
      <trkpt lat="40.33800833858549594879150390625" lon="-1.0116294957697391510009765625">
        <ele>1094</ele>
        <time>2022-05-06T08:34:33.000Z</time>
      </trkpt>
      <trkpt lat="40.33799149096012115478515625" lon="-1.01159990765154361724853515625">
        <ele>1094</ele>
        <time>2022-05-06T08:34:34.000Z</time>
      </trkpt>
      <trkpt lat="40.3379584662616252899169921875" lon="-1.01154592819511890411376953125">
        <ele>1093.800048828125</ele>
        <time>2022-05-06T08:34:36.000Z</time>
      </trkpt>
      <trkpt lat="40.337920747697353363037109375" lon="-1.0114957205951213836669921875">
        <ele>1093.4000244140625</ele>
        <time>2022-05-06T08:34:38.000Z</time>
      </trkpt>
      <trkpt lat="40.33787883818149566650390625" lon="-1.01144693791866302490234375">
        <ele>1092.800048828125</ele>
        <time>2022-05-06T08:34:40.000Z</time>
      </trkpt>
      <trkpt lat="40.33785830251872539520263671875" lon="-1.01142187602818012237548828125">
        <ele>1092.4000244140625</ele>
        <time>2022-05-06T08:34:41.000Z</time>
      </trkpt>
      <trkpt lat="40.33783600665628910064697265625" lon="-1.0113954730331897735595703125">
        <ele>1092</ele>
        <time>2022-05-06T08:34:42.000Z</time>
      </trkpt>
      <trkpt lat="40.33779434859752655029296875" lon="-1.011345349252223968505859375">
        <ele>1091.5999755859375</ele>
        <time>2022-05-06T08:34:44.000Z</time>
      </trkpt>
      <trkpt lat="40.33775319345295429229736328125" lon="-1.01129413582384586334228515625">
        <ele>1091.199951171875</ele>
        <time>2022-05-06T08:34:46.000Z</time>
      </trkpt>
      <trkpt lat="40.33771513961255550384521484375" lon="-1.0112435929477214813232421875">
        <ele>1090.800048828125</ele>
        <time>2022-05-06T08:34:48.000Z</time>
      </trkpt>
      <trkpt lat="40.33767406828701496124267578125" lon="-1.011195145547389984130859375">
        <ele>1090.199951171875</ele>
        <time>2022-05-06T08:34:50.000Z</time>
      </trkpt>
      <trkpt lat="40.33765428699553012847900390625" lon="-1.01116958074271678924560546875">
        <ele>1090</ele>
        <time>2022-05-06T08:34:51.000Z</time>
      </trkpt>
      <trkpt lat="40.33763282932341098785400390625" lon="-1.0111446864902973175048828125">
        <ele>1089.800048828125</ele>
        <time>2022-05-06T08:34:52.000Z</time>
      </trkpt>
      <trkpt lat="40.3375903330743312835693359375" lon="-1.01109690964221954345703125">
        <ele>1089.199951171875</ele>
        <time>2022-05-06T08:34:54.000Z</time>
      </trkpt>
      <trkpt lat="40.3375490941107273101806640625" lon="-1.01105106063187122344970703125">
        <ele>1088.800048828125</ele>
        <time>2022-05-06T08:34:56.000Z</time>
      </trkpt>
      <trkpt lat="40.3375098668038845062255859375" lon="-1.011006049811840057373046875">
        <ele>1088.4000244140625</ele>
        <time>2022-05-06T08:34:58.000Z</time>
      </trkpt>
      <trkpt lat="40.337488241493701934814453125" lon="-1.01098383776843547821044921875">
        <ele>1088.4000244140625</ele>
        <time>2022-05-06T08:34:59.000Z</time>
      </trkpt>
      <trkpt lat="40.337465107440948486328125" lon="-1.0109602846205234527587890625">
        <ele>1088.199951171875</ele>
        <time>2022-05-06T08:35:00.000Z</time>
      </trkpt>
      <trkpt lat="40.33741992898285388946533203125" lon="-1.01091720163822174072265625">
        <ele>1088</ele>
        <time>2022-05-06T08:35:02.000Z</time>
      </trkpt>
      <trkpt lat="40.33737500198185443878173828125" lon="-1.01087520830333232879638671875">
        <ele>1087.800048828125</ele>
        <time>2022-05-06T08:35:04.000Z</time>
      </trkpt>
      <trkpt lat="40.3373323380947113037109375" lon="-1.0108275152742862701416015625">
        <ele>1087.5999755859375</ele>
        <time>2022-05-06T08:35:06.000Z</time>
      </trkpt>
      <trkpt lat="40.33728783018887042999267578125" lon="-1.01077579893171787261962890625">
        <ele>1087.4000244140625</ele>
        <time>2022-05-06T08:35:08.000Z</time>
      </trkpt>
      <trkpt lat="40.33724273554980754852294921875" lon="-1.0107274353504180908203125">
        <ele>1087.199951171875</ele>
        <time>2022-05-06T08:35:10.000Z</time>
      </trkpt>
      <trkpt lat="40.33721859566867351531982421875" lon="-1.01070824079215526580810546875">
        <ele>1087.199951171875</ele>
        <time>2022-05-06T08:35:11.000Z</time>
      </trkpt>
      <trkpt lat="40.33719512633979320526123046875" lon="-1.0106883756816387176513671875">
        <ele>1087</ele>
        <time>2022-05-06T08:35:12.000Z</time>
      </trkpt>
      <trkpt lat="40.33714936114847660064697265625" lon="-1.01065057329833507537841796875">
        <ele>1086.800048828125</ele>
        <time>2022-05-06T08:35:14.000Z</time>
      </trkpt>
      <trkpt lat="40.3370998241007328033447265625" lon="-1.01061184890568256378173828125">
        <ele>1086.4000244140625</ele>
        <time>2022-05-06T08:35:16.000Z</time>
      </trkpt>
      <trkpt lat="40.337049700319766998291015625" lon="-1.01058066822588443756103515625">
        <ele>1085.800048828125</ele>
        <time>2022-05-06T08:35:18.000Z</time>
      </trkpt>
      <trkpt lat="40.33699505031108856201171875" lon="-1.01055443286895751953125">
        <ele>1085.4000244140625</ele>
        <time>2022-05-06T08:35:20.000Z</time>
      </trkpt>
      <trkpt lat="40.3369694016873836517333984375" lon="-1.010540015995502471923828125">
        <ele>1085</ele>
        <time>2022-05-06T08:35:21.000Z</time>
      </trkpt>
      <trkpt lat="40.33694433979690074920654296875" lon="-1.01052484475076198577880859375">
        <ele>1084.800048828125</ele>
        <time>2022-05-06T08:35:22.000Z</time>
      </trkpt>
      <trkpt lat="40.33689253963530063629150390625" lon="-1.01049684919416904449462890625">
        <ele>1084.4000244140625</ele>
        <time>2022-05-06T08:35:24.000Z</time>
      </trkpt>
      <trkpt lat="40.33683872781693935394287109375" lon="-1.01047187112271785736083984375">
        <ele>1083.800048828125</ele>
        <time>2022-05-06T08:35:26.000Z</time>
      </trkpt>
      <trkpt lat="40.33678541891276836395263671875" lon="-1.01045091636478900909423828125">
        <ele>1083.199951171875</ele>
        <time>2022-05-06T08:35:28.000Z</time>
      </trkpt>
      <trkpt lat="40.3367310203611850738525390625" lon="-1.0104308836162090301513671875">
        <ele>1082.800048828125</ele>
        <time>2022-05-06T08:35:30.000Z</time>
      </trkpt>
      <trkpt lat="40.3366751968860626220703125" lon="-1.0104147903621196746826171875">
        <ele>1082</ele>
        <time>2022-05-06T08:35:32.000Z</time>
      </trkpt>
      <trkpt lat="40.3366210497915744781494140625" lon="-1.0104017145931720733642578125">
        <ele>1081.4000244140625</ele>
        <time>2022-05-06T08:35:34.000Z</time>
      </trkpt>
      <trkpt lat="40.3365647234022617340087890625" lon="-1.0103862918913364410400390625">
        <ele>1080.800048828125</ele>
        <time>2022-05-06T08:35:36.000Z</time>
      </trkpt>
      <trkpt lat="40.336536057293415069580078125" lon="-1.0103799216449260711669921875">
        <ele>1080.5999755859375</ele>
        <time>2022-05-06T08:35:37.000Z</time>
      </trkpt>
      <trkpt lat="40.33650747500360012054443359375" lon="-1.010374724864959716796875">
        <ele>1080.199951171875</ele>
        <time>2022-05-06T08:35:38.000Z</time>
      </trkpt>
      <trkpt lat="40.33645282499492168426513671875" lon="-1.01036877371370792388916015625">
        <ele>1079.4000244140625</ele>
        <time>2022-05-06T08:35:40.000Z</time>
      </trkpt>
      <trkpt lat="40.33639700151979923248291015625" lon="-1.01036257110536098480224609375">
        <ele>1078.4000244140625</ele>
        <time>2022-05-06T08:35:42.000Z</time>
      </trkpt>
      <trkpt lat="40.33634101040661334991455078125" lon="-1.010359637439250946044921875">
        <ele>1077.5999755859375</ele>
        <time>2022-05-06T08:35:44.000Z</time>
      </trkpt>
      <trkpt lat="40.3363129310309886932373046875" lon="-1.01035888306796550750732421875">
        <ele>1077.199951171875</ele>
        <time>2022-05-06T08:35:45.000Z</time>
      </trkpt>
      <trkpt lat="40.3362847678363323211669921875" lon="-1.01035804487764835357666015625">
        <ele>1077.4000244140625</ele>
        <time>2022-05-06T08:35:46.000Z</time>
      </trkpt>
      <trkpt lat="40.336228944361209869384765625" lon="-1.01035838015377521514892578125">
        <ele>1078.199951171875</ele>
        <time>2022-05-06T08:35:48.000Z</time>
      </trkpt>
      <trkpt lat="40.336172282695770263671875" lon="-1.010358966886997222900390625">
        <ele>1078.800048828125</ele>
        <time>2022-05-06T08:35:50.000Z</time>
      </trkpt>
      <trkpt lat="40.33611637540161609649658203125" lon="-1.01036475040018558502197265625">
        <ele>1079.5999755859375</ele>
        <time>2022-05-06T08:35:52.000Z</time>
      </trkpt>
      <trkpt lat="40.33606122247874736785888671875" lon="-1.0103712044656276702880859375">
        <ele>1080.199951171875</ele>
        <time>2022-05-06T08:35:54.000Z</time>
      </trkpt>
      <trkpt lat="40.33600556664168834686279296875" lon="-1.010378412902355194091796875">
        <ele>1081</ele>
        <time>2022-05-06T08:35:56.000Z</time>
      </trkpt>
      <trkpt lat="40.3359528444707393646240234375" lon="-1.01038922555744647979736328125">
        <ele>1081.5999755859375</ele>
        <time>2022-05-06T08:35:58.000Z</time>
      </trkpt>
      <trkpt lat="40.3359260223805904388427734375" lon="-1.01039375178515911102294921875">
        <ele>1082</ele>
        <time>2022-05-06T08:35:59.000Z</time>
      </trkpt>
      <trkpt lat="40.335897691547870635986328125" lon="-1.01039819419384002685546875">
        <ele>1082.199951171875</ele>
        <time>2022-05-06T08:36:00.000Z</time>
      </trkpt>
      <trkpt lat="40.335846059024333953857421875" lon="-1.01040967740118503570556640625">
        <ele>1083</ele>
        <time>2022-05-06T08:36:02.000Z</time>
      </trkpt>
      <trkpt lat="40.335819236934185028076171875" lon="-1.0104161314666271209716796875">
        <ele>1083.199951171875</ele>
        <time>2022-05-06T08:36:03.000Z</time>
      </trkpt>
      <trkpt lat="40.33579283393919467926025390625" lon="-1.01042308844625949859619140625">
        <ele>1083.5999755859375</ele>
        <time>2022-05-06T08:36:04.000Z</time>
      </trkpt>
      <trkpt lat="40.3357364237308502197265625" lon="-1.01043683476746082305908203125">
        <ele>1084.199951171875</ele>
        <time>2022-05-06T08:36:06.000Z</time>
      </trkpt>
      <trkpt lat="40.3356769122183322906494140625" lon="-1.0104489885270595550537109375">
        <ele>1085</ele>
        <time>2022-05-06T08:36:08.000Z</time>
      </trkpt>
      <trkpt lat="40.33561773598194122314453125" lon="-1.010460555553436279296875">
        <ele>1085.5999755859375</ele>
        <time>2022-05-06T08:36:10.000Z</time>
      </trkpt>
      <trkpt lat="40.3355620801448822021484375" lon="-1.01047438569366931915283203125">
        <ele>1086.4000244140625</ele>
        <time>2022-05-06T08:36:12.000Z</time>
      </trkpt>
      <trkpt lat="40.33550231717526912689208984375" lon="-1.01048762910068035125732421875">
        <ele>1087.4000244140625</ele>
        <time>2022-05-06T08:36:14.000Z</time>
      </trkpt>
      <trkpt lat="40.33544766716659069061279296875" lon="-1.01050154305994510650634765625">
        <ele>1088</ele>
        <time>2022-05-06T08:36:16.000Z</time>
      </trkpt>
      <trkpt lat="40.3354217670857906341552734375" lon="-1.010508835315704345703125">
        <ele>1088.4000244140625</ele>
        <time>2022-05-06T08:36:17.000Z</time>
      </trkpt>
      <trkpt lat="40.33539620228111743927001953125" lon="-1.010517887771129608154296875">
        <ele>1088.5999755859375</ele>
        <time>2022-05-06T08:36:18.000Z</time>
      </trkpt>
      <trkpt lat="40.33534339629113674163818359375" lon="-1.0105324722826480865478515625">
        <ele>1089</ele>
        <time>2022-05-06T08:36:20.000Z</time>
      </trkpt>
      <trkpt lat="40.33528983592987060546875" lon="-1.0105462186038494110107421875">
        <ele>1089.5999755859375</ele>
        <time>2022-05-06T08:36:22.000Z</time>
      </trkpt>
      <trkpt lat="40.33523493446409702301025390625" lon="-1.01056172512471675872802734375">
        <ele>1090</ele>
        <time>2022-05-06T08:36:24.000Z</time>
      </trkpt>
      <trkpt lat="40.33518455922603607177734375" lon="-1.01058200933039188385009765625">
        <ele>1090.4000244140625</ele>
        <time>2022-05-06T08:36:26.000Z</time>
      </trkpt>
      <trkpt lat="40.33512957394123077392578125" lon="-1.01059726439416408538818359375">
        <ele>1091</ele>
        <time>2022-05-06T08:36:28.000Z</time>
      </trkpt>
      <trkpt lat="40.33510006964206695556640625" lon="-1.01060464046895503997802734375">
        <ele>1091.199951171875</ele>
        <time>2022-05-06T08:36:29.000Z</time>
      </trkpt>
      <trkpt lat="40.33506947569549083709716796875" lon="-1.0106092505156993865966796875">
        <ele>1091.4000244140625</ele>
        <time>2022-05-06T08:36:30.000Z</time>
      </trkpt>
      <trkpt lat="40.335041396319866180419921875" lon="-1.01061503402888774871826171875">
        <ele>1091.5999755859375</ele>
        <time>2022-05-06T08:36:31.000Z</time>
      </trkpt>
      <trkpt lat="40.33501214347779750823974609375" lon="-1.01062173955142498016357421875">
        <ele>1092</ele>
        <time>2022-05-06T08:36:32.000Z</time>
      </trkpt>
      <trkpt lat="40.3349557332694530487060546875" lon="-1.010630540549755096435546875">
        <ele>1092.4000244140625</ele>
        <time>2022-05-06T08:36:34.000Z</time>
      </trkpt>
      <trkpt lat="40.33492505550384521484375" lon="-1.010634899139404296875">
        <ele>1092.800048828125</ele>
        <time>2022-05-06T08:36:35.000Z</time>
      </trkpt>
      <trkpt lat="40.33489295281469821929931640625" lon="-1.01063883863389492034912109375">
        <ele>1093</ele>
        <time>2022-05-06T08:36:36.000Z</time>
      </trkpt>
      <trkpt lat="40.33483277074992656707763671875" lon="-1.01065141148865222930908203125">
        <ele>1093.5999755859375</ele>
        <time>2022-05-06T08:36:38.000Z</time>
      </trkpt>
      <trkpt lat="40.33477711491286754608154296875" lon="-1.01066515780985355377197265625">
        <ele>1094</ele>
        <time>2022-05-06T08:36:40.000Z</time>
      </trkpt>
      <trkpt lat="40.33472045324742794036865234375" lon="-1.0106816701591014862060546875">
        <ele>1094.4000244140625</ele>
        <time>2022-05-06T08:36:42.000Z</time>
      </trkpt>
      <trkpt lat="40.33466965891420841217041015625" lon="-1.01069751195609569549560546875">
        <ele>1094.800048828125</ele>
        <time>2022-05-06T08:36:44.000Z</time>
      </trkpt>
      <trkpt lat="40.3346147574484348297119140625" lon="-1.0107101686298847198486328125">
        <ele>1094.800048828125</ele>
        <time>2022-05-06T08:36:46.000Z</time>
      </trkpt>
      <trkpt lat="40.33456170000135898590087890625" lon="-1.01072098128497600555419921875">
        <ele>1094.5999755859375</ele>
        <time>2022-05-06T08:36:48.000Z</time>
      </trkpt>
      <trkpt lat="40.33453269861638545989990234375" lon="-1.01072533987462520599365234375">
        <ele>1094.5999755859375</ele>
        <time>2022-05-06T08:36:49.000Z</time>
      </trkpt>
      <trkpt lat="40.33450319431722164154052734375" lon="-1.01073238067328929901123046875">
        <ele>1094.4000244140625</ele>
        <time>2022-05-06T08:36:50.000Z</time>
      </trkpt>
      <trkpt lat="40.33444435335695743560791015625" lon="-1.010746546089649200439453125">
        <ele>1094</ele>
        <time>2022-05-06T08:36:52.000Z</time>
      </trkpt>
      <trkpt lat="40.3344166092574596405029296875" lon="-1.0107544250786304473876953125">
        <ele>1094</ele>
        <time>2022-05-06T08:36:53.000Z</time>
      </trkpt>
      <trkpt lat="40.33438903279602527618408203125" lon="-1.0107607953250408172607421875">
        <ele>1093.800048828125</ele>
        <time>2022-05-06T08:36:54.000Z</time>
      </trkpt>
      <trkpt lat="40.3343354724347591400146484375" lon="-1.0107703506946563720703125">
        <ele>1093.5999755859375</ele>
        <time>2022-05-06T08:36:56.000Z</time>
      </trkpt>
      <trkpt lat="40.3342828340828418731689453125" lon="-1.01078183390200138092041015625">
        <ele>1093.4000244140625</ele>
        <time>2022-05-06T08:36:58.000Z</time>
      </trkpt>
      <trkpt lat="40.334228686988353729248046875" lon="-1.0107936523854732513427734375">
        <ele>1093.199951171875</ele>
        <time>2022-05-06T08:37:00.000Z</time>
      </trkpt>
      <trkpt lat="40.3341738693416118621826171875" lon="-1.01080496795475482940673828125">
        <ele>1093</ele>
        <time>2022-05-06T08:37:02.000Z</time>
      </trkpt>
      <trkpt lat="40.33411963842809200286865234375" lon="-1.0108137689530849456787109375">
        <ele>1092.800048828125</ele>
        <time>2022-05-06T08:37:04.000Z</time>
      </trkpt>
      <trkpt lat="40.33406364731490612030029296875" lon="-1.01082189939916133880615234375">
        <ele>1092.800048828125</ele>
        <time>2022-05-06T08:37:06.000Z</time>
      </trkpt>
      <trkpt lat="40.33400530926883220672607421875" lon="-1.01082793436944484710693359375">
        <ele>1092.5999755859375</ele>
        <time>2022-05-06T08:37:08.000Z</time>
      </trkpt>
      <trkpt lat="40.33395049162209033966064453125" lon="-1.010837070643901824951171875">
        <ele>1092.4000244140625</ele>
        <time>2022-05-06T08:37:10.000Z</time>
      </trkpt>
      <trkpt lat="40.33389114774763584136962890625" lon="-1.0108446143567562103271484375">
        <ele>1092.4000244140625</ele>
        <time>2022-05-06T08:37:12.000Z</time>
      </trkpt>
      <trkpt lat="40.3338308818638324737548828125" lon="-1.0108503140509128570556640625">
        <ele>1092.199951171875</ele>
        <time>2022-05-06T08:37:14.000Z</time>
      </trkpt>
      <trkpt lat="40.33376994542777538299560546875" lon="-1.01085375063121318817138671875">
        <ele>1092.4000244140625</ele>
        <time>2022-05-06T08:37:16.000Z</time>
      </trkpt>
      <trkpt lat="40.33370775170624256134033203125" lon="-1.0108588635921478271484375">
        <ele>1092.5999755859375</ele>
        <time>2022-05-06T08:37:18.000Z</time>
      </trkpt>
      <trkpt lat="40.3336464799940586090087890625" lon="-1.01086414419114589691162109375">
        <ele>1093</ele>
        <time>2022-05-06T08:37:20.000Z</time>
      </trkpt>
      <trkpt lat="40.33361672423779964447021484375" lon="-1.0108657367527484893798828125">
        <ele>1093</ele>
        <time>2022-05-06T08:37:21.000Z</time>
      </trkpt>
      <trkpt lat="40.33358688466250896453857421875" lon="-1.01086665876209735870361328125">
        <ele>1093.199951171875</ele>
        <time>2022-05-06T08:37:22.000Z</time>
      </trkpt>
      <trkpt lat="40.3335304744541645050048828125" lon="-1.01086632348597049713134765625">
        <ele>1093.5999755859375</ele>
        <time>2022-05-06T08:37:24.000Z</time>
      </trkpt>
      <trkpt lat="40.33350105397403240203857421875" lon="-1.01086665876209735870361328125">
        <ele>1093.5999755859375</ele>
        <time>2022-05-06T08:37:25.000Z</time>
      </trkpt>
      <trkpt lat="40.33347121439874172210693359375" lon="-1.0108669102191925048828125">
        <ele>1093.4000244140625</ele>
        <time>2022-05-06T08:37:26.000Z</time>
      </trkpt>
      <trkpt lat="40.33341103233397006988525390625" lon="-1.01086556911468505859375">
        <ele>1093.4000244140625</ele>
        <time>2022-05-06T08:37:28.000Z</time>
      </trkpt>
      <trkpt lat="40.33335395157337188720703125" lon="-1.01086347363889217376708984375">
        <ele>1093.199951171875</ele>
        <time>2022-05-06T08:37:30.000Z</time>
      </trkpt>
      <trkpt lat="40.33329628407955169677734375" lon="-1.01086062379181385040283203125">
        <ele>1093.199951171875</ele>
        <time>2022-05-06T08:37:32.000Z</time>
      </trkpt>
      <trkpt lat="40.33324322663247585296630859375" lon="-1.0108573548495769500732421875">
        <ele>1093</ele>
        <time>2022-05-06T08:37:34.000Z</time>
      </trkpt>
      <trkpt lat="40.3331928513944149017333984375" lon="-1.010852158069610595703125">
        <ele>1093</ele>
        <time>2022-05-06T08:37:36.000Z</time>
      </trkpt>
      <trkpt lat="40.3331400454044342041015625" lon="-1.01084570400416851043701171875">
        <ele>1092.800048828125</ele>
        <time>2022-05-06T08:37:38.000Z</time>
      </trkpt>
      <trkpt lat="40.33308363519608974456787109375" lon="-1.0108379088342189788818359375">
        <ele>1092.800048828125</ele>
        <time>2022-05-06T08:37:40.000Z</time>
      </trkpt>
      <trkpt lat="40.33302529715001583099365234375" lon="-1.01082927547395229339599609375">
        <ele>1092.800048828125</ele>
        <time>2022-05-06T08:37:42.000Z</time>
      </trkpt>
      <trkpt lat="40.3329678811132907867431640625" lon="-1.0108218155801296234130859375">
        <ele>1092.800048828125</ele>
        <time>2022-05-06T08:37:44.000Z</time>
      </trkpt>
      <trkpt lat="40.3329071961343288421630859375" lon="-1.010809578001499176025390625">
        <ele>1093</ele>
        <time>2022-05-06T08:37:46.000Z</time>
      </trkpt>
      <trkpt lat="40.33285078592598438262939453125" lon="-1.01079826243221759796142578125">
        <ele>1093</ele>
        <time>2022-05-06T08:37:48.000Z</time>
      </trkpt>
      <trkpt lat="40.332791022956371307373046875" lon="-1.01078485138714313507080078125">
        <ele>1093.199951171875</ele>
        <time>2022-05-06T08:37:50.000Z</time>
      </trkpt>
      <trkpt lat="40.33273159526288509368896484375" lon="-1.0107703506946563720703125">
        <ele>1093.4000244140625</ele>
        <time>2022-05-06T08:37:52.000Z</time>
      </trkpt>
      <trkpt lat="40.33267267048358917236328125" lon="-1.01075635291635990142822265625">
        <ele>1093.5999755859375</ele>
        <time>2022-05-06T08:37:54.000Z</time>
      </trkpt>
      <trkpt lat="40.3326124884188175201416015625" lon="-1.010741181671619415283203125">
        <ele>1093.5999755859375</ele>
        <time>2022-05-06T08:37:56.000Z</time>
      </trkpt>
      <trkpt lat="40.33255255781114101409912109375" lon="-1.0107239149510860443115234375">
        <ele>1093.800048828125</ele>
        <time>2022-05-06T08:37:58.000Z</time>
      </trkpt>
      <trkpt lat="40.3325222991406917572021484375" lon="-1.0107162036001682281494140625">
        <ele>1093.800048828125</ele>
        <time>2022-05-06T08:37:59.000Z</time>
      </trkpt>
      <trkpt lat="40.332492291927337646484375" lon="-1.01070723496377468109130859375">
        <ele>1094</ele>
        <time>2022-05-06T08:38:00.000Z</time>
      </trkpt>
      <trkpt lat="40.33243252895772457122802734375" lon="-1.0106898844242095947265625">
        <ele>1094.199951171875</ele>
        <time>2022-05-06T08:38:02.000Z</time>
      </trkpt>
      <trkpt lat="40.33237117342650890350341796875" lon="-1.0106699354946613311767578125">
        <ele>1094.199951171875</ele>
        <time>2022-05-06T08:38:04.000Z</time>
      </trkpt>
      <trkpt lat="40.33231317065656185150146484375" lon="-1.010649316012859344482421875">
        <ele>1094.4000244140625</ele>
        <time>2022-05-06T08:38:06.000Z</time>
      </trkpt>
      <trkpt lat="40.3322668187320232391357421875" lon="-1.010631211102008819580078125">
        <ele>1094.5999755859375</ele>
        <time>2022-05-06T08:38:08.000Z</time>
      </trkpt>
      <trkpt lat="40.33221275545656681060791015625" lon="-1.010613776743412017822265625">
        <ele>1094.800048828125</ele>
        <time>2022-05-06T08:38:10.000Z</time>
      </trkpt>
      <trkpt lat="40.33215559087693691253662109375" lon="-1.0105938278138637542724609375">
        <ele>1095</ele>
        <time>2022-05-06T08:38:12.000Z</time>
      </trkpt>
      <trkpt lat="40.3321025334298610687255859375" lon="-1.01057111285626888275146484375">
        <ele>1095.199951171875</ele>
        <time>2022-05-06T08:38:14.000Z</time>
      </trkpt>
      <trkpt lat="40.332074873149394989013671875" lon="-1.01055937819182872772216796875">
        <ele>1095.199951171875</ele>
        <time>2022-05-06T08:38:15.000Z</time>
      </trkpt>
      <trkpt lat="40.33204746432602405548095703125" lon="-1.01054512895643711090087890625">
        <ele>1095.4000244140625</ele>
        <time>2022-05-06T08:38:16.000Z</time>
      </trkpt>
      <trkpt lat="40.33199331723153591156005859375" lon="-1.0105143673717975616455078125">
        <ele>1095.800048828125</ele>
        <time>2022-05-06T08:38:18.000Z</time>
      </trkpt>
      <trkpt lat="40.3319375775754451751708984375" lon="-1.0104821808636188507080078125">
        <ele>1096.199951171875</ele>
        <time>2022-05-06T08:38:20.000Z</time>
      </trkpt>
      <trkpt lat="40.33188301138579845428466796875" lon="-1.010450161993503570556640625">
        <ele>1096.4000244140625</ele>
        <time>2022-05-06T08:38:22.000Z</time>
      </trkpt>
      <trkpt lat="40.33182919956743717193603515625" lon="-1.0104164667427539825439453125">
        <ele>1096.800048828125</ele>
        <time>2022-05-06T08:38:24.000Z</time>
      </trkpt>
      <trkpt lat="40.3318024612963199615478515625" lon="-1.01039928384125232696533203125">
        <ele>1097</ele>
        <time>2022-05-06T08:38:25.000Z</time>
      </trkpt>
      <trkpt lat="40.3317746333777904510498046875" lon="-1.010383106768131256103515625">
        <ele>1097.199951171875</ele>
        <time>2022-05-06T08:38:26.000Z</time>
      </trkpt>
      <trkpt lat="40.331717468798160552978515625" lon="-1.01035318337380886077880859375">
        <ele>1097.5999755859375</ele>
        <time>2022-05-06T08:38:28.000Z</time>
      </trkpt>
      <trkpt lat="40.33166415989398956298828125" lon="-1.01032049395143985748291015625">
        <ele>1098</ele>
        <time>2022-05-06T08:38:30.000Z</time>
      </trkpt>
      <trkpt lat="40.3316083364188671112060546875" lon="-1.01028881035745143890380859375">
        <ele>1098.4000244140625</ele>
        <time>2022-05-06T08:38:32.000Z</time>
      </trkpt>
      <trkpt lat="40.331553183495998382568359375" lon="-1.010256372392177581787109375">
        <ele>1097.5999755859375</ele>
        <time>2022-05-06T08:38:34.000Z</time>
      </trkpt>
      <trkpt lat="40.33149777911603450775146484375" lon="-1.01022326387465000152587890625">
        <ele>1096.800048828125</ele>
        <time>2022-05-06T08:38:36.000Z</time>
      </trkpt>
      <trkpt lat="40.3314448893070220947265625" lon="-1.010192669928073883056640625">
        <ele>1096.199951171875</ele>
        <time>2022-05-06T08:38:38.000Z</time>
      </trkpt>
      <trkpt lat="40.33139384351670742034912109375" lon="-1.01016408763825893402099609375">
        <ele>1095.4000244140625</ele>
        <time>2022-05-06T08:38:40.000Z</time>
      </trkpt>
      <trkpt lat="40.33134187571704387664794921875" lon="-1.01013399660587310791015625">
        <ele>1094.5999755859375</ele>
        <time>2022-05-06T08:38:42.000Z</time>
      </trkpt>
      <trkpt lat="40.331291668117046356201171875" lon="-1.01010222919285297393798828125">
        <ele>1094.199951171875</ele>
        <time>2022-05-06T08:38:44.000Z</time>
      </trkpt>
      <trkpt lat="40.33124045468866825103759765625" lon="-1.01007230579853057861328125">
        <ele>1094</ele>
        <time>2022-05-06T08:38:46.000Z</time>
      </trkpt>
      <trkpt lat="40.33118781633675098419189453125" lon="-1.010042466223239898681640625">
        <ele>1093.800048828125</ele>
        <time>2022-05-06T08:38:48.000Z</time>
      </trkpt>
      <trkpt lat="40.33116124570369720458984375" lon="-1.01002662442624568939208984375">
        <ele>1093.800048828125</ele>
        <time>2022-05-06T08:38:49.000Z</time>
      </trkpt>
      <trkpt lat="40.3311359323561191558837890625" lon="-1.010010279715061187744140625">
        <ele>1093.800048828125</ele>
        <time>2022-05-06T08:38:50.000Z</time>
      </trkpt>
      <trkpt lat="40.3310846351087093353271484375" lon="-1.009978763759136199951171875">
        <ele>1093.5999755859375</ele>
        <time>2022-05-06T08:38:52.000Z</time>
      </trkpt>
      <trkpt lat="40.331059657037258148193359375" lon="-1.00996325723826885223388671875">
        <ele>1093.800048828125</ele>
        <time>2022-05-06T08:38:53.000Z</time>
      </trkpt>
      <trkpt lat="40.3310340084135532379150390625" lon="-1.00994766689836978912353515625">
        <ele>1094</ele>
        <time>2022-05-06T08:38:54.000Z</time>
      </trkpt>
      <trkpt lat="40.33098245970904827117919921875" lon="-1.00991480983793735504150390625">
        <ele>1094.199951171875</ele>
        <time>2022-05-06T08:38:56.000Z</time>
      </trkpt>
      <trkpt lat="40.3309307433664798736572265625" lon="-1.0098837129771709442138671875">
        <ele>1094.4000244140625</ele>
        <time>2022-05-06T08:38:58.000Z</time>
      </trkpt>
      <trkpt lat="40.33087869174778461456298828125" lon="-1.00985144264996051788330078125">
        <ele>1094.800048828125</ele>
        <time>2022-05-06T08:39:00.000Z</time>
      </trkpt>
      <trkpt lat="40.3308274783194065093994140625" lon="-1.0098186694085597991943359375">
        <ele>1095</ele>
        <time>2022-05-06T08:39:02.000Z</time>
      </trkpt>
      <trkpt lat="40.33077609725296497344970703125" lon="-1.00978421978652477264404296875">
        <ele>1095.4000244140625</ele>
        <time>2022-05-06T08:39:04.000Z</time>
      </trkpt>
      <trkpt lat="40.330723710358142852783203125" lon="-1.00974977016448974609375">
        <ele>1095.5999755859375</ele>
        <time>2022-05-06T08:39:06.000Z</time>
      </trkpt>
      <trkpt lat="40.33066880889236927032470703125" lon="-1.0097187571227550506591796875">
        <ele>1095.800048828125</ele>
        <time>2022-05-06T08:39:08.000Z</time>
      </trkpt>
      <trkpt lat="40.33064299263060092926025390625" lon="-1.009704172611236572265625">
        <ele>1095.800048828125</ele>
        <time>2022-05-06T08:39:09.000Z</time>
      </trkpt>
      <trkpt lat="40.3306175954639911651611328125" lon="-1.0096902586519718170166015625">
        <ele>1095.800048828125</ele>
        <time>2022-05-06T08:39:10.000Z</time>
      </trkpt>
      <trkpt lat="40.33056923188269138336181640625" lon="-1.0096620954573154449462890625">
        <ele>1096</ele>
        <time>2022-05-06T08:39:12.000Z</time>
      </trkpt>
      <trkpt lat="40.3305243887007236480712890625" lon="-1.0096339322626590728759765625">
        <ele>1096.5999755859375</ele>
        <time>2022-05-06T08:39:14.000Z</time>
      </trkpt>
      <trkpt lat="40.33047568984329700469970703125" lon="-1.009603925049304962158203125">
        <ele>1097.199951171875</ele>
        <time>2022-05-06T08:39:16.000Z</time>
      </trkpt>
      <trkpt lat="40.3304248116910457611083984375" lon="-1.00957475602626800537109375">
        <ele>1097.800048828125</ele>
        <time>2022-05-06T08:39:18.000Z</time>
      </trkpt>
      <trkpt lat="40.3304000012576580047607421875" lon="-1.00955941714346408843994140625">
        <ele>1098</ele>
        <time>2022-05-06T08:39:19.000Z</time>
      </trkpt>
      <trkpt lat="40.3303775377571582794189453125" lon="-1.0095434077084064483642578125">
        <ele>1098.199951171875</ele>
        <time>2022-05-06T08:39:20.000Z</time>
      </trkpt>
      <trkpt lat="40.330330766737461090087890625" lon="-1.0095125623047351837158203125">
        <ele>1098.5999755859375</ele>
        <time>2022-05-06T08:39:22.000Z</time>
      </trkpt>
      <trkpt lat="40.33028089441359043121337890625" lon="-1.00948481820523738861083984375">
        <ele>1099.199951171875</ele>
        <time>2022-05-06T08:39:24.000Z</time>
      </trkpt>
      <trkpt lat="40.33023144118487834930419921875" lon="-1.00945682264864444732666015625">
        <ele>1099.5999755859375</ele>
        <time>2022-05-06T08:39:26.000Z</time>
      </trkpt>
      <trkpt lat="40.33018282614648342132568359375" lon="-1.009424217045307159423828125">
        <ele>1100.199951171875</ele>
        <time>2022-05-06T08:39:28.000Z</time>
      </trkpt>
      <trkpt lat="40.3301579318940639495849609375" lon="-1.009409464895725250244140625">
        <ele>1100.4000244140625</ele>
        <time>2022-05-06T08:39:29.000Z</time>
      </trkpt>
      <trkpt lat="40.33013270236551761627197265625" lon="-1.0093952156603336334228515625">
        <ele>1100.5999755859375</ele>
        <time>2022-05-06T08:39:30.000Z</time>
      </trkpt>
      <trkpt lat="40.33007805235683917999267578125" lon="-1.00936998613178730010986328125">
        <ele>1101</ele>
        <time>2022-05-06T08:39:32.000Z</time>
      </trkpt>
      <trkpt lat="40.3300258331000804901123046875" lon="-1.00934115238487720489501953125">
        <ele>1101.5999755859375</ele>
        <time>2022-05-06T08:39:34.000Z</time>
      </trkpt>
      <trkpt lat="40.329974032938480377197265625" lon="-1.00930963642895221710205078125">
        <ele>1102.5999755859375</ele>
        <time>2022-05-06T08:39:36.000Z</time>
      </trkpt>
      <trkpt lat="40.32994796521961688995361328125" lon="-1.00929312407970428466796875">
        <ele>1103</ele>
        <time>2022-05-06T08:39:37.000Z</time>
      </trkpt>
      <trkpt lat="40.3299215622246265411376953125" lon="-1.00927837193012237548828125">
        <ele>1103.5999755859375</ele>
        <time>2022-05-06T08:39:38.000Z</time>
      </trkpt>
      <trkpt lat="40.329868756234645843505859375" lon="-1.0092463530600070953369140625">
        <ele>1104.4000244140625</ele>
        <time>2022-05-06T08:39:40.000Z</time>
      </trkpt>
      <trkpt lat="40.32982089556753635406494140625" lon="-1.00921575911343097686767578125">
        <ele>1105.4000244140625</ele>
        <time>2022-05-06T08:39:42.000Z</time>
      </trkpt>
      <trkpt lat="40.32977177761495113372802734375" lon="-1.00918424315750598907470703125">
        <ele>1106.199951171875</ele>
        <time>2022-05-06T08:39:44.000Z</time>
      </trkpt>
      <trkpt lat="40.3297197259962558746337890625" lon="-1.00915172137320041656494140625">
        <ele>1107.199951171875</ele>
        <time>2022-05-06T08:39:46.000Z</time>
      </trkpt>
      <trkpt lat="40.32969265244901180267333984375" lon="-1.00913478992879390716552734375">
        <ele>1107.5999755859375</ele>
        <time>2022-05-06T08:39:47.000Z</time>
      </trkpt>
      <trkpt lat="40.32966566272079944610595703125" lon="-1.00911743938922882080078125">
        <ele>1108.199951171875</ele>
        <time>2022-05-06T08:39:48.000Z</time>
      </trkpt>
      <trkpt lat="40.3296127729117870330810546875" lon="-1.00908449850976467132568359375">
        <ele>1108.5999755859375</ele>
        <time>2022-05-06T08:39:50.000Z</time>
      </trkpt>
      <trkpt lat="40.3295581229031085968017578125" lon="-1.0090535692870616912841796875">
        <ele>1108.800048828125</ele>
        <time>2022-05-06T08:39:52.000Z</time>
      </trkpt>
      <trkpt lat="40.329502634704113006591796875" lon="-1.00902247242629528045654296875">
        <ele>1108.800048828125</ele>
        <time>2022-05-06T08:39:54.000Z</time>
      </trkpt>
      <trkpt lat="40.329448990523815155029296875" lon="-1.0089875198900699615478515625">
        <ele>1108.800048828125</ele>
        <time>2022-05-06T08:39:56.000Z</time>
      </trkpt>
      <trkpt lat="40.32939643599092960357666015625" lon="-1.00895114243030548095703125">
        <ele>1108.800048828125</ele>
        <time>2022-05-06T08:39:58.000Z</time>
      </trkpt>
      <trkpt lat="40.329343043267726898193359375" lon="-1.00891669280827045440673828125">
        <ele>1108.800048828125</ele>
        <time>2022-05-06T08:40:00.000Z</time>
      </trkpt>
      <trkpt lat="40.32929048873484134674072265625" lon="-1.00888148881494998931884765625">
        <ele>1109</ele>
        <time>2022-05-06T08:40:02.000Z</time>
      </trkpt>
      <trkpt lat="40.32923868857324123382568359375" lon="-1.00884796120226383209228515625">
        <ele>1109.199951171875</ele>
        <time>2022-05-06T08:40:04.000Z</time>
      </trkpt>
      <trkpt lat="40.32918856479227542877197265625" lon="-1.0088182054460048675537109375">
        <ele>1109.4000244140625</ele>
        <time>2022-05-06T08:40:06.000Z</time>
      </trkpt>
      <trkpt lat="40.32913777045905590057373046875" lon="-1.0087873600423336029052734375">
        <ele>1109.4000244140625</ele>
        <time>2022-05-06T08:40:08.000Z</time>
      </trkpt>
      <trkpt lat="40.32908655703067779541015625" lon="-1.0087565146386623382568359375">
        <ele>1109.5999755859375</ele>
        <time>2022-05-06T08:40:10.000Z</time>
      </trkpt>
      <trkpt lat="40.329036600887775421142578125" lon="-1.00872441194951534271240234375">
        <ele>1109.5999755859375</ele>
        <time>2022-05-06T08:40:12.000Z</time>
      </trkpt>
      <trkpt lat="40.32898656092584133148193359375" lon="-1.0086938180029392242431640625">
        <ele>1109.800048828125</ele>
        <time>2022-05-06T08:40:14.000Z</time>
      </trkpt>
      <trkpt lat="40.328934006392955780029296875" lon="-1.00866020657122135162353515625">
        <ele>1110</ele>
        <time>2022-05-06T08:40:16.000Z</time>
      </trkpt>
      <trkpt lat="40.32888161949813365936279296875" lon="-1.008627600967884063720703125">
        <ele>1110</ele>
        <time>2022-05-06T08:40:18.000Z</time>
      </trkpt>
      <trkpt lat="40.32882965169847011566162109375" lon="-1.00859499536454677581787109375">
        <ele>1110.199951171875</ele>
        <time>2022-05-06T08:40:20.000Z</time>
      </trkpt>
      <trkpt lat="40.32877676188945770263671875" lon="-1.00856381468474864959716796875">
        <ele>1110.4000244140625</ele>
        <time>2022-05-06T08:40:22.000Z</time>
      </trkpt>
      <trkpt lat="40.3287506103515625" lon="-1.00854872725903987884521484375">
        <ele>1110.5999755859375</ele>
        <time>2022-05-06T08:40:23.000Z</time>
      </trkpt>
      <trkpt lat="40.32872521318495273590087890625" lon="-1.0085325501859188079833984375">
        <ele>1110.800048828125</ele>
        <time>2022-05-06T08:40:24.000Z</time>
      </trkpt>
      <trkpt lat="40.3286729939281940460205078125" lon="-1.0085000284016132354736328125">
        <ele>1111</ele>
        <time>2022-05-06T08:40:26.000Z</time>
      </trkpt>
      <trkpt lat="40.32861960120499134063720703125" lon="-1.0084668360650539398193359375">
        <ele>1111.4000244140625</ele>
        <time>2022-05-06T08:40:28.000Z</time>
      </trkpt>
      <trkpt lat="40.32856729812920093536376953125" lon="-1.0084369964897632598876953125">
        <ele>1111.5999755859375</ele>
        <time>2022-05-06T08:40:30.000Z</time>
      </trkpt>
      <trkpt lat="40.32851633615791797637939453125" lon="-1.00840673781931400299072265625">
        <ele>1112</ele>
        <time>2022-05-06T08:40:32.000Z</time>
      </trkpt>
      <trkpt lat="40.32849110662937164306640625" lon="-1.00839248858392238616943359375">
        <ele>1112</ele>
        <time>2022-05-06T08:40:33.000Z</time>
      </trkpt>
      <trkpt lat="40.32846570946276187896728515625" lon="-1.008379496634006500244140625">
        <ele>1111.5999755859375</ele>
        <time>2022-05-06T08:40:34.000Z</time>
      </trkpt>
      <trkpt lat="40.32844106666743755340576171875" lon="-1.0083632357418537139892578125">
        <ele>1111.4000244140625</ele>
        <time>2022-05-06T08:40:35.000Z</time>
      </trkpt>
      <trkpt lat="40.32841675914824008941650390625" lon="-1.0083468072116374969482421875">
        <ele>1111.199951171875</ele>
        <time>2022-05-06T08:40:36.000Z</time>
      </trkpt>
      <trkpt lat="40.32836680300533771514892578125" lon="-1.00831554271280765533447265625">
        <ele>1110.5999755859375</ele>
        <time>2022-05-06T08:40:38.000Z</time>
      </trkpt>
      <trkpt lat="40.32831408083438873291015625" lon="-1.0082841105759143829345703125">
        <ele>1110</ele>
        <time>2022-05-06T08:40:40.000Z</time>
      </trkpt>
      <trkpt lat="40.3282629512250423431396484375" lon="-1.0082482360303401947021484375">
        <ele>1109.4000244140625</ele>
        <time>2022-05-06T08:40:42.000Z</time>
      </trkpt>
      <trkpt lat="40.328210480511188507080078125" lon="-1.00821261294186115264892578125">
        <ele>1108.800048828125</ele>
        <time>2022-05-06T08:40:44.000Z</time>
      </trkpt>
      <trkpt lat="40.32815851271152496337890625" lon="-1.00817992351949214935302734375">
        <ele>1108.199951171875</ele>
        <time>2022-05-06T08:40:46.000Z</time>
      </trkpt>
      <trkpt lat="40.328107215464115142822265625" lon="-1.0081456415355205535888671875">
        <ele>1107.5999755859375</ele>
        <time>2022-05-06T08:40:48.000Z</time>
      </trkpt>
      <trkpt lat="40.3280611149966716766357421875" lon="-1.00811420939862728118896484375">
        <ele>1107.199951171875</ele>
        <time>2022-05-06T08:40:50.000Z</time>
      </trkpt>
      <trkpt lat="40.32801962457597255706787109375" lon="-1.00808872841298580169677734375">
        <ele>1106.5999755859375</ele>
        <time>2022-05-06T08:40:52.000Z</time>
      </trkpt>
      <trkpt lat="40.32798743806779384613037109375" lon="-1.00806676782667636871337890625">
        <ele>1106.4000244140625</ele>
        <time>2022-05-06T08:40:54.000Z</time>
      </trkpt>
      <trkpt lat="40.3279551677405834197998046875" lon="-1.008044220507144927978515625">
        <ele>1106.199951171875</ele>
        <time>2022-05-06T08:40:56.000Z</time>
      </trkpt>
      <trkpt lat="40.32792105339467525482177734375" lon="-1.008022092282772064208984375">
        <ele>1106.4000244140625</ele>
        <time>2022-05-06T08:40:58.000Z</time>
      </trkpt>
      <trkpt lat="40.32790294848382472991943359375" lon="-1.008011363446712493896484375">
        <ele>1106.4000244140625</ele>
        <time>2022-05-06T08:40:59.000Z</time>
      </trkpt>
      <trkpt lat="40.32788400538265705108642578125" lon="-1.00800189189612865447998046875">
        <ele>1106.4000244140625</ele>
        <time>2022-05-06T08:41:00.000Z</time>
      </trkpt>
      <trkpt lat="40.32785148359835147857666015625" lon="-1.00798194296658039093017578125">
        <ele>1106.5999755859375</ele>
        <time>2022-05-06T08:41:02.000Z</time>
      </trkpt>
      <trkpt lat="40.3278212249279022216796875" lon="-1.007960736751556396484375">
        <ele>1106.800048828125</ele>
        <time>2022-05-06T08:41:04.000Z</time>
      </trkpt>
      <trkpt lat="40.3277882002294063568115234375" lon="-1.00794170983135700225830078125">
        <ele>1106.800048828125</ele>
        <time>2022-05-06T08:41:06.000Z</time>
      </trkpt>
      <trkpt lat="40.3277528285980224609375" lon="-1.0079213418066501617431640625">
        <ele>1107</ele>
        <time>2022-05-06T08:41:08.000Z</time>
      </trkpt>
      <trkpt lat="40.32773514278233051300048828125" lon="-1.00790918804705142974853515625">
        <ele>1107</ele>
        <time>2022-05-06T08:41:09.000Z</time>
      </trkpt>
      <trkpt lat="40.32771720550954341888427734375" lon="-1.0078982077538967132568359375">
        <ele>1107</ele>
        <time>2022-05-06T08:41:10.000Z</time>
      </trkpt>
      <trkpt lat="40.32768082804977893829345703125" lon="-1.007879264652729034423828125">
        <ele>1107.199951171875</ele>
        <time>2022-05-06T08:41:12.000Z</time>
      </trkpt>
      <trkpt lat="40.32764428295195102691650390625" lon="-1.00785755552351474761962890625">
        <ele>1107.199951171875</ele>
        <time>2022-05-06T08:41:14.000Z</time>
      </trkpt>
      <trkpt lat="40.32760824076831340789794921875" lon="-1.00783861242234706878662109375">
        <ele>1107.4000244140625</ele>
        <time>2022-05-06T08:41:16.000Z</time>
      </trkpt>
      <trkpt lat="40.32757001928985118865966796875" lon="-1.00782000459730625152587890625">
        <ele>1107.4000244140625</ele>
        <time>2022-05-06T08:41:18.000Z</time>
      </trkpt>
      <trkpt lat="40.327550657093524932861328125" lon="-1.00781011395156383514404296875">
        <ele>1107.4000244140625</ele>
        <time>2022-05-06T08:41:19.000Z</time>
      </trkpt>
      <trkpt lat="40.327530540525913238525390625" lon="-1.00780240260064601898193359375">
        <ele>1107.4000244140625</ele>
        <time>2022-05-06T08:41:20.000Z</time>
      </trkpt>
      <trkpt lat="40.32748837955296039581298828125" lon="-1.0077850520610809326171875">
        <ele>1107.5999755859375</ele>
        <time>2022-05-06T08:41:22.000Z</time>
      </trkpt>
      <trkpt lat="40.32744596712291240692138671875" lon="-1.0077687911689281463623046875">
        <ele>1107.5999755859375</ele>
        <time>2022-05-06T08:41:24.000Z</time>
      </trkpt>
      <trkpt lat="40.327403806149959564208984375" lon="-1.00775378756225109100341796875">
        <ele>1108</ele>
        <time>2022-05-06T08:41:26.000Z</time>
      </trkpt>
      <trkpt lat="40.32736198045313358306884765625" lon="-1.00774171762168407440185546875">
        <ele>1108.199951171875</ele>
        <time>2022-05-06T08:41:28.000Z</time>
      </trkpt>
      <trkpt lat="40.3273416124284267425537109375" lon="-1.0077376104891300201416015625">
        <ele>1108.199951171875</ele>
        <time>2022-05-06T08:41:29.000Z</time>
      </trkpt>
      <trkpt lat="40.3273204900324344635009765625" lon="-1.00773333571851253509521484375">
        <ele>1108.4000244140625</ele>
        <time>2022-05-06T08:41:30.000Z</time>
      </trkpt>
      <trkpt lat="40.3272762335836887359619140625" lon="-1.0077248699963092803955078125">
        <ele>1108.5999755859375</ele>
        <time>2022-05-06T08:41:32.000Z</time>
      </trkpt>
      <trkpt lat="40.32722887583076953887939453125" lon="-1.0077164880931377410888671875">
        <ele>1108.800048828125</ele>
        <time>2022-05-06T08:41:34.000Z</time>
      </trkpt>
      <trkpt lat="40.3271803446114063262939453125" lon="-1.00770835764706134796142578125">
        <ele>1109</ele>
        <time>2022-05-06T08:41:36.000Z</time>
      </trkpt>
      <trkpt lat="40.327130891382694244384765625" lon="-1.00770031102001667022705078125">
        <ele>1109.199951171875</ele>
        <time>2022-05-06T08:41:38.000Z</time>
      </trkpt>
      <trkpt lat="40.32708135433495044708251953125" lon="-1.00769511424005031585693359375">
        <ele>1109.199951171875</ele>
        <time>2022-05-06T08:41:40.000Z</time>
      </trkpt>
      <trkpt lat="40.327056460082530975341796875" lon="-1.0076923482120037078857421875">
        <ele>1109.4000244140625</ele>
        <time>2022-05-06T08:41:41.000Z</time>
      </trkpt>
      <trkpt lat="40.32703240402042865753173828125" lon="-1.00768757052719593048095703125">
        <ele>1109.4000244140625</ele>
        <time>2022-05-06T08:41:42.000Z</time>
      </trkpt>
      <trkpt lat="40.32698563300073146820068359375" lon="-1.00768245756626129150390625">
        <ele>1109.5999755859375</ele>
        <time>2022-05-06T08:41:44.000Z</time>
      </trkpt>
      <trkpt lat="40.32693869434297084808349609375" lon="-1.0076802782714366912841796875">
        <ele>1109.5999755859375</ele>
        <time>2022-05-06T08:41:46.000Z</time>
      </trkpt>
      <trkpt lat="40.32689074985682964324951171875" lon="-1.0076804459095001220703125">
        <ele>1109.5999755859375</ele>
        <time>2022-05-06T08:41:48.000Z</time>
      </trkpt>
      <trkpt lat="40.3268661908805370330810546875" lon="-1.0076796077191829681396484375">
        <ele>1109.5999755859375</ele>
        <time>2022-05-06T08:41:49.000Z</time>
      </trkpt>
      <trkpt lat="40.3268410451710224151611328125" lon="-1.0076777637004852294921875">
        <ele>1109.800048828125</ele>
        <time>2022-05-06T08:41:50.000Z</time>
      </trkpt>
      <trkpt lat="40.326792262494564056396484375" lon="-1.00768153555691242218017578125">
        <ele>1109.800048828125</ele>
        <time>2022-05-06T08:41:52.000Z</time>
      </trkpt>
      <trkpt lat="40.3267444856464862823486328125" lon="-1.007687151432037353515625">
        <ele>1109.800048828125</ele>
        <time>2022-05-06T08:41:54.000Z</time>
      </trkpt>
      <trkpt lat="40.32670081593096256256103515625" lon="-1.0076940245926380157470703125">
        <ele>1109.800048828125</ele>
        <time>2022-05-06T08:41:56.000Z</time>
      </trkpt>
      <trkpt lat="40.32667919062077999114990234375" lon="-1.0076977126300334930419921875">
        <ele>1109.800048828125</ele>
        <time>2022-05-06T08:41:57.000Z</time>
      </trkpt>
      <trkpt lat="40.32665940932929515838623046875" lon="-1.00770332850515842437744140625">
        <ele>1109.5999755859375</ele>
        <time>2022-05-06T08:41:58.000Z</time>
      </trkpt>
      <trkpt lat="40.32661867327988147735595703125" lon="-1.00771439261734485626220703125">
        <ele>1109.5999755859375</ele>
        <time>2022-05-06T08:42:00.000Z</time>
      </trkpt>
      <trkpt lat="40.32657944597303867340087890625" lon="-1.0077312402427196502685546875">
        <ele>1109.4000244140625</ele>
        <time>2022-05-06T08:42:02.000Z</time>
      </trkpt>
      <trkpt lat="40.3265379555523395538330078125" lon="-1.007746495306491851806640625">
        <ele>1109.4000244140625</ele>
        <time>2022-05-06T08:42:04.000Z</time>
      </trkpt>
      <trkpt lat="40.32649579457938671112060546875" lon="-1.00776292383670806884765625">
        <ele>1109.199951171875</ele>
        <time>2022-05-06T08:42:06.000Z</time>
      </trkpt>
      <trkpt lat="40.32647483982145786285400390625" lon="-1.00777138955891132354736328125">
        <ele>1109.199951171875</ele>
        <time>2022-05-06T08:42:07.000Z</time>
      </trkpt>
      <trkpt lat="40.32645396888256072998046875" lon="-1.0077798552811145782470703125">
        <ele>1109.199951171875</ele>
        <time>2022-05-06T08:42:08.000Z</time>
      </trkpt>
      <trkpt lat="40.32641314901411533355712890625" lon="-1.00779511034488677978515625">
        <ele>1109</ele>
        <time>2022-05-06T08:42:10.000Z</time>
      </trkpt>
      <trkpt lat="40.32637350261211395263671875" lon="-1.007808856666088104248046875">
        <ele>1108.800048828125</ele>
        <time>2022-05-06T08:42:12.000Z</time>
      </trkpt>
      <trkpt lat="40.32633318565785884857177734375" lon="-1.00782327353954315185546875">
        <ele>1108.800048828125</ele>
        <time>2022-05-06T08:42:14.000Z</time>
      </trkpt>
      <trkpt lat="40.3262858279049396514892578125" lon="-1.0078398697078227996826171875">
        <ele>1108.800048828125</ele>
        <time>2022-05-06T08:42:16.000Z</time>
      </trkpt>
      <trkpt lat="40.326239056885242462158203125" lon="-1.0078586451709270477294921875">
        <ele>1108.800048828125</ele>
        <time>2022-05-06T08:42:18.000Z</time>
      </trkpt>
      <trkpt lat="40.3261919505894184112548828125" lon="-1.00788068957626819610595703125">
        <ele>1108.800048828125</ele>
        <time>2022-05-06T08:42:20.000Z</time>
      </trkpt>
      <trkpt lat="40.3261435031890869140625" lon="-1.00790013559162616729736328125">
        <ele>1108.800048828125</ele>
        <time>2022-05-06T08:42:22.000Z</time>
      </trkpt>
      <trkpt lat="40.32609614543616771697998046875" lon="-1.00792226381599903106689453125">
        <ele>1108.800048828125</ele>
        <time>2022-05-06T08:42:24.000Z</time>
      </trkpt>
      <trkpt lat="40.3260487876832485198974609375" lon="-1.00794321857392787933349609375">
        <ele>1108.800048828125</ele>
        <time>2022-05-06T08:42:26.000Z</time>
      </trkpt>
      <trkpt lat="40.32600260339677333831787109375" lon="-1.00796333514153957366943359375">
        <ele>1108.800048828125</ele>
        <time>2022-05-06T08:42:28.000Z</time>
      </trkpt>
      <trkpt lat="40.32595633529126644134521484375" lon="-1.00798152387142181396484375">
        <ele>1108.800048828125</ele>
        <time>2022-05-06T08:42:30.000Z</time>
      </trkpt>
      <trkpt lat="40.32590939663350582122802734375" lon="-1.0080001316964626312255859375">
        <ele>1108.800048828125</ele>
        <time>2022-05-06T08:42:32.000Z</time>
      </trkpt>
      <trkpt lat="40.32586463727056980133056640625" lon="-1.0080189071595668792724609375">
        <ele>1108.800048828125</ele>
        <time>2022-05-06T08:42:34.000Z</time>
      </trkpt>
      <trkpt lat="40.3258184529840946197509765625" lon="-1.008036844432353973388671875">
        <ele>1108.800048828125</ele>
        <time>2022-05-06T08:42:36.000Z</time>
      </trkpt>
      <trkpt lat="40.32577411271631717681884765625" lon="-1.008057296276092529296875">
        <ele>1108.800048828125</ele>
        <time>2022-05-06T08:42:38.000Z</time>
      </trkpt>
      <trkpt lat="40.32572667114436626434326171875" lon="-1.00807682611048221588134765625">
        <ele>1108.800048828125</ele>
        <time>2022-05-06T08:42:40.000Z</time>
      </trkpt>
      <trkpt lat="40.32567922957241535186767578125" lon="-1.00809509865939617156982421875">
        <ele>1109</ele>
        <time>2022-05-06T08:42:42.000Z</time>
      </trkpt>
      <trkpt lat="40.325631536543369293212890625" lon="-1.008116640150547027587890625">
        <ele>1109</ele>
        <time>2022-05-06T08:42:44.000Z</time>
      </trkpt>
      <trkpt lat="40.32560630701482295989990234375" lon="-1.00812661461532115936279296875">
        <ele>1109</ele>
        <time>2022-05-06T08:42:45.000Z</time>
      </trkpt>
      <trkpt lat="40.3255815804004669189453125" lon="-1.00813575088977813720703125">
        <ele>1109</ele>
        <time>2022-05-06T08:42:46.000Z</time>
      </trkpt>
      <trkpt lat="40.32553154043853282928466796875" lon="-1.00815712474286556243896484375">
        <ele>1109.199951171875</ele>
        <time>2022-05-06T08:42:48.000Z</time>
      </trkpt>
      <trkpt lat="40.32548041082918643951416015625" lon="-1.00817590020596981048583984375">
        <ele>1109.199951171875</ele>
        <time>2022-05-06T08:42:50.000Z</time>
      </trkpt>
      <trkpt lat="40.32543246634304523468017578125" lon="-1.0081962682306766510009765625">
        <ele>1109.4000244140625</ele>
        <time>2022-05-06T08:42:52.000Z</time>
      </trkpt>
      <trkpt lat="40.32540916465222835540771484375" lon="-1.0082043148577213287353515625">
        <ele>1109.4000244140625</ele>
        <time>2022-05-06T08:42:53.000Z</time>
      </trkpt>
      <trkpt lat="40.3253852762281894683837890625" lon="-1.00821462459862232208251953125">
        <ele>1109.4000244140625</ele>
        <time>2022-05-06T08:42:54.000Z</time>
      </trkpt>
      <trkpt lat="40.32533439807593822479248046875" lon="-1.00823407061398029327392578125">
        <ele>1109.5999755859375</ele>
        <time>2022-05-06T08:42:56.000Z</time>
      </trkpt>
      <trkpt lat="40.32528586685657501220703125" lon="-1.00825242698192596435546875">
        <ele>1109.5999755859375</ele>
        <time>2022-05-06T08:42:58.000Z</time>
      </trkpt>
      <trkpt lat="40.32523901201784610748291015625" lon="-1.0082693584263324737548828125">
        <ele>1109.800048828125</ele>
        <time>2022-05-06T08:43:00.000Z</time>
      </trkpt>
      <trkpt lat="40.32521604560315608978271484375" lon="-1.00827866233885288238525390625">
        <ele>1109.800048828125</ele>
        <time>2022-05-06T08:43:01.000Z</time>
      </trkpt>
      <trkpt lat="40.32519190572202205657958984375" lon="-1.00828687660396099090576171875">
        <ele>1110</ele>
        <time>2022-05-06T08:43:02.000Z</time>
      </trkpt>
      <trkpt lat="40.325143374502658843994140625" lon="-1.0083028860390186309814453125">
        <ele>1110.199951171875</ele>
        <time>2022-05-06T08:43:04.000Z</time>
      </trkpt>
      <trkpt lat="40.325093083083629608154296875" lon="-1.00831814110279083251953125">
        <ele>1110.4000244140625</ele>
        <time>2022-05-06T08:43:06.000Z</time>
      </trkpt>
      <trkpt lat="40.32504312694072723388671875" lon="-1.00832945667207241058349609375">
        <ele>1110.5999755859375</ele>
        <time>2022-05-06T08:43:08.000Z</time>
      </trkpt>
      <trkpt lat="40.3249916620552539825439453125" lon="-1.00833917967975139617919921875">
        <ele>1110.800048828125</ele>
        <time>2022-05-06T08:43:10.000Z</time>
      </trkpt>
      <trkpt lat="40.3249376825988292694091796875" lon="-1.008342616260051727294921875">
        <ele>1111</ele>
        <time>2022-05-06T08:43:12.000Z</time>
      </trkpt>
      <trkpt lat="40.32490926794707775115966796875" lon="-1.00834370590746402740478515625">
        <ele>1111.199951171875</ele>
        <time>2022-05-06T08:43:13.000Z</time>
      </trkpt>
      <trkpt lat="40.32488328404724597930908203125" lon="-1.0083458013832569122314453125">
        <ele>1111.4000244140625</ele>
        <time>2022-05-06T08:43:14.000Z</time>
      </trkpt>
      <trkpt lat="40.32483366318047046661376953125" lon="-1.008354015648365020751953125">
        <ele>1111.5999755859375</ele>
        <time>2022-05-06T08:43:16.000Z</time>
      </trkpt>
      <trkpt lat="40.3247871436178684234619140625" lon="-1.00835971534252166748046875">
        <ele>1111.800048828125</ele>
        <time>2022-05-06T08:43:18.000Z</time>
      </trkpt>
      <trkpt lat="40.32476224936544895172119140625" lon="-1.00836097262799739837646484375">
        <ele>1112</ele>
        <time>2022-05-06T08:43:19.000Z</time>
      </trkpt>
      <trkpt lat="40.32473609782755374908447265625" lon="-1.0083595477044582366943359375">
        <ele>1112</ele>
        <time>2022-05-06T08:43:20.000Z</time>
      </trkpt>
      <trkpt lat="40.32468463294208049774169921875" lon="-1.008356027305126190185546875">
        <ele>1112.4000244140625</ele>
        <time>2022-05-06T08:43:22.000Z</time>
      </trkpt>
      <trkpt lat="40.32463216222822666168212890625" lon="-1.00835141725838184356689453125">
        <ele>1112.800048828125</ele>
        <time>2022-05-06T08:43:24.000Z</time>
      </trkpt>
      <trkpt lat="40.32458287663757801055908203125" lon="-1.00834429264068603515625">
        <ele>1112.800048828125</ele>
        <time>2022-05-06T08:43:26.000Z</time>
      </trkpt>
      <trkpt lat="40.3245353512465953826904296875" lon="-1.008334569633007049560546875">
        <ele>1113</ele>
        <time>2022-05-06T08:43:28.000Z</time>
      </trkpt>
      <trkpt lat="40.32448916696012020111083984375" lon="-1.00832811556756496429443359375">
        <ele>1113.199951171875</ele>
        <time>2022-05-06T08:43:30.000Z</time>
      </trkpt>
      <trkpt lat="40.32443736679852008819580078125" lon="-1.008315123617649078369140625">
        <ele>1113.4000244140625</ele>
        <time>2022-05-06T08:43:32.000Z</time>
      </trkpt>
      <trkpt lat="40.32438741065561771392822265625" lon="-1.00830263458192348480224609375">
        <ele>1113.5999755859375</ele>
        <time>2022-05-06T08:43:34.000Z</time>
      </trkpt>
      <trkpt lat="40.3243382088840007781982421875" lon="-1.00828788243234157562255859375">
        <ele>1113.800048828125</ele>
        <time>2022-05-06T08:43:36.000Z</time>
      </trkpt>
      <trkpt lat="40.32428699545562267303466796875" lon="-1.00827396847307682037353515625">
        <ele>1114</ele>
        <time>2022-05-06T08:43:38.000Z</time>
      </trkpt>
      <trkpt lat="40.324263274669647216796875" lon="-1.00826692767441272735595703125">
        <ele>1114.199951171875</ele>
        <time>2022-05-06T08:43:39.000Z</time>
      </trkpt>
      <trkpt lat="40.3242399729788303375244140625" lon="-1.0082599706947803497314453125">
        <ele>1114.199951171875</ele>
        <time>2022-05-06T08:43:40.000Z</time>
      </trkpt>
      <trkpt lat="40.32419479452073574066162109375" lon="-1.00824161432683467864990234375">
        <ele>1114.5999755859375</ele>
        <time>2022-05-06T08:43:42.000Z</time>
      </trkpt>
      <trkpt lat="40.32414953224360942840576171875" lon="-1.00822451524436473846435546875">
        <ele>1114.800048828125</ele>
        <time>2022-05-06T08:43:44.000Z</time>
      </trkpt>
      <trkpt lat="40.32410494051873683929443359375" lon="-1.0082066617906093597412109375">
        <ele>1115.199951171875</ele>
        <time>2022-05-06T08:43:46.000Z</time>
      </trkpt>
      <trkpt lat="40.32405783422291278839111328125" lon="-1.0081852041184902191162109375">
        <ele>1115.4000244140625</ele>
        <time>2022-05-06T08:43:48.000Z</time>
      </trkpt>
      <trkpt lat="40.324011482298374176025390625" lon="-1.00815863348543643951416015625">
        <ele>1115.800048828125</ele>
        <time>2022-05-06T08:43:50.000Z</time>
      </trkpt>
      <trkpt lat="40.3239653818309307098388671875" lon="-1.00813164375722408294677734375">
        <ele>1116.199951171875</ele>
        <time>2022-05-06T08:43:52.000Z</time>
      </trkpt>
      <trkpt lat="40.323919951915740966796875" lon="-1.008100211620330810546875">
        <ele>1116.5999755859375</ele>
        <time>2022-05-06T08:43:54.000Z</time>
      </trkpt>
      <trkpt lat="40.3238745220005512237548828125" lon="-1.00806995294988155364990234375">
        <ele>1117</ele>
        <time>2022-05-06T08:43:56.000Z</time>
      </trkpt>
      <trkpt lat="40.32383051700890064239501953125" lon="-1.0080383531749248504638671875">
        <ele>1117.199951171875</ele>
        <time>2022-05-06T08:43:58.000Z</time>
      </trkpt>
      <trkpt lat="40.3237890265882015228271484375" lon="-1.00800557993352413177490234375">
        <ele>1117.5999755859375</ele>
        <time>2022-05-06T08:44:00.000Z</time>
      </trkpt>
      <trkpt lat="40.3237705864012241363525390625" lon="-1.0079904086887836456298828125">
        <ele>1117.5999755859375</ele>
        <time>2022-05-06T08:44:01.000Z</time>
      </trkpt>
      <trkpt lat="40.32375357113778591156005859375" lon="-1.007975153625011444091796875">
        <ele>1117.5999755859375</ele>
        <time>2022-05-06T08:44:02.000Z</time>
      </trkpt>
      <trkpt lat="40.32371887005865573883056640625" lon="-1.00794305093586444854736328125">
        <ele>1117.800048828125</ele>
        <time>2022-05-06T08:44:04.000Z</time>
      </trkpt>
      <trkpt lat="40.32368433661758899688720703125" lon="-1.00791404955089092254638671875">
        <ele>1117.800048828125</ele>
        <time>2022-05-06T08:44:06.000Z</time>
      </trkpt>
      <trkpt lat="40.3236477077007293701171875" lon="-1.00788203068077564239501953125">
        <ele>1117.800048828125</ele>
        <time>2022-05-06T08:44:08.000Z</time>
      </trkpt>
      <trkpt lat="40.32360638491809368133544921875" lon="-1.0078425519168376922607421875">
        <ele>1118</ele>
        <time>2022-05-06T08:44:10.000Z</time>
      </trkpt>
      <trkpt lat="40.3235861845314502716064453125" lon="-1.00782050751149654388427734375">
        <ele>1118.199951171875</ele>
        <time>2022-05-06T08:44:11.000Z</time>
      </trkpt>
      <trkpt lat="40.32356698997318744659423828125" lon="-1.00780122913420200347900390625">
        <ele>1118.199951171875</ele>
        <time>2022-05-06T08:44:12.000Z</time>
      </trkpt>
      <trkpt lat="40.32352860085666179656982421875" lon="-1.00776367820799350738525390625">
        <ele>1118.4000244140625</ele>
        <time>2022-05-06T08:44:14.000Z</time>
      </trkpt>
      <trkpt lat="40.32348870299756526947021484375" lon="-1.00772595964372158050537109375">
        <ele>1118.4000244140625</ele>
        <time>2022-05-06T08:44:16.000Z</time>
      </trkpt>
      <trkpt lat="40.3234463743865489959716796875" lon="-1.0076859779655933380126953125">
        <ele>1118.5999755859375</ele>
        <time>2022-05-06T08:44:18.000Z</time>
      </trkpt>
      <trkpt lat="40.32340454868972301483154296875" lon="-1.00764817558228969573974609375">
        <ele>1118.5999755859375</ele>
        <time>2022-05-06T08:44:20.000Z</time>
      </trkpt>
      <trkpt lat="40.3233833424746990203857421875" lon="-1.00762613117694854736328125">
        <ele>1118.800048828125</ele>
        <time>2022-05-06T08:44:21.000Z</time>
      </trkpt>
      <trkpt lat="40.3233625553548336029052734375" lon="-1.0076048411428928375244140625">
        <ele>1118.800048828125</ele>
        <time>2022-05-06T08:44:22.000Z</time>
      </trkpt>
      <trkpt lat="40.32331989146769046783447265625" lon="-1.00756452418863773345947265625">
        <ele>1119</ele>
        <time>2022-05-06T08:44:24.000Z</time>
      </trkpt>
      <trkpt lat="40.32327613793313503265380859375" lon="-1.00752512924373149871826171875">
        <ele>1119.199951171875</ele>
        <time>2022-05-06T08:44:26.000Z</time>
      </trkpt>
      <trkpt lat="40.32323263585567474365234375" lon="-1.0074811242520809173583984375">
        <ele>1119.199951171875</ele>
        <time>2022-05-06T08:44:28.000Z</time>
      </trkpt>
      <trkpt lat="40.32318661920726299285888671875" lon="-1.007436700165271759033203125">
        <ele>1119.4000244140625</ele>
        <time>2022-05-06T08:44:30.000Z</time>
      </trkpt>
      <trkpt lat="40.3231637366116046905517578125" lon="-1.00741549395024776458740234375">
        <ele>1119.5999755859375</ele>
        <time>2022-05-06T08:44:31.000Z</time>
      </trkpt>
      <trkpt lat="40.3231422789394855499267578125" lon="-1.007395125925540924072265625">
        <ele>1119.5999755859375</ele>
        <time>2022-05-06T08:44:32.000Z</time>
      </trkpt>
      <trkpt lat="40.323098190128803253173828125" lon="-1.00735346786677837371826171875">
        <ele>1119.800048828125</ele>
        <time>2022-05-06T08:44:34.000Z</time>
      </trkpt>
      <trkpt lat="40.32305569387972354888916015625" lon="-1.0073131509125232696533203125">
        <ele>1119.800048828125</ele>
        <time>2022-05-06T08:44:36.000Z</time>
      </trkpt>
      <trkpt lat="40.32301261089742183685302734375" lon="-1.007265709340572357177734375">
        <ele>1120</ele>
        <time>2022-05-06T08:44:38.000Z</time>
      </trkpt>
      <trkpt lat="40.3229907341301441192626953125" lon="-1.0072440840303897857666015625">
        <ele>1120.199951171875</ele>
        <time>2022-05-06T08:44:39.000Z</time>
      </trkpt>
      <trkpt lat="40.3229689411818981170654296875" lon="-1.00722388364374637603759765625">
        <ele>1120.4000244140625</ele>
        <time>2022-05-06T08:44:40.000Z</time>
      </trkpt>
      <trkpt lat="40.322923846542835235595703125" lon="-1.0071790404617786407470703125">
        <ele>1120.5999755859375</ele>
        <time>2022-05-06T08:44:42.000Z</time>
      </trkpt>
      <trkpt lat="40.3228787519037723541259765625" lon="-1.00713654421269893646240234375">
        <ele>1121</ele>
        <time>2022-05-06T08:44:44.000Z</time>
      </trkpt>
      <trkpt lat="40.32283390872180461883544921875" lon="-1.0070985741913318634033203125">
        <ele>1121.4000244140625</ele>
        <time>2022-05-06T08:44:46.000Z</time>
      </trkpt>
      <trkpt lat="40.32278948463499546051025390625" lon="-1.00705884397029876708984375">
        <ele>1121.5999755859375</ele>
        <time>2022-05-06T08:44:48.000Z</time>
      </trkpt>
      <trkpt lat="40.322767607867717742919921875" lon="-1.00704166106879711151123046875">
        <ele>1121.800048828125</ele>
        <time>2022-05-06T08:44:49.000Z</time>
      </trkpt>
      <trkpt lat="40.32274522818624973297119140625" lon="-1.00702037103474140167236328125">
        <ele>1122</ele>
        <time>2022-05-06T08:44:50.000Z</time>
      </trkpt>
      <trkpt lat="40.32269862480461597442626953125" lon="-1.0069772042334079742431640625">
        <ele>1122.4000244140625</ele>
        <time>2022-05-06T08:44:52.000Z</time>
      </trkpt>
      <trkpt lat="40.32265461981296539306640625" lon="-1.00693546235561370849609375">
        <ele>1122.5999755859375</ele>
        <time>2022-05-06T08:44:54.000Z</time>
      </trkpt>
      <trkpt lat="40.32261061482131481170654296875" lon="-1.006893217563629150390625">
        <ele>1123</ele>
        <time>2022-05-06T08:44:56.000Z</time>
      </trkpt>
      <trkpt lat="40.32258756458759307861328125" lon="-1.006869412958621978759765625">
        <ele>1123.199951171875</ele>
        <time>2022-05-06T08:44:57.000Z</time>
      </trkpt>
      <trkpt lat="40.32256468199193477630615234375" lon="-1.00684720091521739959716796875">
        <ele>1123.4000244140625</ele>
        <time>2022-05-06T08:44:58.000Z</time>
      </trkpt>
      <trkpt lat="40.32252025790512561798095703125" lon="-1.006805710494518280029296875">
        <ele>1123.4000244140625</ele>
        <time>2022-05-06T08:45:00.000Z</time>
      </trkpt>
      <trkpt lat="40.322472564876079559326171875" lon="-1.00676086731255054473876953125">
        <ele>1123.4000244140625</ele>
        <time>2022-05-06T08:45:02.000Z</time>
      </trkpt>
      <trkpt lat="40.3224489279091358184814453125" lon="-1.0067388229072093963623046875">
        <ele>1123.4000244140625</ele>
        <time>2022-05-06T08:45:03.000Z</time>
      </trkpt>
      <trkpt lat="40.3224257938563823699951171875" lon="-1.00671644322574138641357421875">
        <ele>1123.199951171875</ele>
        <time>2022-05-06T08:45:04.000Z</time>
      </trkpt>
      <trkpt lat="40.322384051978588104248046875" lon="-1.006678305566310882568359375">
        <ele>1123.199951171875</ele>
        <time>2022-05-06T08:45:06.000Z</time>
      </trkpt>
      <trkpt lat="40.32234440557658672332763671875" lon="-1.0066442750394344329833984375">
        <ele>1123.199951171875</ele>
        <time>2022-05-06T08:45:08.000Z</time>
      </trkpt>
      <trkpt lat="40.32230299897491931915283203125" lon="-1.0066030360758304595947265625">
        <ele>1123</ele>
        <time>2022-05-06T08:45:10.000Z</time>
      </trkpt>
      <trkpt lat="40.32228137366473674774169921875" lon="-1.00658099167048931121826171875">
        <ele>1123</ele>
        <time>2022-05-06T08:45:11.000Z</time>
      </trkpt>
      <trkpt lat="40.32226025126874446868896484375" lon="-1.00655852816998958587646484375">
        <ele>1123</ele>
        <time>2022-05-06T08:45:12.000Z</time>
      </trkpt>
      <trkpt lat="40.322217755019664764404296875" lon="-1.0065135173499584197998046875">
        <ele>1123</ele>
        <time>2022-05-06T08:45:14.000Z</time>
      </trkpt>
      <trkpt lat="40.32217307947576045989990234375" lon="-1.00646850652992725372314453125">
        <ele>1123</ele>
        <time>2022-05-06T08:45:16.000Z</time>
      </trkpt>
      <trkpt lat="40.3221268951892852783203125" lon="-1.0064320452511310577392578125">
        <ele>1122.800048828125</ele>
        <time>2022-05-06T08:45:18.000Z</time>
      </trkpt>
      <trkpt lat="40.32210418023169040679931640625" lon="-1.0064149461686611175537109375">
        <ele>1122.800048828125</ele>
        <time>2022-05-06T08:45:19.000Z</time>
      </trkpt>
      <trkpt lat="40.322081632912158966064453125" lon="-1.00639508105814456939697265625">
        <ele>1122.800048828125</ele>
        <time>2022-05-06T08:45:20.000Z</time>
      </trkpt>
      <trkpt lat="40.32204031012952327728271484375" lon="-1.00635568611323833465576171875">
        <ele>1122.800048828125</ele>
        <time>2022-05-06T08:45:22.000Z</time>
      </trkpt>
      <trkpt lat="40.32202036119997501373291015625" lon="-1.006336994469165802001953125">
        <ele>1122.800048828125</ele>
        <time>2022-05-06T08:45:23.000Z</time>
      </trkpt>
      <trkpt lat="40.321999154984951019287109375" lon="-1.0063178837299346923828125">
        <ele>1122.800048828125</ele>
        <time>2022-05-06T08:45:24.000Z</time>
      </trkpt>
      <trkpt lat="40.3219554014503955841064453125" lon="-1.0062748007476329803466796875">
        <ele>1122.800048828125</ele>
        <time>2022-05-06T08:45:26.000Z</time>
      </trkpt>
      <trkpt lat="40.3219131566584110260009765625" lon="-1.00623599253594875335693359375">
        <ele>1122.800048828125</ele>
        <time>2022-05-06T08:45:28.000Z</time>
      </trkpt>
      <trkpt lat="40.32187066040933132171630859375" lon="-1.0061953403055667877197265625">
        <ele>1122.800048828125</ele>
        <time>2022-05-06T08:45:30.000Z</time>
      </trkpt>
      <trkpt lat="40.3218269906938076019287109375" lon="-1.00615334697067737579345703125">
        <ele>1123</ele>
        <time>2022-05-06T08:45:32.000Z</time>
      </trkpt>
      <trkpt lat="40.3217835724353790283203125" lon="-1.00611328147351741790771484375">
        <ele>1123</ele>
        <time>2022-05-06T08:45:34.000Z</time>
      </trkpt>
      <trkpt lat="40.32173998653888702392578125" lon="-1.00607237778604030609130859375">
        <ele>1123</ele>
        <time>2022-05-06T08:45:36.000Z</time>
      </trkpt>
      <trkpt lat="40.3216962330043315887451171875" lon="-1.006032563745975494384765625">
        <ele>1123</ele>
        <time>2022-05-06T08:45:38.000Z</time>
      </trkpt>
      <trkpt lat="40.321655161678791046142578125" lon="-1.00599467754364013671875">
        <ele>1123</ele>
        <time>2022-05-06T08:45:40.000Z</time>
      </trkpt>
      <trkpt lat="40.3216338716447353363037109375" lon="-1.0059764049947261810302734375">
        <ele>1123.199951171875</ele>
        <time>2022-05-06T08:45:41.000Z</time>
      </trkpt>
      <trkpt lat="40.321612246334552764892578125" lon="-1.00595737807452678680419921875">
        <ele>1123.199951171875</ele>
        <time>2022-05-06T08:45:42.000Z</time>
      </trkpt>
      <trkpt lat="40.32156958244740962982177734375" lon="-1.00591613911092281341552734375">
        <ele>1123.4000244140625</ele>
        <time>2022-05-06T08:45:44.000Z</time>
      </trkpt>
      <trkpt lat="40.321527756750583648681640625" lon="-1.0058764927089214324951171875">
        <ele>1123.4000244140625</ele>
        <time>2022-05-06T08:45:46.000Z</time>
      </trkpt>
      <trkpt lat="40.321504957973957061767578125" lon="-1.0058567114174365997314453125">
        <ele>1123.5999755859375</ele>
        <time>2022-05-06T08:45:47.000Z</time>
      </trkpt>
      <trkpt lat="40.32148274593055248260498046875" lon="-1.0058365948498249053955078125">
        <ele>1123.5999755859375</ele>
        <time>2022-05-06T08:45:48.000Z</time>
      </trkpt>
      <trkpt lat="40.32143949531018733978271484375" lon="-1.00579812191426753997802734375">
        <ele>1123.5999755859375</ele>
        <time>2022-05-06T08:45:50.000Z</time>
      </trkpt>
      <trkpt lat="40.32139540649950504302978515625" lon="-1.005758978426456451416015625">
        <ele>1123.800048828125</ele>
        <time>2022-05-06T08:45:52.000Z</time>
      </trkpt>
      <trkpt lat="40.321349389851093292236328125" lon="-1.0057205893099308013916015625">
        <ele>1123.800048828125</ele>
        <time>2022-05-06T08:45:54.000Z</time>
      </trkpt>
      <trkpt lat="40.321304798126220703125" lon="-1.00568362511694431304931640625">
        <ele>1124</ele>
        <time>2022-05-06T08:45:56.000Z</time>
      </trkpt>
      <trkpt lat="40.32125878147780895233154296875" lon="-1.00564842112362384796142578125">
        <ele>1124.199951171875</ele>
        <time>2022-05-06T08:45:58.000Z</time>
      </trkpt>
      <trkpt lat="40.32121184282004833221435546875" lon="-1.0056153126060962677001953125">
        <ele>1124.199951171875</ele>
        <time>2022-05-06T08:46:00.000Z</time>
      </trkpt>
      <trkpt lat="40.3211641497910022735595703125" lon="-1.00558086298406124114990234375">
        <ele>1124.199951171875</ele>
        <time>2022-05-06T08:46:02.000Z</time>
      </trkpt>
      <trkpt lat="40.32111503183841705322265625" lon="-1.0055469162762165069580078125">
        <ele>1124.199951171875</ele>
        <time>2022-05-06T08:46:04.000Z</time>
      </trkpt>
      <trkpt lat="40.321089886128902435302734375" lon="-1.0055298171937465667724609375">
        <ele>1124.199951171875</ele>
        <time>2022-05-06T08:46:05.000Z</time>
      </trkpt>
      <trkpt lat="40.3210652433335781097412109375" lon="-1.0055123828351497650146484375">
        <ele>1124.4000244140625</ele>
        <time>2022-05-06T08:46:06.000Z</time>
      </trkpt>
      <trkpt lat="40.32101579010486602783203125" lon="-1.00547977723181247711181640625">
        <ele>1124.4000244140625</ele>
        <time>2022-05-06T08:46:08.000Z</time>
      </trkpt>
      <trkpt lat="40.32096759416162967681884765625" lon="-1.00544893182814121246337890625">
        <ele>1124.4000244140625</ele>
        <time>2022-05-06T08:46:10.000Z</time>
      </trkpt>
      <trkpt lat="40.3209200687706470489501953125" lon="-1.0054181702435016632080078125">
        <ele>1124.4000244140625</ele>
        <time>2022-05-06T08:46:12.000Z</time>
      </trkpt>
      <trkpt lat="40.3208717890083789825439453125" lon="-1.005390845239162445068359375">
        <ele>1124.4000244140625</ele>
        <time>2022-05-06T08:46:14.000Z</time>
      </trkpt>
      <trkpt lat="40.32082107849419116973876953125" lon="-1.00536628626286983489990234375">
        <ele>1124.4000244140625</ele>
        <time>2022-05-06T08:46:16.000Z</time>
      </trkpt>
      <trkpt lat="40.3207685239613056182861328125" lon="-1.005339212715625762939453125">
        <ele>1124.4000244140625</ele>
        <time>2022-05-06T08:46:18.000Z</time>
      </trkpt>
      <trkpt lat="40.3207148797810077667236328125" lon="-1.00531146861612796783447265625">
        <ele>1124.4000244140625</ele>
        <time>2022-05-06T08:46:20.000Z</time>
      </trkpt>
      <trkpt lat="40.32068914733827114105224609375" lon="-1.00529721938073635101318359375">
        <ele>1124.4000244140625</ele>
        <time>2022-05-06T08:46:21.000Z</time>
      </trkpt>
      <trkpt lat="40.32066500745713710784912109375" lon="-1.00528213195502758026123046875">
        <ele>1124.199951171875</ele>
        <time>2022-05-06T08:46:22.000Z</time>
      </trkpt>
      <trkpt lat="40.32061706297099590301513671875" lon="-1.00525799207389354705810546875">
        <ele>1124.199951171875</ele>
        <time>2022-05-06T08:46:24.000Z</time>
      </trkpt>
      <trkpt lat="40.32056878320872783660888671875" lon="-1.00523418746888637542724609375">
        <ele>1124</ele>
        <time>2022-05-06T08:46:26.000Z</time>
      </trkpt>
      <trkpt lat="40.3205210901796817779541015625" lon="-1.00521348416805267333984375">
        <ele>1124</ele>
        <time>2022-05-06T08:46:28.000Z</time>
      </trkpt>
      <trkpt lat="40.32048865221440792083740234375" lon="-1.005198061466217041015625">
        <ele>1123.800048828125</ele>
        <time>2022-05-06T08:46:30.000Z</time>
      </trkpt>
      <trkpt lat="40.320485047996044158935546875" lon="-1.0051978938281536102294921875">
        <ele>1123.800048828125</ele>
        <time>2022-05-06T08:46:32.000Z</time>
      </trkpt>
      <trkpt lat="40.32043064944446086883544921875" lon="-1.0051680542528629302978515625">
        <ele>1123.800048828125</ele>
        <time>2022-05-06T08:47:02.000Z</time>
      </trkpt>
      <trkpt lat="40.32040902413427829742431640625" lon="-1.0051533021032810211181640625">
        <ele>1123.800048828125</ele>
        <time>2022-05-06T08:47:04.000Z</time>
      </trkpt>
      <trkpt lat="40.3203806094825267791748046875" lon="-1.00513779558241367340087890625">
        <ele>1123.800048828125</ele>
        <time>2022-05-06T08:47:06.000Z</time>
      </trkpt>
      <trkpt lat="40.32034867443144321441650390625" lon="-1.00512170232832431793212890625">
        <ele>1123.800048828125</ele>
        <time>2022-05-06T08:47:08.000Z</time>
      </trkpt>
      <trkpt lat="40.32031464390456676483154296875" lon="-1.00511214695870876312255859375">
        <ele>1123.800048828125</ele>
        <time>2022-05-06T08:47:10.000Z</time>
      </trkpt>
      <trkpt lat="40.32028220593929290771484375" lon="-1.0051020048558712005615234375">
        <ele>1123.800048828125</ele>
        <time>2022-05-06T08:47:12.000Z</time>
      </trkpt>
      <trkpt lat="40.320250689983367919921875" lon="-1.00508834235370159149169921875">
        <ele>1123.800048828125</ele>
        <time>2022-05-06T08:47:14.000Z</time>
      </trkpt>
      <trkpt lat="40.3202133066952228546142578125" lon="-1.00507199764251708984375">
        <ele>1123.5999755859375</ele>
        <time>2022-05-06T08:47:16.000Z</time>
      </trkpt>
      <trkpt lat="40.3201787732541561126708984375" lon="-1.00505280308425426483154296875">
        <ele>1123.5999755859375</ele>
        <time>2022-05-06T08:47:18.000Z</time>
      </trkpt>
      <trkpt lat="40.320161841809749603271484375" lon="-1.0050440020859241485595703125">
        <ele>1123.5999755859375</ele>
        <time>2022-05-06T08:47:19.000Z</time>
      </trkpt>
      <trkpt lat="40.3201439045369625091552734375" lon="-1.00503620691597461700439453125">
        <ele>1123.5999755859375</ele>
        <time>2022-05-06T08:47:20.000Z</time>
      </trkpt>
      <trkpt lat="40.32010828144848346710205078125" lon="-1.0050181858241558074951171875">
        <ele>1123.5999755859375</ele>
        <time>2022-05-06T08:47:22.000Z</time>
      </trkpt>
      <trkpt lat="40.32007299363613128662109375" lon="-1.0049990750849246978759765625">
        <ele>1123.800048828125</ele>
        <time>2022-05-06T08:47:24.000Z</time>
      </trkpt>
      <trkpt lat="40.320035107433795928955078125" lon="-1.00498055107891559600830078125">
        <ele>1123.800048828125</ele>
        <time>2022-05-06T08:47:26.000Z</time>
      </trkpt>
      <trkpt lat="40.3199945390224456787109375" lon="-1.00496311672031879425048828125">
        <ele>1123.5999755859375</ele>
        <time>2022-05-06T08:47:28.000Z</time>
      </trkpt>
      <trkpt lat="40.3199745900928974151611328125" lon="-1.00495423190295696258544921875">
        <ele>1123.5999755859375</ele>
        <time>2022-05-06T08:47:29.000Z</time>
      </trkpt>
      <trkpt lat="40.31995405443012714385986328125" lon="-1.0049444250762462615966796875">
        <ele>1123.5999755859375</ele>
        <time>2022-05-06T08:47:30.000Z</time>
      </trkpt>
      <trkpt lat="40.3199139051139354705810546875" lon="-1.0049243085086345672607421875">
        <ele>1123.5999755859375</ele>
        <time>2022-05-06T08:47:32.000Z</time>
      </trkpt>
      <trkpt lat="40.319872833788394927978515625" lon="-1.00490595214068889617919921875">
        <ele>1123.5999755859375</ele>
        <time>2022-05-06T08:47:34.000Z</time>
      </trkpt>
      <trkpt lat="40.31983151100575923919677734375" lon="-1.0048855841159820556640625">
        <ele>1123.5999755859375</ele>
        <time>2022-05-06T08:47:36.000Z</time>
      </trkpt>
      <trkpt lat="40.31979094259440898895263671875" lon="-1.0048676468431949615478515625">
        <ele>1123.5999755859375</ele>
        <time>2022-05-06T08:47:38.000Z</time>
      </trkpt>
      <trkpt lat="40.31977124512195587158203125" lon="-1.0048585943877696990966796875">
        <ele>1123.5999755859375</ele>
        <time>2022-05-06T08:47:39.000Z</time>
      </trkpt>
      <trkpt lat="40.3197526372969150543212890625" lon="-1.004849374294281005859375">
        <ele>1123.5999755859375</ele>
        <time>2022-05-06T08:47:40.000Z</time>
      </trkpt>
      <trkpt lat="40.31971433199942111968994140625" lon="-1.00482858717441558837890625">
        <ele>1123.5999755859375</ele>
        <time>2022-05-06T08:47:42.000Z</time>
      </trkpt>
      <trkpt lat="40.31967460177838802337646484375" lon="-1.00481341592967510223388671875">
        <ele>1123.5999755859375</ele>
        <time>2022-05-06T08:47:44.000Z</time>
      </trkpt>
      <trkpt lat="40.31963386572897434234619140625" lon="-1.00479413755238056182861328125">
        <ele>1123.5999755859375</ele>
        <time>2022-05-06T08:47:46.000Z</time>
      </trkpt>
      <trkpt lat="40.319589860737323760986328125" lon="-1.004774607717990875244140625">
        <ele>1123.4000244140625</ele>
        <time>2022-05-06T08:47:48.000Z</time>
      </trkpt>
      <trkpt lat="40.31954686157405376434326171875" lon="-1.00475440733134746551513671875">
        <ele>1123.4000244140625</ele>
        <time>2022-05-06T08:47:50.000Z</time>
      </trkpt>
      <trkpt lat="40.31950461678206920623779296875" lon="-1.0047353804111480712890625">
        <ele>1123.199951171875</ele>
        <time>2022-05-06T08:47:52.000Z</time>
      </trkpt>
      <trkpt lat="40.3194639645516872406005859375" lon="-1.0047166049480438232421875">
        <ele>1123</ele>
        <time>2022-05-06T08:47:54.000Z</time>
      </trkpt>
      <trkpt lat="40.31944309361279010772705078125" lon="-1.004706211388111114501953125">
        <ele>1123</ele>
        <time>2022-05-06T08:47:55.000Z</time>
      </trkpt>
      <trkpt lat="40.3194223903119564056396484375" lon="-1.0046951472759246826171875">
        <ele>1123</ele>
        <time>2022-05-06T08:47:56.000Z</time>
      </trkpt>
      <trkpt lat="40.3193818219006061553955078125" lon="-1.00467360578477382659912109375">
        <ele>1122.800048828125</ele>
        <time>2022-05-06T08:47:58.000Z</time>
      </trkpt>
      <trkpt lat="40.3193402476608753204345703125" lon="-1.00465248338878154754638671875">
        <ele>1122.5999755859375</ele>
        <time>2022-05-06T08:48:00.000Z</time>
      </trkpt>
      <trkpt lat="40.31929825432598590850830078125" lon="-1.0046346299350261688232421875">
        <ele>1122.5999755859375</ele>
        <time>2022-05-06T08:48:02.000Z</time>
      </trkpt>
      <trkpt lat="40.31925684772431850433349609375" lon="-1.004616357386112213134765625">
        <ele>1122.4000244140625</ele>
        <time>2022-05-06T08:48:04.000Z</time>
      </trkpt>
      <trkpt lat="40.319215692579746246337890625" lon="-1.0045959055423736572265625">
        <ele>1122.199951171875</ele>
        <time>2022-05-06T08:48:06.000Z</time>
      </trkpt>
      <trkpt lat="40.31919599510729312896728515625" lon="-1.00458676926791667938232421875">
        <ele>1122.199951171875</ele>
        <time>2022-05-06T08:48:07.000Z</time>
      </trkpt>
      <trkpt lat="40.31917587853968143463134765625" lon="-1.00457872264087200164794921875">
        <ele>1122.199951171875</ele>
        <time>2022-05-06T08:48:08.000Z</time>
      </trkpt>
      <trkpt lat="40.3191337175667285919189453125" lon="-1.0045565105974674224853515625">
        <ele>1122</ele>
        <time>2022-05-06T08:48:10.000Z</time>
      </trkpt>
      <trkpt lat="40.31909038312733173370361328125" lon="-1.004532538354396820068359375">
        <ele>1121.800048828125</ele>
        <time>2022-05-06T08:48:12.000Z</time>
      </trkpt>
      <trkpt lat="40.3190492279827594757080078125" lon="-1.0045065544545650482177734375">
        <ele>1121.800048828125</ele>
        <time>2022-05-06T08:48:14.000Z</time>
      </trkpt>
      <trkpt lat="40.3190069831907749176025390625" lon="-1.004484929144382476806640625">
        <ele>1121.800048828125</ele>
        <time>2022-05-06T08:48:16.000Z</time>
      </trkpt>
      <trkpt lat="40.318987034261226654052734375" lon="-1.00447294302284717559814453125">
        <ele>1121.800048828125</ele>
        <time>2022-05-06T08:48:17.000Z</time>
      </trkpt>
      <trkpt lat="40.318965911865234375" lon="-1.0044609569013118743896484375">
        <ele>1122</ele>
        <time>2022-05-06T08:48:18.000Z</time>
      </trkpt>
      <trkpt lat="40.3189243376255035400390625" lon="-1.00443203933537006378173828125">
        <ele>1122</ele>
        <time>2022-05-06T08:48:20.000Z</time>
      </trkpt>
      <trkpt lat="40.3188841044902801513671875" lon="-1.00440303795039653778076171875">
        <ele>1122.199951171875</ele>
        <time>2022-05-06T08:48:22.000Z</time>
      </trkpt>
      <trkpt lat="40.31884588301181793212890625" lon="-1.0043747909367084503173828125">
        <ele>1122.199951171875</ele>
        <time>2022-05-06T08:48:24.000Z</time>
      </trkpt>
      <trkpt lat="40.318807996809482574462890625" lon="-1.0043459571897983551025390625">
        <ele>1122.4000244140625</ele>
        <time>2022-05-06T08:48:26.000Z</time>
      </trkpt>
      <trkpt lat="40.31876767985522747039794921875" lon="-1.00431368686258792877197265625">
        <ele>1122.4000244140625</ele>
        <time>2022-05-06T08:48:28.000Z</time>
      </trkpt>
      <trkpt lat="40.31872979365289211273193359375" lon="-1.00428066216409206390380859375">
        <ele>1122.5999755859375</ele>
        <time>2022-05-06T08:48:30.000Z</time>
      </trkpt>
      <trkpt lat="40.31869425438344478607177734375" lon="-1.0042436979711055755615234375">
        <ele>1122.5999755859375</ele>
        <time>2022-05-06T08:48:32.000Z</time>
      </trkpt>
      <trkpt lat="40.31865821219980716705322265625" lon="-1.00420690141618251800537109375">
        <ele>1122.800048828125</ele>
        <time>2022-05-06T08:48:34.000Z</time>
      </trkpt>
      <trkpt lat="40.31864128075540065765380859375" lon="-1.0041887126863002777099609375">
        <ele>1122.800048828125</ele>
        <time>2022-05-06T08:48:35.000Z</time>
      </trkpt>
      <trkpt lat="40.3186234273016452789306640625" lon="-1.0041706077754497528076171875">
        <ele>1123</ele>
        <time>2022-05-06T08:48:36.000Z</time>
      </trkpt>
      <trkpt lat="40.31858562491834163665771484375" lon="-1.00413079373538494110107421875">
        <ele>1123.199951171875</ele>
        <time>2022-05-06T08:48:38.000Z</time>
      </trkpt>
      <trkpt lat="40.3185488283634185791015625" lon="-1.00408829748630523681640625">
        <ele>1123.5999755859375</ele>
        <time>2022-05-06T08:48:40.000Z</time>
      </trkpt>
      <trkpt lat="40.31851320527493953704833984375" lon="-1.00404680706560611724853515625">
        <ele>1124</ele>
        <time>2022-05-06T08:48:42.000Z</time>
      </trkpt>
      <trkpt lat="40.31847917474806308746337890625" lon="-1.004003472626209259033203125">
        <ele>1124.5999755859375</ele>
        <time>2022-05-06T08:48:44.000Z</time>
      </trkpt>
      <trkpt lat="40.31844967044889926910400390625" lon="-1.00396499969065189361572265625">
        <ele>1125</ele>
        <time>2022-05-06T08:48:46.000Z</time>
      </trkpt>
      <trkpt lat="40.3184236027300357818603515625" lon="-1.0039245150983333587646484375">
        <ele>1125.5999755859375</ele>
        <time>2022-05-06T08:48:48.000Z</time>
      </trkpt>
      <trkpt lat="40.3183940984308719635009765625" lon="-1.00388319231569766998291015625">
        <ele>1126</ele>
        <time>2022-05-06T08:48:50.000Z</time>
      </trkpt>
      <trkpt lat="40.318362750113010406494140625" lon="-1.00384027697145938873291015625">
        <ele>1126.5999755859375</ele>
        <time>2022-05-06T08:48:52.000Z</time>
      </trkpt>
      <trkpt lat="40.31833517365157604217529296875" lon="-1.00379115901887416839599609375">
        <ele>1127.199951171875</ele>
        <time>2022-05-06T08:48:54.000Z</time>
      </trkpt>
      <trkpt lat="40.31830600462853908538818359375" lon="-1.0037454776465892791748046875">
        <ele>1127.800048828125</ele>
        <time>2022-05-06T08:48:56.000Z</time>
      </trkpt>
      <trkpt lat="40.318276584148406982421875" lon="-1.0036971978843212127685546875">
        <ele>1128.5999755859375</ele>
        <time>2022-05-06T08:48:58.000Z</time>
      </trkpt>
      <trkpt lat="40.31824884004890918731689453125" lon="-1.00365067832171916961669921875">
        <ele>1129.199951171875</ele>
        <time>2022-05-06T08:49:00.000Z</time>
      </trkpt>
      <trkpt lat="40.31821883283555507659912109375" lon="-1.00360390730202198028564453125">
        <ele>1129.800048828125</ele>
        <time>2022-05-06T08:49:02.000Z</time>
      </trkpt>
      <trkpt lat="40.3182036615908145904541015625" lon="-1.00358001887798309326171875">
        <ele>1130</ele>
        <time>2022-05-06T08:49:03.000Z</time>
      </trkpt>
      <trkpt lat="40.31819016672670841217041015625" lon="-1.00355378352105617523193359375">
        <ele>1130.4000244140625</ele>
        <time>2022-05-06T08:49:04.000Z</time>
      </trkpt>
      <trkpt lat="40.31816594302654266357421875" lon="-1.0035002231597900390625">
        <ele>1131.199951171875</ele>
        <time>2022-05-06T08:49:06.000Z</time>
      </trkpt>
      <trkpt lat="40.31814289279282093048095703125" lon="-1.003442220389842987060546875">
        <ele>1132</ele>
        <time>2022-05-06T08:49:08.000Z</time>
      </trkpt>
      <trkpt lat="40.31812042929232120513916015625" lon="-1.0033880732953548431396484375">
        <ele>1132.800048828125</ele>
        <time>2022-05-06T08:49:10.000Z</time>
      </trkpt>
      <trkpt lat="40.318099558353424072265625" lon="-1.00333367474377155303955078125">
        <ele>1133.5999755859375</ele>
        <time>2022-05-06T08:49:12.000Z</time>
      </trkpt>
      <trkpt lat="40.318079777061939239501953125" lon="-1.00327734835445880889892578125">
        <ele>1134.4000244140625</ele>
        <time>2022-05-06T08:49:14.000Z</time>
      </trkpt>
      <trkpt lat="40.31805873848497867584228515625" lon="-1.00321766920387744903564453125">
        <ele>1135.199951171875</ele>
        <time>2022-05-06T08:49:16.000Z</time>
      </trkpt>
      <trkpt lat="40.3180480934679508209228515625" lon="-1.00318917073309421539306640625">
        <ele>1135.5999755859375</ele>
        <time>2022-05-06T08:49:17.000Z</time>
      </trkpt>
      <trkpt lat="40.31803728081285953521728515625" lon="-1.003158576786518096923828125">
        <ele>1136</ele>
        <time>2022-05-06T08:49:18.000Z</time>
      </trkpt>
      <trkpt lat="40.31802688725292682647705078125" lon="-1.0031278990209102630615234375">
        <ele>1136.5999755859375</ele>
        <time>2022-05-06T08:49:19.000Z</time>
      </trkpt>
      <trkpt lat="40.31801397912204265594482421875" lon="-1.00309629924595355987548828125">
        <ele>1137</ele>
        <time>2022-05-06T08:49:20.000Z</time>
      </trkpt>
      <trkpt lat="40.3179880790412425994873046875" lon="-1.003036536276340484619140625">
        <ele>1138</ele>
        <time>2022-05-06T08:49:22.000Z</time>
      </trkpt>
      <trkpt lat="40.31796343624591827392578125" lon="-1.00297241471707820892333984375">
        <ele>1138.800048828125</ele>
        <time>2022-05-06T08:49:24.000Z</time>
      </trkpt>
      <trkpt lat="40.3179397992789745330810546875" lon="-1.002912484109401702880859375">
        <ele>1139.800048828125</ele>
        <time>2022-05-06T08:49:26.000Z</time>
      </trkpt>
      <trkpt lat="40.317930243909358978271484375" lon="-1.00288457237184047698974609375">
        <ele>1140.199951171875</ele>
        <time>2022-05-06T08:49:27.000Z</time>
      </trkpt>
      <trkpt lat="40.31792127527296543121337890625" lon="-1.00285976193845272064208984375">
        <ele>1140.5999755859375</ele>
        <time>2022-05-06T08:49:28.000Z</time>
      </trkpt>
      <trkpt lat="40.31790233217179775238037109375" lon="-1.002814583480358123779296875">
        <ele>1141.4000244140625</ele>
        <time>2022-05-06T08:49:30.000Z</time>
      </trkpt>
      <trkpt lat="40.3178838081657886505126953125" lon="-1.00277527235448360443115234375">
        <ele>1142</ele>
        <time>2022-05-06T08:49:32.000Z</time>
      </trkpt>
      <trkpt lat="40.31787685118615627288818359375" lon="-1.00275121629238128662109375">
        <ele>1142.4000244140625</ele>
        <time>2022-05-06T08:49:33.000Z</time>
      </trkpt>
      <trkpt lat="40.31786863692104816436767578125" lon="-1.00273168645799160003662109375">
        <ele>1142.5999755859375</ele>
        <time>2022-05-06T08:49:34.000Z</time>
      </trkpt>
      <trkpt lat="40.31784751452505588531494140625" lon="-1.0026960633695125579833984375">
        <ele>1143.199951171875</ele>
        <time>2022-05-06T08:49:36.000Z</time>
      </trkpt>
      <trkpt lat="40.3178258053958415985107421875" lon="-1.002654992043972015380859375">
        <ele>1143.800048828125</ele>
        <time>2022-05-06T08:49:38.000Z</time>
      </trkpt>
      <trkpt lat="40.31780526973307132720947265625" lon="-1.0026179440319538116455078125">
        <ele>1144.4000244140625</ele>
        <time>2022-05-06T08:49:40.000Z</time>
      </trkpt>
      <trkpt lat="40.31778632663190364837646484375" lon="-1.0025882720947265625">
        <ele>1144.800048828125</ele>
        <time>2022-05-06T08:49:42.000Z</time>
      </trkpt>
      <trkpt lat="40.3177656233310699462890625" lon="-1.0025522299110889434814453125">
        <ele>1145.4000244140625</ele>
        <time>2022-05-06T08:49:44.000Z</time>
      </trkpt>
      <trkpt lat="40.31774089671671390533447265625" lon="-1.00249883718788623809814453125">
        <ele>1146.199951171875</ele>
        <time>2022-05-06T08:49:46.000Z</time>
      </trkpt>
      <trkpt lat="40.31771843321621417999267578125" lon="-1.00243982858955860137939453125">
        <ele>1146.800048828125</ele>
        <time>2022-05-06T08:49:48.000Z</time>
      </trkpt>
      <trkpt lat="40.31769647262990474700927734375" lon="-1.00238719023764133453369140625">
        <ele>1147.199951171875</ele>
        <time>2022-05-06T08:49:50.000Z</time>
      </trkpt>
      <trkpt lat="40.3176735900342464447021484375" lon="-1.00233907811343669891357421875">
        <ele>1147.5999755859375</ele>
        <time>2022-05-06T08:49:52.000Z</time>
      </trkpt>
      <trkpt lat="40.3176585026085376739501953125" lon="-1.00230454467236995697021484375">
        <ele>1147.800048828125</ele>
        <time>2022-05-06T08:49:53.000Z</time>
      </trkpt>
      <trkpt lat="40.3176457621157169342041015625" lon="-1.00227520801126956939697265625">
        <ele>1148</ele>
        <time>2022-05-06T08:49:54.000Z</time>
      </trkpt>
      <trkpt lat="40.3176229633390903472900390625" lon="-1.00221611559391021728515625">
        <ele>1148.5999755859375</ele>
        <time>2022-05-06T08:49:56.000Z</time>
      </trkpt>
      <trkpt lat="40.3176051937043666839599609375" lon="-1.00218367762863636016845703125">
        <ele>1149</ele>
        <time>2022-05-06T08:49:58.000Z</time>
      </trkpt>
      <trkpt lat="40.31759320758283138275146484375" lon="-1.00216205231845378875732421875">
        <ele>1149.4000244140625</ele>
        <time>2022-05-06T08:49:59.000Z</time>
      </trkpt>
      <trkpt lat="40.31758298166096210479736328125" lon="-1.002137996256351470947265625">
        <ele>1149.5999755859375</ele>
        <time>2022-05-06T08:50:00.000Z</time>
      </trkpt>
      <trkpt lat="40.317575521767139434814453125" lon="-1.0021170414984226226806640625">
        <ele>1150</ele>
        <time>2022-05-06T08:50:01.000Z</time>
      </trkpt>
      <trkpt lat="40.3174974024295806884765625" lon="-1.0019463859498500823974609375">
        <ele>1152.199951171875</ele>
        <time>2022-05-06T08:50:09.000Z</time>
      </trkpt>
      <trkpt lat="40.3174905292689800262451171875" lon="-1.00192844867706298828125">
        <ele>1152.4000244140625</ele>
        <time>2022-05-06T08:50:10.000Z</time>
      </trkpt>
      <trkpt lat="40.31747267581522464752197265625" lon="-1.00188930518925189971923828125">
        <ele>1152.800048828125</ele>
        <time>2022-05-06T08:50:12.000Z</time>
      </trkpt>
      <trkpt lat="40.31746362335979938507080078125" lon="-1.00187011063098907470703125">
        <ele>1152.800048828125</ele>
        <time>2022-05-06T08:50:13.000Z</time>
      </trkpt>
      <trkpt lat="40.31706221401691436767578125" lon="-1.0006270743906497955322265625">
        <ele>1152.4000244140625</ele>
        <time>2022-05-06T08:50:42.000Z</time>
      </trkpt>
      <trkpt lat="40.3170489706099033355712890625" lon="-1.00058927200734615325927734375">
        <ele>1152</ele>
        <time>2022-05-06T08:50:43.000Z</time>
      </trkpt>
      <trkpt lat="40.3170379064977169036865234375" lon="-1.00055088289082050323486328125">
        <ele>1151.4000244140625</ele>
        <time>2022-05-06T08:50:44.000Z</time>
      </trkpt>
      <trkpt lat="40.31701871193945407867431640625" lon="-1.000481732189655303955078125">
        <ele>1150.199951171875</ele>
        <time>2022-05-06T08:50:46.000Z</time>
      </trkpt>
      <trkpt lat="40.316999852657318115234375" lon="-1.0004178620874881744384765625">
        <ele>1149.199951171875</ele>
        <time>2022-05-06T08:50:48.000Z</time>
      </trkpt>
      <trkpt lat="40.31698853708803653717041015625" lon="-1.00035323761403560638427734375">
        <ele>1148</ele>
        <time>2022-05-06T08:50:50.000Z</time>
      </trkpt>
      <trkpt lat="40.3169731982052326202392578125" lon="-1.0002931393682956695556640625">
        <ele>1147</ele>
        <time>2022-05-06T08:50:52.000Z</time>
      </trkpt>
      <trkpt lat="40.31695651821792125701904296875" lon="-1.000230275094509124755859375">
        <ele>1146</ele>
        <time>2022-05-06T08:50:54.000Z</time>
      </trkpt>
      <trkpt lat="40.3169507347047328948974609375" lon="-1.00020177662372589111328125">
        <ele>1145.5999755859375</ele>
        <time>2022-05-06T08:50:55.000Z</time>
      </trkpt>
      <trkpt lat="40.31694444827735424041748046875" lon="-1.00017151795327663421630859375">
        <ele>1145</ele>
        <time>2022-05-06T08:50:56.000Z</time>
      </trkpt>
      <trkpt lat="40.316926427185535430908203125" lon="-1.00011217407882213592529296875">
        <ele>1144</ele>
        <time>2022-05-06T08:50:58.000Z</time>
      </trkpt>
      <trkpt lat="40.3169088251888751983642578125" lon="-1.000049896538257598876953125">
        <ele>1142.800048828125</ele>
        <time>2022-05-06T08:51:00.000Z</time>
      </trkpt>
      <trkpt lat="40.3168880380690097808837890625" lon="-0.9999830089509487152099609375">
        <ele>1141.5999755859375</ele>
        <time>2022-05-06T08:51:02.000Z</time>
      </trkpt>
      <trkpt lat="40.31687538139522075653076171875" lon="-0.99994973279535770416259765625">
        <ele>1141</ele>
        <time>2022-05-06T08:51:03.000Z</time>
      </trkpt>
      <trkpt lat="40.31686264090240001678466796875" lon="-0.999918468296527862548828125">
        <ele>1140.4000244140625</ele>
        <time>2022-05-06T08:51:04.000Z</time>
      </trkpt>
      <trkpt lat="40.316838920116424560546875" lon="-0.99985853768885135650634765625">
        <ele>1139.199951171875</ele>
        <time>2022-05-06T08:51:06.000Z</time>
      </trkpt>
      <trkpt lat="40.31682056374847888946533203125" lon="-0.99980237893760204315185546875">
        <ele>1138</ele>
        <time>2022-05-06T08:51:08.000Z</time>
      </trkpt>
      <trkpt lat="40.31679667532444000244140625" lon="-0.9997406043112277984619140625">
        <ele>1136.800048828125</ele>
        <time>2022-05-06T08:51:10.000Z</time>
      </trkpt>
      <trkpt lat="40.31678586266934871673583984375" lon="-0.9997137822210788726806640625">
        <ele>1136.4000244140625</ele>
        <time>2022-05-06T08:51:11.000Z</time>
      </trkpt>
      <trkpt lat="40.31677379272878170013427734375" lon="-0.9996859543025493621826171875">
        <ele>1135.800048828125</ele>
        <time>2022-05-06T08:51:12.000Z</time>
      </trkpt>
      <trkpt lat="40.31675116159021854400634765625" lon="-0.99962904118001461029052734375">
        <ele>1134.800048828125</ele>
        <time>2022-05-06T08:51:14.000Z</time>
      </trkpt>
      <trkpt lat="40.31674043275415897369384765625" lon="-0.99960037507116794586181640625">
        <ele>1134.199951171875</ele>
        <time>2022-05-06T08:51:15.000Z</time>
      </trkpt>
      <trkpt lat="40.3167297877371311187744140625" lon="-0.9995702840387821197509765625">
        <ele>1133.800048828125</ele>
        <time>2022-05-06T08:51:16.000Z</time>
      </trkpt>
      <trkpt lat="40.3167053125798702239990234375" lon="-0.999506078660488128662109375">
        <ele>1132.5999755859375</ele>
        <time>2022-05-06T08:51:18.000Z</time>
      </trkpt>
      <trkpt lat="40.3166929073631763458251953125" lon="-0.99947548471391201019287109375">
        <ele>1132</ele>
        <time>2022-05-06T08:51:19.000Z</time>
      </trkpt>
      <trkpt lat="40.31668041832745075225830078125" lon="-0.9994462318718433380126953125">
        <ele>1131.5999755859375</ele>
        <time>2022-05-06T08:51:20.000Z</time>
      </trkpt>
      <trkpt lat="40.31665376387536525726318359375" lon="-0.99938579834997653961181640625">
        <ele>1130.5999755859375</ele>
        <time>2022-05-06T08:51:22.000Z</time>
      </trkpt>
      <trkpt lat="40.3166258521378040313720703125" lon="-0.9993248619139194488525390625">
        <ele>1130.4000244140625</ele>
        <time>2022-05-06T08:51:24.000Z</time>
      </trkpt>
      <trkpt lat="40.316593833267688751220703125" lon="-0.9992645122110843658447265625">
        <ele>1130.4000244140625</ele>
        <time>2022-05-06T08:51:26.000Z</time>
      </trkpt>
      <trkpt lat="40.3165624849498271942138671875" lon="-0.99920265376567840576171875">
        <ele>1130.4000244140625</ele>
        <time>2022-05-06T08:51:28.000Z</time>
      </trkpt>
      <trkpt lat="40.3165279515087604522705078125" lon="-0.99914121441543102264404296875">
        <ele>1130.199951171875</ele>
        <time>2022-05-06T08:51:30.000Z</time>
      </trkpt>
      <trkpt lat="40.3164920769631862640380859375" lon="-0.9990851394832134246826171875">
        <ele>1130.199951171875</ele>
        <time>2022-05-06T08:51:32.000Z</time>
      </trkpt>
      <trkpt lat="40.31645511277019977569580078125" lon="-0.9990301541984081268310546875">
        <ele>1130.199951171875</ele>
        <time>2022-05-06T08:51:34.000Z</time>
      </trkpt>
      <trkpt lat="40.31641856767237186431884765625" lon="-0.99897609092295169830322265625">
        <ele>1130</ele>
        <time>2022-05-06T08:51:36.000Z</time>
      </trkpt>
      <trkpt lat="40.31639970839023590087890625" lon="-0.99894960410892963409423828125">
        <ele>1130</ele>
        <time>2022-05-06T08:51:37.000Z</time>
      </trkpt>
      <trkpt lat="40.3163794241845607757568359375" lon="-0.998920686542987823486328125">
        <ele>1130</ele>
        <time>2022-05-06T08:51:38.000Z</time>
      </trkpt>
      <trkpt lat="40.31633659265935420989990234375" lon="-0.99886813201010227203369140625">
        <ele>1131</ele>
        <time>2022-05-06T08:51:40.000Z</time>
      </trkpt>
      <trkpt lat="40.3162902407348155975341796875" lon="-0.99881750531494617462158203125">
        <ele>1133</ele>
        <time>2022-05-06T08:51:42.000Z</time>
      </trkpt>
      <trkpt lat="40.31624279916286468505859375" lon="-0.99876939319074153900146484375">
        <ele>1134.5999755859375</ele>
        <time>2022-05-06T08:51:44.000Z</time>
      </trkpt>
      <trkpt lat="40.3161973692476749420166015625" lon="-0.998724885284900665283203125">
        <ele>1136</ele>
        <time>2022-05-06T08:51:46.000Z</time>
      </trkpt>
      <trkpt lat="40.3161509335041046142578125" lon="-0.99868171848356723785400390625">
        <ele>1137.4000244140625</ele>
        <time>2022-05-06T08:51:48.000Z</time>
      </trkpt>
      <trkpt lat="40.316098630428314208984375" lon="-0.99863528273999691009521484375">
        <ele>1139</ele>
        <time>2022-05-06T08:51:50.000Z</time>
      </trkpt>
      <trkpt lat="40.3160490095615386962890625" lon="-0.9985996596515178680419921875">
        <ele>1140.199951171875</ele>
        <time>2022-05-06T08:51:52.000Z</time>
      </trkpt>
      <trkpt lat="40.3160250373184680938720703125" lon="-0.9985805489122867584228515625">
        <ele>1140.800048828125</ele>
        <time>2022-05-06T08:51:53.000Z</time>
      </trkpt>
      <trkpt lat="40.3160015679895877838134765625" lon="-0.9985609352588653564453125">
        <ele>1141.4000244140625</ele>
        <time>2022-05-06T08:51:54.000Z</time>
      </trkpt>
      <trkpt lat="40.31594968400895595550537109375" lon="-0.99852271378040313720703125">
        <ele>1142.5999755859375</ele>
        <time>2022-05-06T08:51:56.000Z</time>
      </trkpt>
      <trkpt lat="40.3158986382186412811279296875" lon="-0.99848357029259204864501953125">
        <ele>1144</ele>
        <time>2022-05-06T08:51:58.000Z</time>
      </trkpt>
      <trkpt lat="40.315848179161548614501953125" lon="-0.998448617756366729736328125">
        <ele>1144.199951171875</ele>
        <time>2022-05-06T08:52:00.000Z</time>
      </trkpt>
      <trkpt lat="40.315793864428997039794921875" lon="-0.99842171184718608856201171875">
        <ele>1144.4000244140625</ele>
        <time>2022-05-06T08:52:02.000Z</time>
      </trkpt>
      <trkpt lat="40.3157665394246578216552734375" lon="-0.99841014482080936431884765625">
        <ele>1144.4000244140625</ele>
        <time>2022-05-06T08:52:03.000Z</time>
      </trkpt>
      <trkpt lat="40.31573728658258914947509765625" lon="-0.99840193055570125579833984375">
        <ele>1144.4000244140625</ele>
        <time>2022-05-06T08:52:04.000Z</time>
      </trkpt>
      <trkpt lat="40.31567928381264209747314453125" lon="-0.99838055670261383056640625">
        <ele>1144.4000244140625</ele>
        <time>2022-05-06T08:52:06.000Z</time>
      </trkpt>
      <trkpt lat="40.3156227059662342071533203125" lon="-0.9983624517917633056640625">
        <ele>1144.199951171875</ele>
        <time>2022-05-06T08:52:08.000Z</time>
      </trkpt>
      <trkpt lat="40.3155660443007946014404296875" lon="-0.9983495436608791351318359375">
        <ele>1144</ele>
        <time>2022-05-06T08:52:10.000Z</time>
      </trkpt>
      <trkpt lat="40.31551667489111423492431640625" lon="-0.9983495436608791351318359375">
        <ele>1143.5999755859375</ele>
        <time>2022-05-06T08:52:12.000Z</time>
      </trkpt>
      <trkpt lat="40.315464623272418975830078125" lon="-0.99834258668124675750732421875">
        <ele>1143.4000244140625</ele>
        <time>2022-05-06T08:52:14.000Z</time>
      </trkpt>
      <trkpt lat="40.3154379688203334808349609375" lon="-0.99832833744585514068603515625">
        <ele>1143.5999755859375</ele>
        <time>2022-05-06T08:52:15.000Z</time>
      </trkpt>
      <trkpt lat="40.3154098056256771087646484375" lon="-0.998315177857875823974609375">
        <ele>1143.5999755859375</ele>
        <time>2022-05-06T08:52:16.000Z</time>
      </trkpt>
      <trkpt lat="40.31535356305539608001708984375" lon="-0.99829464219510555267333984375">
        <ele>1143.800048828125</ele>
        <time>2022-05-06T08:52:18.000Z</time>
      </trkpt>
      <trkpt lat="40.31529841013252735137939453125" lon="-0.9982804767787456512451171875">
        <ele>1144</ele>
        <time>2022-05-06T08:52:20.000Z</time>
      </trkpt>
      <trkpt lat="40.31524510122835636138916015625" lon="-0.9982767887413501739501953125">
        <ele>1143.4000244140625</ele>
        <time>2022-05-06T08:52:22.000Z</time>
      </trkpt>
      <trkpt lat="40.315190367400646209716796875" lon="-0.998271591961383819580078125">
        <ele>1142.800048828125</ele>
        <time>2022-05-06T08:52:24.000Z</time>
      </trkpt>
      <trkpt lat="40.3151370584964752197265625" lon="-0.99826681427657604217529296875">
        <ele>1142</ele>
        <time>2022-05-06T08:52:26.000Z</time>
      </trkpt>
      <trkpt lat="40.3150855936110019683837890625" lon="-0.99826530553400516510009765625">
        <ele>1141.199951171875</ele>
        <time>2022-05-06T08:52:28.000Z</time>
      </trkpt>
      <trkpt lat="40.3150326199829578399658203125" lon="-0.9982630424201488494873046875">
        <ele>1140.5999755859375</ele>
        <time>2022-05-06T08:52:30.000Z</time>
      </trkpt>
      <trkpt lat="40.3149793110787868499755859375" lon="-0.99826279096305370330810546875">
        <ele>1139.800048828125</ele>
        <time>2022-05-06T08:52:32.000Z</time>
      </trkpt>
      <trkpt lat="40.31492709182202816009521484375" lon="-0.99826253950595855712890625">
        <ele>1139</ele>
        <time>2022-05-06T08:52:34.000Z</time>
      </trkpt>
      <trkpt lat="40.31487244181334972381591796875" lon="-0.9982620365917682647705078125">
        <ele>1138.199951171875</ele>
        <time>2022-05-06T08:52:36.000Z</time>
      </trkpt>
      <trkpt lat="40.31481477431952953338623046875" lon="-0.99826128222048282623291015625">
        <ele>1137.4000244140625</ele>
        <time>2022-05-06T08:52:38.000Z</time>
      </trkpt>
      <trkpt lat="40.3147602081298828125" lon="-0.99826513789594173431396484375">
        <ele>1136.5999755859375</ele>
        <time>2022-05-06T08:52:40.000Z</time>
      </trkpt>
      <trkpt lat="40.31473330222070217132568359375" lon="-0.99826765246689319610595703125">
        <ele>1136.199951171875</ele>
        <time>2022-05-06T08:52:41.000Z</time>
      </trkpt>
      <trkpt lat="40.3147052228450775146484375" lon="-0.99826991558074951171875">
        <ele>1135.800048828125</ele>
        <time>2022-05-06T08:52:42.000Z</time>
      </trkpt>
      <trkpt lat="40.31464395113289356231689453125" lon="-0.9982700832188129425048828125">
        <ele>1134.800048828125</ele>
        <time>2022-05-06T08:52:44.000Z</time>
      </trkpt>
      <trkpt lat="40.3145885467529296875" lon="-0.99827469326555728912353515625">
        <ele>1135.199951171875</ele>
        <time>2022-05-06T08:52:46.000Z</time>
      </trkpt>
      <trkpt lat="40.3145313821732997894287109375" lon="-0.998278297483921051025390625">
        <ele>1136</ele>
        <time>2022-05-06T08:52:48.000Z</time>
      </trkpt>
      <trkpt lat="40.31447564251720905303955078125" lon="-0.99828374572098255157470703125">
        <ele>1136.5999755859375</ele>
        <time>2022-05-06T08:52:50.000Z</time>
      </trkpt>
      <trkpt lat="40.314424596726894378662109375" lon="-0.99828802049160003662109375">
        <ele>1137</ele>
        <time>2022-05-06T08:52:52.000Z</time>
      </trkpt>
      <trkpt lat="40.31437623314559459686279296875" lon="-0.9982918761670589447021484375">
        <ele>1137.800048828125</ele>
        <time>2022-05-06T08:52:54.000Z</time>
      </trkpt>
      <trkpt lat="40.31435175798833370208740234375" lon="-0.99829464219510555267333984375">
        <ele>1138</ele>
        <time>2022-05-06T08:52:55.000Z</time>
      </trkpt>
      <trkpt lat="40.31432770192623138427734375" lon="-0.99829799495637416839599609375">
        <ele>1138.4000244140625</ele>
        <time>2022-05-06T08:52:56.000Z</time>
      </trkpt>
      <trkpt lat="40.31427581794559955596923828125" lon="-0.99829916842281818389892578125">
        <ele>1139</ele>
        <time>2022-05-06T08:52:58.000Z</time>
      </trkpt>
      <trkpt lat="40.3142185695469379425048828125" lon="-0.99830143153667449951171875">
        <ele>1139.800048828125</ele>
        <time>2022-05-06T08:53:00.000Z</time>
      </trkpt>
      <trkpt lat="40.31419225037097930908203125" lon="-0.99830185063183307647705078125">
        <ele>1140.199951171875</ele>
        <time>2022-05-06T08:53:01.000Z</time>
      </trkpt>
      <trkpt lat="40.314166434109210968017578125" lon="-0.99830436520278453826904296875">
        <ele>1140.5999755859375</ele>
        <time>2022-05-06T08:53:02.000Z</time>
      </trkpt>
      <trkpt lat="40.3141149692237377166748046875" lon="-0.9983009286224842071533203125">
        <ele>1141.4000244140625</ele>
        <time>2022-05-06T08:53:04.000Z</time>
      </trkpt>
      <trkpt lat="40.31406610272824764251708984375" lon="-0.99829967133700847625732421875">
        <ele>1142</ele>
        <time>2022-05-06T08:53:06.000Z</time>
      </trkpt>
      <trkpt lat="40.3140442259609699249267578125" lon="-0.9982955642044544219970703125">
        <ele>1142.4000244140625</ele>
        <time>2022-05-06T08:53:07.000Z</time>
      </trkpt>
      <trkpt lat="40.31402134336531162261962890625" lon="-0.9982938878238201141357421875">
        <ele>1142.800048828125</ele>
        <time>2022-05-06T08:53:08.000Z</time>
      </trkpt>
      <trkpt lat="40.31398647464811801910400390625" lon="-0.9982900321483612060546875">
        <ele>1143.4000244140625</ele>
        <time>2022-05-06T08:53:10.000Z</time>
      </trkpt>
      <trkpt lat="40.3139748238027095794677734375" lon="-0.99828659556806087493896484375">
        <ele>1143.5999755859375</ele>
        <time>2022-05-06T08:53:12.000Z</time>
      </trkpt>
      <trkpt lat="40.31387566588819026947021484375" lon="-0.99828810431063175201416015625">
        <ele>1145</ele>
        <time>2022-05-06T08:53:21.000Z</time>
      </trkpt>
      <trkpt lat="40.3138497658073902130126953125" lon="-0.9982900321483612060546875">
        <ele>1145.4000244140625</ele>
        <time>2022-05-06T08:53:22.000Z</time>
      </trkpt>
      <trkpt lat="40.31379905529320240020751953125" lon="-0.99829279817640781402587890625">
        <ele>1146</ele>
        <time>2022-05-06T08:53:24.000Z</time>
      </trkpt>
      <trkpt lat="40.31374490819871425628662109375" lon="-0.998301096260547637939453125">
        <ele>1146.4000244140625</ele>
        <time>2022-05-06T08:53:26.000Z</time>
      </trkpt>
      <trkpt lat="40.3137173317372798919677734375" lon="-0.99830218590795993804931640625">
        <ele>1146.800048828125</ele>
        <time>2022-05-06T08:53:27.000Z</time>
      </trkpt>
      <trkpt lat="40.3136886656284332275390625" lon="-0.99829472601413726806640625">
        <ele>1147.199951171875</ele>
        <time>2022-05-06T08:53:28.000Z</time>
      </trkpt>
      <trkpt lat="40.31364013440907001495361328125" lon="-0.9982901997864246368408203125">
        <ele>1147.800048828125</ele>
        <time>2022-05-06T08:53:30.000Z</time>
      </trkpt>
      <trkpt lat="40.31361146830022335052490234375" lon="-0.99828626029193401336669921875">
        <ele>1148.199951171875</ele>
        <time>2022-05-06T08:53:31.000Z</time>
      </trkpt>
      <trkpt lat="40.31358338892459869384765625" lon="-0.99828659556806087493896484375">
        <ele>1148.4000244140625</ele>
        <time>2022-05-06T08:53:32.000Z</time>
      </trkpt>
      <trkpt lat="40.3135614283382892608642578125" lon="-0.99828240461647510528564453125">
        <ele>1148.800048828125</ele>
        <time>2022-05-06T08:53:33.000Z</time>
      </trkpt>
      <trkpt lat="40.3135429881513118743896484375" lon="-0.9982747770845890045166015625">
        <ele>1149.199951171875</ele>
        <time>2022-05-06T08:53:34.000Z</time>
      </trkpt>
      <trkpt lat="40.31350971199572086334228515625" lon="-0.99825323559343814849853515625">
        <ele>1150</ele>
        <time>2022-05-06T08:53:36.000Z</time>
      </trkpt>
      <trkpt lat="40.3134913556277751922607421875" lon="-0.9982435964047908782958984375">
        <ele>1150.4000244140625</ele>
        <time>2022-05-06T08:53:37.000Z</time>
      </trkpt>
      <trkpt lat="40.31347098760306835174560546875" lon="-0.99823345430195331573486328125">
        <ele>1150.800048828125</ele>
        <time>2022-05-06T08:53:38.000Z</time>
      </trkpt>
      <trkpt lat="40.31342388130724430084228515625" lon="-0.9982016868889331817626953125">
        <ele>1152</ele>
        <time>2022-05-06T08:53:40.000Z</time>
      </trkpt>
      <trkpt lat="40.31337509863078594207763671875" lon="-0.99816572852432727813720703125">
        <ele>1153.199951171875</ele>
        <time>2022-05-06T08:53:42.000Z</time>
      </trkpt>
      <trkpt lat="40.31241889111697673797607421875" lon="-0.9980531595647335052490234375">
        <ele>1155.199951171875</ele>
        <time>2022-05-06T08:54:17.000Z</time>
      </trkpt>
      <trkpt lat="40.31232618726789951324462890625" lon="-0.99778468720614910125732421875">
        <ele>1157.5999755859375</ele>
        <time>2022-05-06T08:54:18.000Z</time>
      </trkpt>
      <trkpt lat="40.31228427775204181671142578125" lon="-0.9976793266832828521728515625">
        <ele>1158</ele>
        <time>2022-05-06T08:54:19.000Z</time>
      </trkpt>
      <trkpt lat="40.3123421967029571533203125" lon="-0.997832715511322021484375">
        <ele>1157.4000244140625</ele>
        <time>2022-05-06T08:54:21.000Z</time>
      </trkpt>
      <trkpt lat="40.3123195655643939971923828125" lon="-0.99783145822584629058837890625">
        <ele>1157</ele>
        <time>2022-05-06T08:54:22.000Z</time>
      </trkpt>
      <trkpt lat="40.3122843615710735321044921875" lon="-0.99780631251633167266845703125">
        <ele>1156.800048828125</ele>
        <time>2022-05-06T08:54:23.000Z</time>
      </trkpt>
      <trkpt lat="40.31221873126924037933349609375" lon="-0.997764654457569122314453125">
        <ele>1156.199951171875</ele>
        <time>2022-05-06T08:54:25.000Z</time>
      </trkpt>
      <trkpt lat="40.3121878020465373992919921875" lon="-0.99775367416441440582275390625">
        <ele>1156</ele>
        <time>2022-05-06T08:54:26.000Z</time>
      </trkpt>
      <trkpt lat="40.31216877512633800506591796875" lon="-0.997768342494964599609375">
        <ele>1155.4000244140625</ele>
        <time>2022-05-06T08:54:27.000Z</time>
      </trkpt>
      <trkpt lat="40.312112867832183837890625" lon="-0.99773758091032505035400390625">
        <ele>1155</ele>
        <time>2022-05-06T08:54:29.000Z</time>
      </trkpt>
      <trkpt lat="40.31205117702484130859375" lon="-0.9977027960121631622314453125">
        <ele>1154.800048828125</ele>
        <time>2022-05-06T08:54:31.000Z</time>
      </trkpt>
      <trkpt lat="40.3119933418929576873779296875" lon="-0.99767186678946018218994140625">
        <ele>1154.4000244140625</ele>
        <time>2022-05-06T08:54:33.000Z</time>
      </trkpt>
      <trkpt lat="40.31194682233035564422607421875" lon="-0.997621156275272369384765625">
        <ele>1154.4000244140625</ele>
        <time>2022-05-06T08:54:35.000Z</time>
      </trkpt>
      <trkpt lat="40.3118942677974700927734375" lon="-0.99757564254105091094970703125">
        <ele>1154.199951171875</ele>
        <time>2022-05-06T08:54:37.000Z</time>
      </trkpt>
      <trkpt lat="40.31184171326458454132080078125" lon="-0.997532308101654052734375">
        <ele>1154</ele>
        <time>2022-05-06T08:54:39.000Z</time>
      </trkpt>
      <trkpt lat="40.3117864765226840972900390625" lon="-0.99749551154673099517822265625">
        <ele>1152.800048828125</ele>
        <time>2022-05-06T08:54:41.000Z</time>
      </trkpt>
      <trkpt lat="40.31172973103821277618408203125" lon="-0.99746181629598140716552734375">
        <ele>1151.4000244140625</ele>
        <time>2022-05-06T08:54:43.000Z</time>
      </trkpt>
      <trkpt lat="40.31170240603387355804443359375" lon="-0.9974436275660991668701171875">
        <ele>1150.800048828125</ele>
        <time>2022-05-06T08:54:44.000Z</time>
      </trkpt>
      <trkpt lat="40.31167491339147090911865234375" lon="-0.997427366673946380615234375">
        <ele>1150.199951171875</ele>
        <time>2022-05-06T08:54:45.000Z</time>
      </trkpt>
      <trkpt lat="40.31164775602519512176513671875" lon="-0.99741093814373016357421875">
        <ele>1149.5999755859375</ele>
        <time>2022-05-06T08:54:46.000Z</time>
      </trkpt>
      <trkpt lat="40.31162126921117305755615234375" lon="-0.997394509613513946533203125">
        <ele>1149</ele>
        <time>2022-05-06T08:54:47.000Z</time>
      </trkpt>
      <trkpt lat="40.31156645156443119049072265625" lon="-0.997365675866603851318359375">
        <ele>1147.800048828125</ele>
        <time>2022-05-06T08:54:49.000Z</time>
      </trkpt>
      <trkpt lat="40.3115118853747844696044921875" lon="-0.99733457900583744049072265625">
        <ele>1146.5999755859375</ele>
        <time>2022-05-06T08:54:51.000Z</time>
      </trkpt>
      <trkpt lat="40.311458408832550048828125" lon="-0.9973024763166904449462890625">
        <ele>1145.4000244140625</ele>
        <time>2022-05-06T08:54:53.000Z</time>
      </trkpt>
      <trkpt lat="40.31143167056143283843994140625" lon="-0.9972867183387279510498046875">
        <ele>1144.800048828125</ele>
        <time>2022-05-06T08:54:54.000Z</time>
      </trkpt>
      <trkpt lat="40.311405770480632781982421875" lon="-0.9972709603607654571533203125">
        <ele>1144.199951171875</ele>
        <time>2022-05-06T08:54:55.000Z</time>
      </trkpt>
      <trkpt lat="40.31135581433773040771484375" lon="-0.99723885767161846160888671875">
        <ele>1143.199951171875</ele>
        <time>2022-05-06T08:54:57.000Z</time>
      </trkpt>
      <trkpt lat="40.31130485236644744873046875" lon="-0.9972082637250423431396484375">
        <ele>1142.199951171875</ele>
        <time>2022-05-06T08:54:59.000Z</time>
      </trkpt>
      <trkpt lat="40.3112530522048473358154296875" lon="-0.99717750214040279388427734375">
        <ele>1141.800048828125</ele>
        <time>2022-05-06T08:55:01.000Z</time>
      </trkpt>
      <trkpt lat="40.31120133586227893829345703125" lon="-0.99714598618447780609130859375">
        <ele>1141.4000244140625</ele>
        <time>2022-05-06T08:55:03.000Z</time>
      </trkpt>
      <trkpt lat="40.3111481107771396636962890625" lon="-0.997114889323711395263671875">
        <ele>1141</ele>
        <time>2022-05-06T08:55:05.000Z</time>
      </trkpt>
      <trkpt lat="40.31112120486795902252197265625" lon="-0.9970991313457489013671875">
        <ele>1140.800048828125</ele>
        <time>2022-05-06T08:55:06.000Z</time>
      </trkpt>
      <trkpt lat="40.311094634234905242919921875" lon="-0.997082702815532684326171875">
        <ele>1140.800048828125</ele>
        <time>2022-05-06T08:55:07.000Z</time>
      </trkpt>
      <trkpt lat="40.3110408224165439605712890625" lon="-0.9970493428409099578857421875">
        <ele>1140.4000244140625</ele>
        <time>2022-05-06T08:55:09.000Z</time>
      </trkpt>
      <trkpt lat="40.3109878487884998321533203125" lon="-0.99701740778982639312744140625">
        <ele>1140</ele>
        <time>2022-05-06T08:55:11.000Z</time>
      </trkpt>
      <trkpt lat="40.310932695865631103515625" lon="-0.99698589183390140533447265625">
        <ele>1139.5999755859375</ele>
        <time>2022-05-06T08:55:13.000Z</time>
      </trkpt>
      <trkpt lat="40.31087880022823810577392578125" lon="-0.996954627335071563720703125">
        <ele>1139.4000244140625</ele>
        <time>2022-05-06T08:55:15.000Z</time>
      </trkpt>
      <trkpt lat="40.31085147522389888763427734375" lon="-0.996936522424221038818359375">
        <ele>1139.199951171875</ele>
        <time>2022-05-06T08:55:16.000Z</time>
      </trkpt>
      <trkpt lat="40.31082431785762310028076171875" lon="-0.9969192557036876678466796875">
        <ele>1139</ele>
        <time>2022-05-06T08:55:17.000Z</time>
      </trkpt>
      <trkpt lat="40.310770757496356964111328125" lon="-0.9968850575387477874755859375">
        <ele>1139.800048828125</ele>
        <time>2022-05-06T08:55:19.000Z</time>
      </trkpt>
      <trkpt lat="40.31071602366864681243896484375" lon="-0.9968558885157108306884765625">
        <ele>1140.800048828125</ele>
        <time>2022-05-06T08:55:21.000Z</time>
      </trkpt>
      <trkpt lat="40.31068618409335613250732421875" lon="-0.99684189073741436004638671875">
        <ele>1141.4000244140625</ele>
        <time>2022-05-06T08:55:22.000Z</time>
      </trkpt>
      <trkpt lat="40.3106576018035411834716796875" lon="-0.99682479165494441986083984375">
        <ele>1142.199951171875</ele>
        <time>2022-05-06T08:55:23.000Z</time>
      </trkpt>
      <trkpt lat="40.31062935478985309600830078125" lon="-0.99680886603891849517822265625">
        <ele>1142.800048828125</ele>
        <time>2022-05-06T08:55:24.000Z</time>
      </trkpt>
      <trkpt lat="40.3106019459664821624755859375" lon="-0.99679403007030487060546875">
        <ele>1143.199951171875</ele>
        <time>2022-05-06T08:55:25.000Z</time>
      </trkpt>
      <trkpt lat="40.31054436229169368743896484375" lon="-0.9967596642673015594482421875">
        <ele>1144.5999755859375</ele>
        <time>2022-05-06T08:55:27.000Z</time>
      </trkpt>
      <trkpt lat="40.3104879520833492279052734375" lon="-0.9967251308262348175048828125">
        <ele>1145.800048828125</ele>
        <time>2022-05-06T08:55:29.000Z</time>
      </trkpt>
      <trkpt lat="40.31042986549437046051025390625" lon="-0.996690094470977783203125">
        <ele>1147</ele>
        <time>2022-05-06T08:55:31.000Z</time>
      </trkpt>
      <trkpt lat="40.3104031272232532501220703125" lon="-0.99666989408433437347412109375">
        <ele>1147.4000244140625</ele>
        <time>2022-05-06T08:55:32.000Z</time>
      </trkpt>
      <trkpt lat="40.31037622131407260894775390625" lon="-0.99665212444961071014404296875">
        <ele>1148</ele>
        <time>2022-05-06T08:55:33.000Z</time>
      </trkpt>
      <trkpt lat="40.31032048165798187255859375" lon="-0.9966245479881763458251953125">
        <ele>1148.5999755859375</ele>
        <time>2022-05-06T08:55:35.000Z</time>
      </trkpt>
      <trkpt lat="40.31026943586766719818115234375" lon="-0.99658976309001445770263671875">
        <ele>1149.5999755859375</ele>
        <time>2022-05-06T08:55:37.000Z</time>
      </trkpt>
      <trkpt lat="40.3102415241301059722900390625" lon="-0.99657434038817882537841796875">
        <ele>1150</ele>
        <time>2022-05-06T08:55:38.000Z</time>
      </trkpt>
      <trkpt lat="40.31021319329738616943359375" lon="-0.99655933678150177001953125">
        <ele>1150.4000244140625</ele>
        <time>2022-05-06T08:55:39.000Z</time>
      </trkpt>
      <trkpt lat="40.31015946529805660247802734375" lon="-0.99652471952140331268310546875">
        <ele>1151.4000244140625</ele>
        <time>2022-05-06T08:55:41.000Z</time>
      </trkpt>
      <trkpt lat="40.31009961850941181182861328125" lon="-0.99649186246097087860107421875">
        <ele>1152.4000244140625</ele>
        <time>2022-05-06T08:55:43.000Z</time>
      </trkpt>
      <trkpt lat="40.31007229350507259368896484375" lon="-0.9964766912162303924560546875">
        <ele>1152.800048828125</ele>
        <time>2022-05-06T08:55:44.000Z</time>
      </trkpt>
      <trkpt lat="40.31004480086266994476318359375" lon="-0.99646051414310932159423828125">
        <ele>1153.199951171875</ele>
        <time>2022-05-06T08:55:45.000Z</time>
      </trkpt>
      <trkpt lat="40.30998646281659603118896484375" lon="-0.9964277409017086029052734375">
        <ele>1154</ele>
        <time>2022-05-06T08:55:47.000Z</time>
      </trkpt>
      <trkpt lat="40.3099568746984004974365234375" lon="-0.99641315639019012451171875">
        <ele>1154.5999755859375</ele>
        <time>2022-05-06T08:55:48.000Z</time>
      </trkpt>
      <trkpt lat="40.309928543865680694580078125" lon="-0.9964032657444477081298828125">
        <ele>1154.800048828125</ele>
        <time>2022-05-06T08:55:49.000Z</time>
      </trkpt>
      <trkpt lat="40.30987062491476535797119140625" lon="-0.9963794611394405364990234375">
        <ele>1155.5999755859375</ele>
        <time>2022-05-06T08:55:51.000Z</time>
      </trkpt>
      <trkpt lat="40.309811867773532867431640625" lon="-0.996356494724750518798828125">
        <ele>1156.4000244140625</ele>
        <time>2022-05-06T08:55:53.000Z</time>
      </trkpt>
      <trkpt lat="40.30975394882261753082275390625" lon="-0.99633461795747280120849609375">
        <ele>1157.199951171875</ele>
        <time>2022-05-06T08:55:55.000Z</time>
      </trkpt>
      <trkpt lat="40.30969896353781223297119140625" lon="-0.9963051974773406982421875">
        <ele>1158</ele>
        <time>2022-05-06T08:55:57.000Z</time>
      </trkpt>
      <trkpt lat="40.3096707165241241455078125" lon="-0.99628700874745845794677734375">
        <ele>1158.199951171875</ele>
        <time>2022-05-06T08:55:58.000Z</time>
      </trkpt>
      <trkpt lat="40.3096423856914043426513671875" lon="-0.9962694905698299407958984375">
        <ele>1158.5999755859375</ele>
        <time>2022-05-06T08:55:59.000Z</time>
      </trkpt>
      <trkpt lat="40.30958547256886959075927734375" lon="-0.99623336456716060638427734375">
        <ele>1158.4000244140625</ele>
        <time>2022-05-06T08:56:01.000Z</time>
      </trkpt>
      <trkpt lat="40.30953534878790378570556640625" lon="-0.99618852138519287109375">
        <ele>1158.199951171875</ele>
        <time>2022-05-06T08:56:03.000Z</time>
      </trkpt>
      <trkpt lat="40.30948153696954250335693359375" lon="-0.996142588555812835693359375">
        <ele>1158</ele>
        <time>2022-05-06T08:56:05.000Z</time>
      </trkpt>
      <trkpt lat="40.30945521779358386993408203125" lon="-0.99611811339855194091796875">
        <ele>1157.800048828125</ele>
        <time>2022-05-06T08:56:06.000Z</time>
      </trkpt>
      <trkpt lat="40.3094281442463397979736328125" lon="-0.99609305150806903839111328125">
        <ele>1157.800048828125</ele>
        <time>2022-05-06T08:56:07.000Z</time>
      </trkpt>
      <trkpt lat="40.30937525443732738494873046875" lon="-0.9960502199828624725341796875">
        <ele>1157.5999755859375</ele>
        <time>2022-05-06T08:56:09.000Z</time>
      </trkpt>
      <trkpt lat="40.30932110734283924102783203125" lon="-0.99601711146533489227294921875">
        <ele>1157.199951171875</ele>
        <time>2022-05-06T08:56:11.000Z</time>
      </trkpt>
      <trkpt lat="40.30927039682865142822265625" lon="-0.99598224274814128875732421875">
        <ele>1156.800048828125</ele>
        <time>2022-05-06T08:56:13.000Z</time>
      </trkpt>
      <trkpt lat="40.30921767465770244598388671875" lon="-0.99594955332577228546142578125">
        <ele>1156</ele>
        <time>2022-05-06T08:56:15.000Z</time>
      </trkpt>
      <trkpt lat="40.3091683052480220794677734375" lon="-0.9959164448082447052001953125">
        <ele>1155.199951171875</ele>
        <time>2022-05-06T08:56:17.000Z</time>
      </trkpt>
      <trkpt lat="40.309117175638675689697265625" lon="-0.99588367156684398651123046875">
        <ele>1154.4000244140625</ele>
        <time>2022-05-06T08:56:19.000Z</time>
      </trkpt>
      <trkpt lat="40.30906378291547298431396484375" lon="-0.995851568877696990966796875">
        <ele>1153.4000244140625</ele>
        <time>2022-05-06T08:56:21.000Z</time>
      </trkpt>
      <trkpt lat="40.30903763137757778167724609375" lon="-0.9958339668810367584228515625">
        <ele>1153</ele>
        <time>2022-05-06T08:56:22.000Z</time>
      </trkpt>
      <trkpt lat="40.30901022255420684814453125" lon="-0.99581644870340824127197265625">
        <ele>1152.4000244140625</ele>
        <time>2022-05-06T08:56:23.000Z</time>
      </trkpt>
      <trkpt lat="40.30895532108843326568603515625" lon="-0.99578258581459522247314453125">
        <ele>1151.4000244140625</ele>
        <time>2022-05-06T08:56:25.000Z</time>
      </trkpt>
      <trkpt lat="40.30890251509845256805419921875" lon="-0.9957494772970676422119140625">
        <ele>1150.5999755859375</ele>
        <time>2022-05-06T08:56:27.000Z</time>
      </trkpt>
      <trkpt lat="40.30885105021297931671142578125" lon="-0.99571846425533294677734375">
        <ele>1149.5999755859375</ele>
        <time>2022-05-06T08:56:29.000Z</time>
      </trkpt>
      <trkpt lat="40.30879975296556949615478515625" lon="-0.99568895995616912841796875">
        <ele>1148.800048828125</ele>
        <time>2022-05-06T08:56:31.000Z</time>
      </trkpt>
      <trkpt lat="40.30874761752784252166748046875" lon="-0.995659120380878448486328125">
        <ele>1149.199951171875</ele>
        <time>2022-05-06T08:56:33.000Z</time>
      </trkpt>
      <trkpt lat="40.30869497917592525482177734375" lon="-0.99562835879623889923095703125">
        <ele>1149.5999755859375</ele>
        <time>2022-05-06T08:56:35.000Z</time>
      </trkpt>
      <trkpt lat="40.30866882763803005218505859375" lon="-0.99561251699924468994140625">
        <ele>1149.800048828125</ele>
        <time>2022-05-06T08:56:36.000Z</time>
      </trkpt>
      <trkpt lat="40.30864234082400798797607421875" lon="-0.99559650756418704986572265625">
        <ele>1149.800048828125</ele>
        <time>2022-05-06T08:56:37.000Z</time>
      </trkpt>
      <trkpt lat="40.308589451014995574951171875" lon="-0.99556381814181804656982421875">
        <ele>1150.199951171875</ele>
        <time>2022-05-06T08:56:39.000Z</time>
      </trkpt>
      <trkpt lat="40.30853337608277797698974609375" lon="-0.99553330801427364349365234375">
        <ele>1150.4000244140625</ele>
        <time>2022-05-06T08:56:41.000Z</time>
      </trkpt>
      <trkpt lat="40.3085054643452167510986328125" lon="-0.99551620893180370330810546875">
        <ele>1150.5999755859375</ele>
        <time>2022-05-06T08:56:42.000Z</time>
      </trkpt>
      <trkpt lat="40.30847780406475067138671875" lon="-0.9954993613064289093017578125">
        <ele>1150.800048828125</ele>
        <time>2022-05-06T08:56:43.000Z</time>
      </trkpt>
      <trkpt lat="40.30842156149446964263916015625" lon="-0.99546859972178936004638671875">
        <ele>1151</ele>
        <time>2022-05-06T08:56:45.000Z</time>
      </trkpt>
      <trkpt lat="40.30839306302368640899658203125" lon="-0.9954520873725414276123046875">
        <ele>1151.199951171875</ele>
        <time>2022-05-06T08:56:46.000Z</time>
      </trkpt>
      <trkpt lat="40.30836506746709346771240234375" lon="-0.99543540738523006439208984375">
        <ele>1151.4000244140625</ele>
        <time>2022-05-06T08:56:47.000Z</time>
      </trkpt>
      <trkpt lat="40.3083079867064952850341796875" lon="-0.9954011254012584686279296875">
        <ele>1151.800048828125</ele>
        <time>2022-05-06T08:56:49.000Z</time>
      </trkpt>
      <trkpt lat="40.30825191177427768707275390625" lon="-0.9953662566840648651123046875">
        <ele>1152</ele>
        <time>2022-05-06T08:56:51.000Z</time>
      </trkpt>
      <trkpt lat="40.30820027925074100494384765625" lon="-0.995335914194583892822265625">
        <ele>1152.199951171875</ele>
        <time>2022-05-06T08:56:53.000Z</time>
      </trkpt>
      <trkpt lat="40.30814588069915771484375" lon="-0.995306409895420074462890625">
        <ele>1152</ele>
        <time>2022-05-06T08:56:55.000Z</time>
      </trkpt>
      <trkpt lat="40.3081188909709453582763671875" lon="-0.9952914901077747344970703125">
        <ele>1151.800048828125</ele>
        <time>2022-05-06T08:56:56.000Z</time>
      </trkpt>
      <trkpt lat="40.3080957569181919097900390625" lon="-0.9952777437865734100341796875">
        <ele>1151.5999755859375</ele>
        <time>2022-05-06T08:56:57.000Z</time>
      </trkpt>
      <trkpt lat="40.308048315346240997314453125" lon="-0.99524832330644130706787109375">
        <ele>1151.4000244140625</ele>
        <time>2022-05-06T08:56:59.000Z</time>
      </trkpt>
      <trkpt lat="40.30799643136560916900634765625" lon="-0.9952157177031040191650390625">
        <ele>1151</ele>
        <time>2022-05-06T08:57:01.000Z</time>
      </trkpt>
      <trkpt lat="40.3079465590417385101318359375" lon="-0.99518001079559326171875">
        <ele>1151</ele>
        <time>2022-05-06T08:57:03.000Z</time>
      </trkpt>
      <trkpt lat="40.307896099984645843505859375" lon="-0.99515243433415889739990234375">
        <ele>1151</ele>
        <time>2022-05-06T08:57:05.000Z</time>
      </trkpt>
      <trkpt lat="40.30784119851887226104736328125" lon="-0.995117314159870147705078125">
        <ele>1151</ele>
        <time>2022-05-06T08:57:07.000Z</time>
      </trkpt>
      <trkpt lat="40.30781404115259647369384765625" lon="-0.99510155618190765380859375">
        <ele>1151</ele>
        <time>2022-05-06T08:57:08.000Z</time>
      </trkpt>
      <trkpt lat="40.30778571031987667083740234375" lon="-0.995088480412960052490234375">
        <ele>1151</ele>
        <time>2022-05-06T08:57:09.000Z</time>
      </trkpt>
      <trkpt lat="40.3077316470444202423095703125" lon="-0.995056964457035064697265625">
        <ele>1151</ele>
        <time>2022-05-06T08:57:11.000Z</time>
      </trkpt>
      <trkpt lat="40.3076769970357418060302734375" lon="-0.9950205869972705841064453125">
        <ele>1151.199951171875</ele>
        <time>2022-05-06T08:57:13.000Z</time>
      </trkpt>
      <trkpt lat="40.3076216764748096466064453125" lon="-0.99498932249844074249267578125">
        <ele>1151.800048828125</ele>
        <time>2022-05-06T08:57:15.000Z</time>
      </trkpt>
      <trkpt lat="40.3075630031526088714599609375" lon="-0.99494925700128078460693359375">
        <ele>1152.5999755859375</ele>
        <time>2022-05-06T08:57:17.000Z</time>
      </trkpt>
      <trkpt lat="40.3075073473155498504638671875" lon="-0.99491589702665805816650390625">
        <ele>1153.199951171875</ele>
        <time>2022-05-06T08:57:19.000Z</time>
      </trkpt>
      <trkpt lat="40.30744850635528564453125" lon="-0.99488203413784503936767578125">
        <ele>1153.800048828125</ele>
        <time>2022-05-06T08:57:21.000Z</time>
      </trkpt>
      <trkpt lat="40.30738924629986286163330078125" lon="-0.994850099086761474609375">
        <ele>1154.4000244140625</ele>
        <time>2022-05-06T08:57:23.000Z</time>
      </trkpt>
      <trkpt lat="40.307327471673488616943359375" lon="-0.99481699056923389434814453125">
        <ele>1155.199951171875</ele>
        <time>2022-05-06T08:57:25.000Z</time>
      </trkpt>
      <trkpt lat="40.3072679601609706878662109375" lon="-0.99478237330913543701171875">
        <ele>1155.800048828125</ele>
        <time>2022-05-06T08:57:27.000Z</time>
      </trkpt>
      <trkpt lat="40.307238288223743438720703125" lon="-0.994765944778919219970703125">
        <ele>1156.199951171875</ele>
        <time>2022-05-06T08:57:28.000Z</time>
      </trkpt>
      <trkpt lat="40.30720836482942104339599609375" lon="-0.99475152790546417236328125">
        <ele>1156.5999755859375</ele>
        <time>2022-05-06T08:57:29.000Z</time>
      </trkpt>
      <trkpt lat="40.30714876949787139892578125" lon="-0.99472336471080780029296875">
        <ele>1157.199951171875</ele>
        <time>2022-05-06T08:57:31.000Z</time>
      </trkpt>
      <trkpt lat="40.3071204386651515960693359375" lon="-0.99470986984670162200927734375">
        <ele>1157.199951171875</ele>
        <time>2022-05-06T08:57:32.000Z</time>
      </trkpt>
      <trkpt lat="40.307091437280178070068359375" lon="-0.99469654262065887451171875">
        <ele>1157.199951171875</ele>
        <time>2022-05-06T08:57:33.000Z</time>
      </trkpt>
      <trkpt lat="40.307034440338611602783203125" lon="-0.99467374384403228759765625">
        <ele>1157</ele>
        <time>2022-05-06T08:57:35.000Z</time>
      </trkpt>
      <trkpt lat="40.30697635374963283538818359375" lon="-0.99465438164770603179931640625">
        <ele>1156.5999755859375</ele>
        <time>2022-05-06T08:57:37.000Z</time>
      </trkpt>
      <trkpt lat="40.30691533349454402923583984375" lon="-0.994635187089443206787109375">
        <ele>1156.4000244140625</ele>
        <time>2022-05-06T08:57:39.000Z</time>
      </trkpt>
      <trkpt lat="40.3068552352488040924072265625" lon="-0.9946167469024658203125">
        <ele>1156</ele>
        <time>2022-05-06T08:57:41.000Z</time>
      </trkpt>
      <trkpt lat="40.30679496936500072479248046875" lon="-0.99459855817258358001708984375">
        <ele>1155.800048828125</ele>
        <time>2022-05-06T08:57:43.000Z</time>
      </trkpt>
      <trkpt lat="40.306734703481197357177734375" lon="-0.99457877688109874725341796875">
        <ele>1155.4000244140625</ele>
        <time>2022-05-06T08:57:45.000Z</time>
      </trkpt>
      <trkpt lat="40.30667401850223541259765625" lon="-0.99456016905605792999267578125">
        <ele>1155.199951171875</ele>
        <time>2022-05-06T08:57:47.000Z</time>
      </trkpt>
      <trkpt lat="40.306611992418766021728515625" lon="-0.99454340524971485137939453125">
        <ele>1154.800048828125</ele>
        <time>2022-05-06T08:57:49.000Z</time>
      </trkpt>
      <trkpt lat="40.3065528161823749542236328125" lon="-0.99452982656657695770263671875">
        <ele>1154.4000244140625</ele>
        <time>2022-05-06T08:57:51.000Z</time>
      </trkpt>
      <trkpt lat="40.3064922988414764404296875" lon="-0.99451691843569278717041015625">
        <ele>1153.800048828125</ele>
        <time>2022-05-06T08:57:53.000Z</time>
      </trkpt>
      <trkpt lat="40.30643505044281482696533203125" lon="-0.99450484849512577056884765625">
        <ele>1153</ele>
        <time>2022-05-06T08:57:55.000Z</time>
      </trkpt>
      <trkpt lat="40.30637319199740886688232421875" lon="-0.99449110217392444610595703125">
        <ele>1152.199951171875</ele>
        <time>2022-05-06T08:57:57.000Z</time>
      </trkpt>
      <trkpt lat="40.3063110820949077606201171875" lon="-0.99447785876691341400146484375">
        <ele>1151.4000244140625</ele>
        <time>2022-05-06T08:57:59.000Z</time>
      </trkpt>
      <trkpt lat="40.30624612234532833099365234375" lon="-0.9944620169699192047119140625">
        <ele>1151.5999755859375</ele>
        <time>2022-05-06T08:58:01.000Z</time>
      </trkpt>
      <trkpt lat="40.30618241988122463226318359375" lon="-0.99445723928511142730712890625">
        <ele>1152</ele>
        <time>2022-05-06T08:58:03.000Z</time>
      </trkpt>
      <trkpt lat="40.3061234951019287109375" lon="-0.99445841275155544281005859375">
        <ele>1152.199951171875</ele>
        <time>2022-05-06T08:58:05.000Z</time>
      </trkpt>
      <trkpt lat="40.30606641434133052825927734375" lon="-0.9944660402834415435791015625">
        <ele>1152.4000244140625</ele>
        <time>2022-05-06T08:58:07.000Z</time>
      </trkpt>
      <trkpt lat="40.30600774101912975311279296875" lon="-0.9944650344550609588623046875">
        <ele>1152.800048828125</ele>
        <time>2022-05-06T08:58:09.000Z</time>
      </trkpt>
      <trkpt lat="40.3059483133256435394287109375" lon="-0.9944690577685832977294921875">
        <ele>1153</ele>
        <time>2022-05-06T08:58:11.000Z</time>
      </trkpt>
      <trkpt lat="40.305887125432491302490234375" lon="-0.9944710694253444671630859375">
        <ele>1153.4000244140625</ele>
        <time>2022-05-06T08:58:13.000Z</time>
      </trkpt>
      <trkpt lat="40.30582702718675136566162109375" lon="-0.99446679465472698211669921875">
        <ele>1153.5999755859375</ele>
        <time>2022-05-06T08:58:15.000Z</time>
      </trkpt>
      <trkpt lat="40.3057662583887577056884765625" lon="-0.9944678843021392822265625">
        <ele>1154</ele>
        <time>2022-05-06T08:58:17.000Z</time>
      </trkpt>
      <trkpt lat="40.30573348514735698699951171875" lon="-0.99446947686374187469482421875">
        <ele>1154.199951171875</ele>
        <time>2022-05-06T08:58:18.000Z</time>
      </trkpt>
      <trkpt lat="40.30569928698241710662841796875" lon="-0.994472242891788482666015625">
        <ele>1154.800048828125</ele>
        <time>2022-05-06T08:58:19.000Z</time>
      </trkpt>
      <trkpt lat="40.305637679994106292724609375" lon="-0.994476266205310821533203125">
        <ele>1156</ele>
        <time>2022-05-06T08:58:21.000Z</time>
      </trkpt>
      <trkpt lat="40.3055795095860958099365234375" lon="-0.99448037333786487579345703125">
        <ele>1157</ele>
        <time>2022-05-06T08:58:23.000Z</time>
      </trkpt>
      <trkpt lat="40.30554992146790027618408203125" lon="-0.9944807924330234527587890625">
        <ele>1157.5999755859375</ele>
        <time>2022-05-06T08:58:24.000Z</time>
      </trkpt>
      <trkpt lat="40.3055201657116413116455078125" lon="-0.9944831393659114837646484375">
        <ele>1158</ele>
        <time>2022-05-06T08:58:25.000Z</time>
      </trkpt>
      <trkpt lat="40.30546157620847225189208984375" lon="-0.99448707886040210723876953125">
        <ele>1159</ele>
        <time>2022-05-06T08:58:27.000Z</time>
      </trkpt>
      <trkpt lat="40.305405668914318084716796875" lon="-0.9944920241832733154296875">
        <ele>1159</ele>
        <time>2022-05-06T08:58:29.000Z</time>
      </trkpt>
      <trkpt lat="40.305373482406139373779296875" lon="-0.99449277855455875396728515625">
        <ele>1159.199951171875</ele>
        <time>2022-05-06T08:58:30.000Z</time>
      </trkpt>
      <trkpt lat="40.305340625345706939697265625" lon="-0.994493700563907623291015625">
        <ele>1159.199951171875</ele>
        <time>2022-05-06T08:58:31.000Z</time>
      </trkpt>
      <trkpt lat="40.30527717433869838714599609375" lon="-0.99449847824871540069580078125">
        <ele>1159.199951171875</ele>
        <time>2022-05-06T08:58:33.000Z</time>
      </trkpt>
      <trkpt lat="40.30521347187459468841552734375" lon="-0.99450476467609405517578125">
        <ele>1159.199951171875</ele>
        <time>2022-05-06T08:58:35.000Z</time>
      </trkpt>
      <trkpt lat="40.30518271028995513916015625" lon="-0.9945042617619037628173828125">
        <ele>1159.4000244140625</ele>
        <time>2022-05-06T08:58:36.000Z</time>
      </trkpt>
      <trkpt lat="40.305155217647552490234375" lon="-0.994505770504474639892578125">
        <ele>1159.4000244140625</ele>
        <time>2022-05-06T08:58:37.000Z</time>
      </trkpt>
      <trkpt lat="40.30509151518344879150390625" lon="-0.9945086203515529632568359375">
        <ele>1159.5999755859375</ele>
        <time>2022-05-06T08:58:39.000Z</time>
      </trkpt>
      <trkpt lat="40.30502521432936191558837890625" lon="-0.99451323039829730987548828125">
        <ele>1159.5999755859375</ele>
        <time>2022-05-06T08:58:41.000Z</time>
      </trkpt>
      <trkpt lat="40.30499135144054889678955078125" lon="-0.99451138637959957122802734375">
        <ele>1159.5999755859375</ele>
        <time>2022-05-06T08:58:42.000Z</time>
      </trkpt>
      <trkpt lat="40.304957740008831024169921875" lon="-0.9945092909038066864013671875">
        <ele>1159.800048828125</ele>
        <time>2022-05-06T08:58:43.000Z</time>
      </trkpt>
      <trkpt lat="40.30489998869597911834716796875" lon="-0.99450920708477497100830078125">
        <ele>1160</ele>
        <time>2022-05-06T08:58:45.000Z</time>
      </trkpt>
      <trkpt lat="40.30484131537377834320068359375" lon="-0.9945126436650753021240234375">
        <ele>1160.199951171875</ele>
        <time>2022-05-06T08:58:47.000Z</time>
      </trkpt>
      <trkpt lat="40.30481231398880481719970703125" lon="-0.994516499340534210205078125">
        <ele>1160.4000244140625</ele>
        <time>2022-05-06T08:58:48.000Z</time>
      </trkpt>
      <trkpt lat="40.30478197149932384490966796875" lon="-0.99451859481632709503173828125">
        <ele>1160.5999755859375</ele>
        <time>2022-05-06T08:58:49.000Z</time>
      </trkpt>
      <trkpt lat="40.30472405254840850830078125" lon="-0.994525216519832611083984375">
        <ele>1161</ele>
        <time>2022-05-06T08:58:51.000Z</time>
      </trkpt>
      <trkpt lat="40.30466009862720966339111328125" lon="-0.9945304132997989654541015625">
        <ele>1161.5999755859375</ele>
        <time>2022-05-06T08:58:53.000Z</time>
      </trkpt>
      <trkpt lat="40.30459941364824771881103515625" lon="-0.9945364482700824737548828125">
        <ele>1161.5999755859375</ele>
        <time>2022-05-06T08:58:55.000Z</time>
      </trkpt>
      <trkpt lat="40.304534621536731719970703125" lon="-0.99453787319362163543701171875">
        <ele>1161.5999755859375</ele>
        <time>2022-05-06T08:58:57.000Z</time>
      </trkpt>
      <trkpt lat="40.304472930729389190673828125" lon="-0.994538627564907073974609375">
        <ele>1161.5999755859375</ele>
        <time>2022-05-06T08:58:59.000Z</time>
      </trkpt>
      <trkpt lat="40.3044093959033489227294921875" lon="-0.99453887902200222015380859375">
        <ele>1161.5999755859375</ele>
        <time>2022-05-06T08:59:01.000Z</time>
      </trkpt>
      <trkpt lat="40.3043775446712970733642578125" lon="-0.99454038776457309722900390625">
        <ele>1161.4000244140625</ele>
        <time>2022-05-06T08:59:02.000Z</time>
      </trkpt>
      <trkpt lat="40.30434359796345233917236328125" lon="-0.99453804083168506622314453125">
        <ele>1161.5999755859375</ele>
        <time>2022-05-06T08:59:03.000Z</time>
      </trkpt>
      <trkpt lat="40.30428123660385608673095703125" lon="-0.99453703500330448150634765625">
        <ele>1161.5999755859375</ele>
        <time>2022-05-06T08:59:05.000Z</time>
      </trkpt>
      <trkpt lat="40.30422289855778217315673828125" lon="-0.99453837610781192779541015625">
        <ele>1161.5999755859375</ele>
        <time>2022-05-06T08:59:07.000Z</time>
      </trkpt>
      <trkpt lat="40.3041606210172176361083984375" lon="-0.99454239942133426666259765625">
        <ele>1161.4000244140625</ele>
        <time>2022-05-06T08:59:09.000Z</time>
      </trkpt>
      <trkpt lat="40.304102785885334014892578125" lon="-0.99454407580196857452392578125">
        <ele>1161.4000244140625</ele>
        <time>2022-05-06T08:59:11.000Z</time>
      </trkpt>
      <trkpt lat="40.30407705344259738922119140625" lon="-0.99455044604837894439697265625">
        <ele>1161.199951171875</ele>
        <time>2022-05-06T08:59:12.000Z</time>
      </trkpt>
      <trkpt lat="40.304049141705036163330078125" lon="-0.99455296061933040618896484375">
        <ele>1161.199951171875</ele>
        <time>2022-05-06T08:59:13.000Z</time>
      </trkpt>
      <trkpt lat="40.3040191344916820526123046875" lon="-0.99455363117158412933349609375">
        <ele>1161.199951171875</ele>
        <time>2022-05-06T08:59:14.000Z</time>
      </trkpt>
      <trkpt lat="40.303992815315723419189453125" lon="-0.9945569001138210296630859375">
        <ele>1161</ele>
        <time>2022-05-06T08:59:15.000Z</time>
      </trkpt>
      <trkpt lat="40.30393556691706180572509765625" lon="-0.99456620402634143829345703125">
        <ele>1161</ele>
        <time>2022-05-06T08:59:17.000Z</time>
      </trkpt>
      <trkpt lat="40.3038783185184001922607421875" lon="-0.99457374773919582366943359375">
        <ele>1161</ele>
        <time>2022-05-06T08:59:19.000Z</time>
      </trkpt>
      <trkpt lat="40.3038494847714900970458984375" lon="-0.99457894451916217803955078125">
        <ele>1161</ele>
        <time>2022-05-06T08:59:20.000Z</time>
      </trkpt>
      <trkpt lat="40.30382023192942142486572265625" lon="-0.994581542909145355224609375">
        <ele>1161</ele>
        <time>2022-05-06T08:59:21.000Z</time>
      </trkpt>
      <trkpt lat="40.3037589602172374725341796875" lon="-0.99458565004169940948486328125">
        <ele>1160.800048828125</ele>
        <time>2022-05-06T08:59:23.000Z</time>
      </trkpt>
      <trkpt lat="40.303701795637607574462890625" lon="-0.99459051154553890228271484375">
        <ele>1160.5999755859375</ele>
        <time>2022-05-06T08:59:25.000Z</time>
      </trkpt>
      <trkpt lat="40.30364354141056537628173828125" lon="-0.9945952892303466796875">
        <ele>1160.4000244140625</ele>
        <time>2022-05-06T08:59:27.000Z</time>
      </trkpt>
      <trkpt lat="40.30358386225998401641845703125" lon="-0.99460107274353504180908203125">
        <ele>1160.199951171875</ele>
        <time>2022-05-06T08:59:29.000Z</time>
      </trkpt>
      <trkpt lat="40.30352384783327579498291015625" lon="-0.9946078620851039886474609375">
        <ele>1159.800048828125</ele>
        <time>2022-05-06T08:59:31.000Z</time>
      </trkpt>
      <trkpt lat="40.303465425968170166015625" lon="-0.99461431615054607391357421875">
        <ele>1159.5999755859375</ele>
        <time>2022-05-06T08:59:33.000Z</time>
      </trkpt>
      <trkpt lat="40.30340574681758880615234375" lon="-0.994621776044368743896484375">
        <ele>1159.4000244140625</ele>
        <time>2022-05-06T08:59:35.000Z</time>
      </trkpt>
      <trkpt lat="40.30334849841892719268798828125" lon="-0.994627811014652252197265625">
        <ele>1159</ele>
        <time>2022-05-06T08:59:37.000Z</time>
      </trkpt>
      <trkpt lat="40.30329435132443904876708984375" lon="-0.9946368634700775146484375">
        <ele>1158.800048828125</ele>
        <time>2022-05-06T08:59:39.000Z</time>
      </trkpt>
      <trkpt lat="40.30323349870741367340087890625" lon="-0.994647927582263946533203125">
        <ele>1158.4000244140625</ele>
        <time>2022-05-06T08:59:41.000Z</time>
      </trkpt>
      <trkpt lat="40.30317784287035465240478515625" lon="-0.99467064253985881805419921875">
        <ele>1157.5999755859375</ele>
        <time>2022-05-06T08:59:43.000Z</time>
      </trkpt>
      <trkpt lat="40.30315202660858631134033203125" lon="-0.99469193257391452789306640625">
        <ele>1157</ele>
        <time>2022-05-06T08:59:44.000Z</time>
      </trkpt>
      <trkpt lat="40.3031249530613422393798828125" lon="-0.9947050921618938446044921875">
        <ele>1156.4000244140625</ele>
        <time>2022-05-06T08:59:45.000Z</time>
      </trkpt>
      <trkpt lat="40.3030716441571712493896484375" lon="-0.99472411908209323883056640625">
        <ele>1155.800048828125</ele>
        <time>2022-05-06T08:59:47.000Z</time>
      </trkpt>
      <trkpt lat="40.303045324981212615966796875" lon="-0.99473409354686737060546875">
        <ele>1155.5999755859375</ele>
        <time>2022-05-06T08:59:48.000Z</time>
      </trkpt>
      <trkpt lat="40.30301691032946109771728515625" lon="-0.9947433136403560638427734375">
        <ele>1155.199951171875</ele>
        <time>2022-05-06T08:59:49.000Z</time>
      </trkpt>
      <trkpt lat="40.302960835397243499755859375" lon="-0.9947573952376842498779296875">
        <ele>1154.800048828125</ele>
        <time>2022-05-06T08:59:51.000Z</time>
      </trkpt>
      <trkpt lat="40.30290509574115276336669921875" lon="-0.9947656095027923583984375">
        <ele>1155</ele>
        <time>2022-05-06T08:59:53.000Z</time>
      </trkpt>
      <trkpt lat="40.302877686917781829833984375" lon="-0.99477030336856842041015625">
        <ele>1155</ele>
        <time>2022-05-06T08:59:54.000Z</time>
      </trkpt>
      <trkpt lat="40.3028510324656963348388671875" lon="-0.99477541632950305938720703125">
        <ele>1155</ele>
        <time>2022-05-06T08:59:55.000Z</time>
      </trkpt>
      <trkpt lat="40.30279646627604961395263671875" lon="-0.99478446878492832183837890625">
        <ele>1155</ele>
        <time>2022-05-06T08:59:57.000Z</time>
      </trkpt>
      <trkpt lat="40.30274047516286373138427734375" lon="-0.99479301832616329193115234375">
        <ele>1155.199951171875</ele>
        <time>2022-05-06T08:59:59.000Z</time>
      </trkpt>
      <trkpt lat="40.30268683098256587982177734375" lon="-0.9948003105819225311279296875">
        <ele>1155.199951171875</ele>
        <time>2022-05-06T09:00:01.000Z</time>
      </trkpt>
      <trkpt lat="40.302657745778560638427734375" lon="-0.9948019869625568389892578125">
        <ele>1155.4000244140625</ele>
        <time>2022-05-06T09:00:02.000Z</time>
      </trkpt>
      <trkpt lat="40.3026299178600311279296875" lon="-0.99480441771447658538818359375">
        <ele>1155.4000244140625</ele>
        <time>2022-05-06T09:00:03.000Z</time>
      </trkpt>
      <trkpt lat="40.30257166363298892974853515625" lon="-0.9948083572089672088623046875">
        <ele>1155.5999755859375</ele>
        <time>2022-05-06T09:00:05.000Z</time>
      </trkpt>
      <trkpt lat="40.302516259253025054931640625" lon="-0.9948127157986164093017578125">
        <ele>1155.800048828125</ele>
        <time>2022-05-06T09:00:07.000Z</time>
      </trkpt>
      <trkpt lat="40.30246068723499774932861328125" lon="-0.99481883458793163299560546875">
        <ele>1156</ele>
        <time>2022-05-06T09:00:09.000Z</time>
      </trkpt>
      <trkpt lat="40.30243520624935626983642578125" lon="-0.994823612272739410400390625">
        <ele>1156</ele>
        <time>2022-05-06T09:00:10.000Z</time>
      </trkpt>
      <trkpt lat="40.3024124912917613983154296875" lon="-0.99482822231948375701904296875">
        <ele>1156</ele>
        <time>2022-05-06T09:00:11.000Z</time>
      </trkpt>
      <trkpt lat="40.3023652173578739166259765625" lon="-0.99483727477490901947021484375">
        <ele>1156</ele>
        <time>2022-05-06T09:00:13.000Z</time>
      </trkpt>
      <trkpt lat="40.302317440509796142578125" lon="-0.99484381265938282012939453125">
        <ele>1156.199951171875</ele>
        <time>2022-05-06T09:00:15.000Z</time>
      </trkpt>
      <trkpt lat="40.30227058567106723785400390625" lon="-0.994848422706127166748046875">
        <ele>1156.4000244140625</ele>
        <time>2022-05-06T09:00:17.000Z</time>
      </trkpt>
      <trkpt lat="40.30225181020796298980712890625" lon="-0.9948516078293323516845703125">
        <ele>1156.4000244140625</ele>
        <time>2022-05-06T09:00:18.000Z</time>
      </trkpt>
      <trkpt lat="40.30223362147808074951171875" lon="-0.99485345184803009033203125">
        <ele>1156.4000244140625</ele>
        <time>2022-05-06T09:00:19.000Z</time>
      </trkpt>
      <trkpt lat="40.302200429141521453857421875" lon="-0.99485906772315502166748046875">
        <ele>1156.4000244140625</ele>
        <time>2022-05-06T09:00:21.000Z</time>
      </trkpt>
      <trkpt lat="40.302176959812641143798828125" lon="-0.99486409686505794525146484375">
        <ele>1156.4000244140625</ele>
        <time>2022-05-06T09:00:23.000Z</time>
      </trkpt>
      <trkpt lat="40.30217486433684825897216796875" lon="-0.99486577324569225311279296875">
        <ele>1156.4000244140625</ele>
        <time>2022-05-06T09:00:25.000Z</time>
      </trkpt>
      <trkpt lat="40.30208048410713672637939453125" lon="-0.994873233139514923095703125">
        <ele>1157.199951171875</ele>
        <time>2022-05-06T09:01:10.000Z</time>
      </trkpt>
      <trkpt lat="40.30206464231014251708984375" lon="-0.9948740713298320770263671875">
        <ele>1157.4000244140625</ele>
        <time>2022-05-06T09:01:11.000Z</time>
      </trkpt>
      <trkpt lat="40.3020317852497100830078125" lon="-0.9948727302253246307373046875">
        <ele>1158</ele>
        <time>2022-05-06T09:01:13.000Z</time>
      </trkpt>
      <trkpt lat="40.3020148538053035736083984375" lon="-0.99487449042499065399169921875">
        <ele>1158.199951171875</ele>
        <time>2022-05-06T09:01:14.000Z</time>
      </trkpt>
      <trkpt lat="40.30199649743735790252685546875" lon="-0.99487490952014923095703125">
        <ele>1158.4000244140625</ele>
        <time>2022-05-06T09:01:15.000Z</time>
      </trkpt>
      <trkpt lat="40.301958359777927398681640625" lon="-0.9948804415762424468994140625">
        <ele>1158.5999755859375</ele>
        <time>2022-05-06T09:01:17.000Z</time>
      </trkpt>
      <trkpt lat="40.3019199706614017486572265625" lon="-0.9948868118226528167724609375">
        <ele>1158.800048828125</ele>
        <time>2022-05-06T09:01:19.000Z</time>
      </trkpt>
      <trkpt lat="40.3018851019442081451416015625" lon="-0.9948943555355072021484375">
        <ele>1158.800048828125</ele>
        <time>2022-05-06T09:01:21.000Z</time>
      </trkpt>
      <trkpt lat="40.3018467128276824951171875" lon="-0.99489645101130008697509765625">
        <ele>1159.199951171875</ele>
        <time>2022-05-06T09:01:23.000Z</time>
      </trkpt>
      <trkpt lat="40.3018064796924591064453125" lon="-0.994898714125156402587890625">
        <ele>1159.4000244140625</ele>
        <time>2022-05-06T09:01:25.000Z</time>
      </trkpt>
      <trkpt lat="40.30176448635756969451904296875" lon="-0.99489913322031497955322265625">
        <ele>1159.5999755859375</ele>
        <time>2022-05-06T09:01:27.000Z</time>
      </trkpt>
      <trkpt lat="40.301720984280109405517578125" lon="-0.9949035756289958953857421875">
        <ele>1160</ele>
        <time>2022-05-06T09:01:29.000Z</time>
      </trkpt>
      <trkpt lat="40.3016976825892925262451171875" lon="-0.9949050843715667724609375">
        <ele>1160</ele>
        <time>2022-05-06T09:01:30.000Z</time>
      </trkpt>
      <trkpt lat="40.3016728721559047698974609375" lon="-0.9949065931141376495361328125">
        <ele>1160.199951171875</ele>
        <time>2022-05-06T09:01:31.000Z</time>
      </trkpt>
      <trkpt lat="40.30162467621266841888427734375" lon="-0.99491070024669170379638671875">
        <ele>1160.5999755859375</ele>
        <time>2022-05-06T09:01:33.000Z</time>
      </trkpt>
      <trkpt lat="40.3015800006687641143798828125" lon="-0.99491782486438751220703125">
        <ele>1160.800048828125</ele>
        <time>2022-05-06T09:01:35.000Z</time>
      </trkpt>
      <trkpt lat="40.30153448693454265594482421875" lon="-0.9949233569204807281494140625">
        <ele>1161</ele>
        <time>2022-05-06T09:01:37.000Z</time>
      </trkpt>
      <trkpt lat="40.30148687772452831268310546875" lon="-0.99492855370044708251953125">
        <ele>1161.199951171875</ele>
        <time>2022-05-06T09:01:39.000Z</time>
      </trkpt>
      <trkpt lat="40.3014411963522434234619140625" lon="-0.99493634887039661407470703125">
        <ele>1161.5999755859375</ele>
        <time>2022-05-06T09:01:41.000Z</time>
      </trkpt>
      <trkpt lat="40.30139769427478313446044921875" lon="-0.99494372494518756866455078125">
        <ele>1161.800048828125</ele>
        <time>2022-05-06T09:01:43.000Z</time>
      </trkpt>
      <trkpt lat="40.30137120746076107025146484375" lon="-0.99494590424001216888427734375">
        <ele>1161.800048828125</ele>
        <time>2022-05-06T09:01:44.000Z</time>
      </trkpt>
      <trkpt lat="40.30134757049381732940673828125" lon="-0.99494808353483676910400390625">
        <ele>1162</ele>
        <time>2022-05-06T09:01:45.000Z</time>
      </trkpt>
      <trkpt lat="40.30129811726510524749755859375" lon="-0.99495495669543743133544921875">
        <ele>1162.199951171875</ele>
        <time>2022-05-06T09:01:47.000Z</time>
      </trkpt>
      <trkpt lat="40.30125193297863006591796875" lon="-0.99496166221797466278076171875">
        <ele>1162.4000244140625</ele>
        <time>2022-05-06T09:01:49.000Z</time>
      </trkpt>
      <trkpt lat="40.30123475007712841033935546875" lon="-0.99496317096054553985595703125">
        <ele>1162.5999755859375</ele>
        <time>2022-05-06T09:01:51.000Z</time>
      </trkpt>
      <trkpt lat="40.3012339957058429718017578125" lon="-0.99496300332248210906982421875">
        <ele>1162.5999755859375</ele>
        <time>2022-05-06T09:01:52.000Z</time>
      </trkpt>
      <trkpt lat="40.3011991269886493682861328125" lon="-0.994985885918140411376953125">
        <ele>1162.4000244140625</ele>
        <time>2022-05-06T09:02:00.000Z</time>
      </trkpt>
      <trkpt lat="40.3011823631823062896728515625" lon="-0.9949914179742336273193359375">
        <ele>1162.5999755859375</ele>
        <time>2022-05-06T09:02:01.000Z</time>
      </trkpt>
      <trkpt lat="40.3011381067335605621337890625" lon="-0.99500306881964206695556640625">
        <ele>1162.5999755859375</ele>
        <time>2022-05-06T09:02:03.000Z</time>
      </trkpt>
      <trkpt lat="40.30108823440968990325927734375" lon="-0.99500927142798900604248046875">
        <ele>1162.800048828125</ele>
        <time>2022-05-06T09:02:05.000Z</time>
      </trkpt>
      <trkpt lat="40.30103442259132862091064453125" lon="-0.995016731321811676025390625">
        <ele>1163</ele>
        <time>2022-05-06T09:02:07.000Z</time>
      </trkpt>
      <trkpt lat="40.3010071814060211181640625" lon="-0.99501731805503368377685546875">
        <ele>1163.4000244140625</ele>
        <time>2022-05-06T09:02:08.000Z</time>
      </trkpt>
      <trkpt lat="40.300982035696506500244140625" lon="-0.995017401874065399169921875">
        <ele>1163.5999755859375</ele>
        <time>2022-05-06T09:02:09.000Z</time>
      </trkpt>
      <trkpt lat="40.300931744277477264404296875" lon="-0.99502016790211200714111328125">
        <ele>1164.199951171875</ele>
        <time>2022-05-06T09:02:11.000Z</time>
      </trkpt>
      <trkpt lat="40.30088287778198719024658203125" lon="-0.99502645432949066162109375">
        <ele>1164.5999755859375</ele>
        <time>2022-05-06T09:02:13.000Z</time>
      </trkpt>
      <trkpt lat="40.3008596599102020263671875" lon="-0.995028130710124969482421875">
        <ele>1165</ele>
        <time>2022-05-06T09:02:14.000Z</time>
      </trkpt>
      <trkpt lat="40.30083694495260715484619140625" lon="-0.99503290839493274688720703125">
        <ele>1165.199951171875</ele>
        <time>2022-05-06T09:02:15.000Z</time>
      </trkpt>
      <trkpt lat="40.300783552229404449462890625" lon="-0.99503274075686931610107421875">
        <ele>1165.800048828125</ele>
        <time>2022-05-06T09:02:17.000Z</time>
      </trkpt>
      <trkpt lat="40.30073418281972408294677734375" lon="-0.9950363449752330780029296875">
        <ele>1166.199951171875</ele>
        <time>2022-05-06T09:02:19.000Z</time>
      </trkpt>
      <trkpt lat="40.30070886947214603424072265625" lon="-0.9950380213558673858642578125">
        <ele>1166.5999755859375</ele>
        <time>2022-05-06T09:02:20.000Z</time>
      </trkpt>
      <trkpt lat="40.300683639943599700927734375" lon="-0.99503978155553340911865234375">
        <ele>1166.800048828125</ele>
        <time>2022-05-06T09:02:21.000Z</time>
      </trkpt>
      <trkpt lat="40.3006303310394287109375" lon="-0.99504598416388034820556640625">
        <ele>1167.4000244140625</ele>
        <time>2022-05-06T09:02:23.000Z</time>
      </trkpt>
      <trkpt lat="40.30057341791689395904541015625" lon="-0.9950467385351657867431640625">
        <ele>1168</ele>
        <time>2022-05-06T09:02:25.000Z</time>
      </trkpt>
      <trkpt lat="40.3005171753466129302978515625" lon="-0.9950464032590389251708984375">
        <ele>1168.5999755859375</ele>
        <time>2022-05-06T09:02:27.000Z</time>
      </trkpt>
      <trkpt lat="40.30046529136598110198974609375" lon="-0.9950490854680538177490234375">
        <ele>1169.199951171875</ele>
        <time>2022-05-06T09:02:29.000Z</time>
      </trkpt>
      <trkpt lat="40.3004145808517932891845703125" lon="-0.99505537189543247222900390625">
        <ele>1169</ele>
        <time>2022-05-06T09:02:31.000Z</time>
      </trkpt>
      <trkpt lat="40.30036252923309803009033203125" lon="-0.9950510971248149871826171875">
        <ele>1169</ele>
        <time>2022-05-06T09:02:33.000Z</time>
      </trkpt>
      <trkpt lat="40.30030938796699047088623046875" lon="-0.995046906173229217529296875">
        <ele>1169</ele>
        <time>2022-05-06T09:02:35.000Z</time>
      </trkpt>
      <trkpt lat="40.300282649695873260498046875" lon="-0.99504564888775348663330078125">
        <ele>1169</ele>
        <time>2022-05-06T09:02:36.000Z</time>
      </trkpt>
      <trkpt lat="40.30025389976799488067626953125" lon="-0.99504430778324604034423828125">
        <ele>1169</ele>
        <time>2022-05-06T09:02:37.000Z</time>
      </trkpt>
      <trkpt lat="40.30019690282642841339111328125" lon="-0.99504120647907257080078125">
        <ele>1169</ele>
        <time>2022-05-06T09:02:39.000Z</time>
      </trkpt>
      <trkpt lat="40.30014577321708202362060546875" lon="-0.99503743462264537811279296875">
        <ele>1169.199951171875</ele>
        <time>2022-05-06T09:02:41.000Z</time>
      </trkpt>
      <trkpt lat="40.3000925481319427490234375" lon="-0.99503726698458194732666015625">
        <ele>1169.199951171875</ele>
        <time>2022-05-06T09:02:43.000Z</time>
      </trkpt>
      <trkpt lat="40.30004049651324748992919921875" lon="-0.995038188993930816650390625">
        <ele>1169.199951171875</ele>
        <time>2022-05-06T09:02:45.000Z</time>
      </trkpt>
      <trkpt lat="40.30001400969922542572021484375" lon="-0.99503860808908939361572265625">
        <ele>1169.199951171875</ele>
        <time>2022-05-06T09:02:46.000Z</time>
      </trkpt>
      <trkpt lat="40.29998634941875934600830078125" lon="-0.9950376860797405242919921875">
        <ele>1169.4000244140625</ele>
        <time>2022-05-06T09:02:47.000Z</time>
      </trkpt>
      <trkpt lat="40.2999294362962245941162109375" lon="-0.99503240548074245452880859375">
        <ele>1169.5999755859375</ele>
        <time>2022-05-06T09:02:49.000Z</time>
      </trkpt>
      <trkpt lat="40.29987403191626071929931640625" lon="-0.99503089673817157745361328125">
        <ele>1169.5999755859375</ele>
        <time>2022-05-06T09:02:51.000Z</time>
      </trkpt>
      <trkpt lat="40.299819968640804290771484375" lon="-0.995027460157871246337890625">
        <ele>1169.800048828125</ele>
        <time>2022-05-06T09:02:53.000Z</time>
      </trkpt>
      <trkpt lat="40.29976272024214267730712890625" lon="-0.9950202517211437225341796875">
        <ele>1170</ele>
        <time>2022-05-06T09:02:55.000Z</time>
      </trkpt>
      <trkpt lat="40.29970957897603511810302734375" lon="-0.995010025799274444580078125">
        <ele>1170.199951171875</ele>
        <time>2022-05-06T09:02:57.000Z</time>
      </trkpt>
      <trkpt lat="40.29965660534799098968505859375" lon="-0.99500256590545177459716796875">
        <ele>1170.4000244140625</ele>
        <time>2022-05-06T09:02:59.000Z</time>
      </trkpt>
      <trkpt lat="40.29960178770124912261962890625" lon="-0.994994603097438812255859375">
        <ele>1170.5999755859375</ele>
        <time>2022-05-06T09:03:01.000Z</time>
      </trkpt>
      <trkpt lat="40.29954764060676097869873046875" lon="-0.99498814903199672698974609375">
        <ele>1170.4000244140625</ele>
        <time>2022-05-06T09:03:03.000Z</time>
      </trkpt>
      <trkpt lat="40.299495756626129150390625" lon="-0.99498077295720577239990234375">
        <ele>1170.4000244140625</ele>
        <time>2022-05-06T09:03:05.000Z</time>
      </trkpt>
      <trkpt lat="40.29944370500743389129638671875" lon="-0.99497373215854167938232421875">
        <ele>1170.199951171875</ele>
        <time>2022-05-06T09:03:07.000Z</time>
      </trkpt>
      <trkpt lat="40.2993844449520111083984375" lon="-0.9949619136750698089599609375">
        <ele>1170.199951171875</ele>
        <time>2022-05-06T09:03:09.000Z</time>
      </trkpt>
      <trkpt lat="40.2993266098201274871826171875" lon="-0.99494724534451961517333984375">
        <ele>1170.4000244140625</ele>
        <time>2022-05-06T09:03:11.000Z</time>
      </trkpt>
      <trkpt lat="40.2992716245353221893310546875" lon="-0.99493450485169887542724609375">
        <ele>1170.4000244140625</ele>
        <time>2022-05-06T09:03:13.000Z</time>
      </trkpt>
      <trkpt lat="40.2992421202361583709716796875" lon="-0.9949287213385105133056640625">
        <ele>1170.4000244140625</ele>
        <time>2022-05-06T09:03:14.000Z</time>
      </trkpt>
      <trkpt lat="40.2992166392505168914794921875" lon="-0.99492427892982959747314453125">
        <ele>1170.4000244140625</ele>
        <time>2022-05-06T09:03:15.000Z</time>
      </trkpt>
      <trkpt lat="40.2991673536598682403564453125" lon="-0.9949158132076263427734375">
        <ele>1170.5999755859375</ele>
        <time>2022-05-06T09:03:17.000Z</time>
      </trkpt>
      <trkpt lat="40.29911530204117298126220703125" lon="-0.99490466527640819549560546875">
        <ele>1170.5999755859375</ele>
        <time>2022-05-06T09:03:19.000Z</time>
      </trkpt>
      <trkpt lat="40.29905947856605052947998046875" lon="-0.9948863089084625244140625">
        <ele>1170.800048828125</ele>
        <time>2022-05-06T09:03:21.000Z</time>
      </trkpt>
      <trkpt lat="40.29900667257606983184814453125" lon="-0.99487415514886379241943359375">
        <ele>1170.800048828125</ele>
        <time>2022-05-06T09:03:23.000Z</time>
      </trkpt>
      <trkpt lat="40.298956967890262603759765625" lon="-0.9948593191802501678466796875">
        <ele>1171</ele>
        <time>2022-05-06T09:03:25.000Z</time>
      </trkpt>
      <trkpt lat="40.29893274419009685516357421875" lon="-0.99485102109611034393310546875">
        <ele>1171.199951171875</ele>
        <time>2022-05-06T09:03:26.000Z</time>
      </trkpt>
      <trkpt lat="40.29890860430896282196044921875" lon="-0.99484263919293880462646484375">
        <ele>1171.199951171875</ele>
        <time>2022-05-06T09:03:27.000Z</time>
      </trkpt>
      <trkpt lat="40.29885780997574329376220703125" lon="-0.99482554011046886444091796875">
        <ele>1171.4000244140625</ele>
        <time>2022-05-06T09:03:29.000Z</time>
      </trkpt>
      <trkpt lat="40.29880483634769916534423828125" lon="-0.9948076866567134857177734375">
        <ele>1171.5999755859375</ele>
        <time>2022-05-06T09:03:31.000Z</time>
      </trkpt>
      <trkpt lat="40.298755466938018798828125" lon="-0.99479067139327526092529296875">
        <ele>1172</ele>
        <time>2022-05-06T09:03:33.000Z</time>
      </trkpt>
      <trkpt lat="40.2987036667764186859130859375" lon="-0.994771309196949005126953125">
        <ele>1172.199951171875</ele>
        <time>2022-05-06T09:03:35.000Z</time>
      </trkpt>
      <trkpt lat="40.29864859767258167266845703125" lon="-0.99475244991481304168701171875">
        <ele>1172.199951171875</ele>
        <time>2022-05-06T09:03:37.000Z</time>
      </trkpt>
      <trkpt lat="40.298598892986774444580078125" lon="-0.99473501555621623992919921875">
        <ele>1172.4000244140625</ele>
        <time>2022-05-06T09:03:39.000Z</time>
      </trkpt>
      <trkpt lat="40.2985735796391963958740234375" lon="-0.9947258792817592620849609375">
        <ele>1172.4000244140625</ele>
        <time>2022-05-06T09:03:40.000Z</time>
      </trkpt>
      <trkpt lat="40.2985491044819355010986328125" lon="-0.994716323912143707275390625">
        <ele>1172.4000244140625</ele>
        <time>2022-05-06T09:03:41.000Z</time>
      </trkpt>
      <trkpt lat="40.29850157909095287322998046875" lon="-0.9946985542774200439453125">
        <ele>1172.5999755859375</ele>
        <time>2022-05-06T09:03:43.000Z</time>
      </trkpt>
      <trkpt lat="40.2984558977186679840087890625" lon="-0.9946789406239986419677734375">
        <ele>1172.800048828125</ele>
        <time>2022-05-06T09:03:45.000Z</time>
      </trkpt>
      <trkpt lat="40.298405773937702178955078125" lon="-0.99465974606573581695556640625">
        <ele>1173</ele>
        <time>2022-05-06T09:03:47.000Z</time>
      </trkpt>
      <trkpt lat="40.29835422523319721221923828125" lon="-0.9946377016603946685791015625">
        <ele>1173.199951171875</ele>
        <time>2022-05-06T09:03:49.000Z</time>
      </trkpt>
      <trkpt lat="40.298305191099643707275390625" lon="-0.99461532197892665863037109375">
        <ele>1173.4000244140625</ele>
        <time>2022-05-06T09:03:51.000Z</time>
      </trkpt>
      <trkpt lat="40.29825766570866107940673828125" lon="-0.99459235556423664093017578125">
        <ele>1173.5999755859375</ele>
        <time>2022-05-06T09:03:53.000Z</time>
      </trkpt>
      <trkpt lat="40.2982346154749393463134765625" lon="-0.99458229728043079376220703125">
        <ele>1173.5999755859375</ele>
        <time>2022-05-06T09:03:54.000Z</time>
      </trkpt>
      <trkpt lat="40.29821122996509075164794921875" lon="-0.9945689700543880462646484375">
        <ele>1173.800048828125</ele>
        <time>2022-05-06T09:03:55.000Z</time>
      </trkpt>
      <trkpt lat="40.29816278256475925445556640625" lon="-0.99454139359295368194580078125">
        <ele>1174.199951171875</ele>
        <time>2022-05-06T09:03:57.000Z</time>
      </trkpt>
      <trkpt lat="40.2981199510395526885986328125" lon="-0.9945161640644073486328125">
        <ele>1174.199951171875</ele>
        <time>2022-05-06T09:03:59.000Z</time>
      </trkpt>
      <trkpt lat="40.29810025356709957122802734375" lon="-0.994507782161235809326171875">
        <ele>1174.199951171875</ele>
        <time>2022-05-06T09:04:00.000Z</time>
      </trkpt>
      <trkpt lat="40.29807887971401214599609375" lon="-0.99449747242033481597900390625">
        <ele>1174.4000244140625</ele>
        <time>2022-05-06T09:04:01.000Z</time>
      </trkpt>
      <trkpt lat="40.2980337850749492645263671875" lon="-0.99447098560631275177001953125">
        <ele>1174.4000244140625</ele>
        <time>2022-05-06T09:04:03.000Z</time>
      </trkpt>
      <trkpt lat="40.2979878522455692291259765625" lon="-0.9944449178874492645263671875">
        <ele>1174.5999755859375</ele>
        <time>2022-05-06T09:04:05.000Z</time>
      </trkpt>
      <trkpt lat="40.2979419194161891937255859375" lon="-0.99441885016858577728271484375">
        <ele>1174.800048828125</ele>
        <time>2022-05-06T09:04:07.000Z</time>
      </trkpt>
      <trkpt lat="40.29789539985358715057373046875" lon="-0.99439186044037342071533203125">
        <ele>1175</ele>
        <time>2022-05-06T09:04:09.000Z</time>
      </trkpt>
      <trkpt lat="40.29785365797579288482666015625" lon="-0.99437124095857143402099609375">
        <ele>1175.199951171875</ele>
        <time>2022-05-06T09:04:11.000Z</time>
      </trkpt>
      <trkpt lat="40.2978121675550937652587890625" lon="-0.994347520172595977783203125">
        <ele>1175.199951171875</ele>
        <time>2022-05-06T09:04:13.000Z</time>
      </trkpt>
      <trkpt lat="40.29776765964925289154052734375" lon="-0.99431969225406646728515625">
        <ele>1175.5999755859375</ele>
        <time>2022-05-06T09:04:15.000Z</time>
      </trkpt>
      <trkpt lat="40.29772239737212657928466796875" lon="-0.994291864335536956787109375">
        <ele>1175.800048828125</ele>
        <time>2022-05-06T09:04:17.000Z</time>
      </trkpt>
      <trkpt lat="40.29767730273306369781494140625" lon="-0.9942625276744365692138671875">
        <ele>1176</ele>
        <time>2022-05-06T09:04:19.000Z</time>
      </trkpt>
      <trkpt lat="40.2976321242749691009521484375" lon="-0.99423562176525592803955078125">
        <ele>1176.199951171875</ele>
        <time>2022-05-06T09:04:21.000Z</time>
      </trkpt>
      <trkpt lat="40.29758946038782596588134765625" lon="-0.9942142479121685028076171875">
        <ele>1176.199951171875</ele>
        <time>2022-05-06T09:04:23.000Z</time>
      </trkpt>
      <trkpt lat="40.2975419349968433380126953125" lon="-0.9941830672323703765869140625">
        <ele>1176.199951171875</ele>
        <time>2022-05-06T09:04:25.000Z</time>
      </trkpt>
      <trkpt lat="40.297492481768131256103515625" lon="-0.994149707257747650146484375">
        <ele>1176.4000244140625</ele>
        <time>2022-05-06T09:04:27.000Z</time>
      </trkpt>
      <trkpt lat="40.29744478873908519744873046875" lon="-0.99411718547344207763671875">
        <ele>1176.4000244140625</ele>
        <time>2022-05-06T09:04:29.000Z</time>
      </trkpt>
      <trkpt lat="40.2973996102809906005859375" lon="-0.9940844960510730743408203125">
        <ele>1176.5999755859375</ele>
        <time>2022-05-06T09:04:31.000Z</time>
      </trkpt>
      <trkpt lat="40.29735342599451541900634765625" lon="-0.994050800800323486328125">
        <ele>1176.800048828125</ele>
        <time>2022-05-06T09:04:33.000Z</time>
      </trkpt>
      <trkpt lat="40.29730615206062793731689453125" lon="-0.99401903338730335235595703125">
        <ele>1176.800048828125</ele>
        <time>2022-05-06T09:04:35.000Z</time>
      </trkpt>
      <trkpt lat="40.29725485481321811676025390625" lon="-0.99398366175591945648193359375">
        <ele>1177</ele>
        <time>2022-05-06T09:04:37.000Z</time>
      </trkpt>
      <trkpt lat="40.2972036413848400115966796875" lon="-0.99395331926643848419189453125">
        <ele>1177</ele>
        <time>2022-05-06T09:04:39.000Z</time>
      </trkpt>
      <trkpt lat="40.29715427197515964508056640625" lon="-0.99391794763505458831787109375">
        <ele>1177.199951171875</ele>
        <time>2022-05-06T09:04:41.000Z</time>
      </trkpt>
      <trkpt lat="40.29710850678384304046630859375" lon="-0.99387821741402149200439453125">
        <ele>1177.4000244140625</ele>
        <time>2022-05-06T09:04:43.000Z</time>
      </trkpt>
      <trkpt lat="40.29708721674978733062744140625" lon="-0.99386111833155155181884765625">
        <ele>1177.4000244140625</ele>
        <time>2022-05-06T09:04:44.000Z</time>
      </trkpt>
      <trkpt lat="40.29706642962992191314697265625" lon="-0.99384653382003307342529296875">
        <ele>1177.5999755859375</ele>
        <time>2022-05-06T09:04:45.000Z</time>
      </trkpt>
      <trkpt lat="40.297021083533763885498046875" lon="-0.99381233565509319305419921875">
        <ele>1177.800048828125</ele>
        <time>2022-05-06T09:04:47.000Z</time>
      </trkpt>
      <trkpt lat="40.2969743125140666961669921875" lon="-0.99377864040434360504150390625">
        <ele>1178</ele>
        <time>2022-05-06T09:04:49.000Z</time>
      </trkpt>
      <trkpt lat="40.2969310618937015533447265625" lon="-0.99374276585876941680908203125">
        <ele>1178.4000244140625</ele>
        <time>2022-05-06T09:04:51.000Z</time>
      </trkpt>
      <trkpt lat="40.29688538052141666412353515625" lon="-0.99370940588414669036865234375">
        <ele>1178.5999755859375</ele>
        <time>2022-05-06T09:04:53.000Z</time>
      </trkpt>
      <trkpt lat="40.296841375529766082763671875" lon="-0.993673615157604217529296875">
        <ele>1179</ele>
        <time>2022-05-06T09:04:55.000Z</time>
      </trkpt>
      <trkpt lat="40.29680105857551097869873046875" lon="-0.99364067427814006805419921875">
        <ele>1179.199951171875</ele>
        <time>2022-05-06T09:04:57.000Z</time>
      </trkpt>
      <trkpt lat="40.296759568154811859130859375" lon="-0.99360664375126361846923828125">
        <ele>1179.4000244140625</ele>
        <time>2022-05-06T09:04:59.000Z</time>
      </trkpt>
      <trkpt lat="40.29673718847334384918212890625" lon="-0.9935908019542694091796875">
        <ele>1179.5999755859375</ele>
        <time>2022-05-06T09:05:00.000Z</time>
      </trkpt>
      <trkpt lat="40.29671606607735157012939453125" lon="-0.9935773909091949462890625">
        <ele>1179.5999755859375</ele>
        <time>2022-05-06T09:05:01.000Z</time>
      </trkpt>
      <trkpt lat="40.29667885042726993560791015625" lon="-0.99355065263807773590087890625">
        <ele>1179.800048828125</ele>
        <time>2022-05-06T09:05:03.000Z</time>
      </trkpt>
      <trkpt lat="40.29663425870239734649658203125" lon="-0.9935178793966770172119140625">
        <ele>1180.199951171875</ele>
        <time>2022-05-06T09:05:05.000Z</time>
      </trkpt>
      <trkpt lat="40.2965917624533176422119140625" lon="-0.9934861958026885986328125">
        <ele>1180.4000244140625</ele>
        <time>2022-05-06T09:05:07.000Z</time>
      </trkpt>
      <trkpt lat="40.29654926620423793792724609375" lon="-0.9934561885893344879150390625">
        <ele>1180.800048828125</ele>
        <time>2022-05-06T09:05:09.000Z</time>
      </trkpt>
      <trkpt lat="40.29650165699422359466552734375" lon="-0.993418134748935699462890625">
        <ele>1181.199951171875</ele>
        <time>2022-05-06T09:05:11.000Z</time>
      </trkpt>
      <trkpt lat="40.29644683934748172760009765625" lon="-0.9933743812143802642822265625">
        <ele>1181.5999755859375</ele>
        <time>2022-05-06T09:05:13.000Z</time>
      </trkpt>
      <trkpt lat="40.29641783796250820159912109375" lon="-0.99335384555160999298095703125">
        <ele>1181.800048828125</ele>
        <time>2022-05-06T09:05:14.000Z</time>
      </trkpt>
      <trkpt lat="40.29638783074915409088134765625" lon="-0.99333456717431545257568359375">
        <ele>1182</ele>
        <time>2022-05-06T09:05:15.000Z</time>
      </trkpt>
      <trkpt lat="40.29632815159857273101806640625" lon="-0.99328762851655483245849609375">
        <ele>1182.5999755859375</ele>
        <time>2022-05-06T09:05:17.000Z</time>
      </trkpt>
      <trkpt lat="40.29627165757119655609130859375" lon="-0.99324454553425312042236328125">
        <ele>1183</ele>
        <time>2022-05-06T09:05:19.000Z</time>
      </trkpt>
      <trkpt lat="40.29621549881994724273681640625" lon="-0.99320196546614170074462890625">
        <ele>1183.199951171875</ele>
        <time>2022-05-06T09:05:21.000Z</time>
      </trkpt>
      <trkpt lat="40.2961646206676959991455078125" lon="-0.99317011423408985137939453125">
        <ele>1183.199951171875</ele>
        <time>2022-05-06T09:05:23.000Z</time>
      </trkpt>
      <trkpt lat="40.2961096353828907012939453125" lon="-0.99313222803175449371337890625">
        <ele>1183</ele>
        <time>2022-05-06T09:05:25.000Z</time>
      </trkpt>
      <trkpt lat="40.2960519678890705108642578125" lon="-0.993084870278835296630859375">
        <ele>1182.800048828125</ele>
        <time>2022-05-06T09:05:27.000Z</time>
      </trkpt>
      <trkpt lat="40.29599421657621860504150390625" lon="-0.993033908307552337646484375">
        <ele>1182.800048828125</ele>
        <time>2022-05-06T09:05:29.000Z</time>
      </trkpt>
      <trkpt lat="40.29594250023365020751953125" lon="-0.99298126995563507080078125">
        <ele>1182.800048828125</ele>
        <time>2022-05-06T09:05:31.000Z</time>
      </trkpt>
      <trkpt lat="40.2959195338189601898193359375" lon="-0.99295855499804019927978515625">
        <ele>1182.800048828125</ele>
        <time>2022-05-06T09:05:32.000Z</time>
      </trkpt>
      <trkpt lat="40.2958975732326507568359375" lon="-0.99293843843042850494384765625">
        <ele>1182.800048828125</ele>
        <time>2022-05-06T09:05:33.000Z</time>
      </trkpt>
      <trkpt lat="40.29587569646537303924560546875" lon="-0.9929184056818485260009765625">
        <ele>1182.800048828125</ele>
        <time>2022-05-06T09:05:34.000Z</time>
      </trkpt>
      <trkpt lat="40.2958534844219684600830078125" lon="-0.99289904348552227020263671875">
        <ele>1182.800048828125</ele>
        <time>2022-05-06T09:05:35.000Z</time>
      </trkpt>
      <trkpt lat="40.29580931179225444793701171875" lon="-0.99285897798836231231689453125">
        <ele>1182.800048828125</ele>
        <time>2022-05-06T09:05:37.000Z</time>
      </trkpt>
      <trkpt lat="40.29576505534350872039794921875" lon="-0.9928178228437900543212890625">
        <ele>1182.800048828125</ele>
        <time>2022-05-06T09:05:39.000Z</time>
      </trkpt>
      <trkpt lat="40.2957203797996044158935546875" lon="-0.99278002046048641204833984375">
        <ele>1182.5999755859375</ele>
        <time>2022-05-06T09:05:41.000Z</time>
      </trkpt>
      <trkpt lat="40.29569800011813640594482421875" lon="-0.99276124499738216400146484375">
        <ele>1182.5999755859375</ele>
        <time>2022-05-06T09:05:42.000Z</time>
      </trkpt>
      <trkpt lat="40.29567603953182697296142578125" lon="-0.9927423857152462005615234375">
        <ele>1182.5999755859375</ele>
        <time>2022-05-06T09:05:43.000Z</time>
      </trkpt>
      <trkpt lat="40.2956320345401763916015625" lon="-0.992706008255481719970703125">
        <ele>1182.5999755859375</ele>
        <time>2022-05-06T09:05:45.000Z</time>
      </trkpt>
      <trkpt lat="40.2955919690430164337158203125" lon="-0.99267256446182727813720703125">
        <ele>1182.4000244140625</ele>
        <time>2022-05-06T09:05:47.000Z</time>
      </trkpt>
      <trkpt lat="40.2955514006316661834716796875" lon="-0.99263920448720455169677734375">
        <ele>1182.4000244140625</ele>
        <time>2022-05-06T09:05:49.000Z</time>
      </trkpt>
      <trkpt lat="40.29550974257290363311767578125" lon="-0.99260366521775722503662109375">
        <ele>1182.4000244140625</ele>
        <time>2022-05-06T09:05:51.000Z</time>
      </trkpt>
      <trkpt lat="40.2954692579805850982666015625" lon="-0.992567203938961029052734375">
        <ele>1182.4000244140625</ele>
        <time>2022-05-06T09:05:53.000Z</time>
      </trkpt>
      <trkpt lat="40.2954303659498691558837890625" lon="-0.99253023974597454071044921875">
        <ele>1182.5999755859375</ele>
        <time>2022-05-06T09:05:55.000Z</time>
      </trkpt>
      <trkpt lat="40.29538904316723346710205078125" lon="-0.9924910962581634521484375">
        <ele>1183</ele>
        <time>2022-05-06T09:05:57.000Z</time>
      </trkpt>
      <trkpt lat="40.2953421883285045623779296875" lon="-0.99245689809322357177734375">
        <ele>1183.199951171875</ele>
        <time>2022-05-06T09:05:59.000Z</time>
      </trkpt>
      <trkpt lat="40.29529818333685398101806640625" lon="-0.99242244847118854522705078125">
        <ele>1183.5999755859375</ele>
        <time>2022-05-06T09:06:01.000Z</time>
      </trkpt>
      <trkpt lat="40.29527370817959308624267578125" lon="-0.99240568466484546661376953125">
        <ele>1183.5999755859375</ele>
        <time>2022-05-06T09:06:02.000Z</time>
      </trkpt>
      <trkpt lat="40.2952530048787593841552734375" lon="-0.99238581955432891845703125">
        <ele>1183.800048828125</ele>
        <time>2022-05-06T09:06:03.000Z</time>
      </trkpt>
      <trkpt lat="40.29523230157792568206787109375" lon="-0.99236746318638324737548828125">
        <ele>1183.800048828125</ele>
        <time>2022-05-06T09:06:04.000Z</time>
      </trkpt>
      <trkpt lat="40.29521159827709197998046875" lon="-0.9923524595797061920166015625">
        <ele>1184</ele>
        <time>2022-05-06T09:06:05.000Z</time>
      </trkpt>
      <trkpt lat="40.2951688505709171295166015625" lon="-0.9923221170902252197265625">
        <ele>1184.199951171875</ele>
        <time>2022-05-06T09:06:07.000Z</time>
      </trkpt>
      <trkpt lat="40.295119397342205047607421875" lon="-0.992291271686553955078125">
        <ele>1184.199951171875</ele>
        <time>2022-05-06T09:06:09.000Z</time>
      </trkpt>
      <trkpt lat="40.295095928013324737548828125" lon="-0.992275178432464599609375">
        <ele>1184.4000244140625</ele>
        <time>2022-05-06T09:06:10.000Z</time>
      </trkpt>
      <trkpt lat="40.295071788132190704345703125" lon="-0.99225916899740695953369140625">
        <ele>1184.4000244140625</ele>
        <time>2022-05-06T09:06:11.000Z</time>
      </trkpt>
      <trkpt lat="40.2950263582170009613037109375" lon="-0.9922287426888942718505859375">
        <ele>1184.5999755859375</ele>
        <time>2022-05-06T09:06:13.000Z</time>
      </trkpt>
      <trkpt lat="40.2949794195592403411865234375" lon="-0.99219798110425472259521484375">
        <ele>1184.800048828125</ele>
        <time>2022-05-06T09:06:15.000Z</time>
      </trkpt>
      <trkpt lat="40.2949361689388751983642578125" lon="-0.9921707399189472198486328125">
        <ele>1185</ele>
        <time>2022-05-06T09:06:17.000Z</time>
      </trkpt>
      <trkpt lat="40.2948872186243534088134765625" lon="-0.992138721048831939697265625">
        <ele>1185.199951171875</ele>
        <time>2022-05-06T09:06:19.000Z</time>
      </trkpt>
      <trkpt lat="40.29483634047210216522216796875" lon="-0.9921021759510040283203125">
        <ele>1185.4000244140625</ele>
        <time>2022-05-06T09:06:21.000Z</time>
      </trkpt>
      <trkpt lat="40.29479057528078556060791015625" lon="-0.99206864833831787109375">
        <ele>1185.5999755859375</ele>
        <time>2022-05-06T09:06:23.000Z</time>
      </trkpt>
      <trkpt lat="40.29474162496626377105712890625" lon="-0.9920297563076019287109375">
        <ele>1186</ele>
        <time>2022-05-06T09:06:25.000Z</time>
      </trkpt>
      <trkpt lat="40.29469736851751804351806640625" lon="-0.9919927082955837249755859375">
        <ele>1186.199951171875</ele>
        <time>2022-05-06T09:06:27.000Z</time>
      </trkpt>
      <trkpt lat="40.29465344734489917755126953125" lon="-0.99195641465485095977783203125">
        <ele>1186.4000244140625</ele>
        <time>2022-05-06T09:06:29.000Z</time>
      </trkpt>
      <trkpt lat="40.29460818506777286529541015625" lon="-0.99192179739475250244140625">
        <ele>1186.5999755859375</ele>
        <time>2022-05-06T09:06:31.000Z</time>
      </trkpt>
      <trkpt lat="40.29456309042870998382568359375" lon="-0.99188751541078090667724609375">
        <ele>1186.800048828125</ele>
        <time>2022-05-06T09:06:33.000Z</time>
      </trkpt>
      <trkpt lat="40.29454012401401996612548828125" lon="-0.99186790175735950469970703125">
        <ele>1186.800048828125</ele>
        <time>2022-05-06T09:06:34.000Z</time>
      </trkpt>
      <trkpt lat="40.29451690614223480224609375" lon="-0.9918512217700481414794921875">
        <ele>1187</ele>
        <time>2022-05-06T09:06:35.000Z</time>
      </trkpt>
      <trkpt lat="40.29446871019899845123291015625" lon="-0.991817526519298553466796875">
        <ele>1187</ele>
        <time>2022-05-06T09:06:37.000Z</time>
      </trkpt>
      <trkpt lat="40.29442529194056987762451171875" lon="-0.99178341217339038848876953125">
        <ele>1187.199951171875</ele>
        <time>2022-05-06T09:06:39.000Z</time>
      </trkpt>
      <trkpt lat="40.29438279569149017333984375" lon="-0.99174535833299160003662109375">
        <ele>1187.4000244140625</ele>
        <time>2022-05-06T09:06:41.000Z</time>
      </trkpt>
      <trkpt lat="40.2943363599479198455810546875" lon="-0.99170579575002193450927734375">
        <ele>1187.4000244140625</ele>
        <time>2022-05-06T09:06:43.000Z</time>
      </trkpt>
      <trkpt lat="40.29428631998598575592041015625" lon="-0.99166489206254482269287109375">
        <ele>1187.5999755859375</ele>
        <time>2022-05-06T09:06:45.000Z</time>
      </trkpt>
      <trkpt lat="40.29424172826111316680908203125" lon="-0.9916274249553680419921875">
        <ele>1187.5999755859375</ele>
        <time>2022-05-06T09:06:47.000Z</time>
      </trkpt>
      <trkpt lat="40.29419529251754283905029296875" lon="-0.99158786237239837646484375">
        <ele>1187.5999755859375</ele>
        <time>2022-05-06T09:06:49.000Z</time>
      </trkpt>
      <trkpt lat="40.2941482700407505035400390625" lon="-0.991554670035839080810546875">
        <ele>1187.5999755859375</ele>
        <time>2022-05-06T09:06:51.000Z</time>
      </trkpt>
      <trkpt lat="40.29410107992589473724365234375" lon="-0.991519801318645477294921875">
        <ele>1187.5999755859375</ele>
        <time>2022-05-06T09:06:53.000Z</time>
      </trkpt>
      <trkpt lat="40.294060595333576202392578125" lon="-0.9914918057620525360107421875">
        <ele>1187.5999755859375</ele>
        <time>2022-05-06T09:06:55.000Z</time>
      </trkpt>
      <trkpt lat="40.2940173447132110595703125" lon="-0.99146582186222076416015625">
        <ele>1187.5999755859375</ele>
        <time>2022-05-06T09:06:57.000Z</time>
      </trkpt>
      <trkpt lat="40.29396646656095981597900390625" lon="-0.99142919294536113739013671875">
        <ele>1187.5999755859375</ele>
        <time>2022-05-06T09:06:59.000Z</time>
      </trkpt>
      <trkpt lat="40.2939139120280742645263671875" lon="-0.9913959167897701263427734375">
        <ele>1187.800048828125</ele>
        <time>2022-05-06T09:07:01.000Z</time>
      </trkpt>
      <trkpt lat="40.293868146836757659912109375" lon="-0.99136968143284320831298828125">
        <ele>1187.800048828125</ele>
        <time>2022-05-06T09:07:03.000Z</time>
      </trkpt>
      <trkpt lat="40.293821878731250762939453125" lon="-0.9913469664752483367919921875">
        <ele>1187.800048828125</ele>
        <time>2022-05-06T09:07:05.000Z</time>
      </trkpt>
      <trkpt lat="40.293774269521236419677734375" lon="-0.99132190458476543426513671875">
        <ele>1187.800048828125</ele>
        <time>2022-05-06T09:07:07.000Z</time>
      </trkpt>
      <trkpt lat="40.29372431337833404541015625" lon="-0.991296507418155670166015625">
        <ele>1188</ele>
        <time>2022-05-06T09:07:09.000Z</time>
      </trkpt>
      <trkpt lat="40.2936725132167339324951171875" lon="-0.99127077497541904449462890625">
        <ele>1188.199951171875</ele>
        <time>2022-05-06T09:07:11.000Z</time>
      </trkpt>
      <trkpt lat="40.29362062923610210418701171875" lon="-0.99124797619879245758056640625">
        <ele>1188.4000244140625</ele>
        <time>2022-05-06T09:07:13.000Z</time>
      </trkpt>
      <trkpt lat="40.29357201419770717620849609375" lon="-0.9912229143083095550537109375">
        <ele>1188.5999755859375</ele>
        <time>2022-05-06T09:07:15.000Z</time>
      </trkpt>
      <trkpt lat="40.2935209684073925018310546875" lon="-0.99120237864553928375244140625">
        <ele>1188.800048828125</ele>
        <time>2022-05-06T09:07:17.000Z</time>
      </trkpt>
      <trkpt lat="40.29347084462642669677734375" lon="-0.99118326790630817413330078125">
        <ele>1188.800048828125</ele>
        <time>2022-05-06T09:07:19.000Z</time>
      </trkpt>
      <trkpt lat="40.2934205532073974609375" lon="-0.9911665879189968109130859375">
        <ele>1189</ele>
        <time>2022-05-06T09:07:21.000Z</time>
      </trkpt>
      <trkpt lat="40.293364226818084716796875" lon="-0.9911474771797657012939453125">
        <ele>1189</ele>
        <time>2022-05-06T09:07:23.000Z</time>
      </trkpt>
      <trkpt lat="40.29330857098102569580078125" lon="-0.99112794734537601470947265625">
        <ele>1189.199951171875</ele>
        <time>2022-05-06T09:07:25.000Z</time>
      </trkpt>
      <trkpt lat="40.29325651936233043670654296875" lon="-0.9911095909774303436279296875">
        <ele>1189.199951171875</ele>
        <time>2022-05-06T09:07:27.000Z</time>
      </trkpt>
      <trkpt lat="40.29321075417101383209228515625" lon="-0.9910948388278484344482421875">
        <ele>1189.199951171875</ele>
        <time>2022-05-06T09:07:29.000Z</time>
      </trkpt>
      <trkpt lat="40.2931635640561580657958984375" lon="-0.991081930696964263916015625">
        <ele>1189.199951171875</ele>
        <time>2022-05-06T09:07:31.000Z</time>
      </trkpt>
      <trkpt lat="40.29311134479939937591552734375" lon="-0.99106525070965290069580078125">
        <ele>1189.199951171875</ele>
        <time>2022-05-06T09:07:33.000Z</time>
      </trkpt>
      <trkpt lat="40.29305820353329181671142578125" lon="-0.99105083383619785308837890625">
        <ele>1189.199951171875</ele>
        <time>2022-05-06T09:07:35.000Z</time>
      </trkpt>
      <trkpt lat="40.29300103895366191864013671875" lon="-0.99103222601115703582763671875">
        <ele>1189.199951171875</ele>
        <time>2022-05-06T09:07:37.000Z</time>
      </trkpt>
      <trkpt lat="40.2929446287453174591064453125" lon="-0.9910150431096553802490234375">
        <ele>1189.199951171875</ele>
        <time>2022-05-06T09:07:39.000Z</time>
      </trkpt>
      <trkpt lat="40.2928869612514972686767578125" lon="-0.9909999556839466094970703125">
        <ele>1189.199951171875</ele>
        <time>2022-05-06T09:07:41.000Z</time>
      </trkpt>
      <trkpt lat="40.29282887466251850128173828125" lon="-0.990984700620174407958984375">
        <ele>1189</ele>
        <time>2022-05-06T09:07:43.000Z</time>
      </trkpt>
      <trkpt lat="40.2927686087787151336669921875" lon="-0.99097019992768764495849609375">
        <ele>1188.800048828125</ele>
        <time>2022-05-06T09:07:45.000Z</time>
      </trkpt>
      <trkpt lat="40.2927062474191188812255859375" lon="-0.9909560345113277435302734375">
        <ele>1188.5999755859375</ele>
        <time>2022-05-06T09:07:47.000Z</time>
      </trkpt>
      <trkpt lat="40.292643718421459197998046875" lon="-0.99094002507627010345458984375">
        <ele>1188.4000244140625</ele>
        <time>2022-05-06T09:07:49.000Z</time>
      </trkpt>
      <trkpt lat="40.29258169233798980712890625" lon="-0.9909245185554027557373046875">
        <ele>1188.4000244140625</ele>
        <time>2022-05-06T09:07:51.000Z</time>
      </trkpt>
      <trkpt lat="40.2925211749970912933349609375" lon="-0.9909084253013134002685546875">
        <ele>1188.199951171875</ele>
        <time>2022-05-06T09:07:53.000Z</time>
      </trkpt>
      <trkpt lat="40.2924682013690471649169921875" lon="-0.9908906556665897369384765625">
        <ele>1188.199951171875</ele>
        <time>2022-05-06T09:07:55.000Z</time>
      </trkpt>
      <trkpt lat="40.29242084361612796783447265625" lon="-0.9908790886402130126953125">
        <ele>1188.199951171875</ele>
        <time>2022-05-06T09:07:57.000Z</time>
      </trkpt>
      <trkpt lat="40.29239770956337451934814453125" lon="-0.99087414331734180450439453125">
        <ele>1188.199951171875</ele>
        <time>2022-05-06T09:07:58.000Z</time>
      </trkpt>
      <trkpt lat="40.2923729829490184783935546875" lon="-0.99086861126124858856201171875">
        <ele>1188.199951171875</ele>
        <time>2022-05-06T09:07:59.000Z</time>
      </trkpt>
      <trkpt lat="40.292316488921642303466796875" lon="-0.990855284035205841064453125">
        <ele>1188</ele>
        <time>2022-05-06T09:08:01.000Z</time>
      </trkpt>
      <trkpt lat="40.29226024635136127471923828125" lon="-0.99083910696208477020263671875">
        <ele>1188</ele>
        <time>2022-05-06T09:08:03.000Z</time>
      </trkpt>
      <trkpt lat="40.29220626689493656158447265625" lon="-0.99082552827894687652587890625">
        <ele>1188</ele>
        <time>2022-05-06T09:08:05.000Z</time>
      </trkpt>
      <trkpt lat="40.292150862514972686767578125" lon="-0.99081010557711124420166015625">
        <ele>1187.800048828125</ele>
        <time>2022-05-06T09:08:07.000Z</time>
      </trkpt>
      <trkpt lat="40.29209755361080169677734375" lon="-0.9907940961420536041259765625">
        <ele>1188</ele>
        <time>2022-05-06T09:08:09.000Z</time>
      </trkpt>
      <trkpt lat="40.29204801656305789947509765625" lon="-0.99077942781150341033935546875">
        <ele>1188.199951171875</ele>
        <time>2022-05-06T09:08:11.000Z</time>
      </trkpt>
      <trkpt lat="40.292024128139019012451171875" lon="-0.9907729737460613250732421875">
        <ele>1188.4000244140625</ele>
        <time>2022-05-06T09:08:12.000Z</time>
      </trkpt>
      <trkpt lat="40.2919984795153141021728515625" lon="-0.99076584912836551666259765625">
        <ele>1188.5999755859375</ele>
        <time>2022-05-06T09:08:13.000Z</time>
      </trkpt>
      <trkpt lat="40.29194332659244537353515625" lon="-0.990750007331371307373046875">
        <ele>1188.800048828125</ele>
        <time>2022-05-06T09:08:15.000Z</time>
      </trkpt>
      <trkpt lat="40.29188607819378376007080078125" lon="-0.99073265679180622100830078125">
        <ele>1188.5999755859375</ele>
        <time>2022-05-06T09:08:17.000Z</time>
      </trkpt>
      <trkpt lat="40.2918281592428684234619140625" lon="-0.99071572534739971160888671875">
        <ele>1188.5999755859375</ele>
        <time>2022-05-06T09:08:19.000Z</time>
      </trkpt>
      <trkpt lat="40.29176604934036731719970703125" lon="-0.9906992129981517791748046875">
        <ele>1188.5999755859375</ele>
        <time>2022-05-06T09:08:21.000Z</time>
      </trkpt>
      <trkpt lat="40.29170385561883449554443359375" lon="-0.9906806051731109619140625">
        <ele>1188.4000244140625</ele>
        <time>2022-05-06T09:08:23.000Z</time>
      </trkpt>
      <trkpt lat="40.29164250008761882781982421875" lon="-0.99066442809998989105224609375">
        <ele>1188.4000244140625</ele>
        <time>2022-05-06T09:08:25.000Z</time>
      </trkpt>
      <trkpt lat="40.29157988727092742919921875" lon="-0.99064908921718597412109375">
        <ele>1188.4000244140625</ele>
        <time>2022-05-06T09:08:27.000Z</time>
      </trkpt>
      <trkpt lat="40.2915203757584095001220703125" lon="-0.9906334988772869110107421875">
        <ele>1188.199951171875</ele>
        <time>2022-05-06T09:08:29.000Z</time>
      </trkpt>
      <trkpt lat="40.2914623729884624481201171875" lon="-0.99061681888997554779052734375">
        <ele>1188.199951171875</ele>
        <time>2022-05-06T09:08:31.000Z</time>
      </trkpt>
      <trkpt lat="40.29143261723220348358154296875" lon="-0.990609861910343170166015625">
        <ele>1188.199951171875</ele>
        <time>2022-05-06T09:08:32.000Z</time>
      </trkpt>
      <trkpt lat="40.2914040349423885345458984375" lon="-0.99060324020683765411376953125">
        <ele>1188.199951171875</ele>
        <time>2022-05-06T09:08:33.000Z</time>
      </trkpt>
      <trkpt lat="40.29134661890566349029541015625" lon="-0.99059284664690494537353515625">
        <ele>1188</ele>
        <time>2022-05-06T09:08:35.000Z</time>
      </trkpt>
      <trkpt lat="40.29129280708730220794677734375" lon="-0.99058262072503566741943359375">
        <ele>1188</ele>
        <time>2022-05-06T09:08:37.000Z</time>
      </trkpt>
      <trkpt lat="40.29123346321284770965576171875" lon="-0.99057155661284923553466796875">
        <ele>1188.4000244140625</ele>
        <time>2022-05-06T09:08:39.000Z</time>
      </trkpt>
      <trkpt lat="40.2911740355193614959716796875" lon="-0.99055613391101360321044921875">
        <ele>1188.800048828125</ele>
        <time>2022-05-06T09:08:41.000Z</time>
      </trkpt>
      <trkpt lat="40.29111661948263645172119140625" lon="-0.99054188467562198638916015625">
        <ele>1189.199951171875</ele>
        <time>2022-05-06T09:08:43.000Z</time>
      </trkpt>
      <trkpt lat="40.2910902164876461029052734375" lon="-0.99053484387695789337158203125">
        <ele>1189.4000244140625</ele>
        <time>2022-05-06T09:08:44.000Z</time>
      </trkpt>
      <trkpt lat="40.291063897311687469482421875" lon="-0.99052763544023036956787109375">
        <ele>1189.5999755859375</ele>
        <time>2022-05-06T09:08:45.000Z</time>
      </trkpt>
      <trkpt lat="40.291006229817867279052734375" lon="-0.99051506258547306060791015625">
        <ele>1190</ele>
        <time>2022-05-06T09:08:47.000Z</time>
      </trkpt>
      <trkpt lat="40.29094462282955646514892578125" lon="-0.9905020706355571746826171875">
        <ele>1190.4000244140625</ele>
        <time>2022-05-06T09:08:49.000Z</time>
      </trkpt>
      <trkpt lat="40.29088494367897510528564453125" lon="-0.99048706702888011932373046875">
        <ele>1190.800048828125</ele>
        <time>2022-05-06T09:08:51.000Z</time>
      </trkpt>
      <trkpt lat="40.29082140885293483734130859375" lon="-0.99047281779348850250244140625">
        <ele>1191.4000244140625</ele>
        <time>2022-05-06T09:08:53.000Z</time>
      </trkpt>
      <trkpt lat="40.2907579578459262847900390625" lon="-0.990454964339733123779296875">
        <ele>1191.800048828125</ele>
        <time>2022-05-06T09:08:55.000Z</time>
      </trkpt>
      <trkpt lat="40.2906966023147106170654296875" lon="-0.99043778143823146820068359375">
        <ele>1192.199951171875</ele>
        <time>2022-05-06T09:08:57.000Z</time>
      </trkpt>
      <trkpt lat="40.29066701419651508331298828125" lon="-0.9904296509921550750732421875">
        <ele>1192.4000244140625</ele>
        <time>2022-05-06T09:08:58.000Z</time>
      </trkpt>
      <trkpt lat="40.29063750989735126495361328125" lon="-0.99042110145092010498046875">
        <ele>1192.800048828125</ele>
        <time>2022-05-06T09:08:59.000Z</time>
      </trkpt>
      <trkpt lat="40.29057732783257961273193359375" lon="-0.9904061816632747650146484375">
        <ele>1193</ele>
        <time>2022-05-06T09:09:01.000Z</time>
      </trkpt>
      <trkpt lat="40.2905182354152202606201171875" lon="-0.9903917647898197174072265625">
        <ele>1193</ele>
        <time>2022-05-06T09:09:03.000Z</time>
      </trkpt>
      <trkpt lat="40.2904568798840045928955078125" lon="-0.9903756715357303619384765625">
        <ele>1193.199951171875</ele>
        <time>2022-05-06T09:09:05.000Z</time>
      </trkpt>
      <trkpt lat="40.2903975360095500946044921875" lon="-0.9903582371771335601806640625">
        <ele>1193.4000244140625</ele>
        <time>2022-05-06T09:09:07.000Z</time>
      </trkpt>
      <trkpt lat="40.2903391979634761810302734375" lon="-0.99033988080918788909912109375">
        <ele>1193.5999755859375</ele>
        <time>2022-05-06T09:09:09.000Z</time>
      </trkpt>
      <trkpt lat="40.29028563760221004486083984375" lon="-0.990324206650257110595703125">
        <ele>1193.800048828125</ele>
        <time>2022-05-06T09:09:11.000Z</time>
      </trkpt>
      <trkpt lat="40.29022880829870700836181640625" lon="-0.99030585028231143951416015625">
        <ele>1194</ele>
        <time>2022-05-06T09:09:13.000Z</time>
      </trkpt>
      <trkpt lat="40.290200226008892059326171875" lon="-0.99029629491269588470458984375">
        <ele>1194</ele>
        <time>2022-05-06T09:09:14.000Z</time>
      </trkpt>
      <trkpt lat="40.29017147608101367950439453125" lon="-0.99028699100017547607421875">
        <ele>1194.199951171875</ele>
        <time>2022-05-06T09:09:15.000Z</time>
      </trkpt>
      <trkpt lat="40.2901115454733371734619140625" lon="-0.990268550813198089599609375">
        <ele>1194.4000244140625</ele>
        <time>2022-05-06T09:09:17.000Z</time>
      </trkpt>
      <trkpt lat="40.2900810353457927703857421875" lon="-0.99025991745293140411376953125">
        <ele>1194.4000244140625</ele>
        <time>2022-05-06T09:09:18.000Z</time>
      </trkpt>
      <trkpt lat="40.29005010612308979034423828125" lon="-0.99025052972137928009033203125">
        <ele>1194.4000244140625</ele>
        <time>2022-05-06T09:09:19.000Z</time>
      </trkpt>
      <trkpt lat="40.28998908586800098419189453125" lon="-0.9902326762676239013671875">
        <ele>1194.5999755859375</ele>
        <time>2022-05-06T09:09:21.000Z</time>
      </trkpt>
      <trkpt lat="40.2899281494319438934326171875" lon="-0.99021591246128082275390625">
        <ele>1194.800048828125</ele>
        <time>2022-05-06T09:09:23.000Z</time>
      </trkpt>
      <trkpt lat="40.28986771591007709503173828125" lon="-0.99019872955977916717529296875">
        <ele>1195</ele>
        <time>2022-05-06T09:09:25.000Z</time>
      </trkpt>
      <trkpt lat="40.28981591574847698211669921875" lon="-0.990184731781482696533203125">
        <ele>1195.199951171875</ele>
        <time>2022-05-06T09:09:27.000Z</time>
      </trkpt>
      <trkpt lat="40.2897652052342891693115234375" lon="-0.99016888998448848724365234375">
        <ele>1195.4000244140625</ele>
        <time>2022-05-06T09:09:29.000Z</time>
      </trkpt>
      <trkpt lat="40.2897125668823719024658203125" lon="-0.9901547245681285858154296875">
        <ele>1195.4000244140625</ele>
        <time>2022-05-06T09:09:31.000Z</time>
      </trkpt>
      <trkpt lat="40.28968398459255695343017578125" lon="-0.99014793522655963897705078125">
        <ele>1195.5999755859375</ele>
        <time>2022-05-06T09:09:32.000Z</time>
      </trkpt>
      <trkpt lat="40.2896538935601711273193359375" lon="-0.9901379607617855072021484375">
        <ele>1195.5999755859375</ele>
        <time>2022-05-06T09:09:33.000Z</time>
      </trkpt>
      <trkpt lat="40.28962413780391216278076171875" lon="-0.99012874066829681396484375">
        <ele>1195.800048828125</ele>
        <time>2022-05-06T09:09:34.000Z</time>
      </trkpt>
      <trkpt lat="40.289593376219272613525390625" lon="-0.9901195205748081207275390625">
        <ele>1195.800048828125</ele>
        <time>2022-05-06T09:09:35.000Z</time>
      </trkpt>
      <trkpt lat="40.2895358763635158538818359375" lon="-0.99010317586362361907958984375">
        <ele>1195.800048828125</ele>
        <time>2022-05-06T09:09:37.000Z</time>
      </trkpt>
      <trkpt lat="40.289478711783885955810546875" lon="-0.99008741788566112518310546875">
        <ele>1195.800048828125</ele>
        <time>2022-05-06T09:09:39.000Z</time>
      </trkpt>
      <trkpt lat="40.2894493751227855682373046875" lon="-0.9900796227157115936279296875">
        <ele>1195.800048828125</ele>
        <time>2022-05-06T09:09:40.000Z</time>
      </trkpt>
      <trkpt lat="40.28942070901393890380859375" lon="-0.99007400684058666229248046875">
        <ele>1195.800048828125</ele>
        <time>2022-05-06T09:09:41.000Z</time>
      </trkpt>
      <trkpt lat="40.2893601916730403900146484375" lon="-0.99005841650068759918212890625">
        <ele>1195.800048828125</ele>
        <time>2022-05-06T09:09:43.000Z</time>
      </trkpt>
      <trkpt lat="40.28930294327437877655029296875" lon="-0.99004047922790050506591796875">
        <ele>1195.800048828125</ele>
        <time>2022-05-06T09:09:45.000Z</time>
      </trkpt>
      <trkpt lat="40.2892475388944149017333984375" lon="-0.9900222904980182647705078125">
        <ele>1195.800048828125</ele>
        <time>2022-05-06T09:09:47.000Z</time>
      </trkpt>
      <trkpt lat="40.2891898714005947113037109375" lon="-0.99000426940619945526123046875">
        <ele>1196</ele>
        <time>2022-05-06T09:09:49.000Z</time>
      </trkpt>
      <trkpt lat="40.289163552224636077880859375" lon="-0.989998988807201385498046875">
        <ele>1196</ele>
        <time>2022-05-06T09:09:50.000Z</time>
      </trkpt>
      <trkpt lat="40.2891352213919162750244140625" lon="-0.9899917803704738616943359375">
        <ele>1196</ele>
        <time>2022-05-06T09:09:51.000Z</time>
      </trkpt>
      <trkpt lat="40.28908283449709415435791015625" lon="-0.98998197354376316070556640625">
        <ele>1196</ele>
        <time>2022-05-06T09:09:53.000Z</time>
      </trkpt>
      <trkpt lat="40.28902374207973480224609375" lon="-0.98997174762189388275146484375">
        <ele>1196</ele>
        <time>2022-05-06T09:09:55.000Z</time>
      </trkpt>
      <trkpt lat="40.2889662422239780426025390625" lon="-0.98995531909167766571044921875">
        <ele>1196</ele>
        <time>2022-05-06T09:09:57.000Z</time>
      </trkpt>
      <trkpt lat="40.28890849091112613677978515625" lon="-0.9899394772946834564208984375">
        <ele>1196</ele>
        <time>2022-05-06T09:09:59.000Z</time>
      </trkpt>
      <trkpt lat="40.288853086531162261962890625" lon="-0.989925228059291839599609375">
        <ele>1196</ele>
        <time>2022-05-06T09:10:01.000Z</time>
      </trkpt>
      <trkpt lat="40.28882618062198162078857421875" lon="-0.98991609178483486175537109375">
        <ele>1196</ele>
        <time>2022-05-06T09:10:02.000Z</time>
      </trkpt>
      <trkpt lat="40.2887977659702301025390625" lon="-0.98990871571004390716552734375">
        <ele>1196</ele>
        <time>2022-05-06T09:10:03.000Z</time>
      </trkpt>
      <trkpt lat="40.28874479234218597412109375" lon="-0.98989597521722316741943359375">
        <ele>1196.199951171875</ele>
        <time>2022-05-06T09:10:05.000Z</time>
      </trkpt>
      <trkpt lat="40.28871671296656131744384765625" lon="-0.989888012409210205078125">
        <ele>1196.4000244140625</ele>
        <time>2022-05-06T09:10:06.000Z</time>
      </trkpt>
      <trkpt lat="40.28869022615253925323486328125" lon="-0.98987921141088008880615234375">
        <ele>1196.4000244140625</ele>
        <time>2022-05-06T09:10:07.000Z</time>
      </trkpt>
      <trkpt lat="40.28866357170045375823974609375" lon="-0.9898730926215648651123046875">
        <ele>1196.5999755859375</ele>
        <time>2022-05-06T09:10:08.000Z</time>
      </trkpt>
      <trkpt lat="40.2886386774480342864990234375" lon="-0.989867560565471649169921875">
        <ele>1196.5999755859375</ele>
        <time>2022-05-06T09:10:09.000Z</time>
      </trkpt>
      <trkpt lat="40.28859182260930538177490234375" lon="-0.98985515534877777099609375">
        <ele>1196.800048828125</ele>
        <time>2022-05-06T09:10:11.000Z</time>
      </trkpt>
      <trkpt lat="40.2885414473712444305419921875" lon="-0.98984308540821075439453125">
        <ele>1197</ele>
        <time>2022-05-06T09:10:13.000Z</time>
      </trkpt>
      <trkpt lat="40.288490988314151763916015625" lon="-0.98982824943959712982177734375">
        <ele>1197.199951171875</ele>
        <time>2022-05-06T09:10:15.000Z</time>
      </trkpt>
      <trkpt lat="40.288437344133853912353515625" lon="-0.989813916385173797607421875">
        <ele>1197.4000244140625</ele>
        <time>2022-05-06T09:10:17.000Z</time>
      </trkpt>
      <trkpt lat="40.28838344849646091461181640625" lon="-0.9897989965975284576416015625">
        <ele>1197.5999755859375</ele>
        <time>2022-05-06T09:10:19.000Z</time>
      </trkpt>
      <trkpt lat="40.28835779987275600433349609375" lon="-0.989791788160800933837890625">
        <ele>1197.800048828125</ele>
        <time>2022-05-06T09:10:20.000Z</time>
      </trkpt>
      <trkpt lat="40.28833097778260707855224609375" lon="-0.98978416062891483306884765625">
        <ele>1198</ele>
        <time>2022-05-06T09:10:21.000Z</time>
      </trkpt>
      <trkpt lat="40.28827616013586521148681640625" lon="-0.98976932466030120849609375">
        <ele>1198.199951171875</ele>
        <time>2022-05-06T09:10:23.000Z</time>
      </trkpt>
      <trkpt lat="40.2882199175655841827392578125" lon="-0.98975465632975101470947265625">
        <ele>1198.4000244140625</ele>
        <time>2022-05-06T09:10:25.000Z</time>
      </trkpt>
      <trkpt lat="40.288163088262081146240234375" lon="-0.98973940126597881317138671875">
        <ele>1198.5999755859375</ele>
        <time>2022-05-06T09:10:27.000Z</time>
      </trkpt>
      <trkpt lat="40.28810374438762664794921875" lon="-0.989721715450286865234375">
        <ele>1198.800048828125</ele>
        <time>2022-05-06T09:10:29.000Z</time>
      </trkpt>
      <trkpt lat="40.28807281516492366790771484375" lon="-0.989714004099369049072265625">
        <ele>1199</ele>
        <time>2022-05-06T09:10:30.000Z</time>
      </trkpt>
      <trkpt lat="40.28804213739931583404541015625" lon="-0.9897047840058803558349609375">
        <ele>1199.199951171875</ele>
        <time>2022-05-06T09:10:31.000Z</time>
      </trkpt>
      <trkpt lat="40.28797742910683155059814453125" lon="-0.989686511456966400146484375">
        <ele>1199.4000244140625</ele>
        <time>2022-05-06T09:10:33.000Z</time>
      </trkpt>
      <trkpt lat="40.28791724704205989837646484375" lon="-0.98966966383159160614013671875">
        <ele>1199.4000244140625</ele>
        <time>2022-05-06T09:10:35.000Z</time>
      </trkpt>
      <trkpt lat="40.28785966336727142333984375" lon="-0.9896541573107242584228515625">
        <ele>1199.5999755859375</ele>
        <time>2022-05-06T09:10:37.000Z</time>
      </trkpt>
      <trkpt lat="40.28779990039765834808349609375" lon="-0.98964066244661808013916015625">
        <ele>1199.5999755859375</ele>
        <time>2022-05-06T09:10:39.000Z</time>
      </trkpt>
      <trkpt lat="40.2877441607415676116943359375" lon="-0.9896266646683216094970703125">
        <ele>1199.800048828125</ele>
        <time>2022-05-06T09:10:41.000Z</time>
      </trkpt>
      <trkpt lat="40.287688337266445159912109375" lon="-0.989619456231594085693359375">
        <ele>1199.800048828125</ele>
        <time>2022-05-06T09:10:43.000Z</time>
      </trkpt>
      <trkpt lat="40.28765992261469364166259765625" lon="-0.98961585201323032379150390625">
        <ele>1199.800048828125</ele>
        <time>2022-05-06T09:10:44.000Z</time>
      </trkpt>
      <trkpt lat="40.2876308374106884002685546875" lon="-0.9896119125187397003173828125">
        <ele>1199.800048828125</ele>
        <time>2022-05-06T09:10:45.000Z</time>
      </trkpt>
      <trkpt lat="40.28756973333656787872314453125" lon="-0.9896018542349338531494140625">
        <ele>1199.800048828125</ele>
        <time>2022-05-06T09:10:47.000Z</time>
      </trkpt>
      <trkpt lat="40.2875104732811450958251953125" lon="-0.98958349786698818206787109375">
        <ele>1200</ele>
        <time>2022-05-06T09:10:49.000Z</time>
      </trkpt>
      <trkpt lat="40.28748021461069583892822265625" lon="-0.98957511596381664276123046875">
        <ele>1200</ele>
        <time>2022-05-06T09:10:50.000Z</time>
      </trkpt>
      <trkpt lat="40.2874494530260562896728515625" lon="-0.9895648062229156494140625">
        <ele>1200</ele>
        <time>2022-05-06T09:10:51.000Z</time>
      </trkpt>
      <trkpt lat="40.2874191105365753173828125" lon="-0.98955608904361724853515625">
        <ele>1200.199951171875</ele>
        <time>2022-05-06T09:10:52.000Z</time>
      </trkpt>
      <trkpt lat="40.287389941513538360595703125" lon="-0.9895460307598114013671875">
        <ele>1200.199951171875</ele>
        <time>2022-05-06T09:10:53.000Z</time>
      </trkpt>
      <trkpt lat="40.28733017854392528533935546875" lon="-0.98952750675380229949951171875">
        <ele>1200.199951171875</ele>
        <time>2022-05-06T09:10:55.000Z</time>
      </trkpt>
      <trkpt lat="40.2872710861265659332275390625" lon="-0.98950856365263462066650390625">
        <ele>1200.4000244140625</ele>
        <time>2022-05-06T09:10:57.000Z</time>
      </trkpt>
      <trkpt lat="40.2872144244611263275146484375" lon="-0.98949314095079898834228515625">
        <ele>1200.4000244140625</ele>
        <time>2022-05-06T09:10:59.000Z</time>
      </trkpt>
      <trkpt lat="40.28718374669551849365234375" lon="-0.989483334124088287353515625">
        <ele>1200.4000244140625</ele>
        <time>2022-05-06T09:11:00.000Z</time>
      </trkpt>
      <trkpt lat="40.2871508896350860595703125" lon="-0.98947419784963130950927734375">
        <ele>1200.4000244140625</ele>
        <time>2022-05-06T09:11:01.000Z</time>
      </trkpt>
      <trkpt lat="40.28708852827548980712890625" lon="-0.989458523690700531005859375">
        <ele>1200.199951171875</ele>
        <time>2022-05-06T09:11:03.000Z</time>
      </trkpt>
      <trkpt lat="40.28702817857265472412109375" lon="-0.9894395805895328521728515625">
        <ele>1200.199951171875</ele>
        <time>2022-05-06T09:11:05.000Z</time>
      </trkpt>
      <trkpt lat="40.2869690023362636566162109375" lon="-0.9894228167831897735595703125">
        <ele>1200</ele>
        <time>2022-05-06T09:11:07.000Z</time>
      </trkpt>
      <trkpt lat="40.2869374863803386688232421875" lon="-0.9894124232232570648193359375">
        <ele>1200</ele>
        <time>2022-05-06T09:11:08.000Z</time>
      </trkpt>
      <trkpt lat="40.286904461681842803955078125" lon="-0.98940127529203891754150390625">
        <ele>1199.800048828125</ele>
        <time>2022-05-06T09:11:09.000Z</time>
      </trkpt>
      <trkpt lat="40.28684285469353199005126953125" lon="-0.9893797338008880615234375">
        <ele>1199.800048828125</ele>
        <time>2022-05-06T09:11:11.000Z</time>
      </trkpt>
      <trkpt lat="40.28678543865680694580078125" lon="-0.9893611259758472442626953125">
        <ele>1199.5999755859375</ele>
        <time>2022-05-06T09:11:13.000Z</time>
      </trkpt>
      <trkpt lat="40.28673581779003143310546875" lon="-0.989346541464328765869140625">
        <ele>1199.5999755859375</ele>
        <time>2022-05-06T09:11:15.000Z</time>
      </trkpt>
      <trkpt lat="40.2866830118000507354736328125" lon="-0.98933220840990543365478515625">
        <ele>1199.4000244140625</ele>
        <time>2022-05-06T09:11:17.000Z</time>
      </trkpt>
      <trkpt lat="40.28662978671491146087646484375" lon="-0.98931762389838695526123046875">
        <ele>1199.4000244140625</ele>
        <time>2022-05-06T09:11:19.000Z</time>
      </trkpt>
      <trkpt lat="40.28657756745815277099609375" lon="-0.9893044643104076385498046875">
        <ele>1199.5999755859375</ele>
        <time>2022-05-06T09:11:21.000Z</time>
      </trkpt>
      <trkpt lat="40.28653121553361415863037109375" lon="-0.98929633386433124542236328125">
        <ele>1199.5999755859375</ele>
        <time>2022-05-06T09:11:23.000Z</time>
      </trkpt>
      <trkpt lat="40.2864821814000606536865234375" lon="-0.98928409628570079803466796875">
        <ele>1199.5999755859375</ele>
        <time>2022-05-06T09:11:25.000Z</time>
      </trkpt>
      <trkpt lat="40.28642778284847736358642578125" lon="-0.9892719425261020660400390625">
        <ele>1199.5999755859375</ele>
        <time>2022-05-06T09:11:27.000Z</time>
      </trkpt>
      <trkpt lat="40.28637330047786235809326171875" lon="-0.989256687462329864501953125">
        <ele>1199.5999755859375</ele>
        <time>2022-05-06T09:11:29.000Z</time>
      </trkpt>
      <trkpt lat="40.28631630353629589080810546875" lon="-0.98924067802727222442626953125">
        <ele>1199.5999755859375</ele>
        <time>2022-05-06T09:11:31.000Z</time>
      </trkpt>
      <trkpt lat="40.286259390413761138916015625" lon="-0.98922458477318286895751953125">
        <ele>1200</ele>
        <time>2022-05-06T09:11:33.000Z</time>
      </trkpt>
      <trkpt lat="40.28620448894798755645751953125" lon="-0.98921008408069610595703125">
        <ele>1200.199951171875</ele>
        <time>2022-05-06T09:11:35.000Z</time>
      </trkpt>
      <trkpt lat="40.28614866547286510467529296875" lon="-0.98919440992176532745361328125">
        <ele>1200.5999755859375</ele>
        <time>2022-05-06T09:11:37.000Z</time>
      </trkpt>
      <trkpt lat="40.2860927581787109375" lon="-0.989176221191883087158203125">
        <ele>1200.800048828125</ele>
        <time>2022-05-06T09:11:39.000Z</time>
      </trkpt>
      <trkpt lat="40.28603576123714447021484375" lon="-0.98915937356650829315185546875">
        <ele>1201.199951171875</ele>
        <time>2022-05-06T09:11:41.000Z</time>
      </trkpt>
      <trkpt lat="40.28597750701010227203369140625" lon="-0.98914034664630889892578125">
        <ele>1201.4000244140625</ele>
        <time>2022-05-06T09:11:43.000Z</time>
      </trkpt>
      <trkpt lat="40.28592101298272609710693359375" lon="-0.989124588668346405029296875">
        <ele>1201.5999755859375</ele>
        <time>2022-05-06T09:11:45.000Z</time>
      </trkpt>
      <trkpt lat="40.2858656086027622222900390625" lon="-0.98911042325198650360107421875">
        <ele>1201.800048828125</ele>
        <time>2022-05-06T09:11:47.000Z</time>
      </trkpt>
      <trkpt lat="40.28581037186086177825927734375" lon="-0.98909801803529262542724609375">
        <ele>1202</ele>
        <time>2022-05-06T09:11:49.000Z</time>
      </trkpt>
      <trkpt lat="40.2857532911002635955810546875" lon="-0.98908460699021816253662109375">
        <ele>1202.199951171875</ele>
        <time>2022-05-06T09:11:51.000Z</time>
      </trkpt>
      <trkpt lat="40.28569939546287059783935546875" lon="-0.98907270468771457672119140625">
        <ele>1202.4000244140625</ele>
        <time>2022-05-06T09:11:53.000Z</time>
      </trkpt>
      <trkpt lat="40.28564759530127048492431640625" lon="-0.98905988037586212158203125">
        <ele>1202.5999755859375</ele>
        <time>2022-05-06T09:11:55.000Z</time>
      </trkpt>
      <trkpt lat="40.28559495694935321807861328125" lon="-0.98904915153980255126953125">
        <ele>1202.800048828125</ele>
        <time>2022-05-06T09:11:57.000Z</time>
      </trkpt>
      <trkpt lat="40.28556562028825283050537109375" lon="-0.98904311656951904296875">
        <ele>1203</ele>
        <time>2022-05-06T09:11:58.000Z</time>
      </trkpt>
      <trkpt lat="40.285535864531993865966796875" lon="-0.98903632722795009613037109375">
        <ele>1203</ele>
        <time>2022-05-06T09:11:59.000Z</time>
      </trkpt>
      <trkpt lat="40.28547761030495166778564453125" lon="-0.98902157507836818695068359375">
        <ele>1203.4000244140625</ele>
        <time>2022-05-06T09:12:01.000Z</time>
      </trkpt>
      <trkpt lat="40.28542019426822662353515625" lon="-0.98900799639523029327392578125">
        <ele>1203.5999755859375</ele>
        <time>2022-05-06T09:12:03.000Z</time>
      </trkpt>
      <trkpt lat="40.2853653766214847564697265625" lon="-0.988993160426616668701171875">
        <ele>1203.800048828125</ele>
        <time>2022-05-06T09:12:05.000Z</time>
      </trkpt>
      <trkpt lat="40.28530963696539402008056640625" lon="-0.988974384963512420654296875">
        <ele>1204</ele>
        <time>2022-05-06T09:12:07.000Z</time>
      </trkpt>
      <trkpt lat="40.2852530591189861297607421875" lon="-0.98895971663296222686767578125">
        <ele>1204.199951171875</ele>
        <time>2022-05-06T09:12:09.000Z</time>
      </trkpt>
      <trkpt lat="40.2851928770542144775390625" lon="-0.98894462920725345611572265625">
        <ele>1204.5999755859375</ele>
        <time>2022-05-06T09:12:11.000Z</time>
      </trkpt>
      <trkpt lat="40.28512808494269847869873046875" lon="-0.9889266081154346466064453125">
        <ele>1204.800048828125</ele>
        <time>2022-05-06T09:12:13.000Z</time>
      </trkpt>
      <trkpt lat="40.285065136849880218505859375" lon="-0.988910682499408721923828125">
        <ele>1205</ele>
        <time>2022-05-06T09:12:15.000Z</time>
      </trkpt>
      <trkpt lat="40.2850358001887798309326171875" lon="-0.98890171386301517486572265625">
        <ele>1205</ele>
        <time>2022-05-06T09:12:16.000Z</time>
      </trkpt>
      <trkpt lat="40.28500637970864772796630859375" lon="-0.98889358341693878173828125">
        <ele>1205.199951171875</ele>
        <time>2022-05-06T09:12:17.000Z</time>
      </trkpt>
      <trkpt lat="40.28494837693870067596435546875" lon="-0.98887623287737369537353515625">
        <ele>1205.4000244140625</ele>
        <time>2022-05-06T09:12:19.000Z</time>
      </trkpt>
      <trkpt lat="40.28488853015005588531494140625" lon="-0.98885963670909404754638671875">
        <ele>1205.5999755859375</ele>
        <time>2022-05-06T09:12:21.000Z</time>
      </trkpt>
      <trkpt lat="40.28485818766057491302490234375" lon="-0.98885125480592250823974609375">
        <ele>1205.5999755859375</ele>
        <time>2022-05-06T09:12:22.000Z</time>
      </trkpt>
      <trkpt lat="40.2848285995423793792724609375" lon="-0.988842956721782684326171875">
        <ele>1205.800048828125</ele>
        <time>2022-05-06T09:12:23.000Z</time>
      </trkpt>
      <trkpt lat="40.28477068059146404266357421875" lon="-0.9888270311057567596435546875">
        <ele>1206</ele>
        <time>2022-05-06T09:12:25.000Z</time>
      </trkpt>
      <trkpt lat="40.28471209108829498291015625" lon="-0.98881219513714313507080078125">
        <ele>1206.199951171875</ele>
        <time>2022-05-06T09:12:27.000Z</time>
      </trkpt>
      <trkpt lat="40.284657776355743408203125" lon="-0.98879811353981494903564453125">
        <ele>1206.199951171875</ele>
        <time>2022-05-06T09:12:29.000Z</time>
      </trkpt>
      <trkpt lat="40.28460488654673099517822265625" lon="-0.98878554068505764007568359375">
        <ele>1206</ele>
        <time>2022-05-06T09:12:31.000Z</time>
      </trkpt>
      <trkpt lat="40.28455057181417942047119140625" lon="-0.988770537078380584716796875">
        <ele>1205.800048828125</ele>
        <time>2022-05-06T09:12:33.000Z</time>
      </trkpt>
      <trkpt lat="40.28450145386159420013427734375" lon="-0.98875653930008411407470703125">
        <ele>1205.800048828125</ele>
        <time>2022-05-06T09:12:35.000Z</time>
      </trkpt>
      <trkpt lat="40.28444646857678890228271484375" lon="-0.98874061368405818939208984375">
        <ele>1205.5999755859375</ele>
        <time>2022-05-06T09:12:37.000Z</time>
      </trkpt>
      <trkpt lat="40.2843850292265415191650390625" lon="-0.98872619681060314178466796875">
        <ele>1205.4000244140625</ele>
        <time>2022-05-06T09:12:39.000Z</time>
      </trkpt>
      <trkpt lat="40.28432291932404041290283203125" lon="-0.98871177993714809417724609375">
        <ele>1205.199951171875</ele>
        <time>2022-05-06T09:12:41.000Z</time>
      </trkpt>
      <trkpt lat="40.28426156379282474517822265625" lon="-0.988694764673709869384765625">
        <ele>1205</ele>
        <time>2022-05-06T09:12:43.000Z</time>
      </trkpt>
      <trkpt lat="40.2842016331851482391357421875" lon="-0.98867590539157390594482421875">
        <ele>1204.800048828125</ele>
        <time>2022-05-06T09:12:45.000Z</time>
      </trkpt>
      <trkpt lat="40.28414304368197917938232421875" lon="-0.988661907613277435302734375">
        <ele>1204.5999755859375</ele>
        <time>2022-05-06T09:12:47.000Z</time>
      </trkpt>
      <trkpt lat="40.28408638201653957366943359375" lon="-0.98864740692079067230224609375">
        <ele>1204.4000244140625</ele>
        <time>2022-05-06T09:12:49.000Z</time>
      </trkpt>
      <trkpt lat="40.28403106145560741424560546875" lon="-0.98863416351377964019775390625">
        <ele>1204.199951171875</ele>
        <time>2022-05-06T09:12:51.000Z</time>
      </trkpt>
      <trkpt lat="40.2839712984859943389892578125" lon="-0.98861991427838802337646484375">
        <ele>1204.199951171875</ele>
        <time>2022-05-06T09:12:53.000Z</time>
      </trkpt>
      <trkpt lat="40.28390784747898578643798828125" lon="-0.98860734142363071441650390625">
        <ele>1204</ele>
        <time>2022-05-06T09:12:55.000Z</time>
      </trkpt>
      <trkpt lat="40.28387566097080707550048828125" lon="-0.988600887358188629150390625">
        <ele>1204</ele>
        <time>2022-05-06T09:12:56.000Z</time>
      </trkpt>
      <trkpt lat="40.28384364210069179534912109375" lon="-0.9885936789214611053466796875">
        <ele>1203.800048828125</ele>
        <time>2022-05-06T09:12:57.000Z</time>
      </trkpt>
      <trkpt lat="40.28378161601722240447998046875" lon="-0.98857834003865718841552734375">
        <ele>1203.800048828125</ele>
        <time>2022-05-06T09:12:59.000Z</time>
      </trkpt>
      <trkpt lat="40.28371958993375301361083984375" lon="-0.9885618276894092559814453125">
        <ele>1203.5999755859375</ele>
        <time>2022-05-06T09:13:01.000Z</time>
      </trkpt>
      <trkpt lat="40.28365437872707843780517578125" lon="-0.9885455667972564697265625">
        <ele>1203.5999755859375</ele>
        <time>2022-05-06T09:13:03.000Z</time>
      </trkpt>
      <trkpt lat="40.28358883224427700042724609375" lon="-0.9885306470096111297607421875">
        <ele>1203.4000244140625</ele>
        <time>2022-05-06T09:13:05.000Z</time>
      </trkpt>
      <trkpt lat="40.283556394279003143310546875" lon="-0.98852184601128101348876953125">
        <ele>1203.4000244140625</ele>
        <time>2022-05-06T09:13:06.000Z</time>
      </trkpt>
      <trkpt lat="40.28352479450404644012451171875" lon="-0.98851011134684085845947265625">
        <ele>1203.4000244140625</ele>
        <time>2022-05-06T09:13:07.000Z</time>
      </trkpt>
      <trkpt lat="40.28346486389636993408203125" lon="-0.9884830377995967864990234375">
        <ele>1203.199951171875</ele>
        <time>2022-05-06T09:13:09.000Z</time>
      </trkpt>
      <trkpt lat="40.2834065258502960205078125" lon="-0.98846501670777797698974609375">
        <ele>1203.199951171875</ele>
        <time>2022-05-06T09:13:11.000Z</time>
      </trkpt>
      <trkpt lat="40.28337978757917881011962890625" lon="-0.988458730280399322509765625">
        <ele>1203.4000244140625</ele>
        <time>2022-05-06T09:13:12.000Z</time>
      </trkpt>
      <trkpt lat="40.28335615061223506927490234375" lon="-0.988454036414623260498046875">
        <ele>1203.4000244140625</ele>
        <time>2022-05-06T09:13:13.000Z</time>
      </trkpt>
      <trkpt lat="40.2833118103444576263427734375" lon="-0.98844121210277080535888671875">
        <ele>1203.800048828125</ele>
        <time>2022-05-06T09:13:15.000Z</time>
      </trkpt>
      <trkpt lat="40.283262021839618682861328125" lon="-0.98842277191579341888427734375">
        <ele>1204</ele>
        <time>2022-05-06T09:13:17.000Z</time>
      </trkpt>
      <trkpt lat="40.28320879675447940826416015625" lon="-0.98840785212814807891845703125">
        <ele>1204.4000244140625</ele>
        <time>2022-05-06T09:13:19.000Z</time>
      </trkpt>
      <trkpt lat="40.28315397910773754119873046875" lon="-0.9883908368647098541259765625">
        <ele>1204.800048828125</ele>
        <time>2022-05-06T09:13:21.000Z</time>
      </trkpt>
      <trkpt lat="40.2831274084746837615966796875" lon="-0.98838404752314090728759765625">
        <ele>1204.800048828125</ele>
        <time>2022-05-06T09:13:22.000Z</time>
      </trkpt>
      <trkpt lat="40.2830999158322811126708984375" lon="-0.98837725818157196044921875">
        <ele>1205</ele>
        <time>2022-05-06T09:13:23.000Z</time>
      </trkpt>
      <trkpt lat="40.283044092357158660888671875" lon="-0.988361500203609466552734375">
        <ele>1205.4000244140625</ele>
        <time>2022-05-06T09:13:25.000Z</time>
      </trkpt>
      <trkpt lat="40.28298902325332164764404296875" lon="-0.9883462451398372650146484375">
        <ele>1205.5999755859375</ele>
        <time>2022-05-06T09:13:27.000Z</time>
      </trkpt>
      <trkpt lat="40.282960273325443267822265625" lon="-0.98833727650344371795654296875">
        <ele>1205.800048828125</ele>
        <time>2022-05-06T09:13:28.000Z</time>
      </trkpt>
      <trkpt lat="40.28293219394981861114501953125" lon="-0.98832855932414531707763671875">
        <ele>1206</ele>
        <time>2022-05-06T09:13:29.000Z</time>
      </trkpt>
      <trkpt lat="40.28287804685533046722412109375" lon="-0.9883123822510242462158203125">
        <ele>1206.199951171875</ele>
        <time>2022-05-06T09:13:31.000Z</time>
      </trkpt>
      <trkpt lat="40.2828204631805419921875" lon="-0.988298468291759490966796875">
        <ele>1206.5999755859375</ele>
        <time>2022-05-06T09:13:33.000Z</time>
      </trkpt>
      <trkpt lat="40.282761789858341217041015625" lon="-0.98828447051346302032470703125">
        <ele>1206.800048828125</ele>
        <time>2022-05-06T09:13:35.000Z</time>
      </trkpt>
      <trkpt lat="40.2827063016593456268310546875" lon="-0.98827072419226169586181640625">
        <ele>1207.199951171875</ele>
        <time>2022-05-06T09:13:37.000Z</time>
      </trkpt>
      <trkpt lat="40.28264586813747882843017578125" lon="-0.988256223499774932861328125">
        <ele>1207.5999755859375</ele>
        <time>2022-05-06T09:13:39.000Z</time>
      </trkpt>
      <trkpt lat="40.28258099220693111419677734375" lon="-0.98824071697890758514404296875">
        <ele>1208.199951171875</ele>
        <time>2022-05-06T09:13:41.000Z</time>
      </trkpt>
      <trkpt lat="40.28254880569875240325927734375" lon="-0.988233424723148345947265625">
        <ele>1208.4000244140625</ele>
        <time>2022-05-06T09:13:42.000Z</time>
      </trkpt>
      <trkpt lat="40.28251913376152515411376953125" lon="-0.98822814412415027618408203125">
        <ele>1208.5999755859375</ele>
        <time>2022-05-06T09:13:43.000Z</time>
      </trkpt>
      <trkpt lat="40.2824568562209606170654296875" lon="-0.988213308155536651611328125">
        <ele>1209</ele>
        <time>2022-05-06T09:13:45.000Z</time>
      </trkpt>
      <trkpt lat="40.2823928184807300567626953125" lon="-0.98820115439593791961669921875">
        <ele>1209.4000244140625</ele>
        <time>2022-05-06T09:13:47.000Z</time>
      </trkpt>
      <trkpt lat="40.28235870413482189178466796875" lon="-0.9881940297782421112060546875">
        <ele>1209.5999755859375</ele>
        <time>2022-05-06T09:13:48.000Z</time>
      </trkpt>
      <trkpt lat="40.2823274396359920501708984375" lon="-0.98818472586572170257568359375">
        <ele>1210</ele>
        <time>2022-05-06T09:13:49.000Z</time>
      </trkpt>
      <trkpt lat="40.28226792812347412109375" lon="-0.9881646931171417236328125">
        <ele>1210.4000244140625</ele>
        <time>2022-05-06T09:13:51.000Z</time>
      </trkpt>
      <trkpt lat="40.28220816515386104583740234375" lon="-0.98814751021564006805419921875">
        <ele>1211</ele>
        <time>2022-05-06T09:13:53.000Z</time>
      </trkpt>
      <trkpt lat="40.2821477316319942474365234375" lon="-0.9881303273141384124755859375">
        <ele>1211.4000244140625</ele>
        <time>2022-05-06T09:13:55.000Z</time>
      </trkpt>
      <trkpt lat="40.2821165509521961212158203125" lon="-0.98811951465904712677001953125">
        <ele>1211.5999755859375</ele>
        <time>2022-05-06T09:13:56.000Z</time>
      </trkpt>
      <trkpt lat="40.28208595700562000274658203125" lon="-0.988109372556209564208984375">
        <ele>1211.800048828125</ele>
        <time>2022-05-06T09:13:57.000Z</time>
      </trkpt>
      <trkpt lat="40.2820230089128017425537109375" lon="-0.988095290958881378173828125">
        <ele>1211.800048828125</ele>
        <time>2022-05-06T09:13:59.000Z</time>
      </trkpt>
      <trkpt lat="40.28196156956255435943603515625" lon="-0.98808028735220432281494140625">
        <ele>1212</ele>
        <time>2022-05-06T09:14:01.000Z</time>
      </trkpt>
      <trkpt lat="40.28189937584102153778076171875" lon="-0.9880642779171466827392578125">
        <ele>1212.199951171875</ele>
        <time>2022-05-06T09:14:03.000Z</time>
      </trkpt>
      <trkpt lat="40.281869284808635711669921875" lon="-0.9880552254617214202880859375">
        <ele>1212.199951171875</ele>
        <time>2022-05-06T09:14:04.000Z</time>
      </trkpt>
      <trkpt lat="40.28183969669044017791748046875" lon="-0.98804810084402561187744140625">
        <ele>1212.199951171875</ele>
        <time>2022-05-06T09:14:05.000Z</time>
      </trkpt>
      <trkpt lat="40.28178236447274684906005859375" lon="-0.98803301341831684112548828125">
        <ele>1212.4000244140625</ele>
        <time>2022-05-06T09:14:07.000Z</time>
      </trkpt>
      <trkpt lat="40.2817252837121486663818359375" lon="-0.98801809363067150115966796875">
        <ele>1212.4000244140625</ele>
        <time>2022-05-06T09:14:09.000Z</time>
      </trkpt>
      <trkpt lat="40.2816987968981266021728515625" lon="-0.98801122047007083892822265625">
        <ele>1212.5999755859375</ele>
        <time>2022-05-06T09:14:10.000Z</time>
      </trkpt>
      <trkpt lat="40.28167189098894596099853515625" lon="-0.98800535313785076141357421875">
        <ele>1212.5999755859375</ele>
        <time>2022-05-06T09:14:11.000Z</time>
      </trkpt>
      <trkpt lat="40.28161682188510894775390625" lon="-0.98799177445471286773681640625">
        <ele>1212.5999755859375</ele>
        <time>2022-05-06T09:14:13.000Z</time>
      </trkpt>
      <trkpt lat="40.28155856765806674957275390625" lon="-0.98797668702900409698486328125">
        <ele>1212.800048828125</ele>
        <time>2022-05-06T09:14:15.000Z</time>
      </trkpt>
      <trkpt lat="40.281498469412326812744140625" lon="-0.98795807920396327972412109375">
        <ele>1212.800048828125</ele>
        <time>2022-05-06T09:14:17.000Z</time>
      </trkpt>
      <trkpt lat="40.2814372815191745758056640625" lon="-0.98794098012149333953857421875">
        <ele>1213</ele>
        <time>2022-05-06T09:14:19.000Z</time>
      </trkpt>
      <trkpt lat="40.28138070367276668548583984375" lon="-0.9879237972199916839599609375">
        <ele>1213.199951171875</ele>
        <time>2022-05-06T09:14:21.000Z</time>
      </trkpt>
      <trkpt lat="40.28136041946709156036376953125" lon="-0.98791860044002532958984375">
        <ele>1213.199951171875</ele>
        <time>2022-05-06T09:14:22.000Z</time>
      </trkpt>
      <trkpt lat="40.28135036118328571319580078125" lon="-0.98791717551648616790771484375">
        <ele>1213.199951171875</ele>
        <time>2022-05-06T09:14:23.000Z</time>
      </trkpt>
      <trkpt lat="40.28135002590715885162353515625" lon="-0.9879187680780887603759765625">
        <ele>1213.199951171875</ele>
        <time>2022-05-06T09:14:25.000Z</time>
      </trkpt>
      <trkpt lat="40.281245000660419464111328125" lon="-0.98789655603468418121337890625">
        <ele>1213.199951171875</ele>
        <time>2022-05-06T09:15:35.000Z</time>
      </trkpt>
      <trkpt lat="40.281203426420688629150390625" lon="-0.98788565956056118011474609375">
        <ele>1213.199951171875</ele>
        <time>2022-05-06T09:15:37.000Z</time>
      </trkpt>
      <trkpt lat="40.2811657078564167022705078125" lon="-0.9878728352487087249755859375">
        <ele>1213.4000244140625</ele>
        <time>2022-05-06T09:15:39.000Z</time>
      </trkpt>
      <trkpt lat="40.28111851774156093597412109375" lon="-0.98786034621298313140869140625">
        <ele>1213.4000244140625</ele>
        <time>2022-05-06T09:15:41.000Z</time>
      </trkpt>
      <trkpt lat="40.28107367455959320068359375" lon="-0.98784877918660640716552734375">
        <ele>1213.4000244140625</ele>
        <time>2022-05-06T09:15:43.000Z</time>
      </trkpt>
      <trkpt lat="40.2810252271592617034912109375" lon="-0.98784073255956172943115234375">
        <ele>1213.4000244140625</ele>
        <time>2022-05-06T09:15:45.000Z</time>
      </trkpt>
      <trkpt lat="40.280973426997661590576171875" lon="-0.98782497458159923553466796875">
        <ele>1213.4000244140625</ele>
        <time>2022-05-06T09:15:47.000Z</time>
      </trkpt>
      <trkpt lat="40.28091919608414173126220703125" lon="-0.9878047741949558258056640625">
        <ele>1213.5999755859375</ele>
        <time>2022-05-06T09:15:49.000Z</time>
      </trkpt>
      <trkpt lat="40.280890949070453643798828125" lon="-0.987796895205974578857421875">
        <ele>1213.5999755859375</ele>
        <time>2022-05-06T09:15:50.000Z</time>
      </trkpt>
      <trkpt lat="40.28086354024708271026611328125" lon="-0.98778926767408847808837890625">
        <ele>1213.5999755859375</ele>
        <time>2022-05-06T09:15:51.000Z</time>
      </trkpt>
      <trkpt lat="40.280809141695499420166015625" lon="-0.9877756051719188690185546875">
        <ele>1213.5999755859375</ele>
        <time>2022-05-06T09:15:53.000Z</time>
      </trkpt>
      <trkpt lat="40.28075583279132843017578125" lon="-0.98776278086006641387939453125">
        <ele>1213.5999755859375</ele>
        <time>2022-05-06T09:15:55.000Z</time>
      </trkpt>
      <trkpt lat="40.28070361353456974029541015625" lon="-0.98774752579629421234130859375">
        <ele>1213.4000244140625</ele>
        <time>2022-05-06T09:15:57.000Z</time>
      </trkpt>
      <trkpt lat="40.280652903020381927490234375" lon="-0.9877347014844417572021484375">
        <ele>1213.199951171875</ele>
        <time>2022-05-06T09:15:59.000Z</time>
      </trkpt>
      <trkpt lat="40.28062708675861358642578125" lon="-0.98772807978093624114990234375">
        <ele>1213</ele>
        <time>2022-05-06T09:16:00.000Z</time>
      </trkpt>
      <trkpt lat="40.2806021086871623992919921875" lon="-0.9877226315438747406005859375">
        <ele>1213</ele>
        <time>2022-05-06T09:16:01.000Z</time>
      </trkpt>
      <trkpt lat="40.28055391274392604827880859375" lon="-0.98771114833652973175048828125">
        <ele>1212.800048828125</ele>
        <time>2022-05-06T09:16:03.000Z</time>
      </trkpt>
      <trkpt lat="40.28050730936229228973388671875" lon="-0.98771047778427600860595703125">
        <ele>1212.5999755859375</ele>
        <time>2022-05-06T09:16:05.000Z</time>
      </trkpt>
      <trkpt lat="40.2804723568260669708251953125" lon="-0.9877316839993000030517578125">
        <ele>1212.199951171875</ele>
        <time>2022-05-06T09:16:07.000Z</time>
      </trkpt>
      <trkpt lat="40.2804552577435970306396484375" lon="-0.9877678938210010528564453125">
        <ele>1212.199951171875</ele>
        <time>2022-05-06T09:16:09.000Z</time>
      </trkpt>
      <trkpt lat="40.28044796548783779144287109375" lon="-0.9877836517989635467529296875">
        <ele>1212</ele>
        <time>2022-05-06T09:16:11.000Z</time>
      </trkpt>
      <trkpt lat="40.2804394997656345367431640625" lon="-0.98778440617024898529052734375">
        <ele>1212</ele>
        <time>2022-05-06T09:16:13.000Z</time>
      </trkpt>
      <trkpt lat="40.280428268015384674072265625" lon="-0.987790189683437347412109375">
        <ele>1212</ele>
        <time>2022-05-06T09:16:15.000Z</time>
      </trkpt>
      <trkpt lat="40.2804210595786571502685546875" lon="-0.9878248907625675201416015625">
        <ele>1212</ele>
        <time>2022-05-06T09:16:17.000Z</time>
      </trkpt>
      <trkpt lat="40.28041510842740535736083984375" lon="-0.98784727044403553009033203125">
        <ele>1211.800048828125</ele>
        <time>2022-05-06T09:16:18.000Z</time>
      </trkpt>
      <trkpt lat="40.2804126776754856109619140625" lon="-0.987869985401630401611328125">
        <ele>1211.800048828125</ele>
        <time>2022-05-06T09:16:19.000Z</time>
      </trkpt>
      <trkpt lat="40.280417539179325103759765625" lon="-0.98791482858359813690185546875">
        <ele>1211.5999755859375</ele>
        <time>2022-05-06T09:16:21.000Z</time>
      </trkpt>
      <trkpt lat="40.28042382560670375823974609375" lon="-0.98795841448009014129638671875">
        <ele>1211.4000244140625</ele>
        <time>2022-05-06T09:16:23.000Z</time>
      </trkpt>
      <trkpt lat="40.28042231686413288116455078125" lon="-0.987983979284763336181640625">
        <ele>1211.4000244140625</ele>
        <time>2022-05-06T09:16:24.000Z</time>
      </trkpt>
      <trkpt lat="40.28042080812156200408935546875" lon="-0.98801314830780029296875">
        <ele>1211.199951171875</ele>
        <time>2022-05-06T09:16:25.000Z</time>
      </trkpt>
      <trkpt lat="40.28042466379702091217041015625" lon="-0.988075174391269683837890625">
        <ele>1211</ele>
        <time>2022-05-06T09:16:27.000Z</time>
      </trkpt>
      <trkpt lat="40.28043262660503387451171875" lon="-0.98814868368208408355712890625">
        <ele>1210.800048828125</ele>
        <time>2022-05-06T09:16:29.000Z</time>
      </trkpt>
      <trkpt lat="40.2804381586611270904541015625" lon="-0.9881920181214809417724609375">
        <ele>1210.800048828125</ele>
        <time>2022-05-06T09:16:30.000Z</time>
      </trkpt>
      <trkpt lat="40.2804458700120449066162109375" lon="-0.98823552019894123077392578125">
        <ele>1210.5999755859375</ele>
        <time>2022-05-06T09:16:31.000Z</time>
      </trkpt>
      <trkpt lat="40.28046607039868831634521484375" lon="-0.98832520656287670135498046875">
        <ele>1210.4000244140625</ele>
        <time>2022-05-06T09:16:33.000Z</time>
      </trkpt>
      <trkpt lat="40.28047763742506504058837890625" lon="-0.9883739054203033447265625">
        <ele>1210.4000244140625</ele>
        <time>2022-05-06T09:16:34.000Z</time>
      </trkpt>
      <trkpt lat="40.28048987500369548797607421875" lon="-0.98842478357255458831787109375">
        <ele>1210.199951171875</ele>
        <time>2022-05-06T09:16:35.000Z</time>
      </trkpt>
      <trkpt lat="40.280521474778652191162109375" lon="-0.98852855153381824493408203125">
        <ele>1210</ele>
        <time>2022-05-06T09:16:37.000Z</time>
      </trkpt>
      <trkpt lat="40.28054804541170597076416015625" lon="-0.98861874081194400787353515625">
        <ele>1209.800048828125</ele>
        <time>2022-05-06T09:16:39.000Z</time>
      </trkpt>
      <trkpt lat="40.28056413866579532623291015625" lon="-0.98870490677654743194580078125">
        <ele>1209.5999755859375</ele>
        <time>2022-05-06T09:16:41.000Z</time>
      </trkpt>
      <trkpt lat="40.2805674076080322265625" lon="-0.98878587596118450164794921875">
        <ele>1209.4000244140625</ele>
        <time>2022-05-06T09:16:43.000Z</time>
      </trkpt>
      <trkpt lat="40.280565060675144195556640625" lon="-0.9888206608593463897705078125">
        <ele>1209.199951171875</ele>
        <time>2022-05-06T09:16:44.000Z</time>
      </trkpt>
      <trkpt lat="40.28055869042873382568359375" lon="-0.98885125480592250823974609375">
        <ele>1209</ele>
        <time>2022-05-06T09:16:45.000Z</time>
      </trkpt>
      <trkpt lat="40.28054435737431049346923828125" lon="-0.988897942006587982177734375">
        <ele>1208.5999755859375</ele>
        <time>2022-05-06T09:16:47.000Z</time>
      </trkpt>
      <trkpt lat="40.2805427648127079010009765625" lon="-0.9889245964586734771728515625">
        <ele>1208.5999755859375</ele>
        <time>2022-05-06T09:16:48.000Z</time>
      </trkpt>
      <trkpt lat="40.280540250241756439208984375" lon="-0.9889497421681880950927734375">
        <ele>1208.4000244140625</ele>
        <time>2022-05-06T09:16:49.000Z</time>
      </trkpt>
      <trkpt lat="40.28053279034793376922607421875" lon="-0.98899282515048980712890625">
        <ele>1208.4000244140625</ele>
        <time>2022-05-06T09:16:51.000Z</time>
      </trkpt>
      <trkpt lat="40.2805246599018573760986328125" lon="-0.989026017487049102783203125">
        <ele>1208.5999755859375</ele>
        <time>2022-05-06T09:16:53.000Z</time>
      </trkpt>
      <trkpt lat="40.28041183948516845703125" lon="-0.9895042888820171356201171875">
        <ele>1208.199951171875</ele>
        <time>2022-05-06T09:17:06.000Z</time>
      </trkpt>
      <trkpt lat="40.280384011566638946533203125" lon="-0.989524237811565399169921875">
        <ele>1208</ele>
        <time>2022-05-06T09:17:07.000Z</time>
      </trkpt>
      <trkpt lat="40.2803590334951877593994140625" lon="-0.98959439434111118316650390625">
        <ele>1208</ele>
        <time>2022-05-06T09:17:09.000Z</time>
      </trkpt>
      <trkpt lat="40.2803528308868408203125" lon="-0.9896774590015411376953125">
        <ele>1207.800048828125</ele>
        <time>2022-05-06T09:17:11.000Z</time>
      </trkpt>
      <trkpt lat="40.2803090773522853851318359375" lon="-0.98966245539486408233642578125">
        <ele>1207.800048828125</ele>
        <time>2022-05-06T09:17:12.000Z</time>
      </trkpt>
      <trkpt lat="40.280245207250118255615234375" lon="-0.98960948176681995391845703125">
        <ele>1207.5999755859375</ele>
        <time>2022-05-06T09:17:13.000Z</time>
      </trkpt>
      <trkpt lat="40.2801729552447795867919921875" lon="-0.9895800612866878509521484375">
        <ele>1207.5999755859375</ele>
        <time>2022-05-06T09:17:15.000Z</time>
      </trkpt>
      <trkpt lat="40.28012945316731929779052734375" lon="-0.98956388421356678009033203125">
        <ele>1207.4000244140625</ele>
        <time>2022-05-06T09:17:16.000Z</time>
      </trkpt>
      <trkpt lat="40.28007312677800655364990234375" lon="-0.989528931677341461181640625">
        <ele>1207.4000244140625</ele>
        <time>2022-05-06T09:17:17.000Z</time>
      </trkpt>
      <trkpt lat="40.2799979411065578460693359375" lon="-0.9894784726202487945556640625">
        <ele>1207.199951171875</ele>
        <time>2022-05-06T09:17:19.000Z</time>
      </trkpt>
      <trkpt lat="40.27995058335363864898681640625" lon="-0.98942600190639495849609375">
        <ele>1207.199951171875</ele>
        <time>2022-05-06T09:17:21.000Z</time>
      </trkpt>
      <trkpt lat="40.27992761693894863128662109375" lon="-0.98939943127334117889404296875">
        <ele>1207.4000244140625</ele>
        <time>2022-05-06T09:17:22.000Z</time>
      </trkpt>
      <trkpt lat="40.2799054048955440521240234375" lon="-0.98937143571674823760986328125">
        <ele>1207.4000244140625</ele>
        <time>2022-05-06T09:17:23.000Z</time>
      </trkpt>
      <trkpt lat="40.2798695303499698638916015625" lon="-0.9893255867063999176025390625">
        <ele>1207.800048828125</ele>
        <time>2022-05-06T09:17:25.000Z</time>
      </trkpt>
      <trkpt lat="40.27982301078736782073974609375" lon="-0.9892796538770198822021484375">
        <ele>1208</ele>
        <time>2022-05-06T09:17:27.000Z</time>
      </trkpt>
      <trkpt lat="40.27977540157735347747802734375" lon="-0.989244617521762847900390625">
        <ele>1208.199951171875</ele>
        <time>2022-05-06T09:17:29.000Z</time>
      </trkpt>
      <trkpt lat="40.27975025586783885955810546875" lon="-0.98922693170607089996337890625">
        <ele>1208.4000244140625</ele>
        <time>2022-05-06T09:17:30.000Z</time>
      </trkpt>
      <trkpt lat="40.27972519397735595703125" lon="-0.98921100609004497528076171875">
        <ele>1208.4000244140625</ele>
        <time>2022-05-06T09:17:31.000Z</time>
      </trkpt>
      <trkpt lat="40.27967431582510471343994140625" lon="-0.98918787203729152679443359375">
        <ele>1208.5999755859375</ele>
        <time>2022-05-06T09:17:33.000Z</time>
      </trkpt>
      <trkpt lat="40.2796485833823680877685546875" lon="-0.9891737066209316253662109375">
        <ele>1208.800048828125</ele>
        <time>2022-05-06T09:17:34.000Z</time>
      </trkpt>
      <trkpt lat="40.27962402440607547760009765625" lon="-0.98916113376617431640625">
        <ele>1208.800048828125</ele>
        <time>2022-05-06T09:17:35.000Z</time>
      </trkpt>
      <trkpt lat="40.27957473881542682647705078125" lon="-0.98913908936083316802978515625">
        <ele>1209</ele>
        <time>2022-05-06T09:17:37.000Z</time>
      </trkpt>
      <trkpt lat="40.27952327392995357513427734375" lon="-0.98911427892744541168212890625">
        <ele>1209.199951171875</ele>
        <time>2022-05-06T09:17:39.000Z</time>
      </trkpt>
      <trkpt lat="40.279472060501575469970703125" lon="-0.98909164778888225555419921875">
        <ele>1209.4000244140625</ele>
        <time>2022-05-06T09:17:41.000Z</time>
      </trkpt>
      <trkpt lat="40.27941799722611904144287109375" lon="-0.98907119594514369964599609375">
        <ele>1209.800048828125</ele>
        <time>2022-05-06T09:17:43.000Z</time>
      </trkpt>
      <trkpt lat="40.2793917618691921234130859375" lon="-0.9890644066035747528076171875">
        <ele>1209.800048828125</ele>
        <time>2022-05-06T09:17:44.000Z</time>
      </trkpt>
      <trkpt lat="40.2793659456074237823486328125" lon="-0.98905594088137149810791015625">
        <ele>1210</ele>
        <time>2022-05-06T09:17:45.000Z</time>
      </trkpt>
      <trkpt lat="40.27931473217904567718505859375" lon="-0.98904018290340900421142578125">
        <ele>1210.4000244140625</ele>
        <time>2022-05-06T09:17:47.000Z</time>
      </trkpt>
      <trkpt lat="40.2792633511126041412353515625" lon="-0.98903079517185688018798828125">
        <ele>1210.800048828125</ele>
        <time>2022-05-06T09:17:49.000Z</time>
      </trkpt>
      <trkpt lat="40.27923812158405780792236328125" lon="-0.9890261851251125335693359375">
        <ele>1211</ele>
        <time>2022-05-06T09:17:50.000Z</time>
      </trkpt>
      <trkpt lat="40.27921247296035289764404296875" lon="-0.989020653069019317626953125">
        <ele>1211.199951171875</ele>
        <time>2022-05-06T09:17:51.000Z</time>
      </trkpt>
      <trkpt lat="40.27916503138840198516845703125" lon="-0.9890067391097545623779296875">
        <ele>1211.4000244140625</ele>
        <time>2022-05-06T09:17:53.000Z</time>
      </trkpt>
      <trkpt lat="40.27911490760743618011474609375" lon="-0.9889960102736949920654296875">
        <ele>1211.800048828125</ele>
        <time>2022-05-06T09:17:55.000Z</time>
      </trkpt>
      <trkpt lat="40.27906713075935840606689453125" lon="-0.98898905329406261444091796875">
        <ele>1212</ele>
        <time>2022-05-06T09:17:57.000Z</time>
      </trkpt>
      <trkpt lat="40.27904433198273181915283203125" lon="-0.98898368887603282928466796875">
        <ele>1212.199951171875</ele>
        <time>2022-05-06T09:17:58.000Z</time>
      </trkpt>
      <trkpt lat="40.27902287431061267852783203125" lon="-0.9889775700867176055908203125">
        <ele>1212.4000244140625</ele>
        <time>2022-05-06T09:17:59.000Z</time>
      </trkpt>
      <trkpt lat="40.2789807133376598358154296875" lon="-0.988968349993228912353515625">
        <ele>1212.5999755859375</ele>
        <time>2022-05-06T09:18:01.000Z</time>
      </trkpt>
      <trkpt lat="40.2789361216127872467041015625" lon="-0.9889644943177700042724609375">
        <ele>1213</ele>
        <time>2022-05-06T09:18:03.000Z</time>
      </trkpt>
      <trkpt lat="40.27888893149793148040771484375" lon="-0.9889571182429790496826171875">
        <ele>1213.199951171875</ele>
        <time>2022-05-06T09:18:05.000Z</time>
      </trkpt>
      <trkpt lat="40.27884517796337604522705078125" lon="-0.98895619623363018035888671875">
        <ele>1213.4000244140625</ele>
        <time>2022-05-06T09:18:07.000Z</time>
      </trkpt>
      <trkpt lat="40.27879974804818630218505859375" lon="-0.98895351402461528778076171875">
        <ele>1213.5999755859375</ele>
        <time>2022-05-06T09:18:09.000Z</time>
      </trkpt>
      <trkpt lat="40.27877611108124256134033203125" lon="-0.9889505803585052490234375">
        <ele>1213.800048828125</ele>
        <time>2022-05-06T09:18:10.000Z</time>
      </trkpt>
      <trkpt lat="40.278753228485584259033203125" lon="-0.9889480657875537872314453125">
        <ele>1214</ele>
        <time>2022-05-06T09:18:11.000Z</time>
      </trkpt>
      <trkpt lat="40.2787099778652191162109375" lon="-0.988940857350826263427734375">
        <ele>1214.199951171875</ele>
        <time>2022-05-06T09:18:13.000Z</time>
      </trkpt>
      <trkpt lat="40.27869028039276599884033203125" lon="-0.9889398515224456787109375">
        <ele>1214.4000244140625</ele>
        <time>2022-05-06T09:18:14.000Z</time>
      </trkpt>
      <trkpt lat="40.2786699123680591583251953125" lon="-0.98893993534147739410400390625">
        <ele>1214.5999755859375</ele>
        <time>2022-05-06T09:18:15.000Z</time>
      </trkpt>
      <trkpt lat="40.2786320261657238006591796875" lon="-0.988942198455333709716796875">
        <ele>1214.800048828125</ele>
        <time>2022-05-06T09:18:17.000Z</time>
      </trkpt>
      <trkpt lat="40.2785951457917690277099609375" lon="-0.988949239253997802734375">
        <ele>1214.800048828125</ele>
        <time>2022-05-06T09:18:19.000Z</time>
      </trkpt>
      <trkpt lat="40.2785559184849262237548828125" lon="-0.98895435221493244171142578125">
        <ele>1215</ele>
        <time>2022-05-06T09:18:21.000Z</time>
      </trkpt>
      <trkpt lat="40.2785341255366802215576171875" lon="-0.9889584593474864959716796875">
        <ele>1215.199951171875</ele>
        <time>2022-05-06T09:18:22.000Z</time>
      </trkpt>
      <trkpt lat="40.27851141057908535003662109375" lon="-0.98896189592778682708740234375">
        <ele>1215.199951171875</ele>
        <time>2022-05-06T09:18:23.000Z</time>
      </trkpt>
      <trkpt lat="40.27847000397741794586181640625" lon="-0.9889581240713596343994140625">
        <ele>1215.5999755859375</ele>
        <time>2022-05-06T09:18:25.000Z</time>
      </trkpt>
      <trkpt lat="40.27842910028994083404541015625" lon="-0.98895904608070850372314453125">
        <ele>1215.800048828125</ele>
        <time>2022-05-06T09:18:27.000Z</time>
      </trkpt>
      <trkpt lat="40.2784077264368534088134765625" lon="-0.98896357230842113494873046875">
        <ele>1215.800048828125</ele>
        <time>2022-05-06T09:18:28.000Z</time>
      </trkpt>
      <trkpt lat="40.27838476002216339111328125" lon="-0.98897094838321208953857421875">
        <ele>1216</ele>
        <time>2022-05-06T09:18:29.000Z</time>
      </trkpt>
      <trkpt lat="40.27833254076540470123291015625" lon="-0.9889815934002399444580078125">
        <ele>1216.199951171875</ele>
        <time>2022-05-06T09:18:31.000Z</time>
      </trkpt>
      <trkpt lat="40.2782766334712505340576171875" lon="-0.98898251540958881378173828125">
        <ele>1216.4000244140625</ele>
        <time>2022-05-06T09:18:33.000Z</time>
      </trkpt>
      <trkpt lat="40.27824796736240386962890625" lon="-0.98898352123796939849853515625">
        <ele>1216.5999755859375</ele>
        <time>2022-05-06T09:18:34.000Z</time>
      </trkpt>
      <trkpt lat="40.278220474720001220703125" lon="-0.98898452706634998321533203125">
        <ele>1216.800048828125</ele>
        <time>2022-05-06T09:18:35.000Z</time>
      </trkpt>
      <trkpt lat="40.27816347777843475341796875" lon="-0.98898477852344512939453125">
        <ele>1217.199951171875</ele>
        <time>2022-05-06T09:18:37.000Z</time>
      </trkpt>
      <trkpt lat="40.27810907922685146331787109375" lon="-0.98898419179022312164306640625">
        <ele>1217.4000244140625</ele>
        <time>2022-05-06T09:18:39.000Z</time>
      </trkpt>
      <trkpt lat="40.278054513037204742431640625" lon="-0.98898469470441341400146484375">
        <ele>1217.800048828125</ele>
        <time>2022-05-06T09:18:41.000Z</time>
      </trkpt>
      <trkpt lat="40.27800397016108036041259765625" lon="-0.98898670636117458343505859375">
        <ele>1218</ele>
        <time>2022-05-06T09:18:43.000Z</time>
      </trkpt>
      <trkpt lat="40.2779779024422168731689453125" lon="-0.98898536525666713714599609375">
        <ele>1218.199951171875</ele>
        <time>2022-05-06T09:18:44.000Z</time>
      </trkpt>
      <trkpt lat="40.27794890105724334716796875" lon="-0.98898167721927165985107421875">
        <ele>1218.4000244140625</ele>
        <time>2022-05-06T09:18:45.000Z</time>
      </trkpt>
      <trkpt lat="40.2778873778879642486572265625" lon="-0.9889735467731952667236328125">
        <ele>1218.800048828125</ele>
        <time>2022-05-06T09:18:47.000Z</time>
      </trkpt>
      <trkpt lat="40.2778219990432262420654296875" lon="-0.98896608687937259674072265625">
        <ele>1218.800048828125</ele>
        <time>2022-05-06T09:18:49.000Z</time>
      </trkpt>
      <trkpt lat="40.27779023163020610809326171875" lon="-0.98896089009940624237060546875">
        <ele>1218.800048828125</ele>
        <time>2022-05-06T09:18:50.000Z</time>
      </trkpt>
      <trkpt lat="40.27776072733104228973388671875" lon="-0.9889541007578372955322265625">
        <ele>1218.800048828125</ele>
        <time>2022-05-06T09:18:51.000Z</time>
      </trkpt>
      <trkpt lat="40.2777036465704441070556640625" lon="-0.98893524147570133209228515625">
        <ele>1218.800048828125</ele>
        <time>2022-05-06T09:18:53.000Z</time>
      </trkpt>
      <trkpt lat="40.27765226550400257110595703125" lon="-0.9889121912419795989990234375">
        <ele>1219</ele>
        <time>2022-05-06T09:18:55.000Z</time>
      </trkpt>
      <trkpt lat="40.2776000462472438812255859375" lon="-0.9888830222189426422119140625">
        <ele>1219</ele>
        <time>2022-05-06T09:18:57.000Z</time>
      </trkpt>
      <trkpt lat="40.27757464908063411712646484375" lon="-0.98886885680258274078369140625">
        <ele>1219.199951171875</ele>
        <time>2022-05-06T09:18:58.000Z</time>
      </trkpt>
      <trkpt lat="40.27755050919950008392333984375" lon="-0.988852344453334808349609375">
        <ele>1219.199951171875</ele>
        <time>2022-05-06T09:18:59.000Z</time>
      </trkpt>
      <trkpt lat="40.27750239707529544830322265625" lon="-0.9888139553368091583251953125">
        <ele>1219.199951171875</ele>
        <time>2022-05-06T09:19:01.000Z</time>
      </trkpt>
      <trkpt lat="40.2774511836469173431396484375" lon="-0.988768525421619415283203125">
        <ele>1219.4000244140625</ele>
        <time>2022-05-06T09:19:03.000Z</time>
      </trkpt>
      <trkpt lat="40.27739862911403179168701171875" lon="-0.9887225925922393798828125">
        <ele>1219.4000244140625</ele>
        <time>2022-05-06T09:19:05.000Z</time>
      </trkpt>
      <trkpt lat="40.27734532020986080169677734375" lon="-0.988673977553844451904296875">
        <ele>1219.5999755859375</ele>
        <time>2022-05-06T09:19:07.000Z</time>
      </trkpt>
      <trkpt lat="40.2772868983447551727294921875" lon="-0.9886251948773860931396484375">
        <ele>1219.800048828125</ele>
        <time>2022-05-06T09:19:09.000Z</time>
      </trkpt>
      <trkpt lat="40.277229063212871551513671875" lon="-0.9885759092867374420166015625">
        <ele>1220</ele>
        <time>2022-05-06T09:19:11.000Z</time>
      </trkpt>
      <trkpt lat="40.27717374265193939208984375" lon="-0.988522432744503021240234375">
        <ele>1220.4000244140625</ele>
        <time>2022-05-06T09:19:13.000Z</time>
      </trkpt>
      <trkpt lat="40.27711716480553150177001953125" lon="-0.98846250213682651519775390625">
        <ele>1220.5999755859375</ele>
        <time>2022-05-06T09:19:15.000Z</time>
      </trkpt>
      <trkpt lat="40.27706083841621875762939453125" lon="-0.98840014077723026275634765625">
        <ele>1221</ele>
        <time>2022-05-06T09:19:17.000Z</time>
      </trkpt>
      <trkpt lat="40.27700685895979404449462890625" lon="-0.9883254580199718475341796875">
        <ele>1221.199951171875</ele>
        <time>2022-05-06T09:19:19.000Z</time>
      </trkpt>
      <trkpt lat="40.2769512869417667388916015625" lon="-0.98824356682598590850830078125">
        <ele>1221.5999755859375</ele>
        <time>2022-05-06T09:19:21.000Z</time>
      </trkpt>
      <trkpt lat="40.2769261412322521209716796875" lon="-0.988200567662715911865234375">
        <ele>1221.800048828125</ele>
        <time>2022-05-06T09:19:22.000Z</time>
      </trkpt>
      <trkpt lat="40.27690292336046695709228515625" lon="-0.9881564788520336151123046875">
        <ele>1221.800048828125</ele>
        <time>2022-05-06T09:19:23.000Z</time>
      </trkpt>
      <trkpt lat="40.27685833163559436798095703125" lon="-0.98806570284068584442138671875">
        <ele>1222</ele>
        <time>2022-05-06T09:19:25.000Z</time>
      </trkpt>
      <trkpt lat="40.2768151648342609405517578125" lon="-0.9879653714597225189208984375">
        <ele>1221.800048828125</ele>
        <time>2022-05-06T09:19:27.000Z</time>
      </trkpt>
      <trkpt lat="40.27677099220454692840576171875" lon="-0.987856574356555938720703125">
        <ele>1221.4000244140625</ele>
        <time>2022-05-06T09:19:29.000Z</time>
      </trkpt>
      <trkpt lat="40.27672841213643550872802734375" lon="-0.98773931153118610382080078125">
        <ele>1221.199951171875</ele>
        <time>2022-05-06T09:19:31.000Z</time>
      </trkpt>
      <trkpt lat="40.27668960392475128173828125" lon="-0.98762481473386287689208984375">
        <ele>1221</ele>
        <time>2022-05-06T09:19:33.000Z</time>
      </trkpt>
      <trkpt lat="40.2766525559127330780029296875" lon="-0.987513922154903411865234375">
        <ele>1221.199951171875</ele>
        <time>2022-05-06T09:19:35.000Z</time>
      </trkpt>
      <trkpt lat="40.2766153402626514434814453125" lon="-0.98740235902369022369384765625">
        <ele>1221.199951171875</ele>
        <time>2022-05-06T09:19:37.000Z</time>
      </trkpt>
      <trkpt lat="40.276578962802886962890625" lon="-0.98728518001735210418701171875">
        <ele>1221.4000244140625</ele>
        <time>2022-05-06T09:19:39.000Z</time>
      </trkpt>
      <trkpt lat="40.27654199860990047454833984375" lon="-0.98717034794390201568603515625">
        <ele>1221.5999755859375</ele>
        <time>2022-05-06T09:19:41.000Z</time>
      </trkpt>
      <trkpt lat="40.2765043638646602630615234375" lon="-0.98705518059432506561279296875">
        <ele>1222.199951171875</ele>
        <time>2022-05-06T09:19:43.000Z</time>
      </trkpt>
      <trkpt lat="40.27645935304462909698486328125" lon="-0.98693783394992351531982421875">
        <ele>1222.199951171875</ele>
        <time>2022-05-06T09:19:45.000Z</time>
      </trkpt>
      <trkpt lat="40.27641065418720245361328125" lon="-0.9868163801729679107666015625">
        <ele>1222.199951171875</ele>
        <time>2022-05-06T09:19:47.000Z</time>
      </trkpt>
      <trkpt lat="40.27636061422526836395263671875" lon="-0.98669685423374176025390625">
        <ele>1222</ele>
        <time>2022-05-06T09:19:49.000Z</time>
      </trkpt>
      <trkpt lat="40.2763001807034015655517578125" lon="-0.9865826927125453948974609375">
        <ele>1222</ele>
        <time>2022-05-06T09:19:51.000Z</time>
      </trkpt>
      <trkpt lat="40.276223905384540557861328125" lon="-0.98647146485745906829833984375">
        <ele>1222</ele>
        <time>2022-05-06T09:19:53.000Z</time>
      </trkpt>
      <trkpt lat="40.27613363228738307952880859375" lon="-0.98637155257165431976318359375">
        <ele>1222.199951171875</ele>
        <time>2022-05-06T09:19:55.000Z</time>
      </trkpt>
      <trkpt lat="40.2760376594960689544677734375" lon="-0.986272729933261871337890625">
        <ele>1222.4000244140625</ele>
        <time>2022-05-06T09:19:57.000Z</time>
      </trkpt>
      <trkpt lat="40.2759392559528350830078125" lon="-0.98617491312325000762939453125">
        <ele>1222.5999755859375</ele>
        <time>2022-05-06T09:19:59.000Z</time>
      </trkpt>
      <trkpt lat="40.275889299809932708740234375" lon="-0.98612629808485507965087890625">
        <ele>1222.5999755859375</ele>
        <time>2022-05-06T09:20:00.000Z</time>
      </trkpt>
      <trkpt lat="40.2758373320102691650390625" lon="-0.98607684485614299774169921875">
        <ele>1222.800048828125</ele>
        <time>2022-05-06T09:20:01.000Z</time>
      </trkpt>
      <trkpt lat="40.27572794817388057708740234375" lon="-0.98597123287618160247802734375">
        <ele>1222.5999755859375</ele>
        <time>2022-05-06T09:20:03.000Z</time>
      </trkpt>
      <trkpt lat="40.27561135590076446533203125" lon="-0.98586310632526874542236328125">
        <ele>1222.4000244140625</ele>
        <time>2022-05-06T09:20:05.000Z</time>
      </trkpt>
      <trkpt lat="40.27549333870410919189453125" lon="-0.9857676364481449127197265625">
        <ele>1222</ele>
        <time>2022-05-06T09:20:07.000Z</time>
      </trkpt>
      <trkpt lat="40.2753758244216442108154296875" lon="-0.98568256013095378875732421875">
        <ele>1222.199951171875</ele>
        <time>2022-05-06T09:20:09.000Z</time>
      </trkpt>
      <trkpt lat="40.27526107616722583770751953125" lon="-0.98560293205082416534423828125">
        <ele>1222</ele>
        <time>2022-05-06T09:20:11.000Z</time>
      </trkpt>
      <trkpt lat="40.2751635946333408355712890625" lon="-0.98553436808288097381591796875">
        <ele>1222.199951171875</ele>
        <time>2022-05-06T09:20:13.000Z</time>
      </trkpt>
      <trkpt lat="40.27512378059327602386474609375" lon="-0.985503606498241424560546875">
        <ele>1222.199951171875</ele>
        <time>2022-05-06T09:20:14.000Z</time>
      </trkpt>
      <trkpt lat="40.27508505620062351226806640625" lon="-0.985472761094570159912109375">
        <ele>1222.4000244140625</ele>
        <time>2022-05-06T09:20:15.000Z</time>
      </trkpt>
      <trkpt lat="40.2750009857118129730224609375" lon="-0.98541676998138427734375">
        <ele>1222.5999755859375</ele>
        <time>2022-05-06T09:20:17.000Z</time>
      </trkpt>
      <trkpt lat="40.2749141491949558258056640625" lon="-0.98536505363881587982177734375">
        <ele>1222.800048828125</ele>
        <time>2022-05-06T09:20:19.000Z</time>
      </trkpt>
      <trkpt lat="40.2748261392116546630859375" lon="-0.985310487449169158935546875">
        <ele>1222.800048828125</ele>
        <time>2022-05-06T09:20:21.000Z</time>
      </trkpt>
      <trkpt lat="40.2747512049973011016845703125" lon="-0.9852556698024272918701171875">
        <ele>1222.5999755859375</ele>
        <time>2022-05-06T09:20:23.000Z</time>
      </trkpt>
      <trkpt lat="40.27471558190882205963134765625" lon="-0.98522423766553401947021484375">
        <ele>1222.5999755859375</ele>
        <time>2022-05-06T09:20:25.000Z</time>
      </trkpt>
      <trkpt lat="40.27471323497593402862548828125" lon="-0.9852231480181217193603515625">
        <ele>1222.5999755859375</ele>
        <time>2022-05-06T09:20:27.000Z</time>
      </trkpt>
      <trkpt lat="40.27466026134788990020751953125" lon="-0.98520043306052684783935546875">
        <ele>1222.5999755859375</ele>
        <time>2022-05-06T09:22:39.000Z</time>
      </trkpt>
      <trkpt lat="40.27463771402835845947265625" lon="-0.98518869839608669281005859375">
        <ele>1222.4000244140625</ele>
        <time>2022-05-06T09:22:40.000Z</time>
      </trkpt>
      <trkpt lat="40.27461466379463672637939453125" lon="-0.9851721860468387603759765625">
        <ele>1222.4000244140625</ele>
        <time>2022-05-06T09:22:41.000Z</time>
      </trkpt>
      <trkpt lat="40.27456789277493953704833984375" lon="-0.9851423464715480804443359375">
        <ele>1222.4000244140625</ele>
        <time>2022-05-06T09:22:43.000Z</time>
      </trkpt>
      <trkpt lat="40.27451307512819766998291015625" lon="-0.9851047955453395843505859375">
        <ele>1222.4000244140625</ele>
        <time>2022-05-06T09:22:45.000Z</time>
      </trkpt>
      <trkpt lat="40.27448189444839954376220703125" lon="-0.985079146921634674072265625">
        <ele>1222.4000244140625</ele>
        <time>2022-05-06T09:22:46.000Z</time>
      </trkpt>
      <trkpt lat="40.2744479477405548095703125" lon="-0.9850528277456760406494140625">
        <ele>1222.4000244140625</ele>
        <time>2022-05-06T09:22:47.000Z</time>
      </trkpt>
      <trkpt lat="40.2743669785559177398681640625" lon="-0.9849975071847438812255859375">
        <ele>1222.4000244140625</ele>
        <time>2022-05-06T09:22:49.000Z</time>
      </trkpt>
      <trkpt lat="40.2742707543075084686279296875" lon="-0.9849304519593715667724609375">
        <ele>1222.5999755859375</ele>
        <time>2022-05-06T09:22:51.000Z</time>
      </trkpt>
      <trkpt lat="40.274166651070117950439453125" lon="-0.98485694266855716705322265625">
        <ele>1222.800048828125</ele>
        <time>2022-05-06T09:22:53.000Z</time>
      </trkpt>
      <trkpt lat="40.27405709959566593170166015625" lon="-0.9847829304635524749755859375">
        <ele>1223</ele>
        <time>2022-05-06T09:22:55.000Z</time>
      </trkpt>
      <trkpt lat="40.27394436299800872802734375" lon="-0.98470338620245456695556640625">
        <ele>1223.199951171875</ele>
        <time>2022-05-06T09:22:57.000Z</time>
      </trkpt>
      <trkpt lat="40.273834727704524993896484375" lon="-0.9846250154078006744384765625">
        <ele>1223.4000244140625</ele>
        <time>2022-05-06T09:22:59.000Z</time>
      </trkpt>
      <trkpt lat="40.27373674325644969940185546875" lon="-0.9845536015927791595458984375">
        <ele>1223.5999755859375</ele>
        <time>2022-05-06T09:23:01.000Z</time>
      </trkpt>
      <trkpt lat="40.27365141548216342926025390625" lon="-0.98449216224253177642822265625">
        <ele>1223.5999755859375</ele>
        <time>2022-05-06T09:23:03.000Z</time>
      </trkpt>
      <trkpt lat="40.27357019484043121337890625" lon="-0.98443298600614070892333984375">
        <ele>1223.5999755859375</ele>
        <time>2022-05-06T09:23:05.000Z</time>
      </trkpt>
      <trkpt lat="40.2734862081706523895263671875" lon="-0.9843698702752590179443359375">
        <ele>1223.5999755859375</ele>
        <time>2022-05-06T09:23:07.000Z</time>
      </trkpt>
      <trkpt lat="40.2733906544744968414306640625" lon="-0.98430826328694820404052734375">
        <ele>1223.5999755859375</ele>
        <time>2022-05-06T09:23:09.000Z</time>
      </trkpt>
      <trkpt lat="40.27328546158969402313232421875" lon="-0.9842481650412082672119140625">
        <ele>1223.4000244140625</ele>
        <time>2022-05-06T09:23:11.000Z</time>
      </trkpt>
      <trkpt lat="40.273172222077846527099609375" lon="-0.98417247645556926727294921875">
        <ele>1223.199951171875</ele>
        <time>2022-05-06T09:23:13.000Z</time>
      </trkpt>
      <trkpt lat="40.2730520255863666534423828125" lon="-0.9840768389403820037841796875">
        <ele>1223</ele>
        <time>2022-05-06T09:23:15.000Z</time>
      </trkpt>
      <trkpt lat="40.27298991568386554718017578125" lon="-0.9840233623981475830078125">
        <ele>1222.800048828125</ele>
        <time>2022-05-06T09:23:16.000Z</time>
      </trkpt>
      <trkpt lat="40.272927470505237579345703125" lon="-0.9839682094752788543701171875">
        <ele>1222.800048828125</ele>
        <time>2022-05-06T09:23:17.000Z</time>
      </trkpt>
      <trkpt lat="40.27280517853796482086181640625" lon="-0.9838552214205265045166015625">
        <ele>1222.199951171875</ele>
        <time>2022-05-06T09:23:19.000Z</time>
      </trkpt>
      <trkpt lat="40.27268028818070888519287109375" lon="-0.98374147899448871612548828125">
        <ele>1221.5999755859375</ele>
        <time>2022-05-06T09:23:21.000Z</time>
      </trkpt>
      <trkpt lat="40.27255020104348659515380859375" lon="-0.9836319275200366973876953125">
        <ele>1221</ele>
        <time>2022-05-06T09:23:23.000Z</time>
      </trkpt>
      <trkpt lat="40.2724166773259639739990234375" lon="-0.983526147902011871337890625">
        <ele>1220.5999755859375</ele>
        <time>2022-05-06T09:23:25.000Z</time>
      </trkpt>
      <trkpt lat="40.27227829210460186004638671875" lon="-0.98341911099851131439208984375">
        <ele>1220.199951171875</ele>
        <time>2022-05-06T09:23:27.000Z</time>
      </trkpt>
      <trkpt lat="40.27213915251195430755615234375" lon="-0.9833137504756450653076171875">
        <ele>1219.800048828125</ele>
        <time>2022-05-06T09:23:29.000Z</time>
      </trkpt>
      <trkpt lat="40.272002778947353363037109375" lon="-0.98321023397147655487060546875">
        <ele>1219.800048828125</ele>
        <time>2022-05-06T09:23:31.000Z</time>
      </trkpt>
      <trkpt lat="40.27186791412532329559326171875" lon="-0.983113758265972137451171875">
        <ele>1219.4000244140625</ele>
        <time>2022-05-06T09:23:33.000Z</time>
      </trkpt>
      <trkpt lat="40.271729864180088043212890625" lon="-0.98303505219519138336181640625">
        <ele>1219.199951171875</ele>
        <time>2022-05-06T09:23:35.000Z</time>
      </trkpt>
      <trkpt lat="40.27159340679645538330078125" lon="-0.9829781390726566314697265625">
        <ele>1219</ele>
        <time>2022-05-06T09:23:37.000Z</time>
      </trkpt>
      <trkpt lat="40.27146323584020137786865234375" lon="-0.9829278476536273956298828125">
        <ele>1219</ele>
        <time>2022-05-06T09:23:39.000Z</time>
      </trkpt>
      <trkpt lat="40.271333567798137664794921875" lon="-0.98288183100521564483642578125">
        <ele>1218.800048828125</ele>
        <time>2022-05-06T09:23:41.000Z</time>
      </trkpt>
      <trkpt lat="40.27119434438645839691162109375" lon="-0.9828316234052181243896484375">
        <ele>1218.5999755859375</ele>
        <time>2022-05-06T09:23:43.000Z</time>
      </trkpt>
      <trkpt lat="40.27112309820950031280517578125" lon="-0.982807986438274383544921875">
        <ele>1218.5999755859375</ele>
        <time>2022-05-06T09:23:44.000Z</time>
      </trkpt>
      <trkpt lat="40.27105000801384449005126953125" lon="-0.98278485238552093505859375">
        <ele>1218.4000244140625</ele>
        <time>2022-05-06T09:23:45.000Z</time>
      </trkpt>
      <trkpt lat="40.2709039114415645599365234375" lon="-0.9827377460896968841552734375">
        <ele>1218.199951171875</ele>
        <time>2022-05-06T09:23:47.000Z</time>
      </trkpt>
      <trkpt lat="40.2708324976265430450439453125" lon="-0.98271511495113372802734375">
        <ele>1218.199951171875</ele>
        <time>2022-05-06T09:23:48.000Z</time>
      </trkpt>
      <trkpt lat="40.27076317928731441497802734375" lon="-0.982691310346126556396484375">
        <ele>1218.199951171875</ele>
        <time>2022-05-06T09:23:49.000Z</time>
      </trkpt>
      <trkpt lat="40.27062186039984226226806640625" lon="-0.98264495842158794403076171875">
        <ele>1218.199951171875</ele>
        <time>2022-05-06T09:23:51.000Z</time>
      </trkpt>
      <trkpt lat="40.27047785930335521697998046875" lon="-0.98259584046900272369384765625">
        <ele>1218.4000244140625</ele>
        <time>2022-05-06T09:23:53.000Z</time>
      </trkpt>
      <trkpt lat="40.270332433283329010009765625" lon="-0.982547812163829803466796875">
        <ele>1218.800048828125</ele>
        <time>2022-05-06T09:23:55.000Z</time>
      </trkpt>
      <trkpt lat="40.27018792927265167236328125" lon="-0.98249827511608600616455078125">
        <ele>1219</ele>
        <time>2022-05-06T09:23:57.000Z</time>
      </trkpt>
      <trkpt lat="40.27003965340554714202880859375" lon="-0.98245033062994480133056640625">
        <ele>1218.4000244140625</ele>
        <time>2022-05-06T09:23:59.000Z</time>
      </trkpt>
      <trkpt lat="40.26989112608134746551513671875" lon="-0.982402972877025604248046875">
        <ele>1218</ele>
        <time>2022-05-06T09:24:01.000Z</time>
      </trkpt>
      <trkpt lat="40.269741676747798919677734375" lon="-0.98235494457185268402099609375">
        <ele>1217.4000244140625</ele>
        <time>2022-05-06T09:24:03.000Z</time>
      </trkpt>
      <trkpt lat="40.2696674130856990814208984375" lon="-0.98232795484364032745361328125">
        <ele>1217.199951171875</ele>
        <time>2022-05-06T09:24:04.000Z</time>
      </trkpt>
      <trkpt lat="40.269594490528106689453125" lon="-0.98230347968637943267822265625">
        <ele>1217</ele>
        <time>2022-05-06T09:24:05.000Z</time>
      </trkpt>
      <trkpt lat="40.2694525010883808135986328125" lon="-0.982262156903743743896484375">
        <ele>1216.800048828125</ele>
        <time>2022-05-06T09:24:07.000Z</time>
      </trkpt>
      <trkpt lat="40.26931621134281158447265625" lon="-0.9822137095034122467041015625">
        <ele>1216.5999755859375</ele>
        <time>2022-05-06T09:24:09.000Z</time>
      </trkpt>
      <trkpt lat="40.269189141690731048583984375" lon="-0.9821726381778717041015625">
        <ele>1216.5999755859375</ele>
        <time>2022-05-06T09:24:11.000Z</time>
      </trkpt>
      <trkpt lat="40.2691262774169445037841796875" lon="-0.9821533598005771636962890625">
        <ele>1216.5999755859375</ele>
        <time>2022-05-06T09:24:12.000Z</time>
      </trkpt>
      <trkpt lat="40.26906140148639678955078125" lon="-0.98213366232812404632568359375">
        <ele>1216.4000244140625</ele>
        <time>2022-05-06T09:24:13.000Z</time>
      </trkpt>
      <trkpt lat="40.2689267881214618682861328125" lon="-0.98209108226001262664794921875">
        <ele>1216.4000244140625</ele>
        <time>2022-05-06T09:24:15.000Z</time>
      </trkpt>
      <trkpt lat="40.2687792666256427764892578125" lon="-0.98203592933714389801025390625">
        <ele>1216.4000244140625</ele>
        <time>2022-05-06T09:24:17.000Z</time>
      </trkpt>
      <trkpt lat="40.26870760135352611541748046875" lon="-0.982009358704090118408203125">
        <ele>1216.5999755859375</ele>
        <time>2022-05-06T09:24:18.000Z</time>
      </trkpt>
      <trkpt lat="40.26863853447139263153076171875" lon="-0.98198429681360721588134765625">
        <ele>1216.800048828125</ele>
        <time>2022-05-06T09:24:19.000Z</time>
      </trkpt>
      <trkpt lat="40.26850861497223377227783203125" lon="-0.98193869926035404205322265625">
        <ele>1217.4000244140625</ele>
        <time>2022-05-06T09:24:21.000Z</time>
      </trkpt>
      <trkpt lat="40.26837752200663089752197265625" lon="-0.98188321106135845184326171875">
        <ele>1218</ele>
        <time>2022-05-06T09:24:23.000Z</time>
      </trkpt>
      <trkpt lat="40.2683105506002902984619140625" lon="-0.9818506054580211639404296875">
        <ele>1218</ele>
        <time>2022-05-06T09:24:24.000Z</time>
      </trkpt>
      <trkpt lat="40.268243663012981414794921875" lon="-0.9818174131214618682861328125">
        <ele>1218</ele>
        <time>2022-05-06T09:24:25.000Z</time>
      </trkpt>
      <trkpt lat="40.26810946874320507049560546875" lon="-0.98175077699124813079833984375">
        <ele>1217.800048828125</ele>
        <time>2022-05-06T09:24:27.000Z</time>
      </trkpt>
      <trkpt lat="40.26797435246407985687255859375" lon="-0.98168405704200267791748046875">
        <ele>1217.5999755859375</ele>
        <time>2022-05-06T09:24:29.000Z</time>
      </trkpt>
      <trkpt lat="40.267839320003986358642578125" lon="-0.98161666654050350189208984375">
        <ele>1218</ele>
        <time>2022-05-06T09:24:31.000Z</time>
      </trkpt>
      <trkpt lat="40.26770395226776599884033203125" lon="-0.98154994659125804901123046875">
        <ele>1218.4000244140625</ele>
        <time>2022-05-06T09:24:33.000Z</time>
      </trkpt>
      <trkpt lat="40.26756933890283107757568359375" lon="-0.981481969356536865234375">
        <ele>1219</ele>
        <time>2022-05-06T09:24:35.000Z</time>
      </trkpt>
      <trkpt lat="40.26743422262370586395263671875" lon="-0.981403179466724395751953125">
        <ele>1219.5999755859375</ele>
        <time>2022-05-06T09:24:37.000Z</time>
      </trkpt>
      <trkpt lat="40.26729960925877094268798828125" lon="-0.9813238866627216339111328125">
        <ele>1220</ele>
        <time>2022-05-06T09:24:39.000Z</time>
      </trkpt>
      <trkpt lat="40.2671645767986774444580078125" lon="-0.98124098964035511016845703125">
        <ele>1220.199951171875</ele>
        <time>2022-05-06T09:24:41.000Z</time>
      </trkpt>
      <trkpt lat="40.267098359763622283935546875" lon="-0.98119975067675113677978515625">
        <ele>1220.199951171875</ele>
        <time>2022-05-06T09:24:42.000Z</time>
      </trkpt>
      <trkpt lat="40.2670314721763134002685546875" lon="-0.98115985281765460968017578125">
        <ele>1220.199951171875</ele>
        <time>2022-05-06T09:24:43.000Z</time>
      </trkpt>
      <trkpt lat="40.26689878664910793304443359375" lon="-0.9810865111649036407470703125">
        <ele>1220</ele>
        <time>2022-05-06T09:24:45.000Z</time>
      </trkpt>
      <trkpt lat="40.2667733095586299896240234375" lon="-0.98101082257926464080810546875">
        <ele>1220</ele>
        <time>2022-05-06T09:24:47.000Z</time>
      </trkpt>
      <trkpt lat="40.26664649136364459991455078125" lon="-0.98093337379395961761474609375">
        <ele>1219.5999755859375</ele>
        <time>2022-05-06T09:24:49.000Z</time>
      </trkpt>
      <trkpt lat="40.26651958934962749481201171875" lon="-0.98085961304605007171630859375">
        <ele>1219.4000244140625</ele>
        <time>2022-05-06T09:24:51.000Z</time>
      </trkpt>
      <trkpt lat="40.26639394462108612060546875" lon="-0.98078367300331592559814453125">
        <ele>1219</ele>
        <time>2022-05-06T09:24:53.000Z</time>
      </trkpt>
      <trkpt lat="40.26626913808286190032958984375" lon="-0.98070991225540637969970703125">
        <ele>1218.5999755859375</ele>
        <time>2022-05-06T09:24:55.000Z</time>
      </trkpt>
      <trkpt lat="40.2661463432013988494873046875" lon="-0.98063631914556026458740234375">
        <ele>1218.4000244140625</ele>
        <time>2022-05-06T09:24:57.000Z</time>
      </trkpt>
      <trkpt lat="40.26602656580507755279541015625" lon="-0.9805675037205219268798828125">
        <ele>1218.199951171875</ele>
        <time>2022-05-06T09:24:59.000Z</time>
      </trkpt>
      <trkpt lat="40.2659136615693569183349609375" lon="-0.98049692809581756591796875">
        <ele>1218.199951171875</ele>
        <time>2022-05-06T09:25:01.000Z</time>
      </trkpt>
      <trkpt lat="40.26580746285617351531982421875" lon="-0.98042425699532032012939453125">
        <ele>1218.199951171875</ele>
        <time>2022-05-06T09:25:03.000Z</time>
      </trkpt>
      <trkpt lat="40.2657111547887325286865234375" lon="-0.98036575131118297576904296875">
        <ele>1218.199951171875</ele>
        <time>2022-05-06T09:25:05.000Z</time>
      </trkpt>
      <trkpt lat="40.2656323648989200592041015625" lon="-0.980317890644073486328125">
        <ele>1218.199951171875</ele>
        <time>2022-05-06T09:25:07.000Z</time>
      </trkpt>
      <trkpt lat="40.26555919088423252105712890625" lon="-0.980271287262439727783203125">
        <ele>1218.4000244140625</ele>
        <time>2022-05-06T09:25:09.000Z</time>
      </trkpt>
      <trkpt lat="40.26548375375568866729736328125" lon="-0.98022560589015483856201171875">
        <ele>1218.5999755859375</ele>
        <time>2022-05-06T09:25:11.000Z</time>
      </trkpt>
      <trkpt lat="40.26540932245552539825439453125" lon="-0.98018101416528224945068359375">
        <ele>1218.5999755859375</ele>
        <time>2022-05-06T09:25:13.000Z</time>
      </trkpt>
      <trkpt lat="40.2653376571834087371826171875" lon="-0.9801383502781391143798828125">
        <ele>1218.5999755859375</ele>
        <time>2022-05-06T09:25:15.000Z</time>
      </trkpt>
      <trkpt lat="40.26526129804551601409912109375" lon="-0.98009669221937656402587890625">
        <ele>1218.5999755859375</ele>
        <time>2022-05-06T09:25:17.000Z</time>
      </trkpt>
      <trkpt lat="40.2651834301650524139404296875" lon="-0.9800508432090282440185546875">
        <ele>1218.5999755859375</ele>
        <time>2022-05-06T09:25:19.000Z</time>
      </trkpt>
      <trkpt lat="40.26514311321079730987548828125" lon="-0.9800255298614501953125">
        <ele>1218.800048828125</ele>
        <time>2022-05-06T09:25:20.000Z</time>
      </trkpt>
      <trkpt lat="40.265102796256542205810546875" lon="-0.98000164143741130828857421875">
        <ele>1218.800048828125</ele>
        <time>2022-05-06T09:25:21.000Z</time>
      </trkpt>
      <trkpt lat="40.26502559892833232879638671875" lon="-0.9799559600651264190673828125">
        <ele>1218.800048828125</ele>
        <time>2022-05-06T09:25:23.000Z</time>
      </trkpt>
      <trkpt lat="40.264949910342693328857421875" lon="-0.97990952432155609130859375">
        <ele>1218.800048828125</ele>
        <time>2022-05-06T09:25:25.000Z</time>
      </trkpt>
      <trkpt lat="40.26487824507057666778564453125" lon="-0.97986686043441295623779296875">
        <ele>1218.800048828125</ele>
        <time>2022-05-06T09:25:27.000Z</time>
      </trkpt>
      <trkpt lat="40.264841280877590179443359375" lon="-0.97984489984810352325439453125">
        <ele>1218.800048828125</ele>
        <time>2022-05-06T09:25:28.000Z</time>
      </trkpt>
      <trkpt lat="40.2648054063320159912109375" lon="-0.979822687804698944091796875">
        <ele>1218.800048828125</ele>
        <time>2022-05-06T09:25:29.000Z</time>
      </trkpt>
      <trkpt lat="40.2647351659834384918212890625" lon="-0.97977750934660434722900390625">
        <ele>1219</ele>
        <time>2022-05-06T09:25:31.000Z</time>
      </trkpt>
      <trkpt lat="40.2646624110639095306396484375" lon="-0.97972872667014598846435546875">
        <ele>1219</ele>
        <time>2022-05-06T09:25:33.000Z</time>
      </trkpt>
      <trkpt lat="40.2645879797637462615966796875" lon="-0.9796786867082118988037109375">
        <ele>1219.199951171875</ele>
        <time>2022-05-06T09:25:35.000Z</time>
      </trkpt>
      <trkpt lat="40.2645148895680904388427734375" lon="-0.97963384352624416351318359375">
        <ele>1219.4000244140625</ele>
        <time>2022-05-06T09:25:37.000Z</time>
      </trkpt>
      <trkpt lat="40.26444372721016407012939453125" lon="-0.979588329792022705078125">
        <ele>1219.5999755859375</ele>
        <time>2022-05-06T09:25:39.000Z</time>
      </trkpt>
      <trkpt lat="40.26437290012836456298828125" lon="-0.97954633645713329315185546875">
        <ele>1219.800048828125</ele>
        <time>2022-05-06T09:25:41.000Z</time>
      </trkpt>
      <trkpt lat="40.26430022902786731719970703125" lon="-0.9795019961893558502197265625">
        <ele>1220</ele>
        <time>2022-05-06T09:25:43.000Z</time>
      </trkpt>
      <trkpt lat="40.2642242051661014556884765625" lon="-0.9794563986361026763916015625">
        <ele>1220.199951171875</ele>
        <time>2022-05-06T09:25:45.000Z</time>
      </trkpt>
      <trkpt lat="40.26418405584990978240966796875" lon="-0.97943301312625408172607421875">
        <ele>1220.199951171875</ele>
        <time>2022-05-06T09:25:46.000Z</time>
      </trkpt>
      <trkpt lat="40.2641447447240352630615234375" lon="-0.97940870560705661773681640625">
        <ele>1220.4000244140625</ele>
        <time>2022-05-06T09:25:47.000Z</time>
      </trkpt>
      <trkpt lat="40.26407173834741115570068359375" lon="-0.97936662845313549041748046875">
        <ele>1220</ele>
        <time>2022-05-06T09:25:49.000Z</time>
      </trkpt>
      <trkpt lat="40.2639953792095184326171875" lon="-0.97932052798569202423095703125">
        <ele>1219.4000244140625</ele>
        <time>2022-05-06T09:25:51.000Z</time>
      </trkpt>
      <trkpt lat="40.26392203755676746368408203125" lon="-0.97927652299404144287109375">
        <ele>1219</ele>
        <time>2022-05-06T09:25:53.000Z</time>
      </trkpt>
      <trkpt lat="40.26385121047496795654296875" lon="-0.97923737950623035430908203125">
        <ele>1218.4000244140625</ele>
        <time>2022-05-06T09:25:55.000Z</time>
      </trkpt>
      <trkpt lat="40.2637722529470920562744140625" lon="-0.9792062826454639434814453125">
        <ele>1218</ele>
        <time>2022-05-06T09:25:57.000Z</time>
      </trkpt>
      <trkpt lat="40.26368818245828151702880859375" lon="-0.97916848026216030120849609375">
        <ele>1218</ele>
        <time>2022-05-06T09:25:59.000Z</time>
      </trkpt>
      <trkpt lat="40.2636408247053623199462890625" lon="-0.97914115525782108306884765625">
        <ele>1218</ele>
        <time>2022-05-06T09:26:00.000Z</time>
      </trkpt>
      <trkpt lat="40.26358810253441333770751953125" lon="-0.9791080467402935028076171875">
        <ele>1218</ele>
        <time>2022-05-06T09:26:01.000Z</time>
      </trkpt>
      <trkpt lat="40.26347176171839237213134765625" lon="-0.97903738729655742645263671875">
        <ele>1217.4000244140625</ele>
        <time>2022-05-06T09:26:03.000Z</time>
      </trkpt>
      <trkpt lat="40.26334024965763092041015625" lon="-0.97896144725382328033447265625">
        <ele>1216.800048828125</ele>
        <time>2022-05-06T09:26:05.000Z</time>
      </trkpt>
      <trkpt lat="40.2632711827754974365234375" lon="-0.9789192862808704376220703125">
        <ele>1216.4000244140625</ele>
        <time>2022-05-06T09:26:06.000Z</time>
      </trkpt>
      <trkpt lat="40.26319934986531734466552734375" lon="-0.97887419164180755615234375">
        <ele>1216.199951171875</ele>
        <time>2022-05-06T09:26:07.000Z</time>
      </trkpt>
      <trkpt lat="40.263126008212566375732421875" lon="-0.9788327850401401519775390625">
        <ele>1216</ele>
        <time>2022-05-06T09:26:08.000Z</time>
      </trkpt>
      <trkpt lat="40.26305367238819599151611328125" lon="-0.9787908755242824554443359375">
        <ele>1215.800048828125</ele>
        <time>2022-05-06T09:26:09.000Z</time>
      </trkpt>
      <trkpt lat="40.2629064023494720458984375" lon="-0.97870848141610622406005859375">
        <ele>1215.800048828125</ele>
        <time>2022-05-06T09:26:11.000Z</time>
      </trkpt>
      <trkpt lat="40.26276801712810993194580078125" lon="-0.97863019444048404693603515625">
        <ele>1216</ele>
        <time>2022-05-06T09:26:13.000Z</time>
      </trkpt>
      <trkpt lat="40.26263105683028697967529296875" lon="-0.97854972817003726959228515625">
        <ele>1216.4000244140625</ele>
        <time>2022-05-06T09:26:15.000Z</time>
      </trkpt>
      <trkpt lat="40.26256433688104152679443359375" lon="-0.978508405387401580810546875">
        <ele>1216.4000244140625</ele>
        <time>2022-05-06T09:26:16.000Z</time>
      </trkpt>
      <trkpt lat="40.26249778456985950469970703125" lon="-0.97846808843314647674560546875">
        <ele>1216.5999755859375</ele>
        <time>2022-05-06T09:26:17.000Z</time>
      </trkpt>
      <trkpt lat="40.262370295822620391845703125" lon="-0.9783942438662052154541015625">
        <ele>1216.800048828125</ele>
        <time>2022-05-06T09:26:19.000Z</time>
      </trkpt>
      <trkpt lat="40.26224079541862010955810546875" lon="-0.978320650756359100341796875">
        <ele>1217.199951171875</ele>
        <time>2022-05-06T09:26:21.000Z</time>
      </trkpt>
      <trkpt lat="40.262106768786907196044921875" lon="-0.97823641262948513031005859375">
        <ele>1217.4000244140625</ele>
        <time>2022-05-06T09:26:23.000Z</time>
      </trkpt>
      <trkpt lat="40.26203979738056659698486328125" lon="-0.9781940840184688568115234375">
        <ele>1217.4000244140625</ele>
        <time>2022-05-06T09:26:24.000Z</time>
      </trkpt>
      <trkpt lat="40.2619729936122894287109375" lon="-0.978153012692928314208984375">
        <ele>1217.199951171875</ele>
        <time>2022-05-06T09:26:25.000Z</time>
      </trkpt>
      <trkpt lat="40.26184701360762119293212890625" lon="-0.97807011567056179046630859375">
        <ele>1216.5999755859375</ele>
        <time>2022-05-06T09:26:27.000Z</time>
      </trkpt>
      <trkpt lat="40.26173570193350315093994140625" lon="-0.9779999591410160064697265625">
        <ele>1216.4000244140625</ele>
        <time>2022-05-06T09:26:29.000Z</time>
      </trkpt>
      <trkpt lat="40.261684991419315338134765625" lon="-0.9779681079089641571044921875">
        <ele>1216.4000244140625</ele>
        <time>2022-05-06T09:26:30.000Z</time>
      </trkpt>
      <trkpt lat="40.2616352029144763946533203125" lon="-0.97793600521981716156005859375">
        <ele>1216.199951171875</ele>
        <time>2022-05-06T09:26:31.000Z</time>
      </trkpt>
      <trkpt lat="40.26153956539928913116455078125" lon="-0.97787817008793354034423828125">
        <ele>1216</ele>
        <time>2022-05-06T09:26:33.000Z</time>
      </trkpt>
      <trkpt lat="40.26144317351281642913818359375" lon="-0.97781966440379619598388671875">
        <ele>1215.800048828125</ele>
        <time>2022-05-06T09:26:35.000Z</time>
      </trkpt>
      <trkpt lat="40.26135114021599292755126953125" lon="-0.9777639247477054595947265625">
        <ele>1215.5999755859375</ele>
        <time>2022-05-06T09:26:37.000Z</time>
      </trkpt>
      <trkpt lat="40.26130604557693004608154296875" lon="-0.97773718647658824920654296875">
        <ele>1215.5999755859375</ele>
        <time>2022-05-06T09:26:38.000Z</time>
      </trkpt>
      <trkpt lat="40.2612606994807720184326171875" lon="-0.97770868800580501556396484375">
        <ele>1215.5999755859375</ele>
        <time>2022-05-06T09:26:39.000Z</time>
      </trkpt>
      <trkpt lat="40.2611688338220119476318359375" lon="-0.977652110159397125244140625">
        <ele>1215.4000244140625</ele>
        <time>2022-05-06T09:26:41.000Z</time>
      </trkpt>
      <trkpt lat="40.26107889600098133087158203125" lon="-0.977594442665576934814453125">
        <ele>1215.4000244140625</ele>
        <time>2022-05-06T09:26:43.000Z</time>
      </trkpt>
      <trkpt lat="40.260994322597980499267578125" lon="-0.977550856769084930419921875">
        <ele>1215.4000244140625</ele>
        <time>2022-05-06T09:26:45.000Z</time>
      </trkpt>
      <trkpt lat="40.26095040142536163330078125" lon="-0.9775243699550628662109375">
        <ele>1215.199951171875</ele>
        <time>2022-05-06T09:26:46.000Z</time>
      </trkpt>
      <trkpt lat="40.2609073184430599212646484375" lon="-0.97749821841716766357421875">
        <ele>1214.800048828125</ele>
        <time>2022-05-06T09:26:47.000Z</time>
      </trkpt>
      <trkpt lat="40.2608234994113445281982421875" lon="-0.97745127975940704345703125">
        <ele>1214.199951171875</ele>
        <time>2022-05-06T09:26:49.000Z</time>
      </trkpt>
      <trkpt lat="40.26073792017996311187744140625" lon="-0.97740123979747295379638671875">
        <ele>1213.800048828125</ele>
        <time>2022-05-06T09:26:51.000Z</time>
      </trkpt>
      <trkpt lat="40.2606468088924884796142578125" lon="-0.97735178656876087188720703125">
        <ele>1213.199951171875</ele>
        <time>2022-05-06T09:26:53.000Z</time>
      </trkpt>
      <trkpt lat="40.26060213334858417510986328125" lon="-0.97732563503086566925048828125">
        <ele>1212.800048828125</ele>
        <time>2022-05-06T09:26:54.000Z</time>
      </trkpt>
      <trkpt lat="40.26055888272821903228759765625" lon="-0.97730065695941448211669921875">
        <ele>1212.5999755859375</ele>
        <time>2022-05-06T09:26:55.000Z</time>
      </trkpt>
      <trkpt lat="40.26046969927847385406494140625" lon="-0.97725145518779754638671875">
        <ele>1212</ele>
        <time>2022-05-06T09:26:57.000Z</time>
      </trkpt>
      <trkpt lat="40.26038755662739276885986328125" lon="-0.97720585763454437255859375">
        <ele>1212.199951171875</ele>
        <time>2022-05-06T09:26:59.000Z</time>
      </trkpt>
      <trkpt lat="40.26034061796963214874267578125" lon="-0.97718113102018833160400390625">
        <ele>1212.199951171875</ele>
        <time>2022-05-06T09:27:00.000Z</time>
      </trkpt>
      <trkpt lat="40.26029217056930065155029296875" lon="-0.977152548730373382568359375">
        <ele>1212.199951171875</ele>
        <time>2022-05-06T09:27:01.000Z</time>
      </trkpt>
      <trkpt lat="40.26019896380603313446044921875" lon="-0.9770937077701091766357421875">
        <ele>1212.4000244140625</ele>
        <time>2022-05-06T09:27:03.000Z</time>
      </trkpt>
      <trkpt lat="40.2601115405559539794921875" lon="-0.97704316489398479461669921875">
        <ele>1212.5999755859375</ele>
        <time>2022-05-06T09:27:05.000Z</time>
      </trkpt>
      <trkpt lat="40.260023362934589385986328125" lon="-0.976992286741733551025390625">
        <ele>1212.800048828125</ele>
        <time>2022-05-06T09:27:07.000Z</time>
      </trkpt>
      <trkpt lat="40.2599363587796688079833984375" lon="-0.9769431687891483306884765625">
        <ele>1212.800048828125</ele>
        <time>2022-05-06T09:27:09.000Z</time>
      </trkpt>
      <trkpt lat="40.2598441578447818756103515625" lon="-0.9768888540565967559814453125">
        <ele>1212.5999755859375</ele>
        <time>2022-05-06T09:27:11.000Z</time>
      </trkpt>
      <trkpt lat="40.25975489057600498199462890625" lon="-0.976836048066616058349609375">
        <ele>1212.199951171875</ele>
        <time>2022-05-06T09:27:13.000Z</time>
      </trkpt>
      <trkpt lat="40.25966771878302097320556640625" lon="-0.976782739162445068359375">
        <ele>1211.800048828125</ele>
        <time>2022-05-06T09:27:15.000Z</time>
      </trkpt>
      <trkpt lat="40.25958113372325897216796875" lon="-0.97673135809600353240966796875">
        <ele>1211.5999755859375</ele>
        <time>2022-05-06T09:27:17.000Z</time>
      </trkpt>
      <trkpt lat="40.25949588976800441741943359375" lon="-0.9766836650669574737548828125">
        <ele>1211.4000244140625</ele>
        <time>2022-05-06T09:27:19.000Z</time>
      </trkpt>
      <trkpt lat="40.259410478174686431884765625" lon="-0.97663991153240203857421875">
        <ele>1211.4000244140625</ele>
        <time>2022-05-06T09:27:21.000Z</time>
      </trkpt>
      <trkpt lat="40.25932741351425647735595703125" lon="-0.97659205086529254913330078125">
        <ele>1211</ele>
        <time>2022-05-06T09:27:23.000Z</time>
      </trkpt>
      <trkpt lat="40.25924778543412685394287109375" lon="-0.97654762677848339080810546875">
        <ele>1210.5999755859375</ele>
        <time>2022-05-06T09:27:25.000Z</time>
      </trkpt>
      <trkpt lat="40.25916681624948978424072265625" lon="-0.9764972515404224395751953125">
        <ele>1210</ele>
        <time>2022-05-06T09:27:27.000Z</time>
      </trkpt>
      <trkpt lat="40.259086601436138153076171875" lon="-0.97644184716045856475830078125">
        <ele>1209.5999755859375</ele>
        <time>2022-05-06T09:27:29.000Z</time>
      </trkpt>
      <trkpt lat="40.25904645211994647979736328125" lon="-0.97641569562256336212158203125">
        <ele>1209.4000244140625</ele>
        <time>2022-05-06T09:27:30.000Z</time>
      </trkpt>
      <trkpt lat="40.259004123508930206298828125" lon="-0.97638837061822414398193359375">
        <ele>1209</ele>
        <time>2022-05-06T09:27:31.000Z</time>
      </trkpt>
      <trkpt lat="40.25892491452395915985107421875" lon="-0.97633816301822662353515625">
        <ele>1208.5999755859375</ele>
        <time>2022-05-06T09:27:33.000Z</time>
      </trkpt>
      <trkpt lat="40.258837826550006866455078125" lon="-0.97628661431372165679931640625">
        <ele>1208.199951171875</ele>
        <time>2022-05-06T09:27:35.000Z</time>
      </trkpt>
      <trkpt lat="40.25875409133732318878173828125" lon="-0.976233892142772674560546875">
        <ele>1208.4000244140625</ele>
        <time>2022-05-06T09:27:37.000Z</time>
      </trkpt>
      <trkpt lat="40.25871553458273410797119140625" lon="-0.9762105904519557952880859375">
        <ele>1208.4000244140625</ele>
        <time>2022-05-06T09:27:38.000Z</time>
      </trkpt>
      <trkpt lat="40.2586727030575275421142578125" lon="-0.97618670202791690826416015625">
        <ele>1208.4000244140625</ele>
        <time>2022-05-06T09:27:39.000Z</time>
      </trkpt>
      <trkpt lat="40.25859198532998561859130859375" lon="-0.976140014827251434326171875">
        <ele>1208.5999755859375</ele>
        <time>2022-05-06T09:27:41.000Z</time>
      </trkpt>
      <trkpt lat="40.25851151905953884124755859375" lon="-0.976095758378505706787109375">
        <ele>1208.800048828125</ele>
        <time>2022-05-06T09:27:43.000Z</time>
      </trkpt>
      <trkpt lat="40.258433818817138671875" lon="-0.9760503284633159637451171875">
        <ele>1209</ele>
        <time>2022-05-06T09:27:45.000Z</time>
      </trkpt>
      <trkpt lat="40.2583494968712329864501953125" lon="-0.97600062377750873565673828125">
        <ele>1209.199951171875</ele>
        <time>2022-05-06T09:27:47.000Z</time>
      </trkpt>
      <trkpt lat="40.25826693512499332427978515625" lon="-0.9759507514536380767822265625">
        <ele>1209.4000244140625</ele>
        <time>2022-05-06T09:27:49.000Z</time>
      </trkpt>
      <trkpt lat="40.25819183327257633209228515625" lon="-0.9759024716913700103759765625">
        <ele>1209.800048828125</ele>
        <time>2022-05-06T09:27:51.000Z</time>
      </trkpt>
      <trkpt lat="40.25811052881181240081787109375" lon="-0.9758562035858631134033203125">
        <ele>1210</ele>
        <time>2022-05-06T09:27:53.000Z</time>
      </trkpt>
      <trkpt lat="40.25806996040046215057373046875" lon="-0.975830890238285064697265625">
        <ele>1210.199951171875</ele>
        <time>2022-05-06T09:27:54.000Z</time>
      </trkpt>
      <trkpt lat="40.25803207419812679290771484375" lon="-0.97580901347100734710693359375">
        <ele>1210.4000244140625</ele>
        <time>2022-05-06T09:27:55.000Z</time>
      </trkpt>
      <trkpt lat="40.2579538710415363311767578125" lon="-0.9757609851658344268798828125">
        <ele>1210.5999755859375</ele>
        <time>2022-05-06T09:27:57.000Z</time>
      </trkpt>
      <trkpt lat="40.2578727342188358306884765625" lon="-0.97571362741291522979736328125">
        <ele>1210.800048828125</ele>
        <time>2022-05-06T09:27:59.000Z</time>
      </trkpt>
      <trkpt lat="40.257833003997802734375" lon="-0.97569267265498638153076171875">
        <ele>1210.800048828125</ele>
        <time>2022-05-06T09:28:00.000Z</time>
      </trkpt>
      <trkpt lat="40.25779134593904018402099609375" lon="-0.97566702403128147125244140625">
        <ele>1210.800048828125</ele>
        <time>2022-05-06T09:28:01.000Z</time>
      </trkpt>
      <trkpt lat="40.25770895183086395263671875" lon="-0.97561807371675968170166015625">
        <ele>1210.5999755859375</ele>
        <time>2022-05-06T09:28:03.000Z</time>
      </trkpt>
      <trkpt lat="40.25763460434973239898681640625" lon="-0.975580774247646331787109375">
        <ele>1210.4000244140625</ele>
        <time>2022-05-06T09:28:05.000Z</time>
      </trkpt>
      <trkpt lat="40.25759537704288959503173828125" lon="-0.9755578078329563140869140625">
        <ele>1210.199951171875</ele>
        <time>2022-05-06T09:28:06.000Z</time>
      </trkpt>
      <trkpt lat="40.25755933485925197601318359375" lon="-0.97553710453212261199951171875">
        <ele>1210.199951171875</ele>
        <time>2022-05-06T09:28:07.000Z</time>
      </trkpt>
      <trkpt lat="40.257475264370441436767578125" lon="-0.9754858911037445068359375">
        <ele>1210</ele>
        <time>2022-05-06T09:28:09.000Z</time>
      </trkpt>
      <trkpt lat="40.25739437900483608245849609375" lon="-0.975433252751827239990234375">
        <ele>1209.5999755859375</ele>
        <time>2022-05-06T09:28:11.000Z</time>
      </trkpt>
      <trkpt lat="40.2573564089834690093994140625" lon="-0.9754096157848834991455078125">
        <ele>1209.5999755859375</ele>
        <time>2022-05-06T09:28:12.000Z</time>
      </trkpt>
      <trkpt lat="40.25731978006660938262939453125" lon="-0.9753866493701934814453125">
        <ele>1209.4000244140625</ele>
        <time>2022-05-06T09:28:13.000Z</time>
      </trkpt>
      <trkpt lat="40.25724886916577816009521484375" lon="-0.97534331493079662322998046875">
        <ele>1209.199951171875</ele>
        <time>2022-05-06T09:28:15.000Z</time>
      </trkpt>
      <trkpt lat="40.257181227207183837890625" lon="-0.97530148923397064208984375">
        <ele>1209</ele>
        <time>2022-05-06T09:28:17.000Z</time>
      </trkpt>
      <trkpt lat="40.25710704736411571502685546875" lon="-0.975259579718112945556640625">
        <ele>1208.5999755859375</ele>
        <time>2022-05-06T09:28:19.000Z</time>
      </trkpt>
      <trkpt lat="40.2570747770369052886962890625" lon="-0.9752429835498332977294921875">
        <ele>1208.4000244140625</ele>
        <time>2022-05-06T09:28:20.000Z</time>
      </trkpt>
      <trkpt lat="40.2570419199764728546142578125" lon="-0.975221693515777587890625">
        <ele>1208.199951171875</ele>
        <time>2022-05-06T09:28:21.000Z</time>
      </trkpt>
      <trkpt lat="40.256972350180149078369140625" lon="-0.9751789458096027374267578125">
        <ele>1207.800048828125</ele>
        <time>2022-05-06T09:28:23.000Z</time>
      </trkpt>
      <trkpt lat="40.256899930536746978759765625" lon="-0.97513594664633274078369140625">
        <ele>1207.199951171875</ele>
        <time>2022-05-06T09:28:25.000Z</time>
      </trkpt>
      <trkpt lat="40.256861709058284759521484375" lon="-0.97511214204132556915283203125">
        <ele>1207</ele>
        <time>2022-05-06T09:28:26.000Z</time>
      </trkpt>
      <trkpt lat="40.25682256557047367095947265625" lon="-0.97508884035050868988037109375">
        <ele>1206.800048828125</ele>
        <time>2022-05-06T09:28:27.000Z</time>
      </trkpt>
      <trkpt lat="40.25674595497548580169677734375" lon="-0.9750451706349849700927734375">
        <ele>1206.800048828125</ele>
        <time>2022-05-06T09:28:29.000Z</time>
      </trkpt>
      <trkpt lat="40.2566756308078765869140625" lon="-0.97500099800527095794677734375">
        <ele>1207.199951171875</ele>
        <time>2022-05-06T09:28:31.000Z</time>
      </trkpt>
      <trkpt lat="40.25660446844995021820068359375" lon="-0.97495674155652523040771484375">
        <ele>1207.5999755859375</ele>
        <time>2022-05-06T09:28:33.000Z</time>
      </trkpt>
      <trkpt lat="40.25656775571405887603759765625" lon="-0.974935702979564666748046875">
        <ele>1207.5999755859375</ele>
        <time>2022-05-06T09:28:34.000Z</time>
      </trkpt>
      <trkpt lat="40.2565323002636432647705078125" lon="-0.9749164246022701263427734375">
        <ele>1207.800048828125</ele>
        <time>2022-05-06T09:28:35.000Z</time>
      </trkpt>
      <trkpt lat="40.256464742124080657958984375" lon="-0.97487828694283962249755859375">
        <ele>1208.199951171875</ele>
        <time>2022-05-06T09:28:37.000Z</time>
      </trkpt>
      <trkpt lat="40.25639592669904232025146484375" lon="-0.97484056837856769561767578125">
        <ele>1208.5999755859375</ele>
        <time>2022-05-06T09:28:39.000Z</time>
      </trkpt>
      <trkpt lat="40.2563623152673244476318359375" lon="-0.9748215414583683013916015625">
        <ele>1208.5999755859375</ele>
        <time>2022-05-06T09:28:40.000Z</time>
      </trkpt>
      <trkpt lat="40.25632954202592372894287109375" lon="-0.9748037718236446380615234375">
        <ele>1208.800048828125</ele>
        <time>2022-05-06T09:28:41.000Z</time>
      </trkpt>
      <trkpt lat="40.25626349262893199920654296875" lon="-0.9747591800987720489501953125">
        <ele>1209.199951171875</ele>
        <time>2022-05-06T09:28:43.000Z</time>
      </trkpt>
      <trkpt lat="40.25619090534746646881103515625" lon="-0.97471836023032665252685546875">
        <ele>1209.5999755859375</ele>
        <time>2022-05-06T09:28:45.000Z</time>
      </trkpt>
      <trkpt lat="40.25615394115447998046875" lon="-0.97469639964401721954345703125">
        <ele>1209.800048828125</ele>
        <time>2022-05-06T09:28:46.000Z</time>
      </trkpt>
      <trkpt lat="40.2561195753514766693115234375" lon="-0.974676199257373809814453125">
        <ele>1209.800048828125</ele>
        <time>2022-05-06T09:28:47.000Z</time>
      </trkpt>
      <trkpt lat="40.25605444796383380889892578125" lon="-0.97463705576956272125244140625">
        <ele>1210</ele>
        <time>2022-05-06T09:28:49.000Z</time>
      </trkpt>
      <trkpt lat="40.2559797652065753936767578125" lon="-0.9745928831398487091064453125">
        <ele>1210.4000244140625</ele>
        <time>2022-05-06T09:28:51.000Z</time>
      </trkpt>
      <trkpt lat="40.2559031546115875244140625" lon="-0.97455642186105251312255859375">
        <ele>1210.5999755859375</ele>
        <time>2022-05-06T09:28:53.000Z</time>
      </trkpt>
      <trkpt lat="40.255829058587551116943359375" lon="-0.9745167754590511322021484375">
        <ele>1211</ele>
        <time>2022-05-06T09:28:55.000Z</time>
      </trkpt>
      <trkpt lat="40.25575102306902408599853515625" lon="-0.9744762070477008819580078125">
        <ele>1211.199951171875</ele>
        <time>2022-05-06T09:28:57.000Z</time>
      </trkpt>
      <trkpt lat="40.25566955097019672393798828125" lon="-0.9744336269795894622802734375">
        <ele>1211.800048828125</ele>
        <time>2022-05-06T09:28:59.000Z</time>
      </trkpt>
      <trkpt lat="40.25562965311110019683837890625" lon="-0.97440923564136028289794921875">
        <ele>1212.199951171875</ele>
        <time>2022-05-06T09:29:00.000Z</time>
      </trkpt>
      <trkpt lat="40.2555888332426548004150390625" lon="-0.97438693977892398834228515625">
        <ele>1212.4000244140625</ele>
        <time>2022-05-06T09:29:01.000Z</time>
      </trkpt>
      <trkpt lat="40.25554683990776538848876953125" lon="-0.974371433258056640625">
        <ele>1212.800048828125</ele>
        <time>2022-05-06T09:29:02.000Z</time>
      </trkpt>
      <trkpt lat="40.25550861842930316925048828125" lon="-0.97435869276523590087890625">
        <ele>1213.199951171875</ele>
        <time>2022-05-06T09:29:03.000Z</time>
      </trkpt>
      <trkpt lat="40.25543653406202793121337890625" lon="-0.974320806562900543212890625">
        <ele>1213.800048828125</ele>
        <time>2022-05-06T09:29:05.000Z</time>
      </trkpt>
      <trkpt lat="40.25536931119859218597412109375" lon="-0.97428233362734317779541015625">
        <ele>1214.4000244140625</ele>
        <time>2022-05-06T09:29:07.000Z</time>
      </trkpt>
      <trkpt lat="40.25530292652547359466552734375" lon="-0.97423472441732883453369140625">
        <ele>1214.800048828125</ele>
        <time>2022-05-06T09:29:09.000Z</time>
      </trkpt>
      <trkpt lat="40.2552693150937557220458984375" lon="-0.97420991398394107818603515625">
        <ele>1215.199951171875</ele>
        <time>2022-05-06T09:29:10.000Z</time>
      </trkpt>
      <trkpt lat="40.25523721240460872650146484375" lon="-0.9741861931979656219482421875">
        <ele>1215.4000244140625</ele>
        <time>2022-05-06T09:29:11.000Z</time>
      </trkpt>
      <trkpt lat="40.25516026653349399566650390625" lon="-0.97414067946374416351318359375">
        <ele>1215.5999755859375</ele>
        <time>2022-05-06T09:29:13.000Z</time>
      </trkpt>
      <trkpt lat="40.25508365593850612640380859375" lon="-0.97408837638795375823974609375">
        <ele>1215.199951171875</ele>
        <time>2022-05-06T09:29:15.000Z</time>
      </trkpt>
      <trkpt lat="40.25501056574285030364990234375" lon="-0.97404931671917438507080078125">
        <ele>1215.199951171875</ele>
        <time>2022-05-06T09:29:17.000Z</time>
      </trkpt>
      <trkpt lat="40.25493596680462360382080078125" lon="-0.9740141965448856353759765625">
        <ele>1215</ele>
        <time>2022-05-06T09:29:19.000Z</time>
      </trkpt>
      <trkpt lat="40.25485784746706485748291015625" lon="-0.973982177674770355224609375">
        <ele>1215</ele>
        <time>2022-05-06T09:29:21.000Z</time>
      </trkpt>
      <trkpt lat="40.25477469898760318756103515625" lon="-0.9739521704614162445068359375">
        <ele>1215</ele>
        <time>2022-05-06T09:29:23.000Z</time>
      </trkpt>
      <trkpt lat="40.25470378808677196502685546875" lon="-0.97391855902969837188720703125">
        <ele>1214.800048828125</ele>
        <time>2022-05-06T09:29:25.000Z</time>
      </trkpt>
      <trkpt lat="40.2546235732734203338623046875" lon="-0.97387061454355716705322265625">
        <ele>1214.800048828125</ele>
        <time>2022-05-06T09:29:27.000Z</time>
      </trkpt>
      <trkpt lat="40.25458208285272121429443359375" lon="-0.97384463064372539520263671875">
        <ele>1214.800048828125</ele>
        <time>2022-05-06T09:29:28.000Z</time>
      </trkpt>
      <trkpt lat="40.2545380778610706329345703125" lon="-0.97382971085608005523681640625">
        <ele>1215</ele>
        <time>2022-05-06T09:29:29.000Z</time>
      </trkpt>
      <trkpt lat="40.2544576115906238555908203125" lon="-0.97379836253821849822998046875">
        <ele>1215.199951171875</ele>
        <time>2022-05-06T09:29:31.000Z</time>
      </trkpt>
      <trkpt lat="40.25437823496758937835693359375" lon="-0.97375561483204364776611328125">
        <ele>1215.4000244140625</ele>
        <time>2022-05-06T09:29:33.000Z</time>
      </trkpt>
      <trkpt lat="40.2542990259826183319091796875" lon="-0.97371362149715423583984375">
        <ele>1215.5999755859375</ele>
        <time>2022-05-06T09:29:35.000Z</time>
      </trkpt>
      <trkpt lat="40.2542195655405521392822265625" lon="-0.97366358153522014617919921875">
        <ele>1215.800048828125</ele>
        <time>2022-05-06T09:29:37.000Z</time>
      </trkpt>
      <trkpt lat="40.2541427873075008392333984375" lon="-0.97361597232520580291748046875">
        <ele>1215.800048828125</ele>
        <time>2022-05-06T09:29:39.000Z</time>
      </trkpt>
      <trkpt lat="40.25406508706510066986083984375" lon="-0.97356618382036685943603515625">
        <ele>1215.800048828125</ele>
        <time>2022-05-06T09:29:41.000Z</time>
      </trkpt>
      <trkpt lat="40.25398395024240016937255859375" lon="-0.97351538948714733123779296875">
        <ele>1215.5999755859375</ele>
        <time>2022-05-06T09:29:43.000Z</time>
      </trkpt>
      <trkpt lat="40.25390231050550937652587890625" lon="-0.9734581410884857177734375">
        <ele>1215.4000244140625</ele>
        <time>2022-05-06T09:29:45.000Z</time>
      </trkpt>
      <trkpt lat="40.2538204193115234375" lon="-0.973403491079807281494140625">
        <ele>1215.199951171875</ele>
        <time>2022-05-06T09:29:47.000Z</time>
      </trkpt>
      <trkpt lat="40.2537327446043491363525390625" lon="-0.97333014942705631256103515625">
        <ele>1214.4000244140625</ele>
        <time>2022-05-06T09:29:49.000Z</time>
      </trkpt>
      <trkpt lat="40.2536539547145366668701171875" lon="-0.9732635132968425750732421875">
        <ele>1213.4000244140625</ele>
        <time>2022-05-06T09:29:51.000Z</time>
      </trkpt>
      <trkpt lat="40.2536133863031864166259765625" lon="-0.9732309915125370025634765625">
        <ele>1212.800048828125</ele>
        <time>2022-05-06T09:29:52.000Z</time>
      </trkpt>
      <trkpt lat="40.25356837548315525054931640625" lon="-0.9732008166611194610595703125">
        <ele>1212.5999755859375</ele>
        <time>2022-05-06T09:29:53.000Z</time>
      </trkpt>
      <trkpt lat="40.25348455645143985748291015625" lon="-0.97314088605344295501708984375">
        <ele>1211.800048828125</ele>
        <time>2022-05-06T09:29:55.000Z</time>
      </trkpt>
      <trkpt lat="40.2534004859626293182373046875" lon="-0.9730834700167179107666015625">
        <ele>1211.199951171875</ele>
        <time>2022-05-06T09:29:57.000Z</time>
      </trkpt>
      <trkpt lat="40.25331608019769191741943359375" lon="-0.9730331785976886749267578125">
        <ele>1210.4000244140625</ele>
        <time>2022-05-06T09:29:59.000Z</time>
      </trkpt>
      <trkpt lat="40.253227651119232177734375" lon="-0.9729788638651371002197265625">
        <ele>1209.5999755859375</ele>
        <time>2022-05-06T09:30:01.000Z</time>
      </trkpt>
      <trkpt lat="40.25314609520137310028076171875" lon="-0.9729289077222347259521484375">
        <ele>1209</ele>
        <time>2022-05-06T09:30:03.000Z</time>
      </trkpt>
      <trkpt lat="40.253065042197704315185546875" lon="-0.97288154996931552886962890625">
        <ele>1208.4000244140625</ele>
        <time>2022-05-06T09:30:05.000Z</time>
      </trkpt>
      <trkpt lat="40.2529768645763397216796875" lon="-0.972828827798366546630859375">
        <ele>1207.5999755859375</ele>
        <time>2022-05-06T09:30:07.000Z</time>
      </trkpt>
      <trkpt lat="40.25289078243076801300048828125" lon="-0.9727719984948635101318359375">
        <ele>1207.4000244140625</ele>
        <time>2022-05-06T09:30:09.000Z</time>
      </trkpt>
      <trkpt lat="40.25280830450356006622314453125" lon="-0.97272262908518314361572265625">
        <ele>1207.4000244140625</ele>
        <time>2022-05-06T09:30:11.000Z</time>
      </trkpt>
      <trkpt lat="40.2527275867760181427001953125" lon="-0.97267149947583675384521484375">
        <ele>1207.4000244140625</ele>
        <time>2022-05-06T09:30:13.000Z</time>
      </trkpt>
      <trkpt lat="40.25264770723879337310791015625" lon="-0.972620956599712371826171875">
        <ele>1207.4000244140625</ele>
        <time>2022-05-06T09:30:15.000Z</time>
      </trkpt>
      <trkpt lat="40.2526062168180942535400390625" lon="-0.97259572707116603851318359375">
        <ele>1207.4000244140625</ele>
        <time>2022-05-06T09:30:16.000Z</time>
      </trkpt>
      <trkpt lat="40.25256422348320484161376953125" lon="-0.9725674800574779510498046875">
        <ele>1207.4000244140625</ele>
        <time>2022-05-06T09:30:17.000Z</time>
      </trkpt>
      <trkpt lat="40.252479650080204010009765625" lon="-0.97251727245748043060302734375">
        <ele>1207.5999755859375</ele>
        <time>2022-05-06T09:30:19.000Z</time>
      </trkpt>
      <trkpt lat="40.25240144692361354827880859375" lon="-0.97247418947517871856689453125">
        <ele>1207.800048828125</ele>
        <time>2022-05-06T09:30:21.000Z</time>
      </trkpt>
      <trkpt lat="40.252324752509593963623046875" lon="-0.97242725081741809844970703125">
        <ele>1208</ele>
        <time>2022-05-06T09:30:23.000Z</time>
      </trkpt>
      <trkpt lat="40.2522863633930683135986328125" lon="-0.9724072180688381195068359375">
        <ele>1208</ele>
        <time>2022-05-06T09:30:24.000Z</time>
      </trkpt>
      <trkpt lat="40.25224571116268634796142578125" lon="-0.97238550893962383270263671875">
        <ele>1208</ele>
        <time>2022-05-06T09:30:25.000Z</time>
      </trkpt>
      <trkpt lat="40.25216348469257354736328125" lon="-0.97234058193862438201904296875">
        <ele>1208.199951171875</ele>
        <time>2022-05-06T09:30:27.000Z</time>
      </trkpt>
      <trkpt lat="40.2520761452615261077880859375" lon="-0.97229070961475372314453125">
        <ele>1208.5999755859375</ele>
        <time>2022-05-06T09:30:29.000Z</time>
      </trkpt>
      <trkpt lat="40.2519862912595272064208984375" lon="-0.97224234603345394134521484375">
        <ele>1208.5999755859375</ele>
        <time>2022-05-06T09:30:31.000Z</time>
      </trkpt>
      <trkpt lat="40.25190071202814579010009765625" lon="-0.9721876122057437896728515625">
        <ele>1209</ele>
        <time>2022-05-06T09:30:33.000Z</time>
      </trkpt>
      <trkpt lat="40.25181655772030353546142578125" lon="-0.97214092500507831573486328125">
        <ele>1209.4000244140625</ele>
        <time>2022-05-06T09:30:35.000Z</time>
      </trkpt>
      <trkpt lat="40.251732654869556427001953125" lon="-0.97209918312728404998779296875">
        <ele>1209.800048828125</ele>
        <time>2022-05-06T09:30:37.000Z</time>
      </trkpt>
      <trkpt lat="40.25164338760077953338623046875" lon="-0.97205040045082569122314453125">
        <ele>1210.4000244140625</ele>
        <time>2022-05-06T09:30:39.000Z</time>
      </trkpt>
      <trkpt lat="40.2515499293804168701171875" lon="-0.97200103104114532470703125">
        <ele>1210.800048828125</ele>
        <time>2022-05-06T09:30:41.000Z</time>
      </trkpt>
      <trkpt lat="40.25145814754068851470947265625" lon="-0.97194428555667400360107421875">
        <ele>1210.800048828125</ele>
        <time>2022-05-06T09:30:43.000Z</time>
      </trkpt>
      <trkpt lat="40.25140986777842044830322265625" lon="-0.9719143621623516082763671875">
        <ele>1210.5999755859375</ele>
        <time>2022-05-06T09:30:44.000Z</time>
      </trkpt>
      <trkpt lat="40.25136443786323070526123046875" lon="-0.9718892164528369903564453125">
        <ele>1210.5999755859375</ele>
        <time>2022-05-06T09:30:45.000Z</time>
      </trkpt>
      <trkpt lat="40.2513214386999607086181640625" lon="-0.97186516039073467254638671875">
        <ele>1210.5999755859375</ele>
        <time>2022-05-06T09:30:46.000Z</time>
      </trkpt>
      <trkpt lat="40.25127642787992954254150390625" lon="-0.9718409366905689239501953125">
        <ele>1210.5999755859375</ele>
        <time>2022-05-06T09:30:47.000Z</time>
      </trkpt>
      <trkpt lat="40.251231752336025238037109375" lon="-0.97180983982980251312255859375">
        <ele>1210.4000244140625</ele>
        <time>2022-05-06T09:30:48.000Z</time>
      </trkpt>
      <trkpt lat="40.25118716061115264892578125" lon="-0.971779413521289825439453125">
        <ele>1210.4000244140625</ele>
        <time>2022-05-06T09:30:49.000Z</time>
      </trkpt>
      <trkpt lat="40.2511470951139926910400390625" lon="-0.97175016067922115325927734375">
        <ele>1210.199951171875</ele>
        <time>2022-05-06T09:30:50.000Z</time>
      </trkpt>
      <trkpt lat="40.25110878981649875640869140625" lon="-0.97171671688556671142578125">
        <ele>1210</ele>
        <time>2022-05-06T09:30:51.000Z</time>
      </trkpt>
      <trkpt lat="40.251020528376102447509765625" lon="-0.97164974547922611236572265625">
        <ele>1209.800048828125</ele>
        <time>2022-05-06T09:30:53.000Z</time>
      </trkpt>
      <trkpt lat="40.25092992000281810760498046875" lon="-0.9715891443192958831787109375">
        <ele>1209</ele>
        <time>2022-05-06T09:30:55.000Z</time>
      </trkpt>
      <trkpt lat="40.2508393116295337677001953125" lon="-0.97153105773031711578369140625">
        <ele>1208.199951171875</ele>
        <time>2022-05-06T09:30:57.000Z</time>
      </trkpt>
      <trkpt lat="40.25074082426726818084716796875" lon="-0.9714652597904205322265625">
        <ele>1207.4000244140625</ele>
        <time>2022-05-06T09:30:59.000Z</time>
      </trkpt>
      <trkpt lat="40.25063454173505306243896484375" lon="-0.9713970310986042022705078125">
        <ele>1206.5999755859375</ele>
        <time>2022-05-06T09:31:01.000Z</time>
      </trkpt>
      <trkpt lat="40.2505828253924846649169921875" lon="-0.9713645093142986297607421875">
        <ele>1206.199951171875</ele>
        <time>2022-05-06T09:31:02.000Z</time>
      </trkpt>
      <trkpt lat="40.250532366335391998291015625" lon="-0.9713329933583736419677734375">
        <ele>1205.800048828125</ele>
        <time>2022-05-06T09:31:03.000Z</time>
      </trkpt>
      <trkpt lat="40.25043421424925327301025390625" lon="-0.9712739847600460052490234375">
        <ele>1205.4000244140625</ele>
        <time>2022-05-06T09:31:05.000Z</time>
      </trkpt>
      <trkpt lat="40.2503424324095249176025390625" lon="-0.97121790982782840728759765625">
        <ele>1205.199951171875</ele>
        <time>2022-05-06T09:31:07.000Z</time>
      </trkpt>
      <trkpt lat="40.2502517402172088623046875" lon="-0.97116543911397457122802734375">
        <ele>1204.800048828125</ele>
        <time>2022-05-06T09:31:09.000Z</time>
      </trkpt>
      <trkpt lat="40.25016213767230510711669921875" lon="-0.9711127169430255889892578125">
        <ele>1204.5999755859375</ele>
        <time>2022-05-06T09:31:11.000Z</time>
      </trkpt>
      <trkpt lat="40.2501177974045276641845703125" lon="-0.97108899615705013275146484375">
        <ele>1204.4000244140625</ele>
        <time>2022-05-06T09:31:12.000Z</time>
      </trkpt>
      <trkpt lat="40.25007178075611591339111328125" lon="-0.9710627608001232147216796875">
        <ele>1204.199951171875</ele>
        <time>2022-05-06T09:31:13.000Z</time>
      </trkpt>
      <trkpt lat="40.2499749697744846343994140625" lon="-0.97100316546857357025146484375">
        <ele>1203.800048828125</ele>
        <time>2022-05-06T09:31:15.000Z</time>
      </trkpt>
      <trkpt lat="40.249877236783504486083984375" lon="-0.97094432450830936431884765625">
        <ele>1203.4000244140625</ele>
        <time>2022-05-06T09:31:17.000Z</time>
      </trkpt>
      <trkpt lat="40.2497801743447780609130859375" lon="-0.970887243747711181640625">
        <ele>1202.800048828125</ele>
        <time>2022-05-06T09:31:19.000Z</time>
      </trkpt>
      <trkpt lat="40.249732397496700286865234375" lon="-0.97085799090564250946044921875">
        <ele>1202.5999755859375</ele>
        <time>2022-05-06T09:31:20.000Z</time>
      </trkpt>
      <trkpt lat="40.24968688376247882843017578125" lon="-0.97082865424454212188720703125">
        <ele>1202.4000244140625</ele>
        <time>2022-05-06T09:31:21.000Z</time>
      </trkpt>
      <trkpt lat="40.24959770031273365020751953125" lon="-0.97077316604554653167724609375">
        <ele>1202</ele>
        <time>2022-05-06T09:31:23.000Z</time>
      </trkpt>
      <trkpt lat="40.2495035715401172637939453125" lon="-0.97071616910398006439208984375">
        <ele>1202.199951171875</ele>
        <time>2022-05-06T09:31:25.000Z</time>
      </trkpt>
      <trkpt lat="40.24940759874880313873291015625" lon="-0.970655567944049835205078125">
        <ele>1202.199951171875</ele>
        <time>2022-05-06T09:31:27.000Z</time>
      </trkpt>
      <trkpt lat="40.24935998953878879547119140625" lon="-0.97062547691166400909423828125">
        <ele>1202.199951171875</ele>
        <time>2022-05-06T09:31:28.000Z</time>
      </trkpt>
      <trkpt lat="40.249312631785869598388671875" lon="-0.97059614025056362152099609375">
        <ele>1202.199951171875</ele>
        <time>2022-05-06T09:31:29.000Z</time>
      </trkpt>
      <trkpt lat="40.24922034703195095062255859375" lon="-0.970540232956409454345703125">
        <ele>1202.199951171875</ele>
        <time>2022-05-06T09:31:31.000Z</time>
      </trkpt>
      <trkpt lat="40.24912881664931774139404296875" lon="-0.970483906567096710205078125">
        <ele>1202.4000244140625</ele>
        <time>2022-05-06T09:31:33.000Z</time>
      </trkpt>
      <trkpt lat="40.2490348555147647857666015625" lon="-0.97042850218713283538818359375">
        <ele>1202.4000244140625</ele>
        <time>2022-05-06T09:31:35.000Z</time>
      </trkpt>
      <trkpt lat="40.24898649193346500396728515625" lon="-0.9704005904495716094970703125">
        <ele>1202.4000244140625</ele>
        <time>2022-05-06T09:31:36.000Z</time>
      </trkpt>
      <trkpt lat="40.24893804453313350677490234375" lon="-0.9703707508742809295654296875">
        <ele>1202.5999755859375</ele>
        <time>2022-05-06T09:31:37.000Z</time>
      </trkpt>
      <trkpt lat="40.2488407306373119354248046875" lon="-0.97030998207628726959228515625">
        <ele>1202.800048828125</ele>
        <time>2022-05-06T09:31:39.000Z</time>
      </trkpt>
      <trkpt lat="40.24874593131244182586669921875" lon="-0.9702513925731182098388671875">
        <ele>1202.800048828125</ele>
        <time>2022-05-06T09:31:41.000Z</time>
      </trkpt>
      <trkpt lat="40.2486519701778888702392578125" lon="-0.97019313834607601165771484375">
        <ele>1202.800048828125</ele>
        <time>2022-05-06T09:31:43.000Z</time>
      </trkpt>
      <trkpt lat="40.2485580928623676300048828125" lon="-0.970133878290653228759765625">
        <ele>1202.5999755859375</ele>
        <time>2022-05-06T09:31:45.000Z</time>
      </trkpt>
      <trkpt lat="40.2484672330319881439208984375" lon="-0.97007780335843563079833984375">
        <ele>1202.5999755859375</ele>
        <time>2022-05-06T09:31:47.000Z</time>
      </trkpt>
      <trkpt lat="40.24837662465870380401611328125" lon="-0.97001946531236171722412109375">
        <ele>1202.5999755859375</ele>
        <time>2022-05-06T09:31:49.000Z</time>
      </trkpt>
      <trkpt lat="40.2482804842293262481689453125" lon="-0.969962887465953826904296875">
        <ele>1202.800048828125</ele>
        <time>2022-05-06T09:31:51.000Z</time>
      </trkpt>
      <trkpt lat="40.24818174540996551513671875" lon="-0.9699027054011821746826171875">
        <ele>1202.800048828125</ele>
        <time>2022-05-06T09:31:53.000Z</time>
      </trkpt>
      <trkpt lat="40.2480803243815898895263671875" lon="-0.9698413498699665069580078125">
        <ele>1203</ele>
        <time>2022-05-06T09:31:55.000Z</time>
      </trkpt>
      <trkpt lat="40.2480276860296726226806640625" lon="-0.96980958245694637298583984375">
        <ele>1203</ele>
        <time>2022-05-06T09:31:56.000Z</time>
      </trkpt>
      <trkpt lat="40.2479747124016284942626953125" lon="-0.96977773122489452362060546875">
        <ele>1203</ele>
        <time>2022-05-06T09:31:57.000Z</time>
      </trkpt>
      <trkpt lat="40.24786482565104961395263671875" lon="-0.9697136096656322479248046875">
        <ele>1203</ele>
        <time>2022-05-06T09:31:59.000Z</time>
      </trkpt>
      <trkpt lat="40.24780757725238800048828125" lon="-0.9696807526051998138427734375">
        <ele>1203</ele>
        <time>2022-05-06T09:32:00.000Z</time>
      </trkpt>
      <trkpt lat="40.24775049649178981781005859375" lon="-0.9696467220783233642578125">
        <ele>1203</ele>
        <time>2022-05-06T09:32:01.000Z</time>
      </trkpt>
      <trkpt lat="40.2476401068270206451416015625" lon="-0.969579331576824188232421875">
        <ele>1203</ele>
        <time>2022-05-06T09:32:03.000Z</time>
      </trkpt>
      <trkpt lat="40.247538350522518157958984375" lon="-0.96951462328433990478515625">
        <ele>1203</ele>
        <time>2022-05-06T09:32:05.000Z</time>
      </trkpt>
      <trkpt lat="40.247445143759250640869140625" lon="-0.96945351921021938323974609375">
        <ele>1202.800048828125</ele>
        <time>2022-05-06T09:32:07.000Z</time>
      </trkpt>
      <trkpt lat="40.247353278100490570068359375" lon="-0.96938981674611568450927734375">
        <ele>1203</ele>
        <time>2022-05-06T09:32:09.000Z</time>
      </trkpt>
      <trkpt lat="40.2472585625946521759033203125" lon="-0.96933089196681976318359375">
        <ele>1203</ele>
        <time>2022-05-06T09:32:11.000Z</time>
      </trkpt>
      <trkpt lat="40.24716326035559177398681640625" lon="-0.9692713804543018341064453125">
        <ele>1203.199951171875</ele>
        <time>2022-05-06T09:32:13.000Z</time>
      </trkpt>
      <trkpt lat="40.24711565114557743072509765625" lon="-0.969242714345455169677734375">
        <ele>1203.199951171875</ele>
        <time>2022-05-06T09:32:14.000Z</time>
      </trkpt>
      <trkpt lat="40.247067622840404510498046875" lon="-0.969214551150798797607421875">
        <ele>1203.199951171875</ele>
        <time>2022-05-06T09:32:15.000Z</time>
      </trkpt>
      <trkpt lat="40.24697232060134410858154296875" lon="-0.96916115842759609222412109375">
        <ele>1203.4000244140625</ele>
        <time>2022-05-06T09:32:17.000Z</time>
      </trkpt>
      <trkpt lat="40.24687995202839374542236328125" lon="-0.969106592237949371337890625">
        <ele>1203.4000244140625</ele>
        <time>2022-05-06T09:32:19.000Z</time>
      </trkpt>
      <trkpt lat="40.2467898465692996978759765625" lon="-0.9690517745912075042724609375">
        <ele>1203</ele>
        <time>2022-05-06T09:32:21.000Z</time>
      </trkpt>
      <trkpt lat="40.2466978132724761962890625" lon="-0.9689974598586559295654296875">
        <ele>1202.5999755859375</ele>
        <time>2022-05-06T09:32:23.000Z</time>
      </trkpt>
      <trkpt lat="40.24660888127982616424560546875" lon="-0.968944318592548370361328125">
        <ele>1202.199951171875</ele>
        <time>2022-05-06T09:32:25.000Z</time>
      </trkpt>
      <trkpt lat="40.24656529538333415985107421875" lon="-0.9689169935882091522216796875">
        <ele>1202</ele>
        <time>2022-05-06T09:32:26.000Z</time>
      </trkpt>
      <trkpt lat="40.2465226314961910247802734375" lon="-0.9688891656696796417236328125">
        <ele>1201.800048828125</ele>
        <time>2022-05-06T09:32:27.000Z</time>
      </trkpt>
      <trkpt lat="40.24643872864544391632080078125" lon="-0.968839041888713836669921875">
        <ele>1201.4000244140625</ele>
        <time>2022-05-06T09:32:29.000Z</time>
      </trkpt>
      <trkpt lat="40.2463556639850139617919921875" lon="-0.96879185177385807037353515625">
        <ele>1201.199951171875</ele>
        <time>2022-05-06T09:32:31.000Z</time>
      </trkpt>
      <trkpt lat="40.24627159349620342254638671875" lon="-0.96874156035482883453369140625">
        <ele>1201.199951171875</ele>
        <time>2022-05-06T09:32:33.000Z</time>
      </trkpt>
      <trkpt lat="40.24618215858936309814453125" lon="-0.968692861497402191162109375">
        <ele>1201.4000244140625</ele>
        <time>2022-05-06T09:32:35.000Z</time>
      </trkpt>
      <trkpt lat="40.2460835874080657958984375" lon="-0.96864692866802215576171875">
        <ele>1201.4000244140625</ele>
        <time>2022-05-06T09:32:37.000Z</time>
      </trkpt>
      <trkpt lat="40.2459831722080707550048828125" lon="-0.96858926117420196533203125">
        <ele>1201.5999755859375</ele>
        <time>2022-05-06T09:32:39.000Z</time>
      </trkpt>
      <trkpt lat="40.2458913065493106842041015625" lon="-0.96854039467871189117431640625">
        <ele>1201.5999755859375</ele>
        <time>2022-05-06T09:32:41.000Z</time>
      </trkpt>
      <trkpt lat="40.24580354802310466766357421875" lon="-0.96849110908806324005126953125">
        <ele>1202</ele>
        <time>2022-05-06T09:32:43.000Z</time>
      </trkpt>
      <trkpt lat="40.24571486748754978179931640625" lon="-0.96844567917287349700927734375">
        <ele>1202.800048828125</ele>
        <time>2022-05-06T09:32:45.000Z</time>
      </trkpt>
      <trkpt lat="40.2456240914762020111083984375" lon="-0.96839035861194133758544921875">
        <ele>1203.5999755859375</ele>
        <time>2022-05-06T09:32:47.000Z</time>
      </trkpt>
      <trkpt lat="40.24557807482779026031494140625" lon="-0.96836487762629985809326171875">
        <ele>1204</ele>
        <time>2022-05-06T09:32:48.000Z</time>
      </trkpt>
      <trkpt lat="40.2455315552651882171630859375" lon="-0.9683423303067684173583984375">
        <ele>1204.4000244140625</ele>
        <time>2022-05-06T09:32:49.000Z</time>
      </trkpt>
      <trkpt lat="40.24543340317904949188232421875" lon="-0.9682948887348175048828125">
        <ele>1205.199951171875</ele>
        <time>2022-05-06T09:32:51.000Z</time>
      </trkpt>
      <trkpt lat="40.2453339099884033203125" lon="-0.96825339831411838531494140625">
        <ele>1205.800048828125</ele>
        <time>2022-05-06T09:32:53.000Z</time>
      </trkpt>
      <trkpt lat="40.24523860774934291839599609375" lon="-0.96822322346270084381103515625">
        <ele>1206.199951171875</ele>
        <time>2022-05-06T09:32:55.000Z</time>
      </trkpt>
      <trkpt lat="40.24514238350093364715576171875" lon="-0.96819371916353702545166015625">
        <ele>1206.4000244140625</ele>
        <time>2022-05-06T09:32:57.000Z</time>
      </trkpt>
      <trkpt lat="40.24504758417606353759765625" lon="-0.9681622870266437530517578125">
        <ele>1206.5999755859375</ele>
        <time>2022-05-06T09:32:59.000Z</time>
      </trkpt>
      <trkpt lat="40.24495345540344715118408203125" lon="-0.9681435115635395050048828125">
        <ele>1207</ele>
        <time>2022-05-06T09:33:01.000Z</time>
      </trkpt>
      <trkpt lat="40.24485848844051361083984375" lon="-0.96813370473682880401611328125">
        <ele>1207.199951171875</ele>
        <time>2022-05-06T09:33:03.000Z</time>
      </trkpt>
      <trkpt lat="40.244761593639850616455078125" lon="-0.9681200422346591949462890625">
        <ele>1207.5999755859375</ele>
        <time>2022-05-06T09:33:05.000Z</time>
      </trkpt>
      <trkpt lat="40.24466092698276042938232421875" lon="-0.96810319460928440093994140625">
        <ele>1208</ele>
        <time>2022-05-06T09:33:07.000Z</time>
      </trkpt>
      <trkpt lat="40.24455808103084564208984375" lon="-0.968080647289752960205078125">
        <ele>1208</ele>
        <time>2022-05-06T09:33:09.000Z</time>
      </trkpt>
      <trkpt lat="40.244506113231182098388671875" lon="-0.968066565692424774169921875">
        <ele>1208</ele>
        <time>2022-05-06T09:33:10.000Z</time>
      </trkpt>
      <trkpt lat="40.24445439688861370086669921875" lon="-0.96805340610444545745849609375">
        <ele>1208</ele>
        <time>2022-05-06T09:33:11.000Z</time>
      </trkpt>
      <trkpt lat="40.244353227317333221435546875" lon="-0.968032367527484893798828125">
        <ele>1207.800048828125</ele>
        <time>2022-05-06T09:33:13.000Z</time>
      </trkpt>
      <trkpt lat="40.244251303374767303466796875" lon="-0.9680100716650485992431640625">
        <ele>1207.800048828125</ele>
        <time>2022-05-06T09:33:15.000Z</time>
      </trkpt>
      <trkpt lat="40.24414711631834506988525390625" lon="-0.967983417212963104248046875">
        <ele>1207.5999755859375</ele>
        <time>2022-05-06T09:33:17.000Z</time>
      </trkpt>
      <trkpt lat="40.2440409176051616668701171875" lon="-0.967963635921478271484375">
        <ele>1207.5999755859375</ele>
        <time>2022-05-06T09:33:19.000Z</time>
      </trkpt>
      <trkpt lat="40.243936143815517425537109375" lon="-0.96792365424335002899169921875">
        <ele>1207.4000244140625</ele>
        <time>2022-05-06T09:33:21.000Z</time>
      </trkpt>
      <trkpt lat="40.243836902081966400146484375" lon="-0.967904292047023773193359375">
        <ele>1206.5999755859375</ele>
        <time>2022-05-06T09:33:23.000Z</time>
      </trkpt>
      <trkpt lat="40.24374159984290599822998046875" lon="-0.96788861788809299468994140625">
        <ele>1206.199951171875</ele>
        <time>2022-05-06T09:33:25.000Z</time>
      </trkpt>
      <trkpt lat="40.2436479739844799041748046875" lon="-0.96788174472749233245849609375">
        <ele>1206.199951171875</ele>
        <time>2022-05-06T09:33:27.000Z</time>
      </trkpt>
      <trkpt lat="40.2435551024973392486572265625" lon="-0.967882834374904632568359375">
        <ele>1206.199951171875</ele>
        <time>2022-05-06T09:33:29.000Z</time>
      </trkpt>
      <trkpt lat="40.24346164427697658538818359375" lon="-0.9678880311548709869384765625">
        <ele>1206.199951171875</ele>
        <time>2022-05-06T09:33:31.000Z</time>
      </trkpt>
      <trkpt lat="40.2434176392853260040283203125" lon="-0.9678974188864231109619140625">
        <ele>1206.199951171875</ele>
        <time>2022-05-06T09:33:32.000Z</time>
      </trkpt>
      <trkpt lat="40.2433730475604534149169921875" lon="-0.9679061360657215118408203125">
        <ele>1206.4000244140625</ele>
        <time>2022-05-06T09:33:33.000Z</time>
      </trkpt>
      <trkpt lat="40.24327866733074188232421875" lon="-0.96792005002498626708984375">
        <ele>1206.4000244140625</ele>
        <time>2022-05-06T09:33:35.000Z</time>
      </trkpt>
      <trkpt lat="40.2431859634816646575927734375" lon="-0.9679406695067882537841796875">
        <ele>1206.5999755859375</ele>
        <time>2022-05-06T09:33:37.000Z</time>
      </trkpt>
      <trkpt lat="40.243093259632587432861328125" lon="-0.9679648093879222869873046875">
        <ele>1207</ele>
        <time>2022-05-06T09:33:39.000Z</time>
      </trkpt>
      <trkpt lat="40.242997705936431884765625" lon="-0.96798844635486602783203125">
        <ele>1207</ele>
        <time>2022-05-06T09:33:41.000Z</time>
      </trkpt>
      <trkpt lat="40.24290441535413265228271484375" lon="-0.968018956482410430908203125">
        <ele>1207.199951171875</ele>
        <time>2022-05-06T09:33:43.000Z</time>
      </trkpt>
      <trkpt lat="40.2428577281534671783447265625" lon="-0.9680345468223094940185546875">
        <ele>1207</ele>
        <time>2022-05-06T09:33:44.000Z</time>
      </trkpt>
      <trkpt lat="40.2428112924098968505859375" lon="-0.9680516459047794342041015625">
        <ele>1207</ele>
        <time>2022-05-06T09:33:45.000Z</time>
      </trkpt>
      <trkpt lat="40.2427195943892002105712890625" lon="-0.968092381954193115234375">
        <ele>1207</ele>
        <time>2022-05-06T09:33:47.000Z</time>
      </trkpt>
      <trkpt lat="40.24262529797852039337158203125" lon="-0.96813655458390712738037109375">
        <ele>1206.5999755859375</ele>
        <time>2022-05-06T09:33:49.000Z</time>
      </trkpt>
      <trkpt lat="40.24253167212009429931640625" lon="-0.96818349324166774749755859375">
        <ele>1206.4000244140625</ele>
        <time>2022-05-06T09:33:51.000Z</time>
      </trkpt>
      <trkpt lat="40.24243670515716075897216796875" lon="-0.96823596395552158355712890625">
        <ele>1206.199951171875</ele>
        <time>2022-05-06T09:33:53.000Z</time>
      </trkpt>
      <trkpt lat="40.24233989417552947998046875" lon="-0.96829287707805633544921875">
        <ele>1206</ele>
        <time>2022-05-06T09:33:55.000Z</time>
      </trkpt>
      <trkpt lat="40.2422448433935642242431640625" lon="-0.968355573713779449462890625">
        <ele>1206</ele>
        <time>2022-05-06T09:33:57.000Z</time>
      </trkpt>
      <trkpt lat="40.24214769713580608367919921875" lon="-0.968417935073375701904296875">
        <ele>1205.800048828125</ele>
        <time>2022-05-06T09:33:59.000Z</time>
      </trkpt>
      <trkpt lat="40.24205331690609455108642578125" lon="-0.9684854932129383087158203125">
        <ele>1205.5999755859375</ele>
        <time>2022-05-06T09:34:01.000Z</time>
      </trkpt>
      <trkpt lat="40.2420064620673656463623046875" lon="-0.96851943992078304290771484375">
        <ele>1205.5999755859375</ele>
        <time>2022-05-06T09:34:02.000Z</time>
      </trkpt>
      <trkpt lat="40.2419591881334781646728515625" lon="-0.96855296753346920013427734375">
        <ele>1205.4000244140625</ele>
        <time>2022-05-06T09:34:03.000Z</time>
      </trkpt>
      <trkpt lat="40.2418673224747180938720703125" lon="-0.9686189331114292144775390625">
        <ele>1205.4000244140625</ele>
        <time>2022-05-06T09:34:05.000Z</time>
      </trkpt>
      <trkpt lat="40.24178333580493927001953125" lon="-0.96868976019322872161865234375">
        <ele>1205.4000244140625</ele>
        <time>2022-05-06T09:34:07.000Z</time>
      </trkpt>
      <trkpt lat="40.24169691838324069976806640625" lon="-0.96876502968370914459228515625">
        <ele>1205.199951171875</ele>
        <time>2022-05-06T09:34:09.000Z</time>
      </trkpt>
      <trkpt lat="40.24165400303900241851806640625" lon="-0.9688053466379642486572265625">
        <ele>1205.199951171875</ele>
        <time>2022-05-06T09:34:10.000Z</time>
      </trkpt>
      <trkpt lat="40.2416121773421764373779296875" lon="-0.9688465856015682220458984375">
        <ele>1205.199951171875</ele>
        <time>2022-05-06T09:34:11.000Z</time>
      </trkpt>
      <trkpt lat="40.241530872881412506103515625" lon="-0.96892587840557098388671875">
        <ele>1205.199951171875</ele>
        <time>2022-05-06T09:34:13.000Z</time>
      </trkpt>
      <trkpt lat="40.2414519153535366058349609375" lon="-0.96900190226733684539794921875">
        <ele>1205.199951171875</ele>
        <time>2022-05-06T09:34:15.000Z</time>
      </trkpt>
      <trkpt lat="40.24137337692081928253173828125" lon="-0.96908010542392730712890625">
        <ele>1205</ele>
        <time>2022-05-06T09:34:17.000Z</time>
      </trkpt>
      <trkpt lat="40.2412929944694042205810546875" lon="-0.9691550396382808685302734375">
        <ele>1204.800048828125</ele>
        <time>2022-05-06T09:34:19.000Z</time>
      </trkpt>
      <trkpt lat="40.2412138693034648895263671875" lon="-0.96923139877617359161376953125">
        <ele>1205</ele>
        <time>2022-05-06T09:34:21.000Z</time>
      </trkpt>
      <trkpt lat="40.241138599812984466552734375" lon="-0.96931136213243007659912109375">
        <ele>1205</ele>
        <time>2022-05-06T09:34:23.000Z</time>
      </trkpt>
      <trkpt lat="40.241060815751552581787109375" lon="-0.96938897855579853057861328125">
        <ele>1205.199951171875</ele>
        <time>2022-05-06T09:34:25.000Z</time>
      </trkpt>
      <trkpt lat="40.24098261259496212005615234375" lon="-0.9694678522646427154541015625">
        <ele>1205.199951171875</ele>
        <time>2022-05-06T09:34:27.000Z</time>
      </trkpt>
      <trkpt lat="40.24090382270514965057373046875" lon="-0.9695446304976940155029296875">
        <ele>1205.4000244140625</ele>
        <time>2022-05-06T09:34:29.000Z</time>
      </trkpt>
      <trkpt lat="40.2408222667872905731201171875" lon="-0.96962300129234790802001953125">
        <ele>1205.4000244140625</ele>
        <time>2022-05-06T09:34:31.000Z</time>
      </trkpt>
      <trkpt lat="40.24073995649814605712890625" lon="-0.96970464102923870086669921875">
        <ele>1205.5999755859375</ele>
        <time>2022-05-06T09:34:33.000Z</time>
      </trkpt>
      <trkpt lat="40.2406596578657627105712890625" lon="-0.96978728659451007843017578125">
        <ele>1205.800048828125</ele>
        <time>2022-05-06T09:34:35.000Z</time>
      </trkpt>
      <trkpt lat="40.24057902395725250244140625" lon="-0.969866327941417694091796875">
        <ele>1206</ele>
        <time>2022-05-06T09:34:37.000Z</time>
      </trkpt>
      <trkpt lat="40.24050216190516948699951171875" lon="-0.9699446149170398712158203125">
        <ele>1206.4000244140625</ele>
        <time>2022-05-06T09:34:39.000Z</time>
      </trkpt>
      <trkpt lat="40.2404246293008327484130859375" lon="-0.97001527436077594757080078125">
        <ele>1206.5999755859375</ele>
        <time>2022-05-06T09:34:41.000Z</time>
      </trkpt>
      <trkpt lat="40.24035162292420864105224609375" lon="-0.970086939632892608642578125">
        <ele>1206.800048828125</ele>
        <time>2022-05-06T09:34:43.000Z</time>
      </trkpt>
      <trkpt lat="40.24027920328080654144287109375" lon="-0.970159359276294708251953125">
        <ele>1207</ele>
        <time>2022-05-06T09:34:45.000Z</time>
      </trkpt>
      <trkpt lat="40.2402077056467533111572265625" lon="-0.9702316112816333770751953125">
        <ele>1207.4000244140625</ele>
        <time>2022-05-06T09:34:47.000Z</time>
      </trkpt>
      <trkpt lat="40.2401372976601123809814453125" lon="-0.9703013487160205841064453125">
        <ele>1207.5999755859375</ele>
        <time>2022-05-06T09:34:49.000Z</time>
      </trkpt>
      <trkpt lat="40.24007082916796207427978515625" lon="-0.97037452273070812225341796875">
        <ele>1207.800048828125</ele>
        <time>2022-05-06T09:34:51.000Z</time>
      </trkpt>
      <trkpt lat="40.2399981580674648284912109375" lon="-0.970448367297649383544921875">
        <ele>1208.199951171875</ele>
        <time>2022-05-06T09:34:53.000Z</time>
      </trkpt>
      <trkpt lat="40.23992397822439670562744140625" lon="-0.97052036784589290618896484375">
        <ele>1208.4000244140625</ele>
        <time>2022-05-06T09:34:55.000Z</time>
      </trkpt>
      <trkpt lat="40.2398501336574554443359375" lon="-0.97059614025056362152099609375">
        <ele>1208.5999755859375</ele>
        <time>2022-05-06T09:34:57.000Z</time>
      </trkpt>
      <trkpt lat="40.23977260105311870574951171875" lon="-0.970673002302646636962890625">
        <ele>1209.199951171875</ele>
        <time>2022-05-06T09:34:59.000Z</time>
      </trkpt>
      <trkpt lat="40.2396945655345916748046875" lon="-0.97074936144053936004638671875">
        <ele>1209.5999755859375</ele>
        <time>2022-05-06T09:35:01.000Z</time>
      </trkpt>
      <trkpt lat="40.23961485363543033599853515625" lon="-0.97082563675940036773681640625">
        <ele>1210</ele>
        <time>2022-05-06T09:35:03.000Z</time>
      </trkpt>
      <trkpt lat="40.2395747043192386627197265625" lon="-0.97086385823786258697509765625">
        <ele>1209.800048828125</ele>
        <time>2022-05-06T09:35:04.000Z</time>
      </trkpt>
      <trkpt lat="40.239534638822078704833984375" lon="-0.9709021635353565216064453125">
        <ele>1209.5999755859375</ele>
        <time>2022-05-06T09:35:05.000Z</time>
      </trkpt>
      <trkpt lat="40.2394540049135684967041015625" lon="-0.97097718156874179840087890625">
        <ele>1209.4000244140625</ele>
        <time>2022-05-06T09:35:07.000Z</time>
      </trkpt>
      <trkpt lat="40.2393758855760097503662109375" lon="-0.97105211578309535980224609375">
        <ele>1209</ele>
        <time>2022-05-06T09:35:09.000Z</time>
      </trkpt>
      <trkpt lat="40.23929684422910213470458984375" lon="-0.9711267985403537750244140625">
        <ele>1208.5999755859375</ele>
        <time>2022-05-06T09:35:11.000Z</time>
      </trkpt>
      <trkpt lat="40.23921805433928966522216796875" lon="-0.97120483405888080596923828125">
        <ele>1208.4000244140625</ele>
        <time>2022-05-06T09:35:13.000Z</time>
      </trkpt>
      <trkpt lat="40.23917782120406627655029296875" lon="-0.9712444804608821868896484375">
        <ele>1208.199951171875</ele>
        <time>2022-05-06T09:35:14.000Z</time>
      </trkpt>
      <trkpt lat="40.23913708515465259552001953125" lon="-0.9712843783199787139892578125">
        <ele>1208</ele>
        <time>2022-05-06T09:35:15.000Z</time>
      </trkpt>
      <trkpt lat="40.2390540204942226409912109375" lon="-0.97136626951396465301513671875">
        <ele>1207.800048828125</ele>
        <time>2022-05-06T09:35:17.000Z</time>
      </trkpt>
      <trkpt lat="40.23896844126284122467041015625" lon="-0.971446149051189422607421875">
        <ele>1207.4000244140625</ele>
        <time>2022-05-06T09:35:19.000Z</time>
      </trkpt>
      <trkpt lat="40.2388847060501575469970703125" lon="-0.97152619622647762298583984375">
        <ele>1206.800048828125</ele>
        <time>2022-05-06T09:35:21.000Z</time>
      </trkpt>
      <trkpt lat="40.2388028986752033233642578125" lon="-0.97160683013498783111572265625">
        <ele>1206.4000244140625</ele>
        <time>2022-05-06T09:35:23.000Z</time>
      </trkpt>
      <trkpt lat="40.23872293531894683837890625" lon="-0.97168461419641971588134765625">
        <ele>1206</ele>
        <time>2022-05-06T09:35:25.000Z</time>
      </trkpt>
      <trkpt lat="40.2386821992695331573486328125" lon="-0.9717222489416599273681640625">
        <ele>1205.800048828125</ele>
        <time>2022-05-06T09:35:26.000Z</time>
      </trkpt>
      <trkpt lat="40.2386419661343097686767578125" lon="-0.9717603027820587158203125">
        <ele>1205.5999755859375</ele>
        <time>2022-05-06T09:35:27.000Z</time>
      </trkpt>
      <trkpt lat="40.23856258951127529144287109375" lon="-0.9718369133770465850830078125">
        <ele>1205.4000244140625</ele>
        <time>2022-05-06T09:35:29.000Z</time>
      </trkpt>
      <trkpt lat="40.238482542335987091064453125" lon="-0.9719120152294635772705078125">
        <ele>1205</ele>
        <time>2022-05-06T09:35:31.000Z</time>
      </trkpt>
      <trkpt lat="40.238402746617794036865234375" lon="-0.9719864465296268463134765625">
        <ele>1204.800048828125</ele>
        <time>2022-05-06T09:35:33.000Z</time>
      </trkpt>
      <trkpt lat="40.23832328617572784423828125" lon="-0.9720561839640140533447265625">
        <ele>1204.4000244140625</ele>
        <time>2022-05-06T09:35:35.000Z</time>
      </trkpt>
      <trkpt lat="40.2382493577897548675537109375" lon="-0.9721275977790355682373046875">
        <ele>1204.199951171875</ele>
        <time>2022-05-06T09:35:37.000Z</time>
      </trkpt>
      <trkpt lat="40.23821122013032436370849609375" lon="-0.97216255031526088714599609375">
        <ele>1204</ele>
        <time>2022-05-06T09:35:38.000Z</time>
      </trkpt>
      <trkpt lat="40.2381729148328304290771484375" lon="-0.97219792194664478302001953125">
        <ele>1203.800048828125</ele>
        <time>2022-05-06T09:35:39.000Z</time>
      </trkpt>
      <trkpt lat="40.23809554986655712127685546875" lon="-0.97227084450423717498779296875">
        <ele>1203.4000244140625</ele>
        <time>2022-05-06T09:35:41.000Z</time>
      </trkpt>
      <trkpt lat="40.2380176819860935211181640625" lon="-0.972346700727939605712890625">
        <ele>1202.800048828125</ele>
        <time>2022-05-06T09:35:43.000Z</time>
      </trkpt>
      <trkpt lat="40.23794098757207393646240234375" lon="-0.9724239818751811981201171875">
        <ele>1202.4000244140625</ele>
        <time>2022-05-06T09:35:45.000Z</time>
      </trkpt>
      <trkpt lat="40.23790326900780200958251953125" lon="-0.972460024058818817138671875">
        <ele>1202.5999755859375</ele>
        <time>2022-05-06T09:35:46.000Z</time>
      </trkpt>
      <trkpt lat="40.23786596953868865966796875" lon="-0.9724938869476318359375">
        <ele>1202.800048828125</ele>
        <time>2022-05-06T09:35:47.000Z</time>
      </trkpt>
      <trkpt lat="40.2377963997423648834228515625" lon="-0.97256152890622615814208984375">
        <ele>1203.4000244140625</ele>
        <time>2022-05-06T09:35:49.000Z</time>
      </trkpt>
      <trkpt lat="40.2377283386886119842529296875" lon="-0.9726331941783428192138671875">
        <ele>1203.800048828125</ele>
        <time>2022-05-06T09:35:51.000Z</time>
      </trkpt>
      <trkpt lat="40.2376560866832733154296875" lon="-0.97270511090755462646484375">
        <ele>1204.4000244140625</ele>
        <time>2022-05-06T09:35:53.000Z</time>
      </trkpt>
      <trkpt lat="40.237618871033191680908203125" lon="-0.97274190746247768402099609375">
        <ele>1204.5999755859375</ele>
        <time>2022-05-06T09:35:54.000Z</time>
      </trkpt>
      <trkpt lat="40.23758090101182460784912109375" lon="-0.97277945838868618011474609375">
        <ele>1204.800048828125</ele>
        <time>2022-05-06T09:35:55.000Z</time>
      </trkpt>
      <trkpt lat="40.23750831373035907745361328125" lon="-0.9728524647653102874755859375">
        <ele>1205.4000244140625</ele>
        <time>2022-05-06T09:35:57.000Z</time>
      </trkpt>
      <trkpt lat="40.23743958212435245513916015625" lon="-0.97292144782841205596923828125">
        <ele>1206</ele>
        <time>2022-05-06T09:35:59.000Z</time>
      </trkpt>
      <trkpt lat="40.2373769693076610565185546875" lon="-0.97298783250153064727783203125">
        <ele>1206.4000244140625</ele>
        <time>2022-05-06T09:36:01.000Z</time>
      </trkpt>
      <trkpt lat="40.23734067566692829132080078125" lon="-0.97301750443875789642333984375">
        <ele>1206.5999755859375</ele>
        <time>2022-05-06T09:36:02.000Z</time>
      </trkpt>
      <trkpt lat="40.2373052202165126800537109375" lon="-0.9730482660233974456787109375">
        <ele>1206.800048828125</ele>
        <time>2022-05-06T09:36:03.000Z</time>
      </trkpt>
      <trkpt lat="40.237227268517017364501953125" lon="-0.97310333512723445892333984375">
        <ele>1207.4000244140625</ele>
        <time>2022-05-06T09:36:05.000Z</time>
      </trkpt>
      <trkpt lat="40.23715677671134471893310546875" lon="-0.97316435538232326507568359375">
        <ele>1208</ele>
        <time>2022-05-06T09:36:07.000Z</time>
      </trkpt>
      <trkpt lat="40.23708544671535491943359375" lon="-0.97323191352188587188720703125">
        <ele>1208.4000244140625</ele>
        <time>2022-05-06T09:36:09.000Z</time>
      </trkpt>
      <trkpt lat="40.23702048696577548980712890625" lon="-0.97330751828849315643310546875">
        <ele>1208.5999755859375</ele>
        <time>2022-05-06T09:36:11.000Z</time>
      </trkpt>
      <trkpt lat="40.2369602210819721221923828125" lon="-0.97338094376027584075927734375">
        <ele>1209</ele>
        <time>2022-05-06T09:36:13.000Z</time>
      </trkpt>
      <trkpt lat="40.23691571317613124847412109375" lon="-0.97340659238398075103759765625">
        <ele>1209.199951171875</ele>
        <time>2022-05-06T09:36:14.000Z</time>
      </trkpt>
      <trkpt lat="40.23688134737312793731689453125" lon="-0.97343735396862030029296875">
        <ele>1209.4000244140625</ele>
        <time>2022-05-06T09:36:15.000Z</time>
      </trkpt>
      <trkpt lat="40.236797444522380828857421875" lon="-0.97349644638597965240478515625">
        <ele>1209.5999755859375</ele>
        <time>2022-05-06T09:36:17.000Z</time>
      </trkpt>
      <trkpt lat="40.2367023937404155731201171875" lon="-0.97353793680667877197265625">
        <ele>1210</ele>
        <time>2022-05-06T09:36:19.000Z</time>
      </trkpt>
      <trkpt lat="40.23659300990402698516845703125" lon="-0.97355646081268787384033203125">
        <ele>1210.5999755859375</ele>
        <time>2022-05-06T09:36:21.000Z</time>
      </trkpt>
      <trkpt lat="40.23655277676880359649658203125" lon="-0.97357808612287044525146484375">
        <ele>1210.800048828125</ele>
        <time>2022-05-06T09:36:22.000Z</time>
      </trkpt>
      <trkpt lat="40.2365179918706417083740234375" lon="-0.97360105253756046295166015625">
        <ele>1211</ele>
        <time>2022-05-06T09:36:23.000Z</time>
      </trkpt>
      <trkpt lat="40.23646191693842411041259765625" lon="-0.973618738353252410888671875">
        <ele>1211.4000244140625</ele>
        <time>2022-05-06T09:36:24.000Z</time>
      </trkpt>
      <trkpt lat="40.23640408180654048919677734375" lon="-0.9736487455666065216064453125">
        <ele>1211.5999755859375</ele>
        <time>2022-05-06T09:36:25.000Z</time>
      </trkpt>
      <trkpt lat="40.23631288670003414154052734375" lon="-0.97371655516326427459716796875">
        <ele>1212</ele>
        <time>2022-05-06T09:36:27.000Z</time>
      </trkpt>
      <trkpt lat="40.23627198301255702972412109375" lon="-0.97375075332820415496826171875">
        <ele>1212.199951171875</ele>
        <time>2022-05-06T09:36:28.000Z</time>
      </trkpt>
      <trkpt lat="40.23623392917215824127197265625" lon="-0.97377439029514789581298828125">
        <ele>1212</ele>
        <time>2022-05-06T09:36:29.000Z</time>
      </trkpt>
      <trkpt lat="40.23619185201823711395263671875" lon="-0.9737976081669330596923828125">
        <ele>1211.800048828125</ele>
        <time>2022-05-06T09:36:30.000Z</time>
      </trkpt>
      <trkpt lat="40.23615078069269657135009765625" lon="-0.97381965257227420806884765625">
        <ele>1211.5999755859375</ele>
        <time>2022-05-06T09:36:31.000Z</time>
      </trkpt>
      <trkpt lat="40.2360620163381099700927734375" lon="-0.9738619811832904815673828125">
        <ele>1211.199951171875</ele>
        <time>2022-05-06T09:36:33.000Z</time>
      </trkpt>
      <trkpt lat="40.235960595309734344482421875" lon="-0.97388955764472484588623046875">
        <ele>1210.800048828125</ele>
        <time>2022-05-06T09:36:35.000Z</time>
      </trkpt>
      <trkpt lat="40.23590871132910251617431640625" lon="-0.9739052318036556243896484375">
        <ele>1210.5999755859375</ele>
        <time>2022-05-06T09:36:36.000Z</time>
      </trkpt>
      <trkpt lat="40.23585557006299495697021484375" lon="-0.97391855902969837188720703125">
        <ele>1210.4000244140625</ele>
        <time>2022-05-06T09:36:37.000Z</time>
      </trkpt>
      <trkpt lat="40.235761106014251708984375" lon="-0.9739407710731029510498046875">
        <ele>1210.199951171875</ele>
        <time>2022-05-06T09:36:39.000Z</time>
      </trkpt>
      <trkpt lat="40.23567535914480686187744140625" lon="-0.973964743316173553466796875">
        <ele>1210</ele>
        <time>2022-05-06T09:36:41.000Z</time>
      </trkpt>
      <trkpt lat="40.235588438808917999267578125" lon="-0.97398452460765838623046875">
        <ele>1209.800048828125</ele>
        <time>2022-05-06T09:36:43.000Z</time>
      </trkpt>
      <trkpt lat="40.23549816571176052093505859375" lon="-0.97399265505373477935791015625">
        <ele>1209.4000244140625</ele>
        <time>2022-05-06T09:36:45.000Z</time>
      </trkpt>
      <trkpt lat="40.23541149683296680450439453125" lon="-0.97400656901299953460693359375">
        <ele>1209</ele>
        <time>2022-05-06T09:36:47.000Z</time>
      </trkpt>
      <trkpt lat="40.2353311143815517425537109375" lon="-0.9740121848881244659423828125">
        <ele>1208.5999755859375</ele>
        <time>2022-05-06T09:36:49.000Z</time>
      </trkpt>
      <trkpt lat="40.2352865226566791534423828125" lon="-0.97401243634521961212158203125">
        <ele>1208.4000244140625</ele>
        <time>2022-05-06T09:36:50.000Z</time>
      </trkpt>
      <trkpt lat="40.23524235002696514129638671875" lon="-0.97401327453553676605224609375">
        <ele>1208.199951171875</ele>
        <time>2022-05-06T09:36:51.000Z</time>
      </trkpt>
      <trkpt lat="40.23515869863331317901611328125" lon="-0.97401042468845844268798828125">
        <ele>1208</ele>
        <time>2022-05-06T09:36:53.000Z</time>
      </trkpt>
      <trkpt lat="40.235070772469043731689453125" lon="-0.97400656901299953460693359375">
        <ele>1207.5999755859375</ele>
        <time>2022-05-06T09:36:55.000Z</time>
      </trkpt>
      <trkpt lat="40.23502685129642486572265625" lon="-0.974003635346889495849609375">
        <ele>1207.4000244140625</ele>
        <time>2022-05-06T09:36:56.000Z</time>
      </trkpt>
      <trkpt lat="40.23498368449509143829345703125" lon="-0.973996259272098541259765625">
        <ele>1207.199951171875</ele>
        <time>2022-05-06T09:36:57.000Z</time>
      </trkpt>
      <trkpt lat="40.23489634506404399871826171875" lon="-0.9739865362644195556640625">
        <ele>1207</ele>
        <time>2022-05-06T09:36:59.000Z</time>
      </trkpt>
      <trkpt lat="40.234809927642345428466796875" lon="-0.9739731252193450927734375">
        <ele>1206.5999755859375</ele>
        <time>2022-05-06T09:37:01.000Z</time>
      </trkpt>
      <trkpt lat="40.2347370050847530364990234375" lon="-0.97395795397460460662841796875">
        <ele>1206.4000244140625</ele>
        <time>2022-05-06T09:37:03.000Z</time>
      </trkpt>
      <trkpt lat="40.23466148413717746734619140625" lon="-0.9739454649388790130615234375">
        <ele>1206.199951171875</ele>
        <time>2022-05-06T09:37:05.000Z</time>
      </trkpt>
      <trkpt lat="40.2345824427902698516845703125" lon="-0.9739328920841217041015625">
        <ele>1206</ele>
        <time>2022-05-06T09:37:07.000Z</time>
      </trkpt>
      <trkpt lat="40.23451228626072406768798828125" lon="-0.97391889430582523345947265625">
        <ele>1205.800048828125</ele>
        <time>2022-05-06T09:37:09.000Z</time>
      </trkpt>
      <trkpt lat="40.234444476664066314697265625" lon="-0.97390196286141872406005859375">
        <ele>1205.800048828125</ele>
        <time>2022-05-06T09:37:11.000Z</time>
      </trkpt>
      <trkpt lat="40.23437373340129852294921875" lon="-0.9738810919225215911865234375">
        <ele>1205.5999755859375</ele>
        <time>2022-05-06T09:37:13.000Z</time>
      </trkpt>
      <trkpt lat="40.23429871536791324615478515625" lon="-0.97386055625975131988525390625">
        <ele>1205.4000244140625</ele>
        <time>2022-05-06T09:37:15.000Z</time>
      </trkpt>
      <trkpt lat="40.2342174947261810302734375" lon="-0.97383172251284122467041015625">
        <ele>1205.199951171875</ele>
        <time>2022-05-06T09:37:17.000Z</time>
      </trkpt>
      <trkpt lat="40.2341330051422119140625" lon="-0.9738028049468994140625">
        <ele>1204.800048828125</ele>
        <time>2022-05-06T09:37:19.000Z</time>
      </trkpt>
      <trkpt lat="40.2340490184724330902099609375" lon="-0.97377128899097442626953125">
        <ele>1204.5999755859375</ele>
        <time>2022-05-06T09:37:21.000Z</time>
      </trkpt>
      <trkpt lat="40.2339605055749416351318359375" lon="-0.97372745163738727569580078125">
        <ele>1204.4000244140625</ele>
        <time>2022-05-06T09:37:23.000Z</time>
      </trkpt>
      <trkpt lat="40.2338743396103382110595703125" lon="-0.97368520684540271759033203125">
        <ele>1204.5999755859375</ele>
        <time>2022-05-06T09:37:25.000Z</time>
      </trkpt>
      <trkpt lat="40.23378725163638591766357421875" lon="-0.9736437164247035980224609375">
        <ele>1204.5999755859375</ele>
        <time>2022-05-06T09:37:27.000Z</time>
      </trkpt>
      <trkpt lat="40.2337026782333850860595703125" lon="-0.9736008010804653167724609375">
        <ele>1205</ele>
        <time>2022-05-06T09:37:29.000Z</time>
      </trkpt>
      <trkpt lat="40.23361676372587680816650390625" lon="-0.973548330366611480712890625">
        <ele>1205.199951171875</ele>
        <time>2022-05-06T09:37:31.000Z</time>
      </trkpt>
      <trkpt lat="40.2335737645626068115234375" lon="-0.973523519933223724365234375">
        <ele>1205.4000244140625</ele>
        <time>2022-05-06T09:37:32.000Z</time>
      </trkpt>
      <trkpt lat="40.23353210650384426116943359375" lon="-0.973497368395328521728515625">
        <ele>1205.4000244140625</ele>
        <time>2022-05-06T09:37:33.000Z</time>
      </trkpt>
      <trkpt lat="40.23344761691987514495849609375" lon="-0.97344313748180866241455078125">
        <ele>1205.5999755859375</ele>
        <time>2022-05-06T09:37:35.000Z</time>
      </trkpt>
      <trkpt lat="40.23336664773523807525634765625" lon="-0.973385386168956756591796875">
        <ele>1205.5999755859375</ele>
        <time>2022-05-06T09:37:37.000Z</time>
      </trkpt>
      <trkpt lat="40.2332855947315692901611328125" lon="-0.9733255393803119659423828125">
        <ele>1205.4000244140625</ele>
        <time>2022-05-06T09:37:39.000Z</time>
      </trkpt>
      <trkpt lat="40.23324561305344104766845703125" lon="-0.9732930175960063934326171875">
        <ele>1205.4000244140625</ele>
        <time>2022-05-06T09:37:40.000Z</time>
      </trkpt>
      <trkpt lat="40.23320605047047138214111328125" lon="-0.97326125018298625946044921875">
        <ele>1205.4000244140625</ele>
        <time>2022-05-06T09:37:41.000Z</time>
      </trkpt>
      <trkpt lat="40.2331290207803249359130859375" lon="-0.97319595515727996826171875">
        <ele>1205.199951171875</ele>
        <time>2022-05-06T09:37:43.000Z</time>
      </trkpt>
      <trkpt lat="40.23304880596697330474853515625" lon="-0.9731309115886688232421875">
        <ele>1205</ele>
        <time>2022-05-06T09:37:45.000Z</time>
      </trkpt>
      <trkpt lat="40.23297093808650970458984375" lon="-0.9730657003819942474365234375">
        <ele>1205</ele>
        <time>2022-05-06T09:37:47.000Z</time>
      </trkpt>
      <trkpt lat="40.23293363861739635467529296875" lon="-0.97303359769284725189208984375">
        <ele>1205</ele>
        <time>2022-05-06T09:37:48.000Z</time>
      </trkpt>
      <trkpt lat="40.232898183166980743408203125" lon="-0.97300258465111255645751953125">
        <ele>1205.199951171875</ele>
        <time>2022-05-06T09:37:49.000Z</time>
      </trkpt>
      <trkpt lat="40.2328232489526271820068359375" lon="-0.97293502651154994964599609375">
        <ele>1205.4000244140625</ele>
        <time>2022-05-06T09:37:51.000Z</time>
      </trkpt>
      <trkpt lat="40.2327411063015460968017578125" lon="-0.97286009229719638824462890625">
        <ele>1205.5999755859375</ele>
        <time>2022-05-06T09:37:53.000Z</time>
      </trkpt>
      <trkpt lat="40.232698358595371246337890625" lon="-0.97282178699970245361328125">
        <ele>1205.5999755859375</ele>
        <time>2022-05-06T09:37:54.000Z</time>
      </trkpt>
      <trkpt lat="40.23265569470822811126708984375" lon="-0.9727813862264156341552734375">
        <ele>1205.800048828125</ele>
        <time>2022-05-06T09:37:55.000Z</time>
      </trkpt>
      <trkpt lat="40.23256030865013599395751953125" lon="-0.97269614227116107940673828125">
        <ele>1206</ele>
        <time>2022-05-06T09:37:57.000Z</time>
      </trkpt>
      <trkpt lat="40.23247028701007366180419921875" lon="-0.97260779701173305511474609375">
        <ele>1205.800048828125</ele>
        <time>2022-05-06T09:37:59.000Z</time>
      </trkpt>
      <trkpt lat="40.2324239350855350494384765625" lon="-0.97256404347717761993408203125">
        <ele>1205.5999755859375</ele>
        <time>2022-05-06T09:38:00.000Z</time>
      </trkpt>
      <trkpt lat="40.23237875662744045257568359375" lon="-0.97251978702843189239501953125">
        <ele>1205.199951171875</ele>
        <time>2022-05-06T09:38:01.000Z</time>
      </trkpt>
      <trkpt lat="40.23228429257869720458984375" lon="-0.97243227995932102203369140625">
        <ele>1204.800048828125</ele>
        <time>2022-05-06T09:38:03.000Z</time>
      </trkpt>
      <trkpt lat="40.2321845479309558868408203125" lon="-0.97234426997601985931396484375">
        <ele>1204.4000244140625</ele>
        <time>2022-05-06T09:38:05.000Z</time>
      </trkpt>
      <trkpt lat="40.232078097760677337646484375" lon="-0.97225223667919635772705078125">
        <ele>1204.199951171875</ele>
        <time>2022-05-06T09:38:07.000Z</time>
      </trkpt>
      <trkpt lat="40.23202487267553806304931640625" lon="-0.97220429219305515289306640625">
        <ele>1204</ele>
        <time>2022-05-06T09:38:08.000Z</time>
      </trkpt>
      <trkpt lat="40.2319706417620182037353515625" lon="-0.972158275544643402099609375">
        <ele>1204</ele>
        <time>2022-05-06T09:38:09.000Z</time>
      </trkpt>
      <trkpt lat="40.2318633534014225006103515625" lon="-0.97206934355199337005615234375">
        <ele>1204.199951171875</ele>
        <time>2022-05-06T09:38:11.000Z</time>
      </trkpt>
      <trkpt lat="40.2317570708692073822021484375" lon="-0.97197982482612133026123046875">
        <ele>1204.199951171875</ele>
        <time>2022-05-06T09:38:13.000Z</time>
      </trkpt>
      <trkpt lat="40.23165556602180004119873046875" lon="-0.971891395747661590576171875">
        <ele>1204.199951171875</ele>
        <time>2022-05-06T09:38:15.000Z</time>
      </trkpt>
      <trkpt lat="40.231555737555027008056640625" lon="-0.971799530088901519775390625">
        <ele>1203.5999755859375</ele>
        <time>2022-05-06T09:38:17.000Z</time>
      </trkpt>
      <trkpt lat="40.23145590908825397491455078125" lon="-0.97170657478272914886474609375">
        <ele>1202.800048828125</ele>
        <time>2022-05-06T09:38:19.000Z</time>
      </trkpt>
      <trkpt lat="40.2313487045466899871826171875" lon="-0.9716156311333179473876953125">
        <ele>1202.199951171875</ele>
        <time>2022-05-06T09:38:21.000Z</time>
      </trkpt>
      <trkpt lat="40.23124937899410724639892578125" lon="-0.9715194068849086761474609375">
        <ele>1201.800048828125</ele>
        <time>2022-05-06T09:38:23.000Z</time>
      </trkpt>
      <trkpt lat="40.23114879615604877471923828125" lon="-0.97142159007489681243896484375">
        <ele>1201.5999755859375</ele>
        <time>2022-05-06T09:38:25.000Z</time>
      </trkpt>
      <trkpt lat="40.23104955442249774932861328125" lon="-0.97133089788258075714111328125">
        <ele>1201.199951171875</ele>
        <time>2022-05-06T09:38:27.000Z</time>
      </trkpt>
      <trkpt lat="40.23100085556507110595703125" lon="-0.971283875405788421630859375">
        <ele>1201</ele>
        <time>2022-05-06T09:38:28.000Z</time>
      </trkpt>
      <trkpt lat="40.23095031268894672393798828125" lon="-0.97123148851096630096435546875">
        <ele>1200.800048828125</ele>
        <time>2022-05-06T09:38:29.000Z</time>
      </trkpt>
      <trkpt lat="40.2308417670428752899169921875" lon="-0.97112688235938549041748046875">
        <ele>1200.199951171875</ele>
        <time>2022-05-06T09:38:31.000Z</time>
      </trkpt>
      <trkpt lat="40.230735652148723602294921875" lon="-0.9710242040455341339111328125">
        <ele>1199.800048828125</ele>
        <time>2022-05-06T09:38:33.000Z</time>
      </trkpt>
      <trkpt lat="40.23063431493937969207763671875" lon="-0.97092957235872745513916015625">
        <ele>1199.5999755859375</ele>
        <time>2022-05-06T09:38:35.000Z</time>
      </trkpt>
      <trkpt lat="40.23058033548295497894287109375" lon="-0.9708823822438716888427734375">
        <ele>1199.5999755859375</ele>
        <time>2022-05-06T09:38:36.000Z</time>
      </trkpt>
      <trkpt lat="40.23052920587360858917236328125" lon="-0.97083653323352336883544921875">
        <ele>1199.5999755859375</ele>
        <time>2022-05-06T09:38:37.000Z</time>
      </trkpt>
      <trkpt lat="40.230431221425533294677734375" lon="-0.97074852325022220611572265625">
        <ele>1199.5999755859375</ele>
        <time>2022-05-06T09:38:39.000Z</time>
      </trkpt>
      <trkpt lat="40.23033072240650653839111328125" lon="-0.97066017799079418182373046875">
        <ele>1200.199951171875</ele>
        <time>2022-05-06T09:38:41.000Z</time>
      </trkpt>
      <trkpt lat="40.23023567162454128265380859375" lon="-0.97057233564555644989013671875">
        <ele>1199.199951171875</ele>
        <time>2022-05-06T09:38:43.000Z</time>
      </trkpt>
      <trkpt lat="40.23013743571937084197998046875" lon="-0.9704808890819549560546875">
        <ele>1199.199951171875</ele>
        <time>2022-05-06T09:38:45.000Z</time>
      </trkpt>
      <trkpt lat="40.2300344221293926239013671875" lon="-0.970389358699321746826171875">
        <ele>1199.199951171875</ele>
        <time>2022-05-06T09:38:47.000Z</time>
      </trkpt>
      <trkpt lat="40.22993124090135097503662109375" lon="-0.97029472701251506805419921875">
        <ele>1199.199951171875</ele>
        <time>2022-05-06T09:38:49.000Z</time>
      </trkpt>
      <trkpt lat="40.22982470691204071044921875" lon="-0.970196239650249481201171875">
        <ele>1199</ele>
        <time>2022-05-06T09:38:51.000Z</time>
      </trkpt>
      <trkpt lat="40.2297219447791576385498046875" lon="-0.97010445781052112579345703125">
        <ele>1199</ele>
        <time>2022-05-06T09:38:53.000Z</time>
      </trkpt>
      <trkpt lat="40.22961926646530628204345703125" lon="-0.970013178884983062744140625">
        <ele>1199</ele>
        <time>2022-05-06T09:38:55.000Z</time>
      </trkpt>
      <trkpt lat="40.2295160852372646331787109375" lon="-0.9699218161404132843017578125">
        <ele>1198.800048828125</ele>
        <time>2022-05-06T09:38:57.000Z</time>
      </trkpt>
      <trkpt lat="40.22941877134144306182861328125" lon="-0.96983305178582668304443359375">
        <ele>1198.4000244140625</ele>
        <time>2022-05-06T09:38:59.000Z</time>
      </trkpt>
      <trkpt lat="40.22932372055947780609130859375" lon="-0.969744622707366943359375">
        <ele>1198</ele>
        <time>2022-05-06T09:39:01.000Z</time>
      </trkpt>
      <trkpt lat="40.22922162897884845733642578125" lon="-0.9696499072015285491943359375">
        <ele>1197</ele>
        <time>2022-05-06T09:39:03.000Z</time>
      </trkpt>
      <trkpt lat="40.2291186153888702392578125" lon="-0.96955929882824420928955078125">
        <ele>1196</ele>
        <time>2022-05-06T09:39:05.000Z</time>
      </trkpt>
      <trkpt lat="40.229070670902729034423828125" lon="-0.96951353363692760467529296875">
        <ele>1195.4000244140625</ele>
        <time>2022-05-06T09:39:06.000Z</time>
      </trkpt>
      <trkpt lat="40.22902029566466808319091796875" lon="-0.96946609206497669219970703125">
        <ele>1195.199951171875</ele>
        <time>2022-05-06T09:39:07.000Z</time>
      </trkpt>
      <trkpt lat="40.22892080247402191162109375" lon="-0.96937355585396289825439453125">
        <ele>1195.199951171875</ele>
        <time>2022-05-06T09:39:09.000Z</time>
      </trkpt>
      <trkpt lat="40.2288203872740268707275390625" lon="-0.9692847914993762969970703125">
        <ele>1195.199951171875</ele>
        <time>2022-05-06T09:39:11.000Z</time>
      </trkpt>
      <trkpt lat="40.228717625141143798828125" lon="-0.96919703297317028045654296875">
        <ele>1195</ele>
        <time>2022-05-06T09:39:13.000Z</time>
      </trkpt>
      <trkpt lat="40.228613354265689849853515625" lon="-0.9691064245998859405517578125">
        <ele>1194.800048828125</ele>
        <time>2022-05-06T09:39:15.000Z</time>
      </trkpt>
      <trkpt lat="40.22850916720926761627197265625" lon="-0.96901330165565013885498046875">
        <ele>1194.4000244140625</ele>
        <time>2022-05-06T09:39:17.000Z</time>
      </trkpt>
      <trkpt lat="40.2284033037722110748291015625" lon="-0.968914814293384552001953125">
        <ele>1193.800048828125</ele>
        <time>2022-05-06T09:39:19.000Z</time>
      </trkpt>
      <trkpt lat="40.22830129601061344146728515625" lon="-0.96881800331175327301025390625">
        <ele>1193.800048828125</ele>
        <time>2022-05-06T09:39:21.000Z</time>
      </trkpt>
      <trkpt lat="40.228249914944171905517578125" lon="-0.96876637078821659088134765625">
        <ele>1193.800048828125</ele>
        <time>2022-05-06T09:39:22.000Z</time>
      </trkpt>
      <trkpt lat="40.22819392383098602294921875" lon="-0.9687161631882190704345703125">
        <ele>1194</ele>
        <time>2022-05-06T09:39:23.000Z</time>
      </trkpt>
      <trkpt lat="40.2280851267278194427490234375" lon="-0.96861046738922595977783203125">
        <ele>1193.5999755859375</ele>
        <time>2022-05-06T09:39:25.000Z</time>
      </trkpt>
      <trkpt lat="40.22797373123466968536376953125" lon="-0.9685086272656917572021484375">
        <ele>1193</ele>
        <time>2022-05-06T09:39:27.000Z</time>
      </trkpt>
      <trkpt lat="40.2278641797602176666259765625" lon="-0.96840477548539638519287109375">
        <ele>1192.5999755859375</ele>
        <time>2022-05-06T09:39:29.000Z</time>
      </trkpt>
      <trkpt lat="40.2277478389441967010498046875" lon="-0.9682963974773883819580078125">
        <ele>1192</ele>
        <time>2022-05-06T09:39:31.000Z</time>
      </trkpt>
      <trkpt lat="40.22762663662433624267578125" lon="-0.9681854210793972015380859375">
        <ele>1191.5999755859375</ele>
        <time>2022-05-06T09:39:33.000Z</time>
      </trkpt>
      <trkpt lat="40.22750166244804859161376953125" lon="-0.96808022819459438323974609375">
        <ele>1191.199951171875</ele>
        <time>2022-05-06T09:39:35.000Z</time>
      </trkpt>
      <trkpt lat="40.227374844253063201904296875" lon="-0.96797411330044269561767578125">
        <ele>1191</ele>
        <time>2022-05-06T09:39:37.000Z</time>
      </trkpt>
      <trkpt lat="40.227248780429363250732421875" lon="-0.967862047255039215087890625">
        <ele>1190.5999755859375</ele>
        <time>2022-05-06T09:39:39.000Z</time>
      </trkpt>
      <trkpt lat="40.22712648846209049224853515625" lon="-0.96775081939995288848876953125">
        <ele>1189.5999755859375</ele>
        <time>2022-05-06T09:39:41.000Z</time>
      </trkpt>
      <trkpt lat="40.2270625345408916473388671875" lon="-0.96769206225872039794921875">
        <ele>1189.5999755859375</ele>
        <time>2022-05-06T09:39:42.000Z</time>
      </trkpt>
      <trkpt lat="40.22699858061969280242919921875" lon="-0.9676325507462024688720703125">
        <ele>1189.5999755859375</ele>
        <time>2022-05-06T09:39:43.000Z</time>
      </trkpt>
      <trkpt lat="40.226868577301502227783203125" lon="-0.96751503646373748779296875">
        <ele>1189.800048828125</ele>
        <time>2022-05-06T09:39:45.000Z</time>
      </trkpt>
      <trkpt lat="40.22674343548715114593505859375" lon="-0.96739660017192363739013671875">
        <ele>1190</ele>
        <time>2022-05-06T09:39:47.000Z</time>
      </trkpt>
      <trkpt lat="40.22661452181637287139892578125" lon="-0.96727875061333179473876953125">
        <ele>1190.4000244140625</ele>
        <time>2022-05-06T09:39:49.000Z</time>
      </trkpt>
      <trkpt lat="40.22655065171420574188232421875" lon="-0.96721990965306758880615234375">
        <ele>1190.5999755859375</ele>
        <time>2022-05-06T09:39:50.000Z</time>
      </trkpt>
      <trkpt lat="40.2264875359833240509033203125" lon="-0.9671634994447231292724609375">
        <ele>1190.4000244140625</ele>
        <time>2022-05-06T09:39:51.000Z</time>
      </trkpt>
      <trkpt lat="40.22642224095761775970458984375" lon="-0.96710692159831523895263671875">
        <ele>1190.4000244140625</ele>
        <time>2022-05-06T09:39:52.000Z</time>
      </trkpt>
      <trkpt lat="40.22635795176029205322265625" lon="-0.96704808063805103302001953125">
        <ele>1190.199951171875</ele>
        <time>2022-05-06T09:39:53.000Z</time>
      </trkpt>
      <trkpt lat="40.2262297086417675018310546875" lon="-0.96692788414657115936279296875">
        <ele>1189.800048828125</ele>
        <time>2022-05-06T09:39:55.000Z</time>
      </trkpt>
      <trkpt lat="40.2261043153703212738037109375" lon="-0.9668044187128543853759765625">
        <ele>1189.199951171875</ele>
        <time>2022-05-06T09:39:57.000Z</time>
      </trkpt>
      <trkpt lat="40.22598034702241420745849609375" lon="-0.96667692996561527252197265625">
        <ele>1188.5999755859375</ele>
        <time>2022-05-06T09:39:59.000Z</time>
      </trkpt>
      <trkpt lat="40.2258605696260929107666015625" lon="-0.96654801629483699798583984375">
        <ele>1188.5999755859375</ele>
        <time>2022-05-06T09:40:01.000Z</time>
      </trkpt>
      <trkpt lat="40.22574263624846935272216796875" lon="-0.96642413176596164703369140625">
        <ele>1188.5999755859375</ele>
        <time>2022-05-06T09:40:03.000Z</time>
      </trkpt>
      <trkpt lat="40.2256188355386257171630859375" lon="-0.9662954695522785186767578125">
        <ele>1189</ele>
        <time>2022-05-06T09:40:05.000Z</time>
      </trkpt>
      <trkpt lat="40.22549972869455814361572265625" lon="-0.966173596680164337158203125">
        <ele>1189</ele>
        <time>2022-05-06T09:40:07.000Z</time>
      </trkpt>
      <trkpt lat="40.22538992576301097869873046875" lon="-0.966052897274494171142578125">
        <ele>1189.199951171875</ele>
        <time>2022-05-06T09:40:09.000Z</time>
      </trkpt>
      <trkpt lat="40.22528414614498615264892578125" lon="-0.96594435162842273712158203125">
        <ele>1189.4000244140625</ele>
        <time>2022-05-06T09:40:11.000Z</time>
      </trkpt>
      <trkpt lat="40.22518104873597621917724609375" lon="-0.965836308896541595458984375">
        <ele>1189.800048828125</ele>
        <time>2022-05-06T09:40:13.000Z</time>
      </trkpt>
      <trkpt lat="40.22507493384182453155517578125" lon="-0.96572223119437694549560546875">
        <ele>1189.5999755859375</ele>
        <time>2022-05-06T09:40:15.000Z</time>
      </trkpt>
      <trkpt lat="40.22502078674733638763427734375" lon="-0.9656671620905399322509765625">
        <ele>1189.5999755859375</ele>
        <time>2022-05-06T09:40:16.000Z</time>
      </trkpt>
      <trkpt lat="40.22496521472930908203125" lon="-0.96561276353895664215087890625">
        <ele>1189.4000244140625</ele>
        <time>2022-05-06T09:40:17.000Z</time>
      </trkpt>
      <trkpt lat="40.22485432215034961700439453125" lon="-0.9655018709599971771240234375">
        <ele>1189.4000244140625</ele>
        <time>2022-05-06T09:40:19.000Z</time>
      </trkpt>
      <trkpt lat="40.2247434295713901519775390625" lon="-0.96538913436233997344970703125">
        <ele>1189.4000244140625</ele>
        <time>2022-05-06T09:40:21.000Z</time>
      </trkpt>
      <trkpt lat="40.22463102824985980987548828125" lon="-0.96527296118438243865966796875">
        <ele>1189.4000244140625</ele>
        <time>2022-05-06T09:40:23.000Z</time>
      </trkpt>
      <trkpt lat="40.2245154418051242828369140625" lon="-0.9651538543403148651123046875">
        <ele>1189.800048828125</ele>
        <time>2022-05-06T09:40:25.000Z</time>
      </trkpt>
      <trkpt lat="40.22439968772232532501220703125" lon="-0.96502603031694889068603515625">
        <ele>1190</ele>
        <time>2022-05-06T09:40:27.000Z</time>
      </trkpt>
      <trkpt lat="40.224295668303966522216796875" lon="-0.96490122377872467041015625">
        <ele>1189.800048828125</ele>
        <time>2022-05-06T09:40:29.000Z</time>
      </trkpt>
      <trkpt lat="40.2242462150752544403076171875" lon="-0.96484246663749217987060546875">
        <ele>1189.5999755859375</ele>
        <time>2022-05-06T09:40:30.000Z</time>
      </trkpt>
      <trkpt lat="40.22419701330363750457763671875" lon="-0.9647840447723865509033203125">
        <ele>1189.5999755859375</ele>
        <time>2022-05-06T09:40:31.000Z</time>
      </trkpt>
      <trkpt lat="40.2240980230271816253662109375" lon="-0.96466762013733386993408203125">
        <ele>1189.5999755859375</ele>
        <time>2022-05-06T09:40:33.000Z</time>
      </trkpt>
      <trkpt lat="40.224001295864582061767578125" lon="-0.96454792656004428863525390625">
        <ele>1189.800048828125</ele>
        <time>2022-05-06T09:40:35.000Z</time>
      </trkpt>
      <trkpt lat="40.2239055745303630828857421875" lon="-0.9644229523837566375732421875">
        <ele>1189</ele>
        <time>2022-05-06T09:40:37.000Z</time>
      </trkpt>
      <trkpt lat="40.22385821677744388580322265625" lon="-0.9643558971583843231201171875">
        <ele>1188.4000244140625</ele>
        <time>2022-05-06T09:40:38.000Z</time>
      </trkpt>
      <trkpt lat="40.22380926646292209625244140625" lon="-0.9642911888659000396728515625">
        <ele>1188</ele>
        <time>2022-05-06T09:40:39.000Z</time>
      </trkpt>
      <trkpt lat="40.22370885126292705535888671875" lon="-0.96416252665221691131591796875">
        <ele>1188.199951171875</ele>
        <time>2022-05-06T09:40:41.000Z</time>
      </trkpt>
      <trkpt lat="40.22361095063388347625732421875" lon="-0.96402606926858425140380859375">
        <ele>1188</ele>
        <time>2022-05-06T09:40:43.000Z</time>
      </trkpt>
      <trkpt lat="40.2235154807567596435546875" lon="-0.96388944424688816070556640625">
        <ele>1186.199951171875</ele>
        <time>2022-05-06T09:40:45.000Z</time>
      </trkpt>
      <trkpt lat="40.2234180830419063568115234375" lon="-0.963759608566761016845703125">
        <ele>1186.199951171875</ele>
        <time>2022-05-06T09:40:47.000Z</time>
      </trkpt>
      <trkpt lat="40.2233205176889896392822265625" lon="-0.9636263363063335418701171875">
        <ele>1186.199951171875</ele>
        <time>2022-05-06T09:40:49.000Z</time>
      </trkpt>
      <trkpt lat="40.2232246287167072296142578125" lon="-0.9634918905794620513916015625">
        <ele>1185.800048828125</ele>
        <time>2022-05-06T09:40:51.000Z</time>
      </trkpt>
      <trkpt lat="40.2231760136783123016357421875" lon="-0.9634266793727874755859375">
        <ele>1185.5999755859375</ele>
        <time>2022-05-06T09:40:52.000Z</time>
      </trkpt>
      <trkpt lat="40.22312832064926624298095703125" lon="-0.96336440183222293853759765625">
        <ele>1185.4000244140625</ele>
        <time>2022-05-06T09:40:53.000Z</time>
      </trkpt>
      <trkpt lat="40.223041065037250518798828125" lon="-0.9632434509694576263427734375">
        <ele>1184.800048828125</ele>
        <time>2022-05-06T09:40:55.000Z</time>
      </trkpt>
      <trkpt lat="40.22295079194009304046630859375" lon="-0.9631227515637874603271484375">
        <ele>1184.4000244140625</ele>
        <time>2022-05-06T09:40:57.000Z</time>
      </trkpt>
      <trkpt lat="40.2228541485965251922607421875" lon="-0.96300012432038784027099609375">
        <ele>1184.199951171875</ele>
        <time>2022-05-06T09:40:59.000Z</time>
      </trkpt>
      <trkpt lat="40.22276052273809909820556640625" lon="-0.9628733061254024505615234375">
        <ele>1184.199951171875</ele>
        <time>2022-05-06T09:41:01.000Z</time>
      </trkpt>
      <trkpt lat="40.2226640470325946807861328125" lon="-0.962742380797863006591796875">
        <ele>1184</ele>
        <time>2022-05-06T09:41:03.000Z</time>
      </trkpt>
      <trkpt lat="40.222566984593868255615234375" lon="-0.9626195020973682403564453125">
        <ele>1184</ele>
        <time>2022-05-06T09:41:05.000Z</time>
      </trkpt>
      <trkpt lat="40.22251962684094905853271484375" lon="-0.96255621872842311859130859375">
        <ele>1184</ele>
        <time>2022-05-06T09:41:06.000Z</time>
      </trkpt>
      <trkpt lat="40.22247419692575931549072265625" lon="-0.9624959528446197509765625">
        <ele>1184</ele>
        <time>2022-05-06T09:41:07.000Z</time>
      </trkpt>
      <trkpt lat="40.22237964905798435211181640625" lon="-0.96237651072442531585693359375">
        <ele>1184</ele>
        <time>2022-05-06T09:41:09.000Z</time>
      </trkpt>
      <trkpt lat="40.2223351411521434783935546875" lon="-0.96231515519320964813232421875">
        <ele>1183.800048828125</ele>
        <time>2022-05-06T09:41:10.000Z</time>
      </trkpt>
      <trkpt lat="40.2222950756549835205078125" lon="-0.962253548204898834228515625">
        <ele>1183.800048828125</ele>
        <time>2022-05-06T09:41:11.000Z</time>
      </trkpt>
      <trkpt lat="40.22220798768103122711181640625" lon="-0.96213477663695812225341796875">
        <ele>1183.4000244140625</ele>
        <time>2022-05-06T09:41:13.000Z</time>
      </trkpt>
      <trkpt lat="40.22211830131709575653076171875" lon="-0.962020196020603179931640625">
        <ele>1183.4000244140625</ele>
        <time>2022-05-06T09:41:15.000Z</time>
      </trkpt>
      <trkpt lat="40.22207312285900115966796875" lon="-0.9619606845080852508544921875">
        <ele>1183.4000244140625</ele>
        <time>2022-05-06T09:41:16.000Z</time>
      </trkpt>
      <trkpt lat="40.22202551364898681640625" lon="-0.96190008334815502166748046875">
        <ele>1183.5999755859375</ele>
        <time>2022-05-06T09:41:17.000Z</time>
      </trkpt>
      <trkpt lat="40.22193440236151218414306640625" lon="-0.9617752768099308013916015625">
        <ele>1183.5999755859375</ele>
        <time>2022-05-06T09:41:19.000Z</time>
      </trkpt>
      <trkpt lat="40.221845470368862152099609375" lon="-0.961655080318450927734375">
        <ele>1183.5999755859375</ele>
        <time>2022-05-06T09:41:21.000Z</time>
      </trkpt>
      <trkpt lat="40.2217577956616878509521484375" lon="-0.96153563819825649261474609375">
        <ele>1183.199951171875</ele>
        <time>2022-05-06T09:41:23.000Z</time>
      </trkpt>
      <trkpt lat="40.22166701965034008026123046875" lon="-0.96141125075519084930419921875">
        <ele>1182.800048828125</ele>
        <time>2022-05-06T09:41:25.000Z</time>
      </trkpt>
      <trkpt lat="40.22157423198223114013671875" lon="-0.96128803677856922149658203125">
        <ele>1182.4000244140625</ele>
        <time>2022-05-06T09:41:27.000Z</time>
      </trkpt>
      <trkpt lat="40.22152972407639026641845703125" lon="-0.96122751943767070770263671875">
        <ele>1182.199951171875</ele>
        <time>2022-05-06T09:41:28.000Z</time>
      </trkpt>
      <trkpt lat="40.22148345597088336944580078125" lon="-0.961165912449359893798828125">
        <ele>1181.800048828125</ele>
        <time>2022-05-06T09:41:29.000Z</time>
      </trkpt>
      <trkpt lat="40.2213943563401699066162109375" lon="-0.9610457159578800201416015625">
        <ele>1181</ele>
        <time>2022-05-06T09:41:31.000Z</time>
      </trkpt>
      <trkpt lat="40.2213078550994396209716796875" lon="-0.960931219160556793212890625">
        <ele>1180.199951171875</ele>
        <time>2022-05-06T09:41:33.000Z</time>
      </trkpt>
      <trkpt lat="40.2212169952690601348876953125" lon="-0.960817225277423858642578125">
        <ele>1180</ele>
        <time>2022-05-06T09:41:35.000Z</time>
      </trkpt>
      <trkpt lat="40.22113032639026641845703125" lon="-0.96070297993719577789306640625">
        <ele>1179.800048828125</ele>
        <time>2022-05-06T09:41:37.000Z</time>
      </trkpt>
      <trkpt lat="40.22103535942733287811279296875" lon="-0.960583202540874481201171875">
        <ele>1179.800048828125</ele>
        <time>2022-05-06T09:41:39.000Z</time>
      </trkpt>
      <trkpt lat="40.22098657675087451934814453125" lon="-0.96052176319062709808349609375">
        <ele>1180.4000244140625</ele>
        <time>2022-05-06T09:41:40.000Z</time>
      </trkpt>
      <trkpt lat="40.22094047628343105316162109375" lon="-0.960464179515838623046875">
        <ele>1181.199951171875</ele>
        <time>2022-05-06T09:41:41.000Z</time>
      </trkpt>
      <trkpt lat="40.22085213102400302886962890625" lon="-0.96035026945173740386962890625">
        <ele>1182.5999755859375</ele>
        <time>2022-05-06T09:41:43.000Z</time>
      </trkpt>
      <trkpt lat="40.22076311521232128143310546875" lon="-0.96023418009281158447265625">
        <ele>1183.5999755859375</ele>
        <time>2022-05-06T09:41:45.000Z</time>
      </trkpt>
      <trkpt lat="40.22071869112551212310791015625" lon="-0.96017642877995967864990234375">
        <ele>1183.5999755859375</ele>
        <time>2022-05-06T09:41:46.000Z</time>
      </trkpt>
      <trkpt lat="40.22067368030548095703125" lon="-0.96011859364807605743408203125">
        <ele>1183.4000244140625</ele>
        <time>2022-05-06T09:41:47.000Z</time>
      </trkpt>
      <trkpt lat="40.22058583796024322509765625" lon="-0.96000711433589458465576171875">
        <ele>1183.199951171875</ele>
        <time>2022-05-06T09:41:49.000Z</time>
      </trkpt>
      <trkpt lat="40.2205001749098300933837890625" lon="-0.95989630557596683502197265625">
        <ele>1182.800048828125</ele>
        <time>2022-05-06T09:41:51.000Z</time>
      </trkpt>
      <trkpt lat="40.220413506031036376953125" lon="-0.9597944654524326324462890625">
        <ele>1183</ele>
        <time>2022-05-06T09:41:53.000Z</time>
      </trkpt>
      <trkpt lat="40.22037184797227382659912109375" lon="-0.9597445093095302581787109375">
        <ele>1183</ele>
        <time>2022-05-06T09:41:54.000Z</time>
      </trkpt>
      <trkpt lat="40.22032960318028926849365234375" lon="-0.95969363115727901458740234375">
        <ele>1183.5999755859375</ele>
        <time>2022-05-06T09:41:55.000Z</time>
      </trkpt>
      <trkpt lat="40.22024528123438358306884765625" lon="-0.9595899470150470733642578125">
        <ele>1184.800048828125</ele>
        <time>2022-05-06T09:41:57.000Z</time>
      </trkpt>
      <trkpt lat="40.220161043107509613037109375" lon="-0.9594883583486080169677734375">
        <ele>1186</ele>
        <time>2022-05-06T09:41:59.000Z</time>
      </trkpt>
      <trkpt lat="40.22007311694324016571044921875" lon="-0.95937645994126796722412109375">
        <ele>1187.4000244140625</ele>
        <time>2022-05-06T09:42:01.000Z</time>
      </trkpt>
      <trkpt lat="40.219984687864780426025390625" lon="-0.95926665700972080230712890625">
        <ele>1187.800048828125</ele>
        <time>2022-05-06T09:42:03.000Z</time>
      </trkpt>
      <trkpt lat="40.21989592351019382476806640625" lon="-0.9591597877442836761474609375">
        <ele>1187.199951171875</ele>
        <time>2022-05-06T09:42:05.000Z</time>
      </trkpt>
      <trkpt lat="40.21980808116495609283447265625" lon="-0.95904956571757793426513671875">
        <ele>1186.5999755859375</ele>
        <time>2022-05-06T09:42:07.000Z</time>
      </trkpt>
      <trkpt lat="40.21972023881971836090087890625" lon="-0.9589475579559803009033203125">
        <ele>1186.199951171875</ele>
        <time>2022-05-06T09:42:09.000Z</time>
      </trkpt>
      <trkpt lat="40.2196240983903408050537109375" lon="-0.958833061158657073974609375">
        <ele>1186.5999755859375</ele>
        <time>2022-05-06T09:42:11.000Z</time>
      </trkpt>
      <trkpt lat="40.2195322327315807342529296875" lon="-0.95872485078871250152587890625">
        <ele>1187.5999755859375</ele>
        <time>2022-05-06T09:42:13.000Z</time>
      </trkpt>
      <trkpt lat="40.2194356732070446014404296875" lon="-0.9586226753890514373779296875">
        <ele>1188.800048828125</ele>
        <time>2022-05-06T09:42:15.000Z</time>
      </trkpt>
      <trkpt lat="40.2193481661379337310791015625" lon="-0.95851094461977481842041015625">
        <ele>1189.800048828125</ele>
        <time>2022-05-06T09:42:17.000Z</time>
      </trkpt>
      <trkpt lat="40.21925814449787139892578125" lon="-0.9584013931453227996826171875">
        <ele>1190.5999755859375</ele>
        <time>2022-05-06T09:42:19.000Z</time>
      </trkpt>
      <trkpt lat="40.21915764547884464263916015625" lon="-0.9582706354558467864990234375">
        <ele>1190</ele>
        <time>2022-05-06T09:42:21.000Z</time>
      </trkpt>
      <trkpt lat="40.21907131187617778778076171875" lon="-0.9581338427960872650146484375">
        <ele>1189.4000244140625</ele>
        <time>2022-05-06T09:42:23.000Z</time>
      </trkpt>
      <trkpt lat="40.21900258027017116546630859375" lon="-0.95799797214567661285400390625">
        <ele>1188.800048828125</ele>
        <time>2022-05-06T09:42:25.000Z</time>
      </trkpt>
      <trkpt lat="40.218934603035449981689453125" lon="-0.95786319114267826080322265625">
        <ele>1188.4000244140625</ele>
        <time>2022-05-06T09:42:27.000Z</time>
      </trkpt>
      <trkpt lat="40.21886964328587055206298828125" lon="-0.9577268175780773162841796875">
        <ele>1188.5999755859375</ele>
        <time>2022-05-06T09:42:29.000Z</time>
      </trkpt>
      <trkpt lat="40.21880459971725940704345703125" lon="-0.95760100521147251129150390625">
        <ele>1188.5999755859375</ele>
        <time>2022-05-06T09:42:31.000Z</time>
      </trkpt>
      <trkpt lat="40.218739472329616546630859375" lon="-0.95747544430196285247802734375">
        <ele>1188.800048828125</ele>
        <time>2022-05-06T09:42:33.000Z</time>
      </trkpt>
      <trkpt lat="40.218703262507915496826171875" lon="-0.95741442404687404632568359375">
        <ele>1188.800048828125</ele>
        <time>2022-05-06T09:42:34.000Z</time>
      </trkpt>
      <trkpt lat="40.21866696886718273162841796875" lon="-0.9573526494204998016357421875">
        <ele>1189</ele>
        <time>2022-05-06T09:42:35.000Z</time>
      </trkpt>
      <trkpt lat="40.2185917831957340240478515625" lon="-0.95722566358745098114013671875">
        <ele>1188.5999755859375</ele>
        <time>2022-05-06T09:42:37.000Z</time>
      </trkpt>
      <trkpt lat="40.21851492114365100860595703125" lon="-0.957089960575103759765625">
        <ele>1188.199951171875</ele>
        <time>2022-05-06T09:42:39.000Z</time>
      </trkpt>
      <trkpt lat="40.21847703494131565093994140625" lon="-0.95702181570231914520263671875">
        <ele>1188</ele>
        <time>2022-05-06T09:42:40.000Z</time>
      </trkpt>
      <trkpt lat="40.21844484843313694000244140625" lon="-0.95695308409631252288818359375">
        <ele>1187.800048828125</ele>
        <time>2022-05-06T09:42:41.000Z</time>
      </trkpt>
      <trkpt lat="40.21837460808455944061279296875" lon="-0.9568145312368869781494140625">
        <ele>1187.4000244140625</ele>
        <time>2022-05-06T09:42:43.000Z</time>
      </trkpt>
      <trkpt lat="40.21829498000442981719970703125" lon="-0.95666742883622646331787109375">
        <ele>1185.800048828125</ele>
        <time>2022-05-06T09:42:45.000Z</time>
      </trkpt>
      <trkpt lat="40.21825499832630157470703125" lon="-0.956592075526714324951171875">
        <ele>1184.800048828125</ele>
        <time>2022-05-06T09:42:46.000Z</time>
      </trkpt>
      <trkpt lat="40.21821484901010990142822265625" lon="-0.956520326435565948486328125">
        <ele>1184</ele>
        <time>2022-05-06T09:42:47.000Z</time>
      </trkpt>
      <trkpt lat="40.21813564002513885498046875" lon="-0.9563666023313999176025390625">
        <ele>1182.4000244140625</ele>
        <time>2022-05-06T09:42:49.000Z</time>
      </trkpt>
      <trkpt lat="40.218053162097930908203125" lon="-0.95621145330369472503662109375">
        <ele>1181.199951171875</ele>
        <time>2022-05-06T09:42:51.000Z</time>
      </trkpt>
      <trkpt lat="40.21796909160912036895751953125" lon="-0.95605772919952869415283203125">
        <ele>1180.199951171875</ele>
        <time>2022-05-06T09:42:53.000Z</time>
      </trkpt>
      <trkpt lat="40.2179324626922607421875" lon="-0.9559833817183971405029296875">
        <ele>1180.199951171875</ele>
        <time>2022-05-06T09:42:54.000Z</time>
      </trkpt>
      <trkpt lat="40.21789315156638622283935546875" lon="-0.95590702258050441741943359375">
        <ele>1180.5999755859375</ele>
        <time>2022-05-06T09:42:55.000Z</time>
      </trkpt>
      <trkpt lat="40.2178105898201465606689453125" lon="-0.955753885209560394287109375">
        <ele>1181.199951171875</ele>
        <time>2022-05-06T09:42:57.000Z</time>
      </trkpt>
      <trkpt lat="40.21776960231363773345947265625" lon="-0.955674760043621063232421875">
        <ele>1180.800048828125</ele>
        <time>2022-05-06T09:42:58.000Z</time>
      </trkpt>
      <trkpt lat="40.2177291177213191986083984375" lon="-0.955595634877681732177734375">
        <ele>1180.199951171875</ele>
        <time>2022-05-06T09:42:59.000Z</time>
      </trkpt>
      <trkpt lat="40.21764974109828472137451171875" lon="-0.9554392285645008087158203125">
        <ele>1180.199951171875</ele>
        <time>2022-05-06T09:43:01.000Z</time>
      </trkpt>
      <trkpt lat="40.21760850213468074798583984375" lon="-0.95536060631275177001953125">
        <ele>1180.4000244140625</ele>
        <time>2022-05-06T09:43:02.000Z</time>
      </trkpt>
      <trkpt lat="40.21756642498075962066650390625" lon="-0.95528223551809787750244140625">
        <ele>1180.5999755859375</ele>
        <time>2022-05-06T09:43:03.000Z</time>
      </trkpt>
      <trkpt lat="40.21748394705355167388916015625" lon="-0.9551270864903926849365234375">
        <ele>1180.199951171875</ele>
        <time>2022-05-06T09:43:05.000Z</time>
      </trkpt>
      <trkpt lat="40.2174002118408679962158203125" lon="-0.9549696743488311767578125">
        <ele>1179</ele>
        <time>2022-05-06T09:43:07.000Z</time>
      </trkpt>
      <trkpt lat="40.2173143811523914337158203125" lon="-0.9548141062259674072265625">
        <ele>1177.800048828125</ele>
        <time>2022-05-06T09:43:09.000Z</time>
      </trkpt>
      <trkpt lat="40.21723232232034206390380859375" lon="-0.954658202826976776123046875">
        <ele>1176.800048828125</ele>
        <time>2022-05-06T09:43:11.000Z</time>
      </trkpt>
      <trkpt lat="40.2171557955443859100341796875" lon="-0.95451445318758487701416015625">
        <ele>1175.4000244140625</ele>
        <time>2022-05-06T09:43:13.000Z</time>
      </trkpt>
      <trkpt lat="40.2170860581099987030029296875" lon="-0.9543787501752376556396484375">
        <ele>1174.199951171875</ele>
        <time>2022-05-06T09:43:15.000Z</time>
      </trkpt>
      <trkpt lat="40.2170109562575817108154296875" lon="-0.95424723811447620391845703125">
        <ele>1173.4000244140625</ele>
        <time>2022-05-06T09:43:17.000Z</time>
      </trkpt>
      <trkpt lat="40.21693577058613300323486328125" lon="-0.9541108645498752593994140625">
        <ele>1172.5999755859375</ele>
        <time>2022-05-06T09:43:19.000Z</time>
      </trkpt>
      <trkpt lat="40.21686033345758914947509765625" lon="-0.9539700485765933990478515625">
        <ele>1172.199951171875</ele>
        <time>2022-05-06T09:43:21.000Z</time>
      </trkpt>
      <trkpt lat="40.21677978336811065673828125" lon="-0.9538312442600727081298828125">
        <ele>1171.800048828125</ele>
        <time>2022-05-06T09:43:23.000Z</time>
      </trkpt>
      <trkpt lat="40.21670090965926647186279296875" lon="-0.9536853991448879241943359375">
        <ele>1171.4000244140625</ele>
        <time>2022-05-06T09:43:25.000Z</time>
      </trkpt>
      <trkpt lat="40.21662429906427860260009765625" lon="-0.95354181714355945587158203125">
        <ele>1171.199951171875</ele>
        <time>2022-05-06T09:43:27.000Z</time>
      </trkpt>
      <trkpt lat="40.216589011251926422119140625" lon="-0.95346855930984020233154296875">
        <ele>1171.5999755859375</ele>
        <time>2022-05-06T09:43:28.000Z</time>
      </trkpt>
      <trkpt lat="40.2165553160011768341064453125" lon="-0.95339454710483551025390625">
        <ele>1172.199951171875</ele>
        <time>2022-05-06T09:43:29.000Z</time>
      </trkpt>
      <trkpt lat="40.2165043540298938751220703125" lon="-0.95325079746544361114501953125">
        <ele>1172.800048828125</ele>
        <time>2022-05-06T09:43:31.000Z</time>
      </trkpt>
      <trkpt lat="40.2164812199771404266357421875" lon="-0.9531821496784687042236328125">
        <ele>1173.199951171875</ele>
        <time>2022-05-06T09:43:32.000Z</time>
      </trkpt>
      <trkpt lat="40.21645934320986270904541015625" lon="-0.95311467535793781280517578125">
        <ele>1173.5999755859375</ele>
        <time>2022-05-06T09:43:33.000Z</time>
      </trkpt>
      <trkpt lat="40.216422714293003082275390625" lon="-0.952973775565624237060546875">
        <ele>1174</ele>
        <time>2022-05-06T09:43:35.000Z</time>
      </trkpt>
      <trkpt lat="40.2163974009454250335693359375" lon="-0.9528240747749805450439453125">
        <ele>1173.5999755859375</ele>
        <time>2022-05-06T09:43:37.000Z</time>
      </trkpt>
      <trkpt lat="40.2163880132138729095458984375" lon="-0.95274855382740497589111328125">
        <ele>1173.199951171875</ele>
        <time>2022-05-06T09:43:38.000Z</time>
      </trkpt>
      <trkpt lat="40.21637535654008388519287109375" lon="-0.95266657881438732147216796875">
        <ele>1172.800048828125</ele>
        <time>2022-05-06T09:43:39.000Z</time>
      </trkpt>
      <trkpt lat="40.21635473705828189849853515625" lon="-0.95250145532190799713134765625">
        <ele>1172</ele>
        <time>2022-05-06T09:43:41.000Z</time>
      </trkpt>
      <trkpt lat="40.216335542500019073486328125" lon="-0.95233700238168239593505859375">
        <ele>1171.199951171875</ele>
        <time>2022-05-06T09:43:43.000Z</time>
      </trkpt>
      <trkpt lat="40.21632472984492778778076171875" lon="-0.95225703902542591094970703125">
        <ele>1170.800048828125</ele>
        <time>2022-05-06T09:43:44.000Z</time>
      </trkpt>
      <trkpt lat="40.21631450392305850982666015625" lon="-0.95217674039304256439208984375">
        <ele>1170.4000244140625</ele>
        <time>2022-05-06T09:43:45.000Z</time>
      </trkpt>
      <trkpt lat="40.21629656665027141571044921875" lon="-0.95201932825148105621337890625">
        <ele>1169.5999755859375</ele>
        <time>2022-05-06T09:43:47.000Z</time>
      </trkpt>
      <trkpt lat="40.21627561189234256744384765625" lon="-0.95185923390090465545654296875">
        <ele>1168.800048828125</ele>
        <time>2022-05-06T09:43:49.000Z</time>
      </trkpt>
      <trkpt lat="40.21626672707498073577880859375" lon="-0.95178396441042423248291015625">
        <ele>1168.4000244140625</ele>
        <time>2022-05-06T09:43:50.000Z</time>
      </trkpt>
      <trkpt lat="40.2162565849721431732177734375" lon="-0.95170903019607067108154296875">
        <ele>1168</ele>
        <time>2022-05-06T09:43:51.000Z</time>
      </trkpt>
      <trkpt lat="40.2162381447851657867431640625" lon="-0.95156217925250530242919921875">
        <ele>1167.199951171875</ele>
        <time>2022-05-06T09:43:53.000Z</time>
      </trkpt>
      <trkpt lat="40.21621962077915668487548828125" lon="-0.9514256380498409271240234375">
        <ele>1166.5999755859375</ele>
        <time>2022-05-06T09:43:55.000Z</time>
      </trkpt>
      <trkpt lat="40.21619732491672039031982421875" lon="-0.95129563473165035247802734375">
        <ele>1166.199951171875</ele>
        <time>2022-05-06T09:43:57.000Z</time>
      </trkpt>
      <trkpt lat="40.216185338795185089111328125" lon="-0.95123042352497577667236328125">
        <ele>1166</ele>
        <time>2022-05-06T09:43:58.000Z</time>
      </trkpt>
      <trkpt lat="40.21617435850203037261962890625" lon="-0.95116429030895233154296875">
        <ele>1165.800048828125</ele>
        <time>2022-05-06T09:43:59.000Z</time>
      </trkpt>
      <trkpt lat="40.2161677367985248565673828125" lon="-0.95109798945486545562744140625">
        <ele>1165.5999755859375</ele>
        <time>2022-05-06T09:44:00.000Z</time>
      </trkpt>
      <trkpt lat="40.21616061218082904815673828125" lon="-0.95102925784885883331298828125">
        <ele>1165.199951171875</ele>
        <time>2022-05-06T09:44:01.000Z</time>
      </trkpt>
      <trkpt lat="40.21614703349769115447998046875" lon="-0.95088844187557697296142578125">
        <ele>1164.5999755859375</ele>
        <time>2022-05-06T09:44:03.000Z</time>
      </trkpt>
      <trkpt lat="40.21614049561321735382080078125" lon="-0.9508140943944454193115234375">
        <ele>1164.4000244140625</ele>
        <time>2022-05-06T09:44:04.000Z</time>
      </trkpt>
      <trkpt lat="40.2161325328052043914794921875" lon="-0.95073823817074298858642578125">
        <ele>1164</ele>
        <time>2022-05-06T09:44:05.000Z</time>
      </trkpt>
      <trkpt lat="40.21611451171338558197021484375" lon="-0.950591303408145904541015625">
        <ele>1164</ele>
        <time>2022-05-06T09:44:07.000Z</time>
      </trkpt>
      <trkpt lat="40.21609841845929622650146484375" lon="-0.950441770255565643310546875">
        <ele>1164</ele>
        <time>2022-05-06T09:44:09.000Z</time>
      </trkpt>
      <trkpt lat="40.21608106791973114013671875" lon="-0.95028846524655818939208984375">
        <ele>1164.199951171875</ele>
        <time>2022-05-06T09:44:11.000Z</time>
      </trkpt>
      <trkpt lat="40.216071344912052154541015625" lon="-0.950213111937046051025390625">
        <ele>1164.199951171875</ele>
        <time>2022-05-06T09:44:12.000Z</time>
      </trkpt>
      <trkpt lat="40.2160604484379291534423828125" lon="-0.950135327875614166259765625">
        <ele>1164.199951171875</ele>
        <time>2022-05-06T09:44:13.000Z</time>
      </trkpt>
      <trkpt lat="40.21604125387966632843017578125" lon="-0.94997732900083065032958984375">
        <ele>1164.199951171875</ele>
        <time>2022-05-06T09:44:15.000Z</time>
      </trkpt>
      <trkpt lat="40.2160161919891834259033203125" lon="-0.9498156420886516571044921875">
        <ele>1163.800048828125</ele>
        <time>2022-05-06T09:44:17.000Z</time>
      </trkpt>
      <trkpt lat="40.2159903757274150848388671875" lon="-0.94965496100485324859619140625">
        <ele>1163.800048828125</ele>
        <time>2022-05-06T09:44:19.000Z</time>
      </trkpt>
      <trkpt lat="40.21596179343760013580322265625" lon="-0.9494988061487674713134765625">
        <ele>1164.199951171875</ele>
        <time>2022-05-06T09:44:21.000Z</time>
      </trkpt>
      <trkpt lat="40.2159436047077178955078125" lon="-0.949350781738758087158203125">
        <ele>1164.199951171875</ele>
        <time>2022-05-06T09:44:23.000Z</time>
      </trkpt>
      <trkpt lat="40.215925164520740509033203125" lon="-0.9492029249668121337890625">
        <ele>1164.4000244140625</ele>
        <time>2022-05-06T09:44:25.000Z</time>
      </trkpt>
      <trkpt lat="40.215903036296367645263671875" lon="-0.94906772486865520477294921875">
        <ele>1164.4000244140625</ele>
        <time>2022-05-06T09:44:27.000Z</time>
      </trkpt>
      <trkpt lat="40.21587587893009185791015625" lon="-0.94893562607467174530029296875">
        <ele>1164.4000244140625</ele>
        <time>2022-05-06T09:44:29.000Z</time>
      </trkpt>
      <trkpt lat="40.21586406044661998748779296875" lon="-0.9488688223063945770263671875">
        <ele>1164.199951171875</ele>
        <time>2022-05-06T09:44:30.000Z</time>
      </trkpt>
      <trkpt lat="40.21585517562925815582275390625" lon="-0.94880528748035430908203125">
        <ele>1163.800048828125</ele>
        <time>2022-05-06T09:44:31.000Z</time>
      </trkpt>
      <trkpt lat="40.2158411778509616851806640625" lon="-0.94868064858019351959228515625">
        <ele>1163.199951171875</ele>
        <time>2022-05-06T09:44:33.000Z</time>
      </trkpt>
      <trkpt lat="40.21582500077784061431884765625" lon="-0.94856078736484050750732421875">
        <ele>1162.4000244140625</ele>
        <time>2022-05-06T09:44:35.000Z</time>
      </trkpt>
      <trkpt lat="40.2158056385815143585205078125" lon="-0.9484411776065826416015625">
        <ele>1162</ele>
        <time>2022-05-06T09:44:37.000Z</time>
      </trkpt>
      <trkpt lat="40.21579348482191562652587890625" lon="-0.9483823366463184356689453125">
        <ele>1162</ele>
        <time>2022-05-06T09:44:38.000Z</time>
      </trkpt>
      <trkpt lat="40.21577605046331882476806640625" lon="-0.94832072965800762176513671875">
        <ele>1162</ele>
        <time>2022-05-06T09:44:39.000Z</time>
      </trkpt>
      <trkpt lat="40.2157251723110675811767578125" lon="-0.94819852150976657867431640625">
        <ele>1162.199951171875</ele>
        <time>2022-05-06T09:44:41.000Z</time>
      </trkpt>
      <trkpt lat="40.2156681753695011138916015625" lon="-0.94808134250342845916748046875">
        <ele>1162.4000244140625</ele>
        <time>2022-05-06T09:44:43.000Z</time>
      </trkpt>
      <trkpt lat="40.21562484093010425567626953125" lon="-0.94796835444867610931396484375">
        <ele>1162.800048828125</ele>
        <time>2022-05-06T09:44:45.000Z</time>
      </trkpt>
      <trkpt lat="40.2155913971364498138427734375" lon="-0.9478626586496829986572265625">
        <ele>1163.4000244140625</ele>
        <time>2022-05-06T09:44:47.000Z</time>
      </trkpt>
      <trkpt lat="40.21557840518653392791748046875" lon="-0.94781245104968547821044921875">
        <ele>1163.5999755859375</ele>
        <time>2022-05-06T09:44:48.000Z</time>
      </trkpt>
      <trkpt lat="40.2155680954456329345703125" lon="-0.94776249490678310394287109375">
        <ele>1164</ele>
        <time>2022-05-06T09:44:49.000Z</time>
      </trkpt>
      <trkpt lat="40.2155535109341144561767578125" lon="-0.94766962341964244842529296875">
        <ele>1164.4000244140625</ele>
        <time>2022-05-06T09:44:51.000Z</time>
      </trkpt>
      <trkpt lat="40.2155407704412937164306640625" lon="-0.94757976941764354705810546875">
        <ele>1164.800048828125</ele>
        <time>2022-05-06T09:44:53.000Z</time>
      </trkpt>
      <trkpt lat="40.21552409045398235321044921875" lon="-0.9474915079772472381591796875">
        <ele>1165.199951171875</ele>
        <time>2022-05-06T09:44:55.000Z</time>
      </trkpt>
      <trkpt lat="40.21549559198319911956787109375" lon="-0.94740475527942180633544921875">
        <ele>1166</ele>
        <time>2022-05-06T09:44:57.000Z</time>
      </trkpt>
      <trkpt lat="40.21546441130340099334716796875" lon="-0.94732210971415042877197265625">
        <ele>1166.5999755859375</ele>
        <time>2022-05-06T09:44:59.000Z</time>
      </trkpt>
      <trkpt lat="40.21543859504163265228271484375" lon="-0.9472444094717502593994140625">
        <ele>1167.199951171875</ele>
        <time>2022-05-06T09:45:01.000Z</time>
      </trkpt>
      <trkpt lat="40.21541479043662548065185546875" lon="-0.947165787220001220703125">
        <ele>1167.199951171875</ele>
        <time>2022-05-06T09:45:03.000Z</time>
      </trkpt>
      <trkpt lat="40.21538444794714450836181640625" lon="-0.94708808697760105133056640625">
        <ele>1167.4000244140625</ele>
        <time>2022-05-06T09:45:05.000Z</time>
      </trkpt>
      <trkpt lat="40.21535058505833148956298828125" lon="-0.94699856825172901153564453125">
        <ele>1167.800048828125</ele>
        <time>2022-05-06T09:45:07.000Z</time>
      </trkpt>
      <trkpt lat="40.21533231250941753387451171875" lon="-0.94694785773754119873046875">
        <ele>1167.800048828125</ele>
        <time>2022-05-06T09:45:08.000Z</time>
      </trkpt>
      <trkpt lat="40.215312950313091278076171875" lon="-0.9468943811953067779541015625">
        <ele>1168</ele>
        <time>2022-05-06T09:45:09.000Z</time>
      </trkpt>
      <trkpt lat="40.2152718789875507354736328125" lon="-0.94678533263504505157470703125">
        <ele>1168.4000244140625</ele>
        <time>2022-05-06T09:45:11.000Z</time>
      </trkpt>
      <trkpt lat="40.215231813490390777587890625" lon="-0.94667485915124416351318359375">
        <ele>1168.5999755859375</ele>
        <time>2022-05-06T09:45:13.000Z</time>
      </trkpt>
      <trkpt lat="40.2151925861835479736328125" lon="-0.94656488858163356781005859375">
        <ele>1168.5999755859375</ele>
        <time>2022-05-06T09:45:15.000Z</time>
      </trkpt>
      <trkpt lat="40.21517045795917510986328125" lon="-0.94651107676327228546142578125">
        <ele>1168.4000244140625</ele>
        <time>2022-05-06T09:45:16.000Z</time>
      </trkpt>
      <trkpt lat="40.215147994458675384521484375" lon="-0.94646179117262363433837890625">
        <ele>1168.199951171875</ele>
        <time>2022-05-06T09:45:17.000Z</time>
      </trkpt>
      <trkpt lat="40.2151072584092617034912109375" lon="-0.9463773854076862335205078125">
        <ele>1168.199951171875</ele>
        <time>2022-05-06T09:45:19.000Z</time>
      </trkpt>
      <trkpt lat="40.21507230587303638458251953125" lon="-0.946306474506855010986328125">
        <ele>1168.4000244140625</ele>
        <time>2022-05-06T09:45:21.000Z</time>
      </trkpt>
      <trkpt lat="40.215046405792236328125" lon="-0.94624117948114871978759765625">
        <ele>1168.5999755859375</ele>
        <time>2022-05-06T09:45:23.000Z</time>
      </trkpt>
      <trkpt lat="40.21502369083464145660400390625" lon="-0.9461859427392482757568359375">
        <ele>1168.800048828125</ele>
        <time>2022-05-06T09:45:25.000Z</time>
      </trkpt>
      <trkpt lat="40.2150090225040912628173828125" lon="-0.94615903683006763458251953125">
        <ele>1168.800048828125</ele>
        <time>2022-05-06T09:45:26.000Z</time>
      </trkpt>
      <trkpt lat="40.21499150432646274566650390625" lon="-0.9461359865963459014892578125">
        <ele>1169</ele>
        <time>2022-05-06T09:45:27.000Z</time>
      </trkpt>
      <trkpt lat="40.21496702916920185089111328125" lon="-0.94611100852489471435546875">
        <ele>1169.199951171875</ele>
        <time>2022-05-06T09:45:29.000Z</time>
      </trkpt>
      <trkpt lat="40.21496652625501155853271484375" lon="-0.94610857777297496795654296875">
        <ele>1169.199951171875</ele>
        <time>2022-05-06T09:45:30.000Z</time>
      </trkpt>
      <trkpt lat="40.21496669389307498931884765625" lon="-0.94611075706779956817626953125">
        <ele>1169.199951171875</ele>
        <time>2022-05-06T09:45:31.000Z</time>
      </trkpt>
      <trkpt lat="40.2149453200399875640869140625" lon="-0.94604655168950557708740234375">
        <ele>1169.199951171875</ele>
        <time>2022-05-06T09:45:37.000Z</time>
      </trkpt>
      <trkpt lat="40.2149345912039279937744140625" lon="-0.946004390716552734375">
        <ele>1169.199951171875</ele>
        <time>2022-05-06T09:45:38.000Z</time>
      </trkpt>
      <trkpt lat="40.21492377854883670806884765625" lon="-0.94595535658299922943115234375">
        <ele>1169.199951171875</ele>
        <time>2022-05-06T09:45:39.000Z</time>
      </trkpt>
      <trkpt lat="40.21488773636519908905029296875" lon="-0.94584907405078411102294921875">
        <ele>1169.4000244140625</ele>
        <time>2022-05-06T09:45:41.000Z</time>
      </trkpt>
      <trkpt lat="40.21486158482730388641357421875" lon="-0.94579408876597881317138671875">
        <ele>1169.4000244140625</ele>
        <time>2022-05-06T09:45:42.000Z</time>
      </trkpt>
      <trkpt lat="40.2148306556046009063720703125" lon="-0.9457400254905223846435546875">
        <ele>1169.4000244140625</ele>
        <time>2022-05-06T09:45:43.000Z</time>
      </trkpt>
      <trkpt lat="40.214758403599262237548828125" lon="-0.94564153812825679779052734375">
        <ele>1169.5999755859375</ele>
        <time>2022-05-06T09:45:45.000Z</time>
      </trkpt>
      <trkpt lat="40.21471624262630939483642578125" lon="-0.9456008858978748321533203125">
        <ele>1169.800048828125</ele>
        <time>2022-05-06T09:45:46.000Z</time>
      </trkpt>
      <trkpt lat="40.2146722376346588134765625" lon="-0.945561826229095458984375">
        <ele>1169.800048828125</ele>
        <time>2022-05-06T09:45:47.000Z</time>
      </trkpt>
      <trkpt lat="40.21458447910845279693603515625" lon="-0.94548764638602733612060546875">
        <ele>1169.5999755859375</ele>
        <time>2022-05-06T09:45:49.000Z</time>
      </trkpt>
      <trkpt lat="40.2145005762577056884765625" lon="-0.94541975297033786773681640625">
        <ele>1169.199951171875</ele>
        <time>2022-05-06T09:45:51.000Z</time>
      </trkpt>
      <trkpt lat="40.2144279889762401580810546875" lon="-0.94535487703979015350341796875">
        <ele>1168.800048828125</ele>
        <time>2022-05-06T09:45:53.000Z</time>
      </trkpt>
      <trkpt lat="40.214394964277744293212890625" lon="-0.94531950540840625762939453125">
        <ele>1168.5999755859375</ele>
        <time>2022-05-06T09:45:54.000Z</time>
      </trkpt>
      <trkpt lat="40.2143664658069610595703125" lon="-0.94528044573962688446044921875">
        <ele>1168.199951171875</ele>
        <time>2022-05-06T09:45:55.000Z</time>
      </trkpt>
      <trkpt lat="40.21434031426906585693359375" lon="-0.945235602557659149169921875">
        <ele>1168</ele>
        <time>2022-05-06T09:45:56.000Z</time>
      </trkpt>
      <trkpt lat="40.2143160067498683929443359375" lon="-0.9451831318438053131103515625">
        <ele>1167.800048828125</ele>
        <time>2022-05-06T09:45:57.000Z</time>
      </trkpt>
      <trkpt lat="40.2142653800547122955322265625" lon="-0.94506821595132350921630859375">
        <ele>1167.199951171875</ele>
        <time>2022-05-06T09:45:59.000Z</time>
      </trkpt>
      <trkpt lat="40.2142177708446979522705078125" lon="-0.9449531324207782745361328125">
        <ele>1166.800048828125</ele>
        <time>2022-05-06T09:46:01.000Z</time>
      </trkpt>
      <trkpt lat="40.2141899429261684417724609375" lon="-0.94486780464649200439453125">
        <ele>1166.4000244140625</ele>
        <time>2022-05-06T09:46:03.000Z</time>
      </trkpt>
      <trkpt lat="40.214185416698455810546875" lon="-0.94484995119273662567138671875">
        <ele>1166.4000244140625</ele>
        <time>2022-05-06T09:46:04.000Z</time>
      </trkpt>
      <trkpt lat="40.2141849137842655181884765625" lon="-0.9448481909930706024169921875">
        <ele>1166.4000244140625</ele>
        <time>2022-05-06T09:46:05.000Z</time>
      </trkpt>
      <trkpt lat="40.214184410870075225830078125" lon="-0.9448455087840557098388671875">
        <ele>1166.4000244140625</ele>
        <time>2022-05-06T09:46:06.000Z</time>
      </trkpt>
      <trkpt lat="40.214189775288105010986328125" lon="-0.94477283768355846405029296875">
        <ele>1166.199951171875</ele>
        <time>2022-05-06T09:46:54.000Z</time>
      </trkpt>
      <trkpt lat="40.21420109085738658905029296875" lon="-0.9447533078491687774658203125">
        <ele>1166</ele>
        <time>2022-05-06T09:46:55.000Z</time>
      </trkpt>
      <trkpt lat="40.21421517245471477508544921875" lon="-0.94473813660442829132080078125">
        <ele>1166</ele>
        <time>2022-05-06T09:46:56.000Z</time>
      </trkpt>
      <trkpt lat="40.21422774530947208404541015625" lon="-0.94472296535968780517578125">
        <ele>1166</ele>
        <time>2022-05-06T09:46:57.000Z</time>
      </trkpt>
      <trkpt lat="40.2142404019832611083984375" lon="-0.944705195724964141845703125">
        <ele>1166</ele>
        <time>2022-05-06T09:46:58.000Z</time>
      </trkpt>
      <trkpt lat="40.21425314247608184814453125" lon="-0.94468683935701847076416015625">
        <ele>1165.800048828125</ele>
        <time>2022-05-06T09:46:59.000Z</time>
      </trkpt>
      <trkpt lat="40.21426496095955371856689453125" lon="-0.94466638751327991485595703125">
        <ele>1165.800048828125</ele>
        <time>2022-05-06T09:47:01.000Z</time>
      </trkpt>
      <trkpt lat="40.21426529623568058013916015625" lon="-0.9446668066084384918212890625">
        <ele>1165.800048828125</ele>
        <time>2022-05-06T09:47:02.000Z</time>
      </trkpt>
      <trkpt lat="40.214237384498119354248046875" lon="-0.94467334449291229248046875">
        <ele>1165.800048828125</ele>
        <time>2022-05-06T09:57:49.000Z</time>
      </trkpt>
      <trkpt lat="40.214225314557552337646484375" lon="-0.94469103030860424041748046875">
        <ele>1165.800048828125</ele>
        <time>2022-05-06T09:57:50.000Z</time>
      </trkpt>
      <trkpt lat="40.214211903512477874755859375" lon="-0.9447097219526767730712890625">
        <ele>1166</ele>
        <time>2022-05-06T09:57:51.000Z</time>
      </trkpt>
      <trkpt lat="40.214174352586269378662109375" lon="-0.944736041128635406494140625">
        <ele>1166</ele>
        <time>2022-05-06T09:57:53.000Z</time>
      </trkpt>
      <trkpt lat="40.21415012888610363006591796875" lon="-0.94473302364349365234375">
        <ele>1166</ele>
        <time>2022-05-06T09:57:54.000Z</time>
      </trkpt>
      <trkpt lat="40.21412699483335018157958984375" lon="-0.94472019933164119720458984375">
        <ele>1166</ele>
        <time>2022-05-06T09:57:55.000Z</time>
      </trkpt>
      <trkpt lat="40.21408525295555591583251953125" lon="-0.944671668112277984619140625">
        <ele>1165.800048828125</ele>
        <time>2022-05-06T09:57:57.000Z</time>
      </trkpt>
      <trkpt lat="40.21406480111181735992431640625" lon="-0.94463973306119441986083984375">
        <ele>1165.800048828125</ele>
        <time>2022-05-06T09:57:58.000Z</time>
      </trkpt>
      <trkpt lat="40.21404258906841278076171875" lon="-0.944605283439159393310546875">
        <ele>1165.5999755859375</ele>
        <time>2022-05-06T09:57:59.000Z</time>
      </trkpt>
      <trkpt lat="40.21401786245405673980712890625" lon="-0.9445707499980926513671875">
        <ele>1165.5999755859375</ele>
        <time>2022-05-06T09:58:00.000Z</time>
      </trkpt>
      <trkpt lat="40.21399162709712982177734375" lon="-0.94453713856637477874755859375">
        <ele>1165.5999755859375</ele>
        <time>2022-05-06T09:58:01.000Z</time>
      </trkpt>
      <trkpt lat="40.2139378152787685394287109375" lon="-0.94447620213031768798828125">
        <ele>1165</ele>
        <time>2022-05-06T09:58:03.000Z</time>
      </trkpt>
      <trkpt lat="40.21388039924204349517822265625" lon="-0.94441057182848453521728515625">
        <ele>1164.5999755859375</ele>
        <time>2022-05-06T09:58:05.000Z</time>
      </trkpt>
      <trkpt lat="40.2138161100447177886962890625" lon="-0.9443368948996067047119140625">
        <ele>1164.199951171875</ele>
        <time>2022-05-06T09:58:07.000Z</time>
      </trkpt>
      <trkpt lat="40.21374695934355258941650390625" lon="-0.9442601166665554046630859375">
        <ele>1163.800048828125</ele>
        <time>2022-05-06T09:58:09.000Z</time>
      </trkpt>
      <trkpt lat="40.21371066570281982421875" lon="-0.944226086139678955078125">
        <ele>1163.800048828125</ele>
        <time>2022-05-06T09:58:10.000Z</time>
      </trkpt>
      <trkpt lat="40.21367286331951618194580078125" lon="-0.94419448636472225189208984375">
        <ele>1163.800048828125</ele>
        <time>2022-05-06T09:58:11.000Z</time>
      </trkpt>
      <trkpt lat="40.213594324886798858642578125" lon="-0.94413480721414089202880859375">
        <ele>1163.800048828125</ele>
        <time>2022-05-06T09:58:13.000Z</time>
      </trkpt>
      <trkpt lat="40.21355576813220977783203125" lon="-0.944110415875911712646484375">
        <ele>1163.800048828125</ele>
        <time>2022-05-06T09:58:14.000Z</time>
      </trkpt>
      <trkpt lat="40.21351712755858898162841796875" lon="-0.94408736564218997955322265625">
        <ele>1163.5999755859375</ele>
        <time>2022-05-06T09:58:15.000Z</time>
      </trkpt>
      <trkpt lat="40.21344219334423542022705078125" lon="-0.94404662959277629852294921875">
        <ele>1163.199951171875</ele>
        <time>2022-05-06T09:58:17.000Z</time>
      </trkpt>
      <trkpt lat="40.213367678225040435791015625" lon="-0.94400874339044094085693359375">
        <ele>1162.800048828125</ele>
        <time>2022-05-06T09:58:19.000Z</time>
      </trkpt>
      <trkpt lat="40.2133011259138584136962890625" lon="-0.9439657442271709442138671875">
        <ele>1162.4000244140625</ele>
        <time>2022-05-06T09:58:21.000Z</time>
      </trkpt>
      <trkpt lat="40.21326868794858455657958984375" lon="-0.94394135288894176483154296875">
        <ele>1162.199951171875</ele>
        <time>2022-05-06T09:58:22.000Z</time>
      </trkpt>
      <trkpt lat="40.21323666907846927642822265625" lon="-0.9439181350171566009521484375">
        <ele>1162</ele>
        <time>2022-05-06T09:58:23.000Z</time>
      </trkpt>
      <trkpt lat="40.2131723798811435699462890625" lon="-0.94387195073068141937255859375">
        <ele>1162</ele>
        <time>2022-05-06T09:58:25.000Z</time>
      </trkpt>
      <trkpt lat="40.21310247480869293212890625" lon="-0.94382199458777904510498046875">
        <ele>1162</ele>
        <time>2022-05-06T09:58:27.000Z</time>
      </trkpt>
      <trkpt lat="40.213028378784656524658203125" lon="-0.94376935623586177825927734375">
        <ele>1161.800048828125</ele>
        <time>2022-05-06T09:58:29.000Z</time>
      </trkpt>
      <trkpt lat="40.21299158222973346710205078125" lon="-0.9437411092221736907958984375">
        <ele>1161.5999755859375</ele>
        <time>2022-05-06T09:58:30.000Z</time>
      </trkpt>
      <trkpt lat="40.21295604296028614044189453125" lon="-0.94371152110397815704345703125">
        <ele>1161.5999755859375</ele>
        <time>2022-05-06T09:58:31.000Z</time>
      </trkpt>
      <trkpt lat="40.2128853835165500640869140625" lon="-0.94365519471466541290283203125">
        <ele>1161.5999755859375</ele>
        <time>2022-05-06T09:58:33.000Z</time>
      </trkpt>
      <trkpt lat="40.21281941793859004974365234375" lon="-0.94360716640949249267578125">
        <ele>1161.800048828125</ele>
        <time>2022-05-06T09:58:35.000Z</time>
      </trkpt>
      <trkpt lat="40.21275420673191547393798828125" lon="-0.9435573779046535491943359375">
        <ele>1161.800048828125</ele>
        <time>2022-05-06T09:58:37.000Z</time>
      </trkpt>
      <trkpt lat="40.2126879058778285980224609375" lon="-0.943505577743053436279296875">
        <ele>1162</ele>
        <time>2022-05-06T09:58:39.000Z</time>
      </trkpt>
      <trkpt lat="40.212617330253124237060546875" lon="-0.94346056692302227020263671875">
        <ele>1162.199951171875</ele>
        <time>2022-05-06T09:58:41.000Z</time>
      </trkpt>
      <trkpt lat="40.21254725754261016845703125" lon="-0.943420417606830596923828125">
        <ele>1162.4000244140625</ele>
        <time>2022-05-06T09:58:43.000Z</time>
      </trkpt>
      <trkpt lat="40.212477184832096099853515625" lon="-0.94338445924222469329833984375">
        <ele>1162.5999755859375</ele>
        <time>2022-05-06T09:58:45.000Z</time>
      </trkpt>
      <trkpt lat="40.21240468136966228485107421875" lon="-0.94334674067795276641845703125">
        <ele>1163</ele>
        <time>2022-05-06T09:58:47.000Z</time>
      </trkpt>
      <trkpt lat="40.21233360283076763153076171875" lon="-0.94330181367695331573486328125">
        <ele>1163.199951171875</ele>
        <time>2022-05-06T09:58:49.000Z</time>
      </trkpt>
      <trkpt lat="40.21225783042609691619873046875" lon="-0.94324951060116291046142578125">
        <ele>1163.5999755859375</ele>
        <time>2022-05-06T09:58:51.000Z</time>
      </trkpt>
      <trkpt lat="40.21218457259237766265869140625" lon="-0.94319201074540615081787109375">
        <ele>1163.800048828125</ele>
        <time>2022-05-06T09:58:53.000Z</time>
      </trkpt>
      <trkpt lat="40.21210729144513607025146484375" lon="-0.943132750689983367919921875">
        <ele>1164.199951171875</ele>
        <time>2022-05-06T09:58:55.000Z</time>
      </trkpt>
      <trkpt lat="40.2120300941169261932373046875" lon="-0.943069718778133392333984375">
        <ele>1164.4000244140625</ele>
        <time>2022-05-06T09:58:57.000Z</time>
      </trkpt>
      <trkpt lat="40.21195457316935062408447265625" lon="-0.9430081956088542938232421875">
        <ele>1164.199951171875</ele>
        <time>2022-05-06T09:58:59.000Z</time>
      </trkpt>
      <trkpt lat="40.21187460981309413909912109375" lon="-0.94294725917279720306396484375">
        <ele>1164.199951171875</ele>
        <time>2022-05-06T09:59:01.000Z</time>
      </trkpt>
      <trkpt lat="40.2117927186191082000732421875" lon="-0.9428844787180423736572265625">
        <ele>1164.199951171875</ele>
        <time>2022-05-06T09:59:03.000Z</time>
      </trkpt>
      <trkpt lat="40.211714766919612884521484375" lon="-0.94281817786395549774169921875">
        <ele>1164.199951171875</ele>
        <time>2022-05-06T09:59:05.000Z</time>
      </trkpt>
      <trkpt lat="40.21163270808756351470947265625" lon="-0.9427533857524394989013671875">
        <ele>1164.199951171875</ele>
        <time>2022-05-06T09:59:07.000Z</time>
      </trkpt>
      <trkpt lat="40.21159180440008640289306640625" lon="-0.94271935522556304931640625">
        <ele>1164.199951171875</ele>
        <time>2022-05-06T09:59:08.000Z</time>
      </trkpt>
      <trkpt lat="40.21155006252229213714599609375" lon="-0.9426851570606231689453125">
        <ele>1164.199951171875</ele>
        <time>2022-05-06T09:59:09.000Z</time>
      </trkpt>
      <trkpt lat="40.2115087397396564483642578125" lon="-0.94265338964760303497314453125">
        <ele>1164.199951171875</ele>
        <time>2022-05-06T09:59:10.000Z</time>
      </trkpt>
      <trkpt lat="40.21146758459508419036865234375" lon="-0.94262355007231235504150390625">
        <ele>1164.199951171875</ele>
        <time>2022-05-06T09:59:11.000Z</time>
      </trkpt>
      <trkpt lat="40.21138829179108142852783203125" lon="-0.94256957061588764190673828125">
        <ele>1164.199951171875</ele>
        <time>2022-05-06T09:59:13.000Z</time>
      </trkpt>
      <trkpt lat="40.2113167941570281982421875" lon="-0.942516513168811798095703125">
        <ele>1164.199951171875</ele>
        <time>2022-05-06T09:59:15.000Z</time>
      </trkpt>
      <trkpt lat="40.2112805843353271484375" lon="-0.94249178655445575714111328125">
        <ele>1164.199951171875</ele>
        <time>2022-05-06T09:59:16.000Z</time>
      </trkpt>
      <trkpt lat="40.211246050894260406494140625" lon="-0.94246680848300457000732421875">
        <ele>1164.4000244140625</ele>
        <time>2022-05-06T09:59:17.000Z</time>
      </trkpt>
      <trkpt lat="40.21117857657372951507568359375" lon="-0.9424147568643093109130859375">
        <ele>1164.4000244140625</ele>
        <time>2022-05-06T09:59:19.000Z</time>
      </trkpt>
      <trkpt lat="40.21111101843416690826416015625" lon="-0.94236723147332668304443359375">
        <ele>1164.5999755859375</ele>
        <time>2022-05-06T09:59:21.000Z</time>
      </trkpt>
      <trkpt lat="40.21104597486555576324462890625" lon="-0.94231828115880489349365234375">
        <ele>1164.4000244140625</ele>
        <time>2022-05-06T09:59:23.000Z</time>
      </trkpt>
      <trkpt lat="40.210978500545024871826171875" lon="-0.942268073558807373046875">
        <ele>1164.4000244140625</ele>
        <time>2022-05-06T09:59:25.000Z</time>
      </trkpt>
      <trkpt lat="40.21090884692966938018798828125" lon="-0.94221417792141437530517578125">
        <ele>1164.199951171875</ele>
        <time>2022-05-06T09:59:27.000Z</time>
      </trkpt>
      <trkpt lat="40.2108393609523773193359375" lon="-0.94215818680822849273681640625">
        <ele>1164</ele>
        <time>2022-05-06T09:59:29.000Z</time>
      </trkpt>
      <trkpt lat="40.21076702512800693511962890625" lon="-0.942099429666996002197265625">
        <ele>1163.5999755859375</ele>
        <time>2022-05-06T09:59:31.000Z</time>
      </trkpt>
      <trkpt lat="40.210692174732685089111328125" lon="-0.9420409239828586578369140625">
        <ele>1163.4000244140625</ele>
        <time>2022-05-06T09:59:33.000Z</time>
      </trkpt>
      <trkpt lat="40.210653953254222869873046875" lon="-0.9420114196836948394775390625">
        <ele>1163.4000244140625</ele>
        <time>2022-05-06T09:59:34.000Z</time>
      </trkpt>
      <trkpt lat="40.21061514504253864288330078125" lon="-0.9419822506606578826904296875">
        <ele>1163.4000244140625</ele>
        <time>2022-05-06T09:59:35.000Z</time>
      </trkpt>
      <trkpt lat="40.2105384506285190582275390625" lon="-0.94192500226199626922607421875">
        <ele>1163.5999755859375</ele>
        <time>2022-05-06T09:59:37.000Z</time>
      </trkpt>
      <trkpt lat="40.21046343259513378143310546875" lon="-0.9418679215013980865478515625">
        <ele>1163.800048828125</ele>
        <time>2022-05-06T09:59:39.000Z</time>
      </trkpt>
      <trkpt lat="40.21039453335106372833251953125" lon="-0.94180933199822902679443359375">
        <ele>1163.5999755859375</ele>
        <time>2022-05-06T09:59:41.000Z</time>
      </trkpt>
      <trkpt lat="40.2103232033550739288330078125" lon="-0.9417442046105861663818359375">
        <ele>1163.5999755859375</ele>
        <time>2022-05-06T09:59:43.000Z</time>
      </trkpt>
      <trkpt lat="40.210287161171436309814453125" lon="-0.94171092845499515533447265625">
        <ele>1163.5999755859375</ele>
        <time>2022-05-06T09:59:44.000Z</time>
      </trkpt>
      <trkpt lat="40.21025220863521099090576171875" lon="-0.941679663956165313720703125">
        <ele>1163.5999755859375</ele>
        <time>2022-05-06T09:59:45.000Z</time>
      </trkpt>
      <trkpt lat="40.21018314175307750701904296875" lon="-0.94161168672144412994384765625">
        <ele>1163.5999755859375</ele>
        <time>2022-05-06T09:59:47.000Z</time>
      </trkpt>
      <trkpt lat="40.21011524833738803863525390625" lon="-0.94153624959290027618408203125">
        <ele>1163.4000244140625</ele>
        <time>2022-05-06T09:59:49.000Z</time>
      </trkpt>
      <trkpt lat="40.210053138434886932373046875" lon="-0.941462405025959014892578125">
        <ele>1163.199951171875</ele>
        <time>2022-05-06T09:59:51.000Z</time>
      </trkpt>
      <trkpt lat="40.20999287255108356475830078125" lon="-0.94138822518289089202880859375">
        <ele>1163.199951171875</ele>
        <time>2022-05-06T09:59:53.000Z</time>
      </trkpt>
      <trkpt lat="40.20993939600884914398193359375" lon="-0.94130625016987323760986328125">
        <ele>1163</ele>
        <time>2022-05-06T09:59:55.000Z</time>
      </trkpt>
      <trkpt lat="40.20988172851502895355224609375" lon="-0.9412225149571895599365234375">
        <ele>1163</ele>
        <time>2022-05-06T09:59:57.000Z</time>
      </trkpt>
      <trkpt lat="40.20982389338314533233642578125" lon="-0.9411336667835712432861328125">
        <ele>1163.199951171875</ele>
        <time>2022-05-06T09:59:59.000Z</time>
      </trkpt>
      <trkpt lat="40.20976605825126171112060546875" lon="-0.94104238785803318023681640625">
        <ele>1163.199951171875</ele>
        <time>2022-05-06T10:00:01.000Z</time>
      </trkpt>
      <trkpt lat="40.20970772020518779754638671875" lon="-0.94094783999025821685791015625">
        <ele>1163.4000244140625</ele>
        <time>2022-05-06T10:00:03.000Z</time>
      </trkpt>
      <trkpt lat="40.2096498012542724609375" lon="-0.94085312448441982269287109375">
        <ele>1163.4000244140625</ele>
        <time>2022-05-06T10:00:05.000Z</time>
      </trkpt>
      <trkpt lat="40.20959146320819854736328125" lon="-0.9407620131969451904296875">
        <ele>1163.5999755859375</ele>
        <time>2022-05-06T10:00:07.000Z</time>
      </trkpt>
      <trkpt lat="40.2095342986285686492919921875" lon="-0.94066570512950420379638671875">
        <ele>1163.5999755859375</ele>
        <time>2022-05-06T10:00:09.000Z</time>
      </trkpt>
      <trkpt lat="40.20947570912539958953857421875" lon="-0.9405650384724140167236328125">
        <ele>1163.4000244140625</ele>
        <time>2022-05-06T10:00:11.000Z</time>
      </trkpt>
      <trkpt lat="40.209414102137088775634765625" lon="-0.94046554528176784515380859375">
        <ele>1163.4000244140625</ele>
        <time>2022-05-06T10:00:13.000Z</time>
      </trkpt>
      <trkpt lat="40.2093522436916828155517578125" lon="-0.940361358225345611572265625">
        <ele>1163.199951171875</ele>
        <time>2022-05-06T10:00:15.000Z</time>
      </trkpt>
      <trkpt lat="40.2092890441417694091796875" lon="-0.940251387655735015869140625">
        <ele>1163</ele>
        <time>2022-05-06T10:00:17.000Z</time>
      </trkpt>
      <trkpt lat="40.2092291973531246185302734375" lon="-0.94014585949480533599853515625">
        <ele>1162.800048828125</ele>
        <time>2022-05-06T10:00:19.000Z</time>
      </trkpt>
      <trkpt lat="40.2091688476502895355224609375" lon="-0.9400383196771144866943359375">
        <ele>1162.5999755859375</ele>
        <time>2022-05-06T10:00:21.000Z</time>
      </trkpt>
      <trkpt lat="40.209136493504047393798828125" lon="-0.939983166754245758056640625">
        <ele>1162.4000244140625</ele>
        <time>2022-05-06T10:00:22.000Z</time>
      </trkpt>
      <trkpt lat="40.2091041393578052520751953125" lon="-0.93992625363171100616455078125">
        <ele>1162.199951171875</ele>
        <time>2022-05-06T10:00:23.000Z</time>
      </trkpt>
      <trkpt lat="40.209035575389862060546875" lon="-0.93980940990149974822998046875">
        <ele>1161.800048828125</ele>
        <time>2022-05-06T10:00:25.000Z</time>
      </trkpt>
      <trkpt lat="40.20896977744996547698974609375" lon="-0.939690805971622467041015625">
        <ele>1161.4000244140625</ele>
        <time>2022-05-06T10:00:27.000Z</time>
      </trkpt>
      <trkpt lat="40.208901800215244293212890625" lon="-0.9395709447562694549560546875">
        <ele>1161.199951171875</ele>
        <time>2022-05-06T10:00:29.000Z</time>
      </trkpt>
      <trkpt lat="40.208831392228603363037109375" lon="-0.93945083208382129669189453125">
        <ele>1161.199951171875</ele>
        <time>2022-05-06T10:00:31.000Z</time>
      </trkpt>
      <trkpt lat="40.20876207388937473297119140625" lon="-0.93932828865945339202880859375">
        <ele>1161.199951171875</ele>
        <time>2022-05-06T10:00:33.000Z</time>
      </trkpt>
      <trkpt lat="40.2086935937404632568359375" lon="-0.939199961721897125244140625">
        <ele>1161.199951171875</ele>
        <time>2022-05-06T10:00:35.000Z</time>
      </trkpt>
      <trkpt lat="40.208627544343471527099609375" lon="-0.93907498754560947418212890625">
        <ele>1161.199951171875</ele>
        <time>2022-05-06T10:00:37.000Z</time>
      </trkpt>
      <trkpt lat="40.208558142185211181640625" lon="-0.938955210149288177490234375">
        <ele>1161</ele>
        <time>2022-05-06T10:00:39.000Z</time>
      </trkpt>
      <trkpt lat="40.208491422235965728759765625" lon="-0.9388388693332672119140625">
        <ele>1160.800048828125</ele>
        <time>2022-05-06T10:00:41.000Z</time>
      </trkpt>
      <trkpt lat="40.20841875113546848297119140625" lon="-0.9387235343456268310546875">
        <ele>1160.4000244140625</ele>
        <time>2022-05-06T10:00:43.000Z</time>
      </trkpt>
      <trkpt lat="40.2083826251327991485595703125" lon="-0.93866611830890178680419921875">
        <ele>1160.199951171875</ele>
        <time>2022-05-06T10:00:44.000Z</time>
      </trkpt>
      <trkpt lat="40.2083475887775421142578125" lon="-0.93860526569187641143798828125">
        <ele>1160.199951171875</ele>
        <time>2022-05-06T10:00:45.000Z</time>
      </trkpt>
      <trkpt lat="40.20827877335250377655029296875" lon="-0.9384833090007305145263671875">
        <ele>1160</ele>
        <time>2022-05-06T10:00:47.000Z</time>
      </trkpt>
      <trkpt lat="40.20820635370910167694091796875" lon="-0.93836185522377490997314453125">
        <ele>1160.199951171875</ele>
        <time>2022-05-06T10:00:49.000Z</time>
      </trkpt>
      <trkpt lat="40.20813896320760250091552734375" lon="-0.93824274837970733642578125">
        <ele>1160.199951171875</ele>
        <time>2022-05-06T10:00:51.000Z</time>
      </trkpt>
      <trkpt lat="40.20810476504266262054443359375" lon="-0.93818399123847484588623046875">
        <ele>1160.4000244140625</ele>
        <time>2022-05-06T10:00:52.000Z</time>
      </trkpt>
      <trkpt lat="40.2080714888870716094970703125" lon="-0.9381259046494960784912109375">
        <ele>1160.4000244140625</ele>
        <time>2022-05-06T10:00:53.000Z</time>
      </trkpt>
      <trkpt lat="40.20800636149942874908447265625" lon="-0.938006378710269927978515625">
        <ele>1160.4000244140625</ele>
        <time>2022-05-06T10:00:55.000Z</time>
      </trkpt>
      <trkpt lat="40.20797484554350376129150390625" lon="-0.93794443644583225250244140625">
        <ele>1160.4000244140625</ele>
        <time>2022-05-06T10:00:56.000Z</time>
      </trkpt>
      <trkpt lat="40.20794332958757877349853515625" lon="-0.9378801472485065460205078125">
        <ele>1160.4000244140625</ele>
        <time>2022-05-06T10:00:57.000Z</time>
      </trkpt>
      <trkpt lat="40.207889266312122344970703125" lon="-0.93774829991161823272705078125">
        <ele>1160.199951171875</ele>
        <time>2022-05-06T10:00:59.000Z</time>
      </trkpt>
      <trkpt lat="40.2078357897698879241943359375" lon="-0.937610082328319549560546875">
        <ele>1160.199951171875</ele>
        <time>2022-05-06T10:01:01.000Z</time>
      </trkpt>
      <trkpt lat="40.2077814750373363494873046875" lon="-0.9374697692692279815673828125">
        <ele>1160</ele>
        <time>2022-05-06T10:01:03.000Z</time>
      </trkpt>
      <trkpt lat="40.20772892050445079803466796875" lon="-0.93734018504619598388671875">
        <ele>1159.800048828125</ele>
        <time>2022-05-06T10:01:05.000Z</time>
      </trkpt>
      <trkpt lat="40.20767695270478725433349609375" lon="-0.93720900826156139373779296875">
        <ele>1159.4000244140625</ele>
        <time>2022-05-06T10:01:07.000Z</time>
      </trkpt>
      <trkpt lat="40.207652561366558074951171875" lon="-0.937145054340362548828125">
        <ele>1159.199951171875</ele>
        <time>2022-05-06T10:01:08.000Z</time>
      </trkpt>
      <trkpt lat="40.20762766711413860321044921875" lon="-0.93708001077175140380859375">
        <ele>1159</ele>
        <time>2022-05-06T10:01:09.000Z</time>
      </trkpt>
      <trkpt lat="40.20758139900863170623779296875" lon="-0.9369504265487194061279296875">
        <ele>1158.4000244140625</ele>
        <time>2022-05-06T10:01:11.000Z</time>
      </trkpt>
      <trkpt lat="40.20754133351147174835205078125" lon="-0.93681924976408481597900390625">
        <ele>1158</ele>
        <time>2022-05-06T10:01:13.000Z</time>
      </trkpt>
      <trkpt lat="40.2075259946286678314208984375" lon="-0.9367509372532367706298828125">
        <ele>1157.800048828125</ele>
        <time>2022-05-06T10:01:14.000Z</time>
      </trkpt>
      <trkpt lat="40.20751199685037136077880859375" lon="-0.9366835467517375946044921875">
        <ele>1157.4000244140625</ele>
        <time>2022-05-06T10:01:15.000Z</time>
      </trkpt>
      <trkpt lat="40.2074817381799221038818359375" lon="-0.93655136413872241973876953125">
        <ele>1157</ele>
        <time>2022-05-06T10:01:17.000Z</time>
      </trkpt>
      <trkpt lat="40.20745432935655117034912109375" lon="-0.9364166669547557830810546875">
        <ele>1156.5999755859375</ele>
        <time>2022-05-06T10:01:19.000Z</time>
      </trkpt>
      <trkpt lat="40.207440666854381561279296875" lon="-0.936349444091320037841796875">
        <ele>1156.4000244140625</ele>
        <time>2022-05-06T10:01:20.000Z</time>
      </trkpt>
      <trkpt lat="40.20742616616189479827880859375" lon="-0.93628213740885257720947265625">
        <ele>1156</ele>
        <time>2022-05-06T10:01:21.000Z</time>
      </trkpt>
      <trkpt lat="40.20739615894854068756103515625" lon="-0.93614869751036167144775390625">
        <ele>1155.4000244140625</ele>
        <time>2022-05-06T10:01:23.000Z</time>
      </trkpt>
      <trkpt lat="40.2073657326400279998779296875" lon="-0.9360171854496002197265625">
        <ele>1155.199951171875</ele>
        <time>2022-05-06T10:01:25.000Z</time>
      </trkpt>
      <trkpt lat="40.20733966492116451263427734375" lon="-0.93588433228433132171630859375">
        <ele>1155</ele>
        <time>2022-05-06T10:01:27.000Z</time>
      </trkpt>
      <trkpt lat="40.207313932478427886962890625" lon="-0.93575592152774333953857421875">
        <ele>1154.800048828125</ele>
        <time>2022-05-06T10:01:29.000Z</time>
      </trkpt>
      <trkpt lat="40.20728702656924724578857421875" lon="-0.9356264211237430572509765625">
        <ele>1154.5999755859375</ele>
        <time>2022-05-06T10:01:31.000Z</time>
      </trkpt>
      <trkpt lat="40.20726104266941547393798828125" lon="-0.9354980103671550750732421875">
        <ele>1155</ele>
        <time>2022-05-06T10:01:33.000Z</time>
      </trkpt>
      <trkpt lat="40.20723572932183742523193359375" lon="-0.93537052161991596221923828125">
        <ele>1155.199951171875</ele>
        <time>2022-05-06T10:01:35.000Z</time>
      </trkpt>
      <trkpt lat="40.20720563828945159912109375" lon="-0.93524160794913768768310546875">
        <ele>1154.800048828125</ele>
        <time>2022-05-06T10:01:37.000Z</time>
      </trkpt>
      <trkpt lat="40.20718979649245738983154296875" lon="-0.935175977647304534912109375">
        <ele>1154.4000244140625</ele>
        <time>2022-05-06T10:01:38.000Z</time>
      </trkpt>
      <trkpt lat="40.2071749605238437652587890625" lon="-0.93511068262159824371337890625">
        <ele>1154.199951171875</ele>
        <time>2022-05-06T10:01:39.000Z</time>
      </trkpt>
      <trkpt lat="40.2071464620530605316162109375" lon="-0.934981517493724822998046875">
        <ele>1153.800048828125</ele>
        <time>2022-05-06T10:01:41.000Z</time>
      </trkpt>
      <trkpt lat="40.20712156780064105987548828125" lon="-0.93485117889940738677978515625">
        <ele>1153.4000244140625</ele>
        <time>2022-05-06T10:01:43.000Z</time>
      </trkpt>
      <trkpt lat="40.2070924825966358184814453125" lon="-0.9347205050289630889892578125">
        <ele>1153.199951171875</ele>
        <time>2022-05-06T10:01:45.000Z</time>
      </trkpt>
      <trkpt lat="40.207078568637371063232421875" lon="-0.93465386889874935150146484375">
        <ele>1153.4000244140625</ele>
        <time>2022-05-06T10:01:46.000Z</time>
      </trkpt>
      <trkpt lat="40.2070666663348674774169921875" lon="-0.93458823859691619873046875">
        <ele>1153.5999755859375</ele>
        <time>2022-05-06T10:01:47.000Z</time>
      </trkpt>
      <trkpt lat="40.207037664949893951416015625" lon="-0.934457816183567047119140625">
        <ele>1154.199951171875</ele>
        <time>2022-05-06T10:01:49.000Z</time>
      </trkpt>
      <trkpt lat="40.20700824446976184844970703125" lon="-0.93432730995118618011474609375">
        <ele>1154.5999755859375</ele>
        <time>2022-05-06T10:01:51.000Z</time>
      </trkpt>
      <trkpt lat="40.20697991363704204559326171875" lon="-0.934196971356868743896484375">
        <ele>1155.199951171875</ele>
        <time>2022-05-06T10:01:53.000Z</time>
      </trkpt>
      <trkpt lat="40.206948481500148773193359375" lon="-0.93406696803867816925048828125">
        <ele>1155.5999755859375</ele>
        <time>2022-05-06T10:01:55.000Z</time>
      </trkpt>
      <trkpt lat="40.2069235034286975860595703125" lon="-0.9339304268360137939453125">
        <ele>1156.199951171875</ele>
        <time>2022-05-06T10:01:57.000Z</time>
      </trkpt>
      <trkpt lat="40.20690179429948329925537109375" lon="-0.93379438854753971099853515625">
        <ele>1157</ele>
        <time>2022-05-06T10:01:59.000Z</time>
      </trkpt>
      <trkpt lat="40.2068732120096683502197265625" lon="-0.93366555869579315185546875">
        <ele>1158</ele>
        <time>2022-05-06T10:02:01.000Z</time>
      </trkpt>
      <trkpt lat="40.20685804076492786407470703125" lon="-0.93360177241265773773193359375">
        <ele>1158.4000244140625</ele>
        <time>2022-05-06T10:02:02.000Z</time>
      </trkpt>
      <trkpt lat="40.20684580318629741668701171875" lon="-0.93353974632918834686279296875">
        <ele>1158.800048828125</ele>
        <time>2022-05-06T10:02:03.000Z</time>
      </trkpt>
      <trkpt lat="40.2068242616951465606689453125" lon="-0.9334229864180088043212890625">
        <ele>1159.5999755859375</ele>
        <time>2022-05-06T10:02:05.000Z</time>
      </trkpt>
      <trkpt lat="40.2067977748811244964599609375" lon="-0.93330874107778072357177734375">
        <ele>1160</ele>
        <time>2022-05-06T10:02:07.000Z</time>
      </trkpt>
      <trkpt lat="40.20677086897194385528564453125" lon="-0.93319323845207691192626953125">
        <ele>1160.199951171875</ele>
        <time>2022-05-06T10:02:09.000Z</time>
      </trkpt>
      <trkpt lat="40.206753350794315338134765625" lon="-0.933135487139225006103515625">
        <ele>1160.4000244140625</ele>
        <time>2022-05-06T10:02:10.000Z</time>
      </trkpt>
      <trkpt lat="40.2067275345325469970703125" lon="-0.933078825473785400390625">
        <ele>1160.4000244140625</ele>
        <time>2022-05-06T10:02:11.000Z</time>
      </trkpt>
      <trkpt lat="40.206664502620697021484375" lon="-0.9329737164080142974853515625">
        <ele>1160.800048828125</ele>
        <time>2022-05-06T10:02:13.000Z</time>
      </trkpt>
      <trkpt lat="40.2066308073699474334716796875" lon="-0.93292769975960254669189453125">
        <ele>1161.199951171875</ele>
        <time>2022-05-06T10:02:14.000Z</time>
      </trkpt>
      <trkpt lat="40.20659652538597583770751953125" lon="-0.932890065014362335205078125">
        <ele>1161.199951171875</ele>
        <time>2022-05-06T10:02:15.000Z</time>
      </trkpt>
      <trkpt lat="40.206562578678131103515625" lon="-0.932858549058437347412109375">
        <ele>1161.4000244140625</ele>
        <time>2022-05-06T10:02:16.000Z</time>
      </trkpt>
      <trkpt lat="40.2065288834273815155029296875" lon="-0.932830385863780975341796875">
        <ele>1161.5999755859375</ele>
        <time>2022-05-06T10:02:17.000Z</time>
      </trkpt>
      <trkpt lat="40.2064926736056804656982421875" lon="-0.932806916534900665283203125">
        <ele>1161.5999755859375</ele>
        <time>2022-05-06T10:02:18.000Z</time>
      </trkpt>
      <trkpt lat="40.20645369775593280792236328125" lon="-0.9327899850904941558837890625">
        <ele>1161.5999755859375</ele>
        <time>2022-05-06T10:02:19.000Z</time>
      </trkpt>
      <trkpt lat="40.2064152248203754425048828125" lon="-0.93277900479733943939208984375">
        <ele>1161.800048828125</ele>
        <time>2022-05-06T10:02:20.000Z</time>
      </trkpt>
      <trkpt lat="40.20637859590351581573486328125" lon="-0.93277045525610446929931640625">
        <ele>1161.800048828125</ele>
        <time>2022-05-06T10:02:21.000Z</time>
      </trkpt>
      <trkpt lat="40.20630902610719203948974609375" lon="-0.932749919593334197998046875">
        <ele>1161.800048828125</ele>
        <time>2022-05-06T10:02:23.000Z</time>
      </trkpt>
      <trkpt lat="40.20624850876629352569580078125" lon="-0.93271337449550628662109375">
        <ele>1162</ele>
        <time>2022-05-06T10:02:25.000Z</time>
      </trkpt>
      <trkpt lat="40.2061964571475982666015625" lon="-0.93267272226512432098388671875">
        <ele>1162.4000244140625</ele>
        <time>2022-05-06T10:02:27.000Z</time>
      </trkpt>
      <trkpt lat="40.2061704732477664947509765625" lon="-0.93265612609684467315673828125">
        <ele>1162.5999755859375</ele>
        <time>2022-05-06T10:02:28.000Z</time>
      </trkpt>
      <trkpt lat="40.20614339970052242279052734375" lon="-0.9326444752514362335205078125">
        <ele>1162.800048828125</ele>
        <time>2022-05-06T10:02:29.000Z</time>
      </trkpt>
      <trkpt lat="40.206086821854114532470703125" lon="-0.93262595124542713165283203125">
        <ele>1163</ele>
        <time>2022-05-06T10:02:31.000Z</time>
      </trkpt>
      <trkpt lat="40.20605807192623615264892578125" lon="-0.9326136298477649688720703125">
        <ele>1163.199951171875</ele>
        <time>2022-05-06T10:02:32.000Z</time>
      </trkpt>
      <trkpt lat="40.20602948963642120361328125" lon="-0.9325951896607875823974609375">
        <ele>1163.4000244140625</ele>
        <time>2022-05-06T10:02:33.000Z</time>
      </trkpt>
      <trkpt lat="40.2059709839522838592529296875" lon="-0.932542048394680023193359375">
        <ele>1163.800048828125</ele>
        <time>2022-05-06T10:02:35.000Z</time>
      </trkpt>
      <trkpt lat="40.205911137163639068603515625" lon="-0.93246929347515106201171875">
        <ele>1163.5999755859375</ele>
        <time>2022-05-06T10:02:37.000Z</time>
      </trkpt>
      <trkpt lat="40.2058563195168972015380859375" lon="-0.93238882720470428466796875">
        <ele>1163.4000244140625</ele>
        <time>2022-05-06T10:02:39.000Z</time>
      </trkpt>
      <trkpt lat="40.20580242387950420379638671875" lon="-0.93230693601071834564208984375">
        <ele>1163.199951171875</ele>
        <time>2022-05-06T10:02:41.000Z</time>
      </trkpt>
      <trkpt lat="40.20574919879436492919921875" lon="-0.932218171656131744384765625">
        <ele>1163</ele>
        <time>2022-05-06T10:02:43.000Z</time>
      </trkpt>
      <trkpt lat="40.20569262094795703887939453125" lon="-0.93213535845279693603515625">
        <ele>1163</ele>
        <time>2022-05-06T10:02:45.000Z</time>
      </trkpt>
      <trkpt lat="40.2056196145713329315185546875" lon="-0.932060591876506805419921875">
        <ele>1163</ele>
        <time>2022-05-06T10:02:47.000Z</time>
      </trkpt>
      <trkpt lat="40.205543339252471923828125" lon="-0.93197769485414028167724609375">
        <ele>1162.4000244140625</ele>
        <time>2022-05-06T10:02:49.000Z</time>
      </trkpt>
      <trkpt lat="40.205470584332942962646484375" lon="-0.9318946301937103271484375">
        <ele>1161.800048828125</ele>
        <time>2022-05-06T10:02:51.000Z</time>
      </trkpt>
      <trkpt lat="40.20543403923511505126953125" lon="-0.93185263685882091522216796875">
        <ele>1161.5999755859375</ele>
        <time>2022-05-06T10:02:52.000Z</time>
      </trkpt>
      <trkpt lat="40.2053969912230968475341796875" lon="-0.93180888332426548004150390625">
        <ele>1161.800048828125</ele>
        <time>2022-05-06T10:02:53.000Z</time>
      </trkpt>
      <trkpt lat="40.20531392656266689300537109375" lon="-0.93171156942844390869140625">
        <ele>1161.800048828125</ele>
        <time>2022-05-06T10:02:55.000Z</time>
      </trkpt>
      <trkpt lat="40.20526614971458911895751953125" lon="-0.9316607750952243804931640625">
        <ele>1161.800048828125</ele>
        <time>2022-05-06T10:02:56.000Z</time>
      </trkpt>
      <trkpt lat="40.205217115581035614013671875" lon="-0.9316088072955608367919921875">
        <ele>1161.800048828125</ele>
        <time>2022-05-06T10:02:57.000Z</time>
      </trkpt>
      <trkpt lat="40.2051150240004062652587890625" lon="-0.931507386267185211181640625">
        <ele>1161.199951171875</ele>
        <time>2022-05-06T10:02:59.000Z</time>
      </trkpt>
      <trkpt lat="40.20501351915299892425537109375" lon="-0.93141007237136363983154296875">
        <ele>1160.5999755859375</ele>
        <time>2022-05-06T10:03:01.000Z</time>
      </trkpt>
      <trkpt lat="40.20491578616201877593994140625" lon="-0.9313318692147731781005859375">
        <ele>1160.4000244140625</ele>
        <time>2022-05-06T10:03:03.000Z</time>
      </trkpt>
      <trkpt lat="40.20486884750425815582275390625" lon="-0.93129959888756275177001953125">
        <ele>1160.4000244140625</ele>
        <time>2022-05-06T10:03:04.000Z</time>
      </trkpt>
      <trkpt lat="40.204825513064861297607421875" lon="-0.93126975931227207183837890625">
        <ele>1160.199951171875</ele>
        <time>2022-05-06T10:03:05.000Z</time>
      </trkpt>
      <trkpt lat="40.2047408558428287506103515625" lon="-0.93121401965618133544921875">
        <ele>1160.199951171875</ele>
        <time>2022-05-06T10:03:07.000Z</time>
      </trkpt>
      <trkpt lat="40.20465091802179813385009765625" lon="-0.93115576542913913726806640625">
        <ele>1160</ele>
        <time>2022-05-06T10:03:09.000Z</time>
      </trkpt>
      <trkpt lat="40.20459987223148345947265625" lon="-0.93112424947321414947509765625">
        <ele>1160</ele>
        <time>2022-05-06T10:03:10.000Z</time>
      </trkpt>
      <trkpt lat="40.2045427076518535614013671875" lon="-0.93109122477471828460693359375">
        <ele>1159.800048828125</ele>
        <time>2022-05-06T10:03:11.000Z</time>
      </trkpt>
      <trkpt lat="40.20441840402781963348388671875" lon="-0.93102852813899517059326171875">
        <ele>1159.5999755859375</ele>
        <time>2022-05-06T10:03:13.000Z</time>
      </trkpt>
      <trkpt lat="40.20429736934602260589599609375" lon="-0.9309627301990985870361328125">
        <ele>1159.4000244140625</ele>
        <time>2022-05-06T10:03:15.000Z</time>
      </trkpt>
      <trkpt lat="40.2041893266141414642333984375" lon="-0.9308792464435100555419921875">
        <ele>1159</ele>
        <time>2022-05-06T10:03:17.000Z</time>
      </trkpt>
      <trkpt lat="40.20408782176673412322998046875" lon="-0.9307739697396755218505859375">
        <ele>1158.4000244140625</ele>
        <time>2022-05-06T10:03:19.000Z</time>
      </trkpt>
      <trkpt lat="40.203987322747707366943359375" lon="-0.93064983375370502471923828125">
        <ele>1157.5999755859375</ele>
        <time>2022-05-06T10:03:21.000Z</time>
      </trkpt>
      <trkpt lat="40.20393711514770984649658203125" lon="-0.930582024157047271728515625">
        <ele>1157.199951171875</ele>
        <time>2022-05-06T10:03:22.000Z</time>
      </trkpt>
      <trkpt lat="40.20388682372868061065673828125" lon="-0.9305094368755817413330078125">
        <ele>1157</ele>
        <time>2022-05-06T10:03:23.000Z</time>
      </trkpt>
      <trkpt lat="40.20379311405122280120849609375" lon="-0.93035965226590633392333984375">
        <ele>1156.800048828125</ele>
        <time>2022-05-06T10:03:25.000Z</time>
      </trkpt>
      <trkpt lat="40.20371264778077602386474609375" lon="-0.93022135086357593536376953125">
        <ele>1156.5999755859375</ele>
        <time>2022-05-06T10:03:27.000Z</time>
      </trkpt>
      <trkpt lat="40.203625895082950592041015625" lon="-0.930077768862247467041015625">
        <ele>1156.5999755859375</ele>
        <time>2022-05-06T10:03:29.000Z</time>
      </trkpt>
      <trkpt lat="40.20353193394839763641357421875" lon="-0.9299367852509021759033203125">
        <ele>1156.4000244140625</ele>
        <time>2022-05-06T10:03:31.000Z</time>
      </trkpt>
      <trkpt lat="40.203434117138385772705078125" lon="-0.9298009984195232391357421875">
        <ele>1156.199951171875</ele>
        <time>2022-05-06T10:03:33.000Z</time>
      </trkpt>
      <trkpt lat="40.20338357426226139068603515625" lon="-0.9297327697277069091796875">
        <ele>1156</ele>
        <time>2022-05-06T10:03:34.000Z</time>
      </trkpt>
      <trkpt lat="40.20333311520516872406005859375" lon="-0.929665379226207733154296875">
        <ele>1155.800048828125</ele>
        <time>2022-05-06T10:03:35.000Z</time>
      </trkpt>
      <trkpt lat="40.2032297663390636444091796875" lon="-0.92953185550868511199951171875">
        <ele>1155.5999755859375</ele>
        <time>2022-05-06T10:03:37.000Z</time>
      </trkpt>
      <trkpt lat="40.2031798101961612701416015625" lon="-0.92946731485426425933837890625">
        <ele>1155.199951171875</ele>
        <time>2022-05-06T10:03:38.000Z</time>
      </trkpt>
      <trkpt lat="40.2031288482248783111572265625" lon="-0.9294033609330654144287109375">
        <ele>1154.5999755859375</ele>
        <time>2022-05-06T10:03:39.000Z</time>
      </trkpt>
      <trkpt lat="40.20307880826294422149658203125" lon="-0.929341502487659454345703125">
        <ele>1154</ele>
        <time>2022-05-06T10:03:40.000Z</time>
      </trkpt>
      <trkpt lat="40.203027762472629547119140625" lon="-0.92928056605160236358642578125">
        <ele>1153.5999755859375</ele>
        <time>2022-05-06T10:03:41.000Z</time>
      </trkpt>
      <trkpt lat="40.20297738723456859588623046875" lon="-0.9292216412723064422607421875">
        <ele>1153</ele>
        <time>2022-05-06T10:03:42.000Z</time>
      </trkpt>
      <trkpt lat="40.20292759872972965240478515625" lon="-0.9291653148829936981201171875">
        <ele>1152.4000244140625</ele>
        <time>2022-05-06T10:03:43.000Z</time>
      </trkpt>
      <trkpt lat="40.2028260938823223114013671875" lon="-0.92905911616981029510498046875">
        <ele>1151.199951171875</ele>
        <time>2022-05-06T10:03:45.000Z</time>
      </trkpt>
      <trkpt lat="40.20271360874176025390625" lon="-0.928955934941768646240234375">
        <ele>1149.800048828125</ele>
        <time>2022-05-06T10:03:47.000Z</time>
      </trkpt>
      <trkpt lat="40.20265418104827404022216796875" lon="-0.92890975065529346466064453125">
        <ele>1149.199951171875</ele>
        <time>2022-05-06T10:03:48.000Z</time>
      </trkpt>
      <trkpt lat="40.202592574059963226318359375" lon="-0.928871445357799530029296875">
        <ele>1148.800048828125</ele>
        <time>2022-05-06T10:03:49.000Z</time>
      </trkpt>
      <trkpt lat="40.2024639956653118133544921875" lon="-0.92881319113075733184814453125">
        <ele>1147.800048828125</ele>
        <time>2022-05-06T10:03:51.000Z</time>
      </trkpt>
      <trkpt lat="40.20240104757249355316162109375" lon="-0.92879156582057476043701171875">
        <ele>1147.199951171875</ele>
        <time>2022-05-06T10:03:52.000Z</time>
      </trkpt>
      <trkpt lat="40.2023392729461193084716796875" lon="-0.92876792885363101959228515625">
        <ele>1146.800048828125</ele>
        <time>2022-05-06T10:03:53.000Z</time>
      </trkpt>
      <trkpt lat="40.20227950997650623321533203125" lon="-0.928743369877338409423828125">
        <ele>1146.4000244140625</ele>
        <time>2022-05-06T10:03:54.000Z</time>
      </trkpt>
      <trkpt lat="40.20221949554979801177978515625" lon="-0.9287214092910289764404296875">
        <ele>1145.4000244140625</ele>
        <time>2022-05-06T10:03:55.000Z</time>
      </trkpt>
      <trkpt lat="40.20209846086800098419189453125" lon="-0.92868209816515445709228515625">
        <ele>1143.5999755859375</ele>
        <time>2022-05-06T10:03:57.000Z</time>
      </trkpt>
      <trkpt lat="40.20198212005198001861572265625" lon="-0.92864253558218479156494140625">
        <ele>1141.4000244140625</ele>
        <time>2022-05-06T10:03:59.000Z</time>
      </trkpt>
      <trkpt lat="40.20186661742627620697021484375" lon="-0.92860951088368892669677734375">
        <ele>1139.199951171875</ele>
        <time>2022-05-06T10:04:01.000Z</time>
      </trkpt>
      <trkpt lat="40.20180844701826572418212890625" lon="-0.92859190888702869415283203125">
        <ele>1138.199951171875</ele>
        <time>2022-05-06T10:04:02.000Z</time>
      </trkpt>
      <trkpt lat="40.201750360429286956787109375" lon="-0.92857380397617816925048828125">
        <ele>1137.199951171875</ele>
        <time>2022-05-06T10:04:03.000Z</time>
      </trkpt>
      <trkpt lat="40.201637707650661468505859375" lon="-0.92853541485965251922607421875">
        <ele>1135.199951171875</ele>
        <time>2022-05-06T10:04:05.000Z</time>
      </trkpt>
      <trkpt lat="40.201528072357177734375" lon="-0.92849920503795146942138671875">
        <ele>1134.4000244140625</ele>
        <time>2022-05-06T10:04:07.000Z</time>
      </trkpt>
      <trkpt lat="40.20142170600593090057373046875" lon="-0.92846534214913845062255859375">
        <ele>1133.800048828125</ele>
        <time>2022-05-06T10:04:09.000Z</time>
      </trkpt>
      <trkpt lat="40.20137040875852108001708984375" lon="-0.928448997437953948974609375">
        <ele>1133.5999755859375</ele>
        <time>2022-05-06T10:04:10.000Z</time>
      </trkpt>
      <trkpt lat="40.20132078789174556732177734375" lon="-0.9284330718219280242919921875">
        <ele>1133.199951171875</ele>
        <time>2022-05-06T10:04:11.000Z</time>
      </trkpt>
      <trkpt lat="40.20122339017689228057861328125" lon="-0.9283998794853687286376953125">
        <ele>1134</ele>
        <time>2022-05-06T10:04:13.000Z</time>
      </trkpt>
      <trkpt lat="40.2011262439191341400146484375" lon="-0.92836760915815830230712890625">
        <ele>1135.5999755859375</ele>
        <time>2022-05-06T10:04:15.000Z</time>
      </trkpt>
      <trkpt lat="40.20102591253817081451416015625" lon="-0.928335674107074737548828125">
        <ele>1137.4000244140625</ele>
        <time>2022-05-06T10:04:17.000Z</time>
      </trkpt>
      <trkpt lat="40.2009768784046173095703125" lon="-0.9283170662820339202880859375">
        <ele>1138</ele>
        <time>2022-05-06T10:04:18.000Z</time>
      </trkpt>
      <trkpt lat="40.20092784427106380462646484375" lon="-0.9282989613711833953857421875">
        <ele>1138.5999755859375</ele>
        <time>2022-05-06T10:04:19.000Z</time>
      </trkpt>
      <trkpt lat="40.2008358947932720184326171875" lon="-0.9282602369785308837890625">
        <ele>1140</ele>
        <time>2022-05-06T10:04:21.000Z</time>
      </trkpt>
      <trkpt lat="40.200748555362224578857421875" lon="-0.92821438796818256378173828125">
        <ele>1141</ele>
        <time>2022-05-06T10:04:23.000Z</time>
      </trkpt>
      <trkpt lat="40.20070589147508144378662109375" lon="-0.92818982899188995361328125">
        <ele>1141.5999755859375</ele>
        <time>2022-05-06T10:04:24.000Z</time>
      </trkpt>
      <trkpt lat="40.20066440105438232421875" lon="-0.9281651861965656280517578125">
        <ele>1142.199951171875</ele>
        <time>2022-05-06T10:04:25.000Z</time>
      </trkpt>
      <trkpt lat="40.20062458701431751251220703125" lon="-0.928138531744480133056640625">
        <ele>1142.5999755859375</ele>
        <time>2022-05-06T10:04:26.000Z</time>
      </trkpt>
      <trkpt lat="40.20058653317391872406005859375" lon="-0.92811078764498233795166015625">
        <ele>1143.199951171875</ele>
        <time>2022-05-06T10:04:27.000Z</time>
      </trkpt>
      <trkpt lat="40.2005136944353580474853515625" lon="-0.9280558861792087554931640625">
        <ele>1144</ele>
        <time>2022-05-06T10:04:29.000Z</time>
      </trkpt>
      <trkpt lat="40.20048008300364017486572265625" lon="-0.92802395112812519073486328125">
        <ele>1144.199951171875</ele>
        <time>2022-05-06T10:04:30.000Z</time>
      </trkpt>
      <trkpt lat="40.200446136295795440673828125" lon="-0.9279898367822170257568359375">
        <ele>1144.5999755859375</ele>
        <time>2022-05-06T10:04:31.000Z</time>
      </trkpt>
      <trkpt lat="40.20037665031850337982177734375" lon="-0.927918590605258941650390625">
        <ele>1145</ele>
        <time>2022-05-06T10:04:33.000Z</time>
      </trkpt>
      <trkpt lat="40.20030498504638671875" lon="-0.92784583568572998046875">
        <ele>1145.4000244140625</ele>
        <time>2022-05-06T10:04:35.000Z</time>
      </trkpt>
      <trkpt lat="40.2002337388694286346435546875" lon="-0.92776997946202754974365234375">
        <ele>1145.800048828125</ele>
        <time>2022-05-06T10:04:37.000Z</time>
      </trkpt>
      <trkpt lat="40.20016743801534175872802734375" lon="-0.92768733389675617218017578125">
        <ele>1146</ele>
        <time>2022-05-06T10:04:39.000Z</time>
      </trkpt>
      <trkpt lat="40.20010675303637981414794921875" lon="-0.92759580351412296295166015625">
        <ele>1146.199951171875</ele>
        <time>2022-05-06T10:04:41.000Z</time>
      </trkpt>
      <trkpt lat="40.2000496722757816314697265625" lon="-0.927508212625980377197265625">
        <ele>1146.800048828125</ele>
        <time>2022-05-06T10:04:43.000Z</time>
      </trkpt>
      <trkpt lat="40.1999993808567523956298828125" lon="-0.92742665670812129974365234375">
        <ele>1147.199951171875</ele>
        <time>2022-05-06T10:04:45.000Z</time>
      </trkpt>
      <trkpt lat="40.199949257075786590576171875" lon="-0.92733160592615604400634765625">
        <ele>1147.5999755859375</ele>
        <time>2022-05-06T10:04:47.000Z</time>
      </trkpt>
      <trkpt lat="40.1998964510858058929443359375" lon="-0.92723102308809757232666015625">
        <ele>1148</ele>
        <time>2022-05-06T10:04:49.000Z</time>
      </trkpt>
      <trkpt lat="40.19985144026577472686767578125" lon="-0.9271214716136455535888671875">
        <ele>1148.4000244140625</ele>
        <time>2022-05-06T10:04:51.000Z</time>
      </trkpt>
      <trkpt lat="40.19980718381702899932861328125" lon="-0.9270051307976245880126953125">
        <ele>1148.800048828125</ele>
        <time>2022-05-06T10:04:53.000Z</time>
      </trkpt>
      <trkpt lat="40.199785642325878143310546875" lon="-0.92694939114153385162353515625">
        <ele>1149</ele>
        <time>2022-05-06T10:04:54.000Z</time>
      </trkpt>
      <trkpt lat="40.19976477138698101043701171875" lon="-0.92689474113285541534423828125">
        <ele>1149</ele>
        <time>2022-05-06T10:04:55.000Z</time>
      </trkpt>
      <trkpt lat="40.19972202368080615997314453125" lon="-0.92678896151483058929443359375">
        <ele>1149.199951171875</ele>
        <time>2022-05-06T10:04:57.000Z</time>
      </trkpt>
      <trkpt lat="40.19968262873589992523193359375" lon="-0.92668033204972743988037109375">
        <ele>1149.199951171875</ele>
        <time>2022-05-06T10:04:59.000Z</time>
      </trkpt>
      <trkpt lat="40.19964206032454967498779296875" lon="-0.926566086709499359130859375">
        <ele>1149.199951171875</ele>
        <time>2022-05-06T10:05:01.000Z</time>
      </trkpt>
      <trkpt lat="40.19960115663707256317138671875" lon="-0.92644362710416316986083984375">
        <ele>1149.199951171875</ele>
        <time>2022-05-06T10:05:03.000Z</time>
      </trkpt>
      <trkpt lat="40.199557654559612274169921875" lon="-0.926321335136890411376953125">
        <ele>1149</ele>
        <time>2022-05-06T10:05:05.000Z</time>
      </trkpt>
      <trkpt lat="40.19951440393924713134765625" lon="-0.92620004899799823760986328125">
        <ele>1148.800048828125</ele>
        <time>2022-05-06T10:05:07.000Z</time>
      </trkpt>
      <trkpt lat="40.19949252717196941375732421875" lon="-0.926139615476131439208984375">
        <ele>1148.5999755859375</ele>
        <time>2022-05-06T10:05:08.000Z</time>
      </trkpt>
      <trkpt lat="40.19946922548115253448486328125" lon="-0.92607901431620121002197265625">
        <ele>1148.5999755859375</ele>
        <time>2022-05-06T10:05:09.000Z</time>
      </trkpt>
      <trkpt lat="40.19944600760936737060546875" lon="-0.92601832933723926544189453125">
        <ele>1148.4000244140625</ele>
        <time>2022-05-06T10:05:10.000Z</time>
      </trkpt>
      <trkpt lat="40.1994213648140430450439453125" lon="-0.925957225263118743896484375">
        <ele>1148.4000244140625</ele>
        <time>2022-05-06T10:05:11.000Z</time>
      </trkpt>
      <trkpt lat="40.19937434233725070953369140625" lon="-0.92583761550486087799072265625">
        <ele>1148.199951171875</ele>
        <time>2022-05-06T10:05:13.000Z</time>
      </trkpt>
      <trkpt lat="40.19933343864977359771728515625" lon="-0.92571775428950786590576171875">
        <ele>1148</ele>
        <time>2022-05-06T10:05:15.000Z</time>
      </trkpt>
      <trkpt lat="40.19929756410419940948486328125" lon="-0.92559554614126682281494140625">
        <ele>1147.800048828125</ele>
        <time>2022-05-06T10:05:17.000Z</time>
      </trkpt>
      <trkpt lat="40.199256576597690582275390625" lon="-0.92547677457332611083984375">
        <ele>1147.5999755859375</ele>
        <time>2022-05-06T10:05:19.000Z</time>
      </trkpt>
      <trkpt lat="40.1992171816527843475341796875" lon="-0.92535741627216339111328125">
        <ele>1147.4000244140625</ele>
        <time>2022-05-06T10:05:21.000Z</time>
      </trkpt>
      <trkpt lat="40.19917535595595836639404296875" lon="-0.9252365492284297943115234375">
        <ele>1147.199951171875</ele>
        <time>2022-05-06T10:05:23.000Z</time>
      </trkpt>
      <trkpt lat="40.1991395652294158935546875" lon="-0.9251181967556476593017578125">
        <ele>1147.199951171875</ele>
        <time>2022-05-06T10:05:25.000Z</time>
      </trkpt>
      <trkpt lat="40.1991008408367633819580078125" lon="-0.92500202357769012451171875">
        <ele>1147.4000244140625</ele>
        <time>2022-05-06T10:05:27.000Z</time>
      </trkpt>
      <trkpt lat="40.1990604400634765625" lon="-0.924891047179698944091796875">
        <ele>1147.5999755859375</ele>
        <time>2022-05-06T10:05:29.000Z</time>
      </trkpt>
      <trkpt lat="40.199023224413394927978515625" lon="-0.92477629892528057098388671875">
        <ele>1147.800048828125</ele>
        <time>2022-05-06T10:05:31.000Z</time>
      </trkpt>
      <trkpt lat="40.1990027725696563720703125" lon="-0.9247175417840480804443359375">
        <ele>1148</ele>
        <time>2022-05-06T10:05:32.000Z</time>
      </trkpt>
      <trkpt lat="40.19898273982107639312744140625" lon="-0.92465677298605442047119140625">
        <ele>1147.800048828125</ele>
        <time>2022-05-06T10:05:33.000Z</time>
      </trkpt>
      <trkpt lat="40.19894502125680446624755859375" lon="-0.924525596201419830322265625">
        <ele>1147.5999755859375</ele>
        <time>2022-05-06T10:05:35.000Z</time>
      </trkpt>
      <trkpt lat="40.19890177063643932342529296875" lon="-0.92439441941678524017333984375">
        <ele>1147</ele>
        <time>2022-05-06T10:05:37.000Z</time>
      </trkpt>
      <trkpt lat="40.19887897185981273651123046875" lon="-0.9243292920291423797607421875">
        <ele>1146.800048828125</ele>
        <time>2022-05-06T10:05:38.000Z</time>
      </trkpt>
      <trkpt lat="40.19885365851223468780517578125" lon="-0.92426449991762638092041015625">
        <ele>1146.5999755859375</ele>
        <time>2022-05-06T10:05:39.000Z</time>
      </trkpt>
      <trkpt lat="40.19880537874996662139892578125" lon="-0.92413474805653095245361328125">
        <ele>1146</ele>
        <time>2022-05-06T10:05:41.000Z</time>
      </trkpt>
      <trkpt lat="40.198759697377681732177734375" lon="-0.92400583438575267791748046875">
        <ele>1145.4000244140625</ele>
        <time>2022-05-06T10:05:43.000Z</time>
      </trkpt>
      <trkpt lat="40.19871669821441173553466796875" lon="-0.923878513276576995849609375">
        <ele>1145.199951171875</ele>
        <time>2022-05-06T10:05:45.000Z</time>
      </trkpt>
      <trkpt lat="40.19869029521942138671875" lon="-0.92381489463150501251220703125">
        <ele>1145</ele>
        <time>2022-05-06T10:05:46.000Z</time>
      </trkpt>
      <trkpt lat="40.198663808405399322509765625" lon="-0.9237526170909404754638671875">
        <ele>1144.800048828125</ele>
        <time>2022-05-06T10:05:47.000Z</time>
      </trkpt>
      <trkpt lat="40.198611505329608917236328125" lon="-0.92363485135138034820556640625">
        <ele>1144.4000244140625</ele>
        <time>2022-05-06T10:05:49.000Z</time>
      </trkpt>
      <trkpt lat="40.1985791511833667755126953125" lon="-0.92358036898076534271240234375">
        <ele>1144.199951171875</ele>
        <time>2022-05-06T10:05:50.000Z</time>
      </trkpt>
      <trkpt lat="40.19854654558002948760986328125" lon="-0.92352421022951602935791015625">
        <ele>1144</ele>
        <time>2022-05-06T10:05:51.000Z</time>
      </trkpt>
      <trkpt lat="40.1985146105289459228515625" lon="-0.9234659560024738311767578125">
        <ele>1143.800048828125</ele>
        <time>2022-05-06T10:05:52.000Z</time>
      </trkpt>
      <trkpt lat="40.1984822563827037811279296875" lon="-0.9234081208705902099609375">
        <ele>1143.800048828125</ele>
        <time>2022-05-06T10:05:53.000Z</time>
      </trkpt>
      <trkpt lat="40.19841159693896770477294921875" lon="-0.92329404316842555999755859375">
        <ele>1144</ele>
        <time>2022-05-06T10:05:55.000Z</time>
      </trkpt>
      <trkpt lat="40.19834085367619991302490234375" lon="-0.92318482697010040283203125">
        <ele>1144.4000244140625</ele>
        <time>2022-05-06T10:05:57.000Z</time>
      </trkpt>
      <trkpt lat="40.1983027160167694091796875" lon="-0.923128835856914520263671875">
        <ele>1144.5999755859375</ele>
        <time>2022-05-06T10:05:58.000Z</time>
      </trkpt>
      <trkpt lat="40.1982636563479900360107421875" lon="-0.9230733476579189300537109375">
        <ele>1144.800048828125</ele>
        <time>2022-05-06T10:05:59.000Z</time>
      </trkpt>
      <trkpt lat="40.19818645901978015899658203125" lon="-0.92296647839248180389404296875">
        <ele>1145.199951171875</ele>
        <time>2022-05-06T10:06:01.000Z</time>
      </trkpt>
      <trkpt lat="40.19813968800008296966552734375" lon="-0.92291551642119884490966796875">
        <ele>1145.4000244140625</ele>
        <time>2022-05-06T10:06:02.000Z</time>
      </trkpt>
      <trkpt lat="40.19809174351394176483154296875" lon="-0.922862626612186431884765625">
        <ele>1145.5999755859375</ele>
        <time>2022-05-06T10:06:03.000Z</time>
      </trkpt>
      <trkpt lat="40.19799250178039073944091796875" lon="-0.92275676317512989044189453125">
        <ele>1146</ele>
        <time>2022-05-06T10:06:05.000Z</time>
      </trkpt>
      <trkpt lat="40.19789761863648891448974609375" lon="-0.922654084861278533935546875">
        <ele>1146.199951171875</ele>
        <time>2022-05-06T10:06:07.000Z</time>
      </trkpt>
      <trkpt lat="40.1978489197790622711181640625" lon="-0.92260454781353473663330078125">
        <ele>1146.199951171875</ele>
        <time>2022-05-06T10:06:08.000Z</time>
      </trkpt>
      <trkpt lat="40.1977976225316524505615234375" lon="-0.92255727387964725494384765625">
        <ele>1146.199951171875</ele>
        <time>2022-05-06T10:06:09.000Z</time>
      </trkpt>
      <trkpt lat="40.19769343547523021697998046875" lon="-0.92246708460152149200439453125">
        <ele>1146.199951171875</ele>
        <time>2022-05-06T10:06:11.000Z</time>
      </trkpt>
      <trkpt lat="40.19759000279009342193603515625" lon="-0.92238418757915496826171875">
        <ele>1146</ele>
        <time>2022-05-06T10:06:13.000Z</time>
      </trkpt>
      <trkpt lat="40.19748288206756114959716796875" lon="-0.92231168411672115325927734375">
        <ele>1145.800048828125</ele>
        <time>2022-05-06T10:06:15.000Z</time>
      </trkpt>
      <trkpt lat="40.1974288187921047210693359375" lon="-0.922280587255954742431640625">
        <ele>1145.800048828125</ele>
        <time>2022-05-06T10:06:16.000Z</time>
      </trkpt>
      <trkpt lat="40.19737844355404376983642578125" lon="-0.922249071300029754638671875">
        <ele>1145.800048828125</ele>
        <time>2022-05-06T10:06:17.000Z</time>
      </trkpt>
      <trkpt lat="40.1972675509750843048095703125" lon="-0.92219375073909759521484375">
        <ele>1145.800048828125</ele>
        <time>2022-05-06T10:06:19.000Z</time>
      </trkpt>
      <trkpt lat="40.197148025035858154296875" lon="-0.9221365861594676971435546875">
        <ele>1145.800048828125</ele>
        <time>2022-05-06T10:06:21.000Z</time>
      </trkpt>
      <trkpt lat="40.197089351713657379150390625" lon="-0.92210431583225727081298828125">
        <ele>1145.5999755859375</ele>
        <time>2022-05-06T10:06:22.000Z</time>
      </trkpt>
      <trkpt lat="40.1970278285443782806396484375" lon="-0.92207263223826885223388671875">
        <ele>1145</ele>
        <time>2022-05-06T10:06:23.000Z</time>
      </trkpt>
      <trkpt lat="40.19690905697643756866455078125" lon="-0.9220068342983722686767578125">
        <ele>1144.199951171875</ele>
        <time>2022-05-06T10:06:25.000Z</time>
      </trkpt>
      <trkpt lat="40.19679062068462371826171875" lon="-0.9219347499310970306396484375">
        <ele>1143.4000244140625</ele>
        <time>2022-05-06T10:06:27.000Z</time>
      </trkpt>
      <trkpt lat="40.1966707594692707061767578125" lon="-0.9218697063624858856201171875">
        <ele>1142.4000244140625</ele>
        <time>2022-05-06T10:06:29.000Z</time>
      </trkpt>
      <trkpt lat="40.19660932011902332305908203125" lon="-0.9218390285968780517578125">
        <ele>1142</ele>
        <time>2022-05-06T10:06:30.000Z</time>
      </trkpt>
      <trkpt lat="40.1965480484068393707275390625" lon="-0.9218073450028896331787109375">
        <ele>1141.5999755859375</ele>
        <time>2022-05-06T10:06:31.000Z</time>
      </trkpt>
      <trkpt lat="40.19644436426460742950439453125" lon="-0.9217339195311069488525390625">
        <ele>1140.800048828125</ele>
        <time>2022-05-06T10:06:33.000Z</time>
      </trkpt>
      <trkpt lat="40.19633062183856964111328125" lon="-0.9216618351638317108154296875">
        <ele>1140</ele>
        <time>2022-05-06T10:06:35.000Z</time>
      </trkpt>
      <trkpt lat="40.19621126353740692138671875" lon="-0.92159234918653964996337890625">
        <ele>1139.5999755859375</ele>
        <time>2022-05-06T10:06:37.000Z</time>
      </trkpt>
      <trkpt lat="40.19609366543591022491455078125" lon="-0.92152512632310390472412109375">
        <ele>1139.5999755859375</ele>
        <time>2022-05-06T10:06:39.000Z</time>
      </trkpt>
      <trkpt lat="40.19597145728766918182373046875" lon="-0.9214608371257781982421875">
        <ele>1139</ele>
        <time>2022-05-06T10:06:41.000Z</time>
      </trkpt>
      <trkpt lat="40.195851512253284454345703125" lon="-0.9213937819004058837890625">
        <ele>1138.4000244140625</ele>
        <time>2022-05-06T10:06:43.000Z</time>
      </trkpt>
      <trkpt lat="40.19579141400754451751708984375" lon="-0.921362601220607757568359375">
        <ele>1138.4000244140625</ele>
        <time>2022-05-06T10:06:44.000Z</time>
      </trkpt>
      <trkpt lat="40.1957329921424388885498046875" lon="-0.92132848687469959259033203125">
        <ele>1138.199951171875</ele>
        <time>2022-05-06T10:06:45.000Z</time>
      </trkpt>
      <trkpt lat="40.195616818964481353759765625" lon="-0.92125833034515380859375">
        <ele>1138</ele>
        <time>2022-05-06T10:06:47.000Z</time>
      </trkpt>
      <trkpt lat="40.195500142872333526611328125" lon="-0.92119739390909671783447265625">
        <ele>1137</ele>
        <time>2022-05-06T10:06:49.000Z</time>
      </trkpt>
      <trkpt lat="40.19538472406566143035888671875" lon="-0.92113452963531017303466796875">
        <ele>1136.800048828125</ele>
        <time>2022-05-06T10:06:51.000Z</time>
      </trkpt>
      <trkpt lat="40.1952693052589893341064453125" lon="-0.92106998898088932037353515625">
        <ele>1136.800048828125</ele>
        <time>2022-05-06T10:06:53.000Z</time>
      </trkpt>
      <trkpt lat="40.19515179097652435302734375" lon="-0.92100259847939014434814453125">
        <ele>1137</ele>
        <time>2022-05-06T10:06:55.000Z</time>
      </trkpt>
      <trkpt lat="40.19503117538988590240478515625" lon="-0.92093839310109615325927734375">
        <ele>1137.199951171875</ele>
        <time>2022-05-06T10:06:57.000Z</time>
      </trkpt>
      <trkpt lat="40.194970071315765380859375" lon="-0.92090360820293426513671875">
        <ele>1137.4000244140625</ele>
        <time>2022-05-06T10:06:58.000Z</time>
      </trkpt>
      <trkpt lat="40.19490879960358142852783203125" lon="-0.92086966149508953094482421875">
        <ele>1137.4000244140625</ele>
        <time>2022-05-06T10:06:59.000Z</time>
      </trkpt>
      <trkpt lat="40.19478558562695980072021484375" lon="-0.92079992406070232391357421875">
        <ele>1137.5999755859375</ele>
        <time>2022-05-06T10:07:01.000Z</time>
      </trkpt>
      <trkpt lat="40.19466220401227474212646484375" lon="-0.92073270119726657867431640625">
        <ele>1137.800048828125</ele>
        <time>2022-05-06T10:07:03.000Z</time>
      </trkpt>
      <trkpt lat="40.19460193812847137451171875" lon="-0.92069867067039012908935546875">
        <ele>1137.800048828125</ele>
        <time>2022-05-06T10:07:04.000Z</time>
      </trkpt>
      <trkpt lat="40.19454200752079486846923828125" lon="-0.92066531069576740264892578125">
        <ele>1137.4000244140625</ele>
        <time>2022-05-06T10:07:05.000Z</time>
      </trkpt>
      <trkpt lat="40.19441929645836353302001953125" lon="-0.9206003509461879730224609375">
        <ele>1136.5999755859375</ele>
        <time>2022-05-06T10:07:07.000Z</time>
      </trkpt>
      <trkpt lat="40.19429557956755161285400390625" lon="-0.920531116425991058349609375">
        <ele>1136.199951171875</ele>
        <time>2022-05-06T10:07:09.000Z</time>
      </trkpt>
      <trkpt lat="40.19417345523834228515625" lon="-0.9204632230103015899658203125">
        <ele>1135.5999755859375</ele>
        <time>2022-05-06T10:07:11.000Z</time>
      </trkpt>
      <trkpt lat="40.19411486573517322540283203125" lon="-0.9204290248453617095947265625">
        <ele>1135.4000244140625</ele>
        <time>2022-05-06T10:07:12.000Z</time>
      </trkpt>
      <trkpt lat="40.1940552704036235809326171875" lon="-0.920397341251373291015625">
        <ele>1135.199951171875</ele>
        <time>2022-05-06T10:07:13.000Z</time>
      </trkpt>
      <trkpt lat="40.1939493231475353240966796875" lon="-0.92032802291214466094970703125">
        <ele>1134.800048828125</ele>
        <time>2022-05-06T10:07:15.000Z</time>
      </trkpt>
      <trkpt lat="40.193839855492115020751953125" lon="-0.920264236629009246826171875">
        <ele>1134.199951171875</ele>
        <time>2022-05-06T10:07:17.000Z</time>
      </trkpt>
      <trkpt lat="40.19372661598026752471923828125" lon="-0.9202028810977935791015625">
        <ele>1133.5999755859375</ele>
        <time>2022-05-06T10:07:19.000Z</time>
      </trkpt>
      <trkpt lat="40.19361379556357860565185546875" lon="-0.92014328576624393463134765625">
        <ele>1133.199951171875</ele>
        <time>2022-05-06T10:07:21.000Z</time>
      </trkpt>
      <trkpt lat="40.1935583911836147308349609375" lon="-0.92011445201933383941650390625">
        <ele>1133</ele>
        <time>2022-05-06T10:07:22.000Z</time>
      </trkpt>
      <trkpt lat="40.19350466318428516387939453125" lon="-0.920087210834026336669921875">
        <ele>1133</ele>
        <time>2022-05-06T10:07:23.000Z</time>
      </trkpt>
      <trkpt lat="40.19339871592819690704345703125" lon="-0.9200300462543964385986328125">
        <ele>1133</ele>
        <time>2022-05-06T10:07:25.000Z</time>
      </trkpt>
      <trkpt lat="40.19334574230015277862548828125" lon="-0.9200017154216766357421875">
        <ele>1133.199951171875</ele>
        <time>2022-05-06T10:07:26.000Z</time>
      </trkpt>
      <trkpt lat="40.1932923495769500732421875" lon="-0.91997422277927398681640625">
        <ele>1133.4000244140625</ele>
        <time>2022-05-06T10:07:27.000Z</time>
      </trkpt>
      <trkpt lat="40.19318514503538608551025390625" lon="-0.9199180640280246734619140625">
        <ele>1134</ele>
        <time>2022-05-06T10:07:29.000Z</time>
      </trkpt>
      <trkpt lat="40.1930786110460758209228515625" lon="-0.9198637492954730987548828125">
        <ele>1134.4000244140625</ele>
        <time>2022-05-06T10:07:31.000Z</time>
      </trkpt>
      <trkpt lat="40.192980878055095672607421875" lon="-0.919810943305492401123046875">
        <ele>1134.800048828125</ele>
        <time>2022-05-06T10:07:33.000Z</time>
      </trkpt>
      <trkpt lat="40.19293217919766902923583984375" lon="-0.91978504322469234466552734375">
        <ele>1135</ele>
        <time>2022-05-06T10:07:34.000Z</time>
      </trkpt>
      <trkpt lat="40.19288456998765468597412109375" lon="-0.91975805349647998809814453125">
        <ele>1135.4000244140625</ele>
        <time>2022-05-06T10:07:35.000Z</time>
      </trkpt>
      <trkpt lat="40.19279773347079753875732421875" lon="-0.9197065047919750213623046875">
        <ele>1135.5999755859375</ele>
        <time>2022-05-06T10:07:37.000Z</time>
      </trkpt>
      <trkpt lat="40.1927044428884983062744140625" lon="-0.9196557104587554931640625">
        <ele>1136</ele>
        <time>2022-05-06T10:07:39.000Z</time>
      </trkpt>
      <trkpt lat="40.19261634908616542816162109375" lon="-0.91960181482136249542236328125">
        <ele>1136.199951171875</ele>
        <time>2022-05-06T10:07:41.000Z</time>
      </trkpt>
      <trkpt lat="40.1925297640264034271240234375" lon="-0.91955311596393585205078125">
        <ele>1136.5999755859375</ele>
        <time>2022-05-06T10:07:43.000Z</time>
      </trkpt>
      <trkpt lat="40.1924368925392627716064453125" lon="-0.91950022615492343902587890625">
        <ele>1136.800048828125</ele>
        <time>2022-05-06T10:07:45.000Z</time>
      </trkpt>
      <trkpt lat="40.1923401653766632080078125" lon="-0.9194419719278812408447265625">
        <ele>1137.199951171875</ele>
        <time>2022-05-06T10:07:47.000Z</time>
      </trkpt>
      <trkpt lat="40.192293561995029449462890625" lon="-0.919413305819034576416015625">
        <ele>1137.4000244140625</ele>
        <time>2022-05-06T10:07:48.000Z</time>
      </trkpt>
      <trkpt lat="40.19224486313760280609130859375" lon="-0.91938572935760021209716796875">
        <ele>1137.5999755859375</ele>
        <time>2022-05-06T10:07:49.000Z</time>
      </trkpt>
      <trkpt lat="40.19214914180338382720947265625" lon="-0.919324792921543121337890625">
        <ele>1137.800048828125</ele>
        <time>2022-05-06T10:07:51.000Z</time>
      </trkpt>
      <trkpt lat="40.192044116556644439697265625" lon="-0.9192622639238834381103515625">
        <ele>1138.199951171875</ele>
        <time>2022-05-06T10:07:53.000Z</time>
      </trkpt>
      <trkpt lat="40.19194026477634906768798828125" lon="-0.9191988967359066009521484375">
        <ele>1138.4000244140625</ele>
        <time>2022-05-06T10:07:55.000Z</time>
      </trkpt>
      <trkpt lat="40.19189156591892242431640625" lon="-0.91916847042739391326904296875">
        <ele>1138.4000244140625</ele>
        <time>2022-05-06T10:07:56.000Z</time>
      </trkpt>
      <trkpt lat="40.191840939223766326904296875" lon="-0.9191365353763103485107421875">
        <ele>1138.4000244140625</ele>
        <time>2022-05-06T10:07:57.000Z</time>
      </trkpt>
      <trkpt lat="40.1917375065386295318603515625" lon="-0.91907375492155551910400390625">
        <ele>1138</ele>
        <time>2022-05-06T10:07:59.000Z</time>
      </trkpt>
      <trkpt lat="40.191639102995395660400390625" lon="-0.91900452040135860443115234375">
        <ele>1137.5999755859375</ele>
        <time>2022-05-06T10:08:01.000Z</time>
      </trkpt>
      <trkpt lat="40.19159208051860332489013671875" lon="-0.91896562837064266204833984375">
        <ele>1137.4000244140625</ele>
        <time>2022-05-06T10:08:02.000Z</time>
      </trkpt>
      <trkpt lat="40.19154480658471584320068359375" lon="-0.9189276583492755889892578125">
        <ele>1137.199951171875</ele>
        <time>2022-05-06T10:08:03.000Z</time>
      </trkpt>
      <trkpt lat="40.19145864062011241912841796875" lon="-0.91884593479335308074951171875">
        <ele>1136.800048828125</ele>
        <time>2022-05-06T10:08:05.000Z</time>
      </trkpt>
      <trkpt lat="40.1913692057132720947265625" lon="-0.91876127757132053375244140625">
        <ele>1136.5999755859375</ele>
        <time>2022-05-06T10:08:07.000Z</time>
      </trkpt>
      <trkpt lat="40.19128748215734958648681640625" lon="-0.91865818016231060028076171875">
        <ele>1135.800048828125</ele>
        <time>2022-05-06T10:08:09.000Z</time>
      </trkpt>
      <trkpt lat="40.19120885990560054779052734375" lon="-0.918548963963985443115234375">
        <ele>1135</ele>
        <time>2022-05-06T10:08:11.000Z</time>
      </trkpt>
      <trkpt lat="40.19113761372864246368408203125" lon="-0.9184378199279308319091796875">
        <ele>1134.199951171875</ele>
        <time>2022-05-06T10:08:13.000Z</time>
      </trkpt>
      <trkpt lat="40.191073156893253326416015625" lon="-0.9183275140821933746337890625">
        <ele>1133.4000244140625</ele>
        <time>2022-05-06T10:08:15.000Z</time>
      </trkpt>
      <trkpt lat="40.191000401973724365234375" lon="-0.91821695677936077117919921875">
        <ele>1132.5999755859375</ele>
        <time>2022-05-06T10:08:17.000Z</time>
      </trkpt>
      <trkpt lat="40.1909315027296543121337890625" lon="-0.918108411133289337158203125">
        <ele>1132</ele>
        <time>2022-05-06T10:08:19.000Z</time>
      </trkpt>
      <trkpt lat="40.190859250724315643310546875" lon="-0.91799969784915447235107421875">
        <ele>1131.199951171875</ele>
        <time>2022-05-06T10:08:21.000Z</time>
      </trkpt>
      <trkpt lat="40.19082538783550262451171875" lon="-0.91794504784047603607177734375">
        <ele>1130.800048828125</ele>
        <time>2022-05-06T10:08:22.000Z</time>
      </trkpt>
      <trkpt lat="40.1907920278608798980712890625" lon="-0.9178916551172733306884765625">
        <ele>1130.4000244140625</ele>
        <time>2022-05-06T10:08:23.000Z</time>
      </trkpt>
      <trkpt lat="40.190717764198780059814453125" lon="-0.91778847388923168182373046875">
        <ele>1129.5999755859375</ele>
        <time>2022-05-06T10:08:25.000Z</time>
      </trkpt>
      <trkpt lat="40.19064031541347503662109375" lon="-0.91768755577504634857177734375">
        <ele>1128.800048828125</ele>
        <time>2022-05-06T10:08:27.000Z</time>
      </trkpt>
      <trkpt lat="40.19055892713367938995361328125" lon="-0.917588062584400177001953125">
        <ele>1128</ele>
        <time>2022-05-06T10:08:29.000Z</time>
      </trkpt>
      <trkpt lat="40.19047192297875881195068359375" lon="-0.9174869768321514129638671875">
        <ele>1127.199951171875</ele>
        <time>2022-05-06T10:08:31.000Z</time>
      </trkpt>
      <trkpt lat="40.190388523042201995849609375" lon="-0.91737826354801654815673828125">
        <ele>1127</ele>
        <time>2022-05-06T10:08:33.000Z</time>
      </trkpt>
      <trkpt lat="40.190310068428516387939453125" lon="-0.91726209037005901336669921875">
        <ele>1127</ele>
        <time>2022-05-06T10:08:35.000Z</time>
      </trkpt>
      <trkpt lat="40.19027058966457843780517578125" lon="-0.91720090247690677642822265625">
        <ele>1127.199951171875</ele>
        <time>2022-05-06T10:08:36.000Z</time>
      </trkpt>
      <trkpt lat="40.1902331225574016571044921875" lon="-0.9171366132795810699462890625">
        <ele>1127.199951171875</ele>
        <time>2022-05-06T10:08:37.000Z</time>
      </trkpt>
      <trkpt lat="40.19016481004655361175537109375" lon="-0.91700728051364421844482421875">
        <ele>1127.199951171875</ele>
        <time>2022-05-06T10:08:39.000Z</time>
      </trkpt>
      <trkpt lat="40.190099179744720458984375" lon="-0.91688700020313262939453125">
        <ele>1127.199951171875</ele>
        <time>2022-05-06T10:08:41.000Z</time>
      </trkpt>
      <trkpt lat="40.1900674961507320404052734375" lon="-0.916826315224170684814453125">
        <ele>1127.199951171875</ele>
        <time>2022-05-06T10:08:42.000Z</time>
      </trkpt>
      <trkpt lat="40.19003757275640964508056640625" lon="-0.9167661331593990325927734375">
        <ele>1127.4000244140625</ele>
        <time>2022-05-06T10:08:43.000Z</time>
      </trkpt>
      <trkpt lat="40.18998426385223865509033203125" lon="-0.916646607220172882080078125">
        <ele>1127.4000244140625</ele>
        <time>2022-05-06T10:08:45.000Z</time>
      </trkpt>
      <trkpt lat="40.1899296976625919342041015625" lon="-0.91652649454772472381591796875">
        <ele>1127.5999755859375</ele>
        <time>2022-05-06T10:08:47.000Z</time>
      </trkpt>
      <trkpt lat="40.189868845045566558837890625" lon="-0.916399173438549041748046875">
        <ele>1127.800048828125</ele>
        <time>2022-05-06T10:08:49.000Z</time>
      </trkpt>
      <trkpt lat="40.18981059081852436065673828125" lon="-0.9162645600736141204833984375">
        <ele>1128</ele>
        <time>2022-05-06T10:08:51.000Z</time>
      </trkpt>
      <trkpt lat="40.1897499896585941314697265625" lon="-0.91612919233739376068115234375">
        <ele>1128.199951171875</ele>
        <time>2022-05-06T10:08:53.000Z</time>
      </trkpt>
      <trkpt lat="40.1896960102021694183349609375" lon="-0.9159926511347293853759765625">
        <ele>1128.4000244140625</ele>
        <time>2022-05-06T10:08:55.000Z</time>
      </trkpt>
      <trkpt lat="40.18963624723255634307861328125" lon="-0.915852002799510955810546875">
        <ele>1128.5999755859375</ele>
        <time>2022-05-06T10:08:57.000Z</time>
      </trkpt>
      <trkpt lat="40.189577825367450714111328125" lon="-0.9157093428075313568115234375">
        <ele>1128.5999755859375</ele>
        <time>2022-05-06T10:08:59.000Z</time>
      </trkpt>
      <trkpt lat="40.18952183425426483154296875" lon="-0.91556123457849025726318359375">
        <ele>1128.5999755859375</ele>
        <time>2022-05-06T10:09:01.000Z</time>
      </trkpt>
      <trkpt lat="40.18945922143757343292236328125" lon="-0.91541304253041744232177734375">
        <ele>1128.800048828125</ele>
        <time>2022-05-06T10:09:03.000Z</time>
      </trkpt>
      <trkpt lat="40.1893950998783111572265625" lon="-0.9152570553123950958251953125">
        <ele>1128.800048828125</ele>
        <time>2022-05-06T10:09:05.000Z</time>
      </trkpt>
      <trkpt lat="40.1893302239477634429931640625" lon="-0.91510173864662647247314453125">
        <ele>1129</ele>
        <time>2022-05-06T10:09:07.000Z</time>
      </trkpt>
      <trkpt lat="40.1892661862075328826904296875" lon="-0.91494918800890445709228515625">
        <ele>1128.800048828125</ele>
        <time>2022-05-06T10:09:09.000Z</time>
      </trkpt>
      <trkpt lat="40.18920323811471462249755859375" lon="-0.914798565208911895751953125">
        <ele>1128.5999755859375</ele>
        <time>2022-05-06T10:09:11.000Z</time>
      </trkpt>
      <trkpt lat="40.1891468279063701629638671875" lon="-0.9146468527615070343017578125">
        <ele>1128.800048828125</ele>
        <time>2022-05-06T10:09:13.000Z</time>
      </trkpt>
      <trkpt lat="40.1891166530549526214599609375" lon="-0.9145737625658512115478515625">
        <ele>1129</ele>
        <time>2022-05-06T10:09:14.000Z</time>
      </trkpt>
      <trkpt lat="40.18908756785094738006591796875" lon="-0.91450209729373455047607421875">
        <ele>1129.199951171875</ele>
        <time>2022-05-06T10:09:15.000Z</time>
      </trkpt>
      <trkpt lat="40.189026631414890289306640625" lon="-0.91435189358890056610107421875">
        <ele>1129.199951171875</ele>
        <time>2022-05-06T10:09:17.000Z</time>
      </trkpt>
      <trkpt lat="40.1889594085514545440673828125" lon="-0.9141985885798931121826171875">
        <ele>1129</ele>
        <time>2022-05-06T10:09:19.000Z</time>
      </trkpt>
      <trkpt lat="40.18889260478317737579345703125" lon="-0.9140477143228054046630859375">
        <ele>1129</ele>
        <time>2022-05-06T10:09:21.000Z</time>
      </trkpt>
      <trkpt lat="40.18886201083660125732421875" lon="-0.91397169046103954315185546875">
        <ele>1128.800048828125</ele>
        <time>2022-05-06T10:09:22.000Z</time>
      </trkpt>
      <trkpt lat="40.18883594311773777008056640625" lon="-0.9138944931328296661376953125">
        <ele>1128.800048828125</ele>
        <time>2022-05-06T10:09:23.000Z</time>
      </trkpt>
      <trkpt lat="40.1887817122042179107666015625" lon="-0.9137385897338390350341796875">
        <ele>1128.4000244140625</ele>
        <time>2022-05-06T10:09:25.000Z</time>
      </trkpt>
      <trkpt lat="40.188724882900714874267578125" lon="-0.91358520090579986572265625">
        <ele>1127.800048828125</ele>
        <time>2022-05-06T10:09:27.000Z</time>
      </trkpt>
      <trkpt lat="40.1886690594255924224853515625" lon="-0.913427956402301788330078125">
        <ele>1127.199951171875</ele>
        <time>2022-05-06T10:09:29.000Z</time>
      </trkpt>
      <trkpt lat="40.1886382140219211578369140625" lon="-0.91335025615990161895751953125">
        <ele>1127</ele>
        <time>2022-05-06T10:09:30.000Z</time>
      </trkpt>
      <trkpt lat="40.18860979937016963958740234375" lon="-0.91327004134654998779296875">
        <ele>1126.800048828125</ele>
        <time>2022-05-06T10:09:31.000Z</time>
      </trkpt>
      <trkpt lat="40.18854727037250995635986328125" lon="-0.9131096117198467254638671875">
        <ele>1126</ele>
        <time>2022-05-06T10:09:33.000Z</time>
      </trkpt>
      <trkpt lat="40.18847870640456676483154296875" lon="-0.91294406913220882415771484375">
        <ele>1125.199951171875</ele>
        <time>2022-05-06T10:09:35.000Z</time>
      </trkpt>
      <trkpt lat="40.1884152553975582122802734375" lon="-0.9127817116677761077880859375">
        <ele>1124.5999755859375</ele>
        <time>2022-05-06T10:09:37.000Z</time>
      </trkpt>
      <trkpt lat="40.188382565975189208984375" lon="-0.91270250268280506134033203125">
        <ele>1124.199951171875</ele>
        <time>2022-05-06T10:09:38.000Z</time>
      </trkpt>
      <trkpt lat="40.1883495412766933441162109375" lon="-0.91262589208781719207763671875">
        <ele>1124</ele>
        <time>2022-05-06T10:09:39.000Z</time>
      </trkpt>
      <trkpt lat="40.18828240223228931427001953125" lon="-0.912474431097507476806640625">
        <ele>1123.5999755859375</ele>
        <time>2022-05-06T10:09:41.000Z</time>
      </trkpt>
      <trkpt lat="40.1882228069007396697998046875" lon="-0.91231542639434337615966796875">
        <ele>1123.199951171875</ele>
        <time>2022-05-06T10:09:43.000Z</time>
      </trkpt>
      <trkpt lat="40.18819539807736873626708984375" lon="-0.9122385643422603607177734375">
        <ele>1123</ele>
        <time>2022-05-06T10:09:44.000Z</time>
      </trkpt>
      <trkpt lat="40.18816656433045864105224609375" lon="-0.912163294851779937744140625">
        <ele>1122.5999755859375</ele>
        <time>2022-05-06T10:09:45.000Z</time>
      </trkpt>
      <trkpt lat="40.18810990266501903533935546875" lon="-0.91200931929051876068115234375">
        <ele>1121.800048828125</ele>
        <time>2022-05-06T10:09:47.000Z</time>
      </trkpt>
      <trkpt lat="40.18805122934281826019287109375" lon="-0.91185660101473331451416015625">
        <ele>1121.800048828125</ele>
        <time>2022-05-06T10:09:49.000Z</time>
      </trkpt>
      <trkpt lat="40.1879975013434886932373046875" lon="-0.91170857660472393035888671875">
        <ele>1121.5999755859375</ele>
        <time>2022-05-06T10:09:51.000Z</time>
      </trkpt>
      <trkpt lat="40.187944360077381134033203125" lon="-0.9115599654614925384521484375">
        <ele>1121.4000244140625</ele>
        <time>2022-05-06T10:09:53.000Z</time>
      </trkpt>
      <trkpt lat="40.18789163790643215179443359375" lon="-0.9114080853760242462158203125">
        <ele>1121.199951171875</ele>
        <time>2022-05-06T10:09:55.000Z</time>
      </trkpt>
      <trkpt lat="40.18783128820359706878662109375" lon="-0.91125880368053913116455078125">
        <ele>1121</ele>
        <time>2022-05-06T10:09:57.000Z</time>
      </trkpt>
      <trkpt lat="40.18780178390443325042724609375" lon="-0.91118386946618556976318359375">
        <ele>1120.800048828125</ele>
        <time>2022-05-06T10:09:58.000Z</time>
      </trkpt>
      <trkpt lat="40.1877768896520137786865234375" lon="-0.91110709123313426971435546875">
        <ele>1120.5999755859375</ele>
        <time>2022-05-06T10:09:59.000Z</time>
      </trkpt>
      <trkpt lat="40.1877561025321483612060546875" lon="-0.91102897189557552337646484375">
        <ele>1120.4000244140625</ele>
        <time>2022-05-06T10:10:00.000Z</time>
      </trkpt>
      <trkpt lat="40.18773506395518779754638671875" lon="-0.9109507687389850616455078125">
        <ele>1120.199951171875</ele>
        <time>2022-05-06T10:10:01.000Z</time>
      </trkpt>
      <trkpt lat="40.18768426962196826934814453125" lon="-0.91079729609191417694091796875">
        <ele>1119.800048828125</ele>
        <time>2022-05-06T10:10:03.000Z</time>
      </trkpt>
      <trkpt lat="40.18762190826237201690673828125" lon="-0.91064793057739734649658203125">
        <ele>1119.199951171875</ele>
        <time>2022-05-06T10:10:05.000Z</time>
      </trkpt>
      <trkpt lat="40.187560804188251495361328125" lon="-0.91049705632030963897705078125">
        <ele>1119</ele>
        <time>2022-05-06T10:10:07.000Z</time>
      </trkpt>
      <trkpt lat="40.18750120885670185089111328125" lon="-0.9103489480912685394287109375">
        <ele>1119</ele>
        <time>2022-05-06T10:10:09.000Z</time>
      </trkpt>
      <trkpt lat="40.18744488246738910675048828125" lon="-0.91019690036773681640625">
        <ele>1119</ele>
        <time>2022-05-06T10:10:11.000Z</time>
      </trkpt>
      <trkpt lat="40.1873809285461902618408203125" lon="-0.9100378118455410003662109375">
        <ele>1118.4000244140625</ele>
        <time>2022-05-06T10:10:13.000Z</time>
      </trkpt>
      <trkpt lat="40.1873118616640567779541015625" lon="-0.9098842553794384002685546875">
        <ele>1117.800048828125</ele>
        <time>2022-05-06T10:10:15.000Z</time>
      </trkpt>
      <trkpt lat="40.18727690912783145904541015625" lon="-0.90980638749897480010986328125">
        <ele>1117.4000244140625</ele>
        <time>2022-05-06T10:10:16.000Z</time>
      </trkpt>
      <trkpt lat="40.1872438006103038787841796875" lon="-0.9097266755998134613037109375">
        <ele>1117.199951171875</ele>
        <time>2022-05-06T10:10:17.000Z</time>
      </trkpt>
      <trkpt lat="40.18717163242399692535400390625" lon="-0.90957119129598140716552734375">
        <ele>1116.4000244140625</ele>
        <time>2022-05-06T10:10:19.000Z</time>
      </trkpt>
      <trkpt lat="40.18709686584770679473876953125" lon="-0.9094229154288768768310546875">
        <ele>1116</ele>
        <time>2022-05-06T10:10:21.000Z</time>
      </trkpt>
      <trkpt lat="40.18702067434787750244140625" lon="-0.90927748940885066986083984375">
        <ele>1116.199951171875</ele>
        <time>2022-05-06T10:10:23.000Z</time>
      </trkpt>
      <trkpt lat="40.18694599159061908721923828125" lon="-0.90913549996912479400634765625">
        <ele>1116.199951171875</ele>
        <time>2022-05-06T10:10:25.000Z</time>
      </trkpt>
      <trkpt lat="40.1869055069983005523681640625" lon="-0.9090678580105304718017578125">
        <ele>1116.4000244140625</ele>
        <time>2022-05-06T10:10:26.000Z</time>
      </trkpt>
      <trkpt lat="40.186864435672760009765625" lon="-0.9090008027851581573486328125">
        <ele>1116.4000244140625</ele>
        <time>2022-05-06T10:10:27.000Z</time>
      </trkpt>
      <trkpt lat="40.186783969402313232421875" lon="-0.9088797681033611297607421875">
        <ele>1116.800048828125</ele>
        <time>2022-05-06T10:10:29.000Z</time>
      </trkpt>
      <trkpt lat="40.1867449097335338592529296875" lon="-0.908819921314716339111328125">
        <ele>1117.199951171875</ele>
        <time>2022-05-06T10:10:30.000Z</time>
      </trkpt>
      <trkpt lat="40.186701156198978424072265625" lon="-0.90876066125929355621337890625">
        <ele>1117.4000244140625</ele>
        <time>2022-05-06T10:10:31.000Z</time>
      </trkpt>
      <trkpt lat="40.1866124756634235382080078125" lon="-0.90865002013742923736572265625">
        <ele>1118.199951171875</ele>
        <time>2022-05-06T10:10:33.000Z</time>
      </trkpt>
      <trkpt lat="40.18652320839464664459228515625" lon="-0.90854859910905361175537109375">
        <ele>1118.5999755859375</ele>
        <time>2022-05-06T10:10:35.000Z</time>
      </trkpt>
      <trkpt lat="40.18643385730683803558349609375" lon="-0.9084392152726650238037109375">
        <ele>1118.5999755859375</ele>
        <time>2022-05-06T10:10:37.000Z</time>
      </trkpt>
      <trkpt lat="40.1863395608961582183837890625" lon="-0.9083268977701663970947265625">
        <ele>1118.5999755859375</ele>
        <time>2022-05-06T10:10:39.000Z</time>
      </trkpt>
      <trkpt lat="40.186233781278133392333984375" lon="-0.90822254307568073272705078125">
        <ele>1118.800048828125</ele>
        <time>2022-05-06T10:10:41.000Z</time>
      </trkpt>
      <trkpt lat="40.18612422980368137359619140625" lon="-0.908115841448307037353515625">
        <ele>1118.5999755859375</ele>
        <time>2022-05-06T10:10:43.000Z</time>
      </trkpt>
      <trkpt lat="40.1860683225095272064208984375" lon="-0.90806328691542148590087890625">
        <ele>1118.4000244140625</ele>
        <time>2022-05-06T10:10:44.000Z</time>
      </trkpt>
      <trkpt lat="40.186013169586658477783203125" lon="-0.908012576401233673095703125">
        <ele>1118.4000244140625</ele>
        <time>2022-05-06T10:10:45.000Z</time>
      </trkpt>
      <trkpt lat="40.18590093590319156646728515625" lon="-0.9079148434102535247802734375">
        <ele>1118.4000244140625</ele>
        <time>2022-05-06T10:10:47.000Z</time>
      </trkpt>
      <trkpt lat="40.18578476272523403167724609375" lon="-0.90781853534281253814697265625">
        <ele>1118.199951171875</ele>
        <time>2022-05-06T10:10:49.000Z</time>
      </trkpt>
      <trkpt lat="40.185726173222064971923828125" lon="-0.90776941739022731781005859375">
        <ele>1118.199951171875</ele>
        <time>2022-05-06T10:10:50.000Z</time>
      </trkpt>
      <trkpt lat="40.185666494071483612060546875" lon="-0.90772180818021297454833984375">
        <ele>1118</ele>
        <time>2022-05-06T10:10:51.000Z</time>
      </trkpt>
      <trkpt lat="40.18554504029452800750732421875" lon="-0.90763379819691181182861328125">
        <ele>1117.800048828125</ele>
        <time>2022-05-06T10:10:53.000Z</time>
      </trkpt>
      <trkpt lat="40.185484774410724639892578125" lon="-0.90759306214749813079833984375">
        <ele>1117.5999755859375</ele>
        <time>2022-05-06T10:10:54.000Z</time>
      </trkpt>
      <trkpt lat="40.1854242570698261260986328125" lon="-0.90755182318389415740966796875">
        <ele>1117.4000244140625</ele>
        <time>2022-05-06T10:10:55.000Z</time>
      </trkpt>
      <trkpt lat="40.18530330620706081390380859375" lon="-0.90747504495084285736083984375">
        <ele>1116.800048828125</ele>
        <time>2022-05-06T10:10:57.000Z</time>
      </trkpt>
      <trkpt lat="40.18518461845815181732177734375" lon="-0.9074005298316478729248046875">
        <ele>1116.4000244140625</ele>
        <time>2022-05-06T10:10:59.000Z</time>
      </trkpt>
      <trkpt lat="40.18512477166950702667236328125" lon="-0.90736323036253452301025390625">
        <ele>1116.4000244140625</ele>
        <time>2022-05-06T10:11:00.000Z</time>
      </trkpt>
      <trkpt lat="40.18506475724279880523681640625" lon="-0.9073274396359920501708984375">
        <ele>1116.199951171875</ele>
        <time>2022-05-06T10:11:01.000Z</time>
      </trkpt>
      <trkpt lat="40.18494154326617717742919921875" lon="-0.90726247988641262054443359375">
        <ele>1116</ele>
        <time>2022-05-06T10:11:03.000Z</time>
      </trkpt>
      <trkpt lat="40.184832997620105743408203125" lon="-0.907196514308452606201171875">
        <ele>1116</ele>
        <time>2022-05-06T10:11:05.000Z</time>
      </trkpt>
      <trkpt lat="40.18477843143045902252197265625" lon="-0.9071634896099567413330078125">
        <ele>1116</ele>
        <time>2022-05-06T10:11:06.000Z</time>
      </trkpt>
      <trkpt lat="40.184727720916271209716796875" lon="-0.9071313031017780303955078125">
        <ele>1115.800048828125</ele>
        <time>2022-05-06T10:11:07.000Z</time>
      </trkpt>
      <trkpt lat="40.18461800180375576019287109375" lon="-0.90706986375153064727783203125">
        <ele>1115.800048828125</ele>
        <time>2022-05-06T10:11:09.000Z</time>
      </trkpt>
      <trkpt lat="40.18450333736836910247802734375" lon="-0.90701454319059848785400390625">
        <ele>1114.800048828125</ele>
        <time>2022-05-06T10:11:11.000Z</time>
      </trkpt>
      <trkpt lat="40.1843906007707118988037109375" lon="-0.906955786049365997314453125">
        <ele>1113.800048828125</ele>
        <time>2022-05-06T10:11:13.000Z</time>
      </trkpt>
      <trkpt lat="40.184276103973388671875" lon="-0.9068952687084674835205078125">
        <ele>1112.800048828125</ele>
        <time>2022-05-06T10:11:15.000Z</time>
      </trkpt>
      <trkpt lat="40.1842196099460124969482421875" lon="-0.906865596771240234375">
        <ele>1112.199951171875</ele>
        <time>2022-05-06T10:11:16.000Z</time>
      </trkpt>
      <trkpt lat="40.18416739068925380706787109375" lon="-0.90683550573885440826416015625">
        <ele>1111.800048828125</ele>
        <time>2022-05-06T10:11:17.000Z</time>
      </trkpt>
      <trkpt lat="40.1840523071587085723876953125" lon="-0.9067799337208271026611328125">
        <ele>1111</ele>
        <time>2022-05-06T10:11:19.000Z</time>
      </trkpt>
      <trkpt lat="40.1839969865977764129638671875" lon="-0.9067514352500438690185546875">
        <ele>1110.5999755859375</ele>
        <time>2022-05-06T10:11:20.000Z</time>
      </trkpt>
      <trkpt lat="40.18394309096038341522216796875" lon="-0.90672587044537067413330078125">
        <ele>1110.199951171875</ele>
        <time>2022-05-06T10:11:21.000Z</time>
      </trkpt>
      <trkpt lat="40.18383194692432880401611328125" lon="-0.9066765010356903076171875">
        <ele>1109.4000244140625</ele>
        <time>2022-05-06T10:11:23.000Z</time>
      </trkpt>
      <trkpt lat="40.18371778540313243865966796875" lon="-0.9066230244934558868408203125">
        <ele>1109.199951171875</ele>
        <time>2022-05-06T10:11:25.000Z</time>
      </trkpt>
      <trkpt lat="40.18360345624387264251708984375" lon="-0.90656745247542858123779296875">
        <ele>1109.4000244140625</ele>
        <time>2022-05-06T10:11:27.000Z</time>
      </trkpt>
      <trkpt lat="40.18348946236073970794677734375" lon="-0.9065130539238452911376953125">
        <ele>1109.4000244140625</ele>
        <time>2022-05-06T10:11:29.000Z</time>
      </trkpt>
      <trkpt lat="40.1833706907927989959716796875" lon="-0.90645832009613513946533203125">
        <ele>1109.5999755859375</ele>
        <time>2022-05-06T10:11:31.000Z</time>
      </trkpt>
      <trkpt lat="40.1832546852529048919677734375" lon="-0.90639889240264892578125">
        <ele>1109.5999755859375</ele>
        <time>2022-05-06T10:11:33.000Z</time>
      </trkpt>
      <trkpt lat="40.18314043991267681121826171875" lon="-0.90634264983236789703369140625">
        <ele>1109.4000244140625</ele>
        <time>2022-05-06T10:11:35.000Z</time>
      </trkpt>
      <trkpt lat="40.18303097225725650787353515625" lon="-0.9062793664634227752685546875">
        <ele>1109.199951171875</ele>
        <time>2022-05-06T10:11:37.000Z</time>
      </trkpt>
      <trkpt lat="40.18297858536243438720703125" lon="-0.90624759905040264129638671875">
        <ele>1109</ele>
        <time>2022-05-06T10:11:38.000Z</time>
      </trkpt>
      <trkpt lat="40.1829264499247074127197265625" lon="-0.9062166698276996612548828125">
        <ele>1108.800048828125</ele>
        <time>2022-05-06T10:11:39.000Z</time>
      </trkpt>
      <trkpt lat="40.18282360397279262542724609375" lon="-0.906151123344898223876953125">
        <ele>1108.4000244140625</ele>
        <time>2022-05-06T10:11:41.000Z</time>
      </trkpt>
      <trkpt lat="40.18271866254508495330810546875" lon="-0.90608532540500164031982421875">
        <ele>1107.800048828125</ele>
        <time>2022-05-06T10:11:43.000Z</time>
      </trkpt>
      <trkpt lat="40.18261422403156757354736328125" lon="-0.90601743198931217193603515625">
        <ele>1107.4000244140625</ele>
        <time>2022-05-06T10:11:45.000Z</time>
      </trkpt>
      <trkpt lat="40.1825127191841602325439453125" lon="-0.90594048611819744110107421875">
        <ele>1107</ele>
        <time>2022-05-06T10:11:47.000Z</time>
      </trkpt>
      <trkpt lat="40.1824620924890041351318359375" lon="-0.90589824132621288299560546875">
        <ele>1107</ele>
        <time>2022-05-06T10:11:48.000Z</time>
      </trkpt>
      <trkpt lat="40.1824114657938480377197265625" lon="-0.90585700236260890960693359375">
        <ele>1107</ele>
        <time>2022-05-06T10:11:49.000Z</time>
      </trkpt>
      <trkpt lat="40.18231331370770931243896484375" lon="-0.90577435679733753204345703125">
        <ele>1107</ele>
        <time>2022-05-06T10:11:51.000Z</time>
      </trkpt>
      <trkpt lat="40.18221776001155376434326171875" lon="-0.905681736767292022705078125">
        <ele>1107</ele>
        <time>2022-05-06T10:11:53.000Z</time>
      </trkpt>
      <trkpt lat="40.1821237988770008087158203125" lon="-0.9055876918137073516845703125">
        <ele>1107</ele>
        <time>2022-05-06T10:11:55.000Z</time>
      </trkpt>
      <trkpt lat="40.1820788718760013580322265625" lon="-0.905540250241756439208984375">
        <ele>1107</ele>
        <time>2022-05-06T10:11:56.000Z</time>
      </trkpt>
      <trkpt lat="40.18203536979854106903076171875" lon="-0.9054936468601226806640625">
        <ele>1107</ele>
        <time>2022-05-06T10:11:57.000Z</time>
      </trkpt>
      <trkpt lat="40.18195054493844509124755859375" lon="-0.90539448894560337066650390625">
        <ele>1107</ele>
        <time>2022-05-06T10:11:59.000Z</time>
      </trkpt>
      <trkpt lat="40.1818679831922054290771484375" lon="-0.90529792942106723785400390625">
        <ele>1107</ele>
        <time>2022-05-06T10:12:01.000Z</time>
      </trkpt>
      <trkpt lat="40.18182791769504547119140625" lon="-0.90524964965879917144775390625">
        <ele>1106.800048828125</ele>
        <time>2022-05-06T10:12:02.000Z</time>
      </trkpt>
      <trkpt lat="40.18178693018853664398193359375" lon="-0.90520187281072139739990234375">
        <ele>1106.800048828125</ele>
        <time>2022-05-06T10:12:03.000Z</time>
      </trkpt>
      <trkpt lat="40.18170529045164585113525390625" lon="-0.905102379620075225830078125">
        <ele>1106.800048828125</ele>
        <time>2022-05-06T10:12:05.000Z</time>
      </trkpt>
      <trkpt lat="40.1816279254853725433349609375" lon="-0.905003137886524200439453125">
        <ele>1107.199951171875</ele>
        <time>2022-05-06T10:12:07.000Z</time>
      </trkpt>
      <trkpt lat="40.181559026241302490234375" lon="-0.904915630817413330078125">
        <ele>1107.5999755859375</ele>
        <time>2022-05-06T10:12:09.000Z</time>
      </trkpt>
      <trkpt lat="40.18148451112210750579833984375" lon="-0.90483315289020538330078125">
        <ele>1107.800048828125</ele>
        <time>2022-05-06T10:12:11.000Z</time>
      </trkpt>
      <trkpt lat="40.18141393549740314483642578125" lon="-0.9047505073249340057373046875">
        <ele>1108.199951171875</ele>
        <time>2022-05-06T10:12:13.000Z</time>
      </trkpt>
      <trkpt lat="40.18135190941393375396728515625" lon="-0.9046603180468082427978515625">
        <ele>1108.5999755859375</ele>
        <time>2022-05-06T10:12:15.000Z</time>
      </trkpt>
      <trkpt lat="40.1812872849404811859130859375" lon="-0.9045657701790332794189453125">
        <ele>1108.800048828125</ele>
        <time>2022-05-06T10:12:17.000Z</time>
      </trkpt>
      <trkpt lat="40.181219391524791717529296875" lon="-0.9044668637216091156005859375">
        <ele>1108.800048828125</ele>
        <time>2022-05-06T10:12:19.000Z</time>
      </trkpt>
      <trkpt lat="40.18115761689841747283935546875" lon="-0.90436435304582118988037109375">
        <ele>1109</ele>
        <time>2022-05-06T10:12:21.000Z</time>
      </trkpt>
      <trkpt lat="40.18112509511411190032958984375" lon="-0.9043089486658573150634765625">
        <ele>1109</ele>
        <time>2022-05-06T10:12:22.000Z</time>
      </trkpt>
      <trkpt lat="40.18109592609107494354248046875" lon="-0.90425270609557628631591796875">
        <ele>1109</ele>
        <time>2022-05-06T10:12:23.000Z</time>
      </trkpt>
      <trkpt lat="40.18104177899658679962158203125" lon="-0.90413586236536502838134765625">
        <ele>1109.199951171875</ele>
        <time>2022-05-06T10:12:25.000Z</time>
      </trkpt>
      <trkpt lat="40.180985368788242340087890625" lon="-0.90401348657906055450439453125">
        <ele>1109.199951171875</ele>
        <time>2022-05-06T10:12:27.000Z</time>
      </trkpt>
      <trkpt lat="40.180958211421966552734375" lon="-0.90395229868590831756591796875">
        <ele>1109.199951171875</ele>
        <time>2022-05-06T10:12:28.000Z</time>
      </trkpt>
      <trkpt lat="40.18093130551278591156005859375" lon="-0.9038896858692169189453125">
        <ele>1109.199951171875</ele>
        <time>2022-05-06T10:12:29.000Z</time>
      </trkpt>
      <trkpt lat="40.1808817684650421142578125" lon="-0.90375700034201145172119140625">
        <ele>1109.4000244140625</ele>
        <time>2022-05-06T10:12:31.000Z</time>
      </trkpt>
      <trkpt lat="40.18083591945469379425048828125" lon="-0.9036239795386791229248046875">
        <ele>1109.5999755859375</ele>
        <time>2022-05-06T10:12:33.000Z</time>
      </trkpt>
      <trkpt lat="40.1807883940637111663818359375" lon="-0.903490372002124786376953125">
        <ele>1109.5999755859375</ele>
        <time>2022-05-06T10:12:35.000Z</time>
      </trkpt>
      <trkpt lat="40.18076484091579914093017578125" lon="-0.90342507697641849517822265625">
        <ele>1109.5999755859375</ele>
        <time>2022-05-06T10:12:36.000Z</time>
      </trkpt>
      <trkpt lat="40.18074003048241138458251953125" lon="-0.90335936285555362701416015625">
        <ele>1109.5999755859375</ele>
        <time>2022-05-06T10:12:37.000Z</time>
      </trkpt>
      <trkpt lat="40.180693008005619049072265625" lon="-0.90322374366223812103271484375">
        <ele>1109.5999755859375</ele>
        <time>2022-05-06T10:12:39.000Z</time>
      </trkpt>
      <trkpt lat="40.18064715899527072906494140625" lon="-0.903091393411159515380859375">
        <ele>1109.5999755859375</ele>
        <time>2022-05-06T10:12:41.000Z</time>
      </trkpt>
      <trkpt lat="40.18060005269944667816162109375" lon="-0.9029631502926349639892578125">
        <ele>1109.5999755859375</ele>
        <time>2022-05-06T10:12:43.000Z</time>
      </trkpt>
      <trkpt lat="40.1805550418794155120849609375" lon="-0.90283566154539585113525390625">
        <ele>1109.800048828125</ele>
        <time>2022-05-06T10:12:45.000Z</time>
      </trkpt>
      <trkpt lat="40.18051019869744777679443359375" lon="-0.90270373038947582244873046875">
        <ele>1110.199951171875</ele>
        <time>2022-05-06T10:12:47.000Z</time>
      </trkpt>
      <trkpt lat="40.18046443350613117218017578125" lon="-0.9025671891868114471435546875">
        <ele>1110.5999755859375</ele>
        <time>2022-05-06T10:12:49.000Z</time>
      </trkpt>
      <trkpt lat="40.18041548319160938262939453125" lon="-0.90242964215576648712158203125">
        <ele>1111</ele>
        <time>2022-05-06T10:12:51.000Z</time>
      </trkpt>
      <trkpt lat="40.18036753870546817779541015625" lon="-0.90228966437280178070068359375">
        <ele>1111.199951171875</ele>
        <time>2022-05-06T10:12:53.000Z</time>
      </trkpt>
      <trkpt lat="40.1803193427622318267822265625" lon="-0.90214918367564678192138671875">
        <ele>1110.800048828125</ele>
        <time>2022-05-06T10:12:55.000Z</time>
      </trkpt>
      <trkpt lat="40.18029293976724147796630859375" lon="-0.9020791947841644287109375">
        <ele>1110.5999755859375</ele>
        <time>2022-05-06T10:12:56.000Z</time>
      </trkpt>
      <trkpt lat="40.1802680455148220062255859375" lon="-0.90200786478817462921142578125">
        <ele>1110.4000244140625</ele>
        <time>2022-05-06T10:12:57.000Z</time>
      </trkpt>
      <trkpt lat="40.18022035248577594757080078125" lon="-0.901866964995861053466796875">
        <ele>1110</ele>
        <time>2022-05-06T10:12:59.000Z</time>
      </trkpt>
      <trkpt lat="40.18017710186541080474853515625" lon="-0.90173511765897274017333984375">
        <ele>1109.5999755859375</ele>
        <time>2022-05-06T10:13:01.000Z</time>
      </trkpt>
      <trkpt lat="40.1801369525492191314697265625" lon="-0.90160251595079898834228515625">
        <ele>1109.4000244140625</ele>
        <time>2022-05-06T10:13:03.000Z</time>
      </trkpt>
      <trkpt lat="40.1800983957946300506591796875" lon="-0.9014730155467987060546875">
        <ele>1109.5999755859375</ele>
        <time>2022-05-06T10:13:05.000Z</time>
      </trkpt>
      <trkpt lat="40.180075429379940032958984375" lon="-0.90132943354547023773193359375">
        <ele>1109.800048828125</ele>
        <time>2022-05-06T10:13:07.000Z</time>
      </trkpt>
      <trkpt lat="40.1800313405692577362060546875" lon="-0.9012021124362945556640625">
        <ele>1110</ele>
        <time>2022-05-06T10:13:09.000Z</time>
      </trkpt>
      <trkpt lat="40.1799867488443851470947265625" lon="-0.90107227675616741180419921875">
        <ele>1110.199951171875</ele>
        <time>2022-05-06T10:13:11.000Z</time>
      </trkpt>
      <trkpt lat="40.179941654205322265625" lon="-0.9009400941431522369384765625">
        <ele>1110.199951171875</ele>
        <time>2022-05-06T10:13:13.000Z</time>
      </trkpt>
      <trkpt lat="40.17989027313888072967529296875" lon="-0.90080103836953639984130859375">
        <ele>1110.199951171875</ele>
        <time>2022-05-06T10:13:15.000Z</time>
      </trkpt>
      <trkpt lat="40.1798647083342075347900390625" lon="-0.90073146857321262359619140625">
        <ele>1110.199951171875</ele>
        <time>2022-05-06T10:13:16.000Z</time>
      </trkpt>
      <trkpt lat="40.17984040081501007080078125" lon="-0.9006624855101108551025390625">
        <ele>1110.199951171875</ele>
        <time>2022-05-06T10:13:17.000Z</time>
      </trkpt>
      <trkpt lat="40.179790444672107696533203125" lon="-0.90051638893783092498779296875">
        <ele>1110.4000244140625</ele>
        <time>2022-05-06T10:13:19.000Z</time>
      </trkpt>
      <trkpt lat="40.1797393150627613067626953125" lon="-0.90037263929843902587890625">
        <ele>1110</ele>
        <time>2022-05-06T10:13:21.000Z</time>
      </trkpt>
      <trkpt lat="40.17969019711017608642578125" lon="-0.90023023076355457305908203125">
        <ele>1109.4000244140625</ele>
        <time>2022-05-06T10:13:23.000Z</time>
      </trkpt>
      <trkpt lat="40.17964283935725688934326171875" lon="-0.90008966624736785888671875">
        <ele>1108.800048828125</ele>
        <time>2022-05-06T10:13:25.000Z</time>
      </trkpt>
      <trkpt lat="40.179591290652751922607421875" lon="-0.89995278976857662200927734375">
        <ele>1108.199951171875</ele>
        <time>2022-05-06T10:13:27.000Z</time>
      </trkpt>
      <trkpt lat="40.17956413328647613525390625" lon="-0.899884141981601715087890625">
        <ele>1107.800048828125</ele>
        <time>2022-05-06T10:13:28.000Z</time>
      </trkpt>
      <trkpt lat="40.179538317024707794189453125" lon="-0.89981415309011936187744140625">
        <ele>1107.5999755859375</ele>
        <time>2022-05-06T10:13:29.000Z</time>
      </trkpt>
      <trkpt lat="40.1794891990721225738525390625" lon="-0.8996727503836154937744140625">
        <ele>1107.4000244140625</ele>
        <time>2022-05-06T10:13:31.000Z</time>
      </trkpt>
      <trkpt lat="40.17943806946277618408203125" lon="-0.8995336107909679412841796875">
        <ele>1107.199951171875</ele>
        <time>2022-05-06T10:13:33.000Z</time>
      </trkpt>
      <trkpt lat="40.179391801357269287109375" lon="-0.8993954770267009735107421875">
        <ele>1107</ele>
        <time>2022-05-06T10:13:35.000Z</time>
      </trkpt>
      <trkpt lat="40.17934360541403293609619140625" lon="-0.89926077984273433685302734375">
        <ele>1106.800048828125</ele>
        <time>2022-05-06T10:13:37.000Z</time>
      </trkpt>
      <trkpt lat="40.1793161965906620025634765625" lon="-0.8991939760744571685791015625">
        <ele>1106.800048828125</ele>
        <time>2022-05-06T10:13:38.000Z</time>
      </trkpt>
      <trkpt lat="40.17928644083440303802490234375" lon="-0.89912599883973598480224609375">
        <ele>1106.5999755859375</ele>
        <time>2022-05-06T10:13:39.000Z</time>
      </trkpt>
      <trkpt lat="40.179260037839412689208984375" lon="-0.89905441738665103912353515625">
        <ele>1106.4000244140625</ele>
        <time>2022-05-06T10:13:40.000Z</time>
      </trkpt>
      <trkpt lat="40.17922994680702686309814453125" lon="-0.89898434467613697052001953125">
        <ele>1106.199951171875</ele>
        <time>2022-05-06T10:13:41.000Z</time>
      </trkpt>
      <trkpt lat="40.17916523851454257965087890625" lon="-0.89883833192288875579833984375">
        <ele>1106</ele>
        <time>2022-05-06T10:13:43.000Z</time>
      </trkpt>
      <trkpt lat="40.17910371534526348114013671875" lon="-0.89869558811187744140625">
        <ele>1106</ele>
        <time>2022-05-06T10:13:45.000Z</time>
      </trkpt>
      <trkpt lat="40.179048143327236175537109375" lon="-0.8985515870153903961181640625">
        <ele>1105.800048828125</ele>
        <time>2022-05-06T10:13:47.000Z</time>
      </trkpt>
      <trkpt lat="40.179014615714550018310546875" lon="-0.898485369980335235595703125">
        <ele>1105.800048828125</ele>
        <time>2022-05-06T10:13:48.000Z</time>
      </trkpt>
      <trkpt lat="40.178987123072147369384765625" lon="-0.89841194450855255126953125">
        <ele>1105.5999755859375</ele>
        <time>2022-05-06T10:13:49.000Z</time>
      </trkpt>
      <trkpt lat="40.1789195649325847625732421875" lon="-0.898274481296539306640625">
        <ele>1105.4000244140625</ele>
        <time>2022-05-06T10:13:51.000Z</time>
      </trkpt>
      <trkpt lat="40.17885125242173671722412109375" lon="-0.8981485851109027862548828125">
        <ele>1105.199951171875</ele>
        <time>2022-05-06T10:13:53.000Z</time>
      </trkpt>
      <trkpt lat="40.1787790842354297637939453125" lon="-0.898022353649139404296875">
        <ele>1104.800048828125</ele>
        <time>2022-05-06T10:13:55.000Z</time>
      </trkpt>
      <trkpt lat="40.17874228768050670623779296875" lon="-0.897962339222431182861328125">
        <ele>1104.5999755859375</ele>
        <time>2022-05-06T10:13:56.000Z</time>
      </trkpt>
      <trkpt lat="40.17870046198368072509765625" lon="-0.89789855293929576873779296875">
        <ele>1104.4000244140625</ele>
        <time>2022-05-06T10:13:57.000Z</time>
      </trkpt>
      <trkpt lat="40.17865888774394989013671875" lon="-0.89783384464681148529052734375">
        <ele>1104.4000244140625</ele>
        <time>2022-05-06T10:13:58.000Z</time>
      </trkpt>
      <trkpt lat="40.1786179840564727783203125" lon="-0.8977710641920566558837890625">
        <ele>1104.199951171875</ele>
        <time>2022-05-06T10:13:59.000Z</time>
      </trkpt>
      <trkpt lat="40.17853056080639362335205078125" lon="-0.89764893986284732818603515625">
        <ele>1103.800048828125</ele>
        <time>2022-05-06T10:14:01.000Z</time>
      </trkpt>
      <trkpt lat="40.17843534238636493682861328125" lon="-0.89752304367721080780029296875">
        <ele>1103.4000244140625</ele>
        <time>2022-05-06T10:14:03.000Z</time>
      </trkpt>
      <trkpt lat="40.17833526246249675750732421875" lon="-0.89739765040576457977294921875">
        <ele>1103.199951171875</ele>
        <time>2022-05-06T10:14:05.000Z</time>
      </trkpt>
      <trkpt lat="40.178234763443470001220703125" lon="-0.897268317639827728271484375">
        <ele>1102.800048828125</ele>
        <time>2022-05-06T10:14:07.000Z</time>
      </trkpt>
      <trkpt lat="40.17813317477703094482421875" lon="-0.8971373923122882843017578125">
        <ele>1102.5999755859375</ele>
        <time>2022-05-06T10:14:09.000Z</time>
      </trkpt>
      <trkpt lat="40.17808221280574798583984375" lon="-0.8970743604004383087158203125">
        <ele>1102.4000244140625</ele>
        <time>2022-05-06T10:14:10.000Z</time>
      </trkpt>
      <trkpt lat="40.17803150229156017303466796875" lon="-0.8970103226602077484130859375">
        <ele>1102.199951171875</ele>
        <time>2022-05-06T10:14:11.000Z</time>
      </trkpt>
      <trkpt lat="40.1779274828732013702392578125" lon="-0.89688551612198352813720703125">
        <ele>1101.800048828125</ele>
        <time>2022-05-06T10:14:13.000Z</time>
      </trkpt>
      <trkpt lat="40.1778258942067623138427734375" lon="-0.896750651299953460693359375">
        <ele>1101.800048828125</ele>
        <time>2022-05-06T10:14:15.000Z</time>
      </trkpt>
      <trkpt lat="40.17772304825484752655029296875" lon="-0.89662333019077777862548828125">
        <ele>1101.5999755859375</ele>
        <time>2022-05-06T10:14:17.000Z</time>
      </trkpt>
      <trkpt lat="40.17767175100743770599365234375" lon="-0.89655828662216663360595703125">
        <ele>1101.199951171875</ele>
        <time>2022-05-06T10:14:18.000Z</time>
      </trkpt>
      <trkpt lat="40.17762129195034503936767578125" lon="-0.896495841443538665771484375">
        <ele>1101</ele>
        <time>2022-05-06T10:14:19.000Z</time>
      </trkpt>
      <trkpt lat="40.177519619464874267578125" lon="-0.8963679336011409759521484375">
        <ele>1100.5999755859375</ele>
        <time>2022-05-06T10:14:21.000Z</time>
      </trkpt>
      <trkpt lat="40.17741409130394458770751953125" lon="-0.8962391875684261322021484375">
        <ele>1100.5999755859375</ele>
        <time>2022-05-06T10:14:23.000Z</time>
      </trkpt>
      <trkpt lat="40.17730998806655406951904296875" lon="-0.89610935188829898834228515625">
        <ele>1100.5999755859375</ele>
        <time>2022-05-06T10:14:25.000Z</time>
      </trkpt>
      <trkpt lat="40.1772572658956050872802734375" lon="-0.8960433863103389739990234375">
        <ele>1100.5999755859375</ele>
        <time>2022-05-06T10:14:26.000Z</time>
      </trkpt>
      <trkpt lat="40.17720504663884639739990234375" lon="-0.89598027057945728302001953125">
        <ele>1100.4000244140625</ele>
        <time>2022-05-06T10:14:27.000Z</time>
      </trkpt>
      <trkpt lat="40.17709675244987010955810546875" lon="-0.89585437439382076263427734375">
        <ele>1100.4000244140625</ele>
        <time>2022-05-06T10:14:29.000Z</time>
      </trkpt>
      <trkpt lat="40.1769912242889404296875" lon="-0.8957252092659473419189453125">
        <ele>1100.4000244140625</ele>
        <time>2022-05-06T10:14:31.000Z</time>
      </trkpt>
      <trkpt lat="40.176886618137359619140625" lon="-0.89559269137680530548095703125">
        <ele>1100.4000244140625</ele>
        <time>2022-05-06T10:14:33.000Z</time>
      </trkpt>
      <trkpt lat="40.17683573998510837554931640625" lon="-0.89552563615143299102783203125">
        <ele>1100.4000244140625</ele>
        <time>2022-05-06T10:14:34.000Z</time>
      </trkpt>
      <trkpt lat="40.1767855323851108551025390625" lon="-0.89545958675444126129150390625">
        <ele>1100.4000244140625</ele>
        <time>2022-05-06T10:14:35.000Z</time>
      </trkpt>
      <trkpt lat="40.176682770252227783203125" lon="-0.89533117599785327911376953125">
        <ele>1100.5999755859375</ele>
        <time>2022-05-06T10:14:37.000Z</time>
      </trkpt>
      <trkpt lat="40.1765768229961395263671875" lon="-0.8952046930789947509765625">
        <ele>1100.4000244140625</ele>
        <time>2022-05-06T10:14:39.000Z</time>
      </trkpt>
      <trkpt lat="40.17652519047260284423828125" lon="-0.89514140971004962921142578125">
        <ele>1100</ele>
        <time>2022-05-06T10:14:40.000Z</time>
      </trkpt>
      <trkpt lat="40.1764740608632564544677734375" lon="-0.89507837779819965362548828125">
        <ele>1099.800048828125</ele>
        <time>2022-05-06T10:14:41.000Z</time>
      </trkpt>
      <trkpt lat="40.1764237694442272186279296875" lon="-0.89501450769603252410888671875">
        <ele>1099.4000244140625</ele>
        <time>2022-05-06T10:14:42.000Z</time>
      </trkpt>
      <trkpt lat="40.17637473531067371368408203125" lon="-0.89495181106030941009521484375">
        <ele>1099</ele>
        <time>2022-05-06T10:14:43.000Z</time>
      </trkpt>
      <trkpt lat="40.1762728951871395111083984375" lon="-0.8948259986937046051025390625">
        <ele>1098.4000244140625</ele>
        <time>2022-05-06T10:14:45.000Z</time>
      </trkpt>
      <trkpt lat="40.17617038451135158538818359375" lon="-0.89470001868903636932373046875">
        <ele>1097.800048828125</ele>
        <time>2022-05-06T10:14:47.000Z</time>
      </trkpt>
      <trkpt lat="40.17612026073038578033447265625" lon="-0.89464134536683559417724609375">
        <ele>1097.4000244140625</ele>
        <time>2022-05-06T10:14:48.000Z</time>
      </trkpt>
      <trkpt lat="40.17606762237846851348876953125" lon="-0.89457797817885875701904296875">
        <ele>1097</ele>
        <time>2022-05-06T10:14:49.000Z</time>
      </trkpt>
      <trkpt lat="40.17596687190234661102294921875" lon="-0.89445509947836399078369140625">
        <ele>1096.199951171875</ele>
        <time>2022-05-06T10:14:51.000Z</time>
      </trkpt>
      <trkpt lat="40.17586402595043182373046875" lon="-0.89433691464364528656005859375">
        <ele>1095.5999755859375</ele>
        <time>2022-05-06T10:14:53.000Z</time>
      </trkpt>
      <trkpt lat="40.1757587492465972900390625" lon="-0.89421235956251621246337890625">
        <ele>1095.199951171875</ele>
        <time>2022-05-06T10:14:55.000Z</time>
      </trkpt>
      <trkpt lat="40.17565892077982425689697265625" lon="-0.89408227242529392242431640625">
        <ele>1094.5999755859375</ele>
        <time>2022-05-06T10:14:57.000Z</time>
      </trkpt>
      <trkpt lat="40.17555951140820980072021484375" lon="-0.89395855553448200225830078125">
        <ele>1094.199951171875</ele>
        <time>2022-05-06T10:14:59.000Z</time>
      </trkpt>
      <trkpt lat="40.1754611916840076446533203125" lon="-0.8938352577388286590576171875">
        <ele>1093.800048828125</ele>
        <time>2022-05-06T10:15:01.000Z</time>
      </trkpt>
      <trkpt lat="40.17541148699820041656494140625" lon="-0.89377515949308872222900390625">
        <ele>1093.5999755859375</ele>
        <time>2022-05-06T10:15:02.000Z</time>
      </trkpt>
      <trkpt lat="40.1753629557788372039794921875" lon="-0.89371849782764911651611328125">
        <ele>1093.4000244140625</ele>
        <time>2022-05-06T10:15:03.000Z</time>
      </trkpt>
      <trkpt lat="40.1752650551497936248779296875" lon="-0.893604755401611328125">
        <ele>1093</ele>
        <time>2022-05-06T10:15:05.000Z</time>
      </trkpt>
      <trkpt lat="40.1751705072820186614990234375" lon="-0.89348497800529003143310546875">
        <ele>1092.5999755859375</ele>
        <time>2022-05-06T10:15:07.000Z</time>
      </trkpt>
      <trkpt lat="40.175077132880687713623046875" lon="-0.8933621831238269805908203125">
        <ele>1092.199951171875</ele>
        <time>2022-05-06T10:15:09.000Z</time>
      </trkpt>
      <trkpt lat="40.174980573356151580810546875" lon="-0.89324391447007656097412109375">
        <ele>1092.4000244140625</ele>
        <time>2022-05-06T10:15:11.000Z</time>
      </trkpt>
      <trkpt lat="40.17488108016550540924072265625" lon="-0.8931261487305164337158203125">
        <ele>1092.4000244140625</ele>
        <time>2022-05-06T10:15:13.000Z</time>
      </trkpt>
      <trkpt lat="40.17483179457485675811767578125" lon="-0.89306102134287357330322265625">
        <ele>1092.4000244140625</ele>
        <time>2022-05-06T10:15:14.000Z</time>
      </trkpt>
      <trkpt lat="40.1747805811464786529541015625" lon="-0.89299924671649932861328125">
        <ele>1092.4000244140625</ele>
        <time>2022-05-06T10:15:15.000Z</time>
      </trkpt>
      <trkpt lat="40.17467916011810302734375" lon="-0.892878882586956024169921875">
        <ele>1092.4000244140625</ele>
        <time>2022-05-06T10:15:17.000Z</time>
      </trkpt>
      <trkpt lat="40.17458251677453517913818359375" lon="-0.89275776408612728118896484375">
        <ele>1092.199951171875</ele>
        <time>2022-05-06T10:15:19.000Z</time>
      </trkpt>
      <trkpt lat="40.17453256063163280487060546875" lon="-0.89269925840198993682861328125">
        <ele>1092.199951171875</ele>
        <time>2022-05-06T10:15:20.000Z</time>
      </trkpt>
      <trkpt lat="40.17448595724999904632568359375" lon="-0.8926413394510746002197265625">
        <ele>1092.199951171875</ele>
        <time>2022-05-06T10:15:21.000Z</time>
      </trkpt>
      <trkpt lat="40.174396522343158721923828125" lon="-0.89252055622637271881103515625">
        <ele>1092</ele>
        <time>2022-05-06T10:15:23.000Z</time>
      </trkpt>
      <trkpt lat="40.17430172301828861236572265625" lon="-0.89239885099232196807861328125">
        <ele>1092</ele>
        <time>2022-05-06T10:15:25.000Z</time>
      </trkpt>
      <trkpt lat="40.1742513477802276611328125" lon="-0.89233967475593090057373046875">
        <ele>1092</ele>
        <time>2022-05-06T10:15:26.000Z</time>
      </trkpt>
      <trkpt lat="40.174202732741832733154296875" lon="-0.89227932505309581756591796875">
        <ele>1092</ele>
        <time>2022-05-06T10:15:27.000Z</time>
      </trkpt>
      <trkpt lat="40.17410860396921634674072265625" lon="-0.89215476997196674346923828125">
        <ele>1092.199951171875</ele>
        <time>2022-05-06T10:15:29.000Z</time>
      </trkpt>
      <trkpt lat="40.1740111224353313446044921875" lon="-0.892031975090503692626953125">
        <ele>1092.199951171875</ele>
        <time>2022-05-06T10:15:31.000Z</time>
      </trkpt>
      <trkpt lat="40.17396309413015842437744140625" lon="-0.891971625387668609619140625">
        <ele>1092.199951171875</ele>
        <time>2022-05-06T10:15:32.000Z</time>
      </trkpt>
      <trkpt lat="40.173914395272731781005859375" lon="-0.89191135950386524200439453125">
        <ele>1092</ele>
        <time>2022-05-06T10:15:33.000Z</time>
      </trkpt>
      <trkpt lat="40.17381674610078334808349609375" lon="-0.89178278110921382904052734375">
        <ele>1091.800048828125</ele>
        <time>2022-05-06T10:15:35.000Z</time>
      </trkpt>
      <trkpt lat="40.1737127266824245452880859375" lon="-0.89165872894227504730224609375">
        <ele>1091.5999755859375</ele>
        <time>2022-05-06T10:15:37.000Z</time>
      </trkpt>
      <trkpt lat="40.17360803671181201934814453125" lon="-0.89152914471924304962158203125">
        <ele>1091.199951171875</ele>
        <time>2022-05-06T10:15:39.000Z</time>
      </trkpt>
      <trkpt lat="40.173554308712482452392578125" lon="-0.89146678335964679718017578125">
        <ele>1091</ele>
        <time>2022-05-06T10:15:40.000Z</time>
      </trkpt>
      <trkpt lat="40.173502005636692047119140625" lon="-0.8914055116474628448486328125">
        <ele>1090.5999755859375</ele>
        <time>2022-05-06T10:15:41.000Z</time>
      </trkpt>
      <trkpt lat="40.17339882440865039825439453125" lon="-0.89128305204212665557861328125">
        <ele>1090.199951171875</ele>
        <time>2022-05-06T10:15:43.000Z</time>
      </trkpt>
      <trkpt lat="40.173348449170589447021484375" lon="-0.89121482335031032562255859375">
        <ele>1089.800048828125</ele>
        <time>2022-05-06T10:15:44.000Z</time>
      </trkpt>
      <trkpt lat="40.17329840920865535736083984375" lon="-0.89114709757268428802490234375">
        <ele>1089.5999755859375</ele>
        <time>2022-05-06T10:15:45.000Z</time>
      </trkpt>
      <trkpt lat="40.1731960661709308624267578125" lon="-0.89102053083479404449462890625">
        <ele>1089</ele>
        <time>2022-05-06T10:15:47.000Z</time>
      </trkpt>
      <trkpt lat="40.17309590242803096771240234375" lon="-0.89089572429656982421875">
        <ele>1088.800048828125</ele>
        <time>2022-05-06T10:15:49.000Z</time>
      </trkpt>
      <trkpt lat="40.17299766652286052703857421875" lon="-0.8907704986631870269775390625">
        <ele>1088.4000244140625</ele>
        <time>2022-05-06T10:15:51.000Z</time>
      </trkpt>
      <trkpt lat="40.17290043644607067108154296875" lon="-0.89064720086753368377685546875">
        <ele>1088.4000244140625</ele>
        <time>2022-05-06T10:15:53.000Z</time>
      </trkpt>
      <trkpt lat="40.17280421219766139984130859375" lon="-0.89052532799541950225830078125">
        <ele>1088.199951171875</ele>
        <time>2022-05-06T10:15:55.000Z</time>
      </trkpt>
      <trkpt lat="40.1727075688540935516357421875" lon="-0.89039884507656097412109375">
        <ele>1088</ele>
        <time>2022-05-06T10:15:57.000Z</time>
      </trkpt>
      <trkpt lat="40.17260723747313022613525390625" lon="-0.89027303270995616912841796875">
        <ele>1087.800048828125</ele>
        <time>2022-05-06T10:15:59.000Z</time>
      </trkpt>
      <trkpt lat="40.17250631935894489288330078125" lon="-0.890146382153034210205078125">
        <ele>1087.5999755859375</ele>
        <time>2022-05-06T10:16:01.000Z</time>
      </trkpt>
      <trkpt lat="40.17240129411220550537109375" lon="-0.8900124393403530120849609375">
        <ele>1087.4000244140625</ele>
        <time>2022-05-06T10:16:03.000Z</time>
      </trkpt>
      <trkpt lat="40.1722971908748149871826171875" lon="-0.88988428004086017608642578125">
        <ele>1087.199951171875</ele>
        <time>2022-05-06T10:16:05.000Z</time>
      </trkpt>
      <trkpt lat="40.1722458936274051666259765625" lon="-0.8898220025002956390380859375">
        <ele>1087</ele>
        <time>2022-05-06T10:16:06.000Z</time>
      </trkpt>
      <trkpt lat="40.17219535075128078460693359375" lon="-0.889760814607143402099609375">
        <ele>1087</ele>
        <time>2022-05-06T10:16:07.000Z</time>
      </trkpt>
      <trkpt lat="40.172146148979663848876953125" lon="-0.88969853706657886505126953125">
        <ele>1086.800048828125</ele>
        <time>2022-05-06T10:16:08.000Z</time>
      </trkpt>
      <trkpt lat="40.17209694720804691314697265625" lon="-0.889637768268585205078125">
        <ele>1086.5999755859375</ele>
        <time>2022-05-06T10:16:09.000Z</time>
      </trkpt>
      <trkpt lat="40.1719954423606395721435546875" lon="-0.88951312936842441558837890625">
        <ele>1086.4000244140625</ele>
        <time>2022-05-06T10:16:11.000Z</time>
      </trkpt>
      <trkpt lat="40.17189678736031055450439453125" lon="-0.88938890956342220306396484375">
        <ele>1086</ele>
        <time>2022-05-06T10:16:13.000Z</time>
      </trkpt>
      <trkpt lat="40.17184875905513763427734375" lon="-0.88932872749865055084228515625">
        <ele>1085.800048828125</ele>
        <time>2022-05-06T10:16:14.000Z</time>
      </trkpt>
      <trkpt lat="40.1718006469309329986572265625" lon="-0.8892698027193546295166015625">
        <ele>1085.800048828125</ele>
        <time>2022-05-06T10:16:15.000Z</time>
      </trkpt>
      <trkpt lat="40.1717054285109043121337890625" lon="-0.889149606227874755859375">
        <ele>1085.4000244140625</ele>
        <time>2022-05-06T10:16:17.000Z</time>
      </trkpt>
      <trkpt lat="40.17160744406282901763916015625" lon="-0.88903251104056835174560546875">
        <ele>1085</ele>
        <time>2022-05-06T10:16:19.000Z</time>
      </trkpt>
      <trkpt lat="40.17151482403278350830078125" lon="-0.88891399092972278594970703125">
        <ele>1084.800048828125</ele>
        <time>2022-05-06T10:16:21.000Z</time>
      </trkpt>
      <trkpt lat="40.1714214496314525604248046875" lon="-0.88879597373306751251220703125">
        <ele>1084.5999755859375</ele>
        <time>2022-05-06T10:16:23.000Z</time>
      </trkpt>
      <trkpt lat="40.171325393021106719970703125" lon="-0.88867544196546077728271484375">
        <ele>1084.4000244140625</ele>
        <time>2022-05-06T10:16:25.000Z</time>
      </trkpt>
      <trkpt lat="40.1712300069630146026611328125" lon="-0.88854652829468250274658203125">
        <ele>1084.199951171875</ele>
        <time>2022-05-06T10:16:27.000Z</time>
      </trkpt>
      <trkpt lat="40.17118197865784168243408203125" lon="-0.888485424220561981201171875">
        <ele>1084.199951171875</ele>
        <time>2022-05-06T10:16:28.000Z</time>
      </trkpt>
      <trkpt lat="40.17113386653363704681396484375" lon="-0.88842700235545635223388671875">
        <ele>1084</ele>
        <time>2022-05-06T10:16:29.000Z</time>
      </trkpt>
      <trkpt lat="40.17103512771427631378173828125" lon="-0.88830814696848392486572265625">
        <ele>1083.800048828125</ele>
        <time>2022-05-06T10:16:31.000Z</time>
      </trkpt>
      <trkpt lat="40.17093471251428127288818359375" lon="-0.88818870484828948974609375">
        <ele>1083.4000244140625</ele>
        <time>2022-05-06T10:16:33.000Z</time>
      </trkpt>
      <trkpt lat="40.17083496786653995513916015625" lon="-0.8880654908716678619384765625">
        <ele>1083</ele>
        <time>2022-05-06T10:16:35.000Z</time>
      </trkpt>
      <trkpt lat="40.1707327924668788909912109375" lon="-0.88794437237083911895751953125">
        <ele>1082.800048828125</ele>
        <time>2022-05-06T10:16:37.000Z</time>
      </trkpt>
      <trkpt lat="40.17062558792531490325927734375" lon="-0.88782216422259807586669921875">
        <ele>1082.5999755859375</ele>
        <time>2022-05-06T10:16:39.000Z</time>
      </trkpt>
      <trkpt lat="40.1705203950405120849609375" lon="-0.8876909874379634857177734375">
        <ele>1082.199951171875</ele>
        <time>2022-05-06T10:16:41.000Z</time>
      </trkpt>
      <trkpt lat="40.17041520215570926666259765625" lon="-0.887559391558170318603515625">
        <ele>1081.800048828125</ele>
        <time>2022-05-06T10:16:43.000Z</time>
      </trkpt>
      <trkpt lat="40.170309506356716156005859375" lon="-0.88742570020258426666259765625">
        <ele>1081.5999755859375</ele>
        <time>2022-05-06T10:16:45.000Z</time>
      </trkpt>
      <trkpt lat="40.1702560298144817352294921875" lon="-0.8873573876917362213134765625">
        <ele>1081.4000244140625</ele>
        <time>2022-05-06T10:16:46.000Z</time>
      </trkpt>
      <trkpt lat="40.17020330764353275299072265625" lon="-0.88728974573314189910888671875">
        <ele>1081.199951171875</ele>
        <time>2022-05-06T10:16:47.000Z</time>
      </trkpt>
      <trkpt lat="40.1700997911393642425537109375" lon="-0.88715764693915843963623046875">
        <ele>1080.800048828125</ele>
        <time>2022-05-06T10:16:49.000Z</time>
      </trkpt>
      <trkpt lat="40.170049332082271575927734375" lon="-0.88709159754216670989990234375">
        <ele>1080.4000244140625</ele>
        <time>2022-05-06T10:16:50.000Z</time>
      </trkpt>
      <trkpt lat="40.16999912448227405548095703125" lon="-0.8870257996022701263427734375">
        <ele>1080.199951171875</ele>
        <time>2022-05-06T10:16:51.000Z</time>
      </trkpt>
      <trkpt lat="40.169897787272930145263671875" lon="-0.88689479045569896697998046875">
        <ele>1079.800048828125</ele>
        <time>2022-05-06T10:16:53.000Z</time>
      </trkpt>
      <trkpt lat="40.1697953604161739349365234375" lon="-0.88676805607974529266357421875">
        <ele>1079.4000244140625</ele>
        <time>2022-05-06T10:16:55.000Z</time>
      </trkpt>
      <trkpt lat="40.169693268835544586181640625" lon="-0.88664551265537738800048828125">
        <ele>1078.800048828125</ele>
        <time>2022-05-06T10:16:57.000Z</time>
      </trkpt>
      <trkpt lat="40.16964264214038848876953125" lon="-0.88658206164836883544921875">
        <ele>1078.5999755859375</ele>
        <time>2022-05-06T10:16:58.000Z</time>
      </trkpt>
      <trkpt lat="40.16959109343588352203369140625" lon="-0.88651710189878940582275390625">
        <ele>1078.4000244140625</ele>
        <time>2022-05-06T10:16:59.000Z</time>
      </trkpt>
      <trkpt lat="40.16948497854173183441162109375" lon="-0.8863874338567256927490234375">
        <ele>1078</ele>
        <time>2022-05-06T10:17:01.000Z</time>
      </trkpt>
      <trkpt lat="40.16943468712270259857177734375" lon="-0.88632448576390743255615234375">
        <ele>1077.5999755859375</ele>
        <time>2022-05-06T10:17:02.000Z</time>
      </trkpt>
      <trkpt lat="40.1693839766085147857666015625" lon="-0.886261872947216033935546875">
        <ele>1077.4000244140625</ele>
        <time>2022-05-06T10:17:03.000Z</time>
      </trkpt>
      <trkpt lat="40.16928129829466342926025390625" lon="-0.8861356414854526519775390625">
        <ele>1076.800048828125</ele>
        <time>2022-05-06T10:17:05.000Z</time>
      </trkpt>
      <trkpt lat="40.1691819727420806884765625" lon="-0.886008404195308685302734375">
        <ele>1076.199951171875</ele>
        <time>2022-05-06T10:17:07.000Z</time>
      </trkpt>
      <trkpt lat="40.16908599995076656341552734375" lon="-0.88589047081768512725830078125">
        <ele>1076</ele>
        <time>2022-05-06T10:17:09.000Z</time>
      </trkpt>
      <trkpt lat="40.16898876987397670745849609375" lon="-0.8857675082981586456298828125">
        <ele>1076</ele>
        <time>2022-05-06T10:17:11.000Z</time>
      </trkpt>
      <trkpt lat="40.16889589838683605194091796875" lon="-0.8856481499969959259033203125">
        <ele>1076</ele>
        <time>2022-05-06T10:17:13.000Z</time>
      </trkpt>
      <trkpt lat="40.168808139860630035400390625" lon="-0.88553474284708499908447265625">
        <ele>1075.800048828125</ele>
        <time>2022-05-06T10:17:15.000Z</time>
      </trkpt>
      <trkpt lat="40.1687218062579631805419921875" lon="-0.88542259298264980316162109375">
        <ele>1076.199951171875</ele>
        <time>2022-05-06T10:17:17.000Z</time>
      </trkpt>
      <trkpt lat="40.1686379872262477874755859375" lon="-0.8853192441165447235107421875">
        <ele>1076.4000244140625</ele>
        <time>2022-05-06T10:17:19.000Z</time>
      </trkpt>
      <trkpt lat="40.16855022870004177093505859375" lon="-0.8852156437933444976806640625">
        <ele>1076.5999755859375</ele>
        <time>2022-05-06T10:17:21.000Z</time>
      </trkpt>
      <trkpt lat="40.1685072295367717742919921875" lon="-0.88516074232757091522216796875">
        <ele>1076.800048828125</ele>
        <time>2022-05-06T10:17:22.000Z</time>
      </trkpt>
      <trkpt lat="40.16846322454512119293212890625" lon="-0.88510374538600444793701171875">
        <ele>1077</ele>
        <time>2022-05-06T10:17:23.000Z</time>
      </trkpt>
      <trkpt lat="40.1683764718472957611083984375" lon="-0.88498958386480808258056640625">
        <ele>1077.199951171875</ele>
        <time>2022-05-06T10:17:25.000Z</time>
      </trkpt>
      <trkpt lat="40.168287456035614013671875" lon="-0.8848790265619754791259765625">
        <ele>1077.5999755859375</ele>
        <time>2022-05-06T10:17:27.000Z</time>
      </trkpt>
      <trkpt lat="40.16820036806166172027587890625" lon="-0.88477291166782379150390625">
        <ele>1077.800048828125</ele>
        <time>2022-05-06T10:17:29.000Z</time>
      </trkpt>
      <trkpt lat="40.16811302863061428070068359375" lon="-0.8846671320497989654541015625">
        <ele>1078</ele>
        <time>2022-05-06T10:17:31.000Z</time>
      </trkpt>
      <trkpt lat="40.16802728176116943359375" lon="-0.88456101715564727783203125">
        <ele>1078.4000244140625</ele>
        <time>2022-05-06T10:17:33.000Z</time>
      </trkpt>
      <trkpt lat="40.167943127453327178955078125" lon="-0.88445884175598621368408203125">
        <ele>1078.5999755859375</ele>
        <time>2022-05-06T10:17:35.000Z</time>
      </trkpt>
      <trkpt lat="40.16786324791610240936279296875" lon="-0.884353481233119964599609375">
        <ele>1078.5999755859375</ele>
        <time>2022-05-06T10:17:37.000Z</time>
      </trkpt>
      <trkpt lat="40.16778294928371906280517578125" lon="-0.88425658643245697021484375">
        <ele>1078.5999755859375</ele>
        <time>2022-05-06T10:17:39.000Z</time>
      </trkpt>
      <trkpt lat="40.16770482994616031646728515625" lon="-0.88416128419339656829833984375">
        <ele>1078.5999755859375</ele>
        <time>2022-05-06T10:17:41.000Z</time>
      </trkpt>
      <trkpt lat="40.1676271297037601470947265625" lon="-0.88406640104949474334716796875">
        <ele>1078.4000244140625</ele>
        <time>2022-05-06T10:17:43.000Z</time>
      </trkpt>
      <trkpt lat="40.16754825599491596221923828125" lon="-0.8839721046388149261474609375">
        <ele>1078.199951171875</ele>
        <time>2022-05-06T10:17:45.000Z</time>
      </trkpt>
      <trkpt lat="40.1674718968570232391357421875" lon="-0.88387680239975452423095703125">
        <ele>1078</ele>
        <time>2022-05-06T10:17:47.000Z</time>
      </trkpt>
      <trkpt lat="40.16739629209041595458984375" lon="-0.88378049433231353759765625">
        <ele>1077.800048828125</ele>
        <time>2022-05-06T10:17:49.000Z</time>
      </trkpt>
      <trkpt lat="40.16732110641896724700927734375" lon="-0.883686281740665435791015625">
        <ele>1077.800048828125</ele>
        <time>2022-05-06T10:17:51.000Z</time>
      </trkpt>
      <trkpt lat="40.16724499873816967010498046875" lon="-0.88359667919576168060302734375">
        <ele>1077.800048828125</ele>
        <time>2022-05-06T10:17:53.000Z</time>
      </trkpt>
      <trkpt lat="40.1671761833131313323974609375" lon="-0.883509255945682525634765625">
        <ele>1078</ele>
        <time>2022-05-06T10:17:55.000Z</time>
      </trkpt>
      <trkpt lat="40.16710619442164897918701171875" lon="-0.88341697119176387786865234375">
        <ele>1078</ele>
        <time>2022-05-06T10:17:57.000Z</time>
      </trkpt>
      <trkpt lat="40.16703310422599315643310546875" lon="-0.88332409970462322235107421875">
        <ele>1078.199951171875</ele>
        <time>2022-05-06T10:17:59.000Z</time>
      </trkpt>
      <trkpt lat="40.16699387691915035247802734375" lon="-0.88327749632298946380615234375">
        <ele>1078.4000244140625</ele>
        <time>2022-05-06T10:18:00.000Z</time>
      </trkpt>
      <trkpt lat="40.166954062879085540771484375" lon="-0.88323223404586315155029296875">
        <ele>1078.5999755859375</ele>
        <time>2022-05-06T10:18:01.000Z</time>
      </trkpt>
      <trkpt lat="40.16688038595020771026611328125" lon="-0.88314321823418140411376953125">
        <ele>1078.199951171875</ele>
        <time>2022-05-06T10:18:03.000Z</time>
      </trkpt>
      <trkpt lat="40.16680628992617130279541015625" lon="-0.8830537833273410797119140625">
        <ele>1078</ele>
        <time>2022-05-06T10:18:05.000Z</time>
      </trkpt>
      <trkpt lat="40.1667363010346889495849609375" lon="-0.88295998983085155487060546875">
        <ele>1077.4000244140625</ele>
        <time>2022-05-06T10:18:07.000Z</time>
      </trkpt>
      <trkpt lat="40.166663713753223419189453125" lon="-0.88286762125790119171142578125">
        <ele>1076.800048828125</ele>
        <time>2022-05-06T10:18:09.000Z</time>
      </trkpt>
      <trkpt lat="40.16659406013786792755126953125" lon="-0.882775001227855682373046875">
        <ele>1076.199951171875</ele>
        <time>2022-05-06T10:18:11.000Z</time>
      </trkpt>
      <trkpt lat="40.16652532853186130523681640625" lon="-0.88268590159714221954345703125">
        <ele>1076</ele>
        <time>2022-05-06T10:18:13.000Z</time>
      </trkpt>
      <trkpt lat="40.166490375995635986328125" lon="-0.88264030404388904571533203125">
        <ele>1076</ele>
        <time>2022-05-06T10:18:14.000Z</time>
      </trkpt>
      <trkpt lat="40.16645559109747409820556640625" lon="-0.88259554468095302581787109375">
        <ele>1075.800048828125</ele>
        <time>2022-05-06T10:18:15.000Z</time>
      </trkpt>
      <trkpt lat="40.16638576984405517578125" lon="-0.88251189328730106353759765625">
        <ele>1075.800048828125</ele>
        <time>2022-05-06T10:18:17.000Z</time>
      </trkpt>
      <trkpt lat="40.1663120090961456298828125" lon="-0.882425643503665924072265625">
        <ele>1075.5999755859375</ele>
        <time>2022-05-06T10:18:19.000Z</time>
      </trkpt>
      <trkpt lat="40.16624168492853641510009765625" lon="-0.88233738206326961517333984375">
        <ele>1075.5999755859375</ele>
        <time>2022-05-06T10:18:21.000Z</time>
      </trkpt>
      <trkpt lat="40.1661716960370540618896484375" lon="-0.8822494558990001678466796875">
        <ele>1075.199951171875</ele>
        <time>2022-05-06T10:18:23.000Z</time>
      </trkpt>
      <trkpt lat="40.16609969548881053924560546875" lon="-0.88216203264892101287841796875">
        <ele>1075.199951171875</ele>
        <time>2022-05-06T10:18:25.000Z</time>
      </trkpt>
      <trkpt lat="40.1660276949405670166015625" lon="-0.8820704184472560882568359375">
        <ele>1075.199951171875</ele>
        <time>2022-05-06T10:18:27.000Z</time>
      </trkpt>
      <trkpt lat="40.1659524254500865936279296875" lon="-0.8819808997213840484619140625">
        <ele>1075</ele>
        <time>2022-05-06T10:18:29.000Z</time>
      </trkpt>
      <trkpt lat="40.16588713042438030242919921875" lon="-0.88190085254609584808349609375">
        <ele>1075</ele>
        <time>2022-05-06T10:18:31.000Z</time>
      </trkpt>
      <trkpt lat="40.16581689007580280303955078125" lon="-0.8818246610462665557861328125">
        <ele>1075</ele>
        <time>2022-05-06T10:18:33.000Z</time>
      </trkpt>
      <trkpt lat="40.16574648208916187286376953125" lon="-0.88173874653875827789306640625">
        <ele>1074.800048828125</ele>
        <time>2022-05-06T10:18:35.000Z</time>
      </trkpt>
      <trkpt lat="40.1656763255596160888671875" lon="-0.8816493116319179534912109375">
        <ele>1074.5999755859375</ele>
        <time>2022-05-06T10:18:37.000Z</time>
      </trkpt>
      <trkpt lat="40.16561170108616352081298828125" lon="-0.881563313305377960205078125">
        <ele>1074.4000244140625</ele>
        <time>2022-05-06T10:18:39.000Z</time>
      </trkpt>
      <trkpt lat="40.16554531641304492950439453125" lon="-0.88147924281656742095947265625">
        <ele>1074.199951171875</ele>
        <time>2022-05-06T10:18:41.000Z</time>
      </trkpt>
      <trkpt lat="40.1654833741486072540283203125" lon="-0.88139777071774005889892578125">
        <ele>1074</ele>
        <time>2022-05-06T10:18:43.000Z</time>
      </trkpt>
      <trkpt lat="40.16542620956897735595703125" lon="-0.88132753036916255950927734375">
        <ele>1074</ele>
        <time>2022-05-06T10:18:45.000Z</time>
      </trkpt>
      <trkpt lat="40.16537030227482318878173828125" lon="-0.88125477544963359832763671875">
        <ele>1074.199951171875</ele>
        <time>2022-05-06T10:18:47.000Z</time>
      </trkpt>
      <trkpt lat="40.16531799919903278350830078125" lon="-0.88119576685130596160888671875">
        <ele>1074.4000244140625</ele>
        <time>2022-05-06T10:18:49.000Z</time>
      </trkpt>
      <trkpt lat="40.165272653102874755859375" lon="-0.88114446960389614105224609375">
        <ele>1074.4000244140625</ele>
        <time>2022-05-06T10:18:51.000Z</time>
      </trkpt>
      <trkpt lat="40.16525630839169025421142578125" lon="-0.8811182342469692230224609375">
        <ele>1074.4000244140625</ele>
        <time>2022-05-06T10:18:52.000Z</time>
      </trkpt>
      <trkpt lat="40.16524038277566432952880859375" lon="-0.8810930885374546051025390625">
        <ele>1074.4000244140625</ele>
        <time>2022-05-06T10:18:53.000Z</time>
      </trkpt>
      <trkpt lat="40.16520358622074127197265625" lon="-0.881053023040294647216796875">
        <ele>1074.5999755859375</ele>
        <time>2022-05-06T10:18:55.000Z</time>
      </trkpt>
      <trkpt lat="40.16516695730388164520263671875" lon="-0.8810595609247684478759765625">
        <ele>1074.5999755859375</ele>
        <time>2022-05-06T10:18:57.000Z</time>
      </trkpt>
      <trkpt lat="40.1651264727115631103515625" lon="-0.88109803386032581329345703125">
        <ele>1074.800048828125</ele>
        <time>2022-05-06T10:18:59.000Z</time>
      </trkpt>
      <trkpt lat="40.1650880835950374603271484375" lon="-0.88115192949771881103515625">
        <ele>1074.800048828125</ele>
        <time>2022-05-06T10:19:01.000Z</time>
      </trkpt>
      <trkpt lat="40.1650686375796794891357421875" lon="-0.8811782486736774444580078125">
        <ele>1075</ele>
        <time>2022-05-06T10:19:02.000Z</time>
      </trkpt>
      <trkpt lat="40.16505044884979724884033203125" lon="-0.8812044002115726470947265625">
        <ele>1075</ele>
        <time>2022-05-06T10:19:03.000Z</time>
      </trkpt>
      <trkpt lat="40.16502161510288715362548828125" lon="-0.8812496624886989593505859375">
        <ele>1075</ele>
        <time>2022-05-06T10:19:05.000Z</time>
      </trkpt>
      <trkpt lat="40.165016837418079376220703125" lon="-0.881254859268665313720703125">
        <ele>1075</ele>
        <time>2022-05-06T10:19:07.000Z</time>
      </trkpt>
      <trkpt lat="40.16497350297868251800537109375" lon="-0.88133255951106548309326171875">
        <ele>1075.199951171875</ele>
        <time>2022-05-06T10:23:17.000Z</time>
      </trkpt>
      <trkpt lat="40.1649579964578151702880859375" lon="-0.88134865276515483856201171875">
        <ele>1075.199951171875</ele>
        <time>2022-05-06T10:23:18.000Z</time>
      </trkpt>
      <trkpt lat="40.16494215466082096099853515625" lon="-0.88136441074311733245849609375">
        <ele>1075.199951171875</ele>
        <time>2022-05-06T10:23:19.000Z</time>
      </trkpt>
      <trkpt lat="40.1649073697626590728759765625" lon="-0.88139039464294910430908203125">
        <ele>1075.199951171875</ele>
        <time>2022-05-06T10:23:21.000Z</time>
      </trkpt>
      <trkpt lat="40.16488532535731792449951171875" lon="-0.881394334137439727783203125">
        <ele>1075.4000244140625</ele>
        <time>2022-05-06T10:23:22.000Z</time>
      </trkpt>
      <trkpt lat="40.16486437059938907623291015625" lon="-0.881394334137439727783203125">
        <ele>1075.4000244140625</ele>
        <time>2022-05-06T10:23:23.000Z</time>
      </trkpt>
      <trkpt lat="40.16484685242176055908203125" lon="-0.88139039464294910430908203125">
        <ele>1075.4000244140625</ele>
        <time>2022-05-06T10:23:24.000Z</time>
      </trkpt>
      <trkpt lat="40.16483017243444919586181640625" lon="-0.881379581987857818603515625">
        <ele>1075.4000244140625</ele>
        <time>2022-05-06T10:23:25.000Z</time>
      </trkpt>
      <trkpt lat="40.16481374390423297882080078125" lon="-0.881362147629261016845703125">
        <ele>1075.5999755859375</ele>
        <time>2022-05-06T10:23:26.000Z</time>
      </trkpt>
      <trkpt lat="40.16479731537401676177978515625" lon="-0.881340019404888153076171875">
        <ele>1075.5999755859375</ele>
        <time>2022-05-06T10:23:27.000Z</time>
      </trkpt>
      <trkpt lat="40.1647642068564891815185546875" lon="-0.8812922425568103790283203125">
        <ele>1075.5999755859375</ele>
        <time>2022-05-06T10:23:29.000Z</time>
      </trkpt>
      <trkpt lat="40.1647481136023998260498046875" lon="-0.8812650851905345916748046875">
        <ele>1075.5999755859375</ele>
        <time>2022-05-06T10:23:30.000Z</time>
      </trkpt>
      <trkpt lat="40.164732523262500762939453125" lon="-0.8812402747571468353271484375">
        <ele>1075.5999755859375</ele>
        <time>2022-05-06T10:23:31.000Z</time>
      </trkpt>
      <trkpt lat="40.16469530761241912841796875" lon="-0.8811909891664981842041015625">
        <ele>1075.5999755859375</ele>
        <time>2022-05-06T10:23:33.000Z</time>
      </trkpt>
      <trkpt lat="40.16466219909489154815673828125" lon="-0.88113826699554920196533203125">
        <ele>1075.4000244140625</ele>
        <time>2022-05-06T10:23:35.000Z</time>
      </trkpt>
      <trkpt lat="40.16462682746350765228271484375" lon="-0.88109250180423259735107421875">
        <ele>1075.199951171875</ele>
        <time>2022-05-06T10:23:37.000Z</time>
      </trkpt>
      <trkpt lat="40.16460268758237361907958984375" lon="-0.88105277158319950103759765625">
        <ele>1075.199951171875</ele>
        <time>2022-05-06T10:23:39.000Z</time>
      </trkpt>
      <trkpt lat="40.16459313221275806427001953125" lon="-0.88103399612009525299072265625">
        <ele>1075.199951171875</ele>
        <time>2022-05-06T10:23:41.000Z</time>
      </trkpt>
      <trkpt lat="40.16459447331726551055908203125" lon="-0.88103550486266613006591796875">
        <ele>1075.199951171875</ele>
        <time>2022-05-06T10:23:42.000Z</time>
      </trkpt>
      <trkpt lat="40.164579637348651885986328125" lon="-0.88100013323128223419189453125">
        <ele>1075.199951171875</ele>
        <time>2022-05-06T10:23:50.000Z</time>
      </trkpt>
      <trkpt lat="40.1645684055984020233154296875" lon="-0.8809864707291126251220703125">
        <ele>1075.199951171875</ele>
        <time>2022-05-06T10:23:51.000Z</time>
      </trkpt>
      <trkpt lat="40.16453839838504791259765625" lon="-0.88095185346901416778564453125">
        <ele>1075.199951171875</ele>
        <time>2022-05-06T10:23:53.000Z</time>
      </trkpt>
      <trkpt lat="40.1645057089626789093017578125" lon="-0.88090893812477588653564453125">
        <ele>1075.4000244140625</ele>
        <time>2022-05-06T10:23:55.000Z</time>
      </trkpt>
      <trkpt lat="40.16447310335934162139892578125" lon="-0.8808537013828754425048828125">
        <ele>1075.4000244140625</ele>
        <time>2022-05-06T10:23:57.000Z</time>
      </trkpt>
      <trkpt lat="40.164430104196071624755859375" lon="-0.88079175911843776702880859375">
        <ele>1075.4000244140625</ele>
        <time>2022-05-06T10:23:59.000Z</time>
      </trkpt>
      <trkpt lat="40.1643843390047550201416015625" lon="-0.880723781883716583251953125">
        <ele>1075.4000244140625</ele>
        <time>2022-05-06T10:24:01.000Z</time>
      </trkpt>
      <trkpt lat="40.1643347181379795074462890625" lon="-0.88066418655216693878173828125">
        <ele>1075.5999755859375</ele>
        <time>2022-05-06T10:24:03.000Z</time>
      </trkpt>
      <trkpt lat="40.1643109135329723358154296875" lon="-0.8806322515010833740234375">
        <ele>1075.5999755859375</ele>
        <time>2022-05-06T10:24:04.000Z</time>
      </trkpt>
      <trkpt lat="40.164285935461521148681640625" lon="-0.88060165755450725555419921875">
        <ele>1075.5999755859375</ele>
        <time>2022-05-06T10:24:05.000Z</time>
      </trkpt>
      <trkpt lat="40.16423086635768413543701171875" lon="-0.880556814372539520263671875">
        <ele>1075.800048828125</ele>
        <time>2022-05-06T10:24:07.000Z</time>
      </trkpt>
      <trkpt lat="40.16417051665484905242919921875" lon="-0.88051398284733295440673828125">
        <ele>1076</ele>
        <time>2022-05-06T10:24:09.000Z</time>
      </trkpt>
      <trkpt lat="40.16413799487054347991943359375" lon="-0.88049478828907012939453125">
        <ele>1076</ele>
        <time>2022-05-06T10:24:10.000Z</time>
      </trkpt>
      <trkpt lat="40.16410463489592075347900390625" lon="-0.88047609664499759674072265625">
        <ele>1076.199951171875</ele>
        <time>2022-05-06T10:24:11.000Z</time>
      </trkpt>
      <trkpt lat="40.16403456218540668487548828125" lon="-0.88044583797454833984375">
        <ele>1076.4000244140625</ele>
        <time>2022-05-06T10:24:13.000Z</time>
      </trkpt>
      <trkpt lat="40.1639615558087825775146484375" lon="-0.8804195187985897064208984375">
        <ele>1076.5999755859375</ele>
        <time>2022-05-06T10:24:15.000Z</time>
      </trkpt>
      <trkpt lat="40.16389575786888599395751953125" lon="-0.88039563037455081939697265625">
        <ele>1076.800048828125</ele>
        <time>2022-05-06T10:24:17.000Z</time>
      </trkpt>
      <trkpt lat="40.16383322887122631072998046875" lon="-0.88036746717989444732666015625">
        <ele>1076.800048828125</ele>
        <time>2022-05-06T10:24:19.000Z</time>
      </trkpt>
      <trkpt lat="40.16377128660678863525390625" lon="-0.8803372085094451904296875">
        <ele>1077</ele>
        <time>2022-05-06T10:24:21.000Z</time>
      </trkpt>
      <trkpt lat="40.16370900906622409820556640625" lon="-0.88030929677188396453857421875">
        <ele>1076.5999755859375</ele>
        <time>2022-05-06T10:24:23.000Z</time>
      </trkpt>
      <trkpt lat="40.16364899463951587677001953125" lon="-0.88027979247272014617919921875">
        <ele>1076.4000244140625</ele>
        <time>2022-05-06T10:24:25.000Z</time>
      </trkpt>
      <trkpt lat="40.16358411870896816253662109375" lon="-0.88025380857288837432861328125">
        <ele>1076</ele>
        <time>2022-05-06T10:24:27.000Z</time>
      </trkpt>
      <trkpt lat="40.1635166443884372711181640625" lon="-0.8802217058837413787841796875">
        <ele>1075.800048828125</ele>
        <time>2022-05-06T10:24:29.000Z</time>
      </trkpt>
      <trkpt lat="40.1634358428418636322021484375" lon="-0.880188010632991790771484375">
        <ele>1075.4000244140625</ele>
        <time>2022-05-06T10:24:31.000Z</time>
      </trkpt>
      <trkpt lat="40.163392089307308197021484375" lon="-0.88017082773149013519287109375">
        <ele>1075.199951171875</ele>
        <time>2022-05-06T10:24:32.000Z</time>
      </trkpt>
      <trkpt lat="40.16334774903953075408935546875" lon="-0.88015171699225902557373046875">
        <ele>1075</ele>
        <time>2022-05-06T10:24:33.000Z</time>
      </trkpt>
      <trkpt lat="40.16325504519045352935791015625" lon="-0.8801110647618770599365234375">
        <ele>1074.5999755859375</ele>
        <time>2022-05-06T10:24:35.000Z</time>
      </trkpt>
      <trkpt lat="40.1631605811417102813720703125" lon="-0.8800694905221462249755859375">
        <ele>1074.199951171875</ele>
        <time>2022-05-06T10:24:37.000Z</time>
      </trkpt>
      <trkpt lat="40.16306720674037933349609375" lon="-0.880031101405620574951171875">
        <ele>1073.800048828125</ele>
        <time>2022-05-06T10:24:39.000Z</time>
      </trkpt>
      <trkpt lat="40.1630214415490627288818359375" lon="-0.88001106865704059600830078125">
        <ele>1073.5999755859375</ele>
        <time>2022-05-06T10:24:40.000Z</time>
      </trkpt>
      <trkpt lat="40.1629771851003170013427734375" lon="-0.8799912035465240478515625">
        <ele>1073.4000244140625</ele>
        <time>2022-05-06T10:24:41.000Z</time>
      </trkpt>
      <trkpt lat="40.1628843136131763458251953125" lon="-0.87994988076388835906982421875">
        <ele>1073.199951171875</ele>
        <time>2022-05-06T10:24:43.000Z</time>
      </trkpt>
      <trkpt lat="40.16279219649732112884521484375" lon="-0.87990830652415752410888671875">
        <ele>1073</ele>
        <time>2022-05-06T10:24:45.000Z</time>
      </trkpt>
      <trkpt lat="40.1626955531537532806396484375" lon="-0.87985885329544544219970703125">
        <ele>1073</ele>
        <time>2022-05-06T10:24:47.000Z</time>
      </trkpt>
      <trkpt lat="40.1626492850482463836669921875" lon="-0.879831612110137939453125">
        <ele>1073</ele>
        <time>2022-05-06T10:24:48.000Z</time>
      </trkpt>
      <trkpt lat="40.16260427422821521759033203125" lon="-0.87980219163000583648681640625">
        <ele>1073</ele>
        <time>2022-05-06T10:24:49.000Z</time>
      </trkpt>
      <trkpt lat="40.16255901195108890533447265625" lon="-0.87977000512182712554931640625">
        <ele>1073</ele>
        <time>2022-05-06T10:24:50.000Z</time>
      </trkpt>
      <trkpt lat="40.1625155098736286163330078125" lon="-0.8797362260520458221435546875">
        <ele>1073</ele>
        <time>2022-05-06T10:24:51.000Z</time>
      </trkpt>
      <trkpt lat="40.16243110410869121551513671875" lon="-0.8796658180654048919677734375">
        <ele>1073.199951171875</ele>
        <time>2022-05-06T10:24:53.000Z</time>
      </trkpt>
      <trkpt lat="40.1623482070863246917724609375" lon="-0.87958551943302154541015625">
        <ele>1073.199951171875</ele>
        <time>2022-05-06T10:24:55.000Z</time>
      </trkpt>
      <trkpt lat="40.16226346604526042938232421875" lon="-0.8795030415058135986328125">
        <ele>1073.4000244140625</ele>
        <time>2022-05-06T10:24:57.000Z</time>
      </trkpt>
      <trkpt lat="40.16217998228967189788818359375" lon="-0.8794110082089900970458984375">
        <ele>1073.800048828125</ele>
        <time>2022-05-06T10:24:59.000Z</time>
      </trkpt>
      <trkpt lat="40.162097923457622528076171875" lon="-0.879308916628360748291015625">
        <ele>1074.199951171875</ele>
        <time>2022-05-06T10:25:01.000Z</time>
      </trkpt>
      <trkpt lat="40.16205877996981143951416015625" lon="-0.87925250642001628875732421875">
        <ele>1074.4000244140625</ele>
        <time>2022-05-06T10:25:02.000Z</time>
      </trkpt>
      <trkpt lat="40.162020809948444366455078125" lon="-0.87918796576559543609619140625">
        <ele>1074.800048828125</ele>
        <time>2022-05-06T10:25:03.000Z</time>
      </trkpt>
      <trkpt lat="40.1619488932192325592041015625" lon="-0.87905586697161197662353515625">
        <ele>1075.5999755859375</ele>
        <time>2022-05-06T10:25:05.000Z</time>
      </trkpt>
      <trkpt lat="40.16188460402190685272216796875" lon="-0.87891572155058383941650390625">
        <ele>1075.199951171875</ele>
        <time>2022-05-06T10:25:07.000Z</time>
      </trkpt>
      <trkpt lat="40.16182945109903812408447265625" lon="-0.8787707984447479248046875">
        <ele>1075</ele>
        <time>2022-05-06T10:25:09.000Z</time>
      </trkpt>
      <trkpt lat="40.16177580691874027252197265625" lon="-0.8786194212734699249267578125">
        <ele>1075</ele>
        <time>2022-05-06T10:25:11.000Z</time>
      </trkpt>
      <trkpt lat="40.16173372976481914520263671875" lon="-0.878466702997684478759765625">
        <ele>1074.800048828125</ele>
        <time>2022-05-06T10:25:13.000Z</time>
      </trkpt>
      <trkpt lat="40.161699950695037841796875" lon="-0.878312475979328155517578125">
        <ele>1074.4000244140625</ele>
        <time>2022-05-06T10:25:15.000Z</time>
      </trkpt>
      <trkpt lat="40.1616729609668254852294921875" lon="-0.87815447710454463958740234375">
        <ele>1074</ele>
        <time>2022-05-06T10:25:17.000Z</time>
      </trkpt>
      <trkpt lat="40.1616556942462921142578125" lon="-0.8779929578304290771484375">
        <ele>1073.4000244140625</ele>
        <time>2022-05-06T10:25:19.000Z</time>
      </trkpt>
      <trkpt lat="40.161649323999881744384765625" lon="-0.87791383266448974609375">
        <ele>1073.199951171875</ele>
        <time>2022-05-06T10:25:20.000Z</time>
      </trkpt>
      <trkpt lat="40.16164504922926425933837890625" lon="-0.8778335340321063995361328125">
        <ele>1072.800048828125</ele>
        <time>2022-05-06T10:25:21.000Z</time>
      </trkpt>
      <trkpt lat="40.16164429485797882080078125" lon="-0.87767167948186397552490234375">
        <ele>1072.199951171875</ele>
        <time>2022-05-06T10:25:23.000Z</time>
      </trkpt>
      <trkpt lat="40.1616461388766765594482421875" lon="-0.8775046281516551971435546875">
        <ele>1071.5999755859375</ele>
        <time>2022-05-06T10:25:25.000Z</time>
      </trkpt>
      <trkpt lat="40.161650665104389190673828125" lon="-0.8774174563586711883544921875">
        <ele>1071.4000244140625</ele>
        <time>2022-05-06T10:25:26.000Z</time>
      </trkpt>
      <trkpt lat="40.1616508327424526214599609375" lon="-0.87733120657503604888916015625">
        <ele>1071</ele>
        <time>2022-05-06T10:25:27.000Z</time>
      </trkpt>
      <trkpt lat="40.1616511680185794830322265625" lon="-0.8771629817783832550048828125">
        <ele>1070.4000244140625</ele>
        <time>2022-05-06T10:25:29.000Z</time>
      </trkpt>
      <trkpt lat="40.161655358970165252685546875" lon="-0.8769953437149524688720703125">
        <ele>1069.800048828125</ele>
        <time>2022-05-06T10:25:31.000Z</time>
      </trkpt>
      <trkpt lat="40.1616551913321018218994140625" lon="-0.87691261433064937591552734375">
        <ele>1069.5999755859375</ele>
        <time>2022-05-06T10:25:32.000Z</time>
      </trkpt>
      <trkpt lat="40.16165561042726039886474609375" lon="-0.8768303878605365753173828125">
        <ele>1069.199951171875</ele>
        <time>2022-05-06T10:25:33.000Z</time>
      </trkpt>
      <trkpt lat="40.1616556942462921142578125" lon="-0.8766625821590423583984375">
        <ele>1068.5999755859375</ele>
        <time>2022-05-06T10:25:35.000Z</time>
      </trkpt>
      <trkpt lat="40.1616605557501316070556640625" lon="-0.8764920942485332489013671875">
        <ele>1068</ele>
        <time>2022-05-06T10:25:37.000Z</time>
      </trkpt>
      <trkpt lat="40.1616635732352733612060546875" lon="-0.8763200975954532623291015625">
        <ele>1067.4000244140625</ele>
        <time>2022-05-06T10:25:39.000Z</time>
      </trkpt>
      <trkpt lat="40.16166583634912967681884765625" lon="-0.8761548064649105072021484375">
        <ele>1066.800048828125</ele>
        <time>2022-05-06T10:25:41.000Z</time>
      </trkpt>
      <trkpt lat="40.16166449524462223052978515625" lon="-0.8759958855807781219482421875">
        <ele>1066.199951171875</ele>
        <time>2022-05-06T10:25:43.000Z</time>
      </trkpt>
      <trkpt lat="40.161664076149463653564453125" lon="-0.87584006600081920623779296875">
        <ele>1065.4000244140625</ele>
        <time>2022-05-06T10:25:45.000Z</time>
      </trkpt>
      <trkpt lat="40.16166566871106624603271484375" lon="-0.875687263906002044677734375">
        <ele>1064.5999755859375</ele>
        <time>2022-05-06T10:25:47.000Z</time>
      </trkpt>
      <trkpt lat="40.16166600398719310760498046875" lon="-0.8755335398018360137939453125">
        <ele>1064</ele>
        <time>2022-05-06T10:25:49.000Z</time>
      </trkpt>
      <trkpt lat="40.1616675965487957000732421875" lon="-0.875376798212528228759765625">
        <ele>1063.4000244140625</ele>
        <time>2022-05-06T10:25:51.000Z</time>
      </trkpt>
      <trkpt lat="40.1616726256906986236572265625" lon="-0.87521796114742755889892578125">
        <ele>1062.800048828125</ele>
        <time>2022-05-06T10:25:53.000Z</time>
      </trkpt>
      <trkpt lat="40.161676146090030670166015625" lon="-0.87505652569234371185302734375">
        <ele>1062.5999755859375</ele>
        <time>2022-05-06T10:25:55.000Z</time>
      </trkpt>
      <trkpt lat="40.161680169403553009033203125" lon="-0.874892659485340118408203125">
        <ele>1062.5999755859375</ele>
        <time>2022-05-06T10:25:57.000Z</time>
      </trkpt>
      <trkpt lat="40.1616820134222507476806640625" lon="-0.8747325651347637176513671875">
        <ele>1062.5999755859375</ele>
        <time>2022-05-06T10:25:59.000Z</time>
      </trkpt>
      <trkpt lat="40.1616810075938701629638671875" lon="-0.8746554516255855560302734375">
        <ele>1062.4000244140625</ele>
        <time>2022-05-06T10:26:00.000Z</time>
      </trkpt>
      <trkpt lat="40.161678493022918701171875" lon="-0.87458143942058086395263671875">
        <ele>1062.4000244140625</ele>
        <time>2022-05-06T10:26:01.000Z</time>
      </trkpt>
      <trkpt lat="40.1616739667952060699462890625" lon="-0.87443173862993717193603515625">
        <ele>1062.199951171875</ele>
        <time>2022-05-06T10:26:03.000Z</time>
      </trkpt>
      <trkpt lat="40.16167220659554004669189453125" lon="-0.87435630150139331817626953125">
        <ele>1062.199951171875</ele>
        <time>2022-05-06T10:26:04.000Z</time>
      </trkpt>
      <trkpt lat="40.16167270950973033905029296875" lon="-0.8742807805538177490234375">
        <ele>1062.4000244140625</ele>
        <time>2022-05-06T10:26:05.000Z</time>
      </trkpt>
      <trkpt lat="40.16167706809937953948974609375" lon="-0.8741305768489837646484375">
        <ele>1062.800048828125</ele>
        <time>2022-05-06T10:26:07.000Z</time>
      </trkpt>
      <trkpt lat="40.161674804985523223876953125" lon="-0.8739842288196086883544921875">
        <ele>1063.4000244140625</ele>
        <time>2022-05-06T10:26:09.000Z</time>
      </trkpt>
      <trkpt lat="40.1616729609668254852294921875" lon="-0.87383846752345561981201171875">
        <ele>1063.5999755859375</ele>
        <time>2022-05-06T10:26:11.000Z</time>
      </trkpt>
      <trkpt lat="40.1616719551384449005126953125" lon="-0.8736928738653659820556640625">
        <ele>1063</ele>
        <time>2022-05-06T10:26:13.000Z</time>
      </trkpt>
      <trkpt lat="40.16167354770004749298095703125" lon="-0.87354493327438831329345703125">
        <ele>1062.4000244140625</ele>
        <time>2022-05-06T10:26:15.000Z</time>
      </trkpt>
      <trkpt lat="40.1616746373474597930908203125" lon="-0.87339154444634914398193359375">
        <ele>1062.4000244140625</ele>
        <time>2022-05-06T10:26:17.000Z</time>
      </trkpt>
      <trkpt lat="40.161675475537776947021484375" lon="-0.87331493385136127471923828125">
        <ele>1062.4000244140625</ele>
        <time>2022-05-06T10:26:18.000Z</time>
      </trkpt>
      <trkpt lat="40.16167656518518924713134765625" lon="-0.873235724866390228271484375">
        <ele>1062.5999755859375</ele>
        <time>2022-05-06T10:26:19.000Z</time>
      </trkpt>
      <trkpt lat="40.16167740337550640106201171875" lon="-0.87307521142065525054931640625">
        <ele>1062.800048828125</ele>
        <time>2022-05-06T10:26:21.000Z</time>
      </trkpt>
      <trkpt lat="40.161678157746791839599609375" lon="-0.87291344068944454193115234375">
        <ele>1063</ele>
        <time>2022-05-06T10:26:23.000Z</time>
      </trkpt>
      <trkpt lat="40.16168050467967987060546875" lon="-0.872746892273426055908203125">
        <ele>1063</ele>
        <time>2022-05-06T10:26:25.000Z</time>
      </trkpt>
      <trkpt lat="40.16168159432709217071533203125" lon="-0.8725770749151706695556640625">
        <ele>1063.199951171875</ele>
        <time>2022-05-06T10:26:27.000Z</time>
      </trkpt>
      <trkpt lat="40.16168159432709217071533203125" lon="-0.87249166332185268402099609375">
        <ele>1063.199951171875</ele>
        <time>2022-05-06T10:26:28.000Z</time>
      </trkpt>
      <trkpt lat="40.1616823486983776092529296875" lon="-0.87240499444305896759033203125">
        <ele>1063.199951171875</ele>
        <time>2022-05-06T10:26:29.000Z</time>
      </trkpt>
      <trkpt lat="40.16168394125998020172119140625" lon="-0.87222998030483722686767578125">
        <ele>1063.199951171875</ele>
        <time>2022-05-06T10:26:31.000Z</time>
      </trkpt>
      <trkpt lat="40.1616851985454559326171875" lon="-0.87205253541469573974609375">
        <ele>1063</ele>
        <time>2022-05-06T10:26:33.000Z</time>
      </trkpt>
      <trkpt lat="40.16168645583093166351318359375" lon="-0.87187341414391994476318359375">
        <ele>1062.5999755859375</ele>
        <time>2022-05-06T10:26:35.000Z</time>
      </trkpt>
      <trkpt lat="40.1616890542209148406982421875" lon="-0.87169068865478038787841796875">
        <ele>1062.199951171875</ele>
        <time>2022-05-06T10:26:37.000Z</time>
      </trkpt>
      <trkpt lat="40.16169182024896144866943359375" lon="-0.87150393985211849212646484375">
        <ele>1061.800048828125</ele>
        <time>2022-05-06T10:26:39.000Z</time>
      </trkpt>
      <trkpt lat="40.16169332899153232574462890625" lon="-0.871409811079502105712890625">
        <ele>1061.5999755859375</ele>
        <time>2022-05-06T10:26:40.000Z</time>
      </trkpt>
      <trkpt lat="40.1616940833628177642822265625" lon="-0.871315263211727142333984375">
        <ele>1061.5999755859375</ele>
        <time>2022-05-06T10:26:41.000Z</time>
      </trkpt>
      <trkpt lat="40.1616954244673252105712890625" lon="-0.87112373672425746917724609375">
        <ele>1061.800048828125</ele>
        <time>2022-05-06T10:26:43.000Z</time>
      </trkpt>
      <trkpt lat="40.161694921553134918212890625" lon="-0.87093430571258068084716796875">
        <ele>1062</ele>
        <time>2022-05-06T10:26:45.000Z</time>
      </trkpt>
      <trkpt lat="40.1616937480866909027099609375" lon="-0.87074839510023593902587890625">
        <ele>1061.800048828125</ele>
        <time>2022-05-06T10:26:47.000Z</time>
      </trkpt>
      <trkpt lat="40.1616934128105640411376953125" lon="-0.8705657534301280975341796875">
        <ele>1061.5999755859375</ele>
        <time>2022-05-06T10:26:49.000Z</time>
      </trkpt>
      <trkpt lat="40.16169349662959575653076171875" lon="-0.87038495577871799468994140625">
        <ele>1060.800048828125</ele>
        <time>2022-05-06T10:26:51.000Z</time>
      </trkpt>
      <trkpt lat="40.16169399954378604888916015625" lon="-0.8702950179576873779296875">
        <ele>1060.5999755859375</ele>
        <time>2022-05-06T10:26:52.000Z</time>
      </trkpt>
      <trkpt lat="40.1616947539150714874267578125" lon="-0.870205499231815338134765625">
        <ele>1060.199951171875</ele>
        <time>2022-05-06T10:26:53.000Z</time>
      </trkpt>
      <trkpt lat="40.161694251000881195068359375" lon="-0.87002771906554698944091796875">
        <ele>1059.800048828125</ele>
        <time>2022-05-06T10:26:55.000Z</time>
      </trkpt>
      <trkpt lat="40.16169232316315174102783203125" lon="-0.86985270492732524871826171875">
        <ele>1059.5999755859375</ele>
        <time>2022-05-06T10:26:57.000Z</time>
      </trkpt>
      <trkpt lat="40.1616873778402805328369140625" lon="-0.86968020536005496978759765625">
        <ele>1059.4000244140625</ele>
        <time>2022-05-06T10:26:59.000Z</time>
      </trkpt>
      <trkpt lat="40.1616816781461238861083984375" lon="-0.86950837634503841400146484375">
        <ele>1058.800048828125</ele>
        <time>2022-05-06T10:27:01.000Z</time>
      </trkpt>
      <trkpt lat="40.16168142668902873992919921875" lon="-0.869418941438198089599609375">
        <ele>1058.5999755859375</ele>
        <time>2022-05-06T10:27:02.000Z</time>
      </trkpt>
      <trkpt lat="40.16168092377483844757080078125" lon="-0.86932799778878688812255859375">
        <ele>1058.199951171875</ele>
        <time>2022-05-06T10:27:03.000Z</time>
      </trkpt>
      <trkpt lat="40.16166969202458858489990234375" lon="-0.869151391088962554931640625">
        <ele>1058</ele>
        <time>2022-05-06T10:27:05.000Z</time>
      </trkpt>
      <trkpt lat="40.16166038811206817626953125" lon="-0.86896992288529872894287109375">
        <ele>1057.5999755859375</ele>
        <time>2022-05-06T10:27:07.000Z</time>
      </trkpt>
      <trkpt lat="40.1616464741528034210205078125" lon="-0.86879138834774494171142578125">
        <ele>1057.5999755859375</ele>
        <time>2022-05-06T10:27:09.000Z</time>
      </trkpt>
      <trkpt lat="40.161638595163822174072265625" lon="-0.8687026239931583404541015625">
        <ele>1057.800048828125</ele>
        <time>2022-05-06T10:27:10.000Z</time>
      </trkpt>
      <trkpt lat="40.16163088381290435791015625" lon="-0.86861335672438144683837890625">
        <ele>1058</ele>
        <time>2022-05-06T10:27:11.000Z</time>
      </trkpt>
      <trkpt lat="40.1616142876446247100830078125" lon="-0.8684354089200496673583984375">
        <ele>1057.5999755859375</ele>
        <time>2022-05-06T10:27:13.000Z</time>
      </trkpt>
      <trkpt lat="40.1615975238382816314697265625" lon="-0.8682593889534473419189453125">
        <ele>1056.800048828125</ele>
        <time>2022-05-06T10:27:15.000Z</time>
      </trkpt>
      <trkpt lat="40.1615764014422893524169921875" lon="-0.8680850453674793243408203125">
        <ele>1056.199951171875</ele>
        <time>2022-05-06T10:27:17.000Z</time>
      </trkpt>
      <trkpt lat="40.161553435027599334716796875" lon="-0.86791514419019222259521484375">
        <ele>1056</ele>
        <time>2022-05-06T10:27:19.000Z</time>
      </trkpt>
      <trkpt lat="40.1615334860980510711669921875" lon="-0.867745578289031982421875">
        <ele>1055.5999755859375</ele>
        <time>2022-05-06T10:27:21.000Z</time>
      </trkpt>
      <trkpt lat="40.1615120284259319305419921875" lon="-0.86757995188236236572265625">
        <ele>1054.4000244140625</ele>
        <time>2022-05-06T10:27:23.000Z</time>
      </trkpt>
      <trkpt lat="40.16148663125932216644287109375" lon="-0.86741901934146881103515625">
        <ele>1053.4000244140625</ele>
        <time>2022-05-06T10:27:25.000Z</time>
      </trkpt>
      <trkpt lat="40.16146131791174411773681640625" lon="-0.8672599308192729949951171875">
        <ele>1052.4000244140625</ele>
        <time>2022-05-06T10:27:27.000Z</time>
      </trkpt>
      <trkpt lat="40.16143566928803920745849609375" lon="-0.86710578761994838714599609375">
        <ele>1051.5999755859375</ele>
        <time>2022-05-06T10:27:29.000Z</time>
      </trkpt>
      <trkpt lat="40.1614074222743511199951171875" lon="-0.8669503033161163330078125">
        <ele>1052</ele>
        <time>2022-05-06T10:27:31.000Z</time>
      </trkpt>
      <trkpt lat="40.16138009727001190185546875" lon="-0.8667898736894130706787109375">
        <ele>1052.4000244140625</ele>
        <time>2022-05-06T10:27:33.000Z</time>
      </trkpt>
      <trkpt lat="40.1613544486463069915771484375" lon="-0.8666212297976016998291015625">
        <ele>1052.800048828125</ele>
        <time>2022-05-06T10:27:35.000Z</time>
      </trkpt>
      <trkpt lat="40.1613236032426357269287109375" lon="-0.866448394954204559326171875">
        <ele>1053.4000244140625</ele>
        <time>2022-05-06T10:27:37.000Z</time>
      </trkpt>
      <trkpt lat="40.16129015944898128509521484375" lon="-0.8662722073495388031005859375">
        <ele>1053.800048828125</ele>
        <time>2022-05-06T10:27:39.000Z</time>
      </trkpt>
      <trkpt lat="40.161257050931453704833984375" lon="-0.866095684468746185302734375">
        <ele>1053.800048828125</ele>
        <time>2022-05-06T10:27:41.000Z</time>
      </trkpt>
      <trkpt lat="40.16124171204864978790283203125" lon="-0.86600708775222301483154296875">
        <ele>1053.800048828125</ele>
        <time>2022-05-06T10:27:42.000Z</time>
      </trkpt>
      <trkpt lat="40.1612273789942264556884765625" lon="-0.86591698229312896728515625">
        <ele>1053.800048828125</ele>
        <time>2022-05-06T10:27:43.000Z</time>
      </trkpt>
      <trkpt lat="40.16119695268571376800537109375" lon="-0.865736939013004302978515625">
        <ele>1053.800048828125</ele>
        <time>2022-05-06T10:27:45.000Z</time>
      </trkpt>
      <trkpt lat="40.16116711311042308807373046875" lon="-0.8655540458858013153076171875">
        <ele>1053.5999755859375</ele>
        <time>2022-05-06T10:27:47.000Z</time>
      </trkpt>
      <trkpt lat="40.161132998764514923095703125" lon="-0.8653729967772960662841796875">
        <ele>1053.199951171875</ele>
        <time>2022-05-06T10:27:49.000Z</time>
      </trkpt>
      <trkpt lat="40.1611143909394741058349609375" lon="-0.86528205312788486480712890625">
        <ele>1053</ele>
        <time>2022-05-06T10:27:50.000Z</time>
      </trkpt>
      <trkpt lat="40.16109737567603588104248046875" lon="-0.8651889301836490631103515625">
        <ele>1052.800048828125</ele>
        <time>2022-05-06T10:27:51.000Z</time>
      </trkpt>
      <trkpt lat="40.16106686554849147796630859375" lon="-0.8650008402764797210693359375">
        <ele>1052.199951171875</ele>
        <time>2022-05-06T10:27:53.000Z</time>
      </trkpt>
      <trkpt lat="40.1610329188406467437744140625" lon="-0.8648124150931835174560546875">
        <ele>1052.800048828125</ele>
        <time>2022-05-06T10:27:55.000Z</time>
      </trkpt>
      <trkpt lat="40.1610067673027515411376953125" lon="-0.8647171966731548309326171875">
        <ele>1053.199951171875</ele>
        <time>2022-05-06T10:27:56.000Z</time>
      </trkpt>
      <trkpt lat="40.16097885556519031524658203125" lon="-0.8646216429769992828369140625">
        <ele>1053.4000244140625</ele>
        <time>2022-05-06T10:27:57.000Z</time>
      </trkpt>
      <trkpt lat="40.16091431491076946258544921875" lon="-0.86443330161273479461669921875">
        <ele>1054</ele>
        <time>2022-05-06T10:27:59.000Z</time>
      </trkpt>
      <trkpt lat="40.160835944116115570068359375" lon="-0.86424730718135833740234375">
        <ele>1054.800048828125</ele>
        <time>2022-05-06T10:28:01.000Z</time>
      </trkpt>
      <trkpt lat="40.1607908494770526885986328125" lon="-0.8641572855412960052490234375">
        <ele>1055.199951171875</ele>
        <time>2022-05-06T10:28:02.000Z</time>
      </trkpt>
      <trkpt lat="40.16074240207672119140625" lon="-0.8640681020915508270263671875">
        <ele>1055.5999755859375</ele>
        <time>2022-05-06T10:28:03.000Z</time>
      </trkpt>
      <trkpt lat="40.16063670627772808074951171875" lon="-0.86390038020908832550048828125">
        <ele>1056.5999755859375</ele>
        <time>2022-05-06T10:28:05.000Z</time>
      </trkpt>
      <trkpt lat="40.16052447259426116943359375" lon="-0.86374565027654170989990234375">
        <ele>1057.800048828125</ele>
        <time>2022-05-06T10:28:07.000Z</time>
      </trkpt>
      <trkpt lat="40.16046345233917236328125" lon="-0.86367742158472537994384765625">
        <ele>1058.199951171875</ele>
        <time>2022-05-06T10:28:08.000Z</time>
      </trkpt>
      <trkpt lat="40.16040033660829067230224609375" lon="-0.8636151440441608428955078125">
        <ele>1058.4000244140625</ele>
        <time>2022-05-06T10:28:09.000Z</time>
      </trkpt>
      <trkpt lat="40.16027075238525867462158203125" lon="-0.86348732002079486846923828125">
        <ele>1058</ele>
        <time>2022-05-06T10:28:11.000Z</time>
      </trkpt>
      <trkpt lat="40.16020151786506175994873046875" lon="-0.86343099363148212432861328125">
        <ele>1057.800048828125</ele>
        <time>2022-05-06T10:28:12.000Z</time>
      </trkpt>
      <trkpt lat="40.16013027168810367584228515625" lon="-0.86337701417505741119384765625">
        <ele>1057.800048828125</ele>
        <time>2022-05-06T10:28:13.000Z</time>
      </trkpt>
      <trkpt lat="40.16005667857825756072998046875" lon="-0.863332338631153106689453125">
        <ele>1057.5999755859375</ele>
        <time>2022-05-06T10:28:14.000Z</time>
      </trkpt>
      <trkpt lat="40.159983672201633453369140625" lon="-0.8632902614772319793701171875">
        <ele>1057.5999755859375</ele>
        <time>2022-05-06T10:28:15.000Z</time>
      </trkpt>
      <trkpt lat="40.1599090732634067535400390625" lon="-0.8632557280361652374267578125">
        <ele>1057.4000244140625</ele>
        <time>2022-05-06T10:28:16.000Z</time>
      </trkpt>
      <trkpt lat="40.15983154065907001495361328125" lon="-0.86323217488825321197509765625">
        <ele>1057.4000244140625</ele>
        <time>2022-05-06T10:28:17.000Z</time>
      </trkpt>
      <trkpt lat="40.15975342132151126861572265625" lon="-0.86320661008358001708984375">
        <ele>1057.4000244140625</ele>
        <time>2022-05-06T10:28:18.000Z</time>
      </trkpt>
      <trkpt lat="40.15967664308845996856689453125" lon="-0.8631812967360019683837890625">
        <ele>1057.199951171875</ele>
        <time>2022-05-06T10:28:19.000Z</time>
      </trkpt>
      <trkpt lat="40.15952141024172306060791015625" lon="-0.86315003223717212677001953125">
        <ele>1056.800048828125</ele>
        <time>2022-05-06T10:28:21.000Z</time>
      </trkpt>
      <trkpt lat="40.159363411366939544677734375" lon="-0.86313695646822452545166015625">
        <ele>1056.4000244140625</ele>
        <time>2022-05-06T10:28:23.000Z</time>
      </trkpt>
      <trkpt lat="40.1592043228447437286376953125" lon="-0.863138549029827117919921875">
        <ele>1056</ele>
        <time>2022-05-06T10:28:25.000Z</time>
      </trkpt>
      <trkpt lat="40.1590400375425815582275390625" lon="-0.86316126398742198944091796875">
        <ele>1055.5999755859375</ele>
        <time>2022-05-06T10:28:27.000Z</time>
      </trkpt>
      <trkpt lat="40.15895940363407135009765625" lon="-0.863180123269557952880859375">
        <ele>1055.4000244140625</ele>
        <time>2022-05-06T10:28:28.000Z</time>
      </trkpt>
      <trkpt lat="40.15887801535427570343017578125" lon="-0.863201580941677093505859375">
        <ele>1055.199951171875</ele>
        <time>2022-05-06T10:28:29.000Z</time>
      </trkpt>
      <trkpt lat="40.1587175019085407257080078125" lon="-0.86324089206755161285400390625">
        <ele>1054.5999755859375</ele>
        <time>2022-05-06T10:28:31.000Z</time>
      </trkpt>
      <trkpt lat="40.158634185791015625" lon="-0.8632604219019412994384765625">
        <ele>1054.199951171875</ele>
        <time>2022-05-06T10:28:32.000Z</time>
      </trkpt>
      <trkpt lat="40.1585501991212368011474609375" lon="-0.8632785268127918243408203125">
        <ele>1053.5999755859375</ele>
        <time>2022-05-06T10:28:33.000Z</time>
      </trkpt>
      <trkpt lat="40.15846663154661655426025390625" lon="-0.8632957935333251953125">
        <ele>1053.199951171875</ele>
        <time>2022-05-06T10:28:34.000Z</time>
      </trkpt>
      <trkpt lat="40.158383063971996307373046875" lon="-0.86331364698708057403564453125">
        <ele>1052.800048828125</ele>
        <time>2022-05-06T10:28:35.000Z</time>
      </trkpt>
      <trkpt lat="40.15821936540305614471435546875" lon="-0.8633563108742237091064453125">
        <ele>1052</ele>
        <time>2022-05-06T10:28:37.000Z</time>
      </trkpt>
      <trkpt lat="40.158067233860492706298828125" lon="-0.86340031586587429046630859375">
        <ele>1051.199951171875</ele>
        <time>2022-05-06T10:28:39.000Z</time>
      </trkpt>
      <trkpt lat="40.15791476704180240631103515625" lon="-0.8634408004581928253173828125">
        <ele>1050.4000244140625</ele>
        <time>2022-05-06T10:28:41.000Z</time>
      </trkpt>
      <trkpt lat="40.15776473097503185272216796875" lon="-0.863479189574718475341796875">
        <ele>1050</ele>
        <time>2022-05-06T10:28:43.000Z</time>
      </trkpt>
      <trkpt lat="40.15761922113597393035888671875" lon="-0.863518416881561279296875">
        <ele>1049.5999755859375</ele>
        <time>2022-05-06T10:28:45.000Z</time>
      </trkpt>
      <trkpt lat="40.15747723169624805450439453125" lon="-0.8635537885129451751708984375">
        <ele>1049.199951171875</ele>
        <time>2022-05-06T10:28:47.000Z</time>
      </trkpt>
      <trkpt lat="40.15733675099909305572509765625" lon="-0.86358555592596530914306640625">
        <ele>1048.5999755859375</ele>
        <time>2022-05-06T10:28:49.000Z</time>
      </trkpt>
      <trkpt lat="40.15719719231128692626953125" lon="-0.86362235248088836669921875">
        <ele>1047.5999755859375</ele>
        <time>2022-05-06T10:28:51.000Z</time>
      </trkpt>
      <trkpt lat="40.15705578960478305816650390625" lon="-0.86365596391260623931884765625">
        <ele>1047.199951171875</ele>
        <time>2022-05-06T10:28:53.000Z</time>
      </trkpt>
      <trkpt lat="40.1569861359894275665283203125" lon="-0.86367054842412471771240234375">
        <ele>1047.4000244140625</ele>
        <time>2022-05-06T10:28:54.000Z</time>
      </trkpt>
      <trkpt lat="40.15691690146923065185546875" lon="-0.86368379183113574981689453125">
        <ele>1047.4000244140625</ele>
        <time>2022-05-06T10:28:55.000Z</time>
      </trkpt>
      <trkpt lat="40.15677885152399539947509765625" lon="-0.8637076802551746368408203125">
        <ele>1047.800048828125</ele>
        <time>2022-05-06T10:28:57.000Z</time>
      </trkpt>
      <trkpt lat="40.15671129338443279266357421875" lon="-0.86371597833931446075439453125">
        <ele>1047.800048828125</ele>
        <time>2022-05-06T10:28:58.000Z</time>
      </trkpt>
      <trkpt lat="40.1566441543400287628173828125" lon="-0.863721929490566253662109375">
        <ele>1048</ele>
        <time>2022-05-06T10:28:59.000Z</time>
      </trkpt>
      <trkpt lat="40.15650945715606212615966796875" lon="-0.8637277968227863311767578125">
        <ele>1048.199951171875</ele>
        <time>2022-05-06T10:29:01.000Z</time>
      </trkpt>
      <trkpt lat="40.15638020820915699005126953125" lon="-0.8637234382331371307373046875">
        <ele>1048</ele>
        <time>2022-05-06T10:29:03.000Z</time>
      </trkpt>
      <trkpt lat="40.15625230036675930023193359375" lon="-0.863709859549999237060546875">
        <ele>1048</ele>
        <time>2022-05-06T10:29:05.000Z</time>
      </trkpt>
      <trkpt lat="40.1561249792575836181640625" lon="-0.863684713840484619140625">
        <ele>1049</ele>
        <time>2022-05-06T10:29:07.000Z</time>
      </trkpt>
      <trkpt lat="40.155999921262264251708984375" lon="-0.8636511862277984619140625">
        <ele>1050</ele>
        <time>2022-05-06T10:29:09.000Z</time>
      </trkpt>
      <trkpt lat="40.15587209723889827728271484375" lon="-0.86360516957938671112060546875">
        <ele>1050.800048828125</ele>
        <time>2022-05-06T10:29:11.000Z</time>
      </trkpt>
      <trkpt lat="40.15580805949866771697998046875" lon="-0.86358052678406238555908203125">
        <ele>1051.199951171875</ele>
        <time>2022-05-06T10:29:12.000Z</time>
      </trkpt>
      <trkpt lat="40.15574435703456401824951171875" lon="-0.8635558001697063446044921875">
        <ele>1051.5999755859375</ele>
        <time>2022-05-06T10:29:13.000Z</time>
      </trkpt>
      <trkpt lat="40.1556178741157054901123046875" lon="-0.86350190453231334686279296875">
        <ele>1052</ele>
        <time>2022-05-06T10:29:15.000Z</time>
      </trkpt>
      <trkpt lat="40.15549558214843273162841796875" lon="-0.86343652568757534027099609375">
        <ele>1052.199951171875</ele>
        <time>2022-05-06T10:29:17.000Z</time>
      </trkpt>
      <trkpt lat="40.1553784869611263275146484375" lon="-0.86336343549191951751708984375">
        <ele>1051.5999755859375</ele>
        <time>2022-05-06T10:29:19.000Z</time>
      </trkpt>
      <trkpt lat="40.15526273287832736968994140625" lon="-0.86328783072531223297119140625">
        <ele>1050.4000244140625</ele>
        <time>2022-05-06T10:29:21.000Z</time>
      </trkpt>
      <trkpt lat="40.15514605678617954254150390625" lon="-0.86320401169359683990478515625">
        <ele>1049.800048828125</ele>
        <time>2022-05-06T10:29:23.000Z</time>
      </trkpt>
      <trkpt lat="40.15508637763559818267822265625" lon="-0.86316226981580257415771484375">
        <ele>1049.800048828125</ele>
        <time>2022-05-06T10:29:24.000Z</time>
      </trkpt>
      <trkpt lat="40.15502502210438251495361328125" lon="-0.86312237195670604705810546875">
        <ele>1049.800048828125</ele>
        <time>2022-05-06T10:29:25.000Z</time>
      </trkpt>
      <trkpt lat="40.154964588582515716552734375" lon="-0.863081552088260650634765625">
        <ele>1049.5999755859375</ele>
        <time>2022-05-06T10:29:26.000Z</time>
      </trkpt>
      <trkpt lat="40.154904909431934356689453125" lon="-0.86303838528692722320556640625">
        <ele>1049.4000244140625</ele>
        <time>2022-05-06T10:29:27.000Z</time>
      </trkpt>
      <trkpt lat="40.15477976761758327484130859375" lon="-0.86295389570295810699462890625">
        <ele>1048.800048828125</ele>
        <time>2022-05-06T10:29:29.000Z</time>
      </trkpt>
      <trkpt lat="40.1546583138406276702880859375" lon="-0.8628704957664012908935546875">
        <ele>1048.199951171875</ele>
        <time>2022-05-06T10:29:31.000Z</time>
      </trkpt>
      <trkpt lat="40.1545359380543231964111328125" lon="-0.862790532410144805908203125">
        <ele>1047.800048828125</ele>
        <time>2022-05-06T10:29:33.000Z</time>
      </trkpt>
      <trkpt lat="40.15441146679222583770751953125" lon="-0.86270545609295368194580078125">
        <ele>1047</ele>
        <time>2022-05-06T10:29:35.000Z</time>
      </trkpt>
      <trkpt lat="40.15434960834681987762451171875" lon="-0.86266488768160343170166015625">
        <ele>1046.5999755859375</ele>
        <time>2022-05-06T10:29:36.000Z</time>
      </trkpt>
      <trkpt lat="40.15428707934916019439697265625" lon="-0.862622894346714019775390625">
        <ele>1046.4000244140625</ele>
        <time>2022-05-06T10:29:37.000Z</time>
      </trkpt>
      <trkpt lat="40.1541604287922382354736328125" lon="-0.86254008114337921142578125">
        <ele>1046.199951171875</ele>
        <time>2022-05-06T10:29:39.000Z</time>
      </trkpt>
      <trkpt lat="40.154033862054347991943359375" lon="-0.86245802231132984161376953125">
        <ele>1046.199951171875</ele>
        <time>2022-05-06T10:29:41.000Z</time>
      </trkpt>
      <trkpt lat="40.15397183597087860107421875" lon="-0.862416364252567291259765625">
        <ele>1046.199951171875</ele>
        <time>2022-05-06T10:29:42.000Z</time>
      </trkpt>
      <trkpt lat="40.153911150991916656494140625" lon="-0.86237420327961444854736328125">
        <ele>1046.199951171875</ele>
        <time>2022-05-06T10:29:43.000Z</time>
      </trkpt>
      <trkpt lat="40.1537954807281494140625" lon="-0.8622817508876323699951171875">
        <ele>1046.199951171875</ele>
        <time>2022-05-06T10:29:45.000Z</time>
      </trkpt>
      <trkpt lat="40.15368877910077571868896484375" lon="-0.86218343116343021392822265625">
        <ele>1046.5999755859375</ele>
        <time>2022-05-06T10:29:47.000Z</time>
      </trkpt>
      <trkpt lat="40.15358886681497097015380859375" lon="-0.86208033375442028045654296875">
        <ele>1047</ele>
        <time>2022-05-06T10:29:49.000Z</time>
      </trkpt>
      <trkpt lat="40.15354159288108348846435546875" lon="-0.862023420631885528564453125">
        <ele>1047</ele>
        <time>2022-05-06T10:29:50.000Z</time>
      </trkpt>
      <trkpt lat="40.15349532477557659149169921875" lon="-0.8619618974626064300537109375">
        <ele>1047.199951171875</ele>
        <time>2022-05-06T10:29:51.000Z</time>
      </trkpt>
      <trkpt lat="40.1534057222306728363037109375" lon="-0.86183172650635242462158203125">
        <ele>1047.199951171875</ele>
        <time>2022-05-06T10:29:53.000Z</time>
      </trkpt>
      <trkpt lat="40.15331796370446681976318359375" lon="-0.861693508923053741455078125">
        <ele>1046.4000244140625</ele>
        <time>2022-05-06T10:29:55.000Z</time>
      </trkpt>
      <trkpt lat="40.153241269290447235107421875" lon="-0.8615411259233951568603515625">
        <ele>1045.199951171875</ele>
        <time>2022-05-06T10:29:57.000Z</time>
      </trkpt>
      <trkpt lat="40.15317396260797977447509765625" lon="-0.86137658916413784027099609375">
        <ele>1043.800048828125</ele>
        <time>2022-05-06T10:29:59.000Z</time>
      </trkpt>
      <trkpt lat="40.1531143672764301300048828125" lon="-0.86120693944394588470458984375">
        <ele>1043.800048828125</ele>
        <time>2022-05-06T10:30:01.000Z</time>
      </trkpt>
      <trkpt lat="40.15306499786674976348876953125" lon="-0.86102731525897979736328125">
        <ele>1043.199951171875</ele>
        <time>2022-05-06T10:30:03.000Z</time>
      </trkpt>
      <trkpt lat="40.1530255191028118133544921875" lon="-0.8608504571020603179931640625">
        <ele>1042.800048828125</ele>
        <time>2022-05-06T10:30:05.000Z</time>
      </trkpt>
      <trkpt lat="40.1529970206320285797119140625" lon="-0.86067217402160167694091796875">
        <ele>1042.199951171875</ele>
        <time>2022-05-06T10:30:07.000Z</time>
      </trkpt>
      <trkpt lat="40.15297967009246349334716796875" lon="-0.860490538179874420166015625">
        <ele>1041.5999755859375</ele>
        <time>2022-05-06T10:30:09.000Z</time>
      </trkpt>
      <trkpt lat="40.1529695279896259307861328125" lon="-0.86030839942395687103271484375">
        <ele>1041.199951171875</ele>
        <time>2022-05-06T10:30:11.000Z</time>
      </trkpt>
      <trkpt lat="40.15296173281967639923095703125" lon="-0.86012735031545162200927734375">
        <ele>1040.800048828125</ele>
        <time>2022-05-06T10:30:13.000Z</time>
      </trkpt>
      <trkpt lat="40.15296055935323238372802734375" lon="-0.8600390888750553131103515625">
        <ele>1040.5999755859375</ele>
        <time>2022-05-06T10:30:14.000Z</time>
      </trkpt>
      <trkpt lat="40.15295804478228092193603515625" lon="-0.859952755272388458251953125">
        <ele>1040.4000244140625</ele>
        <time>2022-05-06T10:30:15.000Z</time>
      </trkpt>
      <trkpt lat="40.1529551111161708831787109375" lon="-0.85978536866605281829833984375">
        <ele>1040</ele>
        <time>2022-05-06T10:30:17.000Z</time>
      </trkpt>
      <trkpt lat="40.1529504172503948211669921875" lon="-0.85962242446839809417724609375">
        <ele>1040.199951171875</ele>
        <time>2022-05-06T10:30:19.000Z</time>
      </trkpt>
      <trkpt lat="40.15294547192752361297607421875" lon="-0.859459228813648223876953125">
        <ele>1041</ele>
        <time>2022-05-06T10:30:21.000Z</time>
      </trkpt>
      <trkpt lat="40.15294010750949382781982421875" lon="-0.8592944405972957611083984375">
        <ele>1041.5999755859375</ele>
        <time>2022-05-06T10:30:23.000Z</time>
      </trkpt>
      <trkpt lat="40.15293826349079608917236328125" lon="-0.8591311611235141754150390625">
        <ele>1042.199951171875</ele>
        <time>2022-05-06T10:30:25.000Z</time>
      </trkpt>
      <trkpt lat="40.152932815253734588623046875" lon="-0.85896662436425685882568359375">
        <ele>1042.800048828125</ele>
        <time>2022-05-06T10:30:27.000Z</time>
      </trkpt>
      <trkpt lat="40.152925439178943634033203125" lon="-0.85880736820399761199951171875">
        <ele>1043.199951171875</ele>
        <time>2022-05-06T10:30:29.000Z</time>
      </trkpt>
      <trkpt lat="40.15292267315089702606201171875" lon="-0.85873042233288288116455078125">
        <ele>1043.199951171875</ele>
        <time>2022-05-06T10:30:30.000Z</time>
      </trkpt>
      <trkpt lat="40.15291680581867694854736328125" lon="-0.85865096189081668853759765625">
        <ele>1043.199951171875</ele>
        <time>2022-05-06T10:30:31.000Z</time>
      </trkpt>
      <trkpt lat="40.15289886854588985443115234375" lon="-0.858484916388988494873046875">
        <ele>1043.4000244140625</ele>
        <time>2022-05-06T10:30:33.000Z</time>
      </trkpt>
      <trkpt lat="40.15287975780665874481201171875" lon="-0.85832172073423862457275390625">
        <ele>1043.5999755859375</ele>
        <time>2022-05-06T10:30:35.000Z</time>
      </trkpt>
      <trkpt lat="40.152875818312168121337890625" lon="-0.8582411706447601318359375">
        <ele>1043.800048828125</ele>
        <time>2022-05-06T10:30:36.000Z</time>
      </trkpt>
      <trkpt lat="40.15286735258996486663818359375" lon="-0.85816330276429653167724609375">
        <ele>1043.800048828125</ele>
        <time>2022-05-06T10:30:37.000Z</time>
      </trkpt>
      <trkpt lat="40.15283583663403987884521484375" lon="-0.85801251232624053955078125">
        <ele>1044</ele>
        <time>2022-05-06T10:30:39.000Z</time>
      </trkpt>
      <trkpt lat="40.15280373394489288330078125" lon="-0.85786457173526287078857421875">
        <ele>1044.4000244140625</ele>
        <time>2022-05-06T10:30:41.000Z</time>
      </trkpt>
      <trkpt lat="40.1527814380824565887451171875" lon="-0.85779315792024135589599609375">
        <ele>1044.5999755859375</ele>
        <time>2022-05-06T10:30:42.000Z</time>
      </trkpt>
      <trkpt lat="40.15275972895324230194091796875" lon="-0.85772006772458553314208984375">
        <ele>1045</ele>
        <time>2022-05-06T10:30:43.000Z</time>
      </trkpt>
      <trkpt lat="40.1527184061706066131591796875" lon="-0.8575701154768466949462890625">
        <ele>1045.4000244140625</ele>
        <time>2022-05-06T10:30:45.000Z</time>
      </trkpt>
      <trkpt lat="40.15266350470483303070068359375" lon="-0.85742854513227939605712890625">
        <ele>1045.800048828125</ele>
        <time>2022-05-06T10:30:47.000Z</time>
      </trkpt>
      <trkpt lat="40.15263299457728862762451171875" lon="-0.8573640882968902587890625">
        <ele>1045.5999755859375</ele>
        <time>2022-05-06T10:30:48.000Z</time>
      </trkpt>
      <trkpt lat="40.15260994434356689453125" lon="-0.8572982065379619598388671875">
        <ele>1045.4000244140625</ele>
        <time>2022-05-06T10:30:49.000Z</time>
      </trkpt>
      <trkpt lat="40.1525842957198619842529296875" lon="-0.85723190568387508392333984375">
        <ele>1045.4000244140625</ele>
        <time>2022-05-06T10:30:50.000Z</time>
      </trkpt>
      <trkpt lat="40.15255252830684185028076171875" lon="-0.8571704663336277008056640625">
        <ele>1045.199951171875</ele>
        <time>2022-05-06T10:30:51.000Z</time>
      </trkpt>
      <trkpt lat="40.15248832292854785919189453125" lon="-0.8570511080324649810791015625">
        <ele>1044.800048828125</ele>
        <time>2022-05-06T10:30:53.000Z</time>
      </trkpt>
      <trkpt lat="40.1524221897125244140625" lon="-0.856930576264858245849609375">
        <ele>1044.4000244140625</ele>
        <time>2022-05-06T10:30:55.000Z</time>
      </trkpt>
      <trkpt lat="40.152388326823711395263671875" lon="-0.856872238218784332275390625">
        <ele>1044.4000244140625</ele>
        <time>2022-05-06T10:30:56.000Z</time>
      </trkpt>
      <trkpt lat="40.152353458106517791748046875" lon="-0.85681398399174213409423828125">
        <ele>1044.4000244140625</ele>
        <time>2022-05-06T10:30:57.000Z</time>
      </trkpt>
      <trkpt lat="40.15229000709950923919677734375" lon="-0.856716334819793701171875">
        <ele>1044.199951171875</ele>
        <time>2022-05-06T10:30:59.000Z</time>
      </trkpt>
      <trkpt lat="40.1522741653025150299072265625" lon="-0.85669445805251598358154296875">
        <ele>1044.199951171875</ele>
        <time>2022-05-06T10:31:00.000Z</time>
      </trkpt>
      <trkpt lat="40.1522688008844852447509765625" lon="-0.85669026710093021392822265625">
        <ele>1044.4000244140625</ele>
        <time>2022-05-06T10:31:01.000Z</time>
      </trkpt>
      <trkpt lat="40.15227005816996097564697265625" lon="-0.85669060237705707550048828125">
        <ele>1044.4000244140625</ele>
        <time>2022-05-06T10:31:02.000Z</time>
      </trkpt>
      <trkpt lat="40.15224927105009555816650390625" lon="-0.85665665566921234130859375">
        <ele>1044.199951171875</ele>
        <time>2022-05-06T10:31:45.000Z</time>
      </trkpt>
      <trkpt lat="40.1522359438240528106689453125" lon="-0.85663159377872943878173828125">
        <ele>1044.199951171875</ele>
        <time>2022-05-06T10:31:46.000Z</time>
      </trkpt>
      <trkpt lat="40.15221993438899517059326171875" lon="-0.85660175420343875885009765625">
        <ele>1044.199951171875</ele>
        <time>2022-05-06T10:31:47.000Z</time>
      </trkpt>
      <trkpt lat="40.15218590386211872100830078125" lon="-0.85653000511229038238525390625">
        <ele>1044.199951171875</ele>
        <time>2022-05-06T10:31:49.000Z</time>
      </trkpt>
      <trkpt lat="40.15213930048048496246337890625" lon="-0.8564492873847484588623046875">
        <ele>1044</ele>
        <time>2022-05-06T10:31:51.000Z</time>
      </trkpt>
      <trkpt lat="40.1520877517759799957275390625" lon="-0.856354571878910064697265625">
        <ele>1043.800048828125</ele>
        <time>2022-05-06T10:31:53.000Z</time>
      </trkpt>
      <trkpt lat="40.15202949754893779754638671875" lon="-0.8562541566789150238037109375">
        <ele>1043</ele>
        <time>2022-05-06T10:31:55.000Z</time>
      </trkpt>
      <trkpt lat="40.15197183005511760711669921875" lon="-0.856150723993778228759765625">
        <ele>1042.199951171875</ele>
        <time>2022-05-06T10:31:57.000Z</time>
      </trkpt>
      <trkpt lat="40.15194349922239780426025390625" lon="-0.85610219277441501617431640625">
        <ele>1041.800048828125</ele>
        <time>2022-05-06T10:31:58.000Z</time>
      </trkpt>
      <trkpt lat="40.15191416256129741668701171875" lon="-0.85605315864086151123046875">
        <ele>1041.4000244140625</ele>
        <time>2022-05-06T10:31:59.000Z</time>
      </trkpt>
      <trkpt lat="40.15185833908617496490478515625" lon="-0.855951569974422454833984375">
        <ele>1040.800048828125</ele>
        <time>2022-05-06T10:32:01.000Z</time>
      </trkpt>
      <trkpt lat="40.151795558631420135498046875" lon="-0.8558414317667484283447265625">
        <ele>1040</ele>
        <time>2022-05-06T10:32:03.000Z</time>
      </trkpt>
      <trkpt lat="40.151729844510555267333984375" lon="-0.85571344010531902313232421875">
        <ele>1039.199951171875</ele>
        <time>2022-05-06T10:32:05.000Z</time>
      </trkpt>
      <trkpt lat="40.15169757418334484100341796875" lon="-0.8556469716131687164306640625">
        <ele>1039</ele>
        <time>2022-05-06T10:32:06.000Z</time>
      </trkpt>
      <trkpt lat="40.151663459837436676025390625" lon="-0.8555802516639232635498046875">
        <ele>1038.5999755859375</ele>
        <time>2022-05-06T10:32:07.000Z</time>
      </trkpt>
      <trkpt lat="40.1516284234821796417236328125" lon="-0.8555121906101703643798828125">
        <ele>1038.199951171875</ele>
        <time>2022-05-06T10:32:08.000Z</time>
      </trkpt>
      <trkpt lat="40.151593387126922607421875" lon="-0.855445303022861480712890625">
        <ele>1037.800048828125</ele>
        <time>2022-05-06T10:32:09.000Z</time>
      </trkpt>
      <trkpt lat="40.15152222476899623870849609375" lon="-0.85531412623822689056396484375">
        <ele>1037.199951171875</ele>
        <time>2022-05-06T10:32:11.000Z</time>
      </trkpt>
      <trkpt lat="40.15145265497267246246337890625" lon="-0.85517942905426025390625">
        <ele>1036.4000244140625</ele>
        <time>2022-05-06T10:32:13.000Z</time>
      </trkpt>
      <trkpt lat="40.1513830013573169708251953125" lon="-0.855045653879642486572265625">
        <ele>1035.5999755859375</ele>
        <time>2022-05-06T10:32:15.000Z</time>
      </trkpt>
      <trkpt lat="40.15134771354496479034423828125" lon="-0.85497759282588958740234375">
        <ele>1035.199951171875</ele>
        <time>2022-05-06T10:32:16.000Z</time>
      </trkpt>
      <trkpt lat="40.151312761008739471435546875" lon="-0.85491045378148555755615234375">
        <ele>1035</ele>
        <time>2022-05-06T10:32:17.000Z</time>
      </trkpt>
      <trkpt lat="40.1512435264885425567626953125" lon="-0.85477734915912151336669921875">
        <ele>1034.199951171875</ele>
        <time>2022-05-06T10:32:19.000Z</time>
      </trkpt>
      <trkpt lat="40.15117831528186798095703125" lon="-0.85463561117649078369140625">
        <ele>1034.199951171875</ele>
        <time>2022-05-06T10:32:21.000Z</time>
      </trkpt>
      <trkpt lat="40.151117630302906036376953125" lon="-0.85448632948100566864013671875">
        <ele>1034.199951171875</ele>
        <time>2022-05-06T10:32:23.000Z</time>
      </trkpt>
      <trkpt lat="40.15108971856534481048583984375" lon="-0.854410640895366668701171875">
        <ele>1034.199951171875</ele>
        <time>2022-05-06T10:32:24.000Z</time>
      </trkpt>
      <trkpt lat="40.151064656674861907958984375" lon="-0.85433545522391796112060546875">
        <ele>1034.199951171875</ele>
        <time>2022-05-06T10:32:25.000Z</time>
      </trkpt>
      <trkpt lat="40.1510219089686870574951171875" lon="-0.85418458096683025360107421875">
        <ele>1034.199951171875</ele>
        <time>2022-05-06T10:32:27.000Z</time>
      </trkpt>
      <trkpt lat="40.1509870402514934539794921875" lon="-0.85403672419488430023193359375">
        <ele>1035</ele>
        <time>2022-05-06T10:32:29.000Z</time>
      </trkpt>
      <trkpt lat="40.15095946379005908966064453125" lon="-0.8538850955665111541748046875">
        <ele>1035.5999755859375</ele>
        <time>2022-05-06T10:32:31.000Z</time>
      </trkpt>
      <trkpt lat="40.150939933955669403076171875" lon="-0.85373028181493282318115234375">
        <ele>1035.5999755859375</ele>
        <time>2022-05-06T10:32:33.000Z</time>
      </trkpt>
      <trkpt lat="40.1509337313473224639892578125" lon="-0.85357136093080043792724609375">
        <ele>1035.4000244140625</ele>
        <time>2022-05-06T10:32:35.000Z</time>
      </trkpt>
      <trkpt lat="40.15093482099473476409912109375" lon="-0.85349223576486110687255859375">
        <ele>1035.4000244140625</ele>
        <time>2022-05-06T10:32:36.000Z</time>
      </trkpt>
      <trkpt lat="40.15093666501343250274658203125" lon="-0.85341244004666805267333984375">
        <ele>1035.199951171875</ele>
        <time>2022-05-06T10:32:37.000Z</time>
      </trkpt>
      <trkpt lat="40.15094018541276454925537109375" lon="-0.8533327281475067138671875">
        <ele>1035.199951171875</ele>
        <time>2022-05-06T10:32:38.000Z</time>
      </trkpt>
      <trkpt lat="40.1509456336498260498046875" lon="-0.85325301624834537506103515625">
        <ele>1035.4000244140625</ele>
        <time>2022-05-06T10:32:39.000Z</time>
      </trkpt>
      <trkpt lat="40.15095896087586879730224609375" lon="-0.85309459827840328216552734375">
        <ele>1035.4000244140625</ele>
        <time>2022-05-06T10:32:41.000Z</time>
      </trkpt>
      <trkpt lat="40.15098175965249538421630859375" lon="-0.852938108146190643310546875">
        <ele>1035.199951171875</ele>
        <time>2022-05-06T10:32:43.000Z</time>
      </trkpt>
      <trkpt lat="40.151007659733295440673828125" lon="-0.85277893580496311187744140625">
        <ele>1034.800048828125</ele>
        <time>2022-05-06T10:32:45.000Z</time>
      </trkpt>
      <trkpt lat="40.1510373316705226898193359375" lon="-0.8526160754263401031494140625">
        <ele>1034.5999755859375</ele>
        <time>2022-05-06T10:32:47.000Z</time>
      </trkpt>
      <trkpt lat="40.15106406994163990020751953125" lon="-0.85244919173419475555419921875">
        <ele>1034.199951171875</ele>
        <time>2022-05-06T10:32:49.000Z</time>
      </trkpt>
      <trkpt lat="40.15107982791960239410400390625" lon="-0.85236486978828907012939453125">
        <ele>1034.199951171875</ele>
        <time>2022-05-06T10:32:50.000Z</time>
      </trkpt>
      <trkpt lat="40.15109558589756488800048828125" lon="-0.8522771112620830535888671875">
        <ele>1034</ele>
        <time>2022-05-06T10:32:51.000Z</time>
      </trkpt>
      <trkpt lat="40.1511285267770290374755859375" lon="-0.85210033692419528961181640625">
        <ele>1034.199951171875</ele>
        <time>2022-05-06T10:32:53.000Z</time>
      </trkpt>
      <trkpt lat="40.1511576958000659942626953125" lon="-0.85192465223371982574462890625">
        <ele>1034.4000244140625</ele>
        <time>2022-05-06T10:32:55.000Z</time>
      </trkpt>
      <trkpt lat="40.151190049946308135986328125" lon="-0.8517555892467498779296875">
        <ele>1034.800048828125</ele>
        <time>2022-05-06T10:32:57.000Z</time>
      </trkpt>
      <trkpt lat="40.15120706520974636077880859375" lon="-0.85166816599667072296142578125">
        <ele>1034.800048828125</ele>
        <time>2022-05-06T10:32:58.000Z</time>
      </trkpt>
      <trkpt lat="40.15122114680707454681396484375" lon="-0.85158057510852813720703125">
        <ele>1035</ele>
        <time>2022-05-06T10:32:59.000Z</time>
      </trkpt>
      <trkpt lat="40.1512606255710124969482421875" lon="-0.85140648297965526580810546875">
        <ele>1035.199951171875</ele>
        <time>2022-05-06T10:33:01.000Z</time>
      </trkpt>
      <trkpt lat="40.15129507519304752349853515625" lon="-0.8512307144701480865478515625">
        <ele>1034.4000244140625</ele>
        <time>2022-05-06T10:33:03.000Z</time>
      </trkpt>
      <trkpt lat="40.15132223255932331085205078125" lon="-0.85106433369219303131103515625">
        <ele>1033.800048828125</ele>
        <time>2022-05-06T10:33:05.000Z</time>
      </trkpt>
      <trkpt lat="40.15135106630623340606689453125" lon="-0.8508934266865253448486328125">
        <ele>1033</ele>
        <time>2022-05-06T10:33:07.000Z</time>
      </trkpt>
      <trkpt lat="40.15138358809053897857666015625" lon="-0.850721932947635650634765625">
        <ele>1032.4000244140625</ele>
        <time>2022-05-06T10:33:09.000Z</time>
      </trkpt>
      <trkpt lat="40.15141510404646396636962890625" lon="-0.85054482333362102508544921875">
        <ele>1031.5999755859375</ele>
        <time>2022-05-06T10:33:11.000Z</time>
      </trkpt>
      <trkpt lat="40.151448212563991546630859375" lon="-0.8503720723092555999755859375">
        <ele>1031.4000244140625</ele>
        <time>2022-05-06T10:33:13.000Z</time>
      </trkpt>
      <trkpt lat="40.151464976370334625244140625" lon="-0.85028615780174732208251953125">
        <ele>1031</ele>
        <time>2022-05-06T10:33:14.000Z</time>
      </trkpt>
      <trkpt lat="40.15148215927183628082275390625" lon="-0.85020217113196849822998046875">
        <ele>1030.800048828125</ele>
        <time>2022-05-06T10:33:15.000Z</time>
      </trkpt>
      <trkpt lat="40.15151333995163440704345703125" lon="-0.850035957992076873779296875">
        <ele>1030.4000244140625</ele>
        <time>2022-05-06T10:33:17.000Z</time>
      </trkpt>
      <trkpt lat="40.15154485590755939483642578125" lon="-0.849871672689914703369140625">
        <ele>1030</ele>
        <time>2022-05-06T10:33:19.000Z</time>
      </trkpt>
      <trkpt lat="40.151558183133602142333984375" lon="-0.84979011677205562591552734375">
        <ele>1029.800048828125</ele>
        <time>2022-05-06T10:33:20.000Z</time>
      </trkpt>
      <trkpt lat="40.1515714265406131744384765625" lon="-0.8497062139213085174560546875">
        <ele>1029.4000244140625</ele>
        <time>2022-05-06T10:33:21.000Z</time>
      </trkpt>
      <trkpt lat="40.1516019366681575775146484375" lon="-0.84953497163951396942138671875">
        <ele>1028.800048828125</ele>
        <time>2022-05-06T10:33:23.000Z</time>
      </trkpt>
      <trkpt lat="40.151634626090526580810546875" lon="-0.84936238825321197509765625">
        <ele>1028.199951171875</ele>
        <time>2022-05-06T10:33:25.000Z</time>
      </trkpt>
      <trkpt lat="40.15166823752224445343017578125" lon="-0.849190056324005126953125">
        <ele>1028</ele>
        <time>2022-05-06T10:33:27.000Z</time>
      </trkpt>
      <trkpt lat="40.1516991667449474334716796875" lon="-0.84902099333703517913818359375">
        <ele>1027.800048828125</ele>
        <time>2022-05-06T10:33:29.000Z</time>
      </trkpt>
      <trkpt lat="40.1517303474247455596923828125" lon="-0.84885335527360439300537109375">
        <ele>1027.4000244140625</ele>
        <time>2022-05-06T10:33:31.000Z</time>
      </trkpt>
      <trkpt lat="40.1517625339329242706298828125" lon="-0.84868923760950565338134765625">
        <ele>1026.5999755859375</ele>
        <time>2022-05-06T10:33:33.000Z</time>
      </trkpt>
      <trkpt lat="40.1517940498888492584228515625" lon="-0.8485247008502483367919921875">
        <ele>1025.800048828125</ele>
        <time>2022-05-06T10:33:35.000Z</time>
      </trkpt>
      <trkpt lat="40.15182179398834705352783203125" lon="-0.84836058318614959716796875">
        <ele>1025.199951171875</ele>
        <time>2022-05-06T10:33:37.000Z</time>
      </trkpt>
      <trkpt lat="40.151847191154956817626953125" lon="-0.8481962978839874267578125">
        <ele>1024.4000244140625</ele>
        <time>2022-05-06T10:33:39.000Z</time>
      </trkpt>
      <trkpt lat="40.15186403878033161163330078125" lon="-0.8480251394212245941162109375">
        <ele>1023.79998779296875</ele>
        <time>2022-05-06T10:33:41.000Z</time>
      </trkpt>
      <trkpt lat="40.15187325887382030487060546875" lon="-0.84785456769168376922607421875">
        <ele>1023</ele>
        <time>2022-05-06T10:33:43.000Z</time>
      </trkpt>
      <trkpt lat="40.15187677927315235137939453125" lon="-0.84776781499385833740234375">
        <ele>1022.79998779296875</ele>
        <time>2022-05-06T10:33:44.000Z</time>
      </trkpt>
      <trkpt lat="40.151878707110881805419921875" lon="-0.8476804755628108978271484375">
        <ele>1022.4000244140625</ele>
        <time>2022-05-06T10:33:45.000Z</time>
      </trkpt>
      <trkpt lat="40.15187971293926239013671875" lon="-0.84750722162425518035888671875">
        <ele>1021.79998779296875</ele>
        <time>2022-05-06T10:33:47.000Z</time>
      </trkpt>
      <trkpt lat="40.1518736779689788818359375" lon="-0.8473321236670017242431640625">
        <ele>1021.5999755859375</ele>
        <time>2022-05-06T10:33:49.000Z</time>
      </trkpt>
      <trkpt lat="40.15185867436230182647705078125" lon="-0.847151912748813629150390625">
        <ele>1021.5999755859375</ele>
        <time>2022-05-06T10:33:51.000Z</time>
      </trkpt>
      <trkpt lat="40.15183554030954837799072265625" lon="-0.846969187259674072265625">
        <ele>1022</ele>
        <time>2022-05-06T10:33:53.000Z</time>
      </trkpt>
      <trkpt lat="40.1518012583255767822265625" lon="-0.8467816002666950225830078125">
        <ele>1022.4000244140625</ele>
        <time>2022-05-06T10:33:55.000Z</time>
      </trkpt>
      <trkpt lat="40.15178306959569454193115234375" lon="-0.84668763913214206695556640625">
        <ele>1022.5999755859375</ele>
        <time>2022-05-06T10:33:56.000Z</time>
      </trkpt>
      <trkpt lat="40.15176295302808284759521484375" lon="-0.846593677997589111328125">
        <ele>1022.4000244140625</ele>
        <time>2022-05-06T10:33:57.000Z</time>
      </trkpt>
      <trkpt lat="40.151715092360973358154296875" lon="-0.84640634246170520782470703125">
        <ele>1022.4000244140625</ele>
        <time>2022-05-06T10:33:59.000Z</time>
      </trkpt>
      <trkpt lat="40.15165382064878940582275390625" lon="-0.84622277878224849700927734375">
        <ele>1022.4000244140625</ele>
        <time>2022-05-06T10:34:01.000Z</time>
      </trkpt>
      <trkpt lat="40.15158156864345073699951171875" lon="-0.84604256786406040191650390625">
        <ele>1022.4000244140625</ele>
        <time>2022-05-06T10:34:03.000Z</time>
      </trkpt>
      <trkpt lat="40.15150529332458972930908203125" lon="-0.84586805664002895355224609375">
        <ele>1022.5999755859375</ele>
        <time>2022-05-06T10:34:05.000Z</time>
      </trkpt>
      <trkpt lat="40.15143153257668018341064453125" lon="-0.84570812992751598358154296875">
        <ele>1022.79998779296875</ele>
        <time>2022-05-06T10:34:07.000Z</time>
      </trkpt>
      <trkpt lat="40.15139364637434482574462890625" lon="-0.8456321060657501220703125">
        <ele>1023</ele>
        <time>2022-05-06T10:34:08.000Z</time>
      </trkpt>
      <trkpt lat="40.151352994143962860107421875" lon="-0.84556144662201404571533203125">
        <ele>1023.20001220703125</ele>
        <time>2022-05-06T10:34:09.000Z</time>
      </trkpt>
      <trkpt lat="40.151314102113246917724609375" lon="-0.8454914577305316925048828125">
        <ele>1023.4000244140625</ele>
        <time>2022-05-06T10:34:10.000Z</time>
      </trkpt>
      <trkpt lat="40.15127898193895816802978515625" lon="-0.84542230702936649322509765625">
        <ele>1023.4000244140625</ele>
        <time>2022-05-06T10:34:11.000Z</time>
      </trkpt>
      <trkpt lat="40.15120538882911205291748046875" lon="-0.84527864120900630950927734375">
        <ele>1023.79998779296875</ele>
        <time>2022-05-06T10:34:13.000Z</time>
      </trkpt>
      <trkpt lat="40.15113271772861480712890625" lon="-0.84513212554156780242919921875">
        <ele>1024.199951171875</ele>
        <time>2022-05-06T10:34:15.000Z</time>
      </trkpt>
      <trkpt lat="40.15109592117369174957275390625" lon="-0.84505878388881683349609375">
        <ele>1024.4000244140625</ele>
        <time>2022-05-06T10:34:16.000Z</time>
      </trkpt>
      <trkpt lat="40.1510574482381343841552734375" lon="-0.8449861966073513031005859375">
        <ele>1024.5999755859375</ele>
        <time>2022-05-06T10:34:17.000Z</time>
      </trkpt>
      <trkpt lat="40.150981843471527099609375" lon="-0.8448369987308979034423828125">
        <ele>1023.79998779296875</ele>
        <time>2022-05-06T10:34:19.000Z</time>
      </trkpt>
      <trkpt lat="40.15090816654264926910400390625" lon="-0.84469140507280826568603515625">
        <ele>1023</ele>
        <time>2022-05-06T10:34:21.000Z</time>
      </trkpt>
      <trkpt lat="40.1508338190615177154541015625" lon="-0.84454757161438465118408203125">
        <ele>1023</ele>
        <time>2022-05-06T10:34:23.000Z</time>
      </trkpt>
      <trkpt lat="40.15079786069691181182861328125" lon="-0.84447699598968029022216796875">
        <ele>1023</ele>
        <time>2022-05-06T10:34:24.000Z</time>
      </trkpt>
      <trkpt lat="40.15076123178005218505859375" lon="-0.84440625272691249847412109375">
        <ele>1023</ele>
        <time>2022-05-06T10:34:25.000Z</time>
      </trkpt>
      <trkpt lat="40.15068956650793552398681640625" lon="-0.84426778368651866912841796875">
        <ele>1022.5999755859375</ele>
        <time>2022-05-06T10:34:27.000Z</time>
      </trkpt>
      <trkpt lat="40.150620751082897186279296875" lon="-0.84412914700806140899658203125">
        <ele>1022.20001220703125</ele>
        <time>2022-05-06T10:34:29.000Z</time>
      </trkpt>
      <trkpt lat="40.15054975636303424835205078125" lon="-0.843998976051807403564453125">
        <ele>1022</ele>
        <time>2022-05-06T10:34:31.000Z</time>
      </trkpt>
      <trkpt lat="40.15048068948090076446533203125" lon="-0.8438714034855365753173828125">
        <ele>1021.79998779296875</ele>
        <time>2022-05-06T10:34:33.000Z</time>
      </trkpt>
      <trkpt lat="40.15041329897940158843994140625" lon="-0.84373922087252140045166015625">
        <ele>1021.79998779296875</ele>
        <time>2022-05-06T10:34:35.000Z</time>
      </trkpt>
      <trkpt lat="40.1503448188304901123046875" lon="-0.84360678680241107940673828125">
        <ele>1022.4000244140625</ele>
        <time>2022-05-06T10:34:37.000Z</time>
      </trkpt>
      <trkpt lat="40.1503091119229793548583984375" lon="-0.84354392252862453460693359375">
        <ele>1022.79998779296875</ele>
        <time>2022-05-06T10:34:38.000Z</time>
      </trkpt>
      <trkpt lat="40.15027382411062717437744140625" lon="-0.843480639159679412841796875">
        <ele>1023</ele>
        <time>2022-05-06T10:34:39.000Z</time>
      </trkpt>
      <trkpt lat="40.1502045057713985443115234375" lon="-0.84334619343280792236328125">
        <ele>1023.5999755859375</ele>
        <time>2022-05-06T10:34:41.000Z</time>
      </trkpt>
      <trkpt lat="40.15012848190963268280029296875" lon="-0.84322054870426654815673828125">
        <ele>1023.5999755859375</ele>
        <time>2022-05-06T10:34:43.000Z</time>
      </trkpt>
      <trkpt lat="40.15004784800112247467041015625" lon="-0.84309632889926433563232421875">
        <ele>1023.20001220703125</ele>
        <time>2022-05-06T10:34:45.000Z</time>
      </trkpt>
      <trkpt lat="40.14996252022683620452880859375" lon="-0.84297738969326019287109375">
        <ele>1023.5999755859375</ele>
        <time>2022-05-06T10:34:47.000Z</time>
      </trkpt>
      <trkpt lat="40.14991373755037784576416015625" lon="-0.8429195545613765716552734375">
        <ele>1024.199951171875</ele>
        <time>2022-05-06T10:34:48.000Z</time>
      </trkpt>
      <trkpt lat="40.1498638652265071868896484375" lon="-0.84286347962915897369384765625">
        <ele>1024.800048828125</ele>
        <time>2022-05-06T10:34:49.000Z</time>
      </trkpt>
      <trkpt lat="40.1497654616832733154296875" lon="-0.84276004694402217864990234375">
        <ele>1024.5999755859375</ele>
        <time>2022-05-06T10:34:51.000Z</time>
      </trkpt>
      <trkpt lat="40.14966110698878765106201171875" lon="-0.84266893565654754638671875">
        <ele>1024</ele>
        <time>2022-05-06T10:34:53.000Z</time>
      </trkpt>
      <trkpt lat="40.149549879133701324462890625" lon="-0.842592157423496246337890625">
        <ele>1024.4000244140625</ele>
        <time>2022-05-06T10:34:55.000Z</time>
      </trkpt>
      <trkpt lat="40.14943622052669525146484375" lon="-0.84252233617007732391357421875">
        <ele>1025.4000244140625</ele>
        <time>2022-05-06T10:34:57.000Z</time>
      </trkpt>
      <trkpt lat="40.14931795187294483184814453125" lon="-0.842459388077259063720703125">
        <ele>1026.199951171875</ele>
        <time>2022-05-06T10:34:59.000Z</time>
      </trkpt>
      <trkpt lat="40.149192474782466888427734375" lon="-0.8424075879156589508056640625">
        <ele>1026.4000244140625</ele>
        <time>2022-05-06T10:35:01.000Z</time>
      </trkpt>
      <trkpt lat="40.149061046540737152099609375" lon="-0.84237389266490936279296875">
        <ele>1027</ele>
        <time>2022-05-06T10:35:03.000Z</time>
      </trkpt>
      <trkpt lat="40.14899189583957195281982421875" lon="-0.84235754795372486114501953125">
        <ele>1027.199951171875</ele>
        <time>2022-05-06T10:35:04.000Z</time>
      </trkpt>
      <trkpt lat="40.14892349950969219207763671875" lon="-0.8423442207276821136474609375">
        <ele>1027.5999755859375</ele>
        <time>2022-05-06T10:35:05.000Z</time>
      </trkpt>
      <trkpt lat="40.14878368936479091644287109375" lon="-0.8423224277794361114501953125">
        <ele>1028.4000244140625</ele>
        <time>2022-05-06T10:35:07.000Z</time>
      </trkpt>
      <trkpt lat="40.14864622615277767181396484375" lon="-0.8423059992492198944091796875">
        <ele>1027.800048828125</ele>
        <time>2022-05-06T10:35:09.000Z</time>
      </trkpt>
      <trkpt lat="40.14857816509902477264404296875" lon="-0.8422986231744289398193359375">
        <ele>1027.800048828125</ele>
        <time>2022-05-06T10:35:10.000Z</time>
      </trkpt>
      <trkpt lat="40.14850951731204986572265625" lon="-0.84228613413870334625244140625">
        <ele>1027.5999755859375</ele>
        <time>2022-05-06T10:35:11.000Z</time>
      </trkpt>
      <trkpt lat="40.14837297610938549041748046875" lon="-0.84226232953369617462158203125">
        <ele>1027.4000244140625</ele>
        <time>2022-05-06T10:35:13.000Z</time>
      </trkpt>
      <trkpt lat="40.14823769219219684600830078125" lon="-0.842238776385784149169921875">
        <ele>1027.199951171875</ele>
        <time>2022-05-06T10:35:15.000Z</time>
      </trkpt>
      <trkpt lat="40.148102827370166778564453125" lon="-0.84221606142818927764892578125">
        <ele>1027</ele>
        <time>2022-05-06T10:35:17.000Z</time>
      </trkpt>
      <trkpt lat="40.14796963892877101898193359375" lon="-0.8421973697841167449951171875">
        <ele>1026.800048828125</ele>
        <time>2022-05-06T10:35:19.000Z</time>
      </trkpt>
      <trkpt lat="40.1479028351604938507080078125" lon="-0.8421832881867885589599609375">
        <ele>1026.4000244140625</ele>
        <time>2022-05-06T10:35:20.000Z</time>
      </trkpt>
      <trkpt lat="40.1478384621441364288330078125" lon="-0.84216476418077945709228515625">
        <ele>1025.800048828125</ele>
        <time>2022-05-06T10:35:21.000Z</time>
      </trkpt>
      <trkpt lat="40.14771214686334133148193359375" lon="-0.8421333320438861846923828125">
        <ele>1024.800048828125</ele>
        <time>2022-05-06T10:35:23.000Z</time>
      </trkpt>
      <trkpt lat="40.14765062369406223297119140625" lon="-0.84211832843720912933349609375">
        <ele>1024.199951171875</ele>
        <time>2022-05-06T10:35:24.000Z</time>
      </trkpt>
      <trkpt lat="40.14759086072444915771484375" lon="-0.84209720604121685028076171875">
        <ele>1023.5999755859375</ele>
        <time>2022-05-06T10:35:25.000Z</time>
      </trkpt>
      <trkpt lat="40.1474713347852230072021484375" lon="-0.842044651508331298828125">
        <ele>1022.4000244140625</ele>
        <time>2022-05-06T10:35:27.000Z</time>
      </trkpt>
      <trkpt lat="40.14734921045601367950439453125" lon="-0.8419804461300373077392578125">
        <ele>1021.20001220703125</ele>
        <time>2022-05-06T10:35:29.000Z</time>
      </trkpt>
      <trkpt lat="40.14728735201060771942138671875" lon="-0.84194348193705081939697265625">
        <ele>1020.79998779296875</ele>
        <time>2022-05-06T10:35:30.000Z</time>
      </trkpt>
      <trkpt lat="40.14722633175551891326904296875" lon="-0.8419019915163516998291015625">
        <ele>1020.4000244140625</ele>
        <time>2022-05-06T10:35:31.000Z</time>
      </trkpt>
      <trkpt lat="40.147167406976222991943359375" lon="-0.84185463376343250274658203125">
        <ele>1020</ele>
        <time>2022-05-06T10:35:32.000Z</time>
      </trkpt>
      <trkpt lat="40.14710948802530765533447265625" lon="-0.84180182777345180511474609375">
        <ele>1019.4000244140625</ele>
        <time>2022-05-06T10:35:33.000Z</time>
      </trkpt>
      <trkpt lat="40.14699398539960384368896484375" lon="-0.84169437177479267120361328125">
        <ele>1018.20001220703125</ele>
        <time>2022-05-06T10:35:35.000Z</time>
      </trkpt>
      <trkpt lat="40.14688937924802303314208984375" lon="-0.84157937206327915191650390625">
        <ele>1017.20001220703125</ele>
        <time>2022-05-06T10:35:37.000Z</time>
      </trkpt>
      <trkpt lat="40.14679164625704288482666015625" lon="-0.8414577506482601165771484375">
        <ele>1016.4000244140625</ele>
        <time>2022-05-06T10:35:39.000Z</time>
      </trkpt>
      <trkpt lat="40.14669978059828281402587890625" lon="-0.8413296751677989959716796875">
        <ele>1015.5999755859375</ele>
        <time>2022-05-06T10:35:41.000Z</time>
      </trkpt>
      <trkpt lat="40.1466569490730762481689453125" lon="-0.84126412868499755859375">
        <ele>1015</ele>
        <time>2022-05-06T10:35:42.000Z</time>
      </trkpt>
      <trkpt lat="40.1466167159378528594970703125" lon="-0.841196738183498382568359375">
        <ele>1014.4000244140625</ele>
        <time>2022-05-06T10:35:43.000Z</time>
      </trkpt>
      <trkpt lat="40.14654479920864105224609375" lon="-0.84105818532407283782958984375">
        <ele>1013.79998779296875</ele>
        <time>2022-05-06T10:35:45.000Z</time>
      </trkpt>
      <trkpt lat="40.14647774398326873779296875" lon="-0.84091083146631717681884765625">
        <ele>1014</ele>
        <time>2022-05-06T10:35:47.000Z</time>
      </trkpt>
      <trkpt lat="40.146449245512485504150390625" lon="-0.84083287976682186126708984375">
        <ele>1014.20001220703125</ele>
        <time>2022-05-06T10:35:48.000Z</time>
      </trkpt>
      <trkpt lat="40.1464239321649074554443359375" lon="-0.8407516591250896453857421875">
        <ele>1014.20001220703125</ele>
        <time>2022-05-06T10:35:49.000Z</time>
      </trkpt>
      <trkpt lat="40.14637104235589504241943359375" lon="-0.84058284759521484375">
        <ele>1014.5999755859375</ele>
        <time>2022-05-06T10:35:51.000Z</time>
      </trkpt>
      <trkpt lat="40.14632259495556354522705078125" lon="-0.8404113538563251495361328125">
        <ele>1014.5999755859375</ele>
        <time>2022-05-06T10:35:53.000Z</time>
      </trkpt>
      <trkpt lat="40.14630516059696674346923828125" lon="-0.840327031910419464111328125">
        <ele>1014.5999755859375</ele>
        <time>2022-05-06T10:35:54.000Z</time>
      </trkpt>
      <trkpt lat="40.1462908275425434112548828125" lon="-0.84024195559322834014892578125">
        <ele>1014.5999755859375</ele>
        <time>2022-05-06T10:35:55.000Z</time>
      </trkpt>
      <trkpt lat="40.1462673582136631011962890625" lon="-0.84006543271243572235107421875">
        <ele>1014.4000244140625</ele>
        <time>2022-05-06T10:35:57.000Z</time>
      </trkpt>
      <trkpt lat="40.14625637792050838470458984375" lon="-0.83988505415618419647216796875">
        <ele>1014.20001220703125</ele>
        <time>2022-05-06T10:35:59.000Z</time>
      </trkpt>
      <trkpt lat="40.1462572999298572540283203125" lon="-0.839794613420963287353515625">
        <ele>1014.20001220703125</ele>
        <time>2022-05-06T10:36:00.000Z</time>
      </trkpt>
      <trkpt lat="40.14625822193920612335205078125" lon="-0.83970400504767894744873046875">
        <ele>1014</ele>
        <time>2022-05-06T10:36:01.000Z</time>
      </trkpt>
      <trkpt lat="40.1462616585195064544677734375" lon="-0.839521028101444244384765625">
        <ele>1013.5999755859375</ele>
        <time>2022-05-06T10:36:03.000Z</time>
      </trkpt>
      <trkpt lat="40.146266184747219085693359375" lon="-0.83933763206005096435546875">
        <ele>1013</ele>
        <time>2022-05-06T10:36:05.000Z</time>
      </trkpt>
      <trkpt lat="40.1462705433368682861328125" lon="-0.839150883257389068603515625">
        <ele>1012.5999755859375</ele>
        <time>2022-05-06T10:36:07.000Z</time>
      </trkpt>
      <trkpt lat="40.14627515338361263275146484375" lon="-0.83896153606474399566650390625">
        <ele>1012.20001220703125</ele>
        <time>2022-05-06T10:36:09.000Z</time>
      </trkpt>
      <trkpt lat="40.14627364464104175567626953125" lon="-0.8387765474617481231689453125">
        <ele>1012</ele>
        <time>2022-05-06T10:36:11.000Z</time>
      </trkpt>
      <trkpt lat="40.14627867378294467926025390625" lon="-0.838588960468769073486328125">
        <ele>1012</ele>
        <time>2022-05-06T10:36:13.000Z</time>
      </trkpt>
      <trkpt lat="40.146284960210323333740234375" lon="-0.838399864733219146728515625">
        <ele>1012</ele>
        <time>2022-05-06T10:36:15.000Z</time>
      </trkpt>
      <trkpt lat="40.146291665732860565185546875" lon="-0.8382106013596057891845703125">
        <ele>1012</ele>
        <time>2022-05-06T10:36:17.000Z</time>
      </trkpt>
      <trkpt lat="40.14629811979830265045166015625" lon="-0.83802745677530765533447265625">
        <ele>1012</ele>
        <time>2022-05-06T10:36:19.000Z</time>
      </trkpt>
      <trkpt lat="40.14629795216023921966552734375" lon="-0.837935842573642730712890625">
        <ele>1011.79998779296875</ele>
        <time>2022-05-06T10:36:20.000Z</time>
      </trkpt>
      <trkpt lat="40.14629795216023921966552734375" lon="-0.837845318019390106201171875">
        <ele>1011.79998779296875</ele>
        <time>2022-05-06T10:36:21.000Z</time>
      </trkpt>
      <trkpt lat="40.1463015563786029815673828125" lon="-0.83766468800604343414306640625">
        <ele>1011.4000244140625</ele>
        <time>2022-05-06T10:36:23.000Z</time>
      </trkpt>
      <trkpt lat="40.1463027298450469970703125" lon="-0.83757399581372737884521484375">
        <ele>1011.4000244140625</ele>
        <time>2022-05-06T10:36:24.000Z</time>
      </trkpt>
      <trkpt lat="40.146305747330188751220703125" lon="-0.83747995086014270782470703125">
        <ele>1011.20001220703125</ele>
        <time>2022-05-06T10:36:25.000Z</time>
      </trkpt>
      <trkpt lat="40.14630801044404506683349609375" lon="-0.83729068748652935028076171875">
        <ele>1011</ele>
        <time>2022-05-06T10:36:27.000Z</time>
      </trkpt>
      <trkpt lat="40.1463129557669162750244140625" lon="-0.837103687226772308349609375">
        <ele>1010.4000244140625</ele>
        <time>2022-05-06T10:36:29.000Z</time>
      </trkpt>
      <trkpt lat="40.146313123404979705810546875" lon="-0.83691425621509552001953125">
        <ele>1009.79998779296875</ele>
        <time>2022-05-06T10:36:31.000Z</time>
      </trkpt>
      <trkpt lat="40.14631454832851886749267578125" lon="-0.83682297728955745697021484375">
        <ele>1009.4000244140625</ele>
        <time>2022-05-06T10:36:32.000Z</time>
      </trkpt>
      <trkpt lat="40.14631806872785091400146484375" lon="-0.836732201278209686279296875">
        <ele>1009.20001220703125</ele>
        <time>2022-05-06T10:36:33.000Z</time>
      </trkpt>
      <trkpt lat="40.14632217586040496826171875" lon="-0.8365570195019245147705078125">
        <ele>1008.4000244140625</ele>
        <time>2022-05-06T10:36:35.000Z</time>
      </trkpt>
      <trkpt lat="40.14632728882133960723876953125" lon="-0.8363731205463409423828125">
        <ele>1007.79998779296875</ele>
        <time>2022-05-06T10:36:37.000Z</time>
      </trkpt>
      <trkpt lat="40.1463300548493862152099609375" lon="-0.83628452382981777191162109375">
        <ele>1007.5999755859375</ele>
        <time>2022-05-06T10:36:38.000Z</time>
      </trkpt>
      <trkpt lat="40.14633215032517910003662109375" lon="-0.83619785495102405548095703125">
        <ele>1007.4000244140625</ele>
        <time>2022-05-06T10:36:39.000Z</time>
      </trkpt>
      <trkpt lat="40.14633650891482830047607421875" lon="-0.83602376282215118408203125">
        <ele>1007</ele>
        <time>2022-05-06T10:36:41.000Z</time>
      </trkpt>
      <trkpt lat="40.14634229242801666259765625" lon="-0.83585252054035663604736328125">
        <ele>1006.5999755859375</ele>
        <time>2022-05-06T10:36:43.000Z</time>
      </trkpt>
      <trkpt lat="40.14634707011282444000244140625" lon="-0.83568672649562358856201171875">
        <ele>1006.20001220703125</ele>
        <time>2022-05-06T10:36:45.000Z</time>
      </trkpt>
      <trkpt lat="40.1463518477976322174072265625" lon="-0.8356055058538913726806640625">
        <ele>1006</ele>
        <time>2022-05-06T10:36:46.000Z</time>
      </trkpt>
      <trkpt lat="40.14635570347309112548828125" lon="-0.8355236984789371490478515625">
        <ele>1005.5999755859375</ele>
        <time>2022-05-06T10:36:47.000Z</time>
      </trkpt>
      <trkpt lat="40.14636215753853321075439453125" lon="-0.835361592471599578857421875">
        <ele>1004.79998779296875</ele>
        <time>2022-05-06T10:36:49.000Z</time>
      </trkpt>
      <trkpt lat="40.146369449794292449951171875" lon="-0.8351957984268665313720703125">
        <ele>1004</ele>
        <time>2022-05-06T10:36:51.000Z</time>
      </trkpt>
      <trkpt lat="40.14637573622167110443115234375" lon="-0.83503059111535549163818359375">
        <ele>1003.20001220703125</ele>
        <time>2022-05-06T10:36:53.000Z</time>
      </trkpt>
      <trkpt lat="40.14638210646808147430419921875" lon="-0.8348630368709564208984375">
        <ele>1002.4000244140625</ele>
        <time>2022-05-06T10:36:55.000Z</time>
      </trkpt>
      <trkpt lat="40.146387554705142974853515625" lon="-0.8346927165985107421875">
        <ele>1001.5999755859375</ele>
        <time>2022-05-06T10:36:57.000Z</time>
      </trkpt>
      <trkpt lat="40.14639032073318958282470703125" lon="-0.8346090652048587799072265625">
        <ele>1001.5999755859375</ele>
        <time>2022-05-06T10:36:58.000Z</time>
      </trkpt>
      <trkpt lat="40.146392248570919036865234375" lon="-0.83452767692506313323974609375">
        <ele>1001.4000244140625</ele>
        <time>2022-05-06T10:36:59.000Z</time>
      </trkpt>
      <trkpt lat="40.14639434404671192169189453125" lon="-0.83436640910804271697998046875">
        <ele>1001.20001220703125</ele>
        <time>2022-05-06T10:37:01.000Z</time>
      </trkpt>
      <trkpt lat="40.1463947631418704986572265625" lon="-0.8342851884663105010986328125">
        <ele>1001.20001220703125</ele>
        <time>2022-05-06T10:37:02.000Z</time>
      </trkpt>
      <trkpt lat="40.146394930779933929443359375" lon="-0.83420455455780029296875">
        <ele>1001</ele>
        <time>2022-05-06T10:37:03.000Z</time>
      </trkpt>
      <trkpt lat="40.1463930867612361907958984375" lon="-0.83404169417917728424072265625">
        <ele>1000.79998779296875</ele>
        <time>2022-05-06T10:37:05.000Z</time>
      </trkpt>
      <trkpt lat="40.1463939249515533447265625" lon="-0.8338773250579833984375">
        <ele>1000.79998779296875</ele>
        <time>2022-05-06T10:37:07.000Z</time>
      </trkpt>
      <trkpt lat="40.1463939249515533447265625" lon="-0.83371379412710666656494140625">
        <ele>1000.79998779296875</ele>
        <time>2022-05-06T10:37:09.000Z</time>
      </trkpt>
      <trkpt lat="40.14639518223702907562255859375" lon="-0.8335532806813716888427734375">
        <ele>1001.20001220703125</ele>
        <time>2022-05-06T10:37:11.000Z</time>
      </trkpt>
      <trkpt lat="40.14639719389379024505615234375" lon="-0.83347289822995662689208984375">
        <ele>1001.4000244140625</ele>
        <time>2022-05-06T10:37:12.000Z</time>
      </trkpt>
      <trkpt lat="40.146398954093456268310546875" lon="-0.83339310251176357269287109375">
        <ele>1001.5999755859375</ele>
        <time>2022-05-06T10:37:13.000Z</time>
      </trkpt>
      <trkpt lat="40.14640490524470806121826171875" lon="-0.8332322537899017333984375">
        <ele>1002</ele>
        <time>2022-05-06T10:37:15.000Z</time>
      </trkpt>
      <trkpt lat="40.1464078389108180999755859375" lon="-0.83307157270610332489013671875">
        <ele>1002.4000244140625</ele>
        <time>2022-05-06T10:37:17.000Z</time>
      </trkpt>
      <trkpt lat="40.14640892855823040008544921875" lon="-0.83291332237422466278076171875">
        <ele>1002.5999755859375</ele>
        <time>2022-05-06T10:37:19.000Z</time>
      </trkpt>
      <trkpt lat="40.14641010202467441558837890625" lon="-0.8327529765665531158447265625">
        <ele>1002.5999755859375</ele>
        <time>2022-05-06T10:37:21.000Z</time>
      </trkpt>
      <trkpt lat="40.14641110785305500030517578125" lon="-0.83259095437824726104736328125">
        <ele>1002.5999755859375</ele>
        <time>2022-05-06T10:37:23.000Z</time>
      </trkpt>
      <trkpt lat="40.14641311950981616973876953125" lon="-0.83242884837090969085693359375">
        <ele>1002.5999755859375</ele>
        <time>2022-05-06T10:37:25.000Z</time>
      </trkpt>
      <trkpt lat="40.1464152149856090545654296875" lon="-0.83226942457258701324462890625">
        <ele>1002.5999755859375</ele>
        <time>2022-05-06T10:37:27.000Z</time>
      </trkpt>
      <trkpt lat="40.14641395770013332366943359375" lon="-0.832110755145549774169921875">
        <ele>1002.5999755859375</ele>
        <time>2022-05-06T10:37:29.000Z</time>
      </trkpt>
      <trkpt lat="40.146409012377262115478515625" lon="-0.831948481500148773193359375">
        <ele>1002.5999755859375</ele>
        <time>2022-05-06T10:37:31.000Z</time>
      </trkpt>
      <trkpt lat="40.14639819972217082977294921875" lon="-0.831782519817352294921875">
        <ele>1002.79998779296875</ele>
        <time>2022-05-06T10:37:33.000Z</time>
      </trkpt>
      <trkpt lat="40.14638043008744716644287109375" lon="-0.83161152899265289306640625">
        <ele>1002.79998779296875</ele>
        <time>2022-05-06T10:37:35.000Z</time>
      </trkpt>
      <trkpt lat="40.14635411091148853302001953125" lon="-0.83143626339733600616455078125">
        <ele>1002.79998779296875</ele>
        <time>2022-05-06T10:37:37.000Z</time>
      </trkpt>
      <trkpt lat="40.146339274942874908447265625" lon="-0.83134741522371768951416015625">
        <ele>1002.79998779296875</ele>
        <time>2022-05-06T10:37:38.000Z</time>
      </trkpt>
      <trkpt lat="40.14632376842200756072998046875" lon="-0.83126015961170196533203125">
        <ele>1002.79998779296875</ele>
        <time>2022-05-06T10:37:39.000Z</time>
      </trkpt>
      <trkpt lat="40.14628705568611621856689453125" lon="-0.8310878276824951171875">
        <ele>1003</ele>
        <time>2022-05-06T10:37:41.000Z</time>
      </trkpt>
      <trkpt lat="40.1462383568286895751953125" lon="-0.83092094399034976959228515625">
        <ele>1003.20001220703125</ele>
        <time>2022-05-06T10:37:43.000Z</time>
      </trkpt>
      <trkpt lat="40.1462113671004772186279296875" lon="-0.8308385498821735382080078125">
        <ele>1003.20001220703125</ele>
        <time>2022-05-06T10:37:44.000Z</time>
      </trkpt>
      <trkpt lat="40.146185047924518585205078125" lon="-0.83075992763042449951171875">
        <ele>1003.4000244140625</ele>
        <time>2022-05-06T10:37:45.000Z</time>
      </trkpt>
      <trkpt lat="40.146143473684787750244140625" lon="-0.83064652048051357269287109375">
        <ele>1003.4000244140625</ele>
        <time>2022-05-06T10:37:47.000Z</time>
      </trkpt>
      <trkpt lat="40.1461309008300304412841796875" lon="-0.83061634562909603118896484375">
        <ele>1003.20001220703125</ele>
        <time>2022-05-06T10:37:48.000Z</time>
      </trkpt>
      <trkpt lat="40.146123357117176055908203125" lon="-0.8305991627275943756103515625">
        <ele>1003.20001220703125</ele>
        <time>2022-05-06T10:37:49.000Z</time>
      </trkpt>
      <trkpt lat="40.1461218483746051788330078125" lon="-0.83059765398502349853515625">
        <ele>1003.20001220703125</ele>
        <time>2022-05-06T10:37:51.000Z</time>
      </trkpt>
      <trkpt lat="40.146107263863086700439453125" lon="-0.830565802752971649169921875">
        <ele>1003</ele>
        <time>2022-05-06T10:39:53.000Z</time>
      </trkpt>
      <trkpt lat="40.14609812758862972259521484375" lon="-0.8305458538234233856201171875">
        <ele>1003</ele>
        <time>2022-05-06T10:39:55.000Z</time>
      </trkpt>
      <trkpt lat="40.14607264660298824310302734375" lon="-0.83049614913761615753173828125">
        <ele>1002.79998779296875</ele>
        <time>2022-05-06T10:39:57.000Z</time>
      </trkpt>
      <trkpt lat="40.1460269652307033538818359375" lon="-0.8303983323276042938232421875">
        <ele>1002.20001220703125</ele>
        <time>2022-05-06T10:39:59.000Z</time>
      </trkpt>
      <trkpt lat="40.14601103961467742919921875" lon="-0.830359272658824920654296875">
        <ele>1002</ele>
        <time>2022-05-06T10:40:01.000Z</time>
      </trkpt>
      <trkpt lat="40.1459743268787860870361328125" lon="-0.83028023131191730499267578125">
        <ele>1001.5999755859375</ele>
        <time>2022-05-06T10:40:03.000Z</time>
      </trkpt>
      <trkpt lat="40.1459112949669361114501953125" lon="-0.8301584422588348388671875">
        <ele>1001</ele>
        <time>2022-05-06T10:40:05.000Z</time>
      </trkpt>
      <trkpt lat="40.14588824473321437835693359375" lon="-0.8301207236945629119873046875">
        <ele>1001</ele>
        <time>2022-05-06T10:40:07.000Z</time>
      </trkpt>
      <trkpt lat="40.14584164135158061981201171875" lon="-0.830036737024784088134765625">
        <ele>1000.79998779296875</ele>
        <time>2022-05-06T10:40:08.000Z</time>
      </trkpt>
      <trkpt lat="40.14584164135158061981201171875" lon="-0.830036737024784088134765625">
        <ele>1000.79998779296875</ele>
        <time>2022-05-06T10:40:09.000Z</time>
      </trkpt>
      <trkpt lat="40.1457691378891468048095703125" lon="-0.8299038000404834747314453125">
        <ele>1000.5999755859375</ele>
        <time>2022-05-06T10:40:11.000Z</time>
      </trkpt>
      <trkpt lat="40.14574348926544189453125" lon="-0.8298605494201183319091796875">
        <ele>1000.5999755859375</ele>
        <time>2022-05-06T10:40:13.000Z</time>
      </trkpt>
      <trkpt lat="40.145692192018032073974609375" lon="-0.8297737129032611846923828125">
        <ele>1000.5999755859375</ele>
        <time>2022-05-06T10:40:15.000Z</time>
      </trkpt>
      <trkpt lat="40.14561616815626621246337890625" lon="-0.82964421249926090240478515625">
        <ele>1000.20001220703125</ele>
        <time>2022-05-06T10:40:17.000Z</time>
      </trkpt>
      <trkpt lat="40.14559219591319561004638671875" lon="-0.82960188388824462890625">
        <ele>1000</ele>
        <time>2022-05-06T10:40:19.000Z</time>
      </trkpt>
      <trkpt lat="40.14554458670318126678466796875" lon="-0.829515047371387481689453125">
        <ele>1000.20001220703125</ele>
        <time>2022-05-06T10:40:21.000Z</time>
      </trkpt>
      <trkpt lat="40.145493708550930023193359375" lon="-0.82942527718842029571533203125">
        <ele>1000.4000244140625</ele>
        <time>2022-05-06T10:40:23.000Z</time>
      </trkpt>
      <trkpt lat="40.1454482786357402801513671875" lon="-0.82933207042515277862548828125">
        <ele>1000.4000244140625</ele>
        <time>2022-05-06T10:40:25.000Z</time>
      </trkpt>
      <trkpt lat="40.14540578238666057586669921875" lon="-0.82924121059477329254150390625">
        <ele>1000.5999755859375</ele>
        <time>2022-05-06T10:40:27.000Z</time>
      </trkpt>
      <trkpt lat="40.14533269219100475311279296875" lon="-0.8291115425527095794677734375">
        <ele>1000.5999755859375</ele>
        <time>2022-05-06T10:40:29.000Z</time>
      </trkpt>
      <trkpt lat="40.14530855230987071990966796875" lon="-0.82906753756105899810791015625">
        <ele>1000.5999755859375</ele>
        <time>2022-05-06T10:40:31.000Z</time>
      </trkpt>
      <trkpt lat="40.1452615298330783843994140625" lon="-0.82898430526256561279296875">
        <ele>1000.5999755859375</ele>
        <time>2022-05-06T10:40:33.000Z</time>
      </trkpt>
      <trkpt lat="40.1452383957803249359130859375" lon="-0.82894532941281795501708984375">
        <ele>1000.5999755859375</ele>
        <time>2022-05-06T10:40:34.000Z</time>
      </trkpt>
      <trkpt lat="40.14521484263241291046142578125" lon="-0.82890710793435573577880859375">
        <ele>1000.5999755859375</ele>
        <time>2022-05-06T10:40:35.000Z</time>
      </trkpt>
      <trkpt lat="40.14516941271722316741943359375" lon="-0.8288258872926235198974609375">
        <ele>1000.5999755859375</ele>
        <time>2022-05-06T10:40:37.000Z</time>
      </trkpt>
      <trkpt lat="40.1451213844120502471923828125" lon="-0.8287444151937961578369140625">
        <ele>1000.4000244140625</ele>
        <time>2022-05-06T10:40:39.000Z</time>
      </trkpt>
      <trkpt lat="40.14504703693091869354248046875" lon="-0.82862027920782566070556640625">
        <ele>1000.4000244140625</ele>
        <time>2022-05-06T10:40:41.000Z</time>
      </trkpt>
      <trkpt lat="40.14502138830721378326416015625" lon="-0.8285784535109996795654296875">
        <ele>1000.20001220703125</ele>
        <time>2022-05-06T10:40:43.000Z</time>
      </trkpt>
      <trkpt lat="40.14497059397399425506591796875" lon="-0.82849237136542797088623046875">
        <ele>1000.20001220703125</ele>
        <time>2022-05-06T10:40:45.000Z</time>
      </trkpt>
      <trkpt lat="40.14489482156932353973388671875" lon="-0.828359015285968780517578125">
        <ele>1000.5999755859375</ele>
        <time>2022-05-06T10:40:47.000Z</time>
      </trkpt>
      <trkpt lat="40.144868753850460052490234375" lon="-0.828315429389476776123046875">
        <ele>1000.79998779296875</ele>
        <time>2022-05-06T10:40:49.000Z</time>
      </trkpt>
      <trkpt lat="40.14481653459370136260986328125" lon="-0.82822582684457302093505859375">
        <ele>1001</ele>
        <time>2022-05-06T10:40:51.000Z</time>
      </trkpt>
      <trkpt lat="40.14473858289420604705810546875" lon="-0.8280909620225429534912109375">
        <ele>1001.4000244140625</ele>
        <time>2022-05-06T10:40:53.000Z</time>
      </trkpt>
      <trkpt lat="40.14471360482275485992431640625" lon="-0.82804444245994091033935546875">
        <ele>1001.4000244140625</ele>
        <time>2022-05-06T10:40:55.000Z</time>
      </trkpt>
      <trkpt lat="40.1446607150137424468994140625" lon="-0.8279518224298954010009765625">
        <ele>1001.5999755859375</ele>
        <time>2022-05-06T10:40:56.000Z</time>
      </trkpt>
      <trkpt lat="40.1446607150137424468994140625" lon="-0.8279518224298954010009765625">
        <ele>1001.5999755859375</ele>
        <time>2022-05-06T10:40:57.000Z</time>
      </trkpt>
      <trkpt lat="40.14457697980105876922607421875" lon="-0.82781243138015270233154296875">
        <ele>1001.79998779296875</ele>
        <time>2022-05-06T10:40:59.000Z</time>
      </trkpt>
      <trkpt lat="40.14454948715865612030029296875" lon="-0.82776515744626522064208984375">
        <ele>1001.79998779296875</ele>
        <time>2022-05-06T10:41:01.000Z</time>
      </trkpt>
      <trkpt lat="40.1444930769503116607666015625" lon="-0.82766910083591938018798828125">
        <ele>1002</ele>
        <time>2022-05-06T10:41:03.000Z</time>
      </trkpt>
      <trkpt lat="40.1444035582244396209716796875" lon="-0.82752794958651065826416015625">
        <ele>1002.20001220703125</ele>
        <time>2022-05-06T10:41:05.000Z</time>
      </trkpt>
      <trkpt lat="40.14437413774430751800537109375" lon="-0.82747899927198886871337890625">
        <ele>1002.20001220703125</ele>
        <time>2022-05-06T10:41:07.000Z</time>
      </trkpt>
      <trkpt lat="40.14431445859372615814208984375" lon="-0.82738193683326244354248046875">
        <ele>1002.20001220703125</ele>
        <time>2022-05-06T10:41:09.000Z</time>
      </trkpt>
      <trkpt lat="40.14422460459172725677490234375" lon="-0.82723273895680904388427734375">
        <ele>1002.4000244140625</ele>
        <time>2022-05-06T10:41:11.000Z</time>
      </trkpt>
      <trkpt lat="40.14419426210224628448486328125" lon="-0.827182866632938385009765625">
        <ele>1002.4000244140625</ele>
        <time>2022-05-06T10:41:13.000Z</time>
      </trkpt>
      <trkpt lat="40.1441370137035846710205078125" lon="-0.82708303816616535186767578125">
        <ele>1002.5999755859375</ele>
        <time>2022-05-06T10:41:14.000Z</time>
      </trkpt>
      <trkpt lat="40.1441370137035846710205078125" lon="-0.82708303816616535186767578125">
        <ele>1002.5999755859375</ele>
        <time>2022-05-06T10:41:15.000Z</time>
      </trkpt>
      <trkpt lat="40.14405277557671070098876953125" lon="-0.82692931406199932098388671875">
        <ele>1002.5999755859375</ele>
        <time>2022-05-06T10:41:17.000Z</time>
      </trkpt>
      <trkpt lat="40.14402410946786403656005859375" lon="-0.82687877118587493896484375">
        <ele>1002.4000244140625</ele>
        <time>2022-05-06T10:41:19.000Z</time>
      </trkpt>
      <trkpt lat="40.1439663581550121307373046875" lon="-0.82677927799522876739501953125">
        <ele>1002.20001220703125</ele>
        <time>2022-05-06T10:41:20.000Z</time>
      </trkpt>
      <trkpt lat="40.1439663581550121307373046875" lon="-0.82677927799522876739501953125">
        <ele>1002.20001220703125</ele>
        <time>2022-05-06T10:41:21.000Z</time>
      </trkpt>
      <trkpt lat="40.1438778452575206756591796875" lon="-0.82662991248071193695068359375">
        <ele>1001.79998779296875</ele>
        <time>2022-05-06T10:41:23.000Z</time>
      </trkpt>
      <trkpt lat="40.1438493467867374420166015625" lon="-0.8265792019665241241455078125">
        <ele>1001.5999755859375</ele>
        <time>2022-05-06T10:41:25.000Z</time>
      </trkpt>
      <trkpt lat="40.1437913440167903900146484375" lon="-0.82648004405200481414794921875">
        <ele>1001.4000244140625</ele>
        <time>2022-05-06T10:41:27.000Z</time>
      </trkpt>
      <trkpt lat="40.14370031654834747314453125" lon="-0.8263203687965869903564453125">
        <ele>1001</ele>
        <time>2022-05-06T10:41:29.000Z</time>
      </trkpt>
      <trkpt lat="40.14367056079208850860595703125" lon="-0.82626529969274997711181640625">
        <ele>1001</ele>
        <time>2022-05-06T10:41:31.000Z</time>
      </trkpt>
      <trkpt lat="40.14360836707055568695068359375" lon="-0.82615432329475879669189453125">
        <ele>1001</ele>
        <time>2022-05-06T10:41:33.000Z</time>
      </trkpt>
      <trkpt lat="40.143507532775402069091796875" lon="-0.82597981207072734832763671875">
        <ele>1000.79998779296875</ele>
        <time>2022-05-06T10:41:35.000Z</time>
      </trkpt>
      <trkpt lat="40.14347258023917675018310546875" lon="-0.82591912709176540374755859375">
        <ele>1000.79998779296875</ele>
        <time>2022-05-06T10:41:37.000Z</time>
      </trkpt>
      <trkpt lat="40.1434027589857578277587890625" lon="-0.82579515874385833740234375">
        <ele>1000.4000244140625</ele>
        <time>2022-05-06T10:41:38.000Z</time>
      </trkpt>
      <trkpt lat="40.1434027589857578277587890625" lon="-0.82579515874385833740234375">
        <ele>1000.4000244140625</ele>
        <time>2022-05-06T10:41:39.000Z</time>
      </trkpt>
      <trkpt lat="40.143330506980419158935546875" lon="-0.82566884346306324005126953125">
        <ele>999.79998779296875</ele>
        <time>2022-05-06T10:41:40.000Z</time>
      </trkpt>
      <trkpt lat="40.14329371042549610137939453125" lon="-0.8256032131612300872802734375">
        <ele>999.5999755859375</ele>
        <time>2022-05-06T10:41:41.000Z</time>
      </trkpt>
      <trkpt lat="40.1432562433183193206787109375" lon="-0.82553724758327007293701171875">
        <ele>999.20001220703125</ele>
        <time>2022-05-06T10:41:43.000Z</time>
      </trkpt>
      <trkpt lat="40.14318172819912433624267578125" lon="-0.82540766336023807525634765625">
        <ele>998.4000244140625</ele>
        <time>2022-05-06T10:41:45.000Z</time>
      </trkpt>
      <trkpt lat="40.14306672848761081695556640625" lon="-0.8252178132534027099609375">
        <ele>997.4000244140625</ele>
        <time>2022-05-06T10:41:47.000Z</time>
      </trkpt>
      <trkpt lat="40.14302548952400684356689453125" lon="-0.82515704445540904998779296875">
        <ele>997</ele>
        <time>2022-05-06T10:41:49.000Z</time>
      </trkpt>
      <trkpt lat="40.1429417543113231658935546875" lon="-0.8250386081635951995849609375">
        <ele>996.5999755859375</ele>
        <time>2022-05-06T10:41:51.000Z</time>
      </trkpt>
      <trkpt lat="40.1428106613457202911376953125" lon="-0.82486736588180065155029296875">
        <ele>996</ele>
        <time>2022-05-06T10:41:53.000Z</time>
      </trkpt>
      <trkpt lat="40.1427660696208477020263671875" lon="-0.82480902783572673797607421875">
        <ele>995.79998779296875</ele>
        <time>2022-05-06T10:41:55.000Z</time>
      </trkpt>
      <trkpt lat="40.142674706876277923583984375" lon="-0.8246969617903232574462890625">
        <ele>995.20001220703125</ele>
        <time>2022-05-06T10:41:57.000Z</time>
      </trkpt>
      <trkpt lat="40.142526514828205108642578125" lon="-0.824542231857776641845703125">
        <ele>995</ele>
        <time>2022-05-06T10:41:59.000Z</time>
      </trkpt>
      <trkpt lat="40.1424747146666049957275390625" lon="-0.824493952095508575439453125">
        <ele>995</ele>
        <time>2022-05-06T10:42:01.000Z</time>
      </trkpt>
      <trkpt lat="40.1423732936382293701171875" lon="-0.8243878372013568878173828125">
        <ele>994.79998779296875</ele>
        <time>2022-05-06T10:42:03.000Z</time>
      </trkpt>
      <trkpt lat="40.14222702942788600921630859375" lon="-0.82422900013625621795654296875">
        <ele>993.79998779296875</ele>
        <time>2022-05-06T10:42:05.000Z</time>
      </trkpt>
      <trkpt lat="40.1421769894659519195556640625" lon="-0.8241786248981952667236328125">
        <ele>993.4000244140625</ele>
        <time>2022-05-06T10:42:07.000Z</time>
      </trkpt>
      <trkpt lat="40.1420777477324008941650390625" lon="-0.82407309673726558685302734375">
        <ele>993</ele>
        <time>2022-05-06T10:42:09.000Z</time>
      </trkpt>
      <trkpt lat="40.14198579825460910797119140625" lon="-0.82396849058568477630615234375">
        <ele>992.5999755859375</ele>
        <time>2022-05-06T10:42:10.000Z</time>
      </trkpt>
      <trkpt lat="40.1419386081397533416748046875" lon="-0.8239171095192432403564453125">
        <ele>992.4000244140625</ele>
        <time>2022-05-06T10:42:11.000Z</time>
      </trkpt>
      <trkpt lat="40.14189057983458042144775390625" lon="-0.8238661475479602813720703125">
        <ele>992.20001220703125</ele>
        <time>2022-05-06T10:42:13.000Z</time>
      </trkpt>
      <trkpt lat="40.14179569669067859649658203125" lon="-0.82376212812960147857666015625">
        <ele>991.4000244140625</ele>
        <time>2022-05-06T10:42:14.000Z</time>
      </trkpt>
      <trkpt lat="40.14179569669067859649658203125" lon="-0.82376212812960147857666015625">
        <ele>991.4000244140625</ele>
        <time>2022-05-06T10:42:15.000Z</time>
      </trkpt>
      <trkpt lat="40.14164683409035205841064453125" lon="-0.82359574735164642333984375">
        <ele>990.4000244140625</ele>
        <time>2022-05-06T10:42:17.000Z</time>
      </trkpt>
      <trkpt lat="40.14159704558551311492919921875" lon="-0.8235385827720165252685546875">
        <ele>990.20001220703125</ele>
        <time>2022-05-06T10:42:18.000Z</time>
      </trkpt>
      <trkpt lat="40.14159704558551311492919921875" lon="-0.8235385827720165252685546875">
        <ele>990.20001220703125</ele>
        <time>2022-05-06T10:42:19.000Z</time>
      </trkpt>
      <trkpt lat="40.141497217118740081787109375" lon="-0.82341712899506092071533203125">
        <ele>990.20001220703125</ele>
        <time>2022-05-06T10:42:21.000Z</time>
      </trkpt>
      <trkpt lat="40.14135472476482391357421875" lon="-0.82324177958071231842041015625">
        <ele>990.20001220703125</ele>
        <time>2022-05-06T10:42:23.000Z</time>
      </trkpt>
      <trkpt lat="40.14131105504930019378662109375" lon="-0.82318243570625782012939453125">
        <ele>990.20001220703125</ele>
        <time>2022-05-06T10:42:25.000Z</time>
      </trkpt>
      <trkpt lat="40.141230337321758270263671875" lon="-0.82305754534900188446044921875">
        <ele>990.20001220703125</ele>
        <time>2022-05-06T10:42:27.000Z</time>
      </trkpt>
      <trkpt lat="40.1411180198192596435546875" lon="-0.8228636719286441802978515625">
        <ele>990</ele>
        <time>2022-05-06T10:42:29.000Z</time>
      </trkpt>
      <trkpt lat="40.14108222909271717071533203125" lon="-0.82279887981712818145751953125">
        <ele>989.79998779296875</ele>
        <time>2022-05-06T10:42:30.000Z</time>
      </trkpt>
      <trkpt lat="40.14108222909271717071533203125" lon="-0.82279887981712818145751953125">
        <ele>989.79998779296875</ele>
        <time>2022-05-06T10:42:31.000Z</time>
      </trkpt>
      <trkpt lat="40.14101550914347171783447265625" lon="-0.8226670324802398681640625">
        <ele>989.5999755859375</ele>
        <time>2022-05-06T10:42:33.000Z</time>
      </trkpt>
      <trkpt lat="40.1409302651882171630859375" lon="-0.8224858157336711883544921875">
        <ele>989.5999755859375</ele>
        <time>2022-05-06T10:42:35.000Z</time>
      </trkpt>
      <trkpt lat="40.1409046165645122528076171875" lon="-0.82243569195270538330078125">
        <ele>989.5999755859375</ele>
        <time>2022-05-06T10:42:37.000Z</time>
      </trkpt>
      <trkpt lat="40.14085851609706878662109375" lon="-0.8223436586558818817138671875">
        <ele>989.5999755859375</ele>
        <time>2022-05-06T10:42:39.000Z</time>
      </trkpt>
      <trkpt lat="40.1407902874052524566650390625" lon="-0.82220904529094696044921875">
        <ele>989.79998779296875</ele>
        <time>2022-05-06T10:42:41.000Z</time>
      </trkpt>
      <trkpt lat="40.14076757244765758514404296875" lon="-0.8221652917563915252685546875">
        <ele>990</ele>
        <time>2022-05-06T10:42:43.000Z</time>
      </trkpt>
      <trkpt lat="40.1407259143888950347900390625" lon="-0.82208457402884960174560546875">
        <ele>990.5999755859375</ele>
        <time>2022-05-06T10:42:45.000Z</time>
      </trkpt>
      <trkpt lat="40.140671096742153167724609375" lon="-0.8219758607447147369384765625">
        <ele>991.4000244140625</ele>
        <time>2022-05-06T10:42:47.000Z</time>
      </trkpt>
      <trkpt lat="40.14065290801227092742919921875" lon="-0.8219423331320285797119140625">
        <ele>991.79998779296875</ele>
        <time>2022-05-06T10:42:49.000Z</time>
      </trkpt>
      <trkpt lat="40.14062692411243915557861328125" lon="-0.8218655548989772796630859375">
        <ele>992.4000244140625</ele>
        <time>2022-05-06T10:42:51.000Z</time>
      </trkpt>
      <trkpt lat="40.14057545922696590423583984375" lon="-0.82175566814839839935302734375">
        <ele>993.5999755859375</ele>
        <time>2022-05-06T10:42:53.000Z</time>
      </trkpt>
      <trkpt lat="40.140558779239654541015625" lon="-0.8217227272689342498779296875">
        <ele>993.79998779296875</ele>
        <time>2022-05-06T10:42:55.000Z</time>
      </trkpt>
      <trkpt lat="40.14052734710276126861572265625" lon="-0.8216503076255321502685546875">
        <ele>994.5999755859375</ele>
        <time>2022-05-06T10:42:57.000Z</time>
      </trkpt>
      <trkpt lat="40.140466578304767608642578125" lon="-0.82152835093438625335693359375">
        <ele>995.79998779296875</ele>
        <time>2022-05-06T10:42:59.000Z</time>
      </trkpt>
      <trkpt lat="40.14044470153748989105224609375" lon="-0.821483172476291656494140625">
        <ele>996.20001220703125</ele>
        <time>2022-05-06T10:43:00.000Z</time>
      </trkpt>
      <trkpt lat="40.14044470153748989105224609375" lon="-0.821483172476291656494140625">
        <ele>996.20001220703125</ele>
        <time>2022-05-06T10:43:01.000Z</time>
      </trkpt>
      <trkpt lat="40.14039508067071437835693359375" lon="-0.82139407284557819366455078125">
        <ele>997</ele>
        <time>2022-05-06T10:43:02.000Z</time>
      </trkpt>
      <trkpt lat="40.14039508067071437835693359375" lon="-0.82139407284557819366455078125">
        <ele>997</ele>
        <time>2022-05-06T10:43:03.000Z</time>
      </trkpt>
      <trkpt lat="40.14032450504601001739501953125" lon="-0.8212587051093578338623046875">
        <ele>996.79998779296875</ele>
        <time>2022-05-06T10:43:05.000Z</time>
      </trkpt>
      <trkpt lat="40.1403011195361614227294921875" lon="-0.821208916604518890380859375">
        <ele>996.5999755859375</ele>
        <time>2022-05-06T10:43:07.000Z</time>
      </trkpt>
      <trkpt lat="40.14025309123098850250244140625" lon="-0.8211054839193820953369140625">
        <ele>996.4000244140625</ele>
        <time>2022-05-06T10:43:08.000Z</time>
      </trkpt>
      <trkpt lat="40.14025309123098850250244140625" lon="-0.8211054839193820953369140625">
        <ele>996.4000244140625</ele>
        <time>2022-05-06T10:43:09.000Z</time>
      </trkpt>
      <trkpt lat="40.14016709290444850921630859375" lon="-0.82095217891037464141845703125">
        <ele>996.20001220703125</ele>
        <time>2022-05-06T10:43:11.000Z</time>
      </trkpt>
      <trkpt lat="40.140134654939174652099609375" lon="-0.82090490497648715972900390625">
        <ele>996</ele>
        <time>2022-05-06T10:43:13.000Z</time>
      </trkpt>
      <trkpt lat="40.140070617198944091796875" lon="-0.8208121173083782196044921875">
        <ele>996.20001220703125</ele>
        <time>2022-05-06T10:43:15.000Z</time>
      </trkpt>
      <trkpt lat="40.1400044001638889312744140625" lon="-0.820726118981838226318359375">
        <ele>996.4000244140625</ele>
        <time>2022-05-06T10:43:16.000Z</time>
      </trkpt>
      <trkpt lat="40.1399702019989490509033203125" lon="-0.82068529911339282989501953125">
        <ele>996.4000244140625</ele>
        <time>2022-05-06T10:43:17.000Z</time>
      </trkpt>
      <trkpt lat="40.13993491418659687042236328125" lon="-0.82064607180655002593994140625">
        <ele>996.4000244140625</ele>
        <time>2022-05-06T10:43:19.000Z</time>
      </trkpt>
      <trkpt lat="40.13986207544803619384765625" lon="-0.82056795246899127960205078125">
        <ele>996.5999755859375</ele>
        <time>2022-05-06T10:43:21.000Z</time>
      </trkpt>
      <trkpt lat="40.139743387699127197265625" lon="-0.82045999355614185333251953125">
        <ele>996.5999755859375</ele>
        <time>2022-05-06T10:43:23.000Z</time>
      </trkpt>
      <trkpt lat="40.1397029869258403778076171875" lon="-0.82042663358151912689208984375">
        <ele>996.4000244140625</ele>
        <time>2022-05-06T10:43:25.000Z</time>
      </trkpt>
      <trkpt lat="40.1396213471889495849609375" lon="-0.82037013955414295196533203125">
        <ele>996.4000244140625</ele>
        <time>2022-05-06T10:43:27.000Z</time>
      </trkpt>
      <trkpt lat="40.13950374908745288848876953125" lon="-0.820298306643962860107421875">
        <ele>996.20001220703125</ele>
        <time>2022-05-06T10:43:29.000Z</time>
      </trkpt>
      <trkpt lat="40.1394676230847835540771484375" lon="-0.820279531180858612060546875">
        <ele>996.20001220703125</ele>
        <time>2022-05-06T10:43:31.000Z</time>
      </trkpt>
      <trkpt lat="40.13940534554421901702880859375" lon="-0.82024793140590190887451171875">
        <ele>996.20001220703125</ele>
        <time>2022-05-06T10:43:33.000Z</time>
      </trkpt>
      <trkpt lat="40.13937366195023059844970703125" lon="-0.8202035911381244659423828125">
        <ele>996</ele>
        <time>2022-05-06T10:43:34.000Z</time>
      </trkpt>
      <trkpt lat="40.13937466777861118316650390625" lon="-0.82017517648637294769287109375">
        <ele>996</ele>
        <time>2022-05-06T10:43:35.000Z</time>
      </trkpt>
      <trkpt lat="40.13938774354755878448486328125" lon="-0.82014868967235088348388671875">
        <ele>995.79998779296875</ele>
        <time>2022-05-06T10:43:37.000Z</time>
      </trkpt>
      <trkpt lat="40.1394421420991420745849609375" lon="-0.820111222565174102783203125">
        <ele>995.5999755859375</ele>
        <time>2022-05-06T10:43:38.000Z</time>
      </trkpt>
      <trkpt lat="40.1394421420991420745849609375" lon="-0.820111222565174102783203125">
        <ele>995.5999755859375</ele>
        <time>2022-05-06T10:43:39.000Z</time>
      </trkpt>
      <trkpt lat="40.139553956687450408935546875" lon="-0.8200627751648426055908203125">
        <ele>995.20001220703125</ele>
        <time>2022-05-06T10:43:41.000Z</time>
      </trkpt>
      <trkpt lat="40.1395943574607372283935546875" lon="-0.82004676572978496551513671875">
        <ele>995.20001220703125</ele>
        <time>2022-05-06T10:43:43.000Z</time>
      </trkpt>
      <trkpt lat="40.1396748237311840057373046875" lon="-0.8200124837458133697509765625">
        <ele>995</ele>
        <time>2022-05-06T10:43:44.000Z</time>
      </trkpt>
      <trkpt lat="40.1396748237311840057373046875" lon="-0.8200124837458133697509765625">
        <ele>995</ele>
        <time>2022-05-06T10:43:45.000Z</time>
      </trkpt>
      <trkpt lat="40.13979543931782245635986328125" lon="-0.81995490007102489471435546875">
        <ele>994.5999755859375</ele>
        <time>2022-05-06T10:43:47.000Z</time>
      </trkpt>
      <trkpt lat="40.1398377679288387298583984375" lon="-0.81992958672344684600830078125">
        <ele>994.4000244140625</ele>
        <time>2022-05-06T10:43:48.000Z</time>
      </trkpt>
      <trkpt lat="40.1398377679288387298583984375" lon="-0.81992958672344684600830078125">
        <ele>994.4000244140625</ele>
        <time>2022-05-06T10:43:49.000Z</time>
      </trkpt>
      <trkpt lat="40.139924772083759307861328125" lon="-0.8198699913918972015380859375">
        <ele>994.20001220703125</ele>
        <time>2022-05-06T10:43:50.000Z</time>
      </trkpt>
      <trkpt lat="40.139924772083759307861328125" lon="-0.8198699913918972015380859375">
        <ele>994.20001220703125</ele>
        <time>2022-05-06T10:43:51.000Z</time>
      </trkpt>
      <trkpt lat="40.14000683091580867767333984375" lon="-0.81979581154882907867431640625">
        <ele>993.79998779296875</ele>
        <time>2022-05-06T10:43:52.000Z</time>
      </trkpt>
      <trkpt lat="40.1400486566126346588134765625" lon="-0.8197506330907344818115234375">
        <ele>993.5999755859375</ele>
        <time>2022-05-06T10:43:53.000Z</time>
      </trkpt>
      <trkpt lat="40.14008662663400173187255859375" lon="-0.81970461644232273101806640625">
        <ele>993.4000244140625</ele>
        <time>2022-05-06T10:43:55.000Z</time>
      </trkpt>
      <trkpt lat="40.1401572860777378082275390625" lon="-0.81961132586002349853515625">
        <ele>993</ele>
        <time>2022-05-06T10:43:56.000Z</time>
      </trkpt>
      <trkpt lat="40.1401572860777378082275390625" lon="-0.81961132586002349853515625">
        <ele>993</ele>
        <time>2022-05-06T10:43:57.000Z</time>
      </trkpt>
      <trkpt lat="40.1402628980576992034912109375" lon="-0.81947562284767627716064453125">
        <ele>992.5999755859375</ele>
        <time>2022-05-06T10:43:59.000Z</time>
      </trkpt>
      <trkpt lat="40.14029449783265590667724609375" lon="-0.8194269239902496337890625">
        <ele>992.4000244140625</ele>
        <time>2022-05-06T10:44:01.000Z</time>
      </trkpt>
      <trkpt lat="40.140355937182903289794921875" lon="-0.81932567059993743896484375">
        <ele>992.20001220703125</ele>
        <time>2022-05-06T10:44:03.000Z</time>
      </trkpt>
      <trkpt lat="40.14040815643966197967529296875" lon="-0.81921972334384918212890625">
        <ele>991.79998779296875</ele>
        <time>2022-05-06T10:44:04.000Z</time>
      </trkpt>
      <trkpt lat="40.14043045230209827423095703125" lon="-0.81916918046772480010986328125">
        <ele>991.5999755859375</ele>
        <time>2022-05-06T10:44:05.000Z</time>
      </trkpt>
      <trkpt lat="40.1404509879648685455322265625" lon="-0.8191162906587123870849609375">
        <ele>991.4000244140625</ele>
        <time>2022-05-06T10:44:07.000Z</time>
      </trkpt>
      <trkpt lat="40.14050153084099292755126953125" lon="-0.8190066553652286529541015625">
        <ele>991</ele>
        <time>2022-05-06T10:44:08.000Z</time>
      </trkpt>
      <trkpt lat="40.14050153084099292755126953125" lon="-0.8190066553652286529541015625">
        <ele>991</ele>
        <time>2022-05-06T10:44:09.000Z</time>
      </trkpt>
      <trkpt lat="40.14057009480893611907958984375" lon="-0.8189087547361850738525390625">
        <ele>990.20001220703125</ele>
        <time>2022-05-06T10:44:10.000Z</time>
      </trkpt>
      <trkpt lat="40.14061099849641323089599609375" lon="-0.81886567175388336181640625">
        <ele>990</ele>
        <time>2022-05-06T10:44:11.000Z</time>
      </trkpt>
      <trkpt lat="40.1406548358500003814697265625" lon="-0.81882501952350139617919921875">
        <ele>989.79998779296875</ele>
        <time>2022-05-06T10:44:13.000Z</time>
      </trkpt>
      <trkpt lat="40.14074091799557209014892578125" lon="-0.8187340758740901947021484375">
        <ele>989.5999755859375</ele>
        <time>2022-05-06T10:44:14.000Z</time>
      </trkpt>
      <trkpt lat="40.14074091799557209014892578125" lon="-0.8187340758740901947021484375">
        <ele>989.5999755859375</ele>
        <time>2022-05-06T10:44:15.000Z</time>
      </trkpt>
      <trkpt lat="40.1407929696142673492431640625" lon="-0.81860574893653392791748046875">
        <ele>989.5999755859375</ele>
        <time>2022-05-06T10:44:16.000Z</time>
      </trkpt>
      <trkpt lat="40.14080629684031009674072265625" lon="-0.8185391128063201904296875">
        <ele>989.5999755859375</ele>
        <time>2022-05-06T10:44:17.000Z</time>
      </trkpt>
      <trkpt lat="40.140818618237972259521484375" lon="-0.8184747397899627685546875">
        <ele>989.5999755859375</ele>
        <time>2022-05-06T10:44:19.000Z</time>
      </trkpt>
      <trkpt lat="40.14085072092711925506591796875" lon="-0.818367116153240203857421875">
        <ele>989.5999755859375</ele>
        <time>2022-05-06T10:44:21.000Z</time>
      </trkpt>
      <trkpt lat="40.14089405536651611328125" lon="-0.81830131821334362030029296875">
        <ele>989.5999755859375</ele>
        <time>2022-05-06T10:44:22.000Z</time>
      </trkpt>
      <trkpt lat="40.14092163182795047760009765625" lon="-0.818283967673778533935546875">
        <ele>989.4000244140625</ele>
        <time>2022-05-06T10:44:23.000Z</time>
      </trkpt>
      <trkpt lat="40.14095197431743144989013671875" lon="-0.8182687126100063323974609375">
        <ele>989.20001220703125</ele>
        <time>2022-05-06T10:44:24.000Z</time>
      </trkpt>
      <trkpt lat="40.14095197431743144989013671875" lon="-0.8182687126100063323974609375">
        <ele>989.20001220703125</ele>
        <time>2022-05-06T10:44:25.000Z</time>
      </trkpt>
      <trkpt lat="40.141019113361835479736328125" lon="-0.81824566237628459930419921875">
        <ele>989</ele>
        <time>2022-05-06T10:44:27.000Z</time>
      </trkpt>
      <trkpt lat="40.141099579632282257080078125" lon="-0.81824398599565029144287109375">
        <ele>988.5999755859375</ele>
        <time>2022-05-06T10:44:28.000Z</time>
      </trkpt>
      <trkpt lat="40.14114459045231342315673828125" lon="-0.81825018860399723052978515625">
        <ele>988.4000244140625</ele>
        <time>2022-05-06T10:44:29.000Z</time>
      </trkpt>
      <trkpt lat="40.1411909423768520355224609375" lon="-0.81825454719364643096923828125">
        <ele>988</ele>
        <time>2022-05-06T10:44:30.000Z</time>
      </trkpt>
      <trkpt lat="40.1411909423768520355224609375" lon="-0.81825454719364643096923828125">
        <ele>988</ele>
        <time>2022-05-06T10:44:31.000Z</time>
      </trkpt>
      <trkpt lat="40.1412843167781829833984375" lon="-0.81825815141201019287109375">
        <ele>987.4000244140625</ele>
        <time>2022-05-06T10:44:33.000Z</time>
      </trkpt>
      <trkpt lat="40.14138012193143367767333984375" lon="-0.818255133926868438720703125">
        <ele>987.20001220703125</ele>
        <time>2022-05-06T10:44:34.000Z</time>
      </trkpt>
      <trkpt lat="40.14142538420855998992919921875" lon="-0.81825421191751956939697265625">
        <ele>987</ele>
        <time>2022-05-06T10:44:35.000Z</time>
      </trkpt>
      <trkpt lat="40.141468383371829986572265625" lon="-0.8182502724230289459228515625">
        <ele>986.79998779296875</ele>
        <time>2022-05-06T10:44:36.000Z</time>
      </trkpt>
      <trkpt lat="40.141468383371829986572265625" lon="-0.8182502724230289459228515625">
        <ele>986.79998779296875</ele>
        <time>2022-05-06T10:44:37.000Z</time>
      </trkpt>
      <trkpt lat="40.14154792763292789459228515625" lon="-0.8182217739522457122802734375">
        <ele>986.5999755859375</ele>
        <time>2022-05-06T10:44:38.000Z</time>
      </trkpt>
      <trkpt lat="40.14154792763292789459228515625" lon="-0.8182217739522457122802734375">
        <ele>986.5999755859375</ele>
        <time>2022-05-06T10:44:39.000Z</time>
      </trkpt>
      <trkpt lat="40.1416221074759960174560546875" lon="-0.8181689679622650146484375">
        <ele>986.4000244140625</ele>
        <time>2022-05-06T10:44:40.000Z</time>
      </trkpt>
      <trkpt lat="40.14165907166898250579833984375" lon="-0.81813669763505458831787109375">
        <ele>986.4000244140625</ele>
        <time>2022-05-06T10:44:41.000Z</time>
      </trkpt>
      <trkpt lat="40.141695700585842132568359375" lon="-0.81810350529849529266357421875">
        <ele>986.4000244140625</ele>
        <time>2022-05-06T10:44:43.000Z</time>
      </trkpt>
      <trkpt lat="40.14176770113408565521240234375" lon="-0.8180348575115203857421875">
        <ele>986.4000244140625</ele>
        <time>2022-05-06T10:44:45.000Z</time>
      </trkpt>
      <trkpt lat="40.14185939915478229522705078125" lon="-0.81795263104140758514404296875">
        <ele>986.4000244140625</ele>
        <time>2022-05-06T10:44:47.000Z</time>
      </trkpt>
      <trkpt lat="40.1418852992355823516845703125" lon="-0.817931592464447021484375">
        <ele>986.5999755859375</ele>
        <time>2022-05-06T10:44:49.000Z</time>
      </trkpt>
      <trkpt lat="40.14193274080753326416015625" lon="-0.8178908564150333404541015625">
        <ele>986.5999755859375</ele>
        <time>2022-05-06T10:44:50.000Z</time>
      </trkpt>
      <trkpt lat="40.14193274080753326416015625" lon="-0.8178908564150333404541015625">
        <ele>986.5999755859375</ele>
        <time>2022-05-06T10:44:51.000Z</time>
      </trkpt>
      <trkpt lat="40.1419885642826557159423828125" lon="-0.81780008040368556976318359375">
        <ele>987</ele>
        <time>2022-05-06T10:44:53.000Z</time>
      </trkpt>
      <trkpt lat="40.14200490899384021759033203125" lon="-0.81777007319033145904541015625">
        <ele>987</ele>
        <time>2022-05-06T10:44:55.000Z</time>
      </trkpt>
      <trkpt lat="40.14202871359884738922119140625" lon="-0.8177183568477630615234375">
        <ele>987.20001220703125</ele>
        <time>2022-05-06T10:44:57.000Z</time>
      </trkpt>
      <trkpt lat="40.14205369167029857635498046875" lon="-0.817635543644428253173828125">
        <ele>987.5999755859375</ele>
        <time>2022-05-06T10:44:59.000Z</time>
      </trkpt>
      <trkpt lat="40.1420686952769756317138671875" lon="-0.81760310567915439605712890625">
        <ele>987.79998779296875</ele>
        <time>2022-05-06T10:45:01.000Z</time>
      </trkpt>
      <trkpt lat="40.142100043594837188720703125" lon="-0.81752615980803966522216796875">
        <ele>988.20001220703125</ele>
        <time>2022-05-06T10:45:02.000Z</time>
      </trkpt>
      <trkpt lat="40.142100043594837188720703125" lon="-0.81752615980803966522216796875">
        <ele>988.20001220703125</ele>
        <time>2022-05-06T10:45:03.000Z</time>
      </trkpt>
      <trkpt lat="40.14213264919817447662353515625" lon="-0.81744234077632427215576171875">
        <ele>988.4000244140625</ele>
        <time>2022-05-06T10:45:04.000Z</time>
      </trkpt>
      <trkpt lat="40.1421508379280567169189453125" lon="-0.81740462221205234527587890625">
        <ele>988.5999755859375</ele>
        <time>2022-05-06T10:45:05.000Z</time>
      </trkpt>
      <trkpt lat="40.1421702839434146881103515625" lon="-0.81736790947616100311279296875">
        <ele>988.5999755859375</ele>
        <time>2022-05-06T10:45:07.000Z</time>
      </trkpt>
      <trkpt lat="40.14219702221453189849853515625" lon="-0.81730068661272525787353515625">
        <ele>988.79998779296875</ele>
        <time>2022-05-06T10:45:09.000Z</time>
      </trkpt>
      <trkpt lat="40.14221563003957271575927734375" lon="-0.81722960807383060455322265625">
        <ele>989</ele>
        <time>2022-05-06T10:45:11.000Z</time>
      </trkpt>
      <trkpt lat="40.14221596531569957733154296875" lon="-0.8172213099896907806396484375">
        <ele>989</ele>
        <time>2022-05-06T10:45:13.000Z</time>
      </trkpt>
      <trkpt lat="40.1422500796616077423095703125" lon="-0.8170982636511325836181640625">
        <ele>989</ele>
        <time>2022-05-06T10:45:39.000Z</time>
      </trkpt>
      <trkpt lat="40.14226491563022136688232421875" lon="-0.81705811433494091033935546875">
        <ele>988.79998779296875</ele>
        <time>2022-05-06T10:45:40.000Z</time>
      </trkpt>
      <trkpt lat="40.1422745548188686370849609375" lon="-0.8170318789780139923095703125">
        <ele>988.79998779296875</ele>
        <time>2022-05-06T10:45:41.000Z</time>
      </trkpt>
      <trkpt lat="40.14228687621653079986572265625" lon="-0.81700245849788188934326171875">
        <ele>988.79998779296875</ele>
        <time>2022-05-06T10:45:43.000Z</time>
      </trkpt>
      <trkpt lat="40.14231503941118717193603515625" lon="-0.81693171523511409759521484375">
        <ele>988.5999755859375</ele>
        <time>2022-05-06T10:45:45.000Z</time>
      </trkpt>
      <trkpt lat="40.14235191978514194488525390625" lon="-0.81684404052793979644775390625">
        <ele>988.4000244140625</ele>
        <time>2022-05-06T10:45:46.000Z</time>
      </trkpt>
      <trkpt lat="40.14237421564757823944091796875" lon="-0.816795341670513153076171875">
        <ele>988.20001220703125</ele>
        <time>2022-05-06T10:45:47.000Z</time>
      </trkpt>
      <trkpt lat="40.14239232055842876434326171875" lon="-0.81674463115632534027099609375">
        <ele>988.20001220703125</ele>
        <time>2022-05-06T10:45:49.000Z</time>
      </trkpt>
      <trkpt lat="40.14242383651435375213623046875" lon="-0.8166493289172649383544921875">
        <ele>988</ele>
        <time>2022-05-06T10:45:51.000Z</time>
      </trkpt>
      <trkpt lat="40.1424495689570903778076171875" lon="-0.8165681920945644378662109375">
        <ele>988</ele>
        <time>2022-05-06T10:45:52.000Z</time>
      </trkpt>
      <trkpt lat="40.14246088452637195587158203125" lon="-0.81652821041643619537353515625">
        <ele>987.79998779296875</ele>
        <time>2022-05-06T10:45:53.000Z</time>
      </trkpt>
      <trkpt lat="40.142479240894317626953125" lon="-0.81649459898471832275390625">
        <ele>987.79998779296875</ele>
        <time>2022-05-06T10:45:55.000Z</time>
      </trkpt>
      <trkpt lat="40.1425333879888057708740234375" lon="-0.81644824706017971038818359375">
        <ele>987.4000244140625</ele>
        <time>2022-05-06T10:45:56.000Z</time>
      </trkpt>
      <trkpt lat="40.1425333879888057708740234375" lon="-0.81644824706017971038818359375">
        <ele>987.4000244140625</ele>
        <time>2022-05-06T10:45:57.000Z</time>
      </trkpt>
      <trkpt lat="40.1425945758819580078125" lon="-0.81644874997437000274658203125">
        <ele>986.79998779296875</ele>
        <time>2022-05-06T10:45:58.000Z</time>
      </trkpt>
      <trkpt lat="40.14262684620916843414306640625" lon="-0.81645897589623928070068359375">
        <ele>986.5999755859375</ele>
        <time>2022-05-06T10:45:59.000Z</time>
      </trkpt>
      <trkpt lat="40.142660625278949737548828125" lon="-0.81647473387420177459716796875">
        <ele>986.20001220703125</ele>
        <time>2022-05-06T10:46:00.000Z</time>
      </trkpt>
      <trkpt lat="40.142660625278949737548828125" lon="-0.81647473387420177459716796875">
        <ele>986.20001220703125</ele>
        <time>2022-05-06T10:46:01.000Z</time>
      </trkpt>
      <trkpt lat="40.14272692613303661346435546875" lon="-0.81651848740875720977783203125">
        <ele>985.5999755859375</ele>
        <time>2022-05-06T10:46:03.000Z</time>
      </trkpt>
      <trkpt lat="40.14281543903052806854248046875" lon="-0.81659191288053989410400390625">
        <ele>984.79998779296875</ele>
        <time>2022-05-06T10:46:05.000Z</time>
      </trkpt>
      <trkpt lat="40.142844021320343017578125" lon="-0.8166131190955638885498046875">
        <ele>984.5999755859375</ele>
        <time>2022-05-06T10:46:07.000Z</time>
      </trkpt>
      <trkpt lat="40.14290831051766872406005859375" lon="-0.81664321012794971466064453125">
        <ele>984</ele>
        <time>2022-05-06T10:46:08.000Z</time>
      </trkpt>
      <trkpt lat="40.14290831051766872406005859375" lon="-0.81664321012794971466064453125">
        <ele>984</ele>
        <time>2022-05-06T10:46:09.000Z</time>
      </trkpt>
      <trkpt lat="40.1429715938866138458251953125" lon="-0.8166406117379665374755859375">
        <ele>983.4000244140625</ele>
        <time>2022-05-06T10:46:10.000Z</time>
      </trkpt>
      <trkpt lat="40.1430014334619045257568359375" lon="-0.8166275359690189361572265625">
        <ele>983.20001220703125</ele>
        <time>2022-05-06T10:46:11.000Z</time>
      </trkpt>
      <trkpt lat="40.1430262438952922821044921875" lon="-0.81660146825015544891357421875">
        <ele>983.20001220703125</ele>
        <time>2022-05-06T10:46:13.000Z</time>
      </trkpt>
      <trkpt lat="40.14307544566690921783447265625" lon="-0.8165326528251171112060546875">
        <ele>982.79998779296875</ele>
        <time>2022-05-06T10:46:15.000Z</time>
      </trkpt>
      <trkpt lat="40.1431519724428653717041015625" lon="-0.816442631185054779052734375">
        <ele>982.4000244140625</ele>
        <time>2022-05-06T10:46:17.000Z</time>
      </trkpt>
      <trkpt lat="40.14316882006824016571044921875" lon="-0.81642343662679195404052734375">
        <ele>982.4000244140625</ele>
        <time>2022-05-06T10:46:19.000Z</time>
      </trkpt>
      <trkpt lat="40.1432002522051334381103515625" lon="-0.8164005540311336517333984375">
        <ele>982.20001220703125</ele>
        <time>2022-05-06T10:46:20.000Z</time>
      </trkpt>
      <trkpt lat="40.1432002522051334381103515625" lon="-0.8164005540311336517333984375">
        <ele>982.20001220703125</ele>
        <time>2022-05-06T10:46:21.000Z</time>
      </trkpt>
      <trkpt lat="40.14324408955872058868408203125" lon="-0.81640985794365406036376953125">
        <ele>981.79998779296875</ele>
        <time>2022-05-06T10:46:22.000Z</time>
      </trkpt>
      <trkpt lat="40.14326437376439571380615234375" lon="-0.816429555416107177734375">
        <ele>981.5999755859375</ele>
        <time>2022-05-06T10:46:23.000Z</time>
      </trkpt>
      <trkpt lat="40.14328180812299251556396484375" lon="-0.81645746715366840362548828125">
        <ele>981.4000244140625</ele>
        <time>2022-05-06T10:46:25.000Z</time>
      </trkpt>
      <trkpt lat="40.1433172635734081268310546875" lon="-0.8165272884070873260498046875">
        <ele>981.20001220703125</ele>
        <time>2022-05-06T10:46:27.000Z</time>
      </trkpt>
      <trkpt lat="40.14336369931697845458984375" lon="-0.81660582683980464935302734375">
        <ele>980.5999755859375</ele>
        <time>2022-05-06T10:46:28.000Z</time>
      </trkpt>
      <trkpt lat="40.14339186251163482666015625" lon="-0.8166473172605037689208984375">
        <ele>980.4000244140625</ele>
        <time>2022-05-06T10:46:29.000Z</time>
      </trkpt>
      <trkpt lat="40.1434262283146381378173828125" lon="-0.81669081933796405792236328125">
        <ele>980.20001220703125</ele>
        <time>2022-05-06T10:46:30.000Z</time>
      </trkpt>
      <trkpt lat="40.1434262283146381378173828125" lon="-0.81669081933796405792236328125">
        <ele>980.20001220703125</ele>
        <time>2022-05-06T10:46:31.000Z</time>
      </trkpt>
      <trkpt lat="40.1435073651373386383056640625" lon="-0.81678788177669048309326171875">
        <ele>979.20001220703125</ele>
        <time>2022-05-06T10:46:32.000Z</time>
      </trkpt>
      <trkpt lat="40.1435073651373386383056640625" lon="-0.81678788177669048309326171875">
        <ele>979.20001220703125</ele>
        <time>2022-05-06T10:46:33.000Z</time>
      </trkpt>
      <trkpt lat="40.14360920526087284088134765625" lon="-0.81689533777534961700439453125">
        <ele>978.20001220703125</ele>
        <time>2022-05-06T10:46:34.000Z</time>
      </trkpt>
      <trkpt lat="40.14366167597472667694091796875" lon="-0.816953592002391815185546875">
        <ele>977.5999755859375</ele>
        <time>2022-05-06T10:46:35.000Z</time>
      </trkpt>
      <trkpt lat="40.143716074526309967041015625" lon="-0.81701570190489292144775390625">
        <ele>977</ele>
        <time>2022-05-06T10:46:37.000Z</time>
      </trkpt>
      <trkpt lat="40.1438268832862377166748046875" lon="-0.8171495608985424041748046875">
        <ele>975.79998779296875</ele>
        <time>2022-05-06T10:46:38.000Z</time>
      </trkpt>
      <trkpt lat="40.1438268832862377166748046875" lon="-0.8171495608985424041748046875">
        <ele>975.79998779296875</ele>
        <time>2022-05-06T10:46:39.000Z</time>
      </trkpt>
      <trkpt lat="40.14394649304449558258056640625" lon="-0.817280150949954986572265625">
        <ele>975.4000244140625</ele>
        <time>2022-05-06T10:46:40.000Z</time>
      </trkpt>
      <trkpt lat="40.1440136320888996124267578125" lon="-0.8173463679850101470947265625">
        <ele>975.20001220703125</ele>
        <time>2022-05-06T10:46:41.000Z</time>
      </trkpt>
      <trkpt lat="40.1440813578665256500244140625" lon="-0.81741400994360446929931640625">
        <ele>975.20001220703125</ele>
        <time>2022-05-06T10:46:43.000Z</time>
      </trkpt>
      <trkpt lat="40.14421437866985797882080078125" lon="-0.81755382008850574493408203125">
        <ele>974.79998779296875</ele>
        <time>2022-05-06T10:46:44.000Z</time>
      </trkpt>
      <trkpt lat="40.14421437866985797882080078125" lon="-0.81755382008850574493408203125">
        <ele>974.79998779296875</ele>
        <time>2022-05-06T10:46:45.000Z</time>
      </trkpt>
      <trkpt lat="40.144349075853824615478515625" lon="-0.817696563899517059326171875">
        <ele>974.5999755859375</ele>
        <time>2022-05-06T10:46:46.000Z</time>
      </trkpt>
      <trkpt lat="40.14441370032727718353271484375" lon="-0.817768983542919158935546875">
        <ele>974.4000244140625</ele>
        <time>2022-05-06T10:46:47.000Z</time>
      </trkpt>
      <trkpt lat="40.14448058791458606719970703125" lon="-0.81784014590084552764892578125">
        <ele>974.20001220703125</ele>
        <time>2022-05-06T10:46:48.000Z</time>
      </trkpt>
      <trkpt lat="40.14448058791458606719970703125" lon="-0.81784014590084552764892578125">
        <ele>974.20001220703125</ele>
        <time>2022-05-06T10:46:49.000Z</time>
      </trkpt>
      <trkpt lat="40.144609250128269195556640625" lon="-0.81797861494123935699462890625">
        <ele>974</ele>
        <time>2022-05-06T10:46:51.000Z</time>
      </trkpt>
      <trkpt lat="40.144792981445789337158203125" lon="-0.8181751705706119537353515625">
        <ele>974.79998779296875</ele>
        <time>2022-05-06T10:46:53.000Z</time>
      </trkpt>
      <trkpt lat="40.14484503306448459625244140625" lon="-0.818239040672779083251953125">
        <ele>975</ele>
        <time>2022-05-06T10:46:55.000Z</time>
      </trkpt>
      <trkpt lat="40.14494511298835277557373046875" lon="-0.818358398973941802978515625">
        <ele>975.5999755859375</ele>
        <time>2022-05-06T10:46:56.000Z</time>
      </trkpt>
      <trkpt lat="40.14494511298835277557373046875" lon="-0.818358398973941802978515625">
        <ele>975.5999755859375</ele>
        <time>2022-05-06T10:46:57.000Z</time>
      </trkpt>
      <trkpt lat="40.145033039152622222900390625" lon="-0.81848706118762493133544921875">
        <ele>976</ele>
        <time>2022-05-06T10:46:58.000Z</time>
      </trkpt>
      <trkpt lat="40.14507419429719448089599609375" lon="-0.81855495460331439971923828125">
        <ele>976.20001220703125</ele>
        <time>2022-05-06T10:46:59.000Z</time>
      </trkpt>
      <trkpt lat="40.14511375688016414642333984375" lon="-0.81862301565706729888916015625">
        <ele>976.5999755859375</ele>
        <time>2022-05-06T10:47:01.000Z</time>
      </trkpt>
      <trkpt lat="40.145200677216053009033203125" lon="-0.818756707012653350830078125">
        <ele>977</ele>
        <time>2022-05-06T10:47:03.000Z</time>
      </trkpt>
      <trkpt lat="40.1453171856701374053955078125" lon="-0.81891470588743686676025390625">
        <ele>977.5999755859375</ele>
        <time>2022-05-06T10:47:05.000Z</time>
      </trkpt>
      <trkpt lat="40.1453476957976818084716796875" lon="-0.81896298564970493316650390625">
        <ele>978</ele>
        <time>2022-05-06T10:47:06.000Z</time>
      </trkpt>
      <trkpt lat="40.1453476957976818084716796875" lon="-0.81896298564970493316650390625">
        <ele>978</ele>
        <time>2022-05-06T10:47:07.000Z</time>
      </trkpt>
      <trkpt lat="40.14540645293891429901123046875" lon="-0.81904697231948375701904296875">
        <ele>978.20001220703125</ele>
        <time>2022-05-06T10:47:09.000Z</time>
      </trkpt>
      <trkpt lat="40.1454657129943370819091796875" lon="-0.8191286958754062652587890625">
        <ele>978.4000244140625</ele>
        <time>2022-05-06T10:47:10.000Z</time>
      </trkpt>
      <trkpt lat="40.145495720207691192626953125" lon="-0.81917144358158111572265625">
        <ele>978.4000244140625</ele>
        <time>2022-05-06T10:47:11.000Z</time>
      </trkpt>
      <trkpt lat="40.1455275714397430419921875" lon="-0.8192148618400096893310546875">
        <ele>978.5999755859375</ele>
        <time>2022-05-06T10:47:13.000Z</time>
      </trkpt>
      <trkpt lat="40.14558968134224414825439453125" lon="-0.819300524890422821044921875">
        <ele>978.79998779296875</ele>
        <time>2022-05-06T10:47:15.000Z</time>
      </trkpt>
      <trkpt lat="40.14565137214958667755126953125" lon="-0.81938224844634532928466796875">
        <ele>979</ele>
        <time>2022-05-06T10:47:16.000Z</time>
      </trkpt>
      <trkpt lat="40.14567844569683074951171875" lon="-0.8194240741431713104248046875">
        <ele>979.20001220703125</ele>
        <time>2022-05-06T10:47:17.000Z</time>
      </trkpt>
      <trkpt lat="40.14570501632988452911376953125" lon="-0.8194633014500141143798828125">
        <ele>979.4000244140625</ele>
        <time>2022-05-06T10:47:19.000Z</time>
      </trkpt>
      <trkpt lat="40.14575715176761150360107421875" lon="-0.819540582597255706787109375">
        <ele>979.4000244140625</ele>
        <time>2022-05-06T10:47:20.000Z</time>
      </trkpt>
      <trkpt lat="40.14575715176761150360107421875" lon="-0.819540582597255706787109375">
        <ele>979.4000244140625</ele>
        <time>2022-05-06T10:47:21.000Z</time>
      </trkpt>
      <trkpt lat="40.1458278112113475799560546875" lon="-0.81965650431811809539794921875">
        <ele>979.4000244140625</ele>
        <time>2022-05-06T10:47:23.000Z</time>
      </trkpt>
      <trkpt lat="40.14585035853087902069091796875" lon="-0.81969539634883403778076171875">
        <ele>979.4000244140625</ele>
        <time>2022-05-06T10:47:25.000Z</time>
      </trkpt>
      <trkpt lat="40.14589478261768817901611328125" lon="-0.81977225840091705322265625">
        <ele>980</ele>
        <time>2022-05-06T10:47:26.000Z</time>
      </trkpt>
      <trkpt lat="40.14589478261768817901611328125" lon="-0.81977225840091705322265625">
        <ele>980</ele>
        <time>2022-05-06T10:47:27.000Z</time>
      </trkpt>
      <trkpt lat="40.145961754024028778076171875" lon="-0.81987954676151275634765625">
        <ele>980.79998779296875</ele>
        <time>2022-05-06T10:47:29.000Z</time>
      </trkpt>
      <trkpt lat="40.1459860615432262420654296875" lon="-0.81991433165967464447021484375">
        <ele>981</ele>
        <time>2022-05-06T10:47:30.000Z</time>
      </trkpt>
      <trkpt lat="40.1459860615432262420654296875" lon="-0.81991433165967464447021484375">
        <ele>981</ele>
        <time>2022-05-06T10:47:31.000Z</time>
      </trkpt>
      <trkpt lat="40.14603878371417522430419921875" lon="-0.81998147070407867431640625">
        <ele>981.5999755859375</ele>
        <time>2022-05-06T10:47:33.000Z</time>
      </trkpt>
      <trkpt lat="40.1460854709148406982421875" lon="-0.82004525698721408843994140625">
        <ele>981.5999755859375</ele>
        <time>2022-05-06T10:47:34.000Z</time>
      </trkpt>
      <trkpt lat="40.146107934415340423583984375" lon="-0.82007467746734619140625">
        <ele>981.5999755859375</ele>
        <time>2022-05-06T10:47:35.000Z</time>
      </trkpt>
      <trkpt lat="40.14613249339163303375244140625" lon="-0.82010208629071712493896484375">
        <ele>981.79998779296875</ele>
        <time>2022-05-06T10:47:37.000Z</time>
      </trkpt>
      <trkpt lat="40.14618010260164737701416015625" lon="-0.82015824504196643829345703125">
        <ele>981.79998779296875</ele>
        <time>2022-05-06T10:47:39.000Z</time>
      </trkpt>
      <trkpt lat="40.14624699018895626068115234375" lon="-0.82024306990206241607666015625">
        <ele>982</ele>
        <time>2022-05-06T10:47:41.000Z</time>
      </trkpt>
      <trkpt lat="40.14626559801399707794189453125" lon="-0.82026989199221134185791015625">
        <ele>982</ele>
        <time>2022-05-06T10:47:42.000Z</time>
      </trkpt>
      <trkpt lat="40.14626559801399707794189453125" lon="-0.82026989199221134185791015625">
        <ele>982</ele>
        <time>2022-05-06T10:47:43.000Z</time>
      </trkpt>
      <trkpt lat="40.14631278812885284423828125" lon="-0.82032454200088977813720703125">
        <ele>982.20001220703125</ele>
        <time>2022-05-06T10:47:44.000Z</time>
      </trkpt>
      <trkpt lat="40.14631278812885284423828125" lon="-0.82032454200088977813720703125">
        <ele>982.20001220703125</ele>
        <time>2022-05-06T10:47:45.000Z</time>
      </trkpt>
      <trkpt lat="40.146389901638031005859375" lon="-0.82040785811841487884521484375">
        <ele>982.79998779296875</ele>
        <time>2022-05-06T10:47:47.000Z</time>
      </trkpt>
      <trkpt lat="40.14641395770013332366943359375" lon="-0.82043602131307125091552734375">
        <ele>982.79998779296875</ele>
        <time>2022-05-06T10:47:49.000Z</time>
      </trkpt>
      <trkpt lat="40.14645921997725963592529296875" lon="-0.82049687393009662628173828125">
        <ele>982.5999755859375</ele>
        <time>2022-05-06T10:47:51.000Z</time>
      </trkpt>
      <trkpt lat="40.1465355791151523590087890625" lon="-0.82059569656848907470703125">
        <ele>982.4000244140625</ele>
        <time>2022-05-06T10:47:53.000Z</time>
      </trkpt>
      <trkpt lat="40.146563909947872161865234375" lon="-0.82062863744795322418212890625">
        <ele>982.4000244140625</ele>
        <time>2022-05-06T10:47:54.000Z</time>
      </trkpt>
      <trkpt lat="40.146563909947872161865234375" lon="-0.82062863744795322418212890625">
        <ele>982.4000244140625</ele>
        <time>2022-05-06T10:47:55.000Z</time>
      </trkpt>
      <trkpt lat="40.1466187275946140289306640625" lon="-0.82069627940654754638671875">
        <ele>982.5999755859375</ele>
        <time>2022-05-06T10:47:57.000Z</time>
      </trkpt>
      <trkpt lat="40.14668938703835010528564453125" lon="-0.82080013118684291839599609375">
        <ele>982.5999755859375</ele>
        <time>2022-05-06T10:47:59.000Z</time>
      </trkpt>
      <trkpt lat="40.14671050943434238433837890625" lon="-0.8208298869431018829345703125">
        <ele>982.5999755859375</ele>
        <time>2022-05-06T10:48:01.000Z</time>
      </trkpt>
      <trkpt lat="40.146754346787929534912109375" lon="-0.820879675447940826416015625">
        <ele>982.5999755859375</ele>
        <time>2022-05-06T10:48:03.000Z</time>
      </trkpt>
      <trkpt lat="40.1468265987932682037353515625" lon="-0.82094849087297916412353515625">
        <ele>982.20001220703125</ele>
        <time>2022-05-06T10:48:05.000Z</time>
      </trkpt>
      <trkpt lat="40.14685082249343395233154296875" lon="-0.8209757320582866668701171875">
        <ele>982</ele>
        <time>2022-05-06T10:48:06.000Z</time>
      </trkpt>
      <trkpt lat="40.14685082249343395233154296875" lon="-0.8209757320582866668701171875">
        <ele>982</ele>
        <time>2022-05-06T10:48:07.000Z</time>
      </trkpt>
      <trkpt lat="40.14689792878925800323486328125" lon="-0.8210337348282337188720703125">
        <ele>981.5999755859375</ele>
        <time>2022-05-06T10:48:09.000Z</time>
      </trkpt>
      <trkpt lat="40.14696867205202579498291015625" lon="-0.8211212418973445892333984375">
        <ele>981.20001220703125</ele>
        <time>2022-05-06T10:48:11.000Z</time>
      </trkpt>
      <trkpt lat="40.14699406921863555908203125" lon="-0.82114965654909610748291015625">
        <ele>981</ele>
        <time>2022-05-06T10:48:13.000Z</time>
      </trkpt>
      <trkpt lat="40.147038660943508148193359375" lon="-0.8212057314813137054443359375">
        <ele>980.5999755859375</ele>
        <time>2022-05-06T10:48:15.000Z</time>
      </trkpt>
      <trkpt lat="40.14710529707372188568115234375" lon="-0.82129566930234432220458984375">
        <ele>980.20001220703125</ele>
        <time>2022-05-06T10:48:17.000Z</time>
      </trkpt>
      <trkpt lat="40.14712675474584102630615234375" lon="-0.8213284425437450408935546875">
        <ele>980</ele>
        <time>2022-05-06T10:48:19.000Z</time>
      </trkpt>
      <trkpt lat="40.147179476916790008544921875" lon="-0.82138937897980213165283203125">
        <ele>979.5999755859375</ele>
        <time>2022-05-06T10:48:21.000Z</time>
      </trkpt>
      <trkpt lat="40.14727159403264522552490234375" lon="-0.82147219218313694000244140625">
        <ele>979.20001220703125</ele>
        <time>2022-05-06T10:48:23.000Z</time>
      </trkpt>
      <trkpt lat="40.14730042777955532073974609375" lon="-0.82150722853839397430419921875">
        <ele>979.20001220703125</ele>
        <time>2022-05-06T10:48:25.000Z</time>
      </trkpt>
      <trkpt lat="40.14735977165400981903076171875" lon="-0.82157897762954235076904296875">
        <ele>979</ele>
        <time>2022-05-06T10:48:27.000Z</time>
      </trkpt>
      <trkpt lat="40.14744962565600872039794921875" lon="-0.82169028930366039276123046875">
        <ele>978.5999755859375</ele>
        <time>2022-05-06T10:48:29.000Z</time>
      </trkpt>
      <trkpt lat="40.1474817283451557159423828125" lon="-0.8217301033437252044677734375">
        <ele>978.5999755859375</ele>
        <time>2022-05-06T10:48:31.000Z</time>
      </trkpt>
      <trkpt lat="40.1475494541227817535400390625" lon="-0.82181635312736034393310546875">
        <ele>978.4000244140625</ele>
        <time>2022-05-06T10:48:33.000Z</time>
      </trkpt>
      <trkpt lat="40.1476617716252803802490234375" lon="-0.82195096649229526519775390625">
        <ele>977.5999755859375</ele>
        <time>2022-05-06T10:48:35.000Z</time>
      </trkpt>
      <trkpt lat="40.1477036811411380767822265625" lon="-0.82200041972100734710693359375">
        <ele>977.4000244140625</ele>
        <time>2022-05-06T10:48:36.000Z</time>
      </trkpt>
      <trkpt lat="40.1477036811411380767822265625" lon="-0.82200041972100734710693359375">
        <ele>977.4000244140625</ele>
        <time>2022-05-06T10:48:37.000Z</time>
      </trkpt>
      <trkpt lat="40.1477911882102489471435546875" lon="-0.82210418768227100372314453125">
        <ele>977</ele>
        <time>2022-05-06T10:48:39.000Z</time>
      </trkpt>
      <trkpt lat="40.1479229517281055450439453125" lon="-0.82226478494703769683837890625">
        <ele>976.20001220703125</ele>
        <time>2022-05-06T10:48:41.000Z</time>
      </trkpt>
      <trkpt lat="40.14796678908169269561767578125" lon="-0.82231591455638408660888671875">
        <ele>976.20001220703125</ele>
        <time>2022-05-06T10:48:42.000Z</time>
      </trkpt>
      <trkpt lat="40.14796678908169269561767578125" lon="-0.82231591455638408660888671875">
        <ele>976.20001220703125</ele>
        <time>2022-05-06T10:48:43.000Z</time>
      </trkpt>
      <trkpt lat="40.14805379323661327362060546875" lon="-0.82242052070796489715576171875">
        <ele>976.79998779296875</ele>
        <time>2022-05-06T10:48:44.000Z</time>
      </trkpt>
      <trkpt lat="40.14805379323661327362060546875" lon="-0.82242052070796489715576171875">
        <ele>976.79998779296875</ele>
        <time>2022-05-06T10:48:45.000Z</time>
      </trkpt>
      <trkpt lat="40.1481415517628192901611328125" lon="-0.82251154817640781402587890625">
        <ele>977.20001220703125</ele>
        <time>2022-05-06T10:48:46.000Z</time>
      </trkpt>
      <trkpt lat="40.14818756841123104095458984375" lon="-0.82254541106522083282470703125">
        <ele>977.4000244140625</ele>
        <time>2022-05-06T10:48:47.000Z</time>
      </trkpt>
      <trkpt lat="40.14822947792708873748779296875" lon="-0.8225743286311626434326171875">
        <ele>977.5999755859375</ele>
        <time>2022-05-06T10:48:49.000Z</time>
      </trkpt>
      <trkpt lat="40.14830541796982288360595703125" lon="-0.82264498807489871978759765625">
        <ele>977.79998779296875</ele>
        <time>2022-05-06T10:48:50.000Z</time>
      </trkpt>
      <trkpt lat="40.14830541796982288360595703125" lon="-0.82264498807489871978759765625">
        <ele>977.79998779296875</ele>
        <time>2022-05-06T10:48:51.000Z</time>
      </trkpt>
      <trkpt lat="40.14837934635579586029052734375" lon="-0.8227211795747280120849609375">
        <ele>978.20001220703125</ele>
        <time>2022-05-06T10:48:52.000Z</time>
      </trkpt>
      <trkpt lat="40.148415975272655487060546875" lon="-0.822756551206111907958984375">
        <ele>978.4000244140625</ele>
        <time>2022-05-06T10:48:53.000Z</time>
      </trkpt>
      <trkpt lat="40.14845210127532482147216796875" lon="-0.82279318012297153472900390625">
        <ele>978.5999755859375</ele>
        <time>2022-05-06T10:48:54.000Z</time>
      </trkpt>
      <trkpt lat="40.14845210127532482147216796875" lon="-0.82279318012297153472900390625">
        <ele>978.5999755859375</ele>
        <time>2022-05-06T10:48:55.000Z</time>
      </trkpt>
      <trkpt lat="40.14852267690002918243408203125" lon="-0.8228670246899127960205078125">
        <ele>979</ele>
        <time>2022-05-06T10:48:57.000Z</time>
      </trkpt>
      <trkpt lat="40.14861135743558406829833984375" lon="-0.82297079265117645263671875">
        <ele>979.4000244140625</ele>
        <time>2022-05-06T10:48:59.000Z</time>
      </trkpt>
      <trkpt lat="40.14863415621221065521240234375" lon="-0.82300524227321147918701171875">
        <ele>979.5999755859375</ele>
        <time>2022-05-06T10:49:01.000Z</time>
      </trkpt>
      <trkpt lat="40.1486764848232269287109375" lon="-0.82307129167020320892333984375">
        <ele>979.79998779296875</ele>
        <time>2022-05-06T10:49:03.000Z</time>
      </trkpt>
      <trkpt lat="40.1486974395811557769775390625" lon="-0.8231439627707004547119140625">
        <ele>980</ele>
        <time>2022-05-06T10:49:04.000Z</time>
      </trkpt>
      <trkpt lat="40.148702301084995269775390625" lon="-0.8231768198311328887939453125">
        <ele>980.20001220703125</ele>
        <time>2022-05-06T10:49:05.000Z</time>
      </trkpt>
      <trkpt lat="40.14870640821754932403564453125" lon="-0.82320724613964557647705078125">
        <ele>980.20001220703125</ele>
        <time>2022-05-06T10:49:06.000Z</time>
      </trkpt>
      <trkpt lat="40.14870640821754932403564453125" lon="-0.82320724613964557647705078125">
        <ele>980.20001220703125</ele>
        <time>2022-05-06T10:49:07.000Z</time>
      </trkpt>
      <trkpt lat="40.14869852922856807708740234375" lon="-0.82326851785182952880859375">
        <ele>980.4000244140625</ele>
        <time>2022-05-06T10:49:08.000Z</time>
      </trkpt>
      <trkpt lat="40.14869852922856807708740234375" lon="-0.82326851785182952880859375">
        <ele>980.4000244140625</ele>
        <time>2022-05-06T10:49:09.000Z</time>
      </trkpt>
      <trkpt lat="40.1486652530729770660400390625" lon="-0.8233615569770336151123046875">
        <ele>980.4000244140625</ele>
        <time>2022-05-06T10:49:11.000Z</time>
      </trkpt>
      <trkpt lat="40.14865033328533172607421875" lon="-0.82339583896100521087646484375">
        <ele>980.5999755859375</ele>
        <time>2022-05-06T10:49:12.000Z</time>
      </trkpt>
      <trkpt lat="40.14865033328533172607421875" lon="-0.82339583896100521087646484375">
        <ele>980.5999755859375</ele>
        <time>2022-05-06T10:49:13.000Z</time>
      </trkpt>
      <trkpt lat="40.14863113872706890106201171875" lon="-0.82346993498504161834716796875">
        <ele>980.5999755859375</ele>
        <time>2022-05-06T10:49:15.000Z</time>
      </trkpt>
      <trkpt lat="40.14863046817481517791748046875" lon="-0.8235841803252696990966796875">
        <ele>981</ele>
        <time>2022-05-06T10:49:17.000Z</time>
      </trkpt>
      <trkpt lat="40.1486434601247310638427734375" lon="-0.82361980341374874114990234375">
        <ele>981</ele>
        <time>2022-05-06T10:49:18.000Z</time>
      </trkpt>
      <trkpt lat="40.1486434601247310638427734375" lon="-0.82361980341374874114990234375">
        <ele>981</ele>
        <time>2022-05-06T10:49:19.000Z</time>
      </trkpt>
      <trkpt lat="40.14868612401187419891357421875" lon="-0.82368300296366214752197265625">
        <ele>981.20001220703125</ele>
        <time>2022-05-06T10:49:20.000Z</time>
      </trkpt>
      <trkpt lat="40.14868612401187419891357421875" lon="-0.82368300296366214752197265625">
        <ele>981.20001220703125</ele>
        <time>2022-05-06T10:49:21.000Z</time>
      </trkpt>
      <trkpt lat="40.14877832494676113128662109375" lon="-0.82376279868185520172119140625">
        <ele>981.79998779296875</ele>
        <time>2022-05-06T10:49:23.000Z</time>
      </trkpt>
      <trkpt lat="40.14880883507430553436279296875" lon="-0.82378744147717952728271484375">
        <ele>981.79998779296875</ele>
        <time>2022-05-06T10:49:25.000Z</time>
      </trkpt>
      <trkpt lat="40.1488669216632843017578125" lon="-0.82384192384779453277587890625">
        <ele>982</ele>
        <time>2022-05-06T10:49:27.000Z</time>
      </trkpt>
      <trkpt lat="40.148949064314365386962890625" lon="-0.82393102347850799560546875">
        <ele>982.4000244140625</ele>
        <time>2022-05-06T10:49:29.000Z</time>
      </trkpt>
      <trkpt lat="40.14897127635776996612548828125" lon="-0.82396547310054302215576171875">
        <ele>982.5999755859375</ele>
        <time>2022-05-06T10:49:31.000Z</time>
      </trkpt>
      <trkpt lat="40.14901016838848590850830078125" lon="-0.824036300182342529296875">
        <ele>982.79998779296875</ele>
        <time>2022-05-06T10:49:32.000Z</time>
      </trkpt>
      <trkpt lat="40.14901016838848590850830078125" lon="-0.824036300182342529296875">
        <ele>982.79998779296875</ele>
        <time>2022-05-06T10:49:33.000Z</time>
      </trkpt>
      <trkpt lat="40.14906263910233974456787109375" lon="-0.82413394935429096221923828125">
        <ele>983</ele>
        <time>2022-05-06T10:49:35.000Z</time>
      </trkpt>
      <trkpt lat="40.1490776427090167999267578125" lon="-0.82416043616831302642822265625">
        <ele>983</ele>
        <time>2022-05-06T10:49:37.000Z</time>
      </trkpt>
      <trkpt lat="40.1491054706275463104248046875" lon="-0.8242093026638031005859375">
        <ele>983.20001220703125</ele>
        <time>2022-05-06T10:49:38.000Z</time>
      </trkpt>
      <trkpt lat="40.1491054706275463104248046875" lon="-0.8242093026638031005859375">
        <ele>983.20001220703125</ele>
        <time>2022-05-06T10:49:39.000Z</time>
      </trkpt>
      <trkpt lat="40.14914310537278652191162109375" lon="-0.82426889799535274505615234375">
        <ele>983.4000244140625</ele>
        <time>2022-05-06T10:49:41.000Z</time>
      </trkpt>
      <trkpt lat="40.14915282838046550750732421875" lon="-0.8242802135646343231201171875">
        <ele>983.4000244140625</ele>
        <time>2022-05-06T10:49:43.000Z</time>
      </trkpt>
      <trkpt lat="40.14915970154106616973876953125" lon="-0.82428717054426670074462890625">
        <ele>983.4000244140625</ele>
        <time>2022-05-06T10:49:44.000Z</time>
      </trkpt>
      <trkpt lat="40.14915970154106616973876953125" lon="-0.82428717054426670074462890625">
        <ele>983.4000244140625</ele>
        <time>2022-05-06T10:49:45.000Z</time>
      </trkpt>
      <trkpt lat="40.14909918420016765594482421875" lon="-0.82403319887816905975341796875">
        <ele>983</ele>
        <time>2022-05-06T12:40:08.000Z</time>
      </trkpt>
      <trkpt lat="40.149086527526378631591796875" lon="-0.82400905899703502655029296875">
        <ele>982.79998779296875</ele>
        <time>2022-05-06T12:40:09.000Z</time>
      </trkpt>
      <trkpt lat="40.14907118864357471466064453125" lon="-0.82398273982107639312744140625">
        <ele>982.79998779296875</ele>
        <time>2022-05-06T12:40:10.000Z</time>
      </trkpt>
      <trkpt lat="40.14905744232237339019775390625" lon="-0.82395340315997600555419921875">
        <ele>982.79998779296875</ele>
        <time>2022-05-06T12:40:11.000Z</time>
      </trkpt>
      <trkpt lat="40.14902726747095584869384765625" lon="-0.82388584502041339874267578125">
        <ele>982.5999755859375</ele>
        <time>2022-05-06T12:40:13.000Z</time>
      </trkpt>
      <trkpt lat="40.1489975117146968841552734375" lon="-0.82380353473126888275146484375">
        <ele>982.20001220703125</ele>
        <time>2022-05-06T12:40:15.000Z</time>
      </trkpt>
      <trkpt lat="40.1489794068038463592529296875" lon="-0.8237618766725063323974609375">
        <ele>982</ele>
        <time>2022-05-06T12:40:16.000Z</time>
      </trkpt>
      <trkpt lat="40.14895803295075893402099609375" lon="-0.8237265050411224365234375">
        <ele>981.79998779296875</ele>
        <time>2022-05-06T12:40:17.000Z</time>
      </trkpt>
      <trkpt lat="40.14891411177814006805419921875" lon="-0.8236579410731792449951171875">
        <ele>981.5999755859375</ele>
        <time>2022-05-06T12:40:19.000Z</time>
      </trkpt>
      <trkpt lat="40.14886080287396907806396484375" lon="-0.8235828392207622528076171875">
        <ele>981.4000244140625</ele>
        <time>2022-05-06T12:40:21.000Z</time>
      </trkpt>
      <trkpt lat="40.14881285838782787322998046875" lon="-0.82351536490023136138916015625">
        <ele>981.20001220703125</ele>
        <time>2022-05-06T12:40:23.000Z</time>
      </trkpt>
      <trkpt lat="40.14878771267831325531005859375" lon="-0.82347781397402286529541015625">
        <ele>981</ele>
        <time>2022-05-06T12:40:24.000Z</time>
      </trkpt>
      <trkpt lat="40.1487564481794834136962890625" lon="-0.82344210706651210784912109375">
        <ele>980.79998779296875</ele>
        <time>2022-05-06T12:40:25.000Z</time>
      </trkpt>
      <trkpt lat="40.148681513965129852294921875" lon="-0.8233697712421417236328125">
        <ele>980.5999755859375</ele>
        <time>2022-05-06T12:40:27.000Z</time>
      </trkpt>
      <trkpt lat="40.14863616786897182464599609375" lon="-0.82329022698104381561279296875">
        <ele>980.20001220703125</ele>
        <time>2022-05-06T12:40:29.000Z</time>
      </trkpt>
      <trkpt lat="40.14862124808132648468017578125" lon="-0.82325619645416736602783203125">
        <ele>980.20001220703125</ele>
        <time>2022-05-06T12:40:30.000Z</time>
      </trkpt>
      <trkpt lat="40.148615129292011260986328125" lon="-0.8232375048100948333740234375">
        <ele>980</ele>
        <time>2022-05-06T12:40:31.000Z</time>
      </trkpt>
      <trkpt lat="40.14860448427498340606689453125" lon="-0.82323339767754077911376953125">
        <ele>980</ele>
        <time>2022-05-06T12:40:33.000Z</time>
      </trkpt>
      <trkpt lat="40.14860264025628566741943359375" lon="-0.82323473878204822540283203125">
        <ele>980</ele>
        <time>2022-05-06T12:40:34.000Z</time>
      </trkpt>
      <trkpt lat="40.14861169271171092987060546875" lon="-0.8231966011226177215576171875">
        <ele>980</ele>
        <time>2022-05-06T12:41:14.000Z</time>
      </trkpt>
      <trkpt lat="40.148619152605533599853515625" lon="-0.8231714554131031036376953125">
        <ele>980</ele>
        <time>2022-05-06T12:41:15.000Z</time>
      </trkpt>
      <trkpt lat="40.14863566495478153228759765625" lon="-0.8231149613857269287109375">
        <ele>979.79998779296875</ele>
        <time>2022-05-06T12:41:17.000Z</time>
      </trkpt>
      <trkpt lat="40.14865896664559841156005859375" lon="-0.82305452786386013031005859375">
        <ele>979.79998779296875</ele>
        <time>2022-05-06T12:41:19.000Z</time>
      </trkpt>
      <trkpt lat="40.14867036603391170501708984375" lon="-0.82297557033598423004150390625">
        <ele>979.5999755859375</ele>
        <time>2022-05-06T12:41:21.000Z</time>
      </trkpt>
      <trkpt lat="40.14863683842122554779052734375" lon="-0.82287984900176525115966796875">
        <ele>979.20001220703125</ele>
        <time>2022-05-06T12:41:23.000Z</time>
      </trkpt>
      <trkpt lat="40.1485321484506130218505859375" lon="-0.8227694593369960784912109375">
        <ele>978.79998779296875</ele>
        <time>2022-05-06T12:41:25.000Z</time>
      </trkpt>
      <trkpt lat="40.14847238548099994659423828125" lon="-0.82271338440477848052978515625">
        <ele>978.4000244140625</ele>
        <time>2022-05-06T12:41:26.000Z</time>
      </trkpt>
      <trkpt lat="40.14841253869235515594482421875" lon="-0.82265923731029033660888671875">
        <ele>978.20001220703125</ele>
        <time>2022-05-06T12:41:27.000Z</time>
      </trkpt>
      <trkpt lat="40.1483504287898540496826171875" lon="-0.82260324619710445404052734375">
        <ele>978</ele>
        <time>2022-05-06T12:41:28.000Z</time>
      </trkpt>
      <trkpt lat="40.14828764833509922027587890625" lon="-0.82254490815103054046630859375">
        <ele>977.5999755859375</ele>
        <time>2022-05-06T12:41:29.000Z</time>
      </trkpt>
      <trkpt lat="40.14816376380622386932373046875" lon="-0.8224221132695674896240234375">
        <ele>977</ele>
        <time>2022-05-06T12:41:31.000Z</time>
      </trkpt>
      <trkpt lat="40.148106180131435394287109375" lon="-0.8223585784435272216796875">
        <ele>976.79998779296875</ele>
        <time>2022-05-06T12:41:32.000Z</time>
      </trkpt>
      <trkpt lat="40.148051194846630096435546875" lon="-0.8222967199981212615966796875">
        <ele>976.4000244140625</ele>
        <time>2022-05-06T12:41:33.000Z</time>
      </trkpt>
      <trkpt lat="40.147947259247303009033203125" lon="-0.82218767143785953521728515625">
        <ele>976</ele>
        <time>2022-05-06T12:41:35.000Z</time>
      </trkpt>
      <trkpt lat="40.14784877188503742218017578125" lon="-0.82208004780113697052001953125">
        <ele>976.5999755859375</ele>
        <time>2022-05-06T12:41:37.000Z</time>
      </trkpt>
      <trkpt lat="40.1477566547691822052001953125" lon="-0.821974016726016998291015625">
        <ele>977</ele>
        <time>2022-05-06T12:41:39.000Z</time>
      </trkpt>
      <trkpt lat="40.1476651243865489959716796875" lon="-0.821876786649227142333984375">
        <ele>977.5999755859375</ele>
        <time>2022-05-06T12:41:41.000Z</time>
      </trkpt>
      <trkpt lat="40.1475843228399753570556640625" lon="-0.82178165204823017120361328125">
        <ele>978</ele>
        <time>2022-05-06T12:41:43.000Z</time>
      </trkpt>
      <trkpt lat="40.1475108973681926727294921875" lon="-0.8216933906078338623046875">
        <ele>978.4000244140625</ele>
        <time>2022-05-06T12:41:45.000Z</time>
      </trkpt>
      <trkpt lat="40.1474753580987453460693359375" lon="-0.82165089435875415802001953125">
        <ele>978.4000244140625</ele>
        <time>2022-05-06T12:41:46.000Z</time>
      </trkpt>
      <trkpt lat="40.14744375832378864288330078125" lon="-0.821609236299991607666015625">
        <ele>978.5999755859375</ele>
        <time>2022-05-06T12:41:47.000Z</time>
      </trkpt>
      <trkpt lat="40.147383995354175567626953125" lon="-0.821530781686305999755859375">
        <ele>978.5999755859375</ele>
        <time>2022-05-06T12:41:49.000Z</time>
      </trkpt>
      <trkpt lat="40.14731920324265956878662109375" lon="-0.821460373699665069580078125">
        <ele>979</ele>
        <time>2022-05-06T12:41:51.000Z</time>
      </trkpt>
      <trkpt lat="40.1472889445722103118896484375" lon="-0.82142491824924945831298828125">
        <ele>979</ele>
        <time>2022-05-06T12:41:52.000Z</time>
      </trkpt>
      <trkpt lat="40.14725969173014163970947265625" lon="-0.8213897980749607086181640625">
        <ele>979</ele>
        <time>2022-05-06T12:41:53.000Z</time>
      </trkpt>
      <trkpt lat="40.14719682745635509490966796875" lon="-0.82132299430668354034423828125">
        <ele>979.5999755859375</ele>
        <time>2022-05-06T12:41:55.000Z</time>
      </trkpt>
      <trkpt lat="40.14713748358190059661865234375" lon="-0.821257866919040679931640625">
        <ele>980</ele>
        <time>2022-05-06T12:41:57.000Z</time>
      </trkpt>
      <trkpt lat="40.1471125893294811248779296875" lon="-0.82122601568698883056640625">
        <ele>980.20001220703125</ele>
        <time>2022-05-06T12:41:58.000Z</time>
      </trkpt>
      <trkpt lat="40.147087611258029937744140625" lon="-0.8211946673691272735595703125">
        <ele>980.4000244140625</ele>
        <time>2022-05-06T12:41:59.000Z</time>
      </trkpt>
      <trkpt lat="40.14703857712447643280029296875" lon="-0.8211314678192138671875">
        <ele>980.79998779296875</ele>
        <time>2022-05-06T12:42:01.000Z</time>
      </trkpt>
      <trkpt lat="40.14699138700962066650390625" lon="-0.82106650806963443756103515625">
        <ele>981</ele>
        <time>2022-05-06T12:42:03.000Z</time>
      </trkpt>
      <trkpt lat="40.1469358988106250762939453125" lon="-0.82100297324359416961669921875">
        <ele>981.4000244140625</ele>
        <time>2022-05-06T12:42:05.000Z</time>
      </trkpt>
      <trkpt lat="40.14690597541630268096923828125" lon="-0.82097045145928859710693359375">
        <ele>981.79998779296875</ele>
        <time>2022-05-06T12:42:06.000Z</time>
      </trkpt>
      <trkpt lat="40.146875716745853424072265625" lon="-0.8209368400275707244873046875">
        <ele>982</ele>
        <time>2022-05-06T12:42:07.000Z</time>
      </trkpt>
      <trkpt lat="40.14681410975754261016845703125" lon="-0.82086131907999515533447265625">
        <ele>982.4000244140625</ele>
        <time>2022-05-06T12:42:09.000Z</time>
      </trkpt>
      <trkpt lat="40.14675241895020008087158203125" lon="-0.820785462856292724609375">
        <ele>982.4000244140625</ele>
        <time>2022-05-06T12:42:11.000Z</time>
      </trkpt>
      <trkpt lat="40.146689303219318389892578125" lon="-0.82070759497582912445068359375">
        <ele>982.4000244140625</ele>
        <time>2022-05-06T12:42:13.000Z</time>
      </trkpt>
      <trkpt lat="40.146625600755214691162109375" lon="-0.82062813453376293182373046875">
        <ele>982.4000244140625</ele>
        <time>2022-05-06T12:42:15.000Z</time>
      </trkpt>
      <trkpt lat="40.1465924084186553955078125" lon="-0.82058823667466640472412109375">
        <ele>982.4000244140625</ele>
        <time>2022-05-06T12:42:16.000Z</time>
      </trkpt>
      <trkpt lat="40.14655888080596923828125" lon="-0.82054741680622100830078125">
        <ele>982.4000244140625</ele>
        <time>2022-05-06T12:42:17.000Z</time>
      </trkpt>
      <trkpt lat="40.1464976929128170013427734375" lon="-0.82046535797417163848876953125">
        <ele>982.5999755859375</ele>
        <time>2022-05-06T12:42:19.000Z</time>
      </trkpt>
      <trkpt lat="40.14643407426774501800537109375" lon="-0.8203832991421222686767578125">
        <ele>982.79998779296875</ele>
        <time>2022-05-06T12:42:21.000Z</time>
      </trkpt>
      <trkpt lat="40.14636819250881671905517578125" lon="-0.82029168494045734405517578125">
        <ele>982.20001220703125</ele>
        <time>2022-05-06T12:42:23.000Z</time>
      </trkpt>
      <trkpt lat="40.1462958566844463348388671875" lon="-0.82019663415849208831787109375">
        <ele>981.79998779296875</ele>
        <time>2022-05-06T12:42:25.000Z</time>
      </trkpt>
      <trkpt lat="40.14625671319663524627685546875" lon="-0.820148102939128875732421875">
        <ele>981.5999755859375</ele>
        <time>2022-05-06T12:42:26.000Z</time>
      </trkpt>
      <trkpt lat="40.1462153904139995574951171875" lon="-0.8200966380536556243896484375">
        <ele>981.5999755859375</ele>
        <time>2022-05-06T12:42:27.000Z</time>
      </trkpt>
      <trkpt lat="40.1461278833448886871337890625" lon="-0.81998524256050586700439453125">
        <ele>981.4000244140625</ele>
        <time>2022-05-06T12:42:29.000Z</time>
      </trkpt>
      <trkpt lat="40.146081447601318359375" lon="-0.81992514431476593017578125">
        <ele>981.20001220703125</ele>
        <time>2022-05-06T12:42:30.000Z</time>
      </trkpt>
      <trkpt lat="40.1460340060293674468994140625" lon="-0.81986152566969394683837890625">
        <ele>980.79998779296875</ele>
        <time>2022-05-06T12:42:31.000Z</time>
      </trkpt>
      <trkpt lat="40.14593853615224361419677734375" lon="-0.8197228051722049713134765625">
        <ele>979.5999755859375</ele>
        <time>2022-05-06T12:42:33.000Z</time>
      </trkpt>
      <trkpt lat="40.14583962969481945037841796875" lon="-0.8195672370493412017822265625">
        <ele>979.4000244140625</ele>
        <time>2022-05-06T12:42:35.000Z</time>
      </trkpt>
      <trkpt lat="40.14578665606677532196044921875" lon="-0.81948459148406982421875">
        <ele>979.4000244140625</ele>
        <time>2022-05-06T12:42:36.000Z</time>
      </trkpt>
      <trkpt lat="40.1457314193248748779296875" lon="-0.81939884461462497711181640625">
        <ele>979.4000244140625</ele>
        <time>2022-05-06T12:42:37.000Z</time>
      </trkpt>
      <trkpt lat="40.145675428211688995361328125" lon="-0.81930915825068950653076171875">
        <ele>979</ele>
        <time>2022-05-06T12:42:38.000Z</time>
      </trkpt>
      <trkpt lat="40.14561784453690052032470703125" lon="-0.81921796314418315887451171875">
        <ele>978.79998779296875</ele>
        <time>2022-05-06T12:42:39.000Z</time>
      </trkpt>
      <trkpt lat="40.14549396000802516937255859375" lon="-0.81903473474085330963134765625">
        <ele>978.4000244140625</ele>
        <time>2022-05-06T12:42:41.000Z</time>
      </trkpt>
      <trkpt lat="40.1454295031726360321044921875" lon="-0.81894152797758579254150390625">
        <ele>978</ele>
        <time>2022-05-06T12:42:42.000Z</time>
      </trkpt>
      <trkpt lat="40.14536655507981777191162109375" lon="-0.81884421408176422119140625">
        <ele>977.5999755859375</ele>
        <time>2022-05-06T12:42:43.000Z</time>
      </trkpt>
      <trkpt lat="40.1452995836734771728515625" lon="-0.81874438561499118804931640625">
        <ele>977.4000244140625</ele>
        <time>2022-05-06T12:42:44.000Z</time>
      </trkpt>
      <trkpt lat="40.1452310197055339813232421875" lon="-0.81864346750080585479736328125">
        <ele>977</ele>
        <time>2022-05-06T12:42:45.000Z</time>
      </trkpt>
      <trkpt lat="40.145163796842098236083984375" lon="-0.81854321993887424468994140625">
        <ele>976.5999755859375</ele>
        <time>2022-05-06T12:42:46.000Z</time>
      </trkpt>
      <trkpt lat="40.14510001055896282196044921875" lon="-0.81844481639564037322998046875">
        <ele>976.20001220703125</ele>
        <time>2022-05-06T12:42:47.000Z</time>
      </trkpt>
      <trkpt lat="40.14503932558000087738037109375" lon="-0.81835345365107059478759765625">
        <ele>976</ele>
        <time>2022-05-06T12:42:48.000Z</time>
      </trkpt>
      <trkpt lat="40.1449795626103878021240234375" lon="-0.8182708919048309326171875">
        <ele>975.5999755859375</ele>
        <time>2022-05-06T12:42:49.000Z</time>
      </trkpt>
      <trkpt lat="40.14485425315797328948974609375" lon="-0.8181211911141872406005859375">
        <ele>975</ele>
        <time>2022-05-06T12:42:51.000Z</time>
      </trkpt>
      <trkpt lat="40.14472869224846363067626953125" lon="-0.81798481754958629608154296875">
        <ele>974.20001220703125</ele>
        <time>2022-05-06T12:42:53.000Z</time>
      </trkpt>
      <trkpt lat="40.144604556262493133544921875" lon="-0.81786043010652065277099609375">
        <ele>973.79998779296875</ele>
        <time>2022-05-06T12:42:55.000Z</time>
      </trkpt>
      <trkpt lat="40.1444924063980579376220703125" lon="-0.81774978898465633392333984375">
        <ele>974</ele>
        <time>2022-05-06T12:42:57.000Z</time>
      </trkpt>
      <trkpt lat="40.14444035477936267852783203125" lon="-0.817697905004024505615234375">
        <ele>974.20001220703125</ele>
        <time>2022-05-06T12:42:58.000Z</time>
      </trkpt>
      <trkpt lat="40.14439207501709461212158203125" lon="-0.81764870323240756988525390625">
        <ele>974.20001220703125</ele>
        <time>2022-05-06T12:42:59.000Z</time>
      </trkpt>
      <trkpt lat="40.14430037699639797210693359375" lon="-0.817559771239757537841796875">
        <ele>974.5999755859375</ele>
        <time>2022-05-06T12:43:01.000Z</time>
      </trkpt>
      <trkpt lat="40.1442218385636806488037109375" lon="-0.81748190335929393768310546875">
        <ele>974.79998779296875</ele>
        <time>2022-05-06T12:43:03.000Z</time>
      </trkpt>
      <trkpt lat="40.1441889815032482147216796875" lon="-0.8174482919275760650634765625">
        <ele>974.79998779296875</ele>
        <time>2022-05-06T12:43:04.000Z</time>
      </trkpt>
      <trkpt lat="40.14415721409022808074951171875" lon="-0.81741903908550739288330078125">
        <ele>974.79998779296875</ele>
        <time>2022-05-06T12:43:05.000Z</time>
      </trkpt>
      <trkpt lat="40.14409351162612438201904296875" lon="-0.81735500134527683258056640625">
        <ele>975</ele>
        <time>2022-05-06T12:43:07.000Z</time>
      </trkpt>
      <trkpt lat="40.14403198845684528350830078125" lon="-0.81728719174861907958984375">
        <ele>975.20001220703125</ele>
        <time>2022-05-06T12:43:09.000Z</time>
      </trkpt>
      <trkpt lat="40.14397197403013706207275390625" lon="-0.81722524948418140411376953125">
        <ele>975.20001220703125</ele>
        <time>2022-05-06T12:43:11.000Z</time>
      </trkpt>
      <trkpt lat="40.143911205232143402099609375" lon="-0.8171743713319301605224609375">
        <ele>975.4000244140625</ele>
        <time>2022-05-06T12:43:13.000Z</time>
      </trkpt>
      <trkpt lat="40.143844820559024810791015625" lon="-0.8171478845179080963134765625">
        <ele>975.5999755859375</ele>
        <time>2022-05-06T12:43:15.000Z</time>
      </trkpt>
      <trkpt lat="40.1438064314424991607666015625" lon="-0.8171443641185760498046875">
        <ele>976</ele>
        <time>2022-05-06T12:43:16.000Z</time>
      </trkpt>
      <trkpt lat="40.1437698863446712493896484375" lon="-0.81713698804378509521484375">
        <ele>976.20001220703125</ele>
        <time>2022-05-06T12:43:17.000Z</time>
      </trkpt>
      <trkpt lat="40.14370408840477466583251953125" lon="-0.81710136495530605316162109375">
        <ele>976.79998779296875</ele>
        <time>2022-05-06T12:43:19.000Z</time>
      </trkpt>
      <trkpt lat="40.14367391355335712432861328125" lon="-0.8170828409492969512939453125">
        <ele>977.20001220703125</ele>
        <time>2022-05-06T12:43:20.000Z</time>
      </trkpt>
      <trkpt lat="40.14364306814968585968017578125" lon="-0.81707169301807880401611328125">
        <ele>977.4000244140625</ele>
        <time>2022-05-06T12:43:21.000Z</time>
      </trkpt>
      <trkpt lat="40.14361322857439517974853515625" lon="-0.8170620538294315338134765625">
        <ele>977.79998779296875</ele>
        <time>2022-05-06T12:43:22.000Z</time>
      </trkpt>
      <trkpt lat="40.14358900487422943115234375" lon="-0.81705174408853054046630859375">
        <ele>978</ele>
        <time>2022-05-06T12:43:23.000Z</time>
      </trkpt>
      <trkpt lat="40.14356662519276142120361328125" lon="-0.81704084761440753936767578125">
        <ele>978.20001220703125</ele>
        <time>2022-05-06T12:43:24.000Z</time>
      </trkpt>
      <trkpt lat="40.1435462571680545806884765625" lon="-0.8170322142541408538818359375">
        <ele>978.4000244140625</ele>
        <time>2022-05-06T12:43:25.000Z</time>
      </trkpt>
      <trkpt lat="40.14352538622915744781494140625" lon="-0.81702441908419132232666015625">
        <ele>978.5999755859375</ele>
        <time>2022-05-06T12:43:26.000Z</time>
      </trkpt>
      <trkpt lat="40.1435013301670551300048828125" lon="-0.81701494753360748291015625">
        <ele>978.79998779296875</ele>
        <time>2022-05-06T12:43:27.000Z</time>
      </trkpt>
      <trkpt lat="40.143447853624820709228515625" lon="-0.81700212322175502777099609375">
        <ele>979.20001220703125</ele>
        <time>2022-05-06T12:43:29.000Z</time>
      </trkpt>
      <trkpt lat="40.1433940418064594268798828125" lon="-0.8169993571937084197998046875">
        <ele>979.79998779296875</ele>
        <time>2022-05-06T12:43:31.000Z</time>
      </trkpt>
      <trkpt lat="40.1433732546865940093994140625" lon="-0.81700648181140422821044921875">
        <ele>979.79998779296875</ele>
        <time>2022-05-06T12:43:32.000Z</time>
      </trkpt>
      <trkpt lat="40.1433487795293331146240234375" lon="-0.8170174621045589447021484375">
        <ele>980</ele>
        <time>2022-05-06T12:43:33.000Z</time>
      </trkpt>
      <trkpt lat="40.14329756610095500946044921875" lon="-0.81704822368919849395751953125">
        <ele>980.4000244140625</ele>
        <time>2022-05-06T12:43:35.000Z</time>
      </trkpt>
      <trkpt lat="40.14324777759611606597900390625" lon="-0.81708795391023159027099609375">
        <ele>980.79998779296875</ele>
        <time>2022-05-06T12:43:37.000Z</time>
      </trkpt>
      <trkpt lat="40.14319203794002532958984375" lon="-0.81712868995964527130126953125">
        <ele>981.20001220703125</ele>
        <time>2022-05-06T12:43:39.000Z</time>
      </trkpt>
      <trkpt lat="40.143143422901630401611328125" lon="-0.81717185676097869873046875">
        <ele>981.4000244140625</ele>
        <time>2022-05-06T12:43:41.000Z</time>
      </trkpt>
      <trkpt lat="40.1431174390017986297607421875" lon="-0.8171921409666538238525390625">
        <ele>981.5999755859375</ele>
        <time>2022-05-06T12:43:42.000Z</time>
      </trkpt>
      <trkpt lat="40.14309321530163288116455078125" lon="-0.81721208989620208740234375">
        <ele>981.79998779296875</ele>
        <time>2022-05-06T12:43:43.000Z</time>
      </trkpt>
      <trkpt lat="40.1430453546345233917236328125" lon="-0.81725341267883777618408203125">
        <ele>982.20001220703125</ele>
        <time>2022-05-06T12:43:45.000Z</time>
      </trkpt>
      <trkpt lat="40.14299766160547733306884765625" lon="-0.8172923885285854339599609375">
        <ele>982.5999755859375</ele>
        <time>2022-05-06T12:43:47.000Z</time>
      </trkpt>
      <trkpt lat="40.14294326305389404296875" lon="-0.81732876598834991455078125">
        <ele>983.20001220703125</ele>
        <time>2022-05-06T12:43:49.000Z</time>
      </trkpt>
      <trkpt lat="40.14288718812167644500732421875" lon="-0.8173696696758270263671875">
        <ele>983.20001220703125</ele>
        <time>2022-05-06T12:43:51.000Z</time>
      </trkpt>
      <trkpt lat="40.1428317837417125701904296875" lon="-0.8174104057252407073974609375">
        <ele>983.4000244140625</ele>
        <time>2022-05-06T12:43:53.000Z</time>
      </trkpt>
      <trkpt lat="40.14278291724622249603271484375" lon="-0.81744083203375339508056640625">
        <ele>983.4000244140625</ele>
        <time>2022-05-06T12:43:55.000Z</time>
      </trkpt>
      <trkpt lat="40.14273799024522304534912109375" lon="-0.81746748648583889007568359375">
        <ele>983.5999755859375</ele>
        <time>2022-05-06T12:43:57.000Z</time>
      </trkpt>
      <trkpt lat="40.14269121922552585601806640625" lon="-0.8174932189285755157470703125">
        <ele>983.5999755859375</ele>
        <time>2022-05-06T12:43:59.000Z</time>
      </trkpt>
      <trkpt lat="40.1426467113196849822998046875" lon="-0.81752012483775615692138671875">
        <ele>983.79998779296875</ele>
        <time>2022-05-06T12:44:01.000Z</time>
      </trkpt>
      <trkpt lat="40.14259885065257549285888671875" lon="-0.81754962913691997528076171875">
        <ele>983.79998779296875</ele>
        <time>2022-05-06T12:44:03.000Z</time>
      </trkpt>
      <trkpt lat="40.1425494812428951263427734375" lon="-0.81757863052189350128173828125">
        <ele>984.20001220703125</ele>
        <time>2022-05-06T12:44:05.000Z</time>
      </trkpt>
      <trkpt lat="40.14252156950533390045166015625" lon="-0.8175927959382534027099609375">
        <ele>984.20001220703125</ele>
        <time>2022-05-06T12:44:06.000Z</time>
      </trkpt>
      <trkpt lat="40.1424898020923137664794921875" lon="-0.81760243512690067291259765625">
        <ele>984.4000244140625</ele>
        <time>2022-05-06T12:44:07.000Z</time>
      </trkpt>
      <trkpt lat="40.1424287818372249603271484375" lon="-0.81763026304543018341064453125">
        <ele>984.79998779296875</ele>
        <time>2022-05-06T12:44:09.000Z</time>
      </trkpt>
      <trkpt lat="40.14240103773772716522216796875" lon="-0.8176437579095363616943359375">
        <ele>985</ele>
        <time>2022-05-06T12:44:10.000Z</time>
      </trkpt>
      <trkpt lat="40.1423758082091808319091796875" lon="-0.8176568336784839630126953125">
        <ele>985.20001220703125</ele>
        <time>2022-05-06T12:44:11.000Z</time>
      </trkpt>
      <trkpt lat="40.14232836663722991943359375" lon="-0.8176806382834911346435546875">
        <ele>985.4000244140625</ele>
        <time>2022-05-06T12:44:13.000Z</time>
      </trkpt>
      <trkpt lat="40.14230498112738132476806640625" lon="-0.817695558071136474609375">
        <ele>985.4000244140625</ele>
        <time>2022-05-06T12:44:14.000Z</time>
      </trkpt>
      <trkpt lat="40.14228201471269130706787109375" lon="-0.81771156750619411468505859375">
        <ele>985.5999755859375</ele>
        <time>2022-05-06T12:44:15.000Z</time>
      </trkpt>
      <trkpt lat="40.1422433741390705108642578125" lon="-0.8177369646728038787841796875">
        <ele>985.79998779296875</ele>
        <time>2022-05-06T12:44:17.000Z</time>
      </trkpt>
      <trkpt lat="40.1422001235187053680419921875" lon="-0.81775984726846218109130859375">
        <ele>986</ele>
        <time>2022-05-06T12:44:19.000Z</time>
      </trkpt>
      <trkpt lat="40.14215092174708843231201171875" lon="-0.8177869208157062530517578125">
        <ele>986.20001220703125</ele>
        <time>2022-05-06T12:44:21.000Z</time>
      </trkpt>
      <trkpt lat="40.14212879352271556854248046875" lon="-0.81780125387012958526611328125">
        <ele>986.4000244140625</ele>
        <time>2022-05-06T12:44:22.000Z</time>
      </trkpt>
      <trkpt lat="40.1421082578599452972412109375" lon="-0.81781114451587200164794921875">
        <ele>986.4000244140625</ele>
        <time>2022-05-06T12:44:23.000Z</time>
      </trkpt>
      <trkpt lat="40.142087303102016448974609375" lon="-0.8178170956671237945556640625">
        <ele>986.4000244140625</ele>
        <time>2022-05-06T12:44:24.000Z</time>
      </trkpt>
      <trkpt lat="40.14206693507730960845947265625" lon="-0.81782606430351734161376953125">
        <ele>986.5999755859375</ele>
        <time>2022-05-06T12:44:25.000Z</time>
      </trkpt>
      <trkpt lat="40.14202334918081760406494140625" lon="-0.8178522996604442596435546875">
        <ele>986.5999755859375</ele>
        <time>2022-05-06T12:44:27.000Z</time>
      </trkpt>
      <trkpt lat="40.14197297394275665283203125" lon="-0.81788473762571811676025390625">
        <ele>986.4000244140625</ele>
        <time>2022-05-06T12:44:29.000Z</time>
      </trkpt>
      <trkpt lat="40.141949169337749481201171875" lon="-0.8179032616317272186279296875">
        <ele>986.4000244140625</ele>
        <time>2022-05-06T12:44:30.000Z</time>
      </trkpt>
      <trkpt lat="40.141926705837249755859375" lon="-0.817921869456768035888671875">
        <ele>986.4000244140625</ele>
        <time>2022-05-06T12:44:31.000Z</time>
      </trkpt>
      <trkpt lat="40.141884796321392059326171875" lon="-0.81796604208648204803466796875">
        <ele>986.4000244140625</ele>
        <time>2022-05-06T12:44:33.000Z</time>
      </trkpt>
      <trkpt lat="40.14184146188199520111083984375" lon="-0.81801566295325756072998046875">
        <ele>986.20001220703125</ele>
        <time>2022-05-06T12:44:35.000Z</time>
      </trkpt>
      <trkpt lat="40.141791589558124542236328125" lon="-0.81805723719298839569091796875">
        <ele>986.20001220703125</ele>
        <time>2022-05-06T12:44:37.000Z</time>
      </trkpt>
      <trkpt lat="40.14176418073475360870361328125" lon="-0.8180772699415683746337890625">
        <ele>986.20001220703125</ele>
        <time>2022-05-06T12:44:38.000Z</time>
      </trkpt>
      <trkpt lat="40.14173786155879497528076171875" lon="-0.81809914670884609222412109375">
        <ele>986.20001220703125</ele>
        <time>2022-05-06T12:44:39.000Z</time>
      </trkpt>
      <trkpt lat="40.14168589375913143157958984375" lon="-0.81814474426209926605224609375">
        <ele>986.20001220703125</ele>
        <time>2022-05-06T12:44:41.000Z</time>
      </trkpt>
      <trkpt lat="40.14163023792207241058349609375" lon="-0.81818648613989353179931640625">
        <ele>986.4000244140625</ele>
        <time>2022-05-06T12:44:43.000Z</time>
      </trkpt>
      <trkpt lat="40.14157072640955448150634765625" lon="-0.818222947418689727783203125">
        <ele>986.5999755859375</ele>
        <time>2022-05-06T12:44:45.000Z</time>
      </trkpt>
      <trkpt lat="40.141540803015232086181640625" lon="-0.81823694519698619842529296875">
        <ele>986.5999755859375</ele>
        <time>2022-05-06T12:44:46.000Z</time>
      </trkpt>
      <trkpt lat="40.14150870032608509063720703125" lon="-0.81824733875691890716552734375">
        <ele>986.5999755859375</ele>
        <time>2022-05-06T12:44:47.000Z</time>
      </trkpt>
      <trkpt lat="40.1414400525391101837158203125" lon="-0.8182573132216930389404296875">
        <ele>987</ele>
        <time>2022-05-06T12:44:49.000Z</time>
      </trkpt>
      <trkpt lat="40.141374506056308746337890625" lon="-0.818257816135883331298828125">
        <ele>987.20001220703125</ele>
        <time>2022-05-06T12:44:51.000Z</time>
      </trkpt>
      <trkpt lat="40.14134257100522518157958984375" lon="-0.81825639121234416961669921875">
        <ele>987.20001220703125</ele>
        <time>2022-05-06T12:44:52.000Z</time>
      </trkpt>
      <trkpt lat="40.141310133039951324462890625" lon="-0.818254463374614715576171875">
        <ele>987.4000244140625</ele>
        <time>2022-05-06T12:44:53.000Z</time>
      </trkpt>
      <trkpt lat="40.14124584384262561798095703125" lon="-0.818249098956584930419921875">
        <ele>987.5999755859375</ele>
        <time>2022-05-06T12:44:55.000Z</time>
      </trkpt>
      <trkpt lat="40.14118012972176074981689453125" lon="-0.81824448890984058380126953125">
        <ele>988.20001220703125</ele>
        <time>2022-05-06T12:44:57.000Z</time>
      </trkpt>
      <trkpt lat="40.14111491851508617401123046875" lon="-0.81823895685374736785888671875">
        <ele>988.5999755859375</ele>
        <time>2022-05-06T12:44:59.000Z</time>
      </trkpt>
      <trkpt lat="40.1410551555454730987548828125" lon="-0.81823962740600109100341796875">
        <ele>988.79998779296875</ele>
        <time>2022-05-06T12:45:01.000Z</time>
      </trkpt>
      <trkpt lat="40.1410286687314510345458984375" lon="-0.81824214197695255279541015625">
        <ele>989</ele>
        <time>2022-05-06T12:45:02.000Z</time>
      </trkpt>
      <trkpt lat="40.14100377447903156280517578125" lon="-0.8182479254901409149169921875">
        <ele>989</ele>
        <time>2022-05-06T12:45:03.000Z</time>
      </trkpt>
      <trkpt lat="40.1409803889691829681396484375" lon="-0.8182542957365512847900390625">
        <ele>989.20001220703125</ele>
        <time>2022-05-06T12:45:04.000Z</time>
      </trkpt>
      <trkpt lat="40.14095750637352466583251953125" lon="-0.81826108507812023162841796875">
        <ele>989.20001220703125</ele>
        <time>2022-05-06T12:45:05.000Z</time>
      </trkpt>
      <trkpt lat="40.1409126631915569305419921875" lon="-0.8182915113866329193115234375">
        <ele>989.4000244140625</ele>
        <time>2022-05-06T12:45:07.000Z</time>
      </trkpt>
      <trkpt lat="40.14089480973780155181884765625" lon="-0.8183112926781177520751953125">
        <ele>989.5999755859375</ele>
        <time>2022-05-06T12:45:08.000Z</time>
      </trkpt>
      <trkpt lat="40.140878967940807342529296875" lon="-0.81833702512085437774658203125">
        <ele>989.5999755859375</ele>
        <time>2022-05-06T12:45:09.000Z</time>
      </trkpt>
      <trkpt lat="40.14085742644965648651123046875" lon="-0.8184128813445568084716796875">
        <ele>989.5999755859375</ele>
        <time>2022-05-06T12:45:11.000Z</time>
      </trkpt>
      <trkpt lat="40.14084602706134319305419921875" lon="-0.81846074201166629791259765625">
        <ele>989.5999755859375</ele>
        <time>2022-05-06T12:45:12.000Z</time>
      </trkpt>
      <trkpt lat="40.140832029283046722412109375" lon="-0.81851840950548648834228515625">
        <ele>989.5999755859375</ele>
        <time>2022-05-06T12:45:13.000Z</time>
      </trkpt>
      <trkpt lat="40.14080629684031009674072265625" lon="-0.81864648498594760894775390625">
        <ele>989.4000244140625</ele>
        <time>2022-05-06T12:45:15.000Z</time>
      </trkpt>
      <trkpt lat="40.1407854259014129638671875" lon="-0.81870633177459239959716796875">
        <ele>989.4000244140625</ele>
        <time>2022-05-06T12:45:16.000Z</time>
      </trkpt>
      <trkpt lat="40.1407559216022491455078125" lon="-0.81875880248844623565673828125">
        <ele>989.4000244140625</ele>
        <time>2022-05-06T12:45:17.000Z</time>
      </trkpt>
      <trkpt lat="40.1407215557992458343505859375" lon="-0.818803645670413970947265625">
        <ele>989.5999755859375</ele>
        <time>2022-05-06T12:45:18.000Z</time>
      </trkpt>
      <trkpt lat="40.14068509452044963836669921875" lon="-0.8188422024250030517578125">
        <ele>989.5999755859375</ele>
        <time>2022-05-06T12:45:19.000Z</time>
      </trkpt>
      <trkpt lat="40.14065022580325603485107421875" lon="-0.8188784122467041015625">
        <ele>989.79998779296875</ele>
        <time>2022-05-06T12:45:20.000Z</time>
      </trkpt>
      <trkpt lat="40.1406186260282993316650390625" lon="-0.81891252659261226654052734375">
        <ele>990</ele>
        <time>2022-05-06T12:45:21.000Z</time>
      </trkpt>
      <trkpt lat="40.1405914686620235443115234375" lon="-0.81894806586205959320068359375">
        <ele>990.20001220703125</ele>
        <time>2022-05-06T12:45:22.000Z</time>
      </trkpt>
      <trkpt lat="40.1405669935047626495361328125" lon="-0.818987376987934112548828125">
        <ele>990.4000244140625</ele>
        <time>2022-05-06T12:45:23.000Z</time>
      </trkpt>
      <trkpt lat="40.1405227370560169219970703125" lon="-0.81907144747674465179443359375">
        <ele>991</ele>
        <time>2022-05-06T12:45:25.000Z</time>
      </trkpt>
      <trkpt lat="40.14048459939658641815185546875" lon="-0.81915660761296749114990234375">
        <ele>991.4000244140625</ele>
        <time>2022-05-06T12:45:27.000Z</time>
      </trkpt>
      <trkpt lat="40.14044771902263164520263671875" lon="-0.81923740915954113006591796875">
        <ele>991.79998779296875</ele>
        <time>2022-05-06T12:45:29.000Z</time>
      </trkpt>
      <trkpt lat="40.14040413312613964080810546875" lon="-0.8193228207528591156005859375">
        <ele>992</ele>
        <time>2022-05-06T12:45:31.000Z</time>
      </trkpt>
      <trkpt lat="40.1403535902500152587890625" lon="-0.81941108219325542449951171875">
        <ele>992.4000244140625</ele>
        <time>2022-05-06T12:45:33.000Z</time>
      </trkpt>
      <trkpt lat="40.14030086807906627655029296875" lon="-0.81948886625468730926513671875">
        <ele>992.5999755859375</ele>
        <time>2022-05-06T12:45:35.000Z</time>
      </trkpt>
      <trkpt lat="40.14025040902197360992431640625" lon="-0.81955826841294765472412109375">
        <ele>992.79998779296875</ele>
        <time>2022-05-06T12:45:37.000Z</time>
      </trkpt>
      <trkpt lat="40.1402012072503566741943359375" lon="-0.81962431780993938446044921875">
        <ele>993</ele>
        <time>2022-05-06T12:45:39.000Z</time>
      </trkpt>
      <trkpt lat="40.14014949090778827667236328125" lon="-0.81968969665467739105224609375">
        <ele>993.20001220703125</ele>
        <time>2022-05-06T12:45:41.000Z</time>
      </trkpt>
      <trkpt lat="40.1400962658226490020751953125" lon="-0.81975348293781280517578125">
        <ele>993.5999755859375</ele>
        <time>2022-05-06T12:45:43.000Z</time>
      </trkpt>
      <trkpt lat="40.14003935270011425018310546875" lon="-0.81981022842228412628173828125">
        <ele>993.79998779296875</ele>
        <time>2022-05-06T12:45:45.000Z</time>
      </trkpt>
      <trkpt lat="40.1400090940296649932861328125" lon="-0.81983637996017932891845703125">
        <ele>994</ele>
        <time>2022-05-06T12:45:46.000Z</time>
      </trkpt>
      <trkpt lat="40.13997816480696201324462890625" lon="-0.81986051984131336212158203125">
        <ele>994</ele>
        <time>2022-05-06T12:45:47.000Z</time>
      </trkpt>
      <trkpt lat="40.13991345651447772979736328125" lon="-0.81990343518555164337158203125">
        <ele>994.20001220703125</ele>
        <time>2022-05-06T12:45:49.000Z</time>
      </trkpt>
      <trkpt lat="40.1398474909365177154541015625" lon="-0.8199414052069187164306640625">
        <ele>994.5999755859375</ele>
        <time>2022-05-06T12:45:51.000Z</time>
      </trkpt>
      <trkpt lat="40.13978018425405025482177734375" lon="-0.8199767768383026123046875">
        <ele>994.79998779296875</ele>
        <time>2022-05-06T12:45:53.000Z</time>
      </trkpt>
      <trkpt lat="40.13971162028610706329345703125" lon="-0.8200101368129253387451171875">
        <ele>995</ele>
        <time>2022-05-06T12:45:55.000Z</time>
      </trkpt>
      <trkpt lat="40.1396412961184978485107421875" lon="-0.8200403116643428802490234375">
        <ele>995.20001220703125</ele>
        <time>2022-05-06T12:45:57.000Z</time>
      </trkpt>
      <trkpt lat="40.13956946320831775665283203125" lon="-0.82006939686834812164306640625">
        <ele>995.4000244140625</ele>
        <time>2022-05-06T12:45:59.000Z</time>
      </trkpt>
      <trkpt lat="40.1394951157271862030029296875" lon="-0.82009890116751194000244140625">
        <ele>995.5999755859375</ele>
        <time>2022-05-06T12:46:01.000Z</time>
      </trkpt>
      <trkpt lat="40.1394270546734333038330078125" lon="-0.8201341889798641204833984375">
        <ele>995.79998779296875</ele>
        <time>2022-05-06T12:46:03.000Z</time>
      </trkpt>
      <trkpt lat="40.139397718012332916259765625" lon="-0.82015120424330234527587890625">
        <ele>995.79998779296875</ele>
        <time>2022-05-06T12:46:04.000Z</time>
      </trkpt>
      <trkpt lat="40.139369554817676544189453125" lon="-0.8201646991074085235595703125">
        <ele>995.79998779296875</ele>
        <time>2022-05-06T12:46:05.000Z</time>
      </trkpt>
      <trkpt lat="40.13931985013186931610107421875" lon="-0.82017123699188232421875">
        <ele>996</ele>
        <time>2022-05-06T12:46:07.000Z</time>
      </trkpt>
      <trkpt lat="40.1392755098640918731689453125" lon="-0.82016511820256710052490234375">
        <ele>996</ele>
        <time>2022-05-06T12:46:09.000Z</time>
      </trkpt>
      <trkpt lat="40.13922815211117267608642578125" lon="-0.8201516233384609222412109375">
        <ele>996</ele>
        <time>2022-05-06T12:46:11.000Z</time>
      </trkpt>
      <trkpt lat="40.1391759328544139862060546875" lon="-0.82012991420924663543701171875">
        <ele>996</ele>
        <time>2022-05-06T12:46:13.000Z</time>
      </trkpt>
      <trkpt lat="40.13911399058997631072998046875" lon="-0.8201066963374614715576171875">
        <ele>995.5999755859375</ele>
        <time>2022-05-06T12:46:15.000Z</time>
      </trkpt>
      <trkpt lat="40.1390800438821315765380859375" lon="-0.82009538076817989349365234375">
        <ele>995.4000244140625</ele>
        <time>2022-05-06T12:46:16.000Z</time>
      </trkpt>
      <trkpt lat="40.13904266059398651123046875" lon="-0.82008180208504199981689453125">
        <ele>995.20001220703125</ele>
        <time>2022-05-06T12:46:17.000Z</time>
      </trkpt>
      <trkpt lat="40.13896378688514232635498046875" lon="-0.8200513757765293121337890625">
        <ele>994.79998779296875</ele>
        <time>2022-05-06T12:46:19.000Z</time>
      </trkpt>
      <trkpt lat="40.1388822309672832489013671875" lon="-0.82001608796417713165283203125">
        <ele>994.4000244140625</ele>
        <time>2022-05-06T12:46:21.000Z</time>
      </trkpt>
      <trkpt lat="40.13879698701202869415283203125" lon="-0.81998188979923725128173828125">
        <ele>994</ele>
        <time>2022-05-06T12:46:23.000Z</time>
      </trkpt>
      <trkpt lat="40.1387524791061878204345703125" lon="-0.81996546126902103424072265625">
        <ele>993.5999755859375</ele>
        <time>2022-05-06T12:46:24.000Z</time>
      </trkpt>
      <trkpt lat="40.1387068815529346466064453125" lon="-0.8199477754533290863037109375">
        <ele>993.4000244140625</ele>
        <time>2022-05-06T12:46:25.000Z</time>
      </trkpt>
      <trkpt lat="40.13861778192222118377685546875" lon="-0.8199115656316280364990234375">
        <ele>992.5999755859375</ele>
        <time>2022-05-06T12:46:27.000Z</time>
      </trkpt>
      <trkpt lat="40.13853228650987148284912109375" lon="-0.819876529276371002197265625">
        <ele>992.4000244140625</ele>
        <time>2022-05-06T12:46:29.000Z</time>
      </trkpt>
      <trkpt lat="40.13844829984009265899658203125" lon="-0.81984275020658969879150390625">
        <ele>992.20001220703125</ele>
        <time>2022-05-06T12:46:31.000Z</time>
      </trkpt>
      <trkpt lat="40.138363726437091827392578125" lon="-0.81981207244098186492919921875">
        <ele>992.20001220703125</ele>
        <time>2022-05-06T12:46:33.000Z</time>
      </trkpt>
      <trkpt lat="40.138272531330585479736328125" lon="-0.81978491507470607757568359375">
        <ele>992.20001220703125</ele>
        <time>2022-05-06T12:46:35.000Z</time>
      </trkpt>
      <trkpt lat="40.13822257518768310546875" lon="-0.81977183930575847625732421875">
        <ele>992.20001220703125</ele>
        <time>2022-05-06T12:46:36.000Z</time>
      </trkpt>
      <trkpt lat="40.13816951774060726165771484375" lon="-0.81975390203297138214111328125">
        <ele>992</ele>
        <time>2022-05-06T12:46:37.000Z</time>
      </trkpt>
      <trkpt lat="40.13806239701807498931884765625" lon="-0.8197140879929065704345703125">
        <ele>992</ele>
        <time>2022-05-06T12:46:39.000Z</time>
      </trkpt>
      <trkpt lat="40.13800875283777713775634765625" lon="-0.81969447433948516845703125">
        <ele>991.5999755859375</ele>
        <time>2022-05-06T12:46:40.000Z</time>
      </trkpt>
      <trkpt lat="40.1379555277526378631591796875" lon="-0.81967460922896862030029296875">
        <ele>991.4000244140625</ele>
        <time>2022-05-06T12:46:41.000Z</time>
      </trkpt>
      <trkpt lat="40.13784899376332759857177734375" lon="-0.8196349628269672393798828125">
        <ele>991.20001220703125</ele>
        <time>2022-05-06T12:46:43.000Z</time>
      </trkpt>
      <trkpt lat="40.137742459774017333984375" lon="-0.81959950737655162811279296875">
        <ele>991</ele>
        <time>2022-05-06T12:46:45.000Z</time>
      </trkpt>
      <trkpt lat="40.1376356743276119232177734375" lon="-0.81957637332379817962646484375">
        <ele>991.20001220703125</ele>
        <time>2022-05-06T12:46:47.000Z</time>
      </trkpt>
      <trkpt lat="40.13752662576735019683837890625" lon="-0.81956312991678714752197265625">
        <ele>991.5999755859375</ele>
        <time>2022-05-06T12:46:49.000Z</time>
      </trkpt>
      <trkpt lat="40.1374147273600101470947265625" lon="-0.8195558376610279083251953125">
        <ele>992</ele>
        <time>2022-05-06T12:46:51.000Z</time>
      </trkpt>
      <trkpt lat="40.137302912771701812744140625" lon="-0.8195503056049346923828125">
        <ele>992.4000244140625</ele>
        <time>2022-05-06T12:46:53.000Z</time>
      </trkpt>
      <trkpt lat="40.13719017617404460906982421875" lon="-0.81954955123364925384521484375">
        <ele>993</ele>
        <time>2022-05-06T12:46:55.000Z</time>
      </trkpt>
      <trkpt lat="40.13707417063415050506591796875" lon="-0.819549970328807830810546875">
        <ele>993.4000244140625</ele>
        <time>2022-05-06T12:46:57.000Z</time>
      </trkpt>
      <trkpt lat="40.13701583258807659149169921875" lon="-0.81955206580460071563720703125">
        <ele>993</ele>
        <time>2022-05-06T12:46:58.000Z</time>
      </trkpt>
      <trkpt lat="40.1369577459990978240966796875" lon="-0.81955499947071075439453125">
        <ele>992.79998779296875</ele>
        <time>2022-05-06T12:46:59.000Z</time>
      </trkpt>
      <trkpt lat="40.136840231716632843017578125" lon="-0.81956296227872371673583984375">
        <ele>992.20001220703125</ele>
        <time>2022-05-06T12:47:01.000Z</time>
      </trkpt>
      <trkpt lat="40.13672263361513614654541015625" lon="-0.819576121866703033447265625">
        <ele>991.5999755859375</ele>
        <time>2022-05-06T12:47:03.000Z</time>
      </trkpt>
      <trkpt lat="40.13660294003784656524658203125" lon="-0.81959791481494903564453125">
        <ele>991.20001220703125</ele>
        <time>2022-05-06T12:47:05.000Z</time>
      </trkpt>
      <trkpt lat="40.136543847620487213134765625" lon="-0.819612331688404083251953125">
        <ele>991</ele>
        <time>2022-05-06T12:47:06.000Z</time>
      </trkpt>
      <trkpt lat="40.1364826597273349761962890625" lon="-0.8196282573044300079345703125">
        <ele>991</ele>
        <time>2022-05-06T12:47:07.000Z</time>
      </trkpt>
      <trkpt lat="40.1363586075603961944580078125" lon="-0.81966505385935306549072265625">
        <ele>990.79998779296875</ele>
        <time>2022-05-06T12:47:09.000Z</time>
      </trkpt>
      <trkpt lat="40.1362365670502185821533203125" lon="-0.81970226950943470001220703125">
        <ele>990.5999755859375</ele>
        <time>2022-05-06T12:47:11.000Z</time>
      </trkpt>
      <trkpt lat="40.1361145265400409698486328125" lon="-0.8197372220456600189208984375">
        <ele>990.79998779296875</ele>
        <time>2022-05-06T12:47:13.000Z</time>
      </trkpt>
      <trkpt lat="40.13605258427560329437255859375" lon="-0.81975507549941539764404296875">
        <ele>990.79998779296875</ele>
        <time>2022-05-06T12:47:14.000Z</time>
      </trkpt>
      <trkpt lat="40.1359901390969753265380859375" lon="-0.81977351568639278411865234375">
        <ele>990.79998779296875</ele>
        <time>2022-05-06T12:47:15.000Z</time>
      </trkpt>
      <trkpt lat="40.135859549045562744140625" lon="-0.8198083005845546722412109375">
        <ele>990.5999755859375</ele>
        <time>2022-05-06T12:47:17.000Z</time>
      </trkpt>
      <trkpt lat="40.13579291291534900665283203125" lon="-0.8198257349431514739990234375">
        <ele>990.5999755859375</ele>
        <time>2022-05-06T12:47:18.000Z</time>
      </trkpt>
      <trkpt lat="40.13572602532804012298583984375" lon="-0.81984275020658969879150390625">
        <ele>990.5999755859375</ele>
        <time>2022-05-06T12:47:19.000Z</time>
      </trkpt>
      <trkpt lat="40.13558856211602687835693359375" lon="-0.81988046877086162567138671875">
        <ele>990.5999755859375</ele>
        <time>2022-05-06T12:47:21.000Z</time>
      </trkpt>
      <trkpt lat="40.13545260764658451080322265625" lon="-0.81991852261126041412353515625">
        <ele>990.4000244140625</ele>
        <time>2022-05-06T12:47:23.000Z</time>
      </trkpt>
      <trkpt lat="40.1353152282536029815673828125" lon="-0.8199541456997394561767578125">
        <ele>991.4000244140625</ele>
        <time>2022-05-06T12:47:25.000Z</time>
      </trkpt>
      <trkpt lat="40.13517365790903568267822265625" lon="-0.81999060697853565216064453125">
        <ele>992.5999755859375</ele>
        <time>2022-05-06T12:47:27.000Z</time>
      </trkpt>
      <trkpt lat="40.13503066264092922210693359375" lon="-0.82003176212310791015625">
        <ele>993.20001220703125</ele>
        <time>2022-05-06T12:47:29.000Z</time>
      </trkpt>
      <trkpt lat="40.13488532043993473052978515625" lon="-0.820070318877696990966796875">
        <ele>993.79998779296875</ele>
        <time>2022-05-06T12:47:31.000Z</time>
      </trkpt>
      <trkpt lat="40.13474400155246257781982421875" lon="-0.820106528699398040771484375">
        <ele>994.4000244140625</ele>
        <time>2022-05-06T12:47:33.000Z</time>
      </trkpt>
      <trkpt lat="40.1346118189394474029541015625" lon="-0.820142738521099090576171875">
        <ele>995</ele>
        <time>2022-05-06T12:47:35.000Z</time>
      </trkpt>
      <trkpt lat="40.134475193917751312255859375" lon="-0.82017785869538784027099609375">
        <ele>995</ele>
        <time>2022-05-06T12:47:37.000Z</time>
      </trkpt>
      <trkpt lat="40.13433965854346752166748046875" lon="-0.8202109672129154205322265625">
        <ele>995</ele>
        <time>2022-05-06T12:47:39.000Z</time>
      </trkpt>
      <trkpt lat="40.13421074487268924713134765625" lon="-0.82024659030139446258544921875">
        <ele>995</ele>
        <time>2022-05-06T12:47:41.000Z</time>
      </trkpt>
      <trkpt lat="40.1341464556753635406494140625" lon="-0.8202659524977207183837890625">
        <ele>995</ele>
        <time>2022-05-06T12:47:42.000Z</time>
      </trkpt>
      <trkpt lat="40.13408434577286243438720703125" lon="-0.82028497941792011260986328125">
        <ele>995</ele>
        <time>2022-05-06T12:47:43.000Z</time>
      </trkpt>
      <trkpt lat="40.1339610479772090911865234375" lon="-0.82031699828803539276123046875">
        <ele>994.5999755859375</ele>
        <time>2022-05-06T12:47:45.000Z</time>
      </trkpt>
      <trkpt lat="40.133838169276714324951171875" lon="-0.82034834660589694976806640625">
        <ele>994.20001220703125</ele>
        <time>2022-05-06T12:47:47.000Z</time>
      </trkpt>
      <trkpt lat="40.133716799318790435791015625" lon="-0.820384137332439422607421875">
        <ele>993.79998779296875</ele>
        <time>2022-05-06T12:47:49.000Z</time>
      </trkpt>
      <trkpt lat="40.1336576230823993682861328125" lon="-0.8203997276723384857177734375">
        <ele>993.5999755859375</ele>
        <time>2022-05-06T12:47:50.000Z</time>
      </trkpt>
      <trkpt lat="40.1336026377975940704345703125" lon="-0.82041305489838123321533203125">
        <ele>993.20001220703125</ele>
        <time>2022-05-06T12:47:51.000Z</time>
      </trkpt>
      <trkpt lat="40.1335463114082813262939453125" lon="-0.82042579539120197296142578125">
        <ele>992.79998779296875</ele>
        <time>2022-05-06T12:47:52.000Z</time>
      </trkpt>
      <trkpt lat="40.13349174521863460540771484375" lon="-0.82043887116014957427978515625">
        <ele>992.5999755859375</ele>
        <time>2022-05-06T12:47:53.000Z</time>
      </trkpt>
      <trkpt lat="40.1333786733448505401611328125" lon="-0.82046519033610820770263671875">
        <ele>991.79998779296875</ele>
        <time>2022-05-06T12:47:55.000Z</time>
      </trkpt>
      <trkpt lat="40.13326585292816162109375" lon="-0.82048731856048107147216796875">
        <ele>991.20001220703125</ele>
        <time>2022-05-06T12:47:57.000Z</time>
      </trkpt>
      <trkpt lat="40.13314557261765003204345703125" lon="-0.82049653865396976470947265625">
        <ele>990.20001220703125</ele>
        <time>2022-05-06T12:47:59.000Z</time>
      </trkpt>
      <trkpt lat="40.1330856420099735260009765625" lon="-0.82049838267266750335693359375">
        <ele>989.5999755859375</ele>
        <time>2022-05-06T12:48:00.000Z</time>
      </trkpt>
      <trkpt lat="40.13302671723067760467529296875" lon="-0.82049922086298465728759765625">
        <ele>989</ele>
        <time>2022-05-06T12:48:01.000Z</time>
      </trkpt>
      <trkpt lat="40.132909454405307769775390625" lon="-0.820499472320079803466796875">
        <ele>988</ele>
        <time>2022-05-06T12:48:03.000Z</time>
      </trkpt>
      <trkpt lat="40.13284952379763126373291015625" lon="-0.82049838267266750335693359375">
        <ele>987.4000244140625</ele>
        <time>2022-05-06T12:48:04.000Z</time>
      </trkpt>
      <trkpt lat="40.1327899284660816192626953125" lon="-0.820495449006557464599609375">
        <ele>986.79998779296875</ele>
        <time>2022-05-06T12:48:05.000Z</time>
      </trkpt>
      <trkpt lat="40.13267149217426776885986328125" lon="-0.8204863965511322021484375">
        <ele>985.4000244140625</ele>
        <time>2022-05-06T12:48:07.000Z</time>
      </trkpt>
      <trkpt lat="40.1325559057295322418212890625" lon="-0.8204661123454570770263671875">
        <ele>984</ele>
        <time>2022-05-06T12:48:09.000Z</time>
      </trkpt>
      <trkpt lat="40.13244434259831905364990234375" lon="-0.8204446546733379364013671875">
        <ele>982.5999755859375</ele>
        <time>2022-05-06T12:48:11.000Z</time>
      </trkpt>
      <trkpt lat="40.1323882676661014556884765625" lon="-0.8204305730760097503662109375">
        <ele>982</ele>
        <time>2022-05-06T12:48:12.000Z</time>
      </trkpt>
      <trkpt lat="40.1323322765529155731201171875" lon="-0.82041263580322265625">
        <ele>981.20001220703125</ele>
        <time>2022-05-06T12:48:13.000Z</time>
      </trkpt>
      <trkpt lat="40.1322233118116855621337890625" lon="-0.82037064246833324432373046875">
        <ele>980</ele>
        <time>2022-05-06T12:48:15.000Z</time>
      </trkpt>
      <trkpt lat="40.13211208395659923553466796875" lon="-0.82031532190740108489990234375">
        <ele>979.5999755859375</ele>
        <time>2022-05-06T12:48:17.000Z</time>
      </trkpt>
      <trkpt lat="40.13199917972087860107421875" lon="-0.82024374045431613922119140625">
        <ele>979.5999755859375</ele>
        <time>2022-05-06T12:48:19.000Z</time>
      </trkpt>
      <trkpt lat="40.13194377534091472625732421875" lon="-0.82020409405231475830078125">
        <ele>979.4000244140625</ele>
        <time>2022-05-06T12:48:20.000Z</time>
      </trkpt>
      <trkpt lat="40.13188920915126800537109375" lon="-0.8201616816222667694091796875">
        <ele>979.4000244140625</ele>
        <time>2022-05-06T12:48:21.000Z</time>
      </trkpt>
      <trkpt lat="40.13178485445678234100341796875" lon="-0.820071995258331298828125">
        <ele>979.20001220703125</ele>
        <time>2022-05-06T12:48:23.000Z</time>
      </trkpt>
      <trkpt lat="40.13173389248549938201904296875" lon="-0.8200242184102535247802734375">
        <ele>979</ele>
        <time>2022-05-06T12:48:24.000Z</time>
      </trkpt>
      <trkpt lat="40.13168326579034328460693359375" lon="-0.81997367553412914276123046875">
        <ele>978.5999755859375</ele>
        <time>2022-05-06T12:48:25.000Z</time>
      </trkpt>
      <trkpt lat="40.1316338963806629180908203125" lon="-0.81992221064865589141845703125">
        <ele>978.20001220703125</ele>
        <time>2022-05-06T12:48:26.000Z</time>
      </trkpt>
      <trkpt lat="40.1315852813422679901123046875" lon="-0.819865800440311431884765625">
        <ele>977.79998779296875</ele>
        <time>2022-05-06T12:48:27.000Z</time>
      </trkpt>
      <trkpt lat="40.13149333186447620391845703125" lon="-0.819746442139148712158203125">
        <ele>977</ele>
        <time>2022-05-06T12:48:29.000Z</time>
      </trkpt>
      <trkpt lat="40.13144957832992076873779296875" lon="-0.81968332640826702117919921875">
        <ele>976.4000244140625</ele>
        <time>2022-05-06T12:48:30.000Z</time>
      </trkpt>
      <trkpt lat="40.131407082080841064453125" lon="-0.81961794756352901458740234375">
        <ele>976</ele>
        <time>2022-05-06T12:48:31.000Z</time>
      </trkpt>
      <trkpt lat="40.1313261128962039947509765625" lon="-0.81948283128440380096435546875">
        <ele>975.5999755859375</ele>
        <time>2022-05-06T12:48:33.000Z</time>
      </trkpt>
      <trkpt lat="40.13125159777700901031494140625" lon="-0.81934444606304168701171875">
        <ele>975.20001220703125</ele>
        <time>2022-05-06T12:48:35.000Z</time>
      </trkpt>
      <trkpt lat="40.1312168128788471221923828125" lon="-0.8192725293338298797607421875">
        <ele>974.79998779296875</ele>
        <time>2022-05-06T12:48:36.000Z</time>
      </trkpt>
      <trkpt lat="40.13118370436131954193115234375" lon="-0.819198600947856903076171875">
        <ele>974.5999755859375</ele>
        <time>2022-05-06T12:48:37.000Z</time>
      </trkpt>
      <trkpt lat="40.13112670741975307464599609375" lon="-0.81904646940529346466064453125">
        <ele>973.79998779296875</ele>
        <time>2022-05-06T12:48:39.000Z</time>
      </trkpt>
      <trkpt lat="40.13109955005347728729248046875" lon="-0.818968601524829864501953125">
        <ele>973.79998779296875</ele>
        <time>2022-05-06T12:48:40.000Z</time>
      </trkpt>
      <trkpt lat="40.13107239268720149993896484375" lon="-0.8188913203775882720947265625">
        <ele>974</ele>
        <time>2022-05-06T12:48:41.000Z</time>
      </trkpt>
      <trkpt lat="40.1310267113149166107177734375" lon="-0.818737931549549102783203125">
        <ele>973.20001220703125</ele>
        <time>2022-05-06T12:48:43.000Z</time>
      </trkpt>
      <trkpt lat="40.13099201023578643798828125" lon="-0.8185845427215099334716796875">
        <ele>972.20001220703125</ele>
        <time>2022-05-06T12:48:45.000Z</time>
      </trkpt>
      <trkpt lat="40.13096560724079608917236328125" lon="-0.81842788495123386383056640625">
        <ele>971.20001220703125</ele>
        <time>2022-05-06T12:48:47.000Z</time>
      </trkpt>
      <trkpt lat="40.13094733469188213348388671875" lon="-0.8182762563228607177734375">
        <ele>970.20001220703125</ele>
        <time>2022-05-06T12:48:49.000Z</time>
      </trkpt>
      <trkpt lat="40.1309351809322834014892578125" lon="-0.81812932156026363372802734375">
        <ele>969.4000244140625</ele>
        <time>2022-05-06T12:48:51.000Z</time>
      </trkpt>
      <trkpt lat="40.13092939741909503936767578125" lon="-0.81798766739666461944580078125">
        <ele>968.5999755859375</ele>
        <time>2022-05-06T12:48:53.000Z</time>
      </trkpt>
      <trkpt lat="40.13092973269522190093994140625" lon="-0.81792161799967288970947265625">
        <ele>968.20001220703125</ele>
        <time>2022-05-06T12:48:54.000Z</time>
      </trkpt>
      <trkpt lat="40.13093157671391963958740234375" lon="-0.8178579993546009063720703125">
        <ele>967.5999755859375</ele>
        <time>2022-05-06T12:48:55.000Z</time>
      </trkpt>
      <trkpt lat="40.1309405453503131866455078125" lon="-0.81773000769317150115966796875">
        <ele>966.5999755859375</ele>
        <time>2022-05-06T12:48:57.000Z</time>
      </trkpt>
      <trkpt lat="40.13095186091959476470947265625" lon="-0.81760629080235958099365234375">
        <ele>965.79998779296875</ele>
        <time>2022-05-06T12:48:59.000Z</time>
      </trkpt>
      <trkpt lat="40.1309677027165889739990234375" lon="-0.8174845017492771148681640625">
        <ele>964.79998779296875</ele>
        <time>2022-05-06T12:49:01.000Z</time>
      </trkpt>
      <trkpt lat="40.13098840601742267608642578125" lon="-0.81735567189753055572509765625">
        <ele>963.5999755859375</ele>
        <time>2022-05-06T12:49:03.000Z</time>
      </trkpt>
      <trkpt lat="40.1310106180608272552490234375" lon="-0.8172182925045490264892578125">
        <ele>962.5999755859375</ele>
        <time>2022-05-06T12:49:05.000Z</time>
      </trkpt>
      <trkpt lat="40.13103283010423183441162109375" lon="-0.81707990728318691253662109375">
        <ele>964.20001220703125</ele>
        <time>2022-05-06T12:49:07.000Z</time>
      </trkpt>
      <trkpt lat="40.13106099329888820648193359375" lon="-0.81694428808987140655517578125">
        <ele>965.5999755859375</ele>
        <time>2022-05-06T12:49:09.000Z</time>
      </trkpt>
      <trkpt lat="40.13108245097100734710693359375" lon="-0.81681780517101287841796875">
        <ele>967</ele>
        <time>2022-05-06T12:49:11.000Z</time>
      </trkpt>
      <trkpt lat="40.1311106979846954345703125" lon="-0.816692076623439788818359375">
        <ele>968.20001220703125</ele>
        <time>2022-05-06T12:49:13.000Z</time>
      </trkpt>
      <trkpt lat="40.13112603686749935150146484375" lon="-0.81663533113896846771240234375">
        <ele>968.79998779296875</ele>
        <time>2022-05-06T12:49:14.000Z</time>
      </trkpt>
      <trkpt lat="40.131141208112239837646484375" lon="-0.81657481379806995391845703125">
        <ele>969.5999755859375</ele>
        <time>2022-05-06T12:49:15.000Z</time>
      </trkpt>
      <trkpt lat="40.1311698742210865020751953125" lon="-0.81645168364048004150390625">
        <ele>970.5999755859375</ele>
        <time>2022-05-06T12:49:17.000Z</time>
      </trkpt>
      <trkpt lat="40.1312007196247577667236328125" lon="-0.8163304813206195831298828125">
        <ele>972</ele>
        <time>2022-05-06T12:49:19.000Z</time>
      </trkpt>
      <trkpt lat="40.13123206794261932373046875" lon="-0.8162060938775539398193359375">
        <ele>974.4000244140625</ele>
        <time>2022-05-06T12:49:21.000Z</time>
      </trkpt>
      <trkpt lat="40.13125754892826080322265625" lon="-0.8160867355763912200927734375">
        <ele>976.79998779296875</ele>
        <time>2022-05-06T12:49:23.000Z</time>
      </trkpt>
      <trkpt lat="40.13128302991390228271484375" lon="-0.81597282551229000091552734375">
        <ele>979</ele>
        <time>2022-05-06T12:49:25.000Z</time>
      </trkpt>
      <trkpt lat="40.1313127018511295318603515625" lon="-0.81585623323917388916015625">
        <ele>981.20001220703125</ele>
        <time>2022-05-06T12:49:27.000Z</time>
      </trkpt>
      <trkpt lat="40.131343044340610504150390625" lon="-0.81573762930929660797119140625">
        <ele>983.4000244140625</ele>
        <time>2022-05-06T12:49:29.000Z</time>
      </trkpt>
      <trkpt lat="40.1313582994043827056884765625" lon="-0.81567912362515926361083984375">
        <ele>984.4000244140625</ele>
        <time>2022-05-06T12:49:30.000Z</time>
      </trkpt>
      <trkpt lat="40.13137212954461574554443359375" lon="-0.81562061794102191925048828125">
        <ele>985.5999755859375</ele>
        <time>2022-05-06T12:49:31.000Z</time>
      </trkpt>
      <trkpt lat="40.1314069144427776336669921875" lon="-0.8155057020485401153564453125">
        <ele>987.79998779296875</ele>
        <time>2022-05-06T12:49:33.000Z</time>
      </trkpt>
      <trkpt lat="40.1314370892941951751708984375" lon="-0.81539355218410491943359375">
        <ele>989.79998779296875</ele>
        <time>2022-05-06T12:49:35.000Z</time>
      </trkpt>
      <trkpt lat="40.13147237710654735565185546875" lon="-0.81528626382350921630859375">
        <ele>991.79998779296875</ele>
        <time>2022-05-06T12:49:37.000Z</time>
      </trkpt>
      <trkpt lat="40.13151261024177074432373046875" lon="-0.815179646015167236328125">
        <ele>993.79998779296875</ele>
        <time>2022-05-06T12:49:39.000Z</time>
      </trkpt>
      <trkpt lat="40.13155083172023296356201171875" lon="-0.8150772191584110260009765625">
        <ele>995.5999755859375</ele>
        <time>2022-05-06T12:49:41.000Z</time>
      </trkpt>
      <trkpt lat="40.13158888556063175201416015625" lon="-0.81497454084455966949462890625">
        <ele>997.4000244140625</ele>
        <time>2022-05-06T12:49:43.000Z</time>
      </trkpt>
      <trkpt lat="40.13162593357264995574951171875" lon="-0.8148720301687717437744140625">
        <ele>999.20001220703125</ele>
        <time>2022-05-06T12:49:45.000Z</time>
      </trkpt>
      <trkpt lat="40.1316617242991924285888671875" lon="-0.814769268035888671875">
        <ele>1001</ele>
        <time>2022-05-06T12:49:47.000Z</time>
      </trkpt>
      <trkpt lat="40.131678991019725799560546875" lon="-0.81471763551235198974609375">
        <ele>1002</ele>
        <time>2022-05-06T12:49:48.000Z</time>
      </trkpt>
      <trkpt lat="40.131695754826068878173828125" lon="-0.814665667712688446044921875">
        <ele>1002.20001220703125</ele>
        <time>2022-05-06T12:49:49.000Z</time>
      </trkpt>
      <trkpt lat="40.13264081440865993499755859375" lon="-0.8109231479465961456298828125">
        <ele>992.5999755859375</ele>
        <time>2022-05-06T12:50:41.000Z</time>
      </trkpt>
      <trkpt lat="40.13268255628645420074462890625" lon="-0.8108074776828289031982421875">
        <ele>992.20001220703125</ele>
        <time>2022-05-06T12:50:43.000Z</time>
      </trkpt>
      <trkpt lat="40.13269898481667041778564453125" lon="-0.810698680579662322998046875">
        <ele>991.79998779296875</ele>
        <time>2022-05-06T12:50:45.000Z</time>
      </trkpt>
      <trkpt lat="40.13273703865706920623779296875" lon="-0.810571610927581787109375">
        <ele>991.4000244140625</ele>
        <time>2022-05-06T12:50:47.000Z</time>
      </trkpt>
      <trkpt lat="40.1327607594430446624755859375" lon="-0.81044998951256275177001953125">
        <ele>990.79998779296875</ele>
        <time>2022-05-06T12:50:49.000Z</time>
      </trkpt>
      <trkpt lat="40.1327973045408725738525390625" lon="-0.8103347383439540863037109375">
        <ele>990.4000244140625</ele>
        <time>2022-05-06T12:50:51.000Z</time>
      </trkpt>
      <trkpt lat="40.13280744664371013641357421875" lon="-0.81027480773627758026123046875">
        <ele>990.20001220703125</ele>
        <time>2022-05-06T12:50:52.000Z</time>
      </trkpt>
      <trkpt lat="40.1328197680413722991943359375" lon="-0.81020473502576351165771484375">
        <ele>989.79998779296875</ele>
        <time>2022-05-06T12:50:53.000Z</time>
      </trkpt>
      <trkpt lat="40.132834352552890777587890625" lon="-0.8100686967372894287109375">
        <ele>989.4000244140625</ele>
        <time>2022-05-06T12:50:55.000Z</time>
      </trkpt>
      <trkpt lat="40.1328657008707523345947265625" lon="-0.8099431358277797698974609375">
        <ele>988.79998779296875</ele>
        <time>2022-05-06T12:50:57.000Z</time>
      </trkpt>
      <trkpt lat="40.1328868232667446136474609375" lon="-0.80981078557670116424560546875">
        <ele>988.4000244140625</ele>
        <time>2022-05-06T12:50:59.000Z</time>
      </trkpt>
      <trkpt lat="40.13291724957525730133056640625" lon="-0.80967851914465427398681640625">
        <ele>987.79998779296875</ele>
        <time>2022-05-06T12:51:01.000Z</time>
      </trkpt>
      <trkpt lat="40.13293527066707611083984375" lon="-0.80952010117471218109130859375">
        <ele>987.20001220703125</ele>
        <time>2022-05-06T12:51:03.000Z</time>
      </trkpt>
      <trkpt lat="40.13296904973685741424560546875" lon="-0.8093688078224658966064453125">
        <ele>987</ele>
        <time>2022-05-06T12:51:05.000Z</time>
      </trkpt>
      <trkpt lat="40.133016072213649749755859375" lon="-0.8092249743640422821044921875">
        <ele>986.79998779296875</ele>
        <time>2022-05-06T12:51:07.000Z</time>
      </trkpt>
      <trkpt lat="40.1330521143972873687744140625" lon="-0.8090797998011112213134765625">
        <ele>986.5999755859375</ele>
        <time>2022-05-06T12:51:09.000Z</time>
      </trkpt>
      <trkpt lat="40.13308287598192691802978515625" lon="-0.808940492570400238037109375">
        <ele>986.20001220703125</ele>
        <time>2022-05-06T12:51:11.000Z</time>
      </trkpt>
      <trkpt lat="40.1331010647118091583251953125" lon="-0.80886849202215671539306640625">
        <ele>986</ele>
        <time>2022-05-06T12:51:12.000Z</time>
      </trkpt>
      <trkpt lat="40.13312193565070629119873046875" lon="-0.80879137851297855377197265625">
        <ele>985.79998779296875</ele>
        <time>2022-05-06T12:51:13.000Z</time>
      </trkpt>
      <trkpt lat="40.133140124380588531494140625" lon="-0.808716528117656707763671875">
        <ele>985.4000244140625</ele>
        <time>2022-05-06T12:51:14.000Z</time>
      </trkpt>
      <trkpt lat="40.13316099531948566436767578125" lon="-0.8086409233510494232177734375">
        <ele>985.20001220703125</ele>
        <time>2022-05-06T12:51:15.000Z</time>
      </trkpt>
      <trkpt lat="40.13320156373083591461181640625" lon="-0.80849700607359409332275390625">
        <ele>984.5999755859375</ele>
        <time>2022-05-06T12:51:17.000Z</time>
      </trkpt>
      <trkpt lat="40.1332405395805835723876953125" lon="-0.8083666674792766571044921875">
        <ele>984</ele>
        <time>2022-05-06T12:51:19.000Z</time>
      </trkpt>
      <trkpt lat="40.13325872831046581268310546875" lon="-0.80829869024455547332763671875">
        <ele>983.79998779296875</ele>
        <time>2022-05-06T12:51:20.000Z</time>
      </trkpt>
      <trkpt lat="40.133273564279079437255859375" lon="-0.80822744406759738922119140625">
        <ele>983.4000244140625</ele>
        <time>2022-05-06T12:51:21.000Z</time>
      </trkpt>
      <trkpt lat="40.133307762444019317626953125" lon="-0.80807640217244625091552734375">
        <ele>982.79998779296875</ele>
        <time>2022-05-06T12:51:23.000Z</time>
      </trkpt>
      <trkpt lat="40.1333484984934329986572265625" lon="-0.80791614018380641937255859375">
        <ele>982.20001220703125</ele>
        <time>2022-05-06T12:51:25.000Z</time>
      </trkpt>
      <trkpt lat="40.133386552333831787109375" lon="-0.80776057206094264984130859375">
        <ele>981.4000244140625</ele>
        <time>2022-05-06T12:51:27.000Z</time>
      </trkpt>
      <trkpt lat="40.1334282942116260528564453125" lon="-0.8076032437384128570556640625">
        <ele>980.79998779296875</ele>
        <time>2022-05-06T12:51:29.000Z</time>
      </trkpt>
      <trkpt lat="40.13345000334084033966064453125" lon="-0.80752554349601268768310546875">
        <ele>980.5999755859375</ele>
        <time>2022-05-06T12:51:30.000Z</time>
      </trkpt>
      <trkpt lat="40.133470706641674041748046875" lon="-0.80744692124426364898681640625">
        <ele>980.4000244140625</ele>
        <time>2022-05-06T12:51:31.000Z</time>
      </trkpt>
      <trkpt lat="40.1335111074149608612060546875" lon="-0.8072947897017002105712890625">
        <ele>980</ele>
        <time>2022-05-06T12:51:33.000Z</time>
      </trkpt>
      <trkpt lat="40.133549831807613372802734375" lon="-0.8071412332355976104736328125">
        <ele>979.5999755859375</ele>
        <time>2022-05-06T12:51:35.000Z</time>
      </trkpt>
      <trkpt lat="40.133593082427978515625" lon="-0.80697418190538883209228515625">
        <ele>979</ele>
        <time>2022-05-06T12:51:37.000Z</time>
      </trkpt>
      <trkpt lat="40.13362937606871128082275390625" lon="-0.8068046160042285919189453125">
        <ele>978.4000244140625</ele>
        <time>2022-05-06T12:51:39.000Z</time>
      </trkpt>
      <trkpt lat="40.13366675935685634613037109375" lon="-0.80662951804697513580322265625">
        <ele>977.5999755859375</ele>
        <time>2022-05-06T12:51:41.000Z</time>
      </trkpt>
      <trkpt lat="40.1337035559117794036865234375" lon="-0.8064495585858821868896484375">
        <ele>977</ele>
        <time>2022-05-06T12:51:43.000Z</time>
      </trkpt>
      <trkpt lat="40.133730880916118621826171875" lon="-0.80626490525901317596435546875">
        <ele>975.79998779296875</ele>
        <time>2022-05-06T12:51:45.000Z</time>
      </trkpt>
      <trkpt lat="40.1337419450283050537109375" lon="-0.8061716146767139434814453125">
        <ele>975</ele>
        <time>2022-05-06T12:51:46.000Z</time>
      </trkpt>
      <trkpt lat="40.133750326931476593017578125" lon="-0.806075222790241241455078125">
        <ele>974.20001220703125</ele>
        <time>2022-05-06T12:51:47.000Z</time>
      </trkpt>
      <trkpt lat="40.13376264832913875579833984375" lon="-0.8058826066553592681884765625">
        <ele>972.79998779296875</ele>
        <time>2022-05-06T12:51:49.000Z</time>
      </trkpt>
      <trkpt lat="40.133779160678386688232421875" lon="-0.805690325796604156494140625">
        <ele>971.20001220703125</ele>
        <time>2022-05-06T12:51:51.000Z</time>
      </trkpt>
      <trkpt lat="40.1337964273989200592041015625" lon="-0.80549745820462703704833984375">
        <ele>969.79998779296875</ele>
        <time>2022-05-06T12:51:53.000Z</time>
      </trkpt>
      <trkpt lat="40.13380422256886959075927734375" lon="-0.8053029142320156097412109375">
        <ele>969</ele>
        <time>2022-05-06T12:51:55.000Z</time>
      </trkpt>
      <trkpt lat="40.13380187563598155975341796875" lon="-0.8051061071455478668212890625">
        <ele>968</ele>
        <time>2022-05-06T12:51:57.000Z</time>
      </trkpt>
      <trkpt lat="40.1337924040853977203369140625" lon="-0.80490787513554096221923828125">
        <ele>967</ele>
        <time>2022-05-06T12:51:59.000Z</time>
      </trkpt>
      <trkpt lat="40.133778154850006103515625" lon="-0.80470922403037548065185546875">
        <ele>966</ele>
        <time>2022-05-06T12:52:01.000Z</time>
      </trkpt>
      <trkpt lat="40.1337565295398235321044921875" lon="-0.80451074056327342987060546875">
        <ele>965</ele>
        <time>2022-05-06T12:52:03.000Z</time>
      </trkpt>
      <trkpt lat="40.13372928835451602935791015625" lon="-0.80430571921169757843017578125">
        <ele>964.20001220703125</ele>
        <time>2022-05-06T12:52:05.000Z</time>
      </trkpt>
      <trkpt lat="40.13371587730944156646728515625" lon="-0.80420329235494136810302734375">
        <ele>963.79998779296875</ele>
        <time>2022-05-06T12:52:06.000Z</time>
      </trkpt>
      <trkpt lat="40.13370162807404994964599609375" lon="-0.80410145223140716552734375">
        <ele>963.4000244140625</ele>
        <time>2022-05-06T12:52:07.000Z</time>
      </trkpt>
      <trkpt lat="40.133662484586238861083984375" lon="-0.8038991130888462066650390625">
        <ele>963.20001220703125</ele>
        <time>2022-05-06T12:52:09.000Z</time>
      </trkpt>
      <trkpt lat="40.13360850512981414794921875" lon="-0.803702138364315032958984375">
        <ele>963.5999755859375</ele>
        <time>2022-05-06T12:52:11.000Z</time>
      </trkpt>
      <trkpt lat="40.133581347763538360595703125" lon="-0.8036060817539691925048828125">
        <ele>963.5999755859375</ele>
        <time>2022-05-06T12:52:12.000Z</time>
      </trkpt>
      <trkpt lat="40.13355276547372341156005859375" lon="-0.8035091869533061981201171875">
        <ele>963.79998779296875</ele>
        <time>2022-05-06T12:52:13.000Z</time>
      </trkpt>
      <trkpt lat="40.13349174521863460540771484375" lon="-0.8033110387623310089111328125">
        <ele>964</ele>
        <time>2022-05-06T12:52:15.000Z</time>
      </trkpt>
      <trkpt lat="40.13341563753783702850341796875" lon="-0.803113393485546112060546875">
        <ele>963.79998779296875</ele>
        <time>2022-05-06T12:52:17.000Z</time>
      </trkpt>
      <trkpt lat="40.1333360932767391204833984375" lon="-0.80291868187487125396728515625">
        <ele>964</ele>
        <time>2022-05-06T12:52:19.000Z</time>
      </trkpt>
      <trkpt lat="40.13324372470378875732421875" lon="-0.8027363754808902740478515625">
        <ele>964.5999755859375</ele>
        <time>2022-05-06T12:52:21.000Z</time>
      </trkpt>
      <trkpt lat="40.13314372859895229339599609375" lon="-0.802557170391082763671875">
        <ele>965</ele>
        <time>2022-05-06T12:52:23.000Z</time>
      </trkpt>
      <trkpt lat="40.133035518229007720947265625" lon="-0.80238617956638336181640625">
        <ele>965.5999755859375</ele>
        <time>2022-05-06T12:52:25.000Z</time>
      </trkpt>
      <trkpt lat="40.13294088654220104217529296875" lon="-0.802246369421482086181640625">
        <ele>966</ele>
        <time>2022-05-06T12:52:27.000Z</time>
      </trkpt>
      <trkpt lat="40.13291113078594207763671875" lon="-0.80219917930662631988525390625">
        <ele>966</ele>
        <time>2022-05-06T12:52:28.000Z</time>
      </trkpt>
      <trkpt lat="40.13288472779095172882080078125" lon="-0.8021664060652256011962890625">
        <ele>965.79998779296875</ele>
        <time>2022-05-06T12:52:29.000Z</time>
      </trkpt>
      <trkpt lat="40.1328368671238422393798828125" lon="-0.8021087385714054107666015625">
        <ele>965.79998779296875</ele>
        <time>2022-05-06T12:52:31.000Z</time>
      </trkpt>
      <trkpt lat="40.13281096704304218292236328125" lon="-0.80207563005387783050537109375">
        <ele>965.5999755859375</ele>
        <time>2022-05-06T12:52:32.000Z</time>
      </trkpt>
      <trkpt lat="40.1327843964099884033203125" lon="-0.80204294063150882720947265625">
        <ele>965.5999755859375</ele>
        <time>2022-05-06T12:52:33.000Z</time>
      </trkpt>
      <trkpt lat="40.13272077776491641998291015625" lon="-0.801970772445201873779296875">
        <ele>965.4000244140625</ele>
        <time>2022-05-06T12:52:35.000Z</time>
      </trkpt>
      <trkpt lat="40.13265372253954410552978515625" lon="-0.80188787542283535003662109375">
        <ele>965.20001220703125</ele>
        <time>2022-05-06T12:52:37.000Z</time>
      </trkpt>
      <trkpt lat="40.13262103311717510223388671875" lon="-0.80184546299278736114501953125">
        <ele>965</ele>
        <time>2022-05-06T12:52:38.000Z</time>
      </trkpt>
      <trkpt lat="40.1325867511332035064697265625" lon="-0.80180489458143711090087890625">
        <ele>965</ele>
        <time>2022-05-06T12:52:39.000Z</time>
      </trkpt>
      <trkpt lat="40.13251290656626224517822265625" lon="-0.80172224901616573333740234375">
        <ele>964.79998779296875</ele>
        <time>2022-05-06T12:52:41.000Z</time>
      </trkpt>
      <trkpt lat="40.13242472894489765167236328125" lon="-0.8016376756131649017333984375">
        <ele>964.79998779296875</ele>
        <time>2022-05-06T12:52:43.000Z</time>
      </trkpt>
      <trkpt lat="40.1323778741061687469482421875" lon="-0.80159300006926059722900390625">
        <ele>964.79998779296875</ele>
        <time>2022-05-06T12:52:44.000Z</time>
      </trkpt>
      <trkpt lat="40.1323279179632663726806640625" lon="-0.80154798924922943115234375">
        <ele>964.79998779296875</ele>
        <time>2022-05-06T12:52:45.000Z</time>
      </trkpt>
      <trkpt lat="40.1322238147258758544921875" lon="-0.80145369283854961395263671875">
        <ele>964.79998779296875</ele>
        <time>2022-05-06T12:52:47.000Z</time>
      </trkpt>
      <trkpt lat="40.1321733556687831878662109375" lon="-0.8014056645333766937255859375">
        <ele>964.79998779296875</ele>
        <time>2022-05-06T12:52:48.000Z</time>
      </trkpt>
      <trkpt lat="40.13212029822170734405517578125" lon="-0.801358558237552642822265625">
        <ele>964.79998779296875</ele>
        <time>2022-05-06T12:52:49.000Z</time>
      </trkpt>
      <trkpt lat="40.13206900097429752349853515625" lon="-0.80131254158914089202880859375">
        <ele>964.79998779296875</ele>
        <time>2022-05-06T12:52:50.000Z</time>
      </trkpt>
      <trkpt lat="40.1320164464414119720458984375" lon="-0.801267363131046295166015625">
        <ele>964.5999755859375</ele>
        <time>2022-05-06T12:52:51.000Z</time>
      </trkpt>
      <trkpt lat="40.1319068111479282379150390625" lon="-0.80117675475776195526123046875">
        <ele>964.4000244140625</ele>
        <time>2022-05-06T12:52:53.000Z</time>
      </trkpt>
      <trkpt lat="40.13179155997931957244873046875" lon="-0.8010814525187015533447265625">
        <ele>964.20001220703125</ele>
        <time>2022-05-06T12:52:55.000Z</time>
      </trkpt>
      <trkpt lat="40.1316670887172222137451171875" lon="-0.800984390079975128173828125">
        <ele>964</ele>
        <time>2022-05-06T12:52:57.000Z</time>
      </trkpt>
      <trkpt lat="40.13160531409084796905517578125" lon="-0.80093552358448505401611328125">
        <ele>964.20001220703125</ele>
        <time>2022-05-06T12:52:58.000Z</time>
      </trkpt>
      <trkpt lat="40.131542198359966278076171875" lon="-0.8008846454322338104248046875">
        <ele>964.20001220703125</ele>
        <time>2022-05-06T12:52:59.000Z</time>
      </trkpt>
      <trkpt lat="40.13141370378434658050537109375" lon="-0.80077148973941802978515625">
        <ele>964.20001220703125</ele>
        <time>2022-05-06T12:53:01.000Z</time>
      </trkpt>
      <trkpt lat="40.131283365190029144287109375" lon="-0.800655148923397064208984375">
        <ele>964.20001220703125</ele>
        <time>2022-05-06T12:53:03.000Z</time>
      </trkpt>
      <trkpt lat="40.1311477459967136383056640625" lon="-0.80054081976413726806640625">
        <ele>964.5999755859375</ele>
        <time>2022-05-06T12:53:05.000Z</time>
      </trkpt>
      <trkpt lat="40.1310139708220958709716796875" lon="-0.8004263229668140411376953125">
        <ele>964.79998779296875</ele>
        <time>2022-05-06T12:53:07.000Z</time>
      </trkpt>
      <trkpt lat="40.130874998867511749267578125" lon="-0.80031308345496654510498046875">
        <ele>965</ele>
        <time>2022-05-06T12:53:09.000Z</time>
      </trkpt>
      <trkpt lat="40.13073292560875415802001953125" lon="-0.80019959248602390289306640625">
        <ele>965.20001220703125</ele>
        <time>2022-05-06T12:53:11.000Z</time>
      </trkpt>
      <trkpt lat="40.13066117651760578155517578125" lon="-0.8001423440873622894287109375">
        <ele>965.20001220703125</ele>
        <time>2022-05-06T12:53:12.000Z</time>
      </trkpt>
      <trkpt lat="40.130591690540313720703125" lon="-0.8000886999070644378662109375">
        <ele>965.20001220703125</ele>
        <time>2022-05-06T12:53:13.000Z</time>
      </trkpt>
      <trkpt lat="40.13045682571828365325927734375" lon="-0.79997730441391468048095703125">
        <ele>965.20001220703125</ele>
        <time>2022-05-06T12:53:15.000Z</time>
      </trkpt>
      <trkpt lat="40.1303159259259700775146484375" lon="-0.79986331053078174591064453125">
        <ele>965</ele>
        <time>2022-05-06T12:53:17.000Z</time>
      </trkpt>
      <trkpt lat="40.13017351739108562469482421875" lon="-0.79975065775215625762939453125">
        <ele>964.79998779296875</ele>
        <time>2022-05-06T12:53:19.000Z</time>
      </trkpt>
      <trkpt lat="40.13009883463382720947265625" lon="-0.79969416372478008270263671875">
        <ele>964.79998779296875</ele>
        <time>2022-05-06T12:53:20.000Z</time>
      </trkpt>
      <trkpt lat="40.13002582825720310211181640625" lon="-0.79963549040257930755615234375">
        <ele>964.79998779296875</ele>
        <time>2022-05-06T12:53:21.000Z</time>
      </trkpt>
      <trkpt lat="40.1298830844461917877197265625" lon="-0.7995147071778774261474609375">
        <ele>964.79998779296875</ele>
        <time>2022-05-06T12:53:23.000Z</time>
      </trkpt>
      <trkpt lat="40.1297436095774173736572265625" lon="-0.7993943430483341217041015625">
        <ele>964.4000244140625</ele>
        <time>2022-05-06T12:53:25.000Z</time>
      </trkpt>
      <trkpt lat="40.12960036285221576690673828125" lon="-0.7992728054523468017578125">
        <ele>963.79998779296875</ele>
        <time>2022-05-06T12:53:27.000Z</time>
      </trkpt>
      <trkpt lat="40.12952643446624279022216796875" lon="-0.7992109470069408416748046875">
        <ele>963.5999755859375</ele>
        <time>2022-05-06T12:53:28.000Z</time>
      </trkpt>
      <trkpt lat="40.12945108115673065185546875" lon="-0.79914548434317111968994140625">
        <ele>963.20001220703125</ele>
        <time>2022-05-06T12:53:29.000Z</time>
      </trkpt>
      <trkpt lat="40.12929928489029407501220703125" lon="-0.7990127988159656524658203125">
        <ele>963</ele>
        <time>2022-05-06T12:53:31.000Z</time>
      </trkpt>
      <trkpt lat="40.129225440323352813720703125" lon="-0.79894834198057651519775390625">
        <ele>963</ele>
        <time>2022-05-06T12:53:32.000Z</time>
      </trkpt>
      <trkpt lat="40.129152350127696990966796875" lon="-0.7988865673542022705078125">
        <ele>963</ele>
        <time>2022-05-06T12:53:33.000Z</time>
      </trkpt>
      <trkpt lat="40.1290013082325458526611328125" lon="-0.798756144940853118896484375">
        <ele>963</ele>
        <time>2022-05-06T12:53:35.000Z</time>
      </trkpt>
      <trkpt lat="40.12884783558547496795654296875" lon="-0.798620022833347320556640625">
        <ele>962.79998779296875</ele>
        <time>2022-05-06T12:53:37.000Z</time>
      </trkpt>
      <trkpt lat="40.1286958716809749603271484375" lon="-0.79849270172417163848876953125">
        <ele>962.79998779296875</ele>
        <time>2022-05-06T12:53:39.000Z</time>
      </trkpt>
      <trkpt lat="40.1285453327000141143798828125" lon="-0.79837091267108917236328125">
        <ele>963</ele>
        <time>2022-05-06T12:53:41.000Z</time>
      </trkpt>
      <trkpt lat="40.12839890085160732269287109375" lon="-0.79824476502835750579833984375">
        <ele>962.5999755859375</ele>
        <time>2022-05-06T12:53:43.000Z</time>
      </trkpt>
      <trkpt lat="40.12824735604226589202880859375" lon="-0.79811484552919864654541015625">
        <ele>962</ele>
        <time>2022-05-06T12:53:45.000Z</time>
      </trkpt>
      <trkpt lat="40.12808659113943576812744140625" lon="-0.79797796905040740966796875">
        <ele>961.5999755859375</ele>
        <time>2022-05-06T12:53:47.000Z</time>
      </trkpt>
      <trkpt lat="40.12800478376448154449462890625" lon="-0.7979070581495761871337890625">
        <ele>961.4000244140625</ele>
        <time>2022-05-06T12:53:48.000Z</time>
      </trkpt>
      <trkpt lat="40.127924568951129913330078125" lon="-0.7978379912674427032470703125">
        <ele>961</ele>
        <time>2022-05-06T12:53:49.000Z</time>
      </trkpt>
      <trkpt lat="40.127845108509063720703125" lon="-0.7977695949375629425048828125">
        <ele>960.5999755859375</ele>
        <time>2022-05-06T12:53:50.000Z</time>
      </trkpt>
      <trkpt lat="40.1277634687721729278564453125" lon="-0.79770429991185665130615234375">
        <ele>960.4000244140625</ele>
        <time>2022-05-06T12:53:51.000Z</time>
      </trkpt>
      <trkpt lat="40.12760546989738941192626953125" lon="-0.79757169820368289947509765625">
        <ele>959.79998779296875</ele>
        <time>2022-05-06T12:53:53.000Z</time>
      </trkpt>
      <trkpt lat="40.1275257579982280731201171875" lon="-0.79750430770218372344970703125">
        <ele>959.4000244140625</ele>
        <time>2022-05-06T12:53:54.000Z</time>
      </trkpt>
      <trkpt lat="40.127445794641971588134765625" lon="-0.79743750393390655517578125">
        <ele>959</ele>
        <time>2022-05-06T12:53:55.000Z</time>
      </trkpt>
      <trkpt lat="40.127284526824951171875" lon="-0.7973012141883373260498046875">
        <ele>958.4000244140625</ele>
        <time>2022-05-06T12:53:57.000Z</time>
      </trkpt>
      <trkpt lat="40.127126276493072509765625" lon="-0.79717037267982959747314453125">
        <ele>957.79998779296875</ele>
        <time>2022-05-06T12:53:59.000Z</time>
      </trkpt>
      <trkpt lat="40.127047486603260040283203125" lon="-0.79710633493959903717041015625">
        <ele>958</ele>
        <time>2022-05-06T12:54:00.000Z</time>
      </trkpt>
      <trkpt lat="40.12697179801762104034423828125" lon="-0.7970460690557956695556640625">
        <ele>958.20001220703125</ele>
        <time>2022-05-06T12:54:01.000Z</time>
      </trkpt>
      <trkpt lat="40.1268206723034381866455078125" lon="-0.796922855079174041748046875">
        <ele>958.5999755859375</ele>
        <time>2022-05-06T12:54:03.000Z</time>
      </trkpt>
      <trkpt lat="40.12666552327573299407958984375" lon="-0.7968143932521343231201171875">
        <ele>959.20001220703125</ele>
        <time>2022-05-06T12:54:05.000Z</time>
      </trkpt>
      <trkpt lat="40.12650609947741031646728515625" lon="-0.796702913939952850341796875">
        <ele>959</ele>
        <time>2022-05-06T12:54:07.000Z</time>
      </trkpt>
      <trkpt lat="40.12642445974051952362060546875" lon="-0.79664700664579868316650390625">
        <ele>959</ele>
        <time>2022-05-06T12:54:08.000Z</time>
      </trkpt>
      <trkpt lat="40.12634298764169216156005859375" lon="-0.7965907640755176544189453125">
        <ele>958.79998779296875</ele>
        <time>2022-05-06T12:54:09.000Z</time>
      </trkpt>
      <trkpt lat="40.126182138919830322265625" lon="-0.79648154787719249725341796875">
        <ele>958.79998779296875</ele>
        <time>2022-05-06T12:54:11.000Z</time>
      </trkpt>
      <trkpt lat="40.1260220445692539215087890625" lon="-0.796379037201404571533203125">
        <ele>958.5999755859375</ele>
        <time>2022-05-06T12:54:13.000Z</time>
      </trkpt>
      <trkpt lat="40.125861950218677520751953125" lon="-0.79626546241343021392822265625">
        <ele>958.20001220703125</ele>
        <time>2022-05-06T12:54:15.000Z</time>
      </trkpt>
      <trkpt lat="40.125703699886798858642578125" lon="-0.79616102389991283416748046875">
        <ele>958</ele>
        <time>2022-05-06T12:54:17.000Z</time>
      </trkpt>
      <trkpt lat="40.12554645538330078125" lon="-0.79605356790125370025634765625">
        <ele>957.20001220703125</ele>
        <time>2022-05-06T12:54:19.000Z</time>
      </trkpt>
      <trkpt lat="40.12539214454591274261474609375" lon="-0.7959450222551822662353515625">
        <ele>956.4000244140625</ele>
        <time>2022-05-06T12:54:21.000Z</time>
      </trkpt>
      <trkpt lat="40.12523473240435123443603515625" lon="-0.7958434335887432098388671875">
        <ele>955.4000244140625</ele>
        <time>2022-05-06T12:54:23.000Z</time>
      </trkpt>
      <trkpt lat="40.12508176267147064208984375" lon="-0.79574360512197017669677734375">
        <ele>955</ele>
        <time>2022-05-06T12:54:25.000Z</time>
      </trkpt>
      <trkpt lat="40.124926865100860595703125" lon="-0.7956335507333278656005859375">
        <ele>954.79998779296875</ele>
        <time>2022-05-06T12:54:27.000Z</time>
      </trkpt>
      <trkpt lat="40.12484732083976268768310546875" lon="-0.7955735363066196441650390625">
        <ele>954.5999755859375</ele>
        <time>2022-05-06T12:54:28.000Z</time>
      </trkpt>
      <trkpt lat="40.12477037496864795684814453125" lon="-0.79550891183316707611083984375">
        <ele>954.5999755859375</ele>
        <time>2022-05-06T12:54:29.000Z</time>
      </trkpt>
      <trkpt lat="40.12462486512959003448486328125" lon="-0.79536683857440948486328125">
        <ele>954.20001220703125</ele>
        <time>2022-05-06T12:54:31.000Z</time>
      </trkpt>
      <trkpt lat="40.12455596588551998138427734375" lon="-0.7952912338078022003173828125">
        <ele>953.5999755859375</ele>
        <time>2022-05-06T12:54:32.000Z</time>
      </trkpt>
      <trkpt lat="40.1244891621172428131103515625" lon="-0.79521638341248035430908203125">
        <ele>953.20001220703125</ele>
        <time>2022-05-06T12:54:33.000Z</time>
      </trkpt>
      <trkpt lat="40.1243594102561473846435546875" lon="-0.795066766440868377685546875">
        <ele>952</ele>
        <time>2022-05-06T12:54:35.000Z</time>
      </trkpt>
      <trkpt lat="40.12423963285982608795166015625" lon="-0.79491949640214443206787109375">
        <ele>951.5999755859375</ele>
        <time>2022-05-06T12:54:37.000Z</time>
      </trkpt>
      <trkpt lat="40.12412664480507373809814453125" lon="-0.7947782613337039947509765625">
        <ele>951.5999755859375</ele>
        <time>2022-05-06T12:54:39.000Z</time>
      </trkpt>
      <trkpt lat="40.12401818297803401947021484375" lon="-0.79463333822786808013916015625">
        <ele>951.5999755859375</ele>
        <time>2022-05-06T12:54:41.000Z</time>
      </trkpt>
      <trkpt lat="40.1239034347236156463623046875" lon="-0.79448732547461986541748046875">
        <ele>951.5999755859375</ele>
        <time>2022-05-06T12:54:43.000Z</time>
      </trkpt>
      <trkpt lat="40.12378952465951442718505859375" lon="-0.79433980397880077362060546875">
        <ele>952</ele>
        <time>2022-05-06T12:54:45.000Z</time>
      </trkpt>
      <trkpt lat="40.1237317733466625213623046875" lon="-0.79426503740251064300537109375">
        <ele>952.4000244140625</ele>
        <time>2022-05-06T12:54:46.000Z</time>
      </trkpt>
      <trkpt lat="40.12367360293865203857421875" lon="-0.79419077374041080474853515625">
        <ele>953.20001220703125</ele>
        <time>2022-05-06T12:54:47.000Z</time>
      </trkpt>
      <trkpt lat="40.12355851940810680389404296875" lon="-0.794044844806194305419921875">
        <ele>954.20001220703125</ele>
        <time>2022-05-06T12:54:49.000Z</time>
      </trkpt>
      <trkpt lat="40.12344134040176868438720703125" lon="-0.79389355145394802093505859375">
        <ele>953.5999755859375</ele>
        <time>2022-05-06T12:54:51.000Z</time>
      </trkpt>
      <trkpt lat="40.1233220659196376800537109375" lon="-0.79373999498784542083740234375">
        <ele>954</ele>
        <time>2022-05-06T12:54:53.000Z</time>
      </trkpt>
      <trkpt lat="40.123260878026485443115234375" lon="-0.79366221092641353607177734375">
        <ele>954.20001220703125</ele>
        <time>2022-05-06T12:54:54.000Z</time>
      </trkpt>
      <trkpt lat="40.123201869428157806396484375" lon="-0.7935809902846813201904296875">
        <ele>954.20001220703125</ele>
        <time>2022-05-06T12:54:55.000Z</time>
      </trkpt>
      <trkpt lat="40.1230873726308345794677734375" lon="-0.79342835582792758941650390625">
        <ele>953.5999755859375</ele>
        <time>2022-05-06T12:54:57.000Z</time>
      </trkpt>
      <trkpt lat="40.122972540557384490966796875" lon="-0.793271027505397796630859375">
        <ele>953</ele>
        <time>2022-05-06T12:54:59.000Z</time>
      </trkpt>
      <trkpt lat="40.1228597201406955718994140625" lon="-0.7931173034012317657470703125">
        <ele>952.20001220703125</ele>
        <time>2022-05-06T12:55:01.000Z</time>
      </trkpt>
      <trkpt lat="40.12280515395104885101318359375" lon="-0.793040692806243896484375">
        <ele>951.5999755859375</ele>
        <time>2022-05-06T12:55:02.000Z</time>
      </trkpt>
      <trkpt lat="40.12275000102818012237548828125" lon="-0.792966596782207489013671875">
        <ele>951.20001220703125</ele>
        <time>2022-05-06T12:55:03.000Z</time>
      </trkpt>
      <trkpt lat="40.12263986282050609588623046875" lon="-0.7928202487528324127197265625">
        <ele>950.20001220703125</ele>
        <time>2022-05-06T12:55:05.000Z</time>
      </trkpt>
      <trkpt lat="40.1225244440138339996337890625" lon="-0.7926740683615207672119140625">
        <ele>949.20001220703125</ele>
        <time>2022-05-06T12:55:07.000Z</time>
      </trkpt>
      <trkpt lat="40.1224134676158428192138671875" lon="-0.79252763651311397552490234375">
        <ele>948.4000244140625</ele>
        <time>2022-05-06T12:55:09.000Z</time>
      </trkpt>
      <trkpt lat="40.12235789559781551361083984375" lon="-0.79245555214583873748779296875">
        <ele>948.20001220703125</ele>
        <time>2022-05-06T12:55:10.000Z</time>
      </trkpt>
      <trkpt lat="40.12230441905558109283447265625" lon="-0.79238288104534149169921875">
        <ele>947.79998779296875</ele>
        <time>2022-05-06T12:55:11.000Z</time>
      </trkpt>
      <trkpt lat="40.1222003996372222900390625" lon="-0.792238712310791015625">
        <ele>947.20001220703125</ele>
        <time>2022-05-06T12:55:13.000Z</time>
      </trkpt>
      <trkpt lat="40.1221013255417346954345703125" lon="-0.79209144227206707000732421875">
        <ele>946</ele>
        <time>2022-05-06T12:55:15.000Z</time>
      </trkpt>
      <trkpt lat="40.1220057718455791473388671875" lon="-0.7919396460056304931640625">
        <ele>944.5999755859375</ele>
        <time>2022-05-06T12:55:17.000Z</time>
      </trkpt>
      <trkpt lat="40.1219259761273860931396484375" lon="-0.7917808927595615386962890625">
        <ele>943.4000244140625</ele>
        <time>2022-05-06T12:55:19.000Z</time>
      </trkpt>
      <trkpt lat="40.12185984291136264801025390625" lon="-0.79162239097058773040771484375">
        <ele>942</ele>
        <time>2022-05-06T12:55:21.000Z</time>
      </trkpt>
      <trkpt lat="40.12180871330201625823974609375" lon="-0.79146296717226505279541015625">
        <ele>942.79998779296875</ele>
        <time>2022-05-06T12:55:23.000Z</time>
      </trkpt>
      <trkpt lat="40.1217647083103656768798828125" lon="-0.79130086116492748260498046875">
        <ele>943.4000244140625</ele>
        <time>2022-05-06T12:55:25.000Z</time>
      </trkpt>
      <trkpt lat="40.12172824703156948089599609375" lon="-0.79113741405308246612548828125">
        <ele>944.20001220703125</ele>
        <time>2022-05-06T12:55:27.000Z</time>
      </trkpt>
      <trkpt lat="40.12170209549367427825927734375" lon="-0.7909701950848102569580078125">
        <ele>944.79998779296875</ele>
        <time>2022-05-06T12:55:29.000Z</time>
      </trkpt>
      <trkpt lat="40.12168918736279010772705078125" lon="-0.79088562168180942535400390625">
        <ele>944.79998779296875</ele>
        <time>2022-05-06T12:55:30.000Z</time>
      </trkpt>
      <trkpt lat="40.121676027774810791015625" lon="-0.79080104827880859375">
        <ele>944.79998779296875</ele>
        <time>2022-05-06T12:55:31.000Z</time>
      </trkpt>
      <trkpt lat="40.1216503791511058807373046875" lon="-0.79063332639634609222412109375">
        <ele>944.79998779296875</ele>
        <time>2022-05-06T12:55:33.000Z</time>
      </trkpt>
      <trkpt lat="40.1216225512325763702392578125" lon="-0.79047088511288166046142578125">
        <ele>945</ele>
        <time>2022-05-06T12:55:35.000Z</time>
      </trkpt>
      <trkpt lat="40.121600590646266937255859375" lon="-0.7903142273426055908203125">
        <ele>945.5999755859375</ele>
        <time>2022-05-06T12:55:37.000Z</time>
      </trkpt>
      <trkpt lat="40.12158860452473163604736328125" lon="-0.7902310788631439208984375">
        <ele>945.79998779296875</ele>
        <time>2022-05-06T12:55:38.000Z</time>
      </trkpt>
      <trkpt lat="40.12157536111772060394287109375" lon="-0.79015103168785572052001953125">
        <ele>945.79998779296875</ele>
        <time>2022-05-06T12:55:39.000Z</time>
      </trkpt>
      <trkpt lat="40.12154518626630306243896484375" lon="-0.7899963855743408203125">
        <ele>945.5999755859375</ele>
        <time>2022-05-06T12:55:41.000Z</time>
      </trkpt>
      <trkpt lat="40.12151534669101238250732421875" lon="-0.7898453436791896820068359375">
        <ele>945.5999755859375</ele>
        <time>2022-05-06T12:55:43.000Z</time>
      </trkpt>
      <trkpt lat="40.12148718349635601043701171875" lon="-0.7896884344518184661865234375">
        <ele>945.5999755859375</ele>
        <time>2022-05-06T12:55:45.000Z</time>
      </trkpt>
      <trkpt lat="40.12145943939685821533203125" lon="-0.7895358838140964508056640625">
        <ele>946</ele>
        <time>2022-05-06T12:55:47.000Z</time>
      </trkpt>
      <trkpt lat="40.12143018655478954315185546875" lon="-0.78938559629023075103759765625">
        <ele>946.5999755859375</ele>
        <time>2022-05-06T12:55:49.000Z</time>
      </trkpt>
      <trkpt lat="40.12140219099819660186767578125" lon="-0.78923120163381099700927734375">
        <ele>947.20001220703125</ele>
        <time>2022-05-06T12:55:51.000Z</time>
      </trkpt>
      <trkpt lat="40.12138701975345611572265625" lon="-0.7891573570668697357177734375">
        <ele>947.5999755859375</ele>
        <time>2022-05-06T12:55:52.000Z</time>
      </trkpt>
      <trkpt lat="40.121372602880001068115234375" lon="-0.7890839315950870513916015625">
        <ele>948</ele>
        <time>2022-05-06T12:55:53.000Z</time>
      </trkpt>
      <trkpt lat="40.12134670279920101165771484375" lon="-0.78893984667956829071044921875">
        <ele>948.5999755859375</ele>
        <time>2022-05-06T12:55:55.000Z</time>
      </trkpt>
      <trkpt lat="40.121332369744777679443359375" lon="-0.7888711988925933837890625">
        <ele>948.79998779296875</ele>
        <time>2022-05-06T12:55:56.000Z</time>
      </trkpt>
      <trkpt lat="40.121319629251956939697265625" lon="-0.78880540095269680023193359375">
        <ele>948.79998779296875</ele>
        <time>2022-05-06T12:55:57.000Z</time>
      </trkpt>
      <trkpt lat="40.12129389680922031402587890625" lon="-0.7886846177279949188232421875">
        <ele>949</ele>
        <time>2022-05-06T12:55:59.000Z</time>
      </trkpt>
      <trkpt lat="40.1212698407471179962158203125" lon="-0.78855897299945354461669921875">
        <ele>949.4000244140625</ele>
        <time>2022-05-06T12:56:01.000Z</time>
      </trkpt>
      <trkpt lat="40.12124754488468170166015625" lon="-0.78842218033969402313232421875">
        <ele>949.79998779296875</ele>
        <time>2022-05-06T12:56:03.000Z</time>
      </trkpt>
      <trkpt lat="40.12123388238251209259033203125" lon="-0.788352526724338531494140625">
        <ele>950.20001220703125</ele>
        <time>2022-05-06T12:56:04.000Z</time>
      </trkpt>
      <trkpt lat="40.12122164480388164520263671875" lon="-0.78828052617609500885009765625">
        <ele>950.4000244140625</ele>
        <time>2022-05-06T12:56:05.000Z</time>
      </trkpt>
      <trkpt lat="40.1211933977901935577392578125" lon="-0.7881404645740985870361328125">
        <ele>951</ele>
        <time>2022-05-06T12:56:07.000Z</time>
      </trkpt>
      <trkpt lat="40.12116934172809123992919921875" lon="-0.7879967987537384033203125">
        <ele>950.79998779296875</ele>
        <time>2022-05-06T12:56:09.000Z</time>
      </trkpt>
      <trkpt lat="40.12114562094211578369140625" lon="-0.78785221092402935028076171875">
        <ele>950.79998779296875</ele>
        <time>2022-05-06T12:56:11.000Z</time>
      </trkpt>
      <trkpt lat="40.1211209781467914581298828125" lon="-0.7877039350569248199462890625">
        <ele>951</ele>
        <time>2022-05-06T12:56:13.000Z</time>
      </trkpt>
      <trkpt lat="40.12109340168535709381103515625" lon="-0.78755448572337627410888671875">
        <ele>951.20001220703125</ele>
        <time>2022-05-06T12:56:15.000Z</time>
      </trkpt>
      <trkpt lat="40.121067501604557037353515625" lon="-0.78740696422755718231201171875">
        <ele>951.4000244140625</ele>
        <time>2022-05-06T12:56:17.000Z</time>
      </trkpt>
      <trkpt lat="40.1210552640259265899658203125" lon="-0.7873327843844890594482421875">
        <ele>951.4000244140625</ele>
        <time>2022-05-06T12:56:18.000Z</time>
      </trkpt>
      <trkpt lat="40.121041350066661834716796875" lon="-0.7872593589127063751220703125">
        <ele>951.4000244140625</ele>
        <time>2022-05-06T12:56:19.000Z</time>
      </trkpt>
      <trkpt lat="40.12101209722459316253662109375" lon="-0.7871192134916782379150390625">
        <ele>952.20001220703125</ele>
        <time>2022-05-06T12:56:21.000Z</time>
      </trkpt>
      <trkpt lat="40.12098602950572967529296875" lon="-0.78698334284126758575439453125">
        <ele>953.4000244140625</ele>
        <time>2022-05-06T12:56:23.000Z</time>
      </trkpt>
      <trkpt lat="40.12096515856683254241943359375" lon="-0.7868459634482860565185546875">
        <ele>954.4000244140625</ele>
        <time>2022-05-06T12:56:25.000Z</time>
      </trkpt>
      <trkpt lat="40.12094018049538135528564453125" lon="-0.78671059571206569671630859375">
        <ele>955.5999755859375</ele>
        <time>2022-05-06T12:56:27.000Z</time>
      </trkpt>
      <trkpt lat="40.12091872282326221466064453125" lon="-0.786576233804225921630859375">
        <ele>956</ele>
        <time>2022-05-06T12:56:29.000Z</time>
      </trkpt>
      <trkpt lat="40.12089894153177738189697265625" lon="-0.78644690103828907012939453125">
        <ele>956.20001220703125</ele>
        <time>2022-05-06T12:56:31.000Z</time>
      </trkpt>
      <trkpt lat="40.12088838033378124237060546875" lon="-0.78638504259288311004638671875">
        <ele>956.4000244140625</ele>
        <time>2022-05-06T12:56:32.000Z</time>
      </trkpt>
      <trkpt lat="40.1208762265741825103759765625" lon="-0.7863236032426357269287109375">
        <ele>957</ele>
        <time>2022-05-06T12:56:33.000Z</time>
      </trkpt>
      <trkpt lat="40.12084814719855785369873046875" lon="-0.78620030544698238372802734375">
        <ele>958.4000244140625</ele>
        <time>2022-05-06T12:56:35.000Z</time>
      </trkpt>
      <trkpt lat="40.12081948108971118927001953125" lon="-0.7860768400132656097412109375">
        <ele>959.79998779296875</ele>
        <time>2022-05-06T12:56:37.000Z</time>
      </trkpt>
      <trkpt lat="40.120803304016590118408203125" lon="-0.78601799905300140380859375">
        <ele>960.4000244140625</ele>
        <time>2022-05-06T12:56:38.000Z</time>
      </trkpt>
      <trkpt lat="40.12078461237251758575439453125" lon="-0.78596167266368865966796875">
        <ele>961</ele>
        <time>2022-05-06T12:56:39.000Z</time>
      </trkpt>
      <trkpt lat="40.12076516635715961456298828125" lon="-0.7859065197408199310302734375">
        <ele>961.5999755859375</ele>
        <time>2022-05-06T12:56:40.000Z</time>
      </trkpt>
      <trkpt lat="40.12074672617018222808837890625" lon="-0.7858522050082683563232421875">
        <ele>962</ele>
        <time>2022-05-06T12:56:41.000Z</time>
      </trkpt>
      <trkpt lat="40.1207116059958934783935546875" lon="-0.78574734739959239959716796875">
        <ele>963</ele>
        <time>2022-05-06T12:56:43.000Z</time>
      </trkpt>
      <trkpt lat="40.12069241143763065338134765625" lon="-0.7856969721615314483642578125">
        <ele>963.5999755859375</ele>
        <time>2022-05-06T12:56:44.000Z</time>
      </trkpt>
      <trkpt lat="40.120672546327114105224609375" lon="-0.7856473512947559356689453125">
        <ele>964</ele>
        <time>2022-05-06T12:56:45.000Z</time>
      </trkpt>
      <trkpt lat="40.1206368394196033477783203125" lon="-0.78555020503699779510498046875">
        <ele>965</ele>
        <time>2022-05-06T12:56:47.000Z</time>
      </trkpt>
      <trkpt lat="40.1206178963184356689453125" lon="-0.78550343401730060577392578125">
        <ele>965.20001220703125</ele>
        <time>2022-05-06T12:56:48.000Z</time>
      </trkpt>
      <trkpt lat="40.120598785579204559326171875" lon="-0.7854589261114597320556640625">
        <ele>965.20001220703125</ele>
        <time>2022-05-06T12:56:49.000Z</time>
      </trkpt>
      <trkpt lat="40.12056089937686920166015625" lon="-0.78536982648074626922607421875">
        <ele>965.5999755859375</ele>
        <time>2022-05-06T12:56:51.000Z</time>
      </trkpt>
      <trkpt lat="40.12051907368004322052001953125" lon="-0.7852808944880962371826171875">
        <ele>966.4000244140625</ele>
        <time>2022-05-06T12:56:53.000Z</time>
      </trkpt>
      <trkpt lat="40.1204769127070903778076171875" lon="-0.78519246540963649749755859375">
        <ele>967</ele>
        <time>2022-05-06T12:56:55.000Z</time>
      </trkpt>
      <trkpt lat="40.12043676339089870452880859375" lon="-0.78510629944503307342529296875">
        <ele>967.5999755859375</ele>
        <time>2022-05-06T12:56:57.000Z</time>
      </trkpt>
      <trkpt lat="40.1203961111605167388916015625" lon="-0.78501963056623935699462890625">
        <ele>968.20001220703125</ele>
        <time>2022-05-06T12:56:59.000Z</time>
      </trkpt>
      <trkpt lat="40.1203521899878978729248046875" lon="-0.7849355600774288177490234375">
        <ele>968.79998779296875</ele>
        <time>2022-05-06T12:57:01.000Z</time>
      </trkpt>
      <trkpt lat="40.1203303970396518707275390625" lon="-0.78489574603736400604248046875">
        <ele>969</ele>
        <time>2022-05-06T12:57:02.000Z</time>
      </trkpt>
      <trkpt lat="40.12030877172946929931640625" lon="-0.78485568054020404815673828125">
        <ele>969.4000244140625</ele>
        <time>2022-05-06T12:57:03.000Z</time>
      </trkpt>
      <trkpt lat="40.1202638447284698486328125" lon="-0.78477521426975727081298828125">
        <ele>969.79998779296875</ele>
        <time>2022-05-06T12:57:05.000Z</time>
      </trkpt>
      <trkpt lat="40.120217241346836090087890625" lon="-0.78469089232385158538818359375">
        <ele>970</ele>
        <time>2022-05-06T12:57:07.000Z</time>
      </trkpt>
      <trkpt lat="40.1201925985515117645263671875" lon="-0.78464563004672527313232421875">
        <ele>970.20001220703125</ele>
        <time>2022-05-06T12:57:08.000Z</time>
      </trkpt>
      <trkpt lat="40.1201671175658702850341796875" lon="-0.78459852375090122222900390625">
        <ele>970.20001220703125</ele>
        <time>2022-05-06T12:57:09.000Z</time>
      </trkpt>
      <trkpt lat="40.12011204846203327178955078125" lon="-0.78450263477861881256103515625">
        <ele>970.5999755859375</ele>
        <time>2022-05-06T12:57:11.000Z</time>
      </trkpt>
      <trkpt lat="40.12005136348307132720947265625" lon="-0.7844024710357189178466796875">
        <ele>970.79998779296875</ele>
        <time>2022-05-06T12:57:13.000Z</time>
      </trkpt>
      <trkpt lat="40.11998598463833332061767578125" lon="-0.78429736196994781494140625">
        <ele>971</ele>
        <time>2022-05-06T12:57:15.000Z</time>
      </trkpt>
      <trkpt lat="40.11995262466371059417724609375" lon="-0.78424128703773021697998046875">
        <ele>970.79998779296875</ele>
        <time>2022-05-06T12:57:16.000Z</time>
      </trkpt>
      <trkpt lat="40.11991918087005615234375" lon="-0.78418395482003688812255859375">
        <ele>970.79998779296875</ele>
        <time>2022-05-06T12:57:17.000Z</time>
      </trkpt>
      <trkpt lat="40.119852125644683837890625" lon="-0.78406535089015960693359375">
        <ele>970.5999755859375</ele>
        <time>2022-05-06T12:57:19.000Z</time>
      </trkpt>
      <trkpt lat="40.11978062801063060760498046875" lon="-0.78393526375293731689453125">
        <ele>970.4000244140625</ele>
        <time>2022-05-06T12:57:21.000Z</time>
      </trkpt>
      <trkpt lat="40.11970535852015018463134765625" lon="-0.783800818026065826416015625">
        <ele>970</ele>
        <time>2022-05-06T12:57:23.000Z</time>
      </trkpt>
      <trkpt lat="40.11966713704168796539306640625" lon="-0.78373066149652004241943359375">
        <ele>969.79998779296875</ele>
        <time>2022-05-06T12:57:24.000Z</time>
      </trkpt>
      <trkpt lat="40.11962891556322574615478515625" lon="-0.7836591638624668121337890625">
        <ele>969.5999755859375</ele>
        <time>2022-05-06T12:57:25.000Z</time>
      </trkpt>
      <trkpt lat="40.11954308487474918365478515625" lon="-0.78351222909986972808837890625">
        <ele>969.20001220703125</ele>
        <time>2022-05-06T12:57:27.000Z</time>
      </trkpt>
      <trkpt lat="40.11945155449211597442626953125" lon="-0.783355236053466796875">
        <ele>968.79998779296875</ele>
        <time>2022-05-06T12:57:29.000Z</time>
      </trkpt>
      <trkpt lat="40.1194030232727527618408203125" lon="-0.78327476978302001953125">
        <ele>968.5999755859375</ele>
        <time>2022-05-06T12:57:30.000Z</time>
      </trkpt>
      <trkpt lat="40.11935315094888210296630859375" lon="-0.78319237567484378814697265625">
        <ele>967.79998779296875</ele>
        <time>2022-05-06T12:57:31.000Z</time>
      </trkpt>
      <trkpt lat="40.119259022176265716552734375" lon="-0.78302691690623760223388671875">
        <ele>966.20001220703125</ele>
        <time>2022-05-06T12:57:33.000Z</time>
      </trkpt>
      <trkpt lat="40.1191582717001438140869140625" lon="-0.7828571833670139312744140625">
        <ele>964</ele>
        <time>2022-05-06T12:57:35.000Z</time>
      </trkpt>
      <trkpt lat="40.11910756118595600128173828125" lon="-0.78276984393596649169921875">
        <ele>963</ele>
        <time>2022-05-06T12:57:36.000Z</time>
      </trkpt>
      <trkpt lat="40.119055844843387603759765625" lon="-0.78268376179039478302001953125">
        <ele>961.79998779296875</ele>
        <time>2022-05-06T12:57:37.000Z</time>
      </trkpt>
      <trkpt lat="40.11895098723471164703369140625" lon="-0.78251260332763195037841796875">
        <ele>958.79998779296875</ele>
        <time>2022-05-06T12:57:39.000Z</time>
      </trkpt>
      <trkpt lat="40.11884503997862339019775390625" lon="-0.78232736326754093170166015625">
        <ele>956</ele>
        <time>2022-05-06T12:57:41.000Z</time>
      </trkpt>
      <trkpt lat="40.1187901385128498077392578125" lon="-0.78223071992397308349609375">
        <ele>954.4000244140625</ele>
        <time>2022-05-06T12:57:42.000Z</time>
      </trkpt>
      <trkpt lat="40.118734650313854217529296875" lon="-0.78213550150394439697265625">
        <ele>953</ele>
        <time>2022-05-06T12:57:43.000Z</time>
      </trkpt>
      <trkpt lat="40.1186801679432392120361328125" lon="-0.78204103745520114898681640625">
        <ele>952</ele>
        <time>2022-05-06T12:57:44.000Z</time>
      </trkpt>
      <trkpt lat="40.11862610466778278350830078125" lon="-0.78194640576839447021484375">
        <ele>950.79998779296875</ele>
        <time>2022-05-06T12:57:45.000Z</time>
      </trkpt>
      <trkpt lat="40.118520744144916534423828125" lon="-0.78176041133701801300048828125">
        <ele>948.5999755859375</ele>
        <time>2022-05-06T12:57:47.000Z</time>
      </trkpt>
      <trkpt lat="40.11841789819300174713134765625" lon="-0.781577937304973602294921875">
        <ele>947.4000244140625</ele>
        <time>2022-05-06T12:57:49.000Z</time>
      </trkpt>
      <trkpt lat="40.11831681244075298309326171875" lon="-0.7814012467861175537109375">
        <ele>947</ele>
        <time>2022-05-06T12:57:51.000Z</time>
      </trkpt>
      <trkpt lat="40.11826895177364349365234375" lon="-0.78131742775440216064453125">
        <ele>947.20001220703125</ele>
        <time>2022-05-06T12:57:52.000Z</time>
      </trkpt>
      <trkpt lat="40.11822360567748546600341796875" lon="-0.78123603947460651397705078125">
        <ele>947.5999755859375</ele>
        <time>2022-05-06T12:57:53.000Z</time>
      </trkpt>
      <trkpt lat="40.11813819408416748046875" lon="-0.78108298592269420623779296875">
        <ele>949</ele>
        <time>2022-05-06T12:57:55.000Z</time>
      </trkpt>
      <trkpt lat="40.11809754185378551483154296875" lon="-0.78100805170834064483642578125">
        <ele>950.20001220703125</ele>
        <time>2022-05-06T12:57:56.000Z</time>
      </trkpt>
      <trkpt lat="40.11805848218500614166259765625" lon="-0.78093546442687511444091796875">
        <ele>951.20001220703125</ele>
        <time>2022-05-06T12:57:57.000Z</time>
      </trkpt>
      <trkpt lat="40.118019841611385345458984375" lon="-0.78086824156343936920166015625">
        <ele>952.4000244140625</ele>
        <time>2022-05-06T12:57:58.000Z</time>
      </trkpt>
      <trkpt lat="40.11798153631389141082763671875" lon="-0.78080638311803340911865234375">
        <ele>953.4000244140625</ele>
        <time>2022-05-06T12:57:59.000Z</time>
      </trkpt>
      <trkpt lat="40.11791096068918704986572265625" lon="-0.78069004230201244354248046875">
        <ele>955</ele>
        <time>2022-05-06T12:58:01.000Z</time>
      </trkpt>
      <trkpt lat="40.11784642003476619720458984375" lon="-0.78058275394141674041748046875">
        <ele>956.4000244140625</ele>
        <time>2022-05-06T12:58:03.000Z</time>
      </trkpt>
      <trkpt lat="40.11781456880271434783935546875" lon="-0.78052625991404056549072265625">
        <ele>957.5999755859375</ele>
        <time>2022-05-06T12:58:04.000Z</time>
      </trkpt>
      <trkpt lat="40.1177854835987091064453125" lon="-0.7804696820676326751708984375">
        <ele>958.79998779296875</ele>
        <time>2022-05-06T12:58:05.000Z</time>
      </trkpt>
      <trkpt lat="40.117727480828762054443359375" lon="-0.7803617231547832489013671875">
        <ele>961.20001220703125</ele>
        <time>2022-05-06T12:58:07.000Z</time>
      </trkpt>
      <trkpt lat="40.117667131125926971435546875" lon="-0.7802601344883441925048828125">
        <ele>963.4000244140625</ele>
        <time>2022-05-06T12:58:09.000Z</time>
      </trkpt>
      <trkpt lat="40.11763972230255603790283203125" lon="-0.7802076637744903564453125">
        <ele>964.4000244140625</ele>
        <time>2022-05-06T12:58:10.000Z</time>
      </trkpt>
      <trkpt lat="40.11761248111724853515625" lon="-0.78015544451773166656494140625">
        <ele>965.5999755859375</ele>
        <time>2022-05-06T12:58:11.000Z</time>
      </trkpt>
      <trkpt lat="40.11758423410356044769287109375" lon="-0.7801042310893535614013671875">
        <ele>966.5999755859375</ele>
        <time>2022-05-06T12:58:12.000Z</time>
      </trkpt>
      <trkpt lat="40.117555148899555206298828125" lon="-0.78005016781389713287353515625">
        <ele>967.4000244140625</ele>
        <time>2022-05-06T12:58:13.000Z</time>
      </trkpt>
      <trkpt lat="40.1174919493496417999267578125" lon="-0.7799225114285945892333984375">
        <ele>968</ele>
        <time>2022-05-06T12:58:15.000Z</time>
      </trkpt>
      <trkpt lat="40.1174580864608287811279296875" lon="-0.77985989861190319061279296875">
        <ele>968.20001220703125</ele>
        <time>2022-05-06T12:58:16.000Z</time>
      </trkpt>
      <trkpt lat="40.1174252294003963470458984375" lon="-0.779796950519084930419921875">
        <ele>968.5999755859375</ele>
        <time>2022-05-06T12:58:17.000Z</time>
      </trkpt>
      <trkpt lat="40.11736513115465641021728515625" lon="-0.77966250479221343994140625">
        <ele>969</ele>
        <time>2022-05-06T12:58:19.000Z</time>
      </trkpt>
      <trkpt lat="40.11730494908988475799560546875" lon="-0.779522359371185302734375">
        <ele>969</ele>
        <time>2022-05-06T12:58:21.000Z</time>
      </trkpt>
      <trkpt lat="40.11724300682544708251953125" lon="-0.77937190420925617218017578125">
        <ele>968.20001220703125</ele>
        <time>2022-05-06T12:58:23.000Z</time>
      </trkpt>
      <trkpt lat="40.11717603541910648345947265625" lon="-0.77919772826135158538818359375">
        <ele>967.4000244140625</ele>
        <time>2022-05-06T12:58:25.000Z</time>
      </trkpt>
      <trkpt lat="40.11710562743246555328369140625" lon="-0.7789937965571880340576171875">
        <ele>966.4000244140625</ele>
        <time>2022-05-06T12:58:27.000Z</time>
      </trkpt>
      <trkpt lat="40.11706790886819362640380859375" lon="-0.77888340689241886138916015625">
        <ele>965.79998779296875</ele>
        <time>2022-05-06T12:58:28.000Z</time>
      </trkpt>
      <trkpt lat="40.1170269213616847991943359375" lon="-0.77876689843833446502685546875">
        <ele>964</ele>
        <time>2022-05-06T12:58:29.000Z</time>
      </trkpt>
      <trkpt lat="40.1169387437403202056884765625" lon="-0.7785280980169773101806640625">
        <ele>960.20001220703125</ele>
        <time>2022-05-06T12:58:31.000Z</time>
      </trkpt>
      <trkpt lat="40.1168525777757167816162109375" lon="-0.77828460372984409332275390625">
        <ele>956.20001220703125</ele>
        <time>2022-05-06T12:58:33.000Z</time>
      </trkpt>
      <trkpt lat="40.11680857278406620025634765625" lon="-0.77815837226808071136474609375">
        <ele>954.79998779296875</ele>
        <time>2022-05-06T12:58:34.000Z</time>
      </trkpt>
      <trkpt lat="40.1167647354304790496826171875" lon="-0.77803331427276134490966796875">
        <ele>953.4000244140625</ele>
        <time>2022-05-06T12:58:35.000Z</time>
      </trkpt>
      <trkpt lat="40.1166804134845733642578125" lon="-0.77779158018529415130615234375">
        <ele>951</ele>
        <time>2022-05-06T12:58:37.000Z</time>
      </trkpt>
      <trkpt lat="40.1165984384715557098388671875" lon="-0.77755789272487163543701171875">
        <ele>950.5999755859375</ele>
        <time>2022-05-06T12:58:39.000Z</time>
      </trkpt>
      <trkpt lat="40.11651805602014064788818359375" lon="-0.777322612702846527099609375">
        <ele>952</ele>
        <time>2022-05-06T12:58:41.000Z</time>
      </trkpt>
      <trkpt lat="40.11647899635136127471923828125" lon="-0.7772040925920009613037109375">
        <ele>952.79998779296875</ele>
        <time>2022-05-06T12:58:42.000Z</time>
      </trkpt>
      <trkpt lat="40.11643876321613788604736328125" lon="-0.777087248861789703369140625">
        <ele>952.79998779296875</ele>
        <time>2022-05-06T12:58:43.000Z</time>
      </trkpt>
      <trkpt lat="40.11635578237473964691162109375" lon="-0.776859261095523834228515625">
        <ele>952.20001220703125</ele>
        <time>2022-05-06T12:58:45.000Z</time>
      </trkpt>
      <trkpt lat="40.1162779144942760467529296875" lon="-0.77663688920438289642333984375">
        <ele>951.4000244140625</ele>
        <time>2022-05-06T12:58:47.000Z</time>
      </trkpt>
      <trkpt lat="40.116241537034511566162109375" lon="-0.776522643864154815673828125">
        <ele>951.20001220703125</ele>
        <time>2022-05-06T12:58:48.000Z</time>
      </trkpt>
      <trkpt lat="40.11620557866990566253662109375" lon="-0.77640764415264129638671875">
        <ele>950.4000244140625</ele>
        <time>2022-05-06T12:58:49.000Z</time>
      </trkpt>
      <trkpt lat="40.1161270402371883392333984375" lon="-0.7761804945766925811767578125">
        <ele>948</ele>
        <time>2022-05-06T12:58:51.000Z</time>
      </trkpt>
      <trkpt lat="40.11604942381381988525390625" lon="-0.77595795504748821258544921875">
        <ele>945.79998779296875</ele>
        <time>2022-05-06T12:58:53.000Z</time>
      </trkpt>
      <trkpt lat="40.11597457341849803924560546875" lon="-0.77574555762112140655517578125">
        <ele>943.79998779296875</ele>
        <time>2022-05-06T12:58:55.000Z</time>
      </trkpt>
      <trkpt lat="40.115903913974761962890625" lon="-0.7755427993834018707275390625">
        <ele>942.79998779296875</ele>
        <time>2022-05-06T12:58:57.000Z</time>
      </trkpt>
      <trkpt lat="40.11583694256842136383056640625" lon="-0.77534523792564868927001953125">
        <ele>941.79998779296875</ele>
        <time>2022-05-06T12:58:59.000Z</time>
      </trkpt>
      <trkpt lat="40.11580442078411579132080078125" lon="-0.7752487622201442718505859375">
        <ele>941.4000244140625</ele>
        <time>2022-05-06T12:59:00.000Z</time>
      </trkpt>
      <trkpt lat="40.11577173136174678802490234375" lon="-0.7751535438001155853271484375">
        <ele>941.20001220703125</ele>
        <time>2022-05-06T12:59:01.000Z</time>
      </trkpt>
      <trkpt lat="40.1157055981457233428955078125" lon="-0.77496419660747051239013671875">
        <ele>941.4000244140625</ele>
        <time>2022-05-06T12:59:03.000Z</time>
      </trkpt>
      <trkpt lat="40.11564038693904876708984375" lon="-0.77477459795773029327392578125">
        <ele>941.4000244140625</ele>
        <time>2022-05-06T12:59:05.000Z</time>
      </trkpt>
      <trkpt lat="40.11557257734239101409912109375" lon="-0.774584747850894927978515625">
        <ele>941.4000244140625</ele>
        <time>2022-05-06T12:59:07.000Z</time>
      </trkpt>
      <trkpt lat="40.11550317518413066864013671875" lon="-0.77439137734472751617431640625">
        <ele>941</ele>
        <time>2022-05-06T12:59:09.000Z</time>
      </trkpt>
      <trkpt lat="40.11543477885425090789794921875" lon="-0.7741973362863063812255859375">
        <ele>940.5999755859375</ele>
        <time>2022-05-06T12:59:11.000Z</time>
      </trkpt>
      <trkpt lat="40.1153673045337200164794921875" lon="-0.77400580979883670806884765625">
        <ele>940</ele>
        <time>2022-05-06T12:59:13.000Z</time>
      </trkpt>
      <trkpt lat="40.1152963936328887939453125" lon="-0.7738214917480945587158203125">
        <ele>941.4000244140625</ele>
        <time>2022-05-06T12:59:15.000Z</time>
      </trkpt>
      <trkpt lat="40.115226320922374725341796875" lon="-0.77364136464893817901611328125">
        <ele>943.20001220703125</ele>
        <time>2022-05-06T12:59:17.000Z</time>
      </trkpt>
      <trkpt lat="40.11515566147863864898681640625" lon="-0.7734684459865093231201171875">
        <ele>944.79998779296875</ele>
        <time>2022-05-06T12:59:19.000Z</time>
      </trkpt>
      <trkpt lat="40.1151145063340663909912109375" lon="-0.773389153182506561279296875">
        <ele>945.79998779296875</ele>
        <time>2022-05-06T12:59:20.000Z</time>
      </trkpt>
      <trkpt lat="40.11506983079016208648681640625" lon="-0.773316062986850738525390625">
        <ele>946.5999755859375</ele>
        <time>2022-05-06T12:59:21.000Z</time>
      </trkpt>
      <trkpt lat="40.11498115025460720062255859375" lon="-0.77317432500422000885009765625">
        <ele>948.20001220703125</ele>
        <time>2022-05-06T12:59:23.000Z</time>
      </trkpt>
      <trkpt lat="40.114887692034244537353515625" lon="-0.77303342521190643310546875">
        <ele>950</ele>
        <time>2022-05-06T12:59:25.000Z</time>
      </trkpt>
      <trkpt lat="40.114831030368804931640625" lon="-0.77297315932810306549072265625">
        <ele>951</ele>
        <time>2022-05-06T12:59:26.000Z</time>
      </trkpt>
      <trkpt lat="40.11477177031338214874267578125" lon="-0.77291767112910747528076171875">
        <ele>952</ele>
        <time>2022-05-06T12:59:27.000Z</time>
      </trkpt>
      <trkpt lat="40.11464755050837993621826171875" lon="-0.7728101313114166259765625">
        <ele>952.5999755859375</ele>
        <time>2022-05-06T12:59:29.000Z</time>
      </trkpt>
      <trkpt lat="40.1145153678953647613525390625" lon="-0.77271281741559505462646484375">
        <ele>953</ele>
        <time>2022-05-06T12:59:31.000Z</time>
      </trkpt>
      <trkpt lat="40.11444722302258014678955078125" lon="-0.77266956679522991180419921875">
        <ele>953.20001220703125</ele>
        <time>2022-05-06T12:59:32.000Z</time>
      </trkpt>
      <trkpt lat="40.11437865905463695526123046875" lon="-0.77263168059289455413818359375">
        <ele>953.4000244140625</ele>
        <time>2022-05-06T12:59:33.000Z</time>
      </trkpt>
      <trkpt lat="40.11423717252910137176513671875" lon="-0.77256940305233001708984375">
        <ele>953.79998779296875</ele>
        <time>2022-05-06T12:59:35.000Z</time>
      </trkpt>
      <trkpt lat="40.11409275233745574951171875" lon="-0.772513411939144134521484375">
        <ele>953.5999755859375</ele>
        <time>2022-05-06T12:59:37.000Z</time>
      </trkpt>
      <trkpt lat="40.1140201650559902191162109375" lon="-0.7724907808005809783935546875">
        <ele>953.4000244140625</ele>
        <time>2022-05-06T12:59:38.000Z</time>
      </trkpt>
      <trkpt lat="40.1139467395842075347900390625" lon="-0.7724736817181110382080078125">
        <ele>953.4000244140625</ele>
        <time>2022-05-06T12:59:39.000Z</time>
      </trkpt>
      <trkpt lat="40.1138042472302913665771484375" lon="-0.77245247550308704376220703125">
        <ele>953.20001220703125</ele>
        <time>2022-05-06T12:59:41.000Z</time>
      </trkpt>
      <trkpt lat="40.11366385035216808319091796875" lon="-0.77244828455150127410888671875">
        <ele>952.5999755859375</ele>
        <time>2022-05-06T12:59:43.000Z</time>
      </trkpt>
      <trkpt lat="40.1135279797017574310302734375" lon="-0.77245750464498996734619140625">
        <ele>952</ele>
        <time>2022-05-06T12:59:45.000Z</time>
      </trkpt>
      <trkpt lat="40.113404430449008941650390625" lon="-0.77248298563063144683837890625">
        <ele>951.5999755859375</ele>
        <time>2022-05-06T12:59:47.000Z</time>
      </trkpt>
      <trkpt lat="40.1132795400917530059814453125" lon="-0.7725142501294612884521484375">
        <ele>951.4000244140625</ele>
        <time>2022-05-06T12:59:49.000Z</time>
      </trkpt>
      <trkpt lat="40.1131534762680530548095703125" lon="-0.77255289070308208465576171875">
        <ele>951.20001220703125</ele>
        <time>2022-05-06T12:59:51.000Z</time>
      </trkpt>
      <trkpt lat="40.11302732862532138824462890625" lon="-0.77260066755115985870361328125">
        <ele>951.20001220703125</ele>
        <time>2022-05-06T12:59:53.000Z</time>
      </trkpt>
      <trkpt lat="40.1129003427922725677490234375" lon="-0.77265649102628231048583984375">
        <ele>951</ele>
        <time>2022-05-06T12:59:55.000Z</time>
      </trkpt>
      <trkpt lat="40.11283789761364459991455078125" lon="-0.7726879231631755828857421875">
        <ele>950.79998779296875</ele>
        <time>2022-05-06T12:59:56.000Z</time>
      </trkpt>
      <trkpt lat="40.11277503333985805511474609375" lon="-0.77271826565265655517578125">
        <ele>950.5999755859375</ele>
        <time>2022-05-06T12:59:57.000Z</time>
      </trkpt>
      <trkpt lat="40.11264930479228496551513671875" lon="-0.772779285907745361328125">
        <ele>950.4000244140625</ele>
        <time>2022-05-06T12:59:59.000Z</time>
      </trkpt>
      <trkpt lat="40.11252508498728275299072265625" lon="-0.7728508673608303070068359375">
        <ele>950.20001220703125</ele>
        <time>2022-05-06T13:00:01.000Z</time>
      </trkpt>
      <trkpt lat="40.1123977638781070709228515625" lon="-0.7729286514222621917724609375">
        <ele>950</ele>
        <time>2022-05-06T13:00:03.000Z</time>
      </trkpt>
      <trkpt lat="40.1123354025185108184814453125" lon="-0.7729722373187541961669921875">
        <ele>949.79998779296875</ele>
        <time>2022-05-06T13:00:04.000Z</time>
      </trkpt>
      <trkpt lat="40.11227329261600971221923828125" lon="-0.77302060090005397796630859375">
        <ele>949.79998779296875</ele>
        <time>2022-05-06T13:00:05.000Z</time>
      </trkpt>
      <trkpt lat="40.1121577061712741851806640625" lon="-0.7731227762997150421142578125">
        <ele>950.4000244140625</ele>
        <time>2022-05-06T13:00:07.000Z</time>
      </trkpt>
      <trkpt lat="40.1120417006313800811767578125" lon="-0.77323333360254764556884765625">
        <ele>951.4000244140625</ele>
        <time>2022-05-06T13:00:09.000Z</time>
      </trkpt>
      <trkpt lat="40.111941955983638763427734375" lon="-0.77336442656815052032470703125">
        <ele>952.5999755859375</ele>
        <time>2022-05-06T13:00:11.000Z</time>
      </trkpt>
      <trkpt lat="40.1118519343435764312744140625" lon="-0.773499123752117156982421875">
        <ele>954</ele>
        <time>2022-05-06T13:00:13.000Z</time>
      </trkpt>
      <trkpt lat="40.1118068397045135498046875" lon="-0.77356584370136260986328125">
        <ele>954.79998779296875</ele>
        <time>2022-05-06T13:00:14.000Z</time>
      </trkpt>
      <trkpt lat="40.1117637567222118377685546875" lon="-0.7736344076693058013916015625">
        <ele>955.4000244140625</ele>
        <time>2022-05-06T13:00:15.000Z</time>
      </trkpt>
      <trkpt lat="40.11167700402438640594482421875" lon="-0.7737636566162109375">
        <ele>956.79998779296875</ele>
        <time>2022-05-06T13:00:17.000Z</time>
      </trkpt>
      <trkpt lat="40.1115977950394153594970703125" lon="-0.77388511039316654205322265625">
        <ele>958</ele>
        <time>2022-05-06T13:00:19.000Z</time>
      </trkpt>
      <trkpt lat="40.1115223579108715057373046875" lon="-0.774012766778469085693359375">
        <ele>959.20001220703125</ele>
        <time>2022-05-06T13:00:21.000Z</time>
      </trkpt>
      <trkpt lat="40.111442394554615020751953125" lon="-0.7741366513073444366455078125">
        <ele>960.20001220703125</ele>
        <time>2022-05-06T13:00:23.000Z</time>
      </trkpt>
      <trkpt lat="40.11136134155094623565673828125" lon="-0.77425994910299777984619140625">
        <ele>961.20001220703125</ele>
        <time>2022-05-06T13:00:25.000Z</time>
      </trkpt>
      <trkpt lat="40.1112762652337551116943359375" lon="-0.77437159605324268341064453125">
        <ele>962</ele>
        <time>2022-05-06T13:00:27.000Z</time>
      </trkpt>
      <trkpt lat="40.11118632741272449493408203125" lon="-0.77447435818612575531005859375">
        <ele>962.5999755859375</ele>
        <time>2022-05-06T13:00:29.000Z</time>
      </trkpt>
      <trkpt lat="40.11108960025012493133544921875" lon="-0.7745708338916301727294921875">
        <ele>963.20001220703125</ele>
        <time>2022-05-06T13:00:31.000Z</time>
      </trkpt>
      <trkpt lat="40.1110030151903629302978515625" lon="-0.77466018497943878173828125">
        <ele>963.79998779296875</ele>
        <time>2022-05-06T13:00:33.000Z</time>
      </trkpt>
      <trkpt lat="40.1109617762267589569091796875" lon="-0.77469932846724987030029296875">
        <ele>964</ele>
        <time>2022-05-06T13:00:34.000Z</time>
      </trkpt>
      <trkpt lat="40.11091995052993297576904296875" lon="-0.77473939396440982818603515625">
        <ele>964.20001220703125</ele>
        <time>2022-05-06T13:00:35.000Z</time>
      </trkpt>
      <trkpt lat="40.11083411984145641326904296875" lon="-0.77482245862483978271484375">
        <ele>964.79998779296875</ele>
        <time>2022-05-06T13:00:37.000Z</time>
      </trkpt>
      <trkpt lat="40.107341967523097991943359375" lon="-0.77558579854667186737060546875">
        <ele>962.20001220703125</ele>
        <time>2022-05-06T13:01:39.000Z</time>
      </trkpt>
      <trkpt lat="40.1072314940392971038818359375" lon="-0.77572041191160678863525390625">
        <ele>962.4000244140625</ele>
        <time>2022-05-06T13:01:40.000Z</time>
      </trkpt>
      <trkpt lat="40.10720827616751194000244140625" lon="-0.77570180408656597137451171875">
        <ele>961.4000244140625</ele>
        <time>2022-05-06T13:01:41.000Z</time>
      </trkpt>
      <trkpt lat="40.10726879350841045379638671875" lon="-0.77533316798508167266845703125">
        <ele>956.79998779296875</ele>
        <time>2022-05-06T13:01:43.000Z</time>
      </trkpt>
      <trkpt lat="40.10728337801992893218994140625" lon="-0.77539653517305850982666015625">
        <ele>958.20001220703125</ele>
        <time>2022-05-06T13:01:45.000Z</time>
      </trkpt>
      <trkpt lat="40.1072026602923870086669921875" lon="-0.77564765699207782745361328125">
        <ele>960</ele>
        <time>2022-05-06T13:09:39.000Z</time>
      </trkpt>
      <trkpt lat="40.10719000361859798431396484375" lon="-0.775675736367702484130859375">
        <ele>960.4000244140625</ele>
        <time>2022-05-06T13:09:41.000Z</time>
      </trkpt>
      <trkpt lat="40.10718413628637790679931640625" lon="-0.77568587847054004669189453125">
        <ele>960.4000244140625</ele>
        <time>2022-05-06T13:09:42.000Z</time>
      </trkpt>
      <trkpt lat="40.10718028061091899871826171875" lon="-0.77569149434566497802734375">
        <ele>960.4000244140625</ele>
        <time>2022-05-06T13:09:43.000Z</time>
      </trkpt>
      <trkpt lat="40.10717944242060184478759765625" lon="-0.7756936736404895782470703125">
        <ele>960.4000244140625</ele>
        <time>2022-05-06T13:09:44.000Z</time>
      </trkpt>
      <trkpt lat="40.107135772705078125" lon="-0.77572024427354335784912109375">
        <ele>959.79998779296875</ele>
        <time>2022-05-06T13:09:48.000Z</time>
      </trkpt>
      <trkpt lat="40.10711221955716609954833984375" lon="-0.7757198251783847808837890625">
        <ele>959.20001220703125</ele>
        <time>2022-05-06T13:09:49.000Z</time>
      </trkpt>
      <trkpt lat="40.107054971158504486083984375" lon="-0.7757230103015899658203125">
        <ele>957.79998779296875</ele>
        <time>2022-05-06T13:09:51.000Z</time>
      </trkpt>
      <trkpt lat="40.10701901279389858245849609375" lon="-0.775728039443492889404296875">
        <ele>957</ele>
        <time>2022-05-06T13:09:52.000Z</time>
      </trkpt>
      <trkpt lat="40.106977187097072601318359375" lon="-0.77573734335601329803466796875">
        <ele>956.20001220703125</ele>
        <time>2022-05-06T13:09:53.000Z</time>
      </trkpt>
      <trkpt lat="40.10687434114515781402587890625" lon="-0.7757546938955783843994140625">
        <ele>954</ele>
        <time>2022-05-06T13:09:55.000Z</time>
      </trkpt>
      <trkpt lat="40.10675297118723392486572265625" lon="-0.7757707871496677398681640625">
        <ele>951.20001220703125</ele>
        <time>2022-05-06T13:09:57.000Z</time>
      </trkpt>
      <trkpt lat="40.10662539862096309661865234375" lon="-0.775784365832805633544921875">
        <ele>948.20001220703125</ele>
        <time>2022-05-06T13:09:59.000Z</time>
      </trkpt>
      <trkpt lat="40.10649581439793109893798828125" lon="-0.77578696422278881072998046875">
        <ele>944.79998779296875</ele>
        <time>2022-05-06T13:10:01.000Z</time>
      </trkpt>
      <trkpt lat="40.1063678227365016937255859375" lon="-0.77578134834766387939453125">
        <ele>941.20001220703125</ele>
        <time>2022-05-06T13:10:03.000Z</time>
      </trkpt>
      <trkpt lat="40.106303282082080841064453125" lon="-0.7757738046348094940185546875">
        <ele>939.4000244140625</ele>
        <time>2022-05-06T13:10:04.000Z</time>
      </trkpt>
      <trkpt lat="40.1062404178082942962646484375" lon="-0.77576533891260623931884765625">
        <ele>937.5999755859375</ele>
        <time>2022-05-06T13:10:05.000Z</time>
      </trkpt>
      <trkpt lat="40.10611594654619693756103515625" lon="-0.77574287541210651397705078125">
        <ele>934.4000244140625</ele>
        <time>2022-05-06T13:10:07.000Z</time>
      </trkpt>
      <trkpt lat="40.10599206201732158660888671875" lon="-0.7757069170475006103515625">
        <ele>933.20001220703125</ele>
        <time>2022-05-06T13:10:09.000Z</time>
      </trkpt>
      <trkpt lat="40.10586750693619251251220703125" lon="-0.77565855346620082855224609375">
        <ele>932.5999755859375</ele>
        <time>2022-05-06T13:10:11.000Z</time>
      </trkpt>
      <trkpt lat="40.10574563406407833099365234375" lon="-0.77559334225952625274658203125">
        <ele>932</ele>
        <time>2022-05-06T13:10:13.000Z</time>
      </trkpt>
      <trkpt lat="40.10562560521066188812255859375" lon="-0.7755106128752231597900390625">
        <ele>930.79998779296875</ele>
        <time>2022-05-06T13:10:15.000Z</time>
      </trkpt>
      <trkpt lat="40.10556609369814395904541015625" lon="-0.77546618878841400146484375">
        <ele>929.79998779296875</ele>
        <time>2022-05-06T13:10:16.000Z</time>
      </trkpt>
      <trkpt lat="40.105506666004657745361328125" lon="-0.7754190824925899505615234375">
        <ele>929.4000244140625</ele>
        <time>2022-05-06T13:10:17.000Z</time>
      </trkpt>
      <trkpt lat="40.1053911633789539337158203125" lon="-0.77531673945486545562744140625">
        <ele>929.4000244140625</ele>
        <time>2022-05-06T13:10:19.000Z</time>
      </trkpt>
      <trkpt lat="40.10528169572353363037109375" lon="-0.77520291320979595184326171875">
        <ele>928.79998779296875</ele>
        <time>2022-05-06T13:10:21.000Z</time>
      </trkpt>
      <trkpt lat="40.10517683811485767364501953125" lon="-0.77507835812866687774658203125">
        <ele>928</ele>
        <time>2022-05-06T13:10:23.000Z</time>
      </trkpt>
      <trkpt lat="40.1050800271332263946533203125" lon="-0.77494089491665363311767578125">
        <ele>927.4000244140625</ele>
        <time>2022-05-06T13:10:25.000Z</time>
      </trkpt>
      <trkpt lat="40.1049921847879886627197265625" lon="-0.77478826045989990234375">
        <ele>927</ele>
        <time>2022-05-06T13:10:27.000Z</time>
      </trkpt>
      <trkpt lat="40.10491750203073024749755859375" lon="-0.77462397515773773193359375">
        <ele>925.20001220703125</ele>
        <time>2022-05-06T13:10:29.000Z</time>
      </trkpt>
      <trkpt lat="40.104854218661785125732421875" lon="-0.77445222996175289154052734375">
        <ele>922</ele>
        <time>2022-05-06T13:10:31.000Z</time>
      </trkpt>
      <trkpt lat="40.104800574481487274169921875" lon="-0.77428157441318035125732421875">
        <ele>917</ele>
        <time>2022-05-06T13:10:33.000Z</time>
      </trkpt>
      <trkpt lat="40.10475455783307552337646484375" lon="-0.77411569654941558837890625">
        <ele>912.20001220703125</ele>
        <time>2022-05-06T13:10:35.000Z</time>
      </trkpt>
      <trkpt lat="40.10471583344042301177978515625" lon="-0.77396054752171039581298828125">
        <ele>907.79998779296875</ele>
        <time>2022-05-06T13:10:37.000Z</time>
      </trkpt>
      <trkpt lat="40.1046820543706417083740234375" lon="-0.77382744289934635162353515625">
        <ele>904.4000244140625</ele>
        <time>2022-05-06T13:10:39.000Z</time>
      </trkpt>
      <trkpt lat="40.104668140411376953125" lon="-0.77377262525260448455810546875">
        <ele>903.5999755859375</ele>
        <time>2022-05-06T13:10:40.000Z</time>
      </trkpt>
      <trkpt lat="40.10465732775628566741943359375" lon="-0.77372769825160503387451171875">
        <ele>903.20001220703125</ele>
        <time>2022-05-06T13:10:41.000Z</time>
      </trkpt>
      <trkpt lat="40.10465045459568500518798828125" lon="-0.77368696220219135284423828125">
        <ele>902.5999755859375</ele>
        <time>2022-05-06T13:10:43.000Z</time>
      </trkpt>
      <trkpt lat="40.10464928112924098968505859375" lon="-0.7736870460212230682373046875">
        <ele>902.79998779296875</ele>
        <time>2022-05-06T13:10:44.000Z</time>
      </trkpt>
      <trkpt lat="40.1046046055853366851806640625" lon="-0.7735405303537845611572265625">
        <ele>901.4000244140625</ele>
        <time>2022-05-06T13:11:30.000Z</time>
      </trkpt>
      <trkpt lat="40.104597397148609161376953125" lon="-0.7735214196145534515380859375">
        <ele>901.20001220703125</ele>
        <time>2022-05-06T13:11:31.000Z</time>
      </trkpt>
      <trkpt lat="40.1045928709208965301513671875" lon="-0.77351043932139873504638671875">
        <ele>901</ele>
        <time>2022-05-06T13:11:33.000Z</time>
      </trkpt>
      <trkpt lat="40.104552805423736572265625" lon="-0.7733886502683162689208984375">
        <ele>899.79998779296875</ele>
        <time>2022-05-06T13:11:40.000Z</time>
      </trkpt>
      <trkpt lat="40.104545094072818756103515625" lon="-0.77335420064628124237060546875">
        <ele>899.4000244140625</ele>
        <time>2022-05-06T13:11:41.000Z</time>
      </trkpt>
      <trkpt lat="40.1045372150838375091552734375" lon="-0.77331648208200931549072265625">
        <ele>899</ele>
        <time>2022-05-06T13:11:42.000Z</time>
      </trkpt>
      <trkpt lat="40.1045273244380950927734375" lon="-0.7732759974896907806396484375">
        <ele>898.5999755859375</ele>
        <time>2022-05-06T13:11:43.000Z</time>
      </trkpt>
      <trkpt lat="40.1045058667659759521484375" lon="-0.773192681372165679931640625">
        <ele>897.79998779296875</ele>
        <time>2022-05-06T13:11:45.000Z</time>
      </trkpt>
      <trkpt lat="40.10448415763676166534423828125" lon="-0.77310877852141857147216796875">
        <ele>897.4000244140625</ele>
        <time>2022-05-06T13:11:47.000Z</time>
      </trkpt>
      <trkpt lat="40.10445959866046905517578125" lon="-0.77301406301558017730712890625">
        <ele>898.20001220703125</ele>
        <time>2022-05-06T13:11:49.000Z</time>
      </trkpt>
      <trkpt lat="40.10444828309118747711181640625" lon="-0.77296528033912181854248046875">
        <ele>899.4000244140625</ele>
        <time>2022-05-06T13:11:50.000Z</time>
      </trkpt>
      <trkpt lat="40.10443839244544506072998046875" lon="-0.7729105465114116668701171875">
        <ele>900.5999755859375</ele>
        <time>2022-05-06T13:11:51.000Z</time>
      </trkpt>
      <trkpt lat="40.10441609658300876617431640625" lon="-0.77280049212276935577392578125">
        <ele>903</ele>
        <time>2022-05-06T13:11:53.000Z</time>
      </trkpt>
      <trkpt lat="40.1043960638344287872314453125" lon="-0.77268767170608043670654296875">
        <ele>905.4000244140625</ele>
        <time>2022-05-06T13:11:55.000Z</time>
      </trkpt>
      <trkpt lat="40.10438022203743457794189453125" lon="-0.7725727558135986328125">
        <ele>907.79998779296875</ele>
        <time>2022-05-06T13:11:57.000Z</time>
      </trkpt>
      <trkpt lat="40.10436681099236011505126953125" lon="-0.77246010303497314453125">
        <ele>910</ele>
        <time>2022-05-06T13:11:59.000Z</time>
      </trkpt>
      <trkpt lat="40.1043518073856830596923828125" lon="-0.7723405770957469940185546875">
        <ele>914.20001220703125</ele>
        <time>2022-05-06T13:12:01.000Z</time>
      </trkpt>
      <trkpt lat="40.10434552095830440521240234375" lon="-0.77221761457622051239013671875">
        <ele>918.5999755859375</ele>
        <time>2022-05-06T13:12:03.000Z</time>
      </trkpt>
      <trkpt lat="40.10434568859636783599853515625" lon="-0.77215458266437053680419921875">
        <ele>919.20001220703125</ele>
        <time>2022-05-06T13:12:04.000Z</time>
      </trkpt>
      <trkpt lat="40.10433848015964031219482421875" lon="-0.7720907963812351226806640625">
        <ele>920</ele>
        <time>2022-05-06T13:12:05.000Z</time>
      </trkpt>
      <trkpt lat="40.10433512739837169647216796875" lon="-0.77197386883199214935302734375">
        <ele>921</ele>
        <time>2022-05-06T13:12:07.000Z</time>
      </trkpt>
      <trkpt lat="40.10434367693960666656494140625" lon="-0.77184830792248249053955078125">
        <ele>921.79998779296875</ele>
        <time>2022-05-06T13:12:09.000Z</time>
      </trkpt>
      <trkpt lat="40.104356668889522552490234375" lon="-0.7717265188694000244140625">
        <ele>922.5999755859375</ele>
        <time>2022-05-06T13:12:11.000Z</time>
      </trkpt>
      <trkpt lat="40.10438181459903717041015625" lon="-0.771608166396617889404296875">
        <ele>922.79998779296875</ele>
        <time>2022-05-06T13:12:13.000Z</time>
      </trkpt>
      <trkpt lat="40.1044024340808391571044921875" lon="-0.77149157412350177764892578125">
        <ele>923.20001220703125</ele>
        <time>2022-05-06T13:12:15.000Z</time>
      </trkpt>
      <trkpt lat="40.10441760532557964324951171875" lon="-0.77143591828644275665283203125">
        <ele>923.4000244140625</ele>
        <time>2022-05-06T13:12:16.000Z</time>
      </trkpt>
      <trkpt lat="40.10443939827382564544677734375" lon="-0.77137707732617855072021484375">
        <ele>923.20001220703125</ele>
        <time>2022-05-06T13:12:17.000Z</time>
      </trkpt>
      <trkpt lat="40.10447326116263866424560546875" lon="-0.77126777730882167816162109375">
        <ele>924</ele>
        <time>2022-05-06T13:12:19.000Z</time>
      </trkpt>
      <trkpt lat="40.10451148264110088348388671875" lon="-0.771160237491130828857421875">
        <ele>924.4000244140625</ele>
        <time>2022-05-06T13:12:21.000Z</time>
      </trkpt>
      <trkpt lat="40.10455640964210033416748046875" lon="-0.77104431577026844024658203125">
        <ele>925</ele>
        <time>2022-05-06T13:12:23.000Z</time>
      </trkpt>
      <trkpt lat="40.1046019233763217926025390625" lon="-0.77093468047678470611572265625">
        <ele>925.4000244140625</ele>
        <time>2022-05-06T13:12:25.000Z</time>
      </trkpt>
      <trkpt lat="40.1046512089669704437255859375" lon="-0.77083309181034564971923828125">
        <ele>926</ele>
        <time>2022-05-06T13:12:27.000Z</time>
      </trkpt>
      <trkpt lat="40.1046776957809925079345703125" lon="-0.770781040191650390625">
        <ele>926.4000244140625</ele>
        <time>2022-05-06T13:12:28.000Z</time>
      </trkpt>
      <trkpt lat="40.104699991643428802490234375" lon="-0.7707275636494159698486328125">
        <ele>926.79998779296875</ele>
        <time>2022-05-06T13:12:29.000Z</time>
      </trkpt>
      <trkpt lat="40.1047219522297382354736328125" lon="-0.77067199163138866424560546875">
        <ele>927.20001220703125</ele>
        <time>2022-05-06T13:12:30.000Z</time>
      </trkpt>
      <trkpt lat="40.10474525392055511474609375" lon="-0.77061583288013935089111328125">
        <ele>927.79998779296875</ele>
        <time>2022-05-06T13:12:31.000Z</time>
      </trkpt>
      <trkpt lat="40.10477215982973575592041015625" lon="-0.77056336216628551483154296875">
        <ele>928</ele>
        <time>2022-05-06T13:12:32.000Z</time>
      </trkpt>
      <trkpt lat="40.104801245033740997314453125" lon="-0.770511813461780548095703125">
        <ele>928</ele>
        <time>2022-05-06T13:12:33.000Z</time>
      </trkpt>
      <trkpt lat="40.1048567332327365875244140625" lon="-0.77041684649884700775146484375">
        <ele>927.20001220703125</ele>
        <time>2022-05-06T13:12:35.000Z</time>
      </trkpt>
      <trkpt lat="40.104911886155605316162109375" lon="-0.77032950706779956817626953125">
        <ele>926.4000244140625</ele>
        <time>2022-05-06T13:12:37.000Z</time>
      </trkpt>
      <trkpt lat="40.104956142604351043701171875" lon="-0.7702437601983547210693359375">
        <ele>925.79998779296875</ele>
        <time>2022-05-06T13:12:39.000Z</time>
      </trkpt>
      <trkpt lat="40.104995034635066986083984375" lon="-0.77015952207148075103759765625">
        <ele>925.4000244140625</ele>
        <time>2022-05-06T13:12:41.000Z</time>
      </trkpt>
      <trkpt lat="40.1050317473709583282470703125" lon="-0.770074613392353057861328125">
        <ele>925.20001220703125</ele>
        <time>2022-05-06T13:12:43.000Z</time>
      </trkpt>
      <trkpt lat="40.105050690472126007080078125" lon="-0.77003178186714649200439453125">
        <ele>925.20001220703125</ele>
        <time>2022-05-06T13:12:44.000Z</time>
      </trkpt>
      <trkpt lat="40.105073489248752593994140625" lon="-0.76998886652290821075439453125">
        <ele>925</ele>
        <time>2022-05-06T13:12:45.000Z</time>
      </trkpt>
      <trkpt lat="40.10512051172554492950439453125" lon="-0.76991133391857147216796875">
        <ele>924.79998779296875</ele>
        <time>2022-05-06T13:12:47.000Z</time>
      </trkpt>
      <trkpt lat="40.1051450707018375396728515625" lon="-0.7698716036975383758544921875">
        <ele>924.5999755859375</ele>
        <time>2022-05-06T13:12:48.000Z</time>
      </trkpt>
      <trkpt lat="40.10516778565943241119384765625" lon="-0.76983044855296611785888671875">
        <ele>924.4000244140625</ele>
        <time>2022-05-06T13:12:49.000Z</time>
      </trkpt>
      <trkpt lat="40.10520466603338718414306640625" lon="-0.7697421871125698089599609375">
        <ele>924.4000244140625</ele>
        <time>2022-05-06T13:12:51.000Z</time>
      </trkpt>
      <trkpt lat="40.10522310622036457061767578125" lon="-0.76969675719738006591796875">
        <ele>924.4000244140625</ele>
        <time>2022-05-06T13:12:52.000Z</time>
      </trkpt>
      <trkpt lat="40.105241127312183380126953125" lon="-0.76965208165347576141357421875">
        <ele>924</ele>
        <time>2022-05-06T13:12:53.000Z</time>
      </trkpt>
      <trkpt lat="40.10526887141168117523193359375" lon="-0.769530124962329864501953125">
        <ele>923.5999755859375</ele>
        <time>2022-05-06T13:12:55.000Z</time>
      </trkpt>
      <trkpt lat="40.10529653169214725494384765625" lon="-0.7694069109857082366943359375">
        <ele>923.20001220703125</ele>
        <time>2022-05-06T13:12:57.000Z</time>
      </trkpt>
      <trkpt lat="40.1053143851459026336669921875" lon="-0.76934010721743106842041015625">
        <ele>923</ele>
        <time>2022-05-06T13:12:58.000Z</time>
      </trkpt>
      <trkpt lat="40.10533207096159458160400390625" lon="-0.76926902867853641510009765625">
        <ele>922.5999755859375</ele>
        <time>2022-05-06T13:12:59.000Z</time>
      </trkpt>
      <trkpt lat="40.10536216199398040771484375" lon="-0.769129134714603424072265625">
        <ele>922.20001220703125</ele>
        <time>2022-05-06T13:13:01.000Z</time>
      </trkpt>
      <trkpt lat="40.10538898408412933349609375" lon="-0.768995024263858795166015625">
        <ele>921.79998779296875</ele>
        <time>2022-05-06T13:13:03.000Z</time>
      </trkpt>
      <trkpt lat="40.10540851391851902008056640625" lon="-0.76893174089491367340087890625">
        <ele>921.5999755859375</ele>
        <time>2022-05-06T13:13:04.000Z</time>
      </trkpt>
      <trkpt lat="40.10542594827711582183837890625" lon="-0.76886787079274654388427734375">
        <ele>921.4000244140625</ele>
        <time>2022-05-06T13:13:05.000Z</time>
      </trkpt>
      <trkpt lat="40.10545897297561168670654296875" lon="-0.76872713863849639892578125">
        <ele>921</ele>
        <time>2022-05-06T13:13:07.000Z</time>
      </trkpt>
      <trkpt lat="40.105496942996978759765625" lon="-0.76859126798808574676513671875">
        <ele>920.5999755859375</ele>
        <time>2022-05-06T13:13:09.000Z</time>
      </trkpt>
      <trkpt lat="40.10553306899964809417724609375" lon="-0.76845313422381877899169921875">
        <ele>920.4000244140625</ele>
        <time>2022-05-06T13:13:11.000Z</time>
      </trkpt>
      <trkpt lat="40.10554865933954715728759765625" lon="-0.7683843187987804412841796875">
        <ele>920.4000244140625</ele>
        <time>2022-05-06T13:13:12.000Z</time>
      </trkpt>
      <trkpt lat="40.1055658422410488128662109375" lon="-0.768325142562389373779296875">
        <ele>920.20001220703125</ele>
        <time>2022-05-06T13:13:13.000Z</time>
      </trkpt>
      <trkpt lat="40.10560867376625537872314453125" lon="-0.76818675734102725982666015625">
        <ele>919.79998779296875</ele>
        <time>2022-05-06T13:13:15.000Z</time>
      </trkpt>
      <trkpt lat="40.10563868097960948944091796875" lon="-0.76804795302450656890869140625">
        <ele>919.5999755859375</ele>
        <time>2022-05-06T13:13:17.000Z</time>
      </trkpt>
      <trkpt lat="40.10566835291683673858642578125" lon="-0.76791820116341114044189453125">
        <ele>919.20001220703125</ele>
        <time>2022-05-06T13:13:19.000Z</time>
      </trkpt>
      <trkpt lat="40.1057073287665843963623046875" lon="-0.7677898742258548736572265625">
        <ele>918.79998779296875</ele>
        <time>2022-05-06T13:13:21.000Z</time>
      </trkpt>
      <trkpt lat="40.10574479587376117706298828125" lon="-0.767656266689300537109375">
        <ele>918.5999755859375</ele>
        <time>2022-05-06T13:13:23.000Z</time>
      </trkpt>
      <trkpt lat="40.1057730428874492645263671875" lon="-0.76752626337110996246337890625">
        <ele>918.5999755859375</ele>
        <time>2022-05-06T13:13:25.000Z</time>
      </trkpt>
      <trkpt lat="40.1057881303131580352783203125" lon="-0.76746138744056224822998046875">
        <ele>918.5999755859375</ele>
        <time>2022-05-06T13:13:26.000Z</time>
      </trkpt>
      <trkpt lat="40.10580548085272312164306640625" lon="-0.76740003190934658050537109375">
        <ele>918.5999755859375</ele>
        <time>2022-05-06T13:13:27.000Z</time>
      </trkpt>
      <trkpt lat="40.1058483123779296875" lon="-0.76727497391402721405029296875">
        <ele>918.20001220703125</ele>
        <time>2022-05-06T13:13:29.000Z</time>
      </trkpt>
      <trkpt lat="40.10589382611215114593505859375" lon="-0.76715377159416675567626953125">
        <ele>918.5999755859375</ele>
        <time>2022-05-06T13:13:31.000Z</time>
      </trkpt>
      <trkpt lat="40.1059172116219997406005859375" lon="-0.76709501445293426513671875">
        <ele>919.20001220703125</ele>
        <time>2022-05-06T13:13:32.000Z</time>
      </trkpt>
      <trkpt lat="40.1059403456747531890869140625" lon="-0.7670365087687969207763671875">
        <ele>919.79998779296875</ele>
        <time>2022-05-06T13:13:33.000Z</time>
      </trkpt>
      <trkpt lat="40.10599088855087757110595703125" lon="-0.76692746020853519439697265625">
        <ele>920.79998779296875</ele>
        <time>2022-05-06T13:13:35.000Z</time>
      </trkpt>
      <trkpt lat="40.1060399226844310760498046875" lon="-0.7668306492269039154052734375">
        <ele>921.4000244140625</ele>
        <time>2022-05-06T13:13:37.000Z</time>
      </trkpt>
      <trkpt lat="40.10609432123601436614990234375" lon="-0.76673920266330242156982421875">
        <ele>922</ele>
        <time>2022-05-06T13:13:39.000Z</time>
      </trkpt>
      <trkpt lat="40.1061224006116390228271484375" lon="-0.766691677272319793701171875">
        <ele>922.20001220703125</ele>
        <time>2022-05-06T13:13:40.000Z</time>
      </trkpt>
      <trkpt lat="40.1061475463211536407470703125" lon="-0.76664398424327373504638671875">
        <ele>922.5999755859375</ele>
        <time>2022-05-06T13:13:41.000Z</time>
      </trkpt>
      <trkpt lat="40.10621376335620880126953125" lon="-0.76654591597616672515869140625">
        <ele>923</ele>
        <time>2022-05-06T13:13:43.000Z</time>
      </trkpt>
      <trkpt lat="40.10628693737089633941650390625" lon="-0.76644591987133026123046875">
        <ele>923.5999755859375</ele>
        <time>2022-05-06T13:13:45.000Z</time>
      </trkpt>
      <trkpt lat="40.10632415302097797393798828125" lon="-0.76639940030872821807861328125">
        <ele>924.79998779296875</ele>
        <time>2022-05-06T13:13:46.000Z</time>
      </trkpt>
      <trkpt lat="40.10636036284267902374267578125" lon="-0.7663525454699993133544921875">
        <ele>925.79998779296875</ele>
        <time>2022-05-06T13:13:47.000Z</time>
      </trkpt>
      <trkpt lat="40.10643797926604747772216796875" lon="-0.76626956462860107421875">
        <ele>927.4000244140625</ele>
        <time>2022-05-06T13:13:49.000Z</time>
      </trkpt>
      <trkpt lat="40.1065290905535221099853515625" lon="-0.76618851162493228912353515625">
        <ele>929.20001220703125</ele>
        <time>2022-05-06T13:13:51.000Z</time>
      </trkpt>
      <trkpt lat="40.10662288405001163482666015625" lon="-0.766112990677356719970703125">
        <ele>930.79998779296875</ele>
        <time>2022-05-06T13:13:53.000Z</time>
      </trkpt>
      <trkpt lat="40.10672162286937236785888671875" lon="-0.7660380564630031585693359375">
        <ele>932.4000244140625</ele>
        <time>2022-05-06T13:13:55.000Z</time>
      </trkpt>
      <trkpt lat="40.106816589832305908203125" lon="-0.765965469181537628173828125">
        <ele>933.79998779296875</ele>
        <time>2022-05-06T13:13:57.000Z</time>
      </trkpt>
      <trkpt lat="40.1069136522710323333740234375" lon="-0.7658928819000720977783203125">
        <ele>935.4000244140625</ele>
        <time>2022-05-06T13:13:59.000Z</time>
      </trkpt>
      <trkpt lat="40.10695883072912693023681640625" lon="-0.765862204134464263916015625">
        <ele>936.20001220703125</ele>
        <time>2022-05-06T13:14:00.000Z</time>
      </trkpt>
      <trkpt lat="40.107004344463348388671875" lon="-0.765834711492061614990234375">
        <ele>936.79998779296875</ele>
        <time>2022-05-06T13:14:01.000Z</time>
      </trkpt>
      <trkpt lat="40.10709545575082302093505859375" lon="-0.76578517444431781768798828125">
        <ele>938</ele>
        <time>2022-05-06T13:14:03.000Z</time>
      </trkpt>
      <trkpt lat="40.1071915961802005767822265625" lon="-0.76573438011109828948974609375">
        <ele>937.79998779296875</ele>
        <time>2022-05-06T13:14:05.000Z</time>
      </trkpt>
      <trkpt lat="40.1072371937334537506103515625" lon="-0.76571024022996425628662109375">
        <ele>937.5999755859375</ele>
        <time>2022-05-06T13:14:06.000Z</time>
      </trkpt>
      <trkpt lat="40.10727801360189914703369140625" lon="-0.76567738316953182220458984375">
        <ele>937.5999755859375</ele>
        <time>2022-05-06T13:14:07.000Z</time>
      </trkpt>
      <trkpt lat="40.10738454759120941162109375" lon="-0.765611417591571807861328125">
        <ele>937.4000244140625</ele>
        <time>2022-05-06T13:14:09.000Z</time>
      </trkpt>
      <trkpt lat="40.10746962390840053558349609375" lon="-0.76553639955818653106689453125">
        <ele>937.5999755859375</ele>
        <time>2022-05-06T13:14:11.000Z</time>
      </trkpt>
      <trkpt lat="40.10751195251941680908203125" lon="-0.76549046672880649566650390625">
        <ele>937.20001220703125</ele>
        <time>2022-05-06T13:14:12.000Z</time>
      </trkpt>
      <trkpt lat="40.10755377821624279022216796875" lon="-0.76544403098523616790771484375">
        <ele>936.5999755859375</ele>
        <time>2022-05-06T13:14:13.000Z</time>
      </trkpt>
      <trkpt lat="40.10763575322926044464111328125" lon="-0.7653544284403324127197265625">
        <ele>935.79998779296875</ele>
        <time>2022-05-06T13:14:15.000Z</time>
      </trkpt>
      <trkpt lat="40.1077186502516269683837890625" lon="-0.76526599936187267303466796875">
        <ele>935</ele>
        <time>2022-05-06T13:14:17.000Z</time>
      </trkpt>
      <trkpt lat="40.1077521778643131256103515625" lon="-0.76521771959960460662841796875">
        <ele>934.5999755859375</ele>
        <time>2022-05-06T13:14:18.000Z</time>
      </trkpt>
      <trkpt lat="40.10778780095279216766357421875" lon="-0.76516977511346340179443359375">
        <ele>934.20001220703125</ele>
        <time>2022-05-06T13:14:19.000Z</time>
      </trkpt>
      <trkpt lat="40.1078209094703197479248046875" lon="-0.765121243894100189208984375">
        <ele>933.79998779296875</ele>
        <time>2022-05-06T13:14:20.000Z</time>
      </trkpt>
      <trkpt lat="40.10784731246531009674072265625" lon="-0.765072293579578399658203125">
        <ele>933.5999755859375</ele>
        <time>2022-05-06T13:14:21.000Z</time>
      </trkpt>
      <trkpt lat="40.10790866799652576446533203125" lon="-0.76497866772115230560302734375">
        <ele>933</ele>
        <time>2022-05-06T13:14:23.000Z</time>
      </trkpt>
      <trkpt lat="40.1079697720706462860107421875" lon="-0.764884538948535919189453125">
        <ele>932.79998779296875</ele>
        <time>2022-05-06T13:14:25.000Z</time>
      </trkpt>
      <trkpt lat="40.1079935766756534576416015625" lon="-0.7648364268243312835693359375">
        <ele>932.79998779296875</ele>
        <time>2022-05-06T13:14:26.000Z</time>
      </trkpt>
      <trkpt lat="40.10801813565194606781005859375" lon="-0.7647904939949512481689453125">
        <ele>932.79998779296875</ele>
        <time>2022-05-06T13:14:27.000Z</time>
      </trkpt>
      <trkpt lat="40.1080663315951824188232421875" lon="-0.7647026516497135162353515625">
        <ele>932.79998779296875</ele>
        <time>2022-05-06T13:14:29.000Z</time>
      </trkpt>
      <trkpt lat="40.10810731910169124603271484375" lon="-0.7646037451922893524169921875">
        <ele>933</ele>
        <time>2022-05-06T13:14:31.000Z</time>
      </trkpt>
      <trkpt lat="40.10815165936946868896484375" lon="-0.7645051740109920501708984375">
        <ele>933.4000244140625</ele>
        <time>2022-05-06T13:14:33.000Z</time>
      </trkpt>
      <trkpt lat="40.10816984809935092926025390625" lon="-0.76445437967777252197265625">
        <ele>933.5999755859375</ele>
        <time>2022-05-06T13:14:34.000Z</time>
      </trkpt>
      <trkpt lat="40.10818359442055225372314453125" lon="-0.76440249569714069366455078125">
        <ele>933.79998779296875</ele>
        <time>2022-05-06T13:14:35.000Z</time>
      </trkpt>
      <trkpt lat="40.10821728967130184173583984375" lon="-0.764289088547229766845703125">
        <ele>934.4000244140625</ele>
        <time>2022-05-06T13:14:37.000Z</time>
      </trkpt>
      <trkpt lat="40.1082534156739711761474609375" lon="-0.7641692273318767547607421875">
        <ele>934.79998779296875</ele>
        <time>2022-05-06T13:14:39.000Z</time>
      </trkpt>
      <trkpt lat="40.1082795672118663787841796875" lon="-0.764041654765605926513671875">
        <ele>935.4000244140625</ele>
        <time>2022-05-06T13:14:41.000Z</time>
      </trkpt>
      <trkpt lat="40.10829356499016284942626953125" lon="-0.76390947215259075164794921875">
        <ele>936</ele>
        <time>2022-05-06T13:14:43.000Z</time>
      </trkpt>
      <trkpt lat="40.108307898044586181640625" lon="-0.76377385295927524566650390625">
        <ele>935.5999755859375</ele>
        <time>2022-05-06T13:14:45.000Z</time>
      </trkpt>
      <trkpt lat="40.10831133462488651275634765625" lon="-0.76370461843907833099365234375">
        <ele>935.20001220703125</ele>
        <time>2022-05-06T13:14:46.000Z</time>
      </trkpt>
      <trkpt lat="40.10831334628164768218994140625" lon="-0.7636334560811519622802734375">
        <ele>935</ele>
        <time>2022-05-06T13:14:47.000Z</time>
      </trkpt>
      <trkpt lat="40.10829247534275054931640625" lon="-0.763489119708538055419921875">
        <ele>934.4000244140625</ele>
        <time>2022-05-06T13:14:49.000Z</time>
      </trkpt>
      <trkpt lat="40.10829105041921138763427734375" lon="-0.7633571885526180267333984375">
        <ele>934.20001220703125</ele>
        <time>2022-05-06T13:14:51.000Z</time>
      </trkpt>
      <trkpt lat="40.10829037986695766448974609375" lon="-0.76321545056998729705810546875">
        <ele>934</ele>
        <time>2022-05-06T13:14:53.000Z</time>
      </trkpt>
      <trkpt lat="40.10828979313373565673828125" lon="-0.76307161711156368255615234375">
        <ele>934</ele>
        <time>2022-05-06T13:14:55.000Z</time>
      </trkpt>
      <trkpt lat="40.10828853584825992584228515625" lon="-0.76292996294796466827392578125">
        <ele>932.5999755859375</ele>
        <time>2022-05-06T13:14:57.000Z</time>
      </trkpt>
      <trkpt lat="40.1082866080105304718017578125" lon="-0.76285687275230884552001953125">
        <ele>931.79998779296875</ele>
        <time>2022-05-06T13:14:58.000Z</time>
      </trkpt>
      <trkpt lat="40.1082815788686275482177734375" lon="-0.7627862133085727691650390625">
        <ele>931.20001220703125</ele>
        <time>2022-05-06T13:14:59.000Z</time>
      </trkpt>
      <trkpt lat="40.1082788966596126556396484375" lon="-0.76271890662610530853271484375">
        <ele>930.4000244140625</ele>
        <time>2022-05-06T13:15:00.000Z</time>
      </trkpt>
      <trkpt lat="40.1082762144505977630615234375" lon="-0.76265369541943073272705078125">
        <ele>930</ele>
        <time>2022-05-06T13:15:01.000Z</time>
      </trkpt>
      <trkpt lat="40.10826841928064823150634765625" lon="-0.7625314034521579742431640625">
        <ele>929.79998779296875</ele>
        <time>2022-05-06T13:15:03.000Z</time>
      </trkpt>
      <trkpt lat="40.10826766490936279296875" lon="-0.7624056749045848846435546875">
        <ele>929.4000244140625</ele>
        <time>2022-05-06T13:15:05.000Z</time>
      </trkpt>
      <trkpt lat="40.10826565325260162353515625" lon="-0.7622775994241237640380859375">
        <ele>928.79998779296875</ele>
        <time>2022-05-06T13:15:07.000Z</time>
      </trkpt>
      <trkpt lat="40.10825651697814464569091796875" lon="-0.76214541681110858917236328125">
        <ele>928.5999755859375</ele>
        <time>2022-05-06T13:15:09.000Z</time>
      </trkpt>
      <trkpt lat="40.1082503981888294219970703125" lon="-0.762012563645839691162109375">
        <ele>928.4000244140625</ele>
        <time>2022-05-06T13:15:11.000Z</time>
      </trkpt>
      <trkpt lat="40.1082460395991802215576171875" lon="-0.76187954284250736236572265625">
        <ele>928.20001220703125</ele>
        <time>2022-05-06T13:15:13.000Z</time>
      </trkpt>
      <trkpt lat="40.108243525028228759765625" lon="-0.7617438398301601409912109375">
        <ele>928.79998779296875</ele>
        <time>2022-05-06T13:15:15.000Z</time>
      </trkpt>
      <trkpt lat="40.1082430221140384674072265625" lon="-0.76161098666489124298095703125">
        <ele>929.20001220703125</ele>
        <time>2022-05-06T13:15:17.000Z</time>
      </trkpt>
      <trkpt lat="40.10824176482856273651123046875" lon="-0.761479474604129791259765625">
        <ele>929.79998779296875</ele>
        <time>2022-05-06T13:15:19.000Z</time>
      </trkpt>
      <trkpt lat="40.108241848647594451904296875" lon="-0.76141216792166233062744140625">
        <ele>930</ele>
        <time>2022-05-06T13:15:20.000Z</time>
      </trkpt>
      <trkpt lat="40.10824411176145076751708984375" lon="-0.7613438554108142852783203125">
        <ele>930.20001220703125</ele>
        <time>2022-05-06T13:15:21.000Z</time>
      </trkpt>
      <trkpt lat="40.10824880562722682952880859375" lon="-0.76120479963719844818115234375">
        <ele>930.20001220703125</ele>
        <time>2022-05-06T13:15:23.000Z</time>
      </trkpt>
      <trkpt lat="40.108251236379146575927734375" lon="-0.7610647380352020263671875">
        <ele>930.4000244140625</ele>
        <time>2022-05-06T13:15:25.000Z</time>
      </trkpt>
      <trkpt lat="40.1082487218081951141357421875" lon="-0.760998018085956573486328125">
        <ele>930.20001220703125</ele>
        <time>2022-05-06T13:15:26.000Z</time>
      </trkpt>
      <trkpt lat="40.10824620723724365234375" lon="-0.7609334774315357208251953125">
        <ele>930</ele>
        <time>2022-05-06T13:15:27.000Z</time>
      </trkpt>
      <trkpt lat="40.1082448661327362060546875" lon="-0.760800540447235107421875">
        <ele>929.79998779296875</ele>
        <time>2022-05-06T13:15:29.000Z</time>
      </trkpt>
      <trkpt lat="40.1082480512559413909912109375" lon="-0.76073222793638706207275390625">
        <ele>929.5999755859375</ele>
        <time>2022-05-06T13:15:30.000Z</time>
      </trkpt>
      <trkpt lat="40.10824712924659252166748046875" lon="-0.7606692798435688018798828125">
        <ele>929.4000244140625</ele>
        <time>2022-05-06T13:15:31.000Z</time>
      </trkpt>
      <trkpt lat="40.10825048200786113739013671875" lon="-0.76060716994106769561767578125">
        <ele>929.20001220703125</ele>
        <time>2022-05-06T13:15:32.000Z</time>
      </trkpt>
      <trkpt lat="40.10825517587363719940185546875" lon="-0.76054547913372516632080078125">
        <ele>929</ele>
        <time>2022-05-06T13:15:33.000Z</time>
      </trkpt>
      <trkpt lat="40.10827110148966312408447265625" lon="-0.76042192988097667694091796875">
        <ele>929</ele>
        <time>2022-05-06T13:15:35.000Z</time>
      </trkpt>
      <trkpt lat="40.10828451253473758697509765625" lon="-0.760356970131397247314453125">
        <ele>929</ele>
        <time>2022-05-06T13:15:36.000Z</time>
      </trkpt>
      <trkpt lat="40.10830060578882694244384765625" lon="-0.7602914236485958099365234375">
        <ele>928.79998779296875</ele>
        <time>2022-05-06T13:15:37.000Z</time>
      </trkpt>
      <trkpt lat="40.10833396576344966888427734375" lon="-0.76016125269234180450439453125">
        <ele>928.5999755859375</ele>
        <time>2022-05-06T13:15:39.000Z</time>
      </trkpt>
      <trkpt lat="40.10837067849934101104736328125" lon="-0.76003652997314929962158203125">
        <ele>928.4000244140625</ele>
        <time>2022-05-06T13:15:41.000Z</time>
      </trkpt>
      <trkpt lat="40.10841493494808673858642578125" lon="-0.75991666875779628753662109375">
        <ele>928</ele>
        <time>2022-05-06T13:15:43.000Z</time>
      </trkpt>
      <trkpt lat="40.108465142548084259033203125" lon="-0.759799070656299591064453125">
        <ele>927.5999755859375</ele>
        <time>2022-05-06T13:15:45.000Z</time>
      </trkpt>
      <trkpt lat="40.10849087499082088470458984375" lon="-0.7597415708005428314208984375">
        <ele>927.20001220703125</ele>
        <time>2022-05-06T13:15:46.000Z</time>
      </trkpt>
      <trkpt lat="40.108519457280635833740234375" lon="-0.7596859149634838104248046875">
        <ele>927.20001220703125</ele>
        <time>2022-05-06T13:15:47.000Z</time>
      </trkpt>
      <trkpt lat="40.1085833273828029632568359375" lon="-0.75957703404128551483154296875">
        <ele>927.4000244140625</ele>
        <time>2022-05-06T13:15:49.000Z</time>
      </trkpt>
      <trkpt lat="40.10864996351301670074462890625" lon="-0.75947075150907039642333984375">
        <ele>927.4000244140625</ele>
        <time>2022-05-06T13:15:51.000Z</time>
      </trkpt>
      <trkpt lat="40.10871760547161102294921875" lon="-0.75936815701425075531005859375">
        <ele>927.4000244140625</ele>
        <time>2022-05-06T13:15:53.000Z</time>
      </trkpt>
      <trkpt lat="40.10875188745558261871337890625" lon="-0.75931769795715808868408203125">
        <ele>927.4000244140625</ele>
        <time>2022-05-06T13:15:54.000Z</time>
      </trkpt>
      <trkpt lat="40.1087871752679347991943359375" lon="-0.75926757417619228363037109375">
        <ele>927.5999755859375</ele>
        <time>2022-05-06T13:15:55.000Z</time>
      </trkpt>
      <trkpt lat="40.108864791691303253173828125" lon="-0.7591737806797027587890625">
        <ele>928.4000244140625</ele>
        <time>2022-05-06T13:15:57.000Z</time>
      </trkpt>
      <trkpt lat="40.10894919745624065399169921875" lon="-0.7590851001441478729248046875">
        <ele>928.79998779296875</ele>
        <time>2022-05-06T13:15:59.000Z</time>
      </trkpt>
      <trkpt lat="40.10903150774538516998291015625" lon="-0.75899801217019557952880859375">
        <ele>929.4000244140625</ele>
        <time>2022-05-06T13:16:01.000Z</time>
      </trkpt>
      <trkpt lat="40.10907224379479885101318359375" lon="-0.75895492918789386749267578125">
        <ele>929.5999755859375</ele>
        <time>2022-05-06T13:16:02.000Z</time>
      </trkpt>
      <trkpt lat="40.109112560749053955078125" lon="-0.75891117565333843231201171875">
        <ele>930</ele>
        <time>2022-05-06T13:16:03.000Z</time>
      </trkpt>
      <trkpt lat="40.10919394902884960174560546875" lon="-0.75882182456552982330322265625">
        <ele>930.5999755859375</ele>
        <time>2022-05-06T13:16:05.000Z</time>
      </trkpt>
      <trkpt lat="40.1092753373086452484130859375" lon="-0.758734233677387237548828125">
        <ele>931.20001220703125</ele>
        <time>2022-05-06T13:16:07.000Z</time>
      </trkpt>
      <trkpt lat="40.10935655795037746429443359375" lon="-0.75864739716053009033203125">
        <ele>932</ele>
        <time>2022-05-06T13:16:09.000Z</time>
      </trkpt>
      <trkpt lat="40.10943333618342876434326171875" lon="-0.75856081210076808929443359375">
        <ele>932.5999755859375</ele>
        <time>2022-05-06T13:16:11.000Z</time>
      </trkpt>
      <trkpt lat="40.10947172529995441436767578125" lon="-0.75851789675652980804443359375">
        <ele>933</ele>
        <time>2022-05-06T13:16:12.000Z</time>
      </trkpt>
      <trkpt lat="40.10950877331197261810302734375" lon="-0.7584742270410060882568359375">
        <ele>933.20001220703125</ele>
        <time>2022-05-06T13:16:13.000Z</time>
      </trkpt>
      <trkpt lat="40.10958253405988216400146484375" lon="-0.758387558162212371826171875">
        <ele>934</ele>
        <time>2022-05-06T13:16:15.000Z</time>
      </trkpt>
      <trkpt lat="40.1096592284739017486572265625" lon="-0.7582982070744037628173828125">
        <ele>934.20001220703125</ele>
        <time>2022-05-06T13:16:17.000Z</time>
      </trkpt>
      <trkpt lat="40.10972536168992519378662109375" lon="-0.75821698643267154693603515625">
        <ele>934.4000244140625</ele>
        <time>2022-05-06T13:16:19.000Z</time>
      </trkpt>
      <trkpt lat="40.10975696146488189697265625" lon="-0.75818463228642940521240234375">
        <ele>934.4000244140625</ele>
        <time>2022-05-06T13:16:20.000Z</time>
      </trkpt>
      <trkpt lat="40.1097886450588703155517578125" lon="-0.75815194286406040191650390625">
        <ele>934.4000244140625</ele>
        <time>2022-05-06T13:16:21.000Z</time>
      </trkpt>
      <trkpt lat="40.10985360480844974517822265625" lon="-0.75808237306773662567138671875">
        <ele>934.5999755859375</ele>
        <time>2022-05-06T13:16:23.000Z</time>
      </trkpt>
      <trkpt lat="40.109926946461200714111328125" lon="-0.7580048404633998870849609375">
        <ele>934.5999755859375</ele>
        <time>2022-05-06T13:16:25.000Z</time>
      </trkpt>
      <trkpt lat="40.11000364087522029876708984375" lon="-0.75792244635522365570068359375">
        <ele>934.79998779296875</ele>
        <time>2022-05-06T13:16:27.000Z</time>
      </trkpt>
      <trkpt lat="40.11008561588823795318603515625" lon="-0.75783477164804935455322265625">
        <ele>935</ele>
        <time>2022-05-06T13:16:29.000Z</time>
      </trkpt>
      <trkpt lat="40.1101675070822238922119140625" lon="-0.75774173252284526824951171875">
        <ele>935.20001220703125</ele>
        <time>2022-05-06T13:16:31.000Z</time>
      </trkpt>
      <trkpt lat="40.11025258339941501617431640625" lon="-0.75765791349112987518310546875">
        <ele>935.20001220703125</ele>
        <time>2022-05-06T13:16:33.000Z</time>
      </trkpt>
      <trkpt lat="40.1102962531149387359619140625" lon="-0.75761935673654079437255859375">
        <ele>935.20001220703125</ele>
        <time>2022-05-06T13:16:34.000Z</time>
      </trkpt>
      <trkpt lat="40.110340006649494171142578125" lon="-0.75758264400064945220947265625">
        <ele>935.20001220703125</ele>
        <time>2022-05-06T13:16:35.000Z</time>
      </trkpt>
      <trkpt lat="40.11041888035833835601806640625" lon="-0.7575066201388835906982421875">
        <ele>935.20001220703125</ele>
        <time>2022-05-06T13:16:37.000Z</time>
      </trkpt>
      <trkpt lat="40.1104595325887203216552734375" lon="-0.75747334398329257965087890625">
        <ele>935.4000244140625</ele>
        <time>2022-05-06T13:16:38.000Z</time>
      </trkpt>
      <trkpt lat="40.11050236411392688751220703125" lon="-0.7574445940554141998291015625">
        <ele>935.4000244140625</ele>
        <time>2022-05-06T13:16:39.000Z</time>
      </trkpt>
      <trkpt lat="40.110546536743640899658203125" lon="-0.7574171014130115509033203125">
        <ele>935.4000244140625</ele>
        <time>2022-05-06T13:16:40.000Z</time>
      </trkpt>
      <trkpt lat="40.11059003882110118865966796875" lon="-0.75738768093287944793701171875">
        <ele>935.4000244140625</ele>
        <time>2022-05-06T13:16:41.000Z</time>
      </trkpt>
      <trkpt lat="40.11067788116633892059326171875" lon="-0.75733244419097900390625">
        <ele>935.4000244140625</ele>
        <time>2022-05-06T13:16:43.000Z</time>
      </trkpt>
      <trkpt lat="40.11076949536800384521484375" lon="-0.7572836615145206451416015625">
        <ele>935.20001220703125</ele>
        <time>2022-05-06T13:16:45.000Z</time>
      </trkpt>
      <trkpt lat="40.1108662225306034088134765625" lon="-0.757240913808345794677734375">
        <ele>935</ele>
        <time>2022-05-06T13:16:47.000Z</time>
      </trkpt>
      <trkpt lat="40.11096118949353694915771484375" lon="-0.75720428489148616790771484375">
        <ele>934.5999755859375</ele>
        <time>2022-05-06T13:16:49.000Z</time>
      </trkpt>
      <trkpt lat="40.11105691082775592803955078125" lon="-0.757171846926212310791015625">
        <ele>934.20001220703125</ele>
        <time>2022-05-06T13:16:51.000Z</time>
      </trkpt>
      <trkpt lat="40.11115917004644870758056640625" lon="-0.7571438513696193695068359375">
        <ele>933.79998779296875</ele>
        <time>2022-05-06T13:16:53.000Z</time>
      </trkpt>
      <trkpt lat="40.11121247895061969757080078125" lon="-0.75713270343840122222900390625">
        <ele>933.4000244140625</ele>
        <time>2022-05-06T13:16:54.000Z</time>
      </trkpt>
      <trkpt lat="40.11127048172056674957275390625" lon="-0.75712515972554683685302734375">
        <ele>933</ele>
        <time>2022-05-06T13:16:55.000Z</time>
      </trkpt>
      <trkpt lat="40.11138481087982654571533203125" lon="-0.75711694546043872833251953125">
        <ele>934.5999755859375</ele>
        <time>2022-05-06T13:16:57.000Z</time>
      </trkpt>
      <trkpt lat="40.11150307953357696533203125" lon="-0.7571111619472503662109375">
        <ele>935.5999755859375</ele>
        <time>2022-05-06T13:16:59.000Z</time>
      </trkpt>
      <trkpt lat="40.11155731044709682464599609375" lon="-0.75711292214691638946533203125">
        <ele>936</ele>
        <time>2022-05-06T13:17:00.000Z</time>
      </trkpt>
      <trkpt lat="40.1116138882935047149658203125" lon="-0.75711526907980442047119140625">
        <ele>936.20001220703125</ele>
        <time>2022-05-06T13:17:01.000Z</time>
      </trkpt>
      <trkpt lat="40.11172796599566936492919921875" lon="-0.75712256133556365966796875">
        <ele>937</ele>
        <time>2022-05-06T13:17:03.000Z</time>
      </trkpt>
      <trkpt lat="40.11178144253790378570556640625" lon="-0.75712792575359344482421875">
        <ele>937.20001220703125</ele>
        <time>2022-05-06T13:17:04.000Z</time>
      </trkpt>
      <trkpt lat="40.1118358410894870758056640625" lon="-0.7571314461529254913330078125">
        <ele>937.5999755859375</ele>
        <time>2022-05-06T13:17:05.000Z</time>
      </trkpt>
      <trkpt lat="40.11194220744073390960693359375" lon="-0.75713773258030414581298828125">
        <ele>938.20001220703125</ele>
        <time>2022-05-06T13:17:07.000Z</time>
      </trkpt>
      <trkpt lat="40.11199316941201686859130859375" lon="-0.757141001522541046142578125">
        <ele>938.5999755859375</ele>
        <time>2022-05-06T13:17:08.000Z</time>
      </trkpt>
      <trkpt lat="40.1120430417358875274658203125" lon="-0.75714443810284137725830078125">
        <ele>938.79998779296875</ele>
        <time>2022-05-06T13:17:09.000Z</time>
      </trkpt>
      <trkpt lat="40.11214287020266056060791015625" lon="-0.75714980252087116241455078125">
        <ele>939.20001220703125</ele>
        <time>2022-05-06T13:17:11.000Z</time>
      </trkpt>
      <trkpt lat="40.1122371666133403778076171875" lon="-0.75715600512921810150146484375">
        <ele>939.20001220703125</ele>
        <time>2022-05-06T13:17:13.000Z</time>
      </trkpt>
      <trkpt lat="40.1123327203094959259033203125" lon="-0.757168494164943695068359375">
        <ele>939</ele>
        <time>2022-05-06T13:17:15.000Z</time>
      </trkpt>
      <trkpt lat="40.1123806647956371307373046875" lon="-0.7571763731539249420166015625">
        <ele>939</ele>
        <time>2022-05-06T13:17:16.000Z</time>
      </trkpt>
      <trkpt lat="40.1124286092817783355712890625" lon="-0.75718383304774761199951171875">
        <ele>938.79998779296875</ele>
        <time>2022-05-06T13:17:17.000Z</time>
      </trkpt>
      <trkpt lat="40.112523324787616729736328125" lon="-0.757192634046077728271484375">
        <ele>938.79998779296875</ele>
        <time>2022-05-06T13:17:19.000Z</time>
      </trkpt>
      <trkpt lat="40.11261695064604282379150390625" lon="-0.75719908811151981353759765625">
        <ele>938.79998779296875</ele>
        <time>2022-05-06T13:17:21.000Z</time>
      </trkpt>
      <trkpt lat="40.112663805484771728515625" lon="-0.75720302760601043701171875">
        <ele>938.79998779296875</ele>
        <time>2022-05-06T13:17:22.000Z</time>
      </trkpt>
      <trkpt lat="40.11270998977124691009521484375" lon="-0.7572075538337230682373046875">
        <ele>938.79998779296875</ele>
        <time>2022-05-06T13:17:23.000Z</time>
      </trkpt>
      <trkpt lat="40.11275676079094409942626953125" lon="-0.7572099007666110992431640625">
        <ele>938.79998779296875</ele>
        <time>2022-05-06T13:17:24.000Z</time>
      </trkpt>
      <trkpt lat="40.1128034479916095733642578125" lon="-0.75721115805208683013916015625">
        <ele>938.79998779296875</ele>
        <time>2022-05-06T13:17:25.000Z</time>
      </trkpt>
      <trkpt lat="40.11289807967841625213623046875" lon="-0.7572145946323871612548828125">
        <ele>939</ele>
        <time>2022-05-06T13:17:27.000Z</time>
      </trkpt>
      <trkpt lat="40.1129922084510326385498046875" lon="-0.75722188688814640045166015625">
        <ele>938.5999755859375</ele>
        <time>2022-05-06T13:17:29.000Z</time>
      </trkpt>
      <trkpt lat="40.11308885179460048675537109375" lon="-0.7572290115058422088623046875">
        <ele>938.4000244140625</ele>
        <time>2022-05-06T13:17:31.000Z</time>
      </trkpt>
      <trkpt lat="40.1131853275001049041748046875" lon="-0.75723596848547458648681640625">
        <ele>938</ele>
        <time>2022-05-06T13:17:33.000Z</time>
      </trkpt>
      <trkpt lat="40.11323318816721439361572265625" lon="-0.7572414167225360870361328125">
        <ele>937.79998779296875</ele>
        <time>2022-05-06T13:17:34.000Z</time>
      </trkpt>
      <trkpt lat="40.1132820546627044677734375" lon="-0.757245607674121856689453125">
        <ele>937.5999755859375</ele>
        <time>2022-05-06T13:17:35.000Z</time>
      </trkpt>
      <trkpt lat="40.11338171549141407012939453125" lon="-0.75725005008280277252197265625">
        <ele>937.4000244140625</ele>
        <time>2022-05-06T13:17:37.000Z</time>
      </trkpt>
      <trkpt lat="40.113479532301425933837890625" lon="-0.7572501339018344879150390625">
        <ele>937.20001220703125</ele>
        <time>2022-05-06T13:17:39.000Z</time>
      </trkpt>
      <trkpt lat="40.11357785202562808990478515625" lon="-0.757249630987644195556640625">
        <ele>936.79998779296875</ele>
        <time>2022-05-06T13:17:41.000Z</time>
      </trkpt>
      <trkpt lat="40.11367809958755970001220703125" lon="-0.7572457753121852874755859375">
        <ele>936.5999755859375</ele>
        <time>2022-05-06T13:17:43.000Z</time>
      </trkpt>
      <trkpt lat="40.11377885006368160247802734375" lon="-0.7572387345135211944580078125">
        <ele>936.79998779296875</ele>
        <time>2022-05-06T13:17:45.000Z</time>
      </trkpt>
      <trkpt lat="40.11388043873012065887451171875" lon="-0.7572264969348907470703125">
        <ele>937</ele>
        <time>2022-05-06T13:17:47.000Z</time>
      </trkpt>
      <trkpt lat="40.1139789260923862457275390625" lon="-0.75720629654824733734130859375">
        <ele>937.5999755859375</ele>
        <time>2022-05-06T13:17:49.000Z</time>
      </trkpt>
      <trkpt lat="40.11402796022593975067138671875" lon="-0.7571938075125217437744140625">
        <ele>937.79998779296875</ele>
        <time>2022-05-06T13:17:50.000Z</time>
      </trkpt>
      <trkpt lat="40.11407657526433467864990234375" lon="-0.75718031264841556549072265625">
        <ele>938</ele>
        <time>2022-05-06T13:17:51.000Z</time>
      </trkpt>
      <trkpt lat="40.1141737215220928192138671875" lon="-0.75714561156928539276123046875">
        <ele>938.5999755859375</ele>
        <time>2022-05-06T13:17:53.000Z</time>
      </trkpt>
      <trkpt lat="40.1142689399421215057373046875" lon="-0.75709984637796878814697265625">
        <ele>939.4000244140625</ele>
        <time>2022-05-06T13:17:55.000Z</time>
      </trkpt>
      <trkpt lat="40.1143611408770084381103515625" lon="-0.75704469345510005950927734375">
        <ele>940.20001220703125</ele>
        <time>2022-05-06T13:17:57.000Z</time>
      </trkpt>
      <trkpt lat="40.11445057578384876251220703125" lon="-0.75698518194258213043212890625">
        <ele>941</ele>
        <time>2022-05-06T13:17:59.000Z</time>
      </trkpt>
      <trkpt lat="40.11453556828200817108154296875" lon="-0.75692449696362018585205078125">
        <ele>942</ele>
        <time>2022-05-06T13:18:01.000Z</time>
      </trkpt>
      <trkpt lat="40.1146177947521209716796875" lon="-0.756855346262454986572265625">
        <ele>942.5999755859375</ele>
        <time>2022-05-06T13:18:03.000Z</time>
      </trkpt>
      <trkpt lat="40.11469666846096515655517578125" lon="-0.7567770592868328094482421875">
        <ele>942.5999755859375</ele>
        <time>2022-05-06T13:18:05.000Z</time>
      </trkpt>
      <trkpt lat="40.11473690159618854522705078125" lon="-0.75673741288483142852783203125">
        <ele>942.5999755859375</ele>
        <time>2022-05-06T13:18:06.000Z</time>
      </trkpt>
      <trkpt lat="40.11477277614176273345947265625" lon="-0.75669751502573490142822265625">
        <ele>942.5999755859375</ele>
        <time>2022-05-06T13:18:07.000Z</time>
      </trkpt>
      <trkpt lat="40.11484284885227680206298828125" lon="-0.7566164620220661163330078125">
        <ele>942.79998779296875</ele>
        <time>2022-05-06T13:18:09.000Z</time>
      </trkpt>
      <trkpt lat="40.11487620882689952850341796875" lon="-0.75657295994460582733154296875">
        <ele>943</ele>
        <time>2022-05-06T13:18:10.000Z</time>
      </trkpt>
      <trkpt lat="40.11491342447698116302490234375" lon="-0.75652652420103549957275390625">
        <ele>943</ele>
        <time>2022-05-06T13:18:11.000Z</time>
      </trkpt>
      <trkpt lat="40.11494980193674564361572265625" lon="-0.7564783282577991485595703125">
        <ele>943.20001220703125</ele>
        <time>2022-05-06T13:18:12.000Z</time>
      </trkpt>
      <trkpt lat="40.11498517356812953948974609375" lon="-0.75642862357199192047119140625">
        <ele>943.20001220703125</ele>
        <time>2022-05-06T13:18:13.000Z</time>
      </trkpt>
      <trkpt lat="40.11504988186061382293701171875" lon="-0.756322257220745086669921875">
        <ele>943.79998779296875</ele>
        <time>2022-05-06T13:18:15.000Z</time>
      </trkpt>
      <trkpt lat="40.115115679800510406494140625" lon="-0.75620600022375583648681640625">
        <ele>944.20001220703125</ele>
        <time>2022-05-06T13:18:17.000Z</time>
      </trkpt>
      <trkpt lat="40.1151756942272186279296875" lon="-0.7560830377042293548583984375">
        <ele>945</ele>
        <time>2022-05-06T13:18:19.000Z</time>
      </trkpt>
      <trkpt lat="40.1152258180081844329833984375" lon="-0.755956470966339111328125">
        <ele>945.79998779296875</ele>
        <time>2022-05-06T13:18:21.000Z</time>
      </trkpt>
      <trkpt lat="40.1152677275240421295166015625" lon="-0.755835436284542083740234375">
        <ele>946.5999755859375</ele>
        <time>2022-05-06T13:18:23.000Z</time>
      </trkpt>
      <trkpt lat="40.11530351825058460235595703125" lon="-0.75571632944047451019287109375">
        <ele>947.5999755859375</ele>
        <time>2022-05-06T13:18:25.000Z</time>
      </trkpt>
      <trkpt lat="40.11531977914273738861083984375" lon="-0.755658410489559173583984375">
        <ele>948</ele>
        <time>2022-05-06T13:18:26.000Z</time>
      </trkpt>
      <trkpt lat="40.11533587239682674407958984375" lon="-0.75560065917670726776123046875">
        <ele>948.4000244140625</ele>
        <time>2022-05-06T13:18:27.000Z</time>
      </trkpt>
      <trkpt lat="40.11536621488630771636962890625" lon="-0.75547878630459308624267578125">
        <ele>948.79998779296875</ele>
        <time>2022-05-06T13:18:29.000Z</time>
      </trkpt>
      <trkpt lat="40.11538616381585597991943359375" lon="-0.7553467713296413421630859375">
        <ele>949.20001220703125</ele>
        <time>2022-05-06T13:18:31.000Z</time>
      </trkpt>
      <trkpt lat="40.11539471335709095001220703125" lon="-0.75527996756136417388916015625">
        <ele>949.5999755859375</ele>
        <time>2022-05-06T13:18:32.000Z</time>
      </trkpt>
      <trkpt lat="40.11540125124156475067138671875" lon="-0.75521090067923069000244140625">
        <ele>949.79998779296875</ele>
        <time>2022-05-06T13:18:33.000Z</time>
      </trkpt>
      <trkpt lat="40.11541231535375118255615234375" lon="-0.75507025234401226043701171875">
        <ele>950.4000244140625</ele>
        <time>2022-05-06T13:18:35.000Z</time>
      </trkpt>
      <trkpt lat="40.1154170930385589599609375" lon="-0.75493027456104755401611328125">
        <ele>951</ele>
        <time>2022-05-06T13:18:37.000Z</time>
      </trkpt>
      <trkpt lat="40.11541348882019519805908203125" lon="-0.7547855190932750701904296875">
        <ele>951.79998779296875</ele>
        <time>2022-05-06T13:18:39.000Z</time>
      </trkpt>
      <trkpt lat="40.115411393344402313232421875" lon="-0.75471268035471439361572265625">
        <ele>952</ele>
        <time>2022-05-06T13:18:40.000Z</time>
      </trkpt>
      <trkpt lat="40.1154061965644359588623046875" lon="-0.7546390034258365631103515625">
        <ele>951.5999755859375</ele>
        <time>2022-05-06T13:18:41.000Z</time>
      </trkpt>
      <trkpt lat="40.11539571918547153472900390625" lon="-0.7545639015734195709228515625">
        <ele>951.20001220703125</ele>
        <time>2022-05-06T13:18:42.000Z</time>
      </trkpt>
      <trkpt lat="40.11538515798747539520263671875" lon="-0.75448871590197086334228515625">
        <ele>950.79998779296875</ele>
        <time>2022-05-06T13:18:43.000Z</time>
      </trkpt>
      <trkpt lat="40.11535867117345333099365234375" lon="-0.75434203259646892547607421875">
        <ele>949.79998779296875</ele>
        <time>2022-05-06T13:18:45.000Z</time>
      </trkpt>
      <trkpt lat="40.11532799340784549713134765625" lon="-0.75419484637677669525146484375">
        <ele>949</ele>
        <time>2022-05-06T13:18:47.000Z</time>
      </trkpt>
      <trkpt lat="40.11529027484357357025146484375" lon="-0.7540435530245304107666015625">
        <ele>948.20001220703125</ele>
        <time>2022-05-06T13:18:49.000Z</time>
      </trkpt>
      <trkpt lat="40.11525548994541168212890625" lon="-0.75388655997812747955322265625">
        <ele>946.79998779296875</ele>
        <time>2022-05-06T13:18:51.000Z</time>
      </trkpt>
      <trkpt lat="40.11521995067596435546875" lon="-0.75373250059783458709716796875">
        <ele>945</ele>
        <time>2022-05-06T13:18:53.000Z</time>
      </trkpt>
      <trkpt lat="40.115181393921375274658203125" lon="-0.75358045287430286407470703125">
        <ele>943.20001220703125</ele>
        <time>2022-05-06T13:18:55.000Z</time>
      </trkpt>
      <trkpt lat="40.11514283716678619384765625" lon="-0.75342874042689800262451171875">
        <ele>941.20001220703125</ele>
        <time>2022-05-06T13:18:57.000Z</time>
      </trkpt>
      <trkpt lat="40.11510687880218029022216796875" lon="-0.7532761059701442718505859375">
        <ele>940.20001220703125</ele>
        <time>2022-05-06T13:18:59.000Z</time>
      </trkpt>
      <trkpt lat="40.11507041752338409423828125" lon="-0.7531252317130565643310546875">
        <ele>939.5999755859375</ele>
        <time>2022-05-06T13:19:01.000Z</time>
      </trkpt>
      <trkpt lat="40.115034542977809906005859375" lon="-0.75297653675079345703125">
        <ele>939.4000244140625</ele>
        <time>2022-05-06T13:19:03.000Z</time>
      </trkpt>
      <trkpt lat="40.11500076390802860260009765625" lon="-0.75282859615981578826904296875">
        <ele>939.4000244140625</ele>
        <time>2022-05-06T13:19:05.000Z</time>
      </trkpt>
      <trkpt lat="40.11496773920953273773193359375" lon="-0.75268140994012355804443359375">
        <ele>939.4000244140625</ele>
        <time>2022-05-06T13:19:07.000Z</time>
      </trkpt>
      <trkpt lat="40.11493387632071971893310546875" lon="-0.75253807939589023590087890625">
        <ele>940.4000244140625</ele>
        <time>2022-05-06T13:19:09.000Z</time>
      </trkpt>
      <trkpt lat="40.11490143835544586181640625" lon="-0.75239826925098896026611328125">
        <ele>941.5999755859375</ele>
        <time>2022-05-06T13:19:11.000Z</time>
      </trkpt>
      <trkpt lat="40.1148721016943454742431640625" lon="-0.752265416085720062255859375">
        <ele>942.4000244140625</ele>
        <time>2022-05-06T13:19:13.000Z</time>
      </trkpt>
      <trkpt lat="40.11485877446830272674560546875" lon="-0.75220129452645778656005859375">
        <ele>943</ele>
        <time>2022-05-06T13:19:14.000Z</time>
      </trkpt>
      <trkpt lat="40.11484519578516483306884765625" lon="-0.75213742442429065704345703125">
        <ele>943.5999755859375</ele>
        <time>2022-05-06T13:19:15.000Z</time>
      </trkpt>
      <trkpt lat="40.1148171164095401763916015625" lon="-0.75200800783932209014892578125">
        <ele>945.20001220703125</ele>
        <time>2022-05-06T13:19:17.000Z</time>
      </trkpt>
      <trkpt lat="40.11478853411972522735595703125" lon="-0.75187909416854381561279296875">
        <ele>945.20001220703125</ele>
        <time>2022-05-06T13:19:19.000Z</time>
      </trkpt>
      <trkpt lat="40.11475986801087856292724609375" lon="-0.75175135396420955657958984375">
        <ele>945</ele>
        <time>2022-05-06T13:19:21.000Z</time>
      </trkpt>
      <trkpt lat="40.11474662460386753082275390625" lon="-0.7516858913004398345947265625">
        <ele>945</ele>
        <time>2022-05-06T13:19:22.000Z</time>
      </trkpt>
      <trkpt lat="40.1147336326539516448974609375" lon="-0.75161891989409923553466796875">
        <ele>945</ele>
        <time>2022-05-06T13:19:23.000Z</time>
      </trkpt>
      <trkpt lat="40.1147044636309146881103515625" lon="-0.75148615054786205291748046875">
        <ele>944.79998779296875</ele>
        <time>2022-05-06T13:19:25.000Z</time>
      </trkpt>
      <trkpt lat="40.1146763004362583160400390625" lon="-0.7513526268303394317626953125">
        <ele>945</ele>
        <time>2022-05-06T13:19:27.000Z</time>
      </trkpt>
      <trkpt lat="40.11465023271739482879638671875" lon="-0.75121700763702392578125">
        <ele>945.5999755859375</ele>
        <time>2022-05-06T13:19:29.000Z</time>
      </trkpt>
      <trkpt lat="40.11461737565696239471435546875" lon="-0.751079879701137542724609375">
        <ele>945.79998779296875</ele>
        <time>2022-05-06T13:19:31.000Z</time>
      </trkpt>
      <trkpt lat="40.114585272967815399169921875" lon="-0.750946104526519775390625">
        <ele>946.20001220703125</ele>
        <time>2022-05-06T13:19:33.000Z</time>
      </trkpt>
      <trkpt lat="40.11454931460320949554443359375" lon="-0.7508186995983123779296875">
        <ele>947.20001220703125</ele>
        <time>2022-05-06T13:19:35.000Z</time>
      </trkpt>
      <trkpt lat="40.1145133562386035919189453125" lon="-0.75069456361234188079833984375">
        <ele>948</ele>
        <time>2022-05-06T13:19:37.000Z</time>
      </trkpt>
      <trkpt lat="40.11446884833276271820068359375" lon="-0.7505771331489086151123046875">
        <ele>948.20001220703125</ele>
        <time>2022-05-06T13:19:39.000Z</time>
      </trkpt>
      <trkpt lat="40.1144479773938655853271484375" lon="-0.75051653198897838592529296875">
        <ele>948.4000244140625</ele>
        <time>2022-05-06T13:19:40.000Z</time>
      </trkpt>
      <trkpt lat="40.11442626826465129852294921875" lon="-0.7504557631909847259521484375">
        <ele>948.79998779296875</ele>
        <time>2022-05-06T13:19:41.000Z</time>
      </trkpt>
      <trkpt lat="40.11438553221523761749267578125" lon="-0.750326178967952728271484375">
        <ele>949.79998779296875</ele>
        <time>2022-05-06T13:19:43.000Z</time>
      </trkpt>
      <trkpt lat="40.1143467240035533905029296875" lon="-0.7501915656030178070068359375">
        <ele>950.79998779296875</ele>
        <time>2022-05-06T13:19:45.000Z</time>
      </trkpt>
      <trkpt lat="40.114309675991535186767578125" lon="-0.750051923096179962158203125">
        <ele>951.79998779296875</ele>
        <time>2022-05-06T13:19:47.000Z</time>
      </trkpt>
      <trkpt lat="40.11427036486566066741943359375" lon="-0.749915130436420440673828125">
        <ele>951.20001220703125</ele>
        <time>2022-05-06T13:19:49.000Z</time>
      </trkpt>
      <trkpt lat="40.11422560550272464752197265625" lon="-0.74978982098400592803955078125">
        <ele>949.79998779296875</ele>
        <time>2022-05-06T13:19:51.000Z</time>
      </trkpt>
      <trkpt lat="40.11418621055781841278076171875" lon="-0.74968345463275909423828125">
        <ele>948.79998779296875</ele>
        <time>2022-05-06T13:19:53.000Z</time>
      </trkpt>
      <trkpt lat="40.114171542227268218994140625" lon="-0.7496336661279201507568359375">
        <ele>948.5999755859375</ele>
        <time>2022-05-06T13:19:54.000Z</time>
      </trkpt>
      <trkpt lat="40.11415486223995685577392578125" lon="-0.74958345852792263031005859375">
        <ele>948.20001220703125</ele>
        <time>2022-05-06T13:19:55.000Z</time>
      </trkpt>
      <trkpt lat="40.11411295272409915924072265625" lon="-0.749469883739948272705078125">
        <ele>947.5999755859375</ele>
        <time>2022-05-06T13:19:57.000Z</time>
      </trkpt>
      <trkpt lat="40.11406123638153076171875" lon="-0.7493248768150806427001953125">
        <ele>946.20001220703125</ele>
        <time>2022-05-06T13:19:59.000Z</time>
      </trkpt>
      <trkpt lat="40.11400734074413776397705078125" lon="-0.74916553683578968048095703125">
        <ele>944.4000244140625</ele>
        <time>2022-05-06T13:20:01.000Z</time>
      </trkpt>
      <trkpt lat="40.11395788751542568206787109375" lon="-0.7490180991590023040771484375">
        <ele>942.79998779296875</ele>
        <time>2022-05-06T13:20:03.000Z</time>
      </trkpt>
      <trkpt lat="40.11391011066734790802001953125" lon="-0.7488705776631832122802734375">
        <ele>941.20001220703125</ele>
        <time>2022-05-06T13:20:05.000Z</time>
      </trkpt>
      <trkpt lat="40.11388714425265789031982421875" lon="-0.7487958110868930816650390625">
        <ele>940.20001220703125</ele>
        <time>2022-05-06T13:20:06.000Z</time>
      </trkpt>
      <trkpt lat="40.11386384256184101104736328125" lon="-0.7487213797867298126220703125">
        <ele>939.5999755859375</ele>
        <time>2022-05-06T13:20:07.000Z</time>
      </trkpt>
      <trkpt lat="40.11382059194147586822509765625" lon="-0.74856899678707122802734375">
        <ele>939.20001220703125</ele>
        <time>2022-05-06T13:20:09.000Z</time>
      </trkpt>
      <trkpt lat="40.113774240016937255859375" lon="-0.74842055328190326690673828125">
        <ele>939</ele>
        <time>2022-05-06T13:20:11.000Z</time>
      </trkpt>
      <trkpt lat="40.11373107321560382843017578125" lon="-0.74827034957706928253173828125">
        <ele>938.5999755859375</ele>
        <time>2022-05-06T13:20:13.000Z</time>
      </trkpt>
      <trkpt lat="40.11369653977453708648681640625" lon="-0.74811595492064952850341796875">
        <ele>938.4000244140625</ele>
        <time>2022-05-06T13:20:15.000Z</time>
      </trkpt>
      <trkpt lat="40.11366770602762699127197265625" lon="-0.74795619584619998931884765625">
        <ele>938.20001220703125</ele>
        <time>2022-05-06T13:20:17.000Z</time>
      </trkpt>
      <trkpt lat="40.11365530081093311309814453125" lon="-0.747873969376087188720703125">
        <ele>938</ele>
        <time>2022-05-06T13:20:18.000Z</time>
      </trkpt>
      <trkpt lat="40.113644488155841827392578125" lon="-0.747790820896625518798828125">
        <ele>937.79998779296875</ele>
        <time>2022-05-06T13:20:19.000Z</time>
      </trkpt>
      <trkpt lat="40.1136349327862262725830078125" lon="-0.747707672417163848876953125">
        <ele>937.5999755859375</ele>
        <time>2022-05-06T13:20:20.000Z</time>
      </trkpt>
      <trkpt lat="40.113626383244991302490234375" lon="-0.7476240210235118865966796875">
        <ele>937.5999755859375</ele>
        <time>2022-05-06T13:20:21.000Z</time>
      </trkpt>
      <trkpt lat="40.1136114634573459625244140625" lon="-0.74745579622685909271240234375">
        <ele>937.20001220703125</ele>
        <time>2022-05-06T13:20:23.000Z</time>
      </trkpt>
      <trkpt lat="40.11359746567904949188232421875" lon="-0.7472874037921428680419921875">
        <ele>936.79998779296875</ele>
        <time>2022-05-06T13:20:25.000Z</time>
      </trkpt>
      <trkpt lat="40.11358187533915042877197265625" lon="-0.74711800552904605865478515625">
        <ele>936.5999755859375</ele>
        <time>2022-05-06T13:20:27.000Z</time>
      </trkpt>
      <trkpt lat="40.1135655306279659271240234375" lon="-0.7469444163143634796142578125">
        <ele>936.79998779296875</ele>
        <time>2022-05-06T13:20:29.000Z</time>
      </trkpt>
      <trkpt lat="40.11354918591678142547607421875" lon="-0.74677216820418834686279296875">
        <ele>936.79998779296875</ele>
        <time>2022-05-06T13:20:31.000Z</time>
      </trkpt>
      <trkpt lat="40.11353527195751667022705078125" lon="-0.74660369195044040679931640625">
        <ele>936.79998779296875</ele>
        <time>2022-05-06T13:20:33.000Z</time>
      </trkpt>
      <trkpt lat="40.1135276444256305694580078125" lon="-0.74652104638516902923583984375">
        <ele>937</ele>
        <time>2022-05-06T13:20:34.000Z</time>
      </trkpt>
      <trkpt lat="40.1135206036269664764404296875" lon="-0.74643873609602451324462890625">
        <ele>937.20001220703125</ele>
        <time>2022-05-06T13:20:35.000Z</time>
      </trkpt>
      <trkpt lat="40.113506019115447998046875" lon="-0.74627294205129146575927734375">
        <ele>937.5999755859375</ele>
        <time>2022-05-06T13:20:37.000Z</time>
      </trkpt>
      <trkpt lat="40.11349059641361236572265625" lon="-0.74610672891139984130859375">
        <ele>938.20001220703125</ele>
        <time>2022-05-06T13:20:39.000Z</time>
      </trkpt>
      <trkpt lat="40.11347450315952301025390625" lon="-0.7459419406950473785400390625">
        <ele>939</ele>
        <time>2022-05-06T13:20:41.000Z</time>
      </trkpt>
      <trkpt lat="40.11345866136252880096435546875" lon="-0.74577748775482177734375">
        <ele>939.79998779296875</ele>
        <time>2022-05-06T13:20:43.000Z</time>
      </trkpt>
      <trkpt lat="40.113443322479724884033203125" lon="-0.74561613611876964569091796875">
        <ele>940.5999755859375</ele>
        <time>2022-05-06T13:20:45.000Z</time>
      </trkpt>
      <trkpt lat="40.11342613957822322845458984375" lon="-0.7454578019678592681884765625">
        <ele>941.20001220703125</ele>
        <time>2022-05-06T13:20:47.000Z</time>
      </trkpt>
      <trkpt lat="40.11340937577188014984130859375" lon="-0.745300389826297760009765625">
        <ele>941.79998779296875</ele>
        <time>2022-05-06T13:20:49.000Z</time>
      </trkpt>
      <trkpt lat="40.11339277960360050201416015625" lon="-0.74513912200927734375">
        <ele>942.20001220703125</ele>
        <time>2022-05-06T13:20:51.000Z</time>
      </trkpt>
      <trkpt lat="40.11337869800627231597900390625" lon="-0.74497617781162261962890625">
        <ele>943.20001220703125</ele>
        <time>2022-05-06T13:20:53.000Z</time>
      </trkpt>
      <trkpt lat="40.11336243711411952972412109375" lon="-0.74481683783233165740966796875">
        <ele>944.20001220703125</ele>
        <time>2022-05-06T13:20:55.000Z</time>
      </trkpt>
      <trkpt lat="40.11332991532981395721435546875" lon="-0.74466747231781482696533203125">
        <ele>945.20001220703125</ele>
        <time>2022-05-06T13:20:57.000Z</time>
      </trkpt>
      <trkpt lat="40.113296806812286376953125" lon="-0.7445193640887737274169921875">
        <ele>945.4000244140625</ele>
        <time>2022-05-06T13:20:59.000Z</time>
      </trkpt>
      <trkpt lat="40.11327895335853099822998046875" lon="-0.74444350786507129669189453125">
        <ele>945.4000244140625</ele>
        <time>2022-05-06T13:21:00.000Z</time>
      </trkpt>
      <trkpt lat="40.11325749568641185760498046875" lon="-0.74437108822166919708251953125">
        <ele>945.5999755859375</ele>
        <time>2022-05-06T13:21:01.000Z</time>
      </trkpt>
      <trkpt lat="40.11323234997689723968505859375" lon="-0.74430336244404315948486328125">
        <ele>945.79998779296875</ele>
        <time>2022-05-06T13:21:02.000Z</time>
      </trkpt>
      <trkpt lat="40.1132044382393360137939453125" lon="-0.7442387379705905914306640625">
        <ele>946</ele>
        <time>2022-05-06T13:21:03.000Z</time>
      </trkpt>
      <trkpt lat="40.1131782867014408111572265625" lon="-0.74417528696358203887939453125">
        <ele>946.4000244140625</ele>
        <time>2022-05-06T13:21:04.000Z</time>
      </trkpt>
      <trkpt lat="40.11315121315419673919677734375" lon="-0.74411342851817607879638671875">
        <ele>946.5999755859375</ele>
        <time>2022-05-06T13:21:05.000Z</time>
      </trkpt>
      <trkpt lat="40.1131202839314937591552734375" lon="-0.74405240826308727264404296875">
        <ele>947</ele>
        <time>2022-05-06T13:21:06.000Z</time>
      </trkpt>
      <trkpt lat="40.113087594509124755859375" lon="-0.74399172328412532806396484375">
        <ele>947.4000244140625</ele>
        <time>2022-05-06T13:21:07.000Z</time>
      </trkpt>
      <trkpt lat="40.11301693506538867950439453125" lon="-0.7438685931265354156494140625">
        <ele>948.20001220703125</ele>
        <time>2022-05-06T13:21:09.000Z</time>
      </trkpt>
      <trkpt lat="40.11294166557490825653076171875" lon="-0.74375183321535587310791015625">
        <ele>948.5999755859375</ele>
        <time>2022-05-06T13:21:11.000Z</time>
      </trkpt>
      <trkpt lat="40.1128611154854297637939453125" lon="-0.74365376494824886322021484375">
        <ele>949</ele>
        <time>2022-05-06T13:21:13.000Z</time>
      </trkpt>
      <trkpt lat="40.11277419514954090118408203125" lon="-0.74355200864374637603759765625">
        <ele>949.5999755859375</ele>
        <time>2022-05-06T13:21:15.000Z</time>
      </trkpt>
      <trkpt lat="40.11268199421465396881103515625" lon="-0.74345670640468597412109375">
        <ele>950.20001220703125</ele>
        <time>2022-05-06T13:21:17.000Z</time>
      </trkpt>
      <trkpt lat="40.11258258484303951263427734375" lon="-0.743367187678813934326171875">
        <ele>950.5999755859375</ele>
        <time>2022-05-06T13:21:19.000Z</time>
      </trkpt>
      <trkpt lat="40.1124775595963001251220703125" lon="-0.7432885654270648956298828125">
        <ele>950.4000244140625</ele>
        <time>2022-05-06T13:21:21.000Z</time>
      </trkpt>
      <trkpt lat="40.1123645715415477752685546875" lon="-0.743211619555950164794921875">
        <ele>950.20001220703125</ele>
        <time>2022-05-06T13:21:23.000Z</time>
      </trkpt>
      <trkpt lat="40.11224596761167049407958984375" lon="-0.7431448996067047119140625">
        <ele>950.20001220703125</ele>
        <time>2022-05-06T13:21:25.000Z</time>
      </trkpt>
      <trkpt lat="40.11212593875825405120849609375" lon="-0.7430853880941867828369140625">
        <ele>950.20001220703125</ele>
        <time>2022-05-06T13:21:27.000Z</time>
      </trkpt>
      <trkpt lat="40.11200909502804279327392578125" lon="-0.7430250383913516998291015625">
        <ele>949.4000244140625</ele>
        <time>2022-05-06T13:21:29.000Z</time>
      </trkpt>
      <trkpt lat="40.11194924823939800262451171875" lon="-0.742997713387012481689453125">
        <ele>949</ele>
        <time>2022-05-06T13:21:30.000Z</time>
      </trkpt>
      <trkpt lat="40.111888982355594635009765625" lon="-0.74296862818300724029541015625">
        <ele>948.5999755859375</ele>
        <time>2022-05-06T13:21:31.000Z</time>
      </trkpt>
      <trkpt lat="40.11177004314959049224853515625" lon="-0.7429115474224090576171875">
        <ele>947.5999755859375</ele>
        <time>2022-05-06T13:21:33.000Z</time>
      </trkpt>
      <trkpt lat="40.11171103455126285552978515625" lon="-0.7428875751793384552001953125">
        <ele>947.20001220703125</ele>
        <time>2022-05-06T13:21:34.000Z</time>
      </trkpt>
      <trkpt lat="40.1116527803242206573486328125" lon="-0.7428637705743312835693359375">
        <ele>946.79998779296875</ele>
        <time>2022-05-06T13:21:35.000Z</time>
      </trkpt>
      <trkpt lat="40.1115371100604534149169921875" lon="-0.7428171671926975250244140625">
        <ele>946</ele>
        <time>2022-05-06T13:21:37.000Z</time>
      </trkpt>
      <trkpt lat="40.11141750030219554901123046875" lon="-0.74276813305914402008056640625">
        <ele>945.4000244140625</ele>
        <time>2022-05-06T13:21:39.000Z</time>
      </trkpt>
      <trkpt lat="40.1112967170774936676025390625" lon="-0.742718093097209930419921875">
        <ele>945</ele>
        <time>2022-05-06T13:21:41.000Z</time>
      </trkpt>
      <trkpt lat="40.1111760176718235015869140625" lon="-0.742668472230434417724609375">
        <ele>944.4000244140625</ele>
        <time>2022-05-06T13:21:43.000Z</time>
      </trkpt>
      <trkpt lat="40.11105322279036045074462890625" lon="-0.742619521915912628173828125">
        <ele>944</ele>
        <time>2022-05-06T13:21:45.000Z</time>
      </trkpt>
      <trkpt lat="40.11092883534729480743408203125" lon="-0.74256881140172481536865234375">
        <ele>943.4000244140625</ele>
        <time>2022-05-06T13:21:47.000Z</time>
      </trkpt>
      <trkpt lat="40.1108052022755146026611328125" lon="-0.7425164245069026947021484375">
        <ele>943.5999755859375</ele>
        <time>2022-05-06T13:21:49.000Z</time>
      </trkpt>
      <trkpt lat="40.1106757856905460357666015625" lon="-0.74247711338102817535400390625">
        <ele>943.79998779296875</ele>
        <time>2022-05-06T13:21:51.000Z</time>
      </trkpt>
      <trkpt lat="40.110550560057163238525390625" lon="-0.74243470095098018646240234375">
        <ele>943.79998779296875</ele>
        <time>2022-05-06T13:21:53.000Z</time>
      </trkpt>
      <trkpt lat="40.11048794724047183990478515625" lon="-0.74241978116333484649658203125">
        <ele>944</ele>
        <time>2022-05-06T13:21:54.000Z</time>
      </trkpt>
      <trkpt lat="40.11042525060474872589111328125" lon="-0.74240854941308498382568359375">
        <ele>944</ele>
        <time>2022-05-06T13:21:55.000Z</time>
      </trkpt>
      <trkpt lat="40.1103007793426513671875" lon="-0.7423833198845386505126953125">
        <ele>944.4000244140625</ele>
        <time>2022-05-06T13:21:57.000Z</time>
      </trkpt>
      <trkpt lat="40.11017739772796630859375" lon="-0.7423497922718524932861328125">
        <ele>944.5999755859375</ele>
        <time>2022-05-06T13:21:59.000Z</time>
      </trkpt>
      <trkpt lat="40.1100528426468372344970703125" lon="-0.74232405982911586761474609375">
        <ele>945</ele>
        <time>2022-05-06T13:22:01.000Z</time>
      </trkpt>
      <trkpt lat="40.10999006219208240509033203125" lon="-0.7423160970211029052734375">
        <ele>945</ele>
        <time>2022-05-06T13:22:02.000Z</time>
      </trkpt>
      <trkpt lat="40.10992635972797870635986328125" lon="-0.7423105649650096893310546875">
        <ele>945.20001220703125</ele>
        <time>2022-05-06T13:22:03.000Z</time>
      </trkpt>
      <trkpt lat="40.10979945771396160125732421875" lon="-0.742304027080535888671875">
        <ele>945.5999755859375</ele>
        <time>2022-05-06T13:22:05.000Z</time>
      </trkpt>
      <trkpt lat="40.10967322625219821929931640625" lon="-0.74230209924280643463134765625">
        <ele>945.79998779296875</ele>
        <time>2022-05-06T13:22:07.000Z</time>
      </trkpt>
      <trkpt lat="40.1095484197139739990234375" lon="-0.7423041947185993194580078125">
        <ele>946.4000244140625</ele>
        <time>2022-05-06T13:22:09.000Z</time>
      </trkpt>
      <trkpt lat="40.10942478664219379425048828125" lon="-0.74230696074664592742919921875">
        <ele>946.79998779296875</ele>
        <time>2022-05-06T13:22:11.000Z</time>
      </trkpt>
      <trkpt lat="40.10936309583485126495361328125" lon="-0.74230712838470935821533203125">
        <ele>946.79998779296875</ele>
        <time>2022-05-06T13:22:12.000Z</time>
      </trkpt>
      <trkpt lat="40.10930190794169902801513671875" lon="-0.74230914004147052764892578125">
        <ele>947</ele>
        <time>2022-05-06T13:22:13.000Z</time>
      </trkpt>
      <trkpt lat="40.10918221436440944671630859375" lon="-0.74231810867786407470703125">
        <ele>947.20001220703125</ele>
        <time>2022-05-06T13:22:15.000Z</time>
      </trkpt>
      <trkpt lat="40.109063275158405303955078125" lon="-0.742332525551319122314453125">
        <ele>947.4000244140625</ele>
        <time>2022-05-06T13:22:17.000Z</time>
      </trkpt>
      <trkpt lat="40.10894265957176685333251953125" lon="-0.74234216473996639251708984375">
        <ele>947.5999755859375</ele>
        <time>2022-05-06T13:22:19.000Z</time>
      </trkpt>
      <trkpt lat="40.10882061906158924102783203125" lon="-0.7423578388988971710205078125">
        <ele>947.79998779296875</ele>
        <time>2022-05-06T13:22:21.000Z</time>
      </trkpt>
      <trkpt lat="40.10875917971134185791015625" lon="-0.7423638738691806793212890625">
        <ele>948</ele>
        <time>2022-05-06T13:22:22.000Z</time>
      </trkpt>
      <trkpt lat="40.10869807563722133636474609375" lon="-0.74236898683011531829833984375">
        <ele>947.79998779296875</ele>
        <time>2022-05-06T13:22:23.000Z</time>
      </trkpt>
      <trkpt lat="40.10857276618480682373046875" lon="-0.74238088913261890411376953125">
        <ele>947.79998779296875</ele>
        <time>2022-05-06T13:22:25.000Z</time>
      </trkpt>
      <trkpt lat="40.1084461994469165802001953125" lon="-0.74239413253962993621826171875">
        <ele>948</ele>
        <time>2022-05-06T13:22:27.000Z</time>
      </trkpt>
      <trkpt lat="40.1083191297948360443115234375" lon="-0.74240704067051410675048828125">
        <ele>948.20001220703125</ele>
        <time>2022-05-06T13:22:29.000Z</time>
      </trkpt>
      <trkpt lat="40.10819164104759693145751953125" lon="-0.7424175180494785308837890625">
        <ele>948.4000244140625</ele>
        <time>2022-05-06T13:22:31.000Z</time>
      </trkpt>
      <trkpt lat="40.1080663315951824188232421875" lon="-0.7424265705049037933349609375">
        <ele>948.5999755859375</ele>
        <time>2022-05-06T13:22:33.000Z</time>
      </trkpt>
      <trkpt lat="40.1079587079584598541259765625" lon="-0.74244090355932712554931640625">
        <ele>948.79998779296875</ele>
        <time>2022-05-06T13:22:35.000Z</time>
      </trkpt>
      <trkpt lat="40.10791319422423839569091796875" lon="-0.7424490340054035186767578125">
        <ele>948.79998779296875</ele>
        <time>2022-05-06T13:22:36.000Z</time>
      </trkpt>
      <trkpt lat="40.10786977596580982208251953125" lon="-0.742452554404735565185546875">
        <ele>949</ele>
        <time>2022-05-06T13:22:37.000Z</time>
      </trkpt>
      <trkpt lat="40.1077783294022083282470703125" lon="-0.74246537871658802032470703125">
        <ele>949.20001220703125</ele>
        <time>2022-05-06T13:22:39.000Z</time>
      </trkpt>
      <trkpt lat="40.10769593529403209686279296875" lon="-0.74247770011425018310546875">
        <ele>949.20001220703125</ele>
        <time>2022-05-06T13:22:41.000Z</time>
      </trkpt>
      <trkpt lat="40.1076586358249187469482421875" lon="-0.74248038232326507568359375">
        <ele>949.4000244140625</ele>
        <time>2022-05-06T13:22:42.000Z</time>
      </trkpt>
      <trkpt lat="40.10762720368802547454833984375" lon="-0.7424822263419628143310546875">
        <ele>949.20001220703125</ele>
        <time>2022-05-06T13:22:43.000Z</time>
      </trkpt>
      <trkpt lat="40.1075966097414493560791015625" lon="-0.7424877583980560302734375">
        <ele>949.20001220703125</ele>
        <time>2022-05-06T13:22:45.000Z</time>
      </trkpt>
      <trkpt lat="40.1075952686369419097900390625" lon="-0.742488093674182891845703125">
        <ele>949.20001220703125</ele>
        <time>2022-05-06T13:22:46.000Z</time>
      </trkpt>
      <trkpt lat="40.10759510099887847900390625" lon="-0.74248750694096088409423828125">
        <ele>949.20001220703125</ele>
        <time>2022-05-06T13:22:47.000Z</time>
      </trkpt>
      <trkpt lat="40.10755696333944797515869140625" lon="-0.742492787539958953857421875">
        <ele>949.20001220703125</ele>
        <time>2022-05-06T13:24:45.000Z</time>
      </trkpt>
      <trkpt lat="40.1075087673962116241455078125" lon="-0.74249739758670330047607421875">
        <ele>949.20001220703125</ele>
        <time>2022-05-06T13:24:47.000Z</time>
      </trkpt>
      <trkpt lat="40.10745101608335971832275390625" lon="-0.74250318109989166259765625">
        <ele>949.20001220703125</ele>
        <time>2022-05-06T13:24:49.000Z</time>
      </trkpt>
      <trkpt lat="40.10738722980022430419921875" lon="-0.74250695295631885528564453125">
        <ele>949.20001220703125</ele>
        <time>2022-05-06T13:24:51.000Z</time>
      </trkpt>
      <trkpt lat="40.10731103830039501190185546875" lon="-0.74250963516533374786376953125">
        <ele>949</ele>
        <time>2022-05-06T13:24:53.000Z</time>
      </trkpt>
      <trkpt lat="40.1072685420513153076171875" lon="-0.7425124011933803558349609375">
        <ele>949</ele>
        <time>2022-05-06T13:24:54.000Z</time>
      </trkpt>
      <trkpt lat="40.10722503997385501861572265625" lon="-0.74251332320272922515869140625">
        <ele>949</ele>
        <time>2022-05-06T13:24:55.000Z</time>
      </trkpt>
      <trkpt lat="40.10713434778153896331787109375" lon="-0.7425120659172534942626953125">
        <ele>948.79998779296875</ele>
        <time>2022-05-06T13:24:57.000Z</time>
      </trkpt>
      <trkpt lat="40.1070392131805419921875" lon="-0.742513239383697509765625">
        <ele>948.5999755859375</ele>
        <time>2022-05-06T13:24:59.000Z</time>
      </trkpt>
      <trkpt lat="40.10693938471376895904541015625" lon="-0.7425134070217609405517578125">
        <ele>948.4000244140625</ele>
        <time>2022-05-06T13:25:01.000Z</time>
      </trkpt>
      <trkpt lat="40.10688926093280315399169921875" lon="-0.74250896461308002471923828125">
        <ele>948.4000244140625</ele>
        <time>2022-05-06T13:25:02.000Z</time>
      </trkpt>
      <trkpt lat="40.1068382151424884796142578125" lon="-0.7425036840140819549560546875">
        <ele>948.20001220703125</ele>
        <time>2022-05-06T13:25:03.000Z</time>
      </trkpt>
      <trkpt lat="40.10673545300960540771484375" lon="-0.7424916140735149383544921875">
        <ele>947.5999755859375</ele>
        <time>2022-05-06T13:25:05.000Z</time>
      </trkpt>
      <trkpt lat="40.10662992484867572784423828125" lon="-0.7424765266478061676025390625">
        <ele>947</ele>
        <time>2022-05-06T13:25:07.000Z</time>
      </trkpt>
      <trkpt lat="40.10652146302163600921630859375" lon="-0.74245733208954334259033203125">
        <ele>946.4000244140625</ele>
        <time>2022-05-06T13:25:09.000Z</time>
      </trkpt>
      <trkpt lat="40.10641166009008884429931640625" lon="-0.74243453331291675567626953125">
        <ele>945.5999755859375</ele>
        <time>2022-05-06T13:25:11.000Z</time>
      </trkpt>
      <trkpt lat="40.106301270425319671630859375" lon="-0.742411315441131591796875">
        <ele>944.79998779296875</ele>
        <time>2022-05-06T13:25:13.000Z</time>
      </trkpt>
      <trkpt lat="40.106190629303455352783203125" lon="-0.74238474480807781219482421875">
        <ele>944.20001220703125</ele>
        <time>2022-05-06T13:25:15.000Z</time>
      </trkpt>
      <trkpt lat="40.10607638396322727203369140625" lon="-0.7423611916601657867431640625">
        <ele>943.5999755859375</ele>
        <time>2022-05-06T13:25:17.000Z</time>
      </trkpt>
      <trkpt lat="40.10595937259495258331298828125" lon="-0.74233629740774631500244140625">
        <ele>943.5999755859375</ele>
        <time>2022-05-06T13:25:19.000Z</time>
      </trkpt>
      <trkpt lat="40.10584085248410701751708984375" lon="-0.74230746366083621978759765625">
        <ele>943.79998779296875</ele>
        <time>2022-05-06T13:25:21.000Z</time>
      </trkpt>
      <trkpt lat="40.1057210750877857208251953125" lon="-0.74228013865649700164794921875">
        <ele>943.79998779296875</ele>
        <time>2022-05-06T13:25:23.000Z</time>
      </trkpt>
      <trkpt lat="40.1055990345776081085205078125" lon="-0.74225775897502899169921875">
        <ele>944</ele>
        <time>2022-05-06T13:25:25.000Z</time>
      </trkpt>
      <trkpt lat="40.1054759882390499114990234375" lon="-0.74223672039806842803955078125">
        <ele>944</ele>
        <time>2022-05-06T13:25:27.000Z</time>
      </trkpt>
      <trkpt lat="40.10535277426242828369140625" lon="-0.7422119937837123870849609375">
        <ele>944</ele>
        <time>2022-05-06T13:25:29.000Z</time>
      </trkpt>
      <trkpt lat="40.10523031465709209442138671875" lon="-0.74218726716935634613037109375">
        <ele>944.20001220703125</ele>
        <time>2022-05-06T13:25:31.000Z</time>
      </trkpt>
      <trkpt lat="40.10516895912587642669677734375" lon="-0.74217435903847217559814453125">
        <ele>944.20001220703125</ele>
        <time>2022-05-06T13:25:32.000Z</time>
      </trkpt>
      <trkpt lat="40.1051071844995021820068359375" lon="-0.74216228909790515899658203125">
        <ele>944.20001220703125</ele>
        <time>2022-05-06T13:25:33.000Z</time>
      </trkpt>
      <trkpt lat="40.1049844734370708465576171875" lon="-0.74213211424648761749267578125">
        <ele>944.4000244140625</ele>
        <time>2022-05-06T13:25:35.000Z</time>
      </trkpt>
      <trkpt lat="40.1048626005649566650390625" lon="-0.74210445396602153778076171875">
        <ele>944.4000244140625</ele>
        <time>2022-05-06T13:25:37.000Z</time>
      </trkpt>
      <trkpt lat="40.104742906987667083740234375" lon="-0.7420785538852214813232421875">
        <ele>944.5999755859375</ele>
        <time>2022-05-06T13:25:39.000Z</time>
      </trkpt>
      <trkpt lat="40.10462128557264804840087890625" lon="-0.74205114506185054779052734375">
        <ele>944.4000244140625</ele>
        <time>2022-05-06T13:25:41.000Z</time>
      </trkpt>
      <trkpt lat="40.104497484862804412841796875" lon="-0.74202482588589191436767578125">
        <ele>945.20001220703125</ele>
        <time>2022-05-06T13:25:43.000Z</time>
      </trkpt>
      <trkpt lat="40.10437167249619960784912109375" lon="-0.7419994287192821502685546875">
        <ele>946.20001220703125</ele>
        <time>2022-05-06T13:25:45.000Z</time>
      </trkpt>
      <trkpt lat="40.10424326173961162567138671875" lon="-0.74197403155267238616943359375">
        <ele>947.20001220703125</ele>
        <time>2022-05-06T13:25:47.000Z</time>
      </trkpt>
      <trkpt lat="40.1041781343519687652587890625" lon="-0.7419615425169467926025390625">
        <ele>947.5999755859375</ele>
        <time>2022-05-06T13:25:48.000Z</time>
      </trkpt>
      <trkpt lat="40.10411334224045276641845703125" lon="-0.7419481314718723297119140625">
        <ele>948.20001220703125</ele>
        <time>2022-05-06T13:25:49.000Z</time>
      </trkpt>
      <trkpt lat="40.10398409329354763031005859375" lon="-0.7419216446578502655029296875">
        <ele>948.79998779296875</ele>
        <time>2022-05-06T13:25:51.000Z</time>
      </trkpt>
      <trkpt lat="40.103855766355991363525390625" lon="-0.74189825914800167083740234375">
        <ele>949</ele>
        <time>2022-05-06T13:25:53.000Z</time>
      </trkpt>
      <trkpt lat="40.1037280261516571044921875" lon="-0.741868503391742706298828125">
        <ele>949.20001220703125</ele>
        <time>2022-05-06T13:25:55.000Z</time>
      </trkpt>
      <trkpt lat="40.10360129177570343017578125" lon="-0.7418398372828960418701171875">
        <ele>949.4000244140625</ele>
        <time>2022-05-06T13:25:57.000Z</time>
      </trkpt>
      <trkpt lat="40.10347531177103519439697265625" lon="-0.741810165345668792724609375">
        <ele>949.4000244140625</ele>
        <time>2022-05-06T13:25:59.000Z</time>
      </trkpt>
      <trkpt lat="40.10335025377571582794189453125" lon="-0.74178359471261501312255859375">
        <ele>949.4000244140625</ele>
        <time>2022-05-06T13:26:01.000Z</time>
      </trkpt>
      <trkpt lat="40.1032269559800624847412109375" lon="-0.741758532822132110595703125">
        <ele>950</ele>
        <time>2022-05-06T13:26:03.000Z</time>
      </trkpt>
      <trkpt lat="40.10316568426787853240966796875" lon="-0.74174604378640651702880859375">
        <ele>950.20001220703125</ele>
        <time>2022-05-06T13:26:04.000Z</time>
      </trkpt>
      <trkpt lat="40.103104077279567718505859375" lon="-0.7417315430939197540283203125">
        <ele>950.4000244140625</ele>
        <time>2022-05-06T13:26:05.000Z</time>
      </trkpt>
      <trkpt lat="40.1029837131500244140625" lon="-0.74170111678540706634521484375">
        <ele>950.79998779296875</ele>
        <time>2022-05-06T13:26:07.000Z</time>
      </trkpt>
      <trkpt lat="40.10287106037139892578125" lon="-0.7416708581149578094482421875">
        <ele>951.20001220703125</ele>
        <time>2022-05-06T13:26:09.000Z</time>
      </trkpt>
      <trkpt lat="40.10275681503117084503173828125" lon="-0.7416433654725551605224609375">
        <ele>951.5999755859375</ele>
        <time>2022-05-06T13:26:11.000Z</time>
      </trkpt>
      <trkpt lat="40.102699063718318939208984375" lon="-0.7416296191513538360595703125">
        <ele>952</ele>
        <time>2022-05-06T13:26:12.000Z</time>
      </trkpt>
      <trkpt lat="40.10264106094837188720703125" lon="-0.7416165433824062347412109375">
        <ele>952</ele>
        <time>2022-05-06T13:26:13.000Z</time>
      </trkpt>
      <trkpt lat="40.10252430103719234466552734375" lon="-0.74159248732030391693115234375">
        <ele>951.79998779296875</ele>
        <time>2022-05-06T13:26:15.000Z</time>
      </trkpt>
      <trkpt lat="40.10241064243018627166748046875" lon="-0.7415649108588695526123046875">
        <ele>951.79998779296875</ele>
        <time>2022-05-06T13:26:17.000Z</time>
      </trkpt>
      <trkpt lat="40.10229933075606822967529296875" lon="-0.74154236353933811187744140625">
        <ele>951.5999755859375</ele>
        <time>2022-05-06T13:26:19.000Z</time>
      </trkpt>
      <trkpt lat="40.1021946407854557037353515625" lon="-0.7415235042572021484375">
        <ele>951.5999755859375</ele>
        <time>2022-05-06T13:26:21.000Z</time>
      </trkpt>
      <trkpt lat="40.10211442597210407257080078125" lon="-0.7415099255740642547607421875">
        <ele>951.4000244140625</ele>
        <time>2022-05-06T13:26:23.000Z</time>
      </trkpt>
      <trkpt lat="40.1020565070211887359619140625" lon="-0.74149274267256259918212890625">
        <ele>951.20001220703125</ele>
        <time>2022-05-06T13:26:25.000Z</time>
      </trkpt>
      <trkpt lat="40.1020095683634281158447265625" lon="-0.74148804880678653717041015625">
        <ele>951</ele>
        <time>2022-05-06T13:26:27.000Z</time>
      </trkpt>
      <trkpt lat="40.101984255015850067138671875" lon="-0.741490982472896575927734375">
        <ele>950.79998779296875</ele>
        <time>2022-05-06T13:26:29.000Z</time>
      </trkpt>
      <trkpt lat="40.1019857637584209442138671875" lon="-0.74149274267256259918212890625">
        <ele>950.79998779296875</ele>
        <time>2022-05-06T13:26:30.000Z</time>
      </trkpt>
      <trkpt lat="40.10194242931902408599853515625" lon="-0.7414847798645496368408203125">
        <ele>950.79998779296875</ele>
        <time>2022-05-06T13:26:53.000Z</time>
      </trkpt>
      <trkpt lat="40.10191979818046092987060546875" lon="-0.74148117564618587493896484375">
        <ele>950.79998779296875</ele>
        <time>2022-05-06T13:26:54.000Z</time>
      </trkpt>
      <trkpt lat="40.10189406573772430419921875" lon="-0.7414743863046169281005859375">
        <ele>950.79998779296875</ele>
        <time>2022-05-06T13:26:55.000Z</time>
      </trkpt>
      <trkpt lat="40.10183245874941349029541015625" lon="-0.7414562813937664031982421875">
        <ele>950.5999755859375</ele>
        <time>2022-05-06T13:26:57.000Z</time>
      </trkpt>
      <trkpt lat="40.10175148956477642059326171875" lon="-0.74144102632999420166015625">
        <ele>950.4000244140625</ele>
        <time>2022-05-06T13:26:59.000Z</time>
      </trkpt>
      <trkpt lat="40.101660378277301788330078125" lon="-0.7414230890572071075439453125">
        <ele>950.4000244140625</ele>
        <time>2022-05-06T13:27:01.000Z</time>
      </trkpt>
      <trkpt lat="40.10156415402889251708984375" lon="-0.7414016313850879669189453125">
        <ele>950.20001220703125</ele>
        <time>2022-05-06T13:27:03.000Z</time>
      </trkpt>
      <trkpt lat="40.101465918123722076416015625" lon="-0.74138042517006397247314453125">
        <ele>950</ele>
        <time>2022-05-06T13:27:05.000Z</time>
      </trkpt>
      <trkpt lat="40.101366005837917327880859375" lon="-0.741358883678913116455078125">
        <ele>950</ele>
        <time>2022-05-06T13:27:07.000Z</time>
      </trkpt>
      <trkpt lat="40.101264417171478271484375" lon="-0.7413396053016185760498046875">
        <ele>949.79998779296875</ele>
        <time>2022-05-06T13:27:09.000Z</time>
      </trkpt>
      <trkpt lat="40.101159475743770599365234375" lon="-0.74132191948592662811279296875">
        <ele>948.79998779296875</ele>
        <time>2022-05-06T13:27:11.000Z</time>
      </trkpt>
      <trkpt lat="40.101048164069652557373046875" lon="-0.74129828251898288726806640625">
        <ele>947.5999755859375</ele>
        <time>2022-05-06T13:27:13.000Z</time>
      </trkpt>
      <trkpt lat="40.100990831851959228515625" lon="-0.74128671549260616302490234375">
        <ele>947</ele>
        <time>2022-05-06T13:27:14.000Z</time>
      </trkpt>
      <trkpt lat="40.100932829082012176513671875" lon="-0.74127682484686374664306640625">
        <ele>946.4000244140625</ele>
        <time>2022-05-06T13:27:15.000Z</time>
      </trkpt>
      <trkpt lat="40.10081489570438861846923828125" lon="-0.741254277527332305908203125">
        <ele>945</ele>
        <time>2022-05-06T13:27:17.000Z</time>
      </trkpt>
      <trkpt lat="40.1006956212222576141357421875" lon="-0.7412333227694034576416015625">
        <ele>943.79998779296875</ele>
        <time>2022-05-06T13:27:19.000Z</time>
      </trkpt>
      <trkpt lat="40.10057584382593631744384765625" lon="-0.74121228419244289398193359375">
        <ele>942.5999755859375</ele>
        <time>2022-05-06T13:27:21.000Z</time>
      </trkpt>
      <trkpt lat="40.10045648552477359771728515625" lon="-0.7411914132535457611083984375">
        <ele>942</ele>
        <time>2022-05-06T13:27:23.000Z</time>
      </trkpt>
      <trkpt lat="40.10033595375716686248779296875" lon="-0.74116744101047515869140625">
        <ele>941.79998779296875</ele>
        <time>2022-05-06T13:27:25.000Z</time>
      </trkpt>
      <trkpt lat="40.10027577169239521026611328125" lon="-0.74115671217441558837890625">
        <ele>941.79998779296875</ele>
        <time>2022-05-06T13:27:26.000Z</time>
      </trkpt>
      <trkpt lat="40.100215338170528411865234375" lon="-0.7411458157002925872802734375">
        <ele>941.79998779296875</ele>
        <time>2022-05-06T13:27:27.000Z</time>
      </trkpt>
      <trkpt lat="40.100093968212604522705078125" lon="-0.7411206699907779693603515625">
        <ele>941.5999755859375</ele>
        <time>2022-05-06T13:27:29.000Z</time>
      </trkpt>
      <trkpt lat="40.09997360408306121826171875" lon="-0.74109845794737339019775390625">
        <ele>941.5999755859375</ele>
        <time>2022-05-06T13:27:31.000Z</time>
      </trkpt>
      <trkpt lat="40.0998522341251373291015625" lon="-0.74107758700847625732421875">
        <ele>941.79998779296875</ele>
        <time>2022-05-06T13:27:33.000Z</time>
      </trkpt>
      <trkpt lat="40.0997256673872470855712890625" lon="-0.74105571024119853973388671875">
        <ele>942</ele>
        <time>2022-05-06T13:27:35.000Z</time>
      </trkpt>
      <trkpt lat="40.0996616296470165252685546875" lon="-0.74104481376707553863525390625">
        <ele>942.20001220703125</ele>
        <time>2022-05-06T13:27:36.000Z</time>
      </trkpt>
      <trkpt lat="40.09959784336388111114501953125" lon="-0.74103257618844509124755859375">
        <ele>942.4000244140625</ele>
        <time>2022-05-06T13:27:37.000Z</time>
      </trkpt>
      <trkpt lat="40.09946976788341999053955078125" lon="-0.741002149879932403564453125">
        <ele>943.4000244140625</ele>
        <time>2022-05-06T13:27:39.000Z</time>
      </trkpt>
      <trkpt lat="40.09934186004102230072021484375" lon="-0.74097524397075176239013671875">
        <ele>944.4000244140625</ele>
        <time>2022-05-06T13:27:41.000Z</time>
      </trkpt>
      <trkpt lat="40.09921319782733917236328125" lon="-0.74095110408961772918701171875">
        <ele>945.20001220703125</ele>
        <time>2022-05-06T13:27:43.000Z</time>
      </trkpt>
      <trkpt lat="40.099086128175258636474609375" lon="-0.74092444963753223419189453125">
        <ele>946.5999755859375</ele>
        <time>2022-05-06T13:27:45.000Z</time>
      </trkpt>
      <trkpt lat="40.098958723247051239013671875" lon="-0.740899555385112762451171875">
        <ele>947.79998779296875</ele>
        <time>2022-05-06T13:27:47.000Z</time>
      </trkpt>
      <trkpt lat="40.09883307851850986480712890625" lon="-0.74087466113269329071044921875">
        <ele>949.20001220703125</ele>
        <time>2022-05-06T13:27:49.000Z</time>
      </trkpt>
      <trkpt lat="40.0987077690660953521728515625" lon="-0.740850269794464111328125">
        <ele>950.20001220703125</ele>
        <time>2022-05-06T13:27:51.000Z</time>
      </trkpt>
      <trkpt lat="40.0985808670520782470703125" lon="-0.7408212684094905853271484375">
        <ele>951.20001220703125</ele>
        <time>2022-05-06T13:27:53.000Z</time>
      </trkpt>
      <trkpt lat="40.0984496064484119415283203125" lon="-0.74079369194805622100830078125">
        <ele>951.5999755859375</ele>
        <time>2022-05-06T13:27:55.000Z</time>
      </trkpt>
      <trkpt lat="40.09831759147346019744873046875" lon="-0.7407672889530658721923828125">
        <ele>951.79998779296875</ele>
        <time>2022-05-06T13:27:57.000Z</time>
      </trkpt>
      <trkpt lat="40.09818582795560359954833984375" lon="-0.74073988012969493865966796875">
        <ele>952</ele>
        <time>2022-05-06T13:27:59.000Z</time>
      </trkpt>
      <trkpt lat="40.09805473499000072479248046875" lon="-0.74071121402084827423095703125">
        <ele>952</ele>
        <time>2022-05-06T13:28:01.000Z</time>
      </trkpt>
      <trkpt lat="40.09792196564376354217529296875" lon="-0.74068489484488964080810546875">
        <ele>952.20001220703125</ele>
        <time>2022-05-06T13:28:03.000Z</time>
      </trkpt>
      <trkpt lat="40.09778936393558979034423828125" lon="-0.7406573183834552764892578125">
        <ele>952.79998779296875</ele>
        <time>2022-05-06T13:28:05.000Z</time>
      </trkpt>
      <trkpt lat="40.09765827096998691558837890625" lon="-0.7406289875507354736328125">
        <ele>952</ele>
        <time>2022-05-06T13:28:07.000Z</time>
      </trkpt>
      <trkpt lat="40.09752877056598663330078125" lon="-0.74059906415641307830810546875">
        <ele>951.20001220703125</ele>
        <time>2022-05-06T13:28:09.000Z</time>
      </trkpt>
      <trkpt lat="40.09740279056131839752197265625" lon="-0.7405718229711055755615234375">
        <ele>950.4000244140625</ele>
        <time>2022-05-06T13:28:11.000Z</time>
      </trkpt>
      <trkpt lat="40.09728309698402881622314453125" lon="-0.7405476830899715423583984375">
        <ele>949.79998779296875</ele>
        <time>2022-05-06T13:28:13.000Z</time>
      </trkpt>
      <trkpt lat="40.09716658852994441986083984375" lon="-0.74052295647561550140380859375">
        <ele>949.20001220703125</ele>
        <time>2022-05-06T13:28:15.000Z</time>
      </trkpt>
      <trkpt lat="40.09705058299005031585693359375" lon="-0.74049680493772029876708984375">
        <ele>948.79998779296875</ele>
        <time>2022-05-06T13:28:17.000Z</time>
      </trkpt>
      <trkpt lat="40.09693466126918792724609375" lon="-0.74047543108463287353515625">
        <ele>948.79998779296875</ele>
        <time>2022-05-06T13:28:19.000Z</time>
      </trkpt>
      <trkpt lat="40.09682041592895984649658203125" lon="-0.740462355315685272216796875">
        <ele>948.79998779296875</ele>
        <time>2022-05-06T13:28:21.000Z</time>
      </trkpt>
      <trkpt lat="40.09670692496001720428466796875" lon="-0.74044936336576938629150390625">
        <ele>948.5999755859375</ele>
        <time>2022-05-06T13:28:23.000Z</time>
      </trkpt>
      <trkpt lat="40.0965918414294719696044921875" lon="-0.74043561704456806182861328125">
        <ele>948.5999755859375</ele>
        <time>2022-05-06T13:28:25.000Z</time>
      </trkpt>
      <trkpt lat="40.09647541679441928863525390625" lon="-0.74041835032403469085693359375">
        <ele>948.5999755859375</ele>
        <time>2022-05-06T13:28:27.000Z</time>
      </trkpt>
      <trkpt lat="40.09636075235903263092041015625" lon="-0.74039655737578868865966796875">
        <ele>948.4000244140625</ele>
        <time>2022-05-06T13:28:29.000Z</time>
      </trkpt>
      <trkpt lat="40.09624642319977283477783203125" lon="-0.74037593789398670196533203125">
        <ele>948.20001220703125</ele>
        <time>2022-05-06T13:28:31.000Z</time>
      </trkpt>
      <trkpt lat="40.09613268077373504638671875" lon="-0.74035607278347015380859375">
        <ele>948.20001220703125</ele>
        <time>2022-05-06T13:28:33.000Z</time>
      </trkpt>
      <trkpt lat="40.09602002799510955810546875" lon="-0.74033553712069988250732421875">
        <ele>948</ele>
        <time>2022-05-06T13:28:35.000Z</time>
      </trkpt>
      <trkpt lat="40.09590695612132549285888671875" lon="-0.740310139954090118408203125">
        <ele>947.79998779296875</ele>
        <time>2022-05-06T13:28:37.000Z</time>
      </trkpt>
      <trkpt lat="40.09579497389495372772216796875" lon="-0.7402824796736240386962890625">
        <ele>947.79998779296875</ele>
        <time>2022-05-06T13:28:39.000Z</time>
      </trkpt>
      <trkpt lat="40.0956795550882816314697265625" lon="-0.740261189639568328857421875">
        <ele>947.5999755859375</ele>
        <time>2022-05-06T13:28:41.000Z</time>
      </trkpt>
      <trkpt lat="40.0955618731677532196044921875" lon="-0.7402392290532588958740234375">
        <ele>947.5999755859375</ele>
        <time>2022-05-06T13:28:43.000Z</time>
      </trkpt>
      <trkpt lat="40.0954448617994785308837890625" lon="-0.74021332897245883941650390625">
        <ele>947.4000244140625</ele>
        <time>2022-05-06T13:28:45.000Z</time>
      </trkpt>
      <trkpt lat="40.0953271798789501190185546875" lon="-0.74019187130033969879150390625">
        <ele>946.4000244140625</ele>
        <time>2022-05-06T13:28:47.000Z</time>
      </trkpt>
      <trkpt lat="40.09520991705358028411865234375" lon="-0.7401701621711254119873046875">
        <ele>945</ele>
        <time>2022-05-06T13:28:49.000Z</time>
      </trkpt>
      <trkpt lat="40.09509391151368618011474609375" lon="-0.74014610610902309417724609375">
        <ele>943.79998779296875</ele>
        <time>2022-05-06T13:28:51.000Z</time>
      </trkpt>
      <trkpt lat="40.0950358249247074127197265625" lon="-0.74013235978782176971435546875">
        <ele>943.20001220703125</ele>
        <time>2022-05-06T13:28:52.000Z</time>
      </trkpt>
      <trkpt lat="40.09497798979282379150390625" lon="-0.74011827819049358367919921875">
        <ele>942.79998779296875</ele>
        <time>2022-05-06T13:28:53.000Z</time>
      </trkpt>
      <trkpt lat="40.09486273862421512603759765625" lon="-0.740092210471630096435546875">
        <ele>942</ele>
        <time>2022-05-06T13:28:55.000Z</time>
      </trkpt>
      <trkpt lat="40.0947505049407482147216796875" lon="-0.74006295762956142425537109375">
        <ele>941.4000244140625</ele>
        <time>2022-05-06T13:28:57.000Z</time>
      </trkpt>
      <trkpt lat="40.09464145638048648834228515625" lon="-0.74002305977046489715576171875">
        <ele>940.5999755859375</ele>
        <time>2022-05-06T13:28:59.000Z</time>
      </trkpt>
      <trkpt lat="40.09453475475311279296875" lon="-0.7399760372936725616455078125">
        <ele>940.4000244140625</ele>
        <time>2022-05-06T13:29:01.000Z</time>
      </trkpt>
      <trkpt lat="40.0944839604198932647705078125" lon="-0.739948041737079620361328125">
        <ele>940.4000244140625</ele>
        <time>2022-05-06T13:29:02.000Z</time>
      </trkpt>
      <trkpt lat="40.094433836638927459716796875" lon="-0.73991845361888408660888671875">
        <ele>940.4000244140625</ele>
        <time>2022-05-06T13:29:03.000Z</time>
      </trkpt>
      <trkpt lat="40.0943357683718204498291015625" lon="-0.73985357768833637237548828125">
        <ele>940.79998779296875</ele>
        <time>2022-05-06T13:29:05.000Z</time>
      </trkpt>
      <trkpt lat="40.094240717589855194091796875" lon="-0.73978208005428314208984375">
        <ele>941.20001220703125</ele>
        <time>2022-05-06T13:29:07.000Z</time>
      </trkpt>
      <trkpt lat="40.094193108379840850830078125" lon="-0.73974444530904293060302734375">
        <ele>941.4000244140625</ele>
        <time>2022-05-06T13:29:08.000Z</time>
      </trkpt>
      <trkpt lat="40.09414575062692165374755859375" lon="-0.73970471508800983428955078125">
        <ele>941.5999755859375</ele>
        <time>2022-05-06T13:29:09.000Z</time>
      </trkpt>
      <trkpt lat="40.09405338205397129058837890625" lon="-0.7396152801811695098876953125">
        <ele>941.5999755859375</ele>
        <time>2022-05-06T13:29:11.000Z</time>
      </trkpt>
      <trkpt lat="40.0939652882516384124755859375" lon="-0.7395116798579692840576171875">
        <ele>941.4000244140625</ele>
        <time>2022-05-06T13:29:13.000Z</time>
      </trkpt>
      <trkpt lat="40.0938814692199230194091796875" lon="-0.7394005358219146728515625">
        <ele>941.79998779296875</ele>
        <time>2022-05-06T13:29:15.000Z</time>
      </trkpt>
      <trkpt lat="40.09380058385431766510009765625" lon="-0.73928595520555973052978515625">
        <ele>942.20001220703125</ele>
        <time>2022-05-06T13:29:17.000Z</time>
      </trkpt>
      <trkpt lat="40.09372405707836151123046875" lon="-0.73916517198085784912109375">
        <ele>942.5999755859375</ele>
        <time>2022-05-06T13:29:19.000Z</time>
      </trkpt>
      <trkpt lat="40.0936518050730228424072265625" lon="-0.739040784537792205810546875">
        <ele>942.5999755859375</ele>
        <time>2022-05-06T13:29:21.000Z</time>
      </trkpt>
      <trkpt lat="40.09357913397252559661865234375" lon="-0.73891815729439258575439453125">
        <ele>943.5999755859375</ele>
        <time>2022-05-06T13:29:23.000Z</time>
      </trkpt>
      <trkpt lat="40.0935436785221099853515625" lon="-0.7388585619628429412841796875">
        <ele>944.20001220703125</ele>
        <time>2022-05-06T13:29:24.000Z</time>
      </trkpt>
      <trkpt lat="40.09350948035717010498046875" lon="-0.738798044621944427490234375">
        <ele>944.5999755859375</ele>
        <time>2022-05-06T13:29:25.000Z</time>
      </trkpt>
      <trkpt lat="40.093439407646656036376953125" lon="-0.73867566883563995361328125">
        <ele>945.5999755859375</ele>
        <time>2022-05-06T13:29:27.000Z</time>
      </trkpt>
      <trkpt lat="40.09336690418422222137451171875" lon="-0.73855119757354259490966796875">
        <ele>946.5999755859375</ele>
        <time>2022-05-06T13:29:29.000Z</time>
      </trkpt>
      <trkpt lat="40.09329465217888355255126953125" lon="-0.7384240441024303436279296875">
        <ele>947.79998779296875</ele>
        <time>2022-05-06T13:29:31.000Z</time>
      </trkpt>
      <trkpt lat="40.093221478164196014404296875" lon="-0.73829772882163524627685546875">
        <ele>949.20001220703125</ele>
        <time>2022-05-06T13:29:33.000Z</time>
      </trkpt>
      <trkpt lat="40.0931468792259693145751953125" lon="-0.7381735928356647491455078125">
        <ele>950.79998779296875</ele>
        <time>2022-05-06T13:29:35.000Z</time>
      </trkpt>
      <trkpt lat="40.09311008267104625701904296875" lon="-0.73810980655252933502197265625">
        <ele>951.5999755859375</ele>
        <time>2022-05-06T13:29:36.000Z</time>
      </trkpt>
      <trkpt lat="40.0930734537541866302490234375" lon="-0.738045684993267059326171875">
        <ele>952.20001220703125</ele>
        <time>2022-05-06T13:29:37.000Z</time>
      </trkpt>
      <trkpt lat="40.09300053119659423828125" lon="-0.73791786096990108489990234375">
        <ele>953.4000244140625</ele>
        <time>2022-05-06T13:29:39.000Z</time>
      </trkpt>
      <trkpt lat="40.0929306261241436004638671875" lon="-0.73779230006039142608642578125">
        <ele>954.5999755859375</ele>
        <time>2022-05-06T13:29:41.000Z</time>
      </trkpt>
      <trkpt lat="40.09285912849009037017822265625" lon="-0.73766958899796009063720703125">
        <ele>955.79998779296875</ele>
        <time>2022-05-06T13:29:43.000Z</time>
      </trkpt>
      <trkpt lat="40.09278335608541965484619140625" lon="-0.7375486381351947784423828125">
        <ele>957.20001220703125</ele>
        <time>2022-05-06T13:29:45.000Z</time>
      </trkpt>
      <trkpt lat="40.09269735775887966156005859375" lon="-0.7374339736998081207275390625">
        <ele>958.4000244140625</ele>
        <time>2022-05-06T13:29:47.000Z</time>
      </trkpt>
      <trkpt lat="40.09260691702365875244140625" lon="-0.73732442222535610198974609375">
        <ele>957.20001220703125</ele>
        <time>2022-05-06T13:29:49.000Z</time>
      </trkpt>
      <trkpt lat="40.092565007507801055908203125" lon="-0.73726943694055080413818359375">
        <ele>956.5999755859375</ele>
        <time>2022-05-06T13:29:50.000Z</time>
      </trkpt>
      <trkpt lat="40.09252100251615047454833984375" lon="-0.73721579276025295257568359375">
        <ele>956.20001220703125</ele>
        <time>2022-05-06T13:29:51.000Z</time>
      </trkpt>
      <trkpt lat="40.09247339330613613128662109375" lon="-0.73716667480766773223876953125">
        <ele>955.79998779296875</ele>
        <time>2022-05-06T13:29:52.000Z</time>
      </trkpt>
      <trkpt lat="40.09242494590580463409423828125" lon="-0.7371198199689388275146484375">
        <ele>955.4000244140625</ele>
        <time>2022-05-06T13:29:53.000Z</time>
      </trkpt>
      <trkpt lat="40.09232126176357269287109375" lon="-0.73703549802303314208984375">
        <ele>955</ele>
        <time>2022-05-06T13:29:55.000Z</time>
      </trkpt>
      <trkpt lat="40.09221120737493038177490234375" lon="-0.73696651495993137359619140625">
        <ele>954.4000244140625</ele>
        <time>2022-05-06T13:29:57.000Z</time>
      </trkpt>
      <trkpt lat="40.0921554677188396453857421875" lon="-0.7369340769946575164794921875">
        <ele>954.20001220703125</ele>
        <time>2022-05-06T13:29:58.000Z</time>
      </trkpt>
      <trkpt lat="40.092099644243717193603515625" lon="-0.7369035668671131134033203125">
        <ele>953.79998779296875</ele>
        <time>2022-05-06T13:29:59.000Z</time>
      </trkpt>
      <trkpt lat="40.0919864885509014129638671875" lon="-0.73685419745743274688720703125">
        <ele>953.4000244140625</ele>
        <time>2022-05-06T13:30:01.000Z</time>
      </trkpt>
      <trkpt lat="40.091870985925197601318359375" lon="-0.7368214242160320281982421875">
        <ele>953</ele>
        <time>2022-05-06T13:30:03.000Z</time>
      </trkpt>
      <trkpt lat="40.091753304004669189453125" lon="-0.7367986254394054412841796875">
        <ele>952.5999755859375</ele>
        <time>2022-05-06T13:30:05.000Z</time>
      </trkpt>
      <trkpt lat="40.09163352660834789276123046875" lon="-0.73678261600434780120849609375">
        <ele>952.4000244140625</ele>
        <time>2022-05-06T13:30:07.000Z</time>
      </trkpt>
      <trkpt lat="40.09151584468781948089599609375" lon="-0.73677289299666881561279296875">
        <ele>952.4000244140625</ele>
        <time>2022-05-06T13:30:09.000Z</time>
      </trkpt>
      <trkpt lat="40.09139833040535449981689453125" lon="-0.73676325380802154541015625">
        <ele>952.4000244140625</ele>
        <time>2022-05-06T13:30:11.000Z</time>
      </trkpt>
      <trkpt lat="40.09128081612288951873779296875" lon="-0.7367585599422454833984375">
        <ele>952.4000244140625</ele>
        <time>2022-05-06T13:30:13.000Z</time>
      </trkpt>
      <trkpt lat="40.09116330184042453765869140625" lon="-0.73675118386745452880859375">
        <ele>952.20001220703125</ele>
        <time>2022-05-06T13:30:15.000Z</time>
      </trkpt>
      <trkpt lat="40.091043524444103240966796875" lon="-0.736744813621044158935546875">
        <ele>952</ele>
        <time>2022-05-06T13:30:17.000Z</time>
      </trkpt>
      <trkpt lat="40.0909239985048770904541015625" lon="-0.73673131875693798065185546875">
        <ele>951.79998779296875</ele>
        <time>2022-05-06T13:30:19.000Z</time>
      </trkpt>
      <trkpt lat="40.090802796185016632080078125" lon="-0.73672176338732242584228515625">
        <ele>951.5999755859375</ele>
        <time>2022-05-06T13:30:21.000Z</time>
      </trkpt>
      <trkpt lat="40.09068151004612445831298828125" lon="-0.73670701123774051666259765625">
        <ele>951.4000244140625</ele>
        <time>2022-05-06T13:30:23.000Z</time>
      </trkpt>
      <trkpt lat="40.09056047536432743072509765625" lon="-0.7366926781833171844482421875">
        <ele>951</ele>
        <time>2022-05-06T13:30:25.000Z</time>
      </trkpt>
      <trkpt lat="40.0904385186731815338134765625" lon="-0.736682116985321044921875">
        <ele>950.79998779296875</ele>
        <time>2022-05-06T13:30:27.000Z</time>
      </trkpt>
      <trkpt lat="40.0903169810771942138671875" lon="-0.736675746738910675048828125">
        <ele>950.79998779296875</ele>
        <time>2022-05-06T13:30:29.000Z</time>
      </trkpt>
      <trkpt lat="40.090197958052158355712890625" lon="-0.73666912503540515899658203125">
        <ele>950.79998779296875</ele>
        <time>2022-05-06T13:30:31.000Z</time>
      </trkpt>
      <trkpt lat="40.0900804437696933746337890625" lon="-0.73666007257997989654541015625">
        <ele>950.79998779296875</ele>
        <time>2022-05-06T13:30:33.000Z</time>
      </trkpt>
      <trkpt lat="40.09002126753330230712890625" lon="-0.7366534508764743804931640625">
        <ele>950.79998779296875</ele>
        <time>2022-05-06T13:30:34.000Z</time>
      </trkpt>
      <trkpt lat="40.08996234275400638580322265625" lon="-0.73664599098265171051025390625">
        <ele>950.79998779296875</ele>
        <time>2022-05-06T13:30:35.000Z</time>
      </trkpt>
      <trkpt lat="40.08984516374766826629638671875" lon="-0.736632160842418670654296875">
        <ele>951</ele>
        <time>2022-05-06T13:30:37.000Z</time>
      </trkpt>
      <trkpt lat="40.08972848765552043914794921875" lon="-0.7366246171295642852783203125">
        <ele>951</ele>
        <time>2022-05-06T13:30:39.000Z</time>
      </trkpt>
      <trkpt lat="40.0896134041249752044677734375" lon="-0.7366169057786464691162109375">
        <ele>951.20001220703125</ele>
        <time>2022-05-06T13:30:41.000Z</time>
      </trkpt>
      <trkpt lat="40.0894994102418422698974609375" lon="-0.7366081885993480682373046875">
        <ele>951</ele>
        <time>2022-05-06T13:30:43.000Z</time>
      </trkpt>
      <trkpt lat="40.089442245662212371826171875" lon="-0.7366021536290645599365234375">
        <ele>951</ele>
        <time>2022-05-06T13:30:44.000Z</time>
      </trkpt>
      <trkpt lat="40.08938491344451904296875" lon="-0.736595951020717620849609375">
        <ele>950.79998779296875</ele>
        <time>2022-05-06T13:30:45.000Z</time>
      </trkpt>
      <trkpt lat="40.08927033282816410064697265625" lon="-0.73657943867146968841552734375">
        <ele>950.79998779296875</ele>
        <time>2022-05-06T13:30:47.000Z</time>
      </trkpt>
      <trkpt lat="40.08915198035538196563720703125" lon="-0.73656803928315639495849609375">
        <ele>951</ele>
        <time>2022-05-06T13:30:49.000Z</time>
      </trkpt>
      <trkpt lat="40.08903429843485355377197265625" lon="-0.73655848391354084014892578125">
        <ele>951.20001220703125</ele>
        <time>2022-05-06T13:30:51.000Z</time>
      </trkpt>
      <trkpt lat="40.08891745470464229583740234375" lon="-0.736551024019718170166015625">
        <ele>951.20001220703125</ele>
        <time>2022-05-06T13:30:53.000Z</time>
      </trkpt>
      <trkpt lat="40.0888605415821075439453125" lon="-0.73654557578265666961669921875">
        <ele>951.4000244140625</ele>
        <time>2022-05-06T13:30:54.000Z</time>
      </trkpt>
      <trkpt lat="40.0888043828308582305908203125" lon="-0.73653920553624629974365234375">
        <ele>951.4000244140625</ele>
        <time>2022-05-06T13:30:55.000Z</time>
      </trkpt>
      <trkpt lat="40.0886927358806133270263671875" lon="-0.7365283928811550140380859375">
        <ele>951.5999755859375</ele>
        <time>2022-05-06T13:30:57.000Z</time>
      </trkpt>
      <trkpt lat="40.08857798762619495391845703125" lon="-0.73651841841638088226318359375">
        <ele>951.79998779296875</ele>
        <time>2022-05-06T13:30:59.000Z</time>
      </trkpt>
      <trkpt lat="40.08846097625792026519775390625" lon="-0.73650844395160675048828125">
        <ele>952</ele>
        <time>2022-05-06T13:31:01.000Z</time>
      </trkpt>
      <trkpt lat="40.0884018838405609130859375" lon="-0.73650215752422809600830078125">
        <ele>952.20001220703125</ele>
        <time>2022-05-06T13:31:02.000Z</time>
      </trkpt>
      <trkpt lat="40.0883457250893115997314453125" lon="-0.73649679310619831085205078125">
        <ele>952.4000244140625</ele>
        <time>2022-05-06T13:31:03.000Z</time>
      </trkpt>
      <trkpt lat="40.08822997100651264190673828125" lon="-0.736490674316883087158203125">
        <ele>952.5999755859375</ele>
        <time>2022-05-06T13:31:05.000Z</time>
      </trkpt>
      <trkpt lat="40.0881143845617771148681640625" lon="-0.73648296296596527099609375">
        <ele>952.79998779296875</ele>
        <time>2022-05-06T13:31:07.000Z</time>
      </trkpt>
      <trkpt lat="40.08799980394542217254638671875" lon="-0.73647248558700084686279296875">
        <ele>953</ele>
        <time>2022-05-06T13:31:09.000Z</time>
      </trkpt>
      <trkpt lat="40.0878810323774814605712890625" lon="-0.73646360076963901519775390625">
        <ele>953.4000244140625</ele>
        <time>2022-05-06T13:31:11.000Z</time>
      </trkpt>
      <trkpt lat="40.08776175789535045623779296875" lon="-0.73645018972456455230712890625">
        <ele>953.5999755859375</ele>
        <time>2022-05-06T13:31:13.000Z</time>
      </trkpt>
      <trkpt lat="40.08764491416513919830322265625" lon="-0.7364365272223949432373046875">
        <ele>953.79998779296875</ele>
        <time>2022-05-06T13:31:15.000Z</time>
      </trkpt>
      <trkpt lat="40.087530501186847686767578125" lon="-0.736426971852779388427734375">
        <ele>953.79998779296875</ele>
        <time>2022-05-06T13:31:17.000Z</time>
      </trkpt>
      <trkpt lat="40.08747392334043979644775390625" lon="-0.7364241220057010650634765625">
        <ele>953.79998779296875</ele>
        <time>2022-05-06T13:31:18.000Z</time>
      </trkpt>
      <trkpt lat="40.087417177855968475341796875" lon="-0.73641934432089328765869140625">
        <ele>954</ele>
        <time>2022-05-06T13:31:19.000Z</time>
      </trkpt>
      <trkpt lat="40.08730293251574039459228515625" lon="-0.73640828020870685577392578125">
        <ele>954</ele>
        <time>2022-05-06T13:31:21.000Z</time>
      </trkpt>
      <trkpt lat="40.08718843571841716766357421875" lon="-0.73639847338199615478515625">
        <ele>954</ele>
        <time>2022-05-06T13:31:23.000Z</time>
      </trkpt>
      <trkpt lat="40.08707645349204540252685546875" lon="-0.73638799600303173065185546875">
        <ele>954.20001220703125</ele>
        <time>2022-05-06T13:31:25.000Z</time>
      </trkpt>
      <trkpt lat="40.08696623146533966064453125" lon="-0.73637844063341617584228515625">
        <ele>954.79998779296875</ele>
        <time>2022-05-06T13:31:27.000Z</time>
      </trkpt>
      <trkpt lat="40.08685634471476078033447265625" lon="-0.736365951597690582275390625">
        <ele>955.4000244140625</ele>
        <time>2022-05-06T13:31:29.000Z</time>
      </trkpt>
      <trkpt lat="40.086743272840976715087890625" lon="-0.73634960688650608062744140625">
        <ele>956</ele>
        <time>2022-05-06T13:31:31.000Z</time>
      </trkpt>
      <trkpt lat="40.086630620062351226806640625" lon="-0.73633569292724132537841796875">
        <ele>956.5999755859375</ele>
        <time>2022-05-06T13:31:33.000Z</time>
      </trkpt>
      <trkpt lat="40.08652098476886749267578125" lon="-0.73632278479635715484619140625">
        <ele>957.20001220703125</ele>
        <time>2022-05-06T13:31:35.000Z</time>
      </trkpt>
      <trkpt lat="40.08641302585601806640625" lon="-0.73631071485579013824462890625">
        <ele>957.79998779296875</ele>
        <time>2022-05-06T13:31:37.000Z</time>
      </trkpt>
      <trkpt lat="40.08630372583866119384765625" lon="-0.7362993992865085601806640625">
        <ele>958.4000244140625</ele>
        <time>2022-05-06T13:31:39.000Z</time>
      </trkpt>
      <trkpt lat="40.08619300089776515960693359375" lon="-0.73628908954560756683349609375">
        <ele>958.20001220703125</ele>
        <time>2022-05-06T13:31:41.000Z</time>
      </trkpt>
      <trkpt lat="40.08608118630945682525634765625" lon="-0.7362838089466094970703125">
        <ele>957.79998779296875</ele>
        <time>2022-05-06T13:31:43.000Z</time>
      </trkpt>
      <trkpt lat="40.08597155101597309112548828125" lon="-0.7362757623195648193359375">
        <ele>957.20001220703125</ele>
        <time>2022-05-06T13:31:45.000Z</time>
      </trkpt>
      <trkpt lat="40.08586292155086994171142578125" lon="-0.7362672127783298492431640625">
        <ele>956.79998779296875</ele>
        <time>2022-05-06T13:31:47.000Z</time>
      </trkpt>
      <trkpt lat="40.0857557170093059539794921875" lon="-0.7362561486661434173583984375">
        <ele>956.4000244140625</ele>
        <time>2022-05-06T13:31:49.000Z</time>
      </trkpt>
      <trkpt lat="40.08564398624002933502197265625" lon="-0.73624852113425731658935546875">
        <ele>955.79998779296875</ele>
        <time>2022-05-06T13:31:51.000Z</time>
      </trkpt>
      <trkpt lat="40.0855237059295177459716796875" lon="-0.7362434081733226776123046875">
        <ele>955.5999755859375</ele>
        <time>2022-05-06T13:31:53.000Z</time>
      </trkpt>
      <trkpt lat="40.085398815572261810302734375" lon="-0.736236870288848876953125">
        <ele>955.4000244140625</ele>
        <time>2022-05-06T13:31:55.000Z</time>
      </trkpt>
      <trkpt lat="40.08527241647243499755859375" lon="-0.73623427189886569976806640625">
        <ele>955.4000244140625</ele>
        <time>2022-05-06T13:31:57.000Z</time>
      </trkpt>
      <trkpt lat="40.0851471908390522003173828125" lon="-0.7362279854714870452880859375">
        <ele>955.20001220703125</ele>
        <time>2022-05-06T13:31:59.000Z</time>
      </trkpt>
      <trkpt lat="40.08502188138663768768310546875" lon="-0.73622010648250579833984375">
        <ele>955</ele>
        <time>2022-05-06T13:32:01.000Z</time>
      </trkpt>
      <trkpt lat="40.0848990865051746368408203125" lon="-0.7362088747322559356689453125">
        <ele>954.79998779296875</ele>
        <time>2022-05-06T13:32:03.000Z</time>
      </trkpt>
      <trkpt lat="40.08477763272821903228759765625" lon="-0.73619487695395946502685546875">
        <ele>954.5999755859375</ele>
        <time>2022-05-06T13:32:05.000Z</time>
      </trkpt>
      <trkpt lat="40.08465492166578769683837890625" lon="-0.73618180118501186370849609375">
        <ele>954</ele>
        <time>2022-05-06T13:32:07.000Z</time>
      </trkpt>
      <trkpt lat="40.08453346788883209228515625" lon="-0.73617157526314258575439453125">
        <ele>953.5999755859375</ele>
        <time>2022-05-06T13:32:09.000Z</time>
      </trkpt>
      <trkpt lat="40.0844136066734790802001953125" lon="-0.736161768436431884765625">
        <ele>953.20001220703125</ele>
        <time>2022-05-06T13:32:11.000Z</time>
      </trkpt>
      <trkpt lat="40.08429416455328464508056640625" lon="-0.73615330271422863006591796875">
        <ele>953</ele>
        <time>2022-05-06T13:32:13.000Z</time>
      </trkpt>
      <trkpt lat="40.0841775722801685333251953125" lon="-0.73613653890788555145263671875">
        <ele>952.5999755859375</ele>
        <time>2022-05-06T13:32:15.000Z</time>
      </trkpt>
      <trkpt lat="40.08406315930187702178955078125" lon="-0.73611281812191009521484375">
        <ele>952.20001220703125</ele>
        <time>2022-05-06T13:32:17.000Z</time>
      </trkpt>
      <trkpt lat="40.0839515961706638336181640625" lon="-0.7360861636698246002197265625">
        <ele>952.4000244140625</ele>
        <time>2022-05-06T13:32:19.000Z</time>
      </trkpt>
      <trkpt lat="40.08389535360038280487060546875" lon="-0.736070573329925537109375">
        <ele>952.79998779296875</ele>
        <time>2022-05-06T13:32:20.000Z</time>
      </trkpt>
      <trkpt lat="40.0838394463062286376953125" lon="-0.73605246841907501220703125">
        <ele>953</ele>
        <time>2022-05-06T13:32:21.000Z</time>
      </trkpt>
      <trkpt lat="40.08373140357434749603271484375" lon="-0.73601231910288333892822265625">
        <ele>953.79998779296875</ele>
        <time>2022-05-06T13:32:23.000Z</time>
      </trkpt>
      <trkpt lat="40.08362528868019580841064453125" lon="-0.73596118949353694915771484375">
        <ele>954.5999755859375</ele>
        <time>2022-05-06T13:32:25.000Z</time>
      </trkpt>
      <trkpt lat="40.0835180841386318206787109375" lon="-0.73589698411524295806884765625">
        <ele>955.5999755859375</ele>
        <time>2022-05-06T13:32:27.000Z</time>
      </trkpt>
      <trkpt lat="40.0834091193974018096923828125" lon="-0.73582892306149005889892578125">
        <ele>956.4000244140625</ele>
        <time>2022-05-06T13:32:29.000Z</time>
      </trkpt>
      <trkpt lat="40.083299316465854644775390625" lon="-0.7357542403042316436767578125">
        <ele>956.79998779296875</ele>
        <time>2022-05-06T13:32:31.000Z</time>
      </trkpt>
      <trkpt lat="40.0831930339336395263671875" lon="-0.7356695830821990966796875">
        <ele>957</ele>
        <time>2022-05-06T13:32:33.000Z</time>
      </trkpt>
      <trkpt lat="40.08309253491461277008056640625" lon="-0.735576041042804718017578125">
        <ele>957.4000244140625</ele>
        <time>2022-05-06T13:32:35.000Z</time>
      </trkpt>
      <trkpt lat="40.0829960592091083526611328125" lon="-0.73547713458538055419921875">
        <ele>957.5999755859375</ele>
        <time>2022-05-06T13:32:37.000Z</time>
      </trkpt>
      <trkpt lat="40.08290494792163372039794921875" lon="-0.73536976240575313568115234375">
        <ele>957.5999755859375</ele>
        <time>2022-05-06T13:32:39.000Z</time>
      </trkpt>
      <trkpt lat="40.08286136202514171600341796875" lon="-0.735313855111598968505859375">
        <ele>957.4000244140625</ele>
        <time>2022-05-06T13:32:40.000Z</time>
      </trkpt>
      <trkpt lat="40.08281811140477657318115234375" lon="-0.735257528722286224365234375">
        <ele>957.20001220703125</ele>
        <time>2022-05-06T13:32:41.000Z</time>
      </trkpt>
      <trkpt lat="40.0827358849346637725830078125" lon="-0.73514110408723354339599609375">
        <ele>956.79998779296875</ele>
        <time>2022-05-06T13:32:43.000Z</time>
      </trkpt>
      <trkpt lat="40.08265868760645389556884765625" lon="-0.73501688428223133087158203125">
        <ele>956.4000244140625</ele>
        <time>2022-05-06T13:32:45.000Z</time>
      </trkpt>
      <trkpt lat="40.08258492685854434967041015625" lon="-0.734890401363372802734375">
        <ele>956.20001220703125</ele>
        <time>2022-05-06T13:32:47.000Z</time>
      </trkpt>
      <trkpt lat="40.08254854939877986907958984375" lon="-0.73482678271830081939697265625">
        <ele>956.20001220703125</ele>
        <time>2022-05-06T13:32:48.000Z</time>
      </trkpt>
      <trkpt lat="40.08251267485320568084716796875" lon="-0.73476240970194339752197265625">
        <ele>956</ele>
        <time>2022-05-06T13:32:49.000Z</time>
      </trkpt>
      <trkpt lat="40.08244008757174015045166015625" lon="-0.734633915126323699951171875">
        <ele>955.79998779296875</ele>
        <time>2022-05-06T13:32:51.000Z</time>
      </trkpt>
      <trkpt lat="40.0823680870234966278076171875" lon="-0.73450592346489429473876953125">
        <ele>955.20001220703125</ele>
        <time>2022-05-06T13:32:53.000Z</time>
      </trkpt>
      <trkpt lat="40.0822949968278408050537109375" lon="-0.73437742888927459716796875">
        <ele>955.20001220703125</ele>
        <time>2022-05-06T13:32:55.000Z</time>
      </trkpt>
      <trkpt lat="40.08222215808928012847900390625" lon="-0.7342481799423694610595703125">
        <ele>955.20001220703125</ele>
        <time>2022-05-06T13:32:57.000Z</time>
      </trkpt>
      <trkpt lat="40.082149319350719451904296875" lon="-0.7341197691857814788818359375">
        <ele>955.20001220703125</ele>
        <time>2022-05-06T13:32:59.000Z</time>
      </trkpt>
      <trkpt lat="40.0820757262408733367919921875" lon="-0.73399211280047893524169921875">
        <ele>955.20001220703125</ele>
        <time>2022-05-06T13:33:01.000Z</time>
      </trkpt>
      <trkpt lat="40.08200355805456638336181640625" lon="-0.7338626123964786529541015625">
        <ele>955.79998779296875</ele>
        <time>2022-05-06T13:33:03.000Z</time>
      </trkpt>
      <trkpt lat="40.08193097077310085296630859375" lon="-0.7337318547070026397705078125">
        <ele>955.79998779296875</ele>
        <time>2022-05-06T13:33:05.000Z</time>
      </trkpt>
      <trkpt lat="40.08185938932001590728759765625" lon="-0.733601264655590057373046875">
        <ele>956</ele>
        <time>2022-05-06T13:33:07.000Z</time>
      </trkpt>
      <trkpt lat="40.08182309567928314208984375" lon="-0.7335363887250423431396484375">
        <ele>956</ele>
        <time>2022-05-06T13:33:08.000Z</time>
      </trkpt>
      <trkpt lat="40.08178747259080410003662109375" lon="-0.733471177518367767333984375">
        <ele>956.20001220703125</ele>
        <time>2022-05-06T13:33:09.000Z</time>
      </trkpt>
      <trkpt lat="40.08171505294740200042724609375" lon="-0.733342431485652923583984375">
        <ele>956.20001220703125</ele>
        <time>2022-05-06T13:33:11.000Z</time>
      </trkpt>
      <trkpt lat="40.0816425494849681854248046875" lon="-0.73321611620485782623291015625">
        <ele>956.20001220703125</ele>
        <time>2022-05-06T13:33:13.000Z</time>
      </trkpt>
      <trkpt lat="40.0815748237073421478271484375" lon="-0.73309508152306079864501953125">
        <ele>956</ele>
        <time>2022-05-06T13:33:15.000Z</time>
      </trkpt>
      <trkpt lat="40.08151053451001644134521484375" lon="-0.7329794950783252716064453125">
        <ele>956.20001220703125</ele>
        <time>2022-05-06T13:33:17.000Z</time>
      </trkpt>
      <trkpt lat="40.0814454071223735809326171875" lon="-0.73286944068968296051025390625">
        <ele>956.4000244140625</ele>
        <time>2022-05-06T13:33:19.000Z</time>
      </trkpt>
      <trkpt lat="40.08138053119182586669921875" lon="-0.7327545247972011566162109375">
        <ele>956.79998779296875</ele>
        <time>2022-05-06T13:33:21.000Z</time>
      </trkpt>
      <trkpt lat="40.081313811242580413818359375" lon="-0.73263801634311676025390625">
        <ele>957.20001220703125</ele>
        <time>2022-05-06T13:33:23.000Z</time>
      </trkpt>
      <trkpt lat="40.081246756017208099365234375" lon="-0.73252125643193721771240234375">
        <ele>957.5999755859375</ele>
        <time>2022-05-06T13:33:25.000Z</time>
      </trkpt>
      <trkpt lat="40.08118045516312122344970703125" lon="-0.73240089230239391326904296875">
        <ele>958.20001220703125</ele>
        <time>2022-05-06T13:33:27.000Z</time>
      </trkpt>
      <trkpt lat="40.08111088536679744720458984375" lon="-0.73228061199188232421875">
        <ele>959</ele>
        <time>2022-05-06T13:33:29.000Z</time>
      </trkpt>
      <trkpt lat="40.0810424052178859710693359375" lon="-0.732157230377197265625">
        <ele>959.5999755859375</ele>
        <time>2022-05-06T13:33:31.000Z</time>
      </trkpt>
      <trkpt lat="40.0810078717768192291259765625" lon="-0.7320953719317913055419921875">
        <ele>959.79998779296875</ele>
        <time>2022-05-06T13:33:32.000Z</time>
      </trkpt>
      <trkpt lat="40.0809730030596256256103515625" lon="-0.7320330105721950531005859375">
        <ele>960</ele>
        <time>2022-05-06T13:33:33.000Z</time>
      </trkpt>
      <trkpt lat="40.080900751054286956787109375" lon="-0.7319037616252899169921875">
        <ele>960.5999755859375</ele>
        <time>2022-05-06T13:33:35.000Z</time>
      </trkpt>
      <trkpt lat="40.080826990306377410888671875" lon="-0.73177543468773365020751953125">
        <ele>961.20001220703125</ele>
        <time>2022-05-06T13:33:37.000Z</time>
      </trkpt>
      <trkpt lat="40.08075348101556301116943359375" lon="-0.73164568282663822174072265625">
        <ele>961.20001220703125</ele>
        <time>2022-05-06T13:33:39.000Z</time>
      </trkpt>
      <trkpt lat="40.0807146728038787841796875" lon="-0.7315823994576930999755859375">
        <ele>961.20001220703125</ele>
        <time>2022-05-06T13:33:40.000Z</time>
      </trkpt>
      <trkpt lat="40.08067435584962368011474609375" lon="-0.73151886463165283203125">
        <ele>961.4000244140625</ele>
        <time>2022-05-06T13:33:41.000Z</time>
      </trkpt>
      <trkpt lat="40.08059154264628887176513671875" lon="-0.73139489628374576568603515625">
        <ele>961.5999755859375</ele>
        <time>2022-05-06T13:33:43.000Z</time>
      </trkpt>
      <trkpt lat="40.08050604723393917083740234375" lon="-0.7312756218016147613525390625">
        <ele>962</ele>
        <time>2022-05-06T13:33:45.000Z</time>
      </trkpt>
      <trkpt lat="40.08041451685130596160888671875" lon="-0.7311646454036235809326171875">
        <ele>961.4000244140625</ele>
        <time>2022-05-06T13:33:47.000Z</time>
      </trkpt>
      <trkpt lat="40.0803208909928798675537109375" lon="-0.731064565479755401611328125">
        <ele>960.5999755859375</ele>
        <time>2022-05-06T13:33:49.000Z</time>
      </trkpt>
      <trkpt lat="40.0802293606102466583251953125" lon="-0.73097295127809047698974609375">
        <ele>960.20001220703125</ele>
        <time>2022-05-06T13:33:51.000Z</time>
      </trkpt>
      <trkpt lat="40.08018200285732746124267578125" lon="-0.73093405924737453460693359375">
        <ele>960</ele>
        <time>2022-05-06T13:33:52.000Z</time>
      </trkpt>
      <trkpt lat="40.08013338781893253326416015625" lon="-0.730898268520832061767578125">
        <ele>959.79998779296875</ele>
        <time>2022-05-06T13:33:53.000Z</time>
      </trkpt>
      <trkpt lat="40.08007907308638095855712890625" lon="-0.73086909949779510498046875">
        <ele>959.5999755859375</ele>
        <time>2022-05-06T13:33:54.000Z</time>
      </trkpt>
      <trkpt lat="40.08002358488738536834716796875" lon="-0.730840265750885009765625">
        <ele>959.5999755859375</ele>
        <time>2022-05-06T13:33:55.000Z</time>
      </trkpt>
      <trkpt lat="40.0799048133194446563720703125" lon="-0.7307864539325237274169921875">
        <ele>959.4000244140625</ele>
        <time>2022-05-06T13:33:57.000Z</time>
      </trkpt>
      <trkpt lat="40.07978729903697967529296875" lon="-0.73071914725005626678466796875">
        <ele>959</ele>
        <time>2022-05-06T13:33:59.000Z</time>
      </trkpt>
      <trkpt lat="40.07967875339090824127197265625" lon="-0.73062761686742305755615234375">
        <ele>958.5999755859375</ele>
        <time>2022-05-06T13:34:01.000Z</time>
      </trkpt>
      <trkpt lat="40.07957213558256626129150390625" lon="-0.7305393554270267486572265625">
        <ele>958</ele>
        <time>2022-05-06T13:34:03.000Z</time>
      </trkpt>
      <trkpt lat="40.07946350611746311187744140625" lon="-0.73046048171818256378173828125">
        <ele>957.4000244140625</ele>
        <time>2022-05-06T13:34:05.000Z</time>
      </trkpt>
      <trkpt lat="40.0793546251952648162841796875" lon="-0.73039032518863677978515625">
        <ele>956.79998779296875</ele>
        <time>2022-05-06T13:34:07.000Z</time>
      </trkpt>
      <trkpt lat="40.079301483929157257080078125" lon="-0.73035369627177715301513671875">
        <ele>956.4000244140625</ele>
        <time>2022-05-06T13:34:08.000Z</time>
      </trkpt>
      <trkpt lat="40.0792483426630496978759765625" lon="-0.7303160615265369415283203125">
        <ele>956</ele>
        <time>2022-05-06T13:34:09.000Z</time>
      </trkpt>
      <trkpt lat="40.07914180867373943328857421875" lon="-0.7302456535398960113525390625">
        <ele>955.5999755859375</ele>
        <time>2022-05-06T13:34:11.000Z</time>
      </trkpt>
      <trkpt lat="40.079035274684429168701171875" lon="-0.73017365299165248870849609375">
        <ele>955.4000244140625</ele>
        <time>2022-05-06T13:34:13.000Z</time>
      </trkpt>
      <trkpt lat="40.07892857305705547332763671875" lon="-0.730099976062774658203125">
        <ele>956</ele>
        <time>2022-05-06T13:34:15.000Z</time>
      </trkpt>
      <trkpt lat="40.07882430218160152435302734375" lon="-0.730025880038738250732421875">
        <ele>956.4000244140625</ele>
        <time>2022-05-06T13:34:17.000Z</time>
      </trkpt>
      <trkpt lat="40.07877074182033538818359375" lon="-0.7299911789596080780029296875">
        <ele>956.5999755859375</ele>
        <time>2022-05-06T13:34:18.000Z</time>
      </trkpt>
      <trkpt lat="40.07871835492551326751708984375" lon="-0.729956813156604766845703125">
        <ele>957</ele>
        <time>2022-05-06T13:34:19.000Z</time>
      </trkpt>
      <trkpt lat="40.07861525751650333404541015625" lon="-0.72988598607480525970458984375">
        <ele>957.4000244140625</ele>
        <time>2022-05-06T13:34:21.000Z</time>
      </trkpt>
      <trkpt lat="40.0785090588033199310302734375" lon="-0.7298158295452594757080078125">
        <ele>957.79998779296875</ele>
        <time>2022-05-06T13:34:23.000Z</time>
      </trkpt>
      <trkpt lat="40.07839933969080448150634765625" lon="-0.72974567301571369171142578125">
        <ele>958</ele>
        <time>2022-05-06T13:34:25.000Z</time>
      </trkpt>
      <trkpt lat="40.07828517816960811614990234375" lon="-0.7296763546764850616455078125">
        <ele>958</ele>
        <time>2022-05-06T13:34:27.000Z</time>
      </trkpt>
      <trkpt lat="40.07816749624907970428466796875" lon="-0.72960066609084606170654296875">
        <ele>958</ele>
        <time>2022-05-06T13:34:29.000Z</time>
      </trkpt>
      <trkpt lat="40.07810899056494235992431640625" lon="-0.72956160642206668853759765625">
        <ele>958</ele>
        <time>2022-05-06T13:34:30.000Z</time>
      </trkpt>
      <trkpt lat="40.07805056869983673095703125" lon="-0.72952254675328731536865234375">
        <ele>958</ele>
        <time>2022-05-06T13:34:31.000Z</time>
      </trkpt>
      <trkpt lat="40.0779320485889911651611328125" lon="-0.729445181787014007568359375">
        <ele>958</ele>
        <time>2022-05-06T13:34:33.000Z</time>
      </trkpt>
      <trkpt lat="40.0778153724968433380126953125" lon="-0.72936496697366237640380859375">
        <ele>959.20001220703125</ele>
        <time>2022-05-06T13:34:35.000Z</time>
      </trkpt>
      <trkpt lat="40.0777033902704715728759765625" lon="-0.72928315959870815277099609375">
        <ele>960.4000244140625</ele>
        <time>2022-05-06T13:34:37.000Z</time>
      </trkpt>
      <trkpt lat="40.07758763618767261505126953125" lon="-0.72920504026114940643310546875">
        <ele>961.5999755859375</ele>
        <time>2022-05-06T13:34:39.000Z</time>
      </trkpt>
      <trkpt lat="40.07747129537165164947509765625" lon="-0.72912910021841526031494140625">
        <ele>961.79998779296875</ele>
        <time>2022-05-06T13:34:41.000Z</time>
      </trkpt>
      <trkpt lat="40.07735461927950382232666015625" lon="-0.729056932032108306884765625">
        <ele>962</ele>
        <time>2022-05-06T13:34:43.000Z</time>
      </trkpt>
      <trkpt lat="40.07729686796665191650390625" lon="-0.72901778854429721832275390625">
        <ele>962</ele>
        <time>2022-05-06T13:34:44.000Z</time>
      </trkpt>
      <trkpt lat="40.0772393681108951568603515625" lon="-0.7289776392281055450439453125">
        <ele>962</ele>
        <time>2022-05-06T13:34:45.000Z</time>
      </trkpt>
      <trkpt lat="40.07711992599070072174072265625" lon="-0.7289022020995616912841796875">
        <ele>962.20001220703125</ele>
        <time>2022-05-06T13:34:47.000Z</time>
      </trkpt>
      <trkpt lat="40.07700408808887004852294921875" lon="-0.72882433421909809112548828125">
        <ele>962.4000244140625</ele>
        <time>2022-05-06T13:34:49.000Z</time>
      </trkpt>
      <trkpt lat="40.07689143531024456024169921875" lon="-0.72874587960541248321533203125">
        <ele>962.79998779296875</ele>
        <time>2022-05-06T13:34:51.000Z</time>
      </trkpt>
      <trkpt lat="40.076835863292217254638671875" lon="-0.72870665229856967926025390625">
        <ele>963</ele>
        <time>2022-05-06T13:34:52.000Z</time>
      </trkpt>
      <trkpt lat="40.0767810456454753875732421875" lon="-0.72866792790591716766357421875">
        <ele>963.20001220703125</ele>
        <time>2022-05-06T13:34:53.000Z</time>
      </trkpt>
      <trkpt lat="40.07666998542845249176025390625" lon="-0.72859366424381732940673828125">
        <ele>963.79998779296875</ele>
        <time>2022-05-06T13:34:55.000Z</time>
      </trkpt>
      <trkpt lat="40.07655917666852474212646484375" lon="-0.72852023877203464508056640625">
        <ele>964</ele>
        <time>2022-05-06T13:34:57.000Z</time>
      </trkpt>
      <trkpt lat="40.07650301791727542877197265625" lon="-0.72848461568355560302734375">
        <ele>964</ele>
        <time>2022-05-06T13:34:58.000Z</time>
      </trkpt>
      <trkpt lat="40.0764472782611846923828125" lon="-0.72844932787120342254638671875">
        <ele>964</ele>
        <time>2022-05-06T13:34:59.000Z</time>
      </trkpt>
      <trkpt lat="40.0763384811580181121826171875" lon="-0.72837690822780132293701171875">
        <ele>964</ele>
        <time>2022-05-06T13:35:01.000Z</time>
      </trkpt>
      <trkpt lat="40.07623203098773956298828125" lon="-0.728303901851177215576171875">
        <ele>964</ele>
        <time>2022-05-06T13:35:03.000Z</time>
      </trkpt>
      <trkpt lat="40.0761252455413341522216796875" lon="-0.72823223657906055450439453125">
        <ele>963.79998779296875</ele>
        <time>2022-05-06T13:35:05.000Z</time>
      </trkpt>
      <trkpt lat="40.07601686753332614898681640625" lon="-0.7281622476875782012939453125">
        <ele>964</ele>
        <time>2022-05-06T13:35:07.000Z</time>
      </trkpt>
      <trkpt lat="40.07596406154334545135498046875" lon="-0.72812729515135288238525390625">
        <ele>964.20001220703125</ele>
        <time>2022-05-06T13:35:08.000Z</time>
      </trkpt>
      <trkpt lat="40.0759110040962696075439453125" lon="-0.72809024713933467864990234375">
        <ele>964.4000244140625</ele>
        <time>2022-05-06T13:35:09.000Z</time>
      </trkpt>
      <trkpt lat="40.0758075714111328125" lon="-0.7280133850872516632080078125">
        <ele>964.79998779296875</ele>
        <time>2022-05-06T13:35:11.000Z</time>
      </trkpt>
      <trkpt lat="40.07570204325020313262939453125" lon="-0.72794121690094470977783203125">
        <ele>965.4000244140625</ele>
        <time>2022-05-06T13:35:13.000Z</time>
      </trkpt>
      <trkpt lat="40.0755921564996242523193359375" lon="-0.72787106037139892578125">
        <ele>966</ele>
        <time>2022-05-06T13:35:15.000Z</time>
      </trkpt>
      <trkpt lat="40.075484700500965118408203125" lon="-0.72780132293701171875">
        <ele>966.20001220703125</ele>
        <time>2022-05-06T13:35:17.000Z</time>
      </trkpt>
      <trkpt lat="40.075381100177764892578125" lon="-0.72773166932165622711181640625">
        <ele>966.5999755859375</ele>
        <time>2022-05-06T13:35:19.000Z</time>
      </trkpt>
      <trkpt lat="40.075329802930355072021484375" lon="-0.7276978902518749237060546875">
        <ele>966.79998779296875</ele>
        <time>2022-05-06T13:35:20.000Z</time>
      </trkpt>
      <trkpt lat="40.07527858950197696685791015625" lon="-0.72766528464853763580322265625">
        <ele>967.20001220703125</ele>
        <time>2022-05-06T13:35:21.000Z</time>
      </trkpt>
      <trkpt lat="40.0751801021397113800048828125" lon="-0.72760376147925853729248046875">
        <ele>967.79998779296875</ele>
        <time>2022-05-06T13:35:23.000Z</time>
      </trkpt>
      <trkpt lat="40.07513500750064849853515625" lon="-0.72756537236273288726806640625">
        <ele>968</ele>
        <time>2022-05-06T13:35:24.000Z</time>
      </trkpt>
      <trkpt lat="40.07509284652769565582275390625" lon="-0.72752295993268489837646484375">
        <ele>968.20001220703125</ele>
        <time>2022-05-06T13:35:25.000Z</time>
      </trkpt>
      <trkpt lat="40.0750144757330417633056640625" lon="-0.72743930853903293609619140625">
        <ele>968</ele>
        <time>2022-05-06T13:35:27.000Z</time>
      </trkpt>
      <trkpt lat="40.07497516460716724395751953125" lon="-0.72740360163152217864990234375">
        <ele>968</ele>
        <time>2022-05-06T13:35:28.000Z</time>
      </trkpt>
      <trkpt lat="40.07493593730032444000244140625" lon="-0.72736881673336029052734375">
        <ele>968</ele>
        <time>2022-05-06T13:35:29.000Z</time>
      </trkpt>
      <trkpt lat="40.07485664449632167816162109375" lon="-0.72730821557343006134033203125">
        <ele>968</ele>
        <time>2022-05-06T13:35:31.000Z</time>
      </trkpt>
      <trkpt lat="40.07477651350200176239013671875" lon="-0.7272509671747684478759765625">
        <ele>967.79998779296875</ele>
        <time>2022-05-06T13:35:33.000Z</time>
      </trkpt>
      <trkpt lat="40.07473477162420749664306640625" lon="-0.72722288779914379119873046875">
        <ele>967.79998779296875</ele>
        <time>2022-05-06T13:35:34.000Z</time>
      </trkpt>
      <trkpt lat="40.074692107737064361572265625" lon="-0.72719539515674114227294921875">
        <ele>967.79998779296875</ele>
        <time>2022-05-06T13:35:35.000Z</time>
      </trkpt>
      <trkpt lat="40.0745997391641139984130859375" lon="-0.7271396555006504058837890625">
        <ele>968</ele>
        <time>2022-05-06T13:35:37.000Z</time>
      </trkpt>
      <trkpt lat="40.0745072029531002044677734375" lon="-0.7270876877009868621826171875">
        <ele>968</ele>
        <time>2022-05-06T13:35:39.000Z</time>
      </trkpt>
      <trkpt lat="40.074413157999515533447265625" lon="-0.72703178040683269500732421875">
        <ele>968.20001220703125</ele>
        <time>2022-05-06T13:35:41.000Z</time>
      </trkpt>
      <trkpt lat="40.0743197835981845855712890625" lon="-0.72697076015174388885498046875">
        <ele>968.4000244140625</ele>
        <time>2022-05-06T13:35:43.000Z</time>
      </trkpt>
      <trkpt lat="40.0742237269878387451171875" lon="-0.7269183732569217681884765625">
        <ele>968.5999755859375</ele>
        <time>2022-05-06T13:35:45.000Z</time>
      </trkpt>
      <trkpt lat="40.0741249881684780120849609375" lon="-0.72687034495174884796142578125">
        <ele>968.79998779296875</ele>
        <time>2022-05-06T13:35:47.000Z</time>
      </trkpt>
      <trkpt lat="40.07403169758617877960205078125" lon="-0.7268290221691131591796875">
        <ele>968.4000244140625</ele>
        <time>2022-05-06T13:35:49.000Z</time>
      </trkpt>
      <trkpt lat="40.0739855132997035980224609375" lon="-0.72681116871535778045654296875">
        <ele>968.20001220703125</ele>
        <time>2022-05-06T13:35:50.000Z</time>
      </trkpt>
      <trkpt lat="40.07393740117549896240234375" lon="-0.72679080069065093994140625">
        <ele>968</ele>
        <time>2022-05-06T13:35:51.000Z</time>
      </trkpt>
      <trkpt lat="40.07384310476481914520263671875" lon="-0.7267458736896514892578125">
        <ele>967.4000244140625</ele>
        <time>2022-05-06T13:35:53.000Z</time>
      </trkpt>
      <trkpt lat="40.07374419830739498138427734375" lon="-0.7267051376402378082275390625">
        <ele>967</ele>
        <time>2022-05-06T13:35:55.000Z</time>
      </trkpt>
      <trkpt lat="40.07363372482359409332275390625" lon="-0.72666767053306102752685546875">
        <ele>966.5999755859375</ele>
        <time>2022-05-06T13:35:57.000Z</time>
      </trkpt>
      <trkpt lat="40.0735183060169219970703125" lon="-0.7266283594071865081787109375">
        <ele>966.20001220703125</ele>
        <time>2022-05-06T13:35:59.000Z</time>
      </trkpt>
      <trkpt lat="40.0733947567641735076904296875" lon="-0.72658586315810680389404296875">
        <ele>966</ele>
        <time>2022-05-06T13:36:01.000Z</time>
      </trkpt>
      <trkpt lat="40.07326559163630008697509765625" lon="-0.72653741575777530670166015625">
        <ele>965.79998779296875</ele>
        <time>2022-05-06T13:36:03.000Z</time>
      </trkpt>
      <trkpt lat="40.07320038042962551116943359375" lon="-0.72651746682822704315185546875">
        <ele>965.79998779296875</ele>
        <time>2022-05-06T13:36:04.000Z</time>
      </trkpt>
      <trkpt lat="40.0731372646987438201904296875" lon="-0.726498775184154510498046875">
        <ele>965.5999755859375</ele>
        <time>2022-05-06T13:36:05.000Z</time>
      </trkpt>
      <trkpt lat="40.0730145536363124847412109375" lon="-0.72646147571504116058349609375">
        <ele>965.4000244140625</ele>
        <time>2022-05-06T13:36:07.000Z</time>
      </trkpt>
      <trkpt lat="40.0728915072977542877197265625" lon="-0.72643515653908252716064453125">
        <ele>965.20001220703125</ele>
        <time>2022-05-06T13:36:09.000Z</time>
      </trkpt>
      <trkpt lat="40.07276527583599090576171875" lon="-0.72640699334442615509033203125">
        <ele>965</ele>
        <time>2022-05-06T13:36:11.000Z</time>
      </trkpt>
      <trkpt lat="40.0727014057338237762451171875" lon="-0.72639140300452709197998046875">
        <ele>965</ele>
        <time>2022-05-06T13:36:12.000Z</time>
      </trkpt>
      <trkpt lat="40.07263560779392719268798828125" lon="-0.7263725437223911285400390625">
        <ele>965</ele>
        <time>2022-05-06T13:36:13.000Z</time>
      </trkpt>
      <trkpt lat="40.0725049339234828948974609375" lon="-0.72634153068065643310546875">
        <ele>965</ele>
        <time>2022-05-06T13:36:15.000Z</time>
      </trkpt>
      <trkpt lat="40.07237778045237064361572265625" lon="-0.72631764225661754608154296875">
        <ele>965</ele>
        <time>2022-05-06T13:36:17.000Z</time>
      </trkpt>
      <trkpt lat="40.07231273688375949859619140625" lon="-0.7263064943253993988037109375">
        <ele>965</ele>
        <time>2022-05-06T13:36:18.000Z</time>
      </trkpt>
      <trkpt lat="40.07225054316222667694091796875" lon="-0.72630138136446475982666015625">
        <ele>965</ele>
        <time>2022-05-06T13:36:19.000Z</time>
      </trkpt>
      <trkpt lat="40.07212414406239986419677734375" lon="-0.72629383765161037445068359375">
        <ele>965</ele>
        <time>2022-05-06T13:36:21.000Z</time>
      </trkpt>
      <trkpt lat="40.07199305109679698944091796875" lon="-0.726276822388172149658203125">
        <ele>965</ele>
        <time>2022-05-06T13:36:23.000Z</time>
      </trkpt>
      <trkpt lat="40.07186346687376499176025390625" lon="-0.72626148350536823272705078125">
        <ele>965.20001220703125</ele>
        <time>2022-05-06T13:36:25.000Z</time>
      </trkpt>
      <trkpt lat="40.071737654507160186767578125" lon="-0.7262508384883403778076171875">
        <ele>965.20001220703125</ele>
        <time>2022-05-06T13:36:27.000Z</time>
      </trkpt>
      <trkpt lat="40.071608237922191619873046875" lon="-0.726244635879993438720703125">
        <ele>965.4000244140625</ele>
        <time>2022-05-06T13:36:29.000Z</time>
      </trkpt>
      <trkpt lat="40.07147756405174732208251953125" lon="-0.72623834945261478424072265625">
        <ele>965.5999755859375</ele>
        <time>2022-05-06T13:36:31.000Z</time>
      </trkpt>
      <trkpt lat="40.07141235284507274627685546875" lon="-0.72623214684426784515380859375">
        <ele>965.5999755859375</ele>
        <time>2022-05-06T13:36:32.000Z</time>
      </trkpt>
      <trkpt lat="40.07134982384741306304931640625" lon="-0.72622963227331638336181640625">
        <ele>965.4000244140625</ele>
        <time>2022-05-06T13:36:33.000Z</time>
      </trkpt>
      <trkpt lat="40.07128612138330936431884765625" lon="-0.72622728534042835235595703125">
        <ele>965</ele>
        <time>2022-05-06T13:36:34.000Z</time>
      </trkpt>
      <trkpt lat="40.07122292183339595794677734375" lon="-0.72622627951204776763916015625">
        <ele>965.20001220703125</ele>
        <time>2022-05-06T13:36:35.000Z</time>
      </trkpt>
      <trkpt lat="40.07108931429684162139892578125" lon="-0.72622342966496944427490234375">
        <ele>965.79998779296875</ele>
        <time>2022-05-06T13:36:37.000Z</time>
      </trkpt>
      <trkpt lat="40.0709536112844944000244140625" lon="-0.7262220047414302825927734375">
        <ele>966.4000244140625</ele>
        <time>2022-05-06T13:36:39.000Z</time>
      </trkpt>
      <trkpt lat="40.07081723771989345550537109375" lon="-0.72623080573976039886474609375">
        <ele>967.20001220703125</ele>
        <time>2022-05-06T13:36:41.000Z</time>
      </trkpt>
      <trkpt lat="40.07068446837365627288818359375" lon="-0.72625477798283100128173828125">
        <ele>968</ele>
        <time>2022-05-06T13:36:43.000Z</time>
      </trkpt>
      <trkpt lat="40.0705589912831783294677734375" lon="-0.72629031725227832794189453125">
        <ele>968.79998779296875</ele>
        <time>2022-05-06T13:36:45.000Z</time>
      </trkpt>
      <trkpt lat="40.07042546756565570831298828125" lon="-0.72634781710803508758544921875">
        <ele>969.79998779296875</ele>
        <time>2022-05-06T13:36:47.000Z</time>
      </trkpt>
      <trkpt lat="40.07028716616332530975341796875" lon="-0.72642040438950061798095703125">
        <ele>969.4000244140625</ele>
        <time>2022-05-06T13:36:49.000Z</time>
      </trkpt>
      <trkpt lat="40.070162527263164520263671875" lon="-0.7265113480389118194580078125">
        <ele>969</ele>
        <time>2022-05-06T13:36:51.000Z</time>
      </trkpt>
      <trkpt lat="40.07010125555098056793212890625" lon="-0.72656038217246532440185546875">
        <ele>968.79998779296875</ele>
        <time>2022-05-06T13:36:52.000Z</time>
      </trkpt>
      <trkpt lat="40.07004325278103351593017578125" lon="-0.72660698555409908294677734375">
        <ele>968.5999755859375</ele>
        <time>2022-05-06T13:36:53.000Z</time>
      </trkpt>
      <trkpt lat="40.0699256546795368194580078125" lon="-0.72669918648898601531982421875">
        <ele>968.20001220703125</ele>
        <time>2022-05-06T13:36:55.000Z</time>
      </trkpt>
      <trkpt lat="40.0698034465312957763671875" lon="-0.72681452147662639617919921875">
        <ele>967.79998779296875</ele>
        <time>2022-05-06T13:36:57.000Z</time>
      </trkpt>
      <trkpt lat="40.06968132220208644866943359375" lon="-0.726921893656253814697265625">
        <ele>967.5999755859375</ele>
        <time>2022-05-06T13:36:59.000Z</time>
      </trkpt>
      <trkpt lat="40.06955374963581562042236328125" lon="-0.727026164531707763671875">
        <ele>966.79998779296875</ele>
        <time>2022-05-06T13:37:01.000Z</time>
      </trkpt>
      <trkpt lat="40.069425590336322784423828125" lon="-0.72713412344455718994140625">
        <ele>965.79998779296875</ele>
        <time>2022-05-06T13:37:03.000Z</time>
      </trkpt>
      <trkpt lat="40.06929558701813220977783203125" lon="-0.72725557722151279449462890625">
        <ele>964.79998779296875</ele>
        <time>2022-05-06T13:37:05.000Z</time>
      </trkpt>
      <trkpt lat="40.0691665895283222198486328125" lon="-0.72736973874270915985107421875">
        <ele>963.79998779296875</ele>
        <time>2022-05-06T13:37:07.000Z</time>
      </trkpt>
      <trkpt lat="40.06904102861881256103515625" lon="-0.72747744619846343994140625">
        <ele>963</ele>
        <time>2022-05-06T13:37:09.000Z</time>
      </trkpt>
      <trkpt lat="40.068924687802791595458984375" lon="-0.7275785319507122039794921875">
        <ele>962.20001220703125</ele>
        <time>2022-05-06T13:37:11.000Z</time>
      </trkpt>
      <trkpt lat="40.06880876608192920684814453125" lon="-0.7276707328855991363525390625">
        <ele>961.4000244140625</ele>
        <time>2022-05-06T13:37:13.000Z</time>
      </trkpt>
      <trkpt lat="40.068749003112316131591796875" lon="-0.72771440260112285614013671875">
        <ele>961</ele>
        <time>2022-05-06T13:37:14.000Z</time>
      </trkpt>
      <trkpt lat="40.06868588738143444061279296875" lon="-0.727755725383758544921875">
        <ele>960.4000244140625</ele>
        <time>2022-05-06T13:37:15.000Z</time>
      </trkpt>
      <trkpt lat="40.06857390515506267547607421875" lon="-0.72785370983183383941650390625">
        <ele>959.79998779296875</ele>
        <time>2022-05-06T13:37:17.000Z</time>
      </trkpt>
      <trkpt lat="40.06845789961516857147216796875" lon="-0.72796032764017581939697265625">
        <ele>959.20001220703125</ele>
        <time>2022-05-06T13:37:19.000Z</time>
      </trkpt>
      <trkpt lat="40.06832613609731197357177734375" lon="-0.7280670292675495147705078125">
        <ele>958.20001220703125</ele>
        <time>2022-05-06T13:37:21.000Z</time>
      </trkpt>
      <trkpt lat="40.06820476613938808441162109375" lon="-0.72817322798073291778564453125">
        <ele>956.79998779296875</ele>
        <time>2022-05-06T13:37:23.000Z</time>
      </trkpt>
      <trkpt lat="40.068092532455921173095703125" lon="-0.7282769121229648590087890625">
        <ele>955.4000244140625</ele>
        <time>2022-05-06T13:37:25.000Z</time>
      </trkpt>
      <trkpt lat="40.0679840706288814544677734375" lon="-0.728377662599086761474609375">
        <ele>954.20001220703125</ele>
        <time>2022-05-06T13:37:27.000Z</time>
      </trkpt>
      <trkpt lat="40.06786630488932132720947265625" lon="-0.7284770719707012176513671875">
        <ele>953</ele>
        <time>2022-05-06T13:37:29.000Z</time>
      </trkpt>
      <trkpt lat="40.06774149835109710693359375" lon="-0.728571116924285888671875">
        <ele>952</ele>
        <time>2022-05-06T13:37:31.000Z</time>
      </trkpt>
      <trkpt lat="40.06767570041120052337646484375" lon="-0.72861914522945880889892578125">
        <ele>951.4000244140625</ele>
        <time>2022-05-06T13:37:32.000Z</time>
      </trkpt>
      <trkpt lat="40.06761132739484310150146484375" lon="-0.7286473922431468963623046875">
        <ele>951</ele>
        <time>2022-05-06T13:37:33.000Z</time>
      </trkpt>
      <trkpt lat="40.06754578091204166412353515625" lon="-0.72867228649556636810302734375">
        <ele>950.4000244140625</ele>
        <time>2022-05-06T13:37:34.000Z</time>
      </trkpt>
      <trkpt lat="40.06748199462890625" lon="-0.7286956720054149627685546875">
        <ele>950</ele>
        <time>2022-05-06T13:37:35.000Z</time>
      </trkpt>
      <trkpt lat="40.0673493929207324981689453125" lon="-0.72873749770224094390869140625">
        <ele>949</ele>
        <time>2022-05-06T13:37:37.000Z</time>
      </trkpt>
      <trkpt lat="40.067212767899036407470703125" lon="-0.72876716963946819305419921875">
        <ele>948</ele>
        <time>2022-05-06T13:37:39.000Z</time>
      </trkpt>
      <trkpt lat="40.0670761428773403167724609375" lon="-0.7287741266191005706787109375">
        <ele>947</ele>
        <time>2022-05-06T13:37:41.000Z</time>
      </trkpt>
      <trkpt lat="40.06694027222692966461181640625" lon="-0.7287731207907199859619140625">
        <ele>946.79998779296875</ele>
        <time>2022-05-06T13:37:43.000Z</time>
      </trkpt>
      <trkpt lat="40.06680197082459926605224609375" lon="-0.72876096703112125396728515625">
        <ele>946.5999755859375</ele>
        <time>2022-05-06T13:37:45.000Z</time>
      </trkpt>
      <trkpt lat="40.06666618399322032928466796875" lon="-0.7287333905696868896484375">
        <ele>946.4000244140625</ele>
        <time>2022-05-06T13:37:47.000Z</time>
      </trkpt>
      <trkpt lat="40.0665303133428096771240234375" lon="-0.7286950014531612396240234375">
        <ele>946.4000244140625</ele>
        <time>2022-05-06T13:37:49.000Z</time>
      </trkpt>
      <trkpt lat="40.0664022378623485565185546875" lon="-0.72864462621510028839111328125">
        <ele>946</ele>
        <time>2022-05-06T13:37:51.000Z</time>
      </trkpt>
      <trkpt lat="40.06628044880926609039306640625" lon="-0.7285830192267894744873046875">
        <ele>945.79998779296875</ele>
        <time>2022-05-06T13:37:53.000Z</time>
      </trkpt>
      <trkpt lat="40.0662198476493358612060546875" lon="-0.7285474799573421478271484375">
        <ele>946</ele>
        <time>2022-05-06T13:37:54.000Z</time>
      </trkpt>
      <trkpt lat="40.06615924648940563201904296875" lon="-0.7285095937550067901611328125">
        <ele>946.4000244140625</ele>
        <time>2022-05-06T13:37:55.000Z</time>
      </trkpt>
      <trkpt lat="40.06604055874049663543701171875" lon="-0.72843273170292377471923828125">
        <ele>947.4000244140625</ele>
        <time>2022-05-06T13:37:57.000Z</time>
      </trkpt>
      <trkpt lat="40.065925307571887969970703125" lon="-0.72835410945117473602294921875">
        <ele>948.20001220703125</ele>
        <time>2022-05-06T13:37:59.000Z</time>
      </trkpt>
      <trkpt lat="40.06581240333616733551025390625" lon="-0.72827045805752277374267578125">
        <ele>949.4000244140625</ele>
        <time>2022-05-06T13:38:01.000Z</time>
      </trkpt>
      <trkpt lat="40.065757669508457183837890625" lon="-0.7282266207039356231689453125">
        <ele>949.79998779296875</ele>
        <time>2022-05-06T13:38:02.000Z</time>
      </trkpt>
      <trkpt lat="40.06570427678525447845458984375" lon="-0.72818077169358730316162109375">
        <ele>950.4000244140625</ele>
        <time>2022-05-06T13:38:03.000Z</time>
      </trkpt>
      <trkpt lat="40.06559380330145359039306640625" lon="-0.7280878163874149322509765625">
        <ele>951.4000244140625</ele>
        <time>2022-05-06T13:38:05.000Z</time>
      </trkpt>
      <trkpt lat="40.06548835895955562591552734375" lon="-0.7279956154525279998779296875">
        <ele>952.20001220703125</ele>
        <time>2022-05-06T13:38:07.000Z</time>
      </trkpt>
      <trkpt lat="40.06538475863635540008544921875" lon="-0.72789595462381839752197265625">
        <ele>952.5999755859375</ele>
        <time>2022-05-06T13:38:09.000Z</time>
      </trkpt>
      <trkpt lat="40.06527788937091827392578125" lon="-0.72779637761414051055908203125">
        <ele>953.20001220703125</ele>
        <time>2022-05-06T13:38:11.000Z</time>
      </trkpt>
      <trkpt lat="40.0651714392006397247314453125" lon="-0.72769043035805225372314453125">
        <ele>953.5999755859375</ele>
        <time>2022-05-06T13:38:13.000Z</time>
      </trkpt>
      <trkpt lat="40.06506574340164661407470703125" lon="-0.72758314199745655059814453125">
        <ele>954.20001220703125</ele>
        <time>2022-05-06T13:38:15.000Z</time>
      </trkpt>
      <trkpt lat="40.064962394535541534423828125" lon="-0.72747887112200260162353515625">
        <ele>954.5999755859375</ele>
        <time>2022-05-06T13:38:17.000Z</time>
      </trkpt>
      <trkpt lat="40.0649116002023220062255859375" lon="-0.72742589749395847320556640625">
        <ele>955</ele>
        <time>2022-05-06T13:38:18.000Z</time>
      </trkpt>
      <trkpt lat="40.06486139260232448577880859375" lon="-0.7273735105991363525390625">
        <ele>955.20001220703125</ele>
        <time>2022-05-06T13:38:19.000Z</time>
      </trkpt>
      <trkpt lat="40.06476022303104400634765625" lon="-0.72727049700915813446044921875">
        <ele>955.5999755859375</ele>
        <time>2022-05-06T13:38:21.000Z</time>
      </trkpt>
      <trkpt lat="40.06470934487879276275634765625" lon="-0.72721953503787517547607421875">
        <ele>955.79998779296875</ele>
        <time>2022-05-06T13:38:22.000Z</time>
      </trkpt>
      <trkpt lat="40.06465855054557323455810546875" lon="-0.72716823779046535491943359375">
        <ele>956.20001220703125</ele>
        <time>2022-05-06T13:38:23.000Z</time>
      </trkpt>
      <trkpt lat="40.06455763243138790130615234375" lon="-0.7270677387714385986328125">
        <ele>956.20001220703125</ele>
        <time>2022-05-06T13:38:25.000Z</time>
      </trkpt>
      <trkpt lat="40.0644573010504245758056640625" lon="-0.726968832314014434814453125">
        <ele>956.4000244140625</ele>
        <time>2022-05-06T13:38:27.000Z</time>
      </trkpt>
      <trkpt lat="40.06435596384108066558837890625" lon="-0.7268721051514148712158203125">
        <ele>956.5999755859375</ele>
        <time>2022-05-06T13:38:29.000Z</time>
      </trkpt>
      <trkpt lat="40.06430516950786113739013671875" lon="-0.72682566940784454345703125">
        <ele>956.5999755859375</ele>
        <time>2022-05-06T13:38:30.000Z</time>
      </trkpt>
      <trkpt lat="40.0642537884414196014404296875" lon="-0.7267807424068450927734375">
        <ele>956.79998779296875</ele>
        <time>2022-05-06T13:38:31.000Z</time>
      </trkpt>
      <trkpt lat="40.064148008823394775390625" lon="-0.72669935412704944610595703125">
        <ele>957</ele>
        <time>2022-05-06T13:38:33.000Z</time>
      </trkpt>
      <trkpt lat="40.064041055738925933837890625" lon="-0.72662408463656902313232421875">
        <ele>957.4000244140625</ele>
        <time>2022-05-06T13:38:35.000Z</time>
      </trkpt>
      <trkpt lat="40.06393150426447391510009765625" lon="-0.726554095745086669921875">
        <ele>958</ele>
        <time>2022-05-06T13:38:37.000Z</time>
      </trkpt>
      <trkpt lat="40.0638206116855144500732421875" lon="-0.7264959253370761871337890625">
        <ele>958.4000244140625</ele>
        <time>2022-05-06T13:38:39.000Z</time>
      </trkpt>
      <trkpt lat="40.06371491588652133941650390625" lon="-0.7264454662799835205078125">
        <ele>958.5999755859375</ele>
        <time>2022-05-06T13:38:41.000Z</time>
      </trkpt>
      <trkpt lat="40.0636110641062259674072265625" lon="-0.7264013774693012237548828125">
        <ele>958.4000244140625</ele>
        <time>2022-05-06T13:38:43.000Z</time>
      </trkpt>
      <trkpt lat="40.0635587610304355621337890625" lon="-0.72637933306396007537841796875">
        <ele>958.5999755859375</ele>
        <time>2022-05-06T13:38:44.000Z</time>
      </trkpt>
      <trkpt lat="40.0635054521262645721435546875" lon="-0.726359300315380096435546875">
        <ele>958.5999755859375</ele>
        <time>2022-05-06T13:38:45.000Z</time>
      </trkpt>
      <trkpt lat="40.06339455954730510711669921875" lon="-0.72632652707397937774658203125">
        <ele>958.79998779296875</ele>
        <time>2022-05-06T13:38:47.000Z</time>
      </trkpt>
      <trkpt lat="40.06328207440674304962158203125" lon="-0.7262974418699741363525390625">
        <ele>959</ele>
        <time>2022-05-06T13:38:49.000Z</time>
      </trkpt>
      <trkpt lat="40.0631705112755298614501953125" lon="-0.72627590037882328033447265625">
        <ele>959.20001220703125</ele>
        <time>2022-05-06T13:38:51.000Z</time>
      </trkpt>
      <trkpt lat="40.063115023076534271240234375" lon="-0.72626508772373199462890625">
        <ele>959.20001220703125</ele>
        <time>2022-05-06T13:38:52.000Z</time>
      </trkpt>
      <trkpt lat="40.06305894814431667327880859375" lon="-0.72625569999217987060546875">
        <ele>959.4000244140625</ele>
        <time>2022-05-06T13:38:53.000Z</time>
      </trkpt>
      <trkpt lat="40.062946043908596038818359375" lon="-0.72623298503458499908447265625">
        <ele>959.5999755859375</ele>
        <time>2022-05-06T13:38:55.000Z</time>
      </trkpt>
      <trkpt lat="40.06284101866185665130615234375" lon="-0.72620666585862636566162109375">
        <ele>959.5999755859375</ele>
        <time>2022-05-06T13:38:57.000Z</time>
      </trkpt>
      <trkpt lat="40.0627772323787212371826171875" lon="-0.7261951826512813568115234375">
        <ele>959.5999755859375</ele>
        <time>2022-05-06T13:38:59.000Z</time>
      </trkpt>
      <trkpt lat="40.06272886879742145538330078125" lon="-0.72618470527231693267822265625">
        <ele>959.5999755859375</ele>
        <time>2022-05-06T13:39:01.000Z</time>
      </trkpt>
      <trkpt lat="40.06266701035201549530029296875" lon="-0.7261700369417667388916015625">
        <ele>959.5999755859375</ele>
        <time>2022-05-06T13:39:03.000Z</time>
      </trkpt>
      <trkpt lat="40.06258629262447357177734375" lon="-0.72615285404026508331298828125">
        <ele>959.4000244140625</ele>
        <time>2022-05-06T13:39:05.000Z</time>
      </trkpt>
      <trkpt lat="40.06249107420444488525390625" lon="-0.72614128701388835906982421875">
        <ele>959.4000244140625</ele>
        <time>2022-05-06T13:39:07.000Z</time>
      </trkpt>
      <trkpt lat="40.06238806061446666717529296875" lon="-0.72613256983458995819091796875">
        <ele>959.4000244140625</ele>
        <time>2022-05-06T13:39:09.000Z</time>
      </trkpt>
      <trkpt lat="40.06233961321413516998291015625" lon="-0.72612904943525791168212890625">
        <ele>959.4000244140625</ele>
        <time>2022-05-06T13:39:10.000Z</time>
      </trkpt>
      <trkpt lat="40.0622904114425182342529296875" lon="-0.7261308096349239349365234375">
        <ele>959.4000244140625</ele>
        <time>2022-05-06T13:39:11.000Z</time>
      </trkpt>
      <trkpt lat="40.06219158880412578582763671875" lon="-0.726141035556793212890625">
        <ele>959.20001220703125</ele>
        <time>2022-05-06T13:39:13.000Z</time>
      </trkpt>
      <trkpt lat="40.06209100596606731414794921875" lon="-0.7261529378592967987060546875">
        <ele>959</ele>
        <time>2022-05-06T13:39:15.000Z</time>
      </trkpt>
      <trkpt lat="40.061990506947040557861328125" lon="-0.726168863475322723388671875">
        <ele>959.5999755859375</ele>
        <time>2022-05-06T13:39:17.000Z</time>
      </trkpt>
      <trkpt lat="40.06189017556607723236083984375" lon="-0.72619090788066387176513671875">
        <ele>960.20001220703125</ele>
        <time>2022-05-06T13:39:19.000Z</time>
      </trkpt>
      <trkpt lat="40.0617874972522258758544921875" lon="-0.72622527368366718292236328125">
        <ele>960.79998779296875</ele>
        <time>2022-05-06T13:39:21.000Z</time>
      </trkpt>
      <trkpt lat="40.06168096326291561126708984375" lon="-0.7262692786753177642822265625">
        <ele>961.4000244140625</ele>
        <time>2022-05-06T13:39:23.000Z</time>
      </trkpt>
      <trkpt lat="40.06157535128295421600341796875" lon="-0.72631294839084148406982421875">
        <ele>962.20001220703125</ele>
        <time>2022-05-06T13:39:25.000Z</time>
      </trkpt>
      <trkpt lat="40.06147610954940319061279296875" lon="-0.7263621501624584197998046875">
        <ele>963</ele>
        <time>2022-05-06T13:39:27.000Z</time>
      </trkpt>
      <trkpt lat="40.06142900325357913970947265625" lon="-0.72638972662389278411865234375">
        <ele>963.20001220703125</ele>
        <time>2022-05-06T13:39:28.000Z</time>
      </trkpt>
      <trkpt lat="40.06138239987194538116455078125" lon="-0.7264201529324054718017578125">
        <ele>963.5999755859375</ele>
        <time>2022-05-06T13:39:29.000Z</time>
      </trkpt>
      <trkpt lat="40.06133504211902618408203125" lon="-0.7264550216495990753173828125">
        <ele>964</ele>
        <time>2022-05-06T13:39:30.000Z</time>
      </trkpt>
      <trkpt lat="40.061288438737392425537109375" lon="-0.72649114765226840972900390625">
        <ele>964.4000244140625</ele>
        <time>2022-05-06T13:39:31.000Z</time>
      </trkpt>
      <trkpt lat="40.06119917146861553192138671875" lon="-0.7265659980475902557373046875">
        <ele>964.4000244140625</ele>
        <time>2022-05-06T13:39:33.000Z</time>
      </trkpt>
      <trkpt lat="40.061110742390155792236328125" lon="-0.72664118371903896331787109375">
        <ele>964.20001220703125</ele>
        <time>2022-05-06T13:39:35.000Z</time>
      </trkpt>
      <trkpt lat="40.061021558940410614013671875" lon="-0.7267175428569316864013671875">
        <ele>964.20001220703125</ele>
        <time>2022-05-06T13:39:37.000Z</time>
      </trkpt>
      <trkpt lat="40.06093028001487255096435546875" lon="-0.72679792530834674835205078125">
        <ele>964</ele>
        <time>2022-05-06T13:39:39.000Z</time>
      </trkpt>
      <trkpt lat="40.0608363188803195953369140625" lon="-0.7268804870545864105224609375">
        <ele>963.79998779296875</ele>
        <time>2022-05-06T13:39:41.000Z</time>
      </trkpt>
      <trkpt lat="40.0607417710125446319580078125" lon="-0.72695751674473285675048828125">
        <ele>963.5999755859375</ele>
        <time>2022-05-06T13:39:43.000Z</time>
      </trkpt>
      <trkpt lat="40.06064931862056255340576171875" lon="-0.727043934166431427001953125">
        <ele>963.4000244140625</ele>
        <time>2022-05-06T13:39:45.000Z</time>
      </trkpt>
      <trkpt lat="40.06060187704861164093017578125" lon="-0.7270880229771137237548828125">
        <ele>963.4000244140625</ele>
        <time>2022-05-06T13:39:46.000Z</time>
      </trkpt>
      <trkpt lat="40.060554184019565582275390625" lon="-0.7271326147019863128662109375">
        <ele>963.4000244140625</ele>
        <time>2022-05-06T13:39:47.000Z</time>
      </trkpt>
      <trkpt lat="40.06046039052307605743408203125" lon="-0.7272171042859554290771484375">
        <ele>963.20001220703125</ele>
        <time>2022-05-06T13:39:49.000Z</time>
      </trkpt>
      <trkpt lat="40.06036399863660335540771484375" lon="-0.72730000130832195281982421875">
        <ele>962.5999755859375</ele>
        <time>2022-05-06T13:39:51.000Z</time>
      </trkpt>
      <trkpt lat="40.06027163006365299224853515625" lon="-0.72738130576908588409423828125">
        <ele>962</ele>
        <time>2022-05-06T13:39:53.000Z</time>
      </trkpt>
      <trkpt lat="40.06022603251039981842041015625" lon="-0.72741969488561153411865234375">
        <ele>961.5999755859375</ele>
        <time>2022-05-06T13:39:54.000Z</time>
      </trkpt>
      <trkpt lat="40.06018102169036865234375" lon="-0.72745741344988346099853515625">
        <ele>961.20001220703125</ele>
        <time>2022-05-06T13:39:55.000Z</time>
      </trkpt>
      <trkpt lat="40.06008756347000598907470703125" lon="-0.7275329343974590301513671875">
        <ele>960.5999755859375</ele>
        <time>2022-05-06T13:39:57.000Z</time>
      </trkpt>
      <trkpt lat="40.05999670363962650299072265625" lon="-0.72761356830596923828125">
        <ele>959.79998779296875</ele>
        <time>2022-05-06T13:39:59.000Z</time>
      </trkpt>
      <trkpt lat="40.05990768782794475555419921875" lon="-0.72769411839544773101806640625">
        <ele>959.20001220703125</ele>
        <time>2022-05-06T13:40:01.000Z</time>
      </trkpt>
      <trkpt lat="40.05981900729238986968994140625" lon="-0.72777542285621166229248046875">
        <ele>958.5999755859375</ele>
        <time>2022-05-06T13:40:03.000Z</time>
      </trkpt>
      <trkpt lat="40.05973116494715213775634765625" lon="-0.727857984602451324462890625">
        <ele>957.79998779296875</ele>
        <time>2022-05-06T13:40:05.000Z</time>
      </trkpt>
      <trkpt lat="40.0596432387828826904296875" lon="-0.72793987579643726348876953125">
        <ele>957.20001220703125</ele>
        <time>2022-05-06T13:40:07.000Z</time>
      </trkpt>
      <trkpt lat="40.059553720057010650634765625" lon="-0.72802034206688404083251953125">
        <ele>957</ele>
        <time>2022-05-06T13:40:09.000Z</time>
      </trkpt>
      <trkpt lat="40.05946244113147258758544921875" lon="-0.72810281999409198760986328125">
        <ele>957</ele>
        <time>2022-05-06T13:40:11.000Z</time>
      </trkpt>
      <trkpt lat="40.0593718327581882476806640625" lon="-0.72818010114133358001708984375">
        <ele>957</ele>
        <time>2022-05-06T13:40:13.000Z</time>
      </trkpt>
      <trkpt lat="40.0592849962413311004638671875" lon="-0.72825931012630462646484375">
        <ele>956.79998779296875</ele>
        <time>2022-05-06T13:40:15.000Z</time>
      </trkpt>
      <trkpt lat="40.059196986258029937744140625" lon="-0.72833751328289508819580078125">
        <ele>956.79998779296875</ele>
        <time>2022-05-06T13:40:17.000Z</time>
      </trkpt>
      <trkpt lat="40.05911073647439479827880859375" lon="-0.72841479443013668060302734375">
        <ele>956.79998779296875</ele>
        <time>2022-05-06T13:40:19.000Z</time>
      </trkpt>
      <trkpt lat="40.0590254925191402435302734375" lon="-0.72849157266318798065185546875">
        <ele>956.79998779296875</ele>
        <time>2022-05-06T13:40:21.000Z</time>
      </trkpt>
      <trkpt lat="40.05893806926906108856201171875" lon="-0.728568099439144134521484375">
        <ele>956.79998779296875</ele>
        <time>2022-05-06T13:40:23.000Z</time>
      </trkpt>
      <trkpt lat="40.0588474608957767486572265625" lon="-0.72864764370024204254150390625">
        <ele>956.79998779296875</ele>
        <time>2022-05-06T13:40:25.000Z</time>
      </trkpt>
      <trkpt lat="40.0587589479982852935791015625" lon="-0.7287234999239444732666015625">
        <ele>956.79998779296875</ele>
        <time>2022-05-06T13:40:27.000Z</time>
      </trkpt>
      <trkpt lat="40.0587143562734127044677734375" lon="-0.72876482270658016204833984375">
        <ele>957</ele>
        <time>2022-05-06T13:40:28.000Z</time>
      </trkpt>
      <trkpt lat="40.05867085419595241546630859375" lon="-0.72880421765148639678955078125">
        <ele>957.4000244140625</ele>
        <time>2022-05-06T13:40:29.000Z</time>
      </trkpt>
      <trkpt lat="40.05859072320163249969482421875" lon="-0.728876553475856781005859375">
        <ele>957.79998779296875</ele>
        <time>2022-05-06T13:40:31.000Z</time>
      </trkpt>
      <trkpt lat="40.05849994719028472900390625" lon="-0.72895132005214691162109375">
        <ele>958.4000244140625</ele>
        <time>2022-05-06T13:40:33.000Z</time>
      </trkpt>
      <trkpt lat="40.0584126077592372894287109375" lon="-0.729032792150974273681640625">
        <ele>958.79998779296875</ele>
        <time>2022-05-06T13:40:35.000Z</time>
      </trkpt>
      <trkpt lat="40.05832049064338207244873046875" lon="-0.72910982184112071990966796875">
        <ele>959.4000244140625</ele>
        <time>2022-05-06T13:40:37.000Z</time>
      </trkpt>
      <trkpt lat="40.0582332350313663482666015625" lon="-0.72918140329420566558837890625">
        <ele>960</ele>
        <time>2022-05-06T13:40:39.000Z</time>
      </trkpt>
      <trkpt lat="40.058146230876445770263671875" lon="-0.72925684042274951934814453125">
        <ele>960.4000244140625</ele>
        <time>2022-05-06T13:40:41.000Z</time>
      </trkpt>
      <trkpt lat="40.05805394612252712249755859375" lon="-0.72933680377900600433349609375">
        <ele>961</ele>
        <time>2022-05-06T13:40:43.000Z</time>
      </trkpt>
      <trkpt lat="40.05796476267278194427490234375" lon="-0.729412995278835296630859375">
        <ele>961.4000244140625</ele>
        <time>2022-05-06T13:40:45.000Z</time>
      </trkpt>
      <trkpt lat="40.0579190813004970550537109375" lon="-0.7294483669102191925048828125">
        <ele>961.5999755859375</ele>
        <time>2022-05-06T13:40:46.000Z</time>
      </trkpt>
      <trkpt lat="40.0578756630420684814453125" lon="-0.72948432527482509613037109375">
        <ele>961.4000244140625</ele>
        <time>2022-05-06T13:40:47.000Z</time>
      </trkpt>
      <trkpt lat="40.057790838181972503662109375" lon="-0.72956194169819355010986328125">
        <ele>960.79998779296875</ele>
        <time>2022-05-06T13:40:49.000Z</time>
      </trkpt>
      <trkpt lat="40.0577487610280513763427734375" lon="-0.72960217483341693878173828125">
        <ele>960.5999755859375</ele>
        <time>2022-05-06T13:40:50.000Z</time>
      </trkpt>
      <trkpt lat="40.057705342769622802734375" lon="-0.72964324615895748138427734375">
        <ele>960.4000244140625</ele>
        <time>2022-05-06T13:40:51.000Z</time>
      </trkpt>
      <trkpt lat="40.057617165148258209228515625" lon="-0.72972689755260944366455078125">
        <ele>959.79998779296875</ele>
        <time>2022-05-06T13:40:53.000Z</time>
      </trkpt>
      <trkpt lat="40.05752806551754474639892578125" lon="-0.72980518452823162078857421875">
        <ele>958.79998779296875</ele>
        <time>2022-05-06T13:40:55.000Z</time>
      </trkpt>
      <trkpt lat="40.05743972025811672210693359375" lon="-0.7298838905990123748779296875">
        <ele>958</ele>
        <time>2022-05-06T13:40:57.000Z</time>
      </trkpt>
      <trkpt lat="40.05735221318900585174560546875" lon="-0.72996410541236400604248046875">
        <ele>957.20001220703125</ele>
        <time>2022-05-06T13:40:59.000Z</time>
      </trkpt>
      <trkpt lat="40.0572632811963558197021484375" lon="-0.73004339821636676788330078125">
        <ele>956.4000244140625</ele>
        <time>2022-05-06T13:41:01.000Z</time>
      </trkpt>
      <trkpt lat="40.0571756064891815185546875" lon="-0.7301189191639423370361328125">
        <ele>955.5999755859375</ele>
        <time>2022-05-06T13:41:03.000Z</time>
      </trkpt>
      <trkpt lat="40.05708650685846805572509765625" lon="-0.7301925122737884521484375">
        <ele>954.79998779296875</ele>
        <time>2022-05-06T13:41:05.000Z</time>
      </trkpt>
      <trkpt lat="40.05699413828551769256591796875" lon="-0.73026618920266628265380859375">
        <ele>954.5999755859375</ele>
        <time>2022-05-06T13:41:07.000Z</time>
      </trkpt>
      <trkpt lat="40.0569018535315990447998046875" lon="-0.73033944703638553619384765625">
        <ele>954.20001220703125</ele>
        <time>2022-05-06T13:41:09.000Z</time>
      </trkpt>
      <trkpt lat="40.05680839531123638153076171875" lon="-0.7304005511105060577392578125">
        <ele>954</ele>
        <time>2022-05-06T13:41:11.000Z</time>
      </trkpt>
      <trkpt lat="40.05676212720572948455810546875" lon="-0.73042745701968669891357421875">
        <ele>953.79998779296875</ele>
        <time>2022-05-06T13:41:12.000Z</time>
      </trkpt>
      <trkpt lat="40.05671636201441287994384765625" lon="-0.73045193217694759368896484375">
        <ele>953.79998779296875</ele>
        <time>2022-05-06T13:41:13.000Z</time>
      </trkpt>
      <trkpt lat="40.0566705130040645599365234375" lon="-0.7304746471345424652099609375">
        <ele>953.5999755859375</ele>
        <time>2022-05-06T13:41:14.000Z</time>
      </trkpt>
      <trkpt lat="40.05662499926984310150146484375" lon="-0.730496607720851898193359375">
        <ele>953.5999755859375</ele>
        <time>2022-05-06T13:41:15.000Z</time>
      </trkpt>
      <trkpt lat="40.05653246305882930755615234375" lon="-0.73053876869380474090576171875">
        <ele>953.4000244140625</ele>
        <time>2022-05-06T13:41:17.000Z</time>
      </trkpt>
      <trkpt lat="40.0564401783049106597900390625" lon="-0.73057581670582294464111328125">
        <ele>953.20001220703125</ele>
        <time>2022-05-06T13:41:19.000Z</time>
      </trkpt>
      <trkpt lat="40.0563452951610088348388671875" lon="-0.73060599155724048614501953125">
        <ele>953</ele>
        <time>2022-05-06T13:41:21.000Z</time>
      </trkpt>
      <trkpt lat="40.056243203580379486083984375" lon="-0.73063063435256481170654296875">
        <ele>952.79998779296875</ele>
        <time>2022-05-06T13:41:23.000Z</time>
      </trkpt>
      <trkpt lat="40.0561411119997501373291015625" lon="-0.7306530140340328216552734375">
        <ele>953.20001220703125</ele>
        <time>2022-05-06T13:41:25.000Z</time>
      </trkpt>
      <trkpt lat="40.05603860132396221160888671875" lon="-0.730668269097805023193359375">
        <ele>953.79998779296875</ele>
        <time>2022-05-06T13:41:27.000Z</time>
      </trkpt>
      <trkpt lat="40.0559349171817302703857421875" lon="-0.73067405261099338531494140625">
        <ele>954.4000244140625</ele>
        <time>2022-05-06T13:41:29.000Z</time>
      </trkpt>
      <trkpt lat="40.05588320083916187286376953125" lon="-0.7306751422584056854248046875">
        <ele>954.79998779296875</ele>
        <time>2022-05-06T13:41:30.000Z</time>
      </trkpt>
      <trkpt lat="40.05583140067756175994873046875" lon="-0.7306768186390399932861328125">
        <ele>955</ele>
        <time>2022-05-06T13:41:31.000Z</time>
      </trkpt>
      <trkpt lat="40.055729560554027557373046875" lon="-0.7306738011538982391357421875">
        <ele>955.5999755859375</ele>
        <time>2022-05-06T13:41:33.000Z</time>
      </trkpt>
      <trkpt lat="40.055626966059207916259765625" lon="-0.73066332377493381500244140625">
        <ele>956.4000244140625</ele>
        <time>2022-05-06T13:41:35.000Z</time>
      </trkpt>
      <trkpt lat="40.05552194081246852874755859375" lon="-0.7306484878063201904296875">
        <ele>957</ele>
        <time>2022-05-06T13:41:37.000Z</time>
      </trkpt>
      <trkpt lat="40.0554685480892658233642578125" lon="-0.73063901625573635101318359375">
        <ele>957.4000244140625</ele>
        <time>2022-05-06T13:41:38.000Z</time>
      </trkpt>
      <trkpt lat="40.05541532300412654876708984375" lon="-0.730627365410327911376953125">
        <ele>957.79998779296875</ele>
        <time>2022-05-06T13:41:39.000Z</time>
      </trkpt>
      <trkpt lat="40.05531121976673603057861328125" lon="-0.73060515336692333221435546875">
        <ele>959</ele>
        <time>2022-05-06T13:41:41.000Z</time>
      </trkpt>
      <trkpt lat="40.055204518139362335205078125" lon="-0.73058252222836017608642578125">
        <ele>959.5999755859375</ele>
        <time>2022-05-06T13:41:43.000Z</time>
      </trkpt>
      <trkpt lat="40.05509354174137115478515625" lon="-0.7305586338043212890625">
        <ele>960.4000244140625</ele>
        <time>2022-05-06T13:41:45.000Z</time>
      </trkpt>
      <trkpt lat="40.0549780391156673431396484375" lon="-0.730538181960582733154296875">
        <ele>961.20001220703125</ele>
        <time>2022-05-06T13:41:47.000Z</time>
      </trkpt>
      <trkpt lat="40.05485993809998035430908203125" lon="-0.730513036251068115234375">
        <ele>962</ele>
        <time>2022-05-06T13:41:49.000Z</time>
      </trkpt>
      <trkpt lat="40.054741166532039642333984375" lon="-0.73049166239798069000244140625">
        <ele>962.79998779296875</ele>
        <time>2022-05-06T13:41:51.000Z</time>
      </trkpt>
      <trkpt lat="40.05462373606860637664794921875" lon="-0.73047271929681301116943359375">
        <ele>963.5999755859375</ele>
        <time>2022-05-06T13:41:53.000Z</time>
      </trkpt>
      <trkpt lat="40.05450479686260223388671875" lon="-0.73044958524405956268310546875">
        <ele>964.4000244140625</ele>
        <time>2022-05-06T13:41:55.000Z</time>
      </trkpt>
      <trkpt lat="40.05444721318781375885009765625" lon="-0.73043885640799999237060546875">
        <ele>964.79998779296875</ele>
        <time>2022-05-06T13:41:56.000Z</time>
      </trkpt>
      <trkpt lat="40.054390132427215576171875" lon="-0.73042452335357666015625">
        <ele>965</ele>
        <time>2022-05-06T13:41:57.000Z</time>
      </trkpt>
      <trkpt lat="40.05427253432571887969970703125" lon="-0.73039325885474681854248046875">
        <ele>965.79998779296875</ele>
        <time>2022-05-06T13:41:59.000Z</time>
      </trkpt>
      <trkpt lat="40.05415770225226879119873046875" lon="-0.73036761023104190826416015625">
        <ele>966.4000244140625</ele>
        <time>2022-05-06T13:42:01.000Z</time>
      </trkpt>
      <trkpt lat="40.0540375895798206329345703125" lon="-0.73033072985708713531494140625">
        <ele>967</ele>
        <time>2022-05-06T13:42:03.000Z</time>
      </trkpt>
      <trkpt lat="40.0539225898683071136474609375" lon="-0.73030156083405017852783203125">
        <ele>967.79998779296875</ele>
        <time>2022-05-06T13:42:05.000Z</time>
      </trkpt>
      <trkpt lat="40.0538042373955249786376953125" lon="-0.73027557693421840667724609375">
        <ele>968.4000244140625</ele>
        <time>2022-05-06T13:42:07.000Z</time>
      </trkpt>
      <trkpt lat="40.05368940532207489013671875" lon="-0.730250515043735504150390625">
        <ele>968.4000244140625</ele>
        <time>2022-05-06T13:42:09.000Z</time>
      </trkpt>
      <trkpt lat="40.05358002148568630218505859375" lon="-0.7302255369722843170166015625">
        <ele>968.20001220703125</ele>
        <time>2022-05-06T13:42:11.000Z</time>
      </trkpt>
      <trkpt lat="40.05346619524061679840087890625" lon="-0.7302010618150234222412109375">
        <ele>967.79998779296875</ele>
        <time>2022-05-06T13:42:13.000Z</time>
      </trkpt>
      <trkpt lat="40.05336125381290912628173828125" lon="-0.73017901740968227386474609375">
        <ele>967.5999755859375</ele>
        <time>2022-05-06T13:42:15.000Z</time>
      </trkpt>
      <trkpt lat="40.053258575499057769775390625" lon="-0.73015923611819744110107421875">
        <ele>967.4000244140625</ele>
        <time>2022-05-06T13:42:17.000Z</time>
      </trkpt>
      <trkpt lat="40.0532084517180919647216796875" lon="-0.73015320114791393280029296875">
        <ele>967.20001220703125</ele>
        <time>2022-05-06T13:42:18.000Z</time>
      </trkpt>
      <trkpt lat="40.05315698683261871337890625" lon="-0.730141885578632354736328125">
        <ele>967</ele>
        <time>2022-05-06T13:42:19.000Z</time>
      </trkpt>
      <trkpt lat="40.05304626189172267913818359375" lon="-0.7301279716193675994873046875">
        <ele>966.79998779296875</ele>
        <time>2022-05-06T13:42:21.000Z</time>
      </trkpt>
      <trkpt lat="40.0529362075030803680419921875" lon="-0.73011548258364200592041015625">
        <ele>966.5999755859375</ele>
        <time>2022-05-06T13:42:23.000Z</time>
      </trkpt>
      <trkpt lat="40.0528277456760406494140625" lon="-0.73010760359466075897216796875">
        <ele>965.5999755859375</ele>
        <time>2022-05-06T13:42:25.000Z</time>
      </trkpt>
      <trkpt lat="40.05277401767671108245849609375" lon="-0.73010073043406009674072265625">
        <ele>965.20001220703125</ele>
        <time>2022-05-06T13:42:26.000Z</time>
      </trkpt>
      <trkpt lat="40.0527206249535083770751953125" lon="-0.730093605816364288330078125">
        <ele>964.79998779296875</ele>
        <time>2022-05-06T13:42:27.000Z</time>
      </trkpt>
      <trkpt lat="40.052614174783229827880859375" lon="-0.73007860220968723297119140625">
        <ele>963.79998779296875</ele>
        <time>2022-05-06T13:42:29.000Z</time>
      </trkpt>
      <trkpt lat="40.0525124184787273406982421875" lon="-0.7300610840320587158203125">
        <ele>962.79998779296875</ele>
        <time>2022-05-06T13:42:31.000Z</time>
      </trkpt>
      <trkpt lat="40.05240328609943389892578125" lon="-0.73004473932087421417236328125">
        <ele>961.79998779296875</ele>
        <time>2022-05-06T13:42:33.000Z</time>
      </trkpt>
      <trkpt lat="40.0522975064814090728759765625" lon="-0.73002914898097515106201171875">
        <ele>960.79998779296875</ele>
        <time>2022-05-06T13:42:35.000Z</time>
      </trkpt>
      <trkpt lat="40.05219097249209880828857421875" lon="-0.7300092838704586029052734375">
        <ele>959.5999755859375</ele>
        <time>2022-05-06T13:42:37.000Z</time>
      </trkpt>
      <trkpt lat="40.0520799122750759124755859375" lon="-0.72998858056962490081787109375">
        <ele>958.5999755859375</ele>
        <time>2022-05-06T13:42:39.000Z</time>
      </trkpt>
      <trkpt lat="40.0519679300487041473388671875" lon="-0.72996812872588634490966796875">
        <ele>958.4000244140625</ele>
        <time>2022-05-06T13:42:41.000Z</time>
      </trkpt>
      <trkpt lat="40.05185435526072978973388671875" lon="-0.729949772357940673828125">
        <ele>958</ele>
        <time>2022-05-06T13:42:43.000Z</time>
      </trkpt>
      <trkpt lat="40.0517977774143218994140625" lon="-0.72993745096027851104736328125">
        <ele>958</ele>
        <time>2022-05-06T13:42:44.000Z</time>
      </trkpt>
      <trkpt lat="40.0517426244914531707763671875" lon="-0.72992789559066295623779296875">
        <ele>958</ele>
        <time>2022-05-06T13:42:45.000Z</time>
      </trkpt>
      <trkpt lat="40.0516316480934619903564453125" lon="-0.7299097068607807159423828125">
        <ele>958</ele>
        <time>2022-05-06T13:42:47.000Z</time>
      </trkpt>
      <trkpt lat="40.0515193305909633636474609375" lon="-0.72988816536962985992431640625">
        <ele>958</ele>
        <time>2022-05-06T13:42:49.000Z</time>
      </trkpt>
      <trkpt lat="40.051407516002655029296875" lon="-0.729868300259113311767578125">
        <ele>958</ele>
        <time>2022-05-06T13:42:51.000Z</time>
      </trkpt>
      <trkpt lat="40.0513503514230251312255859375" lon="-0.729858577251434326171875">
        <ele>958</ele>
        <time>2022-05-06T13:42:52.000Z</time>
      </trkpt>
      <trkpt lat="40.05129377357661724090576171875" lon="-0.72984809987246990203857421875">
        <ele>958</ele>
        <time>2022-05-06T13:42:53.000Z</time>
      </trkpt>
      <trkpt lat="40.0511803664267063140869140625" lon="-0.72982563637197017669677734375">
        <ele>958.20001220703125</ele>
        <time>2022-05-06T13:42:55.000Z</time>
      </trkpt>
      <trkpt lat="40.05112362094223499298095703125" lon="-0.729815661907196044921875">
        <ele>958.4000244140625</ele>
        <time>2022-05-06T13:42:56.000Z</time>
      </trkpt>
      <trkpt lat="40.05106712691485881805419921875" lon="-0.7298057712614536285400390625">
        <ele>958.5999755859375</ele>
        <time>2022-05-06T13:42:57.000Z</time>
      </trkpt>
      <trkpt lat="40.050955899059772491455078125" lon="-0.72978691197931766510009765625">
        <ele>959</ele>
        <time>2022-05-06T13:42:59.000Z</time>
      </trkpt>
      <trkpt lat="40.05084467120468616485595703125" lon="-0.72976402938365936279296875">
        <ele>959.4000244140625</ele>
        <time>2022-05-06T13:43:01.000Z</time>
      </trkpt>
      <trkpt lat="40.05078918300569057464599609375" lon="-0.72975330054759979248046875">
        <ele>959.5999755859375</ele>
        <time>2022-05-06T13:43:02.000Z</time>
      </trkpt>
      <trkpt lat="40.05073369480669498443603515625" lon="-0.72974232025444507598876953125">
        <ele>959.79998779296875</ele>
        <time>2022-05-06T13:43:03.000Z</time>
      </trkpt>
      <trkpt lat="40.05062204785645008087158203125" lon="-0.7297216169536113739013671875">
        <ele>960.20001220703125</ele>
        <time>2022-05-06T13:43:05.000Z</time>
      </trkpt>
      <trkpt lat="40.05051107145845890045166015625" lon="-0.72969906963407993316650390625">
        <ele>960.5999755859375</ele>
        <time>2022-05-06T13:43:07.000Z</time>
      </trkpt>
      <trkpt lat="40.05039875395596027374267578125" lon="-0.7296746782958507537841796875">
        <ele>961</ele>
        <time>2022-05-06T13:43:09.000Z</time>
      </trkpt>
      <trkpt lat="40.05028626881539821624755859375" lon="-0.7296533882617950439453125">
        <ele>961.79998779296875</ele>
        <time>2022-05-06T13:43:11.000Z</time>
      </trkpt>
      <trkpt lat="40.05022935569286346435546875" lon="-0.72964274324476718902587890625">
        <ele>962</ele>
        <time>2022-05-06T13:43:12.000Z</time>
      </trkpt>
      <trkpt lat="40.05017193965613842010498046875" lon="-0.72963201440870761871337890625">
        <ele>962.4000244140625</ele>
        <time>2022-05-06T13:43:13.000Z</time>
      </trkpt>
      <trkpt lat="40.05005459301173686981201171875" lon="-0.72960787452757358551025390625">
        <ele>963</ele>
        <time>2022-05-06T13:43:15.000Z</time>
      </trkpt>
      <trkpt lat="40.04993691109120845794677734375" lon="-0.72958624921739101409912109375">
        <ele>963.5999755859375</ele>
        <time>2022-05-06T13:43:17.000Z</time>
      </trkpt>
      <trkpt lat="40.0498191453516483306884765625" lon="-0.72956378571689128875732421875">
        <ele>964.20001220703125</ele>
        <time>2022-05-06T13:43:19.000Z</time>
      </trkpt>
      <trkpt lat="40.04969903267920017242431640625" lon="-0.72953981347382068634033203125">
        <ele>965</ele>
        <time>2022-05-06T13:43:21.000Z</time>
      </trkpt>
      <trkpt lat="40.04964102990925312042236328125" lon="-0.72952455841004848480224609375">
        <ele>965.4000244140625</ele>
        <time>2022-05-06T13:43:22.000Z</time>
      </trkpt>
      <trkpt lat="40.0495849549770355224609375" lon="-0.7295117340981960296630859375">
        <ele>965.79998779296875</ele>
        <time>2022-05-06T13:43:23.000Z</time>
      </trkpt>
      <trkpt lat="40.049475990235805511474609375" lon="-0.729484744369983673095703125">
        <ele>966.20001220703125</ele>
        <time>2022-05-06T13:43:25.000Z</time>
      </trkpt>
      <trkpt lat="40.049361325800418853759765625" lon="-0.72945666499435901641845703125">
        <ele>966.79998779296875</ele>
        <time>2022-05-06T13:43:27.000Z</time>
      </trkpt>
      <trkpt lat="40.04924590699374675750732421875" lon="-0.7294334471225738525390625">
        <ele>967.4000244140625</ele>
        <time>2022-05-06T13:43:29.000Z</time>
      </trkpt>
      <trkpt lat="40.04913057200610637664794921875" lon="-0.729407966136932373046875">
        <ele>967.79998779296875</ele>
        <time>2022-05-06T13:43:31.000Z</time>
      </trkpt>
      <trkpt lat="40.04901892505586147308349609375" lon="-0.72938323952257633209228515625">
        <ele>968.20001220703125</ele>
        <time>2022-05-06T13:43:33.000Z</time>
      </trkpt>
      <trkpt lat="40.04890845157206058502197265625" lon="-0.729361362755298614501953125">
        <ele>968.20001220703125</ele>
        <time>2022-05-06T13:43:35.000Z</time>
      </trkpt>
      <trkpt lat="40.0488538853824138641357421875" lon="-0.7293528132140636444091796875">
        <ele>968.20001220703125</ele>
        <time>2022-05-06T13:43:36.000Z</time>
      </trkpt>
      <trkpt lat="40.048800073564052581787109375" lon="-0.729343928396701812744140625">
        <ele>968.20001220703125</ele>
        <time>2022-05-06T13:43:37.000Z</time>
      </trkpt>
      <trkpt lat="40.04868985153734683990478515625" lon="-0.72932305745780467987060546875">
        <ele>968.4000244140625</ele>
        <time>2022-05-06T13:43:39.000Z</time>
      </trkpt>
      <trkpt lat="40.04858055151998996734619140625" lon="-0.72930268943309783935546875">
        <ele>968.79998779296875</ele>
        <time>2022-05-06T13:43:41.000Z</time>
      </trkpt>
      <trkpt lat="40.0484770350158214569091796875" lon="-0.7292810641229152679443359375">
        <ele>969</ele>
        <time>2022-05-06T13:43:43.000Z</time>
      </trkpt>
      <trkpt lat="40.04843068309128284454345703125" lon="-0.72926924563944339752197265625">
        <ele>969</ele>
        <time>2022-05-06T13:43:44.000Z</time>
      </trkpt>
      <trkpt lat="40.0483908690512180328369140625" lon="-0.72926111519336700439453125">
        <ele>969.20001220703125</ele>
        <time>2022-05-06T13:43:45.000Z</time>
      </trkpt>
      <trkpt lat="40.048330686986446380615234375" lon="-0.7292508892714977264404296875">
        <ele>969.4000244140625</ele>
        <time>2022-05-06T13:43:47.000Z</time>
      </trkpt>
      <trkpt lat="40.04830981604754924774169921875" lon="-0.7292441837489604949951171875">
        <ele>969.4000244140625</ele>
        <time>2022-05-06T13:43:48.000Z</time>
      </trkpt>
      <trkpt lat="40.04829254932701587677001953125" lon="-0.729238986968994140625">
        <ele>969.4000244140625</ele>
        <time>2022-05-06T13:43:49.000Z</time>
      </trkpt>
      <trkpt lat="40.0482775457203388214111328125" lon="-0.72923605330288410186767578125">
        <ele>969.4000244140625</ele>
        <time>2022-05-06T13:43:51.000Z</time>
      </trkpt>
      <trkpt lat="40.04827729426324367523193359375" lon="-0.72923605330288410186767578125">
        <ele>969.4000244140625</ele>
        <time>2022-05-06T13:43:52.000Z</time>
      </trkpt>
      <trkpt lat="40.04817805252969264984130859375" lon="-0.72920638136565685272216796875">
        <ele>969.4000244140625</ele>
        <time>2022-05-06T13:47:11.000Z</time>
      </trkpt>
      <trkpt lat="40.04813664592802524566650390625" lon="-0.72919548489153385162353515625">
        <ele>969.4000244140625</ele>
        <time>2022-05-06T13:47:13.000Z</time>
      </trkpt>
      <trkpt lat="40.04808400757610797882080078125" lon="-0.72919070720672607421875">
        <ele>969.5999755859375</ele>
        <time>2022-05-06T13:47:15.000Z</time>
      </trkpt>
      <trkpt lat="40.0480542518198490142822265625" lon="-0.72918542660772800445556640625">
        <ele>969.5999755859375</ele>
        <time>2022-05-06T13:47:16.000Z</time>
      </trkpt>
      <trkpt lat="40.04802214913070201873779296875" lon="-0.72917662560939788818359375">
        <ele>969.5999755859375</ele>
        <time>2022-05-06T13:47:17.000Z</time>
      </trkpt>
      <trkpt lat="40.0479506514966487884521484375" lon="-0.7291643880307674407958984375">
        <ele>969.5999755859375</ele>
        <time>2022-05-06T13:47:19.000Z</time>
      </trkpt>
      <trkpt lat="40.047876723110675811767578125" lon="-0.7291509769856929779052734375">
        <ele>969.79998779296875</ele>
        <time>2022-05-06T13:47:21.000Z</time>
      </trkpt>
      <trkpt lat="40.04779851995408535003662109375" lon="-0.729138068854808807373046875">
        <ele>969.79998779296875</ele>
        <time>2022-05-06T13:47:23.000Z</time>
      </trkpt>
      <trkpt lat="40.04771587438881397247314453125" lon="-0.72912021540105342864990234375">
        <ele>969.79998779296875</ele>
        <time>2022-05-06T13:47:25.000Z</time>
      </trkpt>
      <trkpt lat="40.04763297736644744873046875" lon="-0.72910227812826633453369140625">
        <ele>969.79998779296875</ele>
        <time>2022-05-06T13:47:27.000Z</time>
      </trkpt>
      <trkpt lat="40.047553516924381256103515625" lon="-0.72908802889287471771240234375">
        <ele>969.79998779296875</ele>
        <time>2022-05-06T13:47:29.000Z</time>
      </trkpt>
      <trkpt lat="40.04746525548398494720458984375" lon="-0.729073695838451385498046875">
        <ele>969.79998779296875</ele>
        <time>2022-05-06T13:47:31.000Z</time>
      </trkpt>
      <trkpt lat="40.04737204872071743011474609375" lon="-0.72905860841274261474609375">
        <ele>969.79998779296875</ele>
        <time>2022-05-06T13:47:33.000Z</time>
      </trkpt>
      <trkpt lat="40.04727984778583049774169921875" lon="-0.72904159314930438995361328125">
        <ele>969.79998779296875</ele>
        <time>2022-05-06T13:47:35.000Z</time>
      </trkpt>
      <trkpt lat="40.0472314842045307159423828125" lon="-0.7290336303412914276123046875">
        <ele>969.79998779296875</ele>
        <time>2022-05-06T13:47:36.000Z</time>
      </trkpt>
      <trkpt lat="40.04718094132840633392333984375" lon="-0.72902566753327846527099609375">
        <ele>969.79998779296875</ele>
        <time>2022-05-06T13:47:37.000Z</time>
      </trkpt>
      <trkpt lat="40.04708119668066501617431640625" lon="-0.72900353930890560150146484375">
        <ele>969.79998779296875</ele>
        <time>2022-05-06T13:47:39.000Z</time>
      </trkpt>
      <trkpt lat="40.04698061384260654449462890625" lon="-0.72898258455097675323486328125">
        <ele>969.4000244140625</ele>
        <time>2022-05-06T13:47:41.000Z</time>
      </trkpt>
      <trkpt lat="40.04692881368100643157958984375" lon="-0.72897638194262981414794921875">
        <ele>969.4000244140625</ele>
        <time>2022-05-06T13:47:42.000Z</time>
      </trkpt>
      <trkpt lat="40.04687818698585033416748046875" lon="-0.728973448276519775390625">
        <ele>969.4000244140625</ele>
        <time>2022-05-06T13:47:43.000Z</time>
      </trkpt>
      <trkpt lat="40.04677743650972843170166015625" lon="-0.72896338999271392822265625">
        <ele>969.4000244140625</ele>
        <time>2022-05-06T13:47:45.000Z</time>
      </trkpt>
      <trkpt lat="40.0466774404048919677734375" lon="-0.72895936667919158935546875">
        <ele>969.4000244140625</ele>
        <time>2022-05-06T13:47:47.000Z</time>
      </trkpt>
      <trkpt lat="40.04657107405364513397216796875" lon="-0.728957355022430419921875">
        <ele>969.4000244140625</ele>
        <time>2022-05-06T13:47:49.000Z</time>
      </trkpt>
      <trkpt lat="40.0464643724262714385986328125" lon="-0.728965736925601959228515625">
        <ele>969.4000244140625</ele>
        <time>2022-05-06T13:47:51.000Z</time>
      </trkpt>
      <trkpt lat="40.046359933912754058837890625" lon="-0.72897923178970813751220703125">
        <ele>969.4000244140625</ele>
        <time>2022-05-06T13:47:53.000Z</time>
      </trkpt>
      <trkpt lat="40.0462558306753635406494140625" lon="-0.72899666614830493927001953125">
        <ele>969.4000244140625</ele>
        <time>2022-05-06T13:47:55.000Z</time>
      </trkpt>
      <trkpt lat="40.04615348763763904571533203125" lon="-0.72901837527751922607421875">
        <ele>969.4000244140625</ele>
        <time>2022-05-06T13:47:57.000Z</time>
      </trkpt>
      <trkpt lat="40.0460498034954071044921875" lon="-0.72903974913060665130615234375">
        <ele>969.4000244140625</ele>
        <time>2022-05-06T13:47:59.000Z</time>
      </trkpt>
      <trkpt lat="40.04595282487571239471435546875" lon="-0.729066990315914154052734375">
        <ele>969.4000244140625</ele>
        <time>2022-05-06T13:48:01.000Z</time>
      </trkpt>
      <trkpt lat="40.04586481489241123199462890625" lon="-0.72909657843410968780517578125">
        <ele>969.4000244140625</ele>
        <time>2022-05-06T13:48:03.000Z</time>
      </trkpt>
      <trkpt lat="40.04577093757688999176025390625" lon="-0.7291335426270961761474609375">
        <ele>969.4000244140625</ele>
        <time>2022-05-06T13:48:05.000Z</time>
      </trkpt>
      <trkpt lat="40.04566901363432407379150390625" lon="-0.72917687706649303436279296875">
        <ele>969.4000244140625</ele>
        <time>2022-05-06T13:48:07.000Z</time>
      </trkpt>
      <trkpt lat="40.04561704583466053009033203125" lon="-0.72920118458569049835205078125">
        <ele>969.4000244140625</ele>
        <time>2022-05-06T13:48:08.000Z</time>
      </trkpt>
      <trkpt lat="40.04556524567306041717529296875" lon="-0.7292264141142368316650390625">
        <ele>969.4000244140625</ele>
        <time>2022-05-06T13:48:09.000Z</time>
      </trkpt>
      <trkpt lat="40.04546365700662136077880859375" lon="-0.72927745990455150604248046875">
        <ele>969.5999755859375</ele>
        <time>2022-05-06T13:48:11.000Z</time>
      </trkpt>
      <trkpt lat="40.04536022432148456573486328125" lon="-0.7293383963406085968017578125">
        <ele>969.5999755859375</ele>
        <time>2022-05-06T13:48:13.000Z</time>
      </trkpt>
      <trkpt lat="40.04526064731180667877197265625" lon="-0.7294057868421077728271484375">
        <ele>969.5999755859375</ele>
        <time>2022-05-06T13:48:15.000Z</time>
      </trkpt>
      <trkpt lat="40.04516006447374820709228515625" lon="-0.729473344981670379638671875">
        <ele>969.5999755859375</ele>
        <time>2022-05-06T13:48:17.000Z</time>
      </trkpt>
      <trkpt lat="40.045058391988277435302734375" lon="-0.72954216040670871734619140625">
        <ele>969.5999755859375</ele>
        <time>2022-05-06T13:48:19.000Z</time>
      </trkpt>
      <trkpt lat="40.04495873115956783294677734375" lon="-0.72961223311722278594970703125">
        <ele>969.5999755859375</ele>
        <time>2022-05-06T13:48:21.000Z</time>
      </trkpt>
      <trkpt lat="40.04485689103603363037109375" lon="-0.72968280874192714691162109375">
        <ele>969.5999755859375</ele>
        <time>2022-05-06T13:48:23.000Z</time>
      </trkpt>
      <trkpt lat="40.04475639201700687408447265625" lon="-0.729754976928234100341796875">
        <ele>969.79998779296875</ele>
        <time>2022-05-06T13:48:25.000Z</time>
      </trkpt>
      <trkpt lat="40.044657401740550994873046875" lon="-0.72982278652489185333251953125">
        <ele>969.79998779296875</ele>
        <time>2022-05-06T13:48:27.000Z</time>
      </trkpt>
      <trkpt lat="40.04456126131117343902587890625" lon="-0.72988917119801044464111328125">
        <ele>970</ele>
        <time>2022-05-06T13:48:29.000Z</time>
      </trkpt>
      <trkpt lat="40.044462271034717559814453125" lon="-0.72995622642338275909423828125">
        <ele>969.79998779296875</ele>
        <time>2022-05-06T13:48:31.000Z</time>
      </trkpt>
      <trkpt lat="40.044413320720195770263671875" lon="-0.72999075986444950103759765625">
        <ele>969.79998779296875</ele>
        <time>2022-05-06T13:48:32.000Z</time>
      </trkpt>
      <trkpt lat="40.04436663351953029632568359375" lon="-0.73002646677196025848388671875">
        <ele>969.79998779296875</ele>
        <time>2022-05-06T13:48:33.000Z</time>
      </trkpt>
      <trkpt lat="40.04432103596627712249755859375" lon="-0.7300599105656147003173828125">
        <ele>969.79998779296875</ele>
        <time>2022-05-06T13:48:34.000Z</time>
      </trkpt>
      <trkpt lat="40.0442726723849773406982421875" lon="-0.73009134270250797271728515625">
        <ele>969.79998779296875</ele>
        <time>2022-05-06T13:48:35.000Z</time>
      </trkpt>
      <trkpt lat="40.04417636431753635406494140625" lon="-0.73015504516661167144775390625">
        <ele>969.79998779296875</ele>
        <time>2022-05-06T13:48:37.000Z</time>
      </trkpt>
      <trkpt lat="40.0440808944404125213623046875" lon="-0.73021740652620792388916015625">
        <ele>969.5999755859375</ele>
        <time>2022-05-06T13:48:39.000Z</time>
      </trkpt>
      <trkpt lat="40.0439843349158763885498046875" lon="-0.73027993552386760711669921875">
        <ele>969.5999755859375</ele>
        <time>2022-05-06T13:48:41.000Z</time>
      </trkpt>
      <trkpt lat="40.04393756389617919921875" lon="-0.7303103618323802947998046875">
        <ele>969.5999755859375</ele>
        <time>2022-05-06T13:48:42.000Z</time>
      </trkpt>
      <trkpt lat="40.0438924692571163177490234375" lon="-0.73034095577895641326904296875">
        <ele>969.5999755859375</ele>
        <time>2022-05-06T13:48:43.000Z</time>
      </trkpt>
      <trkpt lat="40.0437999330461025238037109375" lon="-0.73040348477661609649658203125">
        <ele>969.79998779296875</ele>
        <time>2022-05-06T13:48:45.000Z</time>
      </trkpt>
      <trkpt lat="40.04370798356831073760986328125" lon="-0.73046349920332431793212890625">
        <ele>969.5999755859375</ele>
        <time>2022-05-06T13:48:47.000Z</time>
      </trkpt>
      <trkpt lat="40.0436138547956943511962890625" lon="-0.7305266149342060089111328125">
        <ele>969.20001220703125</ele>
        <time>2022-05-06T13:48:49.000Z</time>
      </trkpt>
      <trkpt lat="40.04351846873760223388671875" lon="-0.73059040121734142303466796875">
        <ele>968.79998779296875</ele>
        <time>2022-05-06T13:48:51.000Z</time>
      </trkpt>
      <trkpt lat="40.04342433996498584747314453125" lon="-0.73064806871116161346435546875">
        <ele>968.4000244140625</ele>
        <time>2022-05-06T13:48:53.000Z</time>
      </trkpt>
      <trkpt lat="40.043336413800716400146484375" lon="-0.7307006232440471649169921875">
        <ele>968</ele>
        <time>2022-05-06T13:48:55.000Z</time>
      </trkpt>
      <trkpt lat="40.04329626448452472686767578125" lon="-0.7307261042296886444091796875">
        <ele>967.79998779296875</ele>
        <time>2022-05-06T13:48:56.000Z</time>
      </trkpt>
      <trkpt lat="40.043261311948299407958984375" lon="-0.73075368069112300872802734375">
        <ele>967.5999755859375</ele>
        <time>2022-05-06T13:48:57.000Z</time>
      </trkpt>
      <trkpt lat="40.04322770051658153533935546875" lon="-0.73077681474387645721435546875">
        <ele>967.4000244140625</ele>
        <time>2022-05-06T13:48:58.000Z</time>
      </trkpt>
      <trkpt lat="40.0431957654654979705810546875" lon="-0.730795674026012420654296875">
        <ele>967.4000244140625</ele>
        <time>2022-05-06T13:48:59.000Z</time>
      </trkpt>
      <trkpt lat="40.0431280396878719329833984375" lon="-0.73083347640931606292724609375">
        <ele>967</ele>
        <time>2022-05-06T13:49:01.000Z</time>
      </trkpt>
      <trkpt lat="40.04306978546082973480224609375" lon="-0.7308789901435375213623046875">
        <ele>966.5999755859375</ele>
        <time>2022-05-06T13:49:03.000Z</time>
      </trkpt>
      <trkpt lat="40.04300474189221858978271484375" lon="-0.73092618025839328765869140625">
        <ele>966.4000244140625</ele>
        <time>2022-05-06T13:49:05.000Z</time>
      </trkpt>
      <trkpt lat="40.04293416626751422882080078125" lon="-0.730971358716487884521484375">
        <ele>966</ele>
        <time>2022-05-06T13:49:07.000Z</time>
      </trkpt>
      <trkpt lat="40.04286107607185840606689453125" lon="-0.731010250747203826904296875">
        <ele>966</ele>
        <time>2022-05-06T13:49:09.000Z</time>
      </trkpt>
      <trkpt lat="40.0427827052772045135498046875" lon="-0.7310486398637294769287109375">
        <ele>966.20001220703125</ele>
        <time>2022-05-06T13:49:11.000Z</time>
      </trkpt>
      <trkpt lat="40.04274171777069568634033203125" lon="-0.7310694269835948944091796875">
        <ele>966.20001220703125</ele>
        <time>2022-05-06T13:49:12.000Z</time>
      </trkpt>
      <trkpt lat="40.042701400816440582275390625" lon="-0.73108711279928684234619140625">
        <ele>966.20001220703125</ele>
        <time>2022-05-06T13:49:13.000Z</time>
      </trkpt>
      <trkpt lat="40.04261950962245464324951171875" lon="-0.73112256824970245361328125">
        <ele>966.4000244140625</ele>
        <time>2022-05-06T13:49:15.000Z</time>
      </trkpt>
      <trkpt lat="40.0425361096858978271484375" lon="-0.73115400038659572601318359375">
        <ele>966.4000244140625</ele>
        <time>2022-05-06T13:49:17.000Z</time>
      </trkpt>
      <trkpt lat="40.04245170392096042633056640625" lon="-0.7311780564486980438232421875">
        <ele>966.5999755859375</ele>
        <time>2022-05-06T13:49:19.000Z</time>
      </trkpt>
      <trkpt lat="40.04240811802446842193603515625" lon="-0.73119021020829677581787109375">
        <ele>966.5999755859375</ele>
        <time>2022-05-06T13:49:20.000Z</time>
      </trkpt>
      <trkpt lat="40.042366795241832733154296875" lon="-0.73120228014886379241943359375">
        <ele>966.5999755859375</ele>
        <time>2022-05-06T13:49:21.000Z</time>
      </trkpt>
      <trkpt lat="40.0422814674675464630126953125" lon="-0.73122315108776092529296875">
        <ele>966.79998779296875</ele>
        <time>2022-05-06T13:49:23.000Z</time>
      </trkpt>
      <trkpt lat="40.0421979837119579315185546875" lon="-0.73124016635119915008544921875">
        <ele>966.79998779296875</ele>
        <time>2022-05-06T13:49:25.000Z</time>
      </trkpt>
      <trkpt lat="40.042116008698940277099609375" lon="-0.73125290684401988983154296875">
        <ele>966.79998779296875</ele>
        <time>2022-05-06T13:49:27.000Z</time>
      </trkpt>
      <trkpt lat="40.042079798877239227294921875" lon="-0.731259025633335113525390625">
        <ele>966.79998779296875</ele>
        <time>2022-05-06T13:49:28.000Z</time>
      </trkpt>
      <trkpt lat="40.04204484634101390838623046875" lon="-0.7312648929655551910400390625">
        <ele>967</ele>
        <time>2022-05-06T13:49:29.000Z</time>
      </trkpt>
      <trkpt lat="40.0419726781547069549560546875" lon="-0.7312734425067901611328125">
        <ele>967.20001220703125</ele>
        <time>2022-05-06T13:49:31.000Z</time>
      </trkpt>
      <trkpt lat="40.04189908504486083984375" lon="-0.73128274641931056976318359375">
        <ele>967.4000244140625</ele>
        <time>2022-05-06T13:49:33.000Z</time>
      </trkpt>
      <trkpt lat="40.04182197153568267822265625" lon="-0.73128660209476947784423828125">
        <ele>967.5999755859375</ele>
        <time>2022-05-06T13:49:35.000Z</time>
      </trkpt>
      <trkpt lat="40.0417795591056346893310546875" lon="-0.73128811083734035491943359375">
        <ele>967.5999755859375</ele>
        <time>2022-05-06T13:49:36.000Z</time>
      </trkpt>
      <trkpt lat="40.0417383201420307159423828125" lon="-0.73128777556121349334716796875">
        <ele>967.79998779296875</ele>
        <time>2022-05-06T13:49:37.000Z</time>
      </trkpt>
      <trkpt lat="40.0416536629199981689453125" lon="-0.73128107003867626190185546875">
        <ele>968</ele>
        <time>2022-05-06T13:49:39.000Z</time>
      </trkpt>
      <trkpt lat="40.04156942479312419891357421875" lon="-0.73127201758325099945068359375">
        <ele>968.20001220703125</ele>
        <time>2022-05-06T13:49:41.000Z</time>
      </trkpt>
      <trkpt lat="40.04148066043853759765625" lon="-0.7312568463385105133056640625">
        <ele>968.4000244140625</ele>
        <time>2022-05-06T13:49:43.000Z</time>
      </trkpt>
      <trkpt lat="40.04139281809329986572265625" lon="-0.73123882524669170379638671875">
        <ele>968.5999755859375</ele>
        <time>2022-05-06T13:49:45.000Z</time>
      </trkpt>
      <trkpt lat="40.041295588016510009765625" lon="-0.73121669702231884002685546875">
        <ele>968.4000244140625</ele>
        <time>2022-05-06T13:49:47.000Z</time>
      </trkpt>
      <trkpt lat="40.0411961786448955535888671875" lon="-0.73118668980896472930908203125">
        <ele>968.20001220703125</ele>
        <time>2022-05-06T13:49:49.000Z</time>
      </trkpt>
      <trkpt lat="40.0411006249487400054931640625" lon="-0.73114871978759765625">
        <ele>968.20001220703125</ele>
        <time>2022-05-06T13:49:51.000Z</time>
      </trkpt>
      <trkpt lat="40.041005909442901611328125" lon="-0.73110421188175678253173828125">
        <ele>968</ele>
        <time>2022-05-06T13:49:53.000Z</time>
      </trkpt>
      <trkpt lat="40.040911026298999786376953125" lon="-0.731057859957218170166015625">
        <ele>968</ele>
        <time>2022-05-06T13:49:55.000Z</time>
      </trkpt>
      <trkpt lat="40.04081723280251026153564453125" lon="-0.73100245557725429534912109375">
        <ele>967.79998779296875</ele>
        <time>2022-05-06T13:49:57.000Z</time>
      </trkpt>
      <trkpt lat="40.0407264567911624908447265625" lon="-0.7309467159211635589599609375">
        <ele>968</ele>
        <time>2022-05-06T13:49:59.000Z</time>
      </trkpt>
      <trkpt lat="40.040634088218212127685546875" lon="-0.7308843545615673065185546875">
        <ele>968.4000244140625</ele>
        <time>2022-05-06T13:50:01.000Z</time>
      </trkpt>
      <trkpt lat="40.0405430607497692108154296875" lon="-0.730815790593624114990234375">
        <ele>968.79998779296875</ele>
        <time>2022-05-06T13:50:03.000Z</time>
      </trkpt>
      <trkpt lat="40.04045329056680202484130859375" lon="-0.73074714280664920806884765625">
        <ele>969.20001220703125</ele>
        <time>2022-05-06T13:50:05.000Z</time>
      </trkpt>
      <trkpt lat="40.0403630174696445465087890625" lon="-0.7306754775345325469970703125">
        <ele>969.4000244140625</ele>
        <time>2022-05-06T13:50:07.000Z</time>
      </trkpt>
      <trkpt lat="40.04027307964861392974853515625" lon="-0.73060163296759128570556640625">
        <ele>969.4000244140625</ele>
        <time>2022-05-06T13:50:09.000Z</time>
      </trkpt>
      <trkpt lat="40.04019127227365970611572265625" lon="-0.73051773011684417724609375">
        <ele>969.20001220703125</ele>
        <time>2022-05-06T13:50:11.000Z</time>
      </trkpt>
      <trkpt lat="40.04010912962257862091064453125" lon="-0.7304317317903041839599609375">
        <ele>969</ele>
        <time>2022-05-06T13:50:13.000Z</time>
      </trkpt>
      <trkpt lat="40.04002883099019527435302734375" lon="-0.73034363798797130584716796875">
        <ele>968.79998779296875</ele>
        <time>2022-05-06T13:50:15.000Z</time>
      </trkpt>
      <trkpt lat="40.039954148232936859130859375" lon="-0.73025009594857692718505859375">
        <ele>968.5999755859375</ele>
        <time>2022-05-06T13:50:17.000Z</time>
      </trkpt>
      <trkpt lat="40.03988147713243961334228515625" lon="-0.7301531173288822174072265625">
        <ele>968.4000244140625</ele>
        <time>2022-05-06T13:50:19.000Z</time>
      </trkpt>
      <trkpt lat="40.0398443453013896942138671875" lon="-0.73010408319532871246337890625">
        <ele>968.5999755859375</ele>
        <time>2022-05-06T13:50:20.000Z</time>
      </trkpt>
      <trkpt lat="40.0398078002035617828369140625" lon="-0.73005563579499721527099609375">
        <ele>968.5999755859375</ele>
        <time>2022-05-06T13:50:21.000Z</time>
      </trkpt>
      <trkpt lat="40.03974149934947490692138671875" lon="-0.72995186783373355865478515625">
        <ele>968.79998779296875</ele>
        <time>2022-05-06T13:50:23.000Z</time>
      </trkpt>
      <trkpt lat="40.03967377357184886932373046875" lon="-0.72984474711120128631591796875">
        <ele>968.79998779296875</ele>
        <time>2022-05-06T13:50:25.000Z</time>
      </trkpt>
      <trkpt lat="40.0396406650543212890625" lon="-0.72978942655026912689208984375">
        <ele>969</ele>
        <time>2022-05-06T13:50:26.000Z</time>
      </trkpt>
      <trkpt lat="40.03960772417485713958740234375" lon="-0.7297323457896709442138671875">
        <ele>969</ele>
        <time>2022-05-06T13:50:27.000Z</time>
      </trkpt>
      <trkpt lat="40.03953681327402591705322265625" lon="-0.7296220399439334869384765625">
        <ele>969.4000244140625</ele>
        <time>2022-05-06T13:50:29.000Z</time>
      </trkpt>
      <trkpt lat="40.0394678302109241485595703125" lon="-0.72951064445078372955322265625">
        <ele>969.79998779296875</ele>
        <time>2022-05-06T13:50:31.000Z</time>
      </trkpt>
      <trkpt lat="40.03939968533813953399658203125" lon="-0.7293977402150630950927734375">
        <ele>970.20001220703125</ele>
        <time>2022-05-06T13:50:33.000Z</time>
      </trkpt>
      <trkpt lat="40.03936548717319965362548828125" lon="-0.72934065945446491241455078125">
        <ele>970.4000244140625</ele>
        <time>2022-05-06T13:50:34.000Z</time>
      </trkpt>
      <trkpt lat="40.03933279775083065032958984375" lon="-0.72928047738969326019287109375">
        <ele>970.5999755859375</ele>
        <time>2022-05-06T13:50:35.000Z</time>
      </trkpt>
      <trkpt lat="40.03926792182028293609619140625" lon="-0.72916011326014995574951171875">
        <ele>971</ele>
        <time>2022-05-06T13:50:37.000Z</time>
      </trkpt>
      <trkpt lat="40.0392019562423229217529296875" lon="-0.729044862091541290283203125">
        <ele>970.5999755859375</ele>
        <time>2022-05-06T13:50:39.000Z</time>
      </trkpt>
      <trkpt lat="40.03913565538823604583740234375" lon="-0.7289318740367889404296875">
        <ele>970.4000244140625</ele>
        <time>2022-05-06T13:50:41.000Z</time>
      </trkpt>
      <trkpt lat="40.03907145000994205474853515625" lon="-0.72881494648754596710205078125">
        <ele>970.20001220703125</ele>
        <time>2022-05-06T13:50:43.000Z</time>
      </trkpt>
      <trkpt lat="40.03901093266904354095458984375" lon="-0.72869718074798583984375">
        <ele>969.79998779296875</ele>
        <time>2022-05-06T13:50:45.000Z</time>
      </trkpt>
      <trkpt lat="40.03894907422363758087158203125" lon="-0.72858075611293315887451171875">
        <ele>969.4000244140625</ele>
        <time>2022-05-06T13:50:47.000Z</time>
      </trkpt>
      <trkpt lat="40.0388898141682147979736328125" lon="-0.728467516601085662841796875">
        <ele>969.20001220703125</ele>
        <time>2022-05-06T13:50:49.000Z</time>
      </trkpt>
      <trkpt lat="40.0388348288834095001220703125" lon="-0.7283496670424938201904296875">
        <ele>969</ele>
        <time>2022-05-06T13:50:51.000Z</time>
      </trkpt>
      <trkpt lat="40.0387795083224773406982421875" lon="-0.72823223657906055450439453125">
        <ele>968.79998779296875</ele>
        <time>2022-05-06T13:50:53.000Z</time>
      </trkpt>
      <trkpt lat="40.0387520156800746917724609375" lon="-0.7281736470758914947509765625">
        <ele>968.79998779296875</ele>
        <time>2022-05-06T13:50:54.000Z</time>
      </trkpt>
      <trkpt lat="40.0387235172092914581298828125" lon="-0.7281156443059444427490234375">
        <ele>969</ele>
        <time>2022-05-06T13:50:55.000Z</time>
      </trkpt>
      <trkpt lat="40.03866844810545444488525390625" lon="-0.72799687273800373077392578125">
        <ele>969</ele>
        <time>2022-05-06T13:50:57.000Z</time>
      </trkpt>
      <trkpt lat="40.0386168994009494781494140625" lon="-0.7278739102184772491455078125">
        <ele>969</ele>
        <time>2022-05-06T13:50:59.000Z</time>
      </trkpt>
      <trkpt lat="40.0385689549148082733154296875" lon="-0.72774793021380901336669921875">
        <ele>969</ele>
        <time>2022-05-06T13:51:01.000Z</time>
      </trkpt>
      <trkpt lat="40.03852151334285736083984375" lon="-0.7276211120188236236572265625">
        <ele>969.20001220703125</ele>
        <time>2022-05-06T13:51:03.000Z</time>
      </trkpt>
      <trkpt lat="40.03849796019494533538818359375" lon="-0.727558247745037078857421875">
        <ele>969.20001220703125</ele>
        <time>2022-05-06T13:51:04.000Z</time>
      </trkpt>
      <trkpt lat="40.03847591578960418701171875" lon="-0.72749345563352108001708984375">
        <ele>969</ele>
        <time>2022-05-06T13:51:05.000Z</time>
      </trkpt>
      <trkpt lat="40.03843191079795360565185546875" lon="-0.7273639552295207977294921875">
        <ele>968.20001220703125</ele>
        <time>2022-05-06T13:51:07.000Z</time>
      </trkpt>
      <trkpt lat="40.0383855588734149932861328125" lon="-0.72723713703453540802001953125">
        <ele>967.4000244140625</ele>
        <time>2022-05-06T13:51:09.000Z</time>
      </trkpt>
      <trkpt lat="40.0383409671485424041748046875" lon="-0.7271079719066619873046875">
        <ele>967</ele>
        <time>2022-05-06T13:51:11.000Z</time>
      </trkpt>
      <trkpt lat="40.0382982194423675537109375" lon="-0.72697587311267852783203125">
        <ele>966.4000244140625</ele>
        <time>2022-05-06T13:51:13.000Z</time>
      </trkpt>
      <trkpt lat="40.0382772646844387054443359375" lon="-0.72691015899181365966796875">
        <ele>966.20001220703125</ele>
        <time>2022-05-06T13:51:14.000Z</time>
      </trkpt>
      <trkpt lat="40.038256980478763580322265625" lon="-0.72684310376644134521484375">
        <ele>966.20001220703125</ele>
        <time>2022-05-06T13:51:15.000Z</time>
      </trkpt>
      <trkpt lat="40.0382149033248424530029296875" lon="-0.7267048023641109466552734375">
        <ele>966.4000244140625</ele>
        <time>2022-05-06T13:51:17.000Z</time>
      </trkpt>
      <trkpt lat="40.0381729938089847564697265625" lon="-0.72656549513339996337890625">
        <ele>966.4000244140625</ele>
        <time>2022-05-06T13:51:19.000Z</time>
      </trkpt>
      <trkpt lat="40.0381310842931270599365234375" lon="-0.7264266908168792724609375">
        <ele>966.5999755859375</ele>
        <time>2022-05-06T13:51:21.000Z</time>
      </trkpt>
      <trkpt lat="40.03808925859630107879638671875" lon="-0.72628864087164402008056640625">
        <ele>966.79998779296875</ele>
        <time>2022-05-06T13:51:23.000Z</time>
      </trkpt>
      <trkpt lat="40.03804416395723819732666015625" lon="-0.726148746907711029052734375">
        <ele>966.79998779296875</ele>
        <time>2022-05-06T13:51:25.000Z</time>
      </trkpt>
      <trkpt lat="40.03800175152719020843505859375" lon="-0.726006925106048583984375">
        <ele>967</ele>
        <time>2022-05-06T13:51:27.000Z</time>
      </trkpt>
      <trkpt lat="40.03795665688812732696533203125" lon="-0.725867450237274169921875">
        <ele>967.4000244140625</ele>
        <time>2022-05-06T13:51:29.000Z</time>
      </trkpt>
      <trkpt lat="40.03791156224906444549560546875" lon="-0.72573225013911724090576171875">
        <ele>967.5999755859375</ele>
        <time>2022-05-06T13:51:31.000Z</time>
      </trkpt>
      <trkpt lat="40.03789060749113559722900390625" lon="-0.72566737420856952667236328125">
        <ele>968</ele>
        <time>2022-05-06T13:51:32.000Z</time>
      </trkpt>
      <trkpt lat="40.0378699041903018951416015625" lon="-0.7256030850112438201904296875">
        <ele>968.20001220703125</ele>
        <time>2022-05-06T13:51:33.000Z</time>
      </trkpt>
      <trkpt lat="40.037828497588634490966796875" lon="-0.72547475807368755340576171875">
        <ele>967.79998779296875</ele>
        <time>2022-05-06T13:51:35.000Z</time>
      </trkpt>
      <trkpt lat="40.03779069520533084869384765625" lon="-0.72534349747002124786376953125">
        <ele>967.79998779296875</ele>
        <time>2022-05-06T13:51:37.000Z</time>
      </trkpt>
      <trkpt lat="40.03775113262236118316650390625" lon="-0.7252151705324649810791015625">
        <ele>967.79998779296875</ele>
        <time>2022-05-06T13:51:39.000Z</time>
      </trkpt>
      <trkpt lat="40.03771014511585235595703125" lon="-0.7250884361565113067626953125">
        <ele>968</ele>
        <time>2022-05-06T13:51:41.000Z</time>
      </trkpt>
      <trkpt lat="40.037689693272113800048828125" lon="-0.72502498514950275421142578125">
        <ele>968</ele>
        <time>2022-05-06T13:51:42.000Z</time>
      </trkpt>
      <trkpt lat="40.037670247256755828857421875" lon="-0.7249623723328113555908203125">
        <ele>968</ele>
        <time>2022-05-06T13:51:43.000Z</time>
      </trkpt>
      <trkpt lat="40.037629343569278717041015625" lon="-0.7248366437852382659912109375">
        <ele>967.79998779296875</ele>
        <time>2022-05-06T13:51:45.000Z</time>
      </trkpt>
      <trkpt lat="40.0375882722437381744384765625" lon="-0.72470831684768199920654296875">
        <ele>967.4000244140625</ele>
        <time>2022-05-06T13:51:47.000Z</time>
      </trkpt>
      <trkpt lat="40.0375480391085147857666015625" lon="-0.72458468377590179443359375">
        <ele>966.79998779296875</ele>
        <time>2022-05-06T13:51:49.000Z</time>
      </trkpt>
      <trkpt lat="40.03750822506844997406005859375" lon="-0.72445803321897983551025390625">
        <ele>966.20001220703125</ele>
        <time>2022-05-06T13:51:51.000Z</time>
      </trkpt>
      <trkpt lat="40.0374679081141948699951171875" lon="-0.72432811371982097625732421875">
        <ele>965.5999755859375</ele>
        <time>2022-05-06T13:51:53.000Z</time>
      </trkpt>
      <trkpt lat="40.03742692060768604278564453125" lon="-0.72419785894453525543212890625">
        <ele>965.5999755859375</ele>
        <time>2022-05-06T13:51:55.000Z</time>
      </trkpt>
      <trkpt lat="40.0373824127018451690673828125" lon="-0.7240658439695835113525390625">
        <ele>965.5999755859375</ele>
        <time>2022-05-06T13:51:57.000Z</time>
      </trkpt>
      <trkpt lat="40.03733689896762371063232421875" lon="-0.7239317335188388824462890625">
        <ele>965.5999755859375</ele>
        <time>2022-05-06T13:51:59.000Z</time>
      </trkpt>
      <trkpt lat="40.0372918881475925445556640625" lon="-0.72379418648779392242431640625">
        <ele>965.20001220703125</ele>
        <time>2022-05-06T13:52:01.000Z</time>
      </trkpt>
      <trkpt lat="40.0372704304754734039306640625" lon="-0.7237238623201847076416015625">
        <ele>965</ele>
        <time>2022-05-06T13:52:02.000Z</time>
      </trkpt>
      <trkpt lat="40.03724788315594196319580078125" lon="-0.723654292523860931396484375">
        <ele>965</ele>
        <time>2022-05-06T13:52:03.000Z</time>
      </trkpt>
      <trkpt lat="40.03720178268849849700927734375" lon="-0.7235153205692768096923828125">
        <ele>965.20001220703125</ele>
        <time>2022-05-06T13:52:05.000Z</time>
      </trkpt>
      <trkpt lat="40.03715635277330875396728515625" lon="-0.723375342786312103271484375">
        <ele>965.20001220703125</ele>
        <time>2022-05-06T13:52:07.000Z</time>
      </trkpt>
      <trkpt lat="40.037113688886165618896484375" lon="-0.72323444299399852752685546875">
        <ele>965.4000244140625</ele>
        <time>2022-05-06T13:52:09.000Z</time>
      </trkpt>
      <trkpt lat="40.03706884570419788360595703125" lon="-0.7230948843061923980712890625">
        <ele>965.79998779296875</ele>
        <time>2022-05-06T13:52:11.000Z</time>
      </trkpt>
      <trkpt lat="40.03702458925545215606689453125" lon="-0.72295448742806911468505859375">
        <ele>965.79998779296875</ele>
        <time>2022-05-06T13:52:13.000Z</time>
      </trkpt>
      <trkpt lat="40.0370022095739841461181640625" lon="-0.7228843308985233306884765625">
        <ele>966</ele>
        <time>2022-05-06T13:52:14.000Z</time>
      </trkpt>
      <trkpt lat="40.03698050044476985931396484375" lon="-0.72281308472156524658203125">
        <ele>966</ele>
        <time>2022-05-06T13:52:15.000Z</time>
      </trkpt>
      <trkpt lat="40.03693590871989727020263671875" lon="-0.72266824543476104736328125">
        <ele>966.20001220703125</ele>
        <time>2022-05-06T13:52:17.000Z</time>
      </trkpt>
      <trkpt lat="40.0368929095566272735595703125" lon="-0.7225267589092254638671875">
        <ele>966.4000244140625</ele>
        <time>2022-05-06T13:52:19.000Z</time>
      </trkpt>
      <trkpt lat="40.036848485469818115234375" lon="-0.7223884575068950653076171875">
        <ele>966.5999755859375</ele>
        <time>2022-05-06T13:52:21.000Z</time>
      </trkpt>
      <trkpt lat="40.0368042290210723876953125" lon="-0.7222526706755161285400390625">
        <ele>966.4000244140625</ele>
        <time>2022-05-06T13:52:23.000Z</time>
      </trkpt>
      <trkpt lat="40.0367815978825092315673828125" lon="-0.72218653745949268341064453125">
        <ele>966.4000244140625</ele>
        <time>2022-05-06T13:52:24.000Z</time>
      </trkpt>
      <trkpt lat="40.03676005639135837554931640625" lon="-0.722120739519596099853515625">
        <ele>966.5999755859375</ele>
        <time>2022-05-06T13:52:25.000Z</time>
      </trkpt>
      <trkpt lat="40.03671915270388126373291015625" lon="-0.72199107147753238677978515625">
        <ele>966.79998779296875</ele>
        <time>2022-05-06T13:52:27.000Z</time>
      </trkpt>
      <trkpt lat="40.03667523153126239776611328125" lon="-0.72186182253062725067138671875">
        <ele>967.20001220703125</ele>
        <time>2022-05-06T13:52:29.000Z</time>
      </trkpt>
      <trkpt lat="40.0366310589015483856201171875" lon="-0.7217328250408172607421875">
        <ele>967.20001220703125</ele>
        <time>2022-05-06T13:52:31.000Z</time>
      </trkpt>
      <trkpt lat="40.03658873029053211212158203125" lon="-0.7216012291610240936279296875">
        <ele>967.20001220703125</ele>
        <time>2022-05-06T13:52:33.000Z</time>
      </trkpt>
      <trkpt lat="40.036544390022754669189453125" lon="-0.7214691303670406341552734375">
        <ele>967</ele>
        <time>2022-05-06T13:52:35.000Z</time>
      </trkpt>
      <trkpt lat="40.0365011394023895263671875" lon="-0.7213353551924228668212890625">
        <ele>967</ele>
        <time>2022-05-06T13:52:37.000Z</time>
      </trkpt>
      <trkpt lat="40.03645746968686580657958984375" lon="-0.72119965218007564544677734375">
        <ele>967.20001220703125</ele>
        <time>2022-05-06T13:52:39.000Z</time>
      </trkpt>
      <trkpt lat="40.03641606308519840240478515625" lon="-0.7210627757012844085693359375">
        <ele>967.5999755859375</ele>
        <time>2022-05-06T13:52:41.000Z</time>
      </trkpt>
      <trkpt lat="40.03637566231191158294677734375" lon="-0.7209249772131443023681640625">
        <ele>967.79998779296875</ele>
        <time>2022-05-06T13:52:43.000Z</time>
      </trkpt>
      <trkpt lat="40.03633324988186359405517578125" lon="-0.72078927420079708099365234375">
        <ele>968.20001220703125</ele>
        <time>2022-05-06T13:52:45.000Z</time>
      </trkpt>
      <trkpt lat="40.036290585994720458984375" lon="-0.72065633721649646759033203125">
        <ele>968.5999755859375</ele>
        <time>2022-05-06T13:52:47.000Z</time>
      </trkpt>
      <trkpt lat="40.03624834120273590087890625" lon="-0.7205209694802761077880859375">
        <ele>969</ele>
        <time>2022-05-06T13:52:49.000Z</time>
      </trkpt>
      <trkpt lat="40.0362059287726879119873046875" lon="-0.7203831709921360015869140625">
        <ele>969.4000244140625</ele>
        <time>2022-05-06T13:52:51.000Z</time>
      </trkpt>
      <trkpt lat="40.0361620076000690460205078125" lon="-0.7202420197427272796630859375">
        <ele>969.79998779296875</ele>
        <time>2022-05-06T13:52:53.000Z</time>
      </trkpt>
      <trkpt lat="40.03611817024648189544677734375" lon="-0.7201015390455722808837890625">
        <ele>970.20001220703125</ele>
        <time>2022-05-06T13:52:55.000Z</time>
      </trkpt>
      <trkpt lat="40.0360691361129283905029296875" lon="-0.7199617289006710052490234375">
        <ele>970.5999755859375</ele>
        <time>2022-05-06T13:52:57.000Z</time>
      </trkpt>
      <trkpt lat="40.036017335951328277587890625" lon="-0.71982032619416713714599609375">
        <ele>970.20001220703125</ele>
        <time>2022-05-06T13:52:59.000Z</time>
      </trkpt>
      <trkpt lat="40.03595991991460323333740234375" lon="-0.71968026459217071533203125">
        <ele>969.4000244140625</ele>
        <time>2022-05-06T13:53:01.000Z</time>
      </trkpt>
      <trkpt lat="40.0359276495873928070068359375" lon="-0.71961211971938610076904296875">
        <ele>969</ele>
        <time>2022-05-06T13:53:02.000Z</time>
      </trkpt>
      <trkpt lat="40.03589504398405551910400390625" lon="-0.7195436395704746246337890625">
        <ele>968.5999755859375</ele>
        <time>2022-05-06T13:53:03.000Z</time>
      </trkpt>
      <trkpt lat="40.035825558006763458251953125" lon="-0.71941698901355266571044921875">
        <ele>968.20001220703125</ele>
        <time>2022-05-06T13:53:05.000Z</time>
      </trkpt>
      <trkpt lat="40.03575355745851993560791015625" lon="-0.71930081583559513092041015625">
        <ele>968.20001220703125</ele>
        <time>2022-05-06T13:53:07.000Z</time>
      </trkpt>
      <trkpt lat="40.0356795452535152435302734375" lon="-0.71918807923793792724609375">
        <ele>968.4000244140625</ele>
        <time>2022-05-06T13:53:09.000Z</time>
      </trkpt>
      <trkpt lat="40.0356010906398296356201171875" lon="-0.71907819248735904693603515625">
        <ele>968.79998779296875</ele>
        <time>2022-05-06T13:53:11.000Z</time>
      </trkpt>
      <trkpt lat="40.0355162657797336578369140625" lon="-0.71897140704095363616943359375">
        <ele>969.4000244140625</ele>
        <time>2022-05-06T13:53:13.000Z</time>
      </trkpt>
      <trkpt lat="40.03542448394000530242919921875" lon="-0.7188693992793560028076171875">
        <ele>970</ele>
        <time>2022-05-06T13:53:15.000Z</time>
      </trkpt>
      <trkpt lat="40.0353751145303249359130859375" lon="-0.7188199460506439208984375">
        <ele>970</ele>
        <time>2022-05-06T13:53:16.000Z</time>
      </trkpt>
      <trkpt lat="40.03532432019710540771484375" lon="-0.7187714986503124237060546875">
        <ele>970.20001220703125</ele>
        <time>2022-05-06T13:53:17.000Z</time>
      </trkpt>
      <trkpt lat="40.035220719873905181884765625" lon="-0.71867418475449085235595703125">
        <ele>970.4000244140625</ele>
        <time>2022-05-06T13:53:19.000Z</time>
      </trkpt>
      <trkpt lat="40.0351109169423580169677734375" lon="-0.718585588037967681884765625">
        <ele>970.5999755859375</ele>
        <time>2022-05-06T13:53:21.000Z</time>
      </trkpt>
      <trkpt lat="40.03499440848827362060546875" lon="-0.71850411593914031982421875">
        <ele>971</ele>
        <time>2022-05-06T13:53:23.000Z</time>
      </trkpt>
      <trkpt lat="40.03487169742584228515625" lon="-0.71843312121927738189697265625">
        <ele>971.4000244140625</ele>
        <time>2022-05-06T13:53:25.000Z</time>
      </trkpt>
      <trkpt lat="40.034745968878269195556640625" lon="-0.7183735258877277374267578125">
        <ele>972</ele>
        <time>2022-05-06T13:53:27.000Z</time>
      </trkpt>
      <trkpt lat="40.03461713902652263641357421875" lon="-0.718324072659015655517578125">
        <ele>972.5999755859375</ele>
        <time>2022-05-06T13:53:29.000Z</time>
      </trkpt>
      <trkpt lat="40.03455293364822864532470703125" lon="-0.71830253116786479949951171875">
        <ele>972.79998779296875</ele>
        <time>2022-05-06T13:53:30.000Z</time>
      </trkpt>
      <trkpt lat="40.03448805771768093109130859375" lon="-0.71828283369541168212890625">
        <ele>973.20001220703125</ele>
        <time>2022-05-06T13:53:31.000Z</time>
      </trkpt>
      <trkpt lat="40.03435336053371429443359375" lon="-0.71825592778623104095458984375">
        <ele>974</ele>
        <time>2022-05-06T13:53:33.000Z</time>
      </trkpt>
      <trkpt lat="40.03422050736844539642333984375" lon="-0.718236900866031646728515625">
        <ele>974</ele>
        <time>2022-05-06T13:53:35.000Z</time>
      </trkpt>
      <trkpt lat="40.03415395505726337432861328125" lon="-0.718228854238986968994140625">
        <ele>974</ele>
        <time>2022-05-06T13:53:36.000Z</time>
      </trkpt>
      <trkpt lat="40.03408782184123992919921875" lon="-0.71822240017354488372802734375">
        <ele>974.20001220703125</ele>
        <time>2022-05-06T13:53:37.000Z</time>
      </trkpt>
      <trkpt lat="40.03395563922822475433349609375" lon="-0.71822248399257659912109375">
        <ele>974.4000244140625</ele>
        <time>2022-05-06T13:53:39.000Z</time>
      </trkpt>
      <trkpt lat="40.0338241271674633026123046875" lon="-0.71823589503765106201171875">
        <ele>975</ele>
        <time>2022-05-06T13:53:41.000Z</time>
      </trkpt>
      <trkpt lat="40.03375765867531299591064453125" lon="-0.718246288597583770751953125">
        <ele>975.20001220703125</ele>
        <time>2022-05-06T13:53:42.000Z</time>
      </trkpt>
      <trkpt lat="40.03369278274476528167724609375" lon="-0.71826062165200710296630859375">
        <ele>975.5999755859375</ele>
        <time>2022-05-06T13:53:43.000Z</time>
      </trkpt>
      <trkpt lat="40.03356353379786014556884765625" lon="-0.71828928776085376739501953125">
        <ele>976</ele>
        <time>2022-05-06T13:53:45.000Z</time>
      </trkpt>
      <trkpt lat="40.0334380567073822021484375" lon="-0.7183218933641910552978515625">
        <ele>976.4000244140625</ele>
        <time>2022-05-06T13:53:47.000Z</time>
      </trkpt>
      <trkpt lat="40.0333175249397754669189453125" lon="-0.7183540798723697662353515625">
        <ele>977</ele>
        <time>2022-05-06T13:53:49.000Z</time>
      </trkpt>
      <trkpt lat="40.0332575105130672454833984375" lon="-0.71836992166936397552490234375">
        <ele>977.20001220703125</ele>
        <time>2022-05-06T13:53:50.000Z</time>
      </trkpt>
      <trkpt lat="40.033197663724422454833984375" lon="-0.71838584728538990020751953125">
        <ele>977.4000244140625</ele>
        <time>2022-05-06T13:53:51.000Z</time>
      </trkpt>
      <trkpt lat="40.03307797014713287353515625" lon="-0.71841484867036342620849609375">
        <ele>978</ele>
        <time>2022-05-06T13:53:53.000Z</time>
      </trkpt>
      <trkpt lat="40.03295651637017726898193359375" lon="-0.71844351477921009063720703125">
        <ele>978.4000244140625</ele>
        <time>2022-05-06T13:53:55.000Z</time>
      </trkpt>
      <trkpt lat="40.0328372418880462646484375" lon="-0.7184754498302936553955078125">
        <ele>978.20001220703125</ele>
        <time>2022-05-06T13:53:57.000Z</time>
      </trkpt>
      <trkpt lat="40.03271897323429584503173828125" lon="-0.71850403212010860443115234375">
        <ele>977.79998779296875</ele>
        <time>2022-05-06T13:53:59.000Z</time>
      </trkpt>
      <trkpt lat="40.032658874988555908203125" lon="-0.718518197536468505859375">
        <ele>977.5999755859375</ele>
        <time>2022-05-06T13:54:00.000Z</time>
      </trkpt>
      <trkpt lat="40.0325986929237842559814453125" lon="-0.71853236295282840728759765625">
        <ele>977.4000244140625</ele>
        <time>2022-05-06T13:54:01.000Z</time>
      </trkpt>
      <trkpt lat="40.03247908316552639007568359375" lon="-0.71856446564197540283203125">
        <ele>977</ele>
        <time>2022-05-06T13:54:03.000Z</time>
      </trkpt>
      <trkpt lat="40.03236123360693454742431640625" lon="-0.71859656833112239837646484375">
        <ele>976.79998779296875</ele>
        <time>2022-05-06T13:54:05.000Z</time>
      </trkpt>
      <trkpt lat="40.03224170766770839691162109375" lon="-0.7186350412666797637939453125">
        <ele>977</ele>
        <time>2022-05-06T13:54:07.000Z</time>
      </trkpt>
      <trkpt lat="40.0321816094219684600830078125" lon="-0.718653984367847442626953125">
        <ele>977.20001220703125</ele>
        <time>2022-05-06T13:54:08.000Z</time>
      </trkpt>
      <trkpt lat="40.032122097909450531005859375" lon="-0.71867234073579311370849609375">
        <ele>977.4000244140625</ele>
        <time>2022-05-06T13:54:09.000Z</time>
      </trkpt>
      <trkpt lat="40.03200299106538295745849609375" lon="-0.718718357384204864501953125">
        <ele>977.4000244140625</ele>
        <time>2022-05-06T13:54:11.000Z</time>
      </trkpt>
      <trkpt lat="40.031886063516139984130859375" lon="-0.7187745161354541778564453125">
        <ele>977.20001220703125</ele>
        <time>2022-05-06T13:54:13.000Z</time>
      </trkpt>
      <trkpt lat="40.03177165053784847259521484375" lon="-0.71883042342960834503173828125">
        <ele>977.20001220703125</ele>
        <time>2022-05-06T13:54:15.000Z</time>
      </trkpt>
      <trkpt lat="40.0316585786640644073486328125" lon="-0.7188958860933780670166015625">
        <ele>977.20001220703125</ele>
        <time>2022-05-06T13:54:17.000Z</time>
      </trkpt>
      <trkpt lat="40.03155187703669071197509765625" lon="-0.71896855719387531280517578125">
        <ele>977.20001220703125</ele>
        <time>2022-05-06T13:54:19.000Z</time>
      </trkpt>
      <trkpt lat="40.03145380876958370208740234375" lon="-0.719046257436275482177734375">
        <ele>977.4000244140625</ele>
        <time>2022-05-06T13:54:21.000Z</time>
      </trkpt>
      <trkpt lat="40.031403936445713043212890625" lon="-0.71908573620021343231201171875">
        <ele>977.5999755859375</ele>
        <time>2022-05-06T13:54:22.000Z</time>
      </trkpt>
      <trkpt lat="40.0313531421124935150146484375" lon="-0.7191268913447856903076171875">
        <ele>977.5999755859375</ele>
        <time>2022-05-06T13:54:23.000Z</time>
      </trkpt>
      <trkpt lat="40.0312507152557373046875" lon="-0.7192142307758331298828125">
        <ele>977.79998779296875</ele>
        <time>2022-05-06T13:54:25.000Z</time>
      </trkpt>
      <trkpt lat="40.03115189261734485626220703125" lon="-0.71930634789168834686279296875">
        <ele>977.5999755859375</ele>
        <time>2022-05-06T13:54:27.000Z</time>
      </trkpt>
      <trkpt lat="40.03110386431217193603515625" lon="-0.71935395710170269012451171875">
        <ele>977.5999755859375</ele>
        <time>2022-05-06T13:54:28.000Z</time>
      </trkpt>
      <trkpt lat="40.03105617128312587738037109375" lon="-0.7194018177688121795654296875">
        <ele>977.5999755859375</ele>
        <time>2022-05-06T13:54:29.000Z</time>
      </trkpt>
      <trkpt lat="40.0309623777866363525390625" lon="-0.71950181387364864349365234375">
        <ele>977.4000244140625</ele>
        <time>2022-05-06T13:54:31.000Z</time>
      </trkpt>
      <trkpt lat="40.03087394870817661285400390625" lon="-0.71961077861487865447998046875">
        <ele>977.5999755859375</ele>
        <time>2022-05-06T13:54:33.000Z</time>
      </trkpt>
      <trkpt lat="40.03079046495258808135986328125" lon="-0.7197293825447559356689453125">
        <ele>977.5999755859375</ele>
        <time>2022-05-06T13:54:35.000Z</time>
      </trkpt>
      <trkpt lat="40.0307130999863147735595703125" lon="-0.719854272902011871337890625">
        <ele>977.79998779296875</ele>
        <time>2022-05-06T13:54:37.000Z</time>
      </trkpt>
      <trkpt lat="40.0306423567235469818115234375" lon="-0.7199831865727901458740234375">
        <ele>977.79998779296875</ele>
        <time>2022-05-06T13:54:39.000Z</time>
      </trkpt>
      <trkpt lat="40.03057069145143032073974609375" lon="-0.72011000476777553558349609375">
        <ele>977.79998779296875</ele>
        <time>2022-05-06T13:54:41.000Z</time>
      </trkpt>
      <trkpt lat="40.0304965116083621978759765625" lon="-0.720234476029872894287109375">
        <ele>978</ele>
        <time>2022-05-06T13:54:43.000Z</time>
      </trkpt>
      <trkpt lat="40.030459798872470855712890625" lon="-0.72029708884656429290771484375">
        <ele>978</ele>
        <time>2022-05-06T13:54:44.000Z</time>
      </trkpt>
      <trkpt lat="40.03042300231754779815673828125" lon="-0.7203600369393825531005859375">
        <ele>978</ele>
        <time>2022-05-06T13:54:45.000Z</time>
      </trkpt>
      <trkpt lat="40.0303463079035282135009765625" lon="-0.72048065252602100372314453125">
        <ele>978.20001220703125</ele>
        <time>2022-05-06T13:54:47.000Z</time>
      </trkpt>
      <trkpt lat="40.03026240505278110504150390625" lon="-0.72059179656207561492919921875">
        <ele>978</ele>
        <time>2022-05-06T13:54:49.000Z</time>
      </trkpt>
      <trkpt lat="40.03018319606781005859375" lon="-0.72069707326591014862060546875">
        <ele>977.5999755859375</ele>
        <time>2022-05-06T13:54:51.000Z</time>
      </trkpt>
      <trkpt lat="40.03011278808116912841796875" lon="-0.72080469690263271331787109375">
        <ele>977.4000244140625</ele>
        <time>2022-05-06T13:54:53.000Z</time>
      </trkpt>
      <trkpt lat="40.0300445593893527984619140625" lon="-0.72090578265488147735595703125">
        <ele>977.20001220703125</ele>
        <time>2022-05-06T13:54:55.000Z</time>
      </trkpt>
      <trkpt lat="40.0299738161265850067138671875" lon="-0.721003599464893341064453125">
        <ele>977</ele>
        <time>2022-05-06T13:54:57.000Z</time>
      </trkpt>
      <trkpt lat="40.02990399487316608428955078125" lon="-0.7211046852171421051025390625">
        <ele>976.5999755859375</ele>
        <time>2022-05-06T13:54:59.000Z</time>
      </trkpt>
      <trkpt lat="40.0298353470861911773681640625" lon="-0.72120585478842258453369140625">
        <ele>976.4000244140625</ele>
        <time>2022-05-06T13:55:01.000Z</time>
      </trkpt>
      <trkpt lat="40.02976569347083568572998046875" lon="-0.72130660526454448699951171875">
        <ele>976.20001220703125</ele>
        <time>2022-05-06T13:55:03.000Z</time>
      </trkpt>
      <trkpt lat="40.02969972789287567138671875" lon="-0.72140970267355442047119140625">
        <ele>976</ele>
        <time>2022-05-06T13:55:05.000Z</time>
      </trkpt>
      <trkpt lat="40.029630325734615325927734375" lon="-0.72151011787354946136474609375">
        <ele>975.5999755859375</ele>
        <time>2022-05-06T13:55:07.000Z</time>
      </trkpt>
      <trkpt lat="40.02955891191959381103515625" lon="-0.72161137126386165618896484375">
        <ele>975.20001220703125</ele>
        <time>2022-05-06T13:55:09.000Z</time>
      </trkpt>
      <trkpt lat="40.02952412702143192291259765625" lon="-0.7216644287109375">
        <ele>975</ele>
        <time>2022-05-06T13:55:10.000Z</time>
      </trkpt>
      <trkpt lat="40.0294900126755237579345703125" lon="-0.721718408167362213134765625">
        <ele>975</ele>
        <time>2022-05-06T13:55:11.000Z</time>
      </trkpt>
      <trkpt lat="40.02941885031759738922119140625" lon="-0.72182871401309967041015625">
        <ele>974.79998779296875</ele>
        <time>2022-05-06T13:55:13.000Z</time>
      </trkpt>
      <trkpt lat="40.029343664646148681640625" lon="-0.72194078005850315093994140625">
        <ele>974.5999755859375</ele>
        <time>2022-05-06T13:55:15.000Z</time>
      </trkpt>
      <trkpt lat="40.02926730550825595855712890625" lon="-0.722057037055492401123046875">
        <ele>974.20001220703125</ele>
        <time>2022-05-06T13:55:17.000Z</time>
      </trkpt>
      <trkpt lat="40.02918851561844348907470703125" lon="-0.72217203676700592041015625">
        <ele>974</ele>
        <time>2022-05-06T13:55:19.000Z</time>
      </trkpt>
      <trkpt lat="40.02914878539741039276123046875" lon="-0.722228698432445526123046875">
        <ele>974</ele>
        <time>2022-05-06T13:55:20.000Z</time>
      </trkpt>
      <trkpt lat="40.02910939045250415802001953125" lon="-0.722286701202392578125">
        <ele>974</ele>
        <time>2022-05-06T13:55:21.000Z</time>
      </trkpt>
      <trkpt lat="40.02902783453464508056640625" lon="-0.7224001921713352203369140625">
        <ele>973.79998779296875</ele>
        <time>2022-05-06T13:55:23.000Z</time>
      </trkpt>
      <trkpt lat="40.0289453566074371337890625" lon="-0.72251024655997753143310546875">
        <ele>973.5999755859375</ele>
        <time>2022-05-06T13:55:25.000Z</time>
      </trkpt>
      <trkpt lat="40.028860531747341156005859375" lon="-0.7226161099970340728759765625">
        <ele>973.4000244140625</ele>
        <time>2022-05-06T13:55:27.000Z</time>
      </trkpt>
      <trkpt lat="40.0288147665560245513916015625" lon="-0.722669921815395355224609375">
        <ele>973.4000244140625</ele>
        <time>2022-05-06T13:55:28.000Z</time>
      </trkpt>
      <trkpt lat="40.0287691690027713775634765625" lon="-0.7227220572531223297119140625">
        <ele>973.4000244140625</ele>
        <time>2022-05-06T13:55:29.000Z</time>
      </trkpt>
      <trkpt lat="40.02867269329726696014404296875" lon="-0.7228216342628002166748046875">
        <ele>973.4000244140625</ele>
        <time>2022-05-06T13:55:31.000Z</time>
      </trkpt>
      <trkpt lat="40.0285693444311618804931640625" lon="-0.7229108177125453948974609375">
        <ele>973.5999755859375</ele>
        <time>2022-05-06T13:55:33.000Z</time>
      </trkpt>
      <trkpt lat="40.02846993505954742431640625" lon="-0.722991786897182464599609375">
        <ele>973.79998779296875</ele>
        <time>2022-05-06T13:55:35.000Z</time>
      </trkpt>
      <trkpt lat="40.02837069332599639892578125" lon="-0.7230633683502674102783203125">
        <ele>974</ele>
        <time>2022-05-06T13:55:37.000Z</time>
      </trkpt>
      <trkpt lat="40.028270781040191650390625" lon="-0.7231384702026844024658203125">
        <ele>974.20001220703125</ele>
        <time>2022-05-06T13:55:39.000Z</time>
      </trkpt>
      <trkpt lat="40.0281686894595623016357421875" lon="-0.72320695035159587860107421875">
        <ele>974.20001220703125</ele>
        <time>2022-05-06T13:55:41.000Z</time>
      </trkpt>
      <trkpt lat="40.0281170569360256195068359375" lon="-0.7232367061078548431396484375">
        <ele>974.20001220703125</ele>
        <time>2022-05-06T13:55:42.000Z</time>
      </trkpt>
      <trkpt lat="40.0280671007931232452392578125" lon="-0.72326369583606719970703125">
        <ele>974.20001220703125</ele>
        <time>2022-05-06T13:55:43.000Z</time>
      </trkpt>
      <trkpt lat="40.0279655121266841888427734375" lon="-0.72331105358898639678955078125">
        <ele>974.4000244140625</ele>
        <time>2022-05-06T13:55:45.000Z</time>
      </trkpt>
      <trkpt lat="40.0278565473854541778564453125" lon="-0.7233527116477489471435546875">
        <ele>974.4000244140625</ele>
        <time>2022-05-06T13:55:47.000Z</time>
      </trkpt>
      <trkpt lat="40.0277464091777801513671875" lon="-0.72338447906076908111572265625">
        <ele>974.4000244140625</ele>
        <time>2022-05-06T13:55:49.000Z</time>
      </trkpt>
      <trkpt lat="40.0276418030261993408203125" lon="-0.7234160788357257843017578125">
        <ele>974.4000244140625</ele>
        <time>2022-05-06T13:55:51.000Z</time>
      </trkpt>
      <trkpt lat="40.02754298038780689239501953125" lon="-0.72343669831752777099609375">
        <ele>974.4000244140625</ele>
        <time>2022-05-06T13:55:53.000Z</time>
      </trkpt>
      <trkpt lat="40.02744357101619243621826171875" lon="-0.7234455831348896026611328125">
        <ele>974.4000244140625</ele>
        <time>2022-05-06T13:55:55.000Z</time>
      </trkpt>
      <trkpt lat="40.02739411778748035430908203125" lon="-0.72344876825809478759765625">
        <ele>974.4000244140625</ele>
        <time>2022-05-06T13:55:56.000Z</time>
      </trkpt>
      <trkpt lat="40.02734340727329254150390625" lon="-0.723451785743236541748046875">
        <ele>974.4000244140625</ele>
        <time>2022-05-06T13:55:57.000Z</time>
      </trkpt>
      <trkpt lat="40.02723955549299716949462890625" lon="-0.7234469242393970489501953125">
        <ele>974.20001220703125</ele>
        <time>2022-05-06T13:55:59.000Z</time>
      </trkpt>
      <trkpt lat="40.0271393917500972747802734375" lon="-0.72343292646110057830810546875">
        <ele>974</ele>
        <time>2022-05-06T13:56:01.000Z</time>
      </trkpt>
      <trkpt lat="40.027039982378482818603515625" lon="-0.7234130613505840301513671875">
        <ele>973.79998779296875</ele>
        <time>2022-05-06T13:56:03.000Z</time>
      </trkpt>
      <trkpt lat="40.0269392319023609161376953125" lon="-0.72339269332587718963623046875">
        <ele>973.5999755859375</ele>
        <time>2022-05-06T13:56:05.000Z</time>
      </trkpt>
      <trkpt lat="40.02684040926396846771240234375" lon="-0.723365284502506256103515625">
        <ele>973.4000244140625</ele>
        <time>2022-05-06T13:56:07.000Z</time>
      </trkpt>
      <trkpt lat="40.02679447643458843231201171875" lon="-0.723346173763275146484375">
        <ele>973.4000244140625</ele>
        <time>2022-05-06T13:56:08.000Z</time>
      </trkpt>
      <trkpt lat="40.02674787305295467376708984375" lon="-0.7233260571956634521484375">
        <ele>973.4000244140625</ele>
        <time>2022-05-06T13:56:09.000Z</time>
      </trkpt>
      <trkpt lat="40.02665231935679912567138671875" lon="-0.723277442157268524169921875">
        <ele>973.20001220703125</ele>
        <time>2022-05-06T13:56:11.000Z</time>
      </trkpt>
      <trkpt lat="40.0265519879758358001708984375" lon="-0.7232025079429149627685546875">
        <ele>973.20001220703125</ele>
        <time>2022-05-06T13:56:13.000Z</time>
      </trkpt>
      <trkpt lat="40.0264467112720012664794921875" lon="-0.72314299643039703369140625">
        <ele>973.20001220703125</ele>
        <time>2022-05-06T13:56:15.000Z</time>
      </trkpt>
      <trkpt lat="40.0263327173888683319091796875" lon="-0.7230459339916706085205078125">
        <ele>973</ele>
        <time>2022-05-06T13:56:17.000Z</time>
      </trkpt>
      <trkpt lat="40.026232637465000152587890625" lon="-0.72298130951821804046630859375">
        <ele>973</ele>
        <time>2022-05-06T13:56:19.000Z</time>
      </trkpt>
      <trkpt lat="40.02612928859889507293701171875" lon="-0.7229098118841648101806640625">
        <ele>973.20001220703125</ele>
        <time>2022-05-06T13:56:21.000Z</time>
      </trkpt>
      <trkpt lat="40.026030801236629486083984375" lon="-0.7228306867182254791259765625">
        <ele>973.20001220703125</ele>
        <time>2022-05-06T13:56:23.000Z</time>
      </trkpt>
      <trkpt lat="40.02598092891275882720947265625" lon="-0.72278902865946292877197265625">
        <ele>973.4000244140625</ele>
        <time>2022-05-06T13:56:24.000Z</time>
      </trkpt>
      <trkpt lat="40.02593415789306163787841796875" lon="-0.722745023667812347412109375">
        <ele>973.4000244140625</ele>
        <time>2022-05-06T13:56:25.000Z</time>
      </trkpt>
      <trkpt lat="40.02584966830909252166748046875" lon="-0.72265609167516231536865234375">
        <ele>973.4000244140625</ele>
        <time>2022-05-06T13:56:27.000Z</time>
      </trkpt>
      <trkpt lat="40.02576702274382114410400390625" lon="-0.722565315663814544677734375">
        <ele>973.79998779296875</ele>
        <time>2022-05-06T13:56:29.000Z</time>
      </trkpt>
      <trkpt lat="40.02572729252278804779052734375" lon="-0.72252298705279827117919921875">
        <ele>974.20001220703125</ele>
        <time>2022-05-06T13:56:30.000Z</time>
      </trkpt>
      <trkpt lat="40.02569091506302356719970703125" lon="-0.72248049080371856689453125">
        <ele>974.4000244140625</ele>
        <time>2022-05-06T13:56:31.000Z</time>
      </trkpt>
      <trkpt lat="40.02562218345701694488525390625" lon="-0.7223904691636562347412109375">
        <ele>974.79998779296875</ele>
        <time>2022-05-06T13:56:33.000Z</time>
      </trkpt>
      <trkpt lat="40.02555445767939090728759765625" lon="-0.72230539284646511077880859375">
        <ele>975.20001220703125</ele>
        <time>2022-05-06T13:56:35.000Z</time>
      </trkpt>
      <trkpt lat="40.0255226902663707733154296875" lon="-0.72226113639771938323974609375">
        <ele>975.4000244140625</ele>
        <time>2022-05-06T13:56:36.000Z</time>
      </trkpt>
      <trkpt lat="40.02548974938690662384033203125" lon="-0.72221939451992511749267578125">
        <ele>975.79998779296875</ele>
        <time>2022-05-06T13:56:37.000Z</time>
      </trkpt>
      <trkpt lat="40.02542805857956409454345703125" lon="-0.72212920524179935455322265625">
        <ele>975.79998779296875</ele>
        <time>2022-05-06T13:56:39.000Z</time>
      </trkpt>
      <trkpt lat="40.02537324093282222747802734375" lon="-0.72204605676233768463134765625">
        <ele>975.4000244140625</ele>
        <time>2022-05-06T13:56:41.000Z</time>
      </trkpt>
      <trkpt lat="40.02534893341362476348876953125" lon="-0.72200330905616283416748046875">
        <ele>975.20001220703125</ele>
        <time>2022-05-06T13:56:42.000Z</time>
      </trkpt>
      <trkpt lat="40.02532881684601306915283203125" lon="-0.7219546101987361907958984375">
        <ele>975.20001220703125</ele>
        <time>2022-05-06T13:56:43.000Z</time>
      </trkpt>
      <trkpt lat="40.02528640441596508026123046875" lon="-0.721854530274868011474609375">
        <ele>974.79998779296875</ele>
        <time>2022-05-06T13:56:45.000Z</time>
      </trkpt>
      <trkpt lat="40.02526511438190937042236328125" lon="-0.7218003831803798675537109375">
        <ele>974.5999755859375</ele>
        <time>2022-05-06T13:56:46.000Z</time>
      </trkpt>
      <trkpt lat="40.025245249271392822265625" lon="-0.72174749337136745452880859375">
        <ele>974.4000244140625</ele>
        <time>2022-05-06T13:56:47.000Z</time>
      </trkpt>
      <trkpt lat="40.02520828507840633392333984375" lon="-0.72163349948823451995849609375">
        <ele>974</ele>
        <time>2022-05-06T13:56:49.000Z</time>
      </trkpt>
      <trkpt lat="40.02519235946238040924072265625" lon="-0.72157348506152629852294921875">
        <ele>973.79998779296875</ele>
        <time>2022-05-06T13:56:50.000Z</time>
      </trkpt>
      <trkpt lat="40.02517660148441791534423828125" lon="-0.7215150631964206695556640625">
        <ele>973.5999755859375</ele>
        <time>2022-05-06T13:56:51.000Z</time>
      </trkpt>
      <trkpt lat="40.02514424733817577362060546875" lon="-0.7213960401713848114013671875">
        <ele>973.4000244140625</ele>
        <time>2022-05-06T13:56:53.000Z</time>
      </trkpt>
      <trkpt lat="40.02511717379093170166015625" lon="-0.72126938961446285247802734375">
        <ele>973.4000244140625</ele>
        <time>2022-05-06T13:56:55.000Z</time>
      </trkpt>
      <trkpt lat="40.02509479410946369171142578125" lon="-0.72113796137273311614990234375">
        <ele>973.4000244140625</ele>
        <time>2022-05-06T13:56:57.000Z</time>
      </trkpt>
      <trkpt lat="40.0250767730176448822021484375" lon="-0.72100586257874965667724609375">
        <ele>973.4000244140625</ele>
        <time>2022-05-06T13:56:59.000Z</time>
      </trkpt>
      <trkpt lat="40.02506696619093418121337890625" lon="-0.7209393940865993499755859375">
        <ele>973.4000244140625</ele>
        <time>2022-05-06T13:57:00.000Z</time>
      </trkpt>
      <trkpt lat="40.02505690790712833404541015625" lon="-0.720873512327671051025390625">
        <ele>973.4000244140625</ele>
        <time>2022-05-06T13:57:01.000Z</time>
      </trkpt>
      <trkpt lat="40.02503762952983379364013671875" lon="-0.72074032388627529144287109375">
        <ele>973.20001220703125</ele>
        <time>2022-05-06T13:57:03.000Z</time>
      </trkpt>
      <trkpt lat="40.02501835115253925323486328125" lon="-0.720607303082942962646484375">
        <ele>973</ele>
        <time>2022-05-06T13:57:05.000Z</time>
      </trkpt>
      <trkpt lat="40.0249958038330078125" lon="-0.72047495283186435699462890625">
        <ele>972.79998779296875</ele>
        <time>2022-05-06T13:57:07.000Z</time>
      </trkpt>
      <trkpt lat="40.02498482353985309600830078125" lon="-0.720409490168094635009765625">
        <ele>972.5999755859375</ele>
        <time>2022-05-06T13:57:08.000Z</time>
      </trkpt>
      <trkpt lat="40.02497409470379352569580078125" lon="-0.7203439436852931976318359375">
        <ele>972.4000244140625</ele>
        <time>2022-05-06T13:57:09.000Z</time>
      </trkpt>
      <trkpt lat="40.0249517150223255157470703125" lon="-0.72021176107227802276611328125">
        <ele>971.79998779296875</ele>
        <time>2022-05-06T13:57:11.000Z</time>
      </trkpt>
      <trkpt lat="40.02493034116923809051513671875" lon="-0.720077566802501678466796875">
        <ele>972</ele>
        <time>2022-05-06T13:57:13.000Z</time>
      </trkpt>
      <trkpt lat="40.02490854822099208831787109375" lon="-0.719938762485980987548828125">
        <ele>972.20001220703125</ele>
        <time>2022-05-06T13:57:15.000Z</time>
      </trkpt>
      <trkpt lat="40.02488474361598491668701171875" lon="-0.71979694068431854248046875">
        <ele>972.4000244140625</ele>
        <time>2022-05-06T13:57:17.000Z</time>
      </trkpt>
      <trkpt lat="40.0248611904680728912353515625" lon="-0.71965402923524379730224609375">
        <ele>972.5999755859375</ele>
        <time>2022-05-06T13:57:19.000Z</time>
      </trkpt>
      <trkpt lat="40.02483981661498546600341796875" lon="-0.71951354853808879852294921875">
        <ele>972.5999755859375</ele>
        <time>2022-05-06T13:57:21.000Z</time>
      </trkpt>
      <trkpt lat="40.02481483854353427886962890625" lon="-0.719375498592853546142578125">
        <ele>972.5999755859375</ele>
        <time>2022-05-06T13:57:23.000Z</time>
      </trkpt>
      <trkpt lat="40.0247904472053050994873046875" lon="-0.7192356884479522705078125">
        <ele>972.79998779296875</ele>
        <time>2022-05-06T13:57:25.000Z</time>
      </trkpt>
      <trkpt lat="40.024768821895122528076171875" lon="-0.7190900109708309173583984375">
        <ele>973</ele>
        <time>2022-05-06T13:57:27.000Z</time>
      </trkpt>
      <trkpt lat="40.024757087230682373046875" lon="-0.719016753137111663818359375">
        <ele>973</ele>
        <time>2022-05-06T13:57:28.000Z</time>
      </trkpt>
      <trkpt lat="40.0247450172901153564453125" lon="-0.718943662941455841064453125">
        <ele>973</ele>
        <time>2022-05-06T13:57:29.000Z</time>
      </trkpt>
      <trkpt lat="40.02472045831382274627685546875" lon="-0.71879907511174678802490234375">
        <ele>973.20001220703125</ele>
        <time>2022-05-06T13:57:31.000Z</time>
      </trkpt>
      <trkpt lat="40.024708472192287445068359375" lon="-0.718727409839630126953125">
        <ele>973.4000244140625</ele>
        <time>2022-05-06T13:57:32.000Z</time>
      </trkpt>
      <trkpt lat="40.02469631843268871307373046875" lon="-0.71865675039589405059814453125">
        <ele>973.79998779296875</ele>
        <time>2022-05-06T13:57:33.000Z</time>
      </trkpt>
      <trkpt lat="40.024670250713825225830078125" lon="-0.71851660497486591339111328125">
        <ele>974.5999755859375</ele>
        <time>2022-05-06T13:57:35.000Z</time>
      </trkpt>
      <trkpt lat="40.02464267425239086151123046875" lon="-0.7183802314102649688720703125">
        <ele>975.20001220703125</ele>
        <time>2022-05-06T13:57:37.000Z</time>
      </trkpt>
      <trkpt lat="40.0246164388954639434814453125" lon="-0.718240253627300262451171875">
        <ele>976</ele>
        <time>2022-05-06T13:57:39.000Z</time>
      </trkpt>
      <trkpt lat="40.02458718605339527130126953125" lon="-0.7181032933294773101806640625">
        <ele>976.79998779296875</ele>
        <time>2022-05-06T13:57:41.000Z</time>
      </trkpt>
      <trkpt lat="40.0245751999318599700927734375" lon="-0.71803347207605838775634765625">
        <ele>977.20001220703125</ele>
        <time>2022-05-06T13:57:42.000Z</time>
      </trkpt>
      <trkpt lat="40.02455919049680233001708984375" lon="-0.7179668359458446502685546875">
        <ele>977.4000244140625</ele>
        <time>2022-05-06T13:57:43.000Z</time>
      </trkpt>
      <trkpt lat="40.024529434740543365478515625" lon="-0.71782945655286312103271484375">
        <ele>977.79998779296875</ele>
        <time>2022-05-06T13:57:45.000Z</time>
      </trkpt>
      <trkpt lat="40.0244970805943012237548828125" lon="-0.717693082988262176513671875">
        <ele>978.4000244140625</ele>
        <time>2022-05-06T13:57:47.000Z</time>
      </trkpt>
      <trkpt lat="40.02447369508445262908935546875" lon="-0.71755067445337772369384765625">
        <ele>978.79998779296875</ele>
        <time>2022-05-06T13:57:49.000Z</time>
      </trkpt>
      <trkpt lat="40.02444871701300144195556640625" lon="-0.71740617044270038604736328125">
        <ele>979.20001220703125</ele>
        <time>2022-05-06T13:57:51.000Z</time>
      </trkpt>
      <trkpt lat="40.0244296900928020477294921875" lon="-0.71725848130881786346435546875">
        <ele>979.4000244140625</ele>
        <time>2022-05-06T13:57:53.000Z</time>
      </trkpt>
      <trkpt lat="40.02440496347844600677490234375" lon="-0.717118084430694580078125">
        <ele>979.5999755859375</ele>
        <time>2022-05-06T13:57:55.000Z</time>
      </trkpt>
      <trkpt lat="40.02438149414956569671630859375" lon="-0.7169784419238567352294921875">
        <ele>980</ele>
        <time>2022-05-06T13:57:57.000Z</time>
      </trkpt>
      <trkpt lat="40.02436439506709575653076171875" lon="-0.71683586575090885162353515625">
        <ele>980.4000244140625</ele>
        <time>2022-05-06T13:57:59.000Z</time>
      </trkpt>
      <trkpt lat="40.02434176392853260040283203125" lon="-0.71670276112854480743408203125">
        <ele>980.5999755859375</ele>
        <time>2022-05-06T13:58:01.000Z</time>
      </trkpt>
      <trkpt lat="40.02431326545774936676025390625" lon="-0.71656881831586360931396484375">
        <ele>980.79998779296875</ele>
        <time>2022-05-06T13:58:03.000Z</time>
      </trkpt>
      <trkpt lat="40.0242912210524082183837890625" lon="-0.716426409780979156494140625">
        <ele>980.79998779296875</ele>
        <time>2022-05-06T13:58:05.000Z</time>
      </trkpt>
      <trkpt lat="40.02427898347377777099609375" lon="-0.7163558341562747955322265625">
        <ele>980.79998779296875</ele>
        <time>2022-05-06T13:58:06.000Z</time>
      </trkpt>
      <trkpt lat="40.02426649443805217742919921875" lon="-0.7162867672741413116455078125">
        <ele>981</ele>
        <time>2022-05-06T13:58:07.000Z</time>
      </trkpt>
      <trkpt lat="40.02425325103104114532470703125" lon="-0.716216862201690673828125">
        <ele>981</ele>
        <time>2022-05-06T13:58:08.000Z</time>
      </trkpt>
      <trkpt lat="40.02424218691885471343994140625" lon="-0.71614637039601802825927734375">
        <ele>981</ele>
        <time>2022-05-06T13:58:09.000Z</time>
      </trkpt>
      <trkpt lat="40.02422139979898929595947265625" lon="-0.71600605733692646026611328125">
        <ele>981.20001220703125</ele>
        <time>2022-05-06T13:58:11.000Z</time>
      </trkpt>
      <trkpt lat="40.02419994212687015533447265625" lon="-0.71586641483008861541748046875">
        <ele>981.20001220703125</ele>
        <time>2022-05-06T13:58:13.000Z</time>
      </trkpt>
      <trkpt lat="40.02418518997728824615478515625" lon="-0.71579818613827228546142578125">
        <ele>981</ele>
        <time>2022-05-06T13:58:14.000Z</time>
      </trkpt>
      <trkpt lat="40.02417379058897495269775390625" lon="-0.71572777815163135528564453125">
        <ele>980.5999755859375</ele>
        <time>2022-05-06T13:58:15.000Z</time>
      </trkpt>
      <trkpt lat="40.02415065653622150421142578125" lon="-0.71558528579771518707275390625">
        <ele>980.20001220703125</ele>
        <time>2022-05-06T13:58:17.000Z</time>
      </trkpt>
      <trkpt lat="40.02412333153188228607177734375" lon="-0.71545536629855632781982421875">
        <ele>979.5999755859375</ele>
        <time>2022-05-06T13:58:19.000Z</time>
      </trkpt>
      <trkpt lat="40.02411411143839359283447265625" lon="-0.71538914926350116729736328125">
        <ele>979.20001220703125</ele>
        <time>2022-05-06T13:58:20.000Z</time>
      </trkpt>
      <trkpt lat="40.0241064839065074920654296875" lon="-0.7153272069990634918212890625">
        <ele>979</ele>
        <time>2022-05-06T13:58:21.000Z</time>
      </trkpt>
      <trkpt lat="40.02409516833722591400146484375" lon="-0.71521363221108913421630859375">
        <ele>978.20001220703125</ele>
        <time>2022-05-06T13:58:23.000Z</time>
      </trkpt>
      <trkpt lat="40.02408611588180065155029296875" lon="-0.71509527973830699920654296875">
        <ele>977.4000244140625</ele>
        <time>2022-05-06T13:58:25.000Z</time>
      </trkpt>
      <trkpt lat="40.02408175729215145111083984375" lon="-0.7150338403880596160888671875">
        <ele>977</ele>
        <time>2022-05-06T13:58:26.000Z</time>
      </trkpt>
      <trkpt lat="40.0240798294544219970703125" lon="-0.71497072465717792510986328125">
        <ele>976.5999755859375</ele>
        <time>2022-05-06T13:58:27.000Z</time>
      </trkpt>
      <trkpt lat="40.0240776501595973968505859375" lon="-0.71484080515801906585693359375">
        <ele>975.5999755859375</ele>
        <time>2022-05-06T13:58:29.000Z</time>
      </trkpt>
      <trkpt lat="40.02407706342637538909912109375" lon="-0.7147059403359889984130859375">
        <ele>974.5999755859375</ele>
        <time>2022-05-06T13:58:31.000Z</time>
      </trkpt>
      <trkpt lat="40.02408125437796115875244140625" lon="-0.71456730365753173828125">
        <ele>973.79998779296875</ele>
        <time>2022-05-06T13:58:33.000Z</time>
      </trkpt>
      <trkpt lat="40.0240851938724517822265625" lon="-0.714427493512630462646484375">
        <ele>973</ele>
        <time>2022-05-06T13:58:35.000Z</time>
      </trkpt>
      <trkpt lat="40.0240967608988285064697265625" lon="-0.714285671710968017578125">
        <ele>972.20001220703125</ele>
        <time>2022-05-06T13:58:37.000Z</time>
      </trkpt>
      <trkpt lat="40.02410975284874439239501953125" lon="-0.71414426900446414947509765625">
        <ele>971.4000244140625</ele>
        <time>2022-05-06T13:58:39.000Z</time>
      </trkpt>
      <trkpt lat="40.02412551082670688629150390625" lon="-0.714004375040531158447265625">
        <ele>970.79998779296875</ele>
        <time>2022-05-06T13:58:41.000Z</time>
      </trkpt>
      <trkpt lat="40.02414931543171405792236328125" lon="-0.71386531926691532135009765625">
        <ele>970</ele>
        <time>2022-05-06T13:58:43.000Z</time>
      </trkpt>
      <trkpt lat="40.02417580224573612213134765625" lon="-0.713724754750728607177734375">
        <ele>970</ele>
        <time>2022-05-06T13:58:45.000Z</time>
      </trkpt>
      <trkpt lat="40.024208910763263702392578125" lon="-0.71358586661517620086669921875">
        <ele>970</ele>
        <time>2022-05-06T13:58:47.000Z</time>
      </trkpt>
      <trkpt lat="40.02422668039798736572265625" lon="-0.713518559932708740234375">
        <ele>969.79998779296875</ele>
        <time>2022-05-06T13:58:48.000Z</time>
      </trkpt>
      <trkpt lat="40.02424570731818675994873046875" lon="-0.7134526781737804412841796875">
        <ele>969.79998779296875</ele>
        <time>2022-05-06T13:58:49.000Z</time>
      </trkpt>
      <trkpt lat="40.02428526990115642547607421875" lon="-0.71332150138914585113525390625">
        <ele>969.79998779296875</ele>
        <time>2022-05-06T13:58:51.000Z</time>
      </trkpt>
      <trkpt lat="40.0243197195231914520263671875" lon="-0.71319007314741611480712890625">
        <ele>970</ele>
        <time>2022-05-06T13:58:53.000Z</time>
      </trkpt>
      <trkpt lat="40.02435701899230480194091796875" lon="-0.71305931545794010162353515625">
        <ele>970</ele>
        <time>2022-05-06T13:58:55.000Z</time>
      </trkpt>
      <trkpt lat="40.02439255826175212860107421875" lon="-0.71292906068265438079833984375">
        <ele>970.4000244140625</ele>
        <time>2022-05-06T13:58:57.000Z</time>
      </trkpt>
      <trkpt lat="40.02442893572151660919189453125" lon="-0.7127962075173854827880859375">
        <ele>970.5999755859375</ele>
        <time>2022-05-06T13:58:59.000Z</time>
      </trkpt>
      <trkpt lat="40.0244685821235179901123046875" lon="-0.7126607559621334075927734375">
        <ele>971</ele>
        <time>2022-05-06T13:59:01.000Z</time>
      </trkpt>
      <trkpt lat="40.02450521104037761688232421875" lon="-0.712527818977832794189453125">
        <ele>971.20001220703125</ele>
        <time>2022-05-06T13:59:03.000Z</time>
      </trkpt>
      <trkpt lat="40.02453857101500034332275390625" lon="-0.712395720183849334716796875">
        <ele>971.5999755859375</ele>
        <time>2022-05-06T13:59:05.000Z</time>
      </trkpt>
      <trkpt lat="40.0245581008493900299072265625" lon="-0.71233059279620647430419921875">
        <ele>971.5999755859375</ele>
        <time>2022-05-06T13:59:06.000Z</time>
      </trkpt>
      <trkpt lat="40.0245768763124942779541015625" lon="-0.7122668065130710601806640625">
        <ele>971.79998779296875</ele>
        <time>2022-05-06T13:59:07.000Z</time>
      </trkpt>
      <trkpt lat="40.0245953164994716644287109375" lon="-0.7122051157057285308837890625">
        <ele>972</ele>
        <time>2022-05-06T13:59:08.000Z</time>
      </trkpt>
      <trkpt lat="40.0246127508580684661865234375" lon="-0.71214552037417888641357421875">
        <ele>972</ele>
        <time>2022-05-06T13:59:09.000Z</time>
      </trkpt>
      <trkpt lat="40.024645440280437469482421875" lon="-0.71202917955815792083740234375">
        <ele>972.20001220703125</ele>
        <time>2022-05-06T13:59:11.000Z</time>
      </trkpt>
      <trkpt lat="40.0246801413595676422119140625" lon="-0.711912922561168670654296875">
        <ele>972.4000244140625</ele>
        <time>2022-05-06T13:59:13.000Z</time>
      </trkpt>
      <trkpt lat="40.02469682134687900543212890625" lon="-0.7118540816009044647216796875">
        <ele>972.4000244140625</ele>
        <time>2022-05-06T13:59:14.000Z</time>
      </trkpt>
      <trkpt lat="40.02471425570547580718994140625" lon="-0.71179482154548168182373046875">
        <ele>972.5999755859375</ele>
        <time>2022-05-06T13:59:15.000Z</time>
      </trkpt>
      <trkpt lat="40.0247490406036376953125" lon="-0.71167412213981151580810546875">
        <ele>972.79998779296875</ele>
        <time>2022-05-06T13:59:17.000Z</time>
      </trkpt>
      <trkpt lat="40.02478332258760929107666015625" lon="-0.7115489803254604339599609375">
        <ele>973</ele>
        <time>2022-05-06T13:59:19.000Z</time>
      </trkpt>
      <trkpt lat="40.02481970004737377166748046875" lon="-0.71142216213047504425048828125">
        <ele>973.20001220703125</ele>
        <time>2022-05-06T13:59:21.000Z</time>
      </trkpt>
      <trkpt lat="40.02485674805939197540283203125" lon="-0.71129576303064823150634765625">
        <ele>973.4000244140625</ele>
        <time>2022-05-06T13:59:23.000Z</time>
      </trkpt>
      <trkpt lat="40.024891197681427001953125" lon="-0.7111684419214725494384765625">
        <ele>973.79998779296875</ele>
        <time>2022-05-06T13:59:25.000Z</time>
      </trkpt>
      <trkpt lat="40.02492732368409633636474609375" lon="-0.71104229427874088287353515625">
        <ele>974.20001220703125</ele>
        <time>2022-05-06T13:59:27.000Z</time>
      </trkpt>
      <trkpt lat="40.0249647907912731170654296875" lon="-0.71091354824602603912353515625">
        <ele>974.5999755859375</ele>
        <time>2022-05-06T13:59:29.000Z</time>
      </trkpt>
      <trkpt lat="40.02499789930880069732666015625" lon="-0.71078203618526458740234375">
        <ele>975</ele>
        <time>2022-05-06T13:59:31.000Z</time>
      </trkpt>
      <trkpt lat="40.02501633949577808380126953125" lon="-0.7107174955308437347412109375">
        <ele>975.4000244140625</ele>
        <time>2022-05-06T13:59:32.000Z</time>
      </trkpt>
      <trkpt lat="40.02503612078726291656494140625" lon="-0.710652284324169158935546875">
        <ele>975.5999755859375</ele>
        <time>2022-05-06T13:59:33.000Z</time>
      </trkpt>
      <trkpt lat="40.02507283352315425872802734375" lon="-0.71052177809178829193115234375">
        <ele>976</ele>
        <time>2022-05-06T13:59:35.000Z</time>
      </trkpt>
      <trkpt lat="40.0251089595258235931396484375" lon="-0.7103909365832805633544921875">
        <ele>976</ele>
        <time>2022-05-06T13:59:37.000Z</time>
      </trkpt>
      <trkpt lat="40.0251448340713977813720703125" lon="-0.71025858633220195770263671875">
        <ele>976</ele>
        <time>2022-05-06T13:59:39.000Z</time>
      </trkpt>
      <trkpt lat="40.02516604028642177581787109375" lon="-0.710192285478115081787109375">
        <ele>976</ele>
        <time>2022-05-06T13:59:40.000Z</time>
      </trkpt>
      <trkpt lat="40.02518414519727230072021484375" lon="-0.71012615226209163665771484375">
        <ele>976</ele>
        <time>2022-05-06T13:59:41.000Z</time>
      </trkpt>
      <trkpt lat="40.02521918155252933502197265625" lon="-0.70999237708747386932373046875">
        <ele>976</ele>
        <time>2022-05-06T13:59:43.000Z</time>
      </trkpt>
      <trkpt lat="40.02525396645069122314453125" lon="-0.7098568417131900787353515625">
        <ele>976</ele>
        <time>2022-05-06T13:59:45.000Z</time>
      </trkpt>
      <trkpt lat="40.025290511548519134521484375" lon="-0.709722228348255157470703125">
        <ele>976.4000244140625</ele>
        <time>2022-05-06T13:59:47.000Z</time>
      </trkpt>
      <trkpt lat="40.02532831393182277679443359375" lon="-0.70958769880235195159912109375">
        <ele>976.20001220703125</ele>
        <time>2022-05-06T13:59:49.000Z</time>
      </trkpt>
      <trkpt lat="40.02534809522330760955810546875" lon="-0.70952014066278934478759765625">
        <ele>976</ele>
        <time>2022-05-06T13:59:50.000Z</time>
      </trkpt>
      <trkpt lat="40.02536527812480926513671875" lon="-0.70945107378065586090087890625">
        <ele>976</ele>
        <time>2022-05-06T13:59:51.000Z</time>
      </trkpt>
      <trkpt lat="40.02539210021495819091796875" lon="-0.70931025780737400054931640625">
        <ele>975.79998779296875</ele>
        <time>2022-05-06T13:59:53.000Z</time>
      </trkpt>
      <trkpt lat="40.02541582100093364715576171875" lon="-0.70916625671088695526123046875">
        <ele>975.5999755859375</ele>
        <time>2022-05-06T13:59:55.000Z</time>
      </trkpt>
      <trkpt lat="40.0254368595778942108154296875" lon="-0.70902384817600250244140625">
        <ele>975.5999755859375</ele>
        <time>2022-05-06T13:59:57.000Z</time>
      </trkpt>
      <trkpt lat="40.025453455746173858642578125" lon="-0.7088805176317691802978515625">
        <ele>975.79998779296875</ele>
        <time>2022-05-06T13:59:59.000Z</time>
      </trkpt>
      <trkpt lat="40.02546728588640689849853515625" lon="-0.7087343372404575347900390625">
        <ele>975.5999755859375</ele>
        <time>2022-05-06T14:00:01.000Z</time>
      </trkpt>
      <trkpt lat="40.02548203803598880767822265625" lon="-0.70859025232493877410888671875">
        <ele>975.4000244140625</ele>
        <time>2022-05-06T14:00:03.000Z</time>
      </trkpt>
      <trkpt lat="40.0254858098924160003662109375" lon="-0.70851816795766353607177734375">
        <ele>975.20001220703125</ele>
        <time>2022-05-06T14:00:04.000Z</time>
      </trkpt>
      <trkpt lat="40.02548840828239917755126953125" lon="-0.70844692178070545196533203125">
        <ele>975.20001220703125</ele>
        <time>2022-05-06T14:00:05.000Z</time>
      </trkpt>
      <trkpt lat="40.02548865973949432373046875" lon="-0.70830509997904300689697265625">
        <ele>975</ele>
        <time>2022-05-06T14:00:07.000Z</time>
      </trkpt>
      <trkpt lat="40.0254844687879085540771484375" lon="-0.70816461928188800811767578125">
        <ele>974.79998779296875</ele>
        <time>2022-05-06T14:00:09.000Z</time>
      </trkpt>
      <trkpt lat="40.02547181211411952972412109375" lon="-0.70802581496536731719970703125">
        <ele>974.79998779296875</ele>
        <time>2022-05-06T14:00:11.000Z</time>
      </trkpt>
      <trkpt lat="40.02545689232647418975830078125" lon="-0.70788851939141750335693359375">
        <ele>974.79998779296875</ele>
        <time>2022-05-06T14:00:13.000Z</time>
      </trkpt>
      <trkpt lat="40.02543610520660877227783203125" lon="-0.7077603600919246673583984375">
        <ele>975</ele>
        <time>2022-05-06T14:00:15.000Z</time>
      </trkpt>
      <trkpt lat="40.02541213296353816986083984375" lon="-0.707640834152698516845703125">
        <ele>975.20001220703125</ele>
        <time>2022-05-06T14:00:17.000Z</time>
      </trkpt>
      <trkpt lat="40.025398470461368560791015625" lon="-0.7075793109834194183349609375">
        <ele>975.4000244140625</ele>
        <time>2022-05-06T14:00:18.000Z</time>
      </trkpt>
      <trkpt lat="40.025384388864040374755859375" lon="-0.707515440881252288818359375">
        <ele>975.5999755859375</ele>
        <time>2022-05-06T14:00:19.000Z</time>
      </trkpt>
      <trkpt lat="40.02535396255552768707275390625" lon="-0.70738191716372966766357421875">
        <ele>976.20001220703125</ele>
        <time>2022-05-06T14:00:21.000Z</time>
      </trkpt>
      <trkpt lat="40.025317333638668060302734375" lon="-0.70724478922784328460693359375">
        <ele>976.5999755859375</ele>
        <time>2022-05-06T14:00:23.000Z</time>
      </trkpt>
      <trkpt lat="40.0252729095518589019775390625" lon="-0.707107074558734893798828125">
        <ele>976.79998779296875</ele>
        <time>2022-05-06T14:00:25.000Z</time>
      </trkpt>
      <trkpt lat="40.02522580325603485107421875" lon="-0.706967599689960479736328125">
        <ele>977.20001220703125</ele>
        <time>2022-05-06T14:00:27.000Z</time>
      </trkpt>
      <trkpt lat="40.0251740030944347381591796875" lon="-0.70682770572602748870849609375">
        <ele>977.79998779296875</ele>
        <time>2022-05-06T14:00:29.000Z</time>
      </trkpt>
      <trkpt lat="40.02511558122932910919189453125" lon="-0.70669225417077541351318359375">
        <ele>978.4000244140625</ele>
        <time>2022-05-06T14:00:31.000Z</time>
      </trkpt>
      <trkpt lat="40.02505204640328884124755859375" lon="-0.7065597362816333770751953125">
        <ele>978.4000244140625</ele>
        <time>2022-05-06T14:00:33.000Z</time>
      </trkpt>
      <trkpt lat="40.02498247660696506500244140625" lon="-0.706432498991489410400390625">
        <ele>978.5999755859375</ele>
        <time>2022-05-06T14:00:35.000Z</time>
      </trkpt>
      <trkpt lat="40.02491676248610019683837890625" lon="-0.70630635134875774383544921875">
        <ele>978.5999755859375</ele>
        <time>2022-05-06T14:00:37.000Z</time>
      </trkpt>
      <trkpt lat="40.0248469412326812744140625" lon="-0.70618330501019954681396484375">
        <ele>978.79998779296875</ele>
        <time>2022-05-06T14:00:39.000Z</time>
      </trkpt>
      <trkpt lat="40.02481282688677310943603515625" lon="-0.70612211711704730987548828125">
        <ele>978.79998779296875</ele>
        <time>2022-05-06T14:00:40.000Z</time>
      </trkpt>
      <trkpt lat="40.02477980218827724456787109375" lon="-0.70606042630970478057861328125">
        <ele>978.5999755859375</ele>
        <time>2022-05-06T14:00:41.000Z</time>
      </trkpt>
      <trkpt lat="40.0247116573154926300048828125" lon="-0.705938637256622314453125">
        <ele>977.79998779296875</ele>
        <time>2022-05-06T14:00:43.000Z</time>
      </trkpt>
      <trkpt lat="40.02464418299496173858642578125" lon="-0.7058154232800006866455078125">
        <ele>977</ele>
        <time>2022-05-06T14:00:45.000Z</time>
      </trkpt>
      <trkpt lat="40.02457939088344573974609375" lon="-0.705696232616901397705078125">
        <ele>976.4000244140625</ele>
        <time>2022-05-06T14:00:47.000Z</time>
      </trkpt>
      <trkpt lat="40.02451560460031032562255859375" lon="-0.70558525621891021728515625">
        <ele>975.79998779296875</ele>
        <time>2022-05-06T14:00:49.000Z</time>
      </trkpt>
      <trkpt lat="40.02445139922201633453369140625" lon="-0.7054751180112361907958984375">
        <ele>975.79998779296875</ele>
        <time>2022-05-06T14:00:51.000Z</time>
      </trkpt>
      <trkpt lat="40.0243881158530712127685546875" lon="-0.70536238141357898712158203125">
        <ele>975.79998779296875</ele>
        <time>2022-05-06T14:00:53.000Z</time>
      </trkpt>
      <trkpt lat="40.02432399429380893707275390625" lon="-0.705249644815921783447265625">
        <ele>975.79998779296875</ele>
        <time>2022-05-06T14:00:55.000Z</time>
      </trkpt>
      <trkpt lat="40.024260543286800384521484375" lon="-0.70513405837118625640869140625">
        <ele>975.79998779296875</ele>
        <time>2022-05-06T14:00:57.000Z</time>
      </trkpt>
      <trkpt lat="40.02419843338429927825927734375" lon="-0.70501453243196010589599609375">
        <ele>975.79998779296875</ele>
        <time>2022-05-06T14:00:59.000Z</time>
      </trkpt>
      <trkpt lat="40.0241664983332157135009765625" lon="-0.70495493710041046142578125">
        <ele>976</ele>
        <time>2022-05-06T14:01:00.000Z</time>
      </trkpt>
      <trkpt lat="40.024134479463100433349609375" lon="-0.7048960961401462554931640625">
        <ele>976</ele>
        <time>2022-05-06T14:01:01.000Z</time>
      </trkpt>
      <trkpt lat="40.02407203428447246551513671875" lon="-0.704783610999584197998046875">
        <ele>976.20001220703125</ele>
        <time>2022-05-06T14:01:03.000Z</time>
      </trkpt>
      <trkpt lat="40.0240116007626056671142578125" lon="-0.70467003621160984039306640625">
        <ele>976.4000244140625</ele>
        <time>2022-05-06T14:01:05.000Z</time>
      </trkpt>
      <trkpt lat="40.023947060108184814453125" lon="-0.704554617404937744140625">
        <ele>977</ele>
        <time>2022-05-06T14:01:07.000Z</time>
      </trkpt>
      <trkpt lat="40.02388210035860538482666015625" lon="-0.70443852804601192474365234375">
        <ele>977.20001220703125</ele>
        <time>2022-05-06T14:01:09.000Z</time>
      </trkpt>
      <trkpt lat="40.02381823025643825531005859375" lon="-0.7043221034109592437744140625">
        <ele>977.5999755859375</ele>
        <time>2022-05-06T14:01:11.000Z</time>
      </trkpt>
      <trkpt lat="40.023786462843418121337890625" lon="-0.70426317863166332244873046875">
        <ele>977.5999755859375</ele>
        <time>2022-05-06T14:01:12.000Z</time>
      </trkpt>
      <trkpt lat="40.02375335432589054107666015625" lon="-0.70420534349977970123291015625">
        <ele>977.79998779296875</ele>
        <time>2022-05-06T14:01:13.000Z</time>
      </trkpt>
      <trkpt lat="40.023688562214374542236328125" lon="-0.70408866740763187408447265625">
        <ele>978.20001220703125</ele>
        <time>2022-05-06T14:01:15.000Z</time>
      </trkpt>
      <trkpt lat="40.02362318336963653564453125" lon="-0.70396813564002513885498046875">
        <ele>978.5999755859375</ele>
        <time>2022-05-06T14:01:17.000Z</time>
      </trkpt>
      <trkpt lat="40.02355772070586681365966796875" lon="-0.70385129190981388092041015625">
        <ele>979</ele>
        <time>2022-05-06T14:01:19.000Z</time>
      </trkpt>
      <trkpt lat="40.02352503128349781036376953125" lon="-0.703791864216327667236328125">
        <ele>979.20001220703125</ele>
        <time>2022-05-06T14:01:20.000Z</time>
      </trkpt>
      <trkpt lat="40.02349309623241424560546875" lon="-0.70373193360865116119384765625">
        <ele>979.4000244140625</ele>
        <time>2022-05-06T14:01:21.000Z</time>
      </trkpt>
      <trkpt lat="40.0234282203018665313720703125" lon="-0.703611485660076141357421875">
        <ele>980</ele>
        <time>2022-05-06T14:01:23.000Z</time>
      </trkpt>
      <trkpt lat="40.0233611650764942169189453125" lon="-0.70349103771150112152099609375">
        <ele>980.4000244140625</ele>
        <time>2022-05-06T14:01:25.000Z</time>
      </trkpt>
      <trkpt lat="40.02329922281205654144287109375" lon="-0.7033746130764484405517578125">
        <ele>980.20001220703125</ele>
        <time>2022-05-06T14:01:27.000Z</time>
      </trkpt>
      <trkpt lat="40.02326787449419498443603515625" lon="-0.703319124877452850341796875">
        <ele>980</ele>
        <time>2022-05-06T14:01:28.000Z</time>
      </trkpt>
      <trkpt lat="40.02323736436665058135986328125" lon="-0.70326380431652069091796875">
        <ele>979.79998779296875</ele>
        <time>2022-05-06T14:01:29.000Z</time>
      </trkpt>
      <trkpt lat="40.02317751757800579071044921875" lon="-0.70315458811819553375244140625">
        <ele>979.4000244140625</ele>
        <time>2022-05-06T14:01:31.000Z</time>
      </trkpt>
      <trkpt lat="40.02311465330421924591064453125" lon="-0.703042857348918914794921875">
        <ele>979</ele>
        <time>2022-05-06T14:01:33.000Z</time>
      </trkpt>
      <trkpt lat="40.02304910682141780853271484375" lon="-0.702930204570293426513671875">
        <ele>978.79998779296875</ele>
        <time>2022-05-06T14:01:35.000Z</time>
      </trkpt>
      <trkpt lat="40.02301574684679508209228515625" lon="-0.70287220180034637451171875">
        <ele>978.5999755859375</ele>
        <time>2022-05-06T14:01:36.000Z</time>
      </trkpt>
      <trkpt lat="40.02298054285347461700439453125" lon="-0.7028177194297313690185546875">
        <ele>978.5999755859375</ele>
        <time>2022-05-06T14:01:37.000Z</time>
      </trkpt>
      <trkpt lat="40.02290795557200908660888671875" lon="-0.70271085016429424285888671875">
        <ele>978.5999755859375</ele>
        <time>2022-05-06T14:01:39.000Z</time>
      </trkpt>
      <trkpt lat="40.02283050678670406341552734375" lon="-0.702602304518222808837890625">
        <ele>978.5999755859375</ele>
        <time>2022-05-06T14:01:41.000Z</time>
      </trkpt>
      <trkpt lat="40.0227523036301136016845703125" lon="-0.70249459706246852874755859375">
        <ele>978.5999755859375</ele>
        <time>2022-05-06T14:01:43.000Z</time>
      </trkpt>
      <trkpt lat="40.0226704962551593780517578125" lon="-0.7023915834724903106689453125">
        <ele>978.5999755859375</ele>
        <time>2022-05-06T14:01:45.000Z</time>
      </trkpt>
      <trkpt lat="40.0226299278438091278076171875" lon="-0.70234112441539764404296875">
        <ele>978.5999755859375</ele>
        <time>2022-05-06T14:01:46.000Z</time>
      </trkpt>
      <trkpt lat="40.0225893594324588775634765625" lon="-0.70229242555797100067138671875">
        <ele>978.5999755859375</ele>
        <time>2022-05-06T14:01:47.000Z</time>
      </trkpt>
      <trkpt lat="40.02250914461910724639892578125" lon="-0.7022001408040523529052734375">
        <ele>978.4000244140625</ele>
        <time>2022-05-06T14:01:49.000Z</time>
      </trkpt>
      <trkpt lat="40.02242951653897762298583984375" lon="-0.70210718549787998199462890625">
        <ele>978.5999755859375</ele>
        <time>2022-05-06T14:01:51.000Z</time>
      </trkpt>
      <trkpt lat="40.02234301529824733734130859375" lon="-0.702017582952976226806640625">
        <ele>978.79998779296875</ele>
        <time>2022-05-06T14:01:53.000Z</time>
      </trkpt>
      <trkpt lat="40.02225617878139019012451171875" lon="-0.70192932151257991790771484375">
        <ele>978.79998779296875</ele>
        <time>2022-05-06T14:01:55.000Z</time>
      </trkpt>
      <trkpt lat="40.022169761359691619873046875" lon="-0.7018447481095790863037109375">
        <ele>979</ele>
        <time>2022-05-06T14:01:57.000Z</time>
      </trkpt>
      <trkpt lat="40.0220810808241367340087890625" lon="-0.7017599232494831085205078125">
        <ele>979</ele>
        <time>2022-05-06T14:01:59.000Z</time>
      </trkpt>
      <trkpt lat="40.0219969265162944793701171875" lon="-0.70167593657970428466796875">
        <ele>979.4000244140625</ele>
        <time>2022-05-06T14:02:01.000Z</time>
      </trkpt>
      <trkpt lat="40.021913610398769378662109375" lon="-0.701597146689891815185546875">
        <ele>980</ele>
        <time>2022-05-06T14:02:03.000Z</time>
      </trkpt>
      <trkpt lat="40.02183339558541774749755859375" lon="-0.70152095519006252288818359375">
        <ele>980</ele>
        <time>2022-05-06T14:02:05.000Z</time>
      </trkpt>
      <trkpt lat="40.021749995648860931396484375" lon="-0.70144233293831348419189453125">
        <ele>979.79998779296875</ele>
        <time>2022-05-06T14:02:07.000Z</time>
      </trkpt>
      <trkpt lat="40.0216636620461940765380859375" lon="-0.7013669796288013458251953125">
        <ele>979.5999755859375</ele>
        <time>2022-05-06T14:02:09.000Z</time>
      </trkpt>
      <trkpt lat="40.02157707698643207550048828125" lon="-0.701290704309940338134765625">
        <ele>979.5999755859375</ele>
        <time>2022-05-06T14:02:11.000Z</time>
      </trkpt>
      <trkpt lat="40.021532066166400909423828125" lon="-0.70125290192663669586181640625">
        <ele>979.5999755859375</ele>
        <time>2022-05-06T14:02:12.000Z</time>
      </trkpt>
      <trkpt lat="40.02148672007024288177490234375" lon="-0.7012166082859039306640625">
        <ele>979.79998779296875</ele>
        <time>2022-05-06T14:02:13.000Z</time>
      </trkpt>
      <trkpt lat="40.021394602954387664794921875" lon="-0.70114410482347011566162109375">
        <ele>979.5999755859375</ele>
        <time>2022-05-06T14:02:15.000Z</time>
      </trkpt>
      <trkpt lat="40.02129879780113697052001953125" lon="-0.7010719366371631622314453125">
        <ele>979</ele>
        <time>2022-05-06T14:02:17.000Z</time>
      </trkpt>
      <trkpt lat="40.021200813353061676025390625" lon="-0.701004378497600555419921875">
        <ele>979</ele>
        <time>2022-05-06T14:02:19.000Z</time>
      </trkpt>
      <trkpt lat="40.02110148780047893524169921875" lon="-0.7009381614625453948974609375">
        <ele>979.5999755859375</ele>
        <time>2022-05-06T14:02:21.000Z</time>
      </trkpt>
      <trkpt lat="40.02099931240081787109375" lon="-0.70087471045553684234619140625">
        <ele>980</ele>
        <time>2022-05-06T14:02:23.000Z</time>
      </trkpt>
      <trkpt lat="40.020894706249237060546875" lon="-0.7008154504001140594482421875">
        <ele>980.4000244140625</ele>
        <time>2022-05-06T14:02:25.000Z</time>
      </trkpt>
      <trkpt lat="40.02078934572637081146240234375" lon="-0.70075820200145244598388671875">
        <ele>980.79998779296875</ele>
        <time>2022-05-06T14:02:27.000Z</time>
      </trkpt>
      <trkpt lat="40.02068088389933109283447265625" lon="-0.700706653296947479248046875">
        <ele>981.4000244140625</ele>
        <time>2022-05-06T14:02:29.000Z</time>
      </trkpt>
      <trkpt lat="40.020572505891323089599609375" lon="-0.70065678097307682037353515625">
        <ele>981.79998779296875</ele>
        <time>2022-05-06T14:02:31.000Z</time>
      </trkpt>
      <trkpt lat="40.020463876426219940185546875" lon="-0.7006050646305084228515625">
        <ele>982.4000244140625</ele>
        <time>2022-05-06T14:02:33.000Z</time>
      </trkpt>
      <trkpt lat="40.0203537382185459136962890625" lon="-0.70055477321147918701171875">
        <ele>982.79998779296875</ele>
        <time>2022-05-06T14:02:35.000Z</time>
      </trkpt>
      <trkpt lat="40.0202434323728084564208984375" lon="-0.70050942711532115936279296875">
        <ele>983.5999755859375</ele>
        <time>2022-05-06T14:02:37.000Z</time>
      </trkpt>
      <trkpt lat="40.0201327912509441375732421875" lon="-0.70046047680079936981201171875">
        <ele>984.4000244140625</ele>
        <time>2022-05-06T14:02:39.000Z</time>
      </trkpt>
      <trkpt lat="40.02002173103392124176025390625" lon="-0.70040985010564327239990234375">
        <ele>985.4000244140625</ele>
        <time>2022-05-06T14:02:41.000Z</time>
      </trkpt>
      <trkpt lat="40.01990941353142261505126953125" lon="-0.70036358200013637542724609375">
        <ele>986.20001220703125</ele>
        <time>2022-05-06T14:02:43.000Z</time>
      </trkpt>
      <trkpt lat="40.0198531709611415863037109375" lon="-0.70033944211900234222412109375">
        <ele>986.79998779296875</ele>
        <time>2022-05-06T14:02:44.000Z</time>
      </trkpt>
      <trkpt lat="40.0197975151240825653076171875" lon="-0.70031546987593173980712890625">
        <ele>987.20001220703125</ele>
        <time>2022-05-06T14:02:45.000Z</time>
      </trkpt>
      <trkpt lat="40.01968461088836193084716796875" lon="-0.7002666033804416656494140625">
        <ele>986.5999755859375</ele>
        <time>2022-05-06T14:02:47.000Z</time>
      </trkpt>
      <trkpt lat="40.01957480795681476593017578125" lon="-0.70021505467593669891357421875">
        <ele>986.20001220703125</ele>
        <time>2022-05-06T14:02:49.000Z</time>
      </trkpt>
      <trkpt lat="40.019468106329441070556640625" lon="-0.7001680321991443634033203125">
        <ele>986.5999755859375</ele>
        <time>2022-05-06T14:02:51.000Z</time>
      </trkpt>
      <trkpt lat="40.019361488521099090576171875" lon="-0.70012117736041545867919921875">
        <ele>987</ele>
        <time>2022-05-06T14:02:53.000Z</time>
      </trkpt>
      <trkpt lat="40.01930926926434040069580078125" lon="-0.7000966183841228485107421875">
        <ele>987</ele>
        <time>2022-05-06T14:02:54.000Z</time>
      </trkpt>
      <trkpt lat="40.01925646327435970306396484375" lon="-0.7000728137791156768798828125">
        <ele>987.20001220703125</ele>
        <time>2022-05-06T14:02:55.000Z</time>
      </trkpt>
      <trkpt lat="40.0191507674753665924072265625" lon="-0.70002662949264049530029296875">
        <ele>987.20001220703125</ele>
        <time>2022-05-06T14:02:57.000Z</time>
      </trkpt>
      <trkpt lat="40.01904733479022979736328125" lon="-0.6999799422919750213623046875">
        <ele>987</ele>
        <time>2022-05-06T14:02:59.000Z</time>
      </trkpt>
      <trkpt lat="40.0189439021050930023193359375" lon="-0.69993174634873867034912109375">
        <ele>986.79998779296875</ele>
        <time>2022-05-06T14:03:01.000Z</time>
      </trkpt>
      <trkpt lat="40.0188932754099369049072265625" lon="-0.69990928284823894500732421875">
        <ele>986.5999755859375</ele>
        <time>2022-05-06T14:03:02.000Z</time>
      </trkpt>
      <trkpt lat="40.01884348690509796142578125" lon="-0.69988690316677093505859375">
        <ele>986.4000244140625</ele>
        <time>2022-05-06T14:03:03.000Z</time>
      </trkpt>
      <trkpt lat="40.0187464244663715362548828125" lon="-0.6998394615948200225830078125">
        <ele>986.20001220703125</ele>
        <time>2022-05-06T14:03:05.000Z</time>
      </trkpt>
      <trkpt lat="40.0186510384082794189453125" lon="-0.699791349470615386962890625">
        <ele>985.4000244140625</ele>
        <time>2022-05-06T14:03:07.000Z</time>
      </trkpt>
      <trkpt lat="40.01855657435953617095947265625" lon="-0.69974298588931560516357421875">
        <ele>985</ele>
        <time>2022-05-06T14:03:09.000Z</time>
      </trkpt>
      <trkpt lat="40.01847074367105960845947265625" lon="-0.69969738833606243133544921875">
        <ele>984.5999755859375</ele>
        <time>2022-05-06T14:03:11.000Z</time>
      </trkpt>
      <trkpt lat="40.0184282474219799041748046875" lon="-0.69967643357813358306884765625">
        <ele>984.5999755859375</ele>
        <time>2022-05-06T14:03:12.000Z</time>
      </trkpt>
      <trkpt lat="40.01838357187807559967041015625" lon="-0.69965422153472900390625">
        <ele>984.79998779296875</ele>
        <time>2022-05-06T14:03:13.000Z</time>
      </trkpt>
      <trkpt lat="40.01829564571380615234375" lon="-0.69960988126695156097412109375">
        <ele>984.79998779296875</ele>
        <time>2022-05-06T14:03:15.000Z</time>
      </trkpt>
      <trkpt lat="40.01820704899728298187255859375" lon="-0.6995702348649501800537109375">
        <ele>984.79998779296875</ele>
        <time>2022-05-06T14:03:17.000Z</time>
      </trkpt>
      <trkpt lat="40.0181177817285060882568359375" lon="-0.69953612051904201507568359375">
        <ele>985</ele>
        <time>2022-05-06T14:03:19.000Z</time>
      </trkpt>
      <trkpt lat="40.01804494298994541168212890625" lon="-0.69950678385794162750244140625">
        <ele>985</ele>
        <time>2022-05-06T14:03:21.000Z</time>
      </trkpt>
      <trkpt lat="40.01799196936190128326416015625" lon="-0.6994758546352386474609375">
        <ele>984.79998779296875</ele>
        <time>2022-05-06T14:03:23.000Z</time>
      </trkpt>
      <trkpt lat="40.0179474614560604095458984375" lon="-0.69944710470736026763916015625">
        <ele>984.79998779296875</ele>
        <time>2022-05-06T14:03:25.000Z</time>
      </trkpt>
      <trkpt lat="40.01792759634554386138916015625" lon="-0.69943721406161785125732421875">
        <ele>984.79998779296875</ele>
        <time>2022-05-06T14:03:26.000Z</time>
      </trkpt>
      <trkpt lat="40.0179112516343593597412109375" lon="-0.69942866452038288116455078125">
        <ele>984.79998779296875</ele>
        <time>2022-05-06T14:03:27.000Z</time>
      </trkpt>
      <trkpt lat="40.01787764020264148712158203125" lon="-0.699404440820217132568359375">
        <ele>984.79998779296875</ele>
        <time>2022-05-06T14:03:29.000Z</time>
      </trkpt>
      <trkpt lat="40.01783656887710094451904296875" lon="-0.699374936521053314208984375">
        <ele>984.79998779296875</ele>
        <time>2022-05-06T14:03:31.000Z</time>
      </trkpt>
      <trkpt lat="40.017780996859073638916015625" lon="-0.69933646358549594879150390625">
        <ele>984.79998779296875</ele>
        <time>2022-05-06T14:03:33.000Z</time>
      </trkpt>
      <trkpt lat="40.01771184615790843963623046875" lon="-0.6992922909557819366455078125">
        <ele>984.79998779296875</ele>
        <time>2022-05-06T14:03:35.000Z</time>
      </trkpt>
      <trkpt lat="40.0176393426954746246337890625" lon="-0.69924761541187763214111328125">
        <ele>984.79998779296875</ele>
        <time>2022-05-06T14:03:37.000Z</time>
      </trkpt>
      <trkpt lat="40.017568767070770263671875" lon="-0.69920302368700504302978515625">
        <ele>984.79998779296875</ele>
        <time>2022-05-06T14:03:39.000Z</time>
      </trkpt>
      <trkpt lat="40.01753213815391063690185546875" lon="-0.6991793029010295867919921875">
        <ele>984.79998779296875</ele>
        <time>2022-05-06T14:03:40.000Z</time>
      </trkpt>
      <trkpt lat="40.0174934975802898406982421875" lon="-0.69915642030537128448486328125">
        <ele>985</ele>
        <time>2022-05-06T14:03:41.000Z</time>
      </trkpt>
      <trkpt lat="40.017411522567272186279296875" lon="-0.699115097522735595703125">
        <ele>985</ele>
        <time>2022-05-06T14:03:43.000Z</time>
      </trkpt>
      <trkpt lat="40.0173335708677768707275390625" lon="-0.69907176308333873748779296875">
        <ele>985</ele>
        <time>2022-05-06T14:03:45.000Z</time>
      </trkpt>
      <trkpt lat="40.0172956846654415130615234375" lon="-0.69904997013509273529052734375">
        <ele>985.20001220703125</ele>
        <time>2022-05-06T14:03:46.000Z</time>
      </trkpt>
      <trkpt lat="40.0172567926347255706787109375" lon="-0.69902633316814899444580078125">
        <ele>985.20001220703125</ele>
        <time>2022-05-06T14:03:47.000Z</time>
      </trkpt>
      <trkpt lat="40.01717423088848590850830078125" lon="-0.69897838868200778961181640625">
        <ele>985.20001220703125</ele>
        <time>2022-05-06T14:03:49.000Z</time>
      </trkpt>
      <trkpt lat="40.0170931778848171234130859375" lon="-0.69893077947199344635009765625">
        <ele>985.20001220703125</ele>
        <time>2022-05-06T14:03:51.000Z</time>
      </trkpt>
      <trkpt lat="40.01704967580735683441162109375" lon="-0.698908232152462005615234375">
        <ele>985.20001220703125</ele>
        <time>2022-05-06T14:03:52.000Z</time>
      </trkpt>
      <trkpt lat="40.0170063413679599761962890625" lon="-0.69888643920421600341796875">
        <ele>985.20001220703125</ele>
        <time>2022-05-06T14:03:53.000Z</time>
      </trkpt>
      <trkpt lat="40.0169169902801513671875" lon="-0.69884092546999454498291015625">
        <ele>985.4000244140625</ele>
        <time>2022-05-06T14:03:55.000Z</time>
      </trkpt>
      <trkpt lat="40.0168269686400890350341796875" lon="-0.69879666902124881744384765625">
        <ele>985.5999755859375</ele>
        <time>2022-05-06T14:03:57.000Z</time>
      </trkpt>
      <trkpt lat="40.01678220927715301513671875" lon="-0.698771439492702484130859375">
        <ele>985.79998779296875</ele>
        <time>2022-05-06T14:03:58.000Z</time>
      </trkpt>
      <trkpt lat="40.0167384557425975799560546875" lon="-0.6987464614212512969970703125">
        <ele>985.79998779296875</ele>
        <time>2022-05-06T14:03:59.000Z</time>
      </trkpt>
      <trkpt lat="40.01665472052991390228271484375" lon="-0.698701702058315277099609375">
        <ele>986</ele>
        <time>2022-05-06T14:04:01.000Z</time>
      </trkpt>
      <trkpt lat="40.0165771879255771636962890625" lon="-0.69865551777184009552001953125">
        <ele>986.20001220703125</ele>
        <time>2022-05-06T14:04:03.000Z</time>
      </trkpt>
      <trkpt lat="40.0165359489619731903076171875" lon="-0.6986388377845287322998046875">
        <ele>986.4000244140625</ele>
        <time>2022-05-06T14:04:04.000Z</time>
      </trkpt>
      <trkpt lat="40.01648959703743457794189453125" lon="-0.69861645810306072235107421875">
        <ele>986.4000244140625</ele>
        <time>2022-05-06T14:04:05.000Z</time>
      </trkpt>
      <trkpt lat="40.0164006650447845458984375" lon="-0.6985691003501415252685546875">
        <ele>986.5999755859375</ele>
        <time>2022-05-06T14:04:07.000Z</time>
      </trkpt>
      <trkpt lat="40.0163559056818485260009765625" lon="-0.69854370318353176116943359375">
        <ele>986.79998779296875</ele>
        <time>2022-05-06T14:04:08.000Z</time>
      </trkpt>
      <trkpt lat="40.01631022430956363677978515625" lon="-0.698516629636287689208984375">
        <ele>986.79998779296875</ele>
        <time>2022-05-06T14:04:09.000Z</time>
      </trkpt>
      <trkpt lat="40.0162263214588165283203125" lon="-0.698469020426273345947265625">
        <ele>987</ele>
        <time>2022-05-06T14:04:11.000Z</time>
      </trkpt>
      <trkpt lat="40.016140826046466827392578125" lon="-0.69841981865465641021728515625">
        <ele>987</ele>
        <time>2022-05-06T14:04:13.000Z</time>
      </trkpt>
      <trkpt lat="40.01609749160706996917724609375" lon="-0.69839450530707836151123046875">
        <ele>987</ele>
        <time>2022-05-06T14:04:14.000Z</time>
      </trkpt>
      <trkpt lat="40.01605222932994365692138671875" lon="-0.6983672641217708587646484375">
        <ele>987</ele>
        <time>2022-05-06T14:04:15.000Z</time>
      </trkpt>
      <trkpt lat="40.01596304588019847869873046875" lon="-0.69830951280891895294189453125">
        <ele>987</ele>
        <time>2022-05-06T14:04:17.000Z</time>
      </trkpt>
      <trkpt lat="40.01588232815265655517578125" lon="-0.69825553335249423980712890625">
        <ele>987.20001220703125</ele>
        <time>2022-05-06T14:04:19.000Z</time>
      </trkpt>
      <trkpt lat="40.0158449448645114898681640625" lon="-0.6982334889471530914306640625">
        <ele>987.20001220703125</ele>
        <time>2022-05-06T14:04:20.000Z</time>
      </trkpt>
      <trkpt lat="40.0158070586621761322021484375" lon="-0.69821597076952457427978515625">
        <ele>987.4000244140625</ele>
        <time>2022-05-06T14:04:21.000Z</time>
      </trkpt>
      <trkpt lat="40.0157282687723636627197265625" lon="-0.69817976094782352447509765625">
        <ele>987.4000244140625</ele>
        <time>2022-05-06T14:04:23.000Z</time>
      </trkpt>
      <trkpt lat="40.01564570702612400054931640625" lon="-0.69813273847103118896484375">
        <ele>987.5999755859375</ele>
        <time>2022-05-06T14:04:25.000Z</time>
      </trkpt>
      <trkpt lat="40.01556172035634517669677734375" lon="-0.69808152504265308380126953125">
        <ele>987.79998779296875</ele>
        <time>2022-05-06T14:04:27.000Z</time>
      </trkpt>
      <trkpt lat="40.01551930792629718780517578125" lon="-0.69805671460926532745361328125">
        <ele>987.79998779296875</ele>
        <time>2022-05-06T14:04:28.000Z</time>
      </trkpt>
      <trkpt lat="40.01547723077237606048583984375" lon="-0.69803374819457530975341796875">
        <ele>988</ele>
        <time>2022-05-06T14:04:29.000Z</time>
      </trkpt>
      <trkpt lat="40.0153929926455020904541015625" lon="-0.6979904137551784515380859375">
        <ele>988</ele>
        <time>2022-05-06T14:04:31.000Z</time>
      </trkpt>
      <trkpt lat="40.0153001211583614349365234375" lon="-0.69794724695384502410888671875">
        <ele>988.4000244140625</ele>
        <time>2022-05-06T14:04:33.000Z</time>
      </trkpt>
      <trkpt lat="40.01519392244517803192138671875" lon="-0.69789108820259571075439453125">
        <ele>988.5999755859375</ele>
        <time>2022-05-06T14:04:35.000Z</time>
      </trkpt>
      <trkpt lat="40.01508613117039203643798828125" lon="-0.6978316605091094970703125">
        <ele>989</ele>
        <time>2022-05-06T14:04:37.000Z</time>
      </trkpt>
      <trkpt lat="40.01498219557106494903564453125" lon="-0.69777709431946277618408203125">
        <ele>989.20001220703125</ele>
        <time>2022-05-06T14:04:39.000Z</time>
      </trkpt>
      <trkpt lat="40.01488161273300647735595703125" lon="-0.697721354663372039794921875">
        <ele>989.5999755859375</ele>
        <time>2022-05-06T14:04:41.000Z</time>
      </trkpt>
      <trkpt lat="40.01478019170463085174560546875" lon="-0.69766108877956867218017578125">
        <ele>989.4000244140625</ele>
        <time>2022-05-06T14:04:43.000Z</time>
      </trkpt>
      <trkpt lat="40.0146755017340183258056640625" lon="-0.6976063549518585205078125">
        <ele>989.4000244140625</ele>
        <time>2022-05-06T14:04:45.000Z</time>
      </trkpt>
      <trkpt lat="40.0145705603063106536865234375" lon="-0.69755564443767070770263671875">
        <ele>989.4000244140625</ele>
        <time>2022-05-06T14:04:47.000Z</time>
      </trkpt>
      <trkpt lat="40.01446939073503017425537109375" lon="-0.69750367663800716400146484375">
        <ele>989.79998779296875</ele>
        <time>2022-05-06T14:04:49.000Z</time>
      </trkpt>
      <trkpt lat="40.01436931081116199493408203125" lon="-0.6974573247134685516357421875">
        <ele>990.20001220703125</ele>
        <time>2022-05-06T14:04:51.000Z</time>
      </trkpt>
      <trkpt lat="40.01431885175406932830810546875" lon="-0.69743796251714229583740234375">
        <ele>990.4000244140625</ele>
        <time>2022-05-06T14:04:52.000Z</time>
      </trkpt>
      <trkpt lat="40.01426856033504009246826171875" lon="-0.69742136634886264801025390625">
        <ele>990.79998779296875</ele>
        <time>2022-05-06T14:04:53.000Z</time>
      </trkpt>
      <trkpt lat="40.014167390763759613037109375" lon="-0.69737878628075122833251953125">
        <ele>991.20001220703125</ele>
        <time>2022-05-06T14:04:55.000Z</time>
      </trkpt>
      <trkpt lat="40.01406471244990825653076171875" lon="-0.697334110736846923828125">
        <ele>991.5999755859375</ele>
        <time>2022-05-06T14:04:57.000Z</time>
      </trkpt>
      <trkpt lat="40.01396060921251773834228515625" lon="-0.6972927041351795196533203125">
        <ele>992</ele>
        <time>2022-05-06T14:04:59.000Z</time>
      </trkpt>
      <trkpt lat="40.0138587690889835357666015625" lon="-0.697252638638019561767578125">
        <ele>992.5999755859375</ele>
        <time>2022-05-06T14:05:01.000Z</time>
      </trkpt>
      <trkpt lat="40.01375575549900531768798828125" lon="-0.69721181876957416534423828125">
        <ele>993</ele>
        <time>2022-05-06T14:05:03.000Z</time>
      </trkpt>
      <trkpt lat="40.01365743577480316162109375" lon="-0.69717527367174625396728515625">
        <ele>993.20001220703125</ele>
        <time>2022-05-06T14:05:05.000Z</time>
      </trkpt>
      <trkpt lat="40.0135560147464275360107421875" lon="-0.6971371360123157501220703125">
        <ele>993.4000244140625</ele>
        <time>2022-05-06T14:05:07.000Z</time>
      </trkpt>
      <trkpt lat="40.013456605374813079833984375" lon="-0.6971093080937862396240234375">
        <ele>993.5999755859375</ele>
        <time>2022-05-06T14:05:09.000Z</time>
      </trkpt>
      <trkpt lat="40.0133561901748180389404296875" lon="-0.697083659470081329345703125">
        <ele>993.79998779296875</ele>
        <time>2022-05-06T14:05:11.000Z</time>
      </trkpt>
      <trkpt lat="40.0132606364786624908447265625" lon="-0.69705792702734470367431640625">
        <ele>994</ele>
        <time>2022-05-06T14:05:13.000Z</time>
      </trkpt>
      <trkpt lat="40.013163574039936065673828125" lon="-0.69703378714621067047119140625">
        <ele>994.20001220703125</ele>
        <time>2022-05-06T14:05:15.000Z</time>
      </trkpt>
      <trkpt lat="40.01307631842792034149169921875" lon="-0.69701065309345722198486328125">
        <ele>994.20001220703125</ele>
        <time>2022-05-06T14:05:17.000Z</time>
      </trkpt>
      <trkpt lat="40.01298797316849231719970703125" lon="-0.696983076632022857666015625">
        <ele>994</ele>
        <time>2022-05-06T14:05:19.000Z</time>
      </trkpt>
      <trkpt lat="40.01289778389036655426025390625" lon="-0.69696069695055484771728515625">
        <ele>993.79998779296875</ele>
        <time>2022-05-06T14:05:21.000Z</time>
      </trkpt>
      <trkpt lat="40.01285503618419170379638671875" lon="-0.6969473697245121002197265625">
        <ele>993.79998779296875</ele>
        <time>2022-05-06T14:05:22.000Z</time>
      </trkpt>
      <trkpt lat="40.01281329430639743804931640625" lon="-0.69693379104137420654296875">
        <ele>993.79998779296875</ele>
        <time>2022-05-06T14:05:23.000Z</time>
      </trkpt>
      <trkpt lat="40.01272629015147686004638671875" lon="-0.6969081424176692962646484375">
        <ele>993.79998779296875</ele>
        <time>2022-05-06T14:05:25.000Z</time>
      </trkpt>
      <trkpt lat="40.01264029182493686676025390625" lon="-0.69688928313553333282470703125">
        <ele>993.79998779296875</ele>
        <time>2022-05-06T14:05:27.000Z</time>
      </trkpt>
      <trkpt lat="40.01256267540156841278076171875" lon="-0.69687067531049251556396484375">
        <ele>993.79998779296875</ele>
        <time>2022-05-06T14:05:29.000Z</time>
      </trkpt>
      <trkpt lat="40.0124948658049106597900390625" lon="-0.69685600697994232177734375">
        <ele>993.79998779296875</ele>
        <time>2022-05-06T14:05:31.000Z</time>
      </trkpt>
      <trkpt lat="40.0124371983110904693603515625" lon="-0.696838907897472381591796875">
        <ele>993.79998779296875</ele>
        <time>2022-05-06T14:05:33.000Z</time>
      </trkpt>
      <trkpt lat="40.01238397322595119476318359375" lon="-0.69682206027209758758544921875">
        <ele>993.79998779296875</ele>
        <time>2022-05-06T14:05:35.000Z</time>
      </trkpt>
      <trkpt lat="40.0123429857194423675537109375" lon="-0.6968089006841182708740234375">
        <ele>993.5999755859375</ele>
        <time>2022-05-06T14:05:37.000Z</time>
      </trkpt>
      <trkpt lat="40.01231121830642223358154296875" lon="-0.69680781103670597076416015625">
        <ele>993.5999755859375</ele>
        <time>2022-05-06T14:05:39.000Z</time>
      </trkpt>
      <trkpt lat="40.01230618916451930999755859375" lon="-0.69680772721767425537109375">
        <ele>993.5999755859375</ele>
        <time>2022-05-06T14:05:40.000Z</time>
      </trkpt>
      <trkpt lat="40.01230400986969470977783203125" lon="-0.69680579937994480133056640625">
        <ele>993.5999755859375</ele>
        <time>2022-05-06T14:05:41.000Z</time>
      </trkpt>
      <trkpt lat="40.01236000098288059234619140625" lon="-0.6967881135642528533935546875">
        <ele>993.5999755859375</ele>
        <time>2022-05-06T14:06:03.000Z</time>
      </trkpt>
      <trkpt lat="40.0123905949294567108154296875" lon="-0.69680462591350078582763671875">
        <ele>993.5999755859375</ele>
        <time>2022-05-06T14:06:05.000Z</time>
      </trkpt>
      <trkpt lat="40.0124335102736949920654296875" lon="-0.69681636057794094085693359375">
        <ele>993.79998779296875</ele>
        <time>2022-05-06T14:06:07.000Z</time>
      </trkpt>
      <trkpt lat="40.01248757354915142059326171875" lon="-0.6968258321285247802734375">
        <ele>993.79998779296875</ele>
        <time>2022-05-06T14:06:09.000Z</time>
      </trkpt>
      <trkpt lat="40.01251942478120326995849609375" lon="-0.69683128036558628082275390625">
        <ele>993.79998779296875</ele>
        <time>2022-05-06T14:06:10.000Z</time>
      </trkpt>
      <trkpt lat="40.012554042041301727294921875" lon="-0.69683999754488468170166015625">
        <ele>993.79998779296875</ele>
        <time>2022-05-06T14:06:11.000Z</time>
      </trkpt>
      <trkpt lat="40.01263417303562164306640625" lon="-0.69685877300798892974853515625">
        <ele>993.79998779296875</ele>
        <time>2022-05-06T14:06:13.000Z</time>
      </trkpt>
      <trkpt lat="40.01272846944630146026611328125" lon="-0.69688023068010807037353515625">
        <ele>993.5999755859375</ele>
        <time>2022-05-06T14:06:15.000Z</time>
      </trkpt>
      <trkpt lat="40.01278026960790157318115234375" lon="-0.6968950666487216949462890625">
        <ele>993.79998779296875</ele>
        <time>2022-05-06T14:06:16.000Z</time>
      </trkpt>
      <trkpt lat="40.01283424906432628631591796875" lon="-0.696910656988620758056640625">
        <ele>993.79998779296875</ele>
        <time>2022-05-06T14:06:17.000Z</time>
      </trkpt>
      <trkpt lat="40.01294128596782684326171875" lon="-0.69693781435489654541015625">
        <ele>993.79998779296875</ele>
        <time>2022-05-06T14:06:19.000Z</time>
      </trkpt>
      <trkpt lat="40.01304731704294681549072265625" lon="-0.69697025232017040252685546875">
        <ele>994</ele>
        <time>2022-05-06T14:06:21.000Z</time>
      </trkpt>
      <trkpt lat="40.0131000392138957977294921875" lon="-0.69698207080364227294921875">
        <ele>994.20001220703125</ele>
        <time>2022-05-06T14:06:22.000Z</time>
      </trkpt>
      <trkpt lat="40.01315007917582988739013671875" lon="-0.6969919614493846893310546875">
        <ele>994.20001220703125</ele>
        <time>2022-05-06T14:06:23.000Z</time>
      </trkpt>
      <trkpt lat="40.013252757489681243896484375" lon="-0.69702674634754657745361328125">
        <ele>994</ele>
        <time>2022-05-06T14:06:25.000Z</time>
      </trkpt>
      <trkpt lat="40.0133514963090419769287109375" lon="-0.69706614129245281219482421875">
        <ele>993.79998779296875</ele>
        <time>2022-05-06T14:06:27.000Z</time>
      </trkpt>
      <trkpt lat="40.01344780437648296356201171875" lon="-0.69710436277091503143310546875">
        <ele>993.5999755859375</ele>
        <time>2022-05-06T14:06:29.000Z</time>
      </trkpt>
      <trkpt lat="40.01354285515844821929931640625" lon="-0.6971317715942859649658203125">
        <ele>993.4000244140625</ele>
        <time>2022-05-06T14:06:31.000Z</time>
      </trkpt>
      <trkpt lat="40.013635642826557159423828125" lon="-0.697162784636020660400390625">
        <ele>993.20001220703125</ele>
        <time>2022-05-06T14:06:33.000Z</time>
      </trkpt>
      <trkpt lat="40.0136807374656200408935546875" lon="-0.69717812351882457733154296875">
        <ele>993.20001220703125</ele>
        <time>2022-05-06T14:06:34.000Z</time>
      </trkpt>
      <trkpt lat="40.01372717320919036865234375" lon="-0.6971932947635650634765625">
        <ele>993</ele>
        <time>2022-05-06T14:06:35.000Z</time>
      </trkpt>
      <trkpt lat="40.0138205476105213165283203125" lon="-0.69721969775855541229248046875">
        <ele>992.5999755859375</ele>
        <time>2022-05-06T14:06:37.000Z</time>
      </trkpt>
      <trkpt lat="40.0139093957841396331787109375" lon="-0.69724132306873798370361328125">
        <ele>992.20001220703125</ele>
        <time>2022-05-06T14:06:39.000Z</time>
      </trkpt>
      <trkpt lat="40.0139965675771236419677734375" lon="-0.69726462475955486297607421875">
        <ele>991.79998779296875</ele>
        <time>2022-05-06T14:06:41.000Z</time>
      </trkpt>
      <trkpt lat="40.0140820629894733428955078125" lon="-0.6972871720790863037109375">
        <ele>991.4000244140625</ele>
        <time>2022-05-06T14:06:43.000Z</time>
      </trkpt>
      <trkpt lat="40.01412590034306049346923828125" lon="-0.6973144970834255218505859375">
        <ele>991.20001220703125</ele>
        <time>2022-05-06T14:06:44.000Z</time>
      </trkpt>
      <trkpt lat="40.014170743525028228759765625" lon="-0.697334446012973785400390625">
        <ele>991</ele>
        <time>2022-05-06T14:06:45.000Z</time>
      </trkpt>
      <trkpt lat="40.01425984315574169158935546875" lon="-0.6973788700997829437255859375">
        <ele>990.5999755859375</ele>
        <time>2022-05-06T14:06:47.000Z</time>
      </trkpt>
      <trkpt lat="40.014306195080280303955078125" lon="-0.69739521481096744537353515625">
        <ele>990.4000244140625</ele>
        <time>2022-05-06T14:06:48.000Z</time>
      </trkpt>
      <trkpt lat="40.01435020007193088531494140625" lon="-0.69741097278892993927001953125">
        <ele>990.20001220703125</ele>
        <time>2022-05-06T14:06:49.000Z</time>
      </trkpt>
      <trkpt lat="40.0144297443330287933349609375" lon="-0.697449110448360443115234375">
        <ele>989.79998779296875</ele>
        <time>2022-05-06T14:06:51.000Z</time>
      </trkpt>
      <trkpt lat="40.0144703127443790435791015625" lon="-0.6974680535495281219482421875">
        <ele>989.5999755859375</ele>
        <time>2022-05-06T14:06:52.000Z</time>
      </trkpt>
      <trkpt lat="40.0145081989467144012451171875" lon="-0.69748791866004467010498046875">
        <ele>989.5999755859375</ele>
        <time>2022-05-06T14:06:53.000Z</time>
      </trkpt>
      <trkpt lat="40.01458187587559223175048828125" lon="-0.69752379320561885833740234375">
        <ele>989.20001220703125</ele>
        <time>2022-05-06T14:06:55.000Z</time>
      </trkpt>
      <trkpt lat="40.0146639347076416015625" lon="-0.69757307879626750946044921875">
        <ele>989.20001220703125</ele>
        <time>2022-05-06T14:06:57.000Z</time>
      </trkpt>
      <trkpt lat="40.01470576040446758270263671875" lon="-0.69759872741997241973876953125">
        <ele>989.20001220703125</ele>
        <time>2022-05-06T14:06:58.000Z</time>
      </trkpt>
      <trkpt lat="40.01474641263484954833984375" lon="-0.69763141684234142303466796875">
        <ele>989.4000244140625</ele>
        <time>2022-05-06T14:06:59.000Z</time>
      </trkpt>
      <trkpt lat="40.0148423016071319580078125" lon="-0.6976833008229732513427734375">
        <ele>989.4000244140625</ele>
        <time>2022-05-06T14:07:01.000Z</time>
      </trkpt>
      <trkpt lat="40.01493408344686031341552734375" lon="-0.6977396272122859954833984375">
        <ele>989.4000244140625</ele>
        <time>2022-05-06T14:07:03.000Z</time>
      </trkpt>
      <trkpt lat="40.01501991413533687591552734375" lon="-0.69778740406036376953125">
        <ele>989.20001220703125</ele>
        <time>2022-05-06T14:07:05.000Z</time>
      </trkpt>
      <trkpt lat="40.01509417779743671417236328125" lon="-0.69783090613782405853271484375">
        <ele>989</ele>
        <time>2022-05-06T14:07:07.000Z</time>
      </trkpt>
      <trkpt lat="40.01516349613666534423828125" lon="-0.697871558368206024169921875">
        <ele>988.79998779296875</ele>
        <time>2022-05-06T14:07:09.000Z</time>
      </trkpt>
      <trkpt lat="40.01523147337138652801513671875" lon="-0.69791279733180999755859375">
        <ele>988.5999755859375</ele>
        <time>2022-05-06T14:07:11.000Z</time>
      </trkpt>
      <trkpt lat="40.01526835374534130096435546875" lon="-0.697934590280055999755859375">
        <ele>988.4000244140625</ele>
        <time>2022-05-06T14:07:12.000Z</time>
      </trkpt>
      <trkpt lat="40.01530858688056468963623046875" lon="-0.697954706847667694091796875">
        <ele>988.4000244140625</ele>
        <time>2022-05-06T14:07:13.000Z</time>
      </trkpt>
      <trkpt lat="40.01538871787488460540771484375" lon="-0.69799301214516162872314453125">
        <ele>988</ele>
        <time>2022-05-06T14:07:15.000Z</time>
      </trkpt>
      <trkpt lat="40.015466921031475067138671875" lon="-0.69803425110876560211181640625">
        <ele>988</ele>
        <time>2022-05-06T14:07:17.000Z</time>
      </trkpt>
      <trkpt lat="40.01554462127387523651123046875" lon="-0.698078088462352752685546875">
        <ele>987.79998779296875</ele>
        <time>2022-05-06T14:07:19.000Z</time>
      </trkpt>
      <trkpt lat="40.01561804674565792083740234375" lon="-0.6981241889297962188720703125">
        <ele>987.5999755859375</ele>
        <time>2022-05-06T14:07:21.000Z</time>
      </trkpt>
      <trkpt lat="40.01569180749356746673583984375" lon="-0.69816467352211475372314453125">
        <ele>987.5999755859375</ele>
        <time>2022-05-06T14:07:23.000Z</time>
      </trkpt>
      <trkpt lat="40.01576405949890613555908203125" lon="-0.69820105098187923431396484375">
        <ele>987.4000244140625</ele>
        <time>2022-05-06T14:07:25.000Z</time>
      </trkpt>
      <trkpt lat="40.0158011913299560546875" lon="-0.69822167046368122100830078125">
        <ele>987.4000244140625</ele>
        <time>2022-05-06T14:07:26.000Z</time>
      </trkpt>
      <trkpt lat="40.01583807170391082763671875" lon="-0.69824195466935634613037109375">
        <ele>987.20001220703125</ele>
        <time>2022-05-06T14:07:27.000Z</time>
      </trkpt>
      <trkpt lat="40.01591325737535953521728515625" lon="-0.6982837803661823272705078125">
        <ele>987.20001220703125</ele>
        <time>2022-05-06T14:07:29.000Z</time>
      </trkpt>
      <trkpt lat="40.01598634757101535797119140625" lon="-0.6983307190239429473876953125">
        <ele>987</ele>
        <time>2022-05-06T14:07:31.000Z</time>
      </trkpt>
      <trkpt lat="40.01606203615665435791015625" lon="-0.69837841205298900604248046875">
        <ele>987</ele>
        <time>2022-05-06T14:07:33.000Z</time>
      </trkpt>
      <trkpt lat="40.0161000899970531463623046875" lon="-0.6984034739434719085693359375">
        <ele>987</ele>
        <time>2022-05-06T14:07:34.000Z</time>
      </trkpt>
      <trkpt lat="40.01613705419003963470458984375" lon="-0.69842786528170108795166015625">
        <ele>987</ele>
        <time>2022-05-06T14:07:35.000Z</time>
      </trkpt>
      <trkpt lat="40.01621047966182231903076171875" lon="-0.6984705291688442230224609375">
        <ele>987</ele>
        <time>2022-05-06T14:07:37.000Z</time>
      </trkpt>
      <trkpt lat="40.016282983124256134033203125" lon="-0.698507912456989288330078125">
        <ele>987</ele>
        <time>2022-05-06T14:07:39.000Z</time>
      </trkpt>
      <trkpt lat="40.0163532234728336334228515625" lon="-0.6985469721257686614990234375">
        <ele>986.79998779296875</ele>
        <time>2022-05-06T14:07:41.000Z</time>
      </trkpt>
      <trkpt lat="40.01638767309486865997314453125" lon="-0.698566250503063201904296875">
        <ele>986.5999755859375</ele>
        <time>2022-05-06T14:07:42.000Z</time>
      </trkpt>
      <trkpt lat="40.0164248049259185791015625" lon="-0.69858469069004058837890625">
        <ele>986.5999755859375</ele>
        <time>2022-05-06T14:07:43.000Z</time>
      </trkpt>
      <trkpt lat="40.01650334335863590240478515625" lon="-0.6986240856349468231201171875">
        <ele>986.4000244140625</ele>
        <time>2022-05-06T14:07:45.000Z</time>
      </trkpt>
      <trkpt lat="40.0165758468210697174072265625" lon="-0.69866515696048736572265625">
        <ele>986.20001220703125</ele>
        <time>2022-05-06T14:07:47.000Z</time>
      </trkpt>
      <trkpt lat="40.01665337942540645599365234375" lon="-0.698707066476345062255859375">
        <ele>986</ele>
        <time>2022-05-06T14:07:49.000Z</time>
      </trkpt>
      <trkpt lat="40.01673786900937557220458984375" lon="-0.698753334581851959228515625">
        <ele>985.79998779296875</ele>
        <time>2022-05-06T14:07:51.000Z</time>
      </trkpt>
      <trkpt lat="40.01682923175394535064697265625" lon="-0.6988058052957057952880859375">
        <ele>985.5999755859375</ele>
        <time>2022-05-06T14:07:53.000Z</time>
      </trkpt>
      <trkpt lat="40.01687248237431049346923828125" lon="-0.698829106986522674560546875">
        <ele>985.5999755859375</ele>
        <time>2022-05-06T14:07:54.000Z</time>
      </trkpt>
      <trkpt lat="40.01691556535661220550537109375" lon="-0.69885291159152984619140625">
        <ele>985.4000244140625</ele>
        <time>2022-05-06T14:07:55.000Z</time>
      </trkpt>
      <trkpt lat="40.01699854619801044464111328125" lon="-0.698900185525417327880859375">
        <ele>985.4000244140625</ele>
        <time>2022-05-06T14:07:57.000Z</time>
      </trkpt>
      <trkpt lat="40.01703727059066295623779296875" lon="-0.69892290048301219940185546875">
        <ele>985.4000244140625</ele>
        <time>2022-05-06T14:07:58.000Z</time>
      </trkpt>
      <trkpt lat="40.017076916992664337158203125" lon="-0.69894217886030673980712890625">
        <ele>985.4000244140625</ele>
        <time>2022-05-06T14:07:59.000Z</time>
      </trkpt>
      <trkpt lat="40.01715545542538166046142578125" lon="-0.6989851780235767364501953125">
        <ele>985.4000244140625</ele>
        <time>2022-05-06T14:08:01.000Z</time>
      </trkpt>
      <trkpt lat="40.01722385175526142120361328125" lon="-0.69902415387332439422607421875">
        <ele>985.20001220703125</ele>
        <time>2022-05-06T14:08:03.000Z</time>
      </trkpt>
      <trkpt lat="40.0172884762287139892578125" lon="-0.69905717857182025909423828125">
        <ele>985.20001220703125</ele>
        <time>2022-05-06T14:08:05.000Z</time>
      </trkpt>
      <trkpt lat="40.017320327460765838623046875" lon="-0.69907377474009990692138671875">
        <ele>985.20001220703125</ele>
        <time>2022-05-06T14:08:06.000Z</time>
      </trkpt>
      <trkpt lat="40.01735762692987918853759765625" lon="-0.69909741170704364776611328125">
        <ele>985.20001220703125</ele>
        <time>2022-05-06T14:08:07.000Z</time>
      </trkpt>
      <trkpt lat="40.0174398533999919891357421875" lon="-0.6991437636315822601318359375">
        <ele>985</ele>
        <time>2022-05-06T14:08:09.000Z</time>
      </trkpt>
      <trkpt lat="40.0175176374614238739013671875" lon="-0.69919330067932605743408203125">
        <ele>985</ele>
        <time>2022-05-06T14:08:11.000Z</time>
      </trkpt>
      <trkpt lat="40.01759684644639492034912109375" lon="-0.6992425024509429931640625">
        <ele>985</ele>
        <time>2022-05-06T14:08:13.000Z</time>
      </trkpt>
      <trkpt lat="40.0176758877933025360107421875" lon="-0.69929153658449649810791015625">
        <ele>985</ele>
        <time>2022-05-06T14:08:15.000Z</time>
      </trkpt>
      <trkpt lat="40.0177536718547344207763671875" lon="-0.69933730177581310272216796875">
        <ele>984.79998779296875</ele>
        <time>2022-05-06T14:08:17.000Z</time>
      </trkpt>
      <trkpt lat="40.017791055142879486083984375" lon="-0.6993606872856616973876953125">
        <ele>984.79998779296875</ele>
        <time>2022-05-06T14:08:18.000Z</time>
      </trkpt>
      <trkpt lat="40.017826259136199951171875" lon="-0.69938373751938343048095703125">
        <ele>984.79998779296875</ele>
        <time>2022-05-06T14:08:19.000Z</time>
      </trkpt>
      <trkpt lat="40.0178864412009716033935546875" lon="-0.6994284130632877349853515625">
        <ele>984.79998779296875</ele>
        <time>2022-05-06T14:08:21.000Z</time>
      </trkpt>
      <trkpt lat="40.01794117502868175506591796875" lon="-0.6994636170566082000732421875">
        <ele>984.79998779296875</ele>
        <time>2022-05-06T14:08:23.000Z</time>
      </trkpt>
      <trkpt lat="40.01796104013919830322265625" lon="-0.6994773633778095245361328125">
        <ele>984.79998779296875</ele>
        <time>2022-05-06T14:08:24.000Z</time>
      </trkpt>
      <trkpt lat="40.01797017641365528106689453125" lon="-0.699495971202850341796875">
        <ele>985</ele>
        <time>2022-05-06T14:08:25.000Z</time>
      </trkpt>
      <trkpt lat="40.01795542426407337188720703125" lon="-0.699534527957439422607421875">
        <ele>985.20001220703125</ele>
        <time>2022-05-06T14:08:27.000Z</time>
      </trkpt>
      <trkpt lat="40.01790798269212245941162109375" lon="-0.69954500533640384674072265625">
        <ele>985.4000244140625</ele>
        <time>2022-05-06T14:08:29.000Z</time>
      </trkpt>
      <trkpt lat="40.01788032241165637969970703125" lon="-0.6995310075581073760986328125">
        <ele>985.4000244140625</ele>
        <time>2022-05-06T14:08:30.000Z</time>
      </trkpt>
      <trkpt lat="40.017857439815998077392578125" lon="-0.6995082087814807891845703125">
        <ele>985.4000244140625</ele>
        <time>2022-05-06T14:08:31.000Z</time>
      </trkpt>
      <trkpt lat="40.0178356468677520751953125" lon="-0.69947744719684123992919921875">
        <ele>985.20001220703125</ele>
        <time>2022-05-06T14:08:32.000Z</time>
      </trkpt>
      <trkpt lat="40.01780622638761997222900390625" lon="-0.699443332850933074951171875">
        <ele>985.20001220703125</ele>
        <time>2022-05-06T14:08:33.000Z</time>
      </trkpt>
      <trkpt lat="40.01776616089046001434326171875" lon="-0.69941206835210323333740234375">
        <ele>985.20001220703125</ele>
        <time>2022-05-06T14:08:34.000Z</time>
      </trkpt>
      <trkpt lat="40.01771838404238224029541015625" lon="-0.69938541390001773834228515625">
        <ele>985.20001220703125</ele>
        <time>2022-05-06T14:08:35.000Z</time>
      </trkpt>
      <trkpt lat="40.01761008985340595245361328125" lon="-0.69933663122355937957763671875">
        <ele>985.4000244140625</ele>
        <time>2022-05-06T14:08:37.000Z</time>
      </trkpt>
      <trkpt lat="40.01749928109347820281982421875" lon="-0.69927561096847057342529296875">
        <ele>985.4000244140625</ele>
        <time>2022-05-06T14:08:39.000Z</time>
      </trkpt>
      <trkpt lat="40.017378330230712890625" lon="-0.69921500980854034423828125">
        <ele>985.5999755859375</ele>
        <time>2022-05-06T14:08:41.000Z</time>
      </trkpt>
      <trkpt lat="40.0172524340450763702392578125" lon="-0.69915256462991237640380859375">
        <ele>985.79998779296875</ele>
        <time>2022-05-06T14:08:43.000Z</time>
      </trkpt>
      <trkpt lat="40.017124526202678680419921875" lon="-0.6990909576416015625">
        <ele>986</ele>
        <time>2022-05-06T14:08:45.000Z</time>
      </trkpt>
      <trkpt lat="40.017060823738574981689453125" lon="-0.69905986078083515167236328125">
        <ele>986</ele>
        <time>2022-05-06T14:08:46.000Z</time>
      </trkpt>
      <trkpt lat="40.0169961154460906982421875" lon="-0.69902859628200531005859375">
        <ele>986</ele>
        <time>2022-05-06T14:08:47.000Z</time>
      </trkpt>
      <trkpt lat="40.01686829142272472381591796875" lon="-0.69896514527499675750732421875">
        <ele>986</ele>
        <time>2022-05-06T14:08:49.000Z</time>
      </trkpt>
      <trkpt lat="40.01676234416663646697998046875" lon="-0.69889876060187816619873046875">
        <ele>986</ele>
        <time>2022-05-06T14:08:51.000Z</time>
      </trkpt>
      <trkpt lat="40.01672714017331600189208984375" lon="-0.69885601289570331573486328125">
        <ele>985.79998779296875</ele>
        <time>2022-05-06T14:08:52.000Z</time>
      </trkpt>
      <trkpt lat="40.01670903526246547698974609375" lon="-0.69880572147667407989501953125">
        <ele>986</ele>
        <time>2022-05-06T14:08:53.000Z</time>
      </trkpt>
      <trkpt lat="40.01672311685979366302490234375" lon="-0.6986841000616550445556640625">
        <ele>985.79998779296875</ele>
        <time>2022-05-06T14:08:55.000Z</time>
      </trkpt>
      <trkpt lat="40.01676854677498340606689453125" lon="-0.6985473074018955230712890625">
        <ele>985.79998779296875</ele>
        <time>2022-05-06T14:08:57.000Z</time>
      </trkpt>
      <trkpt lat="40.01678983680903911590576171875" lon="-0.69847740232944488525390625">
        <ele>985.79998779296875</ele>
        <time>2022-05-06T14:08:58.000Z</time>
      </trkpt>
      <trkpt lat="40.016814060509204864501953125" lon="-0.69842384196817874908447265625">
        <ele>985.5999755859375</ele>
        <time>2022-05-06T14:08:59.000Z</time>
      </trkpt>
      <trkpt lat="40.016885809600353240966796875" lon="-0.69836902432143688201904296875">
        <ele>985.4000244140625</ele>
        <time>2022-05-06T14:09:01.000Z</time>
      </trkpt>
      <trkpt lat="40.0169241987168788909912109375" lon="-0.69836835376918315887451171875">
        <ele>985.4000244140625</ele>
        <time>2022-05-06T14:09:02.000Z</time>
      </trkpt>
      <trkpt lat="40.01696149818599224090576171875" lon="-0.6983800046145915985107421875">
        <ele>985.20001220703125</ele>
        <time>2022-05-06T14:09:03.000Z</time>
      </trkpt>
      <trkpt lat="40.0170378573238849639892578125" lon="-0.6984014622867107391357421875">
        <ele>985.20001220703125</ele>
        <time>2022-05-06T14:09:05.000Z</time>
      </trkpt>
      <trkpt lat="40.01707783900201320648193359375" lon="-0.69840171374380588531494140625">
        <ele>985</ele>
        <time>2022-05-06T14:09:06.000Z</time>
      </trkpt>
      <trkpt lat="40.017118491232395172119140625" lon="-0.698395930230617523193359375">
        <ele>984.79998779296875</ele>
        <time>2022-05-06T14:09:07.000Z</time>
      </trkpt>
      <trkpt lat="40.017203986644744873046875" lon="-0.69839785806834697723388671875">
        <ele>984.4000244140625</ele>
        <time>2022-05-06T14:09:09.000Z</time>
      </trkpt>
      <trkpt lat="40.01730498857796192169189453125" lon="-0.69843121804296970367431640625">
        <ele>984</ele>
        <time>2022-05-06T14:09:11.000Z</time>
      </trkpt>
      <trkpt lat="40.01735888421535491943359375" lon="-0.69846357218921184539794921875">
        <ele>983.5999755859375</ele>
        <time>2022-05-06T14:09:12.000Z</time>
      </trkpt>
      <trkpt lat="40.01741252839565277099609375" lon="-0.6984919868409633636474609375">
        <ele>983.4000244140625</ele>
        <time>2022-05-06T14:09:13.000Z</time>
      </trkpt>
      <trkpt lat="40.01751738600432872772216796875" lon="-0.69853775203227996826171875">
        <ele>983</ele>
        <time>2022-05-06T14:09:15.000Z</time>
      </trkpt>
      <trkpt lat="40.01762249507009983062744140625" lon="-0.69858527742326259613037109375">
        <ele>982.79998779296875</ele>
        <time>2022-05-06T14:09:17.000Z</time>
      </trkpt>
      <trkpt lat="40.0177248381078243255615234375" lon="-0.69863188080489635467529296875">
        <ele>982.4000244140625</ele>
        <time>2022-05-06T14:09:19.000Z</time>
      </trkpt>
      <trkpt lat="40.01783271320164203643798828125" lon="-0.6986636482179164886474609375">
        <ele>982</ele>
        <time>2022-05-06T14:09:21.000Z</time>
      </trkpt>
      <trkpt lat="40.0179410912096500396728515625" lon="-0.69869977422058582305908203125">
        <ele>981.79998779296875</ele>
        <time>2022-05-06T14:09:23.000Z</time>
      </trkpt>
      <trkpt lat="40.01803404651582241058349609375" lon="-0.6987193040549755096435546875">
        <ele>981.4000244140625</ele>
        <time>2022-05-06T14:09:25.000Z</time>
      </trkpt>
      <trkpt lat="40.0180698372423648834228515625" lon="-0.69869407452642917633056640625">
        <ele>981.20001220703125</ele>
        <time>2022-05-06T14:09:26.000Z</time>
      </trkpt>
      <trkpt lat="40.0180958211421966552734375" lon="-0.698653422296047210693359375">
        <ele>981.20001220703125</ele>
        <time>2022-05-06T14:09:27.000Z</time>
      </trkpt>
      <trkpt lat="40.01813412643969058990478515625" lon="-0.69855091162025928497314453125">
        <ele>980.79998779296875</ele>
        <time>2022-05-06T14:09:29.000Z</time>
      </trkpt>
      <trkpt lat="40.01815089024603366851806640625" lon="-0.698498189449310302734375">
        <ele>980.79998779296875</ele>
        <time>2022-05-06T14:09:30.000Z</time>
      </trkpt>
      <trkpt lat="40.01816178672015666961669921875" lon="-0.698449909687042236328125">
        <ele>980.5999755859375</ele>
        <time>2022-05-06T14:09:31.000Z</time>
      </trkpt>
      <trkpt lat="40.01816178672015666961669921875" lon="-0.6984115205705165863037109375">
        <ele>980.5999755859375</ele>
        <time>2022-05-06T14:09:32.000Z</time>
      </trkpt>
      <trkpt lat="40.01814904622733592987060546875" lon="-0.69838897325098514556884765625">
        <ele>980.5999755859375</ele>
        <time>2022-05-06T14:09:33.000Z</time>
      </trkpt>
      <trkpt lat="40.0180899538099765777587890625" lon="-0.69836583919823169708251953125">
        <ele>980.79998779296875</ele>
        <time>2022-05-06T14:09:35.000Z</time>
      </trkpt>
      <trkpt lat="40.01801342703402042388916015625" lon="-0.69834195077419281005859375">
        <ele>981</ele>
        <time>2022-05-06T14:09:37.000Z</time>
      </trkpt>
      <trkpt lat="40.01792206428945064544677734375" lon="-0.6983112730085849761962890625">
        <ele>981.4000244140625</ele>
        <time>2022-05-06T14:09:39.000Z</time>
      </trkpt>
      <trkpt lat="40.01782349310815334320068359375" lon="-0.698284618556499481201171875">
        <ele>981.5999755859375</ele>
        <time>2022-05-06T14:09:41.000Z</time>
      </trkpt>
      <trkpt lat="40.0177758000791072845458984375" lon="-0.698275901377201080322265625">
        <ele>981.79998779296875</ele>
        <time>2022-05-06T14:09:42.000Z</time>
      </trkpt>
      <trkpt lat="40.01773280091583728790283203125" lon="-0.6982650049030780792236328125">
        <ele>982</ele>
        <time>2022-05-06T14:09:43.000Z</time>
      </trkpt>
      <trkpt lat="40.01769290305674076080322265625" lon="-0.6982474029064178466796875">
        <ele>982</ele>
        <time>2022-05-06T14:09:44.000Z</time>
      </trkpt>
      <trkpt lat="40.0176540948450565338134765625" lon="-0.6982284598052501678466796875">
        <ele>982.20001220703125</ele>
        <time>2022-05-06T14:09:45.000Z</time>
      </trkpt>
      <trkpt lat="40.01758259721100330352783203125" lon="-0.6982018053531646728515625">
        <ele>982.5999755859375</ele>
        <time>2022-05-06T14:09:47.000Z</time>
      </trkpt>
      <trkpt lat="40.01752207987010478973388671875" lon="-0.6981788389384746551513671875">
        <ele>983</ele>
        <time>2022-05-06T14:09:49.000Z</time>
      </trkpt>
      <trkpt lat="40.0174700282514095306396484375" lon="-0.69815285503864288330078125">
        <ele>983.20001220703125</ele>
        <time>2022-05-06T14:09:51.000Z</time>
      </trkpt>
      <trkpt lat="40.01742937602102756500244140625" lon="-0.698138438165187835693359375">
        <ele>983.4000244140625</ele>
        <time>2022-05-06T14:09:53.000Z</time>
      </trkpt>
      <trkpt lat="40.0174076668918132781982421875" lon="-0.6981332413852214813232421875">
        <ele>983.4000244140625</ele>
        <time>2022-05-06T14:09:54.000Z</time>
      </trkpt>
      <trkpt lat="40.0173823535442352294921875" lon="-0.6981238536536693572998046875">
        <ele>983.5999755859375</ele>
        <time>2022-05-06T14:09:55.000Z</time>
      </trkpt>
      <trkpt lat="40.0173206627368927001953125" lon="-0.698101222515106201171875">
        <ele>983.79998779296875</ele>
        <time>2022-05-06T14:09:57.000Z</time>
      </trkpt>
      <trkpt lat="40.0172514282166957855224609375" lon="-0.698089487850666046142578125">
        <ele>984.20001220703125</ele>
        <time>2022-05-06T14:09:59.000Z</time>
      </trkpt>
      <trkpt lat="40.01721647568047046661376953125" lon="-0.6980852968990802764892578125">
        <ele>984.4000244140625</ele>
        <time>2022-05-06T14:10:00.000Z</time>
      </trkpt>
      <trkpt lat="40.01718185842037200927734375" lon="-0.69808043539524078369140625">
        <ele>984.5999755859375</ele>
        <time>2022-05-06T14:10:01.000Z</time>
      </trkpt>
      <trkpt lat="40.01711153425276279449462890625" lon="-0.69807062856853008270263671875">
        <ele>984.79998779296875</ele>
        <time>2022-05-06T14:10:03.000Z</time>
      </trkpt>
      <trkpt lat="40.01703894697129726409912109375" lon="-0.6980497576296329498291015625">
        <ele>985.20001220703125</ele>
        <time>2022-05-06T14:10:05.000Z</time>
      </trkpt>
      <trkpt lat="40.0170050002634525299072265625" lon="-0.69803609512746334075927734375">
        <ele>985.20001220703125</ele>
        <time>2022-05-06T14:10:06.000Z</time>
      </trkpt>
      <trkpt lat="40.01696971245110034942626953125" lon="-0.69802301935851573944091796875">
        <ele>985.20001220703125</ele>
        <time>2022-05-06T14:10:07.000Z</time>
      </trkpt>
      <trkpt lat="40.01693249680101871490478515625" lon="-0.6980108655989170074462890625">
        <ele>985.4000244140625</ele>
        <time>2022-05-06T14:10:08.000Z</time>
      </trkpt>
      <trkpt lat="40.0168950296938419342041015625" lon="-0.6979944370687007904052734375">
        <ele>985.4000244140625</ele>
        <time>2022-05-06T14:10:09.000Z</time>
      </trkpt>
      <trkpt lat="40.0168216042220592498779296875" lon="-0.697955377399921417236328125">
        <ele>985.4000244140625</ele>
        <time>2022-05-06T14:10:11.000Z</time>
      </trkpt>
      <trkpt lat="40.01678430475294589996337890625" lon="-0.697931908071041107177734375">
        <ele>985.4000244140625</ele>
        <time>2022-05-06T14:10:12.000Z</time>
      </trkpt>
      <trkpt lat="40.01674641855061054229736328125" lon="-0.69791279733180999755859375">
        <ele>985.5999755859375</ele>
        <time>2022-05-06T14:10:13.000Z</time>
      </trkpt>
      <trkpt lat="40.01666964031755924224853515625" lon="-0.6978718936443328857421875">
        <ele>985.5999755859375</ele>
        <time>2022-05-06T14:10:15.000Z</time>
      </trkpt>
      <trkpt lat="40.01659135334193706512451171875" lon="-0.69784641265869140625">
        <ele>985.79998779296875</ele>
        <time>2022-05-06T14:10:17.000Z</time>
      </trkpt>
      <trkpt lat="40.01655665226280689239501953125" lon="-0.697836019098758697509765625">
        <ele>985.79998779296875</ele>
        <time>2022-05-06T14:10:18.000Z</time>
      </trkpt>
      <trkpt lat="40.01653469167649745941162109375" lon="-0.69781699217855930328369140625">
        <ele>985.79998779296875</ele>
        <time>2022-05-06T14:10:19.000Z</time>
      </trkpt>
      <trkpt lat="40.01652362756431102752685546875" lon="-0.69772864691913127899169921875">
        <ele>985.5999755859375</ele>
        <time>2022-05-06T14:10:21.000Z</time>
      </trkpt>
      <trkpt lat="40.0165379606187343597412109375" lon="-0.69763845764100551605224609375">
        <ele>985.5999755859375</ele>
        <time>2022-05-06T14:10:23.000Z</time>
      </trkpt>
      <trkpt lat="40.01656754873692989349365234375" lon="-0.69752982817590236663818359375">
        <ele>985.20001220703125</ele>
        <time>2022-05-06T14:10:25.000Z</time>
      </trkpt>
      <trkpt lat="40.01659621484577655792236328125" lon="-0.6973909400403499603271484375">
        <ele>985</ele>
        <time>2022-05-06T14:10:27.000Z</time>
      </trkpt>
      <trkpt lat="40.01662856899201869964599609375" lon="-0.69723294116556644439697265625">
        <ele>984.5999755859375</ele>
        <time>2022-05-06T14:10:29.000Z</time>
      </trkpt>
      <trkpt lat="40.0166378729045391082763671875" lon="-0.6971585936844348907470703125">
        <ele>984.4000244140625</ele>
        <time>2022-05-06T14:10:30.000Z</time>
      </trkpt>
      <trkpt lat="40.01664273440837860107421875" lon="-0.697084330022335052490234375">
        <ele>984</ele>
        <time>2022-05-06T14:10:31.000Z</time>
      </trkpt>
      <trkpt lat="40.0166559778153896331787109375" lon="-0.69694912992417812347412109375">
        <ele>983.4000244140625</ele>
        <time>2022-05-06T14:10:33.000Z</time>
      </trkpt>
      <trkpt lat="40.01665824092924594879150390625" lon="-0.69688945077359676361083984375">
        <ele>983</ele>
        <time>2022-05-06T14:10:34.000Z</time>
      </trkpt>
      <trkpt lat="40.01664985902607440948486328125" lon="-0.69683915935456752777099609375">
        <ele>982.79998779296875</ele>
        <time>2022-05-06T14:10:35.000Z</time>
      </trkpt>
      <trkpt lat="40.01660426147282123565673828125" lon="-0.69678132422268390655517578125">
        <ele>982.79998779296875</ele>
        <time>2022-05-06T14:10:37.000Z</time>
      </trkpt>
      <trkpt lat="40.01657593064010143280029296875" lon="-0.69676975719630718231201171875">
        <ele>983</ele>
        <time>2022-05-06T14:10:38.000Z</time>
      </trkpt>
      <trkpt lat="40.0165481865406036376953125" lon="-0.69676078855991363525390625">
        <ele>983</ele>
        <time>2022-05-06T14:10:39.000Z</time>
      </trkpt>
      <trkpt lat="40.016498900949954986572265625" lon="-0.69672751240432262420654296875">
        <ele>983.20001220703125</ele>
        <time>2022-05-06T14:10:41.000Z</time>
      </trkpt>
      <trkpt lat="40.0164564885199069976806640625" lon="-0.69669012911617755889892578125">
        <ele>983.20001220703125</ele>
        <time>2022-05-06T14:10:43.000Z</time>
      </trkpt>
      <trkpt lat="40.01641566865146160125732421875" lon="-0.6966442801058292388916015625">
        <ele>983.20001220703125</ele>
        <time>2022-05-06T14:10:45.000Z</time>
      </trkpt>
      <trkpt lat="40.01637644134461879730224609375" lon="-0.6966070644557476043701171875">
        <ele>983.20001220703125</ele>
        <time>2022-05-06T14:10:47.000Z</time>
      </trkpt>
      <trkpt lat="40.0163478590548038482666015625" lon="-0.69659776054322719573974609375">
        <ele>983.4000244140625</ele>
        <time>2022-05-06T14:10:48.000Z</time>
      </trkpt>
      <trkpt lat="40.0163139961659908294677734375" lon="-0.69659440778195858001708984375">
        <ele>983.5999755859375</ele>
        <time>2022-05-06T14:10:49.000Z</time>
      </trkpt>
      <trkpt lat="40.0162352062761783599853515625" lon="-0.6965869478881359100341796875">
        <ele>983.79998779296875</ele>
        <time>2022-05-06T14:10:51.000Z</time>
      </trkpt>
      <trkpt lat="40.01619488932192325592041015625" lon="-0.6965802423655986785888671875">
        <ele>983.79998779296875</ele>
        <time>2022-05-06T14:10:52.000Z</time>
      </trkpt>
      <trkpt lat="40.01615515910089015960693359375" lon="-0.69657429121434688568115234375">
        <ele>983.79998779296875</ele>
        <time>2022-05-06T14:10:53.000Z</time>
      </trkpt>
      <trkpt lat="40.01611744053661823272705078125" lon="-0.69657127372920513153076171875">
        <ele>984</ele>
        <time>2022-05-06T14:10:54.000Z</time>
      </trkpt>
      <trkpt lat="40.01608357764780521392822265625" lon="-0.69657010026276111602783203125">
        <ele>984</ele>
        <time>2022-05-06T14:10:55.000Z</time>
      </trkpt>
      <trkpt lat="40.0160206295549869537353515625" lon="-0.69655870087444782257080078125">
        <ele>984</ele>
        <time>2022-05-06T14:10:57.000Z</time>
      </trkpt>
      <trkpt lat="40.0159589387476444244384765625" lon="-0.69656406529247760772705078125">
        <ele>984.20001220703125</ele>
        <time>2022-05-06T14:10:59.000Z</time>
      </trkpt>
      <trkpt lat="40.01592750661075115203857421875" lon="-0.6965710222721099853515625">
        <ele>984.20001220703125</ele>
        <time>2022-05-06T14:11:00.000Z</time>
      </trkpt>
      <trkpt lat="40.015896074473857879638671875" lon="-0.69657705724239349365234375">
        <ele>984.4000244140625</ele>
        <time>2022-05-06T14:11:01.000Z</time>
      </trkpt>
      <trkpt lat="40.01583463512361049652099609375" lon="-0.69658451713621616363525390625">
        <ele>984.5999755859375</ele>
        <time>2022-05-06T14:11:03.000Z</time>
      </trkpt>
      <trkpt lat="40.01577160321176052093505859375" lon="-0.69658451713621616363525390625">
        <ele>984.5999755859375</ele>
        <time>2022-05-06T14:11:05.000Z</time>
      </trkpt>
      <trkpt lat="40.0157061405479907989501953125" lon="-0.69658786989748477935791015625">
        <ele>984.79998779296875</ele>
        <time>2022-05-06T14:11:07.000Z</time>
      </trkpt>
      <trkpt lat="40.01567219384014606475830078125" lon="-0.69658753462135791778564453125">
        <ele>985</ele>
        <time>2022-05-06T14:11:08.000Z</time>
      </trkpt>
      <trkpt lat="40.01563715748488903045654296875" lon="-0.69658451713621616363525390625">
        <ele>985</ele>
        <time>2022-05-06T14:11:09.000Z</time>
      </trkpt>
      <trkpt lat="40.015566162765026092529296875" lon="-0.696561299264430999755859375">
        <ele>985.20001220703125</ele>
        <time>2022-05-06T14:11:11.000Z</time>
      </trkpt>
      <trkpt lat="40.01549969427287578582763671875" lon="-0.69653405807912349700927734375">
        <ele>985.20001220703125</ele>
        <time>2022-05-06T14:11:13.000Z</time>
      </trkpt>
      <trkpt lat="40.01542962156236171722412109375" lon="-0.6965064816176891326904296875">
        <ele>985.4000244140625</ele>
        <time>2022-05-06T14:11:15.000Z</time>
      </trkpt>
      <trkpt lat="40.0153628177940845489501953125" lon="-0.6964900530874729156494140625">
        <ele>985.4000244140625</ele>
        <time>2022-05-06T14:11:17.000Z</time>
      </trkpt>
      <trkpt lat="40.01529693603515625" lon="-0.69647605530917644500732421875">
        <ele>985.4000244140625</ele>
        <time>2022-05-06T14:11:19.000Z</time>
      </trkpt>
      <trkpt lat="40.015263743698596954345703125" lon="-0.69646884687244892120361328125">
        <ele>985.4000244140625</ele>
        <time>2022-05-06T14:11:20.000Z</time>
      </trkpt>
      <trkpt lat="40.01523097045719623565673828125" lon="-0.69646163843572139739990234375">
        <ele>985.5999755859375</ele>
        <time>2022-05-06T14:11:21.000Z</time>
      </trkpt>
      <trkpt lat="40.01517028547823429107666015625" lon="-0.696445964276790618896484375">
        <ele>985.5999755859375</ele>
        <time>2022-05-06T14:11:23.000Z</time>
      </trkpt>
      <trkpt lat="40.01511546783149242401123046875" lon="-0.6964300386607646942138671875">
        <ele>985.79998779296875</ele>
        <time>2022-05-06T14:11:25.000Z</time>
      </trkpt>
      <trkpt lat="40.01507741399109363555908203125" lon="-0.6964055635035037994384765625">
        <ele>985.79998779296875</ele>
        <time>2022-05-06T14:11:27.000Z</time>
      </trkpt>
      <trkpt lat="40.0150671042501926422119140625" lon="-0.69639734923839569091796875">
        <ele>985.79998779296875</ele>
        <time>2022-05-06T14:11:29.000Z</time>
      </trkpt>
      <trkpt lat="40.01500784419476985931396484375" lon="-0.6963224150240421295166015625">
        <ele>985.79998779296875</ele>
        <time>2022-05-06T14:11:50.000Z</time>
      </trkpt>
      <trkpt lat="40.0149930082261562347412109375" lon="-0.69631109945476055145263671875">
        <ele>985.79998779296875</ele>
        <time>2022-05-06T14:11:51.000Z</time>
      </trkpt>
      <trkpt lat="40.01497976481914520263671875" lon="-0.69629500620067119598388671875">
        <ele>985.79998779296875</ele>
        <time>2022-05-06T14:11:52.000Z</time>
      </trkpt>
      <trkpt lat="40.01496761105954647064208984375" lon="-0.6962717883288860321044921875">
        <ele>985.79998779296875</ele>
        <time>2022-05-06T14:11:53.000Z</time>
      </trkpt>
      <trkpt lat="40.014961995184421539306640625" lon="-0.696206577122211456298828125">
        <ele>985.5999755859375</ele>
        <time>2022-05-06T14:11:55.000Z</time>
      </trkpt>
      <trkpt lat="40.01499158330261707305908203125" lon="-0.69612870924174785614013671875">
        <ele>985.20001220703125</ele>
        <time>2022-05-06T14:11:57.000Z</time>
      </trkpt>
      <trkpt lat="40.01501874066889286041259765625" lon="-0.69609065540134906768798828125">
        <ele>985</ele>
        <time>2022-05-06T14:11:58.000Z</time>
      </trkpt>
      <trkpt lat="40.0150541961193084716796875" lon="-0.6960562057793140411376953125">
        <ele>984.79998779296875</ele>
        <time>2022-05-06T14:11:59.000Z</time>
      </trkpt>
      <trkpt lat="40.0151271186769008636474609375" lon="-0.6959755718708038330078125">
        <ele>984.20001220703125</ele>
        <time>2022-05-06T14:12:01.000Z</time>
      </trkpt>
      <trkpt lat="40.01519224606454372406005859375" lon="-0.695873312652111053466796875">
        <ele>983.79998779296875</ele>
        <time>2022-05-06T14:12:03.000Z</time>
      </trkpt>
      <trkpt lat="40.01522208563983440399169921875" lon="-0.69581623189151287078857421875">
        <ele>983.4000244140625</ele>
        <time>2022-05-06T14:12:04.000Z</time>
      </trkpt>
      <trkpt lat="40.015251338481903076171875" lon="-0.695756971836090087890625">
        <ele>983.20001220703125</ele>
        <time>2022-05-06T14:12:05.000Z</time>
      </trkpt>
      <trkpt lat="40.01527925021946430206298828125" lon="-0.69569461047649383544921875">
        <ele>983</ele>
        <time>2022-05-06T14:12:06.000Z</time>
      </trkpt>
      <trkpt lat="40.0153076648712158203125" lon="-0.6956304050981998443603515625">
        <ele>982.5999755859375</ele>
        <time>2022-05-06T14:12:07.000Z</time>
      </trkpt>
      <trkpt lat="40.01536843366920948028564453125" lon="-0.69549956358969211578369140625">
        <ele>981.79998779296875</ele>
        <time>2022-05-06T14:12:09.000Z</time>
      </trkpt>
      <trkpt lat="40.01543532125651836395263671875" lon="-0.695366375148296356201171875">
        <ele>981.5999755859375</ele>
        <time>2022-05-06T14:12:11.000Z</time>
      </trkpt>
      <trkpt lat="40.015507824718952178955078125" lon="-0.6952277384698390960693359375">
        <ele>981</ele>
        <time>2022-05-06T14:12:13.000Z</time>
      </trkpt>
      <trkpt lat="40.0155891291797161102294921875" lon="-0.69508843123912811279296875">
        <ele>980.5999755859375</ele>
        <time>2022-05-06T14:12:15.000Z</time>
      </trkpt>
      <trkpt lat="40.0156323798000812530517578125" lon="-0.69502003490924835205078125">
        <ele>980.20001220703125</ele>
        <time>2022-05-06T14:12:16.000Z</time>
      </trkpt>
      <trkpt lat="40.0156764686107635498046875" lon="-0.69495256058871746063232421875">
        <ele>980</ele>
        <time>2022-05-06T14:12:17.000Z</time>
      </trkpt>
      <trkpt lat="40.015770010650157928466796875" lon="-0.69482247345149517059326171875">
        <ele>979.4000244140625</ele>
        <time>2022-05-06T14:12:19.000Z</time>
      </trkpt>
      <trkpt lat="40.01582122407853603363037109375" lon="-0.69476463831961154937744140625">
        <ele>979.20001220703125</ele>
        <time>2022-05-06T14:12:20.000Z</time>
      </trkpt>
      <trkpt lat="40.01587637700140476226806640625" lon="-0.694711245596408843994140625">
        <ele>979</ele>
        <time>2022-05-06T14:12:21.000Z</time>
      </trkpt>
      <trkpt lat="40.01598970033228397369384765625" lon="-0.6946108303964138031005859375">
        <ele>978.79998779296875</ele>
        <time>2022-05-06T14:12:23.000Z</time>
      </trkpt>
      <trkpt lat="40.0161071307957172393798828125" lon="-0.694524832069873809814453125">
        <ele>978.5999755859375</ele>
        <time>2022-05-06T14:12:25.000Z</time>
      </trkpt>
      <trkpt lat="40.01616404391825199127197265625" lon="-0.69449004717171192169189453125">
        <ele>978.4000244140625</ele>
        <time>2022-05-06T14:12:26.000Z</time>
      </trkpt>
      <trkpt lat="40.016219280660152435302734375" lon="-0.69445886649191379547119140625">
        <ele>978.4000244140625</ele>
        <time>2022-05-06T14:12:27.000Z</time>
      </trkpt>
      <trkpt lat="40.01627217046916484832763671875" lon="-0.694428943097591400146484375">
        <ele>978.20001220703125</ele>
        <time>2022-05-06T14:12:28.000Z</time>
      </trkpt>
      <trkpt lat="40.016323886811733245849609375" lon="-0.694400779902935028076171875">
        <ele>978</ele>
        <time>2022-05-06T14:12:29.000Z</time>
      </trkpt>
      <trkpt lat="40.01641432754695415496826171875" lon="-0.69434051401913166046142578125">
        <ele>977.4000244140625</ele>
        <time>2022-05-06T14:12:31.000Z</time>
      </trkpt>
      <trkpt lat="40.01644131727516651153564453125" lon="-0.69429776631295680999755859375">
        <ele>977.4000244140625</ele>
        <time>2022-05-06T14:12:32.000Z</time>
      </trkpt>
      <trkpt lat="40.01645229756832122802734375" lon="-0.69425049237906932830810546875">
        <ele>977.4000244140625</ele>
        <time>2022-05-06T14:12:33.000Z</time>
      </trkpt>
      <trkpt lat="40.0164534710347652435302734375" lon="-0.69417740218341350555419921875">
        <ele>977.4000244140625</ele>
        <time>2022-05-06T14:12:35.000Z</time>
      </trkpt>
      <trkpt lat="40.0164517946541309356689453125" lon="-0.6941414438188076019287109375">
        <ele>977.4000244140625</ele>
        <time>2022-05-06T14:12:37.000Z</time>
      </trkpt>
      <trkpt lat="40.01644785515964031219482421875" lon="-0.694140605628490447998046875">
        <ele>977.5999755859375</ele>
        <time>2022-05-06T14:12:39.000Z</time>
      </trkpt>
      <trkpt lat="40.01639664173126220703125" lon="-0.69411235861480236053466796875">
        <ele>977.79998779296875</ele>
        <time>2022-05-06T14:12:49.000Z</time>
      </trkpt>
      <trkpt lat="40.0163579173386096954345703125" lon="-0.6941052339971065521240234375">
        <ele>978</ele>
        <time>2022-05-06T14:12:51.000Z</time>
      </trkpt>
      <trkpt lat="40.01631324179470539093017578125" lon="-0.6940857879817485809326171875">
        <ele>978.4000244140625</ele>
        <time>2022-05-06T14:12:53.000Z</time>
      </trkpt>
      <trkpt lat="40.016266889870166778564453125" lon="-0.6940613128244876861572265625">
        <ele>978.5999755859375</ele>
        <time>2022-05-06T14:12:55.000Z</time>
      </trkpt>
      <trkpt lat="40.01622154377400875091552734375" lon="-0.69403164088726043701171875">
        <ele>978.79998779296875</ele>
        <time>2022-05-06T14:12:57.000Z</time>
      </trkpt>
      <trkpt lat="40.0161989964544773101806640625" lon="-0.69401496089994907379150390625">
        <ele>979</ele>
        <time>2022-05-06T14:12:58.000Z</time>
      </trkpt>
      <trkpt lat="40.01617737114429473876953125" lon="-0.6939945928752422332763671875">
        <ele>979</ele>
        <time>2022-05-06T14:12:59.000Z</time>
      </trkpt>
      <trkpt lat="40.01614359207451343536376953125" lon="-0.69395964033901691436767578125">
        <ele>979.20001220703125</ele>
        <time>2022-05-06T14:13:01.000Z</time>
      </trkpt>
      <trkpt lat="40.01613504253327846527099609375" lon="-0.6939518451690673828125">
        <ele>979.20001220703125</ele>
        <time>2022-05-06T14:13:02.000Z</time>
      </trkpt>
      <trkpt lat="40.01613487489521503448486328125" lon="-0.69394991733133792877197265625">
        <ele>979.20001220703125</ele>
        <time>2022-05-06T14:13:03.000Z</time>
      </trkpt>
      <trkpt lat="40.01613370142877101898193359375" lon="-0.693950168788433074951171875">
        <ele>979.20001220703125</ele>
        <time>2022-05-06T14:13:04.000Z</time>
      </trkpt>
      <trkpt lat="40.0159954838454723358154296875" lon="-0.69379024207592010498046875">
        <ele>980.20001220703125</ele>
        <time>2022-05-07T06:07:35.000Z</time>
      </trkpt>
      <trkpt lat="40.01598827540874481201171875" lon="-0.69378487765789031982421875">
        <ele>980.20001220703125</ele>
        <time>2022-05-07T06:07:36.000Z</time>
      </trkpt>
      <trkpt lat="40.01588945277035236358642578125" lon="-0.693755038082599639892578125">
        <ele>980.79998779296875</ele>
        <time>2022-05-07T06:07:49.000Z</time>
      </trkpt>
      <trkpt lat="40.01588174141943454742431640625" lon="-0.693800635635852813720703125">
        <ele>980.5999755859375</ele>
        <time>2022-05-07T06:07:51.000Z</time>
      </trkpt>
      <trkpt lat="40.0158908776938915252685546875" lon="-0.69382368586957454681396484375">
        <ele>980.4000244140625</ele>
        <time>2022-05-07T06:07:52.000Z</time>
      </trkpt>
      <trkpt lat="40.01596279442310333251953125" lon="-0.6938735581934452056884765625">
        <ele>980</ele>
        <time>2022-05-07T06:07:55.000Z</time>
      </trkpt>
      <trkpt lat="40.0160839967429637908935546875" lon="-0.6939317286014556884765625">
        <ele>979.4000244140625</ele>
        <time>2022-05-07T06:07:58.000Z</time>
      </trkpt>
      <trkpt lat="40.01613386906683444976806640625" lon="-0.69395729340612888336181640625">
        <ele>979.20001220703125</ele>
        <time>2022-05-07T06:07:59.000Z</time>
      </trkpt>
      <trkpt lat="40.0161875970661640167236328125" lon="-0.693989060819149017333984375">
        <ele>979</ele>
        <time>2022-05-07T06:08:00.000Z</time>
      </trkpt>
      <trkpt lat="40.01627736724913120269775390625" lon="-0.6940690241754055023193359375">
        <ele>978.5999755859375</ele>
        <time>2022-05-07T06:08:02.000Z</time>
      </trkpt>
      <trkpt lat="40.01633721403777599334716796875" lon="-0.69411856122314929962158203125">
        <ele>978.20001220703125</ele>
        <time>2022-05-07T06:08:04.000Z</time>
      </trkpt>
      <trkpt lat="40.016351044178009033203125" lon="-0.69415879435837268829345703125">
        <ele>978</ele>
        <time>2022-05-07T06:08:05.000Z</time>
      </trkpt>
      <trkpt lat="40.016375519335269927978515625" lon="-0.69425350986421108245849609375">
        <ele>977.79998779296875</ele>
        <time>2022-05-07T06:08:08.000Z</time>
      </trkpt>
      <trkpt lat="40.0163813866674900054931640625" lon="-0.69430883042514324188232421875">
        <ele>977.5999755859375</ele>
        <time>2022-05-07T06:08:09.000Z</time>
      </trkpt>
      <trkpt lat="40.01642371527850627899169921875" lon="-0.69444729946553707122802734375">
        <ele>977.20001220703125</ele>
        <time>2022-05-07T06:08:11.000Z</time>
      </trkpt>
      <trkpt lat="40.01644961535930633544921875" lon="-0.6945249997079372406005859375">
        <ele>977</ele>
        <time>2022-05-07T06:08:12.000Z</time>
      </trkpt>
      <trkpt lat="40.01648071222007274627685546875" lon="-0.69459624588489532470703125">
        <ele>976.79998779296875</ele>
        <time>2022-05-07T06:08:13.000Z</time>
      </trkpt>
      <trkpt lat="40.01651725731790065765380859375" lon="-0.69466732442378997802734375">
        <ele>976.4000244140625</ele>
        <time>2022-05-07T06:08:14.000Z</time>
      </trkpt>
      <trkpt lat="40.0165905989706516265869140625" lon="-0.69479783065617084503173828125">
        <ele>976.20001220703125</ele>
        <time>2022-05-07T06:08:16.000Z</time>
      </trkpt>
      <trkpt lat="40.01664868555963039398193359375" lon="-0.695113241672515869140625">
        <ele>976.5999755859375</ele>
        <time>2022-05-07T06:08:20.000Z</time>
      </trkpt>
      <trkpt lat="40.01664969138801097869873046875" lon="-0.69519437849521636962890625">
        <ele>976.79998779296875</ele>
        <time>2022-05-07T06:08:21.000Z</time>
      </trkpt>
      <trkpt lat="40.016646087169647216796875" lon="-0.69527157582342624664306640625">
        <ele>977</ele>
        <time>2022-05-07T06:08:22.000Z</time>
      </trkpt>
      <trkpt lat="40.016612894833087921142578125" lon="-0.69548808038234710693359375">
        <ele>977.79998779296875</ele>
        <time>2022-05-07T06:08:25.000Z</time>
      </trkpt>
      <trkpt lat="40.0165691412985324859619140625" lon="-0.69567658938467502593994140625">
        <ele>978.5999755859375</ele>
        <time>2022-05-07T06:08:28.000Z</time>
      </trkpt>
      <trkpt lat="40.01655832864344120025634765625" lon="-0.69573543034493923187255859375">
        <ele>979</ele>
        <time>2022-05-07T06:08:29.000Z</time>
      </trkpt>
      <trkpt lat="40.01654240302741527557373046875" lon="-0.695848502218723297119140625">
        <ele>979.4000244140625</ele>
        <time>2022-05-07T06:08:31.000Z</time>
      </trkpt>
      <trkpt lat="40.0165144912898540496826171875" lon="-0.695984624326229095458984375">
        <ele>980</ele>
        <time>2022-05-07T06:08:34.000Z</time>
      </trkpt>
      <trkpt lat="40.0164973922073841094970703125" lon="-0.69608042947947978973388671875">
        <ele>980.5999755859375</ele>
        <time>2022-05-07T06:08:37.000Z</time>
      </trkpt>
      <trkpt lat="40.0164994038641452789306640625" lon="-0.69617765955626964569091796875">
        <ele>981</ele>
        <time>2022-05-07T06:08:41.000Z</time>
      </trkpt>
      <trkpt lat="40.016504935920238494873046875" lon="-0.69624169729650020599365234375">
        <ele>981.20001220703125</ele>
        <time>2022-05-07T06:08:43.000Z</time>
      </trkpt>
      <trkpt lat="40.0164732523262500762939453125" lon="-0.6964690983295440673828125">
        <ele>982.4000244140625</ele>
        <time>2022-05-07T06:08:49.000Z</time>
      </trkpt>
      <trkpt lat="40.01648389734327793121337890625" lon="-0.696674622595310211181640625">
        <ele>983</ele>
        <time>2022-05-07T06:08:55.000Z</time>
      </trkpt>
      <trkpt lat="40.01660962589085102081298828125" lon="-0.69675215519964694976806640625">
        <ele>982.5999755859375</ele>
        <time>2022-05-07T06:08:59.000Z</time>
      </trkpt>
      <trkpt lat="40.016653127968311309814453125" lon="-0.69676539860665798187255859375">
        <ele>982.5999755859375</ele>
        <time>2022-05-07T06:09:00.000Z</time>
      </trkpt>
      <trkpt lat="40.016901902854442596435546875" lon="-0.6968021951615810394287109375">
        <ele>981.79998779296875</ele>
        <time>2022-05-07T06:09:06.000Z</time>
      </trkpt>
      <trkpt lat="40.016946494579315185546875" lon="-0.69680881686508655548095703125">
        <ele>981.5999755859375</ele>
        <time>2022-05-07T06:09:07.000Z</time>
      </trkpt>
      <trkpt lat="40.017288140952587127685546875" lon="-0.69687939248979091644287109375">
        <ele>981</ele>
        <time>2022-05-07T06:09:14.000Z</time>
      </trkpt>
      <trkpt lat="40.01733818091452121734619140625" lon="-0.69689012132585048675537109375">
        <ele>981</ele>
        <time>2022-05-07T06:09:15.000Z</time>
      </trkpt>
      <trkpt lat="40.017391741275787353515625" lon="-0.6968980841338634490966796875">
        <ele>980.79998779296875</ele>
        <time>2022-05-07T06:09:16.000Z</time>
      </trkpt>
      <trkpt lat="40.01762098632752895355224609375" lon="-0.69694275967776775360107421875">
        <ele>979.79998779296875</ele>
        <time>2022-05-07T06:09:20.000Z</time>
      </trkpt>
      <trkpt lat="40.0176735408604145050048828125" lon="-0.696956254541873931884765625">
        <ele>979.5999755859375</ele>
        <time>2022-05-07T06:09:21.000Z</time>
      </trkpt>
      <trkpt lat="40.0178463757038116455078125" lon="-0.69700025953352451324462890625">
        <ele>978.79998779296875</ele>
        <time>2022-05-07T06:09:24.000Z</time>
      </trkpt>
      <trkpt lat="40.0179018639028072357177734375" lon="-0.69701601751148700714111328125">
        <ele>978.5999755859375</ele>
        <time>2022-05-07T06:09:25.000Z</time>
      </trkpt>
      <trkpt lat="40.01812607981264591217041015625" lon="-0.697073601186275482177734375">
        <ele>978</ele>
        <time>2022-05-07T06:09:29.000Z</time>
      </trkpt>
      <trkpt lat="40.01817922107875347137451171875" lon="-0.6970881856977939605712890625">
        <ele>977.79998779296875</ele>
        <time>2022-05-07T06:09:30.000Z</time>
      </trkpt>
      <trkpt lat="40.018283911049365997314453125" lon="-0.6971324421465396881103515625">
        <ele>977.79998779296875</ele>
        <time>2022-05-07T06:09:32.000Z</time>
      </trkpt>
      <trkpt lat="40.01836471259593963623046875" lon="-0.69718583486974239349365234375">
        <ele>977.79998779296875</ele>
        <time>2022-05-07T06:09:34.000Z</time>
      </trkpt>
      <trkpt lat="40.0184042751789093017578125" lon="-0.69723553955554962158203125">
        <ele>978</ele>
        <time>2022-05-07T06:09:36.000Z</time>
      </trkpt>
      <trkpt lat="40.01843604259192943572998046875" lon="-0.69731826893985271453857421875">
        <ele>978</ele>
        <time>2022-05-07T06:09:39.000Z</time>
      </trkpt>
      <trkpt lat="40.0184337794780731201171875" lon="-0.69738708436489105224609375">
        <ele>978.20001220703125</ele>
        <time>2022-05-07T06:09:44.000Z</time>
      </trkpt>
      <trkpt lat="40.01842883415520191192626953125" lon="-0.69738850928843021392822265625">
        <ele>978.20001220703125</ele>
        <time>2022-05-07T06:09:45.000Z</time>
      </trkpt>
      <trkpt lat="40.01862111501395702362060546875" lon="-0.697378702461719512939453125">
        <ele>977.5999755859375</ele>
        <time>2022-05-07T06:47:15.000Z</time>
      </trkpt>
      <trkpt lat="40.018673501908779144287109375" lon="-0.69738046266138553619384765625">
        <ele>977.5999755859375</ele>
        <time>2022-05-07T06:47:17.000Z</time>
      </trkpt>
      <trkpt lat="40.01878179609775543212890625" lon="-0.697524212300777435302734375">
        <ele>977.20001220703125</ele>
        <time>2022-05-07T06:47:22.000Z</time>
      </trkpt>
      <trkpt lat="40.01877735368907451629638671875" lon="-0.6976682133972644805908203125">
        <ele>977.4000244140625</ele>
        <time>2022-05-07T06:47:26.000Z</time>
      </trkpt>
      <trkpt lat="40.0187527947127819061279296875" lon="-0.69780944846570491790771484375">
        <ele>977.79998779296875</ele>
        <time>2022-05-07T06:47:30.000Z</time>
      </trkpt>
      <trkpt lat="40.01874768175184726715087890625" lon="-0.6978485919535160064697265625">
        <ele>977.79998779296875</ele>
        <time>2022-05-07T06:47:31.000Z</time>
      </trkpt>
      <trkpt lat="40.0187112204730510711669921875" lon="-0.69803542457520961761474609375">
        <ele>978.20001220703125</ele>
        <time>2022-05-07T06:47:36.000Z</time>
      </trkpt>
      <trkpt lat="40.01868582330644130706787109375" lon="-0.6981285475194454193115234375">
        <ele>978.4000244140625</ele>
        <time>2022-05-07T06:47:39.000Z</time>
      </trkpt>
      <trkpt lat="40.0186713226139545440673828125" lon="-0.69818504154682159423828125">
        <ele>978.5999755859375</ele>
        <time>2022-05-07T06:47:41.000Z</time>
      </trkpt>
      <trkpt lat="40.0186106376349925994873046875" lon="-0.6983535178005695343017578125">
        <ele>979.4000244140625</ele>
        <time>2022-05-07T06:47:48.000Z</time>
      </trkpt>
      <trkpt lat="40.0185801275074481964111328125" lon="-0.6984373368322849273681640625">
        <ele>979.5999755859375</ele>
        <time>2022-05-07T06:47:53.000Z</time>
      </trkpt>
      <trkpt lat="40.01856143586337566375732421875" lon="-0.69846441037952899932861328125">
        <ele>979.79998779296875</ele>
        <time>2022-05-07T06:47:55.000Z</time>
      </trkpt>
      <trkpt lat="40.01852002926170825958251953125" lon="-0.69846156053245067596435546875">
        <ele>979.79998779296875</ele>
        <time>2022-05-07T06:47:56.000Z</time>
      </trkpt>
      <trkpt lat="40.01843838952481746673583984375" lon="-0.69844613783061504364013671875">
        <ele>979.79998779296875</ele>
        <time>2022-05-07T06:47:59.000Z</time>
      </trkpt>
      <trkpt lat="40.01836203038692474365234375" lon="-0.6984150409698486328125">
        <ele>979.79998779296875</ele>
        <time>2022-05-07T06:48:02.000Z</time>
      </trkpt>
      <trkpt lat="40.01823219470679759979248046875" lon="-0.698375813663005828857421875">
        <ele>980.20001220703125</ele>
        <time>2022-05-07T06:48:07.000Z</time>
      </trkpt>
      <trkpt lat="40.0182056240737438201904296875" lon="-0.6983675993978977203369140625">
        <ele>980.4000244140625</ele>
        <time>2022-05-07T06:48:08.000Z</time>
      </trkpt>
      <trkpt lat="40.01817503012716770172119140625" lon="-0.6983562000095844268798828125">
        <ele>980.4000244140625</ele>
        <time>2022-05-07T06:48:10.000Z</time>
      </trkpt>
      <trkpt lat="40.01816849224269390106201171875" lon="-0.6983868777751922607421875">
        <ele>980.5999755859375</ele>
        <time>2022-05-07T06:48:12.000Z</time>
      </trkpt>
      <trkpt lat="40.01814720220863819122314453125" lon="-0.69847547449171543121337890625">
        <ele>980.79998779296875</ele>
        <time>2022-05-07T06:48:14.000Z</time>
      </trkpt>
      <trkpt lat="40.01813043840229511260986328125" lon="-0.698552839457988739013671875">
        <ele>980.79998779296875</ele>
        <time>2022-05-07T06:48:16.000Z</time>
      </trkpt>
      <trkpt lat="40.01805215142667293548583984375" lon="-0.69867211394011974334716796875">
        <ele>981.20001220703125</ele>
        <time>2022-05-07T06:48:21.000Z</time>
      </trkpt>
      <trkpt lat="40.01802449114620685577392578125" lon="-0.69866557605564594268798828125">
        <ele>981.4000244140625</ele>
        <time>2022-05-07T06:48:22.000Z</time>
      </trkpt>
      <trkpt lat="40.017939917743206024169921875" lon="-0.69864244200289249420166015625">
        <ele>981.5999755859375</ele>
        <time>2022-05-07T06:48:25.000Z</time>
      </trkpt>
      <trkpt lat="40.01785785891115665435791015625" lon="-0.698614530265331268310546875">
        <ele>982</ele>
        <time>2022-05-07T06:48:28.000Z</time>
      </trkpt>
      <trkpt lat="40.0177050568163394927978515625" lon="-0.69855946116149425506591796875">
        <ele>982.4000244140625</ele>
        <time>2022-05-07T06:48:33.000Z</time>
      </trkpt>
      <trkpt lat="40.01761109568178653717041015625" lon="-0.69853045977652072906494140625">
        <ele>982.79998779296875</ele>
        <time>2022-05-07T06:48:36.000Z</time>
      </trkpt>
      <trkpt lat="40.01726777292788028717041015625" lon="-0.698410682380199432373046875">
        <ele>984.20001220703125</ele>
        <time>2022-05-07T06:48:47.000Z</time>
      </trkpt>
      <trkpt lat="40.01707993447780609130859375" lon="-0.698344968259334564208984375">
        <ele>985</ele>
        <time>2022-05-07T06:48:53.000Z</time>
      </trkpt>
      <trkpt lat="40.016902573406696319580078125" lon="-0.69832359440624713897705078125">
        <ele>985.4000244140625</ele>
        <time>2022-05-07T06:48:58.000Z</time>
      </trkpt>
      <trkpt lat="40.01686845906078815460205078125" lon="-0.6983374245464801788330078125">
        <ele>985.5999755859375</ele>
        <time>2022-05-07T06:48:59.000Z</time>
      </trkpt>
      <trkpt lat="40.0168232806026935577392578125" lon="-0.6984074972569942474365234375">
        <ele>985.5999755859375</ele>
        <time>2022-05-07T06:49:01.000Z</time>
      </trkpt>
      <trkpt lat="40.01678447239100933074951171875" lon="-0.69850229658186435699462890625">
        <ele>985.79998779296875</ele>
        <time>2022-05-07T06:49:03.000Z</time>
      </trkpt>
      <trkpt lat="40.01674893312156200408935546875" lon="-0.69864906370639801025390625">
        <ele>985.79998779296875</ele>
        <time>2022-05-07T06:49:06.000Z</time>
      </trkpt>
      <trkpt lat="40.016711466014385223388671875" lon="-0.69876431487500667572021484375">
        <ele>985.79998779296875</ele>
        <time>2022-05-07T06:49:10.000Z</time>
      </trkpt>
      <trkpt lat="40.01679536886513233184814453125" lon="-0.6988500617444515228271484375">
        <ele>985.5999755859375</ele>
        <time>2022-05-07T06:49:14.000Z</time>
      </trkpt>
      <trkpt lat="40.01688756980001926422119140625" lon="-0.698912926018238067626953125">
        <ele>985.79998779296875</ele>
        <time>2022-05-07T06:49:17.000Z</time>
      </trkpt>
      <trkpt lat="40.01701145432889461517333984375" lon="-0.69898677058517932891845703125">
        <ele>985.79998779296875</ele>
        <time>2022-05-07T06:49:21.000Z</time>
      </trkpt>
      <trkpt lat="40.01722267828881740570068359375" lon="-0.6990928016602993011474609375">
        <ele>985.5999755859375</ele>
        <time>2022-05-07T06:49:27.000Z</time>
      </trkpt>
      <trkpt lat="40.0172965228557586669921875" lon="-0.69913445971906185150146484375">
        <ele>985.5999755859375</ele>
        <time>2022-05-07T06:49:29.000Z</time>
      </trkpt>
      <trkpt lat="40.01757639460265636444091796875" lon="-0.6992875970900058746337890625">
        <ele>985.20001220703125</ele>
        <time>2022-05-07T06:49:37.000Z</time>
      </trkpt>
      <trkpt lat="40.01764378510415554046630859375" lon="-0.69932095706462860107421875">
        <ele>985.20001220703125</ele>
        <time>2022-05-07T06:49:39.000Z</time>
      </trkpt>
      <trkpt lat="40.01784092746675014495849609375" lon="-0.6994602642953395843505859375">
        <ele>985.20001220703125</ele>
        <time>2022-05-07T06:49:45.000Z</time>
      </trkpt>
      <trkpt lat="40.01786506734788417816162109375" lon="-0.69948188960552215576171875">
        <ele>985.20001220703125</ele>
        <time>2022-05-07T06:49:46.000Z</time>
      </trkpt>
      <trkpt lat="40.01794905401766300201416015625" lon="-0.699499659240245819091796875">
        <ele>985</ele>
        <time>2022-05-07T06:49:49.000Z</time>
      </trkpt>
      <trkpt lat="40.0179675780236721038818359375" lon="-0.69948834367096424102783203125">
        <ele>985</ele>
        <time>2022-05-07T06:49:50.000Z</time>
      </trkpt>
      <trkpt lat="40.017983503639698028564453125" lon="-0.69944878108799457550048828125">
        <ele>984.79998779296875</ele>
        <time>2022-05-07T06:49:52.000Z</time>
      </trkpt>
      <trkpt lat="40.01791854389011859893798828125" lon="-0.69940804503858089447021484375">
        <ele>984.5999755859375</ele>
        <time>2022-05-07T06:49:56.000Z</time>
      </trkpt>
      <trkpt lat="40.01786037348210811614990234375" lon="-0.6993781216442584991455078125">
        <ele>984.5999755859375</ele>
        <time>2022-05-07T06:49:58.000Z</time>
      </trkpt>
      <trkpt lat="40.0176913104951381683349609375" lon="-0.6992725096642971038818359375">
        <ele>984.79998779296875</ele>
        <time>2022-05-07T06:50:03.000Z</time>
      </trkpt>
      <trkpt lat="40.01757773570716381072998046875" lon="-0.69920017383992671966552734375">
        <ele>984.79998779296875</ele>
        <time>2022-05-07T06:50:06.000Z</time>
      </trkpt>
      <trkpt lat="40.0174167193472385406494140625" lon="-0.699107386171817779541015625">
        <ele>985</ele>
        <time>2022-05-07T06:50:10.000Z</time>
      </trkpt>
      <trkpt lat="40.017101727426052093505859375" lon="-0.69893203675746917724609375">
        <ele>985.20001220703125</ele>
        <time>2022-05-07T06:50:17.000Z</time>
      </trkpt>
      <trkpt lat="40.01674725674092769622802734375" lon="-0.69874268956482410430908203125">
        <ele>985.79998779296875</ele>
        <time>2022-05-07T06:50:24.000Z</time>
      </trkpt>
      <trkpt lat="40.01639454625546932220458984375" lon="-0.69855024106800556182861328125">
        <ele>986.5999755859375</ele>
        <time>2022-05-07T06:50:31.000Z</time>
      </trkpt>
      <trkpt lat="40.01596991904079914093017578125" lon="-0.698323510587215423583984375">
        <ele>987</ele>
        <time>2022-05-07T06:50:41.000Z</time>
      </trkpt>
      <trkpt lat="40.01559021882712841033935546875" lon="-0.69810935296118259429931640625">
        <ele>987.79998779296875</ele>
        <time>2022-05-07T06:50:49.000Z</time>
      </trkpt>
      <trkpt lat="40.01509099267423152923583984375" lon="-0.69784163497388362884521484375">
        <ele>989</ele>
        <time>2022-05-07T06:50:59.000Z</time>
      </trkpt>
      <trkpt lat="40.01469788141548633575439453125" lon="-0.6976211071014404296875">
        <ele>989.4000244140625</ele>
        <time>2022-05-07T06:51:07.000Z</time>
      </trkpt>
      <trkpt lat="40.0145470909774303436279296875" lon="-0.6975446641445159912109375">
        <ele>989.4000244140625</ele>
        <time>2022-05-07T06:51:10.000Z</time>
      </trkpt>
      <trkpt lat="40.0142929516732692718505859375" lon="-0.69742253981530666351318359375">
        <ele>990.5999755859375</ele>
        <time>2022-05-07T06:51:15.000Z</time>
      </trkpt>
      <trkpt lat="40.01381258480250835418701171875" lon="-0.69722615182399749755859375">
        <ele>992.79998779296875</ele>
        <time>2022-05-07T06:51:24.000Z</time>
      </trkpt>
      <trkpt lat="40.01333154737949371337890625" lon="-0.6970707513391971588134765625">
        <ele>993.79998779296875</ele>
        <time>2022-05-07T06:51:33.000Z</time>
      </trkpt>
      <trkpt lat="40.0130666792392730712890625" lon="-0.69700025953352451324462890625">
        <ele>994.20001220703125</ele>
        <time>2022-05-07T06:51:38.000Z</time>
      </trkpt>
      <trkpt lat="40.0130128674209117889404296875" lon="-0.6969882734119892120361328125">
        <ele>994.20001220703125</ele>
        <time>2022-05-07T06:51:39.000Z</time>
      </trkpt>
      <trkpt lat="40.01259201206266880035400390625" lon="-0.6969165243208408355712890625">
        <ele>994</ele>
        <time>2022-05-07T06:51:46.000Z</time>
      </trkpt>
      <trkpt lat="40.0124757550656795501708984375" lon="-0.6968813203275203704833984375">
        <ele>994</ele>
        <time>2022-05-07T06:51:48.000Z</time>
      </trkpt>
      <trkpt lat="40.0122605077922344207763671875" lon="-0.6968394108116626739501953125">
        <ele>993.79998779296875</ele>
        <time>2022-05-07T06:51:52.000Z</time>
      </trkpt>
      <trkpt lat="40.01220527105033397674560546875" lon="-0.69683446548879146575927734375">
        <ele>993.79998779296875</ele>
        <time>2022-05-07T06:51:53.000Z</time>
      </trkpt>
      <trkpt lat="40.01188315451145172119140625" lon="-0.696785934269428253173828125">
        <ele>992.79998779296875</ele>
        <time>2022-05-07T06:51:59.000Z</time>
      </trkpt>
      <trkpt lat="40.01183177344501018524169921875" lon="-0.69677646271884441375732421875">
        <ele>992.5999755859375</ele>
        <time>2022-05-07T06:52:00.000Z</time>
      </trkpt>
      <trkpt lat="40.0114063918590545654296875" lon="-0.6967400014400482177734375">
        <ele>991.20001220703125</ele>
        <time>2022-05-07T06:52:08.000Z</time>
      </trkpt>
      <trkpt lat="40.0108483247458934783935546875" lon="-0.69671259261667728424072265625">
        <ele>990.20001220703125</ele>
        <time>2022-05-07T06:52:17.000Z</time>
      </trkpt>
      <trkpt lat="40.01027919352054595947265625" lon="-0.69669113494455814361572265625">
        <ele>989.79998779296875</ele>
        <time>2022-05-07T06:52:26.000Z</time>
      </trkpt>
      <trkpt lat="40.0101472623646259307861328125" lon="-0.6966836750507354736328125">
        <ele>989.4000244140625</ele>
        <time>2022-05-07T06:52:28.000Z</time>
      </trkpt>
      <trkpt lat="40.009556673467159271240234375" lon="-0.69665626622736454010009765625">
        <ele>989.20001220703125</ele>
        <time>2022-05-07T06:52:37.000Z</time>
      </trkpt>
      <trkpt lat="40.00935249030590057373046875" lon="-0.6966466270387172698974609375">
        <ele>988.20001220703125</ele>
        <time>2022-05-07T06:52:40.000Z</time>
      </trkpt>
      <trkpt lat="40.008892156183719635009765625" lon="-0.6966327130794525146484375">
        <ele>987.5999755859375</ele>
        <time>2022-05-07T06:52:47.000Z</time>
      </trkpt>
      <trkpt lat="40.0083486735820770263671875" lon="-0.69660387933254241943359375">
        <ele>987.79998779296875</ele>
        <time>2022-05-07T06:52:55.000Z</time>
      </trkpt>
      <trkpt lat="40.0082762539386749267578125" lon="-0.69660010747611522674560546875">
        <ele>987.79998779296875</ele>
        <time>2022-05-07T06:52:56.000Z</time>
      </trkpt>
      <trkpt lat="40.0076803006231784820556640625" lon="-0.69658401422202587127685546875">
        <ele>987.20001220703125</ele>
        <time>2022-05-07T06:53:04.000Z</time>
      </trkpt>
      <trkpt lat="40.0074694119393825531005859375" lon="-0.69658049382269382476806640625">
        <ele>987</ele>
        <time>2022-05-07T06:53:07.000Z</time>
      </trkpt>
      <trkpt lat="40.007050149142742156982421875" lon="-0.69656188599765300750732421875">
        <ele>986.4000244140625</ele>
        <time>2022-05-07T06:53:13.000Z</time>
      </trkpt>
      <trkpt lat="40.00650540925562381744384765625" lon="-0.696537159383296966552734375">
        <ele>984</ele>
        <time>2022-05-07T06:53:21.000Z</time>
      </trkpt>
      <trkpt lat="40.006437264382839202880859375" lon="-0.69653372280299663543701171875">
        <ele>983.79998779296875</ele>
        <time>2022-05-07T06:53:22.000Z</time>
      </trkpt>
      <trkpt lat="40.00588967464864253997802734375" lon="-0.69650866091251373291015625">
        <ele>984</ele>
        <time>2022-05-07T06:53:30.000Z</time>
      </trkpt>
      <trkpt lat="40.005821697413921356201171875" lon="-0.6965061463415622711181640625">
        <ele>984</ele>
        <time>2022-05-07T06:53:31.000Z</time>
      </trkpt>
      <trkpt lat="40.00562128610908985137939453125" lon="-0.696504972875118255615234375">
        <ele>984.20001220703125</ele>
        <time>2022-05-07T06:53:34.000Z</time>
      </trkpt>
      <trkpt lat="40.005077384412288665771484375" lon="-0.69648209027945995330810546875">
        <ele>984.4000244140625</ele>
        <time>2022-05-07T06:53:42.000Z</time>
      </trkpt>
      <trkpt lat="40.0045283697545528411865234375" lon="-0.696456693112850189208984375">
        <ele>984.5999755859375</ele>
        <time>2022-05-07T06:53:50.000Z</time>
      </trkpt>
      <trkpt lat="40.00446056015789508819580078125" lon="-0.696453340351581573486328125">
        <ele>984.79998779296875</ele>
        <time>2022-05-07T06:53:51.000Z</time>
      </trkpt>
      <trkpt lat="40.0039174966514110565185546875" lon="-0.6964397616684436798095703125">
        <ele>984.79998779296875</ele>
        <time>2022-05-07T06:53:59.000Z</time>
      </trkpt>
      <trkpt lat="40.00371876172721385955810546875" lon="-0.6964330561459064483642578125">
        <ele>984.79998779296875</ele>
        <time>2022-05-07T06:54:02.000Z</time>
      </trkpt>
      <trkpt lat="40.00317125581204891204833984375" lon="-0.6964109279215335845947265625">
        <ele>985</ele>
        <time>2022-05-07T06:54:10.000Z</time>
      </trkpt>
      <trkpt lat="40.00261587090790271759033203125" lon="-0.696390308439731597900390625">
        <ele>984.5999755859375</ele>
        <time>2022-05-07T06:54:18.000Z</time>
      </trkpt>
      <trkpt lat="40.00240749679505825042724609375" lon="-0.6963832676410675048828125">
        <ele>984.4000244140625</ele>
        <time>2022-05-07T06:54:21.000Z</time>
      </trkpt>
      <trkpt lat="40.00199376605451107025146484375" lon="-0.69637094624340534210205078125">
        <ele>983.79998779296875</ele>
        <time>2022-05-07T06:54:27.000Z</time>
      </trkpt>
      <trkpt lat="40.001797713339328765869140625" lon="-0.69635904394090175628662109375">
        <ele>983.5999755859375</ele>
        <time>2022-05-07T06:54:30.000Z</time>
      </trkpt>
      <trkpt lat="40.00120268203318119049072265625" lon="-0.6963421963155269622802734375">
        <ele>983</ele>
        <time>2022-05-07T06:54:39.000Z</time>
      </trkpt>
      <trkpt lat="40.00106404535472393035888671875" lon="-0.69633959792554378509521484375">
        <ele>982.79998779296875</ele>
        <time>2022-05-07T06:54:41.000Z</time>
      </trkpt>
      <trkpt lat="40.00047664158046245574951171875" lon="-0.696317888796329498291015625">
        <ele>982.20001220703125</ele>
        <time>2022-05-07T06:54:49.000Z</time>
      </trkpt>
      <trkpt lat="40.000177323818206787109375" lon="-0.6963036395609378814697265625">
        <ele>981.5999755859375</ele>
        <time>2022-05-07T06:54:53.000Z</time>
      </trkpt>
      <trkpt lat="39.99974372796714305877685546875" lon="-0.6962925754487514495849609375">
        <ele>981.20001220703125</ele>
        <time>2022-05-07T06:54:59.000Z</time>
      </trkpt>
      <trkpt lat="39.99938129447400569915771484375" lon="-0.69627891294658184051513671875">
        <ele>982</ele>
        <time>2022-05-07T06:55:04.000Z</time>
      </trkpt>
      <trkpt lat="39.99908767640590667724609375" lon="-0.696269609034061431884765625">
        <ele>981.5999755859375</ele>
        <time>2022-05-07T06:55:08.000Z</time>
      </trkpt>
      <trkpt lat="39.99848744831979274749755859375" lon="-0.69624538533389568328857421875">
        <ele>980.79998779296875</ele>
        <time>2022-05-07T06:55:16.000Z</time>
      </trkpt>
      <trkpt lat="39.9983386695384979248046875" lon="-0.69623549468815326690673828125">
        <ele>980.4000244140625</ele>
        <time>2022-05-07T06:55:18.000Z</time>
      </trkpt>
      <trkpt lat="39.997822344303131103515625" lon="-0.6962161324918270111083984375">
        <ele>979.20001220703125</ele>
        <time>2022-05-07T06:55:25.000Z</time>
      </trkpt>
      <trkpt lat="39.99774849973618984222412109375" lon="-0.69621386937797069549560546875">
        <ele>979.20001220703125</ele>
        <time>2022-05-07T06:55:26.000Z</time>
      </trkpt>
      <trkpt lat="39.997148104012012481689453125" lon="-0.69619760848581790924072265625">
        <ele>978.4000244140625</ele>
        <time>2022-05-07T06:55:34.000Z</time>
      </trkpt>
      <trkpt lat="39.99707208015024662017822265625" lon="-0.696195848286151885986328125">
        <ele>978.20001220703125</ele>
        <time>2022-05-07T06:55:35.000Z</time>
      </trkpt>
      <trkpt lat="39.9969967268407344818115234375" lon="-0.6961946748197078704833984375">
        <ele>978</ele>
        <time>2022-05-07T06:55:36.000Z</time>
      </trkpt>
      <trkpt lat="39.9966275878250598907470703125" lon="-0.6961852870881557464599609375">
        <ele>977.20001220703125</ele>
        <time>2022-05-07T06:55:41.000Z</time>
      </trkpt>
      <trkpt lat="39.996403120458126068115234375" lon="-0.69618788547813892364501953125">
        <ele>976.5999755859375</ele>
        <time>2022-05-07T06:55:44.000Z</time>
      </trkpt>
      <trkpt lat="39.99592158012092113494873046875" lon="-0.69617313332855701446533203125">
        <ele>976.20001220703125</ele>
        <time>2022-05-07T06:55:50.000Z</time>
      </trkpt>
      <trkpt lat="39.9958363361656665802001953125" lon="-0.69617263041436672210693359375">
        <ele>976.20001220703125</ele>
        <time>2022-05-07T06:55:51.000Z</time>
      </trkpt>
      <trkpt lat="39.995287321507930755615234375" lon="-0.6961440481245517730712890625">
        <ele>976.5999755859375</ele>
        <time>2022-05-07T06:55:58.000Z</time>
      </trkpt>
      <trkpt lat="39.9947554059326648712158203125" lon="-0.69611144252121448516845703125">
        <ele>976</ele>
        <time>2022-05-07T06:56:06.000Z</time>
      </trkpt>
      <trkpt lat="39.994213767349720001220703125" lon="-0.69608696736395359039306640625">
        <ele>976.5999755859375</ele>
        <time>2022-05-07T06:56:14.000Z</time>
      </trkpt>
      <trkpt lat="39.99392752535641193389892578125" lon="-0.69607925601303577423095703125">
        <ele>976.79998779296875</ele>
        <time>2022-05-07T06:56:18.000Z</time>
      </trkpt>
      <trkpt lat="39.9934034049510955810546875" lon="-0.69605293683707714080810546875">
        <ele>975.4000244140625</ele>
        <time>2022-05-07T06:56:25.000Z</time>
      </trkpt>
      <trkpt lat="39.99317566864192485809326171875" lon="-0.69604329764842987060546875">
        <ele>975</ele>
        <time>2022-05-07T06:56:28.000Z</time>
      </trkpt>
      <trkpt lat="39.99259195290505886077880859375" lon="-0.69602259434759616851806640625">
        <ele>975.79998779296875</ele>
        <time>2022-05-07T06:56:36.000Z</time>
      </trkpt>
      <trkpt lat="39.99252255074679851531982421875" lon="-0.6960199959576129913330078125">
        <ele>975.79998779296875</ele>
        <time>2022-05-07T06:56:37.000Z</time>
      </trkpt>
      <trkpt lat="39.992311410605907440185546875" lon="-0.69601069204509258270263671875">
        <ele>976</ele>
        <time>2022-05-07T06:56:40.000Z</time>
      </trkpt>
      <trkpt lat="39.99175091274082660675048828125" lon="-0.6959871388971805572509765625">
        <ele>975.20001220703125</ele>
        <time>2022-05-07T06:56:48.000Z</time>
      </trkpt>
      <trkpt lat="39.99119116924703121185302734375" lon="-0.69596375338733196258544921875">
        <ele>974.4000244140625</ele>
        <time>2022-05-07T06:56:56.000Z</time>
      </trkpt>
      <trkpt lat="39.99098095111548900604248046875" lon="-0.69595268927514553070068359375">
        <ele>974.20001220703125</ele>
        <time>2022-05-07T06:56:59.000Z</time>
      </trkpt>
      <trkpt lat="39.9904300086200237274169921875" lon="-0.6959294714033603668212890625">
        <ele>974</ele>
        <time>2022-05-07T06:57:07.000Z</time>
      </trkpt>
      <trkpt lat="39.99022725038230419158935546875" lon="-0.69592452608048915863037109375">
        <ele>974</ele>
        <time>2022-05-07T06:57:10.000Z</time>
      </trkpt>
      <trkpt lat="39.989647977054119110107421875" lon="-0.69589912891387939453125">
        <ele>974.5999755859375</ele>
        <time>2022-05-07T06:57:19.000Z</time>
      </trkpt>
      <trkpt lat="39.989092759788036346435546875" lon="-0.69587624631822109222412109375">
        <ele>973.4000244140625</ele>
        <time>2022-05-07T06:57:28.000Z</time>
      </trkpt>
      <trkpt lat="39.98902997933328151702880859375" lon="-0.6958748213946819305419921875">
        <ele>973.20001220703125</ele>
        <time>2022-05-07T06:57:29.000Z</time>
      </trkpt>
      <trkpt lat="39.98845766298472881317138671875" lon="-0.69586451165378093719482421875">
        <ele>973</ele>
        <time>2022-05-07T06:57:38.000Z</time>
      </trkpt>
      <trkpt lat="39.98790093697607517242431640625" lon="-0.6958396174013614654541015625">
        <ele>972</ele>
        <time>2022-05-07T06:57:47.000Z</time>
      </trkpt>
      <trkpt lat="39.987839162349700927734375" lon="-0.6958376057446002960205078125">
        <ele>972.20001220703125</ele>
        <time>2022-05-07T06:57:48.000Z</time>
      </trkpt>
      <trkpt lat="39.98727791011333465576171875" lon="-0.69581170566380023956298828125">
        <ele>973.4000244140625</ele>
        <time>2022-05-07T06:57:57.000Z</time>
      </trkpt>
      <trkpt lat="39.9870276264846324920654296875" lon="-0.69580567069351673126220703125">
        <ele>973.5999755859375</ele>
        <time>2022-05-07T06:58:01.000Z</time>
      </trkpt>
      <trkpt lat="39.9864462576806545257568359375" lon="-0.69578572176396846771240234375">
        <ele>974.5999755859375</ele>
        <time>2022-05-07T06:58:10.000Z</time>
      </trkpt>
      <trkpt lat="39.9863825552165508270263671875" lon="-0.69578236900269985198974609375">
        <ele>974.79998779296875</ele>
        <time>2022-05-07T06:58:11.000Z</time>
      </trkpt>
      <trkpt lat="39.98580981977283954620361328125" lon="-0.6957571394741535186767578125">
        <ele>975.4000244140625</ele>
        <time>2022-05-07T06:58:20.000Z</time>
      </trkpt>
      <trkpt lat="39.98567889444530010223388671875" lon="-0.69575387053191661834716796875">
        <ele>975.4000244140625</ele>
        <time>2022-05-07T06:58:22.000Z</time>
      </trkpt>
      <trkpt lat="39.9851406924426555633544921875" lon="-0.69573392160236835479736328125">
        <ele>974.20001220703125</ele>
        <time>2022-05-07T06:58:30.000Z</time>
      </trkpt>
      <trkpt lat="39.98454046435654163360595703125" lon="-0.69570827297866344451904296875">
        <ele>972.4000244140625</ele>
        <time>2022-05-07T06:58:39.000Z</time>
      </trkpt>
      <trkpt lat="39.9842210300266742706298828125" lon="-0.6956957839429378509521484375">
        <ele>972.79998779296875</ele>
        <time>2022-05-07T06:58:44.000Z</time>
      </trkpt>
      <trkpt lat="39.98377762734889984130859375" lon="-0.6956786848604679107666015625">
        <ele>973.4000244140625</ele>
        <time>2022-05-07T06:58:51.000Z</time>
      </trkpt>
      <trkpt lat="39.9832148663699626922607421875" lon="-0.69565731100738048553466796875">
        <ele>972.79998779296875</ele>
        <time>2022-05-07T06:59:00.000Z</time>
      </trkpt>
      <trkpt lat="39.98266023583710193634033203125" lon="-0.69563769735395908355712890625">
        <ele>972</ele>
        <time>2022-05-07T06:59:09.000Z</time>
      </trkpt>
      <trkpt lat="39.98208641074597835540771484375" lon="-0.69561355747282505035400390625">
        <ele>972</ele>
        <time>2022-05-07T06:59:18.000Z</time>
      </trkpt>
      <trkpt lat="39.98196043074131011962890625" lon="-0.6956106238067150115966796875">
        <ele>972</ele>
        <time>2022-05-07T06:59:20.000Z</time>
      </trkpt>
      <trkpt lat="39.98138652183115482330322265625" lon="-0.69558438844978809356689453125">
        <ele>972.79998779296875</ele>
        <time>2022-05-07T06:59:29.000Z</time>
      </trkpt>
      <trkpt lat="39.98124922625720500946044921875" lon="-0.69558195769786834716796875">
        <ele>973</ele>
        <time>2022-05-07T06:59:31.000Z</time>
      </trkpt>
      <trkpt lat="39.98064505867660045623779296875" lon="-0.69555354304611682891845703125">
        <ele>974.4000244140625</ele>
        <time>2022-05-07T06:59:40.000Z</time>
      </trkpt>
      <trkpt lat="39.98045009560883045196533203125" lon="-0.6955459155142307281494140625">
        <ele>974.79998779296875</ele>
        <time>2022-05-07T06:59:43.000Z</time>
      </trkpt>
      <trkpt lat="39.9802017398178577423095703125" lon="-0.695536695420742034912109375">
        <ele>975</ele>
        <time>2022-05-07T06:59:47.000Z</time>
      </trkpt>
      <trkpt lat="39.98007894493639469146728515625" lon="-0.69553007371723651885986328125">
        <ele>975</ele>
        <time>2022-05-07T06:59:49.000Z</time>
      </trkpt>
      <trkpt lat="39.97969153337180614471435546875" lon="-0.6955142319202423095703125">
        <ele>975</ele>
        <time>2022-05-07T06:59:55.000Z</time>
      </trkpt>
      <trkpt lat="39.97914721257984638214111328125" lon="-0.69549654610455036163330078125">
        <ele>974.5999755859375</ele>
        <time>2022-05-07T07:00:03.000Z</time>
      </trkpt>
      <trkpt lat="39.9790081568062305450439453125" lon="-0.69549369625747203826904296875">
        <ele>974.4000244140625</ele>
        <time>2022-05-07T07:00:05.000Z</time>
      </trkpt>
      <trkpt lat="39.97851320542395114898681640625" lon="-0.69546930491924285888671875">
        <ele>974.4000244140625</ele>
        <time>2022-05-07T07:00:12.000Z</time>
      </trkpt>
      <trkpt lat="39.97802454046905040740966796875" lon="-0.69545279256999492645263671875">
        <ele>975</ele>
        <time>2022-05-07T07:00:19.000Z</time>
      </trkpt>
      <trkpt lat="39.97795748524367809295654296875" lon="-0.695452876389026641845703125">
        <ele>975</ele>
        <time>2022-05-07T07:00:20.000Z</time>
      </trkpt>
      <trkpt lat="39.9773653037846088409423828125" lon="-0.69543175399303436279296875">
        <ele>974.20001220703125</ele>
        <time>2022-05-07T07:00:29.000Z</time>
      </trkpt>
      <trkpt lat="39.97730118222534656524658203125" lon="-0.6954292394220829010009765625">
        <ele>974.20001220703125</ele>
        <time>2022-05-07T07:00:30.000Z</time>
      </trkpt>
      <trkpt lat="39.9767993576824665069580078125" lon="-0.695412643253803253173828125">
        <ele>973.5999755859375</ele>
        <time>2022-05-07T07:00:38.000Z</time>
      </trkpt>
      <trkpt lat="39.97667245566844940185546875" lon="-0.695407278835773468017578125">
        <ele>973.4000244140625</ele>
        <time>2022-05-07T07:00:40.000Z</time>
      </trkpt>
      <trkpt lat="39.97609536163508892059326171875" lon="-0.6953828036785125732421875">
        <ele>971.5999755859375</ele>
        <time>2022-05-07T07:00:49.000Z</time>
      </trkpt>
      <trkpt lat="39.97603216208517551422119140625" lon="-0.6953809596598148345947265625">
        <ele>971.4000244140625</ele>
        <time>2022-05-07T07:00:50.000Z</time>
      </trkpt>
      <trkpt lat="39.97546034865081310272216796875" lon="-0.695362351834774017333984375">
        <ele>970.20001220703125</ele>
        <time>2022-05-07T07:00:59.000Z</time>
      </trkpt>
      <trkpt lat="39.97520570643246173858642578125" lon="-0.695354305207729339599609375">
        <ele>970.20001220703125</ele>
        <time>2022-05-07T07:01:03.000Z</time>
      </trkpt>
      <trkpt lat="39.97463800013065338134765625" lon="-0.695334859192371368408203125">
        <ele>970.5999755859375</ele>
        <time>2022-05-07T07:01:12.000Z</time>
      </trkpt>
      <trkpt lat="39.974513612687587738037109375" lon="-0.69532580673694610595703125">
        <ele>970.79998779296875</ele>
        <time>2022-05-07T07:01:14.000Z</time>
      </trkpt>
      <trkpt lat="39.97396342456340789794921875" lon="-0.69530778564512729644775390625">
        <ele>971.5999755859375</ele>
        <time>2022-05-07T07:01:23.000Z</time>
      </trkpt>
      <trkpt lat="39.973904751241207122802734375" lon="-0.69530443288385868072509765625">
        <ele>971.4000244140625</ele>
        <time>2022-05-07T07:01:24.000Z</time>
      </trkpt>
      <trkpt lat="39.97335498221218585968017578125" lon="-0.69529420696198940277099609375">
        <ele>972.20001220703125</ele>
        <time>2022-05-07T07:01:33.000Z</time>
      </trkpt>
      <trkpt lat="39.973290860652923583984375" lon="-0.69529538042843341827392578125">
        <ele>972.4000244140625</ele>
        <time>2022-05-07T07:01:34.000Z</time>
      </trkpt>
      <trkpt lat="39.97301735915243625640869140625" lon="-0.69527107290923595428466796875">
        <ele>973</ele>
        <time>2022-05-07T07:01:39.000Z</time>
      </trkpt>
      <trkpt lat="39.9729601107537746429443359375" lon="-0.6952428258955478668212890625">
        <ele>973.20001220703125</ele>
        <time>2022-05-07T07:01:41.000Z</time>
      </trkpt>
      <trkpt lat="39.9729435145854949951171875" lon="-0.695228911936283111572265625">
        <ele>973.20001220703125</ele>
        <time>2022-05-07T07:01:42.000Z</time>
      </trkpt>
      <trkpt lat="39.97292130254209041595458984375" lon="-0.69521181285381317138671875">
        <ele>973.4000244140625</ele>
        <time>2022-05-07T07:01:44.000Z</time>
      </trkpt>
      <trkpt lat="39.9729118309915065765380859375" lon="-0.69518876262009143829345703125">
        <ele>973.4000244140625</ele>
        <time>2022-05-07T07:01:47.000Z</time>
      </trkpt>
      <trkpt lat="39.97291308827698230743408203125" lon="-0.69519102573394775390625">
        <ele>973.4000244140625</ele>
        <time>2022-05-07T07:01:48.000Z</time>
      </trkpt>
      <trkpt lat="39.97291778214275836944580078125" lon="-0.69512304849922657012939453125">
        <ele>973.4000244140625</ele>
        <time>2022-05-07T07:04:42.000Z</time>
      </trkpt>
      <trkpt lat="39.97292499057948589324951171875" lon="-0.695084072649478912353515625">
        <ele>973.5999755859375</ele>
        <time>2022-05-07T07:04:43.000Z</time>
      </trkpt>
      <trkpt lat="39.97297042049467563629150390625" lon="-0.69480319507420063018798828125">
        <ele>973.79998779296875</ele>
        <time>2022-05-07T07:04:48.000Z</time>
      </trkpt>
      <trkpt lat="39.97296790592372417449951171875" lon="-0.69473982788622379302978515625">
        <ele>973.79998779296875</ele>
        <time>2022-05-07T07:04:49.000Z</time>
      </trkpt>
      <trkpt lat="39.9729466997087001800537109375" lon="-0.6946145184338092803955078125">
        <ele>974</ele>
        <time>2022-05-07T07:04:51.000Z</time>
      </trkpt>
      <trkpt lat="39.9729202128946781158447265625" lon="-0.694558359682559967041015625">
        <ele>974</ele>
        <time>2022-05-07T07:04:52.000Z</time>
      </trkpt>
      <trkpt lat="39.9727787263691425323486328125" lon="-0.6943711079657077789306640625">
        <ele>974</ele>
        <time>2022-05-07T07:04:56.000Z</time>
      </trkpt>
      <trkpt lat="39.97274704277515411376953125" lon="-0.6943255104124546051025390625">
        <ele>974</ele>
        <time>2022-05-07T07:04:57.000Z</time>
      </trkpt>
      <trkpt lat="39.97260631062090396881103515625" lon="-0.694007165729999542236328125">
        <ele>974.20001220703125</ele>
        <time>2022-05-07T07:05:03.000Z</time>
      </trkpt>
      <trkpt lat="39.9725886248052120208740234375" lon="-0.6939496658742427825927734375">
        <ele>974.20001220703125</ele>
        <time>2022-05-07T07:05:04.000Z</time>
      </trkpt>
      <trkpt lat="39.97257362119853496551513671875" lon="-0.693889819085597991943359375">
        <ele>974.4000244140625</ele>
        <time>2022-05-07T07:05:05.000Z</time>
      </trkpt>
      <trkpt lat="39.9725007824599742889404296875" lon="-0.69363760761916637420654296875">
        <ele>974.20001220703125</ele>
        <time>2022-05-07T07:05:09.000Z</time>
      </trkpt>
      <trkpt lat="39.9724706076085567474365234375" lon="-0.69357834756374359130859375">
        <ele>974.20001220703125</ele>
        <time>2022-05-07T07:05:10.000Z</time>
      </trkpt>
      <trkpt lat="39.97231696732342243194580078125" lon="-0.6933867372572422027587890625">
        <ele>974.4000244140625</ele>
        <time>2022-05-07T07:05:14.000Z</time>
      </trkpt>
      <trkpt lat="39.972280673682689666748046875" lon="-0.69333971478044986724853515625">
        <ele>974.5999755859375</ele>
        <time>2022-05-07T07:05:15.000Z</time>
      </trkpt>
      <trkpt lat="39.97220934368669986724853515625" lon="-0.69324986077845096588134765625">
        <ele>974.5999755859375</ele>
        <time>2022-05-07T07:05:17.000Z</time>
      </trkpt>
      <trkpt lat="39.97209970839321613311767578125" lon="-0.69313905201852321624755859375">
        <ele>975</ele>
        <time>2022-05-07T07:05:20.000Z</time>
      </trkpt>
      <trkpt lat="39.9720652587711811065673828125" lon="-0.69310703314840793609619140625">
        <ele>975</ele>
        <time>2022-05-07T07:05:21.000Z</time>
      </trkpt>
      <trkpt lat="39.97184573672711849212646484375" lon="-0.69292061962187290191650390625">
        <ele>975.79998779296875</ele>
        <time>2022-05-07T07:05:28.000Z</time>
      </trkpt>
      <trkpt lat="39.9716384522616863250732421875" lon="-0.69274686276912689208984375">
        <ele>976.79998779296875</ele>
        <time>2022-05-07T07:05:34.000Z</time>
      </trkpt>
      <trkpt lat="39.9716012366116046905517578125" lon="-0.69271962158381938934326171875">
        <ele>976.79998779296875</ele>
        <time>2022-05-07T07:05:35.000Z</time>
      </trkpt>
      <trkpt lat="39.97135153971612453460693359375" lon="-0.6925472058355808258056640625">
        <ele>977</ele>
        <time>2022-05-07T07:05:42.000Z</time>
      </trkpt>
      <trkpt lat="39.97127861715853214263916015625" lon="-0.69250923581421375274658203125">
        <ele>977</ele>
        <time>2022-05-07T07:05:44.000Z</time>
      </trkpt>
      <trkpt lat="39.9712015874683856964111328125" lon="-0.69248509593307971954345703125">
        <ele>977</ele>
        <time>2022-05-07T07:05:46.000Z</time>
      </trkpt>
      <trkpt lat="39.9710792116820812225341796875" lon="-0.69248492829501628875732421875">
        <ele>977.20001220703125</ele>
        <time>2022-05-07T07:05:49.000Z</time>
      </trkpt>
      <trkpt lat="39.9709668941795825958251953125" lon="-0.6925369799137115478515625">
        <ele>977.4000244140625</ele>
        <time>2022-05-07T07:05:52.000Z</time>
      </trkpt>
      <trkpt lat="39.97093277983367443084716796875" lon="-0.6925584375858306884765625">
        <ele>977.4000244140625</ele>
        <time>2022-05-07T07:05:53.000Z</time>
      </trkpt>
      <trkpt lat="39.970898665487766265869140625" lon="-0.692580230534076690673828125">
        <ele>977.4000244140625</ele>
        <time>2022-05-07T07:05:54.000Z</time>
      </trkpt>
      <trkpt lat="39.97062985785305500030517578125" lon="-0.69276421330869197845458984375">
        <ele>977.79998779296875</ele>
        <time>2022-05-07T07:06:02.000Z</time>
      </trkpt>
      <trkpt lat="39.9703620560467243194580078125" lon="-0.69295515306293964385986328125">
        <ele>978.4000244140625</ele>
        <time>2022-05-07T07:06:10.000Z</time>
      </trkpt>
      <trkpt lat="39.97026205994188785552978515625" lon="-0.693031512200832366943359375">
        <ele>978.79998779296875</ele>
        <time>2022-05-07T07:06:13.000Z</time>
      </trkpt>
      <trkpt lat="39.970088638365268707275390625" lon="-0.6931486912071704864501953125">
        <ele>979</ele>
        <time>2022-05-07T07:06:18.000Z</time>
      </trkpt>
      <trkpt lat="39.96986609883606433868408203125" lon="-0.693307779729366302490234375">
        <ele>979.20001220703125</ele>
        <time>2022-05-07T07:06:25.000Z</time>
      </trkpt>
      <trkpt lat="39.96957323513925075531005859375" lon="-0.69348690100014209747314453125">
        <ele>979.79998779296875</ele>
        <time>2022-05-07T07:06:33.000Z</time>
      </trkpt>
      <trkpt lat="39.9695020727813243865966796875" lon="-0.69353501312434673309326171875">
        <ele>980</ele>
        <time>2022-05-07T07:06:35.000Z</time>
      </trkpt>
      <trkpt lat="39.9693498574197292327880859375" lon="-0.6936368532478809356689453125">
        <ele>980.20001220703125</ele>
        <time>2022-05-07T07:06:39.000Z</time>
      </trkpt>
      <trkpt lat="39.9690293334424495697021484375" lon="-0.693783871829509735107421875">
        <ele>981</ele>
        <time>2022-05-07T07:06:47.000Z</time>
      </trkpt>
      <trkpt lat="39.96894710697233676910400390625" lon="-0.69380700588226318359375">
        <ele>981.4000244140625</ele>
        <time>2022-05-07T07:06:49.000Z</time>
      </trkpt>
      <trkpt lat="39.96864988468587398529052734375" lon="-0.69384832866489887237548828125">
        <ele>981.79998779296875</ele>
        <time>2022-05-07T07:06:56.000Z</time>
      </trkpt>
      <trkpt lat="39.968216121196746826171875" lon="-0.69388286210596561431884765625">
        <ele>980.79998779296875</ele>
        <time>2022-05-07T07:07:06.000Z</time>
      </trkpt>
      <trkpt lat="39.96817580424249172210693359375" lon="-0.69388621486723423004150390625">
        <ele>980.5999755859375</ele>
        <time>2022-05-07T07:07:07.000Z</time>
      </trkpt>
      <trkpt lat="39.96788545511662960052490234375" lon="-0.69396081380546092987060546875">
        <ele>980</ele>
        <time>2022-05-07T07:07:14.000Z</time>
      </trkpt>
      <trkpt lat="39.9675517715513706207275390625" lon="-0.6941087543964385986328125">
        <ele>981</ele>
        <time>2022-05-07T07:07:22.000Z</time>
      </trkpt>
      <trkpt lat="39.967370219528675079345703125" lon="-0.6941719539463520050048828125">
        <ele>981.4000244140625</ele>
        <time>2022-05-07T07:07:26.000Z</time>
      </trkpt>
      <trkpt lat="39.96727542020380496978759765625" lon="-0.69416684098541736602783203125">
        <ele>981.4000244140625</ele>
        <time>2022-05-07T07:07:28.000Z</time>
      </trkpt>
      <trkpt lat="39.96718539856374263763427734375" lon="-0.69413616321980953216552734375">
        <ele>981.5999755859375</ele>
        <time>2022-05-07T07:07:30.000Z</time>
      </trkpt>
      <trkpt lat="39.9669943749904632568359375" lon="-0.69405821152031421661376953125">
        <ele>981.5999755859375</ele>
        <time>2022-05-07T07:07:34.000Z</time>
      </trkpt>
      <trkpt lat="39.96665884740650653839111328125" lon="-0.69400087930262088775634765625">
        <ele>982.4000244140625</ele>
        <time>2022-05-07T07:07:41.000Z</time>
      </trkpt>
      <trkpt lat="39.9661950767040252685546875" lon="-0.6939389370381832122802734375">
        <ele>983.20001220703125</ele>
        <time>2022-05-07T07:07:51.000Z</time>
      </trkpt>
      <trkpt lat="39.96584437787532806396484375" lon="-0.69387800060212612152099609375">
        <ele>983</ele>
        <time>2022-05-07T07:07:59.000Z</time>
      </trkpt>
      <trkpt lat="39.96579986996948719024658203125" lon="-0.69387448020279407501220703125">
        <ele>983</ele>
        <time>2022-05-07T07:08:00.000Z</time>
      </trkpt>
      <trkpt lat="39.96535210870206356048583984375" lon="-0.69386425428092479705810546875">
        <ele>983.20001220703125</ele>
        <time>2022-05-07T07:08:10.000Z</time>
      </trkpt>
      <trkpt lat="39.96508858166635036468505859375" lon="-0.69396249018609523773193359375">
        <ele>983.79998779296875</ele>
        <time>2022-05-07T07:08:16.000Z</time>
      </trkpt>
      <trkpt lat="39.96488003991544246673583984375" lon="-0.69410900585353374481201171875">
        <ele>984.5999755859375</ele>
        <time>2022-05-07T07:08:21.000Z</time>
      </trkpt>
      <trkpt lat="39.9648025073111057281494140625" lon="-0.694162063300609588623046875">
        <ele>984.79998779296875</ele>
        <time>2022-05-07T07:08:23.000Z</time>
      </trkpt>
      <trkpt lat="39.9646154232323169708251953125" lon="-0.69418997503817081451416015625">
        <ele>985.20001220703125</ele>
        <time>2022-05-07T07:08:28.000Z</time>
      </trkpt>
      <trkpt lat="39.9644601903855800628662109375" lon="-0.69406692869961261749267578125">
        <ele>985.20001220703125</ele>
        <time>2022-05-07T07:08:33.000Z</time>
      </trkpt>
      <trkpt lat="39.96441266499459743499755859375" lon="-0.69397372193634510040283203125">
        <ele>985</ele>
        <time>2022-05-07T07:08:35.000Z</time>
      </trkpt>
      <trkpt lat="39.96433471329510211944580078125" lon="-0.6938343308866024017333984375">
        <ele>985.20001220703125</ele>
        <time>2022-05-07T07:08:38.000Z</time>
      </trkpt>
      <trkpt lat="39.9643014371395111083984375" lon="-0.6937937624752521514892578125">
        <ele>985.4000244140625</ele>
        <time>2022-05-07T07:08:39.000Z</time>
      </trkpt>
      <trkpt lat="39.96417596004903316497802734375" lon="-0.6937116198241710662841796875">
        <ele>985.4000244140625</ele>
        <time>2022-05-07T07:08:42.000Z</time>
      </trkpt>
      <trkpt lat="39.96413153596222400665283203125" lon="-0.6937065906822681427001953125">
        <ele>985.5999755859375</ele>
        <time>2022-05-07T07:08:43.000Z</time>
      </trkpt>
      <trkpt lat="39.96398217044770717620849609375" lon="-0.69380256347358226776123046875">
        <ele>985.79998779296875</ele>
        <time>2022-05-07T07:08:47.000Z</time>
      </trkpt>
      <trkpt lat="39.96395451016724109649658203125" lon="-0.6938445568084716796875">
        <ele>985.79998779296875</ele>
        <time>2022-05-07T07:08:48.000Z</time>
      </trkpt>
      <trkpt lat="39.96390706859529018402099609375" lon="-0.693936757743358612060546875">
        <ele>985.79998779296875</ele>
        <time>2022-05-07T07:08:50.000Z</time>
      </trkpt>
      <trkpt lat="39.96385677717626094818115234375" lon="-0.69402770139276981353759765625">
        <ele>985.5999755859375</ele>
        <time>2022-05-07T07:08:52.000Z</time>
      </trkpt>
      <trkpt lat="39.96376306749880313873291015625" lon="-0.69415091536939144134521484375">
        <ele>985.5999755859375</ele>
        <time>2022-05-07T07:08:55.000Z</time>
      </trkpt>
      <trkpt lat="39.9636843614280223846435546875" lon="-0.694219730794429779052734375">
        <ele>985.5999755859375</ele>
        <time>2022-05-07T07:08:57.000Z</time>
      </trkpt>
      <trkpt lat="39.96344405226409435272216796875" lon="-0.69432106800377368927001953125">
        <ele>985</ele>
        <time>2022-05-07T07:09:02.000Z</time>
      </trkpt>
      <trkpt lat="39.9633413739502429962158203125" lon="-0.69431997835636138916015625">
        <ele>985</ele>
        <time>2022-05-07T07:09:04.000Z</time>
      </trkpt>
      <trkpt lat="39.96323869563639163970947265625" lon="-0.69432307966053485870361328125">
        <ele>984.79998779296875</ele>
        <time>2022-05-07T07:09:06.000Z</time>
      </trkpt>
      <trkpt lat="39.963190667331218719482421875" lon="-0.6943449564278125762939453125">
        <ele>984.79998779296875</ele>
        <time>2022-05-07T07:09:07.000Z</time>
      </trkpt>
      <trkpt lat="39.96302780695259571075439453125" lon="-0.694522820413112640380859375">
        <ele>984.4000244140625</ele>
        <time>2022-05-07T07:09:11.000Z</time>
      </trkpt>
      <trkpt lat="39.9629294872283935546875" lon="-0.694595240056514739990234375">
        <ele>984.20001220703125</ele>
        <time>2022-05-07T07:09:13.000Z</time>
      </trkpt>
      <trkpt lat="39.9627714045345783233642578125" lon="-0.6946842558681964874267578125">
        <ele>984</ele>
        <time>2022-05-07T07:09:16.000Z</time>
      </trkpt>
      <trkpt lat="39.96260829269886016845703125" lon="-0.69475986063480377197265625">
        <ele>984</ele>
        <time>2022-05-07T07:09:19.000Z</time>
      </trkpt>
      <trkpt lat="39.9622683227062225341796875" lon="-0.69489187560975551605224609375">
        <ele>983.79998779296875</ele>
        <time>2022-05-07T07:09:25.000Z</time>
      </trkpt>
      <trkpt lat="39.962210319936275482177734375" lon="-0.69491408765316009521484375">
        <ele>983.79998779296875</ele>
        <time>2022-05-07T07:09:26.000Z</time>
      </trkpt>
      <trkpt lat="39.96199130080640316009521484375" lon="-0.69501735270023345947265625">
        <ele>983.5999755859375</ele>
        <time>2022-05-07T07:09:30.000Z</time>
      </trkpt>
      <trkpt lat="39.96194335632026195526123046875" lon="-0.695052556693553924560546875">
        <ele>983.5999755859375</ele>
        <time>2022-05-07T07:09:31.000Z</time>
      </trkpt>
      <trkpt lat="39.96171704493463039398193359375" lon="-0.695243664085865020751953125">
        <ele>983.4000244140625</ele>
        <time>2022-05-07T07:09:36.000Z</time>
      </trkpt>
      <trkpt lat="39.96166574768722057342529296875" lon="-0.69527526386082172393798828125">
        <ele>983.4000244140625</ele>
        <time>2022-05-07T07:09:37.000Z</time>
      </trkpt>
      <trkpt lat="39.96142066083848476409912109375" lon="-0.69539059884846210479736328125">
        <ele>983.20001220703125</ele>
        <time>2022-05-07T07:09:41.000Z</time>
      </trkpt>
      <trkpt lat="39.96135796420276165008544921875" lon="-0.695418678224086761474609375">
        <ele>983.20001220703125</ele>
        <time>2022-05-07T07:09:42.000Z</time>
      </trkpt>
      <trkpt lat="39.96095336973667144775390625" lon="-0.69559176452457904815673828125">
        <ele>982.5999755859375</ele>
        <time>2022-05-07T07:09:49.000Z</time>
      </trkpt>
      <trkpt lat="39.9605307541787624359130859375" lon="-0.69577985443174839019775390625">
        <ele>981.5999755859375</ele>
        <time>2022-05-07T07:09:57.000Z</time>
      </trkpt>
      <trkpt lat="39.96011727489531040191650390625" lon="-0.69596593268215656280517578125">
        <ele>980.79998779296875</ele>
        <time>2022-05-07T07:10:05.000Z</time>
      </trkpt>
      <trkpt lat="39.95977780781686305999755859375" lon="-0.696112699806690216064453125">
        <ele>980</ele>
        <time>2022-05-07T07:10:11.000Z</time>
      </trkpt>
      <trkpt lat="39.9592352472245693206787109375" lon="-0.6963395141065120697021484375">
        <ele>979</ele>
        <time>2022-05-07T07:10:20.000Z</time>
      </trkpt>
      <trkpt lat="39.95911295525729656219482421875" lon="-0.696380250155925750732421875">
        <ele>979</ele>
        <time>2022-05-07T07:10:22.000Z</time>
      </trkpt>
      <trkpt lat="39.95885579846799373626708984375" lon="-0.6964551843702793121337890625">
        <ele>979</ele>
        <time>2022-05-07T07:10:26.000Z</time>
      </trkpt>
      <trkpt lat="39.9586468376219272613525390625" lon="-0.69649952463805675506591796875">
        <ele>978.79998779296875</ele>
        <time>2022-05-07T07:10:29.000Z</time>
      </trkpt>
      <trkpt lat="39.9583645351231098175048828125" lon="-0.696533806622028350830078125">
        <ele>978.20001220703125</ele>
        <time>2022-05-07T07:10:33.000Z</time>
      </trkpt>
      <trkpt lat="39.95822279714047908782958984375" lon="-0.6965383328497409820556640625">
        <ele>978</ele>
        <time>2022-05-07T07:10:35.000Z</time>
      </trkpt>
      <trkpt lat="39.957861118018627166748046875" lon="-0.696517042815685272216796875">
        <ele>977</ele>
        <time>2022-05-07T07:10:40.000Z</time>
      </trkpt>
      <trkpt lat="39.95764209888875484466552734375" lon="-0.6964833475649356842041015625">
        <ele>976.20001220703125</ele>
        <time>2022-05-07T07:10:43.000Z</time>
      </trkpt>
      <trkpt lat="39.95735744945704936981201171875" lon="-0.69641201756894588470458984375">
        <ele>975</ele>
        <time>2022-05-07T07:10:47.000Z</time>
      </trkpt>
      <trkpt lat="39.95692863129079341888427734375" lon="-0.696315877139568328857421875">
        <ele>974.20001220703125</ele>
        <time>2022-05-07T07:10:53.000Z</time>
      </trkpt>
      <trkpt lat="39.95664549060165882110595703125" lon="-0.6962590478360652923583984375">
        <ele>974.20001220703125</ele>
        <time>2022-05-07T07:10:57.000Z</time>
      </trkpt>
      <trkpt lat="39.95636318810284137725830078125" lon="-0.69619190879166126251220703125">
        <ele>974</ele>
        <time>2022-05-07T07:11:01.000Z</time>
      </trkpt>
      <trkpt lat="39.9562918581068515777587890625" lon="-0.69618168286979198455810546875">
        <ele>973.5999755859375</ele>
        <time>2022-05-07T07:11:02.000Z</time>
      </trkpt>
      <trkpt lat="39.95600863359868526458740234375" lon="-0.6961212493479251861572265625">
        <ele>972.79998779296875</ele>
        <time>2022-05-07T07:11:06.000Z</time>
      </trkpt>
      <trkpt lat="39.955792129039764404296875" lon="-0.69607271812856197357177734375">
        <ele>972.20001220703125</ele>
        <time>2022-05-07T07:11:09.000Z</time>
      </trkpt>
      <trkpt lat="39.95547437109053134918212890625" lon="-0.6959988735616207122802734375">
        <ele>971.5999755859375</ele>
        <time>2022-05-07T07:11:13.000Z</time>
      </trkpt>
      <trkpt lat="39.95523414574563503265380859375" lon="-0.695939697325229644775390625">
        <ele>971</ele>
        <time>2022-05-07T07:11:16.000Z</time>
      </trkpt>
      <trkpt lat="39.95507421903312206268310546875" lon="-0.6959031522274017333984375">
        <ele>970.79998779296875</ele>
        <time>2022-05-07T07:11:18.000Z</time>
      </trkpt>
      <trkpt lat="39.954616986215114593505859375" lon="-0.69579728879034519195556640625">
        <ele>968.5999755859375</ele>
        <time>2022-05-07T07:11:24.000Z</time>
      </trkpt>
      <trkpt lat="39.954470135271549224853515625" lon="-0.69576275534927845001220703125">
        <ele>968.20001220703125</ele>
        <time>2022-05-07T07:11:26.000Z</time>
      </trkpt>
      <trkpt lat="39.95410795323550701141357421875" lon="-0.69568656384944915771484375">
        <ele>967</ele>
        <time>2022-05-07T07:11:31.000Z</time>
      </trkpt>
      <trkpt lat="39.95404257439076900482177734375" lon="-0.69567105732858180999755859375">
        <ele>966.79998779296875</ele>
        <time>2022-05-07T07:11:32.000Z</time>
      </trkpt>
      <trkpt lat="39.95384819805622100830078125" lon="-0.69561121053993701934814453125">
        <ele>965.79998779296875</ele>
        <time>2022-05-07T07:11:35.000Z</time>
      </trkpt>
      <trkpt lat="39.9537202902138233184814453125" lon="-0.6955499388277530670166015625">
        <ele>965.20001220703125</ele>
        <time>2022-05-07T07:11:37.000Z</time>
      </trkpt>
      <trkpt lat="39.9536565877497196197509765625" lon="-0.6955194287002086639404296875">
        <ele>965.5999755859375</ele>
        <time>2022-05-07T07:11:38.000Z</time>
      </trkpt>
      <trkpt lat="39.95339599438011646270751953125" lon="-0.69537618197500705718994140625">
        <ele>968.4000244140625</ele>
        <time>2022-05-07T07:11:42.000Z</time>
      </trkpt>
      <trkpt lat="39.95319600217044353485107421875" lon="-0.69522765465080738067626953125">
        <ele>970.5999755859375</ele>
        <time>2022-05-07T07:11:45.000Z</time>
      </trkpt>
      <trkpt lat="39.95300875045359134674072265625" lon="-0.69505624473094940185546875">
        <ele>967.79998779296875</ele>
        <time>2022-05-07T07:11:48.000Z</time>
      </trkpt>
      <trkpt lat="39.95282367803156375885009765625" lon="-0.69487142376601696014404296875">
        <ele>965.79998779296875</ele>
        <time>2022-05-07T07:11:51.000Z</time>
      </trkpt>
      <trkpt lat="39.952521510422229766845703125" lon="-0.69453329779207706451416015625">
        <ele>971.4000244140625</ele>
        <time>2022-05-07T07:11:56.000Z</time>
      </trkpt>
      <trkpt lat="39.9521448276937007904052734375" lon="-0.6941114366054534912109375">
        <ele>969.79998779296875</ele>
        <time>2022-05-07T07:12:02.000Z</time>
      </trkpt>
      <trkpt lat="39.95196268893778324127197265625" lon="-0.69391303695738315582275390625">
        <ele>968.79998779296875</ele>
        <time>2022-05-07T07:12:05.000Z</time>
      </trkpt>
      <trkpt lat="39.95190468616783618927001953125" lon="-0.69384581409394741058349609375">
        <ele>969.79998779296875</ele>
        <time>2022-05-07T07:12:06.000Z</time>
      </trkpt>
      <trkpt lat="39.95184618048369884490966796875" lon="-0.69378026761114597320556640625">
        <ele>970.79998779296875</ele>
        <time>2022-05-07T07:12:07.000Z</time>
      </trkpt>
      <trkpt lat="39.95145172812044620513916015625" lon="-0.6933282315731048583984375">
        <ele>971.20001220703125</ele>
        <time>2022-05-07T07:12:14.000Z</time>
      </trkpt>
      <trkpt lat="39.95139271952211856842041015625" lon="-0.69326679222285747528076171875">
        <ele>970</ele>
        <time>2022-05-07T07:12:15.000Z</time>
      </trkpt>
      <trkpt lat="39.95102978311479091644287109375" lon="-0.69288910366594791412353515625">
        <ele>967.20001220703125</ele>
        <time>2022-05-07T07:12:21.000Z</time>
      </trkpt>
      <trkpt lat="39.950967840850353240966796875" lon="-0.69283093325793743133544921875">
        <ele>967.79998779296875</ele>
        <time>2022-05-07T07:12:22.000Z</time>
      </trkpt>
      <trkpt lat="39.950457550585269927978515625" lon="-0.6923948228359222412109375">
        <ele>963</ele>
        <time>2022-05-07T07:12:30.000Z</time>
      </trkpt>
      <trkpt lat="39.95011716149747371673583984375" lon="-0.692154429852962493896484375">
        <ele>963.4000244140625</ele>
        <time>2022-05-07T07:12:35.000Z</time>
      </trkpt>
      <trkpt lat="39.9500481784343719482421875" lon="-0.6921113468706607818603515625">
        <ele>964.4000244140625</ele>
        <time>2022-05-07T07:12:36.000Z</time>
      </trkpt>
      <trkpt lat="39.9497660435736179351806640625" lon="-0.6919388473033905029296875">
        <ele>967</ele>
        <time>2022-05-07T07:12:40.000Z</time>
      </trkpt>
      <trkpt lat="39.9493266642093658447265625" lon="-0.691709853708744049072265625">
        <ele>962.5999755859375</ele>
        <time>2022-05-07T07:12:46.000Z</time>
      </trkpt>
      <trkpt lat="39.94880656711757183074951171875" lon="-0.691463090479373931884765625">
        <ele>959</ele>
        <time>2022-05-07T07:12:53.000Z</time>
      </trkpt>
      <trkpt lat="39.94865418411791324615478515625" lon="-0.69138564169406890869140625">
        <ele>957.4000244140625</ele>
        <time>2022-05-07T07:12:55.000Z</time>
      </trkpt>
      <trkpt lat="39.94842351414263248443603515625" lon="-0.69128246046602725982666015625">
        <ele>957.20001220703125</ele>
        <time>2022-05-07T07:12:58.000Z</time>
      </trkpt>
      <trkpt lat="39.94819678366184234619140625" lon="-0.691173411905765533447265625">
        <ele>957.5999755859375</ele>
        <time>2022-05-07T07:13:01.000Z</time>
      </trkpt>
      <trkpt lat="39.94782705791294574737548828125" lon="-0.690991692245006561279296875">
        <ele>955</ele>
        <time>2022-05-07T07:13:06.000Z</time>
      </trkpt>
      <trkpt lat="39.94761030189692974090576171875" lon="-0.6908842362463474273681640625">
        <ele>953.5999755859375</ele>
        <time>2022-05-07T07:13:09.000Z</time>
      </trkpt>
      <trkpt lat="39.94753830134868621826171875" lon="-0.69084777496755123138427734375">
        <ele>953</ele>
        <time>2022-05-07T07:13:10.000Z</time>
      </trkpt>
      <trkpt lat="39.94726010598242282867431640625" lon="-0.69069438613951206207275390625">
        <ele>950.20001220703125</ele>
        <time>2022-05-07T07:13:14.000Z</time>
      </trkpt>
      <trkpt lat="39.94712348096072673797607421875" lon="-0.69060268811881542205810546875">
        <ele>948.79998779296875</ele>
        <time>2022-05-07T07:13:16.000Z</time>
      </trkpt>
      <trkpt lat="39.9469931423664093017578125" lon="-0.69049741141498088836669921875">
        <ele>948.20001220703125</ele>
        <time>2022-05-07T07:13:17.000Z</time>
      </trkpt>
      <trkpt lat="39.94682374410331249237060546875" lon="-0.6903095729649066925048828125">
        <ele>949.5999755859375</ele>
        <time>2022-05-07T07:13:21.000Z</time>
      </trkpt>
      <trkpt lat="39.9467193894088268280029296875" lon="-0.6901704333722591400146484375">
        <ele>950.5999755859375</ele>
        <time>2022-05-07T07:13:23.000Z</time>
      </trkpt>
      <trkpt lat="39.94655468501150608062744140625" lon="-0.689847059547901153564453125">
        <ele>949.4000244140625</ele>
        <time>2022-05-07T07:13:26.000Z</time>
      </trkpt>
      <trkpt lat="39.94655468501150608062744140625" lon="-0.689847059547901153564453125">
        <ele>949.4000244140625</ele>
        <time>2022-05-07T07:13:27.000Z</time>
      </trkpt>
      <trkpt lat="39.94648125953972339630126953125" lon="-0.6896618194878101348876953125">
        <ele>948.4000244140625</ele>
        <time>2022-05-07T07:13:29.000Z</time>
      </trkpt>
      <trkpt lat="39.9463520944118499755859375" lon="-0.6892740726470947265625">
        <ele>946.4000244140625</ele>
        <time>2022-05-07T07:13:33.000Z</time>
      </trkpt>
      <trkpt lat="39.9462969414889812469482421875" lon="-0.6890851445496082305908203125">
        <ele>945.20001220703125</ele>
        <time>2022-05-07T07:13:34.000Z</time>
      </trkpt>
      <trkpt lat="39.946179427206516265869140625" lon="-0.68874307908117771148681640625">
        <ele>943</ele>
        <time>2022-05-07T07:13:39.000Z</time>
      </trkpt>
      <trkpt lat="39.946153275668621063232421875" lon="-0.68865926004946231842041015625">
        <ele>942.4000244140625</ele>
        <time>2022-05-07T07:13:40.000Z</time>
      </trkpt>
      <trkpt lat="39.9461081810295581817626953125" lon="-0.68842406384646892547607421875">
        <ele>941</ele>
        <time>2022-05-07T07:13:42.000Z</time>
      </trkpt>
      <trkpt lat="39.94609753601253032684326171875" lon="-0.6883500516414642333984375">
        <ele>940.4000244140625</ele>
        <time>2022-05-07T07:13:44.000Z</time>
      </trkpt>
      <trkpt lat="39.9460897408425807952880859375" lon="-0.6879304535686969757080078125">
        <ele>938.4000244140625</ele>
        <time>2022-05-07T07:13:49.000Z</time>
      </trkpt>
      <trkpt lat="39.946122430264949798583984375" lon="-0.687498115003108978271484375">
        <ele>935.4000244140625</ele>
        <time>2022-05-07T07:13:54.000Z</time>
      </trkpt>
      <trkpt lat="39.94621002115309238433837890625" lon="-0.68708865903317928314208984375">
        <ele>933.4000244140625</ele>
        <time>2022-05-07T07:13:59.000Z</time>
      </trkpt>
      <trkpt lat="39.9462349154055118560791015625" lon="-0.6870117969810962677001953125">
        <ele>933</ele>
        <time>2022-05-07T07:14:00.000Z</time>
      </trkpt>
      <trkpt lat="39.946344383060932159423828125" lon="-0.68672086112201213836669921875">
        <ele>932</ele>
        <time>2022-05-07T07:14:04.000Z</time>
      </trkpt>
      <trkpt lat="39.94642828591167926788330078125" lon="-0.686514079570770263671875">
        <ele>931.20001220703125</ele>
        <time>2022-05-07T07:14:07.000Z</time>
      </trkpt>
      <trkpt lat="39.94657161645591259002685546875" lon="-0.686171092092990875244140625">
        <ele>929.79998779296875</ele>
        <time>2022-05-07T07:14:12.000Z</time>
      </trkpt>
      <trkpt lat="39.94668594561517238616943359375" lon="-0.68588954396545886993408203125">
        <ele>928.79998779296875</ele>
        <time>2022-05-07T07:14:16.000Z</time>
      </trkpt>
      <trkpt lat="39.94674696587026119232177734375" lon="-0.6857468001544475555419921875">
        <ele>928.20001220703125</ele>
        <time>2022-05-07T07:14:18.000Z</time>
      </trkpt>
      <trkpt lat="39.9469664879143238067626953125" lon="-0.68520843051373958587646484375">
        <ele>927.79998779296875</ele>
        <time>2022-05-07T07:14:25.000Z</time>
      </trkpt>
      <trkpt lat="39.9469986744225025177001953125" lon="-0.685131736099720001220703125">
        <ele>927.79998779296875</ele>
        <time>2022-05-07T07:14:26.000Z</time>
      </trkpt>
      <trkpt lat="39.94726697914302349090576171875" lon="-0.68454441614449024200439453125">
        <ele>928.79998779296875</ele>
        <time>2022-05-07T07:14:34.000Z</time>
      </trkpt>
      <trkpt lat="39.94730402715504169464111328125" lon="-0.68447358906269073486328125">
        <ele>928.79998779296875</ele>
        <time>2022-05-07T07:14:35.000Z</time>
      </trkpt>
      <trkpt lat="39.9474590085446834564208984375" lon="-0.68420226685702800750732421875">
        <ele>929.4000244140625</ele>
        <time>2022-05-07T07:14:39.000Z</time>
      </trkpt>
      <trkpt lat="39.94765925221145153045654296875" lon="-0.68387813866138458251953125">
        <ele>930.20001220703125</ele>
        <time>2022-05-07T07:14:44.000Z</time>
      </trkpt>
      <trkpt lat="39.94801900349557399749755859375" lon="-0.6833106838166713714599609375">
        <ele>931</ele>
        <time>2022-05-07T07:14:53.000Z</time>
      </trkpt>
      <trkpt lat="39.94805957190692424774169921875" lon="-0.68324857391417026519775390625">
        <ele>931.20001220703125</ele>
        <time>2022-05-07T07:14:54.000Z</time>
      </trkpt>
      <trkpt lat="39.94809946976602077484130859375" lon="-0.6831873022019863128662109375">
        <ele>931.4000244140625</ele>
        <time>2022-05-07T07:14:55.000Z</time>
      </trkpt>
      <trkpt lat="39.948385544121265411376953125" lon="-0.68276778794825077056884765625">
        <ele>931.20001220703125</ele>
        <time>2022-05-07T07:15:02.000Z</time>
      </trkpt>
      <trkpt lat="39.94865812361240386962890625" lon="-0.68242999725043773651123046875">
        <ele>931</ele>
        <time>2022-05-07T07:15:08.000Z</time>
      </trkpt>
      <trkpt lat="39.94870481081306934356689453125" lon="-0.68236394785344600677490234375">
        <ele>930.79998779296875</ele>
        <time>2022-05-07T07:15:09.000Z</time>
      </trkpt>
      <trkpt lat="39.9487987719476222991943359375" lon="-0.68221692927181720733642578125">
        <ele>930.5999755859375</ele>
        <time>2022-05-07T07:15:11.000Z</time>
      </trkpt>
      <trkpt lat="39.948971606791019439697265625" lon="-0.68190042860805988311767578125">
        <ele>930.4000244140625</ele>
        <time>2022-05-07T07:15:15.000Z</time>
      </trkpt>
      <trkpt lat="39.94909624569118022918701171875" lon="-0.6816094927489757537841796875">
        <ele>930.20001220703125</ele>
        <time>2022-05-07T07:15:19.000Z</time>
      </trkpt>
      <trkpt lat="39.94912608526647090911865234375" lon="-0.68154453299939632415771484375">
        <ele>930.20001220703125</ele>
        <time>2022-05-07T07:15:20.000Z</time>
      </trkpt>
      <trkpt lat="39.94921241886913776397705078125" lon="-0.68138058297336101531982421875">
        <ele>930.4000244140625</ele>
        <time>2022-05-07T07:15:23.000Z</time>
      </trkpt>
      <trkpt lat="39.94927394203841686248779296875" lon="-0.681296177208423614501953125">
        <ele>930.4000244140625</ele>
        <time>2022-05-07T07:15:25.000Z</time>
      </trkpt>
      <trkpt lat="39.94952313601970672607421875" lon="-0.68092829547822475433349609375">
        <ele>931.20001220703125</ele>
        <time>2022-05-07T07:15:33.000Z</time>
      </trkpt>
      <trkpt lat="39.94981725700199604034423828125" lon="-0.68046846427023410797119140625">
        <ele>932.4000244140625</ele>
        <time>2022-05-07T07:15:41.000Z</time>
      </trkpt>
      <trkpt lat="39.94992471300065517425537109375" lon="-0.68029311485588550567626953125">
        <ele>931.79998779296875</ele>
        <time>2022-05-07T07:15:44.000Z</time>
      </trkpt>
      <trkpt lat="39.9501221068203449249267578125" lon="-0.679985582828521728515625">
        <ele>931</ele>
        <time>2022-05-07T07:15:48.000Z</time>
      </trkpt>
      <trkpt lat="39.95036442764103412628173828125" lon="-0.6795874424278736114501953125">
        <ele>930.5999755859375</ele>
        <time>2022-05-07T07:15:55.000Z</time>
      </trkpt>
      <trkpt lat="39.95040248148143291473388671875" lon="-0.67951611243188381195068359375">
        <ele>930.5999755859375</ele>
        <time>2022-05-07T07:15:56.000Z</time>
      </trkpt>
      <trkpt lat="39.9506149627268314361572265625" lon="-0.6790992803871631622314453125">
        <ele>930.4000244140625</ele>
        <time>2022-05-07T07:16:02.000Z</time>
      </trkpt>
      <trkpt lat="39.95064320974051952362060546875" lon="-0.6790293753147125244140625">
        <ele>930.20001220703125</ele>
        <time>2022-05-07T07:16:03.000Z</time>
      </trkpt>
      <trkpt lat="39.95079374872148036956787109375" lon="-0.6786520220339298248291015625">
        <ele>929.5999755859375</ele>
        <time>2022-05-07T07:16:08.000Z</time>
      </trkpt>
      <trkpt lat="39.950844459235668182373046875" lon="-0.6784907542169094085693359375">
        <ele>929.20001220703125</ele>
        <time>2022-05-07T07:16:10.000Z</time>
      </trkpt>
      <trkpt lat="39.9508821777999401092529296875" lon="-0.67831632681190967559814453125">
        <ele>928.5999755859375</ele>
        <time>2022-05-07T07:16:11.000Z</time>
      </trkpt>
      <trkpt lat="39.95094110257923603057861328125" lon="-0.6780485250055789947509765625">
        <ele>927.5999755859375</ele>
        <time>2022-05-07T07:16:15.000Z</time>
      </trkpt>
      <trkpt lat="39.950953423976898193359375" lon="-0.6779590062797069549560546875">
        <ele>927.4000244140625</ele>
        <time>2022-05-07T07:16:16.000Z</time>
      </trkpt>
      <trkpt lat="39.95102073065936565399169921875" lon="-0.67742667160928249359130859375">
        <ele>925.79998779296875</ele>
        <time>2022-05-07T07:16:22.000Z</time>
      </trkpt>
      <trkpt lat="39.9510447867214679718017578125" lon="-0.6772431917488574981689453125">
        <ele>925.4000244140625</ele>
        <time>2022-05-07T07:16:23.000Z</time>
      </trkpt>
      <trkpt lat="39.95105509646236896514892578125" lon="-0.6767047382891178131103515625">
        <ele>924.20001220703125</ele>
        <time>2022-05-07T07:16:29.000Z</time>
      </trkpt>
      <trkpt lat="39.9510521627962589263916015625" lon="-0.6766108609735965728759765625">
        <ele>924</ele>
        <time>2022-05-07T07:16:30.000Z</time>
      </trkpt>
      <trkpt lat="39.9509904719889163970947265625" lon="-0.6760727427899837493896484375">
        <ele>923.4000244140625</ele>
        <time>2022-05-07T07:16:37.000Z</time>
      </trkpt>
      <trkpt lat="39.95094629935920238494873046875" lon="-0.675717182457447052001953125">
        <ele>923</ele>
        <time>2022-05-07T07:16:40.000Z</time>
      </trkpt>
      <trkpt lat="39.9508744664490222930908203125" lon="-0.6753695011138916015625">
        <ele>922.5999755859375</ele>
        <time>2022-05-07T07:16:45.000Z</time>
      </trkpt>
      <trkpt lat="39.95084010064601898193359375" lon="-0.67519121803343296051025390625">
        <ele>922.79998779296875</ele>
        <time>2022-05-07T07:16:46.000Z</time>
      </trkpt>
      <trkpt lat="39.9507390148937702178955078125" lon="-0.6748545169830322265625">
        <ele>921.5999755859375</ele>
        <time>2022-05-07T07:16:50.000Z</time>
      </trkpt>
      <trkpt lat="39.9506704509258270263671875" lon="-0.67468863911926746368408203125">
        <ele>920.5999755859375</ele>
        <time>2022-05-07T07:16:52.000Z</time>
      </trkpt>
      <trkpt lat="39.95063214562833309173583984375" lon="-0.67460599355399608612060546875">
        <ele>920</ele>
        <time>2022-05-07T07:16:53.000Z</time>
      </trkpt>
      <trkpt lat="39.95049904100596904754638671875" lon="-0.67437448538839817047119140625">
        <ele>918.79998779296875</ele>
        <time>2022-05-07T07:16:56.000Z</time>
      </trkpt>
      <trkpt lat="39.95041119866073131561279296875" lon="-0.6742174923419952392578125">
        <ele>918</ele>
        <time>2022-05-07T07:16:58.000Z</time>
      </trkpt>
      <trkpt lat="39.95014767162501811981201171875" lon="-0.67379227839410305023193359375">
        <ele>916.5999755859375</ele>
        <time>2022-05-07T07:17:04.000Z</time>
      </trkpt>
      <trkpt lat="39.9501063488423824310302734375" lon="-0.67373192869126796722412109375">
        <ele>916.4000244140625</ele>
        <time>2022-05-07T07:17:05.000Z</time>
      </trkpt>
      <trkpt lat="39.9498307518661022186279296875" lon="-0.6734974868595600128173828125">
        <ele>914.79998779296875</ele>
        <time>2022-05-07T07:17:10.000Z</time>
      </trkpt>
      <trkpt lat="39.94971625506877899169921875" lon="-0.673401094973087310791015625">
        <ele>914</ele>
        <time>2022-05-07T07:17:12.000Z</time>
      </trkpt>
      <trkpt lat="39.94971625506877899169921875" lon="-0.673401094973087310791015625">
        <ele>914</ele>
        <time>2022-05-07T07:17:13.000Z</time>
      </trkpt>
      <trkpt lat="39.949357509613037109375" lon="-0.67310445941984653472900390625">
        <ele>912</ele>
        <time>2022-05-07T07:17:19.000Z</time>
      </trkpt>
      <trkpt lat="39.9492886103689670562744140625" lon="-0.67305735312402248382568359375">
        <ele>911.5999755859375</ele>
        <time>2022-05-07T07:17:20.000Z</time>
      </trkpt>
      <trkpt lat="39.9489278532564640045166015625" lon="-0.672819055616855621337890625">
        <ele>909.5999755859375</ele>
        <time>2022-05-07T07:17:25.000Z</time>
      </trkpt>
      <trkpt lat="39.9488577805459499359130859375" lon="-0.67277245223522186279296875">
        <ele>909.20001220703125</ele>
        <time>2022-05-07T07:17:26.000Z</time>
      </trkpt>
      <trkpt lat="39.9487099237740039825439453125" lon="-0.67270531319081783294677734375">
        <ele>908.5999755859375</ele>
        <time>2022-05-07T07:17:28.000Z</time>
      </trkpt>
      <trkpt lat="39.9483967758715152740478515625" lon="-0.67260623909533023834228515625">
        <ele>908</ele>
        <time>2022-05-07T07:17:32.000Z</time>
      </trkpt>
      <trkpt lat="39.94793635793030261993408203125" lon="-0.6725144572556018829345703125">
        <ele>906.79998779296875</ele>
        <time>2022-05-07T07:17:38.000Z</time>
      </trkpt>
      <trkpt lat="39.94786083698272705078125" lon="-0.672505907714366912841796875">
        <ele>906.5999755859375</ele>
        <time>2022-05-07T07:17:39.000Z</time>
      </trkpt>
      <trkpt lat="39.9475575797259807586669921875" lon="-0.67248671315610408782958984375">
        <ele>905</ele>
        <time>2022-05-07T07:17:43.000Z</time>
      </trkpt>
      <trkpt lat="39.94725457392632961273193359375" lon="-0.672504566609859466552734375">
        <ele>904</ele>
        <time>2022-05-07T07:17:46.000Z</time>
      </trkpt>
      <trkpt lat="39.9468008615076541900634765625" lon="-0.67254454828798770904541015625">
        <ele>903.4000244140625</ele>
        <time>2022-05-07T07:17:53.000Z</time>
      </trkpt>
      <trkpt lat="39.94650791399180889129638671875" lon="-0.6725640781223773956298828125">
        <ele>903.20001220703125</ele>
        <time>2022-05-07T07:17:56.000Z</time>
      </trkpt>
      <trkpt lat="39.94621270336210727691650390625" lon="-0.672584362328052520751953125">
        <ele>902.79998779296875</ele>
        <time>2022-05-07T07:18:00.000Z</time>
      </trkpt>
      <trkpt lat="39.94606568478047847747802734375" lon="-0.672593414783477783203125">
        <ele>902.4000244140625</ele>
        <time>2022-05-07T07:18:02.000Z</time>
      </trkpt>
      <trkpt lat="39.94591782800853252410888671875" lon="-0.6725992821156978607177734375">
        <ele>901.79998779296875</ele>
        <time>2022-05-07T07:18:04.000Z</time>
      </trkpt>
      <trkpt lat="39.94536965154111385345458984375" lon="-0.67263289354741573333740234375">
        <ele>900</ele>
        <time>2022-05-07T07:18:11.000Z</time>
      </trkpt>
      <trkpt lat="39.94529237039387226104736328125" lon="-0.672630630433559417724609375">
        <ele>900</ele>
        <time>2022-05-07T07:18:12.000Z</time>
      </trkpt>
      <trkpt lat="39.945140071213245391845703125" lon="-0.67261596210300922393798828125">
        <ele>899.5999755859375</ele>
        <time>2022-05-07T07:18:15.000Z</time>
      </trkpt>
      <trkpt lat="39.9448418430984020233154296875" lon="-0.67256592214107513427734375">
        <ele>899.4000244140625</ele>
        <time>2022-05-07T07:18:19.000Z</time>
      </trkpt>
      <trkpt lat="39.94469742290675640106201171875" lon="-0.6725225038826465606689453125">
        <ele>899.4000244140625</ele>
        <time>2022-05-07T07:18:20.000Z</time>
      </trkpt>
      <trkpt lat="39.94448192417621612548828125" lon="-0.67243985831737518310546875">
        <ele>899.4000244140625</ele>
        <time>2022-05-07T07:18:23.000Z</time>
      </trkpt>
      <trkpt lat="39.94426189921796321868896484375" lon="-0.672326870262622833251953125">
        <ele>898.79998779296875</ele>
        <time>2022-05-07T07:18:27.000Z</time>
      </trkpt>
      <trkpt lat="39.9439609050750732421875" lon="-0.67213668487966060638427734375">
        <ele>897.4000244140625</ele>
        <time>2022-05-07T07:18:31.000Z</time>
      </trkpt>
      <trkpt lat="39.94382184930145740509033203125" lon="-0.6720256246626377105712890625">
        <ele>896.4000244140625</ele>
        <time>2022-05-07T07:18:33.000Z</time>
      </trkpt>
      <trkpt lat="39.943463020026683807373046875" lon="-0.671676434576511383056640625">
        <ele>895.79998779296875</ele>
        <time>2022-05-07T07:18:39.000Z</time>
      </trkpt>
      <trkpt lat="39.9433059431612491607666015625" lon="-0.67148306407034397125244140625">
        <ele>895.79998779296875</ele>
        <time>2022-05-07T07:18:41.000Z</time>
      </trkpt>
      <trkpt lat="39.94306697510182857513427734375" lon="-0.67113521508872509002685546875">
        <ele>895.79998779296875</ele>
        <time>2022-05-07T07:18:46.000Z</time>
      </trkpt>
      <trkpt lat="39.94298131205141544342041015625" lon="-0.670986436307430267333984375">
        <ele>895</ele>
        <time>2022-05-07T07:18:49.000Z</time>
      </trkpt>
      <trkpt lat="39.94275600649416446685791015625" lon="-0.67050539888441562652587890625">
        <ele>893.20001220703125</ele>
        <time>2022-05-07T07:18:54.000Z</time>
      </trkpt>
      <trkpt lat="39.94269398041069507598876953125" lon="-0.67033055238425731658935546875">
        <ele>893.5999755859375</ele>
        <time>2022-05-07T07:18:56.000Z</time>
      </trkpt>
      <trkpt lat="39.9425881169736385345458984375" lon="-0.66996811889111995697021484375">
        <ele>894</ele>
        <time>2022-05-07T07:19:01.000Z</time>
      </trkpt>
      <trkpt lat="39.942543692886829376220703125" lon="-0.66978338174521923065185546875">
        <ele>894.20001220703125</ele>
        <time>2022-05-07T07:19:02.000Z</time>
      </trkpt>
      <trkpt lat="39.94245677255094051361083984375" lon="-0.6692196987569332122802734375">
        <ele>893.79998779296875</ele>
        <time>2022-05-07T07:19:08.000Z</time>
      </trkpt>
      <trkpt lat="39.94245677255094051361083984375" lon="-0.6692196987569332122802734375">
        <ele>893.79998779296875</ele>
        <time>2022-05-07T07:19:09.000Z</time>
      </trkpt>
      <trkpt lat="39.94243313558399677276611328125" lon="-0.66865970380604267120361328125">
        <ele>892.20001220703125</ele>
        <time>2022-05-07T07:19:15.000Z</time>
      </trkpt>
      <trkpt lat="39.94244478642940521240234375" lon="-0.6684760563075542449951171875">
        <ele>892.20001220703125</ele>
        <time>2022-05-07T07:19:16.000Z</time>
      </trkpt>
      <trkpt lat="39.942532964050769805908203125" lon="-0.6677894107997417449951171875">
        <ele>890.79998779296875</ele>
        <time>2022-05-07T07:19:25.000Z</time>
      </trkpt>
      <trkpt lat="39.9425703473389148712158203125" lon="-0.6676165759563446044921875">
        <ele>890.79998779296875</ele>
        <time>2022-05-07T07:19:26.000Z</time>
      </trkpt>
      <trkpt lat="39.94270068593323230743408203125" lon="-0.6671869195997714996337890625">
        <ele>891</ele>
        <time>2022-05-07T07:19:32.000Z</time>
      </trkpt>
      <trkpt lat="39.94279372505843639373779296875" lon="-0.66693940199911594390869140625">
        <ele>891.4000244140625</ele>
        <time>2022-05-07T07:19:34.000Z</time>
      </trkpt>
      <trkpt lat="39.942933954298496246337890625" lon="-0.66663212142884731292724609375">
        <ele>891.5999755859375</ele>
        <time>2022-05-07T07:19:39.000Z</time>
      </trkpt>
      <trkpt lat="39.943098910152912139892578125" lon="-0.6663447059690952301025390625">
        <ele>891</ele>
        <time>2022-05-07T07:19:42.000Z</time>
      </trkpt>
      <trkpt lat="39.94318700395524501800537109375" lon="-0.66620565019547939300537109375">
        <ele>890.4000244140625</ele>
        <time>2022-05-07T07:19:45.000Z</time>
      </trkpt>
      <trkpt lat="39.94327283464372158050537109375" lon="-0.66607053391635417938232421875">
        <ele>889.79998779296875</ele>
        <time>2022-05-07T07:19:46.000Z</time>
      </trkpt>
      <trkpt lat="39.9434601701796054840087890625" lon="-0.665803067386150360107421875">
        <ele>888.5999755859375</ele>
        <time>2022-05-07T07:19:51.000Z</time>
      </trkpt>
      <trkpt lat="39.94354776106774806976318359375" lon="-0.66566753201186656951904296875">
        <ele>888</ele>
        <time>2022-05-07T07:19:52.000Z</time>
      </trkpt>
      <trkpt lat="39.94381665252149105072021484375" lon="-0.66526905633509159088134765625">
        <ele>886.20001220703125</ele>
        <time>2022-05-07T07:19:58.000Z</time>
      </trkpt>
      <trkpt lat="39.94399367831647396087646484375" lon="-0.66501307301223278045654296875">
        <ele>884.79998779296875</ele>
        <time>2022-05-07T07:20:02.000Z</time>
      </trkpt>
      <trkpt lat="39.94416768662631511688232421875" lon="-0.664757005870342254638671875">
        <ele>883.5999755859375</ele>
        <time>2022-05-07T07:20:06.000Z</time>
      </trkpt>
      <trkpt lat="39.94443900883197784423828125" lon="-0.66436951048672199249267578125">
        <ele>881.79998779296875</ele>
        <time>2022-05-07T07:20:13.000Z</time>
      </trkpt>
      <trkpt lat="39.94453154504299163818359375" lon="-0.66423824988305568695068359375">
        <ele>881.20001220703125</ele>
        <time>2022-05-07T07:20:15.000Z</time>
      </trkpt>
      <trkpt lat="39.94480152614414691925048828125" lon="-0.66383399069309234619140625">
        <ele>881</ele>
        <time>2022-05-07T07:20:20.000Z</time>
      </trkpt>
      <trkpt lat="39.94492180645465850830078125" lon="-0.6636148877441883087158203125">
        <ele>880.79998779296875</ele>
        <time>2022-05-07T07:20:23.000Z</time>
      </trkpt>
      <trkpt lat="39.94515792466700077056884765625" lon="-0.66314692609012126922607421875">
        <ele>880.4000244140625</ele>
        <time>2022-05-07T07:20:29.000Z</time>
      </trkpt>
      <trkpt lat="39.9453771114349365234375" lon="-0.6626888550817966461181640625">
        <ele>878.79998779296875</ele>
        <time>2022-05-07T07:20:35.000Z</time>
      </trkpt>
      <trkpt lat="39.94541390798985958099365234375" lon="-0.6626117415726184844970703125">
        <ele>878.5999755859375</ele>
        <time>2022-05-07T07:20:37.000Z</time>
      </trkpt>
      <trkpt lat="39.94564273394644260406494140625" lon="-0.66213690675795078277587890625">
        <ele>878.4000244140625</ele>
        <time>2022-05-07T07:20:42.000Z</time>
      </trkpt>
      <trkpt lat="39.9457204341888427734375" lon="-0.66197278909385204315185546875">
        <ele>878.4000244140625</ele>
        <time>2022-05-07T07:20:45.000Z</time>
      </trkpt>
      <trkpt lat="39.94595043361186981201171875" lon="-0.6614791788160800933837890625">
        <ele>879</ele>
        <time>2022-05-07T07:20:51.000Z</time>
      </trkpt>
      <trkpt lat="39.9461051635444164276123046875" lon="-0.66116343252360820770263671875">
        <ele>878.5999755859375</ele>
        <time>2022-05-07T07:20:54.000Z</time>
      </trkpt>
      <trkpt lat="39.94617842137813568115234375" lon="-0.66100937314331531524658203125">
        <ele>878</ele>
        <time>2022-05-07T07:20:56.000Z</time>
      </trkpt>
      <trkpt lat="39.94648628868162631988525390625" lon="-0.6603834964334964752197265625">
        <ele>877.5999755859375</ele>
        <time>2022-05-07T07:21:04.000Z</time>
      </trkpt>
      <trkpt lat="39.946522079408168792724609375" lon="-0.6603067182004451751708984375">
        <ele>877.20001220703125</ele>
        <time>2022-05-07T07:21:05.000Z</time>
      </trkpt>
      <trkpt lat="39.94676674716174602508544921875" lon="-0.6598198972642421722412109375">
        <ele>876.79998779296875</ele>
        <time>2022-05-07T07:21:12.000Z</time>
      </trkpt>
      <trkpt lat="39.946943856775760650634765625" lon="-0.65948009490966796875">
        <ele>876.5999755859375</ele>
        <time>2022-05-07T07:21:17.000Z</time>
      </trkpt>
      <trkpt lat="39.94716421701014041900634765625" lon="-0.6590692140161991119384765625">
        <ele>876.4000244140625</ele>
        <time>2022-05-07T07:21:23.000Z</time>
      </trkpt>
      <trkpt lat="39.94756034575402736663818359375" lon="-0.65853922627866268157958984375">
        <ele>875.4000244140625</ele>
        <time>2022-05-07T07:21:32.000Z</time>
      </trkpt>
      <trkpt lat="39.94756034575402736663818359375" lon="-0.65853922627866268157958984375">
        <ele>875.4000244140625</ele>
        <time>2022-05-07T07:21:33.000Z</time>
      </trkpt>
      <trkpt lat="39.94780828244984149932861328125" lon="-0.65832448191940784454345703125">
        <ele>875.20001220703125</ele>
        <time>2022-05-07T07:21:37.000Z</time>
      </trkpt>
      <trkpt lat="39.9479453265666961669921875" lon="-0.65822004340589046478271484375">
        <ele>875</ele>
        <time>2022-05-07T07:21:38.000Z</time>
      </trkpt>
      <trkpt lat="39.94808672927320003509521484375" lon="-0.65812214277684688568115234375">
        <ele>875</ele>
        <time>2022-05-07T07:21:40.000Z</time>
      </trkpt>
      <trkpt lat="39.94822762906551361083984375" lon="-0.658041425049304962158203125">
        <ele>875</ele>
        <time>2022-05-07T07:21:43.000Z</time>
      </trkpt>
      <trkpt lat="39.94863105006515979766845703125" lon="-0.65785802900791168212890625">
        <ele>874</ele>
        <time>2022-05-07T07:21:49.000Z</time>
      </trkpt>
      <trkpt lat="39.94905316270887851715087890625" lon="-0.65767404623329639434814453125">
        <ele>872</ele>
        <time>2022-05-07T07:21:55.000Z</time>
      </trkpt>
      <trkpt lat="39.94919464923441410064697265625" lon="-0.6576137803494930267333984375">
        <ele>871.20001220703125</ele>
        <time>2022-05-07T07:21:56.000Z</time>
      </trkpt>
      <trkpt lat="39.949394054710865020751953125" lon="-0.65753255970776081085205078125">
        <ele>870</ele>
        <time>2022-05-07T07:21:59.000Z</time>
      </trkpt>
      <trkpt lat="39.94945943355560302734375" lon="-0.65750707872211933135986328125">
        <ele>869.79998779296875</ele>
        <time>2022-05-07T07:22:01.000Z</time>
      </trkpt>
      <trkpt lat="39.94958910159766674041748046875" lon="-0.657461397349834442138671875">
        <ele>869.20001220703125</ele>
        <time>2022-05-07T07:22:03.000Z</time>
      </trkpt>
      <trkpt lat="39.94985061697661876678466796875" lon="-0.6573710404336452484130859375">
        <ele>868</ele>
        <time>2022-05-07T07:22:06.000Z</time>
      </trkpt>
      <trkpt lat="39.950126297771930694580078125" lon="-0.657256208360195159912109375">
        <ele>866.5999755859375</ele>
        <time>2022-05-07T07:22:10.000Z</time>
      </trkpt>
      <trkpt lat="39.95019578374922275543212890625" lon="-0.6572272069752216339111328125">
        <ele>866.20001220703125</ele>
        <time>2022-05-07T07:22:11.000Z</time>
      </trkpt>
      <trkpt lat="39.95069132186472415924072265625" lon="-0.657032243907451629638671875">
        <ele>866.20001220703125</ele>
        <time>2022-05-07T07:22:18.000Z</time>
      </trkpt>
      <trkpt lat="39.9508261866867542266845703125" lon="-0.65697549842298030853271484375">
        <ele>866.4000244140625</ele>
        <time>2022-05-07T07:22:20.000Z</time>
      </trkpt>
      <trkpt lat="39.951104633510112762451171875" lon="-0.65686636604368686676025390625">
        <ele>867</ele>
        <time>2022-05-07T07:22:25.000Z</time>
      </trkpt>
      <trkpt lat="39.95137863792479038238525390625" lon="-0.65676360391080379486083984375">
        <ele>866.5999755859375</ele>
        <time>2022-05-07T07:22:28.000Z</time>
      </trkpt>
      <trkpt lat="39.95162489823997020721435546875" lon="-0.65665564499795436859130859375">
        <ele>865.5999755859375</ele>
        <time>2022-05-07T07:22:33.000Z</time>
      </trkpt>
      <trkpt lat="39.95177191682159900665283203125" lon="-0.65658976323902606964111328125">
        <ele>864.79998779296875</ele>
        <time>2022-05-07T07:22:35.000Z</time>
      </trkpt>
      <trkpt lat="39.9518088810145854949951171875" lon="-0.6565771065652370452880859375">
        <ele>864.5999755859375</ele>
        <time>2022-05-07T07:22:36.000Z</time>
      </trkpt>
      <trkpt lat="39.9518088810145854949951171875" lon="-0.6565771065652370452880859375">
        <ele>864.5999755859375</ele>
        <time>2022-05-07T07:22:37.000Z</time>
      </trkpt>
      <trkpt lat="39.951964281499385833740234375" lon="-0.656525306403636932373046875">
        <ele>864</ele>
        <time>2022-05-07T07:22:41.000Z</time>
      </trkpt>
      <trkpt lat="39.952149689197540283203125" lon="-0.6564560718834400177001953125">
        <ele>863.4000244140625</ele>
        <time>2022-05-07T07:22:48.000Z</time>
      </trkpt>
      <trkpt lat="39.95227483101189136505126953125" lon="-0.6564084626734256744384765625">
        <ele>863.20001220703125</ele>
        <time>2022-05-07T07:22:52.000Z</time>
      </trkpt>
      <trkpt lat="39.9523433111608028411865234375" lon="-0.65638507716357707977294921875">
        <ele>863.20001220703125</ele>
        <time>2022-05-07T07:22:55.000Z</time>
      </trkpt>
      <trkpt lat="39.95260097086429595947265625" lon="-0.6562817282974720001220703125">
        <ele>862.20001220703125</ele>
        <time>2022-05-07T07:23:01.000Z</time>
      </trkpt>
      <trkpt lat="39.95278294198215007781982421875" lon="-0.65620578825473785400390625">
        <ele>861.4000244140625</ele>
        <time>2022-05-07T07:23:04.000Z</time>
      </trkpt>
      <trkpt lat="39.95307882316410541534423828125" lon="-0.65610076300799846649169921875">
        <ele>859.79998779296875</ele>
        <time>2022-05-07T07:23:10.000Z</time>
      </trkpt>
      <trkpt lat="39.95328904129564762115478515625" lon="-0.65601577050983905792236328125">
        <ele>858.4000244140625</ele>
        <time>2022-05-07T07:23:15.000Z</time>
      </trkpt>
      <trkpt lat="39.95360755361616611480712890625" lon="-0.6558899581432342529296875">
        <ele>856.5999755859375</ele>
        <time>2022-05-07T07:23:21.000Z</time>
      </trkpt>
      <trkpt lat="39.9539274908602237701416015625" lon="-0.6557597033679485321044921875">
        <ele>854</ele>
        <time>2022-05-07T07:23:27.000Z</time>
      </trkpt>
      <trkpt lat="39.9541534669697284698486328125" lon="-0.65566423349082469940185546875">
        <ele>851.5999755859375</ele>
        <time>2022-05-07T07:23:30.000Z</time>
      </trkpt>
      <trkpt lat="39.95427441783249378204345703125" lon="-0.655616708099842071533203125">
        <ele>850.5999755859375</ele>
        <time>2022-05-07T07:23:33.000Z</time>
      </trkpt>
      <trkpt lat="39.9545194208621978759765625" lon="-0.65551503561437129974365234375">
        <ele>848.20001220703125</ele>
        <time>2022-05-07T07:23:37.000Z</time>
      </trkpt>
      <trkpt lat="39.95464137755334377288818359375" lon="-0.65546683967113494873046875">
        <ele>848.20001220703125</ele>
        <time>2022-05-07T07:23:38.000Z</time>
      </trkpt>
      <trkpt lat="39.955070279538631439208984375" lon="-0.6552963517606258392333984375">
        <ele>849.5999755859375</ele>
        <time>2022-05-07T07:23:46.000Z</time>
      </trkpt>
      <trkpt lat="39.95543950237333774566650390625" lon="-0.65514740534126758575439453125">
        <ele>851</ele>
        <time>2022-05-07T07:23:55.000Z</time>
      </trkpt>
      <trkpt lat="39.95574024505913257598876953125" lon="-0.65501078031957149505615234375">
        <ele>853.4000244140625</ele>
        <time>2022-05-07T07:24:01.000Z</time>
      </trkpt>
      <trkpt lat="39.95609396137297153472900390625" lon="-0.6548626720905303955078125">
        <ele>856.4000244140625</ele>
        <time>2022-05-07T07:24:06.000Z</time>
      </trkpt>
      <trkpt lat="39.95622807182371616363525390625" lon="-0.65479402430355548858642578125">
        <ele>857.79998779296875</ele>
        <time>2022-05-07T07:24:08.000Z</time>
      </trkpt>
      <trkpt lat="39.9563773535192012786865234375" lon="-0.65471959300339221954345703125">
        <ele>859.20001220703125</ele>
        <time>2022-05-07T07:24:10.000Z</time>
      </trkpt>
      <trkpt lat="39.9566858075559139251708984375" lon="-0.6545496918261051177978515625">
        <ele>859.79998779296875</ele>
        <time>2022-05-07T07:24:14.000Z</time>
      </trkpt>
      <trkpt lat="39.9569121189415454864501953125" lon="-0.65439169295132160186767578125">
        <ele>859</ele>
        <time>2022-05-07T07:24:17.000Z</time>
      </trkpt>
      <trkpt lat="39.957114122807979583740234375" lon="-0.654220618307590484619140625">
        <ele>857.5999755859375</ele>
        <time>2022-05-07T07:24:20.000Z</time>
      </trkpt>
      <trkpt lat="39.95736859738826751708984375" lon="-0.65396237187087535858154296875">
        <ele>854.4000244140625</ele>
        <time>2022-05-07T07:24:25.000Z</time>
      </trkpt>
      <trkpt lat="39.9574817530810832977294921875" lon="-0.65383211709558963775634765625">
        <ele>853.20001220703125</ele>
        <time>2022-05-07T07:24:27.000Z</time>
      </trkpt>
      <trkpt lat="39.95758744888007640838623046875" lon="-0.65370622090995311737060546875">
        <ele>853.4000244140625</ele>
        <time>2022-05-07T07:24:28.000Z</time>
      </trkpt>
      <trkpt lat="39.95775341056287288665771484375" lon="-0.65348334610462188720703125">
        <ele>853.79998779296875</ele>
        <time>2022-05-07T07:24:32.000Z</time>
      </trkpt>
      <trkpt lat="39.9579601921141147613525390625" lon="-0.6531502492725849151611328125">
        <ele>854</ele>
        <time>2022-05-07T07:24:38.000Z</time>
      </trkpt>
      <trkpt lat="39.95801157318055629730224609375" lon="-0.65305075608193874359130859375">
        <ele>854</ele>
        <time>2022-05-07T07:24:40.000Z</time>
      </trkpt>
      <trkpt lat="39.9581083841621875762939453125" lon="-0.65292519517242908477783203125">
        <ele>855.5999755859375</ele>
        <time>2022-05-07T07:24:45.000Z</time>
      </trkpt>
      <trkpt lat="39.9582002498209476470947265625" lon="-0.6528075970709323883056640625">
        <ele>857.4000244140625</ele>
        <time>2022-05-07T07:24:48.000Z</time>
      </trkpt>
      <trkpt lat="39.95906014926731586456298828125" lon="-0.64979623071849346160888671875">
        <ele>849.5999755859375</ele>
        <time>2022-05-07T07:25:26.000Z</time>
      </trkpt>
      <trkpt lat="39.95906014926731586456298828125" lon="-0.64979623071849346160888671875">
        <ele>849.5999755859375</ele>
        <time>2022-05-07T07:25:27.000Z</time>
      </trkpt>
      <trkpt lat="39.9591091834008693695068359375" lon="-0.6496788002550601959228515625">
        <ele>848.79998779296875</ele>
        <time>2022-05-07T07:25:28.000Z</time>
      </trkpt>
      <trkpt lat="39.95918269269168376922607421875" lon="-0.64952683635056018829345703125">
        <ele>847</ele>
        <time>2022-05-07T07:25:31.000Z</time>
      </trkpt>
      <trkpt lat="39.9594198167324066162109375" lon="-0.64906767569482326507568359375">
        <ele>842.20001220703125</ele>
        <time>2022-05-07T07:25:36.000Z</time>
      </trkpt>
      <trkpt lat="39.9595259316265583038330078125" lon="-0.64891629852354526519775390625">
        <ele>840.5999755859375</ele>
        <time>2022-05-07T07:25:38.000Z</time>
      </trkpt>
      <trkpt lat="39.9597301147878170013427734375" lon="-0.64864153973758220672607421875">
        <ele>839.20001220703125</ele>
        <time>2022-05-07T07:25:42.000Z</time>
      </trkpt>
      <trkpt lat="39.9598333798348903656005859375" lon="-0.64847390167415142059326171875">
        <ele>838.5999755859375</ele>
        <time>2022-05-07T07:25:44.000Z</time>
      </trkpt>
      <trkpt lat="39.95994762517511844635009765625" lon="-0.64830408431589603424072265625">
        <ele>838</ele>
        <time>2022-05-07T07:25:46.000Z</time>
      </trkpt>
      <trkpt lat="39.96006061322987079620361328125" lon="-0.64814650453627109527587890625">
        <ele>837.5999755859375</ele>
        <time>2022-05-07T07:25:49.000Z</time>
      </trkpt>
      <trkpt lat="39.9601572565734386444091796875" lon="-0.6480069458484649658203125">
        <ele>837</ele>
        <time>2022-05-07T07:25:51.000Z</time>
      </trkpt>
      <trkpt lat="39.9603114835917949676513671875" lon="-0.64779262058436870574951171875">
        <ele>835.5999755859375</ele>
        <time>2022-05-07T07:25:53.000Z</time>
      </trkpt>
      <trkpt lat="39.960464537143707275390625" lon="-0.6475796364247798919677734375">
        <ele>833.5999755859375</ele>
        <time>2022-05-07T07:25:57.000Z</time>
      </trkpt>
      <trkpt lat="39.96056671254336833953857421875" lon="-0.64744058065116405487060546875">
        <ele>832</ele>
        <time>2022-05-07T07:25:58.000Z</time>
      </trkpt>
      <trkpt lat="39.9606672115623950958251953125" lon="-0.64730219542980194091796875">
        <ele>830.4000244140625</ele>
        <time>2022-05-07T07:26:01.000Z</time>
      </trkpt>
      <trkpt lat="39.960884638130664825439453125" lon="-0.64702282659709453582763671875">
        <ele>827.79998779296875</ele>
        <time>2022-05-07T07:26:04.000Z</time>
      </trkpt>
      <trkpt lat="39.96109209023416042327880859375" lon="-0.64674857072532176971435546875">
        <ele>825.79998779296875</ele>
        <time>2022-05-07T07:26:08.000Z</time>
      </trkpt>
      <trkpt lat="39.96128168888390064239501953125" lon="-0.64649761654436588287353515625">
        <ele>824.5999755859375</ele>
        <time>2022-05-07T07:26:13.000Z</time>
      </trkpt>
      <trkpt lat="39.96137439273297786712646484375" lon="-0.64636987634003162384033203125">
        <ele>825.20001220703125</ele>
        <time>2022-05-07T07:26:15.000Z</time>
      </trkpt>
      <trkpt lat="39.9616559408605098724365234375" lon="-0.64598598517477512359619140625">
        <ele>828.20001220703125</ele>
        <time>2022-05-07T07:26:21.000Z</time>
      </trkpt>
      <trkpt lat="39.961837828159332275390625" lon="-0.645732097327709197998046875">
        <ele>829.79998779296875</ele>
        <time>2022-05-07T07:26:24.000Z</time>
      </trkpt>
      <trkpt lat="39.9620081484317779541015625" lon="-0.64547426998615264892578125">
        <ele>831.20001220703125</ele>
        <time>2022-05-07T07:26:28.000Z</time>
      </trkpt>
      <trkpt lat="39.96243168599903583526611328125" lon="-0.644692741334438323974609375">
        <ele>832.5999755859375</ele>
        <time>2022-05-07T07:26:39.000Z</time>
      </trkpt>
      <trkpt lat="39.96259228326380252838134765625" lon="-0.64431413076817989349365234375">
        <ele>829.20001220703125</ele>
        <time>2022-05-07T07:26:42.000Z</time>
      </trkpt>
      <trkpt lat="39.96266772039234638214111328125" lon="-0.64412419684231281280517578125">
        <ele>827.4000244140625</ele>
        <time>2022-05-07T07:26:44.000Z</time>
      </trkpt>
      <trkpt lat="39.96276427991688251495361328125" lon="-0.6438439898192882537841796875">
        <ele>825.5999755859375</ele>
        <time>2022-05-07T07:26:47.000Z</time>
      </trkpt>
      <trkpt lat="39.9628585763275623321533203125" lon="-0.64357249997556209564208984375">
        <ele>824.5999755859375</ele>
        <time>2022-05-07T07:26:51.000Z</time>
      </trkpt>
      <trkpt lat="39.96303451247513294219970703125" lon="-0.64303790219128131866455078125">
        <ele>825</ele>
        <time>2022-05-07T07:26:56.000Z</time>
      </trkpt>
      <trkpt lat="39.9631185829639434814453125" lon="-0.6427858583629131317138671875">
        <ele>827.5999755859375</ele>
        <time>2022-05-07T07:26:59.000Z</time>
      </trkpt>
      <trkpt lat="39.9637403525412082672119140625" lon="-0.640831701457500457763671875">
        <ele>823</ele>
        <time>2022-05-07T07:27:20.000Z</time>
      </trkpt>
      <trkpt lat="39.96378988958895206451416015625" lon="-0.6406887061893939971923828125">
        <ele>820.79998779296875</ele>
        <time>2022-05-07T07:27:22.000Z</time>
      </trkpt>
      <trkpt lat="39.963819645345211029052734375" lon="-0.6406243331730365753173828125">
        <ele>820</ele>
        <time>2022-05-07T07:27:23.000Z</time>
      </trkpt>
      <trkpt lat="39.96384940110146999359130859375" lon="-0.640548728406429290771484375">
        <ele>818.79998779296875</ele>
        <time>2022-05-07T07:27:25.000Z</time>
      </trkpt>
      <trkpt lat="39.96389633975923061370849609375" lon="-0.64039441756904125213623046875">
        <ele>817.20001220703125</ele>
        <time>2022-05-07T07:27:27.000Z</time>
      </trkpt>
      <trkpt lat="39.96397227980196475982666015625" lon="-0.6400322355329990386962890625">
        <ele>813.5999755859375</ele>
        <time>2022-05-07T07:27:31.000Z</time>
      </trkpt>
      <trkpt lat="39.96410387568175792694091796875" lon="-0.63955421559512615203857421875">
        <ele>810.5999755859375</ele>
        <time>2022-05-07T07:27:35.000Z</time>
      </trkpt>
      <trkpt lat="39.96419641189277172088623046875" lon="-0.6392736732959747314453125">
        <ele>810.5999755859375</ele>
        <time>2022-05-07T07:27:39.000Z</time>
      </trkpt>
      <trkpt lat="39.96443596668541431427001953125" lon="-0.6385469622910022735595703125">
        <ele>811.20001220703125</ele>
        <time>2022-05-07T07:27:46.000Z</time>
      </trkpt>
      <trkpt lat="39.96446706354618072509765625" lon="-0.638454593718051910400390625">
        <ele>811</ele>
        <time>2022-05-07T07:27:47.000Z</time>
      </trkpt>
      <trkpt lat="39.96456320397555828094482421875" lon="-0.6381818465888500213623046875">
        <ele>810.79998779296875</ele>
        <time>2022-05-07T07:27:51.000Z</time>
      </trkpt>
      <trkpt lat="39.96469815261662006378173828125" lon="-0.6378381885588169097900390625">
        <ele>810.4000244140625</ele>
        <time>2022-05-07T07:27:54.000Z</time>
      </trkpt>
      <trkpt lat="39.964771158993244171142578125" lon="-0.6376628391444683074951171875">
        <ele>810.5999755859375</ele>
        <time>2022-05-07T07:27:56.000Z</time>
      </trkpt>
      <trkpt lat="39.9649292416870594024658203125" lon="-0.637303926050662994384765625">
        <ele>810.79998779296875</ele>
        <time>2022-05-07T07:28:01.000Z</time>
      </trkpt>
      <trkpt lat="39.96514700353145599365234375" lon="-0.63687753863632678985595703125">
        <ele>811.4000244140625</ele>
        <time>2022-05-07T07:28:05.000Z</time>
      </trkpt>
      <trkpt lat="39.9652055092155933380126953125" lon="-0.6367854215204715728759765625">
        <ele>811.5999755859375</ele>
        <time>2022-05-07T07:28:07.000Z</time>
      </trkpt>
      <trkpt lat="39.96541715227067470550537109375" lon="-0.63644167967140674591064453125">
        <ele>812.4000244140625</ele>
        <time>2022-05-07T07:28:10.000Z</time>
      </trkpt>
      <trkpt lat="39.96552594937384128570556640625" lon="-0.6362855248153209686279296875">
        <ele>812</ele>
        <time>2022-05-07T07:28:13.000Z</time>
      </trkpt>
      <trkpt lat="39.96562468819320201873779296875" lon="-0.63611310906708240509033203125">
        <ele>810.79998779296875</ele>
        <time>2022-05-07T07:28:14.000Z</time>
      </trkpt>
      <trkpt lat="39.96581193991005420684814453125" lon="-0.6357293017208576202392578125">
        <ele>808.4000244140625</ele>
        <time>2022-05-07T07:28:19.000Z</time>
      </trkpt>
      <trkpt lat="39.9659944139420986175537109375" lon="-0.63540391623973846435546875">
        <ele>806.4000244140625</ele>
        <time>2022-05-07T07:28:22.000Z</time>
      </trkpt>
      <trkpt lat="39.96610865928232669830322265625" lon="-0.63525413163006305694580078125">
        <ele>805.4000244140625</ele>
        <time>2022-05-07T07:28:25.000Z</time>
      </trkpt>
      <trkpt lat="39.96645390987396240234375" lon="-0.63479681499302387237548828125">
        <ele>803.20001220703125</ele>
        <time>2022-05-07T07:28:30.000Z</time>
      </trkpt>
      <trkpt lat="39.96657033450901508331298828125" lon="-0.6346470303833484649658203125">
        <ele>802.79998779296875</ele>
        <time>2022-05-07T07:28:33.000Z</time>
      </trkpt>
      <trkpt lat="39.96679396368563175201416015625" lon="-0.63435710035264492034912109375">
        <ele>802.4000244140625</ele>
        <time>2022-05-07T07:28:37.000Z</time>
      </trkpt>
      <trkpt lat="39.966992028057575225830078125" lon="-0.63409239985048770904541015625">
        <ele>802</ele>
        <time>2022-05-07T07:28:40.000Z</time>
      </trkpt>
      <trkpt lat="39.96729888953268527984619140625" lon="-0.63360306434333324432373046875">
        <ele>801</ele>
        <time>2022-05-07T07:28:47.000Z</time>
      </trkpt>
      <trkpt lat="39.96745294891297817230224609375" lon="-0.63329611904919147491455078125">
        <ele>800.5999755859375</ele>
        <time>2022-05-07T07:28:53.000Z</time>
      </trkpt>
      <trkpt lat="39.9674759991466999053955078125" lon="-0.633245073258876800537109375">
        <ele>800.4000244140625</ele>
        <time>2022-05-07T07:28:55.000Z</time>
      </trkpt>
      <trkpt lat="39.96763852424919605255126953125" lon="-0.63284114934504032135009765625">
        <ele>799.4000244140625</ele>
        <time>2022-05-07T07:29:02.000Z</time>
      </trkpt>
      <trkpt lat="39.96767858974635601043701171875" lon="-0.6327265687286853790283203125">
        <ele>799</ele>
        <time>2022-05-07T07:29:04.000Z</time>
      </trkpt>
      <trkpt lat="39.9677636660635471343994140625" lon="-0.63248843885958194732666015625">
        <ele>798</ele>
        <time>2022-05-07T07:29:08.000Z</time>
      </trkpt>
      <trkpt lat="39.9677636660635471343994140625" lon="-0.63248843885958194732666015625">
        <ele>798</ele>
        <time>2022-05-07T07:29:09.000Z</time>
      </trkpt>
      <trkpt lat="39.967816136777400970458984375" lon="-0.63235156238079071044921875">
        <ele>797.5999755859375</ele>
        <time>2022-05-07T07:29:10.000Z</time>
      </trkpt>
      <trkpt lat="39.96802358888089656829833984375" lon="-0.63177932985126972198486328125">
        <ele>796</ele>
        <time>2022-05-07T07:29:19.000Z</time>
      </trkpt>
      <trkpt lat="39.96807287447154521942138671875" lon="-0.63164077699184417724609375">
        <ele>795.5999755859375</ele>
        <time>2022-05-07T07:29:20.000Z</time>
      </trkpt>
      <trkpt lat="39.9682400934398174285888671875" lon="-0.63127641566097736358642578125">
        <ele>795.20001220703125</ele>
        <time>2022-05-07T07:29:27.000Z</time>
      </trkpt>
      <trkpt lat="39.9685143493115901947021484375" lon="-0.63075564801692962646484375">
        <ele>796.79998779296875</ele>
        <time>2022-05-07T07:29:35.000Z</time>
      </trkpt>
      <trkpt lat="39.9686531536281108856201171875" lon="-0.6305801309645175933837890625">
        <ele>797.4000244140625</ele>
        <time>2022-05-07T07:29:38.000Z</time>
      </trkpt>
      <trkpt lat="39.9687539041042327880859375" lon="-0.6304527260363101959228515625">
        <ele>798</ele>
        <time>2022-05-07T07:29:40.000Z</time>
      </trkpt>
      <trkpt lat="39.9688506312668323516845703125" lon="-0.6303243152797222137451171875">
        <ele>798.4000244140625</ele>
        <time>2022-05-07T07:29:42.000Z</time>
      </trkpt>
      <trkpt lat="39.96910233981907367706298828125" lon="-0.6300319544970989227294921875">
        <ele>799.5999755859375</ele>
        <time>2022-05-07T07:29:47.000Z</time>
      </trkpt>
      <trkpt lat="39.969149194657802581787109375" lon="-0.62997738830745220184326171875">
        <ele>799.79998779296875</ele>
        <time>2022-05-07T07:29:49.000Z</time>
      </trkpt>
      <trkpt lat="39.96932328678667545318603515625" lon="-0.62965787015855312347412109375">
        <ele>800.20001220703125</ele>
        <time>2022-05-07T07:29:52.000Z</time>
      </trkpt>
      <trkpt lat="39.96931649744510650634765625" lon="-0.62953750602900981903076171875">
        <ele>798.79998779296875</ele>
        <time>2022-05-07T07:29:53.000Z</time>
      </trkpt>
      <trkpt lat="39.96939428150653839111328125" lon="-0.62924514524638652801513671875">
        <ele>796.20001220703125</ele>
        <time>2022-05-07T07:29:57.000Z</time>
      </trkpt>
      <trkpt lat="39.969556890428066253662109375" lon="-0.6288330070674419403076171875">
        <ele>792.79998779296875</ele>
        <time>2022-05-07T07:30:00.000Z</time>
      </trkpt>
      <trkpt lat="39.9696392007172107696533203125" lon="-0.6286221183836460113525390625">
        <ele>791.20001220703125</ele>
        <time>2022-05-07T07:30:02.000Z</time>
      </trkpt>
      <trkpt lat="39.9697739817202091217041015625" lon="-0.6281544081866741180419921875">
        <ele>788</ele>
        <time>2022-05-07T07:30:06.000Z</time>
      </trkpt>
      <trkpt lat="39.9697739817202091217041015625" lon="-0.6281544081866741180419921875">
        <ele>788</ele>
        <time>2022-05-07T07:30:07.000Z</time>
      </trkpt>
      <trkpt lat="39.96991052292287349700927734375" lon="-0.62747958116233348846435546875">
        <ele>784.79998779296875</ele>
        <time>2022-05-07T07:30:12.000Z</time>
      </trkpt>
      <trkpt lat="39.96997187845408916473388671875" lon="-0.62704070471227169036865234375">
        <ele>784.4000244140625</ele>
        <time>2022-05-07T07:30:16.000Z</time>
      </trkpt>
      <trkpt lat="39.97001194395124912261962890625" lon="-0.626593530178070068359375">
        <ele>787</ele>
        <time>2022-05-07T07:30:21.000Z</time>
      </trkpt>
      <trkpt lat="39.9700291268527507781982421875" lon="-0.62614551745355129241943359375">
        <ele>789.4000244140625</ele>
        <time>2022-05-07T07:30:24.000Z</time>
      </trkpt>
      <trkpt lat="39.96999920345842838287353515625" lon="-0.62572575174272060394287109375">
        <ele>790</ele>
        <time>2022-05-07T07:30:28.000Z</time>
      </trkpt>
      <trkpt lat="39.9699697829782962799072265625" lon="-0.62563120387494564056396484375">
        <ele>790.20001220703125</ele>
        <time>2022-05-07T07:30:29.000Z</time>
      </trkpt>
      <trkpt lat="39.96992929838597774505615234375" lon="-0.6254188902676105499267578125">
        <ele>790.20001220703125</ele>
        <time>2022-05-07T07:30:31.000Z</time>
      </trkpt>
      <trkpt lat="39.96989727951586246490478515625" lon="-0.62531554140150547027587890625">
        <ele>790.20001220703125</ele>
        <time>2022-05-07T07:30:33.000Z</time>
      </trkpt>
      <trkpt lat="39.96972880326211452484130859375" lon="-0.62456552870571613311767578125">
        <ele>788</ele>
        <time>2022-05-07T07:30:39.000Z</time>
      </trkpt>
      <trkpt lat="39.96970533393323421478271484375" lon="-0.62445790506899356842041015625">
        <ele>787.5999755859375</ele>
        <time>2022-05-07T07:30:40.000Z</time>
      </trkpt>
      <trkpt lat="39.96968354098498821258544921875" lon="-0.62434961088001728057861328125">
        <ele>787.20001220703125</ele>
        <time>2022-05-07T07:30:41.000Z</time>
      </trkpt>
      <trkpt lat="39.96954959817230701446533203125" lon="-0.6236700899899005889892578125">
        <ele>784.79998779296875</ele>
        <time>2022-05-07T07:30:47.000Z</time>
      </trkpt>
      <trkpt lat="39.96950400061905384063720703125" lon="-0.6234459578990936279296875">
        <ele>784.5999755859375</ele>
        <time>2022-05-07T07:30:49.000Z</time>
      </trkpt>
      <trkpt lat="39.96944063343107700347900390625" lon="-0.62313909642398357391357421875">
        <ele>784.20001220703125</ele>
        <time>2022-05-07T07:30:52.000Z</time>
      </trkpt>
      <trkpt lat="39.9694014899432659149169921875" lon="-0.622933991253376007080078125">
        <ele>783.4000244140625</ele>
        <time>2022-05-07T07:30:55.000Z</time>
      </trkpt>
      <trkpt lat="39.96935362927615642547607421875" lon="-0.62272913753986358642578125">
        <ele>782.5999755859375</ele>
        <time>2022-05-07T07:30:57.000Z</time>
      </trkpt>
      <trkpt lat="39.96922035701572895050048828125" lon="-0.622184984385967254638671875">
        <ele>779.20001220703125</ele>
        <time>2022-05-07T07:31:01.000Z</time>
      </trkpt>
      <trkpt lat="39.96918397955596446990966796875" lon="-0.62208666466176509857177734375">
        <ele>779</ele>
        <time>2022-05-07T07:31:03.000Z</time>
      </trkpt>
      <trkpt lat="39.96909295208752155303955078125" lon="-0.621898658573627471923828125">
        <ele>778.4000244140625</ele>
        <time>2022-05-07T07:31:04.000Z</time>
      </trkpt>
      <trkpt lat="39.96893688105046749114990234375" lon="-0.6216205470263957977294921875">
        <ele>776.79998779296875</ele>
        <time>2022-05-07T07:31:07.000Z</time>
      </trkpt>
      <trkpt lat="39.9688254855573177337646484375" lon="-0.62144595198333263397216796875">
        <ele>775.79998779296875</ele>
        <time>2022-05-07T07:31:09.000Z</time>
      </trkpt>
      <trkpt lat="39.9685844220221042633056640625" lon="-0.6211273558437824249267578125">
        <ele>775.79998779296875</ele>
        <time>2022-05-07T07:31:13.000Z</time>
      </trkpt>
      <trkpt lat="39.968264400959014892578125" lon="-0.6207691133022308349609375">
        <ele>775.79998779296875</ele>
        <time>2022-05-07T07:31:18.000Z</time>
      </trkpt>
      <trkpt lat="39.968119561672210693359375" lon="-0.620659478008747100830078125">
        <ele>774.5999755859375</ele>
        <time>2022-05-07T07:31:20.000Z</time>
      </trkpt>
      <trkpt lat="39.9677197448909282684326171875" lon="-0.6204284727573394775390625">
        <ele>773.79998779296875</ele>
        <time>2022-05-07T07:31:25.000Z</time>
      </trkpt>
      <trkpt lat="39.96764221228659152984619140625" lon="-0.62038891017436981201171875">
        <ele>774.20001220703125</ele>
        <time>2022-05-07T07:31:26.000Z</time>
      </trkpt>
      <trkpt lat="39.96739829890429973602294921875" lon="-0.6202809512615203857421875">
        <ele>775.4000244140625</ele>
        <time>2022-05-07T07:31:29.000Z</time>
      </trkpt>
      <trkpt lat="39.9671459197998046875" lon="-0.6201996468007564544677734375">
        <ele>774.79998779296875</ele>
        <time>2022-05-07T07:31:33.000Z</time>
      </trkpt>
      <trkpt lat="39.96698004193603992462158203125" lon="-0.620155222713947296142578125">
        <ele>774</ele>
        <time>2022-05-07T07:31:34.000Z</time>
      </trkpt>
      <trkpt lat="39.96689521707594394683837890625" lon="-0.62014625407755374908447265625">
        <ele>773.4000244140625</ele>
        <time>2022-05-07T07:31:35.000Z</time>
      </trkpt>
      <trkpt lat="39.96681022457778453826904296875" lon="-0.62014256604015827178955078125">
        <ele>773</ele>
        <time>2022-05-07T07:31:37.000Z</time>
      </trkpt>
      <trkpt lat="39.96627411805093288421630859375" lon="-0.620190761983394622802734375">
        <ele>772.5999755859375</ele>
        <time>2022-05-07T07:31:42.000Z</time>
      </trkpt>
      <trkpt lat="39.96602266095578670501708984375" lon="-0.62023870646953582763671875">
        <ele>771.5999755859375</ele>
        <time>2022-05-07T07:31:45.000Z</time>
      </trkpt>
      <trkpt lat="39.965530894696712493896484375" lon="-0.6203186698257923126220703125">
        <ele>769.4000244140625</ele>
        <time>2022-05-07T07:31:51.000Z</time>
      </trkpt>
      <trkpt lat="39.96502630412578582763671875" lon="-0.620418079197406768798828125">
        <ele>766</ele>
        <time>2022-05-07T07:31:57.000Z</time>
      </trkpt>
      <trkpt lat="39.96486981399357318878173828125" lon="-0.62047365121543407440185546875">
        <ele>764.4000244140625</ele>
        <time>2022-05-07T07:31:59.000Z</time>
      </trkpt>
      <trkpt lat="39.9647144973278045654296875" lon="-0.62052696011960506439208984375">
        <ele>762.79998779296875</ele>
        <time>2022-05-07T07:32:01.000Z</time>
      </trkpt>
      <trkpt lat="39.96446966193616390228271484375" lon="-0.6205889023840427398681640625">
        <ele>761.79998779296875</ele>
        <time>2022-05-07T07:32:04.000Z</time>
      </trkpt>
      <trkpt lat="39.96430881321430206298828125" lon="-0.6206348352134227752685546875">
        <ele>761.4000244140625</ele>
        <time>2022-05-07T07:32:06.000Z</time>
      </trkpt>
      <trkpt lat="39.9639849364757537841796875" lon="-0.62070700339972972869873046875">
        <ele>760.79998779296875</ele>
        <time>2022-05-07T07:32:10.000Z</time>
      </trkpt>
      <trkpt lat="39.963512532413005828857421875" lon="-0.62075913883745670318603515625">
        <ele>759.20001220703125</ele>
        <time>2022-05-07T07:32:16.000Z</time>
      </trkpt>
      <trkpt lat="39.96336375363171100616455078125" lon="-0.62076651491224765777587890625">
        <ele>758.79998779296875</ele>
        <time>2022-05-07T07:32:18.000Z</time>
      </trkpt>
      <trkpt lat="39.96307943947613239288330078125" lon="-0.62075796537101268768310546875">
        <ele>758.20001220703125</ele>
        <time>2022-05-07T07:32:22.000Z</time>
      </trkpt>
      <trkpt lat="39.96300735510885715484619140625" lon="-0.6207515113055706024169921875">
        <ele>758</ele>
        <time>2022-05-07T07:32:23.000Z</time>
      </trkpt>
      <trkpt lat="39.96293627656996250152587890625" lon="-0.6207444705069065093994140625">
        <ele>757.79998779296875</ele>
        <time>2022-05-07T07:32:24.000Z</time>
      </trkpt>
      <trkpt lat="39.96248449198901653289794921875" lon="-0.6206737272441387176513671875">
        <ele>756.79998779296875</ele>
        <time>2022-05-07T07:32:30.000Z</time>
      </trkpt>
      <trkpt lat="39.96248449198901653289794921875" lon="-0.6206737272441387176513671875">
        <ele>756.79998779296875</ele>
        <time>2022-05-07T07:32:31.000Z</time>
      </trkpt>
      <trkpt lat="39.96207721531391143798828125" lon="-0.62057456932961940765380859375">
        <ele>756</ele>
        <time>2022-05-07T07:32:35.000Z</time>
      </trkpt>
      <trkpt lat="39.96181762777268886566162109375" lon="-0.62050717882812023162841796875">
        <ele>755.5999755859375</ele>
        <time>2022-05-07T07:32:38.000Z</time>
      </trkpt>
      <trkpt lat="39.96164211072027683258056640625" lon="-0.6204618327319622039794921875">
        <ele>755.4000244140625</ele>
        <time>2022-05-07T07:32:40.000Z</time>
      </trkpt>
      <trkpt lat="39.961215890944004058837890625" lon="-0.62035647220909595489501953125">
        <ele>755</ele>
        <time>2022-05-07T07:32:45.000Z</time>
      </trkpt>
      <trkpt lat="39.96096418239176273345947265625" lon="-0.6202881596982479095458984375">
        <ele>753.5999755859375</ele>
        <time>2022-05-07T07:32:48.000Z</time>
      </trkpt>
      <trkpt lat="39.96079671196639537811279296875" lon="-0.62023392878472805023193359375">
        <ele>752.5999755859375</ele>
        <time>2022-05-07T07:32:51.000Z</time>
      </trkpt>
      <trkpt lat="39.960633181035518646240234375" lon="-0.6201580725610256195068359375">
        <ele>751.79998779296875</ele>
        <time>2022-05-07T07:32:52.000Z</time>
      </trkpt>
      <trkpt lat="39.9604757688939571380615234375" lon="-0.6200663745403289794921875">
        <ele>751</ele>
        <time>2022-05-07T07:32:54.000Z</time>
      </trkpt>
      <trkpt lat="39.96017561294138431549072265625" lon="-0.61984785832464694976806640625">
        <ele>749.20001220703125</ele>
        <time>2022-05-07T07:32:58.000Z</time>
      </trkpt>
      <trkpt lat="39.959886856377124786376953125" lon="-0.61957159079611301422119140625">
        <ele>748.79998779296875</ele>
        <time>2022-05-07T07:33:02.000Z</time>
      </trkpt>
      <trkpt lat="39.959886856377124786376953125" lon="-0.61957159079611301422119140625">
        <ele>748.79998779296875</ele>
        <time>2022-05-07T07:33:03.000Z</time>
      </trkpt>
      <trkpt lat="39.95957865379750728607177734375" lon="-0.6191629730165004730224609375">
        <ele>750.20001220703125</ele>
        <time>2022-05-07T07:33:07.000Z</time>
      </trkpt>
      <trkpt lat="39.95952433906495571136474609375" lon="-0.61907269991934299468994140625">
        <ele>750.5999755859375</ele>
        <time>2022-05-07T07:33:08.000Z</time>
      </trkpt>
      <trkpt lat="39.9593693576753139495849609375" lon="-0.61878788284957408905029296875">
        <ele>751.79998779296875</ele>
        <time>2022-05-07T07:33:11.000Z</time>
      </trkpt>
      <trkpt lat="39.95923683978617191314697265625" lon="-0.61848412267863750457763671875">
        <ele>750.5999755859375</ele>
        <time>2022-05-07T07:33:14.000Z</time>
      </trkpt>
      <trkpt lat="39.95919249951839447021484375" lon="-0.6183827854692935943603515625">
        <ele>750.4000244140625</ele>
        <time>2022-05-07T07:33:15.000Z</time>
      </trkpt>
      <trkpt lat="39.95893056504428386688232421875" lon="-0.617743916809558868408203125">
        <ele>748.5999755859375</ele>
        <time>2022-05-07T07:33:21.000Z</time>
      </trkpt>
      <trkpt lat="39.9588842131197452545166015625" lon="-0.61763302423059940338134765625">
        <ele>748.20001220703125</ele>
        <time>2022-05-07T07:33:22.000Z</time>
      </trkpt>
      <trkpt lat="39.9587008170783519744873046875" lon="-0.61719314195215702056884765625">
        <ele>747</ele>
        <time>2022-05-07T07:33:26.000Z</time>
      </trkpt>
      <trkpt lat="39.95856025256216526031494140625" lon="-0.61687027104198932647705078125">
        <ele>746.20001220703125</ele>
        <time>2022-05-07T07:33:29.000Z</time>
      </trkpt>
      <trkpt lat="39.958511553704738616943359375" lon="-0.6167640723288059234619140625">
        <ele>746</ele>
        <time>2022-05-07T07:33:30.000Z</time>
      </trkpt>
      <trkpt lat="39.9581828154623508453369140625" lon="-0.61611975543200969696044921875">
        <ele>745.5999755859375</ele>
        <time>2022-05-07T07:33:36.000Z</time>
      </trkpt>
      <trkpt lat="39.9581828154623508453369140625" lon="-0.61611975543200969696044921875">
        <ele>745.5999755859375</ele>
        <time>2022-05-07T07:33:37.000Z</time>
      </trkpt>
      <trkpt lat="39.9580460228025913238525390625" lon="-0.61591632664203643798828125">
        <ele>744.5999755859375</ele>
        <time>2022-05-07T07:33:38.000Z</time>
      </trkpt>
      <trkpt lat="39.95782700367271900177001953125" lon="-0.61563746072351932525634765625">
        <ele>743</ele>
        <time>2022-05-07T07:33:41.000Z</time>
      </trkpt>
      <trkpt lat="39.957750141620635986328125" lon="-0.6155522167682647705078125">
        <ele>742.79998779296875</ele>
        <time>2022-05-07T07:33:42.000Z</time>
      </trkpt>
      <trkpt lat="39.95751016773283481597900390625" lon="-0.61532464809715747833251953125">
        <ele>742.5999755859375</ele>
        <time>2022-05-07T07:33:45.000Z</time>
      </trkpt>
      <trkpt lat="39.9574250914156436920166015625" lon="-0.6152573414146900177001953125">
        <ele>742.4000244140625</ele>
        <time>2022-05-07T07:33:46.000Z</time>
      </trkpt>
      <trkpt lat="39.9571642465889453887939453125" lon="-0.61507838778197765350341796875">
        <ele>741.5999755859375</ele>
        <time>2022-05-07T07:33:49.000Z</time>
      </trkpt>
      <trkpt lat="39.9569808505475521087646484375" lon="-0.61498367227613925933837890625">
        <ele>741.20001220703125</ele>
        <time>2022-05-07T07:33:51.000Z</time>
      </trkpt>
      <trkpt lat="39.9566080234944820404052734375" lon="-0.61483430676162242889404296875">
        <ele>739.79998779296875</ele>
        <time>2022-05-07T07:33:55.000Z</time>
      </trkpt>
      <trkpt lat="39.9565174989402294158935546875" lon="-0.61480312608182430267333984375">
        <ele>739.4000244140625</ele>
        <time>2022-05-07T07:33:56.000Z</time>
      </trkpt>
      <trkpt lat="39.95633167214691638946533203125" lon="-0.6147587858140468597412109375">
        <ele>738.5999755859375</ele>
        <time>2022-05-07T07:33:58.000Z</time>
      </trkpt>
      <trkpt lat="39.95614291168749332427978515625" lon="-0.6147286109626293182373046875">
        <ele>737.79998779296875</ele>
        <time>2022-05-07T07:34:01.000Z</time>
      </trkpt>
      <trkpt lat="39.95595431886613368988037109375" lon="-0.61471645720303058624267578125">
        <ele>737.4000244140625</ele>
        <time>2022-05-07T07:34:02.000Z</time>
      </trkpt>
      <trkpt lat="39.95547604747116565704345703125" lon="-0.614769347012042999267578125">
        <ele>736.4000244140625</ele>
        <time>2022-05-07T07:34:07.000Z</time>
      </trkpt>
      <trkpt lat="39.955379068851470947265625" lon="-0.61479113996028900146484375">
        <ele>736.20001220703125</ele>
        <time>2022-05-07T07:34:08.000Z</time>
      </trkpt>
      <trkpt lat="39.9550851993262767791748046875" lon="-0.6148831732571125030517578125">
        <ele>735.4000244140625</ele>
        <time>2022-05-07T07:34:11.000Z</time>
      </trkpt>
      <trkpt lat="39.95489023625850677490234375" lon="-0.61496741138398647308349609375">
        <ele>734.79998779296875</ele>
        <time>2022-05-07T07:34:13.000Z</time>
      </trkpt>
      <trkpt lat="39.95442110113799571990966796875" lon="-0.61522926203906536102294921875">
        <ele>734</ele>
        <time>2022-05-07T07:34:18.000Z</time>
      </trkpt>
      <trkpt lat="39.95424072258174419403076171875" lon="-0.615333616733551025390625">
        <ele>733.79998779296875</ele>
        <time>2022-05-07T07:34:20.000Z</time>
      </trkpt>
      <trkpt lat="39.9541497789323329925537109375" lon="-0.61538600362837314605712890625">
        <ele>733.5999755859375</ele>
        <time>2022-05-07T07:34:21.000Z</time>
      </trkpt>
      <trkpt lat="39.9537102319300174713134765625" lon="-0.61563293449580669403076171875">
        <ele>732.79998779296875</ele>
        <time>2022-05-07T07:34:26.000Z</time>
      </trkpt>
      <trkpt lat="39.95345450006425380706787109375" lon="-0.6157713197171688079833984375">
        <ele>731.5999755859375</ele>
        <time>2022-05-07T07:34:29.000Z</time>
      </trkpt>
      <trkpt lat="39.9531033821403980255126953125" lon="-0.615901239216327667236328125">
        <ele>729.5999755859375</ele>
        <time>2022-05-07T07:34:33.000Z</time>
      </trkpt>
      <trkpt lat="39.95292677544057369232177734375" lon="-0.61594122089445590972900390625">
        <ele>728.5999755859375</ele>
        <time>2022-05-07T07:34:35.000Z</time>
      </trkpt>
      <trkpt lat="39.95265922509133815765380859375" lon="-0.6159641034901142120361328125">
        <ele>727.5999755859375</ele>
        <time>2022-05-07T07:34:38.000Z</time>
      </trkpt>
      <trkpt lat="39.952479936182498931884765625" lon="-0.6159580685198307037353515625">
        <ele>727</ele>
        <time>2022-05-07T07:34:40.000Z</time>
      </trkpt>
      <trkpt lat="39.9521263875067234039306640625" lon="-0.615901239216327667236328125">
        <ele>725.5999755859375</ele>
        <time>2022-05-07T07:34:44.000Z</time>
      </trkpt>
      <trkpt lat="39.95186411775648593902587890625" lon="-0.61580778099596500396728515625">
        <ele>723.4000244140625</ele>
        <time>2022-05-07T07:34:47.000Z</time>
      </trkpt>
      <trkpt lat="39.95177711360156536102294921875" lon="-0.61577039770781993865966796875">
        <ele>722.5999755859375</ele>
        <time>2022-05-07T07:34:49.000Z</time>
      </trkpt>
      <trkpt lat="39.95136044919490814208984375" lon="-0.615521036088466644287109375">
        <ele>721.5999755859375</ele>
        <time>2022-05-07T07:34:53.000Z</time>
      </trkpt>
      <trkpt lat="39.9511371552944183349609375" lon="-0.61533026397228240966796875">
        <ele>720</ele>
        <time>2022-05-07T07:34:57.000Z</time>
      </trkpt>
      <trkpt lat="39.950936324894428253173828125" lon="-0.61511577107012271881103515625">
        <ele>718</ele>
        <time>2022-05-07T07:34:59.000Z</time>
      </trkpt>
      <trkpt lat="39.9507598020136356353759765625" lon="-0.61486682854592800140380859375">
        <ele>719.20001220703125</ele>
        <time>2022-05-07T07:35:02.000Z</time>
      </trkpt>
      <trkpt lat="39.9506069160997867584228515625" lon="-0.6145985238254070281982421875">
        <ele>720.79998779296875</ele>
        <time>2022-05-07T07:35:05.000Z</time>
      </trkpt>
      <trkpt lat="39.950406588613986968994140625" lon="-0.61411388218402862548828125">
        <ele>719</ele>
        <time>2022-05-07T07:35:10.000Z</time>
      </trkpt>
      <trkpt lat="39.9503433890640735626220703125" lon="-0.61391397379338741302490234375">
        <ele>718.4000244140625</ele>
        <time>2022-05-07T07:35:12.000Z</time>
      </trkpt>
      <trkpt lat="39.9502632580697536468505859375" lon="-0.6136051006615161895751953125">
        <ele>718.20001220703125</ele>
        <time>2022-05-07T07:35:15.000Z</time>
      </trkpt>
      <trkpt lat="39.950207434594631195068359375" lon="-0.61329455114901065826416015625">
        <ele>718.4000244140625</ele>
        <time>2022-05-07T07:35:18.000Z</time>
      </trkpt>
      <trkpt lat="39.95018840767443180084228515625" lon="-0.61308366246521472930908203125">
        <ele>718.20001220703125</ele>
        <time>2022-05-07T07:35:20.000Z</time>
      </trkpt>
      <trkpt lat="39.950166530907154083251953125" lon="-0.61256884597241878509521484375">
        <ele>717.20001220703125</ele>
        <time>2022-05-07T07:35:25.000Z</time>
      </trkpt>
      <trkpt lat="39.9502206780016422271728515625" lon="-0.61208437196910381317138671875">
        <ele>717.20001220703125</ele>
        <time>2022-05-07T07:35:31.000Z</time>
      </trkpt>
      <trkpt lat="39.950283206999301910400390625" lon="-0.61178916133940219879150390625">
        <ele>716.20001220703125</ele>
        <time>2022-05-07T07:35:33.000Z</time>
      </trkpt>
      <trkpt lat="39.9503645114600658416748046875" lon="-0.6114928610622882843017578125">
        <ele>715.4000244140625</ele>
        <time>2022-05-07T07:35:36.000Z</time>
      </trkpt>
      <trkpt lat="39.95050742290914058685302734375" lon="-0.61108969151973724365234375">
        <ele>714.20001220703125</ele>
        <time>2022-05-07T07:35:40.000Z</time>
      </trkpt>
      <trkpt lat="39.9506246857345104217529296875" lon="-0.6107770465314388275146484375">
        <ele>713.20001220703125</ele>
        <time>2022-05-07T07:35:43.000Z</time>
      </trkpt>
      <trkpt lat="39.95089466683566570281982421875" lon="-0.61004891060292720794677734375">
        <ele>713.20001220703125</ele>
        <time>2022-05-07T07:35:50.000Z</time>
      </trkpt>
      <trkpt lat="39.95096557773649692535400390625" lon="-0.60984942130744457244873046875">
        <ele>713</ele>
        <time>2022-05-07T07:35:52.000Z</time>
      </trkpt>
      <trkpt lat="39.95107345283031463623046875" lon="-0.6095459125936031341552734375">
        <ele>712.79998779296875</ele>
        <time>2022-05-07T07:35:55.000Z</time>
      </trkpt>
      <trkpt lat="39.9511118419468402862548828125" lon="-0.6094446592032909393310546875">
        <ele>712.79998779296875</ele>
        <time>2022-05-07T07:35:56.000Z</time>
      </trkpt>
      <trkpt lat="39.95122239924967288970947265625" lon="-0.60913595370948314666748046875">
        <ele>712.5999755859375</ele>
        <time>2022-05-07T07:35:59.000Z</time>
      </trkpt>
      <trkpt lat="39.95126028545200824737548828125" lon="-0.60903218574821949005126953125">
        <ele>712.4000244140625</ele>
        <time>2022-05-07T07:36:00.000Z</time>
      </trkpt>
      <trkpt lat="39.951482824981212615966796875" lon="-0.60842894017696380615234375">
        <ele>712</ele>
        <time>2022-05-07T07:36:06.000Z</time>
      </trkpt>
      <trkpt lat="39.951519034802913665771484375" lon="-0.608330033719539642333984375">
        <ele>712</ele>
        <time>2022-05-07T07:36:07.000Z</time>
      </trkpt>
      <trkpt lat="39.95166345499455928802490234375" lon="-0.6079318933188915252685546875">
        <ele>712</ele>
        <time>2022-05-07T07:36:11.000Z</time>
      </trkpt>
      <trkpt lat="39.95180862955749034881591796875" lon="-0.607519336044788360595703125">
        <ele>711.79998779296875</ele>
        <time>2022-05-07T07:36:15.000Z</time>
      </trkpt>
      <trkpt lat="39.95184550993144512176513671875" lon="-0.60741364024579524993896484375">
        <ele>711.79998779296875</ele>
        <time>2022-05-07T07:36:16.000Z</time>
      </trkpt>
      <trkpt lat="39.95194274000823497772216796875" lon="-0.60709211044013500213623046875">
        <ele>711</ele>
        <time>2022-05-07T07:36:19.000Z</time>
      </trkpt>
      <trkpt lat="39.952009208500385284423828125" lon="-0.60677376575767993927001953125">
        <ele>709.79998779296875</ele>
        <time>2022-05-07T07:36:22.000Z</time>
      </trkpt>
      <trkpt lat="39.95206595398485660552978515625" lon="-0.60610036365687847137451171875">
        <ele>706.4000244140625</ele>
        <time>2022-05-07T07:36:28.000Z</time>
      </trkpt>
      <trkpt lat="39.95206142775714397430419921875" lon="-0.60598787851631641387939453125">
        <ele>705.79998779296875</ele>
        <time>2022-05-07T07:36:29.000Z</time>
      </trkpt>
      <trkpt lat="39.9520475976169109344482421875" lon="-0.60564212501049041748046875">
        <ele>703.79998779296875</ele>
        <time>2022-05-07T07:36:33.000Z</time>
      </trkpt>
      <trkpt lat="39.95202404446899890899658203125" lon="-0.60519612394273281097412109375">
        <ele>703</ele>
        <time>2022-05-07T07:36:36.000Z</time>
      </trkpt>
      <trkpt lat="39.95200409553945064544677734375" lon="-0.6046599335968494415283203125">
        <ele>702.5999755859375</ele>
        <time>2022-05-07T07:36:41.000Z</time>
      </trkpt>
      <trkpt lat="39.951995797455310821533203125" lon="-0.60432524420320987701416015625">
        <ele>703.79998779296875</ele>
        <time>2022-05-07T07:36:44.000Z</time>
      </trkpt>
      <trkpt lat="39.95197945274412631988525390625" lon="-0.60388393700122833251953125">
        <ele>705.4000244140625</ele>
        <time>2022-05-07T07:36:48.000Z</time>
      </trkpt>
      <trkpt lat="39.95196654461324214935302734375" lon="-0.6036655046045780181884765625">
        <ele>705.20001220703125</ele>
        <time>2022-05-07T07:36:50.000Z</time>
      </trkpt>
      <trkpt lat="39.9519493617117404937744140625" lon="-0.60344564728438854217529296875">
        <ele>704.5999755859375</ele>
        <time>2022-05-07T07:36:52.000Z</time>
      </trkpt>
      <trkpt lat="39.95192731730639934539794921875" lon="-0.60298673808574676513671875">
        <ele>703.79998779296875</ele>
        <time>2022-05-07T07:36:56.000Z</time>
      </trkpt>
      <trkpt lat="39.9519054405391216278076171875" lon="-0.60251609422266483306884765625">
        <ele>702.5999755859375</ele>
        <time>2022-05-07T07:37:00.000Z</time>
      </trkpt>
      <trkpt lat="39.95188741944730281829833984375" lon="-0.60217310674488544464111328125">
        <ele>701.79998779296875</ele>
        <time>2022-05-07T07:37:03.000Z</time>
      </trkpt>
      <trkpt lat="39.95188322849571704864501953125" lon="-0.601941011846065521240234375">
        <ele>701.4000244140625</ele>
        <time>2022-05-07T07:37:05.000Z</time>
      </trkpt>
      <trkpt lat="39.9518863297998905181884765625" lon="-0.60159735381603240966796875">
        <ele>701</ele>
        <time>2022-05-07T07:37:08.000Z</time>
      </trkpt>
      <trkpt lat="39.9518913589417934417724609375" lon="-0.60148604214191436767578125">
        <ele>701</ele>
        <time>2022-05-07T07:37:09.000Z</time>
      </trkpt>
      <trkpt lat="39.9519362859427928924560546875" lon="-0.60105211101472377777099609375">
        <ele>701</ele>
        <time>2022-05-07T07:37:13.000Z</time>
      </trkpt>
      <trkpt lat="39.95196998119354248046875" lon="-0.6008414737880229949951171875">
        <ele>701</ele>
        <time>2022-05-07T07:37:15.000Z</time>
      </trkpt>
      <trkpt lat="39.95206494815647602081298828125" lon="-0.60034903697669506072998046875">
        <ele>700.4000244140625</ele>
        <time>2022-05-07T07:37:20.000Z</time>
      </trkpt>
      <trkpt lat="39.95208607055246829986572265625" lon="-0.6002617813646793365478515625">
        <ele>700.20001220703125</ele>
        <time>2022-05-07T07:37:21.000Z</time>
      </trkpt>
      <trkpt lat="39.95219729840755462646484375" lon="-0.5999197997152805328369140625">
        <ele>699.20001220703125</ele>
        <time>2022-05-07T07:37:25.000Z</time>
      </trkpt>
      <trkpt lat="39.95226611383259296417236328125" lon="-0.59974302537739276885986328125">
        <ele>698.5999755859375</ele>
        <time>2022-05-07T07:37:27.000Z</time>
      </trkpt>
      <trkpt lat="39.9525508470833301544189453125" lon="-0.59915344230830669403076171875">
        <ele>698.4000244140625</ele>
        <time>2022-05-07T07:37:34.000Z</time>
      </trkpt>
      <trkpt lat="39.95264430530369281768798828125" lon="-0.599000640213489532470703125">
        <ele>698.20001220703125</ele>
        <time>2022-05-07T07:37:36.000Z</time>
      </trkpt>
      <trkpt lat="39.952844046056270599365234375" lon="-0.5986906774342060089111328125">
        <ele>697</ele>
        <time>2022-05-07T07:37:40.000Z</time>
      </trkpt>
      <trkpt lat="39.9532284401357173919677734375" lon="-0.5982377193868160247802734375">
        <ele>695.4000244140625</ele>
        <time>2022-05-07T07:37:47.000Z</time>
      </trkpt>
      <trkpt lat="39.95356254279613494873046875" lon="-0.59794284403324127197265625">
        <ele>695.79998779296875</ele>
        <time>2022-05-07T07:37:53.000Z</time>
      </trkpt>
      <trkpt lat="39.95398540981113910675048828125" lon="-0.59762592427432537078857421875">
        <ele>696.79998779296875</ele>
        <time>2022-05-07T07:38:00.000Z</time>
      </trkpt>
      <trkpt lat="39.9544347636401653289794921875" lon="-0.59739441610872745513916015625">
        <ele>697.5999755859375</ele>
        <time>2022-05-07T07:38:06.000Z</time>
      </trkpt>
      <trkpt lat="39.95469183661043643951416015625" lon="-0.59729517437517642974853515625">
        <ele>695.79998779296875</ele>
        <time>2022-05-07T07:38:09.000Z</time>
      </trkpt>
      <trkpt lat="39.95486333034932613372802734375" lon="-0.5972261913120746612548828125">
        <ele>692.79998779296875</ele>
        <time>2022-05-07T07:38:11.000Z</time>
      </trkpt>
      <trkpt lat="39.9549497477710247039794921875" lon="-0.59719392098486423492431640625">
        <ele>691.20001220703125</ele>
        <time>2022-05-07T07:38:12.000Z</time>
      </trkpt>
      <trkpt lat="39.95529390871524810791015625" lon="-0.59708654880523681640625">
        <ele>685.5999755859375</ele>
        <time>2022-05-07T07:38:16.000Z</time>
      </trkpt>
      <trkpt lat="39.95537395589053630828857421875" lon="-0.597054697573184967041015625">
        <ele>684.4000244140625</ele>
        <time>2022-05-07T07:38:17.000Z</time>
      </trkpt>
      <trkpt lat="39.95583303272724151611328125" lon="-0.59689342975616455078125">
        <ele>679.79998779296875</ele>
        <time>2022-05-07T07:38:23.000Z</time>
      </trkpt>
      <trkpt lat="39.95610795915126800537109375" lon="-0.59678588993847370147705078125">
        <ele>677</ele>
        <time>2022-05-07T07:38:27.000Z</time>
      </trkpt>
      <trkpt lat="39.9563716538250446319580078125" lon="-0.59665932320058345794677734375">
        <ele>677.4000244140625</ele>
        <time>2022-05-07T07:38:31.000Z</time>
      </trkpt>
      <trkpt lat="39.9564896710216999053955078125" lon="-0.59658271260559558868408203125">
        <ele>679.20001220703125</ele>
        <time>2022-05-07T07:38:33.000Z</time>
      </trkpt>
      <trkpt lat="39.9567149765789508819580078125" lon="-0.5964369513094425201416015625">
        <ele>682.5999755859375</ele>
        <time>2022-05-07T07:38:37.000Z</time>
      </trkpt>
      <trkpt lat="39.95677323080599308013916015625" lon="-0.59639730490744113922119140625">
        <ele>683.5999755859375</ele>
        <time>2022-05-07T07:38:38.000Z</time>
      </trkpt>
      <trkpt lat="39.956991411745548248291015625" lon="-0.59622832573950290679931640625">
        <ele>686</ele>
        <time>2022-05-07T07:38:42.000Z</time>
      </trkpt>
      <trkpt lat="39.95718277059495449066162109375" lon="-0.59605113230645656585693359375">
        <ele>687</ele>
        <time>2022-05-07T07:38:46.000Z</time>
      </trkpt>
      <trkpt lat="39.95733532123267650604248046875" lon="-0.595898330211639404296875">
        <ele>687.20001220703125</ele>
        <time>2022-05-07T07:38:49.000Z</time>
      </trkpt>
      <trkpt lat="39.95759792625904083251953125" lon="-0.595580153167247772216796875">
        <ele>687.20001220703125</ele>
        <time>2022-05-07T07:38:54.000Z</time>
      </trkpt>
      <trkpt lat="39.95765559375286102294921875" lon="-0.5955042131245136260986328125">
        <ele>687</ele>
        <time>2022-05-07T07:38:55.000Z</time>
      </trkpt>
      <trkpt lat="39.95795859955251216888427734375" lon="-0.59499484486877918243408203125">
        <ele>685</ele>
        <time>2022-05-07T07:39:01.000Z</time>
      </trkpt>
      <trkpt lat="39.9582250602543354034423828125" lon="-0.59443317353725433349609375">
        <ele>683.79998779296875</ele>
        <time>2022-05-07T07:39:07.000Z</time>
      </trkpt>
      <trkpt lat="39.95826311409473419189453125" lon="-0.59433267451822757720947265625">
        <ele>683.79998779296875</ele>
        <time>2022-05-07T07:39:08.000Z</time>
      </trkpt>
      <trkpt lat="39.95839546434581279754638671875" lon="-0.59392699040472507476806640625">
        <ele>684</ele>
        <time>2022-05-07T07:39:12.000Z</time>
      </trkpt>
      <trkpt lat="39.9584703147411346435546875" lon="-0.59361753053963184356689453125">
        <ele>683</ele>
        <time>2022-05-07T07:39:15.000Z</time>
      </trkpt>
      <trkpt lat="39.95859897695481777191162109375" lon="-0.5928325653076171875">
        <ele>680.4000244140625</ele>
        <time>2022-05-07T07:39:22.000Z</time>
      </trkpt>
      <trkpt lat="39.958620853722095489501953125" lon="-0.59260122478008270263671875">
        <ele>679.79998779296875</ele>
        <time>2022-05-07T07:39:24.000Z</time>
      </trkpt>
      <trkpt lat="39.95863133110105991363525390625" lon="-0.59213728643953800201416015625">
        <ele>678.5999755859375</ele>
        <time>2022-05-07T07:39:28.000Z</time>
      </trkpt>
      <trkpt lat="39.95863066054880619049072265625" lon="-0.59201759286224842071533203125">
        <ele>678.20001220703125</ele>
        <time>2022-05-07T07:39:29.000Z</time>
      </trkpt>
      <trkpt lat="39.95860869996249675750732421875" lon="-0.5915523134171962738037109375">
        <ele>676.4000244140625</ele>
        <time>2022-05-07T07:39:33.000Z</time>
      </trkpt>
      <trkpt lat="39.95860098861157894134521484375" lon="-0.591435469686985015869140625">
        <ele>676</ele>
        <time>2022-05-07T07:39:34.000Z</time>
      </trkpt>
      <trkpt lat="39.95857098139822483062744140625" lon="-0.5910946615040302276611328125">
        <ele>674.5999755859375</ele>
        <time>2022-05-07T07:39:37.000Z</time>
      </trkpt>
      <trkpt lat="39.958498813211917877197265625" lon="-0.59064815752208232879638671875">
        <ele>673</ele>
        <time>2022-05-07T07:39:41.000Z</time>
      </trkpt>
      <trkpt lat="39.95845698751509189605712890625" lon="-0.59042754583060741424560546875">
        <ele>672.5999755859375</ele>
        <time>2022-05-07T07:39:43.000Z</time>
      </trkpt>
      <trkpt lat="39.95835808105766773223876953125" lon="-0.58999571017920970916748046875">
        <ele>672.20001220703125</ele>
        <time>2022-05-07T07:39:47.000Z</time>
      </trkpt>
      <trkpt lat="39.95826537720859050750732421875" lon="-0.58968222700059413909912109375">
        <ele>670.20001220703125</ele>
        <time>2022-05-07T07:39:50.000Z</time>
      </trkpt>
      <trkpt lat="39.9581536464393138885498046875" lon="-0.5893750302493572235107421875">
        <ele>669.4000244140625</ele>
        <time>2022-05-07T07:39:53.000Z</time>
      </trkpt>
      <trkpt lat="39.9580245651304721832275390625" lon="-0.58907453902065753936767578125">
        <ele>668.5999755859375</ele>
        <time>2022-05-07T07:39:56.000Z</time>
      </trkpt>
      <trkpt lat="39.95788031257688999176025390625" lon="-0.58877765201032161712646484375">
        <ele>667.79998779296875</ele>
        <time>2022-05-07T07:39:59.000Z</time>
      </trkpt>
      <trkpt lat="39.957823567092418670654296875" lon="-0.588683523237705230712890625">
        <ele>667.5999755859375</ele>
        <time>2022-05-07T07:40:00.000Z</time>
      </trkpt>
      <trkpt lat="39.9576145224273204803466796875" lon="-0.58835017494857311248779296875">
        <ele>667</ele>
        <time>2022-05-07T07:40:04.000Z</time>
      </trkpt>
      <trkpt lat="39.95746037922799587249755859375" lon="-0.58813576586544513702392578125">
        <ele>666.4000244140625</ele>
        <time>2022-05-07T07:40:07.000Z</time>
      </trkpt>
      <trkpt lat="39.9573116004467010498046875" lon="-0.5879615060985088348388671875">
        <ele>666</ele>
        <time>2022-05-07T07:40:10.000Z</time>
      </trkpt>
      <trkpt lat="39.95715544559061527252197265625" lon="-0.58780685998499393463134765625">
        <ele>666</ele>
        <time>2022-05-07T07:40:13.000Z</time>
      </trkpt>
      <trkpt lat="39.95698495768010616302490234375" lon="-0.58763570152223110198974609375">
        <ele>666.5999755859375</ele>
        <time>2022-05-07T07:40:16.000Z</time>
      </trkpt>
      <trkpt lat="39.9566606618463993072509765625" lon="-0.58738030493259429931640625">
        <ele>666.5999755859375</ele>
        <time>2022-05-07T07:40:21.000Z</time>
      </trkpt>
      <trkpt lat="39.9565885774791240692138671875" lon="-0.587336719036102294921875">
        <ele>666.20001220703125</ele>
        <time>2022-05-07T07:40:22.000Z</time>
      </trkpt>
      <trkpt lat="39.95621365495026111602783203125" lon="-0.587138570845127105712890625">
        <ele>664.79998779296875</ele>
        <time>2022-05-07T07:40:27.000Z</time>
      </trkpt>
      <trkpt lat="39.9560521356761455535888671875" lon="-0.58707109652459621429443359375">
        <ele>663.79998779296875</ele>
        <time>2022-05-07T07:40:29.000Z</time>
      </trkpt>
      <trkpt lat="39.95580864138901233673095703125" lon="-0.58698593638837337493896484375">
        <ele>662.4000244140625</ele>
        <time>2022-05-07T07:40:32.000Z</time>
      </trkpt>
      <trkpt lat="39.955471940338611602783203125" lon="-0.58689105324447154998779296875">
        <ele>661</ele>
        <time>2022-05-07T07:40:36.000Z</time>
      </trkpt>
      <trkpt lat="39.955138005316257476806640625" lon="-0.586835481226444244384765625">
        <ele>659.5999755859375</ele>
        <time>2022-05-07T07:40:40.000Z</time>
      </trkpt>
      <trkpt lat="39.954962991178035736083984375" lon="-0.586822740733623504638671875">
        <ele>658.79998779296875</ele>
        <time>2022-05-07T07:40:42.000Z</time>
      </trkpt>
      <trkpt lat="39.954875148832798004150390625" lon="-0.586824081838130950927734375">
        <ele>658.20001220703125</ele>
        <time>2022-05-07T07:40:43.000Z</time>
      </trkpt>
      <trkpt lat="39.9544357694685459136962890625" lon="-0.5868685059249401092529296875">
        <ele>655.5999755859375</ele>
        <time>2022-05-07T07:40:48.000Z</time>
      </trkpt>
      <trkpt lat="39.9543512798845767974853515625" lon="-0.586894489824771881103515625">
        <ele>655.4000244140625</ele>
        <time>2022-05-07T07:40:49.000Z</time>
      </trkpt>
      <trkpt lat="39.95390192605555057525634765625" lon="-0.58700772933661937713623046875">
        <ele>654.4000244140625</ele>
        <time>2022-05-07T07:40:54.000Z</time>
      </trkpt>
      <trkpt lat="39.9538104794919490814208984375" lon="-0.587024576961994171142578125">
        <ele>654</ele>
        <time>2022-05-07T07:40:55.000Z</time>
      </trkpt>
      <trkpt lat="39.95353446342051029205322265625" lon="-0.5870867706835269927978515625">
        <ele>653.79998779296875</ele>
        <time>2022-05-07T07:40:58.000Z</time>
      </trkpt>
      <trkpt lat="39.9531649053096771240234375" lon="-0.58717100881040096282958984375">
        <ele>654</ele>
        <time>2022-05-07T07:41:02.000Z</time>
      </trkpt>
      <trkpt lat="39.9528995342552661895751953125" lon="-0.58722347952425479888916015625">
        <ele>653.79998779296875</ele>
        <time>2022-05-07T07:41:05.000Z</time>
      </trkpt>
      <trkpt lat="39.95264262892305850982666015625" lon="-0.5872792191803455352783203125">
        <ele>653.20001220703125</ele>
        <time>2022-05-07T07:41:08.000Z</time>
      </trkpt>
      <trkpt lat="39.95255805552005767822265625" lon="-0.58729824610054492950439453125">
        <ele>653</ele>
        <time>2022-05-07T07:41:09.000Z</time>
      </trkpt>
      <trkpt lat="39.9524740688502788543701171875" lon="-0.5873167701065540313720703125">
        <ele>652.79998779296875</ele>
        <time>2022-05-07T07:41:10.000Z</time>
      </trkpt>
      <trkpt lat="39.9521411396563053131103515625" lon="-0.58738424442708492279052734375">
        <ele>652.20001220703125</ele>
        <time>2022-05-07T07:41:14.000Z</time>
      </trkpt>
      <trkpt lat="39.95180904865264892578125" lon="-0.58745917864143848419189453125">
        <ele>650.79998779296875</ele>
        <time>2022-05-07T07:41:18.000Z</time>
      </trkpt>
      <trkpt lat="39.9517257325351238250732421875" lon="-0.5874763615429401397705078125">
        <ele>650.4000244140625</ele>
        <time>2022-05-07T07:41:19.000Z</time>
      </trkpt>
      <trkpt lat="39.95130680501461029052734375" lon="-0.587551631033420562744140625">
        <ele>649</ele>
        <time>2022-05-07T07:41:24.000Z</time>
      </trkpt>
      <trkpt lat="39.95113916695117950439453125" lon="-0.58758012950420379638671875">
        <ele>648.20001220703125</ele>
        <time>2022-05-07T07:41:26.000Z</time>
      </trkpt>
      <trkpt lat="39.95078754611313343048095703125" lon="-0.5876491963863372802734375">
        <ele>645.79998779296875</ele>
        <time>2022-05-07T07:41:30.000Z</time>
      </trkpt>
      <trkpt lat="39.9506092630326747894287109375" lon="-0.5876859091222286224365234375">
        <ele>645</ele>
        <time>2022-05-07T07:41:32.000Z</time>
      </trkpt>
      <trkpt lat="39.95025076903402805328369140625" lon="-0.58771750889718532562255859375">
        <ele>643.5999755859375</ele>
        <time>2022-05-07T07:41:36.000Z</time>
      </trkpt>
      <trkpt lat="39.95016376487910747528076171875" lon="-0.5877087078988552093505859375">
        <ele>643.20001220703125</ele>
        <time>2022-05-07T07:41:37.000Z</time>
      </trkpt>
      <trkpt lat="39.9498979747295379638671875" lon="-0.58763922192156314849853515625">
        <ele>642.5999755859375</ele>
        <time>2022-05-07T07:41:40.000Z</time>
      </trkpt>
      <trkpt lat="39.94972430169582366943359375" lon="-0.58757501654326915740966796875">
        <ele>641.5999755859375</ele>
        <time>2022-05-07T07:41:42.000Z</time>
      </trkpt>
      <trkpt lat="39.949638135731220245361328125" lon="-0.58753998018801212310791015625">
        <ele>641.20001220703125</ele>
        <time>2022-05-07T07:41:43.000Z</time>
      </trkpt>
      <trkpt lat="39.9493186175823211669921875" lon="-0.5873462744057178497314453125">
        <ele>640.5999755859375</ele>
        <time>2022-05-07T07:41:47.000Z</time>
      </trkpt>
      <trkpt lat="39.94910445995628833770751953125" lon="-0.5871444381773471832275390625">
        <ele>638</ele>
        <time>2022-05-07T07:41:50.000Z</time>
      </trkpt>
      <trkpt lat="39.9489757977426052093505859375" lon="-0.58698778040707111358642578125">
        <ele>637.20001220703125</ele>
        <time>2022-05-07T07:41:52.000Z</time>
      </trkpt>
      <trkpt lat="39.94880162179470062255859375" lon="-0.5867162905633449554443359375">
        <ele>639</ele>
        <time>2022-05-07T07:41:55.000Z</time>
      </trkpt>
      <trkpt lat="39.94870095513761043548583984375" lon="-0.58652627281844615936279296875">
        <ele>640.5999755859375</ele>
        <time>2022-05-07T07:41:57.000Z</time>
      </trkpt>
      <trkpt lat="39.948619566857814788818359375" lon="-0.5863256938755512237548828125">
        <ele>640.79998779296875</ele>
        <time>2022-05-07T07:41:59.000Z</time>
      </trkpt>
      <trkpt lat="39.94852493517100811004638671875" lon="-0.58601916767656803131103515625">
        <ele>639.20001220703125</ele>
        <time>2022-05-07T07:42:02.000Z</time>
      </trkpt>
      <trkpt lat="39.9484812654554843902587890625" lon="-0.58582822792232036590576171875">
        <ele>638.4000244140625</ele>
        <time>2022-05-07T07:42:04.000Z</time>
      </trkpt>
      <trkpt lat="39.94845234788954257965087890625" lon="-0.58564885519444942474365234375">
        <ele>639</ele>
        <time>2022-05-07T07:42:06.000Z</time>
      </trkpt>
      <trkpt lat="39.94842032901942729949951171875" lon="-0.58536462485790252685546875">
        <ele>639</ele>
        <time>2022-05-07T07:42:09.000Z</time>
      </trkpt>
      <trkpt lat="39.948423765599727630615234375" lon="-0.5850635468959808349609375">
        <ele>638</ele>
        <time>2022-05-07T07:42:12.000Z</time>
      </trkpt>
      <trkpt lat="39.94843089021742343902587890625" lon="-0.5849617905914783477783203125">
        <ele>637.79998779296875</ele>
        <time>2022-05-07T07:42:13.000Z</time>
      </trkpt>
      <trkpt lat="39.948502890765666961669921875" lon="-0.58453557081520557403564453125">
        <ele>638</ele>
        <time>2022-05-07T07:42:17.000Z</time>
      </trkpt>
      <trkpt lat="39.9486641585826873779296875" lon="-0.58402528055012226104736328125">
        <ele>637.20001220703125</ele>
        <time>2022-05-07T07:42:22.000Z</time>
      </trkpt>
      <trkpt lat="39.94878293015062808990478515625" lon="-0.583737529814243316650390625">
        <ele>636.4000244140625</ele>
        <time>2022-05-07T07:42:25.000Z</time>
      </trkpt>
      <trkpt lat="39.9489141069352626800537109375" lon="-0.58347593061625957489013671875">
        <ele>635.4000244140625</ele>
        <time>2022-05-07T07:42:28.000Z</time>
      </trkpt>
      <trkpt lat="39.9490844272077083587646484375" lon="-0.58313227258622646331787109375">
        <ele>634</ele>
        <time>2022-05-07T07:42:32.000Z</time>
      </trkpt>
      <trkpt lat="39.94917201809585094451904296875" lon="-0.582964383065700531005859375">
        <ele>633.79998779296875</ele>
        <time>2022-05-07T07:42:34.000Z</time>
      </trkpt>
      <trkpt lat="39.94945800863206386566162109375" lon="-0.58240589685738086700439453125">
        <ele>636.79998779296875</ele>
        <time>2022-05-07T07:42:41.000Z</time>
      </trkpt>
      <trkpt lat="39.94969789870083332061767578125" lon="-0.581949837505817413330078125">
        <ele>638.79998779296875</ele>
        <time>2022-05-07T07:42:47.000Z</time>
      </trkpt>
      <trkpt lat="39.94973612017929553985595703125" lon="-0.58187129907310009002685546875">
        <ele>639</ele>
        <time>2022-05-07T07:42:48.000Z</time>
      </trkpt>
      <trkpt lat="39.95000383816659450531005859375" lon="-0.58133971877396106719970703125">
        <ele>640.5999755859375</ele>
        <time>2022-05-07T07:42:55.000Z</time>
      </trkpt>
      <trkpt lat="39.9502803571522235870361328125" lon="-0.580809228122234344482421875">
        <ele>636.4000244140625</ele>
        <time>2022-05-07T07:43:02.000Z</time>
      </trkpt>
      <trkpt lat="39.9503995478153228759765625" lon="-0.58058233000338077545166015625">
        <ele>634.5999755859375</ele>
        <time>2022-05-07T07:43:05.000Z</time>
      </trkpt>
      <trkpt lat="39.95059928856790065765380859375" lon="-0.580202043056488037109375">
        <ele>632.79998779296875</ele>
        <time>2022-05-07T07:43:10.000Z</time>
      </trkpt>
      <trkpt lat="39.95063767768442630767822265625" lon="-0.5801240913569927215576171875">
        <ele>632.4000244140625</ele>
        <time>2022-05-07T07:43:11.000Z</time>
      </trkpt>
      <trkpt lat="39.95082157664000988006591796875" lon="-0.5797096900641918182373046875">
        <ele>630.5999755859375</ele>
        <time>2022-05-07T07:43:16.000Z</time>
      </trkpt>
      <trkpt lat="39.9508503265678882598876953125" lon="-0.57961723767220973968505859375">
        <ele>630.4000244140625</ele>
        <time>2022-05-07T07:43:17.000Z</time>
      </trkpt>
      <trkpt lat="39.95092928409576416015625" lon="-0.57932294905185699462890625">
        <ele>629.5999755859375</ele>
        <time>2022-05-07T07:43:20.000Z</time>
      </trkpt>
      <trkpt lat="39.9509468860924243927001953125" lon="-0.579222030937671661376953125">
        <ele>629.20001220703125</ele>
        <time>2022-05-07T07:43:21.000Z</time>
      </trkpt>
      <trkpt lat="39.95096214115619659423828125" lon="-0.57911985553801059722900390625">
        <ele>629</ele>
        <time>2022-05-07T07:43:22.000Z</time>
      </trkpt>
      <trkpt lat="39.9509842693805694580078125" lon="-0.57880771346390247344970703125">
        <ele>627.5999755859375</ele>
        <time>2022-05-07T07:43:25.000Z</time>
      </trkpt>
      <trkpt lat="39.9509599618613719940185546875" lon="-0.57828493416309356689453125">
        <ele>628.5999755859375</ele>
        <time>2022-05-07T07:43:30.000Z</time>
      </trkpt>
      <trkpt lat="39.95095250196754932403564453125" lon="-0.57818309403955936431884765625">
        <ele>628.79998779296875</ele>
        <time>2022-05-07T07:43:31.000Z</time>
      </trkpt>
      <trkpt lat="39.950939677655696868896484375" lon="-0.578084103763103485107421875">
        <ele>628.79998779296875</ele>
        <time>2022-05-07T07:43:32.000Z</time>
      </trkpt>
      <trkpt lat="39.950902462005615234375" lon="-0.577882267534732818603515625">
        <ele>628.4000244140625</ele>
        <time>2022-05-07T07:43:34.000Z</time>
      </trkpt>
      <trkpt lat="39.95087421499192714691162109375" lon="-0.5777828581631183624267578125">
        <ele>628</ele>
        <time>2022-05-07T07:43:35.000Z</time>
      </trkpt>
      <trkpt lat="39.9508422799408435821533203125" lon="-0.5776849575340747833251953125">
        <ele>627.79998779296875</ele>
        <time>2022-05-07T07:43:36.000Z</time>
      </trkpt>
      <trkpt lat="39.950670786201953887939453125" lon="-0.5772222764790058135986328125">
        <ele>626.5999755859375</ele>
        <time>2022-05-07T07:43:41.000Z</time>
      </trkpt>
      <trkpt lat="39.95063893496990203857421875" lon="-0.57713988237082958221435546875">
        <ele>626.4000244140625</ele>
        <time>2022-05-07T07:43:42.000Z</time>
      </trkpt>
      <trkpt lat="39.9505861289799213409423828125" lon="-0.5769929476082324981689453125">
        <ele>626.20001220703125</ele>
        <time>2022-05-07T07:43:44.000Z</time>
      </trkpt>
      <trkpt lat="39.95055905543267726898193359375" lon="-0.57693351991474628448486328125">
        <ele>626.20001220703125</ele>
        <time>2022-05-07T07:43:46.000Z</time>
      </trkpt>
      <trkpt lat="39.95055989362299442291259765625" lon="-0.57693351991474628448486328125">
        <ele>626.20001220703125</ele>
        <time>2022-05-07T07:43:47.000Z</time>
      </trkpt>
      <trkpt lat="39.950536005198955535888671875" lon="-0.57688021101057529449462890625">
        <ele>626.20001220703125</ele>
        <time>2022-05-07T07:44:58.000Z</time>
      </trkpt>
      <trkpt lat="39.95052049867808818817138671875" lon="-0.57684768922626972198486328125">
        <ele>626</ele>
        <time>2022-05-07T07:44:59.000Z</time>
      </trkpt>
      <trkpt lat="39.95043952949345111846923828125" lon="-0.576631017029285430908203125">
        <ele>625.79998779296875</ele>
        <time>2022-05-07T07:45:05.000Z</time>
      </trkpt>
      <trkpt lat="39.9504345841705799102783203125" lon="-0.57662255130708217620849609375">
        <ele>625.79998779296875</ele>
        <time>2022-05-07T07:45:07.000Z</time>
      </trkpt>
      <trkpt lat="39.950417988002300262451171875" lon="-0.576578043401241302490234375">
        <ele>625.79998779296875</ele>
        <time>2022-05-07T07:46:34.000Z</time>
      </trkpt>
      <trkpt lat="39.9503889866173267364501953125" lon="-0.576532781124114990234375">
        <ele>625.79998779296875</ele>
        <time>2022-05-07T07:46:36.000Z</time>
      </trkpt>
      <trkpt lat="39.95031279511749744415283203125" lon="-0.57634393684566020965576171875">
        <ele>625.79998779296875</ele>
        <time>2022-05-07T07:46:40.000Z</time>
      </trkpt>
      <trkpt lat="39.95014029555022716522216796875" lon="-0.5759140290319919586181640625">
        <ele>626.4000244140625</ele>
        <time>2022-05-07T07:46:46.000Z</time>
      </trkpt>
      <trkpt lat="39.95004792697727680206298828125" lon="-0.57567589916288852691650390625">
        <ele>626</ele>
        <time>2022-05-07T07:46:49.000Z</time>
      </trkpt>
      <trkpt lat="39.9499730765819549560546875" lon="-0.57541287504136562347412109375">
        <ele>625.4000244140625</ele>
        <time>2022-05-07T07:46:52.000Z</time>
      </trkpt>
      <trkpt lat="39.94988397695124149322509765625" lon="-0.5749765969812870025634765625">
        <ele>624.4000244140625</ele>
        <time>2022-05-07T07:46:57.000Z</time>
      </trkpt>
      <trkpt lat="39.949856735765933990478515625" lon="-0.57480208575725555419921875">
        <ele>623.5999755859375</ele>
        <time>2022-05-07T07:46:59.000Z</time>
      </trkpt>
      <trkpt lat="39.94983670301735401153564453125" lon="-0.57443437166512012481689453125">
        <ele>623</ele>
        <time>2022-05-07T07:47:03.000Z</time>
      </trkpt>
      <trkpt lat="39.9498351104557514190673828125" lon="-0.574263967573642730712890625">
        <ele>622.5999755859375</ele>
        <time>2022-05-07T07:47:05.000Z</time>
      </trkpt>
      <trkpt lat="39.9498216994106769561767578125" lon="-0.57370481081306934356689453125">
        <ele>622</ele>
        <time>2022-05-07T07:47:12.000Z</time>
      </trkpt>
      <trkpt lat="39.9498200230300426483154296875" lon="-0.5735406093299388885498046875">
        <ele>622</ele>
        <time>2022-05-07T07:47:14.000Z</time>
      </trkpt>
      <trkpt lat="39.94980602525174617767333984375" lon="-0.5732147209346294403076171875">
        <ele>622</ele>
        <time>2022-05-07T07:47:18.000Z</time>
      </trkpt>
      <trkpt lat="39.94979479350149631500244140625" lon="-0.57305152527987957000732421875">
        <ele>621.79998779296875</ele>
        <time>2022-05-07T07:47:20.000Z</time>
      </trkpt>
      <trkpt lat="39.94978875853121280670166015625" lon="-0.57281180284917354583740234375">
        <ele>621.5999755859375</ele>
        <time>2022-05-07T07:47:23.000Z</time>
      </trkpt>
      <trkpt lat="39.9497891776263713836669921875" lon="-0.57268691249191761016845703125">
        <ele>621.5999755859375</ele>
        <time>2022-05-07T07:47:25.000Z</time>
      </trkpt>
      <trkpt lat="39.94979177601635456085205078125" lon="-0.5726367048919200897216796875">
        <ele>621.5999755859375</ele>
        <time>2022-05-07T07:47:26.000Z</time>
      </trkpt>
      <trkpt lat="39.94979362003505229949951171875" lon="-0.5723580904304981231689453125">
        <ele>621.5999755859375</ele>
        <time>2022-05-07T07:47:31.000Z</time>
      </trkpt>
      <trkpt lat="39.94979512877762317657470703125" lon="-0.57219229638576507568359375">
        <ele>621.5999755859375</ele>
        <time>2022-05-07T07:47:34.000Z</time>
      </trkpt>
      <trkpt lat="39.94979579932987689971923828125" lon="-0.5719421803951263427734375">
        <ele>621.5999755859375</ele>
        <time>2022-05-07T07:47:38.000Z</time>
      </trkpt>
      <trkpt lat="39.94979294948279857635498046875" lon="-0.5715272761881351470947265625">
        <ele>622</ele>
        <time>2022-05-07T07:47:44.000Z</time>
      </trkpt>
      <trkpt lat="39.94979211129248142242431640625" lon="-0.57138285599648952484130859375">
        <ele>622.20001220703125</ele>
        <time>2022-05-07T07:47:46.000Z</time>
      </trkpt>
      <trkpt lat="39.94979194365441799163818359375" lon="-0.57108546607196331024169921875">
        <ele>622.4000244140625</ele>
        <time>2022-05-07T07:47:50.000Z</time>
      </trkpt>
      <trkpt lat="39.94979563169181346893310546875" lon="-0.57080416940152645111083984375">
        <ele>623.4000244140625</ele>
        <time>2022-05-07T07:47:54.000Z</time>
      </trkpt>
      <trkpt lat="39.94979630224406719207763671875" lon="-0.570593364536762237548828125">
        <ele>624.20001220703125</ele>
        <time>2022-05-07T07:47:57.000Z</time>
      </trkpt>
      <trkpt lat="39.9497848190367221832275390625" lon="-0.57045849971473217010498046875">
        <ele>624.79998779296875</ele>
        <time>2022-05-07T07:47:59.000Z</time>
      </trkpt>
      <trkpt lat="39.9497841484844684600830078125" lon="-0.57038624770939350128173828125">
        <ele>625.20001220703125</ele>
        <time>2022-05-07T07:48:00.000Z</time>
      </trkpt>
      <trkpt lat="39.94978196918964385986328125" lon="-0.57024903595447540283203125">
        <ele>626.20001220703125</ele>
        <time>2022-05-07T07:48:02.000Z</time>
      </trkpt>
      <trkpt lat="39.94978423230350017547607421875" lon="-0.57009506039321422576904296875">
        <ele>627.20001220703125</ele>
        <time>2022-05-07T07:48:05.000Z</time>
      </trkpt>
      <trkpt lat="39.9497831426560878753662109375" lon="-0.56998475454747676849365234375">
        <ele>628</ele>
        <time>2022-05-07T07:48:07.000Z</time>
      </trkpt>
      <trkpt lat="39.949081242084503173828125" lon="-0.567378066480159759521484375">
        <ele>625.79998779296875</ele>
        <time>2022-05-07T07:48:39.000Z</time>
      </trkpt>
      <trkpt lat="39.9488846026360988616943359375" lon="-0.567169524729251861572265625">
        <ele>624.20001220703125</ele>
        <time>2022-05-07T07:48:42.000Z</time>
      </trkpt>
      <trkpt lat="39.94885400868952274322509765625" lon="-0.5670905672013759613037109375">
        <ele>624.20001220703125</ele>
        <time>2022-05-07T07:48:43.000Z</time>
      </trkpt>
      <trkpt lat="39.94881578721106052398681640625" lon="-0.5670147947967052459716796875">
        <ele>623.5999755859375</ele>
        <time>2022-05-07T07:48:44.000Z</time>
      </trkpt>
      <trkpt lat="39.9486378394067287445068359375" lon="-0.5668486654758453369140625">
        <ele>622.79998779296875</ele>
        <time>2022-05-07T07:48:47.000Z</time>
      </trkpt>
      <trkpt lat="39.94851370342075824737548828125" lon="-0.56665680371224880218505859375">
        <ele>622</ele>
        <time>2022-05-07T07:48:50.000Z</time>
      </trkpt>
      <trkpt lat="39.94836165569722652435302734375" lon="-0.56641473434865474700927734375">
        <ele>621.5999755859375</ele>
        <time>2022-05-07T07:48:54.000Z</time>
      </trkpt>
      <trkpt lat="39.9482800997793674468994140625" lon="-0.56626922450959682464599609375">
        <ele>622.20001220703125</ele>
        <time>2022-05-07T07:48:58.000Z</time>
      </trkpt>
      <trkpt lat="39.94816971011459827423095703125" lon="-0.56610904633998870849609375">
        <ele>623.79998779296875</ele>
        <time>2022-05-07T07:49:02.000Z</time>
      </trkpt>
      <trkpt lat="39.948132075369358062744140625" lon="-0.5660468526184558868408203125">
        <ele>623.5999755859375</ele>
        <time>2022-05-07T07:49:03.000Z</time>
      </trkpt>
      <trkpt lat="39.94792076759040355682373046875" lon="-0.565670840442180633544921875">
        <ele>620.4000244140625</ele>
        <time>2022-05-07T07:49:08.000Z</time>
      </trkpt>
      <trkpt lat="39.947755895555019378662109375" lon="-0.56538342498242855072021484375">
        <ele>618.4000244140625</ele>
        <time>2022-05-07T07:49:12.000Z</time>
      </trkpt>
      <trkpt lat="39.9477146565914154052734375" lon="-0.56532139889895915985107421875">
        <ele>617.79998779296875</ele>
        <time>2022-05-07T07:49:13.000Z</time>
      </trkpt>
      <trkpt lat="39.94763108901679515838623046875" lon="-0.56519064120948314666748046875">
        <ele>617</ele>
        <time>2022-05-07T07:49:15.000Z</time>
      </trkpt>
      <trkpt lat="39.947432018816471099853515625" lon="-0.56483088992536067962646484375">
        <ele>615</ele>
        <time>2022-05-07T07:49:20.000Z</time>
      </trkpt>
      <trkpt lat="39.9471767060458660125732421875" lon="-0.56438279338181018829345703125">
        <ele>613.5999755859375</ele>
        <time>2022-05-07T07:49:25.000Z</time>
      </trkpt>
      <trkpt lat="39.94706757366657257080078125" lon="-0.56419537402689456939697265625">
        <ele>612.4000244140625</ele>
        <time>2022-05-07T07:49:27.000Z</time>
      </trkpt>
      <trkpt lat="39.9469128437340259552001953125" lon="-0.5639242194592952728271484375">
        <ele>609.79998779296875</ele>
        <time>2022-05-07T07:49:30.000Z</time>
      </trkpt>
      <trkpt lat="39.94681284762918949127197265625" lon="-0.5637411586940288543701171875">
        <ele>608.79998779296875</ele>
        <time>2022-05-07T07:49:32.000Z</time>
      </trkpt>
      <trkpt lat="39.94661805219948291778564453125" lon="-0.56338450871407985687255859375">
        <ele>607</ele>
        <time>2022-05-07T07:49:36.000Z</time>
      </trkpt>
      <trkpt lat="39.9465748853981494903564453125" lon="-0.5633113346993923187255859375">
        <ele>607</ele>
        <time>2022-05-07T07:49:37.000Z</time>
      </trkpt>
      <trkpt lat="39.946529455482959747314453125" lon="-0.563250482082366943359375">
        <ele>607</ele>
        <time>2022-05-07T07:49:38.000Z</time>
      </trkpt>
      <trkpt lat="39.94644152931869029998779296875" lon="-0.563140176236629486083984375">
        <ele>607</ele>
        <time>2022-05-07T07:49:40.000Z</time>
      </trkpt>
      <trkpt lat="39.94634882546961307525634765625" lon="-0.5630238354206085205078125">
        <ele>606.79998779296875</ele>
        <time>2022-05-07T07:49:42.000Z</time>
      </trkpt>
      <trkpt lat="39.94609585963189601898193359375" lon="-0.56276391260325908660888671875">
        <ele>604.5999755859375</ele>
        <time>2022-05-07T07:49:47.000Z</time>
      </trkpt>
      <trkpt lat="39.94604540057480335235595703125" lon="-0.562721751630306243896484375">
        <ele>604</ele>
        <time>2022-05-07T07:49:48.000Z</time>
      </trkpt>
      <trkpt lat="39.94588815607130527496337890625" lon="-0.56261588819324970245361328125">
        <ele>602.5999755859375</ele>
        <time>2022-05-07T07:49:51.000Z</time>
      </trkpt>
      <trkpt lat="39.94579494930803775787353515625" lon="-0.562566854059696197509765625">
        <ele>601.79998779296875</ele>
        <time>2022-05-07T07:49:53.000Z</time>
      </trkpt>
      <trkpt lat="39.945706687867641448974609375" lon="-0.56252167560160160064697265625">
        <ele>601</ele>
        <time>2022-05-07T07:49:55.000Z</time>
      </trkpt>
      <trkpt lat="39.9456009082496166229248046875" lon="-0.5624791793525218963623046875">
        <ele>600.4000244140625</ele>
        <time>2022-05-07T07:49:57.000Z</time>
      </trkpt>
      <trkpt lat="39.945545084774494171142578125" lon="-0.56246149353682994842529296875">
        <ele>600</ele>
        <time>2022-05-07T07:49:58.000Z</time>
      </trkpt>
      <trkpt lat="39.945260100066661834716796875" lon="-0.56239225901663303375244140625">
        <ele>598.4000244140625</ele>
        <time>2022-05-07T07:50:03.000Z</time>
      </trkpt>
      <trkpt lat="39.94520452804863452911376953125" lon="-0.5623886547982692718505859375">
        <ele>598</ele>
        <time>2022-05-07T07:50:04.000Z</time>
      </trkpt>
      <trkpt lat="39.94489573873579502105712890625" lon="-0.5623484216630458831787109375">
        <ele>597.20001220703125</ele>
        <time>2022-05-07T07:50:10.000Z</time>
      </trkpt>
      <trkpt lat="39.9447989277541637420654296875" lon="-0.56233693845570087432861328125">
        <ele>597</ele>
        <time>2022-05-07T07:50:12.000Z</time>
      </trkpt>
      <trkpt lat="39.94460019282996654510498046875" lon="-0.56229687295854091644287109375">
        <ele>596.4000244140625</ele>
        <time>2022-05-07T07:50:16.000Z</time>
      </trkpt>
      <trkpt lat="39.94444831274449825286865234375" lon="-0.5622783489525318145751953125">
        <ele>596</ele>
        <time>2022-05-07T07:50:19.000Z</time>
      </trkpt>
      <trkpt lat="39.944293498992919921875" lon="-0.56225814856588840484619140625">
        <ele>595.20001220703125</ele>
        <time>2022-05-07T07:50:22.000Z</time>
      </trkpt>
      <trkpt lat="39.9440395273268222808837890625" lon="-0.56222923099994659423828125">
        <ele>593.79998779296875</ele>
        <time>2022-05-07T07:50:27.000Z</time>
      </trkpt>
      <trkpt lat="39.943776167929172515869140625" lon="-0.5621938593685626983642578125">
        <ele>592.20001220703125</ele>
        <time>2022-05-07T07:50:32.000Z</time>
      </trkpt>
      <trkpt lat="39.9435785226523876190185546875" lon="-0.56215756572782993316650390625">
        <ele>591.79998779296875</ele>
        <time>2022-05-07T07:50:36.000Z</time>
      </trkpt>
      <trkpt lat="39.9434499442577362060546875" lon="-0.56213828735053539276123046875">
        <ele>591.5999755859375</ele>
        <time>2022-05-07T07:50:39.000Z</time>
      </trkpt>
      <trkpt lat="39.9433113075792789459228515625" lon="-0.56212957017123699188232421875">
        <ele>591.4000244140625</ele>
        <time>2022-05-07T07:50:42.000Z</time>
      </trkpt>
      <trkpt lat="39.94320653378963470458984375" lon="-0.5621137283742427825927734375">
        <ele>591.4000244140625</ele>
        <time>2022-05-07T07:50:44.000Z</time>
      </trkpt>
      <trkpt lat="39.94315364398062229156494140625" lon="-0.5621013231575489044189453125">
        <ele>591.20001220703125</ele>
        <time>2022-05-07T07:50:45.000Z</time>
      </trkpt>
      <trkpt lat="39.94292967952787876129150390625" lon="-0.5620416440069675445556640625">
        <ele>590.4000244140625</ele>
        <time>2022-05-07T07:50:49.000Z</time>
      </trkpt>
      <trkpt lat="39.94287854991853237152099609375" lon="-0.56202630512416362762451171875">
        <ele>590.4000244140625</ele>
        <time>2022-05-07T07:50:50.000Z</time>
      </trkpt>
      <trkpt lat="39.94282566010951995849609375" lon="-0.56200166232883930206298828125">
        <ele>590.5999755859375</ele>
        <time>2022-05-07T07:50:51.000Z</time>
      </trkpt>
      <trkpt lat="39.94266900233924388885498046875" lon="-0.56191180832684040069580078125">
        <ele>590.79998779296875</ele>
        <time>2022-05-07T07:50:54.000Z</time>
      </trkpt>
      <trkpt lat="39.94240430183708667755126953125" lon="-0.5617264844477176666259765625">
        <ele>591.20001220703125</ele>
        <time>2022-05-07T07:50:59.000Z</time>
      </trkpt>
      <trkpt lat="39.94235468097031116485595703125" lon="-0.5616802163422107696533203125">
        <ele>591</ele>
        <time>2022-05-07T07:51:00.000Z</time>
      </trkpt>
      <trkpt lat="39.94230707176029682159423828125" lon="-0.56162900291383266448974609375">
        <ele>590.79998779296875</ele>
        <time>2022-05-07T07:51:01.000Z</time>
      </trkpt>
      <trkpt lat="39.94201974011957645416259765625" lon="-0.56128500960767269134521484375">
        <ele>590</ele>
        <time>2022-05-07T07:51:07.000Z</time>
      </trkpt>
      <trkpt lat="39.94183416478335857391357421875" lon="-0.5610368214547634124755859375">
        <ele>589.20001220703125</ele>
        <time>2022-05-07T07:51:11.000Z</time>
      </trkpt>
      <trkpt lat="39.94164280593395233154296875" lon="-0.5607846938073635101318359375">
        <ele>589</ele>
        <time>2022-05-07T07:51:15.000Z</time>
      </trkpt>
      <trkpt lat="39.94135446846485137939453125" lon="-0.56039334274828433990478515625">
        <ele>590.20001220703125</ele>
        <time>2022-05-07T07:51:21.000Z</time>
      </trkpt>
      <trkpt lat="39.94130392558872699737548828125" lon="-0.5603233538568019866943359375">
        <ele>590.20001220703125</ele>
        <time>2022-05-07T07:51:22.000Z</time>
      </trkpt>
      <trkpt lat="39.9411041848361492156982421875" lon="-0.56004054844379425048828125">
        <ele>590.5999755859375</ele>
        <time>2022-05-07T07:51:26.000Z</time>
      </trkpt>
      <trkpt lat="39.94095121510326862335205078125" lon="-0.559841729700565338134765625">
        <ele>591.4000244140625</ele>
        <time>2022-05-07T07:51:29.000Z</time>
      </trkpt>
      <trkpt lat="39.9408024363219738006591796875" lon="-0.5596534721553325653076171875">
        <ele>592.4000244140625</ele>
        <time>2022-05-07T07:51:32.000Z</time>
      </trkpt>
      <trkpt lat="39.940507896244525909423828125" lon="-0.55931693874299526214599609375">
        <ele>591.4000244140625</ele>
        <time>2022-05-07T07:51:38.000Z</time>
      </trkpt>
      <trkpt lat="39.9404044635593891143798828125" lon="-0.55920596234500408172607421875">
        <ele>591.20001220703125</ele>
        <time>2022-05-07T07:51:40.000Z</time>
      </trkpt>
      <trkpt lat="39.9401922337710857391357421875" lon="-0.55900161154568195343017578125">
        <ele>588.20001220703125</ele>
        <time>2022-05-07T07:51:44.000Z</time>
      </trkpt>
      <trkpt lat="39.94002350606024265289306640625" lon="-0.5588288605213165283203125">
        <ele>587.5999755859375</ele>
        <time>2022-05-07T07:51:47.000Z</time>
      </trkpt>
      <trkpt lat="39.9397855438292026519775390625" lon="-0.55859006009995937347412109375">
        <ele>585.4000244140625</ele>
        <time>2022-05-07T07:51:51.000Z</time>
      </trkpt>
      <trkpt lat="39.93942470289766788482666015625" lon="-0.5582724697887897491455078125">
        <ele>585.20001220703125</ele>
        <time>2022-05-07T07:51:57.000Z</time>
      </trkpt>
      <trkpt lat="39.939306266605854034423828125" lon="-0.55817616172134876251220703125">
        <ele>584.5999755859375</ele>
        <time>2022-05-07T07:51:59.000Z</time>
      </trkpt>
      <trkpt lat="39.93902186863124370574951171875" lon="-0.55794037878513336181640625">
        <ele>584.5999755859375</ele>
        <time>2022-05-07T07:52:04.000Z</time>
      </trkpt>
      <trkpt lat="39.93890427052974700927734375" lon="-0.55785664357244968414306640625">
        <ele>584.20001220703125</ele>
        <time>2022-05-07T07:52:06.000Z</time>
      </trkpt>
      <trkpt lat="39.93867251090705394744873046875" lon="-0.5576843954622745513916015625">
        <ele>583.5999755859375</ele>
        <time>2022-05-07T07:52:10.000Z</time>
      </trkpt>
      <trkpt lat="39.93862054310739040374755859375" lon="-0.55763703770935535430908203125">
        <ele>583.20001220703125</ele>
        <time>2022-05-07T07:52:11.000Z</time>
      </trkpt>
      <trkpt lat="39.93833304382860660552978515625" lon="-0.55739010684192180633544921875">
        <ele>580.79998779296875</ele>
        <time>2022-05-07T07:52:16.000Z</time>
      </trkpt>
      <trkpt lat="39.93827395141124725341796875" lon="-0.55734300054609775543212890625">
        <ele>580.20001220703125</ele>
        <time>2022-05-07T07:52:17.000Z</time>
      </trkpt>
      <trkpt lat="39.93791126646101474761962890625" lon="-0.5570317804813385009765625">
        <ele>577.79998779296875</ele>
        <time>2022-05-07T07:52:23.000Z</time>
      </trkpt>
      <trkpt lat="39.937784112989902496337890625" lon="-0.55692340247333049774169921875">
        <ele>578</ele>
        <time>2022-05-07T07:52:25.000Z</time>
      </trkpt>
      <trkpt lat="39.93747825734317302703857421875" lon="-0.5566618032753467559814453125">
        <ele>577.79998779296875</ele>
        <time>2022-05-07T07:52:30.000Z</time>
      </trkpt>
      <trkpt lat="39.937128983438014984130859375" lon="-0.55630532093346118927001953125">
        <ele>574.20001220703125</ele>
        <time>2022-05-07T07:52:36.000Z</time>
      </trkpt>
      <trkpt lat="39.936854057013988494873046875" lon="-0.5559768341481685638427734375">
        <ele>577.20001220703125</ele>
        <time>2022-05-07T07:52:41.000Z</time>
      </trkpt>
      <trkpt lat="39.9366979859769344329833984375" lon="-0.5557703040540218353271484375">
        <ele>579</ele>
        <time>2022-05-07T07:52:44.000Z</time>
      </trkpt>
      <trkpt lat="39.9365497939288616180419921875" lon="-0.55555522441864013671875">
        <ele>579.79998779296875</ele>
        <time>2022-05-07T07:52:47.000Z</time>
      </trkpt>
      <trkpt lat="39.93627428077161312103271484375" lon="-0.5551104806363582611083984375">
        <ele>578.4000244140625</ele>
        <time>2022-05-07T07:52:53.000Z</time>
      </trkpt>
      <trkpt lat="39.93619096465408802032470703125" lon="-0.554954074323177337646484375">
        <ele>577.79998779296875</ele>
        <time>2022-05-07T07:52:55.000Z</time>
      </trkpt>
      <trkpt lat="39.9360720254480838775634765625" lon="-0.5547111667692661285400390625">
        <ele>577</ele>
        <time>2022-05-07T07:52:58.000Z</time>
      </trkpt>
      <trkpt lat="39.93584160692989826202392578125" lon="-0.5542136169970035552978515625">
        <ele>575</ele>
        <time>2022-05-07T07:53:04.000Z</time>
      </trkpt>
      <trkpt lat="39.9358034692704677581787109375" lon="-0.55413055233657360076904296875">
        <ele>574.20001220703125</ele>
        <time>2022-05-07T07:53:05.000Z</time>
      </trkpt>
      <trkpt lat="39.93555125780403614044189453125" lon="-0.553576089441776275634765625">
        <ele>569.5999755859375</ele>
        <time>2022-05-07T07:53:12.000Z</time>
      </trkpt>
      <trkpt lat="39.93548177182674407958984375" lon="-0.553421191871166229248046875">
        <ele>568.5999755859375</ele>
        <time>2022-05-07T07:53:14.000Z</time>
      </trkpt>
      <trkpt lat="39.9353773333132266998291015625" lon="-0.5531873367726802825927734375">
        <ele>567.20001220703125</ele>
        <time>2022-05-07T07:53:17.000Z</time>
      </trkpt>
      <trkpt lat="39.935124702751636505126953125" lon="-0.55263035930693149566650390625">
        <ele>566.5999755859375</ele>
        <time>2022-05-07T07:53:24.000Z</time>
      </trkpt>
      <trkpt lat="39.93508941493928432464599609375" lon="-0.55255190469324588775634765625">
        <ele>566.79998779296875</ele>
        <time>2022-05-07T07:53:25.000Z</time>
      </trkpt>
      <trkpt lat="39.93491373024880886077880859375" lon="-0.5521409399807453155517578125">
        <ele>567.79998779296875</ele>
        <time>2022-05-07T07:53:30.000Z</time>
      </trkpt>
      <trkpt lat="39.934878610074520111083984375" lon="-0.55205854587256908416748046875">
        <ele>567.79998779296875</ele>
        <time>2022-05-07T07:53:31.000Z</time>
      </trkpt>
      <trkpt lat="39.93474776856601238250732421875" lon="-0.5517238564789295196533203125">
        <ele>568.79998779296875</ele>
        <time>2022-05-07T07:53:35.000Z</time>
      </trkpt>
      <trkpt lat="39.934664703905582427978515625" lon="-0.55145689286291599273681640625">
        <ele>569.5999755859375</ele>
        <time>2022-05-07T07:53:38.000Z</time>
      </trkpt>
      <trkpt lat="39.934561438858509063720703125" lon="-0.5510841496288776397705078125">
        <ele>571</ele>
        <time>2022-05-07T07:53:42.000Z</time>
      </trkpt>
      <trkpt lat="39.93446747772395610809326171875" lon="-0.55071744136512279510498046875">
        <ele>572.20001220703125</ele>
        <time>2022-05-07T07:53:46.000Z</time>
      </trkpt>
      <trkpt lat="39.9344439245760440826416015625" lon="-0.5506244860589504241943359375">
        <ele>572.5999755859375</ele>
        <time>2022-05-07T07:53:47.000Z</time>
      </trkpt>
      <trkpt lat="39.9343044497072696685791015625" lon="-0.5500649102032184600830078125">
        <ele>572.5999755859375</ele>
        <time>2022-05-07T07:53:53.000Z</time>
      </trkpt>
      <trkpt lat="39.934280812740325927734375" lon="-0.54997128434479236602783203125">
        <ele>572.4000244140625</ele>
        <time>2022-05-07T07:53:54.000Z</time>
      </trkpt>
      <trkpt lat="39.93415399454534053802490234375" lon="-0.54953240789473056793212890625">
        <ele>570.5999755859375</ele>
        <time>2022-05-07T07:53:59.000Z</time>
      </trkpt>
      <trkpt lat="39.93412449024617671966552734375" lon="-0.54944691248238086700439453125">
        <ele>570.5999755859375</ele>
        <time>2022-05-07T07:54:00.000Z</time>
      </trkpt>
      <trkpt lat="39.933957941830158233642578125" lon="-0.5490262247622013092041015625">
        <ele>566.5999755859375</ele>
        <time>2022-05-07T07:54:05.000Z</time>
      </trkpt>
      <trkpt lat="39.93391594849526882171630859375" lon="-0.5489502847194671630859375">
        <ele>565.5999755859375</ele>
        <time>2022-05-07T07:54:06.000Z</time>
      </trkpt>
      <trkpt lat="39.93364018388092517852783203125" lon="-0.5485246516764163970947265625">
        <ele>562.5999755859375</ele>
        <time>2022-05-07T07:54:12.000Z</time>
      </trkpt>
      <trkpt lat="39.9333576299250125885009765625" lon="-0.548235476016998291015625">
        <ele>562</ele>
        <time>2022-05-07T07:54:17.000Z</time>
      </trkpt>
      <trkpt lat="39.93329719640314579010009765625" lon="-0.54818493314087390899658203125">
        <ele>561.20001220703125</ele>
        <time>2022-05-07T07:54:18.000Z</time>
      </trkpt>
      <trkpt lat="39.93290676735341548919677734375" lon="-0.5479067377746105194091796875">
        <ele>559.20001220703125</ele>
        <time>2022-05-07T07:54:24.000Z</time>
      </trkpt>
      <trkpt lat="39.93277005851268768310546875" lon="-0.5478185601532459259033203125">
        <ele>559.20001220703125</ele>
        <time>2022-05-07T07:54:26.000Z</time>
      </trkpt>
      <trkpt lat="39.93263728916645050048828125" lon="-0.54772711358964443206787109375">
        <ele>559.20001220703125</ele>
        <time>2022-05-07T07:54:28.000Z</time>
      </trkpt>
      <trkpt lat="39.93218860588967800140380859375" lon="-0.54740776307880878448486328125">
        <ele>557</ele>
        <time>2022-05-07T07:54:35.000Z</time>
      </trkpt>
      <trkpt lat="39.9320520646870136260986328125" lon="-0.54733970202505588531494140625">
        <ele>556.20001220703125</ele>
        <time>2022-05-07T07:54:37.000Z</time>
      </trkpt>
      <trkpt lat="39.93191166780889034271240234375" lon="-0.5472918413579463958740234375">
        <ele>555.79998779296875</ele>
        <time>2022-05-07T07:54:39.000Z</time>
      </trkpt>
      <trkpt lat="39.93184142746031284332275390625" lon="-0.54727029986679553985595703125">
        <ele>555.5999755859375</ele>
        <time>2022-05-07T07:54:40.000Z</time>
      </trkpt>
      <trkpt lat="39.931699521839618682861328125" lon="-0.54723073728382587432861328125">
        <ele>555.20001220703125</ele>
        <time>2022-05-07T07:54:42.000Z</time>
      </trkpt>
      <trkpt lat="39.931328706443309783935546875" lon="-0.54718329571187496185302734375">
        <ele>555</ele>
        <time>2022-05-07T07:54:47.000Z</time>
      </trkpt>
      <trkpt lat="39.9312517605721950531005859375" lon="-0.547183044254779815673828125">
        <ele>555.20001220703125</ele>
        <time>2022-05-07T07:54:48.000Z</time>
      </trkpt>
      <trkpt lat="39.9308682046830654144287109375" lon="-0.547227971255779266357421875">
        <ele>551.79998779296875</ele>
        <time>2022-05-07T07:54:53.000Z</time>
      </trkpt>
      <trkpt lat="39.9304192699491977691650390625" lon="-0.5473937653005123138427734375">
        <ele>548.20001220703125</ele>
        <time>2022-05-07T07:54:59.000Z</time>
      </trkpt>
      <trkpt lat="39.93034743703901767730712890625" lon="-0.54743676446378231048583984375">
        <ele>547.20001220703125</ele>
        <time>2022-05-07T07:55:00.000Z</time>
      </trkpt>
      <trkpt lat="39.93000805377960205078125" lon="-0.54768973030149936676025390625">
        <ele>542.79998779296875</ele>
        <time>2022-05-07T07:55:05.000Z</time>
      </trkpt>
      <trkpt lat="39.92983479984104633331298828125" lon="-0.54786256514489650726318359375">
        <ele>540.79998779296875</ele>
        <time>2022-05-07T07:55:08.000Z</time>
      </trkpt>
      <trkpt lat="39.92967403493821620941162109375" lon="-0.5480571091175079345703125">
        <ele>539</ele>
        <time>2022-05-07T07:55:11.000Z</time>
      </trkpt>
      <trkpt lat="39.9295740388333797454833984375" lon="-0.54820236749947071075439453125">
        <ele>538.4000244140625</ele>
        <time>2022-05-07T07:55:13.000Z</time>
      </trkpt>
      <trkpt lat="39.92939407937228679656982421875" lon="-0.54851601831614971160888671875">
        <ele>538.20001220703125</ele>
        <time>2022-05-07T07:55:17.000Z</time>
      </trkpt>
      <trkpt lat="39.92926172912120819091796875" lon="-0.54874551482498645782470703125">
        <ele>537.79998779296875</ele>
        <time>2022-05-07T07:55:20.000Z</time>
      </trkpt>
      <trkpt lat="39.92904488928616046905517578125" lon="-0.54914633743464946746826171875">
        <ele>536.79998779296875</ele>
        <time>2022-05-07T07:55:25.000Z</time>
      </trkpt>
      <trkpt lat="39.92900230921804904937744140625" lon="-0.54922965355217456817626953125">
        <ele>536.5999755859375</ele>
        <time>2022-05-07T07:55:26.000Z</time>
      </trkpt>
      <trkpt lat="39.92885512299835681915283203125" lon="-0.54957213811576366424560546875">
        <ele>536.20001220703125</ele>
        <time>2022-05-07T07:55:30.000Z</time>
      </trkpt>
      <trkpt lat="39.92879544384777545928955078125" lon="-0.54975536651909351348876953125">
        <ele>535.79998779296875</ele>
        <time>2022-05-07T07:55:32.000Z</time>
      </trkpt>
      <trkpt lat="39.9287073500454425811767578125" lon="-0.55013104341924190521240234375">
        <ele>536.4000244140625</ele>
        <time>2022-05-07T07:55:36.000Z</time>
      </trkpt>
      <trkpt lat="39.9286711402237415313720703125" lon="-0.55031779222190380096435546875">
        <ele>536.79998779296875</ele>
        <time>2022-05-07T07:55:38.000Z</time>
      </trkpt>
      <trkpt lat="39.92859159596264362335205078125" lon="-0.55087409913539886474609375">
        <ele>536.5999755859375</ele>
        <time>2022-05-07T07:55:44.000Z</time>
      </trkpt>
      <trkpt lat="39.9285851418972015380859375" lon="-0.55145345628261566162109375">
        <ele>535.79998779296875</ele>
        <time>2022-05-07T07:55:50.000Z</time>
      </trkpt>
      <trkpt lat="39.9285997264087200164794921875" lon="-0.552193410694599151611328125">
        <ele>536</ele>
        <time>2022-05-07T07:55:57.000Z</time>
      </trkpt>
      <trkpt lat="39.92860056459903717041015625" lon="-0.55230312980711460113525390625">
        <ele>535.79998779296875</ele>
        <time>2022-05-07T07:55:58.000Z</time>
      </trkpt>
      <trkpt lat="39.92860986851155757904052734375" lon="-0.55286102928221225738525390625">
        <ele>533.79998779296875</ele>
        <time>2022-05-07T07:56:03.000Z</time>
      </trkpt>
      <trkpt lat="39.92861858569085597991943359375" lon="-0.55331197567284107208251953125">
        <ele>532.20001220703125</ele>
        <time>2022-05-07T07:56:07.000Z</time>
      </trkpt>
      <trkpt lat="39.9286195077002048492431640625" lon="-0.55342462845146656036376953125">
        <ele>531.79998779296875</ele>
        <time>2022-05-07T07:56:08.000Z</time>
      </trkpt>
      <trkpt lat="39.9286262132227420806884765625" lon="-0.55419660173356533050537109375">
        <ele>530.20001220703125</ele>
        <time>2022-05-07T07:56:15.000Z</time>
      </trkpt>
      <trkpt lat="39.92862747050821781158447265625" lon="-0.55430489592254161834716796875">
        <ele>530</ele>
        <time>2022-05-07T07:56:16.000Z</time>
      </trkpt>
      <trkpt lat="39.9286272190511226654052734375" lon="-0.55452198721468448638916015625">
        <ele>529.4000244140625</ele>
        <time>2022-05-07T07:56:18.000Z</time>
      </trkpt>
      <trkpt lat="39.92863400839269161224365234375" lon="-0.55524744093418121337890625">
        <ele>529.4000244140625</ele>
        <time>2022-05-07T07:56:25.000Z</time>
      </trkpt>
      <trkpt lat="39.92863677442073822021484375" lon="-0.55544852279126644134521484375">
        <ele>529.4000244140625</ele>
        <time>2022-05-07T07:56:27.000Z</time>
      </trkpt>
      <trkpt lat="39.92863786406815052032470703125" lon="-0.5555476807057857513427734375">
        <ele>529.5999755859375</ele>
        <time>2022-05-07T07:56:28.000Z</time>
      </trkpt>
      <trkpt lat="39.928653873503208160400390625" lon="-0.5563221685588359832763671875">
        <ele>532.5999755859375</ele>
        <time>2022-05-07T07:56:36.000Z</time>
      </trkpt>
      <trkpt lat="39.9286629259586334228515625" lon="-0.5569384060800075531005859375">
        <ele>534.5999755859375</ele>
        <time>2022-05-07T07:56:43.000Z</time>
      </trkpt>
      <trkpt lat="39.928663261234760284423828125" lon="-0.5573326908051967620849609375">
        <ele>535.79998779296875</ele>
        <time>2022-05-07T07:56:48.000Z</time>
      </trkpt>
      <trkpt lat="39.92866250686347484588623046875" lon="-0.5579598248004913330078125">
        <ele>538</ele>
        <time>2022-05-07T07:56:56.000Z</time>
      </trkpt>
      <trkpt lat="39.9286835454404354095458984375" lon="-0.55865921080112457275390625">
        <ele>536.20001220703125</ele>
        <time>2022-05-07T07:57:04.000Z</time>
      </trkpt>
      <trkpt lat="39.92868664674460887908935546875" lon="-0.559170506894588470458984375">
        <ele>533.5999755859375</ele>
        <time>2022-05-07T07:57:09.000Z</time>
      </trkpt>
      <trkpt lat="39.92868983186781406402587890625" lon="-0.55927502922713756561279296875">
        <ele>533</ele>
        <time>2022-05-07T07:57:10.000Z</time>
      </trkpt>
      <trkpt lat="39.92869502864778041839599609375" lon="-0.55968272499740123748779296875">
        <ele>530.5999755859375</ele>
        <time>2022-05-07T07:57:14.000Z</time>
      </trkpt>
      <trkpt lat="39.92869771085679531097412109375" lon="-0.559883303940296173095703125">
        <ele>529.4000244140625</ele>
        <time>2022-05-07T07:57:16.000Z</time>
      </trkpt>
      <trkpt lat="39.9286979623138904571533203125" lon="-0.56037339381873607635498046875">
        <ele>526.4000244140625</ele>
        <time>2022-05-07T07:57:21.000Z</time>
      </trkpt>
      <trkpt lat="39.92870827205479145050048828125" lon="-0.56114695966243743896484375">
        <ele>524.20001220703125</ele>
        <time>2022-05-07T07:57:29.000Z</time>
      </trkpt>
      <trkpt lat="39.928711540997028350830078125" lon="-0.56133563630282878875732421875">
        <ele>523.79998779296875</ele>
        <time>2022-05-07T07:57:31.000Z</time>
      </trkpt>
      <trkpt lat="39.92871749214828014373779296875" lon="-0.561614669859409332275390625">
        <ele>523.5999755859375</ele>
        <time>2022-05-07T07:57:34.000Z</time>
      </trkpt>
      <trkpt lat="39.928707182407379150390625" lon="-0.5620453320443630218505859375">
        <ele>523</ele>
        <time>2022-05-07T07:57:39.000Z</time>
      </trkpt>
      <trkpt lat="39.92861975915729999542236328125" lon="-0.562509857118129730224609375">
        <ele>524.5999755859375</ele>
        <time>2022-05-07T07:57:45.000Z</time>
      </trkpt>
      <trkpt lat="39.92854516021907329559326171875" lon="-0.5626974441111087799072265625">
        <ele>525.5999755859375</ele>
        <time>2022-05-07T07:57:49.000Z</time>
      </trkpt>
      <trkpt lat="39.92851850576698780059814453125" lon="-0.56273885071277618408203125">
        <ele>525.79998779296875</ele>
        <time>2022-05-07T07:57:51.000Z</time>
      </trkpt>
      <trkpt lat="39.92846854962408542633056640625" lon="-0.56277330033481121063232421875">
        <ele>526.20001220703125</ele>
        <time>2022-05-07T07:57:54.000Z</time>
      </trkpt>
      <trkpt lat="39.92846435867249965667724609375" lon="-0.562778413295745849609375">
        <ele>526.20001220703125</ele>
        <time>2022-05-07T07:57:56.000Z</time>
      </trkpt>
      <trkpt lat="39.9284719862043857574462890625" lon="-0.56286198087036609649658203125">
        <ele>526.4000244140625</ele>
        <time>2022-05-07T08:04:36.000Z</time>
      </trkpt>
      <trkpt lat="39.928463436663150787353515625" lon="-0.56288444437086582183837890625">
        <ele>526.5999755859375</ele>
        <time>2022-05-07T08:04:37.000Z</time>
      </trkpt>
      <trkpt lat="39.9284022487699985504150390625" lon="-0.5630263499915599822998046875">
        <ele>527.4000244140625</ele>
        <time>2022-05-07T08:04:42.000Z</time>
      </trkpt>
      <trkpt lat="39.928284399211406707763671875" lon="-0.56323229335248470306396484375">
        <ele>529</ele>
        <time>2022-05-07T08:04:48.000Z</time>
      </trkpt>
      <trkpt lat="39.928232096135616302490234375" lon="-0.56331376545131206512451171875">
        <ele>529.5999755859375</ele>
        <time>2022-05-07T08:04:50.000Z</time>
      </trkpt>
      <trkpt lat="39.928102679550647735595703125" lon="-0.5634682439267635345458984375">
        <ele>531</ele>
        <time>2022-05-07T08:04:54.000Z</time>
      </trkpt>
      <trkpt lat="39.92798927240073680877685546875" lon="-0.56358039379119873046875">
        <ele>532.20001220703125</ele>
        <time>2022-05-07T08:04:57.000Z</time>
      </trkpt>
      <trkpt lat="39.92780319415032863616943359375" lon="-0.56373554281890392303466796875">
        <ele>533.20001220703125</ele>
        <time>2022-05-07T08:05:01.000Z</time>
      </trkpt>
      <trkpt lat="39.9273910559713840484619140625" lon="-0.56405858136713504791259765625">
        <ele>534.4000244140625</ele>
        <time>2022-05-07T08:05:09.000Z</time>
      </trkpt>
      <trkpt lat="39.9269545264542102813720703125" lon="-0.56439721025526523590087890625">
        <ele>535.4000244140625</ele>
        <time>2022-05-07T08:05:17.000Z</time>
      </trkpt>
      <trkpt lat="39.92667348124086856842041015625" lon="-0.56461907923221588134765625">
        <ele>535.5999755859375</ele>
        <time>2022-05-07T08:05:22.000Z</time>
      </trkpt>
      <trkpt lat="39.92661715485155582427978515625" lon="-0.56466400623321533203125">
        <ele>535.79998779296875</ele>
        <time>2022-05-07T08:05:23.000Z</time>
      </trkpt>
      <trkpt lat="39.92638480849564075469970703125" lon="-0.56482451967895030975341796875">
        <ele>534.20001220703125</ele>
        <time>2022-05-07T08:05:27.000Z</time>
      </trkpt>
      <trkpt lat="39.9261079542338848114013671875" lon="-0.56501830928027629852294921875">
        <ele>531.20001220703125</ele>
        <time>2022-05-07T08:05:32.000Z</time>
      </trkpt>
      <trkpt lat="39.92576555348932743072509765625" lon="-0.5652867816388607025146484375">
        <ele>526.20001220703125</ele>
        <time>2022-05-07T08:05:38.000Z</time>
      </trkpt>
      <trkpt lat="39.9253629706799983978271484375" lon="-0.56562398560345172882080078125">
        <ele>521</ele>
        <time>2022-05-07T08:05:45.000Z</time>
      </trkpt>
      <trkpt lat="39.92499106563627719879150390625" lon="-0.565952472388744354248046875">
        <ele>522.79998779296875</ele>
        <time>2022-05-07T08:05:52.000Z</time>
      </trkpt>
      <trkpt lat="39.92469032295048236846923828125" lon="-0.56621004827320575714111328125">
        <ele>524.20001220703125</ele>
        <time>2022-05-07T08:05:58.000Z</time>
      </trkpt>
      <trkpt lat="39.9243123829364776611328125" lon="-0.56651548482477664947509765625">
        <ele>525.79998779296875</ele>
        <time>2022-05-07T08:06:06.000Z</time>
      </trkpt>
      <trkpt lat="39.92421607486903667449951171875" lon="-0.5665938556194305419921875">
        <ele>526.20001220703125</ele>
        <time>2022-05-07T08:06:08.000Z</time>
      </trkpt>
      <trkpt lat="39.92406587116420269012451171875" lon="-0.56672151200473308563232421875">
        <ele>526.79998779296875</ele>
        <time>2022-05-07T08:06:11.000Z</time>
      </trkpt>
      <trkpt lat="39.92386051453649997711181640625" lon="-0.5668783374130725860595703125">
        <ele>527.5999755859375</ele>
        <time>2022-05-07T08:06:15.000Z</time>
      </trkpt>
      <trkpt lat="39.92372238077223300933837890625" lon="-0.56698470376431941986083984375">
        <ele>528</ele>
        <time>2022-05-07T08:06:18.000Z</time>
      </trkpt>
      <trkpt lat="39.92355172522366046905517578125" lon="-0.56712216697633266448974609375">
        <ele>527.79998779296875</ele>
        <time>2022-05-07T08:06:22.000Z</time>
      </trkpt>
      <trkpt lat="39.9234277568757534027099609375" lon="-0.56723414920270442962646484375">
        <ele>527.79998779296875</ele>
        <time>2022-05-07T08:06:25.000Z</time>
      </trkpt>
      <trkpt lat="39.92334343492984771728515625" lon="-0.56732400320470333099365234375">
        <ele>528</ele>
        <time>2022-05-07T08:06:27.000Z</time>
      </trkpt>
      <trkpt lat="39.92318878881633281707763671875" lon="-0.567529611289501190185546875">
        <ele>528.4000244140625</ele>
        <time>2022-05-07T08:06:31.000Z</time>
      </trkpt>
      <trkpt lat="39.92299742996692657470703125" lon="-0.56787662208080291748046875">
        <ele>529.5999755859375</ele>
        <time>2022-05-07T08:06:37.000Z</time>
      </trkpt>
      <trkpt lat="39.92278394289314746856689453125" lon="-0.568278618156909942626953125">
        <ele>530</ele>
        <time>2022-05-07T08:06:44.000Z</time>
      </trkpt>
      <trkpt lat="39.92271688766777515411376953125" lon="-0.5684115551412105560302734375">
        <ele>530</ele>
        <time>2022-05-07T08:06:46.000Z</time>
      </trkpt>
      <trkpt lat="39.92257070727646350860595703125" lon="-0.568662844598293304443359375">
        <ele>530</ele>
        <time>2022-05-07T08:06:50.000Z</time>
      </trkpt>
      <trkpt lat="39.9224635027348995208740234375" lon="-0.56884816847741603851318359375">
        <ele>530</ele>
        <time>2022-05-07T08:06:53.000Z</time>
      </trkpt>
      <trkpt lat="39.922388233244419097900390625" lon="-0.5689691193401813507080078125">
        <ele>530.79998779296875</ele>
        <time>2022-05-07T08:06:55.000Z</time>
      </trkpt>
      <trkpt lat="39.92219653911888599395751953125" lon="-0.5692500807344913482666015625">
        <ele>532.5999755859375</ele>
        <time>2022-05-07T08:07:00.000Z</time>
      </trkpt>
      <trkpt lat="39.92204315029084682464599609375" lon="-0.5694750510156154632568359375">
        <ele>534.20001220703125</ele>
        <time>2022-05-07T08:07:04.000Z</time>
      </trkpt>
      <trkpt lat="39.91914485581219196319580078125" lon="-0.57472606189548969268798828125">
        <ele>515</ele>
        <time>2022-05-07T08:08:17.000Z</time>
      </trkpt>
      <trkpt lat="39.9189783073961734771728515625" lon="-0.57479462586343288421630859375">
        <ele>514.20001220703125</ele>
        <time>2022-05-07T08:08:19.000Z</time>
      </trkpt>
      <trkpt lat="39.91892441175878047943115234375" lon="-0.57493426837027072906494140625">
        <ele>514</ele>
        <time>2022-05-07T08:08:21.000Z</time>
      </trkpt>
      <trkpt lat="39.918718300759792327880859375" lon="-0.57506871409714221954345703125">
        <ele>512.5999755859375</ele>
        <time>2022-05-07T08:08:24.000Z</time>
      </trkpt>
      <trkpt lat="39.91858578287065029144287109375" lon="-0.57513979263603687286376953125">
        <ele>510.20001220703125</ele>
        <time>2022-05-07T08:08:26.000Z</time>
      </trkpt>
      <trkpt lat="39.91845267824828624725341796875" lon="-0.57519435882568359375">
        <ele>507.79998779296875</ele>
        <time>2022-05-07T08:08:28.000Z</time>
      </trkpt>
      <trkpt lat="39.9183905683457851409912109375" lon="-0.57521154172718524932861328125">
        <ele>506.79998779296875</ele>
        <time>2022-05-07T08:08:29.000Z</time>
      </trkpt>
      <trkpt lat="39.91833264939486980438232421875" lon="-0.575228221714496612548828125">
        <ele>505.79998779296875</ele>
        <time>2022-05-07T08:08:30.000Z</time>
      </trkpt>
      <trkpt lat="39.91792947985231876373291015625" lon="-0.57535151951014995574951171875">
        <ele>499.20001220703125</ele>
        <time>2022-05-07T08:08:36.000Z</time>
      </trkpt>
      <trkpt lat="39.91780878044664859771728515625" lon="-0.57532302103936672210693359375">
        <ele>498</ele>
        <time>2022-05-07T08:08:38.000Z</time>
      </trkpt>
      <trkpt lat="39.9177522026002407073974609375" lon="-0.5752847157418727874755859375">
        <ele>497.600006103515625</ele>
        <time>2022-05-07T08:08:39.000Z</time>
      </trkpt>
      <trkpt lat="39.91768439300358295440673828125" lon="-0.5752615816891193389892578125">
        <ele>497.20001220703125</ele>
        <time>2022-05-07T08:08:40.000Z</time>
      </trkpt>
      <trkpt lat="39.9175505340099334716796875" lon="-0.5751968733966350555419921875">
        <ele>496.20001220703125</ele>
        <time>2022-05-07T08:08:42.000Z</time>
      </trkpt>
      <trkpt lat="39.9174833111464977264404296875" lon="-0.57516560889780521392822265625">
        <ele>495.600006103515625</ele>
        <time>2022-05-07T08:08:43.000Z</time>
      </trkpt>
      <trkpt lat="39.9174182675778865814208984375" lon="-0.5751184187829494476318359375">
        <ele>495.20001220703125</ele>
        <time>2022-05-07T08:08:44.000Z</time>
      </trkpt>
      <trkpt lat="39.91735314019024372100830078125" lon="-0.57508078403770923614501953125">
        <ele>494.600006103515625</ele>
        <time>2022-05-07T08:08:45.000Z</time>
      </trkpt>
      <trkpt lat="39.91689431481063365936279296875" lon="-0.57476327754557132720947265625">
        <ele>491.600006103515625</ele>
        <time>2022-05-07T08:08:52.000Z</time>
      </trkpt>
      <trkpt lat="39.916635565459728240966796875" lon="-0.5745487846434116363525390625">
        <ele>492.399993896484375</ele>
        <time>2022-05-07T08:08:57.000Z</time>
      </trkpt>
      <trkpt lat="39.9163950048387050628662109375" lon="-0.57435273192822933197021484375">
        <ele>492.600006103515625</ele>
        <time>2022-05-07T08:09:02.000Z</time>
      </trkpt>
      <trkpt lat="39.91629190742969512939453125" lon="-0.57426740415394306182861328125">
        <ele>492.399993896484375</ele>
        <time>2022-05-07T08:09:04.000Z</time>
      </trkpt>
      <trkpt lat="39.916024692356586456298828125" lon="-0.5740519054234027862548828125">
        <ele>492</ele>
        <time>2022-05-07T08:09:09.000Z</time>
      </trkpt>
      <trkpt lat="39.915749765932559967041015625" lon="-0.5738331377506256103515625">
        <ele>491.600006103515625</ele>
        <time>2022-05-07T08:09:14.000Z</time>
      </trkpt>
      <trkpt lat="39.91558355279266834259033203125" lon="-0.5736931599676609039306640625">
        <ele>491</ele>
        <time>2022-05-07T08:09:17.000Z</time>
      </trkpt>
      <trkpt lat="39.91542127914726734161376953125" lon="-0.57355276308953762054443359375">
        <ele>491.600006103515625</ele>
        <time>2022-05-07T08:09:20.000Z</time>
      </trkpt>
      <trkpt lat="39.9152748472988605499267578125" lon="-0.57342133484780788421630859375">
        <ele>492.20001220703125</ele>
        <time>2022-05-07T08:09:23.000Z</time>
      </trkpt>
      <trkpt lat="39.91513897664844989776611328125" lon="-0.5732402019202709197998046875">
        <ele>493.399993896484375</ele>
        <time>2022-05-07T08:09:27.000Z</time>
      </trkpt>
      <trkpt lat="39.9151115678250789642333984375" lon="-0.57319276034832000732421875">
        <ele>493.600006103515625</ele>
        <time>2022-05-07T08:09:28.000Z</time>
      </trkpt>
      <trkpt lat="39.9150539003312587738037109375" lon="-0.57303627021610736846923828125">
        <ele>494.600006103515625</ele>
        <time>2022-05-07T08:09:31.000Z</time>
      </trkpt>
      <trkpt lat="39.91502783261239528656005859375" lon="-0.5729920975863933563232421875">
        <ele>494.79998779296875</ele>
        <time>2022-05-07T08:09:32.000Z</time>
      </trkpt>
      <trkpt lat="39.914810992777347564697265625" lon="-0.57268448173999786376953125">
        <ele>495.20001220703125</ele>
        <time>2022-05-07T08:09:40.000Z</time>
      </trkpt>
      <trkpt lat="39.91474703885614871978759765625" lon="-0.572501756250858306884765625">
        <ele>495.20001220703125</ele>
        <time>2022-05-07T08:09:45.000Z</time>
      </trkpt>
      <trkpt lat="39.9147015251219272613525390625" lon="-0.57239572517573833465576171875">
        <ele>495.20001220703125</ele>
        <time>2022-05-07T08:09:50.000Z</time>
      </trkpt>
      <trkpt lat="39.9146510660648345947265625" lon="-0.57239170186221599578857421875">
        <ele>495</ele>
        <time>2022-05-07T08:09:52.000Z</time>
      </trkpt>
      <trkpt lat="39.914541430771350860595703125" lon="-0.57241869159042835235595703125">
        <ele>494.20001220703125</ele>
        <time>2022-05-07T08:09:55.000Z</time>
      </trkpt>
      <trkpt lat="39.91445367224514484405517578125" lon="-0.57245322503149509429931640625">
        <ele>493.600006103515625</ele>
        <time>2022-05-07T08:09:58.000Z</time>
      </trkpt>
      <trkpt lat="39.91442777216434478759765625" lon="-0.57244685478508472442626953125">
        <ele>493.600006103515625</ele>
        <time>2022-05-07T08:09:59.000Z</time>
      </trkpt>
      <trkpt lat="39.914403297007083892822265625" lon="-0.57243109680712223052978515625">
        <ele>493.399993896484375</ele>
        <time>2022-05-07T08:10:00.000Z</time>
      </trkpt>
      <trkpt lat="39.91425083018839359283447265625" lon="-0.57235859334468841552734375">
        <ele>493</ele>
        <time>2022-05-07T08:10:05.000Z</time>
      </trkpt>
      <trkpt lat="39.914098866283893585205078125" lon="-0.57223361916840076446533203125">
        <ele>493</ele>
        <time>2022-05-07T08:10:11.000Z</time>
      </trkpt>
      <trkpt lat="39.91407112218439579010009765625" lon="-0.57221249677240848541259765625">
        <ele>493</ele>
        <time>2022-05-07T08:10:12.000Z</time>
      </trkpt>
      <trkpt lat="39.9139199964702129364013671875" lon="-0.5721381492912769317626953125">
        <ele>492.600006103515625</ele>
        <time>2022-05-07T08:10:17.000Z</time>
      </trkpt>
      <trkpt lat="39.9136960320174694061279296875" lon="-0.57204033248126506805419921875">
        <ele>492</ele>
        <time>2022-05-07T08:10:22.000Z</time>
      </trkpt>
      <trkpt lat="39.91364666260778903961181640625" lon="-0.57202658616006374359130859375">
        <ele>492.20001220703125</ele>
        <time>2022-05-07T08:10:23.000Z</time>
      </trkpt>
      <trkpt lat="39.91359704174101352691650390625" lon="-0.572021305561065673828125">
        <ele>492.20001220703125</ele>
        <time>2022-05-07T08:10:24.000Z</time>
      </trkpt>
      <trkpt lat="39.9134480953216552734375" lon="-0.5720218084752559661865234375">
        <ele>492.399993896484375</ele>
        <time>2022-05-07T08:10:27.000Z</time>
      </trkpt>
      <trkpt lat="39.9133641086518764495849609375" lon="-0.5720265023410320281982421875">
        <ele>492.399993896484375</ele>
        <time>2022-05-07T08:10:29.000Z</time>
      </trkpt>
      <trkpt lat="39.913317002356052398681640625" lon="-0.5720254965126514434814453125">
        <ele>492.600006103515625</ele>
        <time>2022-05-07T08:10:31.000Z</time>
      </trkpt>
      <trkpt lat="39.91330199874937534332275390625" lon="-0.5720204673707485198974609375">
        <ele>492.600006103515625</ele>
        <time>2022-05-07T08:10:32.000Z</time>
      </trkpt>
      <trkpt lat="39.91328917443752288818359375" lon="-0.5719959922134876251220703125">
        <ele>492.600006103515625</ele>
        <time>2022-05-07T08:10:33.000Z</time>
      </trkpt>
      <trkpt lat="39.91327584721148014068603515625" lon="-0.5719664879143238067626953125">
        <ele>492.600006103515625</ele>
        <time>2022-05-07T08:10:34.000Z</time>
      </trkpt>
      <trkpt lat="39.91317912004888057708740234375" lon="-0.57195383124053478240966796875">
        <ele>492.600006103515625</ele>
        <time>2022-05-07T08:10:37.000Z</time>
      </trkpt>
      <trkpt lat="39.913076274096965789794921875" lon="-0.572028346359729766845703125">
        <ele>492.79998779296875</ele>
        <time>2022-05-07T08:10:40.000Z</time>
      </trkpt>
      <trkpt lat="39.91303780116140842437744140625" lon="-0.5720499716699123382568359375">
        <ele>492.79998779296875</ele>
        <time>2022-05-07T08:10:41.000Z</time>
      </trkpt>
      <trkpt lat="39.9127834104001522064208984375" lon="-0.57220662944018840789794921875">
        <ele>493.600006103515625</ele>
        <time>2022-05-07T08:10:47.000Z</time>
      </trkpt>
      <trkpt lat="39.91271392442286014556884765625" lon="-0.57226471602916717529296875">
        <ele>493.399993896484375</ele>
        <time>2022-05-07T08:10:49.000Z</time>
      </trkpt>
      <trkpt lat="39.91265256889164447784423828125" lon="-0.5722866766154766082763671875">
        <ele>493.600006103515625</ele>
        <time>2022-05-07T08:10:51.000Z</time>
      </trkpt>
      <trkpt lat="39.9125892855226993560791015625" lon="-0.57226412929594516754150390625">
        <ele>494.600006103515625</ele>
        <time>2022-05-07T08:10:53.000Z</time>
      </trkpt>
      <trkpt lat="39.91257143206894397735595703125" lon="-0.57223060168325901031494140625">
        <ele>495.20001220703125</ele>
        <time>2022-05-07T08:10:54.000Z</time>
      </trkpt>
      <trkpt lat="39.91255223751068115234375" lon="-0.5721358023583889007568359375">
        <ele>496.399993896484375</ele>
        <time>2022-05-07T08:10:56.000Z</time>
      </trkpt>
      <trkpt lat="39.912570677697658538818359375" lon="-0.57202205993235111236572265625">
        <ele>496.20001220703125</ele>
        <time>2022-05-07T08:10:58.000Z</time>
      </trkpt>
      <trkpt lat="39.91257973015308380126953125" lon="-0.5719131790101528167724609375">
        <ele>496</ele>
        <time>2022-05-07T08:11:00.000Z</time>
      </trkpt>
      <trkpt lat="39.912557937204837799072265625" lon="-0.57180396281182765960693359375">
        <ele>496.399993896484375</ele>
        <time>2022-05-07T08:11:02.000Z</time>
      </trkpt>
      <trkpt lat="39.91253974847495555877685546875" lon="-0.5717096664011478424072265625">
        <ele>496.399993896484375</ele>
        <time>2022-05-07T08:11:04.000Z</time>
      </trkpt>
      <trkpt lat="39.91250823251903057098388671875" lon="-0.5715478956699371337890625">
        <ele>498.20001220703125</ele>
        <time>2022-05-07T08:11:07.000Z</time>
      </trkpt>
      <trkpt lat="39.91249515675008296966552734375" lon="-0.57148561812937259674072265625">
        <ele>498.79998779296875</ele>
        <time>2022-05-07T08:11:08.000Z</time>
      </trkpt>
      <trkpt lat="39.91248107515275478363037109375" lon="-0.57142526842653751373291015625">
        <ele>499.399993896484375</ele>
        <time>2022-05-07T08:11:09.000Z</time>
      </trkpt>
      <trkpt lat="39.91243480704724788665771484375" lon="-0.57131781242787837982177734375">
        <ele>500.600006103515625</ele>
        <time>2022-05-07T08:11:11.000Z</time>
      </trkpt>
      <trkpt lat="39.91237320005893707275390625" lon="-0.5712339095771312713623046875">
        <ele>501</ele>
        <time>2022-05-07T08:11:13.000Z</time>
      </trkpt>
      <trkpt lat="39.91225074045360088348388671875" lon="-0.57106719352304935455322265625">
        <ele>501.399993896484375</ele>
        <time>2022-05-07T08:11:17.000Z</time>
      </trkpt>
      <trkpt lat="39.91215988062322139739990234375" lon="-0.57096241973340511322021484375">
        <ele>501.600006103515625</ele>
        <time>2022-05-07T08:11:20.000Z</time>
      </trkpt>
      <trkpt lat="39.91205996833741664886474609375" lon="-0.57085513137280941009521484375">
        <ele>501.79998779296875</ele>
        <time>2022-05-07T08:11:23.000Z</time>
      </trkpt>
      <trkpt lat="39.91203046403825283050537109375" lon="-0.57081154547631740570068359375">
        <ele>501.399993896484375</ele>
        <time>2022-05-07T08:11:24.000Z</time>
      </trkpt>
      <trkpt lat="39.91196407936513423919677734375" lon="-0.57073074392974376678466796875">
        <ele>501</ele>
        <time>2022-05-07T08:11:26.000Z</time>
      </trkpt>
      <trkpt lat="39.9118640832602977752685546875" lon="-0.57063787244260311126708984375">
        <ele>500.20001220703125</ele>
        <time>2022-05-07T08:11:29.000Z</time>
      </trkpt>
      <trkpt lat="39.91163969971239566802978515625" lon="-0.57055153883993625640869140625">
        <ele>499.20001220703125</ele>
        <time>2022-05-07T08:11:35.000Z</time>
      </trkpt>
      <trkpt lat="39.91153794340789318084716796875" lon="-0.5705100484192371368408203125">
        <ele>498.600006103515625</ele>
        <time>2022-05-07T08:11:38.000Z</time>
      </trkpt>
      <trkpt lat="39.911497794091701507568359375" lon="-0.57049655355513095855712890625">
        <ele>498.399993896484375</ele>
        <time>2022-05-07T08:11:39.000Z</time>
      </trkpt>
      <trkpt lat="39.91145110689103603363037109375" lon="-0.57048968039453029632568359375">
        <ele>498.399993896484375</ele>
        <time>2022-05-07T08:11:40.000Z</time>
      </trkpt>
      <trkpt lat="39.91124323569238185882568359375" lon="-0.57047593407332897186279296875">
        <ele>498.399993896484375</ele>
        <time>2022-05-07T08:11:44.000Z</time>
      </trkpt>
      <trkpt lat="39.91093260236084461212158203125" lon="-0.57047409005463123321533203125">
        <ele>496.20001220703125</ele>
        <time>2022-05-07T08:11:51.000Z</time>
      </trkpt>
      <trkpt lat="39.91080519743263721466064453125" lon="-0.57047861628234386444091796875">
        <ele>495.399993896484375</ele>
        <time>2022-05-07T08:11:54.000Z</time>
      </trkpt>
      <trkpt lat="39.91067536175251007080078125" lon="-0.5704781971871852874755859375">
        <ele>494.399993896484375</ele>
        <time>2022-05-07T08:11:57.000Z</time>
      </trkpt>
      <trkpt lat="39.9106331169605255126953125" lon="-0.5704688094556331634521484375">
        <ele>494</ele>
        <time>2022-05-07T08:11:58.000Z</time>
      </trkpt>
      <trkpt lat="39.910547621548175811767578125" lon="-0.57046319358050823211669921875">
        <ele>493.20001220703125</ele>
        <time>2022-05-07T08:12:00.000Z</time>
      </trkpt>
      <trkpt lat="39.91049825213849544525146484375" lon="-0.57045917026698589324951171875">
        <ele>492.79998779296875</ele>
        <time>2022-05-07T08:12:01.000Z</time>
      </trkpt>
      <trkpt lat="39.91045030765235424041748046875" lon="-0.57045967318117618560791015625">
        <ele>492.399993896484375</ele>
        <time>2022-05-07T08:12:02.000Z</time>
      </trkpt>
      <trkpt lat="39.91035492159426212310791015625" lon="-0.57044081389904022216796875">
        <ele>491.399993896484375</ele>
        <time>2022-05-07T08:12:04.000Z</time>
      </trkpt>
      <trkpt lat="39.91031636483967304229736328125" lon="-0.57040862739086151123046875">
        <ele>490.399993896484375</ele>
        <time>2022-05-07T08:12:05.000Z</time>
      </trkpt>
      <trkpt lat="39.91025769151747226715087890625" lon="-0.570299662649631500244140625">
        <ele>488.20001220703125</ele>
        <time>2022-05-07T08:12:07.000Z</time>
      </trkpt>
      <trkpt lat="39.91023086942732334136962890625" lon="-0.57023084722459316253662109375">
        <ele>486.79998779296875</ele>
        <time>2022-05-07T08:12:08.000Z</time>
      </trkpt>
      <trkpt lat="39.910173118114471435546875" lon="-0.570079386234283447265625">
        <ele>484</ele>
        <time>2022-05-07T08:12:10.000Z</time>
      </trkpt>
      <trkpt lat="39.91011586971580982208251953125" lon="-0.56992758996784687042236328125">
        <ele>481.20001220703125</ele>
        <time>2022-05-07T08:12:12.000Z</time>
      </trkpt>
      <trkpt lat="39.9100591242313385009765625" lon="-0.5697831697762012481689453125">
        <ele>478.399993896484375</ele>
        <time>2022-05-07T08:12:14.000Z</time>
      </trkpt>
      <trkpt lat="39.91000254638493061065673828125" lon="-0.56963623501360416412353515625">
        <ele>475.79998779296875</ele>
        <time>2022-05-07T08:12:16.000Z</time>
      </trkpt>
      <trkpt lat="39.9099479801952838897705078125" lon="-0.56947530247271060943603515625">
        <ele>473.20001220703125</ele>
        <time>2022-05-07T08:12:18.000Z</time>
      </trkpt>
      <trkpt lat="39.9099315516650676727294921875" lon="-0.5693898908793926239013671875">
        <ele>472.20001220703125</ele>
        <time>2022-05-07T08:12:19.000Z</time>
      </trkpt>
      <trkpt lat="39.90992392413318157196044921875" lon="-0.56930464692413806915283203125">
        <ele>471.20001220703125</ele>
        <time>2022-05-07T08:12:20.000Z</time>
      </trkpt>
      <trkpt lat="39.9099124409258365631103515625" lon="-0.5690479092299938201904296875">
        <ele>469.79998779296875</ele>
        <time>2022-05-07T08:12:23.000Z</time>
      </trkpt>
      <trkpt lat="39.90990296937525272369384765625" lon="-0.56887968443334102630615234375">
        <ele>469</ele>
        <time>2022-05-07T08:12:25.000Z</time>
      </trkpt>
      <trkpt lat="39.9098886363208293914794921875" lon="-0.56861565448343753814697265625">
        <ele>467.600006103515625</ele>
        <time>2022-05-07T08:12:28.000Z</time>
      </trkpt>
      <trkpt lat="39.9098812602460384368896484375" lon="-0.568436868488788604736328125">
        <ele>466.79998779296875</ele>
        <time>2022-05-07T08:12:30.000Z</time>
      </trkpt>
      <trkpt lat="39.90987748838961124420166015625" lon="-0.56825003586709499359130859375">
        <ele>466.399993896484375</ele>
        <time>2022-05-07T08:12:32.000Z</time>
      </trkpt>
      <trkpt lat="39.90987581200897693634033203125" lon="-0.56816118769347667694091796875">
        <ele>466.20001220703125</ele>
        <time>2022-05-07T08:12:33.000Z</time>
      </trkpt>
      <trkpt lat="39.90987027995288372039794921875" lon="-0.56791610084474086761474609375">
        <ele>465.399993896484375</ele>
        <time>2022-05-07T08:12:36.000Z</time>
      </trkpt>
      <trkpt lat="39.9098769016563892364501953125" lon="-0.5677651427686214447021484375">
        <ele>464.600006103515625</ele>
        <time>2022-05-07T08:12:38.000Z</time>
      </trkpt>
      <trkpt lat="39.909884445369243621826171875" lon="-0.56769062764942646026611328125">
        <ele>464.399993896484375</ele>
        <time>2022-05-07T08:12:39.000Z</time>
      </trkpt>
      <trkpt lat="39.90992191247642040252685546875" lon="-0.5673946626484394073486328125">
        <ele>463.20001220703125</ele>
        <time>2022-05-07T08:12:43.000Z</time>
      </trkpt>
      <trkpt lat="39.90993976593017578125" lon="-0.5672786571085453033447265625">
        <ele>462.79998779296875</ele>
        <time>2022-05-07T08:12:45.000Z</time>
      </trkpt>
      <trkpt lat="39.90995091386139392852783203125" lon="-0.5672287009656429290771484375">
        <ele>462.600006103515625</ele>
        <time>2022-05-07T08:12:46.000Z</time>
      </trkpt>
      <trkpt lat="39.9100123532116413116455078125" lon="-0.56705779395997524261474609375">
        <ele>462.20001220703125</ele>
        <time>2022-05-07T08:12:49.000Z</time>
      </trkpt>
      <trkpt lat="39.91003020666539669036865234375" lon="-0.5669873021543025970458984375">
        <ele>462</ele>
        <time>2022-05-07T08:12:50.000Z</time>
      </trkpt>
      <trkpt lat="39.91004143841564655303955078125" lon="-0.5666537024080753326416015625">
        <ele>461</ele>
        <time>2022-05-07T08:12:54.000Z</time>
      </trkpt>
      <trkpt lat="39.91002903319895267486572265625" lon="-0.566564016044139862060546875">
        <ele>460.79998779296875</ele>
        <time>2022-05-07T08:12:55.000Z</time>
      </trkpt>
      <trkpt lat="39.9099637381732463836669921875" lon="-0.56629520840942859649658203125">
        <ele>459.79998779296875</ele>
        <time>2022-05-07T08:12:58.000Z</time>
      </trkpt>
      <trkpt lat="39.90986793301999568939208984375" lon="-0.56594635359942913055419921875">
        <ele>458.79998779296875</ele>
        <time>2022-05-07T08:13:02.000Z</time>
      </trkpt>
      <trkpt lat="39.90981680341064929962158203125" lon="-0.5657548271119594573974609375">
        <ele>457.600006103515625</ele>
        <time>2022-05-07T08:13:04.000Z</time>
      </trkpt>
      <trkpt lat="39.909767098724842071533203125" lon="-0.565559528768062591552734375">
        <ele>456.600006103515625</ele>
        <time>2022-05-07T08:13:06.000Z</time>
      </trkpt>
      <trkpt lat="39.909695684909820556640625" lon="-0.5652599595487117767333984375">
        <ele>455.399993896484375</ele>
        <time>2022-05-07T08:13:09.000Z</time>
      </trkpt>
      <trkpt lat="39.90965436212718486785888671875" lon="-0.565070696175098419189453125">
        <ele>454.79998779296875</ele>
        <time>2022-05-07T08:13:11.000Z</time>
      </trkpt>
      <trkpt lat="39.90958060137927532196044921875" lon="-0.564772970974445343017578125">
        <ele>454.20001220703125</ele>
        <time>2022-05-07T08:13:14.000Z</time>
      </trkpt>
      <trkpt lat="39.9095205031335353851318359375" lon="-0.56455093435943126678466796875">
        <ele>453.20001220703125</ele>
        <time>2022-05-07T08:13:16.000Z</time>
      </trkpt>
      <trkpt lat="39.90940240211784839630126953125" lon="-0.56411423720419406890869140625">
        <ele>451.20001220703125</ele>
        <time>2022-05-07T08:13:20.000Z</time>
      </trkpt>
      <trkpt lat="39.9093441478908061981201171875" lon="-0.56389228440821170806884765625">
        <ele>450.20001220703125</ele>
        <time>2022-05-07T08:13:22.000Z</time>
      </trkpt>
      <trkpt lat="39.90929000079631805419921875" lon="-0.56367619894444942474365234375">
        <ele>449.600006103515625</ele>
        <time>2022-05-07T08:13:24.000Z</time>
      </trkpt>
      <trkpt lat="39.9092304892838001251220703125" lon="-0.56346614845097064971923828125">
        <ele>449.20001220703125</ele>
        <time>2022-05-07T08:13:26.000Z</time>
      </trkpt>
      <trkpt lat="39.90920207463204860687255859375" lon="-0.56336036883294582366943359375">
        <ele>449</ele>
        <time>2022-05-07T08:13:27.000Z</time>
      </trkpt>
      <trkpt lat="39.9090759269893169403076171875" lon="-0.56284521706402301788330078125">
        <ele>448.600006103515625</ele>
        <time>2022-05-07T08:13:32.000Z</time>
      </trkpt>
      <trkpt lat="39.909032844007015228271484375" lon="-0.5626471526920795440673828125">
        <ele>448.600006103515625</ele>
        <time>2022-05-07T08:13:34.000Z</time>
      </trkpt>
      <trkpt lat="39.90894558839499950408935546875" lon="-0.562238283455371856689453125">
        <ele>447.79998779296875</ele>
        <time>2022-05-07T08:13:39.000Z</time>
      </trkpt>
      <trkpt lat="39.90886763669550418853759765625" lon="-0.56185749359428882598876953125">
        <ele>447.399993896484375</ele>
        <time>2022-05-07T08:13:44.000Z</time>
      </trkpt>
      <trkpt lat="39.90878708660602569580078125" lon="-0.56155574508011341094970703125">
        <ele>447.20001220703125</ele>
        <time>2022-05-07T08:13:48.000Z</time>
      </trkpt>
      <trkpt lat="39.90860612131655216217041015625" lon="-0.56103556416928768157958984375">
        <ele>447.79998779296875</ele>
        <time>2022-05-07T08:13:55.000Z</time>
      </trkpt>
      <trkpt lat="39.90833186544477939605712890625" lon="-0.560425780713558197021484375">
        <ele>449.399993896484375</ele>
        <time>2022-05-07T08:14:04.000Z</time>
      </trkpt>
      <trkpt lat="39.90829867310822010040283203125" lon="-0.56037356145679950714111328125">
        <ele>449.399993896484375</ele>
        <time>2022-05-07T08:14:05.000Z</time>
      </trkpt>
      <trkpt lat="39.9082186259329319000244140625" lon="-0.5603146366775035858154296875">
        <ele>449.399993896484375</ele>
        <time>2022-05-07T08:14:07.000Z</time>
      </trkpt>
      <trkpt lat="39.90810940973460674285888671875" lon="-0.5601852200925350189208984375">
        <ele>449.600006103515625</ele>
        <time>2022-05-07T08:14:10.000Z</time>
      </trkpt>
      <trkpt lat="39.907877482473850250244140625" lon="-0.55980074219405651092529296875">
        <ele>450.600006103515625</ele>
        <time>2022-05-07T08:14:17.000Z</time>
      </trkpt>
      <trkpt lat="39.907622002065181732177734375" lon="-0.55940578691661357879638671875">
        <ele>451</ele>
        <time>2022-05-07T08:14:25.000Z</time>
      </trkpt>
      <trkpt lat="39.90754798986017704010009765625" lon="-0.559318028390407562255859375">
        <ele>451</ele>
        <time>2022-05-07T08:14:27.000Z</time>
      </trkpt>
      <trkpt lat="39.90735151804983615875244140625" lon="-0.55912516079843044281005859375">
        <ele>451.399993896484375</ele>
        <time>2022-05-07T08:14:32.000Z</time>
      </trkpt>
      <trkpt lat="39.907222688198089599609375" lon="-0.55903212167322635650634765625">
        <ele>451.399993896484375</ele>
        <time>2022-05-07T08:14:35.000Z</time>
      </trkpt>
      <trkpt lat="39.90697123110294342041015625" lon="-0.558911673724651336669921875">
        <ele>451.79998779296875</ele>
        <time>2022-05-07T08:14:41.000Z</time>
      </trkpt>
      <trkpt lat="39.90692806430160999298095703125" lon="-0.55889884941279888153076171875">
        <ele>452.20001220703125</ele>
        <time>2022-05-07T08:14:42.000Z</time>
      </trkpt>
      <trkpt lat="39.9066696502268314361572265625" lon="-0.55886305868625640869140625">
        <ele>454.600006103515625</ele>
        <time>2022-05-07T08:14:48.000Z</time>
      </trkpt>
      <trkpt lat="39.90640922449529170989990234375" lon="-0.5589282698929309844970703125">
        <ele>455.600006103515625</ele>
        <time>2022-05-07T08:14:55.000Z</time>
      </trkpt>
      <trkpt lat="39.9063762836158275604248046875" lon="-0.558946542441844940185546875">
        <ele>455.399993896484375</ele>
        <time>2022-05-07T08:14:56.000Z</time>
      </trkpt>
      <trkpt lat="39.906205125153064727783203125" lon="-0.55906766094267368316650390625">
        <ele>455</ele>
        <time>2022-05-07T08:15:01.000Z</time>
      </trkpt>
      <trkpt lat="39.906170926988124847412109375" lon="-0.559090040624141693115234375">
        <ele>455</ele>
        <time>2022-05-07T08:15:02.000Z</time>
      </trkpt>
      <trkpt lat="39.90601125173270702362060546875" lon="-0.55918500758707523345947265625">
        <ele>455.20001220703125</ele>
        <time>2022-05-07T08:15:07.000Z</time>
      </trkpt>
      <trkpt lat="39.90598124451935291290283203125" lon="-0.55919942446053028106689453125">
        <ele>455.20001220703125</ele>
        <time>2022-05-07T08:15:08.000Z</time>
      </trkpt>
      <trkpt lat="39.9057660810649394989013671875" lon="-0.55929413996636867523193359375">
        <ele>456</ele>
        <time>2022-05-07T08:15:15.000Z</time>
      </trkpt>
      <trkpt lat="39.905732385814189910888671875" lon="-0.55930017493665218353271484375">
        <ele>456.20001220703125</ele>
        <time>2022-05-07T08:15:16.000Z</time>
      </trkpt>
      <trkpt lat="39.9054904840886592864990234375" lon="-0.5593420006334781646728515625">
        <ele>457.399993896484375</ele>
        <time>2022-05-07T08:15:23.000Z</time>
      </trkpt>
      <trkpt lat="39.90545603446662425994873046875" lon="-0.5593679845333099365234375">
        <ele>457.20001220703125</ele>
        <time>2022-05-07T08:15:24.000Z</time>
      </trkpt>
      <trkpt lat="39.905421920120716094970703125" lon="-0.559397153556346893310546875">
        <ele>457.20001220703125</ele>
        <time>2022-05-07T08:15:25.000Z</time>
      </trkpt>
      <trkpt lat="39.905292503535747528076171875" lon="-0.55953092873096466064453125">
        <ele>456.79998779296875</ele>
        <time>2022-05-07T08:15:29.000Z</time>
      </trkpt>
      <trkpt lat="39.9049937725067138671875" lon="-0.559802167117595672607421875">
        <ele>457.20001220703125</ele>
        <time>2022-05-07T08:15:37.000Z</time>
      </trkpt>
      <trkpt lat="39.904664196074008941650390625" lon="-0.5601104535162448883056640625">
        <ele>458.399993896484375</ele>
        <time>2022-05-07T08:15:45.000Z</time>
      </trkpt>
      <trkpt lat="39.90462153218686580657958984375" lon="-0.5601510219275951385498046875">
        <ele>458.600006103515625</ele>
        <time>2022-05-07T08:15:46.000Z</time>
      </trkpt>
      <trkpt lat="39.90431156940758228302001953125" lon="-0.56043491698801517486572265625">
        <ele>457.20001220703125</ele>
        <time>2022-05-07T08:15:53.000Z</time>
      </trkpt>
      <trkpt lat="39.90422557108104228973388671875" lon="-0.560512281954288482666015625">
        <ele>456.600006103515625</ele>
        <time>2022-05-07T08:15:55.000Z</time>
      </trkpt>
      <trkpt lat="39.90406078286468982696533203125" lon="-0.56067287921905517578125">
        <ele>456.399993896484375</ele>
        <time>2022-05-07T08:15:59.000Z</time>
      </trkpt>
      <trkpt lat="39.90396958775818347930908203125" lon="-0.56074454449117183685302734375">
        <ele>456.20001220703125</ele>
        <time>2022-05-07T08:16:01.000Z</time>
      </trkpt>
      <trkpt lat="39.903776384890079498291015625" lon="-0.56086859665811061859130859375">
        <ele>456</ele>
        <time>2022-05-07T08:16:05.000Z</time>
      </trkpt>
      <trkpt lat="39.9034416116774082183837890625" lon="-0.56102491915225982666015625">
        <ele>455.600006103515625</ele>
        <time>2022-05-07T08:16:11.000Z</time>
      </trkpt>
      <trkpt lat="39.903076998889446258544921875" lon="-0.56110178120434284210205078125">
        <ele>455.20001220703125</ele>
        <time>2022-05-07T08:16:17.000Z</time>
      </trkpt>
      <trkpt lat="39.90282478742301464080810546875" lon="-0.561110079288482666015625">
        <ele>455</ele>
        <time>2022-05-07T08:16:21.000Z</time>
      </trkpt>
      <trkpt lat="39.9026805348694324493408203125" lon="-0.5610941536724567413330078125">
        <ele>454.600006103515625</ele>
        <time>2022-05-07T08:16:23.000Z</time>
      </trkpt>
      <trkpt lat="39.9025296606123447418212890625" lon="-0.5610680021345615386962890625">
        <ele>454</ele>
        <time>2022-05-07T08:16:25.000Z</time>
      </trkpt>
      <trkpt lat="39.90217435173690319061279296875" lon="-0.5609580315649509429931640625">
        <ele>452.79998779296875</ele>
        <time>2022-05-07T08:16:30.000Z</time>
      </trkpt>
      <trkpt lat="39.901826418936252593994140625" lon="-0.560741610825061798095703125">
        <ele>451</ele>
        <time>2022-05-07T08:16:35.000Z</time>
      </trkpt>
      <trkpt lat="39.90175743587315082550048828125" lon="-0.56069500744342803955078125">
        <ele>450.79998779296875</ele>
        <time>2022-05-07T08:16:36.000Z</time>
      </trkpt>
      <trkpt lat="39.9015617184340953826904296875" lon="-0.56054136715829372406005859375">
        <ele>450.399993896484375</ele>
        <time>2022-05-07T08:16:39.000Z</time>
      </trkpt>
      <trkpt lat="39.9014317989349365234375" lon="-0.56042946875095367431640625">
        <ele>450.20001220703125</ele>
        <time>2022-05-07T08:16:41.000Z</time>
      </trkpt>
      <trkpt lat="39.90105561912059783935546875" lon="-0.56011858396232128143310546875">
        <ele>449.399993896484375</ele>
        <time>2022-05-07T08:16:47.000Z</time>
      </trkpt>
      <trkpt lat="39.9008177407085895538330078125" lon="-0.55989973247051239013671875">
        <ele>448.600006103515625</ele>
        <time>2022-05-07T08:16:51.000Z</time>
      </trkpt>
      <trkpt lat="39.9006997235119342803955078125" lon="-0.55980074219405651092529296875">
        <ele>448.399993896484375</ele>
        <time>2022-05-07T08:16:53.000Z</time>
      </trkpt>
      <trkpt lat="39.9003074504435062408447265625" lon="-0.5594794638454914093017578125">
        <ele>446.399993896484375</ele>
        <time>2022-05-07T08:16:59.000Z</time>
      </trkpt>
      <trkpt lat="39.89996806718409061431884765625" lon="-0.5591934733092784881591796875">
        <ele>443.20001220703125</ele>
        <time>2022-05-07T08:17:04.000Z</time>
      </trkpt>
      <trkpt lat="39.89971862174570560455322265625" lon="-0.55896456353366374969482421875">
        <ele>441.79998779296875</ele>
        <time>2022-05-07T08:17:08.000Z</time>
      </trkpt>
      <trkpt lat="39.8994109220802783966064453125" lon="-0.5586979351937770843505859375">
        <ele>440.399993896484375</ele>
        <time>2022-05-07T08:17:13.000Z</time>
      </trkpt>
      <trkpt lat="39.89934881217777729034423828125" lon="-0.5586493201553821563720703125">
        <ele>440</ele>
        <time>2022-05-07T08:17:14.000Z</time>
      </trkpt>
      <trkpt lat="39.898925609886646270751953125" lon="-0.558290071785449981689453125">
        <ele>438.399993896484375</ele>
        <time>2022-05-07T08:17:21.000Z</time>
      </trkpt>
      <trkpt lat="39.89862285554409027099609375" lon="-0.55802579037845134735107421875">
        <ele>437.600006103515625</ele>
        <time>2022-05-07T08:17:26.000Z</time>
      </trkpt>
      <trkpt lat="39.8983950354158878326416015625" lon="-0.55781238712370395660400390625">
        <ele>437.20001220703125</ele>
        <time>2022-05-07T08:17:30.000Z</time>
      </trkpt>
      <trkpt lat="39.89812807179987430572509765625" lon="-0.55753628723323345184326171875">
        <ele>435.399993896484375</ele>
        <time>2022-05-07T08:17:35.000Z</time>
      </trkpt>
      <trkpt lat="39.8980822227895259857177734375" lon="-0.5574795417487621307373046875">
        <ele>435</ele>
        <time>2022-05-07T08:17:36.000Z</time>
      </trkpt>
      <trkpt lat="39.89789974875748157501220703125" lon="-0.55724007077515125274658203125">
        <ele>432.600006103515625</ele>
        <time>2022-05-07T08:17:40.000Z</time>
      </trkpt>
      <trkpt lat="39.8978582583367824554443359375" lon="-0.5571714229881763458251953125">
        <ele>432.600006103515625</ele>
        <time>2022-05-07T08:17:41.000Z</time>
      </trkpt>
      <trkpt lat="39.89761744625866413116455078125" lon="-0.55675542913377285003662109375">
        <ele>434.399993896484375</ele>
        <time>2022-05-07T08:17:47.000Z</time>
      </trkpt>
      <trkpt lat="39.89757821895182132720947265625" lon="-0.55668150074779987335205078125">
        <ele>434.600006103515625</ele>
        <time>2022-05-07T08:17:48.000Z</time>
      </trkpt>
      <trkpt lat="39.89753848873078823089599609375" lon="-0.55660505779087543487548828125">
        <ele>434.600006103515625</ele>
        <time>2022-05-07T08:17:49.000Z</time>
      </trkpt>
      <trkpt lat="39.897345118224620819091796875" lon="-0.5562406964600086212158203125">
        <ele>433.600006103515625</ele>
        <time>2022-05-07T08:17:54.000Z</time>
      </trkpt>
      <trkpt lat="39.8973070643842220306396484375" lon="-0.55616886354982852935791015625">
        <ele>433.20001220703125</ele>
        <time>2022-05-07T08:17:55.000Z</time>
      </trkpt>
      <trkpt lat="39.89716113545000553131103515625" lon="-0.55589142255485057830810546875">
        <ele>432.20001220703125</ele>
        <time>2022-05-07T08:17:59.000Z</time>
      </trkpt>
      <trkpt lat="39.89712492562830448150634765625" lon="-0.555821768939495086669921875">
        <ele>431.79998779296875</ele>
        <time>2022-05-07T08:18:00.000Z</time>
      </trkpt>
      <trkpt lat="39.89694773219525814056396484375" lon="-0.55547165684401988983154296875">
        <ele>430.79998779296875</ele>
        <time>2022-05-07T08:18:05.000Z</time>
      </trkpt>
      <trkpt lat="39.89690666086971759796142578125" lon="-0.55540091358125209808349609375">
        <ele>430.20001220703125</ele>
        <time>2022-05-07T08:18:06.000Z</time>
      </trkpt>
      <trkpt lat="39.89674388431012630462646484375" lon="-0.5550876818597316741943359375">
        <ele>428.600006103515625</ele>
        <time>2022-05-07T08:18:10.000Z</time>
      </trkpt>
      <trkpt lat="39.8966583050787448883056640625" lon="-0.55493152700364589691162109375">
        <ele>428</ele>
        <time>2022-05-07T08:18:12.000Z</time>
      </trkpt>
      <trkpt lat="39.8964474163949489593505859375" lon="-0.554549731314182281494140625">
        <ele>427.20001220703125</ele>
        <time>2022-05-07T08:18:17.000Z</time>
      </trkpt>
      <trkpt lat="39.896280951797962188720703125" lon="-0.55424965918064117431640625">
        <ele>426.399993896484375</ele>
        <time>2022-05-07T08:18:21.000Z</time>
      </trkpt>
      <trkpt lat="39.896077774465084075927734375" lon="-0.55386048741638660430908203125">
        <ele>426.79998779296875</ele>
        <time>2022-05-07T08:18:26.000Z</time>
      </trkpt>
      <trkpt lat="39.8959143273532390594482421875" lon="-0.55356167256832122802734375">
        <ele>427.600006103515625</ele>
        <time>2022-05-07T08:18:30.000Z</time>
      </trkpt>
      <trkpt lat="39.89556379616260528564453125" lon="-0.5529335327446460723876953125">
        <ele>430</ele>
        <time>2022-05-07T08:18:39.000Z</time>
      </trkpt>
      <trkpt lat="39.8955250717699527740478515625" lon="-0.5528658069670200347900390625">
        <ele>429.79998779296875</ele>
        <time>2022-05-07T08:18:40.000Z</time>
      </trkpt>
      <trkpt lat="39.89522994495928287506103515625" lon="-0.55232274346053600311279296875">
        <ele>433</ele>
        <time>2022-05-07T08:18:48.000Z</time>
      </trkpt>
      <trkpt lat="39.89505417644977569580078125" lon="-0.55199534632265567779541015625">
        <ele>436</ele>
        <time>2022-05-07T08:18:53.000Z</time>
      </trkpt>
      <trkpt lat="39.89488796330988407135009765625" lon="-0.551683120429515838623046875">
        <ele>439</ele>
        <time>2022-05-07T08:18:58.000Z</time>
      </trkpt>
      <trkpt lat="39.89486063830554485321044921875" lon="-0.5516271293163299560546875">
        <ele>439.20001220703125</ele>
        <time>2022-05-07T08:18:59.000Z</time>
      </trkpt>
      <trkpt lat="39.89468126557767391204833984375" lon="-0.551301576197147369384765625">
        <ele>440.79998779296875</ele>
        <time>2022-05-07T08:19:05.000Z</time>
      </trkpt>
      <trkpt lat="39.8946473188698291778564453125" lon="-0.551250278949737548828125">
        <ele>441</ele>
        <time>2022-05-07T08:19:06.000Z</time>
      </trkpt>
      <trkpt lat="39.89451748318970203399658203125" lon="-0.55104383267462253570556640625">
        <ele>444</ele>
        <time>2022-05-07T08:19:10.000Z</time>
      </trkpt>
      <trkpt lat="39.8944236896932125091552734375" lon="-0.5508715845644474029541015625">
        <ele>447</ele>
        <time>2022-05-07T08:19:13.000Z</time>
      </trkpt>
      <trkpt lat="39.8943559639155864715576171875" lon="-0.55075482465326786041259765625">
        <ele>449.20001220703125</ele>
        <time>2022-05-07T08:19:15.000Z</time>
      </trkpt>
      <trkpt lat="39.8941765911877155303955078125" lon="-0.5504337139427661895751953125">
        <ele>450.79998779296875</ele>
        <time>2022-05-07T08:19:21.000Z</time>
      </trkpt>
      <trkpt lat="39.894121773540973663330078125" lon="-0.5503264255821704864501953125">
        <ele>451</ele>
        <time>2022-05-07T08:19:23.000Z</time>
      </trkpt>
      <trkpt lat="39.8940652795135974884033203125" lon="-0.55022366344928741455078125">
        <ele>451.20001220703125</ele>
        <time>2022-05-07T08:19:25.000Z</time>
      </trkpt>
      <trkpt lat="39.89388984628021717071533203125" lon="-0.54990707896649837493896484375">
        <ele>448.20001220703125</ele>
        <time>2022-05-07T08:19:31.000Z</time>
      </trkpt>
      <trkpt lat="39.8937289975583553314208984375" lon="-0.5496102757751941680908203125">
        <ele>445.399993896484375</ele>
        <time>2022-05-07T08:19:36.000Z</time>
      </trkpt>
      <trkpt lat="39.893696643412113189697265625" lon="-0.54955520667135715484619140625">
        <ele>445.20001220703125</ele>
        <time>2022-05-07T08:19:37.000Z</time>
      </trkpt>
      <trkpt lat="39.89359748549759387969970703125" lon="-0.54939754307270050048828125">
        <ele>445</ele>
        <time>2022-05-07T08:19:40.000Z</time>
      </trkpt>
      <trkpt lat="39.893531017005443572998046875" lon="-0.54928463883697986602783203125">
        <ele>444.600006103515625</ele>
        <time>2022-05-07T08:19:42.000Z</time>
      </trkpt>
      <trkpt lat="39.8934725113213062286376953125" lon="-0.5491836369037628173828125">
        <ele>444.399993896484375</ele>
        <time>2022-05-07T08:19:44.000Z</time>
      </trkpt>
      <trkpt lat="39.89342280663549900054931640625" lon="-0.5491085350513458251953125">
        <ele>444.399993896484375</ele>
        <time>2022-05-07T08:19:46.000Z</time>
      </trkpt>
      <trkpt lat="39.8932964913547039031982421875" lon="-0.54890996776521205902099609375">
        <ele>444.399993896484375</ele>
        <time>2022-05-07T08:19:51.000Z</time>
      </trkpt>
      <trkpt lat="39.8932294361293315887451171875" lon="-0.548811145126819610595703125">
        <ele>444.399993896484375</ele>
        <time>2022-05-07T08:19:53.000Z</time>
      </trkpt>
      <trkpt lat="39.8931459523737430572509765625" lon="-0.5487160943448543548583984375">
        <ele>444.79998779296875</ele>
        <time>2022-05-07T08:19:55.000Z</time>
      </trkpt>
      <trkpt lat="39.89287144504487514495849609375" lon="-0.548459105193614959716796875">
        <ele>445</ele>
        <time>2022-05-07T08:20:01.000Z</time>
      </trkpt>
      <trkpt lat="39.89254723303020000457763671875" lon="-0.54824260063469409942626953125">
        <ele>443.20001220703125</ele>
        <time>2022-05-07T08:20:07.000Z</time>
      </trkpt>
      <trkpt lat="39.8922051675617694854736328125" lon="-0.5481027066707611083984375">
        <ele>443.20001220703125</ele>
        <time>2022-05-07T08:20:13.000Z</time>
      </trkpt>
      <trkpt lat="39.89202822558581829071044921875" lon="-0.54806255735456943511962890625">
        <ele>443.20001220703125</ele>
        <time>2022-05-07T08:20:16.000Z</time>
      </trkpt>
      <trkpt lat="39.89191372878849506378173828125" lon="-0.548046045005321502685546875">
        <ele>442.79998779296875</ele>
        <time>2022-05-07T08:20:18.000Z</time>
      </trkpt>
      <trkpt lat="39.89150226116180419921875" lon="-0.54797052405774593353271484375">
        <ele>441.399993896484375</ele>
        <time>2022-05-07T08:20:25.000Z</time>
      </trkpt>
      <trkpt lat="39.89127905108034610748291015625" lon="-0.54794437251985073089599609375">
        <ele>440.600006103515625</ele>
        <time>2022-05-07T08:20:29.000Z</time>
      </trkpt>
      <trkpt lat="39.89115231670439243316650390625" lon="-0.54791604168713092803955078125">
        <ele>440.20001220703125</ele>
        <time>2022-05-07T08:20:31.000Z</time>
      </trkpt>
      <trkpt lat="39.8909797333180904388427734375" lon="-0.54788670502603054046630859375">
        <ele>439.399993896484375</ele>
        <time>2022-05-07T08:20:34.000Z</time>
      </trkpt>
      <trkpt lat="39.890870936214923858642578125" lon="-0.54785954765975475311279296875">
        <ele>438.79998779296875</ele>
        <time>2022-05-07T08:20:36.000Z</time>
      </trkpt>
      <trkpt lat="39.89066264592111110687255859375" lon="-0.5478272773325443267822265625">
        <ele>437.79998779296875</ele>
        <time>2022-05-07T08:20:40.000Z</time>
      </trkpt>
      <trkpt lat="39.89055301062762737274169921875" lon="-0.54782467894256114959716796875">
        <ele>437.600006103515625</ele>
        <time>2022-05-07T08:20:42.000Z</time>
      </trkpt>
      <trkpt lat="39.8902102746069431304931640625" lon="-0.5477786622941493988037109375">
        <ele>437.79998779296875</ele>
        <time>2022-05-07T08:20:48.000Z</time>
      </trkpt>
      <trkpt lat="39.8897851444780826568603515625" lon="-0.5476851202547550201416015625">
        <ele>439.20001220703125</ele>
        <time>2022-05-07T08:20:55.000Z</time>
      </trkpt>
      <trkpt lat="39.88943151198327541351318359375" lon="-0.547552518546581268310546875">
        <ele>440.20001220703125</ele>
        <time>2022-05-07T08:21:01.000Z</time>
      </trkpt>
      <trkpt lat="39.8890374787151813507080078125" lon="-0.547306425869464874267578125">
        <ele>441</ele>
        <time>2022-05-07T08:21:08.000Z</time>
      </trkpt>
      <trkpt lat="39.88863673992455005645751953125" lon="-0.54692362435162067413330078125">
        <ele>442.600006103515625</ele>
        <time>2022-05-07T08:21:16.000Z</time>
      </trkpt>
      <trkpt lat="39.8883654177188873291015625" lon="-0.54651148617267608642578125">
        <ele>443.399993896484375</ele>
        <time>2022-05-07T08:21:23.000Z</time>
      </trkpt>
      <trkpt lat="39.88809342496097087860107421875" lon="-0.5460285209119319915771484375">
        <ele>442.399993896484375</ele>
        <time>2022-05-07T08:21:31.000Z</time>
      </trkpt>
      <trkpt lat="39.8879424668848514556884765625" lon="-0.5457076616585254669189453125">
        <ele>440.20001220703125</ele>
        <time>2022-05-07T08:21:36.000Z</time>
      </trkpt>
      <trkpt lat="39.88779100589454174041748046875" lon="-0.5451893247663974761962890625">
        <ele>439.399993896484375</ele>
        <time>2022-05-07T08:21:44.000Z</time>
      </trkpt>
      <trkpt lat="39.88770316354930400848388671875" lon="-0.54486620239913463592529296875">
        <ele>439.600006103515625</ele>
        <time>2022-05-07T08:21:50.000Z</time>
      </trkpt>
      <trkpt lat="39.887728728353977203369140625" lon="-0.54461910389363765716552734375">
        <ele>440.600006103515625</ele>
        <time>2022-05-07T08:21:54.000Z</time>
      </trkpt>
      <trkpt lat="39.88774306140840053558349609375" lon="-0.5445090495049953460693359375">
        <ele>440.399993896484375</ele>
        <time>2022-05-07T08:21:56.000Z</time>
      </trkpt>
      <trkpt lat="39.88777239806950092315673828125" lon="-0.5441848374903202056884765625">
        <ele>440.399993896484375</ele>
        <time>2022-05-07T08:22:00.000Z</time>
      </trkpt>
      <trkpt lat="39.88780441693961620330810546875" lon="-0.54406933486461639404296875">
        <ele>440</ele>
        <time>2022-05-07T08:22:01.000Z</time>
      </trkpt>
      <trkpt lat="39.88781129010021686553955078125" lon="-0.5439913831651210784912109375">
        <ele>440</ele>
        <time>2022-05-07T08:22:02.000Z</time>
      </trkpt>
      <trkpt lat="39.8878438957035541534423828125" lon="-0.5439256690442562103271484375">
        <ele>439.600006103515625</ele>
        <time>2022-05-07T08:22:03.000Z</time>
      </trkpt>
      <trkpt lat="39.88778404891490936279296875" lon="-0.54385886527597904205322265625">
        <ele>440.399993896484375</ele>
        <time>2022-05-07T08:22:05.000Z</time>
      </trkpt>
      <trkpt lat="39.88770970143377780914306640625" lon="-0.54382366128265857696533203125">
        <ele>441.20001220703125</ele>
        <time>2022-05-07T08:22:07.000Z</time>
      </trkpt>
      <trkpt lat="39.88752982579171657562255859375" lon="-0.543750487267971038818359375">
        <ele>442.79998779296875</ele>
        <time>2022-05-07T08:22:11.000Z</time>
      </trkpt>
      <trkpt lat="39.88723218441009521484375" lon="-0.54360556416213512420654296875">
        <ele>445.20001220703125</ele>
        <time>2022-05-07T08:22:17.000Z</time>
      </trkpt>
      <trkpt lat="39.8871870897710323333740234375" lon="-0.54357522167265415191650390625">
        <ele>445</ele>
        <time>2022-05-07T08:22:18.000Z</time>
      </trkpt>
      <trkpt lat="39.88693303428590297698974609375" lon="-0.543419905006885528564453125">
        <ele>444.399993896484375</ele>
        <time>2022-05-07T08:22:23.000Z</time>
      </trkpt>
      <trkpt lat="39.8868834972381591796875" lon="-0.54339383728802204132080078125">
        <ele>444.20001220703125</ele>
        <time>2022-05-07T08:22:24.000Z</time>
      </trkpt>
      <trkpt lat="39.88663715310394763946533203125" lon="-0.5432370118796825408935546875">
        <ele>443.399993896484375</ele>
        <time>2022-05-07T08:22:29.000Z</time>
      </trkpt>
      <trkpt lat="39.8865450359880924224853515625" lon="-0.5431783385574817657470703125">
        <ele>443</ele>
        <time>2022-05-07T08:22:31.000Z</time>
      </trkpt>
      <trkpt lat="39.88624337129294872283935546875" lon="-0.54299385286867618560791015625">
        <ele>441.79998779296875</ele>
        <time>2022-05-07T08:22:38.000Z</time>
      </trkpt>
      <trkpt lat="39.8860360868275165557861328125" lon="-0.54285295307636260986328125">
        <ele>443.20001220703125</ele>
        <time>2022-05-07T08:22:43.000Z</time>
      </trkpt>
      <trkpt lat="39.8859975300729274749755859375" lon="-0.54281808435916900634765625">
        <ele>443.399993896484375</ele>
        <time>2022-05-07T08:22:44.000Z</time>
      </trkpt>
      <trkpt lat="39.8858862183988094329833984375" lon="-0.54271540604531764984130859375">
        <ele>443.79998779296875</ele>
        <time>2022-05-07T08:22:47.000Z</time>
      </trkpt>
      <trkpt lat="39.885774068534374237060546875" lon="-0.54260409437119960784912109375">
        <ele>444.20001220703125</ele>
        <time>2022-05-07T08:22:50.000Z</time>
      </trkpt>
      <trkpt lat="39.8855328373610973358154296875" lon="-0.54236990399658679962158203125">
        <ele>445.20001220703125</ele>
        <time>2022-05-07T08:22:56.000Z</time>
      </trkpt>
      <trkpt lat="39.8854909278452396392822265625" lon="-0.54232849739491939544677734375">
        <ele>445.399993896484375</ele>
        <time>2022-05-07T08:22:57.000Z</time>
      </trkpt>
      <trkpt lat="39.8852797038853168487548828125" lon="-0.54211207665503025054931640625">
        <ele>445</ele>
        <time>2022-05-07T08:23:02.000Z</time>
      </trkpt>
      <trkpt lat="39.8848934657871723175048828125" lon="-0.5416907183825969696044921875">
        <ele>441.79998779296875</ele>
        <time>2022-05-07T08:23:11.000Z</time>
      </trkpt>
      <trkpt lat="39.88456162624061107635498046875" lon="-0.54125703871250152587890625">
        <ele>439.600006103515625</ele>
        <time>2022-05-07T08:23:20.000Z</time>
      </trkpt>
      <trkpt lat="39.88445685245096683502197265625" lon="-0.54111513309180736541748046875">
        <ele>440.399993896484375</ele>
        <time>2022-05-07T08:23:23.000Z</time>
      </trkpt>
      <trkpt lat="39.88437219522893428802490234375" lon="-0.54095185361802577972412109375">
        <ele>440.600006103515625</ele>
        <time>2022-05-07T08:23:26.000Z</time>
      </trkpt>
      <trkpt lat="39.88421796821057796478271484375" lon="-0.54060869850218296051025390625">
        <ele>441.399993896484375</ele>
        <time>2022-05-07T08:23:32.000Z</time>
      </trkpt>
      <trkpt lat="39.8840710334479808807373046875" lon="-0.54019714705646038055419921875">
        <ele>445.399993896484375</ele>
        <time>2022-05-07T08:23:39.000Z</time>
      </trkpt>
      <trkpt lat="39.884013868868350982666015625" lon="-0.5399630405008792877197265625">
        <ele>447.600006103515625</ele>
        <time>2022-05-07T08:23:43.000Z</time>
      </trkpt>
      <trkpt lat="39.88399676978588104248046875" lon="-0.5399033613502979278564453125">
        <ele>448.20001220703125</ele>
        <time>2022-05-07T08:23:44.000Z</time>
      </trkpt>
      <trkpt lat="39.88393918611109256744384765625" lon="-0.53950161673128604888916015625">
        <ele>450.399993896484375</ele>
        <time>2022-05-07T08:23:50.000Z</time>
      </trkpt>
      <trkpt lat="39.88391873426735401153564453125" lon="-0.5392911471426486968994140625">
        <ele>449.79998779296875</ele>
        <time>2022-05-07T08:23:53.000Z</time>
      </trkpt>
      <trkpt lat="39.88389409147202968597412109375" lon="-0.5390752293169498443603515625">
        <ele>449</ele>
        <time>2022-05-07T08:23:56.000Z</time>
      </trkpt>
      <trkpt lat="39.88387632183730602264404296875" lon="-0.53875797428190708160400390625">
        <ele>447.600006103515625</ele>
        <time>2022-05-07T08:24:00.000Z</time>
      </trkpt>
      <trkpt lat="39.8838614858686923980712890625" lon="-0.53849830292165279388427734375">
        <ele>446.600006103515625</ele>
        <time>2022-05-07T08:24:03.000Z</time>
      </trkpt>
      <trkpt lat="39.88384480588138103485107421875" lon="-0.53835581056773662567138671875">
        <ele>446.399993896484375</ele>
        <time>2022-05-07T08:24:05.000Z</time>
      </trkpt>
      <trkpt lat="39.8837930895388126373291015625" lon="-0.5378942191600799560546875">
        <ele>444.79998779296875</ele>
        <time>2022-05-07T08:24:11.000Z</time>
      </trkpt>
      <trkpt lat="39.8837421275675296783447265625" lon="-0.537451319396495819091796875">
        <ele>441.20001220703125</ele>
        <time>2022-05-07T08:24:17.000Z</time>
      </trkpt>
      <trkpt lat="39.883711449801921844482421875" lon="-0.53722375072538852691650390625">
        <ele>439.399993896484375</ele>
        <time>2022-05-07T08:24:20.000Z</time>
      </trkpt>
      <trkpt lat="39.8836854659020900726318359375" lon="-0.53694463334977626800537109375">
        <ele>440.399993896484375</ele>
        <time>2022-05-07T08:24:24.000Z</time>
      </trkpt>
      <trkpt lat="39.8836475796997547149658203125" lon="-0.5366216786205768585205078125">
        <ele>442.20001220703125</ele>
        <time>2022-05-07T08:24:29.000Z</time>
      </trkpt>
      <trkpt lat="39.88364313729107379913330078125" lon="-0.536551438271999359130859375">
        <ele>442.600006103515625</ele>
        <time>2022-05-07T08:24:30.000Z</time>
      </trkpt>
      <trkpt lat="39.88362167961895465850830078125" lon="-0.53634725511074066162109375">
        <ele>443.399993896484375</ele>
        <time>2022-05-07T08:24:33.000Z</time>
      </trkpt>
      <trkpt lat="39.883616901934146881103515625" lon="-0.5362793616950511932373046875">
        <ele>443.600006103515625</ele>
        <time>2022-05-07T08:24:34.000Z</time>
      </trkpt>
      <trkpt lat="39.88361815921962261199951171875" lon="-0.53606838919222354888916015625">
        <ele>444.79998779296875</ele>
        <time>2022-05-07T08:24:37.000Z</time>
      </trkpt>
      <trkpt lat="39.8836194165050983428955078125" lon="-0.5359343625605106353759765625">
        <ele>445.399993896484375</ele>
        <time>2022-05-07T08:24:39.000Z</time>
      </trkpt>
      <trkpt lat="39.8836184106767177581787109375" lon="-0.5357932113111019134521484375">
        <ele>446</ele>
        <time>2022-05-07T08:24:41.000Z</time>
      </trkpt>
      <trkpt lat="39.8836244456470012664794921875" lon="-0.53561727516353130340576171875">
        <ele>446.79998779296875</ele>
        <time>2022-05-07T08:24:44.000Z</time>
      </trkpt>
      <trkpt lat="39.88362436182796955108642578125" lon="-0.53546388633549213409423828125">
        <ele>447.600006103515625</ele>
        <time>2022-05-07T08:24:46.000Z</time>
      </trkpt>
      <trkpt lat="39.8836241103708744049072265625" lon="-0.53530798293650150299072265625">
        <ele>447.600006103515625</ele>
        <time>2022-05-07T08:24:48.000Z</time>
      </trkpt>
      <trkpt lat="39.88364129327237606048583984375" lon="-0.53506557829678058624267578125">
        <ele>447.600006103515625</ele>
        <time>2022-05-07T08:24:51.000Z</time>
      </trkpt>
      <trkpt lat="39.88364498130977153778076171875" lon="-0.5349821783602237701416015625">
        <ele>447.600006103515625</ele>
        <time>2022-05-07T08:24:52.000Z</time>
      </trkpt>
      <trkpt lat="39.88366157747805118560791015625" lon="-0.53460247814655303955078125">
        <ele>447.399993896484375</ele>
        <time>2022-05-07T08:24:57.000Z</time>
      </trkpt>
      <trkpt lat="39.88368471153080463409423828125" lon="-0.5342638492584228515625">
        <ele>446.399993896484375</ele>
        <time>2022-05-07T08:25:02.000Z</time>
      </trkpt>
      <trkpt lat="39.8836921714246273040771484375" lon="-0.5339750088751316070556640625">
        <ele>445.600006103515625</ele>
        <time>2022-05-07T08:25:07.000Z</time>
      </trkpt>
      <trkpt lat="39.88372343592345714569091796875" lon="-0.5335706658661365509033203125">
        <ele>444.399993896484375</ele>
        <time>2022-05-07T08:25:13.000Z</time>
      </trkpt>
      <trkpt lat="39.88372645340859889984130859375" lon="-0.53318048827350139617919921875">
        <ele>443.399993896484375</ele>
        <time>2022-05-07T08:25:18.000Z</time>
      </trkpt>
      <trkpt lat="39.88373047672212123870849609375" lon="-0.53310672752559185028076171875">
        <ele>443.20001220703125</ele>
        <time>2022-05-07T08:25:19.000Z</time>
      </trkpt>
      <trkpt lat="39.8837397806346416473388671875" lon="-0.53287454880774021148681640625">
        <ele>442.399993896484375</ele>
        <time>2022-05-07T08:25:22.000Z</time>
      </trkpt>
      <trkpt lat="39.8837520182132720947265625" lon="-0.53271696902811527252197265625">
        <ele>441.79998779296875</ele>
        <time>2022-05-07T08:25:24.000Z</time>
      </trkpt>
      <trkpt lat="39.88377339206635951995849609375" lon="-0.53247758187353610992431640625">
        <ele>440.79998779296875</ele>
        <time>2022-05-07T08:25:27.000Z</time>
      </trkpt>
      <trkpt lat="39.883792586624622344970703125" lon="-0.5323187448084354400634765625">
        <ele>440</ele>
        <time>2022-05-07T08:25:29.000Z</time>
      </trkpt>
      <trkpt lat="39.883820079267024993896484375" lon="-0.532162673771381378173828125">
        <ele>439.399993896484375</ele>
        <time>2022-05-07T08:25:31.000Z</time>
      </trkpt>
      <trkpt lat="39.8838423751294612884521484375" lon="-0.53201146423816680908203125">
        <ele>438.79998779296875</ele>
        <time>2022-05-07T08:25:33.000Z</time>
      </trkpt>
      <trkpt lat="39.8838577978312969207763671875" lon="-0.5319355241954326629638671875">
        <ele>438.399993896484375</ele>
        <time>2022-05-07T08:25:34.000Z</time>
      </trkpt>
      <trkpt lat="39.883987717330455780029296875" lon="-0.5314577557146549224853515625">
        <ele>435.79998779296875</ele>
        <time>2022-05-07T08:25:40.000Z</time>
      </trkpt>
      <trkpt lat="39.884182512760162353515625" lon="-0.53085149265825748443603515625">
        <ele>435</ele>
        <time>2022-05-07T08:25:48.000Z</time>
      </trkpt>
      <trkpt lat="39.88436180166900157928466796875" lon="-0.5303660966455936431884765625">
        <ele>435.600006103515625</ele>
        <time>2022-05-07T08:25:55.000Z</time>
      </trkpt>
      <trkpt lat="39.884537570178508758544921875" lon="-0.5298953689634799957275390625">
        <ele>435.399993896484375</ele>
        <time>2022-05-07T08:26:02.000Z</time>
      </trkpt>
      <trkpt lat="39.884708561003208160400390625" lon="-0.52943159826099872589111328125">
        <ele>436.600006103515625</ele>
        <time>2022-05-07T08:26:09.000Z</time>
      </trkpt>
      <trkpt lat="39.88488684408366680145263671875" lon="-0.52897579036653041839599609375">
        <ele>438.20001220703125</ele>
        <time>2022-05-07T08:26:16.000Z</time>
      </trkpt>
      <trkpt lat="39.88498373888432979583740234375" lon="-0.52872307598590850830078125">
        <ele>439.399993896484375</ele>
        <time>2022-05-07T08:26:20.000Z</time>
      </trkpt>
      <trkpt lat="39.8850269056856632232666015625" lon="-0.528596006333827972412109375">
        <ele>439.79998779296875</ele>
        <time>2022-05-07T08:26:22.000Z</time>
      </trkpt>
      <trkpt lat="39.8850916139781475067138671875" lon="-0.528399534523487091064453125">
        <ele>440.79998779296875</ele>
        <time>2022-05-07T08:26:25.000Z</time>
      </trkpt>
      <trkpt lat="39.88516260869801044464111328125" lon="-0.5282055772840976715087890625">
        <ele>441.600006103515625</ele>
        <time>2022-05-07T08:26:28.000Z</time>
      </trkpt>
      <trkpt lat="39.88531172275543212890625" lon="-0.52780735306441783905029296875">
        <ele>443</ele>
        <time>2022-05-07T08:26:34.000Z</time>
      </trkpt>
      <trkpt lat="39.88544977270066738128662109375" lon="-0.5274832248687744140625">
        <ele>443.399993896484375</ele>
        <time>2022-05-07T08:26:39.000Z</time>
      </trkpt>
      <trkpt lat="39.88554867915809154510498046875" lon="-0.5272235535085201263427734375">
        <ele>443.600006103515625</ele>
        <time>2022-05-07T08:26:43.000Z</time>
      </trkpt>
      <trkpt lat="39.8857373557984828948974609375" lon="-0.52677151747047901153564453125">
        <ele>444.600006103515625</ele>
        <time>2022-05-07T08:26:50.000Z</time>
      </trkpt>
      <trkpt lat="39.88583634607493877410888671875" lon="-0.5264909751713275909423828125">
        <ele>444.399993896484375</ele>
        <time>2022-05-07T08:26:55.000Z</time>
      </trkpt>
      <trkpt lat="39.8859703727066516876220703125" lon="-0.52610683254897594451904296875">
        <ele>445.79998779296875</ele>
        <time>2022-05-07T08:27:01.000Z</time>
      </trkpt>
      <trkpt lat="39.88608595915138721466064453125" lon="-0.525860488414764404296875">
        <ele>447</ele>
        <time>2022-05-07T08:27:05.000Z</time>
      </trkpt>
      <trkpt lat="39.88616558723151683807373046875" lon="-0.5257007293403148651123046875">
        <ele>447.79998779296875</ele>
        <time>2022-05-07T08:27:08.000Z</time>
      </trkpt>
      <trkpt lat="39.88661284558475017547607421875" lon="-0.5243544280529022216796875">
        <ele>453</ele>
        <time>2022-05-07T08:27:25.000Z</time>
      </trkpt>
      <trkpt lat="39.88660295493900775909423828125" lon="-0.52423750050365924835205078125">
        <ele>452.399993896484375</ele>
        <time>2022-05-07T08:27:26.000Z</time>
      </trkpt>
      <trkpt lat="39.88658065907657146453857421875" lon="-0.52415887825191020965576171875">
        <ele>453.600006103515625</ele>
        <time>2022-05-07T08:27:27.000Z</time>
      </trkpt>
      <trkpt lat="39.8865933157503604888916015625" lon="-0.52400582469999790191650390625">
        <ele>454.20001220703125</ele>
        <time>2022-05-07T08:27:29.000Z</time>
      </trkpt>
      <trkpt lat="39.88659440539777278900146484375" lon="-0.52393508143723011016845703125">
        <ele>454.600006103515625</ele>
        <time>2022-05-07T08:27:30.000Z</time>
      </trkpt>
      <trkpt lat="39.88659205846488475799560546875" lon="-0.52386668510735034942626953125">
        <ele>455</ele>
        <time>2022-05-07T08:27:31.000Z</time>
      </trkpt>
      <trkpt lat="39.88657680340111255645751953125" lon="-0.5236347578465938568115234375">
        <ele>452.399993896484375</ele>
        <time>2022-05-07T08:27:34.000Z</time>
      </trkpt>
      <trkpt lat="39.8865629732608795166015625" lon="-0.5234892480075359344482421875">
        <ele>450.600006103515625</ele>
        <time>2022-05-07T08:27:36.000Z</time>
      </trkpt>
      <trkpt lat="39.886516034603118896484375" lon="-0.5231878347694873809814453125">
        <ele>448.600006103515625</ele>
        <time>2022-05-07T08:27:40.000Z</time>
      </trkpt>
      <trkpt lat="39.88648124970495700836181640625" lon="-0.5229819752275943756103515625">
        <ele>447.399993896484375</ele>
        <time>2022-05-07T08:27:43.000Z</time>
      </trkpt>
      <trkpt lat="39.88644487224519252777099609375" lon="-0.522695146501064300537109375">
        <ele>445.399993896484375</ele>
        <time>2022-05-07T08:27:47.000Z</time>
      </trkpt>
      <trkpt lat="39.88635485060513019561767578125" lon="-0.52209156565368175506591796875">
        <ele>441.79998779296875</ele>
        <time>2022-05-07T08:27:55.000Z</time>
      </trkpt>
      <trkpt lat="39.8862664215266704559326171875" lon="-0.52151690237224102020263671875">
        <ele>446.20001220703125</ele>
        <time>2022-05-07T08:28:03.000Z</time>
      </trkpt>
      <trkpt lat="39.8862178064882755279541015625" lon="-0.52129779942333698272705078125">
        <ele>447.399993896484375</ele>
        <time>2022-05-07T08:28:06.000Z</time>
      </trkpt>
      <trkpt lat="39.88613407127559185028076171875" lon="-0.5210330151021480560302734375">
        <ele>442.79998779296875</ele>
        <time>2022-05-07T08:28:10.000Z</time>
      </trkpt>
      <trkpt lat="39.8861061595380306243896484375" lon="-0.5209673009812831878662109375">
        <ele>441.79998779296875</ele>
        <time>2022-05-07T08:28:11.000Z</time>
      </trkpt>
      <trkpt lat="39.8859609849750995635986328125" lon="-0.52070134319365024566650390625">
        <ele>438.20001220703125</ele>
        <time>2022-05-07T08:28:15.000Z</time>
      </trkpt>
      <trkpt lat="39.88570055924355983734130859375" lon="-0.52035885863006114959716796875">
        <ele>438.79998779296875</ele>
        <time>2022-05-07T08:28:21.000Z</time>
      </trkpt>
      <trkpt lat="39.88543669693171977996826171875" lon="-0.5200369097292423248291015625">
        <ele>444</ele>
        <time>2022-05-07T08:28:27.000Z</time>
      </trkpt>
      <trkpt lat="39.88514919765293598175048828125" lon="-0.51966668106615543365478515625">
        <ele>453.20001220703125</ele>
        <time>2022-05-07T08:28:34.000Z</time>
      </trkpt>
      <trkpt lat="39.88488147966563701629638671875" lon="-0.519296787679195404052734375">
        <ele>461.399993896484375</ele>
        <time>2022-05-07T08:28:41.000Z</time>
      </trkpt>
      <trkpt lat="39.883489497005939483642578125" lon="-0.5182156898081302642822265625">
        <ele>444.600006103515625</ele>
        <time>2022-05-07T08:29:10.000Z</time>
      </trkpt>
      <trkpt lat="39.88343752920627593994140625" lon="-0.51819230429828166961669921875">
        <ele>444</ele>
        <time>2022-05-07T08:29:11.000Z</time>
      </trkpt>
      <trkpt lat="39.8833307437598705291748046875" lon="-0.518146455287933349609375">
        <ele>442.399993896484375</ele>
        <time>2022-05-07T08:29:13.000Z</time>
      </trkpt>
      <trkpt lat="39.8831181786954402923583984375" lon="-0.518071018159389495849609375">
        <ele>440.20001220703125</ele>
        <time>2022-05-07T08:29:17.000Z</time>
      </trkpt>
      <trkpt lat="39.8825974948704242706298828125" lon="-0.51786306314170360565185546875">
        <ele>438.20001220703125</ele>
        <time>2022-05-07T08:29:26.000Z</time>
      </trkpt>
      <trkpt lat="39.8822451196610927581787109375" lon="-0.5177208222448825836181640625">
        <ele>437.399993896484375</ele>
        <time>2022-05-07T08:29:32.000Z</time>
      </trkpt>
      <trkpt lat="39.88178771920502185821533203125" lon="-0.51753633655607700347900390625">
        <ele>436.399993896484375</ele>
        <time>2022-05-07T08:29:40.000Z</time>
      </trkpt>
      <trkpt lat="39.88139444030821323394775390625" lon="-0.51738244481384754180908203125">
        <ele>439</ele>
        <time>2022-05-07T08:29:47.000Z</time>
      </trkpt>
      <trkpt lat="39.8812862299382686614990234375" lon="-0.51733617670834064483642578125">
        <ele>439.79998779296875</ele>
        <time>2022-05-07T08:29:49.000Z</time>
      </trkpt>
      <trkpt lat="39.88099143840372562408447265625" lon="-0.517216734588146209716796875">
        <ele>443.79998779296875</ele>
        <time>2022-05-07T08:29:54.000Z</time>
      </trkpt>
      <trkpt lat="39.88061391748487949371337890625" lon="-0.51705814898014068603515625">
        <ele>449.79998779296875</ele>
        <time>2022-05-07T08:30:01.000Z</time>
      </trkpt>
      <trkpt lat="39.88018208183348178863525390625" lon="-0.51689327694475650787353515625">
        <ele>450.20001220703125</ele>
        <time>2022-05-07T08:30:09.000Z</time>
      </trkpt>
      <trkpt lat="39.87979399971663951873779296875" lon="-0.5167485214769840240478515625">
        <ele>446.20001220703125</ele>
        <time>2022-05-07T08:30:16.000Z</time>
      </trkpt>
      <trkpt lat="39.87945503555238246917724609375" lon="-0.51660343073308467864990234375">
        <ele>440.600006103515625</ele>
        <time>2022-05-07T08:30:22.000Z</time>
      </trkpt>
      <trkpt lat="39.87939368002116680145263671875" lon="-0.5165805481374263763427734375">
        <ele>440.20001220703125</ele>
        <time>2022-05-07T08:30:23.000Z</time>
      </trkpt>
      <trkpt lat="39.87910249270498752593994140625" lon="-0.51643562503159046173095703125">
        <ele>440.600006103515625</ele>
        <time>2022-05-07T08:30:28.000Z</time>
      </trkpt>
      <trkpt lat="39.8786791227757930755615234375" lon="-0.5161473713815212249755859375">
        <ele>443.600006103515625</ele>
        <time>2022-05-07T08:30:36.000Z</time>
      </trkpt>
      <trkpt lat="39.87844803370535373687744140625" lon="-0.515893734991550445556640625">
        <ele>449.600006103515625</ele>
        <time>2022-05-07T08:30:41.000Z</time>
      </trkpt>
      <trkpt lat="39.87840578891336917877197265625" lon="-0.515846125781536102294921875">
        <ele>450.79998779296875</ele>
        <time>2022-05-07T08:30:42.000Z</time>
      </trkpt>
      <trkpt lat="39.8781864345073699951171875" lon="-0.51554345525801181793212890625">
        <ele>454.600006103515625</ele>
        <time>2022-05-07T08:30:48.000Z</time>
      </trkpt>
      <trkpt lat="39.87788795493543148040771484375" lon="-0.5151665210723876953125">
        <ele>458.399993896484375</ele>
        <time>2022-05-07T08:30:56.000Z</time>
      </trkpt>
      <trkpt lat="39.87771729938685894012451171875" lon="-0.51495085470378398895263671875">
        <ele>460.20001220703125</ele>
        <time>2022-05-07T08:31:01.000Z</time>
      </trkpt>
      <trkpt lat="39.8776836879551410675048828125" lon="-0.514910034835338592529296875">
        <ele>460.600006103515625</ele>
        <time>2022-05-07T08:31:02.000Z</time>
      </trkpt>
      <trkpt lat="39.8775398544967174530029296875" lon="-0.51473535597324371337890625">
        <ele>457.600006103515625</ele>
        <time>2022-05-07T08:31:06.000Z</time>
      </trkpt>
      <trkpt lat="39.8774275369942188262939453125" lon="-0.51462010480463504791259765625">
        <ele>456.20001220703125</ele>
        <time>2022-05-07T08:31:09.000Z</time>
      </trkpt>
      <trkpt lat="39.87735654227435588836669921875" lon="-0.51455623470246791839599609375">
        <ele>455.79998779296875</ele>
        <time>2022-05-07T08:31:11.000Z</time>
      </trkpt>
      <trkpt lat="39.8773185722529888153076171875" lon="-0.5145227909088134765625">
        <ele>455.600006103515625</ele>
        <time>2022-05-07T08:31:12.000Z</time>
      </trkpt>
      <trkpt lat="39.87717599608004093170166015625" lon="-0.5144411511719226837158203125">
        <ele>455.399993896484375</ele>
        <time>2022-05-07T08:31:15.000Z</time>
      </trkpt>
      <trkpt lat="39.87708337604999542236328125" lon="-0.51439764909446239471435546875">
        <ele>455.20001220703125</ele>
        <time>2022-05-07T08:31:17.000Z</time>
      </trkpt>
      <trkpt lat="39.87694121897220611572265625" lon="-0.51433294080197811126708984375">
        <ele>455.600006103515625</ele>
        <time>2022-05-07T08:31:20.000Z</time>
      </trkpt>
      <trkpt lat="39.87689536996185779571533203125" lon="-0.51431567408144474029541015625">
        <ele>455.79998779296875</ele>
        <time>2022-05-07T08:31:21.000Z</time>
      </trkpt>
      <trkpt lat="39.87652757205069065093994140625" lon="-0.51418407820165157318115234375">
        <ele>456.399993896484375</ele>
        <time>2022-05-07T08:31:29.000Z</time>
      </trkpt>
      <trkpt lat="39.87618726678192615509033203125" lon="-0.5140394903719425201416015625">
        <ele>454.600006103515625</ele>
        <time>2022-05-07T08:31:36.000Z</time>
      </trkpt>
      <trkpt lat="39.8761343769729137420654296875" lon="-0.51401275210082530975341796875">
        <ele>454.600006103515625</ele>
        <time>2022-05-07T08:31:37.000Z</time>
      </trkpt>
      <trkpt lat="39.875926673412322998046875" lon="-0.51393077708780765533447265625">
        <ele>455.600006103515625</ele>
        <time>2022-05-07T08:31:41.000Z</time>
      </trkpt>
      <trkpt lat="39.8756401799619197845458984375" lon="-0.51383404992520809173583984375">
        <ele>457.600006103515625</ele>
        <time>2022-05-07T08:31:47.000Z</time>
      </trkpt>
      <trkpt lat="39.87537874840199947357177734375" lon="-0.513621233403682708740234375">
        <ele>456.79998779296875</ele>
        <time>2022-05-07T08:31:53.000Z</time>
      </trkpt>
      <trkpt lat="39.875129722058773040771484375" lon="-0.51335561089217662811279296875">
        <ele>454.79998779296875</ele>
        <time>2022-05-07T08:31:59.000Z</time>
      </trkpt>
      <trkpt lat="39.87491807900369167327880859375" lon="-0.5130515992641448974609375">
        <ele>447.600006103515625</ele>
        <time>2022-05-07T08:32:05.000Z</time>
      </trkpt>
      <trkpt lat="39.87464390695095062255859375" lon="-0.51257156766951084136962890625">
        <ele>442.600006103515625</ele>
        <time>2022-05-07T08:32:13.000Z</time>
      </trkpt>
      <trkpt lat="39.8746125586330890655517578125" lon="-0.5125183425843715667724609375">
        <ele>442.399993896484375</ele>
        <time>2022-05-07T08:32:14.000Z</time>
      </trkpt>
      <trkpt lat="39.874423630535602569580078125" lon="-0.51221072673797607421875">
        <ele>440.20001220703125</ele>
        <time>2022-05-07T08:32:20.000Z</time>
      </trkpt>
      <trkpt lat="39.87429161556065082550048828125" lon="-0.511989109218120574951171875">
        <ele>440.399993896484375</ele>
        <time>2022-05-07T08:32:25.000Z</time>
      </trkpt>
      <trkpt lat="39.87409271299839019775390625" lon="-0.51169146783649921417236328125">
        <ele>441.79998779296875</ele>
        <time>2022-05-07T08:32:32.000Z</time>
      </trkpt>
      <trkpt lat="39.873906634747982025146484375" lon="-0.51139491610229015350341796875">
        <ele>446</ele>
        <time>2022-05-07T08:32:38.000Z</time>
      </trkpt>
      <trkpt lat="39.87384351901710033416748046875" lon="-0.51130606792867183685302734375">
        <ele>447.399993896484375</ele>
        <time>2022-05-07T08:32:40.000Z</time>
      </trkpt>
      <trkpt lat="39.87374310381710529327392578125" lon="-0.511171706020832061767578125">
        <ele>449.600006103515625</ele>
        <time>2022-05-07T08:32:43.000Z</time>
      </trkpt>
      <trkpt lat="39.87358502112329006195068359375" lon="-0.51097330637276172637939453125">
        <ele>449</ele>
        <time>2022-05-07T08:32:48.000Z</time>
      </trkpt>
      <trkpt lat="39.87339961342513561248779296875" lon="-0.51076979376375675201416015625">
        <ele>447.79998779296875</ele>
        <time>2022-05-07T08:32:53.000Z</time>
      </trkpt>
      <trkpt lat="39.87332736141979694366455078125" lon="-0.51069997251033782958984375">
        <ele>447.20001220703125</ele>
        <time>2022-05-07T08:32:55.000Z</time>
      </trkpt>
      <trkpt lat="39.87325058318674564361572265625" lon="-0.5106394551694393157958984375">
        <ele>446.600006103515625</ele>
        <time>2022-05-07T08:32:57.000Z</time>
      </trkpt>
      <trkpt lat="39.8732094280421733856201171875" lon="-0.510613135993480682373046875">
        <ele>446.399993896484375</ele>
        <time>2022-05-07T08:32:58.000Z</time>
      </trkpt>
      <trkpt lat="39.87297917716205120086669921875" lon="-0.5105194263160228729248046875">
        <ele>445.20001220703125</ele>
        <time>2022-05-07T08:33:04.000Z</time>
      </trkpt>
      <trkpt lat="39.87278589047491550445556640625" lon="-0.5104453302919864654541015625">
        <ele>442.79998779296875</ele>
        <time>2022-05-07T08:33:09.000Z</time>
      </trkpt>
      <trkpt lat="39.8725422285497188568115234375" lon="-0.51039193756878376007080078125">
        <ele>439</ele>
        <time>2022-05-07T08:33:14.000Z</time>
      </trkpt>
      <trkpt lat="39.87229202874004840850830078125" lon="-0.51033158786594867706298828125">
        <ele>435.20001220703125</ele>
        <time>2022-05-07T08:33:19.000Z</time>
      </trkpt>
      <trkpt lat="39.8719658888876438140869140625" lon="-0.510417334735393524169921875">
        <ele>433.20001220703125</ele>
        <time>2022-05-07T08:33:26.000Z</time>
      </trkpt>
      <trkpt lat="39.8716165311634540557861328125" lon="-0.5105569772422313690185546875">
        <ele>431.600006103515625</ele>
        <time>2022-05-07T08:33:33.000Z</time>
      </trkpt>
      <trkpt lat="39.87130765803158283233642578125" lon="-0.51076090894639492034912109375">
        <ele>430</ele>
        <time>2022-05-07T08:33:39.000Z</time>
      </trkpt>
      <trkpt lat="39.87098160199820995330810546875" lon="-0.51098118536174297332763671875">
        <ele>429.79998779296875</ele>
        <time>2022-05-07T08:33:45.000Z</time>
      </trkpt>
      <trkpt lat="39.8708749003708362579345703125" lon="-0.51105402410030364990234375">
        <ele>429.79998779296875</ele>
        <time>2022-05-07T08:33:47.000Z</time>
      </trkpt>
      <trkpt lat="39.8704732395708560943603515625" lon="-0.5113542638719081878662109375">
        <ele>430.20001220703125</ele>
        <time>2022-05-07T08:33:55.000Z</time>
      </trkpt>
      <trkpt lat="39.87006328068673610687255859375" lon="-0.51162558607757091522216796875">
        <ele>430.20001220703125</ele>
        <time>2022-05-07T08:34:03.000Z</time>
      </trkpt>
      <trkpt lat="39.86996169202029705047607421875" lon="-0.51169364713132381439208984375">
        <ele>430.20001220703125</ele>
        <time>2022-05-07T08:34:05.000Z</time>
      </trkpt>
      <trkpt lat="39.8696702532470226287841796875" lon="-0.5118883587419986724853515625">
        <ele>430.20001220703125</ele>
        <time>2022-05-07T08:34:11.000Z</time>
      </trkpt>
      <trkpt lat="39.8692788183689117431640625" lon="-0.51208198070526123046875">
        <ele>429.600006103515625</ele>
        <time>2022-05-07T08:34:19.000Z</time>
      </trkpt>
      <trkpt lat="39.86899517476558685302734375" lon="-0.512166135013103485107421875">
        <ele>429</ele>
        <time>2022-05-07T08:34:26.000Z</time>
      </trkpt>
      <trkpt lat="39.86881320364773273468017578125" lon="-0.5121914483606815338134765625">
        <ele>428.399993896484375</ele>
        <time>2022-05-07T08:34:32.000Z</time>
      </trkpt>
      <trkpt lat="39.8686164803802967071533203125" lon="-0.51223109476268291473388671875">
        <ele>427.79998779296875</ele>
        <time>2022-05-07T08:34:37.000Z</time>
      </trkpt>
      <trkpt lat="39.86856870353221893310546875" lon="-0.51223495043814182281494140625">
        <ele>427.79998779296875</ele>
        <time>2022-05-07T08:34:38.000Z</time>
      </trkpt>
      <trkpt lat="39.86841623671352863311767578125" lon="-0.51224450580775737762451171875">
        <ele>427.399993896484375</ele>
        <time>2022-05-07T08:34:41.000Z</time>
      </trkpt>
      <trkpt lat="39.8682014085352420806884765625" lon="-0.512260012328624725341796875">
        <ele>427</ele>
        <time>2022-05-07T08:34:45.000Z</time>
      </trkpt>
      <trkpt lat="39.867737554013729095458984375" lon="-0.51229010336101055145263671875">
        <ele>426.79998779296875</ele>
        <time>2022-05-07T08:34:54.000Z</time>
      </trkpt>
      <trkpt lat="39.86743069253861904144287109375" lon="-0.512310303747653961181640625">
        <ele>428</ele>
        <time>2022-05-07T08:35:00.000Z</time>
      </trkpt>
      <trkpt lat="39.86704051494598388671875" lon="-0.51230954937636852264404296875">
        <ele>429.399993896484375</ele>
        <time>2022-05-07T08:35:07.000Z</time>
      </trkpt>
      <trkpt lat="39.86671839840710163116455078125" lon="-0.512321032583713531494140625">
        <ele>430.20001220703125</ele>
        <time>2022-05-07T08:35:13.000Z</time>
      </trkpt>
      <trkpt lat="39.86660608090460300445556640625" lon="-0.512326397001743316650390625">
        <ele>430.399993896484375</ele>
        <time>2022-05-07T08:35:15.000Z</time>
      </trkpt>
      <trkpt lat="39.86623786389827728271484375" lon="-0.5123542249202728271484375">
        <ele>431.399993896484375</ele>
        <time>2022-05-07T08:35:21.000Z</time>
      </trkpt>
      <trkpt lat="39.866110123693943023681640625" lon="-0.51236185245215892791748046875">
        <ele>431.399993896484375</ele>
        <time>2022-05-07T08:35:23.000Z</time>
      </trkpt>
      <trkpt lat="39.86588858999311923980712890625" lon="-0.51237341947853565216064453125">
        <ele>431</ele>
        <time>2022-05-07T08:35:27.000Z</time>
      </trkpt>
      <trkpt lat="39.86583377234637737274169921875" lon="-0.5123758502304553985595703125">
        <ele>430.79998779296875</ele>
        <time>2022-05-07T08:35:28.000Z</time>
      </trkpt>
      <trkpt lat="39.86560125835239887237548828125" lon="-0.51239672116935253143310546875">
        <ele>430.399993896484375</ele>
        <time>2022-05-07T08:35:32.000Z</time>
      </trkpt>
      <trkpt lat="39.865416102111339569091796875" lon="-0.51241650246083736419677734375">
        <ele>430</ele>
        <time>2022-05-07T08:35:35.000Z</time>
      </trkpt>
      <trkpt lat="39.86482107080519199371337890625" lon="-0.5124640278518199920654296875">
        <ele>430.79998779296875</ele>
        <time>2022-05-07T08:35:46.000Z</time>
      </trkpt>
      <trkpt lat="39.86475937999784946441650390625" lon="-0.5124734155833721160888671875">
        <ele>430.79998779296875</ele>
        <time>2022-05-07T08:35:47.000Z</time>
      </trkpt>
      <trkpt lat="39.8644642531871795654296875" lon="-0.51252312026917934417724609375">
        <ele>431.399993896484375</ele>
        <time>2022-05-07T08:35:52.000Z</time>
      </trkpt>
      <trkpt lat="39.8641774244606494903564453125" lon="-0.5125454999506473541259765625">
        <ele>432.600006103515625</ele>
        <time>2022-05-07T08:35:57.000Z</time>
      </trkpt>
      <trkpt lat="39.86412319354712963104248046875" lon="-0.512546338140964508056640625">
        <ele>432.79998779296875</ele>
        <time>2022-05-07T08:35:58.000Z</time>
      </trkpt>
      <trkpt lat="39.863862097263336181640625" lon="-0.5125505290925502777099609375">
        <ele>433.399993896484375</ele>
        <time>2022-05-07T08:36:03.000Z</time>
      </trkpt>
      <trkpt lat="39.86370644532144069671630859375" lon="-0.5125461705029010772705078125">
        <ele>433.600006103515625</ele>
        <time>2022-05-07T08:36:06.000Z</time>
      </trkpt>
      <trkpt lat="39.86350595019757747650146484375" lon="-0.51253460347652435302734375">
        <ele>433.20001220703125</ele>
        <time>2022-05-07T08:36:10.000Z</time>
      </trkpt>
      <trkpt lat="39.86321325413882732391357421875" lon="-0.512519516050815582275390625">
        <ele>432.399993896484375</ele>
        <time>2022-05-07T08:36:16.000Z</time>
      </trkpt>
      <trkpt lat="39.8628084920346736907958984375" lon="-0.5124653689563274383544921875">
        <ele>431.399993896484375</ele>
        <time>2022-05-07T08:36:23.000Z</time>
      </trkpt>
      <trkpt lat="39.8623077571392059326171875" lon="-0.5123327672481536865234375">
        <ele>429.20001220703125</ele>
        <time>2022-05-07T08:36:31.000Z</time>
      </trkpt>
      <trkpt lat="39.86224816180765628814697265625" lon="-0.51233402453362941741943359375">
        <ele>429</ele>
        <time>2022-05-07T08:36:32.000Z</time>
      </trkpt>
      <trkpt lat="39.86219233833253383636474609375" lon="-0.5123439989984035491943359375">
        <ele>429</ele>
        <time>2022-05-07T08:36:33.000Z</time>
      </trkpt>
      <trkpt lat="39.86209091730415821075439453125" lon="-0.51236000843346118927001953125">
        <ele>428.79998779296875</ele>
        <time>2022-05-07T08:36:35.000Z</time>
      </trkpt>
      <trkpt lat="39.861995615065097808837890625" lon="-0.51236721687018871307373046875">
        <ele>428.20001220703125</ele>
        <time>2022-05-07T08:36:37.000Z</time>
      </trkpt>
      <trkpt lat="39.86195077188313007354736328125" lon="-0.51236973144114017486572265625">
        <ele>428</ele>
        <time>2022-05-07T08:36:38.000Z</time>
      </trkpt>
      <trkpt lat="39.86162203364074230194091796875" lon="-0.51235380582511425018310546875">
        <ele>425.79998779296875</ele>
        <time>2022-05-07T08:36:46.000Z</time>
      </trkpt>
      <trkpt lat="39.86137392930686473846435546875" lon="-0.512627474963665008544921875">
        <ele>425</ele>
        <time>2022-05-07T08:36:52.000Z</time>
      </trkpt>
      <trkpt lat="39.8612273298203945159912109375" lon="-0.51287583075463771820068359375">
        <ele>424.79998779296875</ele>
        <time>2022-05-07T08:36:55.000Z</time>
      </trkpt>
      <trkpt lat="39.86119053326547145843505859375" lon="-0.51293768920004367828369140625">
        <ele>424.79998779296875</ele>
        <time>2022-05-07T08:36:56.000Z</time>
      </trkpt>
      <trkpt lat="39.8611210472881793975830078125" lon="-0.51304816268384456634521484375">
        <ele>424.79998779296875</ele>
        <time>2022-05-07T08:36:58.000Z</time>
      </trkpt>
      <trkpt lat="39.8610714264214038848876953125" lon="-0.51314941607415676116943359375">
        <ele>424.399993896484375</ele>
        <time>2022-05-07T08:37:00.000Z</time>
      </trkpt>
      <trkpt lat="39.86104988493025302886962890625" lon="-0.51319216378033161163330078125">
        <ele>424.20001220703125</ele>
        <time>2022-05-07T08:37:01.000Z</time>
      </trkpt>
      <trkpt lat="39.8608736135065555572509765625" lon="-0.5135285295546054840087890625">
        <ele>423</ele>
        <time>2022-05-07T08:37:09.000Z</time>
      </trkpt>
      <trkpt lat="39.8606851883232593536376953125" lon="-0.5139261670410633087158203125">
        <ele>421.79998779296875</ele>
        <time>2022-05-07T08:37:17.000Z</time>
      </trkpt>
      <trkpt lat="39.86050874926149845123291015625" lon="-0.51432053558528423309326171875">
        <ele>419.600006103515625</ele>
        <time>2022-05-07T08:37:24.000Z</time>
      </trkpt>
      <trkpt lat="39.86039844341576099395751953125" lon="-0.5145563185214996337890625">
        <ele>418.399993896484375</ele>
        <time>2022-05-07T08:37:28.000Z</time>
      </trkpt>
      <trkpt lat="39.860248826444149017333984375" lon="-0.51484943367540836334228515625">
        <ele>418.79998779296875</ele>
        <time>2022-05-07T08:37:33.000Z</time>
      </trkpt>
      <trkpt lat="39.85997800715267658233642578125" lon="-0.51526643335819244384765625">
        <ele>420.79998779296875</ele>
        <time>2022-05-07T08:37:41.000Z</time>
      </trkpt>
      <trkpt lat="39.85977566801011562347412109375" lon="-0.51552283577620983123779296875">
        <ele>422</ele>
        <time>2022-05-07T08:37:46.000Z</time>
      </trkpt>
      <trkpt lat="39.85969285480678081512451171875" lon="-0.51561939530074596405029296875">
        <ele>422.399993896484375</ele>
        <time>2022-05-07T08:37:48.000Z</time>
      </trkpt>
      <trkpt lat="39.85956947319209575653076171875" lon="-0.51575920544564723968505859375">
        <ele>422.79998779296875</ele>
        <time>2022-05-07T08:37:51.000Z</time>
      </trkpt>
      <trkpt lat="39.8594228737056255340576171875" lon="-0.51588007248938083648681640625">
        <ele>423.20001220703125</ele>
        <time>2022-05-07T08:37:54.000Z</time>
      </trkpt>
      <trkpt lat="39.8590274155139923095703125" lon="-0.5161373130977153778076171875">
        <ele>423.600006103515625</ele>
        <time>2022-05-07T08:38:01.000Z</time>
      </trkpt>
      <trkpt lat="39.85877101309597492218017578125" lon="-0.51623747684061527252197265625">
        <ele>423.600006103515625</ele>
        <time>2022-05-07T08:38:05.000Z</time>
      </trkpt>
      <trkpt lat="39.8587057180702686309814453125" lon="-0.5162586830556392669677734375">
        <ele>423.600006103515625</ele>
        <time>2022-05-07T08:38:06.000Z</time>
      </trkpt>
      <trkpt lat="39.8582343198359012603759765625" lon="-0.5163606069982051849365234375">
        <ele>419.399993896484375</ele>
        <time>2022-05-07T08:38:13.000Z</time>
      </trkpt>
      <trkpt lat="39.85781748779118061065673828125" lon="-0.5164336971938610076904296875">
        <ele>416.399993896484375</ele>
        <time>2022-05-07T08:38:19.000Z</time>
      </trkpt>
      <trkpt lat="39.8574467562139034271240234375" lon="-0.5164950527250766754150390625">
        <ele>417.20001220703125</ele>
        <time>2022-05-07T08:38:25.000Z</time>
      </trkpt>
      <trkpt lat="39.85695566050708293914794921875" lon="-0.51658566109836101531982421875">
        <ele>417.20001220703125</ele>
        <time>2022-05-07T08:38:33.000Z</time>
      </trkpt>
      <trkpt lat="39.856694899499416351318359375" lon="-0.5166355334222316741943359375">
        <ele>415.79998779296875</ele>
        <time>2022-05-07T08:38:37.000Z</time>
      </trkpt>
      <trkpt lat="39.8563706874847412109375" lon="-0.5166859924793243408203125">
        <ele>415</ele>
        <time>2022-05-07T08:38:42.000Z</time>
      </trkpt>
      <trkpt lat="39.85607136972248554229736328125" lon="-0.5167512036859989166259765625">
        <ele>414.79998779296875</ele>
        <time>2022-05-07T08:38:47.000Z</time>
      </trkpt>
      <trkpt lat="39.85594413243234157562255859375" lon="-0.5167745053768157958984375">
        <ele>415.20001220703125</ele>
        <time>2022-05-07T08:38:49.000Z</time>
      </trkpt>
      <trkpt lat="39.85543836839497089385986328125" lon="-0.5168641917407512664794921875">
        <ele>413.79998779296875</ele>
        <time>2022-05-07T08:38:57.000Z</time>
      </trkpt>
      <trkpt lat="39.85530794598162174224853515625" lon="-0.5168893374502658843994140625">
        <ele>414.20001220703125</ele>
        <time>2022-05-07T08:38:59.000Z</time>
      </trkpt>
      <trkpt lat="39.8549067042768001556396484375" lon="-0.516954548656940460205078125">
        <ele>417.20001220703125</ele>
        <time>2022-05-07T08:39:05.000Z</time>
      </trkpt>
      <trkpt lat="39.8547699116170406341552734375" lon="-0.51698036491870880126953125">
        <ele>418.20001220703125</ele>
        <time>2022-05-07T08:39:07.000Z</time>
      </trkpt>
      <trkpt lat="39.854315780103206634521484375" lon="-0.51706694997847080230712890625">
        <ele>420</ele>
        <time>2022-05-07T08:39:14.000Z</time>
      </trkpt>
      <trkpt lat="39.85413028858602046966552734375" lon="-0.51710030995309352874755859375">
        <ele>420</ele>
        <time>2022-05-07T08:39:17.000Z</time>
      </trkpt>
      <trkpt lat="39.85399249009788036346435546875" lon="-0.51711522974073886871337890625">
        <ele>420</ele>
        <time>2022-05-07T08:39:19.000Z</time>
      </trkpt>
      <trkpt lat="39.8536376841366291046142578125" lon="-0.51718178205192089080810546875">
        <ele>419.20001220703125</ele>
        <time>2022-05-07T08:39:24.000Z</time>
      </trkpt>
      <trkpt lat="39.85348806716501712799072265625" lon="-0.51720759831368923187255859375">
        <ele>418</ele>
        <time>2022-05-07T08:39:26.000Z</time>
      </trkpt>
      <trkpt lat="39.8531200177967548370361328125" lon="-0.51725705154240131378173828125">
        <ele>415</ele>
        <time>2022-05-07T08:39:31.000Z</time>
      </trkpt>
      <trkpt lat="39.85291407443583011627197265625" lon="-0.5172886513173580169677734375">
        <ele>413.399993896484375</ele>
        <time>2022-05-07T08:39:34.000Z</time>
      </trkpt>
      <trkpt lat="39.852738641202449798583984375" lon="-0.5173181556165218353271484375">
        <ele>413</ele>
        <time>2022-05-07T08:39:37.000Z</time>
      </trkpt>
      <trkpt lat="39.85244301147758960723876953125" lon="-0.51737238653004169464111328125">
        <ele>412.79998779296875</ele>
        <time>2022-05-07T08:39:43.000Z</time>
      </trkpt>
      <trkpt lat="39.85239657573401927947998046875" lon="-0.517389737069606781005859375">
        <ele>413</ele>
        <time>2022-05-07T08:39:44.000Z</time>
      </trkpt>
      <trkpt lat="39.85216825269162654876708984375" lon="-0.5174703709781169891357421875">
        <ele>413.20001220703125</ele>
        <time>2022-05-07T08:39:49.000Z</time>
      </trkpt>
      <trkpt lat="39.8520947434008121490478515625" lon="-0.5175018869340419769287109375">
        <ele>413.20001220703125</ele>
        <time>2022-05-07T08:39:51.000Z</time>
      </trkpt>
      <trkpt lat="39.85198586247861385345458984375" lon="-0.51751689054071903228759765625">
        <ele>412.79998779296875</ele>
        <time>2022-05-07T08:39:54.000Z</time>
      </trkpt>
      <trkpt lat="39.85172451473772525787353515625" lon="-0.51754874177277088165283203125">
        <ele>410.79998779296875</ele>
        <time>2022-05-07T08:40:00.000Z</time>
      </trkpt>
      <trkpt lat="39.85152184031903743743896484375" lon="-0.517577491700649261474609375">
        <ele>409.79998779296875</ele>
        <time>2022-05-07T08:40:04.000Z</time>
      </trkpt>
      <trkpt lat="39.8512987978756427764892578125" lon="-0.51760733127593994140625">
        <ele>409</ele>
        <time>2022-05-07T08:40:08.000Z</time>
      </trkpt>
      <trkpt lat="39.85092236660420894622802734375" lon="-0.5176556110382080078125">
        <ele>407.79998779296875</ele>
        <time>2022-05-07T08:40:14.000Z</time>
      </trkpt>
      <trkpt lat="39.85052104108035564422607421875" lon="-0.517618395388126373291015625">
        <ele>406.399993896484375</ele>
        <time>2022-05-07T08:40:20.000Z</time>
      </trkpt>
      <trkpt lat="39.8502426780760288238525390625" lon="-0.51756349392235279083251953125">
        <ele>405.79998779296875</ele>
        <time>2022-05-07T08:40:25.000Z</time>
      </trkpt>
      <trkpt lat="39.85002399422228336334228515625" lon="-0.5175209976732730865478515625">
        <ele>405.20001220703125</ele>
        <time>2022-05-07T08:40:30.000Z</time>
      </trkpt>
      <trkpt lat="39.849969260394573211669921875" lon="-0.517500378191471099853515625">
        <ele>405</ele>
        <time>2022-05-07T08:40:31.000Z</time>
      </trkpt>
      <trkpt lat="39.8498557694256305694580078125" lon="-0.51744665019214153289794921875">
        <ele>404.399993896484375</ele>
        <time>2022-05-07T08:40:33.000Z</time>
      </trkpt>
      <trkpt lat="39.84957790933549404144287109375" lon="-0.5172658525407314300537109375">
        <ele>402.600006103515625</ele>
        <time>2022-05-07T08:40:38.000Z</time>
      </trkpt>
      <trkpt lat="39.84952233731746673583984375" lon="-0.51722520031034946441650390625">
        <ele>402.600006103515625</ele>
        <time>2022-05-07T08:40:39.000Z</time>
      </trkpt>
      <trkpt lat="39.849213548004627227783203125" lon="-0.51699805073440074920654296875">
        <ele>405.399993896484375</ele>
        <time>2022-05-07T08:40:45.000Z</time>
      </trkpt>
      <trkpt lat="39.84916199930012226104736328125" lon="-0.51695890724658966064453125">
        <ele>405.79998779296875</ele>
        <time>2022-05-07T08:40:46.000Z</time>
      </trkpt>
      <trkpt lat="39.8487644456326961517333984375" lon="-0.516670234501361846923828125">
        <ele>408</ele>
        <time>2022-05-07T08:40:54.000Z</time>
      </trkpt>
      <trkpt lat="39.8486722446978092193603515625" lon="-0.51651542074978351593017578125">
        <ele>407.20001220703125</ele>
        <time>2022-05-07T08:40:58.000Z</time>
      </trkpt>
      <trkpt lat="39.84865657053887844085693359375" lon="-0.51647569052875041961669921875">
        <ele>407</ele>
        <time>2022-05-07T08:41:00.000Z</time>
      </trkpt>
      <trkpt lat="39.84862220473587512969970703125" lon="-0.51644048653542995452880859375">
        <ele>406.600006103515625</ele>
        <time>2022-05-07T08:41:02.000Z</time>
      </trkpt>
      <trkpt lat="39.84854777343571186065673828125" lon="-0.5163877643644809722900390625">
        <ele>407</ele>
        <time>2022-05-07T08:41:05.000Z</time>
      </trkpt>
      <trkpt lat="39.84847015701234340667724609375" lon="-0.51633336581289768218994140625">
        <ele>407.600006103515625</ele>
        <time>2022-05-07T08:41:08.000Z</time>
      </trkpt>
      <trkpt lat="39.84833654947578907012939453125" lon="-0.5162434279918670654296875">
        <ele>407.79998779296875</ele>
        <time>2022-05-07T08:41:13.000Z</time>
      </trkpt>
      <trkpt lat="39.84828424639999866485595703125" lon="-0.51625893451273441314697265625">
        <ele>408.20001220703125</ele>
        <time>2022-05-07T08:41:15.000Z</time>
      </trkpt>
      <trkpt lat="39.84811794944107532501220703125" lon="-0.5162536539137363433837890625">
        <ele>409.20001220703125</ele>
        <time>2022-05-07T08:41:19.000Z</time>
      </trkpt>
      <trkpt lat="39.8480617068707942962646484375" lon="-0.5162214674055576324462890625">
        <ele>409.399993896484375</ele>
        <time>2022-05-07T08:41:20.000Z</time>
      </trkpt>
      <trkpt lat="39.84795190393924713134765625" lon="-0.5161534063518047332763671875">
        <ele>410</ele>
        <time>2022-05-07T08:41:22.000Z</time>
      </trkpt>
      <trkpt lat="39.8477220721542835235595703125" lon="-0.51605961285531520843505859375">
        <ele>409.79998779296875</ele>
        <time>2022-05-07T08:41:26.000Z</time>
      </trkpt>
      <trkpt lat="39.84741571359336376190185546875" lon="-0.51596648991107940673828125">
        <ele>409.20001220703125</ele>
        <time>2022-05-07T08:41:32.000Z</time>
      </trkpt>
      <trkpt lat="39.8471765778958797454833984375" lon="-0.51592349074780941009521484375">
        <ele>408.600006103515625</ele>
        <time>2022-05-07T08:41:37.000Z</time>
      </trkpt>
      <trkpt lat="39.84712486155331134796142578125" lon="-0.51592214964330196380615234375">
        <ele>408.600006103515625</ele>
        <time>2022-05-07T08:41:38.000Z</time>
      </trkpt>
      <trkpt lat="39.8470736481249332427978515625" lon="-0.51592265255749225616455078125">
        <ele>408.600006103515625</ele>
        <time>2022-05-07T08:41:39.000Z</time>
      </trkpt>
      <trkpt lat="39.84691229648888111114501953125" lon="-0.51592902280390262603759765625">
        <ele>407.399993896484375</ele>
        <time>2022-05-07T08:41:42.000Z</time>
      </trkpt>
      <trkpt lat="39.846816994249820709228515625" lon="-0.51593564450740814208984375">
        <ele>406.79998779296875</ele>
        <time>2022-05-07T08:41:44.000Z</time>
      </trkpt>
      <trkpt lat="39.84676309861242771148681640625" lon="-0.51594235002994537353515625">
        <ele>406.399993896484375</ele>
        <time>2022-05-07T08:41:45.000Z</time>
      </trkpt>
      <trkpt lat="39.8465003259479999542236328125" lon="-0.516005046665668487548828125">
        <ele>404.79998779296875</ele>
        <time>2022-05-07T08:41:50.000Z</time>
      </trkpt>
      <trkpt lat="39.8464037664234638214111328125" lon="-0.51604184322059154510498046875">
        <ele>404.20001220703125</ele>
        <time>2022-05-07T08:41:52.000Z</time>
      </trkpt>
      <trkpt lat="39.846293628215789794921875" lon="-0.51607637666165828704833984375">
        <ele>403.600006103515625</ele>
        <time>2022-05-07T08:41:54.000Z</time>
      </trkpt>
      <trkpt lat="39.8462354578077793121337890625" lon="-0.5161000974476337432861328125">
        <ele>403.20001220703125</ele>
        <time>2022-05-07T08:41:55.000Z</time>
      </trkpt>
      <trkpt lat="39.8460842482745647430419921875" lon="-0.5162006802856922149658203125">
        <ele>401.600006103515625</ele>
        <time>2022-05-07T08:41:58.000Z</time>
      </trkpt>
      <trkpt lat="39.84598316252231597900390625" lon="-0.51626865752041339874267578125">
        <ele>400.600006103515625</ele>
        <time>2022-05-07T08:42:00.000Z</time>
      </trkpt>
      <trkpt lat="39.84573514200747013092041015625" lon="-0.51642020232975482940673828125">
        <ele>397.79998779296875</ele>
        <time>2022-05-07T08:42:05.000Z</time>
      </trkpt>
      <trkpt lat="39.84557211399078369140625" lon="-0.5165282450616359710693359375">
        <ele>396</ele>
        <time>2022-05-07T08:42:09.000Z</time>
      </trkpt>
      <trkpt lat="39.84553112648427486419677734375" lon="-0.51655129529535770416259765625">
        <ele>395.600006103515625</ele>
        <time>2022-05-07T08:42:10.000Z</time>
      </trkpt>
      <trkpt lat="39.8453999496996402740478515625" lon="-0.51662086509168148040771484375">
        <ele>394.20001220703125</ele>
        <time>2022-05-07T08:42:14.000Z</time>
      </trkpt>
      <trkpt lat="39.84529517590999603271484375" lon="-0.516686327755451202392578125">
        <ele>393.79998779296875</ele>
        <time>2022-05-07T08:42:17.000Z</time>
      </trkpt>
      <trkpt lat="39.8452557809650897979736328125" lon="-0.516719520092010498046875">
        <ele>393.79998779296875</ele>
        <time>2022-05-07T08:42:18.000Z</time>
      </trkpt>
      <trkpt lat="39.84503567218780517578125" lon="-0.51688120700418949127197265625">
        <ele>393.20001220703125</ele>
        <time>2022-05-07T08:42:23.000Z</time>
      </trkpt>
      <trkpt lat="39.84487867914140224456787109375" lon="-0.51697743125259876251220703125">
        <ele>392.79998779296875</ele>
        <time>2022-05-07T08:42:26.000Z</time>
      </trkpt>
      <trkpt lat="39.844716824591159820556640625" lon="-0.51706845872104167938232421875">
        <ele>392.399993896484375</ele>
        <time>2022-05-07T08:42:29.000Z</time>
      </trkpt>
      <trkpt lat="39.8444635234773159027099609375" lon="-0.517237186431884765625">
        <ele>392.79998779296875</ele>
        <time>2022-05-07T08:42:34.000Z</time>
      </trkpt>
      <trkpt lat="39.84431943856179714202880859375" lon="-0.51733039319515228271484375">
        <ele>393.79998779296875</ele>
        <time>2022-05-07T08:42:37.000Z</time>
      </trkpt>
      <trkpt lat="39.84427032060921192169189453125" lon="-0.51736350171267986297607421875">
        <ele>394</ele>
        <time>2022-05-07T08:42:38.000Z</time>
      </trkpt>
      <trkpt lat="39.843938313424587249755859375" lon="-0.51758662797510623931884765625">
        <ele>396.399993896484375</ele>
        <time>2022-05-07T08:42:45.000Z</time>
      </trkpt>
      <trkpt lat="39.8436243273317813873291015625" lon="-0.51780120469629764556884765625">
        <ele>398.399993896484375</ele>
        <time>2022-05-07T08:42:52.000Z</time>
      </trkpt>
      <trkpt lat="39.8434885405004024505615234375" lon="-0.51789055578410625457763671875">
        <ele>399</ele>
        <time>2022-05-07T08:42:55.000Z</time>
      </trkpt>
      <trkpt lat="39.843408577144145965576171875" lon="-0.51794302649796009063720703125">
        <ele>399.20001220703125</ele>
        <time>2022-05-07T08:42:57.000Z</time>
      </trkpt>
      <trkpt lat="39.84310355968773365020751953125" lon="-0.51814285106956958770751953125">
        <ele>400.399993896484375</ele>
        <time>2022-05-07T08:43:05.000Z</time>
      </trkpt>
      <trkpt lat="39.842865765094757080078125" lon="-0.51827629096806049346923828125">
        <ele>401.20001220703125</ele>
        <time>2022-05-07T08:43:11.000Z</time>
      </trkpt>
      <trkpt lat="39.8428250290453433990478515625" lon="-0.51829825155436992645263671875">
        <ele>401.399993896484375</ele>
        <time>2022-05-07T08:43:12.000Z</time>
      </trkpt>
      <trkpt lat="39.84252847731113433837890625" lon="-0.5184186995029449462890625">
        <ele>402.399993896484375</ele>
        <time>2022-05-07T08:43:19.000Z</time>
      </trkpt>
      <trkpt lat="39.842398725450038909912109375" lon="-0.51844426430761814117431640625">
        <ele>403</ele>
        <time>2022-05-07T08:43:22.000Z</time>
      </trkpt>
      <trkpt lat="39.84235958196222782135009765625" lon="-0.51845164038240909576416015625">
        <ele>403.20001220703125</ele>
        <time>2022-05-07T08:43:23.000Z</time>
      </trkpt>
      <trkpt lat="39.8422205261886119842529296875" lon="-0.5184939689934253692626953125">
        <ele>404</ele>
        <time>2022-05-07T08:43:27.000Z</time>
      </trkpt>
      <trkpt lat="39.84216042794287204742431640625" lon="-0.51850897260010242462158203125">
        <ele>404.399993896484375</ele>
        <time>2022-05-07T08:43:29.000Z</time>
      </trkpt>
      <trkpt lat="39.84211944043636322021484375" lon="-0.5185221321880817413330078125">
        <ele>404.600006103515625</ele>
        <time>2022-05-07T08:43:31.000Z</time>
      </trkpt>
      <trkpt lat="39.8421055264770984649658203125" lon="-0.51852657459676265716552734375">
        <ele>404.600006103515625</ele>
        <time>2022-05-07T08:43:32.000Z</time>
      </trkpt>
      <trkpt lat="39.842037297785282135009765625" lon="-0.5185318551957607269287109375">
        <ele>404.79998779296875</ele>
        <time>2022-05-07T08:43:35.000Z</time>
      </trkpt>
      <trkpt lat="39.8418178595602512359619140625" lon="-0.5185090564191341400146484375">
        <ele>403.399993896484375</ele>
        <time>2022-05-07T08:43:40.000Z</time>
      </trkpt>
      <trkpt lat="39.8416525684297084808349609375" lon="-0.5184805579483509063720703125">
        <ele>402.20001220703125</ele>
        <time>2022-05-07T08:43:43.000Z</time>
      </trkpt>
      <trkpt lat="39.84147110022604465484619140625" lon="-0.51845264621078968048095703125">
        <ele>400.79998779296875</ele>
        <time>2022-05-07T08:43:46.000Z</time>
      </trkpt>
      <trkpt lat="39.84140060842037200927734375" lon="-0.51844107918441295623779296875">
        <ele>400.20001220703125</ele>
        <time>2022-05-07T08:43:47.000Z</time>
      </trkpt>
      <trkpt lat="39.841251410543918609619140625" lon="-0.518415011465549468994140625">
        <ele>398.79998779296875</ele>
        <time>2022-05-07T08:43:49.000Z</time>
      </trkpt>
      <trkpt lat="39.8410923220217227935791015625" lon="-0.5183890275657176971435546875">
        <ele>397.600006103515625</ele>
        <time>2022-05-07T08:43:51.000Z</time>
      </trkpt>
      <trkpt lat="39.84101495705544948577880859375" lon="-0.5183749459683895111083984375">
        <ele>397</ele>
        <time>2022-05-07T08:43:52.000Z</time>
      </trkpt>
      <trkpt lat="39.84093918465077877044677734375" lon="-0.5183605290949344635009765625">
        <ele>396.399993896484375</ele>
        <time>2022-05-07T08:43:53.000Z</time>
      </trkpt>
      <trkpt lat="39.8407251946628093719482421875" lon="-0.51831535063683986663818359375">
        <ele>394.79998779296875</ele>
        <time>2022-05-07T08:43:56.000Z</time>
      </trkpt>
      <trkpt lat="39.840586222708225250244140625" lon="-0.5182877741754055023193359375">
        <ele>393.79998779296875</ele>
        <time>2022-05-07T08:43:58.000Z</time>
      </trkpt>
      <trkpt lat="39.840435683727264404296875" lon="-0.518256090581417083740234375">
        <ele>392.79998779296875</ele>
        <time>2022-05-07T08:44:00.000Z</time>
      </trkpt>
      <trkpt lat="39.840198643505573272705078125" lon="-0.51819699816405773162841796875">
        <ele>391.399993896484375</ele>
        <time>2022-05-07T08:44:03.000Z</time>
      </trkpt>
      <trkpt lat="39.84011759050190448760986328125" lon="-0.51817436702549457550048828125">
        <ele>391</ele>
        <time>2022-05-07T08:44:04.000Z</time>
      </trkpt>
      <trkpt lat="39.839878790080547332763671875" lon="-0.51811669953167438507080078125">
        <ele>389.399993896484375</ele>
        <time>2022-05-07T08:44:07.000Z</time>
      </trkpt>
      <trkpt lat="39.839649461209774017333984375" lon="-0.51805316470563411712646484375">
        <ele>387.79998779296875</ele>
        <time>2022-05-07T08:44:10.000Z</time>
      </trkpt>
      <trkpt lat="39.839278645813465118408203125" lon="-0.51794118247926235198974609375">
        <ele>388.20001220703125</ele>
        <time>2022-05-07T08:44:15.000Z</time>
      </trkpt>
      <trkpt lat="39.8389116860926151275634765625" lon="-0.51782526075839996337890625">
        <ele>389.399993896484375</ele>
        <time>2022-05-07T08:44:20.000Z</time>
      </trkpt>
      <trkpt lat="39.83870121650397777557373046875" lon="-0.517753846943378448486328125">
        <ele>388.20001220703125</ele>
        <time>2022-05-07T08:44:23.000Z</time>
      </trkpt>
      <trkpt lat="39.8383262939751148223876953125" lon="-0.51760355941951274871826171875">
        <ele>388.600006103515625</ele>
        <time>2022-05-07T08:44:29.000Z</time>
      </trkpt>
      <trkpt lat="39.8378433287143707275390625" lon="-0.51740272901952266693115234375">
        <ele>390.79998779296875</ele>
        <time>2022-05-07T08:44:37.000Z</time>
      </trkpt>
      <trkpt lat="39.8376738466322422027587890625" lon="-0.51732662133872509002685546875">
        <ele>392.20001220703125</ele>
        <time>2022-05-07T08:44:40.000Z</time>
      </trkpt>
      <trkpt lat="39.83744569122791290283203125" lon="-0.51723324693739414215087890625">
        <ele>394</ele>
        <time>2022-05-07T08:44:44.000Z</time>
      </trkpt>
      <trkpt lat="39.83727226965129375457763671875" lon="-0.51715328358113765716552734375">
        <ele>395.20001220703125</ele>
        <time>2022-05-07T08:44:47.000Z</time>
      </trkpt>
      <trkpt lat="39.837099350988864898681640625" lon="-0.51706125028431415557861328125">
        <ele>395.600006103515625</ele>
        <time>2022-05-07T08:44:50.000Z</time>
      </trkpt>
      <trkpt lat="39.8367401026189327239990234375" lon="-0.5168789438903331756591796875">
        <ele>389</ele>
        <time>2022-05-07T08:44:56.000Z</time>
      </trkpt>
      <trkpt lat="39.83656232245266437530517578125" lon="-0.51679537631571292877197265625">
        <ele>386</ele>
        <time>2022-05-07T08:44:59.000Z</time>
      </trkpt>
      <trkpt lat="39.8363149724900722503662109375" lon="-0.5166757665574550628662109375">
        <ele>383.600006103515625</ele>
        <time>2022-05-07T08:45:03.000Z</time>
      </trkpt>
      <trkpt lat="39.8361895792186260223388671875" lon="-0.51660954952239990234375">
        <ele>382.20001220703125</ele>
        <time>2022-05-07T08:45:05.000Z</time>
      </trkpt>
      <trkpt lat="39.8358328454196453094482421875" lon="-0.51634493283927440643310546875">
        <ele>380.399993896484375</ele>
        <time>2022-05-07T08:45:11.000Z</time>
      </trkpt>
      <trkpt lat="39.83577928505837917327880859375" lon="-0.516290701925754547119140625">
        <ele>380.20001220703125</ele>
        <time>2022-05-07T08:45:12.000Z</time>
      </trkpt>
      <trkpt lat="39.83553017489612102508544921875" lon="-0.515976212918758392333984375">
        <ele>379.399993896484375</ele>
        <time>2022-05-07T08:45:17.000Z</time>
      </trkpt>
      <trkpt lat="39.83540176413953304290771484375" lon="-0.51574948243796825408935546875">
        <ele>380</ele>
        <time>2022-05-07T08:45:20.000Z</time>
      </trkpt>
      <trkpt lat="39.83529330231249332427978515625" lon="-0.5155165493488311767578125">
        <ele>380</ele>
        <time>2022-05-07T08:45:23.000Z</time>
      </trkpt>
      <trkpt lat="39.83518618158996105194091796875" lon="-0.51520750857889652252197265625">
        <ele>381</ele>
        <time>2022-05-07T08:45:27.000Z</time>
      </trkpt>
      <trkpt lat="39.835152737796306610107421875" lon="-0.51505386829376220703125">
        <ele>381.600006103515625</ele>
        <time>2022-05-07T08:45:29.000Z</time>
      </trkpt>
      <trkpt lat="39.8350887000560760498046875" lon="-0.51460937596857547760009765625">
        <ele>380.79998779296875</ele>
        <time>2022-05-07T08:45:35.000Z</time>
      </trkpt>
      <trkpt lat="39.83508626930415630340576171875" lon="-0.51452723331749439239501953125">
        <ele>380.79998779296875</ele>
        <time>2022-05-07T08:45:36.000Z</time>
      </trkpt>
      <trkpt lat="39.83509817160665988922119140625" lon="-0.51420696079730987548828125">
        <ele>380.600006103515625</ele>
        <time>2022-05-07T08:45:40.000Z</time>
      </trkpt>
      <trkpt lat="39.83512029983103275299072265625" lon="-0.5139509774744510650634765625">
        <ele>380.20001220703125</ele>
        <time>2022-05-07T08:45:43.000Z</time>
      </trkpt>
      <trkpt lat="39.8351498879492282867431640625" lon="-0.51377973519265651702880859375">
        <ele>380</ele>
        <time>2022-05-07T08:45:45.000Z</time>
      </trkpt>
      <trkpt lat="39.83523848466575145721435546875" lon="-0.513371787965297698974609375">
        <ele>379.399993896484375</ele>
        <time>2022-05-07T08:45:50.000Z</time>
      </trkpt>
      <trkpt lat="39.83528877608478069305419921875" lon="-0.51312527619302272796630859375">
        <ele>379.20001220703125</ele>
        <time>2022-05-07T08:45:53.000Z</time>
      </trkpt>
      <trkpt lat="39.83534895814955234527587890625" lon="-0.5128884874284267425537109375">
        <ele>378.600006103515625</ele>
        <time>2022-05-07T08:45:56.000Z</time>
      </trkpt>
      <trkpt lat="39.83547736890614032745361328125" lon="-0.51241180859506130218505859375">
        <ele>377</ele>
        <time>2022-05-07T08:46:02.000Z</time>
      </trkpt>
      <trkpt lat="39.83552296645939350128173828125" lon="-0.5122621916234493255615234375">
        <ele>376.20001220703125</ele>
        <time>2022-05-07T08:46:04.000Z</time>
      </trkpt>
      <trkpt lat="39.83561097644269466400146484375" lon="-0.51197829656302928924560546875">
        <ele>375.399993896484375</ele>
        <time>2022-05-07T08:46:08.000Z</time>
      </trkpt>
      <trkpt lat="39.8356387205421924591064453125" lon="-0.5119081400334835052490234375">
        <ele>375.20001220703125</ele>
        <time>2022-05-07T08:46:09.000Z</time>
      </trkpt>
      <trkpt lat="39.83579252846539020538330078125" lon="-0.5115768872201442718505859375">
        <ele>373</ele>
        <time>2022-05-07T08:46:14.000Z</time>
      </trkpt>
      <trkpt lat="39.8360004834830760955810546875" lon="-0.5111038126051425933837890625">
        <ele>371</ele>
        <time>2022-05-07T08:46:21.000Z</time>
      </trkpt>
      <trkpt lat="39.83617574907839298248291015625" lon="-0.51070022396743297576904296875">
        <ele>370.20001220703125</ele>
        <time>2022-05-07T08:46:27.000Z</time>
      </trkpt>
      <trkpt lat="39.83632863499224185943603515625" lon="-0.51034164614975452423095703125">
        <ele>370.399993896484375</ele>
        <time>2022-05-07T08:46:33.000Z</time>
      </trkpt>
      <trkpt lat="39.8365164734423160552978515625" lon="-0.50992908887565135955810546875">
        <ele>371</ele>
        <time>2022-05-07T08:46:40.000Z</time>
      </trkpt>
      <trkpt lat="39.8366606421768665313720703125" lon="-0.50958174280822277069091796875">
        <ele>371.79998779296875</ele>
        <time>2022-05-07T08:46:46.000Z</time>
      </trkpt>
      <trkpt lat="39.83680774457752704620361328125" lon="-0.509217046201229095458984375">
        <ele>372.79998779296875</ele>
        <time>2022-05-07T08:46:52.000Z</time>
      </trkpt>
      <trkpt lat="39.83696557581424713134765625" lon="-0.50883759744465351104736328125">
        <ele>374.399993896484375</ele>
        <time>2022-05-07T08:46:58.000Z</time>
      </trkpt>
      <trkpt lat="39.83711234293878078460693359375" lon="-0.50845119170844554901123046875">
        <ele>374.399993896484375</ele>
        <time>2022-05-07T08:47:04.000Z</time>
      </trkpt>
      <trkpt lat="39.83726120553910732269287109375" lon="-0.507943667471408843994140625">
        <ele>374.79998779296875</ele>
        <time>2022-05-07T08:47:11.000Z</time>
      </trkpt>
      <trkpt lat="39.8373095691204071044921875" lon="-0.507703609764575958251953125">
        <ele>374</ele>
        <time>2022-05-07T08:47:14.000Z</time>
      </trkpt>
      <trkpt lat="39.83734150417149066925048828125" lon="-0.50745584070682525634765625">
        <ele>373.600006103515625</ele>
        <time>2022-05-07T08:47:17.000Z</time>
      </trkpt>
      <trkpt lat="39.83737335540354251861572265625" lon="-0.5070546828210353851318359375">
        <ele>372.79998779296875</ele>
        <time>2022-05-07T08:47:22.000Z</time>
      </trkpt>
      <trkpt lat="39.83737486414611339569091796875" lon="-0.50697832368314266204833984375">
        <ele>372.600006103515625</ele>
        <time>2022-05-07T08:47:23.000Z</time>
      </trkpt>
      <trkpt lat="39.83738140203058719635009765625" lon="-0.50658672116696834564208984375">
        <ele>371.79998779296875</ele>
        <time>2022-05-07T08:47:28.000Z</time>
      </trkpt>
      <trkpt lat="39.83737519942224025726318359375" lon="-0.50643215887248516082763671875">
        <ele>371.600006103515625</ele>
        <time>2022-05-07T08:47:30.000Z</time>
      </trkpt>
      <trkpt lat="39.837308228015899658203125" lon="-0.50571802072227001190185546875">
        <ele>369</ele>
        <time>2022-05-07T08:47:39.000Z</time>
      </trkpt>
      <trkpt lat="39.837191887199878692626953125" lon="-0.5051573552191257476806640625">
        <ele>367.79998779296875</ele>
        <time>2022-05-07T08:47:46.000Z</time>
      </trkpt>
      <trkpt lat="39.83716816641390323638916015625" lon="-0.50507982261478900909423828125">
        <ele>367.79998779296875</ele>
        <time>2022-05-07T08:47:47.000Z</time>
      </trkpt>
      <trkpt lat="39.837004132568836212158203125" lon="-0.50461228005588054656982421875">
        <ele>368.20001220703125</ele>
        <time>2022-05-07T08:47:53.000Z</time>
      </trkpt>
      <trkpt lat="39.836843870580196380615234375" lon="-0.5042485892772674560546875">
        <ele>368.79998779296875</ele>
        <time>2022-05-07T08:47:58.000Z</time>
      </trkpt>
      <trkpt lat="39.83674521557986736297607421875" lon="-0.504035688936710357666015625">
        <ele>368.79998779296875</ele>
        <time>2022-05-07T08:48:01.000Z</time>
      </trkpt>
      <trkpt lat="39.836676903069019317626953125" lon="-0.503890849649906158447265625">
        <ele>368.20001220703125</ele>
        <time>2022-05-07T08:48:03.000Z</time>
      </trkpt>
      <trkpt lat="39.83646777458488941192626953125" lon="-0.50344065763056278228759765625">
        <ele>366.399993896484375</ele>
        <time>2022-05-07T08:48:09.000Z</time>
      </trkpt>
      <trkpt lat="39.83635964803397655487060546875" lon="-0.503208227455615997314453125">
        <ele>364.600006103515625</ele>
        <time>2022-05-07T08:48:12.000Z</time>
      </trkpt>
      <trkpt lat="39.8361174948513507843017578125" lon="-0.5026806704699993133544921875">
        <ele>363.399993896484375</ele>
        <time>2022-05-07T08:48:19.000Z</time>
      </trkpt>
      <trkpt lat="39.8360843025147914886474609375" lon="-0.50260799936950206756591796875">
        <ele>363.600006103515625</ele>
        <time>2022-05-07T08:48:20.000Z</time>
      </trkpt>
      <trkpt lat="39.835905767977237701416015625" lon="-0.50223332829773426055908203125">
        <ele>364.399993896484375</ele>
        <time>2022-05-07T08:48:25.000Z</time>
      </trkpt>
      <trkpt lat="39.83583292923867702484130859375" lon="-0.502075664699077606201171875">
        <ele>364.600006103515625</ele>
        <time>2022-05-07T08:48:27.000Z</time>
      </trkpt>
      <trkpt lat="39.83558348380029201507568359375" lon="-0.50152371637523174285888671875">
        <ele>365.20001220703125</ele>
        <time>2022-05-07T08:48:34.000Z</time>
      </trkpt>
      <trkpt lat="39.83555096201598644256591796875" lon="-0.50144995562732219696044921875">
        <ele>365.399993896484375</ele>
        <time>2022-05-07T08:48:35.000Z</time>
      </trkpt>
      <trkpt lat="39.8353193700313568115234375" lon="-0.50094611942768096923828125">
        <ele>365.600006103515625</ele>
        <time>2022-05-07T08:48:42.000Z</time>
      </trkpt>
      <trkpt lat="39.83528458513319492340087890625" lon="-0.50087478943169116973876953125">
        <ele>365.600006103515625</ele>
        <time>2022-05-07T08:48:43.000Z</time>
      </trkpt>
      <trkpt lat="39.83509607613086700439453125" lon="-0.50045720301568508148193359375">
        <ele>365.20001220703125</ele>
        <time>2022-05-07T08:48:49.000Z</time>
      </trkpt>
      <trkpt lat="39.8350645601749420166015625" lon="-0.50039467401802539825439453125">
        <ele>365.20001220703125</ele>
        <time>2022-05-07T08:48:50.000Z</time>
      </trkpt>
      <trkpt lat="39.83499658294022083282470703125" lon="-0.5002589710056781768798828125">
        <ele>365</ele>
        <time>2022-05-07T08:48:52.000Z</time>
      </trkpt>
      <trkpt lat="39.83493170700967311859130859375" lon="-0.500121004879474639892578125">
        <ele>364.79998779296875</ele>
        <time>2022-05-07T08:48:54.000Z</time>
      </trkpt>
      <trkpt lat="39.83490337617695331573486328125" lon="-0.50005587749183177947998046875">
        <ele>364.79998779296875</ele>
        <time>2022-05-07T08:48:55.000Z</time>
      </trkpt>
      <trkpt lat="39.83479491434991359710693359375" lon="-0.49981146119534969329833984375">
        <ele>364.399993896484375</ele>
        <time>2022-05-07T08:48:59.000Z</time>
      </trkpt>
      <trkpt lat="39.8347680084407329559326171875" lon="-0.49974943511188030242919921875">
        <ele>364.20001220703125</ele>
        <time>2022-05-07T08:49:00.000Z</time>
      </trkpt>
      <trkpt lat="39.83468234539031982421875" lon="-0.49955178983509540557861328125">
        <ele>363.600006103515625</ele>
        <time>2022-05-07T08:49:03.000Z</time>
      </trkpt>
      <trkpt lat="39.83456768095493316650390625" lon="-0.49931927584111690521240234375">
        <ele>363.20001220703125</ele>
        <time>2022-05-07T08:49:06.000Z</time>
      </trkpt>
      <trkpt lat="39.83442426659166812896728515625" lon="-0.49900512211024761199951171875">
        <ele>364.399993896484375</ele>
        <time>2022-05-07T08:49:10.000Z</time>
      </trkpt>
      <trkpt lat="39.834347069263458251953125" lon="-0.49885139800608158111572265625">
        <ele>364</ele>
        <time>2022-05-07T08:49:12.000Z</time>
      </trkpt>
      <trkpt lat="39.8342409543693065643310546875" lon="-0.49859642051160335540771484375">
        <ele>363.399993896484375</ele>
        <time>2022-05-07T08:49:15.000Z</time>
      </trkpt>
      <trkpt lat="39.83416794799268245697021484375" lon="-0.49842475913465023040771484375">
        <ele>363.20001220703125</ele>
        <time>2022-05-07T08:49:17.000Z</time>
      </trkpt>
      <trkpt lat="39.8339878208935260772705078125" lon="-0.4979579709470272064208984375">
        <ele>359.600006103515625</ele>
        <time>2022-05-07T08:49:22.000Z</time>
      </trkpt>
      <trkpt lat="39.833884723484516143798828125" lon="-0.49768279306590557098388671875">
        <ele>360</ele>
        <time>2022-05-07T08:49:25.000Z</time>
      </trkpt>
      <trkpt lat="39.8337551392614841461181640625" lon="-0.49733745865523815155029296875">
        <ele>360.79998779296875</ele>
        <time>2022-05-07T08:49:29.000Z</time>
      </trkpt>
      <trkpt lat="39.8336562328040599822998046875" lon="-0.49709890969097614288330078125">
        <ele>362.600006103515625</ele>
        <time>2022-05-07T08:49:32.000Z</time>
      </trkpt>
      <trkpt lat="39.83353930525481700897216796875" lon="-0.49678559415042400360107421875">
        <ele>365</ele>
        <time>2022-05-07T08:49:36.000Z</time>
      </trkpt>
      <trkpt lat="39.83336144126951694488525390625" lon="-0.49632542766630649566650390625">
        <ele>370.20001220703125</ele>
        <time>2022-05-07T08:49:42.000Z</time>
      </trkpt>
      <trkpt lat="39.8333062045276165008544921875" lon="-0.49617505632340908050537109375">
        <ele>370</ele>
        <time>2022-05-07T08:49:44.000Z</time>
      </trkpt>
      <trkpt lat="39.83320637606084346771240234375" lon="-0.4959432967007160186767578125">
        <ele>370</ele>
        <time>2022-05-07T08:49:47.000Z</time>
      </trkpt>
      <trkpt lat="39.83318240381777286529541015625" lon="-0.49587498418986797332763671875">
        <ele>369.399993896484375</ele>
        <time>2022-05-07T08:49:48.000Z</time>
      </trkpt>
      <trkpt lat="39.833155833184719085693359375" lon="-0.4958023130893707275390625">
        <ele>368.79998779296875</ele>
        <time>2022-05-07T08:49:49.000Z</time>
      </trkpt>
      <trkpt lat="39.83308718539774417877197265625" lon="-0.49563827924430370330810546875">
        <ele>367.600006103515625</ele>
        <time>2022-05-07T08:49:51.000Z</time>
      </trkpt>
      <trkpt lat="39.83291602693498134613037109375" lon="-0.4952744208276271820068359375">
        <ele>366</ele>
        <time>2022-05-07T08:49:56.000Z</time>
      </trkpt>
      <trkpt lat="39.8328790627419948577880859375" lon="-0.49520577304065227508544921875">
        <ele>365.20001220703125</ele>
        <time>2022-05-07T08:49:57.000Z</time>
      </trkpt>
      <trkpt lat="39.83268938027322292327880859375" lon="-0.49485214054584503173828125">
        <ele>361.79998779296875</ele>
        <time>2022-05-07T08:50:03.000Z</time>
      </trkpt>
      <trkpt lat="39.832648225128650665283203125" lon="-0.494774691760540008544921875">
        <ele>361.600006103515625</ele>
        <time>2022-05-07T08:50:06.000Z</time>
      </trkpt>
      <trkpt lat="39.83262718655169010162353515625" lon="-0.49473336897790431976318359375">
        <ele>361.600006103515625</ele>
        <time>2022-05-07T08:50:10.000Z</time>
      </trkpt>
      <trkpt lat="39.8325116001069545745849609375" lon="-0.494574867188930511474609375">
        <ele>362</ele>
        <time>2022-05-07T08:50:15.000Z</time>
      </trkpt>
      <trkpt lat="39.8323634080588817596435546875" lon="-0.49433422274887561798095703125">
        <ele>362.20001220703125</ele>
        <time>2022-05-07T08:50:20.000Z</time>
      </trkpt>
      <trkpt lat="39.83215327374637126922607421875" lon="-0.49405879341065883636474609375">
        <ele>363.399993896484375</ele>
        <time>2022-05-07T08:50:26.000Z</time>
      </trkpt>
      <trkpt lat="39.83194288797676563262939453125" lon="-0.493782944977283477783203125">
        <ele>364.79998779296875</ele>
        <time>2022-05-07T08:50:32.000Z</time>
      </trkpt>
      <trkpt lat="39.83190416358411312103271484375" lon="-0.493731983006000518798828125">
        <ele>364.79998779296875</ele>
        <time>2022-05-07T08:50:33.000Z</time>
      </trkpt>
      <trkpt lat="39.8317773453891277313232421875" lon="-0.4935868084430694580078125">
        <ele>365</ele>
        <time>2022-05-07T08:50:36.000Z</time>
      </trkpt>
      <trkpt lat="39.83165471814572811126708984375" lon="-0.493424199521541595458984375">
        <ele>364.79998779296875</ele>
        <time>2022-05-07T08:50:39.000Z</time>
      </trkpt>
      <trkpt lat="39.83156972564756870269775390625" lon="-0.4933164082467555999755859375">
        <ele>363.399993896484375</ele>
        <time>2022-05-07T08:50:41.000Z</time>
      </trkpt>
      <trkpt lat="39.8313562385737895965576171875" lon="-0.493041984736919403076171875">
        <ele>359.20001220703125</ele>
        <time>2022-05-07T08:50:46.000Z</time>
      </trkpt>
      <trkpt lat="39.83118684031069278717041015625" lon="-0.49283168278634548187255859375">
        <ele>357</ele>
        <time>2022-05-07T08:50:50.000Z</time>
      </trkpt>
      <trkpt lat="39.83113772235810756683349609375" lon="-0.49277988262474536895751953125">
        <ele>356</ele>
        <time>2022-05-07T08:50:51.000Z</time>
      </trkpt>
      <trkpt lat="39.83090244233608245849609375" lon="-0.4924617893993854522705078125">
        <ele>350.20001220703125</ele>
        <time>2022-05-07T08:50:56.000Z</time>
      </trkpt>
      <trkpt lat="39.8308660648763179779052734375" lon="-0.49238174222409725189208984375">
        <ele>350.600006103515625</ele>
        <time>2022-05-07T08:50:57.000Z</time>
      </trkpt>
      <trkpt lat="39.83079305849969387054443359375" lon="-0.4922250844538211822509765625">
        <ele>351.20001220703125</ele>
        <time>2022-05-07T08:50:59.000Z</time>
      </trkpt>
      <trkpt lat="39.83069113455712795257568359375" lon="-0.49198511056602001190185546875">
        <ele>351.79998779296875</ele>
        <time>2022-05-07T08:51:02.000Z</time>
      </trkpt>
      <trkpt lat="39.8306643962860107421875" lon="-0.4919059015810489654541015625">
        <ele>351.79998779296875</ele>
        <time>2022-05-07T08:51:03.000Z</time>
      </trkpt>
      <trkpt lat="39.83058518730103969573974609375" lon="-0.4916527681052684783935546875">
        <ele>357.399993896484375</ele>
        <time>2022-05-07T08:51:06.000Z</time>
      </trkpt>
      <trkpt lat="39.83054109849035739898681640625" lon="-0.49148672260344028472900390625">
        <ele>361.20001220703125</ele>
        <time>2022-05-07T08:51:08.000Z</time>
      </trkpt>
      <trkpt lat="39.8305271007120609283447265625" lon="-0.4914016462862491607666015625">
        <ele>362.79998779296875</ele>
        <time>2022-05-07T08:51:09.000Z</time>
      </trkpt>
      <trkpt lat="39.830511175096035003662109375" lon="-0.4913174919784069061279296875">
        <ele>364.20001220703125</ele>
        <time>2022-05-07T08:51:10.000Z</time>
      </trkpt>
      <trkpt lat="39.830465577542781829833984375" lon="-0.49115060828626155853271484375">
        <ele>365.79998779296875</ele>
        <time>2022-05-07T08:51:12.000Z</time>
      </trkpt>
      <trkpt lat="39.83043280430138111114501953125" lon="-0.49099017865955829620361328125">
        <ele>368.20001220703125</ele>
        <time>2022-05-07T08:51:14.000Z</time>
      </trkpt>
      <trkpt lat="39.83035300858318805694580078125" lon="-0.49057678319513797760009765625">
        <ele>373.399993896484375</ele>
        <time>2022-05-07T08:51:19.000Z</time>
      </trkpt>
      <trkpt lat="39.830322749912738800048828125" lon="-0.4904092289507389068603515625">
        <ele>373.600006103515625</ele>
        <time>2022-05-07T08:51:21.000Z</time>
      </trkpt>
      <trkpt lat="39.830261729657649993896484375" lon="-0.4900605417788028717041015625">
        <ele>369.20001220703125</ele>
        <time>2022-05-07T08:51:25.000Z</time>
      </trkpt>
      <trkpt lat="39.83021336607635021209716796875" lon="-0.4898013733327388763427734375">
        <ele>366.600006103515625</ele>
        <time>2022-05-07T08:51:28.000Z</time>
      </trkpt>
      <trkpt lat="39.8301817663013935089111328125" lon="-0.48964203335344791412353515625">
        <ele>366.399993896484375</ele>
        <time>2022-05-07T08:51:30.000Z</time>
      </trkpt>
      <trkpt lat="39.83017128892242908477783203125" lon="-0.489565171301364898681640625">
        <ele>366</ele>
        <time>2022-05-07T08:51:31.000Z</time>
      </trkpt>
      <trkpt lat="39.8301532678306102752685546875" lon="-0.48948772251605987548828125">
        <ele>366</ele>
        <time>2022-05-07T08:51:32.000Z</time>
      </trkpt>
      <trkpt lat="39.83009509742259979248046875" lon="-0.4891559667885303497314453125">
        <ele>364.79998779296875</ele>
        <time>2022-05-07T08:51:36.000Z</time>
      </trkpt>
      <trkpt lat="39.82998252846300601959228515625" lon="-0.48865397460758686065673828125">
        <ele>362.600006103515625</ele>
        <time>2022-05-07T08:51:42.000Z</time>
      </trkpt>
      <trkpt lat="39.82994933612644672393798828125" lon="-0.488484241068363189697265625">
        <ele>362.399993896484375</ele>
        <time>2022-05-07T08:51:44.000Z</time>
      </trkpt>
      <trkpt lat="39.82994028367102146148681640625" lon="-0.4883945547044277191162109375">
        <ele>362.399993896484375</ele>
        <time>2022-05-07T08:51:45.000Z</time>
      </trkpt>
      <trkpt lat="39.82992636971175670623779296875" lon="-0.4883067123591899871826171875">
        <ele>362.600006103515625</ele>
        <time>2022-05-07T08:51:46.000Z</time>
      </trkpt>
      <trkpt lat="39.82989300973713397979736328125" lon="-0.4880428500473499298095703125">
        <ele>363.600006103515625</ele>
        <time>2022-05-07T08:51:49.000Z</time>
      </trkpt>
      <trkpt lat="39.82988722622394561767578125" lon="-0.4878631420433521270751953125">
        <ele>363.399993896484375</ele>
        <time>2022-05-07T08:51:51.000Z</time>
      </trkpt>
      <trkpt lat="39.82987247407436370849609375" lon="-0.48768603242933750152587890625">
        <ele>363.600006103515625</ele>
        <time>2022-05-07T08:51:53.000Z</time>
      </trkpt>
      <trkpt lat="39.829872809350490570068359375" lon="-0.48759944736957550048828125">
        <ele>363</ele>
        <time>2022-05-07T08:51:54.000Z</time>
      </trkpt>
      <trkpt lat="39.82987783849239349365234375" lon="-0.48742267303168773651123046875">
        <ele>361.399993896484375</ele>
        <time>2022-05-07T08:51:56.000Z</time>
      </trkpt>
      <trkpt lat="39.82993190176784992218017578125" lon="-0.48685907386243343353271484375">
        <ele>356.79998779296875</ele>
        <time>2022-05-07T08:52:03.000Z</time>
      </trkpt>
      <trkpt lat="39.829953275620937347412109375" lon="-0.486781038343906402587890625">
        <ele>355.79998779296875</ele>
        <time>2022-05-07T08:52:04.000Z</time>
      </trkpt>
      <trkpt lat="39.83001354150474071502685546875" lon="-0.48654290847480297088623046875">
        <ele>349.79998779296875</ele>
        <time>2022-05-07T08:52:07.000Z</time>
      </trkpt>
      <trkpt lat="39.83005427755415439605712890625" lon="-0.4863877594470977783203125">
        <ele>345.600006103515625</ele>
        <time>2022-05-07T08:52:09.000Z</time>
      </trkpt>
      <trkpt lat="39.83014781959354877471923828125" lon="-0.48601199872791767120361328125">
        <ele>343</ele>
        <time>2022-05-07T08:52:14.000Z</time>
      </trkpt>
      <trkpt lat="39.83025309629738330841064453125" lon="-0.48562458716332912445068359375">
        <ele>341.399993896484375</ele>
        <time>2022-05-07T08:52:19.000Z</time>
      </trkpt>
      <trkpt lat="39.83041838742792606353759765625" lon="-0.48490022309124469757080078125">
        <ele>342.399993896484375</ele>
        <time>2022-05-07T08:52:28.000Z</time>
      </trkpt>
      <trkpt lat="39.8304365761578083038330078125" lon="-0.48481942154467105865478515625">
        <ele>342.79998779296875</ele>
        <time>2022-05-07T08:52:29.000Z</time>
      </trkpt>
      <trkpt lat="39.8305321298539638519287109375" lon="-0.48442731611430644989013671875">
        <ele>343</ele>
        <time>2022-05-07T08:52:34.000Z</time>
      </trkpt>
      <trkpt lat="39.83054797165095806121826171875" lon="-0.48434668220579624176025390625">
        <ele>342.79998779296875</ele>
        <time>2022-05-07T08:52:35.000Z</time>
      </trkpt>
      <trkpt lat="39.83060630969703197479248046875" lon="-0.4840232245624065399169921875">
        <ele>342.399993896484375</ele>
        <time>2022-05-07T08:52:39.000Z</time>
      </trkpt>
      <trkpt lat="39.8306266777217388153076171875" lon="-0.4839415848255157470703125">
        <ele>342.20001220703125</ele>
        <time>2022-05-07T08:52:40.000Z</time>
      </trkpt>
      <trkpt lat="39.8307366482913494110107421875" lon="-0.48343674279749393463134765625">
        <ele>340.20001220703125</ele>
        <time>2022-05-07T08:52:46.000Z</time>
      </trkpt>
      <trkpt lat="39.83075760304927825927734375" lon="-0.4833509959280490875244140625">
        <ele>340</ele>
        <time>2022-05-07T08:52:47.000Z</time>
      </trkpt>
      <trkpt lat="39.830858521163463592529296875" lon="-0.48290432430803775787353515625">
        <ele>338.79998779296875</ele>
        <time>2022-05-07T08:52:52.000Z</time>
      </trkpt>
      <trkpt lat="39.8309183679521083831787109375" lon="-0.4826284758746623992919921875">
        <ele>337.399993896484375</ele>
        <time>2022-05-07T08:52:55.000Z</time>
      </trkpt>
      <trkpt lat="39.8310236446559429168701171875" lon="-0.482183061540126800537109375">
        <ele>336</ele>
        <time>2022-05-07T08:53:00.000Z</time>
      </trkpt>
      <trkpt lat="39.831062369048595428466796875" lon="-0.48201282508671283721923828125">
        <ele>335.399993896484375</ele>
        <time>2022-05-07T08:53:02.000Z</time>
      </trkpt>
      <trkpt lat="39.8311533965170383453369140625" lon="-0.48161183483898639678955078125">
        <ele>334</ele>
        <time>2022-05-07T08:53:07.000Z</time>
      </trkpt>
      <trkpt lat="39.83120176009833812713623046875" lon="-0.4813732020556926727294921875">
        <ele>333.399993896484375</ele>
        <time>2022-05-07T08:53:10.000Z</time>
      </trkpt>
      <trkpt lat="39.83129161410033702850341796875" lon="-0.48090172000229358673095703125">
        <ele>333.399993896484375</ele>
        <time>2022-05-07T08:53:16.000Z</time>
      </trkpt>
      <trkpt lat="39.83133385889232158660888671875" lon="-0.4806510172784328460693359375">
        <ele>333.600006103515625</ele>
        <time>2022-05-07T08:53:19.000Z</time>
      </trkpt>
      <trkpt lat="39.83135732822120189666748046875" lon="-0.48039712943136692047119140625">
        <ele>333.399993896484375</ele>
        <time>2022-05-07T08:53:22.000Z</time>
      </trkpt>
      <trkpt lat="39.831375181674957275390625" lon="-0.4799868352711200714111328125">
        <ele>333.399993896484375</ele>
        <time>2022-05-07T08:53:27.000Z</time>
      </trkpt>
      <trkpt lat="39.83137258328497409820556640625" lon="-0.47990108840167522430419921875">
        <ele>333.600006103515625</ele>
        <time>2022-05-07T08:53:28.000Z</time>
      </trkpt>
      <trkpt lat="39.83134827576577663421630859375" lon="-0.4793736152350902557373046875">
        <ele>334.20001220703125</ele>
        <time>2022-05-07T08:53:34.000Z</time>
      </trkpt>
      <trkpt lat="39.83134542591869831085205078125" lon="-0.47928418032824993133544921875">
        <ele>334.399993896484375</ele>
        <time>2022-05-07T08:53:35.000Z</time>
      </trkpt>
      <trkpt lat="39.83131189830601215362548828125" lon="-0.478500388562679290771484375">
        <ele>335.600006103515625</ele>
        <time>2022-05-07T08:53:44.000Z</time>
      </trkpt>
      <trkpt lat="39.83130385167896747589111328125" lon="-0.47822177410125732421875">
        <ele>335.20001220703125</ele>
        <time>2022-05-07T08:53:47.000Z</time>
      </trkpt>
      <trkpt lat="39.83129815198481082916259765625" lon="-0.47783746384084224700927734375">
        <ele>334.600006103515625</ele>
        <time>2022-05-07T08:53:51.000Z</time>
      </trkpt>
      <trkpt lat="39.831295721232891082763671875" lon="-0.47774157486855983734130859375">
        <ele>334</ele>
        <time>2022-05-07T08:53:52.000Z</time>
      </trkpt>
      <trkpt lat="39.831265546381473541259765625" lon="-0.477000363171100616455078125">
        <ele>330.399993896484375</ele>
        <time>2022-05-07T08:54:00.000Z</time>
      </trkpt>
      <trkpt lat="39.831254817545413970947265625" lon="-0.4769100062549114227294921875">
        <ele>330.20001220703125</ele>
        <time>2022-05-07T08:54:01.000Z</time>
      </trkpt>
      <trkpt lat="39.83115725219249725341796875" lon="-0.4763712175190448760986328125">
        <ele>329.79998779296875</ele>
        <time>2022-05-07T08:54:07.000Z</time>
      </trkpt>
      <trkpt lat="39.83094192110002040863037109375" lon="-0.47566453926265239715576171875">
        <ele>327.399993896484375</ele>
        <time>2022-05-07T08:54:15.000Z</time>
      </trkpt>
      <trkpt lat="39.83091208152472972869873046875" lon="-0.475578121840953826904296875">
        <ele>327.399993896484375</ele>
        <time>2022-05-07T08:54:16.000Z</time>
      </trkpt>
      <trkpt lat="39.8307916335761547088623046875" lon="-0.47524058260023593902587890625">
        <ele>327.20001220703125</ele>
        <time>2022-05-07T08:54:20.000Z</time>
      </trkpt>
      <trkpt lat="39.83073874376714229583740234375" lon="-0.4750820808112621307373046875">
        <ele>327</ele>
        <time>2022-05-07T08:54:22.000Z</time>
      </trkpt>
      <trkpt lat="39.83056590892374515533447265625" lon="-0.47454622574150562286376953125">
        <ele>324.20001220703125</ele>
        <time>2022-05-07T08:54:29.000Z</time>
      </trkpt>
      <trkpt lat="39.83054570853710174560546875" lon="-0.47448688186705112457275390625">
        <ele>324</ele>
        <time>2022-05-07T08:54:30.000Z</time>
      </trkpt>
      <trkpt lat="39.830481000244617462158203125" lon="-0.474283955991268157958984375">
        <ele>323.79998779296875</ele>
        <time>2022-05-07T08:54:34.000Z</time>
      </trkpt>
      <trkpt lat="39.83042375184595584869384765625" lon="-0.47411321662366390228271484375">
        <ele>323.79998779296875</ele>
        <time>2022-05-07T08:54:38.000Z</time>
      </trkpt>
      <trkpt lat="39.83040816150605678558349609375" lon="-0.4740722291171550750732421875">
        <ele>323.79998779296875</ele>
        <time>2022-05-07T08:54:39.000Z</time>
      </trkpt>
      <trkpt lat="39.83034722506999969482421875" lon="-0.47395681031048297882080078125">
        <ele>323.79998779296875</ele>
        <time>2022-05-07T08:54:42.000Z</time>
      </trkpt>
      <trkpt lat="39.8303165473043918609619140625" lon="-0.4739262163639068603515625">
        <ele>324</ele>
        <time>2022-05-07T08:54:43.000Z</time>
      </trkpt>
      <trkpt lat="39.83029131777584552764892578125" lon="-0.4738878272473812103271484375">
        <ele>323.79998779296875</ele>
        <time>2022-05-07T08:54:44.000Z</time>
      </trkpt>
      <trkpt lat="39.8302699439227581024169921875" lon="-0.4737932793796062469482421875">
        <ele>323.20001220703125</ele>
        <time>2022-05-07T08:54:46.000Z</time>
      </trkpt>
      <trkpt lat="39.83021847903728485107421875" lon="-0.47355297021567821502685546875">
        <ele>322.20001220703125</ele>
        <time>2022-05-07T08:54:51.000Z</time>
      </trkpt>
      <trkpt lat="39.8301774077117443084716796875" lon="-0.4734358750283718109130859375">
        <ele>321.79998779296875</ele>
        <time>2022-05-07T08:54:53.000Z</time>
      </trkpt>
      <trkpt lat="39.8301354981958866119384765625" lon="-0.47330101020634174346923828125">
        <ele>321.399993896484375</ele>
        <time>2022-05-07T08:54:55.000Z</time>
      </trkpt>
      <trkpt lat="39.830013625323772430419921875" lon="-0.47293874435126781463623046875">
        <ele>319</ele>
        <time>2022-05-07T08:55:00.000Z</time>
      </trkpt>
      <trkpt lat="39.82986149378120899200439453125" lon="-0.47244840301573276519775390625">
        <ele>318.600006103515625</ele>
        <time>2022-05-07T08:55:06.000Z</time>
      </trkpt>
      <trkpt lat="39.82971413992345333099365234375" lon="-0.47199795953929424285888671875">
        <ele>318.600006103515625</ele>
        <time>2022-05-07T08:55:12.000Z</time>
      </trkpt>
      <trkpt lat="39.8296584002673625946044921875" lon="-0.47184926457703113555908203125">
        <ele>321</ele>
        <time>2022-05-07T08:55:14.000Z</time>
      </trkpt>
      <trkpt lat="39.829537533223628997802734375" lon="-0.47147593460977077484130859375">
        <ele>326.600006103515625</ele>
        <time>2022-05-07T08:55:19.000Z</time>
      </trkpt>
      <trkpt lat="39.8293901793658733367919921875" lon="-0.471057593822479248046875">
        <ele>330.600006103515625</ele>
        <time>2022-05-07T08:55:25.000Z</time>
      </trkpt>
      <trkpt lat="39.829222373664379119873046875" lon="-0.4706002771854400634765625">
        <ele>333.399993896484375</ele>
        <time>2022-05-07T08:55:32.000Z</time>
      </trkpt>
      <trkpt lat="39.82902179472148418426513671875" lon="-0.4701094329357147216796875">
        <ele>331.79998779296875</ele>
        <time>2022-05-07T08:55:39.000Z</time>
      </trkpt>
      <trkpt lat="39.82880772091448307037353515625" lon="-0.4697473347187042236328125">
        <ele>329.20001220703125</ele>
        <time>2022-05-07T08:55:45.000Z</time>
      </trkpt>
      <trkpt lat="39.82859096489846706390380859375" lon="-0.469440557062625885009765625">
        <ele>328.600006103515625</ele>
        <time>2022-05-07T08:55:51.000Z</time>
      </trkpt>
      <trkpt lat="39.82854955829679965972900390625" lon="-0.4693911038339138031005859375">
        <ele>328.79998779296875</ele>
        <time>2022-05-07T08:55:52.000Z</time>
      </trkpt>
      <trkpt lat="39.828315116465091705322265625" lon="-0.4691331088542938232421875">
        <ele>329.20001220703125</ele>
        <time>2022-05-07T08:55:57.000Z</time>
      </trkpt>
      <trkpt lat="39.82826423831284046173095703125" lon="-0.46908080577850341796875">
        <ele>328.600006103515625</ele>
        <time>2022-05-07T08:55:58.000Z</time>
      </trkpt>
      <trkpt lat="39.82798428274691104888916015625" lon="-0.46877344138920307159423828125">
        <ele>326.600006103515625</ele>
        <time>2022-05-07T08:56:04.000Z</time>
      </trkpt>
      <trkpt lat="39.8276886530220508575439453125" lon="-0.4684107564389705657958984375">
        <ele>325.20001220703125</ele>
        <time>2022-05-07T08:56:11.000Z</time>
      </trkpt>
      <trkpt lat="39.82736385427415370941162109375" lon="-0.467993505299091339111328125">
        <ele>322</ele>
        <time>2022-05-07T08:56:19.000Z</time>
      </trkpt>
      <trkpt lat="39.827070571482181549072265625" lon="-0.46763383783400058746337890625">
        <ele>321.79998779296875</ele>
        <time>2022-05-07T08:56:26.000Z</time>
      </trkpt>
      <trkpt lat="39.8267810605466365814208984375" lon="-0.467184148728847503662109375">
        <ele>324.600006103515625</ele>
        <time>2022-05-07T08:56:34.000Z</time>
      </trkpt>
      <trkpt lat="39.82661250047385692596435546875" lon="-0.46671048738062381744384765625">
        <ele>325.79998779296875</ele>
        <time>2022-05-07T08:56:41.000Z</time>
      </trkpt>
      <trkpt lat="39.826513342559337615966796875" lon="-0.4661067388951778411865234375">
        <ele>320.79998779296875</ele>
        <time>2022-05-07T08:56:49.000Z</time>
      </trkpt>
      <trkpt lat="39.82650403864681720733642578125" lon="-0.465524531900882720947265625">
        <ele>319</ele>
        <time>2022-05-07T08:56:56.000Z</time>
      </trkpt>
      <trkpt lat="39.82648727484047412872314453125" lon="-0.464789606630802154541015625">
        <ele>320.399993896484375</ele>
        <time>2022-05-07T08:57:05.000Z</time>
      </trkpt>
      <trkpt lat="39.826468415558338165283203125" lon="-0.46418066136538982391357421875">
        <ele>322.600006103515625</ele>
        <time>2022-05-07T08:57:13.000Z</time>
      </trkpt>
      <trkpt lat="39.82641519047319889068603515625" lon="-0.46369065530598163604736328125">
        <ele>324.600006103515625</ele>
        <time>2022-05-07T08:57:20.000Z</time>
      </trkpt>
      <trkpt lat="39.82626448385417461395263671875" lon="-0.46316309832036495208740234375">
        <ele>324.20001220703125</ele>
        <time>2022-05-07T08:57:28.000Z</time>
      </trkpt>
      <trkpt lat="39.82599760405719280242919921875" lon="-0.46254694461822509765625">
        <ele>323</ele>
        <time>2022-05-07T08:57:38.000Z</time>
      </trkpt>
      <trkpt lat="39.82581605203449726104736328125" lon="-0.4622054658830165863037109375">
        <ele>323</ele>
        <time>2022-05-07T08:57:44.000Z</time>
      </trkpt>
      <trkpt lat="39.82560968957841396331787109375" lon="-0.46174965798854827880859375">
        <ele>324.20001220703125</ele>
        <time>2022-05-07T08:57:51.000Z</time>
      </trkpt>
      <trkpt lat="39.8253893293440341949462890625" lon="-0.46126442961394786834716796875">
        <ele>324.600006103515625</ele>
        <time>2022-05-07T08:57:58.000Z</time>
      </trkpt>
      <trkpt lat="39.82511582784354686737060546875" lon="-0.4606585018336772918701171875">
        <ele>325.79998779296875</ele>
        <time>2022-05-07T08:58:07.000Z</time>
      </trkpt>
      <trkpt lat="39.82487426139414310455322265625" lon="-0.46013220213353633880615234375">
        <ele>328.79998779296875</ele>
        <time>2022-05-07T08:58:15.000Z</time>
      </trkpt>
      <trkpt lat="39.8247509635984897613525390625" lon="-0.4598803259432315826416015625">
        <ele>326.399993896484375</ele>
        <time>2022-05-07T08:58:20.000Z</time>
      </trkpt>
      <trkpt lat="39.8245960660278797149658203125" lon="-0.45955720357596874237060546875">
        <ele>324.20001220703125</ele>
        <time>2022-05-07T08:58:25.000Z</time>
      </trkpt>
      <trkpt lat="39.82443890534341335296630859375" lon="-0.459218323230743408203125">
        <ele>321.79998779296875</ele>
        <time>2022-05-07T08:58:30.000Z</time>
      </trkpt>
      <trkpt lat="39.82437872327864170074462890625" lon="-0.459090583026409149169921875">
        <ele>320.79998779296875</ele>
        <time>2022-05-07T08:58:32.000Z</time>
      </trkpt>
      <trkpt lat="39.824186861515045166015625" lon="-0.45867308042943477630615234375">
        <ele>320.79998779296875</ele>
        <time>2022-05-07T08:58:38.000Z</time>
      </trkpt>
      <trkpt lat="39.8240532539784908294677734375" lon="-0.458380468189716339111328125">
        <ele>320.79998779296875</ele>
        <time>2022-05-07T08:58:42.000Z</time>
      </trkpt>
      <trkpt lat="39.82391260564327239990234375" lon="-0.45808567665517330169677734375">
        <ele>319.600006103515625</ele>
        <time>2022-05-07T08:58:46.000Z</time>
      </trkpt>
      <trkpt lat="39.8238074965775012969970703125" lon="-0.45786087401211261749267578125">
        <ele>319.399993896484375</ele>
        <time>2022-05-07T08:58:49.000Z</time>
      </trkpt>
      <trkpt lat="39.823572970926761627197265625" lon="-0.457348488271236419677734375">
        <ele>317.600006103515625</ele>
        <time>2022-05-07T08:58:56.000Z</time>
      </trkpt>
      <trkpt lat="39.82334422878921031951904296875" lon="-0.45684926211833953857421875">
        <ele>317.399993896484375</ele>
        <time>2022-05-07T08:59:03.000Z</time>
      </trkpt>
      <trkpt lat="39.82327130623161792755126953125" lon="-0.4567050933837890625">
        <ele>317.20001220703125</ele>
        <time>2022-05-07T08:59:05.000Z</time>
      </trkpt>
      <trkpt lat="39.82305086217820644378662109375" lon="-0.45627585612237453460693359375">
        <ele>314.399993896484375</ele>
        <time>2022-05-07T08:59:11.000Z</time>
      </trkpt>
      <trkpt lat="39.8229723237454891204833984375" lon="-0.4561389796435832977294921875">
        <ele>314</ele>
        <time>2022-05-07T08:59:13.000Z</time>
      </trkpt>
      <trkpt lat="39.82276202179491519927978515625" lon="-0.45582273043692111968994140625">
        <ele>313.399993896484375</ele>
        <time>2022-05-07T08:59:18.000Z</time>
      </trkpt>
      <trkpt lat="39.82271592132747173309326171875" lon="-0.4557631351053714752197265625">
        <ele>313.600006103515625</ele>
        <time>2022-05-07T08:59:19.000Z</time>
      </trkpt>
      <trkpt lat="39.82241350226104259490966796875" lon="-0.4554431140422821044921875">
        <ele>314.79998779296875</ele>
        <time>2022-05-07T08:59:25.000Z</time>
      </trkpt>
      <trkpt lat="39.82235969044268131256103515625" lon="-0.45539793558418750762939453125">
        <ele>315.20001220703125</ele>
        <time>2022-05-07T08:59:26.000Z</time>
      </trkpt>
      <trkpt lat="39.82208409346640110015869140625" lon="-0.455182604491710662841796875">
        <ele>315.600006103515625</ele>
        <time>2022-05-07T08:59:31.000Z</time>
      </trkpt>
      <trkpt lat="39.82191662304103374481201171875" lon="-0.45505796559154987335205078125">
        <ele>315</ele>
        <time>2022-05-07T08:59:34.000Z</time>
      </trkpt>
      <trkpt lat="39.8215675167739391326904296875" lon="-0.4547951929271221160888671875">
        <ele>314</ele>
        <time>2022-05-07T08:59:40.000Z</time>
      </trkpt>
      <trkpt lat="39.82151068747043609619140625" lon="-0.4547499306499958038330078125">
        <ele>313.79998779296875</ele>
        <time>2022-05-07T08:59:41.000Z</time>
      </trkpt>
      <trkpt lat="39.8213906586170196533203125" lon="-0.45466133393347263336181640625">
        <ele>313.600006103515625</ele>
        <time>2022-05-07T08:59:43.000Z</time>
      </trkpt>
      <trkpt lat="39.82126937247812747955322265625" lon="-0.4545668698847293853759765625">
        <ele>313.399993896484375</ele>
        <time>2022-05-07T08:59:45.000Z</time>
      </trkpt>
      <trkpt lat="39.82103266753256320953369140625" lon="-0.4543942026793956756591796875">
        <ele>311.79998779296875</ele>
        <time>2022-05-07T08:59:49.000Z</time>
      </trkpt>
      <trkpt lat="39.82075321488082408905029296875" lon="-0.45418490655720233917236328125">
        <ele>309.600006103515625</ele>
        <time>2022-05-07T08:59:54.000Z</time>
      </trkpt>
      <trkpt lat="39.82058993540704250335693359375" lon="-0.454055406153202056884765625">
        <ele>308.600006103515625</ele>
        <time>2022-05-07T08:59:57.000Z</time>
      </trkpt>
      <trkpt lat="39.8204222135245800018310546875" lon="-0.45392506755888462066650390625">
        <ele>307.600006103515625</ele>
        <time>2022-05-07T09:00:00.000Z</time>
      </trkpt>
      <trkpt lat="39.82030880637466907501220703125" lon="-0.45384225435554981231689453125">
        <ele>306.600006103515625</ele>
        <time>2022-05-07T09:00:02.000Z</time>
      </trkpt>
      <trkpt lat="39.81997788883745670318603515625" lon="-0.45358610339462757110595703125">
        <ele>303.600006103515625</ele>
        <time>2022-05-07T09:00:08.000Z</time>
      </trkpt>
      <trkpt lat="39.81982131488621234893798828125" lon="-0.45346791855990886688232421875">
        <ele>302.20001220703125</ele>
        <time>2022-05-07T09:00:11.000Z</time>
      </trkpt>
      <trkpt lat="39.81960631906986236572265625" lon="-0.4533142782747745513916015625">
        <ele>300.79998779296875</ele>
        <time>2022-05-07T09:00:15.000Z</time>
      </trkpt>
      <trkpt lat="39.8193831928074359893798828125" lon="-0.453151501715183258056640625">
        <ele>299.600006103515625</ele>
        <time>2022-05-07T09:00:19.000Z</time>
      </trkpt>
      <trkpt lat="39.81915260665118694305419921875" lon="-0.452972464263439178466796875">
        <ele>301.399993896484375</ele>
        <time>2022-05-07T09:00:23.000Z</time>
      </trkpt>
      <trkpt lat="39.81888572685420513153076171875" lon="-0.45271539129316806793212890625">
        <ele>302.600006103515625</ele>
        <time>2022-05-07T09:00:28.000Z</time>
      </trkpt>
      <trkpt lat="39.81878765858709812164306640625" lon="-0.45259687118232250213623046875">
        <ele>303.79998779296875</ele>
        <time>2022-05-07T09:00:30.000Z</time>
      </trkpt>
      <trkpt lat="39.81854391284286975860595703125" lon="-0.4522097110748291015625">
        <ele>304.600006103515625</ele>
        <time>2022-05-07T09:00:36.000Z</time>
      </trkpt>
      <trkpt lat="39.8183518834412097930908203125" lon="-0.4516938887536525726318359375">
        <ele>300.20001220703125</ele>
        <time>2022-05-07T09:00:43.000Z</time>
      </trkpt>
      <trkpt lat="39.818331934511661529541015625" lon="-0.4516137577593326568603515625">
        <ele>299.600006103515625</ele>
        <time>2022-05-07T09:00:44.000Z</time>
      </trkpt>
      <trkpt lat="39.81827066279947757720947265625" lon="-0.45118871144950389862060546875">
        <ele>296.399993896484375</ele>
        <time>2022-05-07T09:00:49.000Z</time>
      </trkpt>
      <trkpt lat="39.81825641356408596038818359375" lon="-0.45101252384483814239501953125">
        <ele>295</ele>
        <time>2022-05-07T09:00:51.000Z</time>
      </trkpt>
      <trkpt lat="39.81821157038211822509765625" lon="-0.45049921609461307525634765625">
        <ele>290.600006103515625</ele>
        <time>2022-05-07T09:00:57.000Z</time>
      </trkpt>
      <trkpt lat="39.81814946047961711883544921875" lon="-0.4498113133013248443603515625">
        <ele>288.79998779296875</ele>
        <time>2022-05-07T09:01:06.000Z</time>
      </trkpt>
      <trkpt lat="39.81809481047093868255615234375" lon="-0.449217371642589569091796875">
        <ele>291.20001220703125</ele>
        <time>2022-05-07T09:01:14.000Z</time>
      </trkpt>
      <trkpt lat="39.8180454410612583160400390625" lon="-0.44864966534078121185302734375">
        <ele>296.20001220703125</ele>
        <time>2022-05-07T09:01:22.000Z</time>
      </trkpt>
      <trkpt lat="39.81796992011368274688720703125" lon="-0.44820643030107021331787109375">
        <ele>297.79998779296875</ele>
        <time>2022-05-07T09:01:29.000Z</time>
      </trkpt>
      <trkpt lat="39.81793186627328395843505859375" lon="-0.4480095393955707550048828125">
        <ele>298.600006103515625</ele>
        <time>2022-05-07T09:01:32.000Z</time>
      </trkpt>
      <trkpt lat="39.81785374693572521209716796875" lon="-0.44775665737688541412353515625">
        <ele>299.79998779296875</ele>
        <time>2022-05-07T09:01:36.000Z</time>
      </trkpt>
      <trkpt lat="39.817696921527385711669921875" lon="-0.44732649810612201690673828125">
        <ele>302.79998779296875</ele>
        <time>2022-05-07T09:01:43.000Z</time>
      </trkpt>
      <trkpt lat="39.81752467341721057891845703125" lon="-0.44697764329612255096435546875">
        <ele>307.79998779296875</ele>
        <time>2022-05-07T09:01:49.000Z</time>
      </trkpt>
      <trkpt lat="39.8174623958766460418701171875" lon="-0.44686071574687957763671875">
        <ele>309</ele>
        <time>2022-05-07T09:01:51.000Z</time>
      </trkpt>
      <trkpt lat="39.81734496541321277618408203125" lon="-0.44662577100098133087158203125">
        <ele>311</ele>
        <time>2022-05-07T09:01:55.000Z</time>
      </trkpt>
      <trkpt lat="39.81713340617716312408447265625" lon="-0.4462473280727863311767578125">
        <ele>314.600006103515625</ele>
        <time>2022-05-07T09:02:02.000Z</time>
      </trkpt>
      <trkpt lat="39.81696568429470062255859375" lon="-0.44592001475393772125244140625">
        <ele>312.20001220703125</ele>
        <time>2022-05-07T09:02:08.000Z</time>
      </trkpt>
      <trkpt lat="39.816793017089366912841796875" lon="-0.445540063083171844482421875">
        <ele>307.600006103515625</ele>
        <time>2022-05-07T09:02:15.000Z</time>
      </trkpt>
      <trkpt lat="39.8166144825518131256103515625" lon="-0.4451456107199192047119140625">
        <ele>304.79998779296875</ele>
        <time>2022-05-07T09:02:22.000Z</time>
      </trkpt>
      <trkpt lat="39.81658875010907649993896484375" lon="-0.4450912959873676300048828125">
        <ele>304.79998779296875</ele>
        <time>2022-05-07T09:02:23.000Z</time>
      </trkpt>
      <trkpt lat="39.81636646203696727752685546875" lon="-0.4446044750511646270751953125">
        <ele>304.79998779296875</ele>
        <time>2022-05-07T09:02:32.000Z</time>
      </trkpt>
      <trkpt lat="39.81616646982729434967041015625" lon="-0.444208681583404541015625">
        <ele>308.399993896484375</ele>
        <time>2022-05-07T09:02:40.000Z</time>
      </trkpt>
      <trkpt lat="39.81597787700593471527099609375" lon="-0.44380408711731433868408203125">
        <ele>314</ele>
        <time>2022-05-07T09:02:48.000Z</time>
      </trkpt>
      <trkpt lat="39.81584460474550724029541015625" lon="-0.44353502802550792694091796875">
        <ele>315</ele>
        <time>2022-05-07T09:02:53.000Z</time>
      </trkpt>
      <trkpt lat="39.815818369388580322265625" lon="-0.4434829764068126678466796875">
        <ele>315.20001220703125</ele>
        <time>2022-05-07T09:02:54.000Z</time>
      </trkpt>
      <trkpt lat="39.81563321314752101898193359375" lon="-0.44311962090432643890380859375">
        <ele>316.399993896484375</ele>
        <time>2022-05-07T09:03:01.000Z</time>
      </trkpt>
      <trkpt lat="39.815457947552204132080078125" lon="-0.442747212946414947509765625">
        <ele>317</ele>
        <time>2022-05-07T09:03:08.000Z</time>
      </trkpt>
      <trkpt lat="39.81533146463334560394287109375" lon="-0.4424784891307353973388671875">
        <ele>316.600006103515625</ele>
        <time>2022-05-07T09:03:13.000Z</time>
      </trkpt>
      <trkpt lat="39.81513909995555877685546875" lon="-0.44208562932908535003662109375">
        <ele>315</ele>
        <time>2022-05-07T09:03:20.000Z</time>
      </trkpt>
      <trkpt lat="39.814948998391628265380859375" lon="-0.441714562475681304931640625">
        <ele>312.20001220703125</ele>
        <time>2022-05-07T09:03:27.000Z</time>
      </trkpt>
      <trkpt lat="39.81475244276225566864013671875" lon="-0.44134500436484813690185546875">
        <ele>312.600006103515625</ele>
        <time>2022-05-07T09:03:34.000Z</time>
      </trkpt>
      <trkpt lat="39.81458195485174655914306640625" lon="-0.441012494266033172607421875">
        <ele>312.20001220703125</ele>
        <time>2022-05-07T09:03:40.000Z</time>
      </trkpt>
      <trkpt lat="39.81440551578998565673828125" lon="-0.44067688286304473876953125">
        <ele>310.399993896484375</ele>
        <time>2022-05-07T09:03:46.000Z</time>
      </trkpt>
      <trkpt lat="39.8142132349312305450439453125" lon="-0.4402428679168224334716796875">
        <ele>312.399993896484375</ele>
        <time>2022-05-07T09:03:54.000Z</time>
      </trkpt>
      <trkpt lat="39.81400142423808574676513671875" lon="-0.43977624736726284027099609375">
        <ele>311.79998779296875</ele>
        <time>2022-05-07T09:04:02.000Z</time>
      </trkpt>
      <trkpt lat="39.81381081975996494293212890625" lon="-0.4393391311168670654296875">
        <ele>310.20001220703125</ele>
        <time>2022-05-07T09:04:10.000Z</time>
      </trkpt>
      <trkpt lat="39.8136806488037109375" lon="-0.43900175951421260833740234375">
        <ele>306.600006103515625</ele>
        <time>2022-05-07T09:04:16.000Z</time>
      </trkpt>
      <trkpt lat="39.813634715974330902099609375" lon="-0.43888458050787448883056640625">
        <ele>305.399993896484375</ele>
        <time>2022-05-07T09:04:18.000Z</time>
      </trkpt>
      <trkpt lat="39.81352583505213260650634765625" lon="-0.43859146535396575927734375">
        <ele>303.79998779296875</ele>
        <time>2022-05-07T09:04:23.000Z</time>
      </trkpt>
      <trkpt lat="39.8133923113346099853515625" lon="-0.4381554387509822845458984375">
        <ele>302</ele>
        <time>2022-05-07T09:04:30.000Z</time>
      </trkpt>
      <trkpt lat="39.81324202381074428558349609375" lon="-0.43757666833698749542236328125">
        <ele>302.399993896484375</ele>
        <time>2022-05-07T09:04:39.000Z</time>
      </trkpt>
      <trkpt lat="39.81312735937535762786865234375" lon="-0.4371258057653903961181640625">
        <ele>308.79998779296875</ele>
        <time>2022-05-07T09:04:46.000Z</time>
      </trkpt>
      <trkpt lat="39.81305309571325778961181640625" lon="-0.43674803338944911956787109375">
        <ele>309.20001220703125</ele>
        <time>2022-05-07T09:04:52.000Z</time>
      </trkpt>
      <trkpt lat="39.81298570521175861358642578125" lon="-0.436345450580120086669921875">
        <ele>309.399993896484375</ele>
        <time>2022-05-07T09:04:58.000Z</time>
      </trkpt>
      <trkpt lat="39.8129432089626789093017578125" lon="-0.43614587746560573577880859375">
        <ele>309.20001220703125</ele>
        <time>2022-05-07T09:05:01.000Z</time>
      </trkpt>
      <trkpt lat="39.81291881762444972991943359375" lon="-0.43595292605459690093994140625">
        <ele>308.399993896484375</ele>
        <time>2022-05-07T09:05:04.000Z</time>
      </trkpt>
      <trkpt lat="39.8128687776625156402587890625" lon="-0.43549309484660625457763671875">
        <ele>306.399993896484375</ele>
        <time>2022-05-07T09:05:11.000Z</time>
      </trkpt>
      <trkpt lat="39.8128258623182773590087890625" lon="-0.43493821285665035247802734375">
        <ele>305</ele>
        <time>2022-05-07T09:05:19.000Z</time>
      </trkpt>
      <trkpt lat="39.81278789229691028594970703125" lon="-0.4344871826469898223876953125">
        <ele>303.399993896484375</ele>
        <time>2022-05-07T09:05:26.000Z</time>
      </trkpt>
      <trkpt lat="39.81277397833764553070068359375" lon="-0.43440948240458965301513671875">
        <ele>303.20001220703125</ele>
        <time>2022-05-07T09:05:27.000Z</time>
      </trkpt>
      <trkpt lat="39.812690578401088714599609375" lon="-0.4341871105134487152099609375">
        <ele>303</ele>
        <time>2022-05-07T09:05:30.000Z</time>
      </trkpt>
      <trkpt lat="39.81261254288256168365478515625" lon="-0.43405853211879730224609375">
        <ele>303.20001220703125</ele>
        <time>2022-05-07T09:05:32.000Z</time>
      </trkpt>
      <trkpt lat="39.81244389899075031280517578125" lon="-0.43383431620895862579345703125">
        <ele>304</ele>
        <time>2022-05-07T09:05:36.000Z</time>
      </trkpt>
      <trkpt lat="39.812221191823482513427734375" lon="-0.43358269147574901580810546875">
        <ele>306.399993896484375</ele>
        <time>2022-05-07T09:05:42.000Z</time>
      </trkpt>
      <trkpt lat="39.81198616325855255126953125" lon="-0.43329276144504547119140625">
        <ele>306.600006103515625</ele>
        <time>2022-05-07T09:05:49.000Z</time>
      </trkpt>
      <trkpt lat="39.81171215884387493133544921875" lon="-0.432970225811004638671875">
        <ele>308.600006103515625</ele>
        <time>2022-05-07T09:05:57.000Z</time>
      </trkpt>
      <trkpt lat="39.8115310259163379669189453125" lon="-0.43279630132019519805908203125">
        <ele>311.20001220703125</ele>
        <time>2022-05-07T09:06:02.000Z</time>
      </trkpt>
      <trkpt lat="39.8113895393908023834228515625" lon="-0.4326738417148590087890625">
        <ele>312.600006103515625</ele>
        <time>2022-05-07T09:06:06.000Z</time>
      </trkpt>
      <trkpt lat="39.8112507350742816925048828125" lon="-0.43255439959466457366943359375">
        <ele>313</ele>
        <time>2022-05-07T09:06:10.000Z</time>
      </trkpt>
      <trkpt lat="39.811174459755420684814453125" lon="-0.4324926249682903289794921875">
        <ele>313.20001220703125</ele>
        <time>2022-05-07T09:06:12.000Z</time>
      </trkpt>
      <trkpt lat="39.810974299907684326171875" lon="-0.43236010707914829254150390625">
        <ele>313.399993896484375</ele>
        <time>2022-05-07T09:06:17.000Z</time>
      </trkpt>
      <trkpt lat="39.81085720472037792205810546875" lon="-0.43227754533290863037109375">
        <ele>312.79998779296875</ele>
        <time>2022-05-07T09:06:20.000Z</time>
      </trkpt>
      <trkpt lat="39.81077841483056545257568359375" lon="-0.43222482316195964813232421875">
        <ele>312.399993896484375</ele>
        <time>2022-05-07T09:06:22.000Z</time>
      </trkpt>
      <trkpt lat="39.8104970343410968780517578125" lon="-0.43206439353525638580322265625">
        <ele>311.399993896484375</ele>
        <time>2022-05-07T09:06:29.000Z</time>
      </trkpt>
      <trkpt lat="39.810177348554134368896484375" lon="-0.4319313727319240570068359375">
        <ele>310.600006103515625</ele>
        <time>2022-05-07T09:06:36.000Z</time>
      </trkpt>
      <trkpt lat="39.810131751000881195068359375" lon="-0.43191569857299327850341796875">
        <ele>310.399993896484375</ele>
        <time>2022-05-07T09:06:37.000Z</time>
      </trkpt>
      <trkpt lat="39.80984307825565338134765625" lon="-0.431836657226085662841796875">
        <ele>310.20001220703125</ele>
        <time>2022-05-07T09:06:43.000Z</time>
      </trkpt>
      <trkpt lat="39.809497408568859100341796875" lon="-0.43174822814762592315673828125">
        <ele>311.79998779296875</ele>
        <time>2022-05-07T09:06:50.000Z</time>
      </trkpt>
      <trkpt lat="39.80921938084065914154052734375" lon="-0.43163222260773181915283203125">
        <ele>311.399993896484375</ele>
        <time>2022-05-07T09:06:56.000Z</time>
      </trkpt>
      <trkpt lat="39.8091726936399936676025390625" lon="-0.43162233196198940277099609375">
        <ele>311.79998779296875</ele>
        <time>2022-05-07T09:06:57.000Z</time>
      </trkpt>
      <trkpt lat="39.80912852101027965545654296875" lon="-0.4316182248294353485107421875">
        <ele>312</ele>
        <time>2022-05-07T09:06:58.000Z</time>
      </trkpt>
      <trkpt lat="39.809086360037326812744140625" lon="-0.43161814101040363311767578125">
        <ele>312.20001220703125</ele>
        <time>2022-05-07T09:06:59.000Z</time>
      </trkpt>
      <trkpt lat="39.80897446162998676300048828125" lon="-0.43161964975297451019287109375">
        <ele>312.79998779296875</ele>
        <time>2022-05-07T09:07:02.000Z</time>
      </trkpt>
      <trkpt lat="39.80882978998124599456787109375" lon="-0.431602299213409423828125">
        <ele>313.600006103515625</ele>
        <time>2022-05-07T09:07:06.000Z</time>
      </trkpt>
      <trkpt lat="39.8086852021515369415283203125" lon="-0.43156365863978862762451171875">
        <ele>314.399993896484375</ele>
        <time>2022-05-07T09:07:10.000Z</time>
      </trkpt>
      <trkpt lat="39.80828563682734966278076171875" lon="-0.4314132034778594970703125">
        <ele>316.399993896484375</ele>
        <time>2022-05-07T09:07:20.000Z</time>
      </trkpt>
      <trkpt lat="39.8080485127866268157958984375" lon="-0.43129988014698028564453125">
        <ele>317.20001220703125</ele>
        <time>2022-05-07T09:07:25.000Z</time>
      </trkpt>
      <trkpt lat="39.80775271542370319366455078125" lon="-0.43108664453029632568359375">
        <ele>312.399993896484375</ele>
        <time>2022-05-07T09:07:30.000Z</time>
      </trkpt>
      <trkpt lat="39.80761156417429447174072265625" lon="-0.4309530369937419891357421875">
        <ele>307.79998779296875</ele>
        <time>2022-05-07T09:07:32.000Z</time>
      </trkpt>
      <trkpt lat="39.80746421031653881072998046875" lon="-0.4308125562965869903564453125">
        <ele>303.79998779296875</ele>
        <time>2022-05-07T09:07:34.000Z</time>
      </trkpt>
      <trkpt lat="39.807388521730899810791015625" lon="-0.430735610425472259521484375">
        <ele>302.79998779296875</ele>
        <time>2022-05-07T09:07:35.000Z</time>
      </trkpt>
      <trkpt lat="39.80731182731688022613525390625" lon="-0.430653803050518035888671875">
        <ele>301.600006103515625</ele>
        <time>2022-05-07T09:07:36.000Z</time>
      </trkpt>
      <trkpt lat="39.80723421089351177215576171875" lon="-0.43056705035269260406494140625">
        <ele>300.399993896484375</ele>
        <time>2022-05-07T09:07:37.000Z</time>
      </trkpt>
      <trkpt lat="39.8071550019085407257080078125" lon="-0.43047317303717136383056640625">
        <ele>299</ele>
        <time>2022-05-07T09:07:38.000Z</time>
      </trkpt>
      <trkpt lat="39.80707495473325252532958984375" lon="-0.43037460185587406158447265625">
        <ele>297.399993896484375</ele>
        <time>2022-05-07T09:07:39.000Z</time>
      </trkpt>
      <trkpt lat="39.8069967515766620635986328125" lon="-0.4302767850458621978759765625">
        <ele>296</ele>
        <time>2022-05-07T09:07:40.000Z</time>
      </trkpt>
      <trkpt lat="39.80691754259169101715087890625" lon="-0.43017578311264514923095703125">
        <ele>294.20001220703125</ele>
        <time>2022-05-07T09:07:41.000Z</time>
      </trkpt>
      <trkpt lat="39.806767590343952178955078125" lon="-0.42997444979846477508544921875">
        <ele>290.79998779296875</ele>
        <time>2022-05-07T09:07:43.000Z</time>
      </trkpt>
      <trkpt lat="39.8066983558237552642822265625" lon="-0.42987822555005550384521484375">
        <ele>290</ele>
        <time>2022-05-07T09:07:44.000Z</time>
      </trkpt>
      <trkpt lat="39.80663515627384185791015625" lon="-0.42978040874004364013671875">
        <ele>289.399993896484375</ele>
        <time>2022-05-07T09:07:45.000Z</time>
      </trkpt>
      <trkpt lat="39.80657690204679965972900390625" lon="-0.429676137864589691162109375">
        <ele>288.79998779296875</ele>
        <time>2022-05-07T09:07:46.000Z</time>
      </trkpt>
      <trkpt lat="39.806459806859493255615234375" lon="-0.4294498264789581298828125">
        <ele>287.79998779296875</ele>
        <time>2022-05-07T09:07:48.000Z</time>
      </trkpt>
      <trkpt lat="39.8064016364514827728271484375" lon="-0.4293319769203662872314453125">
        <ele>287</ele>
        <time>2022-05-07T09:07:49.000Z</time>
      </trkpt>
      <trkpt lat="39.80634539388120174407958984375" lon="-0.42921538464725017547607421875">
        <ele>286.399993896484375</ele>
        <time>2022-05-07T09:07:50.000Z</time>
      </trkpt>
      <trkpt lat="39.80629208497703075408935546875" lon="-0.42910574935376644134521484375">
        <ele>285.79998779296875</ele>
        <time>2022-05-07T09:07:51.000Z</time>
      </trkpt>
      <trkpt lat="39.8062420450150966644287109375" lon="-0.4290070943534374237060546875">
        <ele>285.20001220703125</ele>
        <time>2022-05-07T09:07:52.000Z</time>
      </trkpt>
      <trkpt lat="39.8061558790504932403564453125" lon="-0.42884171940386295318603515625">
        <ele>283.79998779296875</ele>
        <time>2022-05-07T09:07:54.000Z</time>
      </trkpt>
      <trkpt lat="39.80612209998071193695068359375" lon="-0.42877282015979290008544921875">
        <ele>283.20001220703125</ele>
        <time>2022-05-07T09:07:55.000Z</time>
      </trkpt>
      <trkpt lat="39.80609460733830928802490234375" lon="-0.42871498502790927886962890625">
        <ele>282.600006103515625</ele>
        <time>2022-05-07T09:07:56.000Z</time>
      </trkpt>
      <trkpt lat="39.80606761761009693145751953125" lon="-0.42866452597081661224365234375">
        <ele>282.20001220703125</ele>
        <time>2022-05-07T09:07:57.000Z</time>
      </trkpt>
      <trkpt lat="39.80603693984448909759521484375" lon="-0.4286171682178974151611328125">
        <ele>281.600006103515625</ele>
        <time>2022-05-07T09:07:58.000Z</time>
      </trkpt>
      <trkpt lat="39.80600642971694469451904296875" lon="-0.42857031337916851043701171875">
        <ele>281.20001220703125</ele>
        <time>2022-05-07T09:07:59.000Z</time>
      </trkpt>
      <trkpt lat="39.80595194734632968902587890625" lon="-0.42847425676882266998291015625">
        <ele>280.20001220703125</ele>
        <time>2022-05-07T09:08:01.000Z</time>
      </trkpt>
      <trkpt lat="39.8058598302304744720458984375" lon="-0.42829790152609348297119140625">
        <ele>278.20001220703125</ele>
        <time>2022-05-07T09:08:04.000Z</time>
      </trkpt>
      <trkpt lat="39.8058299906551837921142578125" lon="-0.4282346181571483612060546875">
        <ele>277.600006103515625</ele>
        <time>2022-05-07T09:08:05.000Z</time>
      </trkpt>
      <trkpt lat="39.80572563596069812774658203125" lon="-0.428150631487369537353515625">
        <ele>276.20001220703125</ele>
        <time>2022-05-07T09:08:08.000Z</time>
      </trkpt>
      <trkpt lat="39.8056864924728870391845703125" lon="-0.4281585104763507843017578125">
        <ele>276</ele>
        <time>2022-05-07T09:08:09.000Z</time>
      </trkpt>
      <trkpt lat="39.80560242198407649993896484375" lon="-0.4281642101705074310302734375">
        <ele>275.79998779296875</ele>
        <time>2022-05-07T09:08:11.000Z</time>
      </trkpt>
      <trkpt lat="39.80550502426922321319580078125" lon="-0.4281373880803585052490234375">
        <ele>275</ele>
        <time>2022-05-07T09:08:13.000Z</time>
      </trkpt>
      <trkpt lat="39.80544987134635448455810546875" lon="-0.42811886407434940338134765625">
        <ele>274.600006103515625</ele>
        <time>2022-05-07T09:08:14.000Z</time>
      </trkpt>
      <trkpt lat="39.8053907789289951324462890625" lon="-0.4281006753444671630859375">
        <ele>274.20001220703125</ele>
        <time>2022-05-07T09:08:15.000Z</time>
      </trkpt>
      <trkpt lat="39.80514426715672016143798828125" lon="-0.42803739197552204132080078125">
        <ele>270.600006103515625</ele>
        <time>2022-05-07T09:08:19.000Z</time>
      </trkpt>
      <trkpt lat="39.8048543371260166168212890625" lon="-0.4279630444943904876708984375">
        <ele>267.399993896484375</ele>
        <time>2022-05-07T09:08:24.000Z</time>
      </trkpt>
      <trkpt lat="39.80479759164154529571533203125" lon="-0.42793949134647846221923828125">
        <ele>266.79998779296875</ele>
        <time>2022-05-07T09:08:25.000Z</time>
      </trkpt>
      <trkpt lat="39.80459533631801605224609375" lon="-0.42781124822795391082763671875">
        <ele>265.600006103515625</ele>
        <time>2022-05-07T09:08:29.000Z</time>
      </trkpt>
      <trkpt lat="39.8042786680161952972412109375" lon="-0.42767965234816074371337890625">
        <ele>265</ele>
        <time>2022-05-07T09:08:35.000Z</time>
      </trkpt>
      <trkpt lat="39.8039376921951770782470703125" lon="-0.4275335557758808135986328125">
        <ele>265</ele>
        <time>2022-05-07T09:08:42.000Z</time>
      </trkpt>
      <trkpt lat="39.80358473025262355804443359375" lon="-0.42743221856653690338134765625">
        <ele>265.79998779296875</ele>
        <time>2022-05-07T09:08:48.000Z</time>
      </trkpt>
      <trkpt lat="39.8035229556262493133544921875" lon="-0.4273967631161212921142578125">
        <ele>266.399993896484375</ele>
        <time>2022-05-07T09:08:49.000Z</time>
      </trkpt>
      <trkpt lat="39.80335070751607418060302734375" lon="-0.42725083418190479278564453125">
        <ele>265.399993896484375</ele>
        <time>2022-05-07T09:08:52.000Z</time>
      </trkpt>
      <trkpt lat="39.80296078138053417205810546875" lon="-0.42694506235420703887939453125">
        <ele>261.79998779296875</ele>
        <time>2022-05-07T09:08:59.000Z</time>
      </trkpt>
      <trkpt lat="39.80260723270475864410400390625" lon="-0.42668052949011325836181640625">
        <ele>263</ele>
        <time>2022-05-07T09:09:06.000Z</time>
      </trkpt>
      <trkpt lat="39.802321828901767730712890625" lon="-0.42646092362701892852783203125">
        <ele>261.20001220703125</ele>
        <time>2022-05-07T09:09:11.000Z</time>
      </trkpt>
      <trkpt lat="39.8022101819515228271484375" lon="-0.42633913457393646240234375">
        <ele>260</ele>
        <time>2022-05-07T09:09:13.000Z</time>
      </trkpt>
      <trkpt lat="39.80209442786872386932373046875" lon="-0.42622111737728118896484375">
        <ele>259.399993896484375</ele>
        <time>2022-05-07T09:09:15.000Z</time>
      </trkpt>
      <trkpt lat="39.8019810207188129425048828125" lon="-0.42611374519765377044677734375">
        <ele>260.399993896484375</ele>
        <time>2022-05-07T09:09:17.000Z</time>
      </trkpt>
      <trkpt lat="39.80164700187742710113525390625" lon="-0.42575952596962451934814453125">
        <ele>262.20001220703125</ele>
        <time>2022-05-07T09:09:24.000Z</time>
      </trkpt>
      <trkpt lat="39.801441393792629241943359375" lon="-0.4254734516143798828125">
        <ele>256.399993896484375</ele>
        <time>2022-05-07T09:09:29.000Z</time>
      </trkpt>
      <trkpt lat="39.80131625197827816009521484375" lon="-0.42531059123575687408447265625">
        <ele>255.600006103515625</ele>
        <time>2022-05-07T09:09:32.000Z</time>
      </trkpt>
      <trkpt lat="39.801193960011005401611328125" lon="-0.42515753768384456634521484375">
        <ele>256.20001220703125</ele>
        <time>2022-05-07T09:09:35.000Z</time>
      </trkpt>
      <trkpt lat="39.80097142048180103302001953125" lon="-0.42480113916099071502685546875">
        <ele>259.20001220703125</ele>
        <time>2022-05-07T09:09:41.000Z</time>
      </trkpt>
      <trkpt lat="39.80069599114358425140380859375" lon="-0.424400903284549713134765625">
        <ele>261.79998779296875</ele>
        <time>2022-05-07T09:09:48.000Z</time>
      </trkpt>
      <trkpt lat="39.8004940710961818695068359375" lon="-0.4241140745580196380615234375">
        <ele>264.399993896484375</ele>
        <time>2022-05-07T09:09:53.000Z</time>
      </trkpt>
      <trkpt lat="39.8002446256577968597412109375" lon="-0.42361929081380367279052734375">
        <ele>267.600006103515625</ele>
        <time>2022-05-07T09:10:00.000Z</time>
      </trkpt>
      <trkpt lat="39.7999616526067256927490234375" lon="-0.4230395145714282989501953125">
        <ele>270</ele>
        <time>2022-05-07T09:10:08.000Z</time>
      </trkpt>
      <trkpt lat="39.79984874837100505828857421875" lon="-0.42282007634639739990234375">
        <ele>270.399993896484375</ele>
        <time>2022-05-07T09:10:11.000Z</time>
      </trkpt>
      <trkpt lat="39.79966669343411922454833984375" lon="-0.422455631196498870849609375">
        <ele>270.399993896484375</ele>
        <time>2022-05-07T09:10:16.000Z</time>
      </trkpt>
      <trkpt lat="39.7993772663176059722900390625" lon="-0.42187216691672801971435546875">
        <ele>270</ele>
        <time>2022-05-07T09:10:24.000Z</time>
      </trkpt>
      <trkpt lat="39.799261428415775299072265625" lon="-0.4216508008539676666259765625">
        <ele>270</ele>
        <time>2022-05-07T09:10:27.000Z</time>
      </trkpt>
      <trkpt lat="39.79915606789290904998779296875" lon="-0.421404205262660980224609375">
        <ele>270.399993896484375</ele>
        <time>2022-05-07T09:10:30.000Z</time>
      </trkpt>
      <trkpt lat="39.79904509149491786956787109375" lon="-0.421173870563507080078125">
        <ele>270.20001220703125</ele>
        <time>2022-05-07T09:10:33.000Z</time>
      </trkpt>
      <trkpt lat="39.79894283227622509002685546875" lon="-0.4209691844880580902099609375">
        <ele>269.600006103515625</ele>
        <time>2022-05-07T09:10:36.000Z</time>
      </trkpt>
      <trkpt lat="39.798700176179409027099609375" lon="-0.4205261170864105224609375">
        <ele>268.399993896484375</ele>
        <time>2022-05-07T09:10:43.000Z</time>
      </trkpt>
      <trkpt lat="39.79857620783150196075439453125" lon="-0.42035303078591823577880859375">
        <ele>268</ele>
        <time>2022-05-07T09:10:46.000Z</time>
      </trkpt>
      <trkpt lat="39.798528514802455902099609375" lon="-0.4203034937381744384765625">
        <ele>268</ele>
        <time>2022-05-07T09:10:47.000Z</time>
      </trkpt>
      <trkpt lat="39.79847545735538005828857421875" lon="-0.4202674515545368194580078125">
        <ele>268.20001220703125</ele>
        <time>2022-05-07T09:10:48.000Z</time>
      </trkpt>
      <trkpt lat="39.79831636883318424224853515625" lon="-0.42027658782899379730224609375">
        <ele>269.20001220703125</ele>
        <time>2022-05-07T09:10:51.000Z</time>
      </trkpt>
      <trkpt lat="39.798238836228847503662109375" lon="-0.42033098638057708740234375">
        <ele>270</ele>
        <time>2022-05-07T09:10:53.000Z</time>
      </trkpt>
      <trkpt lat="39.7982048057019710540771484375" lon="-0.42035168968141078948974609375">
        <ele>270.20001220703125</ele>
        <time>2022-05-07T09:10:54.000Z</time>
      </trkpt>
      <trkpt lat="39.79813649319112300872802734375" lon="-0.42036342434585094451904296875">
        <ele>270.79998779296875</ele>
        <time>2022-05-07T09:10:56.000Z</time>
      </trkpt>
      <trkpt lat="39.7980291210114955902099609375" lon="-0.42027574963867664337158203125">
        <ele>270.79998779296875</ele>
        <time>2022-05-07T09:10:59.000Z</time>
      </trkpt>
      <trkpt lat="39.79799634777009487152099609375" lon="-0.42023199610412120819091796875">
        <ele>270.600006103515625</ele>
        <time>2022-05-07T09:11:00.000Z</time>
      </trkpt>
      <trkpt lat="39.79790188372135162353515625" lon="-0.42008154094219207763671875">
        <ele>270</ele>
        <time>2022-05-07T09:11:03.000Z</time>
      </trkpt>
      <trkpt lat="39.79783189482986927032470703125" lon="-0.41997416876256465911865234375">
        <ele>269.399993896484375</ele>
        <time>2022-05-07T09:11:05.000Z</time>
      </trkpt>
      <trkpt lat="39.79755814187228679656982421875" lon="-0.41957837529480457305908203125">
        <ele>268.600006103515625</ele>
        <time>2022-05-07T09:11:12.000Z</time>
      </trkpt>
      <trkpt lat="39.79738153517246246337890625" lon="-0.4193303547799587249755859375">
        <ele>268.79998779296875</ele>
        <time>2022-05-07T09:11:16.000Z</time>
      </trkpt>
      <trkpt lat="39.7972056828439235687255859375" lon="-0.41907160542905330657958984375">
        <ele>268</ele>
        <time>2022-05-07T09:11:20.000Z</time>
      </trkpt>
      <trkpt lat="39.79703008197247982025146484375" lon="-0.4188217408955097198486328125">
        <ele>267.20001220703125</ele>
        <time>2022-05-07T09:11:24.000Z</time>
      </trkpt>
      <trkpt lat="39.79684232734143733978271484375" lon="-0.418550334870815277099609375">
        <ele>266.399993896484375</ele>
        <time>2022-05-07T09:11:28.000Z</time>
      </trkpt>
      <trkpt lat="39.7965954802930355072021484375" lon="-0.41817742399871349334716796875">
        <ele>265.79998779296875</ele>
        <time>2022-05-07T09:11:33.000Z</time>
      </trkpt>
      <trkpt lat="39.79649699293076992034912109375" lon="-0.41803744621574878692626953125">
        <ele>265.79998779296875</ele>
        <time>2022-05-07T09:11:35.000Z</time>
      </trkpt>
      <trkpt lat="39.79625701904296875" lon="-0.4176868312060832977294921875">
        <ele>266</ele>
        <time>2022-05-07T09:11:40.000Z</time>
      </trkpt>
      <trkpt lat="39.79606348089873790740966796875" lon="-0.4174021817743778228759765625">
        <ele>266</ele>
        <time>2022-05-07T09:11:44.000Z</time>
      </trkpt>
      <trkpt lat="39.7959601320326328277587890625" lon="-0.41725541464984416961669921875">
        <ele>266</ele>
        <time>2022-05-07T09:11:46.000Z</time>
      </trkpt>
      <trkpt lat="39.795652516186237335205078125" lon="-0.41681301780045032501220703125">
        <ele>266.600006103515625</ele>
        <time>2022-05-07T09:11:52.000Z</time>
      </trkpt>
      <trkpt lat="39.79545126669108867645263671875" lon="-0.41651344858109951019287109375">
        <ele>266.600006103515625</ele>
        <time>2022-05-07T09:11:56.000Z</time>
      </trkpt>
      <trkpt lat="39.79540030471980571746826171875" lon="-0.41643834672868251800537109375">
        <ele>266.600006103515625</ele>
        <time>2022-05-07T09:11:57.000Z</time>
      </trkpt>
      <trkpt lat="39.79514013044536113739013671875" lon="-0.4160731472074985504150390625">
        <ele>263.399993896484375</ele>
        <time>2022-05-07T09:12:02.000Z</time>
      </trkpt>
      <trkpt lat="39.79509503580629825592041015625" lon="-0.4159987159073352813720703125">
        <ele>262.600006103515625</ele>
        <time>2022-05-07T09:12:03.000Z</time>
      </trkpt>
      <trkpt lat="39.79469354264438152313232421875" lon="-0.41541181504726409912109375">
        <ele>259.20001220703125</ele>
        <time>2022-05-07T09:12:11.000Z</time>
      </trkpt>
      <trkpt lat="39.79464358650147914886474609375" lon="-0.41533964686095714569091796875">
        <ele>259</ele>
        <time>2022-05-07T09:12:12.000Z</time>
      </trkpt>
      <trkpt lat="39.79434334672987461090087890625" lon="-0.41490353643894195556640625">
        <ele>259.20001220703125</ele>
        <time>2022-05-07T09:12:18.000Z</time>
      </trkpt>
      <trkpt lat="39.79396230541169643402099609375" lon="-0.4143437929451465606689453125">
        <ele>259.399993896484375</ele>
        <time>2022-05-07T09:12:26.000Z</time>
      </trkpt>
      <trkpt lat="39.79362149722874164581298828125" lon="-0.4139270447194576263427734375">
        <ele>259.79998779296875</ele>
        <time>2022-05-07T09:12:33.000Z</time>
      </trkpt>
      <trkpt lat="39.79339820332825183868408203125" lon="-0.41369830258190631866455078125">
        <ele>259</ele>
        <time>2022-05-07T09:12:37.000Z</time>
      </trkpt>
      <trkpt lat="39.79328370653092861175537109375" lon="-0.41358900256454944610595703125">
        <ele>258.600006103515625</ele>
        <time>2022-05-07T09:12:39.000Z</time>
      </trkpt>
      <trkpt lat="39.79291255585849285125732421875" lon="-0.413288176059722900390625">
        <ele>257.20001220703125</ele>
        <time>2022-05-07T09:12:45.000Z</time>
      </trkpt>
      <trkpt lat="39.79244668968021869659423828125" lon="-0.41299874894320964813232421875">
        <ele>256.600006103515625</ele>
        <time>2022-05-07T09:12:52.000Z</time>
      </trkpt>
      <trkpt lat="39.792168997228145599365234375" lon="-0.4128243215382099151611328125">
        <ele>257.20001220703125</ele>
        <time>2022-05-07T09:12:56.000Z</time>
      </trkpt>
      <trkpt lat="39.79210118763148784637451171875" lon="-0.41278048418462276458740234375">
        <ele>257.20001220703125</ele>
        <time>2022-05-07T09:12:57.000Z</time>
      </trkpt>
      <trkpt lat="39.79184838943183422088623046875" lon="-0.412592478096485137939453125">
        <ele>256.20001220703125</ele>
        <time>2022-05-07T09:13:02.000Z</time>
      </trkpt>
      <trkpt lat="39.791800864040851593017578125" lon="-0.41255794465541839599609375">
        <ele>255.8000030517578125</ele>
        <time>2022-05-07T09:13:03.000Z</time>
      </trkpt>
      <trkpt lat="39.79158662259578704833984375" lon="-0.41244118474423885345458984375">
        <ele>254.600006103515625</ele>
        <time>2022-05-07T09:13:07.000Z</time>
      </trkpt>
      <trkpt lat="39.79148310609161853790283203125" lon="-0.412372536957263946533203125">
        <ele>253.600006103515625</ele>
        <time>2022-05-07T09:13:09.000Z</time>
      </trkpt>
      <trkpt lat="39.79125075973570346832275390625" lon="-0.4122315533459186553955078125">
        <ele>251.600006103515625</ele>
        <time>2022-05-07T09:13:13.000Z</time>
      </trkpt>
      <trkpt lat="39.79089729487895965576171875" lon="-0.412023179233074188232421875">
        <ele>251</ele>
        <time>2022-05-07T09:13:19.000Z</time>
      </trkpt>
      <trkpt lat="39.790703170001506805419921875" lon="-0.41188311763107776641845703125">
        <ele>251</ele>
        <time>2022-05-07T09:13:22.000Z</time>
      </trkpt>
      <trkpt lat="39.79038775898516178131103515625" lon="-0.4116676189005374908447265625">
        <ele>250.8000030517578125</ele>
        <time>2022-05-07T09:13:27.000Z</time>
      </trkpt>
      <trkpt lat="39.78989372961223125457763671875" lon="-0.41134147904813289642333984375">
        <ele>254.600006103515625</ele>
        <time>2022-05-07T09:13:35.000Z</time>
      </trkpt>
      <trkpt lat="39.78983103297650814056396484375" lon="-0.4113021679222583770751953125">
        <ele>255.1999969482421875</ele>
        <time>2022-05-07T09:13:36.000Z</time>
      </trkpt>
      <trkpt lat="39.78976682759821414947509765625" lon="-0.41126201860606670379638671875">
        <ele>255.8000030517578125</ele>
        <time>2022-05-07T09:13:37.000Z</time>
      </trkpt>
      <trkpt lat="39.7893786616623401641845703125" lon="-0.4110098071396350860595703125">
        <ele>257</ele>
        <time>2022-05-07T09:13:43.000Z</time>
      </trkpt>
      <trkpt lat="39.7889196686446666717529296875" lon="-0.41071786545217037200927734375">
        <ele>256.20001220703125</ele>
        <time>2022-05-07T09:13:50.000Z</time>
      </trkpt>
      <trkpt lat="39.78850685991346836090087890625" lon="-0.410449393093585968017578125">
        <ele>253.8000030517578125</ele>
        <time>2022-05-07T09:13:56.000Z</time>
      </trkpt>
      <trkpt lat="39.78822581470012664794921875" lon="-0.41027940809726715087890625">
        <ele>251.8000030517578125</ele>
        <time>2022-05-07T09:14:00.000Z</time>
      </trkpt>
      <trkpt lat="39.78808273561298847198486328125" lon="-0.41019198484718799591064453125">
        <ele>250.8000030517578125</ele>
        <time>2022-05-07T09:14:02.000Z</time>
      </trkpt>
      <trkpt lat="39.7876627184450626373291015625" lon="-0.40989476256072521209716796875">
        <ele>247.1999969482421875</ele>
        <time>2022-05-07T09:14:08.000Z</time>
      </trkpt>
      <trkpt lat="39.78732517920434474945068359375" lon="-0.409640371799468994140625">
        <ele>245.399993896484375</ele>
        <time>2022-05-07T09:14:13.000Z</time>
      </trkpt>
      <trkpt lat="39.78720791637897491455078125" lon="-0.40952545590698719024658203125">
        <ele>244.399993896484375</ele>
        <time>2022-05-07T09:14:15.000Z</time>
      </trkpt>
      <trkpt lat="39.78709970600903034210205078125" lon="-0.4094068519771099090576171875">
        <ele>243.8000030517578125</ele>
        <time>2022-05-07T09:14:17.000Z</time>
      </trkpt>
      <trkpt lat="39.78696006350219249725341796875" lon="-0.40920744650065898895263671875">
        <ele>244.1999969482421875</ele>
        <time>2022-05-07T09:14:20.000Z</time>
      </trkpt>
      <trkpt lat="39.7868389450013637542724609375" lon="-0.40898297913372516632080078125">
        <ele>245</ele>
        <time>2022-05-07T09:14:23.000Z</time>
      </trkpt>
      <trkpt lat="39.786736182868480682373046875" lon="-0.40874275378882884979248046875">
        <ele>246.1999969482421875</ele>
        <time>2022-05-07T09:14:26.000Z</time>
      </trkpt>
      <trkpt lat="39.786705672740936279296875" lon="-0.4086595214903354644775390625">
        <ele>246.600006103515625</ele>
        <time>2022-05-07T09:14:27.000Z</time>
      </trkpt>
      <trkpt lat="39.786636270582675933837890625" lon="-0.40839943103492259979248046875">
        <ele>247</ele>
        <time>2022-05-07T09:14:30.000Z</time>
      </trkpt>
      <trkpt lat="39.7866169922053813934326171875" lon="-0.40830957703292369842529296875">
        <ele>247.1999969482421875</ele>
        <time>2022-05-07T09:14:31.000Z</time>
      </trkpt>
      <trkpt lat="39.78654029779136180877685546875" lon="-0.4079546034336090087890625">
        <ele>248.600006103515625</ele>
        <time>2022-05-07T09:14:35.000Z</time>
      </trkpt>
      <trkpt lat="39.78649872355163097381591796875" lon="-0.4077036492526531219482421875">
        <ele>249.1999969482421875</ele>
        <time>2022-05-07T09:14:38.000Z</time>
      </trkpt>
      <trkpt lat="39.78640995919704437255859375" lon="-0.40723233483731746673583984375">
        <ele>250.399993896484375</ele>
        <time>2022-05-07T09:14:44.000Z</time>
      </trkpt>
      <trkpt lat="39.78637618012726306915283203125" lon="-0.40708548389375209808349609375">
        <ele>250.8000030517578125</ele>
        <time>2022-05-07T09:14:46.000Z</time>
      </trkpt>
      <trkpt lat="39.78630828671157360076904296875" lon="-0.4067370481789112091064453125">
        <ele>251.8000030517578125</ele>
        <time>2022-05-07T09:14:51.000Z</time>
      </trkpt>
      <trkpt lat="39.78623787872493267059326171875" lon="-0.40639732964336872100830078125">
        <ele>252.600006103515625</ele>
        <time>2022-05-07T09:14:56.000Z</time>
      </trkpt>
      <trkpt lat="39.78622111491858959197998046875" lon="-0.4063316993415355682373046875">
        <ele>253</ele>
        <time>2022-05-07T09:14:57.000Z</time>
      </trkpt>
      <trkpt lat="39.786152131855487823486328125" lon="-0.405933894217014312744140625">
        <ele>253.399993896484375</ele>
        <time>2022-05-07T09:15:03.000Z</time>
      </trkpt>
      <trkpt lat="39.78608784265816211700439453125" lon="-0.40562636218965053558349609375">
        <ele>254</ele>
        <time>2022-05-07T09:15:08.000Z</time>
      </trkpt>
      <trkpt lat="39.7860657982528209686279296875" lon="-0.4055085964500904083251953125">
        <ele>253.399993896484375</ele>
        <time>2022-05-07T09:15:10.000Z</time>
      </trkpt>
      <trkpt lat="39.78601575829088687896728515625" lon="-0.40527868084609508514404296875">
        <ele>254.399993896484375</ele>
        <time>2022-05-07T09:15:14.000Z</time>
      </trkpt>
      <trkpt lat="39.78596345521509647369384765625" lon="-0.40503627620637416839599609375">
        <ele>255.600006103515625</ele>
        <time>2022-05-07T09:15:18.000Z</time>
      </trkpt>
      <trkpt lat="39.78592188097536563873291015625" lon="-0.40484818629920482635498046875">
        <ele>255.600006103515625</ele>
        <time>2022-05-07T09:15:21.000Z</time>
      </trkpt>
      <trkpt lat="39.785908721387386322021484375" lon="-0.4047823883593082427978515625">
        <ele>255</ele>
        <time>2022-05-07T09:15:22.000Z</time>
      </trkpt>
      <trkpt lat="39.785832278430461883544921875" lon="-0.40446043945848941802978515625">
        <ele>252.600006103515625</ele>
        <time>2022-05-07T09:15:27.000Z</time>
      </trkpt>
      <trkpt lat="39.78576748631894588470458984375" lon="-0.40405995212495326995849609375">
        <ele>249.399993896484375</ele>
        <time>2022-05-07T09:15:33.000Z</time>
      </trkpt>
      <trkpt lat="39.78567235171794891357421875" lon="-0.40357614867389202117919921875">
        <ele>244.399993896484375</ele>
        <time>2022-05-07T09:15:40.000Z</time>
      </trkpt>
      <trkpt lat="39.7856014408171176910400390625" lon="-0.4030808620154857635498046875">
        <ele>244</ele>
        <time>2022-05-07T09:15:47.000Z</time>
      </trkpt>
      <trkpt lat="39.785579480230808258056640625" lon="-0.4027566500008106231689453125">
        <ele>244.399993896484375</ele>
        <time>2022-05-07T09:15:52.000Z</time>
      </trkpt>
      <trkpt lat="39.7855766303837299346923828125" lon="-0.4026989825069904327392578125">
        <ele>244.399993896484375</ele>
        <time>2022-05-07T09:15:53.000Z</time>
      </trkpt>
      <trkpt lat="39.785591550171375274658203125" lon="-0.40236043743789196014404296875">
        <ele>244.8000030517578125</ele>
        <time>2022-05-07T09:15:58.000Z</time>
      </trkpt>
      <trkpt lat="39.78566673584282398223876953125" lon="-0.4019322060048580169677734375">
        <ele>245.8000030517578125</ele>
        <time>2022-05-07T09:16:05.000Z</time>
      </trkpt>
      <trkpt lat="39.78573161177337169647216796875" lon="-0.40166004560887813568115234375">
        <ele>245.399993896484375</ele>
        <time>2022-05-07T09:16:10.000Z</time>
      </trkpt>
      <trkpt lat="39.7857439331710338592529296875" lon="-0.4016031324863433837890625">
        <ele>245</ele>
        <time>2022-05-07T09:16:11.000Z</time>
      </trkpt>
      <trkpt lat="39.78585482574999332427978515625" lon="-0.4011632502079010009765625">
        <ele>244.8000030517578125</ele>
        <time>2022-05-07T09:16:19.000Z</time>
      </trkpt>
      <trkpt lat="39.7858857549726963043212890625" lon="-0.4010511003434658050537109375">
        <ele>245.8000030517578125</ele>
        <time>2022-05-07T09:16:21.000Z</time>
      </trkpt>
      <trkpt lat="39.78592255152761936187744140625" lon="-0.40087332017719745635986328125">
        <ele>247.1999969482421875</ele>
        <time>2022-05-07T09:16:24.000Z</time>
      </trkpt>
      <trkpt lat="39.78596429340541362762451171875" lon="-0.40069076232612133026123046875">
        <ele>248.600006103515625</ele>
        <time>2022-05-07T09:16:27.000Z</time>
      </trkpt>
      <trkpt lat="39.78598960675299167633056640625" lon="-0.40057056583464145660400390625">
        <ele>249.1999969482421875</ele>
        <time>2022-05-07T09:16:29.000Z</time>
      </trkpt>
      <trkpt lat="39.78600838221609592437744140625" lon="-0.4005114734172821044921875">
        <ele>249.600006103515625</ele>
        <time>2022-05-07T09:16:30.000Z</time>
      </trkpt>
      <trkpt lat="39.786051213741302490234375" lon="-0.40033151395618915557861328125">
        <ele>251.1999969482421875</ele>
        <time>2022-05-07T09:16:33.000Z</time>
      </trkpt>
      <trkpt lat="39.78606102056801319122314453125" lon="-0.40027418173849582672119140625">
        <ele>251.8000030517578125</ele>
        <time>2022-05-07T09:16:34.000Z</time>
      </trkpt>
      <trkpt lat="39.7861134074628353118896484375" lon="-0.40009665302932262420654296875">
        <ele>253.600006103515625</ele>
        <time>2022-05-07T09:16:37.000Z</time>
      </trkpt>
      <trkpt lat="39.78612430393695831298828125" lon="-0.40003336966037750244140625">
        <ele>254.1999969482421875</ele>
        <time>2022-05-07T09:16:38.000Z</time>
      </trkpt>
      <trkpt lat="39.786137379705905914306640625" lon="-0.3999725170433521270751953125">
        <ele>254.8000030517578125</ele>
        <time>2022-05-07T09:16:39.000Z</time>
      </trkpt>
      <trkpt lat="39.78617266751825809478759765625" lon="-0.39978015236556529998779296875">
        <ele>256.600006103515625</ele>
        <time>2022-05-07T09:16:42.000Z</time>
      </trkpt>
      <trkpt lat="39.78618976660072803497314453125" lon="-0.3997167013585567474365234375">
        <ele>257.20001220703125</ele>
        <time>2022-05-07T09:16:43.000Z</time>
      </trkpt>
      <trkpt lat="39.78623067028820514678955078125" lon="-0.399524755775928497314453125">
        <ele>258.20001220703125</ele>
        <time>2022-05-07T09:16:46.000Z</time>
      </trkpt>
      <trkpt lat="39.78625900112092494964599609375" lon="-0.39939098060131072998046875">
        <ele>258.399993896484375</ele>
        <time>2022-05-07T09:16:48.000Z</time>
      </trkpt>
      <trkpt lat="39.78634558618068695068359375" lon="-0.399031229317188262939453125">
        <ele>258.600006103515625</ele>
        <time>2022-05-07T09:16:53.000Z</time>
      </trkpt>
      <trkpt lat="39.78642311878502368927001953125" lon="-0.39875001646578311920166015625">
        <ele>258.600006103515625</ele>
        <time>2022-05-07T09:16:57.000Z</time>
      </trkpt>
      <trkpt lat="39.78646167553961277008056640625" lon="-0.3985365293920040130615234375">
        <ele>258.399993896484375</ele>
        <time>2022-05-07T09:17:00.000Z</time>
      </trkpt>
      <trkpt lat="39.7865348495543003082275390625" lon="-0.39820049889385700225830078125">
        <ele>257.600006103515625</ele>
        <time>2022-05-07T09:17:05.000Z</time>
      </trkpt>
      <trkpt lat="39.78659369051456451416015625" lon="-0.3979337029159069061279296875">
        <ele>256.79998779296875</ele>
        <time>2022-05-07T09:17:09.000Z</time>
      </trkpt>
      <trkpt lat="39.786612801253795623779296875" lon="-0.39786421693861484527587890625">
        <ele>256.399993896484375</ele>
        <time>2022-05-07T09:17:10.000Z</time>
      </trkpt>
      <trkpt lat="39.78670374490320682525634765625" lon="-0.397504381835460662841796875">
        <ele>254.600006103515625</ele>
        <time>2022-05-07T09:17:16.000Z</time>
      </trkpt>
      <trkpt lat="39.78678136132657527923583984375" lon="-0.39724043570458889007568359375">
        <ele>252.8000030517578125</ele>
        <time>2022-05-07T09:17:22.000Z</time>
      </trkpt>
      <trkpt lat="39.786848835647106170654296875" lon="-0.39719559252262115478515625">
        <ele>252</ele>
        <time>2022-05-07T09:17:24.000Z</time>
      </trkpt>
      <trkpt lat="39.7868915833532810211181640625" lon="-0.3971893899142742156982421875">
        <ele>251.600006103515625</ele>
        <time>2022-05-07T09:17:25.000Z</time>
      </trkpt>
      <trkpt lat="39.78693424724042415618896484375" lon="-0.3971962630748748779296875">
        <ele>251.1999969482421875</ele>
        <time>2022-05-07T09:17:26.000Z</time>
      </trkpt>
      <trkpt lat="39.78708025999367237091064453125" lon="-0.3972279466688632965087890625">
        <ele>250</ele>
        <time>2022-05-07T09:17:29.000Z</time>
      </trkpt>
      <trkpt lat="39.787131808698177337646484375" lon="-0.397232472896575927734375">
        <ele>249.8000030517578125</ele>
        <time>2022-05-07T09:17:30.000Z</time>
      </trkpt>
      <trkpt lat="39.787183441221714019775390625" lon="-0.3972343169152736663818359375">
        <ele>249.600006103515625</ele>
        <time>2022-05-07T09:17:31.000Z</time>
      </trkpt>
      <trkpt lat="39.78728813119232654571533203125" lon="-0.3972239233553409576416015625">
        <ele>249</ele>
        <time>2022-05-07T09:17:33.000Z</time>
      </trkpt>
      <trkpt lat="39.78744202293455600738525390625" lon="-0.39715267717838287353515625">
        <ele>248.1999969482421875</ele>
        <time>2022-05-07T09:17:36.000Z</time>
      </trkpt>
      <trkpt lat="39.7875400073826313018798828125" lon="-0.39697791449725627899169921875">
        <ele>248</ele>
        <time>2022-05-07T09:17:40.000Z</time>
      </trkpt>
      <trkpt lat="39.78756062686443328857421875" lon="-0.39676132611930370330810546875">
        <ele>248.399993896484375</ele>
        <time>2022-05-07T09:17:44.000Z</time>
      </trkpt>
      <trkpt lat="39.7875651530921459197998046875" lon="-0.39671170525252819061279296875">
        <ele>248.600006103515625</ele>
        <time>2022-05-07T09:17:45.000Z</time>
      </trkpt>
      <trkpt lat="39.78754327632486820220947265625" lon="-0.396496541798114776611328125">
        <ele>249.1999969482421875</ele>
        <time>2022-05-07T09:17:49.000Z</time>
      </trkpt>
      <trkpt lat="39.78753187693655490875244140625" lon="-0.39630987681448459625244140625">
        <ele>249.600006103515625</ele>
        <time>2022-05-07T09:17:52.000Z</time>
      </trkpt>
      <trkpt lat="39.78752450086176395416259765625" lon="-0.3961966373026371002197265625">
        <ele>249.8000030517578125</ele>
        <time>2022-05-07T09:17:54.000Z</time>
      </trkpt>
      <trkpt lat="39.7875063121318817138671875" lon="-0.39603629149496555328369140625">
        <ele>249.8000030517578125</ele>
        <time>2022-05-07T09:17:57.000Z</time>
      </trkpt>
      <trkpt lat="39.78750488720834255218505859375" lon="-0.3957869298756122589111328125">
        <ele>249.8000030517578125</ele>
        <time>2022-05-07T09:18:02.000Z</time>
      </trkpt>
      <trkpt lat="39.78747546672821044921875" lon="-0.3955153562128543853759765625">
        <ele>250.399993896484375</ele>
        <time>2022-05-07T09:18:07.000Z</time>
      </trkpt>
      <trkpt lat="39.78747068904340267181396484375" lon="-0.3954563476145267486572265625">
        <ele>250.399993896484375</ele>
        <time>2022-05-07T09:18:08.000Z</time>
      </trkpt>
      <trkpt lat="39.78746448643505573272705078125" lon="-0.3953339718282222747802734375">
        <ele>250.600006103515625</ele>
        <time>2022-05-07T09:18:10.000Z</time>
      </trkpt>
      <trkpt lat="39.78748493827879428863525390625" lon="-0.39502241648733615875244140625">
        <ele>250.399993896484375</ele>
        <time>2022-05-07T09:18:15.000Z</time>
      </trkpt>
      <trkpt lat="39.787484519183635711669921875" lon="-0.39469418115913867950439453125">
        <ele>249.600006103515625</ele>
        <time>2022-05-07T09:18:21.000Z</time>
      </trkpt>
      <trkpt lat="39.78747471235692501068115234375" lon="-0.39446954615414142608642578125">
        <ele>249.600006103515625</ele>
        <time>2022-05-07T09:18:27.000Z</time>
      </trkpt>
      <trkpt lat="39.78743632324039936065673828125" lon="-0.39424440823495388031005859375">
        <ele>250.1999969482421875</ele>
        <time>2022-05-07T09:18:32.000Z</time>
      </trkpt>
      <trkpt lat="39.78733372874557971954345703125" lon="-0.39407928474247455596923828125">
        <ele>251</ele>
        <time>2022-05-07T09:18:37.000Z</time>
      </trkpt>
      <trkpt lat="39.78731118142604827880859375" lon="-0.3940553963184356689453125">
        <ele>251.1999969482421875</ele>
        <time>2022-05-07T09:18:38.000Z</time>
      </trkpt>
      <trkpt lat="39.78722174651920795440673828125" lon="-0.39398339577019214630126953125">
        <ele>251.8000030517578125</ele>
        <time>2022-05-07T09:18:42.000Z</time>
      </trkpt>
      <trkpt lat="39.78717313148081302642822265625" lon="-0.3939533047378063201904296875">
        <ele>252</ele>
        <time>2022-05-07T09:18:44.000Z</time>
      </trkpt>
      <trkpt lat="39.78708528913557529449462890625" lon="-0.39384190924465656280517578125">
        <ele>252.8000030517578125</ele>
        <time>2022-05-07T09:18:48.000Z</time>
      </trkpt>
      <trkpt lat="39.78706249035894870758056640625" lon="-0.3937910310924053192138671875">
        <ele>252.8000030517578125</ele>
        <time>2022-05-07T09:18:49.000Z</time>
      </trkpt>
      <trkpt lat="39.78700968436896800994873046875" lon="-0.39356647990643978118896484375">
        <ele>253.600006103515625</ele>
        <time>2022-05-07T09:18:52.000Z</time>
      </trkpt>
      <trkpt lat="39.786990322172641754150390625" lon="-0.393481068313121795654296875">
        <ele>254</ele>
        <time>2022-05-07T09:18:53.000Z</time>
      </trkpt>
      <trkpt lat="39.78693324141204357147216796875" lon="-0.39324335753917694091796875">
        <ele>254.8000030517578125</ele>
        <time>2022-05-07T09:18:56.000Z</time>
      </trkpt>
      <trkpt lat="39.78691228665411472320556640625" lon="-0.39317093789577484130859375">
        <ele>255</ele>
        <time>2022-05-07T09:18:57.000Z</time>
      </trkpt>
      <trkpt lat="39.78678052313625812530517578125" lon="-0.39275578223168849945068359375">
        <ele>255.8000030517578125</ele>
        <time>2022-05-07T09:19:03.000Z</time>
      </trkpt>
      <trkpt lat="39.78669921867549419403076171875" lon="-0.39256836287677288055419921875">
        <ele>255.8000030517578125</ele>
        <time>2022-05-07T09:19:06.000Z</time>
      </trkpt>
      <trkpt lat="39.78665278293192386627197265625" lon="-0.392450429499149322509765625">
        <ele>256.20001220703125</ele>
        <time>2022-05-07T09:19:08.000Z</time>
      </trkpt>
      <trkpt lat="39.7865935228765010833740234375" lon="-0.39233232848346233367919921875">
        <ele>257</ele>
        <time>2022-05-07T09:19:10.000Z</time>
      </trkpt>
      <trkpt lat="39.78653610683977603912353515625" lon="-0.3922256268560886383056640625">
        <ele>257.79998779296875</ele>
        <time>2022-05-07T09:19:12.000Z</time>
      </trkpt>
      <trkpt lat="39.7863422334194183349609375" lon="-0.39192714728415012359619140625">
        <ele>259.399993896484375</ele>
        <time>2022-05-07T09:19:18.000Z</time>
      </trkpt>
      <trkpt lat="39.7861432470381259918212890625" lon="-0.39164031855762004852294921875">
        <ele>259</ele>
        <time>2022-05-07T09:19:24.000Z</time>
      </trkpt>
      <trkpt lat="39.7859648801386356353759765625" lon="-0.39141166023910045623779296875">
        <ele>259.399993896484375</ele>
        <time>2022-05-07T09:19:29.000Z</time>
      </trkpt>
      <trkpt lat="39.7858492098748683929443359375" lon="-0.3912788070738315582275390625">
        <ele>260.20001220703125</ele>
        <time>2022-05-07T09:19:32.000Z</time>
      </trkpt>
      <trkpt lat="39.78574183769524097442626953125" lon="-0.39115366525948047637939453125">
        <ele>261.20001220703125</ele>
        <time>2022-05-07T09:19:35.000Z</time>
      </trkpt>
      <trkpt lat="39.78557570837438106536865234375" lon="-0.39094864390790462493896484375">
        <ele>262.600006103515625</ele>
        <time>2022-05-07T09:19:40.000Z</time>
      </trkpt>
      <trkpt lat="39.78547814302146434783935546875" lon="-0.39083213545382022857666015625">
        <ele>263.20001220703125</ele>
        <time>2022-05-07T09:19:43.000Z</time>
      </trkpt>
      <trkpt lat="39.78544159792363643646240234375" lon="-0.3907805867493152618408203125">
        <ele>263.399993896484375</ele>
        <time>2022-05-07T09:19:44.000Z</time>
      </trkpt>
      <trkpt lat="39.78524529375135898590087890625" lon="-0.39054413326084613800048828125">
        <ele>263.20001220703125</ele>
        <time>2022-05-07T09:19:49.000Z</time>
      </trkpt>
      <trkpt lat="39.78521109558641910552978515625" lon="-0.39049702696502208709716796875">
        <ele>263.20001220703125</ele>
        <time>2022-05-07T09:19:50.000Z</time>
      </trkpt>
      <trkpt lat="39.78506156243383884429931640625" lon="-0.39030541665852069854736328125">
        <ele>262</ele>
        <time>2022-05-07T09:19:54.000Z</time>
      </trkpt>
      <trkpt lat="39.78492242284119129180908203125" lon="-0.39013677276670932769775390625">
        <ele>260.600006103515625</ele>
        <time>2022-05-07T09:19:58.000Z</time>
      </trkpt>
      <trkpt lat="39.7847704589366912841796875" lon="-0.38996511138975620269775390625">
        <ele>260.79998779296875</ele>
        <time>2022-05-07T09:20:02.000Z</time>
      </trkpt>
      <trkpt lat="39.78460013866424560546875" lon="-0.38974835537374019622802734375">
        <ele>261</ele>
        <time>2022-05-07T09:20:06.000Z</time>
      </trkpt>
      <trkpt lat="39.7844283096492290496826171875" lon="-0.3895283304154872894287109375">
        <ele>259</ele>
        <time>2022-05-07T09:20:10.000Z</time>
      </trkpt>
      <trkpt lat="39.78425203822553157806396484375" lon="-0.38931651972234249114990234375">
        <ele>255.8000030517578125</ele>
        <time>2022-05-07T09:20:14.000Z</time>
      </trkpt>
      <trkpt lat="39.78394274599850177764892578125" lon="-0.38893061690032482147216796875">
        <ele>251.8000030517578125</ele>
        <time>2022-05-07T09:20:21.000Z</time>
      </trkpt>
      <trkpt lat="39.7838469408452510833740234375" lon="-0.38880991749465465545654296875">
        <ele>250.8000030517578125</ele>
        <time>2022-05-07T09:20:23.000Z</time>
      </trkpt>
      <trkpt lat="39.78360143490135669708251953125" lon="-0.38849475793540477752685546875">
        <ele>248.600006103515625</ele>
        <time>2022-05-07T09:20:28.000Z</time>
      </trkpt>
      <trkpt lat="39.78355147875845432281494140625" lon="-0.38843415677547454833984375">
        <ele>248.1999969482421875</ele>
        <time>2022-05-07T09:20:29.000Z</time>
      </trkpt>
      <trkpt lat="39.7833068110048770904541015625" lon="-0.38817088119685649871826171875">
        <ele>246.600006103515625</ele>
        <time>2022-05-07T09:20:33.000Z</time>
      </trkpt>
      <trkpt lat="39.78324855677783489227294921875" lon="-0.3881057538092136383056640625">
        <ele>246.399993896484375</ele>
        <time>2022-05-07T09:20:34.000Z</time>
      </trkpt>
      <trkpt lat="39.78299575857818126678466796875" lon="-0.38773736916482448577880859375">
        <ele>244.600006103515625</ele>
        <time>2022-05-07T09:20:39.000Z</time>
      </trkpt>
      <trkpt lat="39.7829465568065643310546875" lon="-0.3876635245978832244873046875">
        <ele>244</ele>
        <time>2022-05-07T09:20:40.000Z</time>
      </trkpt>
      <trkpt lat="39.7825866378843784332275390625" lon="-0.38718667812645435333251953125">
        <ele>244</ele>
        <time>2022-05-07T09:20:47.000Z</time>
      </trkpt>
      <trkpt lat="39.7825380228459835052490234375" lon="-0.3871220536530017852783203125">
        <ele>244.399993896484375</ele>
        <time>2022-05-07T09:20:48.000Z</time>
      </trkpt>
      <trkpt lat="39.78225228376686573028564453125" lon="-0.38674193434417247772216796875">
        <ele>246.8000030517578125</ele>
        <time>2022-05-07T09:20:54.000Z</time>
      </trkpt>
      <trkpt lat="39.78216678835451602935791015625" lon="-0.38660765625536441802978515625">
        <ele>248</ele>
        <time>2022-05-07T09:20:56.000Z</time>
      </trkpt>
      <trkpt lat="39.78203619830310344696044921875" lon="-0.3864414431154727935791015625">
        <ele>249.8000030517578125</ele>
        <time>2022-05-07T09:20:59.000Z</time>
      </trkpt>
      <trkpt lat="39.7819916903972625732421875" lon="-0.38638629019260406494140625">
        <ele>250.8000030517578125</ele>
        <time>2022-05-07T09:21:00.000Z</time>
      </trkpt>
      <trkpt lat="39.78187300264835357666015625" lon="-0.38619543425738811492919921875">
        <ele>250.8000030517578125</ele>
        <time>2022-05-07T09:21:03.000Z</time>
      </trkpt>
      <trkpt lat="39.78183704428374767303466796875" lon="-0.3861294686794281005859375">
        <ele>250.600006103515625</ele>
        <time>2022-05-07T09:21:04.000Z</time>
      </trkpt>
      <trkpt lat="39.7816108167171478271484375" lon="-0.38570241071283817291259765625">
        <ele>250.600006103515625</ele>
        <time>2022-05-07T09:21:11.000Z</time>
      </trkpt>
      <trkpt lat="39.78156127966940402984619140625" lon="-0.3855670429766178131103515625">
        <ele>250.600006103515625</ele>
        <time>2022-05-07T09:21:13.000Z</time>
      </trkpt>
      <trkpt lat="39.781541414558887481689453125" lon="-0.385417006909847259521484375">
        <ele>250.1999969482421875</ele>
        <time>2022-05-07T09:21:15.000Z</time>
      </trkpt>
      <trkpt lat="39.78154174983501434326171875" lon="-0.38526252843439579010009765625">
        <ele>249.600006103515625</ele>
        <time>2022-05-07T09:21:17.000Z</time>
      </trkpt>
      <trkpt lat="39.7815469466149806976318359375" lon="-0.385183654725551605224609375">
        <ele>249.399993896484375</ele>
        <time>2022-05-07T09:21:18.000Z</time>
      </trkpt>
      <trkpt lat="39.78156463243067264556884765625" lon="-0.38501777686178684234619140625">
        <ele>248.8000030517578125</ele>
        <time>2022-05-07T09:21:20.000Z</time>
      </trkpt>
      <trkpt lat="39.7815777920186519622802734375" lon="-0.384924821555614471435546875">
        <ele>248.600006103515625</ele>
        <time>2022-05-07T09:21:21.000Z</time>
      </trkpt>
      <trkpt lat="39.78160888887941837310791015625" lon="-0.38471971638500690460205078125">
        <ele>247.8000030517578125</ele>
        <time>2022-05-07T09:21:23.000Z</time>
      </trkpt>
      <trkpt lat="39.7816186957061290740966796875" lon="-0.3846081532537937164306640625">
        <ele>247.399993896484375</ele>
        <time>2022-05-07T09:21:24.000Z</time>
      </trkpt>
      <trkpt lat="39.78163587860763072967529296875" lon="-0.3844948299229145050048828125">
        <ele>246.600006103515625</ele>
        <time>2022-05-07T09:21:25.000Z</time>
      </trkpt>
      <trkpt lat="39.7816834039986133575439453125" lon="-0.384266339242458343505859375">
        <ele>244.600006103515625</ele>
        <time>2022-05-07T09:21:27.000Z</time>
      </trkpt>
      <trkpt lat="39.781707040965557098388671875" lon="-0.3841525129973888397216796875">
        <ele>243.600006103515625</ele>
        <time>2022-05-07T09:21:28.000Z</time>
      </trkpt>
      <trkpt lat="39.781729839742183685302734375" lon="-0.3840381838381290435791015625">
        <ele>242.8000030517578125</ele>
        <time>2022-05-07T09:21:29.000Z</time>
      </trkpt>
      <trkpt lat="39.7817583382129669189453125" lon="-0.3838026523590087890625">
        <ele>241.8000030517578125</ele>
        <time>2022-05-07T09:21:31.000Z</time>
      </trkpt>
      <trkpt lat="39.7817631997168064117431640625" lon="-0.38359318859875202178955078125">
        <ele>242</ele>
        <time>2022-05-07T09:21:33.000Z</time>
      </trkpt>
      <trkpt lat="39.781749956309795379638671875" lon="-0.38327853195369243621826171875">
        <ele>242.600006103515625</ele>
        <time>2022-05-07T09:21:36.000Z</time>
      </trkpt>
      <trkpt lat="39.78172908537089824676513671875" lon="-0.3830529749393463134765625">
        <ele>243</ele>
        <time>2022-05-07T09:21:38.000Z</time>
      </trkpt>
      <trkpt lat="39.7817192785441875457763671875" lon="-0.38295398466289043426513671875">
        <ele>243.1999969482421875</ele>
        <time>2022-05-07T09:21:39.000Z</time>
      </trkpt>
      <trkpt lat="39.78171315975487232208251953125" lon="-0.3827151842415332794189453125">
        <ele>243.600006103515625</ele>
        <time>2022-05-07T09:21:42.000Z</time>
      </trkpt>
      <trkpt lat="39.78171785362064838409423828125" lon="-0.382585935294628143310546875">
        <ele>243.600006103515625</ele>
        <time>2022-05-07T09:21:44.000Z</time>
      </trkpt>
      <trkpt lat="39.78171735070645809173583984375" lon="-0.3824757970869541168212890625">
        <ele>243.8000030517578125</ele>
        <time>2022-05-07T09:21:46.000Z</time>
      </trkpt>
      <trkpt lat="39.7817155905067920684814453125" lon="-0.382427014410495758056640625">
        <ele>243.8000030517578125</ele>
        <time>2022-05-07T09:21:47.000Z</time>
      </trkpt>
      <trkpt lat="39.78171483613550662994384765625" lon="-0.382339172065258026123046875">
        <ele>244.1999969482421875</ele>
        <time>2022-05-07T09:21:49.000Z</time>
      </trkpt>
      <trkpt lat="39.7817098908126354217529296875" lon="-0.38225971162319183349609375">
        <ele>244.399993896484375</ele>
        <time>2022-05-07T09:21:51.000Z</time>
      </trkpt>
      <trkpt lat="39.7817046940326690673828125" lon="-0.3822196461260318756103515625">
        <ele>244.600006103515625</ele>
        <time>2022-05-07T09:21:52.000Z</time>
      </trkpt>
      <trkpt lat="39.78170041926205158233642578125" lon="-0.38217966444790363311767578125">
        <ele>244.8000030517578125</ele>
        <time>2022-05-07T09:21:53.000Z</time>
      </trkpt>
      <trkpt lat="39.7816993296146392822265625" lon="-0.38208763115108013153076171875">
        <ele>245</ele>
        <time>2022-05-07T09:21:55.000Z</time>
      </trkpt>
      <trkpt lat="39.78170427493751049041748046875" lon="-0.38203440606594085693359375">
        <ele>245</ele>
        <time>2022-05-07T09:21:56.000Z</time>
      </trkpt>
      <trkpt lat="39.78171433322131633758544921875" lon="-0.381979085505008697509765625">
        <ele>245</ele>
        <time>2022-05-07T09:21:57.000Z</time>
      </trkpt>
      <trkpt lat="39.78179815225303173065185546875" lon="-0.3815997205674648284912109375">
        <ele>244.399993896484375</ele>
        <time>2022-05-07T09:22:03.000Z</time>
      </trkpt>
      <trkpt lat="39.78183872066438198089599609375" lon="-0.38147122599184513092041015625">
        <ele>244</ele>
        <time>2022-05-07T09:22:05.000Z</time>
      </trkpt>
      <trkpt lat="39.78188909590244293212890625" lon="-0.38126704283058643341064453125">
        <ele>243.399993896484375</ele>
        <time>2022-05-07T09:22:08.000Z</time>
      </trkpt>
      <trkpt lat="39.781932346522808074951171875" lon="-0.38107040338218212127685546875">
        <ele>243.600006103515625</ele>
        <time>2022-05-07T09:22:11.000Z</time>
      </trkpt>
      <trkpt lat="39.7819663770496845245361328125" lon="-0.3809526376426219940185546875">
        <ele>243.399993896484375</ele>
        <time>2022-05-07T09:22:13.000Z</time>
      </trkpt>
      <trkpt lat="39.78200367651879787445068359375" lon="-0.380789525806903839111328125">
        <ele>243.600006103515625</ele>
        <time>2022-05-07T09:22:16.000Z</time>
      </trkpt>
      <trkpt lat="39.78201407007873058319091796875" lon="-0.38069598376750946044921875">
        <ele>243.600006103515625</ele>
        <time>2022-05-07T09:22:18.000Z</time>
      </trkpt>
      <trkpt lat="39.7820344381034374237060546875" lon="-0.3804912976920604705810546875">
        <ele>244.1999969482421875</ele>
        <time>2022-05-07T09:22:23.000Z</time>
      </trkpt>
      <trkpt lat="39.78206804953515529632568359375" lon="-0.380173288285732269287109375">
        <ele>244.1999969482421875</ele>
        <time>2022-05-07T09:22:29.000Z</time>
      </trkpt>
      <trkpt lat="39.78207819163799285888671875" lon="-0.3800031356513500213623046875">
        <ele>244.399993896484375</ele>
        <time>2022-05-07T09:22:33.000Z</time>
      </trkpt>
      <trkpt lat="39.7820552252233028411865234375" lon="-0.3797645866870880126953125">
        <ele>244.8000030517578125</ele>
        <time>2022-05-07T09:22:38.000Z</time>
      </trkpt>
      <trkpt lat="39.78201247751712799072265625" lon="-0.37947348318994045257568359375">
        <ele>244.399993896484375</ele>
        <time>2022-05-07T09:22:43.000Z</time>
      </trkpt>
      <trkpt lat="39.7819938696920871734619140625" lon="-0.37935898639261722564697265625">
        <ele>244</ele>
        <time>2022-05-07T09:22:45.000Z</time>
      </trkpt>
      <trkpt lat="39.781956486403942108154296875" lon="-0.37916000001132488250732421875">
        <ele>243.1999969482421875</ele>
        <time>2022-05-07T09:22:48.000Z</time>
      </trkpt>
      <trkpt lat="39.7819232940673828125" lon="-0.37902153097093105316162109375">
        <ele>242.8000030517578125</ele>
        <time>2022-05-07T09:22:50.000Z</time>
      </trkpt>
      <trkpt lat="39.781848527491092681884765625" lon="-0.3788016736507415771484375">
        <ele>242.1999969482421875</ele>
        <time>2022-05-07T09:22:53.000Z</time>
      </trkpt>
      <trkpt lat="39.78175188414752483367919921875" lon="-0.3785393200814723968505859375">
        <ele>240.8000030517578125</ele>
        <time>2022-05-07T09:22:57.000Z</time>
      </trkpt>
      <trkpt lat="39.7817196138203144073486328125" lon="-0.37847251631319522857666015625">
        <ele>240.399993896484375</ele>
        <time>2022-05-07T09:22:58.000Z</time>
      </trkpt>
      <trkpt lat="39.781689606606960296630859375" lon="-0.37840445525944232940673828125">
        <ele>240</ele>
        <time>2022-05-07T09:22:59.000Z</time>
      </trkpt>
      <trkpt lat="39.78156094439327716827392578125" lon="-0.37800983525812625885009765625">
        <ele>238.8000030517578125</ele>
        <time>2022-05-07T09:23:05.000Z</time>
      </trkpt>
      <trkpt lat="39.78146857582032680511474609375" lon="-0.37769601680338382720947265625">
        <ele>238</ele>
        <time>2022-05-07T09:23:11.000Z</time>
      </trkpt>
      <trkpt lat="39.7814175300300121307373046875" lon="-0.377604067325592041015625">
        <ele>237.1999969482421875</ele>
        <time>2022-05-07T09:23:13.000Z</time>
      </trkpt>
      <trkpt lat="39.78138391859829425811767578125" lon="-0.37755285389721393585205078125">
        <ele>237</ele>
        <time>2022-05-07T09:23:14.000Z</time>
      </trkpt>
      <trkpt lat="39.7813464514911174774169921875" lon="-0.377496778964996337890625">
        <ele>236.600006103515625</ele>
        <time>2022-05-07T09:23:15.000Z</time>
      </trkpt>
      <trkpt lat="39.78130663745105266571044921875" lon="-0.3774332441389560699462890625">
        <ele>236</ele>
        <time>2022-05-07T09:23:16.000Z</time>
      </trkpt>
      <trkpt lat="39.7812274284660816192626953125" lon="-0.3773088566958904266357421875">
        <ele>235.1999969482421875</ele>
        <time>2022-05-07T09:23:18.000Z</time>
      </trkpt>
      <trkpt lat="39.7811838425695896148681640625" lon="-0.3772515244781970977783203125">
        <ele>234.8000030517578125</ele>
        <time>2022-05-07T09:23:19.000Z</time>
      </trkpt>
      <trkpt lat="39.78097002021968364715576171875" lon="-0.37691985256969928741455078125">
        <ele>232.399993896484375</ele>
        <time>2022-05-07T09:23:24.000Z</time>
      </trkpt>
      <trkpt lat="39.7809256799519062042236328125" lon="-0.376849360764026641845703125">
        <ele>231.8000030517578125</ele>
        <time>2022-05-07T09:23:25.000Z</time>
      </trkpt>
      <trkpt lat="39.7807851992547512054443359375" lon="-0.37665146403014659881591796875">
        <ele>230.600006103515625</ele>
        <time>2022-05-07T09:23:28.000Z</time>
      </trkpt>
      <trkpt lat="39.78063784539699554443359375" lon="-0.3764616139233112335205078125">
        <ele>229.600006103515625</ele>
        <time>2022-05-07T09:23:31.000Z</time>
      </trkpt>
      <trkpt lat="39.78029745630919933319091796875" lon="-0.37602550350129604339599609375">
        <ele>228.8000030517578125</ele>
        <time>2022-05-07T09:23:37.000Z</time>
      </trkpt>
      <trkpt lat="39.780236519873142242431640625" lon="-0.3759496472775936126708984375">
        <ele>229</ele>
        <time>2022-05-07T09:23:38.000Z</time>
      </trkpt>
      <trkpt lat="39.7801149822771549224853515625" lon="-0.37580003030598163604736328125">
        <ele>229.399993896484375</ele>
        <time>2022-05-07T09:23:40.000Z</time>
      </trkpt>
      <trkpt lat="39.77986495010554790496826171875" lon="-0.37552577443420886993408203125">
        <ele>228.600006103515625</ele>
        <time>2022-05-07T09:23:44.000Z</time>
      </trkpt>
      <trkpt lat="39.77980024181306362152099609375" lon="-0.375458300113677978515625">
        <ele>228.399993896484375</ele>
        <time>2022-05-07T09:23:45.000Z</time>
      </trkpt>
      <trkpt lat="39.779738299548625946044921875" lon="-0.37538546137511730194091796875">
        <ele>228.399993896484375</ele>
        <time>2022-05-07T09:23:46.000Z</time>
      </trkpt>
      <trkpt lat="39.7795614413917064666748046875" lon="-0.37515428848564624786376953125">
        <ele>226.8000030517578125</ele>
        <time>2022-05-07T09:23:49.000Z</time>
      </trkpt>
      <trkpt lat="39.77950218133628368377685546875" lon="-0.3750792704522609710693359375">
        <ele>226.1999969482421875</ele>
        <time>2022-05-07T09:23:50.000Z</time>
      </trkpt>
      <trkpt lat="39.77932356297969818115234375" lon="-0.37486578337848186492919921875">
        <ele>224.8000030517578125</ele>
        <time>2022-05-07T09:23:53.000Z</time>
      </trkpt>
      <trkpt lat="39.77926187217235565185546875" lon="-0.37479336373507976531982421875">
        <ele>224.600006103515625</ele>
        <time>2022-05-07T09:23:54.000Z</time>
      </trkpt>
      <trkpt lat="39.7790196351706981658935546875" lon="-0.37452044896781444549560546875">
        <ele>224</ele>
        <time>2022-05-07T09:23:58.000Z</time>
      </trkpt>
      <trkpt lat="39.7789036296308040618896484375" lon="-0.37438876926898956298828125">
        <ele>223.8000030517578125</ele>
        <time>2022-05-07T09:24:00.000Z</time>
      </trkpt>
      <trkpt lat="39.77873004041612148284912109375" lon="-0.37420235574245452880859375">
        <ele>223.399993896484375</ele>
        <time>2022-05-07T09:24:03.000Z</time>
      </trkpt>
      <trkpt lat="39.7784469835460186004638671875" lon="-0.37390270270407199859619140625">
        <ele>223.600006103515625</ele>
        <time>2022-05-07T09:24:08.000Z</time>
      </trkpt>
      <trkpt lat="39.77829761803150177001953125" lon="-0.37373472936451435089111328125">
        <ele>224.1999969482421875</ele>
        <time>2022-05-07T09:24:11.000Z</time>
      </trkpt>
      <trkpt lat="39.778251014649868011474609375" lon="-0.37370078265666961669921875">
        <ele>224.1999969482421875</ele>
        <time>2022-05-07T09:24:12.000Z</time>
      </trkpt>
      <trkpt lat="39.77820583619177341461181640625" lon="-0.37369315512478351593017578125">
        <ele>224.399993896484375</ele>
        <time>2022-05-07T09:24:13.000Z</time>
      </trkpt>
      <trkpt lat="39.7781539522111415863037109375" lon="-0.3737566061317920684814453125">
        <ele>225</ele>
        <time>2022-05-07T09:24:15.000Z</time>
      </trkpt>
      <trkpt lat="39.77814448066055774688720703125" lon="-0.3738089092075824737548828125">
        <ele>225.399993896484375</ele>
        <time>2022-05-07T09:24:16.000Z</time>
      </trkpt>
      <trkpt lat="39.77813526056706905364990234375" lon="-0.37386314012110233306884765625">
        <ele>225.399993896484375</ele>
        <time>2022-05-07T09:24:17.000Z</time>
      </trkpt>
      <trkpt lat="39.77812084369361400604248046875" lon="-0.37391938269138336181640625">
        <ele>225.600006103515625</ele>
        <time>2022-05-07T09:24:18.000Z</time>
      </trkpt>
      <trkpt lat="39.77804892696440219879150390625" lon="-0.37407629191875457763671875">
        <ele>226</ele>
        <time>2022-05-07T09:24:21.000Z</time>
      </trkpt>
      <trkpt lat="39.77795873768627643585205078125" lon="-0.3740737773478031158447265625">
        <ele>226.600006103515625</ele>
        <time>2022-05-07T09:24:24.000Z</time>
      </trkpt>
      <trkpt lat="39.777936525642871856689453125" lon="-0.37404335103929042816162109375">
        <ele>226.600006103515625</ele>
        <time>2022-05-07T09:24:25.000Z</time>
      </trkpt>
      <trkpt lat="39.777911044657230377197265625" lon="-0.37401149980723857879638671875">
        <ele>226.8000030517578125</ele>
        <time>2022-05-07T09:24:26.000Z</time>
      </trkpt>
      <trkpt lat="39.777777604758739471435546875" lon="-0.3738960810005664825439453125">
        <ele>227</ele>
        <time>2022-05-07T09:24:30.000Z</time>
      </trkpt>
      <trkpt lat="39.77773913182318210601806640625" lon="-0.37386833690106868743896484375">
        <ele>226.8000030517578125</ele>
        <time>2022-05-07T09:24:31.000Z</time>
      </trkpt>
      <trkpt lat="39.777630083262920379638671875" lon="-0.373781584203243255615234375">
        <ele>226.1999969482421875</ele>
        <time>2022-05-07T09:24:34.000Z</time>
      </trkpt>
      <trkpt lat="39.77755271829664707183837890625" lon="-0.3737110085785388946533203125">
        <ele>225.600006103515625</ele>
        <time>2022-05-07T09:24:36.000Z</time>
      </trkpt>
      <trkpt lat="39.7772778756916522979736328125" lon="-0.37347623147070407867431640625">
        <ele>223.600006103515625</ele>
        <time>2022-05-07T09:24:42.000Z</time>
      </trkpt>
      <trkpt lat="39.776926003396511077880859375" lon="-0.373167358338832855224609375">
        <ele>221.8000030517578125</ele>
        <time>2022-05-07T09:24:49.000Z</time>
      </trkpt>
      <trkpt lat="39.776772446930408477783203125" lon="-0.373030565679073333740234375">
        <ele>221.1999969482421875</ele>
        <time>2022-05-07T09:24:52.000Z</time>
      </trkpt>
      <trkpt lat="39.7765017114579677581787109375" lon="-0.3728017397224903106689453125">
        <ele>219.8000030517578125</ele>
        <time>2022-05-07T09:24:57.000Z</time>
      </trkpt>
      <trkpt lat="39.776336587965488433837890625" lon="-0.37265530787408351898193359375">
        <ele>219.399993896484375</ele>
        <time>2022-05-07T09:25:00.000Z</time>
      </trkpt>
      <trkpt lat="39.77605872787535190582275390625" lon="-0.37242245860397815704345703125">
        <ele>219.8000030517578125</ele>
        <time>2022-05-07T09:25:05.000Z</time>
      </trkpt>
      <trkpt lat="39.77589393965899944305419921875" lon="-0.37227007560431957244873046875">
        <ele>220.1999969482421875</ele>
        <time>2022-05-07T09:25:08.000Z</time>
      </trkpt>
      <trkpt lat="39.7756544686853885650634765625" lon="-0.3720715083181858062744140625">
        <ele>221</ele>
        <time>2022-05-07T09:25:12.000Z</time>
      </trkpt>
      <trkpt lat="39.77547065354883670806884765625" lon="-0.371922142803668975830078125">
        <ele>221.399993896484375</ele>
        <time>2022-05-07T09:25:15.000Z</time>
      </trkpt>
      <trkpt lat="39.77510000579059123992919921875" lon="-0.3716359846293926239013671875">
        <ele>220.8000030517578125</ele>
        <time>2022-05-07T09:25:21.000Z</time>
      </trkpt>
      <trkpt lat="39.77483815513551235198974609375" lon="-0.3714780695736408233642578125">
        <ele>220.8000030517578125</ele>
        <time>2022-05-07T09:25:25.000Z</time>
      </trkpt>
      <trkpt lat="39.77477177046239376068115234375" lon="-0.3714468888938426971435546875">
        <ele>221</ele>
        <time>2022-05-07T09:25:26.000Z</time>
      </trkpt>
      <trkpt lat="39.77458250708878040313720703125" lon="-0.371349155902862548828125">
        <ele>221</ele>
        <time>2022-05-07T09:25:29.000Z</time>
      </trkpt>
      <trkpt lat="39.77451838552951812744140625" lon="-0.37131898105144500732421875">
        <ele>221</ele>
        <time>2022-05-07T09:25:30.000Z</time>
      </trkpt>
      <trkpt lat="39.774154610931873321533203125" lon="-0.37117355503141880035400390625">
        <ele>219</ele>
        <time>2022-05-07T09:25:35.000Z</time>
      </trkpt>
      <trkpt lat="39.77407439611852169036865234375" lon="-0.3711407817900180816650390625">
        <ele>218.600006103515625</ele>
        <time>2022-05-07T09:25:36.000Z</time>
      </trkpt>
      <trkpt lat="39.7739174030721187591552734375" lon="-0.3710861317813396453857421875">
        <ele>218</ele>
        <time>2022-05-07T09:25:38.000Z</time>
      </trkpt>
      <trkpt lat="39.77376342751085758209228515625" lon="-0.371055118739604949951171875">
        <ele>217.8000030517578125</ele>
        <time>2022-05-07T09:25:40.000Z</time>
      </trkpt>
      <trkpt lat="39.77368279360234737396240234375" lon="-0.37103659473359584808349609375">
        <ele>217.600006103515625</ele>
        <time>2022-05-07T09:25:41.000Z</time>
      </trkpt>
      <trkpt lat="39.77337174117565155029296875" lon="-0.370967946946620941162109375">
        <ele>217</ele>
        <time>2022-05-07T09:25:45.000Z</time>
      </trkpt>
      <trkpt lat="39.7731511294841766357421875" lon="-0.37091941572725772857666015625">
        <ele>216.399993896484375</ele>
        <time>2022-05-07T09:25:48.000Z</time>
      </trkpt>
      <trkpt lat="39.77275793440639972686767578125" lon="-0.37082570604979991912841796875">
        <ele>213.399993896484375</ele>
        <time>2022-05-07T09:25:53.000Z</time>
      </trkpt>
      <trkpt lat="39.77259951643645763397216796875" lon="-0.37079368717968463897705078125">
        <ele>210.1999969482421875</ele>
        <time>2022-05-07T09:25:55.000Z</time>
      </trkpt>
      <trkpt lat="39.77228150703012943267822265625" lon="-0.37070668302476406097412109375">
        <ele>205.8000030517578125</ele>
        <time>2022-05-07T09:25:59.000Z</time>
      </trkpt>
      <trkpt lat="39.7722011245787143707275390625" lon="-0.3706884942948818206787109375">
        <ele>204.8000030517578125</ele>
        <time>2022-05-07T09:26:00.000Z</time>
      </trkpt>
      <trkpt lat="39.771758727729320526123046875" lon="-0.37057978101074695587158203125">
        <ele>200.8000030517578125</ele>
        <time>2022-05-07T09:26:06.000Z</time>
      </trkpt>
      <trkpt lat="39.77153819985687732696533203125" lon="-0.370555222034454345703125">
        <ele>198.8000030517578125</ele>
        <time>2022-05-07T09:26:09.000Z</time>
      </trkpt>
      <trkpt lat="39.77138598449528217315673828125" lon="-0.3705537132918834686279296875">
        <ele>197.600006103515625</ele>
        <time>2022-05-07T09:26:11.000Z</time>
      </trkpt>
      <trkpt lat="39.77108792401850223541259765625" lon="-0.37058916874229907989501953125">
        <ele>196.399993896484375</ele>
        <time>2022-05-07T09:26:15.000Z</time>
      </trkpt>
      <trkpt lat="39.77087535895407199859619140625" lon="-0.37063577212393283843994140625">
        <ele>197</ele>
        <time>2022-05-07T09:26:18.000Z</time>
      </trkpt>
      <trkpt lat="39.77067117579281330108642578125" lon="-0.3706998936831951141357421875">
        <ele>197.600006103515625</ele>
        <time>2022-05-07T09:26:21.000Z</time>
      </trkpt>
      <trkpt lat="39.77026431821286678314208984375" lon="-0.37082704715430736541748046875">
        <ele>199.1999969482421875</ele>
        <time>2022-05-07T09:26:27.000Z</time>
      </trkpt>
      <trkpt lat="39.77001629769802093505859375" lon="-0.370906256139278411865234375">
        <ele>201.1999969482421875</ele>
        <time>2022-05-07T09:26:31.000Z</time>
      </trkpt>
      <trkpt lat="39.76983063854277133941650390625" lon="-0.37096300162374973297119140625">
        <ele>202.399993896484375</ele>
        <time>2022-05-07T09:26:34.000Z</time>
      </trkpt>
      <trkpt lat="39.76930710487067699432373046875" lon="-0.37113390862941741943359375">
        <ele>205.600006103515625</ele>
        <time>2022-05-07T09:26:42.000Z</time>
      </trkpt>
      <trkpt lat="39.7692399658262729644775390625" lon="-0.371153689920902252197265625">
        <ele>205.8000030517578125</ele>
        <time>2022-05-07T09:26:43.000Z</time>
      </trkpt>
      <trkpt lat="39.76870075799524784088134765625" lon="-0.37127464078366756439208984375">
        <ele>208.8000030517578125</ele>
        <time>2022-05-07T09:26:51.000Z</time>
      </trkpt>
      <trkpt lat="39.76863403804600238800048828125" lon="-0.37127983756363391876220703125">
        <ele>209.1999969482421875</ele>
        <time>2022-05-07T09:26:52.000Z</time>
      </trkpt>
      <trkpt lat="39.7682408429682254791259765625" lon="-0.3712229244410991668701171875">
        <ele>210.8000030517578125</ele>
        <time>2022-05-07T09:26:58.000Z</time>
      </trkpt>
      <trkpt lat="39.7679890505969524383544921875" lon="-0.37113256752490997314453125">
        <ele>211.399993896484375</ele>
        <time>2022-05-07T09:27:02.000Z</time>
      </trkpt>
      <trkpt lat="39.76787212304770946502685546875" lon="-0.37106760777533054351806640625">
        <ele>211.1999969482421875</ele>
        <time>2022-05-07T09:27:04.000Z</time>
      </trkpt>
      <trkpt lat="39.76755042560398578643798828125" lon="-0.370807349681854248046875">
        <ele>211.399993896484375</ele>
        <time>2022-05-07T09:27:10.000Z</time>
      </trkpt>
      <trkpt lat="39.767238199710845947265625" lon="-0.37042337469756603240966796875">
        <ele>211.1999969482421875</ele>
        <time>2022-05-07T09:27:17.000Z</time>
      </trkpt>
      <trkpt lat="39.7669905982911586761474609375" lon="-0.37003763951361179351806640625">
        <ele>210.8000030517578125</ele>
        <time>2022-05-07T09:27:24.000Z</time>
      </trkpt>
      <trkpt lat="39.76680703461170196533203125" lon="-0.36973186768591403961181640625">
        <ele>210</ele>
        <time>2022-05-07T09:27:30.000Z</time>
      </trkpt>
      <trkpt lat="39.76658516563475131988525390625" lon="-0.36941570229828357696533203125">
        <ele>208.8000030517578125</ele>
        <time>2022-05-07T09:27:36.000Z</time>
      </trkpt>
      <trkpt lat="39.766369499266147613525390625" lon="-0.36909936927258968353271484375">
        <ele>209.399993896484375</ele>
        <time>2022-05-07T09:27:42.000Z</time>
      </trkpt>
      <trkpt lat="39.76611862890422344207763671875" lon="-0.36874464713037014007568359375">
        <ele>211.600006103515625</ele>
        <time>2022-05-07T09:27:49.000Z</time>
      </trkpt>
      <trkpt lat="39.76598988287150859832763671875" lon="-0.368543565273284912109375">
        <ele>214</ele>
        <time>2022-05-07T09:27:53.000Z</time>
      </trkpt>
      <trkpt lat="39.76592165417969226837158203125" lon="-0.36844960413873195648193359375">
        <ele>215.1999969482421875</ele>
        <time>2022-05-07T09:27:55.000Z</time>
      </trkpt>
      <trkpt lat="39.76565762422978878021240234375" lon="-0.3680803813040256500244140625">
        <ele>216.399993896484375</ele>
        <time>2022-05-07T09:28:03.000Z</time>
      </trkpt>
      <trkpt lat="39.7654880583286285400390625" lon="-0.367817021906375885009765625">
        <ele>216.399993896484375</ele>
        <time>2022-05-07T09:28:09.000Z</time>
      </trkpt>
      <trkpt lat="39.76531228981912136077880859375" lon="-0.36754134111106395721435546875">
        <ele>217</ele>
        <time>2022-05-07T09:28:15.000Z</time>
      </trkpt>
      <trkpt lat="39.76516242139041423797607421875" lon="-0.367361716926097869873046875">
        <ele>218.600006103515625</ele>
        <time>2022-05-07T09:28:19.000Z</time>
      </trkpt>
      <trkpt lat="39.76512520574033260345458984375" lon="-0.36730580963194370269775390625">
        <ele>218.1999969482421875</ele>
        <time>2022-05-07T09:28:20.000Z</time>
      </trkpt>
      <trkpt lat="39.7649232856929302215576171875" lon="-0.36700456403195858001708984375">
        <ele>216.399993896484375</ele>
        <time>2022-05-07T09:28:26.000Z</time>
      </trkpt>
      <trkpt lat="39.76473477669060230255126953125" lon="-0.36679049022495746612548828125">
        <ele>215.8000030517578125</ele>
        <time>2022-05-07T09:28:31.000Z</time>
      </trkpt>
      <trkpt lat="39.76464726962149143218994140625" lon="-0.36670231260359287261962890625">
        <ele>215.399993896484375</ele>
        <time>2022-05-07T09:28:33.000Z</time>
      </trkpt>
      <trkpt lat="39.76439128629863262176513671875" lon="-0.366463176906108856201171875">
        <ele>214.399993896484375</ele>
        <time>2022-05-07T09:28:39.000Z</time>
      </trkpt>
      <trkpt lat="39.764298163354396820068359375" lon="-0.3663795255124568939208984375">
        <ele>214</ele>
        <time>2022-05-07T09:28:41.000Z</time>
      </trkpt>
      <trkpt lat="39.76414636708796024322509765625" lon="-0.366266705095767974853515625">
        <ele>213.600006103515625</ele>
        <time>2022-05-07T09:28:44.000Z</time>
      </trkpt>
      <trkpt lat="39.76393363438546657562255859375" lon="-0.36613653413951396942138671875">
        <ele>213.399993896484375</ele>
        <time>2022-05-07T09:28:48.000Z</time>
      </trkpt>
      <trkpt lat="39.76377219893038272857666015625" lon="-0.3660378791391849517822265625">
        <ele>213</ele>
        <time>2022-05-07T09:28:51.000Z</time>
      </trkpt>
      <trkpt lat="39.7633491642773151397705078125" lon="-0.36584283225238323211669921875">
        <ele>212.1999969482421875</ele>
        <time>2022-05-07T09:28:59.000Z</time>
      </trkpt>
      <trkpt lat="39.7629002295434474945068359375" lon="-0.36571048200130462646484375">
        <ele>213.1999969482421875</ele>
        <time>2022-05-07T09:29:07.000Z</time>
      </trkpt>
      <trkpt lat="39.7626162506639957427978515625" lon="-0.36564099602401256561279296875">
        <ele>212.8000030517578125</ele>
        <time>2022-05-07T09:29:12.000Z</time>
      </trkpt>
      <trkpt lat="39.76245590485632419586181640625" lon="-0.36560587584972381591796875">
        <ele>212.8000030517578125</ele>
        <time>2022-05-07T09:29:15.000Z</time>
      </trkpt>
      <trkpt lat="39.76208676584064960479736328125" lon="-0.36551208235323429107666015625">
        <ele>212.1999969482421875</ele>
        <time>2022-05-07T09:29:22.000Z</time>
      </trkpt>
      <trkpt lat="39.761719219386577606201171875" lon="-0.36542893387377262115478515625">
        <ele>212.600006103515625</ele>
        <time>2022-05-07T09:29:29.000Z</time>
      </trkpt>
      <trkpt lat="39.761668927967548370361328125" lon="-0.3654201328754425048828125">
        <ele>212.600006103515625</ele>
        <time>2022-05-07T09:29:30.000Z</time>
      </trkpt>
      <trkpt lat="39.7613386809825897216796875" lon="-0.3653445281088352203369140625">
        <ele>213</ele>
        <time>2022-05-07T09:29:36.000Z</time>
      </trkpt>
      <trkpt lat="39.76078011095523834228515625" lon="-0.365217961370944976806640625">
        <ele>211.1999969482421875</ele>
        <time>2022-05-07T09:29:46.000Z</time>
      </trkpt>
      <trkpt lat="39.76067407988011837005615234375" lon="-0.36519306711852550506591796875">
        <ele>210.600006103515625</ele>
        <time>2022-05-07T09:29:48.000Z</time>
      </trkpt>
      <trkpt lat="39.760290943086147308349609375" lon="-0.3650860302150249481201171875">
        <ele>210</ele>
        <time>2022-05-07T09:29:55.000Z</time>
      </trkpt>
      <trkpt lat="39.7597992606461048126220703125" lon="-0.3648188151419162750244140625">
        <ele>209.399993896484375</ele>
        <time>2022-05-07T09:30:04.000Z</time>
      </trkpt>
      <trkpt lat="39.75944026373326778411865234375" lon="-0.36451061256229877471923828125">
        <ele>208.8000030517578125</ele>
        <time>2022-05-07T09:30:11.000Z</time>
      </trkpt>
      <trkpt lat="39.75901848636567592620849609375" lon="-0.36406352184712886810302734375">
        <ele>213.600006103515625</ele>
        <time>2022-05-07T09:30:20.000Z</time>
      </trkpt>
      <trkpt lat="39.7586108744144439697265625" lon="-0.36363445222377777099609375">
        <ele>219.8000030517578125</ele>
        <time>2022-05-07T09:30:29.000Z</time>
      </trkpt>
      <trkpt lat="39.75856552831828594207763671875" lon="-0.36358457989990711212158203125">
        <ele>220.600006103515625</ele>
        <time>2022-05-07T09:30:30.000Z</time>
      </trkpt>
      <trkpt lat="39.758385904133319854736328125" lon="-0.36340654827654361724853515625">
        <ele>224</ele>
        <time>2022-05-07T09:30:34.000Z</time>
      </trkpt>
      <trkpt lat="39.75829848088324069976806640625" lon="-0.3633285127580165863037109375">
        <ele>225</ele>
        <time>2022-05-07T09:30:36.000Z</time>
      </trkpt>
      <trkpt lat="39.75819990970194339752197265625" lon="-0.3632329590618610382080078125">
        <ele>224.600006103515625</ele>
        <time>2022-05-07T09:30:38.000Z</time>
      </trkpt>
      <trkpt lat="39.75814358331263065338134765625" lon="-0.36319549195468425750732421875">
        <ele>224.600006103515625</ele>
        <time>2022-05-07T09:30:39.000Z</time>
      </trkpt>
      <trkpt lat="39.75791157223284244537353515625" lon="-0.36305551417171955108642578125">
        <ele>224.8000030517578125</ele>
        <time>2022-05-07T09:30:43.000Z</time>
      </trkpt>
      <trkpt lat="39.757790453732013702392578125" lon="-0.36299197934567928314208984375">
        <ele>222.600006103515625</ele>
        <time>2022-05-07T09:30:45.000Z</time>
      </trkpt>
      <trkpt lat="39.75759406574070453643798828125" lon="-0.36295627243816852569580078125">
        <ele>218.8000030517578125</ele>
        <time>2022-05-07T09:30:48.000Z</time>
      </trkpt>
      <trkpt lat="39.75717782042920589447021484375" lon="-0.3629578649997711181640625">
        <ele>211.399993896484375</ele>
        <time>2022-05-07T09:30:54.000Z</time>
      </trkpt>
      <trkpt lat="39.75689518265426158905029296875" lon="-0.363023579120635986328125">
        <ele>207</ele>
        <time>2022-05-07T09:30:58.000Z</time>
      </trkpt>
      <trkpt lat="39.75676442496478557586669921875" lon="-0.36310228519141674041748046875">
        <ele>205.600006103515625</ele>
        <time>2022-05-07T09:31:00.000Z</time>
      </trkpt>
      <trkpt lat="39.75663936696946620941162109375" lon="-0.36317219026386737823486328125">
        <ele>204.1999969482421875</ele>
        <time>2022-05-07T09:31:02.000Z</time>
      </trkpt>
      <trkpt lat="39.75639478303492069244384765625" lon="-0.36331149749457836151123046875">
        <ele>201.399993896484375</ele>
        <time>2022-05-07T09:31:06.000Z</time>
      </trkpt>
      <trkpt lat="39.7562768496572971343994140625" lon="-0.3634126670658588409423828125">
        <ele>200.1999969482421875</ele>
        <time>2022-05-07T09:31:08.000Z</time>
      </trkpt>
      <trkpt lat="39.7560743428766727447509765625" lon="-0.36364744417369365692138671875">
        <ele>199</ele>
        <time>2022-05-07T09:31:12.000Z</time>
      </trkpt>
      <trkpt lat="39.75590695627033710479736328125" lon="-0.36389957182109355926513671875">
        <ele>198.600006103515625</ele>
        <time>2022-05-07T09:31:16.000Z</time>
      </trkpt>
      <trkpt lat="39.75583906285464763641357421875" lon="-0.3640173375606536865234375">
        <ele>198.600006103515625</ele>
        <time>2022-05-07T09:31:18.000Z</time>
      </trkpt>
      <trkpt lat="39.755683578550815582275390625" lon="-0.3642917610704898834228515625">
        <ele>198.600006103515625</ele>
        <time>2022-05-07T09:31:22.000Z</time>
      </trkpt>
      <trkpt lat="39.75564301013946533203125" lon="-0.36436208523809909820556640625">
        <ele>198.399993896484375</ele>
        <time>2022-05-07T09:31:23.000Z</time>
      </trkpt>
      <trkpt lat="39.75530563853681087493896484375" lon="-0.36492853425443172454833984375">
        <ele>198.1999969482421875</ele>
        <time>2022-05-07T09:31:31.000Z</time>
      </trkpt>
      <trkpt lat="39.75526205264031887054443359375" lon="-0.3649990260601043701171875">
        <ele>198.1999969482421875</ele>
        <time>2022-05-07T09:31:32.000Z</time>
      </trkpt>
      <trkpt lat="39.754941277205944061279296875" lon="-0.3655577637255191802978515625">
        <ele>198.600006103515625</ele>
        <time>2022-05-07T09:31:40.000Z</time>
      </trkpt>
      <trkpt lat="39.7548619844019412994384765625" lon="-0.3656937181949615478515625">
        <ele>198.399993896484375</ele>
        <time>2022-05-07T09:31:42.000Z</time>
      </trkpt>
      <trkpt lat="39.754535257816314697265625" lon="-0.36620476283133029937744140625">
        <ele>197.600006103515625</ele>
        <time>2022-05-07T09:31:50.000Z</time>
      </trkpt>
      <trkpt lat="39.75441925227642059326171875" lon="-0.36638103425502777099609375">
        <ele>197.600006103515625</ele>
        <time>2022-05-07T09:31:53.000Z</time>
      </trkpt>
      <trkpt lat="39.754196293652057647705078125" lon="-0.366701222956180572509765625">
        <ele>198.399993896484375</ele>
        <time>2022-05-07T09:31:59.000Z</time>
      </trkpt>
      <trkpt lat="39.75402153097093105316162109375" lon="-0.3669394366443157196044921875">
        <ele>198.8000030517578125</ele>
        <time>2022-05-07T09:32:04.000Z</time>
      </trkpt>
      <trkpt lat="39.75398850627243518829345703125" lon="-0.366963408887386322021484375">
        <ele>198.8000030517578125</ele>
        <time>2022-05-07T09:32:05.000Z</time>
      </trkpt>
      <trkpt lat="39.753887169063091278076171875" lon="-0.3669380955398082733154296875">
        <ele>197.8000030517578125</ele>
        <time>2022-05-07T09:32:08.000Z</time>
      </trkpt>
      <trkpt lat="39.75382908247411251068115234375" lon="-0.36680071614682674407958984375">
        <ele>196.600006103515625</ele>
        <time>2022-05-07T09:32:11.000Z</time>
      </trkpt>
      <trkpt lat="39.75382237695157527923583984375" lon="-0.36674581468105316162109375">
        <ele>196.1999969482421875</ele>
        <time>2022-05-07T09:32:12.000Z</time>
      </trkpt>
      <trkpt lat="39.75381164811551570892333984375" lon="-0.36666660569608211517333984375">
        <ele>195.8000030517578125</ele>
        <time>2022-05-07T09:32:15.000Z</time>
      </trkpt>
      <trkpt lat="39.75380980409681797027587890625" lon="-0.3666668571531772613525390625">
        <ele>195.8000030517578125</ele>
        <time>2022-05-07T09:32:16.000Z</time>
      </trkpt>
      <trkpt lat="39.753809385001659393310546875" lon="-0.36661497317254543304443359375">
        <ele>195.399993896484375</ele>
        <time>2022-05-07T09:33:37.000Z</time>
      </trkpt>
      <trkpt lat="39.7538082115352153778076171875" lon="-0.3665520250797271728515625">
        <ele>195</ele>
        <time>2022-05-07T09:33:39.000Z</time>
      </trkpt>
      <trkpt lat="39.75379840470850467681884765625" lon="-0.3663020767271518707275390625">
        <ele>193.600006103515625</ele>
        <time>2022-05-07T09:33:44.000Z</time>
      </trkpt>
      <trkpt lat="39.75378465838730335235595703125" lon="-0.36597643978893756866455078125">
        <ele>191.600006103515625</ele>
        <time>2022-05-07T09:33:48.000Z</time>
      </trkpt>
      <trkpt lat="39.75377962924540042877197265625" lon="-0.365875773131847381591796875">
        <ele>191</ele>
        <time>2022-05-07T09:33:49.000Z</time>
      </trkpt>
      <trkpt lat="39.7537656314671039581298828125" lon="-0.365657508373260498046875">
        <ele>189.600006103515625</ele>
        <time>2022-05-07T09:33:51.000Z</time>
      </trkpt>
      <trkpt lat="39.7537549026310443878173828125" lon="-0.36533539183437824249267578125">
        <ele>188</ele>
        <time>2022-05-07T09:33:54.000Z</time>
      </trkpt>
      <trkpt lat="39.75375942885875701904296875" lon="-0.36523950286209583282470703125">
        <ele>187.8000030517578125</ele>
        <time>2022-05-07T09:33:55.000Z</time>
      </trkpt>
      <trkpt lat="39.75376839749515056610107421875" lon="-0.3650843538343906402587890625">
        <ele>187.399993896484375</ele>
        <time>2022-05-07T09:33:57.000Z</time>
      </trkpt>
      <trkpt lat="39.75377225317060947418212890625" lon="-0.36501847207546234130859375">
        <ele>187.399993896484375</ele>
        <time>2022-05-07T09:33:58.000Z</time>
      </trkpt>
      <trkpt lat="39.75377309136092662811279296875" lon="-0.36495015956461429595947265625">
        <ele>187.1999969482421875</ele>
        <time>2022-05-07T09:33:59.000Z</time>
      </trkpt>
      <trkpt lat="39.7537696547806262969970703125" lon="-0.36488712765276432037353515625">
        <ele>187</ele>
        <time>2022-05-07T09:34:00.000Z</time>
      </trkpt>
      <trkpt lat="39.75375984795391559600830078125" lon="-0.3648352436721324920654296875">
        <ele>186.8000030517578125</ele>
        <time>2022-05-07T09:34:01.000Z</time>
      </trkpt>
      <trkpt lat="39.75375138223171234130859375" lon="-0.36478520371019840240478515625">
        <ele>186.600006103515625</ele>
        <time>2022-05-07T09:34:02.000Z</time>
      </trkpt>
      <trkpt lat="39.75376219488680362701416015625" lon="-0.36467154510319232940673828125">
        <ele>186.399993896484375</ele>
        <time>2022-05-07T09:34:04.000Z</time>
      </trkpt>
      <trkpt lat="39.75377460010349750518798828125" lon="-0.364609099924564361572265625">
        <ele>186.399993896484375</ele>
        <time>2022-05-07T09:34:05.000Z</time>
      </trkpt>
      <trkpt lat="39.75380779244005680084228515625" lon="-0.36448337137699127197265625">
        <ele>185.8000030517578125</ele>
        <time>2022-05-07T09:34:07.000Z</time>
      </trkpt>
      <trkpt lat="39.753841571509838104248046875" lon="-0.36429720930755138397216796875">
        <ele>185</ele>
        <time>2022-05-07T09:34:10.000Z</time>
      </trkpt>
      <trkpt lat="39.75385825149714946746826171875" lon="-0.3642399609088897705078125">
        <ele>184.8000030517578125</ele>
        <time>2022-05-07T09:34:11.000Z</time>
      </trkpt>
      <trkpt lat="39.753928072750568389892578125" lon="-0.364088751375675201416015625">
        <ele>184.600006103515625</ele>
        <time>2022-05-07T09:34:14.000Z</time>
      </trkpt>
      <trkpt lat="39.753955900669097900390625" lon="-0.36404675804078578948974609375">
        <ele>184.399993896484375</ele>
        <time>2022-05-07T09:34:15.000Z</time>
      </trkpt>
      <trkpt lat="39.75397710688412189483642578125" lon="-0.363998897373676300048828125">
        <ele>184.399993896484375</ele>
        <time>2022-05-07T09:34:16.000Z</time>
      </trkpt>
      <trkpt lat="39.7539751790463924407958984375" lon="-0.36389085464179515838623046875">
        <ele>183.8000030517578125</ele>
        <time>2022-05-07T09:34:18.000Z</time>
      </trkpt>
      <trkpt lat="39.7538705728948116302490234375" lon="-0.363660268485546112060546875">
        <ele>181.8000030517578125</ele>
        <time>2022-05-07T09:34:22.000Z</time>
      </trkpt>
      <trkpt lat="39.7538393922150135040283203125" lon="-0.363602600991725921630859375">
        <ele>181.600006103515625</ele>
        <time>2022-05-07T09:34:23.000Z</time>
      </trkpt>
      <trkpt lat="39.7537512145936489105224609375" lon="-0.36340705119073390960693359375">
        <ele>181.1999969482421875</ele>
        <time>2022-05-07T09:34:26.000Z</time>
      </trkpt>
      <trkpt lat="39.75369011051952838897705078125" lon="-0.36325760185718536376953125">
        <ele>181</ele>
        <time>2022-05-07T09:34:28.000Z</time>
      </trkpt>
      <trkpt lat="39.75365926511585712432861328125" lon="-0.3631930612027645111083984375">
        <ele>181</ele>
        <time>2022-05-07T09:34:29.000Z</time>
      </trkpt>
      <trkpt lat="39.75358416326344013214111328125" lon="-0.3630629740655422210693359375">
        <ele>180.8000030517578125</ele>
        <time>2022-05-07T09:34:32.000Z</time>
      </trkpt>
      <trkpt lat="39.753569662570953369140625" lon="-0.36304679699242115020751953125">
        <ele>180.600006103515625</ele>
        <time>2022-05-07T09:34:33.000Z</time>
      </trkpt>
      <trkpt lat="39.7535554133355617523193359375" lon="-0.36303271539509296417236328125">
        <ele>180.600006103515625</ele>
        <time>2022-05-07T09:34:35.000Z</time>
      </trkpt>
      <trkpt lat="39.75355558097362518310546875" lon="-0.36302684806287288665771484375">
        <ele>180.600006103515625</ele>
        <time>2022-05-07T09:34:37.000Z</time>
      </trkpt>
      <trkpt lat="39.75355415605008602142333984375" lon="-0.3629717789590358734130859375">
        <ele>180.399993896484375</ele>
        <time>2022-05-07T09:34:41.000Z</time>
      </trkpt>
      <trkpt lat="39.75354560650885105133056640625" lon="-0.36290715448558330535888671875">
        <ele>180.399993896484375</ele>
        <time>2022-05-07T09:34:43.000Z</time>
      </trkpt>
      <trkpt lat="39.7535108216106891632080078125" lon="-0.36282568238675594329833984375">
        <ele>180.1999969482421875</ele>
        <time>2022-05-07T09:34:45.000Z</time>
      </trkpt>
      <trkpt lat="39.753480814397335052490234375" lon="-0.36276943981647491455078125">
        <ele>180</ele>
        <time>2022-05-07T09:34:46.000Z</time>
      </trkpt>
      <trkpt lat="39.75337998010218143463134765625" lon="-0.36256953142583370208740234375">
        <ele>179.399993896484375</ele>
        <time>2022-05-07T09:34:49.000Z</time>
      </trkpt>
      <trkpt lat="39.75332281552255153656005859375" lon="-0.362426452338695526123046875">
        <ele>178.8000030517578125</ele>
        <time>2022-05-07T09:34:51.000Z</time>
      </trkpt>
      <trkpt lat="39.753288365900516510009765625" lon="-0.36235596053302288055419921875">
        <ele>178.399993896484375</ele>
        <time>2022-05-07T09:34:52.000Z</time>
      </trkpt>
      <trkpt lat="39.75317562930285930633544921875" lon="-0.3621466644108295440673828125">
        <ele>177.399993896484375</ele>
        <time>2022-05-07T09:34:55.000Z</time>
      </trkpt>
      <trkpt lat="39.753103964030742645263671875" lon="-0.361977517604827880859375">
        <ele>176.600006103515625</ele>
        <time>2022-05-07T09:34:58.000Z</time>
      </trkpt>
      <trkpt lat="39.75310019217431545257568359375" lon="-0.3619401343166828155517578125">
        <ele>176.399993896484375</ele>
        <time>2022-05-07T09:34:59.000Z</time>
      </trkpt>
      <trkpt lat="39.75310455076396465301513671875" lon="-0.361906103789806365966796875">
        <ele>176.1999969482421875</ele>
        <time>2022-05-07T09:35:00.000Z</time>
      </trkpt>
      <trkpt lat="39.75313506089150905609130859375" lon="-0.36185748875141143798828125">
        <ele>176.1999969482421875</ele>
        <time>2022-05-07T09:35:02.000Z</time>
      </trkpt>
      <trkpt lat="39.75314654409885406494140625" lon="-0.36185002885758876800537109375">
        <ele>176.1999969482421875</ele>
        <time>2022-05-07T09:35:04.000Z</time>
      </trkpt>
      <trkpt lat="39.75331686437129974365234375" lon="-0.3618600033223628997802734375">
        <ele>177</ele>
        <time>2022-05-07T09:46:50.000Z</time>
      </trkpt>
      <trkpt lat="39.75333505310118198394775390625" lon="-0.3617909364402294158935546875">
        <ele>177</ele>
        <time>2022-05-07T09:46:54.000Z</time>
      </trkpt>
      <trkpt lat="39.75333421491086483001708984375" lon="-0.3617798723280429840087890625">
        <ele>176.8000030517578125</ele>
        <time>2022-05-07T09:46:55.000Z</time>
      </trkpt>
      <trkpt lat="39.75334259681403636932373046875" lon="-0.36173603497445583343505859375">
        <ele>176.8000030517578125</ele>
        <time>2022-05-07T09:46:59.000Z</time>
      </trkpt>
      <trkpt lat="39.753360114991664886474609375" lon="-0.3617245517671108245849609375">
        <ele>176.8000030517578125</ele>
        <time>2022-05-07T09:47:00.000Z</time>
      </trkpt>
      <trkpt lat="39.75341166369616985321044921875" lon="-0.36168725229799747467041015625">
        <ele>177</ele>
        <time>2022-05-07T09:47:03.000Z</time>
      </trkpt>
      <trkpt lat="39.75344133563339710235595703125" lon="-0.361641906201839447021484375">
        <ele>177</ele>
        <time>2022-05-07T09:47:05.000Z</time>
      </trkpt>
      <trkpt lat="39.75350939668715000152587890625" lon="-0.361535958945751190185546875">
        <ele>176.8000030517578125</ele>
        <time>2022-05-07T09:47:09.000Z</time>
      </trkpt>
      <trkpt lat="39.75369262509047985076904296875" lon="-0.3613634593784809112548828125">
        <ele>177.1999969482421875</ele>
        <time>2022-05-07T09:47:16.000Z</time>
      </trkpt>
      <trkpt lat="39.75384199060499668121337890625" lon="-0.361182577908039093017578125">
        <ele>176.8000030517578125</ele>
        <time>2022-05-07T09:47:23.000Z</time>
      </trkpt>
      <trkpt lat="39.7537770308554172515869140625" lon="-0.36102273501455783843994140625">
        <ele>176.399993896484375</ele>
        <time>2022-05-07T09:47:27.000Z</time>
      </trkpt>
      <trkpt lat="39.75372196175158023834228515625" lon="-0.36091024987399578094482421875">
        <ele>176</ele>
        <time>2022-05-07T09:47:29.000Z</time>
      </trkpt>
      <trkpt lat="39.753698743879795074462890625" lon="-0.36081276834011077880859375">
        <ele>175.8000030517578125</ele>
        <time>2022-05-07T09:47:31.000Z</time>
      </trkpt>
      <trkpt lat="39.75369966588914394378662109375" lon="-0.3607733733952045440673828125">
        <ele>175.600006103515625</ele>
        <time>2022-05-07T09:47:32.000Z</time>
      </trkpt>
      <trkpt lat="39.7537176869809627532958984375" lon="-0.3606927394866943359375">
        <ele>175.600006103515625</ele>
        <time>2022-05-07T09:47:35.000Z</time>
      </trkpt>
      <trkpt lat="39.753754399716854095458984375" lon="-0.36062375642359256744384765625">
        <ele>175.399993896484375</ele>
        <time>2022-05-07T09:47:40.000Z</time>
      </trkpt>
      <trkpt lat="39.7537666372954845428466796875" lon="-0.36044840700924396514892578125">
        <ele>175</ele>
        <time>2022-05-07T09:47:44.000Z</time>
      </trkpt>
      <trkpt lat="39.75378113798797130584716796875" lon="-0.3603338263928890228271484375">
        <ele>174.399993896484375</ele>
        <time>2022-05-07T09:47:46.000Z</time>
      </trkpt>
      <trkpt lat="39.7538380511105060577392578125" lon="-0.36022930406033992767333984375">
        <ele>174.1999969482421875</ele>
        <time>2022-05-07T09:47:48.000Z</time>
      </trkpt>
      <trkpt lat="39.7538752667605876922607421875" lon="-0.3601816110312938690185546875">
        <ele>174</ele>
        <time>2022-05-07T09:47:49.000Z</time>
      </trkpt>
      <trkpt lat="39.75407517515122890472412109375" lon="-0.35993878729641437530517578125">
        <ele>173.600006103515625</ele>
        <time>2022-05-07T09:47:54.000Z</time>
      </trkpt>
      <trkpt lat="39.7540838085114955902099609375" lon="-0.3597769327461719512939453125">
        <ele>172.600006103515625</ele>
        <time>2022-05-07T09:47:57.000Z</time>
      </trkpt>
      <trkpt lat="39.75407165475189685821533203125" lon="-0.3596706502139568328857421875">
        <ele>172</ele>
        <time>2022-05-07T09:47:59.000Z</time>
      </trkpt>
      <trkpt lat="39.754056818783283233642578125" lon="-0.35955774597823619842529296875">
        <ele>171.1999969482421875</ele>
        <time>2022-05-07T09:48:01.000Z</time>
      </trkpt>
      <trkpt lat="39.7540264762938022613525390625" lon="-0.3594414889812469482421875">
        <ele>170.600006103515625</ele>
        <time>2022-05-07T09:48:03.000Z</time>
      </trkpt>
      <trkpt lat="39.7539545595645904541015625" lon="-0.3592336177825927734375">
        <ele>169.8000030517578125</ele>
        <time>2022-05-07T09:48:06.000Z</time>
      </trkpt>
      <trkpt lat="39.75386361591517925262451171875" lon="-0.35895123146474361419677734375">
        <ele>169.399993896484375</ele>
        <time>2022-05-07T09:48:10.000Z</time>
      </trkpt>
      <trkpt lat="39.75373704917728900909423828125" lon="-0.3583811782300472259521484375">
        <ele>168.399993896484375</ele>
        <time>2022-05-07T09:48:18.000Z</time>
      </trkpt>
      <trkpt lat="39.75368424318730831146240234375" lon="-0.3581783361732959747314453125">
        <ele>168.1999969482421875</ele>
        <time>2022-05-07T09:48:21.000Z</time>
      </trkpt>
      <trkpt lat="39.7536392323672771453857421875" lon="-0.35798010416328907012939453125">
        <ele>167.8000030517578125</ele>
        <time>2022-05-07T09:48:24.000Z</time>
      </trkpt>
      <trkpt lat="39.75362959317862987518310546875" lon="-0.357912965118885040283203125">
        <ele>167.399993896484375</ele>
        <time>2022-05-07T09:48:25.000Z</time>
      </trkpt>
      <trkpt lat="39.75361316464841365814208984375" lon="-0.35776468925178050994873046875">
        <ele>166.8000030517578125</ele>
        <time>2022-05-07T09:48:27.000Z</time>
      </trkpt>
      <trkpt lat="39.75359539501368999481201171875" lon="-0.357693023979663848876953125">
        <ele>166.600006103515625</ele>
        <time>2022-05-07T09:48:28.000Z</time>
      </trkpt>
      <trkpt lat="39.75343714468181133270263671875" lon="-0.3573010861873626708984375">
        <ele>164.8000030517578125</ele>
        <time>2022-05-07T09:48:34.000Z</time>
      </trkpt>
      <trkpt lat="39.75340479053556919097900390625" lon="-0.35724098794162273406982421875">
        <ele>164.600006103515625</ele>
        <time>2022-05-07T09:48:35.000Z</time>
      </trkpt>
      <trkpt lat="39.7532791458070278167724609375" lon="-0.35690973512828350067138671875">
        <ele>163.600006103515625</ele>
        <time>2022-05-07T09:48:40.000Z</time>
      </trkpt>
      <trkpt lat="39.7531638108193874359130859375" lon="-0.3568021953105926513671875">
        <ele>163.399993896484375</ele>
        <time>2022-05-07T09:48:43.000Z</time>
      </trkpt>
      <trkpt lat="39.75306482054293155670166015625" lon="-0.356802530586719512939453125">
        <ele>163.1999969482421875</ele>
        <time>2022-05-07T09:48:45.000Z</time>
      </trkpt>
      <trkpt lat="39.7529680095613002777099609375" lon="-0.35680848173797130584716796875">
        <ele>163.1999969482421875</ele>
        <time>2022-05-07T09:48:47.000Z</time>
      </trkpt>
      <trkpt lat="39.7528258524835109710693359375" lon="-0.35681627690792083740234375">
        <ele>163</ele>
        <time>2022-05-07T09:48:50.000Z</time>
      </trkpt>
      <trkpt lat="39.7527805902063846588134765625" lon="-0.35683446563780307769775390625">
        <ele>162.8000030517578125</ele>
        <time>2022-05-07T09:48:51.000Z</time>
      </trkpt>
      <trkpt lat="39.75273474119603633880615234375" lon="-0.35685709677636623382568359375">
        <ele>162.8000030517578125</ele>
        <time>2022-05-07T09:48:52.000Z</time>
      </trkpt>
      <trkpt lat="39.75268897600471973419189453125" lon="-0.356882996857166290283203125">
        <ele>162.8000030517578125</ele>
        <time>2022-05-07T09:48:53.000Z</time>
      </trkpt>
      <trkpt lat="39.75255184806883335113525390625" lon="-0.3569698333740234375">
        <ele>162.600006103515625</ele>
        <time>2022-05-07T09:48:56.000Z</time>
      </trkpt>
      <trkpt lat="39.752503819763660430908203125" lon="-0.35698651336133480072021484375">
        <ele>162.600006103515625</ele>
        <time>2022-05-07T09:48:57.000Z</time>
      </trkpt>
      <trkpt lat="39.752366356551647186279296875" lon="-0.3569309413433074951171875">
        <ele>162.399993896484375</ele>
        <time>2022-05-07T09:49:00.000Z</time>
      </trkpt>
      <trkpt lat="39.752326793968677520751953125" lon="-0.35688408650457859039306640625">
        <ele>162.399993896484375</ele>
        <time>2022-05-07T09:49:01.000Z</time>
      </trkpt>
      <trkpt lat="39.75228480063378810882568359375" lon="-0.356838069856166839599609375">
        <ele>162</ele>
        <time>2022-05-07T09:49:02.000Z</time>
      </trkpt>
      <trkpt lat="39.7521355189383029937744140625" lon="-0.35672985948622226715087890625">
        <ele>160.600006103515625</ele>
        <time>2022-05-07T09:49:05.000Z</time>
      </trkpt>
      <trkpt lat="39.751995541155338287353515625" lon="-0.356621481478214263916015625">
        <ele>159.600006103515625</ele>
        <time>2022-05-07T09:49:08.000Z</time>
      </trkpt>
      <trkpt lat="39.751937873661518096923828125" lon="-0.35653674043715000152587890625">
        <ele>159.1999969482421875</ele>
        <time>2022-05-07T09:49:10.000Z</time>
      </trkpt>
      <trkpt lat="39.75188364274799823760986328125" lon="-0.35625762306153774261474609375">
        <ele>158.8000030517578125</ele>
        <time>2022-05-07T09:49:15.000Z</time>
      </trkpt>
      <trkpt lat="39.75188230164349079132080078125" lon="-0.35619073547422885894775390625">
        <ele>158.8000030517578125</ele>
        <time>2022-05-07T09:49:16.000Z</time>
      </trkpt>
      <trkpt lat="39.75186570547521114349365234375" lon="-0.35605176351964473724365234375">
        <ele>158.8000030517578125</ele>
        <time>2022-05-07T09:49:18.000Z</time>
      </trkpt>
      <trkpt lat="39.7518522106111049652099609375" lon="-0.35598604939877986907958984375">
        <ele>159</ele>
        <time>2022-05-07T09:49:19.000Z</time>
      </trkpt>
      <trkpt lat="39.75184089504182338714599609375" lon="-0.355928130447864532470703125">
        <ele>159</ele>
        <time>2022-05-07T09:49:20.000Z</time>
      </trkpt>
      <trkpt lat="39.7518434934318065643310546875" lon="-0.355803072452545166015625">
        <ele>159</ele>
        <time>2022-05-07T09:49:23.000Z</time>
      </trkpt>
      <trkpt lat="39.75184156559407711029052734375" lon="-0.35572771914303302764892578125">
        <ele>159</ele>
        <time>2022-05-07T09:49:28.000Z</time>
      </trkpt>
      <trkpt lat="39.751841314136981964111328125" lon="-0.35572822205722332000732421875">
        <ele>159</ele>
        <time>2022-05-07T09:49:29.000Z</time>
      </trkpt>
      <trkpt lat="39.751839302480220794677734375" lon="-0.35568329505622386932373046875">
        <ele>159</ele>
        <time>2022-05-07T09:49:35.000Z</time>
      </trkpt>
      <trkpt lat="39.75183100439608097076416015625" lon="-0.3556327521800994873046875">
        <ele>159</ele>
        <time>2022-05-07T09:49:37.000Z</time>
      </trkpt>
      <trkpt lat="39.751804433763027191162109375" lon="-0.35538372583687305450439453125">
        <ele>159.1999969482421875</ele>
        <time>2022-05-07T09:49:43.000Z</time>
      </trkpt>
      <trkpt lat="39.75179378874599933624267578125" lon="-0.354979969561100006103515625">
        <ele>159.8000030517578125</ele>
        <time>2022-05-07T09:49:51.000Z</time>
      </trkpt>
      <trkpt lat="39.7517777793109416961669921875" lon="-0.35472893156111240386962890625">
        <ele>160</ele>
        <time>2022-05-07T09:49:56.000Z</time>
      </trkpt>
      <trkpt lat="39.751750119030475616455078125" lon="-0.35446934401988983154296875">
        <ele>159.600006103515625</ele>
        <time>2022-05-07T09:50:01.000Z</time>
      </trkpt>
      <trkpt lat="39.751708209514617919921875" lon="-0.3540095128118991851806640625">
        <ele>158.600006103515625</ele>
        <time>2022-05-07T09:50:10.000Z</time>
      </trkpt>
      <trkpt lat="39.7517103888094425201416015625" lon="-0.35396584309637546539306640625">
        <ele>158.600006103515625</ele>
        <time>2022-05-07T09:50:11.000Z</time>
      </trkpt>
      <trkpt lat="39.75171633996069431304931640625" lon="-0.35380574874579906463623046875">
        <ele>158.1999969482421875</ele>
        <time>2022-05-07T09:50:16.000Z</time>
      </trkpt>
      <trkpt lat="39.7517177648842334747314453125" lon="-0.35378093831241130828857421875">
        <ele>158.1999969482421875</ele>
        <time>2022-05-07T09:50:19.000Z</time>
      </trkpt>
      <trkpt lat="39.7517191059887409210205078125" lon="-0.35374690778553485870361328125">
        <ele>158.1999969482421875</ele>
        <time>2022-05-07T09:51:03.000Z</time>
      </trkpt>
      <trkpt lat="39.7517445869743824005126953125" lon="-0.3535837121307849884033203125">
        <ele>158</ele>
        <time>2022-05-07T09:51:08.000Z</time>
      </trkpt>
      <trkpt lat="39.75178440101444721221923828125" lon="-0.353394784033298492431640625">
        <ele>158</ele>
        <time>2022-05-07T09:51:12.000Z</time>
      </trkpt>
      <trkpt lat="39.75179043598473072052001953125" lon="-0.35333904437720775604248046875">
        <ele>158</ele>
        <time>2022-05-07T09:51:13.000Z</time>
      </trkpt>
      <trkpt lat="39.7518039308488368988037109375" lon="-0.35304106771945953369140625">
        <ele>157.600006103515625</ele>
        <time>2022-05-07T09:51:18.000Z</time>
      </trkpt>
      <trkpt lat="39.7518119774758815765380859375" lon="-0.35297241993248462677001953125">
        <ele>157.600006103515625</ele>
        <time>2022-05-07T09:51:19.000Z</time>
      </trkpt>
      <trkpt lat="39.75184299051761627197265625" lon="-0.3524773009121417999267578125">
        <ele>155.600006103515625</ele>
        <time>2022-05-07T09:51:25.000Z</time>
      </trkpt>
      <trkpt lat="39.75184977985918521881103515625" lon="-0.35238132812082767486572265625">
        <ele>155.399993896484375</ele>
        <time>2022-05-07T09:51:26.000Z</time>
      </trkpt>
      <trkpt lat="39.75187945179641246795654296875" lon="-0.35209869034588336944580078125">
        <ele>154.600006103515625</ele>
        <time>2022-05-07T09:51:29.000Z</time>
      </trkpt>
      <trkpt lat="39.7519132308661937713623046875" lon="-0.35201386548578739166259765625">
        <ele>153.8000030517578125</ele>
        <time>2022-05-07T09:51:30.000Z</time>
      </trkpt>
      <trkpt lat="39.75196712650358676910400390625" lon="-0.3519405238330364227294921875">
        <ele>153</ele>
        <time>2022-05-07T09:51:31.000Z</time>
      </trkpt>
      <trkpt lat="39.7520537115633487701416015625" lon="-0.3518040664494037628173828125">
        <ele>151.600006103515625</ele>
        <time>2022-05-07T09:51:33.000Z</time>
      </trkpt>
      <trkpt lat="39.7520624287426471710205078125" lon="-0.3516461513936519622802734375">
        <ele>150.399993896484375</ele>
        <time>2022-05-07T09:51:35.000Z</time>
      </trkpt>
      <trkpt lat="39.75204222835600376129150390625" lon="-0.35155780613422393798828125">
        <ele>149.8000030517578125</ele>
        <time>2022-05-07T09:51:36.000Z</time>
      </trkpt>
      <trkpt lat="39.7520030848681926727294921875" lon="-0.35136946476995944976806640625">
        <ele>148.600006103515625</ele>
        <time>2022-05-07T09:51:38.000Z</time>
      </trkpt>
      <trkpt lat="39.75194533355534076690673828125" lon="-0.35100133158266544342041015625">
        <ele>148.1999969482421875</ele>
        <time>2022-05-07T09:51:42.000Z</time>
      </trkpt>
      <trkpt lat="39.7518931142985820770263671875" lon="-0.35064660944044589996337890625">
        <ele>147.600006103515625</ele>
        <time>2022-05-07T09:51:47.000Z</time>
      </trkpt>
      <trkpt lat="39.75188598968088626861572265625" lon="-0.35058416426181793212890625">
        <ele>147.600006103515625</ele>
        <time>2022-05-07T09:51:48.000Z</time>
      </trkpt>
      <trkpt lat="39.75185061804950237274169921875" lon="-0.35010874271392822265625">
        <ele>148</ele>
        <time>2022-05-07T09:51:56.000Z</time>
      </trkpt>
      <trkpt lat="39.7518304176628589630126953125" lon="-0.34968637861311435699462890625">
        <ele>148</ele>
        <time>2022-05-07T09:52:04.000Z</time>
      </trkpt>
      <trkpt lat="39.75183938629925251007080078125" lon="-0.3493421338498592376708984375">
        <ele>147</ele>
        <time>2022-05-07T09:52:10.000Z</time>
      </trkpt>
      <trkpt lat="39.75186352618038654327392578125" lon="-0.3487674705684185028076171875">
        <ele>143.8000030517578125</ele>
        <time>2022-05-07T09:52:18.000Z</time>
      </trkpt>
      <trkpt lat="39.751903675496578216552734375" lon="-0.34822507761418819427490234375">
        <ele>143.600006103515625</ele>
        <time>2022-05-07T09:52:26.000Z</time>
      </trkpt>
      <trkpt lat="39.7518946230411529541015625" lon="-0.34802391193807125091552734375">
        <ele>143.1999969482421875</ele>
        <time>2022-05-07T09:52:29.000Z</time>
      </trkpt>
      <trkpt lat="39.75186520256102085113525390625" lon="-0.34790036268532276153564453125">
        <ele>143.399993896484375</ele>
        <time>2022-05-07T09:52:31.000Z</time>
      </trkpt>
      <trkpt lat="39.75179898552596569061279296875" lon="-0.347744710743427276611328125">
        <ele>144.399993896484375</ele>
        <time>2022-05-07T09:52:34.000Z</time>
      </trkpt>
      <trkpt lat="39.75175917148590087890625" lon="-0.34763834439218044281005859375">
        <ele>145</ele>
        <time>2022-05-07T09:52:36.000Z</time>
      </trkpt>
      <trkpt lat="39.7517080418765544891357421875" lon="-0.347312875092029571533203125">
        <ele>146.8000030517578125</ele>
        <time>2022-05-07T09:52:42.000Z</time>
      </trkpt>
      <trkpt lat="39.75170628167688846588134765625" lon="-0.347262583673000335693359375">
        <ele>147</ele>
        <time>2022-05-07T09:52:43.000Z</time>
      </trkpt>
      <trkpt lat="39.7516785375773906707763671875" lon="-0.3470416367053985595703125">
        <ele>148</ele>
        <time>2022-05-07T09:52:48.000Z</time>
      </trkpt>
      <trkpt lat="39.75166864693164825439453125" lon="-0.34700366668403148651123046875">
        <ele>148.399993896484375</ele>
        <time>2022-05-07T09:52:49.000Z</time>
      </trkpt>
      <trkpt lat="39.75164392031729221343994140625" lon="-0.3469375334680080413818359375">
        <ele>148.8000030517578125</ele>
        <time>2022-05-07T09:52:51.000Z</time>
      </trkpt>
      <trkpt lat="39.75161391310393810272216796875" lon="-0.3468748368322849273681640625">
        <ele>149.1999969482421875</ele>
        <time>2022-05-07T09:52:53.000Z</time>
      </trkpt>
      <trkpt lat="39.75160016678273677825927734375" lon="-0.34684650599956512451171875">
        <ele>149.399993896484375</ele>
        <time>2022-05-07T09:52:54.000Z</time>
      </trkpt>
      <trkpt lat="39.7515538148581981658935546875" lon="-0.34671214409172534942626953125">
        <ele>150.600006103515625</ele>
        <time>2022-05-07T09:52:58.000Z</time>
      </trkpt>
      <trkpt lat="39.7515404038131237030029296875" lon="-0.34662798978388309478759765625">
        <ele>151.600006103515625</ele>
        <time>2022-05-07T09:53:00.000Z</time>
      </trkpt>
      <trkpt lat="39.7515347041189670562744140625" lon="-0.34658507443964481353759765625">
        <ele>152</ele>
        <time>2022-05-07T09:53:01.000Z</time>
      </trkpt>
      <trkpt lat="39.7515276633203029632568359375" lon="-0.346433110535144805908203125">
        <ele>153.8000030517578125</ele>
        <time>2022-05-07T09:53:05.000Z</time>
      </trkpt>
      <trkpt lat="39.751528166234493255615234375" lon="-0.34639723598957061767578125">
        <ele>154.399993896484375</ele>
        <time>2022-05-07T09:53:06.000Z</time>
      </trkpt>
      <trkpt lat="39.7515298426151275634765625" lon="-0.34633143804967403411865234375">
        <ele>155</ele>
        <time>2022-05-07T09:53:08.000Z</time>
      </trkpt>
      <trkpt lat="39.7515243105590343475341796875" lon="-0.3461818210780620574951171875">
        <ele>155.8000030517578125</ele>
        <time>2022-05-07T09:53:13.000Z</time>
      </trkpt>
      <trkpt lat="39.75152137689292430877685546875" lon="-0.34615558572113513946533203125">
        <ele>156</ele>
        <time>2022-05-07T09:53:14.000Z</time>
      </trkpt>
      <trkpt lat="39.7515005059540271759033203125" lon="-0.3460617922246456146240234375">
        <ele>156.1999969482421875</ele>
        <time>2022-05-07T09:53:18.000Z</time>
      </trkpt>
      <trkpt lat="39.7514619491994380950927734375" lon="-0.34596380777657032012939453125">
        <ele>156.399993896484375</ele>
        <time>2022-05-07T09:53:22.000Z</time>
      </trkpt>
      <trkpt lat="39.7513368912041187286376953125" lon="-0.34570212475955486297607421875">
        <ele>156.8000030517578125</ele>
        <time>2022-05-07T09:53:29.000Z</time>
      </trkpt>
      <trkpt lat="39.75113245658576488494873046875" lon="-0.345240868628025054931640625">
        <ele>157.399993896484375</ele>
        <time>2022-05-07T09:53:38.000Z</time>
      </trkpt>
      <trkpt lat="39.7510079853236675262451171875" lon="-0.3450247831642627716064453125">
        <ele>157.8000030517578125</ele>
        <time>2022-05-07T09:53:42.000Z</time>
      </trkpt>
      <trkpt lat="39.7509211488068103790283203125" lon="-0.34485035575926303863525390625">
        <ele>158</ele>
        <time>2022-05-07T09:53:45.000Z</time>
      </trkpt>
      <trkpt lat="39.75074454210698604583740234375" lon="-0.344475768506526947021484375">
        <ele>157.1999969482421875</ele>
        <time>2022-05-07T09:53:52.000Z</time>
      </trkpt>
      <trkpt lat="39.75058327428996562957763671875" lon="-0.34409933723509311676025390625">
        <ele>155.8000030517578125</ele>
        <time>2022-05-07T09:53:59.000Z</time>
      </trkpt>
      <trkpt lat="39.75050649605691432952880859375" lon="-0.343793816864490509033203125">
        <ele>154.600006103515625</ele>
        <time>2022-05-07T09:54:05.000Z</time>
      </trkpt>
      <trkpt lat="39.75046039558947086334228515625" lon="-0.34346767701208591461181640625">
        <ele>155</ele>
        <time>2022-05-07T09:54:13.000Z</time>
      </trkpt>
      <trkpt lat="39.75043005309998989105224609375" lon="-0.343115217983722686767578125">
        <ele>155.8000030517578125</ele>
        <time>2022-05-07T09:54:21.000Z</time>
      </trkpt>
      <trkpt lat="39.7504247725009918212890625" lon="-0.34305386245250701904296875">
        <ele>156</ele>
        <time>2022-05-07T09:54:22.000Z</time>
      </trkpt>
      <trkpt lat="39.75040926598012447357177734375" lon="-0.3427640162408351898193359375">
        <ele>155.8000030517578125</ele>
        <time>2022-05-07T09:54:26.000Z</time>
      </trkpt>
      <trkpt lat="39.7504286281764507293701171875" lon="-0.34253041259944438934326171875">
        <ele>155.600006103515625</ele>
        <time>2022-05-07T09:54:29.000Z</time>
      </trkpt>
      <trkpt lat="39.7504463978111743927001953125" lon="-0.34228675067424774169921875">
        <ele>155.399993896484375</ele>
        <time>2022-05-07T09:54:32.000Z</time>
      </trkpt>
      <trkpt lat="39.75041077472269535064697265625" lon="-0.3418319486081600189208984375">
        <ele>154.600006103515625</ele>
        <time>2022-05-07T09:54:38.000Z</time>
      </trkpt>
      <trkpt lat="39.75040239281952381134033203125" lon="-0.3417571820318698883056640625">
        <ele>154.600006103515625</ele>
        <time>2022-05-07T09:54:39.000Z</time>
      </trkpt>
      <trkpt lat="39.7503458149731159210205078125" lon="-0.341136418282985687255859375">
        <ele>153.600006103515625</ele>
        <time>2022-05-07T09:54:47.000Z</time>
      </trkpt>
      <trkpt lat="39.750309772789478302001953125" lon="-0.3408472426235675811767578125">
        <ele>152.8000030517578125</ele>
        <time>2022-05-07T09:54:51.000Z</time>
      </trkpt>
      <trkpt lat="39.7502941824495792388916015625" lon="-0.340707935392856597900390625">
        <ele>152.399993896484375</ele>
        <time>2022-05-07T09:54:53.000Z</time>
      </trkpt>
      <trkpt lat="39.750248081982135772705078125" lon="-0.34013452939689159393310546875">
        <ele>152.1999969482421875</ele>
        <time>2022-05-07T09:55:01.000Z</time>
      </trkpt>
      <trkpt lat="39.75023944862186908721923828125" lon="-0.339974351227283477783203125">
        <ele>152.1999969482421875</ele>
        <time>2022-05-07T09:55:03.000Z</time>
      </trkpt>
      <trkpt lat="39.7502003051340579986572265625" lon="-0.33976287581026554107666015625">
        <ele>152.1999969482421875</ele>
        <time>2022-05-07T09:55:06.000Z</time>
      </trkpt>
      <trkpt lat="39.75007005035877227783203125" lon="-0.33968291245400905609130859375">
        <ele>152.399993896484375</ele>
        <time>2022-05-07T09:55:09.000Z</time>
      </trkpt>
      <trkpt lat="39.74993887357413768768310546875" lon="-0.33956958912312984466552734375">
        <ele>152.399993896484375</ele>
        <time>2022-05-07T09:55:12.000Z</time>
      </trkpt>
      <trkpt lat="39.7498670406639575958251953125" lon="-0.33936942927539348602294921875">
        <ele>152</ele>
        <time>2022-05-07T09:55:15.000Z</time>
      </trkpt>
      <trkpt lat="39.74984818138182163238525390625" lon="-0.339297764003276824951171875">
        <ele>151.8000030517578125</ele>
        <time>2022-05-07T09:55:16.000Z</time>
      </trkpt>
      <trkpt lat="39.74977827630937099456787109375" lon="-0.3389908187091350555419921875">
        <ele>151.1999969482421875</ele>
        <time>2022-05-07T09:55:20.000Z</time>
      </trkpt>
      <trkpt lat="39.7497369535267353057861328125" lon="-0.3387455642223358154296875">
        <ele>150.600006103515625</ele>
        <time>2022-05-07T09:55:23.000Z</time>
      </trkpt>
      <trkpt lat="39.74966503679752349853515625" lon="-0.33826670609414577484130859375">
        <ele>150.1999969482421875</ele>
        <time>2022-05-07T09:55:29.000Z</time>
      </trkpt>
      <trkpt lat="39.74964936263859272003173828125" lon="-0.3381030075252056121826171875">
        <ele>150</ele>
        <time>2022-05-07T09:55:31.000Z</time>
      </trkpt>
      <trkpt lat="39.749656654894351959228515625" lon="-0.3378341160714626312255859375">
        <ele>149.600006103515625</ele>
        <time>2022-05-07T09:55:34.000Z</time>
      </trkpt>
      <trkpt lat="39.74968339316546916961669921875" lon="-0.33764024265110492706298828125">
        <ele>149</ele>
        <time>2022-05-07T09:55:36.000Z</time>
      </trkpt>
      <trkpt lat="39.74970283918082714080810546875" lon="-0.33754133619368076324462890625">
        <ele>148.600006103515625</ele>
        <time>2022-05-07T09:55:37.000Z</time>
      </trkpt>
      <trkpt lat="39.7498056851327419281005859375" lon="-0.33707479946315288543701171875">
        <ele>147.1999969482421875</ele>
        <time>2022-05-07T09:55:42.000Z</time>
      </trkpt>
      <trkpt lat="39.74982018582522869110107421875" lon="-0.33698678947985172271728515625">
        <ele>147.1999969482421875</ele>
        <time>2022-05-07T09:55:43.000Z</time>
      </trkpt>
      <trkpt lat="39.7498298250138759613037109375" lon="-0.33689693547785282135009765625">
        <ele>147</ele>
        <time>2022-05-07T09:55:44.000Z</time>
      </trkpt>
      <trkpt lat="39.74981800653040409088134765625" lon="-0.33672275952994823455810546875">
        <ele>146.8000030517578125</ele>
        <time>2022-05-07T09:55:46.000Z</time>
      </trkpt>
      <trkpt lat="39.74973267875611782073974609375" lon="-0.3364973701536655426025390625">
        <ele>146.399993896484375</ele>
        <time>2022-05-07T09:55:49.000Z</time>
      </trkpt>
      <trkpt lat="39.74970518611371517181396484375" lon="-0.33642821945250034332275390625">
        <ele>146.399993896484375</ele>
        <time>2022-05-07T09:55:50.000Z</time>
      </trkpt>
      <trkpt lat="39.74964894354343414306640625" lon="-0.33622487448155879974365234375">
        <ele>146</ele>
        <time>2022-05-07T09:55:53.000Z</time>
      </trkpt>
      <trkpt lat="39.74965430796146392822265625" lon="-0.33608950674533843994140625">
        <ele>145.399993896484375</ele>
        <time>2022-05-07T09:55:55.000Z</time>
      </trkpt>
      <trkpt lat="39.749769307672977447509765625" lon="-0.33584517426788806915283203125">
        <ele>144.600006103515625</ele>
        <time>2022-05-07T09:55:59.000Z</time>
      </trkpt>
      <trkpt lat="39.749806188046932220458984375" lon="-0.33578884787857532501220703125">
        <ele>144.399993896484375</ele>
        <time>2022-05-07T09:56:00.000Z</time>
      </trkpt>
      <trkpt lat="39.74992412142455577850341796875" lon="-0.335553400218486785888671875">
        <ele>143.8000030517578125</ele>
        <time>2022-05-07T09:56:04.000Z</time>
      </trkpt>
      <trkpt lat="39.74993669427931308746337890625" lon="-0.33548776991665363311767578125">
        <ele>143.399993896484375</ele>
        <time>2022-05-07T09:56:05.000Z</time>
      </trkpt>
      <trkpt lat="39.74990484304726123809814453125" lon="-0.33529632724821567535400390625">
        <ele>143.399993896484375</ele>
        <time>2022-05-07T09:56:08.000Z</time>
      </trkpt>
      <trkpt lat="39.74988229572772979736328125" lon="-0.33523530699312686920166015625">
        <ele>143.399993896484375</ele>
        <time>2022-05-07T09:56:09.000Z</time>
      </trkpt>
      <trkpt lat="39.74969931878149509429931640625" lon="-0.33470607362687587738037109375">
        <ele>144.399993896484375</ele>
        <time>2022-05-07T09:56:17.000Z</time>
      </trkpt>
      <trkpt lat="39.749600999057292938232421875" lon="-0.33446819521486759185791015625">
        <ele>144.600006103515625</ele>
        <time>2022-05-07T09:56:21.000Z</time>
      </trkpt>
      <trkpt lat="39.74956034682691097259521484375" lon="-0.33444003202021121978759765625">
        <ele>144.600006103515625</ele>
        <time>2022-05-07T09:56:22.000Z</time>
      </trkpt>
      <trkpt lat="39.7494197823107242584228515625" lon="-0.33448277972638607025146484375">
        <ele>144.1999969482421875</ele>
        <time>2022-05-07T09:56:25.000Z</time>
      </trkpt>
      <trkpt lat="39.7493289224803447723388671875" lon="-0.3345613181591033935546875">
        <ele>144</ele>
        <time>2022-05-07T09:56:27.000Z</time>
      </trkpt>
      <trkpt lat="39.74923395551741123199462890625" lon="-0.3346345759928226470947265625">
        <ele>143.600006103515625</ele>
        <time>2022-05-07T09:56:29.000Z</time>
      </trkpt>
      <trkpt lat="39.749135635793209075927734375" lon="-0.3347103483974933624267578125">
        <ele>143.1999969482421875</ele>
        <time>2022-05-07T09:56:31.000Z</time>
      </trkpt>
      <trkpt lat="39.7487819194793701171875" lon="-0.33496809192001819610595703125">
        <ele>142</ele>
        <time>2022-05-07T09:56:38.000Z</time>
      </trkpt>
      <trkpt lat="39.74868728779256343841552734375" lon="-0.33502223901450634002685546875">
        <ele>141.600006103515625</ele>
        <time>2022-05-07T09:56:40.000Z</time>
      </trkpt>
      <trkpt lat="39.74859978072345256805419921875" lon="-0.33501125872135162353515625">
        <ele>141.1999969482421875</ele>
        <time>2022-05-07T09:56:42.000Z</time>
      </trkpt>
      <trkpt lat="39.74856021814048290252685546875" lon="-0.33497639000415802001953125">
        <ele>141</ele>
        <time>2022-05-07T09:56:43.000Z</time>
      </trkpt>
      <trkpt lat="39.74850422702729701995849609375" lon="-0.33485166728496551513671875">
        <ele>141.1999969482421875</ele>
        <time>2022-05-07T09:56:45.000Z</time>
      </trkpt>
      <trkpt lat="39.7484840266406536102294921875" lon="-0.33477614633738994598388671875">
        <ele>141.399993896484375</ele>
        <time>2022-05-07T09:56:46.000Z</time>
      </trkpt>
      <trkpt lat="39.748446308076381683349609375" lon="-0.33462527208030223846435546875">
        <ele>141.399993896484375</ele>
        <time>2022-05-07T09:56:48.000Z</time>
      </trkpt>
      <trkpt lat="39.7483311407268047332763671875" lon="-0.33426434732973575592041015625">
        <ele>141.1999969482421875</ele>
        <time>2022-05-07T09:56:53.000Z</time>
      </trkpt>
      <trkpt lat="39.74823986180126667022705078125" lon="-0.3340716473758220672607421875">
        <ele>141.1999969482421875</ele>
        <time>2022-05-07T09:56:56.000Z</time>
      </trkpt>
      <trkpt lat="39.7481806017458438873291015625" lon="-0.33394776284694671630859375">
        <ele>141.1999969482421875</ele>
        <time>2022-05-07T09:56:58.000Z</time>
      </trkpt>
      <trkpt lat="39.74800080992281436920166015625" lon="-0.3335635364055633544921875">
        <ele>141</ele>
        <time>2022-05-07T09:57:05.000Z</time>
      </trkpt>
      <trkpt lat="39.747851528227329254150390625" lon="-0.33322432078421115875244140625">
        <ele>141.1999969482421875</ele>
        <time>2022-05-07T09:57:11.000Z</time>
      </trkpt>
      <trkpt lat="39.74771565757691860198974609375" lon="-0.3328150324523448944091796875">
        <ele>140.8000030517578125</ele>
        <time>2022-05-07T09:57:18.000Z</time>
      </trkpt>
      <trkpt lat="39.74763485603034496307373046875" lon="-0.3324938379228115081787109375">
        <ele>140.1999969482421875</ele>
        <time>2022-05-07T09:57:24.000Z</time>
      </trkpt>
      <trkpt lat="39.74759378470480442047119140625" lon="-0.33238160423934459686279296875">
        <ele>140.1999969482421875</ele>
        <time>2022-05-07T09:57:26.000Z</time>
      </trkpt>
      <trkpt lat="39.7475207783281803131103515625" lon="-0.332297869026660919189453125">
        <ele>140.1999969482421875</ele>
        <time>2022-05-07T09:57:28.000Z</time>
      </trkpt>
      <trkpt lat="39.74737652577459812164306640625" lon="-0.332240201532840728759765625">
        <ele>139.8000030517578125</ele>
        <time>2022-05-07T09:57:31.000Z</time>
      </trkpt>
      <trkpt lat="39.74732841365039348602294921875" lon="-0.33222503028810024261474609375">
        <ele>139.8000030517578125</ele>
        <time>2022-05-07T09:57:32.000Z</time>
      </trkpt>
      <trkpt lat="39.74696279503405094146728515625" lon="-0.33212897367775440216064453125">
        <ele>139</ele>
        <time>2022-05-07T09:57:39.000Z</time>
      </trkpt>
      <trkpt lat="39.74690982140600681304931640625" lon="-0.33210776746273040771484375">
        <ele>139.1999969482421875</ele>
        <time>2022-05-07T09:57:40.000Z</time>
      </trkpt>
      <trkpt lat="39.74677638150751590728759765625" lon="-0.33199620433151721954345703125">
        <ele>139.600006103515625</ele>
        <time>2022-05-07T09:57:43.000Z</time>
      </trkpt>
      <trkpt lat="39.74672541953623294830322265625" lon="-0.33182990737259387969970703125">
        <ele>140.399993896484375</ele>
        <time>2022-05-07T09:57:46.000Z</time>
      </trkpt>
      <trkpt lat="39.74671837873756885528564453125" lon="-0.3317696414887905120849609375">
        <ele>140.8000030517578125</ele>
        <time>2022-05-07T09:57:47.000Z</time>
      </trkpt>
      <trkpt lat="39.746716283261775970458984375" lon="-0.33170945942401885986328125">
        <ele>141</ele>
        <time>2022-05-07T09:57:48.000Z</time>
      </trkpt>
      <trkpt lat="39.7467221505939960479736328125" lon="-0.3315319307148456573486328125">
        <ele>141.8000030517578125</ele>
        <time>2022-05-07T09:57:51.000Z</time>
      </trkpt>
      <trkpt lat="39.74674168042838573455810546875" lon="-0.33117746002972126007080078125">
        <ele>142.8000030517578125</ele>
        <time>2022-05-07T09:57:57.000Z</time>
      </trkpt>
      <trkpt lat="39.746765904128551483154296875" lon="-0.33093295991420745849609375">
        <ele>143.1999969482421875</ele>
        <time>2022-05-07T09:58:01.000Z</time>
      </trkpt>
      <trkpt lat="39.74678526632487773895263671875" lon="-0.3308187983930110931396484375">
        <ele>143.1999969482421875</ele>
        <time>2022-05-07T09:58:03.000Z</time>
      </trkpt>
      <trkpt lat="39.74679197184741497039794921875" lon="-0.33059542067348957061767578125">
        <ele>143.8000030517578125</ele>
        <time>2022-05-07T09:58:07.000Z</time>
      </trkpt>
      <trkpt lat="39.7467888705432415008544921875" lon="-0.33054077066481113433837890625">
        <ele>144</ele>
        <time>2022-05-07T09:58:08.000Z</time>
      </trkpt>
      <trkpt lat="39.74678291939198970794677734375" lon="-0.3304841928184032440185546875">
        <ele>144.1999969482421875</ele>
        <time>2022-05-07T09:58:09.000Z</time>
      </trkpt>
      <trkpt lat="39.74668107926845550537109375" lon="-0.32990441657602787017822265625">
        <ele>144.600006103515625</ele>
        <time>2022-05-07T09:58:19.000Z</time>
      </trkpt>
      <trkpt lat="39.7465873695909976959228515625" lon="-0.3293167613446712493896484375">
        <ele>145.8000030517578125</ele>
        <time>2022-05-07T09:58:28.000Z</time>
      </trkpt>
      <trkpt lat="39.74654495716094970703125" lon="-0.32864411361515522003173828125">
        <ele>144.8000030517578125</ele>
        <time>2022-05-07T09:58:38.000Z</time>
      </trkpt>
      <trkpt lat="39.74648720584809780120849609375" lon="-0.32816894352436065673828125">
        <ele>144.600006103515625</ele>
        <time>2022-05-07T09:58:45.000Z</time>
      </trkpt>
      <trkpt lat="39.74638402462005615234375" lon="-0.32778731547296047210693359375">
        <ele>144.399993896484375</ele>
        <time>2022-05-07T09:58:51.000Z</time>
      </trkpt>
      <trkpt lat="39.74626005627214908599853515625" lon="-0.327197648584842681884765625">
        <ele>144.1999969482421875</ele>
        <time>2022-05-07T09:59:00.000Z</time>
      </trkpt>
      <trkpt lat="39.74615829996764659881591796875" lon="-0.32675919122993946075439453125">
        <ele>146.600006103515625</ele>
        <time>2022-05-07T09:59:07.000Z</time>
      </trkpt>
      <trkpt lat="39.74606593139469623565673828125" lon="-0.32648342661559581756591796875">
        <ele>148.600006103515625</ele>
        <time>2022-05-07T09:59:12.000Z</time>
      </trkpt>
      <trkpt lat="39.7460311464965343475341796875" lon="-0.3263824246823787689208984375">
        <ele>150.1999969482421875</ele>
        <time>2022-05-07T09:59:14.000Z</time>
      </trkpt>
      <trkpt lat="39.7459764964878559112548828125" lon="-0.32623716630041599273681640625">
        <ele>152.600006103515625</ele>
        <time>2022-05-07T09:59:17.000Z</time>
      </trkpt>
      <trkpt lat="39.7459503449499607086181640625" lon="-0.32614328898489475250244140625">
        <ele>153.8000030517578125</ele>
        <time>2022-05-07T09:59:19.000Z</time>
      </trkpt>
      <trkpt lat="39.7459389455616474151611328125" lon="-0.32609316520392894744873046875">
        <ele>154.399993896484375</ele>
        <time>2022-05-07T09:59:20.000Z</time>
      </trkpt>
      <trkpt lat="39.74590835161507129669189453125" lon="-0.3258945979177951812744140625">
        <ele>156.399993896484375</ele>
        <time>2022-05-07T09:59:24.000Z</time>
      </trkpt>
      <trkpt lat="39.74589762277901172637939453125" lon="-0.3257507644593715667724609375">
        <ele>157.8000030517578125</ele>
        <time>2022-05-07T09:59:27.000Z</time>
      </trkpt>
      <trkpt lat="39.7458692081272602081298828125" lon="-0.32548128627240657806396484375">
        <ele>161.1999969482421875</ele>
        <time>2022-05-07T09:59:33.000Z</time>
      </trkpt>
      <trkpt lat="39.7458628378808498382568359375" lon="-0.32543065957725048065185546875">
        <ele>161.399993896484375</ele>
        <time>2022-05-07T09:59:34.000Z</time>
      </trkpt>
      <trkpt lat="39.74583978764712810516357421875" lon="-0.32519160769879817962646484375">
        <ele>162.399993896484375</ele>
        <time>2022-05-07T09:59:39.000Z</time>
      </trkpt>
      <trkpt lat="39.745839536190032958984375" lon="-0.3251492790877819061279296875">
        <ele>162.600006103515625</ele>
        <time>2022-05-07T09:59:40.000Z</time>
      </trkpt>
      <trkpt lat="39.74583995528519153594970703125" lon="-0.3250597603619098663330078125">
        <ele>162.8000030517578125</ele>
        <time>2022-05-07T09:59:42.000Z</time>
      </trkpt>
      <trkpt lat="39.74584096111357212066650390625" lon="-0.3248760290443897247314453125">
        <ele>163.8000030517578125</ele>
        <time>2022-05-07T09:59:46.000Z</time>
      </trkpt>
      <trkpt lat="39.74584179930388927459716796875" lon="-0.3248307667672634124755859375">
        <ele>164</ele>
        <time>2022-05-07T09:59:47.000Z</time>
      </trkpt>
      <trkpt lat="39.745859317481517791748046875" lon="-0.32450563274323940277099609375">
        <ele>165.399993896484375</ele>
        <time>2022-05-07T09:59:54.000Z</time>
      </trkpt>
      <trkpt lat="39.7458578087389469146728515625" lon="-0.32445752061903476715087890625">
        <ele>165.600006103515625</ele>
        <time>2022-05-07T09:59:55.000Z</time>
      </trkpt>
      <trkpt lat="39.74583056755363941192626953125" lon="-0.32420991919934749603271484375">
        <ele>166.8000030517578125</ele>
        <time>2022-05-07T10:00:00.000Z</time>
      </trkpt>
      <trkpt lat="39.7458433918654918670654296875" lon="-0.323862992227077484130859375">
        <ele>165.8000030517578125</ele>
        <time>2022-05-07T10:00:07.000Z</time>
      </trkpt>
      <trkpt lat="39.7458435595035552978515625" lon="-0.323657803237438201904296875">
        <ele>165.399993896484375</ele>
        <time>2022-05-07T10:00:11.000Z</time>
      </trkpt>
      <trkpt lat="39.74581967107951641082763671875" lon="-0.32355076633393764495849609375">
        <ele>165.399993896484375</ele>
        <time>2022-05-07T10:00:13.000Z</time>
      </trkpt>
      <trkpt lat="39.74571288563311100006103515625" lon="-0.3230903483927249908447265625">
        <ele>166.399993896484375</ele>
        <time>2022-05-07T10:00:22.000Z</time>
      </trkpt>
      <trkpt lat="39.7456851415336132049560546875" lon="-0.32293058931827545166015625">
        <ele>166.600006103515625</ele>
        <time>2022-05-07T10:00:25.000Z</time>
      </trkpt>
      <trkpt lat="39.745684303343296051025390625" lon="-0.3227661363780498504638671875">
        <ele>166.399993896484375</ele>
        <time>2022-05-07T10:00:28.000Z</time>
      </trkpt>
      <trkpt lat="39.74567851983010768890380859375" lon="-0.32230697572231292724609375">
        <ele>166.1999969482421875</ele>
        <time>2022-05-07T10:00:36.000Z</time>
      </trkpt>
      <trkpt lat="39.7456455789506435394287109375" lon="-0.32189768739044666290283203125">
        <ele>166.600006103515625</ele>
        <time>2022-05-07T10:00:43.000Z</time>
      </trkpt>
      <trkpt lat="39.74562755785882472991943359375" lon="-0.32161186449229717254638671875">
        <ele>165.600006103515625</ele>
        <time>2022-05-07T10:00:48.000Z</time>
      </trkpt>
      <trkpt lat="39.74561716429889202117919921875" lon="-0.3214399516582489013671875">
        <ele>164.8000030517578125</ele>
        <time>2022-05-07T10:00:51.000Z</time>
      </trkpt>
      <trkpt lat="39.74560291506350040435791015625" lon="-0.32127298414707183837890625">
        <ele>164.600006103515625</ele>
        <time>2022-05-07T10:00:54.000Z</time>
      </trkpt>
      <trkpt lat="39.74559151567518711090087890625" lon="-0.3211024962365627288818359375">
        <ele>165</ele>
        <time>2022-05-07T10:00:57.000Z</time>
      </trkpt>
      <trkpt lat="39.74554876796901226043701171875" lon="-0.32076244242489337921142578125">
        <ele>165.1999969482421875</ele>
        <time>2022-05-07T10:01:03.000Z</time>
      </trkpt>
      <trkpt lat="39.74553736858069896697998046875" lon="-0.3207077085971832275390625">
        <ele>165.399993896484375</ele>
        <time>2022-05-07T10:01:04.000Z</time>
      </trkpt>
      <trkpt lat="39.745512306690216064453125" lon="-0.32060100696980953216552734375">
        <ele>165.600006103515625</ele>
        <time>2022-05-07T10:01:06.000Z</time>
      </trkpt>
      <trkpt lat="39.745420776307582855224609375" lon="-0.32029791735112667083740234375">
        <ele>166.399993896484375</ele>
        <time>2022-05-07T10:01:12.000Z</time>
      </trkpt>
      <trkpt lat="39.74538364447653293609619140625" lon="-0.32019607722759246826171875">
        <ele>166.399993896484375</ele>
        <time>2022-05-07T10:01:14.000Z</time>
      </trkpt>
      <trkpt lat="39.7452298365533351898193359375" lon="-0.319839678704738616943359375">
        <ele>167</ele>
        <time>2022-05-07T10:01:21.000Z</time>
      </trkpt>
      <trkpt lat="39.7450471110641956329345703125" lon="-0.31944246031343936920166015625">
        <ele>168.600006103515625</ele>
        <time>2022-05-07T10:01:29.000Z</time>
      </trkpt>
      <trkpt lat="39.7449371404945850372314453125" lon="-0.319198630750179290771484375">
        <ele>169.399993896484375</ele>
        <time>2022-05-07T10:01:34.000Z</time>
      </trkpt>
      <trkpt lat="39.7448959015309810638427734375" lon="-0.31910064630210399627685546875">
        <ele>168.8000030517578125</ele>
        <time>2022-05-07T10:01:36.000Z</time>
      </trkpt>
      <trkpt lat="39.7447497211396694183349609375" lon="-0.31875438988208770751953125">
        <ele>167.399993896484375</ele>
        <time>2022-05-07T10:01:43.000Z</time>
      </trkpt>
      <trkpt lat="39.7445928119122982025146484375" lon="-0.31841970048844814300537109375">
        <ele>167.8000030517578125</ele>
        <time>2022-05-07T10:01:50.000Z</time>
      </trkpt>
      <trkpt lat="39.74451410584151744842529296875" lon="-0.31825457699596881866455078125">
        <ele>168.399993896484375</ele>
        <time>2022-05-07T10:01:54.000Z</time>
      </trkpt>
      <trkpt lat="39.74445459432899951934814453125" lon="-0.3181381523609161376953125">
        <ele>169.1999969482421875</ele>
        <time>2022-05-07T10:01:57.000Z</time>
      </trkpt>
      <trkpt lat="39.74434663541615009307861328125" lon="-0.3179274313151836395263671875">
        <ele>169.399993896484375</ele>
        <time>2022-05-07T10:02:03.000Z</time>
      </trkpt>
      <trkpt lat="39.7443294525146484375" lon="-0.31789381988346576690673828125">
        <ele>169.600006103515625</ele>
        <time>2022-05-07T10:02:04.000Z</time>
      </trkpt>
      <trkpt lat="39.74417145363986492156982421875" lon="-0.31768209300935268402099609375">
        <ele>171</ele>
        <time>2022-05-07T10:02:10.000Z</time>
      </trkpt>
      <trkpt lat="39.74409333430230617523193359375" lon="-0.31756156124174594879150390625">
        <ele>171.600006103515625</ele>
        <time>2022-05-07T10:02:13.000Z</time>
      </trkpt>
      <trkpt lat="39.74398654885590076446533203125" lon="-0.3173873014748096466064453125">
        <ele>170.1999969482421875</ele>
        <time>2022-05-07T10:02:17.000Z</time>
      </trkpt>
      <trkpt lat="39.74396375007927417755126953125" lon="-0.31733793206512928009033203125">
        <ele>169.8000030517578125</ele>
        <time>2022-05-07T10:02:18.000Z</time>
      </trkpt>
      <trkpt lat="39.743844978511333465576171875" lon="-0.317020006477832794189453125">
        <ele>168.399993896484375</ele>
        <time>2022-05-07T10:02:24.000Z</time>
      </trkpt>
      <trkpt lat="39.7437462396919727325439453125" lon="-0.31673443503677845001220703125">
        <ele>166.8000030517578125</ele>
        <time>2022-05-07T10:02:30.000Z</time>
      </trkpt>
      <trkpt lat="39.743633083999156951904296875" lon="-0.31641592271625995635986328125">
        <ele>165.399993896484375</ele>
        <time>2022-05-07T10:02:37.000Z</time>
      </trkpt>
      <trkpt lat="39.74358689971268177032470703125" lon="-0.31626605428755283355712890625">
        <ele>164.399993896484375</ele>
        <time>2022-05-07T10:02:40.000Z</time>
      </trkpt>
      <trkpt lat="39.74355957470834255218505859375" lon="-0.31606472097337245941162109375">
        <ele>165</ele>
        <time>2022-05-07T10:02:44.000Z</time>
      </trkpt>
      <trkpt lat="39.743502326309680938720703125" lon="-0.31577671878039836883544921875">
        <ele>165.600006103515625</ele>
        <time>2022-05-07T10:02:50.000Z</time>
      </trkpt>
      <trkpt lat="39.74346536211669445037841796875" lon="-0.31563305296003818511962890625">
        <ele>165.600006103515625</ele>
        <time>2022-05-07T10:02:53.000Z</time>
      </trkpt>
      <trkpt lat="39.7434403002262115478515625" lon="-0.31554152257740497589111328125">
        <ele>165.399993896484375</ele>
        <time>2022-05-07T10:02:55.000Z</time>
      </trkpt>
      <trkpt lat="39.74335505627095699310302734375" lon="-0.31535645015537738800048828125">
        <ele>164.399993896484375</ele>
        <time>2022-05-07T10:03:00.000Z</time>
      </trkpt>
      <trkpt lat="39.74322111345827579498291015625" lon="-0.31514572910964488983154296875">
        <ele>162.600006103515625</ele>
        <time>2022-05-07T10:03:06.000Z</time>
      </trkpt>
      <trkpt lat="39.74314550869166851043701171875" lon="-0.3148821182548999786376953125">
        <ele>162.399993896484375</ele>
        <time>2022-05-07T10:03:10.000Z</time>
      </trkpt>
      <trkpt lat="39.7431296668946743011474609375" lon="-0.31480207107961177825927734375">
        <ele>162.399993896484375</ele>
        <time>2022-05-07T10:03:11.000Z</time>
      </trkpt>
      <trkpt lat="39.74303067661821842193603515625" lon="-0.31438238918781280517578125">
        <ele>161.399993896484375</ele>
        <time>2022-05-07T10:03:16.000Z</time>
      </trkpt>
      <trkpt lat="39.7430119849741458892822265625" lon="-0.31429630704224109649658203125">
        <ele>161.600006103515625</ele>
        <time>2022-05-07T10:03:17.000Z</time>
      </trkpt>
      <trkpt lat="39.74297619424760341644287109375" lon="-0.314125232398509979248046875">
        <ele>161.8000030517578125</ele>
        <time>2022-05-07T10:03:19.000Z</time>
      </trkpt>
      <trkpt lat="39.74293679930269718170166015625" lon="-0.3137931413948535919189453125">
        <ele>162</ele>
        <time>2022-05-07T10:03:23.000Z</time>
      </trkpt>
      <trkpt lat="39.7429362125694751739501953125" lon="-0.31370873562991619110107421875">
        <ele>161.8000030517578125</ele>
        <time>2022-05-07T10:03:24.000Z</time>
      </trkpt>
      <trkpt lat="39.74294769577682018280029296875" lon="-0.31353523023426532745361328125">
        <ele>161.1999969482421875</ele>
        <time>2022-05-07T10:03:26.000Z</time>
      </trkpt>
      <trkpt lat="39.74297669716179370880126953125" lon="-0.3133602999150753021240234375">
        <ele>160.600006103515625</ele>
        <time>2022-05-07T10:03:28.000Z</time>
      </trkpt>
      <trkpt lat="39.74299413152039051055908203125" lon="-0.31327463686466217041015625">
        <ele>160.1999969482421875</ele>
        <time>2022-05-07T10:03:29.000Z</time>
      </trkpt>
      <trkpt lat="39.74305146373808383941650390625" lon="-0.31302661634981632232666015625">
        <ele>159.399993896484375</ele>
        <time>2022-05-07T10:03:32.000Z</time>
      </trkpt>
      <trkpt lat="39.7430626116693019866943359375" lon="-0.312941372394561767578125">
        <ele>159</ele>
        <time>2022-05-07T10:03:33.000Z</time>
      </trkpt>
      <trkpt lat="39.74306152202188968658447265625" lon="-0.312847830355167388916015625">
        <ele>158.600006103515625</ele>
        <time>2022-05-07T10:03:34.000Z</time>
      </trkpt>
      <trkpt lat="39.74303587339818477630615234375" lon="-0.3126421384513378143310546875">
        <ele>158</ele>
        <time>2022-05-07T10:03:36.000Z</time>
      </trkpt>
      <trkpt lat="39.743001759052276611328125" lon="-0.3124329261481761932373046875">
        <ele>157.600006103515625</ele>
        <time>2022-05-07T10:03:38.000Z</time>
      </trkpt>
      <trkpt lat="39.742981307208538055419921875" lon="-0.31233427114784717559814453125">
        <ele>157.399993896484375</ele>
        <time>2022-05-07T10:03:39.000Z</time>
      </trkpt>
      <trkpt lat="39.74295356310904026031494140625" lon="-0.312234945595264434814453125">
        <ele>157.1999969482421875</ele>
        <time>2022-05-07T10:03:40.000Z</time>
      </trkpt>
      <trkpt lat="39.74286924116313457489013671875" lon="-0.3120486997067928314208984375">
        <ele>156.399993896484375</ele>
        <time>2022-05-07T10:03:42.000Z</time>
      </trkpt>
      <trkpt lat="39.742815010249614715576171875" lon="-0.31195364892482757568359375">
        <ele>155.399993896484375</ele>
        <time>2022-05-07T10:03:43.000Z</time>
      </trkpt>
      <trkpt lat="39.74275591783225536346435546875" lon="-0.3118458576500415802001953125">
        <ele>154.1999969482421875</ele>
        <time>2022-05-07T10:03:44.000Z</time>
      </trkpt>
      <trkpt lat="39.74270009435713291168212890625" lon="-0.311727337539196014404296875">
        <ele>153</ele>
        <time>2022-05-07T10:03:45.000Z</time>
      </trkpt>
      <trkpt lat="39.7426518984138965606689453125" lon="-0.3116051293909549713134765625">
        <ele>152</ele>
        <time>2022-05-07T10:03:46.000Z</time>
      </trkpt>
      <trkpt lat="39.742558859288692474365234375" lon="-0.31136222183704376220703125">
        <ele>150</ele>
        <time>2022-05-07T10:03:48.000Z</time>
      </trkpt>
      <trkpt lat="39.74242617376148700714111328125" lon="-0.31099920161068439483642578125">
        <ele>145.8000030517578125</ele>
        <time>2022-05-07T10:03:51.000Z</time>
      </trkpt>
      <trkpt lat="39.7423820011317729949951171875" lon="-0.31089551746845245361328125">
        <ele>144.8000030517578125</ele>
        <time>2022-05-07T10:03:52.000Z</time>
      </trkpt>
      <trkpt lat="39.7423042170703411102294921875" lon="-0.31069728545844554901123046875">
        <ele>143</ele>
        <time>2022-05-07T10:03:54.000Z</time>
      </trkpt>
      <trkpt lat="39.74223858676850795745849609375" lon="-0.310536436736583709716796875">
        <ele>141.399993896484375</ele>
        <time>2022-05-07T10:03:56.000Z</time>
      </trkpt>
      <trkpt lat="39.7421925701200962066650390625" lon="-0.31041481532156467437744140625">
        <ele>140.1999969482421875</ele>
        <time>2022-05-07T10:03:58.000Z</time>
      </trkpt>
      <trkpt lat="39.74215577356517314910888671875" lon="-0.31032663770020008087158203125">
        <ele>139.399993896484375</ele>
        <time>2022-05-07T10:04:00.000Z</time>
      </trkpt>
      <trkpt lat="39.7421426139771938323974609375" lon="-0.31027366407215595245361328125">
        <ele>139.1999969482421875</ele>
        <time>2022-05-07T10:04:02.000Z</time>
      </trkpt>
      <trkpt lat="39.74214546382427215576171875" lon="-0.3101962991058826446533203125">
        <ele>138.8000030517578125</ele>
        <time>2022-05-07T10:04:04.000Z</time>
      </trkpt>
      <trkpt lat="39.74219315685331821441650390625" lon="-0.3100920282304286956787109375">
        <ele>138.399993896484375</ele>
        <time>2022-05-07T10:04:06.000Z</time>
      </trkpt>
      <trkpt lat="39.7422708570957183837890625" lon="-0.309981890022754669189453125">
        <ele>138</ele>
        <time>2022-05-07T10:04:08.000Z</time>
      </trkpt>
      <trkpt lat="39.74245232529938220977783203125" lon="-0.3097544051706790924072265625">
        <ele>137</ele>
        <time>2022-05-07T10:04:12.000Z</time>
      </trkpt>
      <trkpt lat="39.7425469569861888885498046875" lon="-0.3096226416528224945068359375">
        <ele>136.600006103515625</ele>
        <time>2022-05-07T10:04:14.000Z</time>
      </trkpt>
      <trkpt lat="39.74269875325262546539306640625" lon="-0.30940546654164791107177734375">
        <ele>135.399993896484375</ele>
        <time>2022-05-07T10:04:17.000Z</time>
      </trkpt>
      <trkpt lat="39.7428604401648044586181640625" lon="-0.309190638363361358642578125">
        <ele>134.399993896484375</ele>
        <time>2022-05-07T10:04:20.000Z</time>
      </trkpt>
      <trkpt lat="39.74291534163057804107666015625" lon="-0.30911997891962528228759765625">
        <ele>134.1999969482421875</ele>
        <time>2022-05-07T10:04:21.000Z</time>
      </trkpt>
      <trkpt lat="39.74317836575210094451904296875" lon="-0.30877129174768924713134765625">
        <ele>133.399993896484375</ele>
        <time>2022-05-07T10:04:26.000Z</time>
      </trkpt>
      <trkpt lat="39.74335782229900360107421875" lon="-0.3084994666278362274169921875">
        <ele>133.600006103515625</ele>
        <time>2022-05-07T10:04:30.000Z</time>
      </trkpt>
      <trkpt lat="39.7434941120445728302001953125" lon="-0.30828866176307201385498046875">
        <ele>133.8000030517578125</ele>
        <time>2022-05-07T10:04:33.000Z</time>
      </trkpt>
      <trkpt lat="39.7438193298876285552978515625" lon="-0.30778759159147739410400390625">
        <ele>135</ele>
        <time>2022-05-07T10:04:40.000Z</time>
      </trkpt>
      <trkpt lat="39.7439916618168354034423828125" lon="-0.30747746117413043975830078125">
        <ele>136.8000030517578125</ele>
        <time>2022-05-07T10:04:44.000Z</time>
      </trkpt>
      <trkpt lat="39.7440305538475513458251953125" lon="-0.30739012174308300018310546875">
        <ele>137.399993896484375</ele>
        <time>2022-05-07T10:04:45.000Z</time>
      </trkpt>
      <trkpt lat="39.74406248889863491058349609375" lon="-0.307295322418212890625">
        <ele>138.1999969482421875</ele>
        <time>2022-05-07T10:04:46.000Z</time>
      </trkpt>
      <trkpt lat="39.744118563830852508544921875" lon="-0.30696817673742771148681640625">
        <ele>138.600006103515625</ele>
        <time>2022-05-07T10:04:49.000Z</time>
      </trkpt>
      <trkpt lat="39.7441354952752590179443359375" lon="-0.3068495728075504302978515625">
        <ele>137.600006103515625</ele>
        <time>2022-05-07T10:04:50.000Z</time>
      </trkpt>
      <trkpt lat="39.7441552765667438507080078125" lon="-0.30660800635814666748046875">
        <ele>137</ele>
        <time>2022-05-07T10:04:52.000Z</time>
      </trkpt>
      <trkpt lat="39.7441757284104824066162109375" lon="-0.30636920593678951263427734375">
        <ele>138.1999969482421875</ele>
        <time>2022-05-07T10:04:54.000Z</time>
      </trkpt>
      <trkpt lat="39.744198024272918701171875" lon="-0.30585824511945247650146484375">
        <ele>138.1999969482421875</ele>
        <time>2022-05-07T10:04:58.000Z</time>
      </trkpt>
      <trkpt lat="39.74419726990163326263427734375" lon="-0.30557426624000072479248046875">
        <ele>139</ele>
        <time>2022-05-07T10:05:00.000Z</time>
      </trkpt>
      <trkpt lat="39.74420137703418731689453125" lon="-0.30543261207640171051025390625">
        <ele>139.1999969482421875</ele>
        <time>2022-05-07T10:05:01.000Z</time>
      </trkpt>
      <trkpt lat="39.7442047297954559326171875" lon="-0.305155254900455474853515625">
        <ele>138.1999969482421875</ele>
        <time>2022-05-07T10:05:03.000Z</time>
      </trkpt>
      <trkpt lat="39.74419777281582355499267578125" lon="-0.30501435510814189910888671875">
        <ele>137.8000030517578125</ele>
        <time>2022-05-07T10:05:04.000Z</time>
      </trkpt>
      <trkpt lat="39.74417095072567462921142578125" lon="-0.30458805151283740997314453125">
        <ele>136.399993896484375</ele>
        <time>2022-05-07T10:05:07.000Z</time>
      </trkpt>
      <trkpt lat="39.74415116943418979644775390625" lon="-0.30431463383138179779052734375">
        <ele>134.600006103515625</ele>
        <time>2022-05-07T10:05:09.000Z</time>
      </trkpt>
      <trkpt lat="39.74414429627358913421630859375" lon="-0.304178930819034576416015625">
        <ele>133.600006103515625</ele>
        <time>2022-05-07T10:05:10.000Z</time>
      </trkpt>
      <trkpt lat="39.74411630071699619293212890625" lon="-0.303774587810039520263671875">
        <ele>128</ele>
        <time>2022-05-07T10:05:13.000Z</time>
      </trkpt>
      <trkpt lat="39.74410892464220523834228515625" lon="-0.3035129047930240631103515625">
        <ele>127</ele>
        <time>2022-05-07T10:05:15.000Z</time>
      </trkpt>
      <trkpt lat="39.744108505547046661376953125" lon="-0.30338692478835582733154296875">
        <ele>126.1999969482421875</ele>
        <time>2022-05-07T10:05:16.000Z</time>
      </trkpt>
      <trkpt lat="39.74412451498210430145263671875" lon="-0.302766747772693634033203125">
        <ele>121.8000030517578125</ele>
        <time>2022-05-07T10:05:21.000Z</time>
      </trkpt>
      <trkpt lat="39.74414027296006679534912109375" lon="-0.30264780856668949127197265625">
        <ele>121.59999847412109375</ele>
        <time>2022-05-07T10:05:22.000Z</time>
      </trkpt>
      <trkpt lat="39.74420581944286823272705078125" lon="-0.30230800621211528778076171875">
        <ele>121.1999969482421875</ele>
        <time>2022-05-07T10:05:25.000Z</time>
      </trkpt>
      <trkpt lat="39.7442303784191608428955078125" lon="-0.30220423825085163116455078125">
        <ele>121</ele>
        <time>2022-05-07T10:05:26.000Z</time>
      </trkpt>
      <trkpt lat="39.74440463818609714508056640625" lon="-0.30149437487125396728515625">
        <ele>118.8000030517578125</ele>
        <time>2022-05-07T10:05:33.000Z</time>
      </trkpt>
      <trkpt lat="39.74447705782949924468994140625" lon="-0.3013014234602451324462890625">
        <ele>117.59999847412109375</ele>
        <time>2022-05-07T10:05:35.000Z</time>
      </trkpt>
      <trkpt lat="39.74460965953767299652099609375" lon="-0.30103261582553386688232421875">
        <ele>117.59999847412109375</ele>
        <time>2022-05-07T10:05:38.000Z</time>
      </trkpt>
      <trkpt lat="39.74495231173932552337646484375" lon="-0.3004650771617889404296875">
        <ele>116</ele>
        <time>2022-05-07T10:05:45.000Z</time>
      </trkpt>
      <trkpt lat="39.74512766115367412567138671875" lon="-0.300091244280338287353515625">
        <ele>113.1999969482421875</ele>
        <time>2022-05-07T10:05:49.000Z</time>
      </trkpt>
      <trkpt lat="39.745164625346660614013671875" lon="-0.29998923651874065399169921875">
        <ele>112.40000152587890625</ele>
        <time>2022-05-07T10:05:50.000Z</time>
      </trkpt>
      <trkpt lat="39.74522673524916172027587890625" lon="-0.29978002421557903289794921875">
        <ele>111.40000152587890625</ele>
        <time>2022-05-07T10:05:52.000Z</time>
      </trkpt>
      <trkpt lat="39.745326898992061614990234375" lon="-0.29935036785900592803955078125">
        <ele>111.1999969482421875</ele>
        <time>2022-05-07T10:05:56.000Z</time>
      </trkpt>
      <trkpt lat="39.74543963558971881866455078125" lon="-0.29881618916988372802734375">
        <ele>111.40000152587890625</ele>
        <time>2022-05-07T10:06:01.000Z</time>
      </trkpt>
      <trkpt lat="39.7454626858234405517578125" lon="-0.29860303737223148345947265625">
        <ele>111</ele>
        <time>2022-05-07T10:06:03.000Z</time>
      </trkpt>
      <trkpt lat="39.7454868257045745849609375" lon="-0.2981649152934551239013671875">
        <ele>110.8000030517578125</ele>
        <time>2022-05-07T10:06:07.000Z</time>
      </trkpt>
      <trkpt lat="39.7454983927309513092041015625" lon="-0.29783718287944793701171875">
        <ele>110.40000152587890625</ele>
        <time>2022-05-07T10:06:10.000Z</time>
      </trkpt>
      <trkpt lat="39.74551876075565814971923828125" lon="-0.2972103841602802276611328125">
        <ele>109.40000152587890625</ele>
        <time>2022-05-07T10:06:16.000Z</time>
      </trkpt>
      <trkpt lat="39.7455151565372943878173828125" lon="-0.29710753820836544036865234375">
        <ele>109.1999969482421875</ele>
        <time>2022-05-07T10:06:17.000Z</time>
      </trkpt>
      <trkpt lat="39.74548758007586002349853515625" lon="-0.2964030392467975616455078125">
        <ele>109.59999847412109375</ele>
        <time>2022-05-07T10:06:24.000Z</time>
      </trkpt>
      <trkpt lat="39.74545061588287353515625" lon="-0.29577992856502532958984375">
        <ele>110.1999969482421875</ele>
        <time>2022-05-07T10:06:31.000Z</time>
      </trkpt>
      <trkpt lat="39.7454189322888851165771484375" lon="-0.29544733464717864990234375">
        <ele>110.40000152587890625</ele>
        <time>2022-05-07T10:06:35.000Z</time>
      </trkpt>
      <trkpt lat="39.7453890927135944366455078125" lon="-0.295292437076568603515625">
        <ele>110</ele>
        <time>2022-05-07T10:06:37.000Z</time>
      </trkpt>
      <trkpt lat="39.745264537632465362548828125" lon="-0.294825732707977294921875">
        <ele>107.8000030517578125</ele>
        <time>2022-05-07T10:06:43.000Z</time>
      </trkpt>
      <trkpt lat="39.74514056928455829620361328125" lon="-0.2944004349410533905029296875">
        <ele>106.1999969482421875</ele>
        <time>2022-05-07T10:06:48.000Z</time>
      </trkpt>
      <trkpt lat="39.7451141662895679473876953125" lon="-0.29430815018713474273681640625">
        <ele>105.59999847412109375</ele>
        <time>2022-05-07T10:06:49.000Z</time>
      </trkpt>
      <trkpt lat="39.74499673582613468170166015625" lon="-0.2939266897737979888916015625">
        <ele>105.40000152587890625</ele>
        <time>2022-05-07T10:06:53.000Z</time>
      </trkpt>
      <trkpt lat="39.74496656097471714019775390625" lon="-0.29382518492639064788818359375">
        <ele>105.8000030517578125</ele>
        <time>2022-05-07T10:06:54.000Z</time>
      </trkpt>
      <trkpt lat="39.74488106556236743927001953125" lon="-0.29351438395678997039794921875">
        <ele>106.1999969482421875</ele>
        <time>2022-05-07T10:06:57.000Z</time>
      </trkpt>
      <trkpt lat="39.74478316493332386016845703125" lon="-0.2931917645037174224853515625">
        <ele>107.59999847412109375</ele>
        <time>2022-05-07T10:07:00.000Z</time>
      </trkpt>
      <trkpt lat="39.744657687842845916748046875" lon="-0.29277049005031585693359375">
        <ele>108.59999847412109375</ele>
        <time>2022-05-07T10:07:04.000Z</time>
      </trkpt>
      <trkpt lat="39.7446005232632160186767578125" lon="-0.29256387613713741302490234375">
        <ele>108</ele>
        <time>2022-05-07T10:07:06.000Z</time>
      </trkpt>
      <trkpt lat="39.744546711444854736328125" lon="-0.29235986061394214630126953125">
        <ele>107.40000152587890625</ele>
        <time>2022-05-07T10:07:08.000Z</time>
      </trkpt>
      <trkpt lat="39.74444017745554447174072265625" lon="-0.29196985065937042236328125">
        <ele>106.1999969482421875</ele>
        <time>2022-05-07T10:07:12.000Z</time>
      </trkpt>
      <trkpt lat="39.74440229125320911407470703125" lon="-0.2917872928082942962646484375">
        <ele>105.59999847412109375</ele>
        <time>2022-05-07T10:07:14.000Z</time>
      </trkpt>
      <trkpt lat="39.7443369962275028228759765625" lon="-0.29140851460397243499755859375">
        <ele>103.59999847412109375</ele>
        <time>2022-05-07T10:07:18.000Z</time>
      </trkpt>
      <trkpt lat="39.744327776134014129638671875" lon="-0.29130977578461170196533203125">
        <ele>102.59999847412109375</ele>
        <time>2022-05-07T10:07:19.000Z</time>
      </trkpt>
      <trkpt lat="39.744316376745700836181640625" lon="-0.2912136353552341461181640625">
        <ele>102.1999969482421875</ele>
        <time>2022-05-07T10:07:20.000Z</time>
      </trkpt>
      <trkpt lat="39.74427706561982631683349609375" lon="-0.2908190153539180755615234375">
        <ele>100.8000030517578125</ele>
        <time>2022-05-07T10:07:24.000Z</time>
      </trkpt>
      <trkpt lat="39.74426147527992725372314453125" lon="-0.2906215377151966094970703125">
        <ele>99.40000152587890625</ele>
        <time>2022-05-07T10:07:26.000Z</time>
      </trkpt>
      <trkpt lat="39.74421135149896144866943359375" lon="-0.290232114493846893310546875">
        <ele>96.8000030517578125</ele>
        <time>2022-05-07T10:07:30.000Z</time>
      </trkpt>
      <trkpt lat="39.744136668741703033447265625" lon="-0.28994075953960418701171875">
        <ele>96</ele>
        <time>2022-05-07T10:07:33.000Z</time>
      </trkpt>
      <trkpt lat="39.74410171620547771453857421875" lon="-0.28983958996832370758056640625">
        <ele>95.59999847412109375</ele>
        <time>2022-05-07T10:07:34.000Z</time>
      </trkpt>
      <trkpt lat="39.74397875368595123291015625" lon="-0.28953767381608486175537109375">
        <ele>95.1999969482421875</ele>
        <time>2022-05-07T10:07:37.000Z</time>
      </trkpt>
      <trkpt lat="39.74388177506625652313232421875" lon="-0.28933818452060222625732421875">
        <ele>94.8000030517578125</ele>
        <time>2022-05-07T10:07:39.000Z</time>
      </trkpt>
      <trkpt lat="39.74383299238979816436767578125" lon="-0.28923978097736835479736328125">
        <ele>94.1999969482421875</ele>
        <time>2022-05-07T10:07:40.000Z</time>
      </trkpt>
      <trkpt lat="39.74364079535007476806640625" lon="-0.2888645231723785400390625">
        <ele>92.1999969482421875</ele>
        <time>2022-05-07T10:07:44.000Z</time>
      </trkpt>
      <trkpt lat="39.74359117448329925537109375" lon="-0.28876938857138156890869140625">
        <ele>92.40000152587890625</ele>
        <time>2022-05-07T10:07:45.000Z</time>
      </trkpt>
      <trkpt lat="39.74343703128397464752197265625" lon="-0.28835968114435672760009765625">
        <ele>92.40000152587890625</ele>
        <time>2022-05-07T10:07:49.000Z</time>
      </trkpt>
      <trkpt lat="39.743409119546413421630859375" lon="-0.28824971057474613189697265625">
        <ele>92.1999969482421875</ele>
        <time>2022-05-07T10:07:50.000Z</time>
      </trkpt>
      <trkpt lat="39.7433368675410747528076171875" lon="-0.28780915774405002593994140625">
        <ele>90</ele>
        <time>2022-05-07T10:07:54.000Z</time>
      </trkpt>
      <trkpt lat="39.74332655780017375946044921875" lon="-0.2876962535083293914794921875">
        <ele>89.59999847412109375</ele>
        <time>2022-05-07T10:07:55.000Z</time>
      </trkpt>
      <trkpt lat="39.7433154098689556121826171875" lon="-0.2871155552566051483154296875">
        <ele>88.1999969482421875</ele>
        <time>2022-05-07T10:08:00.000Z</time>
      </trkpt>
      <trkpt lat="39.7433244623243808746337890625" lon="-0.28664373792707920074462890625">
        <ele>87.59999847412109375</ele>
        <time>2022-05-07T10:08:04.000Z</time>
      </trkpt>
      <trkpt lat="39.74332840181887149810791015625" lon="-0.28641072101891040802001953125">
        <ele>87.1999969482421875</ele>
        <time>2022-05-07T10:08:06.000Z</time>
      </trkpt>
      <trkpt lat="39.74333024583756923675537109375" lon="-0.2862954698503017425537109375">
        <ele>87</ele>
        <time>2022-05-07T10:08:07.000Z</time>
      </trkpt>
      <trkpt lat="39.7433196008205413818359375" lon="-0.28572457842528820037841796875">
        <ele>86.1999969482421875</ele>
        <time>2022-05-07T10:08:12.000Z</time>
      </trkpt>
      <trkpt lat="39.74331532604992389678955078125" lon="-0.2855048887431621551513671875">
        <ele>85.40000152587890625</ele>
        <time>2022-05-07T10:08:14.000Z</time>
      </trkpt>
      <trkpt lat="39.74327727220952510833740234375" lon="-0.28508671559393405914306640625">
        <ele>84.8000030517578125</ele>
        <time>2022-05-07T10:08:18.000Z</time>
      </trkpt>
      <trkpt lat="39.743163026869297027587890625" lon="-0.284636020660400390625">
        <ele>84</ele>
        <time>2022-05-07T10:08:23.000Z</time>
      </trkpt>
      <trkpt lat="39.74308968521654605865478515625" lon="-0.2843817137181758880615234375">
        <ele>83.8000030517578125</ele>
        <time>2022-05-07T10:08:26.000Z</time>
      </trkpt>
      <trkpt lat="39.74294367246329784393310546875" lon="-0.2838828228414058685302734375">
        <ele>81.1999969482421875</ele>
        <time>2022-05-07T10:08:32.000Z</time>
      </trkpt>
      <trkpt lat="39.74284996278584003448486328125" lon="-0.28354905545711517333984375">
        <ele>79.59999847412109375</ele>
        <time>2022-05-07T10:08:36.000Z</time>
      </trkpt>
      <trkpt lat="39.74276429973542690277099609375" lon="-0.28320263139903545379638671875">
        <ele>78</ele>
        <time>2022-05-07T10:08:40.000Z</time>
      </trkpt>
      <trkpt lat="39.7427447699010372161865234375" lon="-0.28311177156865596771240234375">
        <ele>77.59999847412109375</ele>
        <time>2022-05-07T10:08:41.000Z</time>
      </trkpt>
      <trkpt lat="39.7426586039364337921142578125" lon="-0.28266199864447116851806640625">
        <ele>75.8000030517578125</ele>
        <time>2022-05-07T10:08:46.000Z</time>
      </trkpt>
      <trkpt lat="39.74259582348167896270751953125" lon="-0.2823107130825519561767578125">
        <ele>74.8000030517578125</ele>
        <time>2022-05-07T10:08:50.000Z</time>
      </trkpt>
      <trkpt lat="39.7425377368927001953125" lon="-0.2819524705410003662109375">
        <ele>74</ele>
        <time>2022-05-07T10:08:54.000Z</time>
      </trkpt>
      <trkpt lat="39.7424815781414508819580078125" lon="-0.28160973452031612396240234375">
        <ele>74</ele>
        <time>2022-05-07T10:08:58.000Z</time>
      </trkpt>
      <trkpt lat="39.74243539385497570037841796875" lon="-0.28135241009294986724853515625">
        <ele>73.59999847412109375</ele>
        <time>2022-05-07T10:09:01.000Z</time>
      </trkpt>
      <trkpt lat="39.742328189313411712646484375" lon="-0.28077070601284503936767578125">
        <ele>72.8000030517578125</ele>
        <time>2022-05-07T10:09:08.000Z</time>
      </trkpt>
      <trkpt lat="39.74230899475514888763427734375" lon="-0.2806899882853031158447265625">
        <ele>72.59999847412109375</ele>
        <time>2022-05-07T10:09:09.000Z</time>
      </trkpt>
      <trkpt lat="39.7421667538583278656005859375" lon="-0.28014600276947021484375">
        <ele>71.40000152587890625</ele>
        <time>2022-05-07T10:09:16.000Z</time>
      </trkpt>
      <trkpt lat="39.74201395176351070404052734375" lon="-0.27964769862592220306396484375">
        <ele>70.1999969482421875</ele>
        <time>2022-05-07T10:09:23.000Z</time>
      </trkpt>
      <trkpt lat="39.7419401071965694427490234375" lon="-0.27943530119955539703369140625">
        <ele>69.59999847412109375</ele>
        <time>2022-05-07T10:09:26.000Z</time>
      </trkpt>
      <trkpt lat="39.74182066507637500762939453125" lon="-0.27909432537853717803955078125">
        <ele>68.8000030517578125</ele>
        <time>2022-05-07T10:09:31.000Z</time>
      </trkpt>
      <trkpt lat="39.74177339114248752593994140625" lon="-0.2789564430713653564453125">
        <ele>68.59999847412109375</ele>
        <time>2022-05-07T10:09:33.000Z</time>
      </trkpt>
      <trkpt lat="39.74157641641795635223388671875" lon="-0.27839653193950653076171875">
        <ele>68</ele>
        <time>2022-05-07T10:09:41.000Z</time>
      </trkpt>
      <trkpt lat="39.7415287233889102935791015625" lon="-0.27826108038425445556640625">
        <ele>67.8000030517578125</ele>
        <time>2022-05-07T10:09:43.000Z</time>
      </trkpt>
      <trkpt lat="39.74141296930611133575439453125" lon="-0.277935527265071868896484375">
        <ele>67</ele>
        <time>2022-05-07T10:09:48.000Z</time>
      </trkpt>
      <trkpt lat="39.7413349337875843048095703125" lon="-0.277743078768253326416015625">
        <ele>66.59999847412109375</ele>
        <time>2022-05-07T10:09:51.000Z</time>
      </trkpt>
      <trkpt lat="39.74117693491280078887939453125" lon="-0.2775699086487293243408203125">
        <ele>66.59999847412109375</ele>
        <time>2022-05-07T10:09:55.000Z</time>
      </trkpt>
      <trkpt lat="39.7411320917308330535888671875" lon="-0.27753378264605998992919921875">
        <ele>66.59999847412109375</ele>
        <time>2022-05-07T10:09:56.000Z</time>
      </trkpt>
      <trkpt lat="39.74103779532015323638916015625" lon="-0.27746714651584625244140625">
        <ele>66.59999847412109375</ele>
        <time>2022-05-07T10:09:58.000Z</time>
      </trkpt>
      <trkpt lat="39.74091357551515102386474609375" lon="-0.27734301052987575531005859375">
        <ele>66.40000152587890625</ele>
        <time>2022-05-07T10:10:01.000Z</time>
      </trkpt>
      <trkpt lat="39.74088348448276519775390625" lon="-0.27729372493922710418701171875">
        <ele>66.1999969482421875</ele>
        <time>2022-05-07T10:10:02.000Z</time>
      </trkpt>
      <trkpt lat="39.740822128951549530029296875" lon="-0.27718828059732913970947265625">
        <ele>65.8000030517578125</ele>
        <time>2022-05-07T10:10:04.000Z</time>
      </trkpt>
      <trkpt lat="39.74069296382367610931396484375" lon="-0.2770529128611087799072265625">
        <ele>65.1999969482421875</ele>
        <time>2022-05-07T10:10:07.000Z</time>
      </trkpt>
      <trkpt lat="39.74040864966809749603271484375" lon="-0.27682936750352382659912109375">
        <ele>64.40000152587890625</ele>
        <time>2022-05-07T10:10:13.000Z</time>
      </trkpt>
      <trkpt lat="39.7401789017021656036376953125" lon="-0.27658930979669094085693359375">
        <ele>64.1999969482421875</ele>
        <time>2022-05-07T10:10:19.000Z</time>
      </trkpt>
      <trkpt lat="39.7400633990764617919921875" lon="-0.2764601446688175201416015625">
        <ele>64</ele>
        <time>2022-05-07T10:10:22.000Z</time>
      </trkpt>
      <trkpt lat="39.73990623839199542999267578125" lon="-0.2762536145746707916259765625">
        <ele>63.59999847412109375</ele>
        <time>2022-05-07T10:10:26.000Z</time>
      </trkpt>
      <trkpt lat="39.73966534249484539031982421875" lon="-0.2758665382862091064453125">
        <ele>63</ele>
        <time>2022-05-07T10:10:32.000Z</time>
      </trkpt>
      <trkpt lat="39.73940969444811344146728515625" lon="-0.27533822692930698394775390625">
        <ele>62.200000762939453125</ele>
        <time>2022-05-07T10:10:39.000Z</time>
      </trkpt>
      <trkpt lat="39.73930089734494686126708984375" lon="-0.27510521002113819122314453125">
        <ele>62</ele>
        <time>2022-05-07T10:10:42.000Z</time>
      </trkpt>
      <trkpt lat="39.73911230452358722686767578125" lon="-0.2747157029807567596435546875">
        <ele>61.799999237060546875</ele>
        <time>2022-05-07T10:10:47.000Z</time>
      </trkpt>
      <trkpt lat="39.73886352963745594024658203125" lon="-0.27419351041316986083984375">
        <ele>61.40000152587890625</ele>
        <time>2022-05-07T10:10:54.000Z</time>
      </trkpt>
      <trkpt lat="39.73879178054630756378173828125" lon="-0.27404741384088993072509765625">
        <ele>61</ele>
        <time>2022-05-07T10:10:56.000Z</time>
      </trkpt>
      <trkpt lat="39.7385628707706928253173828125" lon="-0.273584313690662384033203125">
        <ele>59.40000152587890625</ele>
        <time>2022-05-07T10:11:02.000Z</time>
      </trkpt>
      <trkpt lat="39.73831485025584697723388671875" lon="-0.27313211001455783843994140625">
        <ele>58</ele>
        <time>2022-05-07T10:11:08.000Z</time>
      </trkpt>
      <trkpt lat="39.7382326237857341766357421875" lon="-0.272996909916400909423828125">
        <ele>57.59999847412109375</ele>
        <time>2022-05-07T10:11:10.000Z</time>
      </trkpt>
      <trkpt lat="39.73815165460109710693359375" lon="-0.2728938125073909759521484375">
        <ele>57.59999847412109375</ele>
        <time>2022-05-07T10:11:12.000Z</time>
      </trkpt>
      <trkpt lat="39.738040678203105926513671875" lon="-0.272846706211566925048828125">
        <ele>57.59999847412109375</ele>
        <time>2022-05-07T10:11:14.000Z</time>
      </trkpt>
      <trkpt lat="39.7379845194518566131591796875" lon="-0.2728327922523021697998046875">
        <ele>57.59999847412109375</ele>
        <time>2022-05-07T10:11:15.000Z</time>
      </trkpt>
      <trkpt lat="39.73788770847022533416748046875" lon="-0.2728032879531383514404296875">
        <ele>57.200000762939453125</ele>
        <time>2022-05-07T10:11:17.000Z</time>
      </trkpt>
      <trkpt lat="39.737846553325653076171875" lon="-0.27277369983494281768798828125">
        <ele>57</ele>
        <time>2022-05-07T10:11:18.000Z</time>
      </trkpt>
      <trkpt lat="39.73775745369493961334228515625" lon="-0.2726463787257671356201171875">
        <ele>56.40000152587890625</ele>
        <time>2022-05-07T10:11:21.000Z</time>
      </trkpt>
      <trkpt lat="39.73773817531764507293701171875" lon="-0.27259491384029388427734375">
        <ele>56.200000762939453125</ele>
        <time>2022-05-07T10:11:22.000Z</time>
      </trkpt>
      <trkpt lat="39.737715460360050201416015625" lon="-0.27241780422627925872802734375">
        <ele>55.40000152587890625</ele>
        <time>2022-05-07T10:11:25.000Z</time>
      </trkpt>
      <trkpt lat="39.737730212509632110595703125" lon="-0.272294171154499053955078125">
        <ele>54.799999237060546875</ele>
        <time>2022-05-07T10:11:27.000Z</time>
      </trkpt>
      <trkpt lat="39.7377540171146392822265625" lon="-0.272181518375873565673828125">
        <ele>54.200000762939453125</ele>
        <time>2022-05-07T10:11:29.000Z</time>
      </trkpt>
      <trkpt lat="39.737746305763721466064453125" lon="-0.27207079343497753143310546875">
        <ele>53.799999237060546875</ele>
        <time>2022-05-07T10:11:31.000Z</time>
      </trkpt>
      <trkpt lat="39.7377075813710689544677734375" lon="-0.27196031995117664337158203125">
        <ele>53.59999847412109375</ele>
        <time>2022-05-07T10:11:33.000Z</time>
      </trkpt>
      <trkpt lat="39.73764915950596332550048828125" lon="-0.27179335243999958038330078125">
        <ele>53.200000762939453125</ele>
        <time>2022-05-07T10:11:36.000Z</time>
      </trkpt>
      <trkpt lat="39.73750700242817401885986328125" lon="-0.271461345255374908447265625">
        <ele>52.200000762939453125</ele>
        <time>2022-05-07T10:11:42.000Z</time>
      </trkpt>
      <trkpt lat="39.73731539212167263031005859375" lon="-0.27103428728878498077392578125">
        <ele>50.799999237060546875</ele>
        <time>2022-05-07T10:11:49.000Z</time>
      </trkpt>
      <trkpt lat="39.73725604824721813201904296875" lon="-0.27090654708445072174072265625">
        <ele>50.59999847412109375</ele>
        <time>2022-05-07T10:11:51.000Z</time>
      </trkpt>
      <trkpt lat="39.7369981370866298675537109375" lon="-0.2703725360333919525146484375">
        <ele>49.799999237060546875</ele>
        <time>2022-05-07T10:11:59.000Z</time>
      </trkpt>
      <trkpt lat="39.73673142492771148681640625" lon="-0.26982008479535579681396484375">
        <ele>48.799999237060546875</ele>
        <time>2022-05-07T10:12:07.000Z</time>
      </trkpt>
      <trkpt lat="39.73660158924758434295654296875" lon="-0.2695501036942005157470703125">
        <ele>48.40000152587890625</ele>
        <time>2022-05-07T10:12:11.000Z</time>
      </trkpt>
      <trkpt lat="39.736506454646587371826171875" lon="-0.2693543024361133575439453125">
        <ele>48.40000152587890625</ele>
        <time>2022-05-07T10:12:14.000Z</time>
      </trkpt>
      <trkpt lat="39.7362749464809894561767578125" lon="-0.26888407766819000244140625">
        <ele>47.200000762939453125</ele>
        <time>2022-05-07T10:12:21.000Z</time>
      </trkpt>
      <trkpt lat="39.736137650907039642333984375" lon="-0.2686073072254657745361328125">
        <ele>46.59999847412109375</ele>
        <time>2022-05-07T10:12:25.000Z</time>
      </trkpt>
      <trkpt lat="39.73603782244026660919189453125" lon="-0.2683954127132892608642578125">
        <ele>46</ele>
        <time>2022-05-07T10:12:28.000Z</time>
      </trkpt>
      <trkpt lat="39.7358330525457859039306640625" lon="-0.26797137223184108734130859375">
        <ele>45.200000762939453125</ele>
        <time>2022-05-07T10:12:34.000Z</time>
      </trkpt>
      <trkpt lat="39.7357613034546375274658203125" lon="-0.267824940383434295654296875">
        <ele>44.799999237060546875</ele>
        <time>2022-05-07T10:12:36.000Z</time>
      </trkpt>
      <trkpt lat="39.735507331788539886474609375" lon="-0.267298221588134765625">
        <ele>43.59999847412109375</ele>
        <time>2022-05-07T10:12:43.000Z</time>
      </trkpt>
      <trkpt lat="39.73535788245499134063720703125" lon="-0.26699840091168880462646484375">
        <ele>42.59999847412109375</ele>
        <time>2022-05-07T10:12:47.000Z</time>
      </trkpt>
      <trkpt lat="39.7352446429431438446044921875" lon="-0.26676991023123264312744140625">
        <ele>41.59999847412109375</ele>
        <time>2022-05-07T10:12:50.000Z</time>
      </trkpt>
      <trkpt lat="39.73505294881761074066162109375" lon="-0.2663716860115528106689453125">
        <ele>40.200000762939453125</ele>
        <time>2022-05-07T10:12:55.000Z</time>
      </trkpt>
      <trkpt lat="39.7348221950232982635498046875" lon="-0.26589366607367992401123046875">
        <ele>39.59999847412109375</ele>
        <time>2022-05-07T10:13:01.000Z</time>
      </trkpt>
      <trkpt lat="39.734529666602611541748046875" lon="-0.265490077435970306396484375">
        <ele>39</ele>
        <time>2022-05-07T10:13:07.000Z</time>
      </trkpt>
      <trkpt lat="39.734307713806629180908203125" lon="-0.26532101444900035858154296875">
        <ele>39.200000762939453125</ele>
        <time>2022-05-07T10:13:11.000Z</time>
      </trkpt>
      <trkpt lat="39.7342585958540439605712890625" lon="-0.2652870677411556243896484375">
        <ele>39.200000762939453125</ele>
        <time>2022-05-07T10:13:12.000Z</time>
      </trkpt>
      <trkpt lat="39.73417486064136028289794921875" lon="-0.265219509601593017578125">
        <ele>39.200000762939453125</ele>
        <time>2022-05-07T10:13:14.000Z</time>
      </trkpt>
      <trkpt lat="39.73411769606173038482666015625" lon="-0.2651475928723812103271484375">
        <ele>39.200000762939453125</ele>
        <time>2022-05-07T10:13:16.000Z</time>
      </trkpt>
      <trkpt lat="39.7340654768049716949462890625" lon="-0.26489554904401302337646484375">
        <ele>38.799999237060546875</ele>
        <time>2022-05-07T10:13:21.000Z</time>
      </trkpt>
      <trkpt lat="39.73408115096390247344970703125" lon="-0.264771915972232818603515625">
        <ele>38.799999237060546875</ele>
        <time>2022-05-07T10:13:23.000Z</time>
      </trkpt>
      <trkpt lat="39.7340963222086429595947265625" lon="-0.26470921933650970458984375">
        <ele>38.59999847412109375</ele>
        <time>2022-05-07T10:13:24.000Z</time>
      </trkpt>
      <trkpt lat="39.73410696722567081451416015625" lon="-0.2646443434059619903564453125">
        <ele>38.59999847412109375</ele>
        <time>2022-05-07T10:13:25.000Z</time>
      </trkpt>
      <trkpt lat="39.7340711764991283416748046875" lon="-0.26444393210113048553466796875">
        <ele>38.40000152587890625</ele>
        <time>2022-05-07T10:13:28.000Z</time>
      </trkpt>
      <trkpt lat="39.73404829390347003936767578125" lon="-0.26437821798026561737060546875">
        <ele>38.200000762939453125</ele>
        <time>2022-05-07T10:13:29.000Z</time>
      </trkpt>
      <trkpt lat="39.73389104939997196197509765625" lon="-0.26398929767310619354248046875">
        <ele>37</ele>
        <time>2022-05-07T10:13:35.000Z</time>
      </trkpt>
      <trkpt lat="39.73386405967175960540771484375" lon="-0.26392735540866851806640625">
        <ele>36.59999847412109375</ele>
        <time>2022-05-07T10:13:36.000Z</time>
      </trkpt>
      <trkpt lat="39.7336447052657604217529296875" lon="-0.26350549422204494476318359375">
        <ele>36</ele>
        <time>2022-05-07T10:13:43.000Z</time>
      </trkpt>
      <trkpt lat="39.7334670089185237884521484375" lon="-0.2631996385753154754638671875">
        <ele>35.799999237060546875</ele>
        <time>2022-05-07T10:13:48.000Z</time>
      </trkpt>
      <trkpt lat="39.73339802585542201995849609375" lon="-0.26308237574994564056396484375">
        <ele>35.59999847412109375</ele>
        <time>2022-05-07T10:13:50.000Z</time>
      </trkpt>
      <trkpt lat="39.7332883067429065704345703125" lon="-0.26290819980204105377197265625">
        <ele>35.40000152587890625</ele>
        <time>2022-05-07T10:13:53.000Z</time>
      </trkpt>
      <trkpt lat="39.73309569060802459716796875" lon="-0.2626068703830242156982421875">
        <ele>34.59999847412109375</ele>
        <time>2022-05-07T10:13:58.000Z</time>
      </trkpt>
      <trkpt lat="39.73293249495327472686767578125" lon="-0.262364633381366729736328125">
        <ele>34.200000762939453125</ele>
        <time>2022-05-07T10:14:02.000Z</time>
      </trkpt>
      <trkpt lat="39.7327659465372562408447265625" lon="-0.262124240398406982421875">
        <ele>33.59999847412109375</ele>
        <time>2022-05-07T10:14:06.000Z</time>
      </trkpt>
      <trkpt lat="39.73259747028350830078125" lon="-0.261874459683895111083984375">
        <ele>32.799999237060546875</ele>
        <time>2022-05-07T10:14:10.000Z</time>
      </trkpt>
      <trkpt lat="39.7323736734688282012939453125" lon="-0.26154245249927043914794921875">
        <ele>31.799999237060546875</ele>
        <time>2022-05-07T10:14:15.000Z</time>
      </trkpt>
      <trkpt lat="39.73215649835765361785888671875" lon="-0.26121874339878559112548828125">
        <ele>31</ele>
        <time>2022-05-07T10:14:20.000Z</time>
      </trkpt>
      <trkpt lat="39.73203009925782680511474609375" lon="-0.26103484444320201873779296875">
        <ele>30.6000003814697265625</ele>
        <time>2022-05-07T10:14:23.000Z</time>
      </trkpt>
      <trkpt lat="39.73185827024281024932861328125" lon="-0.26077668182551860809326171875">
        <ele>30.200000762939453125</ele>
        <time>2022-05-07T10:14:27.000Z</time>
      </trkpt>
      <trkpt lat="39.73159792833030223846435546875" lon="-0.2603792957961559295654296875">
        <ele>29.200000762939453125</ele>
        <time>2022-05-07T10:14:33.000Z</time>
      </trkpt>
      <trkpt lat="39.73123884759843349456787109375" lon="-0.25984637439250946044921875">
        <ele>29</ele>
        <time>2022-05-07T10:14:41.000Z</time>
      </trkpt>
      <trkpt lat="39.73119400441646575927734375" lon="-0.2597804926335811614990234375">
        <ele>29</ele>
        <time>2022-05-07T10:14:42.000Z</time>
      </trkpt>
      <trkpt lat="39.73114907741546630859375" lon="-0.25971494615077972412109375">
        <ele>29</ele>
        <time>2022-05-07T10:14:43.000Z</time>
      </trkpt>
      <trkpt lat="39.7307563014328479766845703125" lon="-0.259126536548137664794921875">
        <ele>27.3999996185302734375</ele>
        <time>2022-05-07T10:14:52.000Z</time>
      </trkpt>
      <trkpt lat="39.730711877346038818359375" lon="-0.259062163531780242919921875">
        <ele>27.3999996185302734375</ele>
        <time>2022-05-07T10:14:53.000Z</time>
      </trkpt>
      <trkpt lat="39.73033745773136615753173828125" lon="-0.25849747471511363983154296875">
        <ele>26.799999237060546875</ele>
        <time>2022-05-07T10:15:02.000Z</time>
      </trkpt>
      <trkpt lat="39.730259589850902557373046875" lon="-0.258382223546504974365234375">
        <ele>26.799999237060546875</ele>
        <time>2022-05-07T10:15:04.000Z</time>
      </trkpt>
      <trkpt lat="39.72999799065291881561279296875" lon="-0.25799590162932872772216796875">
        <ele>26.200000762939453125</ele>
        <time>2022-05-07T10:15:11.000Z</time>
      </trkpt>
      <trkpt lat="39.72992339171469211578369140625" lon="-0.2578823268413543701171875">
        <ele>26</ele>
        <time>2022-05-07T10:15:13.000Z</time>
      </trkpt>
      <trkpt lat="39.72961979918181896209716796875" lon="-0.25742341764271259307861328125">
        <ele>25</ele>
        <time>2022-05-07T10:15:21.000Z</time>
      </trkpt>
      <trkpt lat="39.72950496710836887359619140625" lon="-0.25725477375090122222900390625">
        <ele>24.3999996185302734375</ele>
        <time>2022-05-07T10:15:24.000Z</time>
      </trkpt>
      <trkpt lat="39.7293028794229030609130859375" lon="-0.2569557912647724151611328125">
        <ele>23.799999237060546875</ele>
        <time>2022-05-07T10:15:29.000Z</time>
      </trkpt>
      <trkpt lat="39.72896332852542400360107421875" lon="-0.256459414958953857421875">
        <ele>23.6000003814697265625</ele>
        <time>2022-05-07T10:15:37.000Z</time>
      </trkpt>
      <trkpt lat="39.72892141900956630706787109375" lon="-0.25639562867581844329833984375">
        <ele>23.799999237060546875</ele>
        <time>2022-05-07T10:15:38.000Z</time>
      </trkpt>
      <trkpt lat="39.72854272462427616119384765625" lon="-0.25583035312592983245849609375">
        <ele>24</ele>
        <time>2022-05-07T10:15:47.000Z</time>
      </trkpt>
      <trkpt lat="39.72849997691810131072998046875" lon="-0.25576715357601642608642578125">
        <ele>24</ele>
        <time>2022-05-07T10:15:48.000Z</time>
      </trkpt>
      <trkpt lat="39.72836653701961040496826171875" lon="-0.25558124296367168426513671875">
        <ele>24</ele>
        <time>2022-05-07T10:15:51.000Z</time>
      </trkpt>
      <trkpt lat="39.72803226672112941741943359375" lon="-0.25515787303447723388671875">
        <ele>23.3999996185302734375</ele>
        <time>2022-05-07T10:15:58.000Z</time>
      </trkpt>
      <trkpt lat="39.727869071066379547119140625" lon="-0.2549924142658710479736328125">
        <ele>22.799999237060546875</ele>
        <time>2022-05-07T10:16:01.000Z</time>
      </trkpt>
      <trkpt lat="39.72751979716122150421142578125" lon="-0.254681110382080078125">
        <ele>21.6000003814697265625</ele>
        <time>2022-05-07T10:16:07.000Z</time>
      </trkpt>
      <trkpt lat="39.72745961509644985198974609375" lon="-0.2546363510191440582275390625">
        <ele>21.6000003814697265625</ele>
        <time>2022-05-07T10:16:08.000Z</time>
      </trkpt>
      <trkpt lat="39.72739775665104389190673828125" lon="-0.25459620170295238494873046875">
        <ele>21.3999996185302734375</ele>
        <time>2022-05-07T10:16:09.000Z</time>
      </trkpt>
      <trkpt lat="39.72715593874454498291015625" lon="-0.25445739738643169403076171875">
        <ele>20.799999237060546875</ele>
        <time>2022-05-07T10:16:13.000Z</time>
      </trkpt>
      <trkpt lat="39.72680683247745037078857421875" lon="-0.254297889769077301025390625">
        <ele>20.799999237060546875</ele>
        <time>2022-05-07T10:16:19.000Z</time>
      </trkpt>
      <trkpt lat="39.72668697126209735870361328125" lon="-0.2542595006525516510009765625">
        <ele>20.6000003814697265625</ele>
        <time>2022-05-07T10:16:21.000Z</time>
      </trkpt>
      <trkpt lat="39.7262397967278957366943359375" lon="-0.25416922755539417266845703125">
        <ele>19</ele>
        <time>2022-05-07T10:16:28.000Z</time>
      </trkpt>
      <trkpt lat="39.72617366351187229156494140625" lon="-0.254163444042205810546875">
        <ele>18.799999237060546875</ele>
        <time>2022-05-07T10:16:29.000Z</time>
      </trkpt>
      <trkpt lat="39.72565314732491970062255859375" lon="-0.25417526252567768096923828125">
        <ele>18.200000762939453125</ele>
        <time>2022-05-07T10:16:37.000Z</time>
      </trkpt>
      <trkpt lat="39.72553990781307220458984375" lon="-0.2541897632181644439697265625">
        <ele>18.3999996185302734375</ele>
        <time>2022-05-07T10:16:39.000Z</time>
      </trkpt>
      <trkpt lat="39.7254555858671665191650390625" lon="-0.2542048506438732147216796875">
        <ele>18.3999996185302734375</ele>
        <time>2022-05-07T10:16:41.000Z</time>
      </trkpt>
      <trkpt lat="39.72540638409554958343505859375" lon="-0.25418800301849842071533203125">
        <ele>18.3999996185302734375</ele>
        <time>2022-05-07T10:16:43.000Z</time>
      </trkpt>
      <trkpt lat="39.72539749927818775177001953125" lon="-0.25416486896574497222900390625">
        <ele>18.6000003814697265625</ele>
        <time>2022-05-07T10:16:44.000Z</time>
      </trkpt>
      <trkpt lat="39.7254233993589878082275390625" lon="-0.2540452592074871063232421875">
        <ele>18.6000003814697265625</ele>
        <time>2022-05-07T10:16:48.000Z</time>
      </trkpt>
      <trkpt lat="39.7253925539553165435791015625" lon="-0.25386370718479156494140625">
        <ele>18.799999237060546875</ele>
        <time>2022-05-07T10:16:53.000Z</time>
      </trkpt>
      <trkpt lat="39.72529582679271697998046875" lon="-0.25367788039147853851318359375">
        <ele>18.799999237060546875</ele>
        <time>2022-05-07T10:16:59.000Z</time>
      </trkpt>
      <trkpt lat="39.7252725251019001007080078125" lon="-0.2536600269377231597900390625">
        <ele>18.799999237060546875</ele>
        <time>2022-05-07T10:17:00.000Z</time>
      </trkpt>
      <trkpt lat="39.72518208436667919158935546875" lon="-0.253647454082965850830078125">
        <ele>18.799999237060546875</ele>
        <time>2022-05-07T10:17:03.000Z</time>
      </trkpt>
      <trkpt lat="39.72501696087419986724853515625" lon="-0.25367251597344875335693359375">
        <ele>18.799999237060546875</ele>
        <time>2022-05-07T10:17:09.000Z</time>
      </trkpt>
      <trkpt lat="39.7248847782611846923828125" lon="-0.253621973097324371337890625">
        <ele>18.799999237060546875</ele>
        <time>2022-05-07T10:17:14.000Z</time>
      </trkpt>
      <trkpt lat="39.72479693591594696044921875" lon="-0.25351828895509243011474609375">
        <ele>18.6000003814697265625</ele>
        <time>2022-05-07T10:17:17.000Z</time>
      </trkpt>
      <trkpt lat="39.724727533757686614990234375" lon="-0.25343111716210842132568359375">
        <ele>18.6000003814697265625</ele>
        <time>2022-05-07T10:17:19.000Z</time>
      </trkpt>
      <trkpt lat="39.7245895676314830780029296875" lon="-0.253215618431568145751953125">
        <ele>18.3999996185302734375</ele>
        <time>2022-05-07T10:17:23.000Z</time>
      </trkpt>
      <trkpt lat="39.7245255298912525177001953125" lon="-0.25309282355010509490966796875">
        <ele>18.200000762939453125</ele>
        <time>2022-05-07T10:17:25.000Z</time>
      </trkpt>
      <trkpt lat="39.72427767701447010040283203125" lon="-0.25257624685764312744140625">
        <ele>16.799999237060546875</ele>
        <time>2022-05-07T10:17:33.000Z</time>
      </trkpt>
      <trkpt lat="39.724070727825164794921875" lon="-0.2521128952503204345703125">
        <ele>16</ele>
        <time>2022-05-07T10:17:40.000Z</time>
      </trkpt>
      <trkpt lat="39.72386864013969898223876953125" lon="-0.2516537345945835113525390625">
        <ele>14.6000003814697265625</ele>
        <time>2022-05-07T10:17:48.000Z</time>
      </trkpt>
      <trkpt lat="39.7238248027861118316650390625" lon="-0.25153965689241886138916015625">
        <ele>14.19999980926513671875</ele>
        <time>2022-05-07T10:17:50.000Z</time>
      </trkpt>
      <trkpt lat="39.72372111864387989044189453125" lon="-0.251252241432666778564453125">
        <ele>13</ele>
        <time>2022-05-07T10:17:55.000Z</time>
      </trkpt>
      <trkpt lat="39.72368591465055942535400390625" lon="-0.251141600310802459716796875">
        <ele>13.19999980926513671875</ele>
        <time>2022-05-07T10:17:57.000Z</time>
      </trkpt>
      <trkpt lat="39.72363780252635478973388671875" lon="-0.25098226033151149749755859375">
        <ele>13.3999996185302734375</ele>
        <time>2022-05-07T10:18:00.000Z</time>
      </trkpt>
      <trkpt lat="39.72354761324822902679443359375" lon="-0.25065117515623569488525390625">
        <ele>14</ele>
        <time>2022-05-07T10:18:06.000Z</time>
      </trkpt>
      <trkpt lat="39.72340176813304424285888671875" lon="-0.25005497038364410400390625">
        <ele>12.3999996185302734375</ele>
        <time>2022-05-07T10:18:16.000Z</time>
      </trkpt>
      <trkpt lat="39.7232876904308795928955078125" lon="-0.2495800517499446868896484375">
        <ele>12</ele>
        <time>2022-05-07T10:18:23.000Z</time>
      </trkpt>
      <trkpt lat="39.7232687473297119140625" lon="-0.24950520135462284088134765625">
        <ele>12</ele>
        <time>2022-05-07T10:18:24.000Z</time>
      </trkpt>
      <trkpt lat="39.7231438569724559783935546875" lon="-0.24900379590690135955810546875">
        <ele>11.6000003814697265625</ele>
        <time>2022-05-07T10:18:30.000Z</time>
      </trkpt>
      <trkpt lat="39.72311862744390964508056640625" lon="-0.24891075678169727325439453125">
        <ele>11.3999996185302734375</ele>
        <time>2022-05-07T10:18:31.000Z</time>
      </trkpt>
      <trkpt lat="39.7230392508208751678466796875" lon="-0.24861060082912445068359375">
        <ele>10.80000019073486328125</ele>
        <time>2022-05-07T10:18:34.000Z</time>
      </trkpt>
      <trkpt lat="39.72298434935510158538818359375" lon="-0.24839468300342559814453125">
        <ele>10.80000019073486328125</ele>
        <time>2022-05-07T10:18:36.000Z</time>
      </trkpt>
      <trkpt lat="39.7229562699794769287109375" lon="-0.24828429333865642547607421875">
        <ele>10.80000019073486328125</ele>
        <time>2022-05-07T10:18:37.000Z</time>
      </trkpt>
      <trkpt lat="39.7228999435901641845703125" lon="-0.24806166999042034149169921875">
        <ele>11</ele>
        <time>2022-05-07T10:18:39.000Z</time>
      </trkpt>
      <trkpt lat="39.72284671850502490997314453125" lon="-0.247842483222484588623046875">
        <ele>11</ele>
        <time>2022-05-07T10:18:41.000Z</time>
      </trkpt>
      <trkpt lat="39.7227961756289005279541015625" lon="-0.24764039553701877593994140625">
        <ele>11</ele>
        <time>2022-05-07T10:18:43.000Z</time>
      </trkpt>
      <trkpt lat="39.72274831496179103851318359375" lon="-0.2474587596952915191650390625">
        <ele>11</ele>
        <time>2022-05-07T10:18:45.000Z</time>
      </trkpt>
      <trkpt lat="39.7227006219327449798583984375" lon="-0.24730511941015720367431640625">
        <ele>11</ele>
        <time>2022-05-07T10:18:47.000Z</time>
      </trkpt>
      <trkpt lat="39.722658209502696990966796875" lon="-0.247162878513336181640625">
        <ele>10.80000019073486328125</ele>
        <time>2022-05-07T10:18:49.000Z</time>
      </trkpt>
      <trkpt lat="39.7226496599614620208740234375" lon="-0.247094146907329559326171875">
        <ele>10.6000003814697265625</ele>
        <time>2022-05-07T10:18:50.000Z</time>
      </trkpt>
      <trkpt lat="39.7226214967668056488037109375" lon="-0.2469206415116786956787109375">
        <ele>10.3999996185302734375</ele>
        <time>2022-05-07T10:18:54.000Z</time>
      </trkpt>
      <trkpt lat="39.722597859799861907958984375" lon="-0.2469062246382236480712890625">
        <ele>10.3999996185302734375</ele>
        <time>2022-05-07T10:18:55.000Z</time>
      </trkpt>
      <trkpt lat="39.7225443832576274871826171875" lon="-0.24692240171134471893310546875">
        <ele>10.3999996185302734375</ele>
        <time>2022-05-07T10:18:57.000Z</time>
      </trkpt>
      <trkpt lat="39.72249886952340602874755859375" lon="-0.24699498899281024932861328125">
        <ele>10.3999996185302734375</ele>
        <time>2022-05-07T10:18:59.000Z</time>
      </trkpt>
      <trkpt lat="39.7224707901477813720703125" lon="-0.24703639559447765350341796875">
        <ele>10.3999996185302734375</ele>
        <time>2022-05-07T10:19:00.000Z</time>
      </trkpt>
      <trkpt lat="39.72243600524961948394775390625" lon="-0.2470741979777812957763671875">
        <ele>10.3999996185302734375</ele>
        <time>2022-05-07T10:19:01.000Z</time>
      </trkpt>
      <trkpt lat="39.72224556840956211090087890625" lon="-0.24711803533136844635009765625">
        <ele>10.19999980926513671875</ele>
        <time>2022-05-07T10:19:05.000Z</time>
      </trkpt>
      <trkpt lat="39.72210936248302459716796875" lon="-0.2470027841627597808837890625">
        <ele>10</ele>
        <time>2022-05-07T10:19:08.000Z</time>
      </trkpt>
      <trkpt lat="39.72201959230005741119384765625" lon="-0.246806479990482330322265625">
        <ele>10</ele>
        <time>2022-05-07T10:19:11.000Z</time>
      </trkpt>
      <trkpt lat="39.72198723815381526947021484375" lon="-0.246736072003841400146484375">
        <ele>10</ele>
        <time>2022-05-07T10:19:12.000Z</time>
      </trkpt>
      <trkpt lat="39.72176729701459407806396484375" lon="-0.24642401374876499176025390625">
        <ele>10</ele>
        <time>2022-05-07T10:19:17.000Z</time>
      </trkpt>
      <trkpt lat="39.7215735912322998046875" lon="-0.24609711952507495880126953125">
        <ele>10</ele>
        <time>2022-05-07T10:19:22.000Z</time>
      </trkpt>
      <trkpt lat="39.7215305082499980926513671875" lon="-0.24604733102023601531982421875">
        <ele>10</ele>
        <time>2022-05-07T10:19:23.000Z</time>
      </trkpt>
      <trkpt lat="39.72132339142262935638427734375" lon="-0.245832167565822601318359375">
        <ele>10.3999996185302734375</ele>
        <time>2022-05-07T10:19:28.000Z</time>
      </trkpt>
      <trkpt lat="39.72127762623131275177001953125" lon="-0.24580425582826137542724609375">
        <ele>10.3999996185302734375</ele>
        <time>2022-05-07T10:19:29.000Z</time>
      </trkpt>
      <trkpt lat="39.72114083357155323028564453125" lon="-0.24577860720455646514892578125">
        <ele>10.6000003814697265625</ele>
        <time>2022-05-07T10:19:32.000Z</time>
      </trkpt>
      <trkpt lat="39.721097163856029510498046875" lon="-0.24578514508903026580810546875">
        <ele>10.80000019073486328125</ele>
        <time>2022-05-07T10:19:33.000Z</time>
      </trkpt>
      <trkpt lat="39.72105265595018863677978515625" lon="-0.2457857318222522735595703125">
        <ele>10.80000019073486328125</ele>
        <time>2022-05-07T10:19:34.000Z</time>
      </trkpt>
      <trkpt lat="39.72096079029142856597900390625" lon="-0.24574507959187030792236328125">
        <ele>11</ele>
        <time>2022-05-07T10:19:36.000Z</time>
      </trkpt>
      <trkpt lat="39.7208706848323345184326171875" lon="-0.24561147205531597137451171875">
        <ele>10.80000019073486328125</ele>
        <time>2022-05-07T10:19:39.000Z</time>
      </trkpt>
      <trkpt lat="39.72085366956889629364013671875" lon="-0.24539035744965076446533203125">
        <ele>10.6000003814697265625</ele>
        <time>2022-05-07T10:19:43.000Z</time>
      </trkpt>
      <trkpt lat="39.7207781486213207244873046875" lon="-0.24523043073713779449462890625">
        <ele>10.80000019073486328125</ele>
        <time>2022-05-07T10:19:46.000Z</time>
      </trkpt>
      <trkpt lat="39.720751158893108367919921875" lon="-0.24517628364264965057373046875">
        <ele>10.80000019073486328125</ele>
        <time>2022-05-07T10:19:47.000Z</time>
      </trkpt>
      <trkpt lat="39.72055611200630664825439453125" lon="-0.24475819431245326995849609375">
        <ele>10.3999996185302734375</ele>
        <time>2022-05-07T10:19:54.000Z</time>
      </trkpt>
      <trkpt lat="39.72041646949946880340576171875" lon="-0.2444525063037872314453125">
        <ele>10.19999980926513671875</ele>
        <time>2022-05-07T10:19:59.000Z</time>
      </trkpt>
      <trkpt lat="39.720235504209995269775390625" lon="-0.24405486881732940673828125">
        <ele>10.3999996185302734375</ele>
        <time>2022-05-07T10:20:05.000Z</time>
      </trkpt>
      <trkpt lat="39.72005546092987060546875" lon="-0.243629403412342071533203125">
        <ele>10.3999996185302734375</ele>
        <time>2022-05-07T10:20:11.000Z</time>
      </trkpt>
      <trkpt lat="39.71989092417061328887939453125" lon="-0.2430894412100315093994140625">
        <ele>9.6000003814697265625</ele>
        <time>2022-05-07T10:20:18.000Z</time>
      </trkpt>
      <trkpt lat="39.7197109647095203399658203125" lon="-0.24248384870588779449462890625">
        <ele>9.19999980926513671875</ele>
        <time>2022-05-07T10:20:26.000Z</time>
      </trkpt>
      <trkpt lat="39.71962287090718746185302734375" lon="-0.242191068828105926513671875">
        <ele>9.80000019073486328125</ele>
        <time>2022-05-07T10:20:30.000Z</time>
      </trkpt>
      <trkpt lat="39.719547517597675323486328125" lon="-0.241914130747318267822265625">
        <ele>9.80000019073486328125</ele>
        <time>2022-05-07T10:20:34.000Z</time>
      </trkpt>
      <trkpt lat="39.7195285744965076446533203125" lon="-0.2418472431600093841552734375">
        <ele>9.6000003814697265625</ele>
        <time>2022-05-07T10:20:35.000Z</time>
      </trkpt>
      <trkpt lat="39.71943243406713008880615234375" lon="-0.2415273897349834442138671875">
        <ele>9</ele>
        <time>2022-05-07T10:20:40.000Z</time>
      </trkpt>
      <trkpt lat="39.71937376074492931365966796875" lon="-0.2413406409323215484619140625">
        <ele>8.6000003814697265625</ele>
        <time>2022-05-07T10:20:43.000Z</time>
      </trkpt>
      <trkpt lat="39.7193351201713085174560546875" lon="-0.24121684022247791290283203125">
        <ele>8.6000003814697265625</ele>
        <time>2022-05-07T10:20:45.000Z</time>
      </trkpt>
      <trkpt lat="39.71925549209117889404296875" lon="-0.2409751899540424346923828125">
        <ele>8.3999996185302734375</ele>
        <time>2022-05-07T10:20:49.000Z</time>
      </trkpt>
      <trkpt lat="39.719198159873485565185546875" lon="-0.24080445058643817901611328125">
        <ele>8.19999980926513671875</ele>
        <time>2022-05-07T10:20:52.000Z</time>
      </trkpt>
      <trkpt lat="39.71909858286380767822265625" lon="-0.24053505621850490570068359375">
        <ele>8.3999996185302734375</ele>
        <time>2022-05-07T10:20:57.000Z</time>
      </trkpt>
      <trkpt lat="39.7190048731863498687744140625" lon="-0.240279994904994964599609375">
        <ele>8.19999980926513671875</ele>
        <time>2022-05-07T10:21:02.000Z</time>
      </trkpt>
      <trkpt lat="39.7188831679522991180419921875" lon="-0.239946059882640838623046875">
        <ele>8.3999996185302734375</ele>
        <time>2022-05-07T10:21:09.000Z</time>
      </trkpt>
      <trkpt lat="39.71869851462543010711669921875" lon="-0.2394443191587924957275390625">
        <ele>9.19999980926513671875</ele>
        <time>2022-05-07T10:21:18.000Z</time>
      </trkpt>
      <trkpt lat="39.7184778191149234771728515625" lon="-0.23888491094112396240234375">
        <ele>9.80000019073486328125</ele>
        <time>2022-05-07T10:21:27.000Z</time>
      </trkpt>
      <trkpt lat="39.71829031594097614288330078125" lon="-0.23843455128371715545654296875">
        <ele>10</ele>
        <time>2022-05-07T10:21:33.000Z</time>
      </trkpt>
      <trkpt lat="39.718219153583049774169921875" lon="-0.23827177472412586212158203125">
        <ele>10</ele>
        <time>2022-05-07T10:21:35.000Z</time>
      </trkpt>
      <trkpt lat="39.718104489147663116455078125" lon="-0.2380217425525188446044921875">
        <ele>10</ele>
        <time>2022-05-07T10:21:38.000Z</time>
      </trkpt>
      <trkpt lat="39.71793760545551776885986328125" lon="-0.2376770786941051483154296875">
        <ele>9.6000003814697265625</ele>
        <time>2022-05-07T10:21:42.000Z</time>
      </trkpt>
      <trkpt lat="39.7178558818995952606201171875" lon="-0.23750332184135913848876953125">
        <ele>9.3999996185302734375</ele>
        <time>2022-05-07T10:21:44.000Z</time>
      </trkpt>
      <trkpt lat="39.71781740896403789520263671875" lon="-0.23741983808577060699462890625">
        <ele>9.19999980926513671875</ele>
        <time>2022-05-07T10:21:45.000Z</time>
      </trkpt>
      <trkpt lat="39.717655889689922332763671875" lon="-0.2370538003742694854736328125">
        <ele>9</ele>
        <time>2022-05-07T10:21:50.000Z</time>
      </trkpt>
      <trkpt lat="39.7173978947103023529052734375" lon="-0.23640998639166355133056640625">
        <ele>9</ele>
        <time>2022-05-07T10:22:00.000Z</time>
      </trkpt>
      <trkpt lat="39.71733771264553070068359375" lon="-0.236248634755611419677734375">
        <ele>9</ele>
        <time>2022-05-07T10:22:03.000Z</time>
      </trkpt>
      <trkpt lat="39.71726596355438232421875" lon="-0.236052162945270538330078125">
        <ele>9</ele>
        <time>2022-05-07T10:22:07.000Z</time>
      </trkpt>
      <trkpt lat="39.71724785864353179931640625" lon="-0.23600514046847820281982421875">
        <ele>9</ele>
        <time>2022-05-07T10:22:08.000Z</time>
      </trkpt>
      <trkpt lat="39.717209301888942718505859375" lon="-0.23591293953359127044677734375">
        <ele>9.19999980926513671875</ele>
        <time>2022-05-07T10:22:10.000Z</time>
      </trkpt>
      <trkpt lat="39.71702967770397663116455078125" lon="-0.23546517826616764068603515625">
        <ele>10</ele>
        <time>2022-05-07T10:22:19.000Z</time>
      </trkpt>
      <trkpt lat="39.71684896387159824371337890625" lon="-0.23500568233430385589599609375">
        <ele>9.6000003814697265625</ele>
        <time>2022-05-07T10:22:26.000Z</time>
      </trkpt>
      <trkpt lat="39.716789536178112030029296875" lon="-0.2348453365266323089599609375">
        <ele>9.6000003814697265625</ele>
        <time>2022-05-07T10:22:28.000Z</time>
      </trkpt>
      <trkpt lat="39.7166887857019901275634765625" lon="-0.23458038456737995147705078125">
        <ele>9</ele>
        <time>2022-05-07T10:22:31.000Z</time>
      </trkpt>
      <trkpt lat="39.71665333025157451629638671875" lon="-0.234486758708953857421875">
        <ele>9</ele>
        <time>2022-05-07T10:22:32.000Z</time>
      </trkpt>
      <trkpt lat="39.71654151566326618194580078125" lon="-0.23420445621013641357421875">
        <ele>9</ele>
        <time>2022-05-07T10:22:35.000Z</time>
      </trkpt>
      <trkpt lat="39.71638862974941730499267578125" lon="-0.2338321320712566375732421875">
        <ele>9</ele>
        <time>2022-05-07T10:22:39.000Z</time>
      </trkpt>
      <trkpt lat="39.71635275520384311676025390625" lon="-0.233740098774433135986328125">
        <ele>9</ele>
        <time>2022-05-07T10:22:40.000Z</time>
      </trkpt>
      <trkpt lat="39.71622467972338199615478515625" lon="-0.2333912439644336700439453125">
        <ele>9</ele>
        <time>2022-05-07T10:22:44.000Z</time>
      </trkpt>
      <trkpt lat="39.716192074120044708251953125" lon="-0.233321003615856170654296875">
        <ele>9</ele>
        <time>2022-05-07T10:22:45.000Z</time>
      </trkpt>
      <trkpt lat="39.71614924259483814239501953125" lon="-0.23326836526393890380859375">
        <ele>9.19999980926513671875</ele>
        <time>2022-05-07T10:22:46.000Z</time>
      </trkpt>
      <trkpt lat="39.71599794924259185791015625" lon="-0.2332004718482494354248046875">
        <ele>9.3999996185302734375</ele>
        <time>2022-05-07T10:22:49.000Z</time>
      </trkpt>
      <trkpt lat="39.71595637500286102294921875" lon="-0.23315906524658203125">
        <ele>9.3999996185302734375</ele>
        <time>2022-05-07T10:22:50.000Z</time>
      </trkpt>
      <trkpt lat="39.715901724994182586669921875" lon="-0.233040712773799896240234375">
        <ele>9.19999980926513671875</ele>
        <time>2022-05-07T10:22:52.000Z</time>
      </trkpt>
      <trkpt lat="39.7159042395651340484619140625" lon="-0.23281901143491268157958984375">
        <ele>8.6000003814697265625</ele>
        <time>2022-05-07T10:22:55.000Z</time>
      </trkpt>
      <trkpt lat="39.71585503779351711273193359375" lon="-0.232527740299701690673828125">
        <ele>8</ele>
        <time>2022-05-07T10:22:59.000Z</time>
      </trkpt>
      <trkpt lat="39.71568387933075428009033203125" lon="-0.231997333467006683349609375">
        <ele>8.3999996185302734375</ele>
        <time>2022-05-07T10:23:07.000Z</time>
      </trkpt>
      <trkpt lat="39.71552663482725620269775390625" lon="-0.23149802349507808685302734375">
        <ele>8.19999980926513671875</ele>
        <time>2022-05-07T10:23:15.000Z</time>
      </trkpt>
      <trkpt lat="39.71534156240522861480712890625" lon="-0.2309422194957733154296875">
        <ele>8.3999996185302734375</ele>
        <time>2022-05-07T10:23:23.000Z</time>
      </trkpt>
      <trkpt lat="39.7151304222643375396728515625" lon="-0.23025733418762683868408203125">
        <ele>8</ele>
        <time>2022-05-07T10:23:32.000Z</time>
      </trkpt>
      <trkpt lat="39.715105779469013214111328125" lon="-0.23018072359263896942138671875">
        <ele>7.80000019073486328125</ele>
        <time>2022-05-07T10:23:33.000Z</time>
      </trkpt>
      <trkpt lat="39.71490302123129367828369140625" lon="-0.22953498177230358123779296875">
        <ele>6.80000019073486328125</ele>
        <time>2022-05-07T10:23:42.000Z</time>
      </trkpt>
      <trkpt lat="39.71473974175751209259033203125" lon="-0.2290420420467853546142578125">
        <ele>6.80000019073486328125</ele>
        <time>2022-05-07T10:23:50.000Z</time>
      </trkpt>
      <trkpt lat="39.7145636379718780517578125" lon="-0.22858120501041412353515625">
        <ele>7</ele>
        <time>2022-05-07T10:23:58.000Z</time>
      </trkpt>
      <trkpt lat="39.7144670784473419189453125" lon="-0.22836989723145961761474609375">
        <ele>7</ele>
        <time>2022-05-07T10:24:02.000Z</time>
      </trkpt>
      <trkpt lat="39.71438786946237087249755859375" lon="-0.22821885533630847930908203125">
        <ele>7.19999980926513671875</ele>
        <time>2022-05-07T10:24:05.000Z</time>
      </trkpt>
      <trkpt lat="39.71408947370946407318115234375" lon="-0.2277693338692188262939453125">
        <ele>7</ele>
        <time>2022-05-07T10:24:15.000Z</time>
      </trkpt>
      <trkpt lat="39.7136843763291835784912109375" lon="-0.227339006960391998291015625">
        <ele>7</ele>
        <time>2022-05-07T10:24:26.000Z</time>
      </trkpt>
      <trkpt lat="39.71336293034255504608154296875" lon="-0.22708495147526264190673828125">
        <ele>7</ele>
        <time>2022-05-07T10:24:34.000Z</time>
      </trkpt>
      <trkpt lat="39.71306202001869678497314453125" lon="-0.2269096858799457550048828125">
        <ele>6.80000019073486328125</ele>
        <time>2022-05-07T10:24:41.000Z</time>
      </trkpt>
      <trkpt lat="39.71277619712054729461669921875" lon="-0.2267713844776153564453125">
        <ele>6.599999904632568359375</ele>
        <time>2022-05-07T10:24:48.000Z</time>
      </trkpt>
      <trkpt lat="39.71243220381438732147216796875" lon="-0.22662319242954254150390625">
        <ele>6.599999904632568359375</ele>
        <time>2022-05-07T10:24:57.000Z</time>
      </trkpt>
      <trkpt lat="39.7122182138264179229736328125" lon="-0.22653912194073200225830078125">
        <ele>6.80000019073486328125</ele>
        <time>2022-05-07T10:25:02.000Z</time>
      </trkpt>
      <trkpt lat="39.71209072507917881011962890625" lon="-0.2264899201691150665283203125">
        <ele>7</ele>
        <time>2022-05-07T10:25:05.000Z</time>
      </trkpt>
      <trkpt lat="39.7117783315479755401611328125" lon="-0.22635740227997303009033203125">
        <ele>6.599999904632568359375</ele>
        <time>2022-05-07T10:25:13.000Z</time>
      </trkpt>
      <trkpt lat="39.71143819391727447509765625" lon="-0.2262039296329021453857421875">
        <ele>6.400000095367431640625</ele>
        <time>2022-05-07T10:25:21.000Z</time>
      </trkpt>
      <trkpt lat="39.71105321310460567474365234375" lon="-0.22604073397815227508544921875">
        <ele>6.19999980926513671875</ele>
        <time>2022-05-07T10:25:30.000Z</time>
      </trkpt>
      <trkpt lat="39.71061131916940212249755859375" lon="-0.22586655803024768829345703125">
        <ele>5.80000019073486328125</ele>
        <time>2022-05-07T10:25:40.000Z</time>
      </trkpt>
      <trkpt lat="39.71027813851833343505859375" lon="-0.22573060356080532073974609375">
        <ele>5.599999904632568359375</ele>
        <time>2022-05-07T10:25:48.000Z</time>
      </trkpt>
      <trkpt lat="39.7098846919834613800048828125" lon="-0.2255806513130664825439453125">
        <ele>5.80000019073486328125</ele>
        <time>2022-05-07T10:25:57.000Z</time>
      </trkpt>
      <trkpt lat="39.709479175508022308349609375" lon="-0.22542499937117099761962890625">
        <ele>6</ele>
        <time>2022-05-07T10:26:06.000Z</time>
      </trkpt>
      <trkpt lat="39.70917147584259510040283203125" lon="-0.2253131009638309478759765625">
        <ele>5.599999904632568359375</ele>
        <time>2022-05-07T10:26:13.000Z</time>
      </trkpt>
      <trkpt lat="39.70879764296114444732666015625" lon="-0.22517052479088306427001953125">
        <ele>5.19999980926513671875</ele>
        <time>2022-05-07T10:26:22.000Z</time>
      </trkpt>
      <trkpt lat="39.70849622972309589385986328125" lon="-0.2250780723989009857177734375">
        <ele>5</ele>
        <time>2022-05-07T10:26:29.000Z</time>
      </trkpt>
      <trkpt lat="39.70845264382660388946533203125" lon="-0.22507027722895145416259765625">
        <ele>5</ele>
        <time>2022-05-07T10:26:30.000Z</time>
      </trkpt>
      <trkpt lat="39.70832171849906444549560546875" lon="-0.22504462860524654388427734375">
        <ele>5</ele>
        <time>2022-05-07T10:26:33.000Z</time>
      </trkpt>
      <trkpt lat="39.7081989236176013946533203125" lon="-0.2250204049050807952880859375">
        <ele>5</ele>
        <time>2022-05-07T10:26:36.000Z</time>
      </trkpt>
      <trkpt lat="39.7079493105411529541015625" lon="-0.22501478902995586395263671875">
        <ele>5</ele>
        <time>2022-05-07T10:26:42.000Z</time>
      </trkpt>
      <trkpt lat="39.70790706574916839599609375" lon="-0.22502535022795200347900390625">
        <ele>5</ele>
        <time>2022-05-07T10:26:43.000Z</time>
      </trkpt>
      <trkpt lat="39.70769994892179965972900390625" lon="-0.22507865913212299346923828125">
        <ele>5</ele>
        <time>2022-05-07T10:26:48.000Z</time>
      </trkpt>
      <trkpt lat="39.7076229192316532135009765625" lon="-0.22505586035549640655517578125">
        <ele>5</ele>
        <time>2022-05-07T10:26:50.000Z</time>
      </trkpt>
      <trkpt lat="39.70755075104534626007080078125" lon="-0.22500908933579921722412109375">
        <ele>5</ele>
        <time>2022-05-07T10:26:52.000Z</time>
      </trkpt>
      <trkpt lat="39.70744145102798938751220703125" lon="-0.22492795251309871673583984375">
        <ele>5.19999980926513671875</ele>
        <time>2022-05-07T10:26:55.000Z</time>
      </trkpt>
      <trkpt lat="39.7073758207261562347412109375" lon="-0.22484580986201763153076171875">
        <ele>5.400000095367431640625</ele>
        <time>2022-05-07T10:26:57.000Z</time>
      </trkpt>
      <trkpt lat="39.7071699611842632293701171875" lon="-0.224658139050006866455078125">
        <ele>5.80000019073486328125</ele>
        <time>2022-05-07T10:27:02.000Z</time>
      </trkpt>
      <trkpt lat="39.70674172975122928619384765625" lon="-0.22441263310611248016357421875">
        <ele>6</ele>
        <time>2022-05-07T10:27:11.000Z</time>
      </trkpt>
      <trkpt lat="39.70637091435492038726806640625" lon="-0.22421482019126415252685546875">
        <ele>6</ele>
        <time>2022-05-07T10:27:19.000Z</time>
      </trkpt>
      <trkpt lat="39.705951400101184844970703125" lon="-0.22406327538192272186279296875">
        <ele>6.599999904632568359375</ele>
        <time>2022-05-07T10:27:28.000Z</time>
      </trkpt>
      <trkpt lat="39.70563883893191814422607421875" lon="-0.2239538915455341339111328125">
        <ele>6.80000019073486328125</ele>
        <time>2022-05-07T10:27:35.000Z</time>
      </trkpt>
      <trkpt lat="39.7055943310260772705078125" lon="-0.22393452934920787811279296875">
        <ele>7</ele>
        <time>2022-05-07T10:27:36.000Z</time>
      </trkpt>
      <trkpt lat="39.70537598244845867156982421875" lon="-0.22381148301064968109130859375">
        <ele>7</ele>
        <time>2022-05-07T10:27:41.000Z</time>
      </trkpt>
      <trkpt lat="39.70533608458936214447021484375" lon="-0.22378030233085155487060546875">
        <ele>7</ele>
        <time>2022-05-07T10:27:42.000Z</time>
      </trkpt>
      <trkpt lat="39.70525813288986682891845703125" lon="-0.223715007305145263671875">
        <ele>7</ele>
        <time>2022-05-07T10:27:44.000Z</time>
      </trkpt>
      <trkpt lat="39.70509552396833896636962890625" lon="-0.22360227070748805999755859375">
        <ele>7</ele>
        <time>2022-05-07T10:27:48.000Z</time>
      </trkpt>
      <trkpt lat="39.70472864806652069091796875" lon="-0.22331108339130878448486328125">
        <ele>7</ele>
        <time>2022-05-07T10:27:57.000Z</time>
      </trkpt>
      <trkpt lat="39.7044146619737148284912109375" lon="-0.2230422757565975189208984375">
        <ele>6.80000019073486328125</ele>
        <time>2022-05-07T10:28:05.000Z</time>
      </trkpt>
      <trkpt lat="39.70434249378740787506103515625" lon="-0.2229735441505908966064453125">
        <ele>6.599999904632568359375</ele>
        <time>2022-05-07T10:28:07.000Z</time>
      </trkpt>
      <trkpt lat="39.70417753793299198150634765625" lon="-0.22284052334725856781005859375">
        <ele>6</ele>
        <time>2022-05-07T10:28:11.000Z</time>
      </trkpt>
      <trkpt lat="39.70391334034502506256103515625" lon="-0.22258386947214603424072265625">
        <ele>5.19999980926513671875</ele>
        <time>2022-05-07T10:28:18.000Z</time>
      </trkpt>
      <trkpt lat="39.70372223295271396636962890625" lon="-0.22238555364310741424560546875">
        <ele>5</ele>
        <time>2022-05-07T10:28:24.000Z</time>
      </trkpt>
      <trkpt lat="39.70351385883986949920654296875" lon="-0.22218287922441959381103515625">
        <ele>5.599999904632568359375</ele>
        <time>2022-05-07T10:28:30.000Z</time>
      </trkpt>
      <trkpt lat="39.70321579836308956146240234375" lon="-0.221894122660160064697265625">
        <ele>6.400000095367431640625</ele>
        <time>2022-05-07T10:28:38.000Z</time>
      </trkpt>
      <trkpt lat="39.70286308787763118743896484375" lon="-0.22155540995299816131591796875">
        <ele>6.599999904632568359375</ele>
        <time>2022-05-07T10:28:47.000Z</time>
      </trkpt>
      <trkpt lat="39.7025830484926700592041015625" lon="-0.2212941460311412811279296875">
        <ele>5.599999904632568359375</ele>
        <time>2022-05-07T10:28:54.000Z</time>
      </trkpt>
      <trkpt lat="39.70247399993240833282470703125" lon="-0.2211865223944187164306640625">
        <ele>5.400000095367431640625</ele>
        <time>2022-05-07T10:28:57.000Z</time>
      </trkpt>
      <trkpt lat="39.7023614309728145599365234375" lon="-0.22107772529125213623046875">
        <ele>5.19999980926513671875</ele>
        <time>2022-05-07T10:29:00.000Z</time>
      </trkpt>
      <trkpt lat="39.70210486091673374176025390625" lon="-0.22083909250795841217041015625">
        <ele>5.400000095367431640625</ele>
        <time>2022-05-07T10:29:07.000Z</time>
      </trkpt>
      <trkpt lat="39.70183144323527812957763671875" lon="-0.2205796726047992706298828125">
        <ele>6</ele>
        <time>2022-05-07T10:29:14.000Z</time>
      </trkpt>
      <trkpt lat="39.7015815787017345428466796875" lon="-0.2203513495624065399169921875">
        <ele>6.19999980926513671875</ele>
        <time>2022-05-07T10:29:20.000Z</time>
      </trkpt>
      <trkpt lat="39.701250828802585601806640625" lon="-0.220060832798480987548828125">
        <ele>6.400000095367431640625</ele>
        <time>2022-05-07T10:29:28.000Z</time>
      </trkpt>
      <trkpt lat="39.70091588795185089111328125" lon="-0.21977844648063182830810546875">
        <ele>6.19999980926513671875</ele>
        <time>2022-05-07T10:29:36.000Z</time>
      </trkpt>
      <trkpt lat="39.70071078278124332427978515625" lon="-0.21961332298815250396728515625">
        <ele>6</ele>
        <time>2022-05-07T10:29:41.000Z</time>
      </trkpt>
      <trkpt lat="39.7006324119865894317626953125" lon="-0.21956202574074268341064453125">
        <ele>6</ele>
        <time>2022-05-07T10:29:43.000Z</time>
      </trkpt>
      <trkpt lat="39.7003524564206600189208984375" lon="-0.21937628276646137237548828125">
        <ele>6.19999980926513671875</ele>
        <time>2022-05-07T10:29:50.000Z</time>
      </trkpt>
      <trkpt lat="39.6998401544988155364990234375" lon="-0.219070427119731903076171875">
        <ele>6.400000095367431640625</ele>
        <time>2022-05-07T10:30:02.000Z</time>
      </trkpt>
      <trkpt lat="39.69952591694891452789306640625" lon="-0.218912176787853240966796875">
        <ele>6</ele>
        <time>2022-05-07T10:30:09.000Z</time>
      </trkpt>
      <trkpt lat="39.69943321309983730316162109375" lon="-0.2188918925821781158447265625">
        <ele>6</ele>
        <time>2022-05-07T10:30:11.000Z</time>
      </trkpt>
      <trkpt lat="39.69934017397463321685791015625" lon="-0.218893401324748992919921875">
        <ele>6</ele>
        <time>2022-05-07T10:30:13.000Z</time>
      </trkpt>
      <trkpt lat="39.69915325753390789031982421875" lon="-0.21894293837249279022216796875">
        <ele>6</ele>
        <time>2022-05-07T10:30:17.000Z</time>
      </trkpt>
      <trkpt lat="39.6989721246063709259033203125" lon="-0.21903564222157001495361328125">
        <ele>6</ele>
        <time>2022-05-07T10:30:21.000Z</time>
      </trkpt>
      <trkpt lat="39.69882912933826446533203125" lon="-0.2190635539591312408447265625">
        <ele>6</ele>
        <time>2022-05-07T10:30:24.000Z</time>
      </trkpt>
      <trkpt lat="39.6985989622771739959716796875" lon="-0.21899700164794921875">
        <ele>6.19999980926513671875</ele>
        <time>2022-05-07T10:30:29.000Z</time>
      </trkpt>
      <trkpt lat="39.69843082129955291748046875" lon="-0.2187876217067241668701171875">
        <ele>6.400000095367431640625</ele>
        <time>2022-05-07T10:30:34.000Z</time>
      </trkpt>
      <trkpt lat="39.69831858761608600616455078125" lon="-0.21858687512576580047607421875">
        <ele>6.400000095367431640625</ele>
        <time>2022-05-07T10:30:38.000Z</time>
      </trkpt>
      <trkpt lat="39.69824885018169879913330078125" lon="-0.2185074985027313232421875">
        <ele>6.599999904632568359375</ele>
        <time>2022-05-07T10:30:40.000Z</time>
      </trkpt>
      <trkpt lat="39.69800007529556751251220703125" lon="-0.21834698505699634552001953125">
        <ele>6.80000019073486328125</ele>
        <time>2022-05-07T10:30:46.000Z</time>
      </trkpt>
      <trkpt lat="39.6977054513990879058837890625" lon="-0.2182991243898868560791015625">
        <ele>7</ele>
        <time>2022-05-07T10:30:53.000Z</time>
      </trkpt>
      <trkpt lat="39.6972937323153018951416015625" lon="-0.21823902614414691925048828125">
        <ele>7</ele>
        <time>2022-05-07T10:31:02.000Z</time>
      </trkpt>
      <trkpt lat="39.69688360579311847686767578125" lon="-0.218177922070026397705078125">
        <ele>7.19999980926513671875</ele>
        <time>2022-05-07T10:31:11.000Z</time>
      </trkpt>
      <trkpt lat="39.69646182842552661895751953125" lon="-0.218105502426624298095703125">
        <ele>6.599999904632568359375</ele>
        <time>2022-05-07T10:31:20.000Z</time>
      </trkpt>
      <trkpt lat="39.695973582565784454345703125" lon="-0.21803350187838077545166015625">
        <ele>6.19999980926513671875</ele>
        <time>2022-05-07T10:31:30.000Z</time>
      </trkpt>
      <trkpt lat="39.69551014713943004608154296875" lon="-0.2179661951959133148193359375">
        <ele>6.80000019073486328125</ele>
        <time>2022-05-07T10:31:39.000Z</time>
      </trkpt>
      <trkpt lat="39.6951499767601490020751953125" lon="-0.2179155685007572174072265625">
        <ele>6.80000019073486328125</ele>
        <time>2022-05-07T10:31:46.000Z</time>
      </trkpt>
      <trkpt lat="39.694678746163845062255859375" lon="-0.2178488485515117645263671875">
        <ele>6.19999980926513671875</ele>
        <time>2022-05-07T10:31:55.000Z</time>
      </trkpt>
      <trkpt lat="39.6941354312002658843994140625" lon="-0.21777324378490447998046875">
        <ele>6.599999904632568359375</ele>
        <time>2022-05-07T10:32:05.000Z</time>
      </trkpt>
      <trkpt lat="39.6940831281244754791259765625" lon="-0.21776561625301837921142578125">
        <ele>6.80000019073486328125</ele>
        <time>2022-05-07T10:32:06.000Z</time>
      </trkpt>
      <trkpt lat="39.69351458363234996795654296875" lon="-0.21768632344901561737060546875">
        <ele>7</ele>
        <time>2022-05-07T10:32:17.000Z</time>
      </trkpt>
      <trkpt lat="39.69301284290850162506103515625" lon="-0.2176572382450103759765625">
        <ele>7.599999904632568359375</ele>
        <time>2022-05-07T10:32:27.000Z</time>
      </trkpt>
      <trkpt lat="39.6925304643809795379638671875" lon="-0.2176988124847412109375">
        <ele>8</ele>
        <time>2022-05-07T10:32:37.000Z</time>
      </trkpt>
      <trkpt lat="39.69208463095128536224365234375" lon="-0.2177988924086093902587890625">
        <ele>7.80000019073486328125</ele>
        <time>2022-05-07T10:32:47.000Z</time>
      </trkpt>
      <trkpt lat="39.69166335649788379669189453125" lon="-0.2179568074643611907958984375">
        <ele>7.19999980926513671875</ele>
        <time>2022-05-07T10:32:56.000Z</time>
      </trkpt>
      <trkpt lat="39.69139044173061847686767578125" lon="-0.21814699284732341766357421875">
        <ele>6.599999904632568359375</ele>
        <time>2022-05-07T10:33:02.000Z</time>
      </trkpt>
      <trkpt lat="39.691224396228790283203125" lon="-0.21839476190507411956787109375">
        <ele>6.599999904632568359375</ele>
        <time>2022-05-07T10:33:07.000Z</time>
      </trkpt>
      <trkpt lat="39.6911893598735332489013671875" lon="-0.218436419963836669921875">
        <ele>6.599999904632568359375</ele>
        <time>2022-05-07T10:33:08.000Z</time>
      </trkpt>
      <trkpt lat="39.6910639666020870208740234375" lon="-0.21849400363862514495849609375">
        <ele>6.599999904632568359375</ele>
        <time>2022-05-07T10:33:11.000Z</time>
      </trkpt>
      <trkpt lat="39.69101996161043643951416015625" lon="-0.21850724704563617706298828125">
        <ele>6.599999904632568359375</ele>
        <time>2022-05-07T10:33:12.000Z</time>
      </trkpt>
      <trkpt lat="39.690886102616786956787109375" lon="-0.2185385115444660186767578125">
        <ele>6.80000019073486328125</ele>
        <time>2022-05-07T10:33:15.000Z</time>
      </trkpt>
      <trkpt lat="39.69079867936670780181884765625" lon="-0.21852887235581874847412109375">
        <ele>6.599999904632568359375</ele>
        <time>2022-05-07T10:33:17.000Z</time>
      </trkpt>
      <trkpt lat="39.69065132550895214080810546875" lon="-0.21841404028236865997314453125">
        <ele>6.599999904632568359375</ele>
        <time>2022-05-07T10:33:21.000Z</time>
      </trkpt>
      <trkpt lat="39.690583012998104095458984375" lon="-0.21827557124197483062744140625">
        <ele>6.400000095367431640625</ele>
        <time>2022-05-07T10:33:24.000Z</time>
      </trkpt>
      <trkpt lat="39.69057035632431507110595703125" lon="-0.21822360344231128692626953125">
        <ele>6.400000095367431640625</ele>
        <time>2022-05-07T10:33:25.000Z</time>
      </trkpt>
      <trkpt lat="39.6905747987329959869384765625" lon="-0.21796594373881816864013671875">
        <ele>6</ele>
        <time>2022-05-07T10:33:30.000Z</time>
      </trkpt>
      <trkpt lat="39.69052526168525218963623046875" lon="-0.21784038282930850982666015625">
        <ele>5.80000019073486328125</ele>
        <time>2022-05-07T10:33:33.000Z</time>
      </trkpt>
      <trkpt lat="39.69033784233033657073974609375" lon="-0.2177167497575283050537109375">
        <ele>5.80000019073486328125</ele>
        <time>2022-05-07T10:33:38.000Z</time>
      </trkpt>
      <trkpt lat="39.68992679379880428314208984375" lon="-0.21755087189376354217529296875">
        <ele>6</ele>
        <time>2022-05-07T10:33:47.000Z</time>
      </trkpt>
      <trkpt lat="39.6896497718989849090576171875" lon="-0.21751902066171169281005859375">
        <ele>6.400000095367431640625</ele>
        <time>2022-05-07T10:33:53.000Z</time>
      </trkpt>
      <trkpt lat="39.68936034478247165679931640625" lon="-0.21751751191914081573486328125">
        <ele>6.599999904632568359375</ele>
        <time>2022-05-07T10:33:59.000Z</time>
      </trkpt>
      <trkpt lat="39.688962288200855255126953125" lon="-0.2175484411418437957763671875">
        <ele>7.19999980926513671875</ele>
        <time>2022-05-07T10:34:07.000Z</time>
      </trkpt>
      <trkpt lat="39.68847437761723995208740234375" lon="-0.217584483325481414794921875">
        <ele>7.19999980926513671875</ele>
        <time>2022-05-07T10:34:17.000Z</time>
      </trkpt>
      <trkpt lat="39.6880377642810344696044921875" lon="-0.21760619245469570159912109375">
        <ele>7</ele>
        <time>2022-05-07T10:34:26.000Z</time>
      </trkpt>
      <trkpt lat="39.6876448206603527069091796875" lon="-0.21752916276454925537109375">
        <ele>7.19999980926513671875</ele>
        <time>2022-05-07T10:34:34.000Z</time>
      </trkpt>
      <trkpt lat="39.68730174936354160308837890625" lon="-0.21736395545303821563720703125">
        <ele>7.19999980926513671875</ele>
        <time>2022-05-07T10:34:41.000Z</time>
      </trkpt>
      <trkpt lat="39.6867915429174900054931640625" lon="-0.217070169746875762939453125">
        <ele>7.19999980926513671875</ele>
        <time>2022-05-07T10:34:51.000Z</time>
      </trkpt>
      <trkpt lat="39.6864272654056549072265625" lon="-0.21690613590180873870849609375">
        <ele>7.400000095367431640625</ele>
        <time>2022-05-07T10:34:58.000Z</time>
      </trkpt>
      <trkpt lat="39.68627278693020343780517578125" lon="-0.216859616339206695556640625">
        <ele>7.400000095367431640625</ele>
        <time>2022-05-07T10:35:01.000Z</time>
      </trkpt>
      <trkpt lat="39.68623406253755092620849609375" lon="-0.2168235741555690765380859375">
        <ele>7.19999980926513671875</ele>
        <time>2022-05-07T10:35:02.000Z</time>
      </trkpt>
      <trkpt lat="39.68621092848479747772216796875" lon="-0.2166522480547428131103515625">
        <ele>6.80000019073486328125</ele>
        <time>2022-05-07T10:35:05.000Z</time>
      </trkpt>
      <trkpt lat="39.68628711998462677001953125" lon="-0.2164757251739501953125">
        <ele>6.400000095367431640625</ele>
        <time>2022-05-07T10:35:08.000Z</time>
      </trkpt>
      <trkpt lat="39.68631469644606113433837890625" lon="-0.21619300357997417449951171875">
        <ele>6</ele>
        <time>2022-05-07T10:35:12.000Z</time>
      </trkpt>
      <trkpt lat="39.686291478574275970458984375" lon="-0.21597255952656269073486328125">
        <ele>6</ele>
        <time>2022-05-07T10:35:15.000Z</time>
      </trkpt>
      <trkpt lat="39.686278738081455230712890625" lon="-0.21582788787782192230224609375">
        <ele>6</ele>
        <time>2022-05-07T10:35:17.000Z</time>
      </trkpt>
      <trkpt lat="39.686276726424694061279296875" lon="-0.215758569538593292236328125">
        <ele>6</ele>
        <time>2022-05-07T10:35:18.000Z</time>
      </trkpt>
      <trkpt lat="39.68623079359531402587890625" lon="-0.2150536514818668365478515625">
        <ele>5</ele>
        <time>2022-05-07T10:35:28.000Z</time>
      </trkpt>
      <trkpt lat="39.68622702173888683319091796875" lon="-0.21498399786651134490966796875">
        <ele>5</ele>
        <time>2022-05-07T10:35:29.000Z</time>
      </trkpt>
      <trkpt lat="39.6861826814711093902587890625" lon="-0.214267931878566741943359375">
        <ele>3.599999904632568359375</ele>
        <time>2022-05-07T10:35:39.000Z</time>
      </trkpt>
      <trkpt lat="39.68617790378630161285400390625" lon="-0.21419593133032321929931640625">
        <ele>3.599999904632568359375</ele>
        <time>2022-05-07T10:35:40.000Z</time>
      </trkpt>
      <trkpt lat="39.68612241558730602264404296875" lon="-0.21344373933970928192138671875">
        <ele>4</ele>
        <time>2022-05-07T10:35:50.000Z</time>
      </trkpt>
      <trkpt lat="39.6861161291599273681640625" lon="-0.2133683860301971435546875">
        <ele>4.19999980926513671875</ele>
        <time>2022-05-07T10:35:51.000Z</time>
      </trkpt>
      <trkpt lat="39.68611202202737331390380859375" lon="-0.2132917754352092742919921875">
        <ele>4.400000095367431640625</ele>
        <time>2022-05-07T10:35:52.000Z</time>
      </trkpt>
      <trkpt lat="39.68608536757528781890869140625" lon="-0.21283403970301151275634765625">
        <ele>5</ele>
        <time>2022-05-07T10:35:58.000Z</time>
      </trkpt>
      <trkpt lat="39.6860700286924839019775390625" lon="-0.21269322372972965240478515625">
        <ele>5</ele>
        <time>2022-05-07T10:36:00.000Z</time>
      </trkpt>
      <trkpt lat="39.68604966066777706146240234375" lon="-0.2125717699527740478515625">
        <ele>5</ele>
        <time>2022-05-07T10:36:02.000Z</time>
      </trkpt>
      <trkpt lat="39.68604463152587413787841796875" lon="-0.2125189639627933502197265625">
        <ele>5</ele>
        <time>2022-05-07T10:36:03.000Z</time>
      </trkpt>
      <trkpt lat="39.68603071756660938262939453125" lon="-0.21247294731438159942626953125">
        <ele>5</ele>
        <time>2022-05-07T10:36:04.000Z</time>
      </trkpt>
      <trkpt lat="39.685972630977630615234375" lon="-0.21240857429802417755126953125">
        <ele>5</ele>
        <time>2022-05-07T10:36:06.000Z</time>
      </trkpt>
      <trkpt lat="39.6858417056500911712646484375" lon="-0.21231017075479030609130859375">
        <ele>5</ele>
        <time>2022-05-07T10:36:10.000Z</time>
      </trkpt>
      <trkpt lat="39.6858018077909946441650390625" lon="-0.21230530925095081329345703125">
        <ele>5</ele>
        <time>2022-05-07T10:36:11.000Z</time>
      </trkpt>
      <trkpt lat="39.685597456991672515869140625" lon="-0.21228485740721225738525390625">
        <ele>5</ele>
        <time>2022-05-07T10:36:16.000Z</time>
      </trkpt>
      <trkpt lat="39.68544214032590389251708984375" lon="-0.2122886292636394500732421875">
        <ele>5</ele>
        <time>2022-05-07T10:36:21.000Z</time>
      </trkpt>
      <trkpt lat="39.68520510010421276092529296875" lon="-0.21229089237749576568603515625">
        <ele>5.19999980926513671875</ele>
        <time>2022-05-07T10:36:28.000Z</time>
      </trkpt>
      <trkpt lat="39.6849803812801837921142578125" lon="-0.21227697841823101043701171875">
        <ele>5</ele>
        <time>2022-05-07T10:36:34.000Z</time>
      </trkpt>
      <trkpt lat="39.68468693085014820098876953125" lon="-0.2122654952108860015869140625">
        <ele>4.599999904632568359375</ele>
        <time>2022-05-07T10:36:41.000Z</time>
      </trkpt>
      <trkpt lat="39.68441368080675601959228515625" lon="-0.21224663592875003814697265625">
        <ele>4.19999980926513671875</ele>
        <time>2022-05-07T10:36:47.000Z</time>
      </trkpt>
      <trkpt lat="39.68407697975635528564453125" lon="-0.21222333423793315887451171875">
        <ele>4.599999904632568359375</ele>
        <time>2022-05-07T10:36:54.000Z</time>
      </trkpt>
      <trkpt lat="39.6836570464074611663818359375" lon="-0.2122064866125583648681640625">
        <ele>5</ele>
        <time>2022-05-07T10:37:02.000Z</time>
      </trkpt>
      <trkpt lat="39.6832620911300182342529296875" lon="-0.2121917344629764556884765625">
        <ele>4.599999904632568359375</ele>
        <time>2022-05-07T10:37:10.000Z</time>
      </trkpt>
      <trkpt lat="39.6829160861670970916748046875" lon="-0.21217404864728450775146484375">
        <ele>4.19999980926513671875</ele>
        <time>2022-05-07T10:37:17.000Z</time>
      </trkpt>
      <trkpt lat="39.68255105428397655487060546875" lon="-0.21215057931840419769287109375">
        <ele>4.400000095367431640625</ele>
        <time>2022-05-07T10:37:25.000Z</time>
      </trkpt>
      <trkpt lat="39.682205803692340850830078125" lon="-0.21211705170571804046630859375">
        <ele>4.80000019073486328125</ele>
        <time>2022-05-07T10:37:32.000Z</time>
      </trkpt>
      <trkpt lat="39.68215827830135822296142578125" lon="-0.212105400860309600830078125">
        <ele>4.80000019073486328125</ele>
        <time>2022-05-07T10:37:33.000Z</time>
      </trkpt>
      <trkpt lat="39.682066328823566436767578125" lon="-0.2120613120496273040771484375">
        <ele>5</ele>
        <time>2022-05-07T10:37:35.000Z</time>
      </trkpt>
      <trkpt lat="39.681989215314388275146484375" lon="-0.2119841985404491424560546875">
        <ele>4.80000019073486328125</ele>
        <time>2022-05-07T10:37:37.000Z</time>
      </trkpt>
      <trkpt lat="39.68192744068801403045654296875" lon="-0.2118353359401226043701171875">
        <ele>4.400000095367431640625</ele>
        <time>2022-05-07T10:37:40.000Z</time>
      </trkpt>
      <trkpt lat="39.68191050924360752105712890625" lon="-0.21177892573177814483642578125">
        <ele>4.400000095367431640625</ele>
        <time>2022-05-07T10:37:41.000Z</time>
      </trkpt>
      <trkpt lat="39.681784696877002716064453125" lon="-0.211342312395572662353515625">
        <ele>4.19999980926513671875</ele>
        <time>2022-05-07T10:37:48.000Z</time>
      </trkpt>
      <trkpt lat="39.68170783482491970062255859375" lon="-0.21104433573782444000244140625">
        <ele>4</ele>
        <time>2022-05-07T10:37:53.000Z</time>
      </trkpt>
      <trkpt lat="39.68169023282825946807861328125" lon="-0.21098851226270198822021484375">
        <ele>4</ele>
        <time>2022-05-07T10:37:54.000Z</time>
      </trkpt>
      <trkpt lat="39.6815749816596508026123046875" lon="-0.21049909293651580810546875">
        <ele>3.599999904632568359375</ele>
        <time>2022-05-07T10:38:02.000Z</time>
      </trkpt>
      <trkpt lat="39.681505076587200164794921875" lon="-0.210162140429019927978515625">
        <ele>3.599999904632568359375</ele>
        <time>2022-05-07T10:38:08.000Z</time>
      </trkpt>
      <trkpt lat="39.68144397251307964324951171875" lon="-0.2099158801138401031494140625">
        <ele>3</ele>
        <time>2022-05-07T10:38:14.000Z</time>
      </trkpt>
      <trkpt lat="39.68138697557151317596435546875" lon="-0.20973072387278079986572265625">
        <ele>2.400000095367431640625</ele>
        <time>2022-05-07T10:38:19.000Z</time>
      </trkpt>
      <trkpt lat="39.6812920086085796356201171875" lon="-0.20953659899532794952392578125">
        <ele>2.2000000476837158203125</ele>
        <time>2022-05-07T10:38:24.000Z</time>
      </trkpt>
      <trkpt lat="39.68114121817052364349365234375" lon="-0.20948647521436214447021484375">
        <ele>2</ele>
        <time>2022-05-07T10:38:28.000Z</time>
      </trkpt>
      <trkpt lat="39.68088112771511077880859375" lon="-0.2094417996704578399658203125">
        <ele>2.2000000476837158203125</ele>
        <time>2022-05-07T10:38:35.000Z</time>
      </trkpt>
      <trkpt lat="39.68064785934984683990478515625" lon="-0.2093643508851528167724609375">
        <ele>2.400000095367431640625</ele>
        <time>2022-05-07T10:38:40.000Z</time>
      </trkpt>
      <trkpt lat="39.68030604533851146697998046875" lon="-0.20918003283441066741943359375">
        <ele>2.400000095367431640625</ele>
        <time>2022-05-07T10:38:47.000Z</time>
      </trkpt>
      <trkpt lat="39.67998468317091464996337890625" lon="-0.20893536508083343505859375">
        <ele>2</ele>
        <time>2022-05-07T10:38:54.000Z</time>
      </trkpt>
      <trkpt lat="39.67972920276224613189697265625" lon="-0.208692960441112518310546875">
        <ele>1.39999997615814208984375</ele>
        <time>2022-05-07T10:39:00.000Z</time>
      </trkpt>
      <trkpt lat="39.679547734558582305908203125" lon="-0.20864040590822696685791015625">
        <ele>1.7999999523162841796875</ele>
        <time>2022-05-07T10:39:04.000Z</time>
      </trkpt>
      <trkpt lat="39.679465256631374359130859375" lon="-0.20863034762442111968994140625">
        <ele>2.2000000476837158203125</ele>
        <time>2022-05-07T10:39:06.000Z</time>
      </trkpt>
      <trkpt lat="39.6793571300804615020751953125" lon="-0.20860813558101654052734375">
        <ele>2.599999904632568359375</ele>
        <time>2022-05-07T10:39:09.000Z</time>
      </trkpt>
      <trkpt lat="39.6792863868176937103271484375" lon="-0.208616517484188079833984375">
        <ele>2.7999999523162841796875</ele>
        <time>2022-05-07T10:39:13.000Z</time>
      </trkpt>
      <trkpt lat="39.67928730882704257965087890625" lon="-0.20861442200839519500732421875">
        <ele>2.7999999523162841796875</ele>
        <time>2022-05-07T10:39:14.000Z</time>
      </trkpt>
    </trkseg>
  </trk>
</gpx>
